Year Month Day hour minute seconds FractionSecond  Uvelocity_cm/s Vvelocity_cm/s W_velocity_cm/s horizontalSpeedCareful_cm/s TotalSpeedCareful_cm/s HorizontalWindDirection_deg WindElevation_deg SpeedOfSound_cm/sec Temperature_Kelvin Pressure_mb
2015 04 09 06 15 50 .08     -16    -12      0     21     22 232.2  -2.2  33146  272.63 0865.00
2015 04 09 06 15 50 .29     -19     -9     -1     22     23 244.7  -3.1  33144  272.61 0865.00
2015 04 09 06 15 50 .52     -16    -10     -4     20     21 237.5 -13.4  33144  272.60 0865.00
2015 04 09 06 15 50 .77     -18     -7      0     20     21 248.3  -2.2  33142  272.57 0865.00
2015 04 09 06 15 51 .03     -18    -12      0     22     23 235.8  -1.3  33138  272.50 0865.00
2015 04 09 06 15 51 .27     -19     -7      0     21     22 248.3  -2.2  33138  272.52 0865.00
2015 04 09 06 15 51 .53     -19     -7      0     21     22 248.3  -2.2  33138  272.52 0865.00
2015 04 09 06 15 51 .78     -18    -12      0     22     23 235.8  -1.3  33138  272.50 0865.00
2015 04 09 06 15 52 .02     -15     -8     -2     18     19 241.1  -7.3  33140  272.55 0865.00
2015 04 09 06 15 52 .31     -18    -12      0     22     23 235.8  -1.3  33138  272.50 0865.00
2015 04 09 06 15 52 .52     -18    -12      0     22     23 235.8  -1.3  33138  272.50 0865.00
2015 04 09 06 15 52 .79     -18    -12      0     22     23 235.8  -1.3  33138  272.50 0865.00
2015 04 09 06 15 53 .03     -18    -12      0     22     23 235.8  -1.3  33138  272.50 0865.00
2015 04 09 06 15 53 .28     -18    -12      0     22     23 235.8  -1.3  33138  272.50 0865.00
2015 04 09 06 15 53 .54     -18    -12      0     22     23 235.8  -1.3  33138  272.50 0865.00
2015 04 09 06 15 53 .85     -18    -12      0     22     23 235.8  -1.3  33138  272.50 0865.00
2015 04 09 06 15 54 .08     -18    -12      0     22     23 235.8  -1.3  33138  272.50 0865.00
2015 04 09 06 15 54 .31     -18    -12      0     22     23 235.8  -1.3  33138  272.50 0865.00
2015 04 09 06 15 54 .54     -18    -12      0     22     23 235.8  -1.3  33138  272.50 0865.00
2015 04 09 06 15 54 .79     -18    -12      0     22     23 235.8  -1.3  33138  272.50 0865.00
2015 04 09 06 15 55 .07     -18    -12      0     22     23 235.8  -1.3  33138  272.50 0865.00
2015 04 09 06 15 55 .30     -18    -12      0     22     23 235.8  -1.3  33138  272.50 0865.00
2015 04 09 06 15 55 .54     -18    -12      0     22     23 235.8  -1.3  33138  272.50 0865.00
2015 04 09 06 15 55 .79     -18    -12      0     22     23 235.8  -1.3  33138  272.50 0865.01
2015 04 09 06 15 56 .04     -18    -12      0     22     23 235.8  -1.3  33138  272.50 0865.01
2015 04 09 06 15 56 .31     -18    -12      0     22     23 235.8  -1.3  33138  272.50 0865.01
2015 04 09 06 15 56 .55     -18    -12      0     22     23 235.8  -1.3  33138  272.50 0865.01
2015 04 09 06 15 56 .79     -18    -12      0     22     23 235.8  -1.3  33138  272.50 0865.01
2015 04 09 06 15 57 .04     -10    -11      0     16     17 223.4  -2.2  33138  272.52 0865.01
2015 04 09 06 15 57 .29     -19    -15     -1     25     26 230.5  -2.2  33136  272.47 0865.01
2015 04 09 06 15 57 .54     -19    -15     -1     25     26 230.5  -2.2  33136  272.47 0865.01
2015 04 09 06 15 57 .79     -19    -15     -1     25     26 230.5  -2.2  33136  272.47 0865.01
2015 04 09 06 15 58 .10     -19    -15     -1     25     26 230.5  -2.2  33136  272.47 0865.01
2015 04 09 06 15 58 .30     -18    -12      0     22     23 235.8  -1.3  33138  272.50 0865.01
2015 04 09 06 15 58 .55     -18    -12      0     22     23 235.8  -1.3  33138  272.50 0865.01
2015 04 09 06 15 58 .86     -18    -12      0     22     23 235.8  -1.3  33138  272.50 0865.01
2015 04 09 06 15 59 .09     -18    -12      0     22     23 235.8  -1.3  33138  272.50 0865.01
2015 04 09 06 15 59 .32     -19    -15     -1     25     26 230.5  -2.2  33136  272.47 0865.01
2015 04 09 06 15 59 .55     -19    -15     -1     25     26 230.5  -2.2  33136  272.47 0865.01
2015 04 09 06 15 59 .81     -24    -12     -3     27     28 242.9  -7.3  33140  272.53 0865.01
2015 04 09 06 16 00 .07     -17    -11     -6     21     23 235.8 -17.6  33148  272.66 0865.01
2015 04 09 06 16 00 .31     -26    -11     -1     29     30 246.5  -3.1  33154  272.76 0865.01
2015 04 09 06 16 00 .58     -21    -15     -2     26     27 234.0  -5.2  33160  272.86 0865.01
2015 04 09 06 16 00 .81     -23     -7      0     25     26 253.2  -1.3  33166  272.96 0865.01
2015 04 09 06 16 01 .07     -23     -7     -1     25     26 251.6  -2.2  33160  272.88 0865.01
2015 04 09 06 16 01 .32     -24     -2     -1     25     26 263.9  -3.1  33174  273.11 0865.01
2015 04 09 06 16 01 .57     -27      0      1     28     29 269.2   2.8  33174  273.11 0865.01
2015 04 09 06 16 01 .82     -27      0      1     28     29 270.0   2.8  33160  272.86 0865.01
2015 04 09 06 16 02 .07     -31      0      1     32     33 269.2   2.9  33158  272.83 0865.01
2015 04 09 06 16 02 .32     -25      0      2     26     27 270.8   4.9  33154  272.78 0865.01
2015 04 09 06 16 02 .57     -21     -3      0     22     23 260.3   0.8  33148  272.66 0865.01
2015 04 09 06 16 02 .82     -23      0      0     24     25 269.2  -2.2  33142  272.58 0865.01
2015 04 09 06 16 03 .07     -23     -7      0     25     26 251.6  -1.3  33140  272.53 0865.01
2015 04 09 06 16 03 .32     -15     -7      2     17     18 244.7   6.9  33138  272.52 0865.01
2015 04 09 06 16 03 .57     -18    -12      0     22     23 235.8  -1.3  33138  272.50 0865.01
2015 04 09 06 16 03 .84     -26    -12      3     29     30 244.7   6.9  33138  272.50 0865.01
2015 04 09 06 16 04 .07     -18    -12      0     22     23 235.8  -1.3  33138  272.50 0865.01
2015 04 09 06 16 04 .32     -18    -12      0     22     23 235.8  -1.3  33138  272.50 0865.01
2015 04 09 06 16 04 .57     -23    -13      1     27     28 239.3   2.9  33138  272.52 0865.01
2015 04 09 06 16 04 .82     -15     -7      2     17     18 244.7   6.9  33138  272.52 0865.01
2015 04 09 06 16 05 .07     -18    -12      0     22     23 235.8  -1.3  33138  272.50 0865.01
2015 04 09 06 16 05 .32     -18    -12      0     22     23 235.8  -1.3  33138  272.50 0865.01
2015 04 09 06 16 05 .62     -23    -13      1     27     28 239.3   2.9  33138  272.52 0865.01
2015 04 09 06 16 05 .85     -19     -7     -1     21     22 248.3  -3.1  33148  272.66 0865.01
2015 04 09 06 16 06 .08     -18    -12      0     22     23 235.8  -2.2  33148  272.68 0865.01
2015 04 09 06 16 06 .33     -15     -8      0     18     19 241.1   2.9  33144  272.61 0865.01
2015 04 09 06 16 06 .57     -18    -12      0     22     23 235.8  -1.3  33138  272.50 0865.00
2015 04 09 06 16 06 .85     -18    -12      0     22     23 235.8  -1.3  33138  272.50 0865.00
2015 04 09 06 16 07 .09     -22    -12      1     26     27 241.1   2.8  33142  272.57 0865.00
2015 04 09 06 16 07 .34     -18     -7     -1     20     21 248.3  -5.2  33154  272.76 0865.00
2015 04 09 06 16 07 .59     -11     -3      4     12     13 251.8  19.4  33166  272.98 0865.00
2015 04 09 06 16 07 .89     -11     -8      6     14     15 234.0  23.0  33170  273.04 0865.00
2015 04 09 06 16 08 .12     -11     -8      7     14     15 234.0  27.2  33168  272.99 0865.00
2015 04 09 06 16 08 .35     -11     -8      7     14     15 234.0  27.2  33166  272.96 0865.00
2015 04 09 06 16 08 .59     -16     -9      8     19     20 241.1  23.0  33160  272.88 0865.00
2015 04 09 06 16 08 .84     -10    -11      3     16     17 223.4  11.1  33148  272.68 0865.00
2015 04 09 06 16 09 .15     -16    -12      0     21     22 232.2  -2.2  33146  272.63 0865.00
2015 04 09 06 16 09 .39     -19     -7     -1     21     22 248.3  -3.1  33148  272.66 0865.00
2015 04 09 06 16 09 .62     -12    -12      0     17     18 225.0  -3.1  33162  272.91 0865.00
2015 04 09 06 16 09 .85     -15     -8      0     18     19 241.1   2.9  33172  273.06 0865.00
2015 04 09 06 16 10 .09     -15     -3      5     16     18 258.5  19.2  33168  273.01 0865.00
2015 04 09 06 16 10 .34     -16     -3      5     17     18 258.5  18.9  33162  272.91 0865.00
2015 04 09 06 16 10 .61     -16     -7      9     18     20 244.7  29.3  33160  272.88 0865.00
2015 04 09 06 16 10 .86     -10    -11      3     16     17 223.4  11.1  33160  272.88 0865.00
2015 04 09 06 16 11 .10      -7    -10      1     13     14 216.1   6.9  33160  272.86 0865.00
2015 04 09 06 16 11 .36      -6     -7      4     10     10 223.2  23.0  33158  272.83 0865.00
2015 04 09 06 16 11 .63      -4    -12      6     13     14 198.7  23.0  33156  272.81 0865.00
2015 04 09 06 16 11 .86     -10     -7      0     13     14 234.0  -2.2  33154  272.78 0865.00
2015 04 09 06 16 12 .10     -15     -7      0     17     18 244.7   2.9  33156  272.81 0865.00
2015 04 09 06 16 12 .35     -11     -8      7     14     15 234.0  27.2  33166  272.96 0865.00
2015 04 09 06 16 12 .60     -16    -11      5     20     21 234.0  15.3  33172  273.06 0865.00
2015 04 09 06 16 12 .86     -20     -8     10     22     24 248.3  25.1  33174  273.11 0865.00
2015 04 09 06 16 13 .10     -19     -7     11     21     23 248.3  29.3  33164  272.94 0865.01
2015 04 09 06 16 13 .35     -23    -13      1     27     28 239.3   2.9  33160  272.86 0865.01
2015 04 09 06 16 13 .60     -23     -7     -1     25     26 251.6  -2.2  33148  272.68 0865.01
2015 04 09 06 16 13 .86     -18     -7      0     20     21 248.3  -2.2  33142  272.57 0865.01
2015 04 09 06 16 14 .11     -16    -11      0     20     21 234.0  -2.2  33140  272.55 0865.01
2015 04 09 06 16 14 .41     -18    -12      0     22     23 235.8  -1.3  33138  272.50 0865.01
2015 04 09 06 16 14 .64     -19     -7      0     21     22 248.3  -2.2  33138  272.52 0865.01
2015 04 09 06 16 14 .87     -19     -7      0     21     22 248.3  -2.2  33138  272.52 0865.00
2015 04 09 06 16 15 .12     -19     -7      0     21     22 248.3  -2.2  33138  272.52 0865.00
2015 04 09 06 16 15 .37     -16     -6     -2     18     19 248.3  -7.2  33140  272.53 0865.00
2015 04 09 06 16 15 .62     -15     -8     -2     18     19 241.1  -7.3  33140  272.55 0865.00
2015 04 09 06 16 15 .87     -15     -8     -2     18     19 241.1  -7.3  33140  272.55 0865.00
2015 04 09 06 16 16 .12     -15     -8     -2     18     19 241.1  -7.3  33140  272.55 0865.00
2015 04 09 06 16 16 .37     -19     -7      0     21     22 248.3  -2.2  33138  272.52 0865.00
2015 04 09 06 16 16 .67     -19     -7      0     21     22 248.3  -2.2  33138  272.52 0865.01
2015 04 09 06 16 16 .90     -19     -7      0     21     22 248.3  -2.2  33138  272.52 0865.01
2015 04 09 06 16 17 .13     -18     -7      0     20     21 248.3  -2.2  33142  272.57 0865.01
2015 04 09 06 16 17 .37     -22    -14      1     27     28 237.6   2.8  33144  272.61 0865.01
2015 04 09 06 16 17 .62     -28    -13      2     31     32 244.7   4.9  33146  272.63 0865.01
2015 04 09 06 16 17 .87     -22    -14      1     27     28 237.6   2.8  33144  272.61 0865.01
2015 04 09 06 16 18 .17     -23     -7     -1     25     26 251.6  -2.2  33148  272.68 0865.01
2015 04 09 06 16 18 .37     -23     -7     -1     25     26 251.6  -2.2  33146  272.63 0865.01
2015 04 09 06 16 18 .63     -30    -17      1     35     36 239.3   2.8  33144  272.61 0865.00
2015 04 09 06 16 18 .87     -22     -8      0     24     25 250.0  -2.2  33146  272.63 0865.00
2015 04 09 06 16 19 .13     -18     -7      0     20     21 248.3  -2.2  33150  272.71 0865.00
2015 04 09 06 16 19 .38     -23     -7     -1     25     26 251.6  -2.2  33172  273.08 0865.00
2015 04 09 06 16 19 .63     -15     -3      0     16     17 258.5  -2.2  33164  272.93 0865.00
2015 04 09 06 16 19 .88     -19     -7     -1     21     22 248.3  -3.1  33150  272.71 0865.00
2015 04 09 06 16 20 .13     -23     -7     -1     25     26 251.6  -2.2  33148  272.68 0865.00
2015 04 09 06 16 20 .38     -19     -9     -1     22     23 244.7  -3.1  33144  272.61 0865.00
2015 04 09 06 16 20 .64     -21     -4      2     22     23 258.5   6.9  33142  272.57 0865.00
2015 04 09 06 16 20 .89     -16     -5      0     17     18 251.4  -2.2  33142  272.58 0865.00
2015 04 09 06 16 21 .18     -23     -7      0     25     26 251.6  -1.3  33140  272.53 0865.00
2015 04 09 06 16 21 .42     -23     -7      0     25     26 251.6  -1.3  33140  272.53 0865.00
2015 04 09 06 16 21 .65     -23     -7      0     25     26 251.6  -1.3  33140  272.53 0865.00
2015 04 09 06 16 21 .89     -23    -13      1     27     28 239.3   2.9  33138  272.52 0865.00
2015 04 09 06 16 22 .14     -18    -12      0     22     23 235.8  -1.3  33138  272.50 0865.00
2015 04 09 06 16 22 .39     -21    -13     -3     25     26 237.6  -7.3  33144  272.60 0865.00
2015 04 09 06 16 22 .69     -23    -13      1     27     28 239.3   2.9  33142  272.57 0865.00
2015 04 09 06 16 22 .92     -18     -7      0     20     21 248.3  -2.2  33142  272.57 0865.00
2015 04 09 06 16 23 .14     -18     -7      0     20     21 248.3  -2.2  33142  272.57 0865.00
2015 04 09 06 16 23 .41     -15     -8     -2     18     19 241.1  -7.3  33140  272.55 0865.00
2015 04 09 06 16 23 .68     -15     -8     -2     18     19 241.1  -7.3  33140  272.55 0865.00
2015 04 09 06 16 23 .91     -16     -6     -2     18     19 248.3  -7.2  33140  272.53 0865.00
2015 04 09 06 16 24 .15     -19     -7      0     21     22 248.3  -2.2  33138  272.52 0865.00
2015 04 09 06 16 24 .40     -19     -7      0     21     22 248.3  -2.2  33138  272.52 0865.00
2015 04 09 06 16 24 .67     -23     -7      0     25     26 251.6  -1.3  33140  272.53 0865.00
2015 04 09 06 16 24 .90     -26    -13     -1     30     31 242.9  -3.1  33144  272.61 0865.00
2015 04 09 06 16 25 .17     -15     -8      0     18     19 241.1   2.9  33162  272.91 0865.00
2015 04 09 06 16 25 .41     -19     -7      4     21     22 248.3  11.1  33164  272.93 0865.00
2015 04 09 06 16 25 .65     -21    -10      1     24     25 242.9   2.8  33154  272.76 0865.00
2015 04 09 06 16 25 .92     -23    -13      0     27     28 239.3  -1.3  33150  272.71 0865.00
2015 04 09 06 16 26 .15     -23     -7     -1     25     26 251.6  -2.2  33146  272.63 0865.00
2015 04 09 06 16 26 .40     -18    -12      0     22     23 235.8  -1.3  33140  272.53 0865.00
2015 04 09 06 16 26 .66     -18    -12      0     22     23 235.8  -1.3  33138  272.50 0865.00
2015 04 09 06 16 26 .90     -18    -12      0     22     23 235.8  -1.3  33138  272.50 0865.00
2015 04 09 06 16 27 .16     -18    -12      0     22     23 235.8  -1.3  33138  272.50 0865.00
2015 04 09 06 16 27 .43     -18    -12      0     22     23 235.8  -1.3  33138  272.50 0865.00
2015 04 09 06 16 27 .66     -16    -11      0     20     21 234.0  -2.2  33140  272.55 0865.00
2015 04 09 06 16 27 .93     -16    -12      0     21     22 232.2  -2.2  33146  272.63 0865.00
2015 04 09 06 16 28 .17     -15     -3      5     16     18 258.5  19.2  33172  273.06 0865.00
2015 04 09 06 16 28 .45     -18     -7      0     20     21 248.3  -2.2  33150  272.71 0865.00
2015 04 09 06 16 28 .67     -22    -12      1     26     27 241.1   2.8  33150  272.71 0865.00
2015 04 09 06 16 28 .92     -11     -8      7     14     15 234.0  27.2  33162  272.91 0865.00
2015 04 09 06 16 29 .17     -21    -15      4     26     27 234.0   9.0  33158  272.83 0865.00
2015 04 09 06 16 29 .42     -10    -11      3     16     17 223.4  11.1  33152  272.73 0865.00
2015 04 09 06 16 29 .68      -8    -10      0     14     15 219.6   2.9  33150  272.71 0865.00
2015 04 09 06 16 29 .93      -8    -10      0     14     15 219.6   2.9  33150  272.71 0865.00
2015 04 09 06 16 30 .17     -11     -8      6     14     15 234.0  23.0  33156  272.81 0865.00
2015 04 09 06 16 30 .42     -12     -8     13     15     19 234.0  45.8  33160  272.88 0865.00
2015 04 09 06 16 30 .68     -11     -8      7     14     15 234.0  27.2  33166  272.96 0865.00
2015 04 09 06 16 30 .93     -11     -8      6     14     15 234.0  23.0  33162  272.91 0865.00
2015 04 09 06 16 31 .17     -14     -3     11     15     18 254.9  39.7  33164  272.94 0865.00
2015 04 09 06 16 31 .43     -20     -8     10     22     24 248.3  25.1  33172  273.06 0865.00
2015 04 09 06 16 31 .68     -18     -7      3     20     21 248.3   9.0  33166  272.98 0865.00
2015 04 09 06 16 31 .92     -18    -12      7     22     24 235.8  19.4  33160  272.86 0865.00
2015 04 09 06 16 32 .17     -16     -4      6     17     19 254.9  19.4  33156  272.81 0865.00
2015 04 09 06 16 32 .42     -23     -7     -1     25     26 251.6  -2.2  33148  272.68 0865.00
2015 04 09 06 16 32 .67     -18    -12      7     22     24 235.8  19.4  33142  272.57 0865.00
2015 04 09 06 16 32 .93     -23    -13      1     27     28 239.3   2.9  33138  272.52 0865.00
2015 04 09 06 16 33 .18     -23    -13      1     27     28 239.3   2.9  33138  272.52 0865.00
2015 04 09 06 16 33 .43     -19     -7      0     21     22 248.3  -2.2  33138  272.52 0865.00
2015 04 09 06 16 33 .68     -21    -13     -3     25     26 237.6  -7.3  33144  272.60 0865.00
2015 04 09 06 16 33 .93     -19     -9     -1     22     23 244.7  -3.1  33144  272.61 0865.00
2015 04 09 06 16 34 .23     -18    -12      7     22     24 235.8  19.4  33142  272.57 0865.00
2015 04 09 06 16 34 .46     -21    -15      4     26     27 234.0   9.0  33140  272.53 0865.00
2015 04 09 06 16 34 .70     -18    -12      7     22     24 235.8  19.4  33142  272.57 0865.00
2015 04 09 06 16 34 .94     -25    -11     -1     28     29 246.5  -2.2  33140  272.55 0865.00
2015 04 09 06 16 35 .19     -16    -12      0     21     22 232.2  -2.2  33146  272.63 0865.00
2015 04 09 06 16 35 .44     -23    -13      1     27     28 239.3   2.9  33142  272.57 0865.00
2015 04 09 06 16 35 .74     -23     -7      0     25     26 251.6  -1.3  33140  272.53 0865.00
2015 04 09 06 16 35 .97     -23     -7      0     25     26 251.6  -1.3  33140  272.53 0865.00
2015 04 09 06 16 36 .20     -18    -12      0     22     23 235.8  -1.3  33138  272.50 0865.00
2015 04 09 06 16 36 .44     -18    -12      0     22     23 235.8  -1.3  33138  272.50 0865.00
2015 04 09 06 16 36 .69     -18    -12      0     22     23 235.8  -1.3  33138  272.50 0865.00
2015 04 09 06 16 36 .94     -18    -12      0     22     23 235.8  -1.3  33138  272.50 0865.00
2015 04 09 06 16 37 .24     -23    -13      1     27     28 239.3   2.9  33138  272.52 0865.00
2015 04 09 06 16 37 .48     -18    -12      0     22     23 235.8  -1.3  33138  272.50 0865.00
2015 04 09 06 16 37 .71     -18    -12      0     22     23 235.8  -1.3  33138  272.50 0865.00
2015 04 09 06 16 37 .95     -18    -12      0     22     23 235.8  -1.3  33138  272.50 0865.00
2015 04 09 06 16 38 .20     -18    -12      0     22     23 235.8  -1.3  33138  272.50 0865.00
2015 04 09 06 16 38 .45     -18    -12      0     22     23 235.8  -1.3  33138  272.50 0865.00
2015 04 09 06 16 38 .75     -10    -11      0     16     17 223.4  -2.2  33138  272.52 0865.00
2015 04 09 06 16 38 .98     -10    -11      0     16     17 223.4  -2.2  33138  272.52 0865.00
2015 04 09 06 16 39 .21     -10    -11      0     16     17 223.4  -2.2  33138  272.52 0865.00
2015 04 09 06 16 39 .45     -18    -12      0     22     23 235.8  -1.3  33138  272.50 0865.00
2015 04 09 06 16 39 .70     -18    -12      0     22     23 235.8  -1.3  33138  272.50 0865.00
2015 04 09 06 16 39 .95     -10    -11      0     16     17 223.4  -2.2  33138  272.52 0865.00
2015 04 09 06 16 40 .20     -10    -11      0     16     17 223.4  -2.2  33138  272.52 0865.00
2015 04 09 06 16 40 .45     -10    -11      0     16     17 223.4  -2.2  33138  272.52 0865.00
2015 04 09 06 16 40 .70     -10    -11      0     16     17 223.4  -2.2  33138  272.52 0865.00
2015 04 09 06 16 40 .96     -18    -12      0     22     23 235.8  -1.3  33138  272.50 0865.00
2015 04 09 06 16 41 .20     -18    -12      0     22     23 235.8  -1.3  33138  272.50 0865.00
2015 04 09 06 16 41 .46     -18    -12      0     22     23 235.8  -1.3  33138  272.50 0865.00
2015 04 09 06 16 41 .76     -18    -12      0     22     23 235.8  -1.3  33138  272.50 0865.00
2015 04 09 06 16 41 .97     -19    -15     -1     25     26 230.5  -2.2  33136  272.47 0865.00
2015 04 09 06 16 42 .22     -19    -15     -1     25     26 230.5  -2.2  33136  272.47 0865.00
2015 04 09 06 16 42 .47     -19    -15     -1     25     26 230.5  -2.2  33136  272.47 0865.00
2015 04 09 06 16 42 .72     -19    -15     -1     25     26 230.5  -2.2  33136  272.47 0865.00
2015 04 09 06 16 42 .97     -19    -15     -1     25     26 230.5  -2.2  33136  272.47 0865.00
2015 04 09 06 16 43 .27     -19    -15     -1     25     26 230.5  -2.2  33136  272.47 0865.00
2015 04 09 06 16 43 .51     -19    -15     -1     25     26 230.5  -2.2  33136  272.47 0865.00
2015 04 09 06 16 43 .74     -23    -19     -3     30     31 230.4  -7.3  33138  272.50 0865.00
2015 04 09 06 16 43 .97     -18    -18     -6     26     27 225.0 -13.4  33138  272.52 0865.00
2015 04 09 06 16 44 .22     -18    -18     -6     26     27 225.0 -13.4  33138  272.52 0865.00
2015 04 09 06 16 44 .47     -23    -19     -3     30     31 230.4  -7.3  33138  272.50 0865.00
2015 04 09 06 16 44 .78     -23    -19     -3     30     31 230.4  -7.3  33138  272.50 0865.00
2015 04 09 06 16 45 .01     -21    -19      1     29     30 226.9   2.8  33142  272.57 0865.00
2015 04 09 06 16 45 .24     -19    -15     -1     25     26 230.5  -2.2  33138  272.52 0865.00
2015 04 09 06 16 45 .48     -18    -18     -6     26     27 225.0 -13.4  33138  272.52 0865.00
2015 04 09 06 16 45 .72     -15    -15     -4     22     23 225.0 -11.3  33138  272.50 0865.00
2015 04 09 06 16 45 .98     -15    -15     -4     22     23 225.0 -11.3  33138  272.50 0865.00
2015 04 09 06 16 46 .23     -11    -22     -6     25     26 207.2 -13.4  33142  272.57 0865.00
2015 04 09 06 16 46 .48     -19    -19     -3     28     29 225.1  -7.3  33146  272.63 0865.00
2015 04 09 06 16 46 .79     -15    -15      0     22     23 225.0   0.8  33144  272.61 0865.00
2015 04 09 06 16 47 .02     -10    -11      3     16     17 223.4  11.1  33142  272.58 0865.00
2015 04 09 06 16 47 .23     -10    -11      3     16     17 223.4  11.1  33142  272.58 0865.00
2015 04 09 06 16 47 .48     -18    -12      7     22     24 235.8  19.4  33142  272.57 0865.00
2015 04 09 06 16 47 .74     -18    -12      7     22     24 235.8  19.4  33142  272.57 0865.00
2015 04 09 06 16 47 .98     -14    -14      7     21     23 225.0  18.9  33146  272.63 0865.00
2015 04 09 06 16 48 .23     -18    -15      2     24     25 228.7   4.9  33148  272.68 0865.00
2015 04 09 06 16 48 .49     -19    -19      1     28     29 225.1   2.8  33150  272.70 0865.00
2015 04 09 06 16 48 .74     -15    -21      1     27     28 216.1   2.8  33144  272.61 0865.00
2015 04 09 06 16 49 .01     -19    -21      2     29     30 223.2   4.9  33146  272.63 0865.00
2015 04 09 06 16 49 .24     -17    -18     -1     25     26 223.2  -2.2  33144  272.60 0865.00
2015 04 09 06 16 49 .52     -18    -18     -1     26     27 225.0  -2.2  33140  272.55 0864.99
2015 04 09 06 16 49 .75     -17    -18     -1     25     26 223.2  -2.2  33144  272.60 0864.99
2015 04 09 06 16 50 .02     -18    -18     -1     26     27 225.0  -2.2  33140  272.55 0864.99
2015 04 09 06 16 50 .25     -21    -15      4     26     27 234.0   9.0  33140  272.53 0864.99
2015 04 09 06 16 50 .50     -21    -15      4     26     27 234.0   9.0  33140  272.53 0865.00
2015 04 09 06 16 50 .80     -23    -13      1     27     28 239.3   2.9  33138  272.52 0865.00
2015 04 09 06 16 51 .03     -21    -19      1     29     30 226.9   2.8  33142  272.57 0865.00
2015 04 09 06 16 51 .26     -21    -15      4     26     27 234.0   9.0  33140  272.53 0865.00
2015 04 09 06 16 51 .50     -16    -11      0     20     21 234.0  -2.2  33140  272.55 0865.00
2015 04 09 06 16 51 .75     -10    -11      0     16     17 223.4  -2.2  33138  272.52 0865.00
2015 04 09 06 16 52 .06     -19    -15     -1     25     26 230.5  -2.2  33136  272.47 0865.00
2015 04 09 06 16 52 .29     -18    -12      0     22     23 235.8  -1.3  33138  272.50 0864.99
2015 04 09 06 16 52 .53     -18    -12      0     22     23 235.8  -1.3  33138  272.50 0864.99
2015 04 09 06 16 52 .76     -19    -15     -1     25     26 230.5  -2.2  33136  272.47 0864.99
2015 04 09 06 16 53 .00     -14    -12      0     19     20 230.5  -2.2  33138  272.52 0864.99
2015 04 09 06 16 53 .25     -16    -11      0     20     21 234.0  -2.2  33140  272.55 0864.99
2015 04 09 06 16 53 .50     -10    -11      0     16     17 223.4  -2.2  33138  272.52 0864.99
2015 04 09 06 16 53 .78     -18    -12      0     22     23 235.8  -1.3  33138  272.50 0864.99
2015 04 09 06 16 54 .01     -18    -12      0     22     23 235.8  -1.3  33138  272.50 0864.99
2015 04 09 06 16 54 .26     -18    -15     -2     24     25 228.7  -5.2  33142  272.57 0864.99
2015 04 09 06 16 54 .51     -17    -18     -1     25     26 223.2  -2.2  33144  272.60 0864.99
2015 04 09 06 16 54 .76     -19    -15     -1     25     26 230.5  -2.2  33138  272.52 0864.99
2015 04 09 06 16 55 .07     -19    -15     -1     25     26 230.5  -2.2  33138  272.52 0865.00
2015 04 09 06 16 55 .30     -23    -13      1     27     28 239.3   2.9  33138  272.52 0865.00
2015 04 09 06 16 55 .54     -18    -12      0     22     23 235.8  -1.3  33138  272.50 0865.00
2015 04 09 06 16 55 .77     -19    -15     -1     25     26 230.5  -2.2  33138  272.52 0865.00
2015 04 09 06 16 56 .02     -23    -19     -3     30     31 230.4  -7.3  33138  272.50 0865.00
2015 04 09 06 16 56 .27     -19    -15     -1     25     26 230.5  -2.2  33138  272.52 0865.00
2015 04 09 06 16 56 .52     -19    -15     -1     25     26 230.5  -2.2  33138  272.52 0865.00
2015 04 09 06 16 56 .79     -19    -15     -1     25     26 230.5  -2.2  33138  272.52 0865.00
2015 04 09 06 16 57 .02     -23    -19     -3     30     31 230.4  -7.3  33138  272.50 0865.00
2015 04 09 06 16 57 .29     -23    -19     -3     30     31 230.4  -7.3  33138  272.50 0865.00
2015 04 09 06 16 57 .54     -23    -19     -3     30     31 230.4  -7.3  33138  272.50 0865.00
2015 04 09 06 16 57 .77     -23    -19     -3     30     31 230.4  -7.3  33138  272.50 0865.00
2015 04 09 06 16 58 .04     -23    -19     -3     30     31 230.4  -7.3  33138  272.50 0865.00
2015 04 09 06 16 58 .27     -23    -19     -3     30     31 230.4  -7.3  33138  272.50 0865.00
2015 04 09 06 16 58 .53     -23    -19     -3     30     31 230.4  -7.3  33138  272.50 0865.00
2015 04 09 06 16 58 .78     -23    -19     -3     30     31 230.4  -7.3  33138  272.50 0864.99
2015 04 09 06 16 59 .03     -23    -19     -3     30     31 230.4  -7.3  33138  272.50 0864.99
2015 04 09 06 16 59 .28     -23    -19     -3     30     31 230.4  -7.3  33138  272.50 0864.99
2015 04 09 06 16 59 .53     -23    -19     -3     30     31 230.4  -7.3  33138  272.50 0864.99
2015 04 09 06 16 59 .78     -19    -15     -1     25     26 230.5  -2.2  33138  272.52 0864.99
2015 04 09 06 17 00 .03     -23    -13      1     27     28 239.3   2.9  33138  272.52 0864.99
2015 04 09 06 17 00 .28     -23    -13      1     27     28 239.3   2.9  33142  272.57 0864.99
2015 04 09 06 17 00 .53     -21    -15     -2     26     27 234.0  -5.2  33148  272.66 0865.00
2015 04 09 06 17 00 .78     -18    -15     -2     24     25 228.7  -5.2  33144  272.61 0865.00
2015 04 09 06 17 01 .03     -18    -15     -2     24     25 228.7  -5.2  33144  272.61 0865.00
2015 04 09 06 17 01 .28     -23    -13      1     27     28 239.3   2.9  33142  272.57 0865.00
2015 04 09 06 17 01 .53     -19    -15     -1     25     26 230.5  -2.2  33138  272.52 0865.00
2015 04 09 06 17 01 .79     -17    -18     -1     25     26 223.2  -2.2  33144  272.60 0865.00
2015 04 09 06 17 02 .03     -25    -16     -1     30     31 237.5  -2.2  33142  272.58 0865.00
2015 04 09 06 17 02 .28     -23    -13      1     27     28 239.3   2.9  33142  272.57 0864.99
2015 04 09 06 17 02 .54     -21    -15      4     26     27 234.0   9.0  33140  272.53 0864.99
2015 04 09 06 17 02 .79     -21    -15      4     26     27 234.0   9.0  33140  272.53 0864.99
2015 04 09 06 17 03 .05     -15    -15      0     22     23 225.0   0.8  33144  272.61 0864.99
2015 04 09 06 17 03 .29     -16    -12      0     21     22 232.2  -2.2  33146  272.63 0864.99
2015 04 09 06 17 03 .55     -16    -12      0     21     22 232.2  -2.2  33146  272.63 0864.99
2015 04 09 06 17 03 .80     -16    -11      0     20     21 234.0  -2.2  33142  272.58 0864.99
2015 04 09 06 17 04 .05     -15     -8     -2     18     19 241.1  -7.3  33140  272.55 0864.99
2015 04 09 06 17 04 .30     -18    -12      0     22     23 235.8  -1.3  33138  272.50 0864.99
2015 04 09 06 17 04 .55     -15    -15     -4     22     23 225.0 -11.3  33138  272.50 0864.99
2015 04 09 06 17 04 .80     -15    -15     -4     22     23 225.0 -11.3  33138  272.50 0864.99
2015 04 09 06 17 05 .05     -19    -15     -1     25     26 230.5  -2.2  33136  272.47 0865.00
2015 04 09 06 17 05 .30     -19    -15     -1     25     26 230.5  -2.2  33136  272.47 0865.00
2015 04 09 06 17 05 .55     -19    -15     -1     25     26 230.5  -2.2  33136  272.47 0865.00
2015 04 09 06 17 05 .80     -19    -15     -1     25     26 230.5  -2.2  33136  272.47 0865.00
2015 04 09 06 17 06 .05     -18    -18     -6     26     27 225.0 -13.4  33138  272.52 0865.00
2015 04 09 06 17 06 .30     -15    -15     -4     22     23 225.0 -11.3  33138  272.50 0865.00
2015 04 09 06 17 06 .55     -15    -15     -4     22     23 225.0 -11.3  33138  272.50 0865.00
2015 04 09 06 17 06 .80     -15    -15     -4     22     23 225.0 -11.3  33138  272.50 0865.00
2015 04 09 06 17 07 .05     -15    -15     -4     22     23 225.0 -11.3  33138  272.50 0865.00
2015 04 09 06 17 07 .30     -15    -15     -4     22     23 225.0 -11.3  33138  272.50 0865.00
2015 04 09 06 17 07 .56     -19    -15     -1     25     26 230.5  -2.2  33136  272.47 0865.00
2015 04 09 06 17 07 .81     -19    -15     -1     25     26 230.5  -2.2  33136  272.47 0865.00
2015 04 09 06 17 08 .06     -19    -15     -1     25     26 230.5  -2.2  33136  272.47 0865.00
2015 04 09 06 17 08 .31     -19    -15     -1     25     26 230.5  -2.2  33136  272.47 0865.00
2015 04 09 06 17 08 .56     -19    -15     -1     25     26 230.5  -2.2  33136  272.47 0865.00
2015 04 09 06 17 08 .81     -19    -15     -1     25     26 230.5  -2.2  33136  272.47 0865.00
2015 04 09 06 17 09 .06     -19    -15     -1     25     26 230.5  -2.2  33136  272.47 0865.00
2015 04 09 06 17 09 .32     -19    -15     -1     25     26 230.5  -2.2  33136  272.47 0865.00
2015 04 09 06 17 09 .57     -19    -15     -1     25     26 230.5  -2.2  33136  272.47 0865.00
2015 04 09 06 17 09 .82     -19    -15     -1     25     26 230.5  -2.2  33136  272.47 0865.00
2015 04 09 06 17 10 .07     -15    -15     -4     22     23 225.0 -11.3  33138  272.50 0865.00
2015 04 09 06 17 10 .32     -19    -15     -1     25     26 230.5  -2.2  33136  272.47 0865.00
2015 04 09 06 17 10 .57     -23    -19     -3     30     31 230.4  -7.3  33138  272.50 0865.00
2015 04 09 06 17 10 .82     -18    -18     -6     26     27 225.0 -13.4  33138  272.52 0865.00
2015 04 09 06 17 11 .07     -23    -19     -3     30     31 230.4  -7.3  33138  272.50 0865.00
2015 04 09 06 17 11 .32     -19    -15     -1     25     26 230.5  -2.2  33136  272.47 0865.00
2015 04 09 06 17 11 .57     -18    -18      0     26     27 225.0   0.8  33134  272.43 0865.00
2015 04 09 06 17 11 .82     -18    -18      0     26     27 225.0   0.8  33134  272.43 0865.00
2015 04 09 06 17 12 .08     -18    -18      0     26     27 225.0   0.8  33134  272.43 0865.00
2015 04 09 06 17 12 .33     -18    -18      0     26     27 225.0   0.8  33134  272.43 0865.00
2015 04 09 06 17 12 .58     -10    -22     -1     25     26 205.4  -2.2  33136  272.48 0865.00
2015 04 09 06 17 12 .83     -19    -23     -1     31     32 219.7  -2.2  33136  272.47 0865.00
2015 04 09 06 17 13 .08     -16    -23     -3     29     30 214.3  -7.2  33136  272.48 0865.00
2015 04 09 06 17 13 .33     -15    -23     -3     28     29 214.3  -7.3  33140  272.55 0865.00
2015 04 09 06 17 13 .58     -19    -23     -1     31     32 219.7  -2.2  33136  272.47 0865.00
2015 04 09 06 17 13 .83     -19    -23     -1     31     32 219.7  -2.2  33136  272.47 0865.00
2015 04 09 06 17 14 .08     -19    -23     -1     31     32 219.7  -2.2  33136  272.47 0865.00
2015 04 09 06 17 14 .33     -18    -18      0     26     27 225.0   0.8  33134  272.43 0865.00
2015 04 09 06 17 14 .58     -18    -18      0     26     27 225.0   0.8  33134  272.43 0865.00
2015 04 09 06 17 14 .83     -18    -18      0     26     27 225.0   0.8  33134  272.43 0865.00
2015 04 09 06 17 15 .08     -18    -18      0     26     27 225.0   0.8  33134  272.43 0865.00
2015 04 09 06 17 15 .33     -19    -23     -1     31     32 219.7  -2.2  33136  272.47 0865.00
2015 04 09 06 17 15 .58     -17    -26     -1     32     33 212.6  -2.2  33136  272.48 0865.00
2015 04 09 06 17 15 .83     -17    -26     -1     32     33 212.6  -2.2  33136  272.48 0865.00
2015 04 09 06 17 16 .09     -13    -26     -1     30     31 207.2  -3.1  33138  272.52 0865.00
2015 04 09 06 17 16 .35     -15    -23     -3     28     29 214.3  -7.3  33140  272.55 0865.00
2015 04 09 06 17 16 .61     -15    -23     -3     28     29 214.3  -7.3  33140  272.55 0865.00
2015 04 09 06 17 16 .85     -15    -23     -3     28     29 214.3  -7.3  33140  272.55 0865.00
2015 04 09 06 17 17 .10     -15    -23     -3     28     29 214.3  -7.3  33140  272.55 0865.00
2015 04 09 06 17 17 .35     -17    -26     -1     32     33 212.6  -2.2  33136  272.48 0865.00
2015 04 09 06 17 17 .60     -23    -19     -3     30     31 230.4  -7.3  33138  272.50 0865.00
2015 04 09 06 17 17 .85     -21    -22     -1     31     32 223.2  -3.1  33138  272.52 0865.00
2015 04 09 06 17 18 .10     -23    -19     -3     30     31 230.4  -7.3  33138  272.50 0865.00
2015 04 09 06 17 18 .35     -23    -19     -3     30     31 230.4  -7.3  33138  272.50 0865.00
2015 04 09 06 17 18 .60     -23    -19     -3     30     31 230.4  -7.3  33138  272.50 0865.00
2015 04 09 06 17 18 .85     -23    -19     -3     30     31 230.4  -7.3  33138  272.50 0865.00
2015 04 09 06 17 19 .10     -23    -19     -3     30     31 230.4  -7.3  33138  272.50 0865.00
2015 04 09 06 17 19 .35     -17    -26     -1     32     33 212.6  -2.2  33136  272.48 0865.00
2015 04 09 06 17 19 .60     -13    -26     -1     30     31 207.2  -3.1  33138  272.52 0865.00
2015 04 09 06 17 19 .85     -17    -26     -1     32     33 212.6  -2.2  33136  272.48 0865.00
2015 04 09 06 17 20 .11     -17    -26     -1     32     33 212.6  -2.2  33136  272.48 0865.00
2015 04 09 06 17 20 .36     -17    -26     -1     32     33 212.6  -2.2  33136  272.48 0865.00
2015 04 09 06 17 20 .61     -18    -18      0     26     27 225.0   0.8  33134  272.43 0865.00
2015 04 09 06 17 20 .86     -18    -18      0     26     27 225.0   0.8  33134  272.43 0865.00
2015 04 09 06 17 21 .11     -18    -18      0     26     27 225.0   0.8  33134  272.43 0865.00
2015 04 09 06 17 21 .36     -19    -15     -1     25     26 230.5  -2.2  33136  272.47 0865.00
2015 04 09 06 17 21 .61     -18    -18      0     26     27 225.0   0.8  33134  272.43 0865.00
2015 04 09 06 17 21 .86     -18    -18      0     26     27 225.0   0.8  33134  272.43 0865.00
2015 04 09 06 17 22 .11     -18    -18      0     26     27 225.0   0.8  33134  272.43 0865.00
2015 04 09 06 17 22 .36     -12    -19      0     23     24 212.5  -2.2  33132  272.42 0865.00
2015 04 09 06 17 22 .61     -12    -19      0     23     24 212.5  -2.2  33132  272.42 0865.00
2015 04 09 06 17 22 .86     -12    -19      0     23     24 212.5  -2.2  33132  272.42 0865.00
2015 04 09 06 17 23 .11     -12    -19      0     23     24 212.5  -2.2  33132  272.42 0865.00
2015 04 09 06 17 23 .37      -7    -19     -3     21     22 201.8  -9.3  33134  272.43 0865.00
2015 04 09 06 17 23 .62     -12    -19      0     23     24 212.5  -2.2  33136  272.47 0865.00
2015 04 09 06 17 23 .87     -12    -19      0     23     24 212.5  -2.2  33136  272.47 0865.00
2015 04 09 06 17 24 .12     -12    -19      0     23     24 212.5  -2.2  33136  272.47 0865.00
2015 04 09 06 17 24 .37      -7    -19     -3     21     22 201.8  -9.3  33134  272.43 0865.00
2015 04 09 06 17 24 .62      -7    -19     -3     21     22 201.8  -9.3  33134  272.43 0865.00
2015 04 09 06 17 24 .87      -7    -19     -3     21     22 201.8  -9.3  33134  272.43 0865.00
2015 04 09 06 17 25 .13      -7    -19     -3     21     22 201.8  -9.3  33134  272.43 0865.00
2015 04 09 06 17 25 .38      -7    -22     -2     24     25 198.7  -5.2  33136  272.47 0865.00
2015 04 09 06 17 25 .63      -7    -19     -3     21     22 201.8  -9.3  33134  272.43 0865.00
2015 04 09 06 17 25 .88      -7    -19     -3     21     22 201.8  -9.3  33134  272.43 0865.00
2015 04 09 06 17 26 .13     -12    -19      0     23     24 212.5  -2.2  33132  272.42 0865.00
2015 04 09 06 17 26 .38      -7    -19     -3     21     22 201.8  -9.3  33134  272.43 0865.00
2015 04 09 06 17 26 .63      -7    -19     -3     21     22 201.8  -9.3  33134  272.43 0865.00
2015 04 09 06 17 26 .88     -12    -19      0     23     24 212.5  -2.2  33132  272.42 0865.00
2015 04 09 06 17 27 .13     -12    -19      0     23     24 212.5  -2.2  33132  272.42 0865.00
2015 04 09 06 17 27 .38     -18    -18      0     26     27 225.0   0.8  33134  272.43 0865.00
2015 04 09 06 17 27 .63     -18    -18      0     26     27 225.0   0.8  33134  272.43 0865.00
2015 04 09 06 17 27 .88     -12    -19      0     23     24 212.5  -2.2  33132  272.42 0865.00
2015 04 09 06 17 28 .13     -13    -26     -1     30     31 207.2  -3.1  33138  272.52 0865.00
2015 04 09 06 17 28 .38     -10    -31     -1     33     34 198.3  -2.2  33140  272.53 0865.00
2015 04 09 06 17 28 .63     -10    -31     -1     33     34 198.3  -2.2  33140  272.53 0865.00
2015 04 09 06 17 28 .88     -10    -31     -1     33     34 198.3  -2.2  33140  272.53 0865.00
2015 04 09 06 17 29 .13     -10    -22     -1     25     26 205.4  -2.2  33140  272.55 0865.00
2015 04 09 06 17 29 .39     -13    -26     -1     30     31 207.2  -3.1  33138  272.52 0865.00
2015 04 09 06 17 29 .64     -10    -22     -1     25     26 205.4  -2.2  33140  272.55 0865.00
2015 04 09 06 17 29 .89     -13    -26     -1     30     31 207.2  -3.1  33138  272.52 0865.00
2015 04 09 06 17 30 .14     -13    -26     -1     30     31 207.2  -3.1  33138  272.52 0865.00
2015 04 09 06 17 30 .40     -13    -26     -1     30     31 207.2  -3.1  33138  272.52 0865.00
2015 04 09 06 17 30 .65     -13    -26     -1     30     31 207.2  -3.1  33138  272.52 0865.00
2015 04 09 06 17 30 .90     -10    -22     -1     25     26 205.4  -2.2  33136  272.48 0865.00
2015 04 09 06 17 31 .15     -14    -25      3     29     30 209.0   6.9  33134  272.43 0865.00
2015 04 09 06 17 31 .40      -8    -25      1     27     28 198.5   2.8  33136  272.47 0865.00
2015 04 09 06 17 31 .65     -13    -26     -1     30     31 207.2  -3.1  33138  272.52 0865.00
2015 04 09 06 17 31 .90     -13    -26     -1     30     31 207.2  -3.1  33138  272.52 0865.00
2015 04 09 06 17 32 .15      -8    -25      1     27     28 198.5   2.8  33136  272.47 0865.00
2015 04 09 06 17 32 .40      -8    -25      1     27     28 198.5   2.8  33136  272.47 0865.00
2015 04 09 06 17 32 .65     -13    -26     -1     30     31 207.2  -3.1  33138  272.52 0865.00
2015 04 09 06 17 32 .90     -13    -26     -1     30     31 207.2  -3.1  33138  272.52 0865.00
2015 04 09 06 17 33 .15     -13    -26     -1     30     31 207.2  -3.1  33138  272.52 0865.00
2015 04 09 06 17 33 .40     -10    -31     -1     33     34 198.3  -2.2  33138  272.50 0865.00
2015 04 09 06 17 33 .65      -8    -25      1     27     28 198.5   2.8  33136  272.47 0865.00
2015 04 09 06 17 33 .91     -10    -31     -1     33     34 198.3  -2.2  33138  272.50 0865.00
2015 04 09 06 17 34 .16     -13    -26     -1     30     31 207.2  -3.1  33138  272.52 0865.00
2015 04 09 06 17 34 .41     -10    -22     -1     25     26 205.4  -2.2  33136  272.48 0865.00
2015 04 09 06 17 34 .66     -10    -22     -1     25     26 205.4  -2.2  33136  272.48 0865.00
2015 04 09 06 17 34 .91     -10    -22     -1     25     26 205.4  -2.2  33136  272.48 0865.00
2015 04 09 06 17 35 .16      -4    -25     -1     26     27 189.8  -2.2  33134  272.43 0865.00
2015 04 09 06 17 35 .41      -4    -25     -1     26     27 189.8  -2.2  33134  272.43 0865.00
2015 04 09 06 17 35 .66      -4    -25     -1     26     27 189.8  -2.2  33134  272.43 0865.00
2015 04 09 06 17 35 .91      -4    -25     -1     26     27 189.8  -2.2  33134  272.43 0865.00
2015 04 09 06 17 36 .16      -4    -25     -1     26     27 189.8  -2.2  33134  272.43 0865.00
2015 04 09 06 17 36 .41      -7    -22     -2     24     25 198.7  -5.2  33132  272.42 0865.00
2015 04 09 06 17 36 .66      -4    -25     -1     26     27 189.8  -2.2  33134  272.43 0865.00
2015 04 09 06 17 36 .91      -4    -25     -1     26     27 189.8  -2.2  33134  272.43 0865.00
2015 04 09 06 17 37 .17      -4    -25     -1     26     27 189.8  -2.2  33134  272.43 0865.00
2015 04 09 06 17 37 .42      -7    -22     -2     24     25 198.7  -5.2  33132  272.42 0865.00
2015 04 09 06 17 37 .67     -10    -22     -1     25     26 205.4  -2.2  33130  272.38 0865.00
2015 04 09 06 17 37 .92     -10    -22     -1     25     26 205.4  -2.2  33130  272.38 0865.00
2015 04 09 06 17 38 .18     -12    -26     -1     29     30 205.4  -2.2  33130  272.37 0865.00
2015 04 09 06 17 38 .43     -12    -26     -1     29     30 205.4  -2.2  33130  272.37 0865.00
2015 04 09 06 17 38 .68     -12    -26     -1     29     30 205.4  -2.2  33130  272.37 0865.00
2015 04 09 06 17 38 .93     -12    -26     -1     29     30 205.4  -2.2  33130  272.37 0865.00
2015 04 09 06 17 39 .18     -12    -26     -1     29     30 205.4  -2.2  33130  272.37 0865.00
2015 04 09 06 17 39 .43      -6    -29     -1     30     31 191.6  -3.1  33132  272.42 0865.00
2015 04 09 06 17 39 .68      -6    -29     -1     30     31 191.6  -3.1  33132  272.42 0865.00
2015 04 09 06 17 39 .93      -6    -29     -1     30     31 191.6  -3.1  33132  272.42 0865.00
2015 04 09 06 17 40 .18      -4    -25     -1     26     27 189.8  -2.2  33134  272.43 0865.00
2015 04 09 06 17 40 .43      -7    -31     -1     32     33 193.4  -3.1  33142  272.57 0865.01
2015 04 09 06 17 40 .68     -11    -33     -4     35     36 198.7  -7.2  33142  272.58 0865.01
2015 04 09 06 17 40 .93     -11    -33     -4     35     36 198.7  -7.2  33142  272.58 0865.01
2015 04 09 06 17 41 .18     -11    -33     -4     35     36 198.7  -7.2  33142  272.58 0865.01
2015 04 09 06 17 41 .43      -7    -31     -1     32     33 193.4  -3.1  33142  272.57 0865.01
2015 04 09 06 17 41 .68      -5    -33     -1     34     35 189.8  -2.2  33140  272.53 0865.01
2015 04 09 06 17 41 .93      -5    -33     -1     34     35 189.8  -2.2  33140  272.53 0865.01
2015 04 09 06 17 42 .18      -5    -33     -1     34     35 189.8  -2.2  33140  272.53 0865.01
2015 04 09 06 17 42 .44      -5    -33     -1     34     35 189.8  -2.2  33140  272.53 0865.01
2015 04 09 06 17 42 .68      -5    -33     -1     34     35 189.8  -2.2  33140  272.53 0865.01
2015 04 09 06 17 42 .94      -5    -33     -1     34     35 189.8  -2.2  33140  272.53 0865.01
2015 04 09 06 17 43 .19     -11    -33      1     35     36 198.7   2.8  33138  272.52 0865.01
2015 04 09 06 17 43 .44     -11    -33      1     35     36 198.7   2.8  33138  272.52 0865.01
2015 04 09 06 17 43 .69     -11    -33      1     35     36 198.7   2.8  33138  272.52 0865.01
2015 04 09 06 17 43 .94     -11    -33      1     35     36 198.7   2.8  33138  272.52 0865.01
2015 04 09 06 17 44 .20      -5    -33     -1     34     35 189.8  -2.2  33140  272.53 0865.01
2015 04 09 06 17 44 .45      -5    -33     -1     34     35 189.8  -2.2  33140  272.53 0865.01
2015 04 09 06 17 44 .70     -11    -33      1     35     36 198.7   2.8  33138  272.52 0865.01
2015 04 09 06 17 44 .95     -11    -33      1     35     36 198.7   2.8  33138  272.52 0865.00
2015 04 09 06 17 45 .20     -11    -33      1     35     36 198.7   2.8  33138  272.52 0865.00
2015 04 09 06 17 45 .45     -11    -33      1     35     36 198.7   2.8  33138  272.52 0865.00
2015 04 09 06 17 45 .70     -11    -33      1     35     36 198.7   2.8  33138  272.52 0865.00
2015 04 09 06 17 45 .95     -11    -33      1     35     36 198.7   2.8  33138  272.52 0865.00
2015 04 09 06 17 46 .20     -11    -33      1     35     36 198.7   2.8  33138  272.52 0865.00
2015 04 09 06 17 46 .45     -11    -33      1     35     36 198.7   2.8  33138  272.52 0865.00
2015 04 09 06 17 46 .71     -11    -33      1     35     36 198.7   2.8  33138  272.52 0865.00
2015 04 09 06 17 46 .96     -11    -33      1     35     36 198.7   2.8  33138  272.52 0865.00
2015 04 09 06 17 47 .21     -11    -33      1     35     36 198.7   2.8  33138  272.52 0865.00
2015 04 09 06 17 47 .46     -11    -33      1     35     36 198.7   2.8  33138  272.52 0865.00
2015 04 09 06 17 47 .71     -11    -33      1     35     36 198.7   2.8  33138  272.52 0865.00
2015 04 09 06 17 47 .96     -11    -33      1     35     36 198.7   2.8  33138  272.52 0865.00
2015 04 09 06 17 48 .21     -11    -33      1     35     36 198.7   2.8  33138  272.52 0865.00
2015 04 09 06 17 48 .46     -11    -33      1     35     36 198.7   2.8  33138  272.52 0865.00
2015 04 09 06 17 48 .71     -11    -33      1     35     36 198.7   2.8  33138  272.52 0865.00
2015 04 09 06 17 48 .96     -11    -33      1     35     36 198.7   2.8  33138  272.52 0865.00
2015 04 09 06 17 49 .21     -11    -33      1     35     36 198.7   2.8  33138  272.52 0865.00
2015 04 09 06 17 49 .46     -11    -33      1     35     36 198.7   2.8  33138  272.52 0865.00
2015 04 09 06 17 49 .71     -11    -33      1     35     36 198.7   2.8  33138  272.52 0865.00
2015 04 09 06 17 49 .96     -11    -33      1     35     36 198.7   2.8  33138  272.52 0865.00
2015 04 09 06 17 50 .21     -11    -33      1     35     36 198.7   2.8  33138  272.52 0865.00
2015 04 09 06 17 50 .46     -11    -33      1     35     36 198.7   2.8  33138  272.52 0865.00
2015 04 09 06 17 50 .71      -7    -37      1     38     39 191.6   2.9  33136  272.48 0865.00
2015 04 09 06 17 50 .96      -4    -33      6     34     35 188.0  11.1  33136  272.47 0865.00
2015 04 09 06 17 51 .23      -6    -30      3     31     32 191.6   6.9  33134  272.43 0865.00
2015 04 09 06 17 51 .48      -6    -30      3     31     32 191.6   6.9  33130  272.38 0865.00
2015 04 09 06 17 51 .73      -4    -33      6     34     35 188.0  11.1  33136  272.47 0865.00
2015 04 09 06 17 51 .98      -6    -30      3     31     32 191.6   6.9  33134  272.43 0865.00
2015 04 09 06 17 52 .23      -1    -30      1     31     32 182.7   2.8  33132  272.42 0865.00
2015 04 09 06 17 52 .48      -1    -30      1     31     32 182.7   2.8  33132  272.42 0865.00
2015 04 09 06 17 52 .73      -4    -33     -1     34     35 188.0  -2.2  33136  272.48 0865.00
2015 04 09 06 17 52 .98     -11    -33      1     35     36 198.7   2.8  33138  272.52 0865.00
2015 04 09 06 17 53 .23     -11    -33      1     35     36 198.7   2.8  33138  272.52 0865.00
2015 04 09 06 17 53 .48     -11    -33      1     35     36 198.7   2.8  33138  272.52 0865.00
2015 04 09 06 17 53 .73      -6    -30     -1     31     32 191.6  -3.1  33136  272.47 0865.00
2015 04 09 06 17 53 .98      -4    -25     -1     26     27 189.8  -2.2  33134  272.43 0865.00
2015 04 09 06 17 54 .23     -11    -33      1     35     36 198.7   2.8  33138  272.52 0865.00
2015 04 09 06 17 54 .48     -11    -33      1     35     36 198.7   2.8  33138  272.52 0865.00
2015 04 09 06 17 54 .73     -11    -33      1     35     36 198.7   2.8  33138  272.52 0865.00
2015 04 09 06 17 54 .98      -4    -33     -1     34     35 188.0  -2.2  33136  272.48 0865.00
2015 04 09 06 17 55 .23      -4    -33     -1     34     35 188.0  -2.2  33136  272.48 0865.00
2015 04 09 06 17 55 .48      -6    -30     -1     31     32 191.6  -3.1  33136  272.47 0865.00
2015 04 09 06 17 55 .74      -6    -30     -1     31     32 191.6  -3.1  33136  272.47 0865.00
2015 04 09 06 17 55 .99      -6    -30     -1     31     32 191.6  -3.1  33136  272.47 0865.00
2015 04 09 06 17 56 .24      -4    -25     -1     26     27 189.8  -2.2  33134  272.43 0865.00
2015 04 09 06 17 56 .49      -6    -29     -1     30     31 191.6  -3.1  33132  272.42 0865.00
2015 04 09 06 17 56 .74      -6    -29     -1     30     31 191.6  -3.1  33132  272.42 0865.00
2015 04 09 06 17 56 .99      -8    -34     -4     35     36 193.4  -7.2  33134  272.45 0865.00
2015 04 09 06 17 57 .24      -7    -37     -2     38     39 191.5  -3.1  33132  272.42 0865.00
2015 04 09 06 17 57 .49      -1    -30      1     31     32 182.7   2.8  33132  272.42 0865.00
2015 04 09 06 17 57 .74      -1    -30      1     31     32 182.7   2.8  33132  272.42 0865.00
2015 04 09 06 17 58 .00      -6    -30      3     31     32 191.6   6.9  33130  272.38 0865.00
2015 04 09 06 17 58 .25      -8    -34      1     35     36 193.4   2.8  33130  272.37 0865.00
2015 04 09 06 17 58 .50      -6    -30      3     31     32 191.6   6.9  33130  272.38 0865.00
2015 04 09 06 17 58 .75      -1    -30      1     31     32 182.7   2.8  33132  272.42 0865.00
2015 04 09 06 17 59 .00      -1    -30      1     31     32 182.7   2.8  33132  272.42 0865.00
2015 04 09 06 17 59 .25      -1    -30      1     31     32 182.7   2.8  33132  272.42 0865.00
2015 04 09 06 17 59 .50      -1    -30      1     31     32 182.7   2.8  33132  272.42 0865.00
2015 04 09 06 17 59 .76      -4    -25     -1     26     27 189.8  -2.2  33134  272.43 0865.00
2015 04 09 06 18 00 .01      -1    -30      1     31     32 182.7   2.8  33132  272.42 0865.00
2015 04 09 06 18 00 .26      -1    -30      1     31     32 182.7   2.8  33132  272.42 0865.00
2015 04 09 06 18 00 .51      -1    -30      1     31     32 182.7   2.8  33132  272.42 0865.00
2015 04 09 06 18 00 .76      -3    -33     -1     34     35 186.2  -2.2  33130  272.38 0865.00
2015 04 09 06 18 01 .01      -6    -30      3     31     32 191.6   6.9  33130  272.38 0865.00
2015 04 09 06 18 01 .26      -1    -30      1     31     32 182.7   2.8  33132  272.42 0865.00
2015 04 09 06 18 01 .51      -3    -33     -1     34     35 186.2  -2.2  33130  272.38 0865.00
2015 04 09 06 18 01 .76      -8    -34     -4     35     36 193.4  -7.2  33134  272.45 0865.00
2015 04 09 06 18 02 .01      -7    -36     -2     37     38 191.5  -3.1  33136  272.47 0865.00
2015 04 09 06 18 02 .26     -10    -31     -1     33     34 198.3  -2.2  33138  272.50 0865.00
2015 04 09 06 18 02 .51      -9    -34      1     36     37 195.1   2.8  33136  272.47 0865.00
2015 04 09 06 18 02 .76      -1    -30      1     31     32 182.7   2.8  33132  272.42 0865.00
2015 04 09 06 18 03 .01      -6    -29     -1     30     31 191.6  -3.1  33132  272.42 0865.00
2015 04 09 06 18 03 .26      -8    -34     -4     35     36 193.4  -7.2  33134  272.45 0865.00
2015 04 09 06 18 03 .51      -1    -30      1     31     32 182.7   2.8  33132  272.42 0865.00
2015 04 09 06 18 03 .76      -3    -33     -1     34     35 186.2  -2.2  33130  272.38 0865.00
2015 04 09 06 18 04 .01      -6    -29     -1     30     31 191.6  -3.1  33132  272.42 0865.00
2015 04 09 06 18 04 .27      -8    -34     -4     35     36 193.4  -7.2  33134  272.45 0865.00
2015 04 09 06 18 04 .52      -8    -34     -4     35     36 193.4  -7.2  33134  272.45 0865.00
2015 04 09 06 18 04 .77      -8    -25      1     27     28 198.5   2.8  33132  272.42 0865.00
2015 04 09 06 18 05 .03      -6    -30      3     31     32 191.6   6.9  33130  272.38 0865.00
2015 04 09 06 18 05 .28      -8    -34      1     35     36 193.4   2.8  33130  272.37 0865.00
2015 04 09 06 18 05 .53      -6    -30      3     31     32 191.6   6.9  33130  272.38 0865.00
2015 04 09 06 18 05 .78      -8    -34      1     35     36 193.4   2.8  33130  272.37 0865.00
2015 04 09 06 18 06 .03      -3    -33     -1     34     35 186.2  -2.2  33130  272.38 0865.00
2015 04 09 06 18 06 .28      -6    -30      3     31     32 191.6   6.9  33130  272.38 0865.00
2015 04 09 06 18 06 .53      -8    -34      1     35     36 193.4   2.8  33130  272.37 0865.00
2015 04 09 06 18 06 .78      -8    -34      1     35     36 193.4   2.8  33130  272.37 0865.00
2015 04 09 06 18 07 .03      -8    -34      1     35     36 193.4   2.8  33130  272.37 0865.00
2015 04 09 06 18 07 .28      -8    -34      1     35     36 193.4   2.8  33130  272.37 0865.00
2015 04 09 06 18 07 .53      -4    -26      7     27     28 189.8  15.3  33130  272.37 0865.00
2015 04 09 06 18 07 .78      -4    -33      6     34     35 188.0  11.1  33126  272.32 0865.00
2015 04 09 06 18 08 .03       0    -33      2     34     35 179.1   4.9  33126  272.30 0865.00
2015 04 09 06 18 08 .29      -6    -30      3     31     32 191.6   6.9  33128  272.34 0865.00
2015 04 09 06 18 08 .54      -6    -30      3     31     32 191.6   6.9  33130  272.38 0865.00
2015 04 09 06 18 08 .79      -6    -30      3     31     32 191.6   6.9  33130  272.38 0865.00
2015 04 09 06 18 09 .04      -4    -26      7     27     28 189.8  15.3  33130  272.37 0865.00
2015 04 09 06 18 09 .29      -4    -33      6     34     35 188.0  11.1  33126  272.32 0865.00
2015 04 09 06 18 09 .54      -4    -33      6     34     35 188.0  11.1  33126  272.32 0865.00
2015 04 09 06 18 09 .79      -6    -30      3     31     32 191.6   6.9  33130  272.38 0865.00
2015 04 09 06 18 10 .04     -11    -33      1     35     36 198.7   2.8  33138  272.52 0865.00
2015 04 09 06 18 10 .29     -11    -33      1     35     36 198.7   2.8  33138  272.52 0865.00
2015 04 09 06 18 10 .54      -8    -34      1     35     36 193.4   2.8  33148  272.66 0865.00
2015 04 09 06 18 10 .79      -8    -34      1     35     36 193.4   2.8  33148  272.66 0865.00
2015 04 09 06 18 11 .04      -7    -36      1     37     38 191.5   2.9  33146  272.63 0865.00
2015 04 09 06 18 11 .29      -7    -37      1     38     39 191.6   2.9  33142  272.58 0865.00
2015 04 09 06 18 11 .54      -5    -33     -1     34     35 189.8  -2.2  33140  272.53 0865.00
2015 04 09 06 18 11 .79      -8    -29      2     31     32 195.1   4.9  33140  272.55 0865.00
2015 04 09 06 18 12 .05     -11    -33      1     35     36 198.7   2.8  33138  272.52 0865.00
2015 04 09 06 18 12 .30      -4    -33      6     34     35 188.0  11.1  33136  272.47 0865.00
2015 04 09 06 18 12 .55      -7    -37      1     38     39 191.6   2.9  33136  272.48 0865.00
2015 04 09 06 18 12 .81      -7    -37      1     38     39 191.6   2.9  33136  272.48 0865.00
2015 04 09 06 18 13 .05     -11    -33      1     35     36 198.7   2.8  33138  272.52 0865.00
2015 04 09 06 18 13 .31     -11    -33      1     35     36 198.7   2.8  33138  272.52 0865.00
2015 04 09 06 18 13 .56      -7    -36      1     37     38 191.5   2.9  33146  272.63 0865.00
2015 04 09 06 18 13 .81      -7    -36      1     37     38 191.5   2.9  33146  272.63 0865.00
2015 04 09 06 18 14 .06      -3    -29      0     30     31 186.2   0.8  33142  272.57 0865.01
2015 04 09 06 18 14 .31     -11    -33      1     35     36 198.7   2.8  33138  272.52 0865.01
2015 04 09 06 18 14 .56      -1    -30      1     31     32 182.7   2.8  33132  272.42 0865.01
2015 04 09 06 18 14 .81      -6    -30      3     31     32 191.6   6.9  33130  272.38 0865.01
2015 04 09 06 18 15 .06      -1    -30      1     31     32 182.7   2.8  33132  272.42 0865.01
2015 04 09 06 18 15 .31      -6    -30      3     31     32 191.6   6.9  33130  272.38 0865.01
2015 04 09 06 18 15 .56      -6    -30      3     31     32 191.6   6.9  33130  272.38 0865.01
2015 04 09 06 18 15 .81      -3    -33     -1     34     35 186.2  -2.2  33130  272.38 0865.01
2015 04 09 06 18 16 .06      -1    -33      1     34     35 182.6   2.9  33134  272.43 0865.01
2015 04 09 06 18 16 .31      -1    -33      1     34     35 182.6   2.9  33134  272.43 0865.01
2015 04 09 06 18 16 .56      -2    -36      1     37     38 184.4   2.8  33132  272.42 0865.01
2015 04 09 06 18 16 .81      -7    -36      1     37     38 191.5   2.9  33128  272.34 0865.01
2015 04 09 06 18 17 .06      -7    -36      1     37     38 191.5   2.9  33130  272.38 0865.01
2015 04 09 06 18 17 .32      -7    -37      1     38     39 191.6   2.9  33136  272.48 0865.01
2015 04 09 06 18 17 .57      -2    -37      0     38     39 184.4   0.8  33136  272.47 0865.01
2015 04 09 06 18 17 .82      -2    -37      0     38     39 184.4   0.8  33136  272.47 0865.01
2015 04 09 06 18 18 .07      -1    -33      1     34     35 182.6   2.9  33134  272.43 0865.01
2015 04 09 06 18 18 .32      -4    -33      6     34     35 188.0  11.1  33136  272.47 0865.01
2015 04 09 06 18 18 .57      -4    -33      6     34     35 188.0  11.1  33132  272.40 0865.01
2015 04 09 06 18 18 .82      -4    -33      6     34     35 188.0  11.1  33130  272.37 0865.01
2015 04 09 06 18 19 .08      -1    -33      1     34     35 182.6   2.9  33134  272.43 0865.01
2015 04 09 06 18 19 .33      -7    -37      1     38     39 191.6   2.9  33136  272.48 0865.01
2015 04 09 06 18 19 .58      -7    -37      1     38     39 191.6   2.9  33136  272.48 0865.01
2015 04 09 06 18 19 .83      -1    -33      1     34     35 182.6   2.9  33134  272.43 0865.01
2015 04 09 06 18 20 .08      -1    -33      1     34     35 182.6   2.9  33134  272.43 0865.01
2015 04 09 06 18 20 .33      -1    -30      1     31     32 182.7   2.8  33132  272.42 0865.01
2015 04 09 06 18 20 .58      -4    -33      6     34     35 188.0  11.1  33130  272.37 0865.01
2015 04 09 06 18 20 .83      -1    -36      5     37     38 182.6   9.0  33132  272.42 0865.01
2015 04 09 06 18 21 .08      -1    -36      5     37     38 182.6   9.0  33132  272.42 0865.01
2015 04 09 06 18 21 .34      -2    -30      8     31     33 184.5  15.3  33128  272.34 0865.01
2015 04 09 06 18 21 .59      -2    -30      8     31     33 184.5  15.3  33128  272.34 0865.01
2015 04 09 06 18 21 .84      -4    -33      6     34     35 188.0  11.1  33130  272.37 0865.01
2015 04 09 06 18 22 .09      -4    -33      6     34     35 188.0  11.1  33130  272.37 0865.01
2015 04 09 06 18 22 .34      -1    -33      1     34     35 182.6   2.9  33134  272.43 0865.01
2015 04 09 06 18 22 .59      -1    -33      1     34     35 182.6   2.9  33134  272.43 0865.01
2015 04 09 06 18 22 .84      -1    -33      1     34     35 182.6   2.9  33134  272.43 0865.01
2015 04 09 06 18 23 .09      -4    -33      6     34     35 188.0  11.1  33130  272.37 0865.01
2015 04 09 06 18 23 .34      -4    -33      6     34     35 188.0  11.1  33130  272.37 0865.01
2015 04 09 06 18 23 .59      -2    -36      7     37     38 184.5  11.1  33130  272.38 0865.01
2015 04 09 06 18 23 .84      -1    -33      1     34     35 182.6   2.9  33130  272.38 0865.01
2015 04 09 06 18 24 .09      -2    -36      1     37     38 184.4   2.8  33130  272.37 0865.01
2015 04 09 06 18 24 .34      -4    -33      6     34     35 188.0  11.1  33130  272.37 0865.01
2015 04 09 06 18 24 .59      -6    -30      3     31     32 191.6   6.9  33130  272.38 0865.01
2015 04 09 06 18 24 .84      -1    -36      5     37     38 182.6   9.0  33132  272.42 0865.01
2015 04 09 06 18 25 .09      -1    -33      1     34     35 182.6   2.9  33134  272.43 0865.01
2015 04 09 06 18 25 .34      -1    -33      1     34     35 182.6   2.9  33134  272.43 0865.01
2015 04 09 06 18 25 .59      -1    -33      1     34     35 182.6   2.9  33134  272.43 0865.01
2015 04 09 06 18 25 .86      -1    -33      1     34     35 182.6   2.9  33134  272.43 0865.01
2015 04 09 06 18 26 .10      -1    -33      1     34     35 182.6   2.9  33134  272.43 0865.01
2015 04 09 06 18 26 .36      -1    -33      1     34     35 182.6   2.9  33134  272.43 0865.01
2015 04 09 06 18 26 .61      -1    -33      1     34     35 182.6   2.9  33134  272.43 0865.01
2015 04 09 06 18 26 .86      -1    -33      1     34     35 182.6   2.9  33134  272.43 0865.01
2015 04 09 06 18 27 .11      -1    -33      1     34     35 182.6   2.9  33134  272.43 0865.01
2015 04 09 06 18 27 .36      -1    -30      1     31     32 182.7   2.8  33132  272.42 0865.01
2015 04 09 06 18 27 .61      -1    -30      1     31     32 182.7   2.8  33132  272.42 0865.01
2015 04 09 06 18 27 .86      -1    -30      6     31     32 182.6  11.1  33126  272.32 0865.01
2015 04 09 06 18 28 .11      -1    -30      6     31     32 182.6  11.1  33126  272.32 0865.01
2015 04 09 06 18 28 .36       3    -30      2     31     32 173.8   4.9  33128  272.35 0865.01
2015 04 09 06 18 28 .61       2    -26      1     27     28 175.6   2.8  33130  272.37 0865.01
2015 04 09 06 18 28 .86      -1    -30     -1     31     32 182.6  -2.2  33130  272.38 0865.01
2015 04 09 06 18 29 .11      -1    -30     -1     31     32 182.6  -2.2  33130  272.38 0865.01
2015 04 09 06 18 29 .36      -1    -30     -1     31     32 182.6  -2.2  33130  272.38 0865.01
2015 04 09 06 18 29 .61      -1    -30      6     31     32 182.6  11.1  33126  272.32 0865.01
2015 04 09 06 18 29 .86       0    -33      2     34     35 179.1   4.9  33126  272.30 0865.01
2015 04 09 06 18 30 .11       0    -33      2     34     35 179.1   4.9  33126  272.30 0865.01
2015 04 09 06 18 30 .37       2    -33      1     34     35 175.6   2.8  33130  272.37 0865.01
2015 04 09 06 18 30 .62       2    -33      1     34     35 175.6   2.8  33134  272.45 0865.01
2015 04 09 06 18 30 .87       0    -33     -3     34     35 179.1  -5.2  33138  272.52 0865.01
2015 04 09 06 18 31 .12       0    -33     -3     34     35 179.1  -5.2  33138  272.52 0865.01
2015 04 09 06 18 31 .37       0    -37     -1     38     39 180.9  -2.2  33136  272.48 0865.01
2015 04 09 06 18 31 .62      -1    -33      1     34     35 182.6   2.9  33134  272.43 0865.01
2015 04 09 06 18 31 .87      -1    -33      1     34     35 182.6   2.9  33134  272.43 0865.01
2015 04 09 06 18 32 .12       2    -33      1     34     35 175.6   2.8  33130  272.37 0865.01
2015 04 09 06 18 32 .37       2    -33      1     34     35 175.6   2.8  33126  272.32 0865.01
2015 04 09 06 18 32 .62       2    -33      1     34     35 175.6   2.8  33126  272.32 0865.01
2015 04 09 06 18 32 .88      -1    -30      6     31     32 182.6  11.1  33126  272.32 0865.01
2015 04 09 06 18 33 .13       0    -33      2     34     35 179.1   4.9  33126  272.30 0865.01
2015 04 09 06 18 33 .38       0    -33      2     34     35 179.1   4.9  33126  272.30 0865.01
2015 04 09 06 18 33 .63       0    -33      2     34     35 179.1   4.9  33126  272.30 0865.01
2015 04 09 06 18 33 .88       0    -33      2     34     35 179.1   4.9  33126  272.30 0865.01
2015 04 09 06 18 34 .13       2    -33      1     34     35 175.6   2.8  33124  272.27 0865.01
2015 04 09 06 18 34 .39       0    -33      2     34     35 179.1   4.9  33126  272.30 0865.01
2015 04 09 06 18 34 .63       0    -33      2     34     35 179.1   4.9  33126  272.30 0865.01
2015 04 09 06 18 34 .89      -2    -30      1     31     32 184.5   2.9  33124  272.27 0865.01
2015 04 09 06 18 35 .14       0    -33      2     34     35 179.1   4.9  33126  272.30 0865.01
2015 04 09 06 18 35 .39       2    -33      1     34     35 175.6   2.8  33124  272.27 0865.01
2015 04 09 06 18 35 .64      -1    -30     -1     31     32 182.6  -2.2  33122  272.25 0865.01
2015 04 09 06 18 35 .89      -1    -30      6     31     32 182.6  11.1  33126  272.32 0865.01
2015 04 09 06 18 36 .14       2    -25      1     26     27 175.5   2.9  33120  272.22 0865.01
2015 04 09 06 18 36 .39       2    -25      1     26     27 175.5   2.9  33120  272.22 0865.01
2015 04 09 06 18 36 .64       0    -25      4     26     27 180.9   9.0  33122  272.25 0865.01
2015 04 09 06 18 36 .89       2    -25      9     26     28 175.5  19.2  33122  272.25 0865.01
2015 04 09 06 18 37 .14       2    -25      9     26     28 175.5  19.2  33122  272.25 0865.01
2015 04 09 06 18 37 .39       0    -25      4     26     27 180.9   9.0  33122  272.25 0865.01
2015 04 09 06 18 37 .64       4    -29      4     30     31 172.0   9.0  33120  272.20 0865.01
2015 04 09 06 18 37 .89       4    -29      4     30     31 172.0   9.0  33120  272.20 0865.01
2015 04 09 06 18 38 .14       4    -29      4     30     31 172.0   9.0  33120  272.20 0865.01
2015 04 09 06 18 38 .39       4    -29      4     30     31 172.0   9.0  33120  272.20 0865.01
2015 04 09 06 18 38 .64       4    -29      4     30     31 172.0   9.0  33120  272.20 0865.00
2015 04 09 06 18 38 .90       2    -25      1     26     27 175.5   2.9  33120  272.22 0865.00
2015 04 09 06 18 39 .14       2    -25      1     26     27 175.5   2.9  33120  272.22 0865.00
2015 04 09 06 18 39 .40       2    -25      1     26     27 175.5   2.9  33120  272.22 0865.00
2015 04 09 06 18 39 .65       2    -25      1     26     27 175.5   2.9  33120  272.22 0865.00
2015 04 09 06 18 39 .91       2    -25      1     26     27 175.5   2.9  33120  272.22 0865.00
2015 04 09 06 18 40 .16      -1    -30     -1     31     32 182.6  -2.2  33122  272.25 0865.00
2015 04 09 06 18 40 .41       2    -33      1     34     35 175.6   2.8  33126  272.32 0865.00
2015 04 09 06 18 40 .66      -1    -30     -1     31     32 182.6  -2.2  33128  272.35 0865.00
2015 04 09 06 18 40 .91       3    -30      2     31     32 173.8   4.9  33128  272.35 0865.00
2015 04 09 06 18 41 .16       2    -33      1     34     35 175.6   2.8  33126  272.32 0865.00
2015 04 09 06 18 41 .41       7    -34     -1     35     36 168.4  -2.2  33126  272.30 0865.00
2015 04 09 06 18 41 .66       2    -33      1     34     35 175.6   2.8  33126  272.32 0865.00
2015 04 09 06 18 41 .91       2    -33      1     34     35 175.6   2.8  33124  272.27 0865.00
2015 04 09 06 18 42 .16      -1    -30     -1     31     32 182.6  -2.2  33122  272.25 0865.00
2015 04 09 06 18 42 .41       4    -29      4     30     31 172.0   9.0  33120  272.20 0865.00
2015 04 09 06 18 42 .66       4    -29      4     30     31 172.0   9.0  33120  272.20 0865.00
2015 04 09 06 18 42 .92       2    -25      1     26     27 175.5   2.9  33120  272.22 0865.00
2015 04 09 06 18 43 .16       4    -29      4     30     31 172.0   9.0  33120  272.20 0865.00
2015 04 09 06 18 43 .41       2    -36      1     37     38 175.5   2.9  33122  272.25 0865.00
2015 04 09 06 18 43 .67      -1    -30     -1     31     32 182.6  -2.2  33122  272.25 0865.00
2015 04 09 06 18 43 .92       2    -33      1     34     35 175.6   2.8  33126  272.32 0865.00
2015 04 09 06 18 44 .17      -1    -36     -1     37     38 182.6  -2.2  33128  272.35 0865.00
2015 04 09 06 18 44 .42      -2    -36      1     37     38 184.5   2.8  33126  272.32 0865.00
2015 04 09 06 18 44 .67       2    -33      1     34     35 175.6   2.8  33124  272.27 0865.00
2015 04 09 06 18 44 .92       2    -33      1     34     35 175.6   2.8  33120  272.22 0865.00
2015 04 09 06 18 45 .17       7    -34     -1     35     36 168.4  -2.2  33126  272.30 0865.00
2015 04 09 06 18 45 .42      10    -37      0     39     40 164.9   0.8  33124  272.27 0865.00
2015 04 09 06 18 45 .67       2    -36      1     37     38 175.5   2.9  33122  272.25 0865.01
2015 04 09 06 18 45 .92      10    -37      0     39     40 164.9   0.8  33124  272.27 0865.01
2015 04 09 06 18 46 .17       2    -36      1     37     38 175.5   2.9  33122  272.25 0865.01
2015 04 09 06 18 46 .42       2    -36      1     37     38 175.5   2.9  33122  272.25 0865.01
2015 04 09 06 18 46 .68       2    -36      1     37     38 175.5   2.9  33122  272.25 0865.01
2015 04 09 06 18 46 .93       2    -36      1     37     38 175.5   2.9  33122  272.25 0865.01
2015 04 09 06 18 47 .18       2    -36      1     37     38 175.5   2.9  33122  272.25 0865.01
2015 04 09 06 18 47 .43       2    -36      1     37     38 175.5   2.9  33122  272.25 0865.01
2015 04 09 06 18 47 .68       4    -29      4     30     31 172.0   9.0  33120  272.20 0865.00
2015 04 09 06 18 47 .93       4    -29      4     30     31 172.0   9.0  33120  272.20 0865.00
2015 04 09 06 18 48 .19       4    -29      4     30     31 172.0   9.0  33120  272.20 0865.00
2015 04 09 06 18 48 .44       4    -29      4     30     31 172.0   9.0  33120  272.20 0865.00
2015 04 09 06 18 48 .69       4    -29      4     30     31 172.0   9.0  33120  272.20 0865.00
2015 04 09 06 18 48 .94       2    -36      1     37     38 175.5   2.9  33122  272.25 0865.00
2015 04 09 06 18 49 .19       6    -32      6     33     34 168.4  11.1  33120  272.22 0865.00
2015 04 09 06 18 49 .44       2    -36      1     37     38 175.5   2.9  33122  272.25 0865.01
2015 04 09 06 18 49 .69       6    -32      6     33     34 168.4  11.1  33120  272.22 0865.01
2015 04 09 06 18 49 .94      10    -37      0     39     40 164.9   0.8  33124  272.27 0865.01
2015 04 09 06 18 50 .19       2    -36      1     37     38 175.5   2.9  33130  272.38 0865.01
2015 04 09 06 18 50 .44       2    -36      1     37     38 175.5   2.9  33126  272.30 0865.01
2015 04 09 06 18 50 .69      10    -37      0     39     40 164.9   0.8  33124  272.27 0865.01
2015 04 09 06 18 50 .94       2    -36      1     37     38 175.5   2.9  33122  272.25 0865.01
2015 04 09 06 18 51 .19       5    -33      4     34     35 170.2   6.9  33124  272.27 0865.01
2015 04 09 06 18 51 .44       2    -36      1     37     38 175.5   2.9  33122  272.25 0865.01
2015 04 09 06 18 51 .69       2    -36      1     37     38 175.5   2.9  33122  272.25 0865.01
2015 04 09 06 18 51 .94       6    -32      6     33     34 168.4  11.1  33120  272.22 0865.01
2015 04 09 06 18 52 .19       2    -36      1     37     38 175.5   2.9  33122  272.25 0865.01
2015 04 09 06 18 52 .45       2    -36      1     37     38 175.5   2.9  33122  272.25 0865.01
2015 04 09 06 18 52 .70      10    -37      0     39     40 164.9   0.8  33124  272.27 0865.01
2015 04 09 06 18 52 .95       1    -39      0     40     41 177.3  -0.3  33130  272.37 0865.01
2015 04 09 06 18 53 .20       2    -36      1     37     38 175.5   2.9  33126  272.30 0865.01
2015 04 09 06 18 53 .45      10    -37      0     39     40 164.9   0.8  33124  272.27 0865.01
2015 04 09 06 18 53 .71       5    -40      5     41     42 172.0   6.9  33126  272.32 0865.01
2015 04 09 06 18 53 .96       1    -39      0     40     41 177.3  -0.3  33130  272.37 0865.01
2015 04 09 06 18 54 .21       0    -39      7     40     41 179.1  10.1  33126  272.30 0865.01
2015 04 09 06 18 54 .46       3    -43      2     44     45 175.5   2.9  33128  272.35 0865.01
2015 04 09 06 18 54 .71       2    -36      1     37     38 175.5   2.9  33130  272.38 0865.01
2015 04 09 06 18 54 .96       2    -36      1     37     38 175.5   2.9  33130  272.38 0865.01
2015 04 09 06 18 55 .21       2    -40      7     41     42 176.4  10.1  33134  272.43 0865.01
2015 04 09 06 18 55 .46      -1    -36      5     37     38 182.6   9.0  33132  272.42 0865.01
2015 04 09 06 18 55 .71       5    -40      5     41     42 172.0   6.9  33130  272.37 0865.01
2015 04 09 06 18 55 .96       5    -40      5     41     42 172.0   6.9  33126  272.32 0865.01
2015 04 09 06 18 56 .21       0    -39      7     40     41 179.1  10.1  33126  272.30 0865.01
2015 04 09 06 18 56 .47       5    -40      5     41     42 172.0   6.9  33124  272.27 0865.01
2015 04 09 06 18 56 .72       5    -40      5     41     42 172.0   6.9  33124  272.27 0865.01
2015 04 09 06 18 56 .97       0    -39      7     40     41 179.1  10.1  33126  272.30 0865.01
2015 04 09 06 18 57 .22      -1    -36      7     37     38 182.6  11.0  33124  272.27 0865.01
2015 04 09 06 18 57 .47       2    -36      1     37     38 175.5   2.9  33122  272.25 0865.01
2015 04 09 06 18 57 .72       2    -36      1     37     38 175.5   2.9  33122  272.25 0865.01
2015 04 09 06 18 57 .97      -1    -36      7     37     38 182.6  11.0  33124  272.27 0865.01
2015 04 09 06 18 58 .22      -1    -36      7     37     38 182.6  11.0  33124  272.27 0865.01
2015 04 09 06 18 58 .47       2    -36      1     37     38 175.5   2.9  33122  272.25 0865.01
2015 04 09 06 18 58 .72       6    -32      6     33     34 168.4  11.1  33120  272.22 0865.01
2015 04 09 06 18 58 .97       2    -36      1     37     38 175.5   2.9  33122  272.25 0865.01
2015 04 09 06 18 59 .22       2    -36      1     37     38 175.5   2.9  33122  272.25 0865.01
2015 04 09 06 18 59 .47       2    -36      1     37     38 175.5   2.9  33122  272.25 0865.01
2015 04 09 06 18 59 .72      10    -38      8     40     41 164.9  12.2  33118  272.19 0865.01
2015 04 09 06 18 59 .97       6    -32      6     33     34 168.4  11.1  33120  272.22 0865.01
2015 04 09 06 19 00 .22      10    -38      8     40     41 164.9  12.2  33118  272.19 0865.01
2015 04 09 06 19 00 .47      10    -38      8     40     41 164.9  12.2  33118  272.19 0865.01
2015 04 09 06 19 00 .73      10    -38      8     40     41 164.9  12.2  33118  272.19 0865.01
2015 04 09 06 19 00 .98      10    -38      8     40     41 164.9  12.2  33118  272.19 0865.01
2015 04 09 06 19 01 .24      11    -34      3     36     37 161.3   4.9  33116  272.15 0865.01
2015 04 09 06 19 01 .49       2    -37      4     38     39 175.5   5.9  33116  272.14 0865.01
2015 04 09 06 19 01 .74       7    -34      6     35     36 168.4  11.0  33118  272.17 0865.01
2015 04 09 06 19 01 .99      11    -34      3     36     37 161.3   4.9  33116  272.15 0865.01
2015 04 09 06 19 02 .24      11    -34      3     36     37 161.3   4.9  33116  272.15 0865.01
2015 04 09 06 19 02 .49       7    -38      1     39     40 168.4   1.8  33114  272.12 0865.01
2015 04 09 06 19 02 .74       2    -37      4     38     39 175.5   5.9  33114  272.10 0865.01
2015 04 09 06 19 02 .99       2    -37      4     38     39 175.5   5.9  33114  272.10 0865.01
2015 04 09 06 19 03 .24       2    -37      4     38     39 175.5   5.9  33114  272.10 0865.01
2015 04 09 06 19 03 .49       2    -37      4     38     39 175.5   5.9  33114  272.10 0865.01
2015 04 09 06 19 03 .74       7    -38      1     39     40 168.4   1.8  33114  272.12 0865.01
2015 04 09 06 19 04 .00       2    -33      1     34     35 175.6   2.8  33118  272.17 0865.01
2015 04 09 06 19 04 .24       7    -41      6     42     43 170.2   9.0  33118  272.17 0865.01
2015 04 09 06 19 04 .49       7    -38      1     39     40 168.4   1.8  33114  272.12 0865.01
2015 04 09 06 19 04 .75       7    -38      1     39     40 168.4   1.8  33114  272.12 0865.01
2015 04 09 06 19 04 .99       7    -38      1     39     40 168.4   1.8  33114  272.12 0865.01
2015 04 09 06 19 05 .25      12    -31      6     34     35 158.2  11.1  33114  272.12 0865.01
2015 04 09 06 19 05 .49      12    -31      6     34     35 158.2  11.1  33114  272.12 0865.01
2015 04 09 06 19 05 .75      12    -31      6     34     35 158.2  11.1  33114  272.12 0865.01
2015 04 09 06 19 06 .00      12    -31      6     34     35 158.2  11.1  33114  272.12 0865.01
2015 04 09 06 19 06 .25      12    -31      6     34     35 158.2  11.1  33114  272.12 0865.01
2015 04 09 06 19 06 .50      12    -31      6     34     35 158.2  11.1  33114  272.12 0865.01
2015 04 09 06 19 06 .75      10    -35      1     37     38 163.1   2.9  33114  272.10 0865.01
2015 04 09 06 19 07 .00      10    -35      1     37     38 163.1   2.9  33114  272.10 0865.01
2015 04 09 06 19 07 .25       7    -38      1     39     40 168.4   1.8  33114  272.12 0865.01
2015 04 09 06 19 07 .50       7    -38      1     39     40 168.4   1.8  33114  272.12 0865.01
2015 04 09 06 19 07 .76       7    -38      1     39     40 168.4   1.8  33114  272.12 0865.01
2015 04 09 06 19 08 .01       9    -32      8     34     35 163.1  13.2  33114  272.10 0865.01
2015 04 09 06 19 08 .26      18    -30      3     36     37 149.3   4.9  33114  272.10 0865.01
2015 04 09 06 19 08 .51      14    -36      0     39     40 158.2   0.8  33112  272.07 0865.01
2015 04 09 06 19 08 .76      12    -31      6     34     35 158.2  11.1  33114  272.12 0865.01
2015 04 09 06 19 09 .01      18    -30      3     36     37 149.3   4.9  33114  272.10 0865.01
2015 04 09 06 19 09 .27      12    -31      6     34     35 158.2  11.1  33114  272.12 0865.01
2015 04 09 06 19 09 .51       7    -38      1     39     40 168.4   1.8  33114  272.12 0865.01
2015 04 09 06 19 09 .77      14    -36      0     39     40 158.2   0.8  33112  272.07 0865.01
2015 04 09 06 19 10 .02       9    -32      8     34     35 163.1  13.2  33114  272.10 0865.01
2015 04 09 06 19 10 .27       9    -32      8     34     35 163.1  13.2  33114  272.10 0865.01
2015 04 09 06 19 10 .52      10    -35      1     37     38 163.1   2.9  33114  272.10 0865.01
2015 04 09 06 19 10 .77       7    -35      7     36     37 168.4  11.0  33112  272.07 0865.01
2015 04 09 06 19 11 .02       7    -35      7     36     37 168.4  11.0  33112  272.07 0865.01
2015 04 09 06 19 11 .27       7    -38      7     39     40 168.4  11.1  33110  272.06 0865.01
2015 04 09 06 19 11 .52       7    -35      7     36     37 168.4  11.0  33112  272.07 0865.01
2015 04 09 06 19 11 .77       7    -35      7     36     37 168.4  11.0  33112  272.07 0865.01
2015 04 09 06 19 12 .02       7    -35      7     36     37 168.4  11.0  33112  272.07 0865.01
2015 04 09 06 19 12 .27       7    -35      7     36     37 168.4  11.0  33112  272.07 0865.01
2015 04 09 06 19 12 .52      10    -35      1     37     38 163.1   2.9  33114  272.10 0865.01
2015 04 09 06 19 12 .77       7    -38      1     39     40 168.4   1.8  33114  272.12 0865.01
2015 04 09 06 19 13 .02      11    -34      3     36     37 161.3   4.9  33116  272.15 0865.01
2015 04 09 06 19 13 .27       7    -38      1     39     40 168.4   1.8  33114  272.12 0865.01
2015 04 09 06 19 13 .52      12    -31      6     34     35 158.2  11.1  33114  272.12 0865.01
2015 04 09 06 19 13 .77      11    -34      3     36     37 161.3   4.9  33116  272.15 0865.01
2015 04 09 06 19 14 .02       7    -38      1     39     40 168.4   1.8  33114  272.12 0865.01
2015 04 09 06 19 14 .28       7    -38      1     39     40 168.4   1.8  33114  272.12 0865.01
2015 04 09 06 19 14 .54       7    -35      7     36     37 168.4  11.0  33112  272.07 0865.01
2015 04 09 06 19 14 .79       7    -38      2     39     40 168.5   3.8  33114  272.10 0865.01
2015 04 09 06 19 15 .04       7    -35      7     36     37 168.4  11.0  33112  272.07 0865.01
2015 04 09 06 19 15 .29       7    -35      7     36     37 168.4  11.0  33112  272.07 0865.01
2015 04 09 06 19 15 .54       7    -35      7     36     37 168.4  11.0  33112  272.07 0865.01
2015 04 09 06 19 15 .79       7    -38      7     39     40 168.4  11.1  33110  272.06 0865.01
2015 04 09 06 19 16 .04       7    -38      7     39     40 168.4  11.1  33110  272.06 0865.01
2015 04 09 06 19 16 .29       7    -35      7     36     37 168.4  11.0  33112  272.07 0865.01
2015 04 09 06 19 16 .54       7    -35      7     36     37 168.4  11.0  33112  272.07 0865.01
2015 04 09 06 19 16 .79       7    -35      7     36     37 168.4  11.0  33112  272.07 0865.01
2015 04 09 06 19 17 .04       7    -35      7     36     37 168.4  11.0  33112  272.07 0865.01
2015 04 09 06 19 17 .29       2    -37      4     38     39 175.5   5.9  33114  272.10 0865.01
2015 04 09 06 19 17 .54       2    -37      4     38     39 175.5   5.9  33114  272.10 0865.01
2015 04 09 06 19 17 .79       2    -37      4     38     39 175.5   5.9  33114  272.10 0865.01
2015 04 09 06 19 18 .04       2    -37      4     38     39 175.5   5.9  33114  272.10 0865.01
2015 04 09 06 19 18 .30       2    -37      4     38     39 175.5   5.9  33114  272.10 0865.01
2015 04 09 06 19 18 .55       2    -37      4     38     39 175.5   5.9  33114  272.10 0865.00
2015 04 09 06 19 18 .80       7    -35      7     36     37 168.4  11.0  33112  272.07 0865.00
2015 04 09 06 19 19 .05       2    -37      4     38     39 175.5   5.9  33114  272.10 0865.00
2015 04 09 06 19 19 .30       2    -37      4     38     39 175.5   5.9  33114  272.10 0865.00
2015 04 09 06 19 19 .55       7    -35      7     36     37 168.4  11.0  33112  272.07 0865.00
2015 04 09 06 19 19 .80       7    -35      7     36     37 168.4  11.0  33112  272.07 0865.00
2015 04 09 06 19 20 .05       7    -35      7     36     37 168.4  11.0  33112  272.07 0865.00
2015 04 09 06 19 20 .30       7    -35      7     36     37 168.4  11.0  33112  272.07 0865.00
2015 04 09 06 19 20 .55      11    -35      1     37     38 161.3   2.9  33110  272.06 0865.00
2015 04 09 06 19 20 .80      12    -38      5     41     42 161.5   6.9  33108  272.02 0865.00
2015 04 09 06 19 21 .05      11    -35      1     37     38 161.3   2.9  33110  272.06 0865.00
2015 04 09 06 19 21 .30       9    -31      1     33     34 163.1   2.8  33108  272.02 0865.00
2015 04 09 06 19 21 .56      12    -38      5     41     42 161.5   6.9  33108  272.02 0865.00
2015 04 09 06 19 21 .81      11    -35      1     37     38 161.3   2.9  33110  272.06 0865.00
2015 04 09 06 19 22 .06       7    -35      7     36     37 168.4  11.0  33112  272.07 0865.00
2015 04 09 06 19 22 .31      11    -35      1     37     38 161.3   2.9  33110  272.06 0865.00
2015 04 09 06 19 22 .56      12    -38      5     41     42 161.5   6.9  33108  272.02 0865.00
2015 04 09 06 19 22 .81      10    -37      0     39     40 164.9   0.8  33106  271.97 0865.00
2015 04 09 06 19 23 .07      10    -37      0     39     40 164.9   0.8  33106  271.97 0865.00
2015 04 09 06 19 23 .32      10    -37      0     39     40 164.9   0.8  33106  271.97 0865.00
2015 04 09 06 19 23 .57       7    -35      7     36     37 168.4  11.0  33112  272.07 0865.00
2015 04 09 06 19 23 .82       7    -35      7     36     37 168.4  11.0  33112  272.07 0865.00
2015 04 09 06 19 24 .07      11    -35      1     37     38 161.3   2.9  33110  272.06 0865.01
2015 04 09 06 19 24 .32      12    -38      5     41     42 161.5   6.9  33108  272.02 0865.01
2015 04 09 06 19 24 .57      12    -38      5     41     42 161.5   6.9  33108  272.02 0865.01
2015 04 09 06 19 24 .82      10    -37      0     39     40 164.9   0.8  33106  271.97 0865.01
2015 04 09 06 19 25 .07      11    -34      1     36     37 161.3   2.9  33108  272.01 0865.01
2015 04 09 06 19 25 .32      11    -34      1     36     37 161.3   2.9  33108  272.01 0865.01
2015 04 09 06 19 25 .57      12    -38      5     41     42 161.5   6.9  33108  272.02 0865.01
2015 04 09 06 19 25 .82      11    -34      1     36     37 161.3   2.9  33108  272.01 0865.00
2015 04 09 06 19 26 .07      11    -34      1     36     37 161.3   2.9  33108  272.01 0865.00
2015 04 09 06 19 26 .32      11    -34      1     36     37 161.3   2.9  33108  272.01 0865.00
2015 04 09 06 19 26 .57      11    -34      1     36     37 161.3   2.9  33108  272.01 0865.00
2015 04 09 06 19 26 .83      11    -34      1     36     37 161.3   2.9  33108  272.01 0865.00
2015 04 09 06 19 27 .07      11    -34      1     36     37 161.3   2.9  33108  272.01 0865.00
2015 04 09 06 19 27 .33      11    -34      1     36     37 161.3   2.9  33108  272.01 0865.00
2015 04 09 06 19 27 .58      11    -34      1     36     37 161.3   2.9  33108  272.01 0865.00
2015 04 09 06 19 27 .83      11    -34      1     36     37 161.3   2.9  33108  272.01 0865.00
2015 04 09 06 19 28 .08      11    -34      1     36     37 161.3   2.9  33108  272.01 0865.00
2015 04 09 06 19 28 .33      11    -34      1     36     37 161.3   2.9  33108  272.01 0865.00
2015 04 09 06 19 28 .59      11    -35      1     37     38 161.3   2.9  33110  272.06 0865.00
2015 04 09 06 19 28 .84      11    -34      1     36     37 161.3   2.9  33108  272.01 0865.00
2015 04 09 06 19 29 .09      12    -38      5     41     42 161.5   6.9  33108  272.02 0865.00
2015 04 09 06 19 29 .34      12    -38      5     41     42 161.5   6.9  33108  272.02 0865.01
2015 04 09 06 19 29 .59      11    -34      1     36     37 161.3   2.9  33108  272.01 0865.01
2015 04 09 06 19 29 .84      11    -34      1     36     37 161.3   2.9  33108  272.01 0865.01
2015 04 09 06 19 30 .09      11    -34      1     36     37 161.3   2.9  33108  272.01 0865.01
2015 04 09 06 19 30 .34      11    -35      1     37     38 161.3   2.9  33110  272.06 0865.01
2015 04 09 06 19 30 .59      12    -38      5     41     42 161.5   6.9  33108  272.02 0865.01
2015 04 09 06 19 30 .84      11    -34      1     36     37 161.3   2.9  33108  272.01 0865.01
2015 04 09 06 19 31 .11      13    -30      5     33     34 156.4   9.0  33106  271.97 0865.01
2015 04 09 06 19 31 .34      13    -30      5     33     34 156.4   9.0  33106  271.97 0865.01
2015 04 09 06 19 31 .60       9    -31      1     33     34 163.1   2.8  33108  272.02 0865.01
2015 04 09 06 19 31 .84      13    -30      5     33     34 156.4   9.0  33106  271.97 0865.01
2015 04 09 06 19 32 .10      13    -30      5     33     34 156.4   9.0  33106  271.97 0865.01
2015 04 09 06 19 32 .35      11    -34      1     36     37 161.3   2.9  33108  272.01 0865.01
2015 04 09 06 19 32 .60       9    -31      1     33     34 163.1   2.8  33108  272.02 0865.01
2015 04 09 06 19 32 .85       9    -31      1     33     34 163.1   2.8  33108  272.02 0865.01
2015 04 09 06 19 33 .10      11    -34      1     36     37 161.3   2.9  33108  272.01 0865.01
2015 04 09 06 19 33 .35      10    -37      0     39     40 164.9   0.8  33106  271.97 0865.01
2015 04 09 06 19 33 .60      10    -37      0     39     40 164.9   0.8  33106  271.97 0865.01
2015 04 09 06 19 33 .85      11    -34      1     36     37 161.3   2.9  33108  272.01 0865.01
2015 04 09 06 19 34 .10       9    -31      1     33     34 163.1   2.8  33108  272.02 0865.01
2015 04 09 06 19 34 .35       9    -31      1     33     34 163.1   2.8  33108  272.02 0865.01
2015 04 09 06 19 34 .60      11    -34      1     36     37 161.3   2.9  33108  272.01 0865.01
2015 04 09 06 19 34 .85       9    -31      1     33     34 163.1   2.8  33108  272.02 0865.01
2015 04 09 06 19 35 .10       9    -26      2     28     29 160.0   4.9  33106  271.99 0865.01
2015 04 09 06 19 35 .36       9    -31      1     33     34 163.1   2.8  33108  272.02 0865.01
2015 04 09 06 19 35 .61      10    -37      0     39     40 164.9   0.8  33106  271.97 0865.01
2015 04 09 06 19 35 .86      10    -37      0     39     40 164.9   0.8  33106  271.97 0865.02
2015 04 09 06 19 36 .14      10    -37      0     39     40 164.9   0.8  33106  271.97 0865.02
2015 04 09 06 19 36 .37      10    -37      0     39     40 164.9   0.8  33106  271.97 0865.02
2015 04 09 06 19 36 .62      10    -37      0     39     40 164.9   0.8  33106  271.97 0865.02
2015 04 09 06 19 36 .87      10    -37      0     39     40 164.9   0.8  33106  271.97 0865.02
2015 04 09 06 19 37 .12      10    -37      0     39     40 164.9   0.8  33106  271.97 0865.02
2015 04 09 06 19 37 .37      10    -37      0     39     40 164.9   0.8  33106  271.97 0865.02
2015 04 09 06 19 37 .62       7    -34     -1     35     36 168.4  -2.2  33108  272.01 0865.02
2015 04 09 06 19 37 .87      10    -37      0     39     40 164.9   0.8  33106  271.97 0865.02
2015 04 09 06 19 38 .12      12    -37     -1     40     41 161.7  -2.2  33104  271.96 0865.02
2015 04 09 06 19 38 .40      15    -33      1     37     38 154.7   2.8  33102  271.92 0865.02
2015 04 09 06 19 38 .62      15    -33      1     37     38 154.7   2.8  33102  271.92 0865.02
2015 04 09 06 19 38 .87      10    -37      0     39     40 164.9   0.8  33106  271.97 0865.02
2015 04 09 06 19 39 .12      10    -37      0     39     40 164.9   0.8  33106  271.97 0865.02
2015 04 09 06 19 39 .37      10    -37      0     39     40 164.9   0.8  33106  271.97 0865.02
2015 04 09 06 19 39 .62      10    -37      0     39     40 164.9   0.8  33106  271.97 0865.02
2015 04 09 06 19 39 .87      11    -33      1     35     36 161.5   2.9  33104  271.96 0865.02
2015 04 09 06 19 40 .12      10    -37      0     39     40 164.9   0.8  33106  271.97 0865.02
2015 04 09 06 19 40 .37      10    -37      0     39     40 164.9   0.8  33106  271.97 0865.02
2015 04 09 06 19 40 .63      10    -37      0     39     40 164.9   0.8  33106  271.97 0865.02
2015 04 09 06 19 40 .88      11    -33      1     35     36 161.5   2.9  33104  271.96 0865.02
2015 04 09 06 19 41 .13      11    -33      1     35     36 161.5   2.9  33104  271.96 0865.02
2015 04 09 06 19 41 .38      11    -33      1     35     36 161.5   2.9  33104  271.96 0865.02
2015 04 09 06 19 41 .63      10    -37      0     39     40 164.9   0.8  33106  271.97 0865.02
2015 04 09 06 19 41 .88      10    -37      0     39     40 164.9   0.8  33106  271.97 0865.02
2015 04 09 06 19 42 .13      11    -33      1     35     36 161.5   2.9  33104  271.96 0865.02
2015 04 09 06 19 42 .39      12    -37     -1     40     41 161.7  -2.2  33104  271.96 0865.02
2015 04 09 06 19 42 .64      10    -37      0     39     40 164.9   0.8  33106  271.97 0865.02
2015 04 09 06 19 42 .89      10    -37      0     39     40 164.9   0.8  33106  271.97 0865.02
2015 04 09 06 19 43 .14      10    -37      0     39     40 164.9   0.8  33106  271.97 0865.02
2015 04 09 06 19 43 .39      10    -37      0     39     40 164.9   0.8  33106  271.97 0865.02
2015 04 09 06 19 43 .64      10    -37      0     39     40 164.9   0.8  33106  271.97 0865.02
2015 04 09 06 19 43 .89      11    -33      1     35     36 161.5   2.9  33104  271.96 0865.02
2015 04 09 06 19 44 .14      15    -33      1     37     38 154.7   2.8  33102  271.92 0865.02
2015 04 09 06 19 44 .39      15    -33      1     37     38 154.7   2.8  33102  271.92 0865.02
2015 04 09 06 19 44 .64      10    -37      0     39     40 164.9   0.8  33106  271.97 0865.02
2015 04 09 06 19 44 .90      10    -37      0     39     40 164.9   0.8  33106  271.97 0865.01
2015 04 09 06 19 45 .15      11    -33      1     35     36 161.5   2.9  33104  271.96 0865.01
2015 04 09 06 19 45 .40      11    -33      1     35     36 161.5   2.9  33104  271.96 0865.01
2015 04 09 06 19 45 .65      11    -33      1     35     36 161.5   2.9  33104  271.96 0865.01
2015 04 09 06 19 45 .90      11    -33      1     35     36 161.5   2.9  33104  271.96 0865.01
2015 04 09 06 19 46 .15      15    -33      1     37     38 154.7   2.8  33102  271.92 0865.01
2015 04 09 06 19 46 .40      15    -33      1     37     38 154.7   2.8  33102  271.92 0865.01
2015 04 09 06 19 46 .65      10    -37      0     39     40 164.9   0.8  33106  271.97 0865.02
2015 04 09 06 19 46 .90      10    -37      0     39     40 164.9   0.8  33106  271.97 0865.02
2015 04 09 06 19 47 .15      11    -34      1     36     37 161.3   2.9  33108  272.01 0865.02
2015 04 09 06 19 47 .40      11    -34      1     36     37 161.3   2.9  33108  272.01 0865.02
2015 04 09 06 19 47 .65      10    -37      0     39     40 164.9   0.8  33106  271.97 0865.02
2015 04 09 06 19 47 .90      10    -37      0     39     40 164.9   0.8  33106  271.97 0865.02
2015 04 09 06 19 48 .15      12    -37     -1     40     41 161.7  -2.2  33104  271.96 0865.02
2015 04 09 06 19 48 .40      10    -37      0     39     40 164.9   0.8  33106  271.97 0865.02
2015 04 09 06 19 48 .65      15    -33      1     37     38 154.7   2.8  33102  271.92 0865.02
2015 04 09 06 19 48 .90      15    -33      1     37     38 154.7   2.8  33102  271.92 0865.02
2015 04 09 06 19 49 .16      15    -33      1     37     38 154.7   2.8  33102  271.92 0865.02
2015 04 09 06 19 49 .42      15    -33      1     37     38 154.7   2.8  33102  271.92 0865.02
2015 04 09 06 19 49 .67      11    -33      1     35     36 161.5   2.9  33104  271.96 0865.02
2015 04 09 06 19 49 .92      10    -37      0     39     40 164.9   0.8  33106  271.97 0865.02
2015 04 09 06 19 50 .17      15    -33      1     37     38 154.7   2.8  33102  271.92 0865.02
2015 04 09 06 19 50 .42      15    -33      1     37     38 154.7   2.8  33102  271.92 0865.02
2015 04 09 06 19 50 .67      12    -37     -1     40     41 161.7  -2.2  33104  271.96 0865.02
2015 04 09 06 19 50 .92      15    -33      1     37     38 154.7   2.8  33102  271.92 0865.02
2015 04 09 06 19 51 .17      12    -37     -1     40     41 161.7  -2.2  33104  271.96 0865.02
2015 04 09 06 19 51 .42      14    -41      0     44     45 160.8   0.8  33108  272.02 0865.02
2015 04 09 06 19 51 .67      14    -41      0     44     45 160.8   0.8  33106  271.99 0865.02
2015 04 09 06 19 51 .92      14    -41      0     44     45 160.8   0.8  33108  272.02 0865.02
2015 04 09 06 19 52 .17      14    -41      0     44     45 160.8   0.8  33108  272.02 0865.02
2015 04 09 06 19 52 .42      14    -41      0     44     45 160.8   0.8  33106  271.99 0865.02
2015 04 09 06 19 52 .67      15    -33      1     37     38 154.7   2.8  33102  271.92 0865.02
2015 04 09 06 19 52 .93      12    -37     -1     40     41 161.7  -2.2  33104  271.96 0865.02
2015 04 09 06 19 53 .17      20    -42     -1     47     48 154.6  -2.2  33108  272.01 0865.01
2015 04 09 06 19 53 .43      14    -41      0     44     45 160.8   0.8  33108  272.02 0865.01
2015 04 09 06 19 53 .68      11    -41      2     43     44 164.9   2.9  33108  272.01 0865.01
2015 04 09 06 19 53 .93      14    -41      0     44     45 160.8   0.8  33108  272.02 0865.01
2015 04 09 06 19 54 .18      14    -41      0     44     45 160.8   0.8  33108  272.02 0865.01
2015 04 09 06 19 54 .43      20    -42     -1     47     48 154.6  -2.2  33108  272.01 0865.01
2015 04 09 06 19 54 .68      20    -42     -1     47     48 154.6  -2.2  33108  272.01 0865.01
2015 04 09 06 19 54 .93      21    -39      0     45     46 151.0   0.8  33108  272.02 0865.01
2015 04 09 06 19 55 .18      16    -38      2     42     43 156.4   2.9  33110  272.06 0865.01
2015 04 09 06 19 55 .43      20    -42     -1     47     48 154.6  -2.2  33108  272.01 0865.01
2015 04 09 06 19 55 .68      20    -42     -1     47     48 154.6  -2.2  33108  272.01 0865.01
2015 04 09 06 19 55 .93      20    -42     -1     47     48 154.6  -2.2  33108  272.01 0865.01
2015 04 09 06 19 56 .18      20    -42     -1     47     48 154.6  -2.2  33108  272.01 0865.01
2015 04 09 06 19 56 .44      20    -42     -1     47     48 154.6  -2.2  33108  272.01 0865.01
2015 04 09 06 19 56 .69      20    -42     -1     47     48 154.6  -2.2  33108  272.01 0865.01
2015 04 09 06 19 56 .94      20    -42     -1     47     48 154.6  -2.2  33108  272.01 0865.01
2015 04 09 06 19 57 .19      20    -42     -1     47     48 154.6  -2.2  33108  272.01 0865.01
2015 04 09 06 19 57 .44      20    -42     -1     47     48 154.6  -2.2  33108  272.01 0865.01
2015 04 09 06 19 57 .69      14    -41      0     44     45 160.8   0.8  33108  272.02 0865.01
2015 04 09 06 19 57 .95      20    -42     -1     47     48 154.6  -2.2  33108  272.01 0865.01
2015 04 09 06 19 58 .20      14    -41      0     44     45 160.8   0.8  33112  272.07 0865.01
2015 04 09 06 19 58 .45      14    -41      0     44     45 160.8   0.8  33112  272.07 0865.01
2015 04 09 06 19 58 .70      14    -41      0     44     45 160.8   0.8  33112  272.07 0865.01
2015 04 09 06 19 58 .95      21    -39      0     45     46 151.0   0.8  33108  272.02 0865.01
2015 04 09 06 19 59 .20      13    -43     -1     46     47 163.1  -2.2  33110  272.06 0865.01
2015 04 09 06 19 59 .45      14    -41      0     44     45 160.8   0.8  33112  272.07 0865.01
2015 04 09 06 19 59 .70      20    -42     -1     47     48 153.7  -2.2  33116  272.14 0865.01
2015 04 09 06 19 59 .95      14    -41      0     44     45 160.8   0.8  33114  272.12 0865.01
2015 04 09 06 20 00 .20      14    -41      0     44     45 160.8   0.8  33114  272.12 0865.01
2015 04 09 06 20 00 .45      15    -49      0     52     53 162.2  -0.3  33120  272.22 0865.01
2015 04 09 06 20 00 .70      20    -45      0     50     51 155.5  -0.3  33124  272.27 0865.01
2015 04 09 06 20 00 .95      18    -41     -1     45     46 156.4  -2.2  33126  272.30 0865.01
2015 04 09 06 20 01 .20      16    -46      2     49     50 160.0   2.9  33122  272.25 0865.01
2015 04 09 06 20 01 .45      16    -46      2     49     50 160.0   2.9  33122  272.25 0865.01
2015 04 09 06 20 01 .71      13    -45     -1     48     49 163.1  -2.2  33120  272.20 0865.01
2015 04 09 06 20 01 .95      15    -49      0     52     53 162.2  -0.3  33120  272.22 0865.01
2015 04 09 06 20 02 .20      14    -41      0     44     45 160.8   0.8  33118  272.17 0865.01
2015 04 09 06 20 02 .46      13    -45     -1     48     49 163.1  -2.2  33120  272.20 0865.01
2015 04 09 06 20 02 .71      15    -49      0     52     53 162.2  -0.3  33120  272.22 0865.01
2015 04 09 06 20 02 .96      16    -46      2     49     50 160.0   2.9  33122  272.25 0865.01
2015 04 09 06 20 03 .22      15    -45     -2     48     49 160.8  -3.1  33126  272.32 0865.01
2015 04 09 06 20 03 .47      15    -49      0     52     53 162.2  -0.3  33130  272.37 0865.01
2015 04 09 06 20 03 .72      15    -49      0     52     53 162.2  -0.3  33130  272.37 0865.01
2015 04 09 06 20 03 .97      18    -49      4     53     54 159.1   4.9  33126  272.32 0865.01
2015 04 09 06 20 04 .22      15    -49      0     52     53 162.2  -0.3  33130  272.37 0865.01
2015 04 09 06 20 04 .47      23    -49      2     55     56 154.5   2.8  33134  272.43 0865.01
2015 04 09 06 20 04 .72      17    -53      2     56     57 161.3   2.8  33138  272.50 0865.01
2015 04 09 06 20 04 .97      15    -49      0     52     53 162.2  -0.3  33138  272.52 0865.01
2015 04 09 06 20 05 .22      15    -49      0     52     53 162.2  -0.3  33138  272.52 0865.01
2015 04 09 06 20 05 .47      15    -49      0     52     53 162.2  -0.3  33138  272.52 0865.01
2015 04 09 06 20 05 .72      15    -49      0     52     53 162.2  -0.3  33138  272.52 0865.01
2015 04 09 06 20 05 .97      15    -49      0     52     53 162.2  -0.3  33138  272.52 0865.01
2015 04 09 06 20 06 .22      15    -49      0     52     53 162.2  -0.3  33138  272.52 0865.01
2015 04 09 06 20 06 .47      15    -49      0     52     53 162.2  -0.3  33138  272.52 0865.01
2015 04 09 06 20 06 .72      15    -49      0     52     53 162.2  -0.3  33138  272.52 0865.01
2015 04 09 06 20 06 .98      15    -49      0     52     53 162.2  -0.3  33138  272.52 0865.01
2015 04 09 06 20 07 .23      15    -49      0     52     53 162.2  -0.3  33138  272.52 0865.01
2015 04 09 06 20 07 .48      15    -49      0     52     53 162.2  -0.3  33138  272.52 0865.01
2015 04 09 06 20 07 .73      15    -49      0     52     53 162.2  -0.3  33138  272.52 0865.00
2015 04 09 06 20 07 .98      15    -49      0     52     53 162.2  -0.3  33138  272.52 0865.00
2015 04 09 06 20 08 .23      15    -49      0     52     53 162.2  -0.3  33138  272.52 0865.00
2015 04 09 06 20 08 .48      15    -49      0     52     53 162.2  -0.3  33138  272.52 0865.00
2015 04 09 06 20 08 .73      15    -49      0     52     53 162.2  -0.3  33138  272.52 0865.00
2015 04 09 06 20 08 .98      15    -49      0     52     53 162.2  -0.3  33138  272.52 0865.00
2015 04 09 06 20 09 .23      15    -49      0     52     53 162.2  -0.3  33138  272.52 0865.00
2015 04 09 06 20 09 .48      15    -49      0     52     53 162.2  -0.3  33138  272.52 0865.00
2015 04 09 06 20 09 .73      15    -49      0     52     53 162.2  -0.3  33138  272.52 0865.00
2015 04 09 06 20 09 .98      15    -49      0     52     53 162.2  -0.3  33138  272.52 0865.00
2015 04 09 06 20 10 .24      15    -49      0     52     53 162.2  -0.3  33138  272.52 0865.00
2015 04 09 06 20 10 .49      18    -53      2     57     58 161.3   2.8  33140  272.55 0865.00
2015 04 09 06 20 10 .74      15    -49      0     52     53 162.2  -0.3  33138  272.52 0865.00
2015 04 09 06 20 11 .00      15    -49      0     52     53 162.2  -0.3  33138  272.52 0865.00
2015 04 09 06 20 11 .25      15    -49      0     52     53 162.2  -0.3  33138  272.52 0865.01
2015 04 09 06 20 11 .50      15    -49      0     52     53 162.2  -0.3  33138  272.52 0865.01
2015 04 09 06 20 11 .75      17    -53      2     56     57 161.3   2.8  33138  272.50 0865.01
2015 04 09 06 20 12 .00      17    -53      2     56     57 161.3   2.8  33138  272.50 0865.01
2015 04 09 06 20 12 .25      15    -49      0     52     53 162.2  -0.3  33138  272.52 0865.01
2015 04 09 06 20 12 .50      18    -53      2     57     58 161.3   2.8  33140  272.55 0865.01
2015 04 09 06 20 12 .75      18    -53      2     57     58 161.3   2.8  33140  272.55 0865.01
2015 04 09 06 20 13 .00      18    -53      2     57     58 161.3   2.8  33140  272.55 0865.01
2015 04 09 06 20 13 .25      19    -58      3     62     63 161.5   2.9  33138  272.52 0865.01
2015 04 09 06 20 13 .50      19    -58      3     62     63 161.5   2.9  33138  272.52 0865.01
2015 04 09 06 20 13 .75      19    -58      3     62     63 161.5   2.9  33138  272.52 0865.01
2015 04 09 06 20 14 .00      15    -56     -1     59     60 164.9  -1.2  33142  272.57 0865.01
2015 04 09 06 20 14 .25      15    -56     -1     59     60 164.9  -1.2  33142  272.57 0865.01
2015 04 09 06 20 14 .50      11    -57      2     59     60 168.5   2.8  33142  272.58 0865.01
2015 04 09 06 20 14 .75      11    -57      2     59     60 168.5   2.8  33142  272.58 0865.01
2015 04 09 06 20 15 .00      11    -57      2     59     60 168.5   2.8  33142  272.58 0865.01
2015 04 09 06 20 15 .25      11    -57      2     59     60 168.5   2.8  33142  272.58 0865.01
2015 04 09 06 20 15 .51      11    -57      2     59     60 168.5   2.8  33142  272.58 0865.01
2015 04 09 06 20 15 .76      15    -52      3     55     56 164.0   3.8  33144  272.61 0865.01
2015 04 09 06 20 16 .01      15    -52      3     55     56 164.0   3.8  33144  272.61 0865.01
2015 04 09 06 20 16 .26      15    -52      3     55     56 164.0   3.8  33144  272.61 0865.01
2015 04 09 06 20 16 .51      17    -53      2     56     57 161.3   2.9  33146  272.63 0865.01
2015 04 09 06 20 16 .76      18    -56      5     60     61 161.7   4.9  33148  272.66 0865.01
2015 04 09 06 20 17 .01      18    -56      5     60     61 161.7   4.9  33148  272.66 0865.01
2015 04 09 06 20 17 .27      18    -56      5     60     61 161.7   4.9  33148  272.66 0865.01
2015 04 09 06 20 17 .52      18    -56      5     60     61 161.7   4.9  33148  272.66 0865.01
2015 04 09 06 20 17 .77      18    -56      5     60     61 161.7   4.9  33148  272.66 0865.01
2015 04 09 06 20 18 .02      18    -56      5     60     61 161.7   4.9  33148  272.66 0865.01
2015 04 09 06 20 18 .27      18    -56      5     60     61 161.7   4.9  33148  272.66 0865.01
2015 04 09 06 20 18 .52      18    -56      5     60     61 161.7   4.9  33148  272.66 0865.01
2015 04 09 06 20 18 .77      18    -56      5     60     61 161.7   4.9  33148  272.66 0865.01
2015 04 09 06 20 19 .02      18    -56      5     60     61 161.7   4.9  33148  272.66 0865.01
2015 04 09 06 20 19 .27      18    -56      5     60     61 161.7   4.9  33148  272.66 0865.01
2015 04 09 06 20 19 .52      18    -56      5     60     61 161.7   4.9  33148  272.66 0865.01
2015 04 09 06 20 19 .78      16    -56      7     59     60 164.0   6.9  33148  272.68 0865.01
2015 04 09 06 20 20 .03      12    -60      5     62     63 168.5   4.9  33150  272.71 0865.01
2015 04 09 06 20 20 .28      18    -56      5     60     61 161.7   4.9  33148  272.66 0865.01
2015 04 09 06 20 20 .53      18    -56      5     60     61 161.7   4.9  33148  272.66 0865.01
2015 04 09 06 20 20 .78      16    -56      7     59     60 164.0   6.9  33148  272.68 0865.01
2015 04 09 06 20 21 .03      14    -57      7     59     60 165.7   6.9  33152  272.73 0865.01
2015 04 09 06 20 21 .28      12    -54      4     56     57 167.5   4.9  33154  272.76 0865.01
2015 04 09 06 20 21 .53      12    -54      4     56     57 167.5   4.9  33154  272.76 0865.01
2015 04 09 06 20 21 .78      18    -58      5     61     62 162.2   4.9  33156  272.81 0865.01
2015 04 09 06 20 22 .03      18    -58      5     61     62 162.2   4.9  33156  272.81 0865.01
2015 04 09 06 20 22 .28      18    -58      5     61     62 162.2   4.9  33156  272.81 0865.01
2015 04 09 06 20 22 .53      15    -57      7     60     61 164.9   7.1  33154  272.78 0865.01
2015 04 09 06 20 22 .78      14    -57      7     59     60 165.7   6.9  33152  272.73 0865.01
2015 04 09 06 20 23 .03      16    -62      9     65     66 164.9   8.0  33154  272.76 0865.01
2015 04 09 06 20 23 .28      17    -60      3     63     64 164.0   2.8  33148  272.68 0865.01
2015 04 09 06 20 23 .54      18    -53     11     57     59 161.3  11.0  33150  272.71 0865.01
2015 04 09 06 20 23 .78      20    -62      8     66     67 161.5   6.9  33154  272.78 0865.01
2015 04 09 06 20 24 .05      20    -62      8     66     67 161.5   6.9  33154  272.78 0865.02
2015 04 09 06 20 24 .30      25    -63      3     68     69 158.2   2.9  33154  272.76 0865.02
2015 04 09 06 20 24 .55      20    -54      7     58     59 159.1   6.9  33148  272.68 0865.02
2015 04 09 06 20 24 .80      27    -58      6     65     66 154.6   5.9  33152  272.73 0865.02
2015 04 09 06 20 25 .05      27    -58      6     65     66 154.6   5.9  33152  272.73 0865.02
2015 04 09 06 20 25 .30      25    -63      3     68     69 158.2   2.9  33154  272.76 0865.02
2015 04 09 06 20 25 .55      25    -63      3     68     69 158.2   2.9  33154  272.76 0865.02
2015 04 09 06 20 25 .80      25    -63      3     68     69 158.2   2.9  33154  272.76 0865.01
2015 04 09 06 20 26 .05      25    -63      3     68     69 158.2   2.9  33154  272.76 0865.01
2015 04 09 06 20 26 .30      25    -63      3     68     69 158.2   2.9  33154  272.76 0865.01
2015 04 09 06 20 26 .55      25    -63      3     68     69 158.2   2.9  33154  272.76 0865.01
2015 04 09 06 20 26 .80      25    -63      3     68     69 158.2   2.9  33154  272.76 0865.01
2015 04 09 06 20 27 .05      23    -58      3     63     64 158.1   2.8  33152  272.73 0865.01
2015 04 09 06 20 27 .30      25    -63      3     68     69 158.2   2.9  33154  272.76 0865.01
2015 04 09 06 20 27 .55      23    -59      3     64     65 158.2   2.9  33154  272.78 0865.02
2015 04 09 06 20 27 .80      23    -59      3     64     65 158.2   2.9  33154  272.78 0865.02
2015 04 09 06 20 28 .05      23    -59      3     64     65 158.2   2.9  33154  272.78 0865.02
2015 04 09 06 20 28 .31      23    -59      3     64     65 158.2   2.9  33154  272.78 0865.02
2015 04 09 06 20 28 .56      18    -58      5     61     62 162.2   4.9  33156  272.81 0865.02
2015 04 09 06 20 28 .81      18    -58      5     61     62 162.2   4.9  33156  272.81 0865.02
2015 04 09 06 20 29 .06      18    -58      5     61     62 162.2   4.9  33156  272.81 0865.02
2015 04 09 06 20 29 .31      18    -58      5     61     62 162.2   4.9  33156  272.81 0865.02
2015 04 09 06 20 29 .56      20    -62      8     66     67 161.5   6.9  33154  272.78 0865.02
2015 04 09 06 20 29 .81      18    -58      5     61     62 162.2   4.9  33156  272.81 0865.02
2015 04 09 06 20 30 .06      18    -58      5     61     62 162.2   4.9  33156  272.81 0865.02
2015 04 09 06 20 30 .31      18    -58      5     61     62 162.2   4.9  33156  272.81 0865.01
2015 04 09 06 20 30 .56      18    -58      5     61     62 162.2   4.9  33156  272.81 0865.01
2015 04 09 06 20 30 .81      18    -58      5     61     62 162.2   4.9  33156  272.81 0865.01
2015 04 09 06 20 31 .07      18    -58      5     61     62 162.2   4.9  33156  272.81 0865.01
2015 04 09 06 20 31 .32      18    -58      5     61     62 162.2   4.9  33156  272.81 0865.01
2015 04 09 06 20 31 .57      18    -58      5     61     62 162.2   4.9  33156  272.81 0865.01
2015 04 09 06 20 31 .82      18    -58      5     61     62 162.2   4.9  33156  272.81 0865.01
2015 04 09 06 20 32 .07      18    -58      5     61     62 162.2   4.9  33156  272.81 0865.01
2015 04 09 06 20 32 .32      18    -58      5     61     62 162.2   4.9  33156  272.81 0865.01
2015 04 09 06 20 32 .57      18    -58      5     61     62 162.2   4.9  33156  272.81 0865.01
2015 04 09 06 20 32 .82      18    -58      5     61     62 162.2   4.9  33156  272.81 0865.01
2015 04 09 06 20 33 .08      16    -62      3     65     66 164.9   2.8  33158  272.83 0865.02
2015 04 09 06 20 33 .33      18    -58      5     61     62 162.2   4.9  33156  272.81 0865.02
2015 04 09 06 20 33 .58      18    -58      5     61     62 162.2   4.9  33156  272.81 0865.02
2015 04 09 06 20 33 .83      16    -62      3     65     66 164.9   2.8  33158  272.83 0865.02
2015 04 09 06 20 34 .08      20    -62      0     66     67 161.7   0.8  33160  272.86 0865.02
2015 04 09 06 20 34 .33      23    -66      3     70     71 160.8   2.8  33160  272.88 0865.02
2015 04 09 06 20 34 .58      20    -64      3     68     69 162.2   2.9  33162  272.89 0865.02
2015 04 09 06 20 34 .83      20    -64      3     68     69 162.2   2.9  33162  272.89 0865.01
2015 04 09 06 20 35 .08      20    -64      3     68     69 162.2   2.9  33162  272.89 0865.01
2015 04 09 06 20 35 .33      20    -64      3     68     69 162.2   2.9  33162  272.89 0865.01
2015 04 09 06 20 35 .58      20    -64      3     68     69 162.2   2.9  33162  272.89 0865.01
2015 04 09 06 20 35 .83      20    -62      0     66     67 161.7   0.8  33160  272.86 0865.01
2015 04 09 06 20 36 .08      20    -62      0     66     67 161.7   0.8  33160  272.86 0865.01
2015 04 09 06 20 36 .33      16    -62      3     65     66 164.9   2.8  33158  272.83 0865.01
2015 04 09 06 20 36 .58      15    -65      6     67     68 166.6   5.9  33160  272.88 0865.01
2015 04 09 06 20 36 .83      16    -62      3     65     66 164.9   2.8  33158  272.83 0865.01
2015 04 09 06 20 37 .09      16    -62      3     65     66 164.9   2.8  33154  272.78 0865.01
2015 04 09 06 20 37 .34      16    -62      3     65     66 164.9   2.8  33154  272.78 0865.01
2015 04 09 06 20 37 .59      20    -62      8     66     67 161.5   6.9  33154  272.78 0865.01
2015 04 09 06 20 37 .84      20    -62      8     66     67 161.5   6.9  33154  272.78 0865.01
2015 04 09 06 20 38 .10      17    -65      3     68     69 164.8   2.9  33154  272.76 0865.01
2015 04 09 06 20 38 .35      15    -65      0     67     68 166.6  -0.3  33156  272.81 0865.01
2015 04 09 06 20 38 .60      16    -62      3     65     66 164.9   2.8  33158  272.83 0865.01
2015 04 09 06 20 38 .85      18    -58      5     61     62 162.2   4.9  33156  272.81 0865.01
2015 04 09 06 20 39 .10      18    -58      5     61     62 162.2   4.9  33156  272.81 0865.01
2015 04 09 06 20 39 .35      18    -58      5     61     62 162.2   4.9  33156  272.81 0865.01
2015 04 09 06 20 39 .60      15    -65      0     67     68 166.6  -0.3  33156  272.81 0865.01
2015 04 09 06 20 39 .85      16    -62      3     65     66 164.9   2.8  33158  272.83 0865.01
2015 04 09 06 20 40 .10      16    -62      3     65     66 164.9   2.8  33154  272.78 0865.01
2015 04 09 06 20 40 .35      17    -65      3     68     69 164.8   2.9  33154  272.76 0865.01
2015 04 09 06 20 40 .60      16    -62      3     65     66 164.9   2.8  33154  272.78 0865.01
2015 04 09 06 20 40 .86      16    -62      3     65     66 164.9   2.8  33154  272.78 0865.01
2015 04 09 06 20 41 .10      18    -58      5     61     62 162.2   4.9  33156  272.81 0865.01
2015 04 09 06 20 41 .36      18    -58      5     61     62 162.2   4.9  33156  272.81 0865.01
2015 04 09 06 20 41 .61      16    -62      3     65     66 164.9   2.8  33158  272.83 0865.01
2015 04 09 06 20 41 .86      16    -62      3     65     66 164.9   2.8  33158  272.83 0865.01
2015 04 09 06 20 42 .11      16    -62      3     65     66 164.9   2.8  33158  272.83 0865.01
2015 04 09 06 20 42 .36      12    -61      3     63     64 168.4   2.9  33158  272.85 0865.02
2015 04 09 06 20 42 .61      12    -61      3     63     64 168.4   2.9  33158  272.85 0865.02
2015 04 09 06 20 42 .86      12    -61      3     63     64 168.4   2.9  33158  272.85 0865.02
2015 04 09 06 20 43 .11      16    -62      3     65     66 164.9   2.8  33158  272.83 0865.02
2015 04 09 06 20 43 .36      20    -62      8     66     67 161.5   6.9  33154  272.78 0865.02
2015 04 09 06 20 43 .61      16    -62      9     65     66 164.9   8.0  33154  272.76 0865.02
2015 04 09 06 20 43 .86      12    -61      3     63     64 168.4   2.9  33154  272.76 0865.02
2015 04 09 06 20 44 .11      15    -65      6     67     68 166.6   5.9  33152  272.75 0865.02
2015 04 09 06 20 44 .36      12    -63      9     65     66 169.3   8.0  33154  272.76 0865.02
2015 04 09 06 20 44 .61      12    -60      5     62     63 168.5   4.9  33150  272.71 0865.02
2015 04 09 06 20 44 .86      15    -65      0     67     68 166.6  -0.3  33156  272.81 0865.01
2015 04 09 06 20 45 .12      15    -65      0     67     68 166.6  -0.3  33156  272.81 0865.01
2015 04 09 06 20 45 .37      15    -65      0     67     68 166.6  -0.3  33156  272.81 0865.01
2015 04 09 06 20 45 .63      12    -61      3     63     64 168.4   2.9  33154  272.76 0865.01
2015 04 09 06 20 45 .87      16    -62      9     65     66 164.9   8.0  33154  272.76 0865.01
2015 04 09 06 20 46 .13      15    -65      6     67     68 166.6   5.9  33152  272.75 0865.01
2015 04 09 06 20 46 .38      12    -60      5     62     63 168.5   4.9  33150  272.71 0865.01
2015 04 09 06 20 46 .63      12    -60      5     62     63 168.5   4.9  33150  272.71 0865.01
2015 04 09 06 20 46 .88      12    -61      3     63     64 168.4   2.9  33158  272.85 0865.01
2015 04 09 06 20 47 .13      12    -61      3     63     64 168.4   2.9  33158  272.85 0865.01
2015 04 09 06 20 47 .38      12    -61      3     63     64 168.4   2.9  33158  272.85 0865.01
2015 04 09 06 20 47 .63      12    -61      3     63     64 168.4   2.9  33158  272.85 0865.01
2015 04 09 06 20 47 .88      15    -65     -1     67     68 166.6  -1.2  33166  272.96 0865.01
2015 04 09 06 20 48 .13      10    -56      2     58     59 169.3   2.9  33160  272.88 0865.01
2015 04 09 06 20 48 .38      12    -61      3     63     64 168.4   2.9  33158  272.85 0865.01
2015 04 09 06 20 48 .63      15    -65      6     67     68 166.6   5.9  33160  272.88 0865.00
2015 04 09 06 20 48 .88      12    -60      5     62     63 168.5   4.9  33162  272.89 0865.00
2015 04 09 06 20 49 .13      12    -60      5     62     63 168.5   4.9  33162  272.89 0865.00
2015 04 09 06 20 49 .38      10    -56      2     58     59 169.3   2.9  33160  272.88 0865.00
2015 04 09 06 20 49 .63      10    -56      2     58     59 169.3   2.9  33160  272.88 0865.00
2015 04 09 06 20 49 .88      12    -61      3     63     64 168.4   2.9  33158  272.85 0865.00
2015 04 09 06 20 50 .13      10    -56      2     58     59 169.3   2.9  33160  272.88 0865.00
2015 04 09 06 20 50 .39      12    -61      3     63     64 168.4   2.9  33158  272.85 0865.00
2015 04 09 06 20 50 .64      12    -61      3     63     64 168.4   2.9  33158  272.85 0865.00
2015 04 09 06 20 51 .07      12    -61      3     63     64 168.4   2.9  33158  272.85 0865.00
2015 04 09 06 20 51 .14       5    -56      3     57     58 174.7   3.8  33162  272.89 0865.00
2015 04 09 06 20 51 .39       8    -60      7     61     62 172.0   6.9  33164  272.93 0865.00
2015 04 09 06 20 51 .64      10    -56      2     58     59 169.3   2.9  33160  272.88 0865.00
2015 04 09 06 20 51 .90      12    -61      3     63     64 168.4   2.9  33158  272.85 0865.00
2015 04 09 06 20 52 .15      12    -61      3     63     64 168.4   2.9  33158  272.85 0865.00
2015 04 09 06 20 52 .40       8    -61      7     62     63 172.0   6.9  33158  272.83 0865.01
2015 04 09 06 20 52 .65       8    -61      7     62     63 172.0   6.9  33158  272.83 0865.01
2015 04 09 06 20 52 .90       8    -61      7     62     63 172.0   6.9  33158  272.83 0865.01
2015 04 09 06 20 53 .16       8    -61      7     62     63 172.0   6.9  33158  272.83 0865.01
2015 04 09 06 20 53 .40      11    -58     10     60     61 168.5  10.1  33156  272.81 0865.01
2015 04 09 06 20 53 .65       7    -53      5     54     55 172.0   5.9  33154  272.78 0865.01
2015 04 09 06 20 53 .91       7    -53      5     54     55 172.0   5.9  33154  272.78 0865.01
2015 04 09 06 20 54 .15      11    -58     10     60     61 168.5  10.1  33156  272.81 0865.01
2015 04 09 06 20 54 .40      11    -58     10     60     61 168.5  10.1  33156  272.81 0865.01
2015 04 09 06 20 54 .65       8    -61      7     62     63 172.0   6.9  33158  272.83 0865.01
2015 04 09 06 20 54 .91       8    -61      7     62     63 172.0   6.9  33158  272.83 0865.01
2015 04 09 06 20 55 .16       8    -61      7     62     63 172.0   6.9  33158  272.83 0865.01
2015 04 09 06 20 55 .41      10    -56      2     58     59 169.3   2.9  33160  272.88 0865.01
2015 04 09 06 20 55 .66       7    -53      5     54     55 172.0   5.9  33154  272.78 0865.01
2015 04 09 06 20 55 .91       8    -52      0     53     54 171.1   0.8  33158  272.85 0865.01
2015 04 09 06 20 56 .16       5    -48      4     49     50 173.8   4.9  33156  272.81 0865.01
2015 04 09 06 20 56 .41       5    -56      3     57     58 174.7   3.8  33160  272.86 0865.01
2015 04 09 06 20 56 .66       7    -53      5     54     55 172.0   5.9  33154  272.78 0865.01
2015 04 09 06 20 56 .91      11    -58     10     60     61 168.5  10.1  33156  272.81 0865.01
2015 04 09 06 20 57 .16      11    -58     10     60     61 168.5  10.1  33156  272.81 0865.01
2015 04 09 06 20 57 .41      11    -58     10     60     61 168.5  10.1  33156  272.81 0865.01
2015 04 09 06 20 57 .66      11    -58     10     60     61 168.5  10.1  33156  272.81 0865.01
2015 04 09 06 20 58 .66       4    -60      9     61     62 175.5   9.0  33158  272.85 0865.01
2015 04 09 06 20 58 .93      11    -58     10     60     61 168.5  10.1  33156  272.81 0865.01
2015 04 09 06 20 59 .18      11    -58     10     60     61 168.5  10.1  33156  272.81 0865.01
2015 04 09 06 20 59 .43      11    -58     10     60     61 168.5  10.1  33156  272.81 0865.01
2015 04 09 06 20 59 .68      11    -58     10     60     61 168.5  10.1  33156  272.81 0865.02
2015 04 09 06 20 59 .93      11    -58     10     60     61 168.5  10.1  33156  272.81 0865.02
2015 04 09 06 21 00 .18      11    -58     10     60     61 168.5  10.1  33156  272.81 0865.02
2015 04 09 06 21 00 .43      11    -58     10     60     61 168.5  10.1  33156  272.81 0865.02
2015 04 09 06 21 00 .68       7    -53      5     54     55 172.0   5.9  33154  272.78 0865.02
2015 04 09 06 21 00 .93       7    -53      5     54     55 172.0   5.9  33154  272.78 0865.02
2015 04 09 06 21 01 .18      11    -58     10     60     61 168.5  10.1  33156  272.81 0865.02
2015 04 09 06 21 01 .43       7    -53      5     54     55 172.0   5.9  33154  272.78 0865.01
2015 04 09 06 21 01 .68       7    -53      5     54     55 172.0   5.9  33154  272.78 0865.01
2015 04 09 06 21 01 .93      11    -58     10     60     61 168.5  10.1  33156  272.81 0865.01
2015 04 09 06 21 02 .18       7    -53      5     54     55 172.0   5.9  33154  272.78 0865.01
2015 04 09 06 21 02 .43      12    -61      3     63     64 168.4   2.9  33158  272.85 0865.01
2015 04 09 06 21 02 .68       8    -61      7     62     63 172.0   6.9  33158  272.83 0865.01
2015 04 09 06 21 02 .93       8    -61      7     62     63 172.0   6.9  33158  272.83 0865.01
2015 04 09 06 21 03 .19       8    -61      7     62     63 172.0   6.9  33158  272.83 0865.01
2015 04 09 06 21 03 .44       5    -56      3     57     58 174.7   3.8  33160  272.86 0865.01
2015 04 09 06 21 03 .69      10    -56      2     58     59 169.3   2.9  33160  272.88 0865.01
2015 04 09 06 21 03 .94      10    -56      2     58     59 169.3   2.9  33160  272.88 0865.01
2015 04 09 06 21 04 .19      11    -58     10     60     61 168.5  10.1  33156  272.81 0865.01
2015 04 09 06 21 04 .44       5    -56      3     57     58 174.7   3.8  33160  272.86 0865.01
2015 04 09 06 21 04 .69       5    -56      3     57     58 174.7   3.8  33150  272.71 0865.01
2015 04 09 06 21 04 .94       5    -48      4     49     50 173.8   4.9  33156  272.81 0865.01
2015 04 09 06 21 05 .19       0    -53      4     54     55 179.1   4.9  33150  272.71 0865.01
2015 04 09 06 21 05 .44       5    -56      3     57     58 174.7   3.8  33162  272.89 0865.01
2015 04 09 06 21 05 .69       9    -52      7     53     54 170.2   8.0  33164  272.93 0865.01
2015 04 09 06 21 05 .95       9    -52      7     53     54 170.2   8.0  33164  272.93 0865.01
2015 04 09 06 21 06 .20       9    -52      7     53     54 170.2   8.0  33164  272.93 0865.01
2015 04 09 06 21 06 .45       6    -48      5     49     50 172.9   5.9  33164  272.94 0865.01
2015 04 09 06 21 06 .70       3    -48      7     49     50 176.4   9.0  33164  272.93 0865.01
2015 04 09 06 21 06 .95       6    -48      5     49     50 172.9   5.9  33164  272.94 0865.01
2015 04 09 06 21 07 .20       6    -48      5     49     50 172.9   5.9  33164  272.94 0865.01
2015 04 09 06 21 07 .45       3    -56      5     57     58 176.4   5.9  33152  272.73 0865.01
2015 04 09 06 21 07 .70       0    -53      4     54     55 179.1   4.9  33150  272.71 0865.01
2015 04 09 06 21 07 .96       3    -49      7     50     51 176.4   8.0  33152  272.73 0865.01
2015 04 09 06 21 08 .21       4    -53      8     54     55 175.5   9.0  33154  272.76 0865.01
2015 04 09 06 21 08 .46       4    -53      8     54     55 175.5   9.0  33154  272.76 0865.01
2015 04 09 06 21 08 .71       2    -47      6     48     49 177.3   8.0  33154  272.78 0865.01
2015 04 09 06 21 08 .96       3    -49      7     50     51 176.4   8.0  33152  272.73 0865.01
2015 04 09 06 21 09 .21       3    -56      5     57     58 176.4   5.9  33152  272.73 0865.01
2015 04 09 06 21 09 .46       4    -53      8     54     55 175.5   9.0  33154  272.76 0865.01
2015 04 09 06 21 09 .71       2    -47      6     48     49 177.3   8.0  33154  272.78 0865.01
2015 04 09 06 21 09 .96       5    -48      4     49     50 173.8   4.9  33156  272.81 0865.01
2015 04 09 06 21 10 .21       7    -53      5     54     55 172.0   5.9  33154  272.78 0865.01
2015 04 09 06 21 10 .46       4    -52      2     53     54 175.5   2.8  33158  272.83 0865.01
2015 04 09 06 21 10 .71       4    -52      2     53     54 175.5   2.8  33158  272.83 0865.01
2015 04 09 06 21 10 .96       5    -48      4     49     50 173.8   4.9  33156  272.81 0865.01
2015 04 09 06 21 11 .21       5    -48      4     49     50 173.8   4.9  33156  272.81 0865.01
2015 04 09 06 21 11 .46       5    -48      4     49     50 173.8   4.9  33156  272.81 0865.02
2015 04 09 06 21 11 .71       7    -53      5     54     55 172.0   5.9  33154  272.78 0865.02
2015 04 09 06 21 11 .97       7    -53      5     54     55 172.0   5.9  33154  272.78 0865.02
2015 04 09 06 21 12 .22       4    -53      8     54     55 175.5   9.0  33154  272.76 0865.02
2015 04 09 06 21 12 .47       2    -47      6     48     49 177.3   8.0  33154  272.78 0865.02
2015 04 09 06 21 12 .73       3    -49      7     50     51 176.4   8.0  33152  272.73 0865.02
2015 04 09 06 21 12 .98       7    -53      5     54     55 172.0   5.9  33154  272.78 0865.02
2015 04 09 06 21 13 .23       5    -56      3     57     58 174.7   3.8  33156  272.80 0865.01
2015 04 09 06 21 13 .48       5    -56      3     57     58 174.7   3.8  33156  272.80 0865.01
2015 04 09 06 21 13 .73       7    -53      5     54     55 172.0   5.9  33154  272.78 0865.01
2015 04 09 06 21 13 .98       5    -56      3     57     58 174.7   3.8  33154  272.76 0865.01
2015 04 09 06 21 14 .23       5    -56      3     57     58 174.7   3.8  33154  272.76 0865.01
2015 04 09 06 21 14 .48       7    -53      5     54     55 172.0   5.9  33154  272.78 0865.01
2015 04 09 06 21 14 .73       7    -53      5     54     55 172.0   5.9  33154  272.78 0865.01
2015 04 09 06 21 14 .98       7    -53      5     54     55 172.0   5.9  33154  272.78 0865.01
2015 04 09 06 21 15 .23       7    -53      5     54     55 172.0   5.9  33154  272.78 0865.01
2015 04 09 06 21 15 .48       4    -52      2     53     54 175.5   2.8  33158  272.83 0865.01
2015 04 09 06 21 15 .73       4    -52      2     53     54 175.5   2.8  33158  272.83 0865.01
2015 04 09 06 21 15 .98       4    -52      2     53     54 175.5   2.8  33158  272.83 0865.01
2015 04 09 06 21 16 .24       7    -53      5     54     55 172.0   5.9  33154  272.78 0865.01
2015 04 09 06 21 16 .49      10    -56      2     58     59 169.3   2.9  33152  272.73 0865.01
2015 04 09 06 21 16 .74       7    -53      2     54     55 172.0   2.8  33150  272.71 0865.01
2015 04 09 06 21 16 .99       5    -56      3     57     58 174.7   3.8  33150  272.71 0865.01
2015 04 09 06 21 17 .24       4    -53      2     54     55 175.5   2.9  33150  272.70 0865.01
2015 04 09 06 21 17 .49       0    -52      4     53     54 180.9   4.9  33142  272.57 0865.01
2015 04 09 06 21 17 .74       2    -56      6     57     58 177.3   6.9  33142  272.58 0865.01
2015 04 09 06 21 17 .99       5    -56      3     57     58 174.7   3.8  33154  272.76 0865.01
2015 04 09 06 21 18 .24       4    -59      3     60     61 175.5   2.9  33154  272.78 0865.01
2015 04 09 06 21 18 .49       0    -59      5     60     61 179.1   4.9  33154  272.76 0865.01
2015 04 09 06 21 18 .74       4    -59      3     60     61 175.5   2.9  33154  272.78 0865.00
2015 04 09 06 21 18 .99       5    -56      3     57     58 174.7   3.8  33156  272.80 0865.00
2015 04 09 06 21 19 .24       5    -56      3     57     58 174.7   3.8  33160  272.86 0865.00
2015 04 09 06 21 19 .49       5    -56      3     57     58 174.7   3.8  33154  272.76 0865.00
2015 04 09 06 21 19 .75       3    -56      5     57     58 176.4   5.9  33152  272.73 0865.00
2015 04 09 06 21 20 .00       5    -56      3     57     58 174.7   3.8  33154  272.76 0865.00
2015 04 09 06 21 20 .26       4    -52      2     53     54 175.5   2.8  33158  272.83 0865.00
2015 04 09 06 21 20 .51       4    -52      2     53     54 175.5   2.8  33158  272.83 0865.01
2015 04 09 06 21 20 .76       4    -52      2     53     54 175.5   2.8  33158  272.83 0865.01
2015 04 09 06 21 21 .02       5    -56      3     57     58 174.7   3.8  33160  272.86 0865.01
2015 04 09 06 21 21 .26       8    -61      7     62     63 172.0   6.9  33158  272.83 0865.01
2015 04 09 06 21 21 .51       8    -61      7     62     63 172.0   6.9  33158  272.83 0865.01
2015 04 09 06 21 21 .76       4    -60      9     61     62 175.5   9.0  33158  272.85 0865.01
2015 04 09 06 21 22 .01       4    -60      9     61     62 175.5   9.0  33158  272.85 0865.01
2015 04 09 06 21 22 .26      11    -58     10     60     61 168.5  10.1  33156  272.81 0865.01
2015 04 09 06 21 22 .51       7    -53      5     54     55 172.0   5.9  33154  272.78 0865.01
2015 04 09 06 21 22 .76      11    -58     10     60     61 168.5  10.1  33156  272.81 0865.01
2015 04 09 06 21 23 .01       7    -53      5     54     55 172.0   5.9  33154  272.78 0865.01
2015 04 09 06 21 23 .26       5    -56      3     57     58 174.7   3.8  33156  272.80 0865.01
2015 04 09 06 21 23 .51       5    -56      3     57     58 174.7   3.8  33156  272.80 0865.01
2015 04 09 06 21 23 .76       5    -56      3     57     58 174.7   3.8  33156  272.80 0865.01
2015 04 09 06 21 24 .01       5    -56      3     57     58 174.7   3.8  33156  272.80 0865.01
2015 04 09 06 21 24 .26       5    -56      3     57     58 174.7   3.8  33156  272.80 0865.01
2015 04 09 06 21 24 .51       4    -52      2     53     54 175.5   2.8  33158  272.83 0865.01
2015 04 09 06 21 24 .76       4    -52      2     53     54 175.5   2.8  33158  272.83 0865.01
2015 04 09 06 21 25 .02       4    -52      2     53     54 175.5   2.8  33158  272.83 0865.01
2015 04 09 06 21 25 .27       0    -52      3     53     54 180.9   3.8  33158  272.85 0865.01
2015 04 09 06 21 25 .52       4    -52      2     53     54 175.5   2.8  33158  272.83 0865.01
2015 04 09 06 21 25 .77       4    -52      2     53     54 175.5   2.8  33158  272.83 0865.01
2015 04 09 06 21 26 .02       5    -56      3     57     58 174.7   3.8  33160  272.86 0865.01
2015 04 09 06 21 26 .27       0    -52      3     53     54 180.9   3.8  33158  272.85 0865.01
2015 04 09 06 21 26 .52       5    -56      3     57     58 174.7   3.8  33162  272.89 0865.01
2015 04 09 06 21 26 .78       5    -56      3     57     58 174.7   3.8  33162  272.89 0865.01
2015 04 09 06 21 27 .03       9    -52      7     53     54 170.2   8.0  33164  272.93 0865.01
2015 04 09 06 21 27 .28       4    -52     10     53     55 175.5  11.0  33162  272.91 0865.01
2015 04 09 06 21 27 .53       3    -56      5     57     58 176.4   5.9  33160  272.88 0865.01
2015 04 09 06 21 27 .78       3    -56      5     57     58 176.4   5.9  33160  272.88 0865.01
2015 04 09 06 21 28 .03       9    -52      7     53     54 170.2   8.0  33164  272.93 0865.01
2015 04 09 06 21 28 .28       4    -52     10     53     55 175.5  11.0  33162  272.91 0865.01
2015 04 09 06 21 28 .53       9    -52      7     53     54 170.2   8.0  33164  272.93 0865.01
2015 04 09 06 21 28 .78       9    -52      7     53     54 170.2   8.0  33164  272.93 0865.01
2015 04 09 06 21 29 .04       3    -56      5     57     58 176.4   5.9  33160  272.88 0865.01
2015 04 09 06 21 29 .28       3    -56      5     57     58 176.4   5.9  33160  272.88 0865.01
2015 04 09 06 21 29 .53       0    -52      3     53     54 180.9   3.8  33158  272.85 0865.01
2015 04 09 06 21 29 .79       0    -52      3     53     54 180.9   3.8  33158  272.85 0865.01
2015 04 09 06 21 30 .04       0    -52      3     53     54 180.9   3.8  33158  272.85 0865.01
2015 04 09 06 21 30 .29       0    -52      3     53     54 180.9   3.8  33158  272.85 0865.01
2015 04 09 06 21 30 .54       0    -52      3     53     54 180.9   3.8  33158  272.85 0865.01
2015 04 09 06 21 30 .79       5    -56      3     57     58 174.7   3.8  33154  272.76 0865.01
2015 04 09 06 21 31 .04       0    -53     10     54     56 179.1  11.1  33154  272.78 0865.01
2015 04 09 06 21 31 .29       4    -53      8     54     55 175.5   9.0  33154  272.76 0865.01
2015 04 09 06 21 31 .54       4    -53      8     54     55 175.5   9.0  33154  272.76 0865.01
2015 04 09 06 21 31 .79       7    -53      5     54     55 172.0   5.9  33154  272.78 0865.01
2015 04 09 06 21 32 .04       5    -48      4     49     50 173.8   4.9  33156  272.81 0865.01
2015 04 09 06 21 32 .29       0    -52      3     53     54 180.9   3.8  33158  272.85 0865.00
2015 04 09 06 21 32 .54      -1    -51      6     52     53 181.8   6.9  33158  272.83 0865.00
2015 04 09 06 21 32 .79       0    -56     10     57     58 180.0  10.1  33156  272.80 0865.00
2015 04 09 06 21 33 .04       0    -52      3     53     54 180.9   3.8  33158  272.85 0865.00
2015 04 09 06 21 33 .29       0    -52      3     53     54 180.9   3.8  33158  272.85 0865.00
2015 04 09 06 21 33 .55       4    -53      8     54     55 175.5   9.0  33154  272.76 0865.00
2015 04 09 06 21 33 .81       0    -53     10     54     56 179.1  11.1  33154  272.78 0865.00
2015 04 09 06 21 34 .06       4    -53      8     54     55 175.5   9.0  33154  272.76 0865.00
2015 04 09 06 21 34 .31       0    -53     10     54     56 179.1  11.1  33154  272.78 0865.00
2015 04 09 06 21 34 .56       3    -56      5     57     58 176.4   5.9  33152  272.73 0865.00
2015 04 09 06 21 34 .81       3    -56      5     57     58 176.4   5.9  33152  272.73 0865.00
2015 04 09 06 21 35 .06       3    -56     15     57     60 176.4  15.2  33156  272.81 0865.01
2015 04 09 06 21 35 .31       4    -60      9     61     62 175.5   9.0  33158  272.85 0865.01
2015 04 09 06 21 35 .56       0    -60      4     61     62 180.0   3.8  33162  272.91 0865.01
2015 04 09 06 21 35 .81       3    -56      5     57     58 176.4   5.9  33160  272.88 0865.01
2015 04 09 06 21 36 .06       0    -60      4     61     62 180.0   3.8  33162  272.91 0865.01
2015 04 09 06 21 36 .31       0    -59      5     60     61 179.1   4.9  33160  272.86 0865.01
2015 04 09 06 21 36 .56       3    -56      5     57     58 176.4   5.9  33160  272.88 0865.01
2015 04 09 06 21 36 .81       0    -60      4     61     62 180.0   3.8  33162  272.91 0865.01
2015 04 09 06 21 37 .06       0    -58      5     59     60 180.0   4.9  33162  272.89 0865.01
2015 04 09 06 21 37 .31       3    -56      5     57     58 176.4   5.9  33160  272.88 0865.01
2015 04 09 06 21 37 .56       0    -60      4     61     62 180.0   3.8  33162  272.91 0865.01
2015 04 09 06 21 37 .82       0    -59      5     60     61 179.1   4.9  33160  272.86 0865.01
2015 04 09 06 21 38 .06       0    -56     10     57     58 180.0  10.1  33160  272.86 0865.01
2015 04 09 06 21 38 .32       3    -56      5     57     58 176.4   5.9  33160  272.88 0865.01
2015 04 09 06 21 38 .57       0    -60      4     61     62 180.0   3.8  33162  272.91 0865.01
2015 04 09 06 21 38 .82       0    -60      4     61     62 180.0   3.8  33162  272.91 0865.01
2015 04 09 06 21 39 .07       0    -60      4     61     62 180.0   3.8  33162  272.91 0865.01
2015 04 09 06 21 39 .32       0    -60      4     61     62 180.0   3.8  33162  272.91 0865.01
2015 04 09 06 21 39 .57       3    -56      5     57     58 176.4   5.9  33160  272.88 0865.01
2015 04 09 06 21 39 .82       3    -56      5     57     58 176.4   5.9  33160  272.88 0865.01
2015 04 09 06 21 40 .07       0    -52      3     53     54 180.9   3.8  33158  272.85 0865.01
2015 04 09 06 21 40 .32       0    -60      4     61     62 180.0   3.8  33162  272.91 0865.01
2015 04 09 06 21 40 .58       0    -56      2     57     58 180.9   2.8  33160  272.88 0865.01
2015 04 09 06 21 40 .83      -3    -53      0     54     55 183.6  -0.3  33162  272.89 0865.01
2015 04 09 06 21 41 .08      -3    -53      0     54     55 183.6  -0.3  33162  272.89 0865.01
2015 04 09 06 21 41 .33       0    -56      2     57     58 180.9   2.8  33160  272.88 0865.00
2015 04 09 06 21 41 .58       0    -56      2     57     58 180.9   2.8  33160  272.88 0865.00
2015 04 09 06 21 41 .83      -3    -53      0     54     55 183.6  -0.3  33162  272.89 0865.00
2015 04 09 06 21 42 .08      -3    -53      0     54     55 183.6  -0.3  33162  272.89 0865.00
2015 04 09 06 21 42 .33      -3    -53      0     54     55 183.6  -0.3  33162  272.89 0865.00
2015 04 09 06 21 42 .58      -3    -53      0     54     55 183.6  -0.3  33162  272.89 0865.00
2015 04 09 06 21 42 .84      -3    -53      0     54     55 183.6  -0.3  33162  272.89 0865.00
2015 04 09 06 21 43 .09       0    -57      1     58     59 180.9   1.8  33164  272.93 0865.00
2015 04 09 06 21 43 .34      -3    -53      0     54     55 183.6  -0.3  33162  272.89 0865.00
2015 04 09 06 21 43 .59      -3    -53      0     54     55 183.6  -0.3  33162  272.89 0865.00
2015 04 09 06 21 43 .84      -3    -53      0     54     55 183.6  -0.3  33162  272.89 0865.00
2015 04 09 06 21 44 .09      -1    -53     -2     54     55 181.8  -2.2  33164  272.93 0865.00
2015 04 09 06 21 44 .34      -3    -53      0     54     55 183.6  -0.3  33162  272.89 0865.00
2015 04 09 06 21 44 .59      -3    -53      0     54     55 183.6  -0.3  33162  272.89 0865.00
2015 04 09 06 21 44 .84      -3    -53      0     54     55 183.6  -0.3  33162  272.89 0865.00
2015 04 09 06 21 45 .09      -3    -53      0     54     55 183.6  -0.3  33162  272.89 0865.00
2015 04 09 06 21 45 .34      -3    -53      0     54     55 183.6  -0.3  33162  272.89 0865.00
2015 04 09 06 21 45 .59      -3    -53      0     54     55 183.6  -0.3  33162  272.89 0865.00
2015 04 09 06 21 45 .84      -3    -53      0     54     55 183.6  -0.3  33162  272.89 0865.00
2015 04 09 06 21 46 .09       0    -47      2     48     49 180.0   2.8  33160  272.88 0865.00
2015 04 09 06 21 46 .34       0    -47      2     48     49 180.0   2.8  33160  272.88 0865.00
2015 04 09 06 21 46 .59       0    -47      2     48     49 180.0   2.8  33160  272.88 0865.00
2015 04 09 06 21 46 .85      -1    -53     -2     54     55 181.8  -2.2  33164  272.93 0865.00
2015 04 09 06 21 47 .10       4    -44      2     45     46 173.8   2.9  33164  272.93 0865.00
2015 04 09 06 21 47 .35       2    -47      0     48     49 177.3  -0.3  33162  272.89 0865.00
2015 04 09 06 21 47 .61       4    -44      2     45     46 173.8   2.9  33164  272.93 0865.00
2015 04 09 06 21 47 .86       0    -43      5     44     45 180.0   6.9  33162  272.89 0865.01
2015 04 09 06 21 48 .11       0    -47      2     48     49 180.0   2.8  33160  272.88 0865.01
2015 04 09 06 21 48 .36       0    -43      5     44     45 180.0   6.9  33162  272.89 0865.01
2015 04 09 06 21 48 .61       0    -47      2     48     49 180.0   2.8  33160  272.88 0865.01
2015 04 09 06 21 48 .86       0    -47      2     48     49 180.0   2.8  33160  272.88 0865.01
2015 04 09 06 21 49 .11       0    -47      2     48     49 180.0   2.8  33160  272.88 0865.01
2015 04 09 06 21 49 .36       0    -43      5     44     45 180.0   6.9  33162  272.89 0865.01
2015 04 09 06 21 49 .61       0    -43      5     44     45 180.0   6.9  33162  272.89 0865.00
2015 04 09 06 21 49 .86       0    -43      5     44     45 180.0   6.9  33162  272.89 0865.00
2015 04 09 06 21 50 .11       0    -43      5     44     45 180.0   6.9  33162  272.89 0865.00
2015 04 09 06 21 50 .36       0    -39      2     40     41 180.0   2.9  33164  272.93 0865.00
2015 04 09 06 21 50 .61       0    -47      2     48     49 180.0   2.8  33160  272.88 0865.00
2015 04 09 06 21 50 .87       0    -47      2     48     49 180.0   2.8  33160  272.88 0865.00
2015 04 09 06 21 51 .11      -6    -53     -3     54     55 187.1  -3.1  33160  272.86 0865.00
2015 04 09 06 21 51 .37       0    -47      2     48     49 180.0   2.8  33160  272.88 0865.01
2015 04 09 06 21 51 .62       2    -47      0     48     49 177.3  -0.3  33158  272.85 0865.01
2015 04 09 06 21 51 .87       0    -47      2     48     49 180.0   2.8  33160  272.88 0865.01
2015 04 09 06 21 52 .12      -3    -47     -1     48     49 184.5  -2.2  33158  272.83 0865.01
2015 04 09 06 21 52 .37      -1    -51      0     52     53 181.8  -0.3  33158  272.85 0865.01
2015 04 09 06 21 52 .62       0    -47      2     48     49 180.0   2.8  33160  272.88 0865.01
2015 04 09 06 21 52 .87       0    -47      2     48     49 180.0   2.8  33160  272.88 0865.01
2015 04 09 06 21 53 .12       0    -47      2     48     49 180.0   2.8  33160  272.88 0865.01
2015 04 09 06 21 53 .37       0    -47      2     48     49 180.0   2.8  33160  272.88 0865.01
2015 04 09 06 21 53 .62      -1    -53     -2     54     55 181.8  -2.2  33164  272.93 0865.01
2015 04 09 06 21 53 .87       0    -47     -2     48     49 180.9  -3.1  33164  272.94 0865.01
2015 04 09 06 21 54 .12       0    -47     -2     48     49 180.9  -3.1  33164  272.94 0865.01
2015 04 09 06 21 54 .37      -3    -44     -4     45     46 184.4  -6.2  33164  272.93 0865.01
2015 04 09 06 21 54 .63       0    -40     -1     41     42 180.9  -2.2  33162  272.89 0865.01
2015 04 09 06 21 54 .88       0    -47     -2     48     49 180.9  -3.1  33164  272.94 0865.01
2015 04 09 06 21 55 .13       0    -47      2     48     49 180.0   2.8  33160  272.88 0865.01
2015 04 09 06 21 55 .39      -2    -44      0     45     46 182.7   0.8  33158  272.85 0865.01
2015 04 09 06 21 55 .63      -2    -44      0     45     46 182.7   0.8  33158  272.85 0865.01
2015 04 09 06 21 55 .89      -2    -44      0     45     46 182.7   0.8  33158  272.85 0865.01
2015 04 09 06 21 56 .14      -2    -44      0     45     46 182.7   0.8  33158  272.85 0865.01
2015 04 09 06 21 56 .39      -2    -44      0     45     46 182.7   0.8  33158  272.85 0865.01
2015 04 09 06 21 56 .64      -2    -44      0     45     46 182.7   0.8  33158  272.85 0865.01
2015 04 09 06 21 56 .89      -2    -44      0     45     46 182.7   0.8  33158  272.85 0865.01
2015 04 09 06 21 57 .14      -2    -44      0     45     46 182.7   0.8  33158  272.85 0865.01
2015 04 09 06 21 57 .39      -2    -44      0     45     46 182.7   0.8  33158  272.85 0865.01
2015 04 09 06 21 57 .64      -2    -44      0     45     46 182.7   0.8  33158  272.85 0865.00
2015 04 09 06 21 57 .89      -5    -40     -1     41     42 187.1  -2.2  33160  272.88 0865.00
2015 04 09 06 21 58 .14      -2    -44      0     45     46 182.7   0.8  33158  272.85 0865.00
2015 04 09 06 21 58 .39      -2    -44      0     45     46 182.7   0.8  33158  272.85 0865.00
2015 04 09 06 21 58 .64      -2    -44      0     45     46 182.7   0.8  33158  272.85 0865.00
2015 04 09 06 21 58 .89      -2    -44      0     45     46 182.7   0.8  33158  272.85 0865.00
2015 04 09 06 21 59 .14       0    -40     -1     41     42 180.9  -2.2  33160  272.86 0865.00
2015 04 09 06 21 59 .40       1    -40     -4     41     42 178.2  -6.2  33160  272.88 0865.00
2015 04 09 06 21 59 .64       0    -40     -1     41     42 180.9  -2.2  33162  272.89 0865.00
2015 04 09 06 21 59 .89       0    -40     -1     41     42 180.9  -2.2  33162  272.89 0865.00
2015 04 09 06 22 00 .15       0    -40     -1     41     42 180.9  -2.2  33162  272.89 0865.00
2015 04 09 06 22 00 .40      -1    -36     -1     37     38 182.6  -2.2  33164  272.93 0865.00
2015 04 09 06 22 00 .65      -2    -36      1     37     38 184.4   2.8  33162  272.91 0865.00
2015 04 09 06 22 00 .90      -2    -36      1     37     38 184.4   2.8  33162  272.91 0865.00
2015 04 09 06 22 01 .15      -2    -43      0     44     45 182.7   0.8  33162  272.89 0865.00
2015 04 09 06 22 01 .41      -2    -44      0     45     46 182.7   0.8  33158  272.85 0865.00
2015 04 09 06 22 01 .66       0    -55      2     56     57 180.9   2.8  33158  272.83 0865.00
2015 04 09 06 22 01 .91       0    -47      2     48     49 180.0   2.8  33160  272.88 0865.00
2015 04 09 06 22 02 .16       0    -47      2     48     49 180.0   2.8  33160  272.88 0865.01
2015 04 09 06 22 02 .41      -1    -51      0     52     53 181.8  -0.3  33158  272.85 0865.01
2015 04 09 06 22 02 .66       1    -55      0     56     57 178.2  -0.3  33156  272.81 0865.01
2015 04 09 06 22 02 .91       1    -55      0     56     57 178.2  -0.3  33156  272.81 0865.01
2015 04 09 06 22 03 .16       0    -55      2     56     57 180.9   2.8  33158  272.83 0865.01
2015 04 09 06 22 03 .41       1    -55      0     56     57 178.2  -0.3  33156  272.81 0865.01
2015 04 09 06 22 03 .66       1    -55      0     56     57 178.2  -0.3  33156  272.81 0865.01
2015 04 09 06 22 03 .92       1    -55      0     56     57 178.2  -0.3  33156  272.81 0865.01
2015 04 09 06 22 04 .16      -1    -51      6     52     53 181.8   6.9  33158  272.83 0865.01
2015 04 09 06 22 04 .42       0    -52      3     53     54 180.9   3.8  33158  272.85 0865.01
2015 04 09 06 22 04 .67      -1    -51      6     52     53 181.8   6.9  33154  272.78 0865.01
2015 04 09 06 22 04 .92      -3    -47      4     48     49 184.5   4.9  33154  272.76 0865.00
2015 04 09 06 22 05 .17      -1    -55      2     56     57 181.8   2.9  33156  272.81 0865.00
2015 04 09 06 22 05 .42      -4    -55      2     56     57 184.4   2.9  33156  272.81 0865.00
2015 04 09 06 22 05 .67       0    -52      3     53     54 180.9   3.8  33158  272.85 0865.00
2015 04 09 06 22 05 .92       0    -52      3     53     54 180.9   3.8  33158  272.85 0865.00
2015 04 09 06 22 06 .17       0    -52      3     53     54 180.9   3.8  33158  272.85 0865.00
2015 04 09 06 22 06 .42       0    -52      3     53     54 180.9   3.8  33158  272.85 0865.00
2015 04 09 06 22 06 .67       0    -47      2     48     49 180.0   2.8  33160  272.88 0865.00
2015 04 09 06 22 06 .92       0    -47      2     48     49 180.0   2.8  33160  272.88 0865.00
2015 04 09 06 22 07 .17       0    -47      2     48     49 180.0   2.8  33160  272.88 0865.00
2015 04 09 06 22 07 .42       0    -52      3     53     54 180.9   3.8  33158  272.85 0865.00
2015 04 09 06 22 07 .67       0    -52      3     53     54 180.9   3.8  33158  272.85 0865.00
2015 04 09 06 22 07 .92       0    -52      3     53     54 180.9   3.8  33158  272.85 0865.00
2015 04 09 06 22 08 .17       0    -52      3     53     54 180.9   3.8  33158  272.85 0865.00
2015 04 09 06 22 08 .43       0    -47      2     48     49 180.0   2.8  33160  272.88 0865.00
2015 04 09 06 22 08 .69       0    -47      2     48     49 180.0   2.8  33152  272.75 0865.00
2015 04 09 06 22 08 .94       0    -52      3     53     54 180.9   3.8  33158  272.85 0865.00
2015 04 09 06 22 09 .19       0    -52      3     53     54 180.9   3.8  33158  272.85 0865.00
2015 04 09 06 22 09 .44       2    -47      6     48     49 177.3   8.0  33158  272.83 0865.00
2015 04 09 06 22 09 .69       0    -52      3     53     54 180.9   3.8  33158  272.85 0865.00
2015 04 09 06 22 09 .94       0    -52      3     53     54 180.9   3.8  33158  272.85 0865.00
2015 04 09 06 22 10 .19       0    -52      3     53     54 180.9   3.8  33158  272.85 0865.00
2015 04 09 06 22 10 .44       2    -47      6     48     49 177.3   8.0  33154  272.78 0865.00
2015 04 09 06 22 10 .69       2    -47      6     48     49 177.3   8.0  33158  272.83 0865.00
2015 04 09 06 22 10 .94       0    -52      3     53     54 180.9   3.8  33158  272.85 0865.00
2015 04 09 06 22 11 .19       0    -47      2     48     49 180.0   2.8  33160  272.88 0865.00
2015 04 09 06 22 11 .44       0    -47      2     48     49 180.0   2.8  33160  272.88 0865.00
2015 04 09 06 22 11 .69      -1    -51      6     52     53 181.8   6.9  33158  272.83 0865.00
2015 04 09 06 22 11 .94       0    -47      2     48     49 180.0   2.8  33160  272.88 0865.00
2015 04 09 06 22 12 .20       0    -52      3     53     54 180.9   3.8  33158  272.85 0865.00
2015 04 09 06 22 12 .44       0    -52      3     53     54 180.9   3.8  33158  272.85 0865.00
2015 04 09 06 22 12 .69       0    -47      2     48     49 180.0   2.8  33160  272.88 0865.00
2015 04 09 06 22 12 .95       0    -52      3     53     54 180.9   3.8  33158  272.85 0865.00
2015 04 09 06 22 13 .20       4    -44      2     45     46 173.8   2.9  33164  272.93 0865.00
2015 04 09 06 22 13 .45       4    -44      2     45     46 173.8   2.9  33164  272.93 0865.00
2015 04 09 06 22 13 .70       4    -44      2     45     46 173.8   2.9  33164  272.93 0865.00
2015 04 09 06 22 13 .95       4    -44      2     45     46 173.8   2.9  33164  272.93 0865.00
2015 04 09 06 22 14 .20       4    -44      2     45     46 173.8   2.9  33164  272.93 0865.00
2015 04 09 06 22 14 .45       4    -44      2     45     46 173.8   2.9  33164  272.93 0865.00
2015 04 09 06 22 14 .70       5    -48     -1     49     50 173.8  -2.2  33160  272.88 0865.00
2015 04 09 06 22 14 .95       3    -45     -1     46     47 175.5  -2.2  33158  272.85 0865.00
2015 04 09 06 22 15 .20       5    -41     -6     42     43 172.0  -9.3  33154  272.76 0865.00
2015 04 09 06 22 15 .46       3    -43     -3     44     45 175.5  -4.1  33150  272.71 0865.00
2015 04 09 06 22 15 .71      -2    -37     -4     38     39 184.4  -7.3  33150  272.70 0865.00
2015 04 09 06 22 15 .96      -5    -40     -1     41     42 188.0  -2.2  33142  272.58 0865.00
2015 04 09 06 22 16 .21      -5    -40     -1     41     42 188.0  -2.2  33142  272.58 0865.00
2015 04 09 06 22 16 .47      -2    -36     -4     37     38 184.5  -7.2  33140  272.53 0865.00
2015 04 09 06 22 16 .71      -5    -40     -1     41     42 188.0  -2.2  33142  272.58 0865.00
2015 04 09 06 22 16 .97      -5    -40     -1     41     42 188.0  -2.2  33142  272.58 0865.00
2015 04 09 06 22 17 .22      -2    -36     -4     37     38 184.5  -7.2  33140  272.53 0865.00
2015 04 09 06 22 17 .47      -5    -40     -1     41     42 188.0  -2.2  33142  272.58 0865.00
2015 04 09 06 22 17 .72      -2    -37      0     38     39 184.5   0.8  33142  272.57 0865.00
2015 04 09 06 22 17 .97       1    -41      0     42     43 177.3  -0.3  33138  272.52 0865.00
2015 04 09 06 22 18 .22       0    -37     -1     38     39 180.9  -2.2  33136  272.48 0865.00
2015 04 09 06 22 18 .47      -4    -41      6     42     43 186.2   9.0  33138  272.52 0865.00
2015 04 09 06 22 18 .72       0    -41      2     42     43 180.9   2.9  33136  272.48 0865.00
2015 04 09 06 22 18 .97      -4    -41      6     42     43 186.2   9.0  33138  272.52 0865.00
2015 04 09 06 22 19 .22       1    -41      0     42     43 177.3  -0.3  33138  272.52 0865.00
2015 04 09 06 22 19 .47      -4    -41      6     42     43 186.2   9.0  33138  272.52 0865.00
2015 04 09 06 22 19 .72       0    -41      3     42     43 180.0   4.9  33140  272.53 0865.00
2015 04 09 06 22 19 .97       0    -41      3     42     43 180.0   4.9  33140  272.53 0865.00
2015 04 09 06 22 20 .22       0    -37      6     38     39 180.9   9.0  33142  272.57 0865.00
2015 04 09 06 22 20 .47       0    -37      6     38     39 180.9   9.0  33142  272.57 0865.00
2015 04 09 06 22 20 .72       0    -37      6     38     39 180.9   9.0  33142  272.57 0865.00
2015 04 09 06 22 20 .97       0    -37      6     38     39 180.9   9.0  33142  272.57 0865.00
2015 04 09 06 22 21 .22      -4    -33      6     34     35 188.0  11.1  33138  272.52 0865.00
2015 04 09 06 22 21 .47       0    -37      6     38     39 180.9   9.0  33142  272.57 0865.00
2015 04 09 06 22 21 .72       0    -37     -1     38     39 180.9  -2.2  33136  272.48 0865.00
2015 04 09 06 22 21 .98       0    -37     -1     38     39 180.9  -2.2  33136  272.48 0865.00
2015 04 09 06 22 22 .23       0    -37     -1     38     39 180.9  -2.2  33136  272.48 0865.00
2015 04 09 06 22 22 .49       0    -44      5     45     46 180.9   6.9  33142  272.57 0865.00
2015 04 09 06 22 22 .74      -2    -43      0     44     45 182.7   0.8  33150  272.71 0865.00
2015 04 09 06 22 22 .99       0    -44      4     45     46 180.9   5.9  33154  272.76 0865.00
2015 04 09 06 22 23 .24      -3    -47      4     48     49 184.5   4.9  33154  272.76 0865.00
2015 04 09 06 22 23 .49      -2    -44      7     45     46 182.7   9.0  33154  272.78 0865.00
2015 04 09 06 22 23 .74       0    -47      2     48     49 180.0   2.8  33152  272.75 0865.00
2015 04 09 06 22 23 .99       0    -47      2     48     49 180.0   2.8  33152  272.75 0865.00
2015 04 09 06 22 24 .24       0    -47      2     48     49 180.0   2.8  33152  272.75 0865.00
2015 04 09 06 22 24 .49       0    -47      2     48     49 180.0   2.8  33152  272.75 0865.00
2015 04 09 06 22 24 .74       1    -55      0     56     57 178.2  -0.3  33156  272.81 0865.00
2015 04 09 06 22 24 .99       0    -52     -2     53     54 180.9  -2.2  33154  272.78 0865.00
2015 04 09 06 22 25 .24       1    -55      0     56     57 178.2  -0.3  33156  272.81 0865.00
2015 04 09 06 22 25 .49       1    -55      0     56     57 178.2  -0.3  33156  272.81 0865.00
2015 04 09 06 22 25 .74       1    -55      0     56     57 178.2  -0.3  33156  272.81 0865.00
2015 04 09 06 22 25 .99       4    -52      2     53     54 175.5   2.8  33158  272.83 0865.00
2015 04 09 06 22 26 .25       4    -52      2     53     54 175.5   2.8  33154  272.78 0865.00
2015 04 09 06 22 26 .50       5    -48     -1     49     50 173.8  -2.2  33152  272.75 0865.00
2015 04 09 06 22 26 .75       1    -57      0     58     59 178.2  -0.3  33148  272.66 0865.00
2015 04 09 06 22 27 .00      -1    -53     -2     54     55 181.8  -2.2  33150  272.70 0865.00
2015 04 09 06 22 27 .25       1    -57      0     58     59 178.2  -0.3  33148  272.66 0865.00
2015 04 09 06 22 27 .50       1    -57      0     58     59 178.2  -0.3  33148  272.66 0865.00
2015 04 09 06 22 27 .75       1    -57      0     58     59 178.2  -0.3  33148  272.66 0865.00
2015 04 09 06 22 28 .00      -1    -53     -2     54     55 181.8  -2.2  33146  272.63 0865.00
2015 04 09 06 22 28 .25      -1    -53     -2     54     55 181.8  -2.2  33146  272.63 0865.00
2015 04 09 06 22 28 .50       0    -56     -2     57     58 180.9  -2.2  33150  272.71 0865.00
2015 04 09 06 22 28 .75       2    -56     -6     57     58 177.3  -6.2  33152  272.73 0865.00
2015 04 09 06 22 29 .00      -1    -53     -2     54     55 181.8  -2.2  33146  272.63 0865.00
2015 04 09 06 22 29 .26       4    -57     -2     58     59 175.5  -2.2  33148  272.68 0865.00
2015 04 09 06 22 29 .51      -1    -53     -2     54     55 181.8  -2.2  33146  272.63 0865.01
2015 04 09 06 22 29 .76       4    -52     -2     53     54 175.5  -2.2  33154  272.76 0865.01
2015 04 09 06 22 30 .02       6    -52     -4     53     54 172.9  -5.2  33154  272.78 0865.01
2015 04 09 06 22 30 .27       8    -52     -4     53     54 171.1  -5.2  33154  272.78 0865.01
2015 04 09 06 22 30 .52       9    -56     -2     57     58 170.2  -2.2  33156  272.81 0865.01
2015 04 09 06 22 30 .77       8    -52     -4     53     54 171.1  -5.2  33158  272.83 0865.01
2015 04 09 06 22 31 .02       3    -45     -1     46     47 175.5  -2.2  33158  272.85 0865.01
2015 04 09 06 22 31 .27       5    -48     -6     49     50 173.8  -7.3  33156  272.81 0865.01
2015 04 09 06 22 31 .52       5    -48     -6     49     50 173.8  -7.3  33156  272.81 0865.01
2015 04 09 06 22 31 .77       5    -48     -1     49     50 173.8  -2.2  33160  272.88 0865.01
2015 04 09 06 22 32 .02       5    -48     -1     49     50 173.8  -2.2  33160  272.88 0865.01
2015 04 09 06 22 32 .27       5    -48     -1     49     50 173.8  -2.2  33160  272.88 0865.01
2015 04 09 06 22 32 .52       3    -45     -1     46     47 175.5  -2.2  33158  272.85 0865.01
2015 04 09 06 22 32 .77       0    -44     -1     45     46 180.9  -2.2  33158  272.83 0865.01
2015 04 09 06 22 33 .02       7    -45     -3     46     47 171.1  -4.1  33158  272.83 0865.01
2015 04 09 06 22 33 .27       2    -47     -3     48     49 177.3  -4.1  33158  272.83 0865.01
2015 04 09 06 22 33 .52       0    -43     -6     44     45 180.9  -8.2  33154  272.76 0865.01
2015 04 09 06 22 33 .77       2    -47     -3     48     49 177.3  -4.1  33154  272.78 0865.01
2015 04 09 06 22 34 .02       0    -43     -6     44     45 180.9  -8.2  33154  272.76 0865.00
2015 04 09 06 22 34 .27       0    -43     -6     44     45 180.9  -8.2  33154  272.76 0865.00
2015 04 09 06 22 34 .52       0    -43     -6     44     45 180.9  -8.2  33154  272.76 0865.00
2015 04 09 06 22 34 .78       0    -43     -6     44     45 180.9  -8.2  33154  272.76 0865.00
2015 04 09 06 22 35 .03      -4    -41     -6     42     43 186.2  -9.3  33148  272.66 0865.00
2015 04 09 06 22 35 .28      -3    -44     -4     45     46 184.4  -6.2  33146  272.65 0865.00
2015 04 09 06 22 35 .53       0    -44     -1     45     46 180.9  -2.2  33140  272.53 0865.00
2015 04 09 06 22 35 .78       0    -44     -8     45     46 180.9 -10.3  33144  272.61 0865.01
2015 04 09 06 22 36 .03       0    -40     -1     41     42 180.9  -2.2  33142  272.57 0865.01
2015 04 09 06 22 36 .29      -2    -36     -4     37     38 184.5  -7.2  33140  272.53 0865.01
2015 04 09 06 22 36 .54       0    -40     -1     41     42 180.9  -2.2  33142  272.57 0865.01
2015 04 09 06 22 36 .79     -10    -40     -4     42     43 194.3  -6.2  33140  272.53 0865.01
2015 04 09 06 22 37 .04     -10    -40     -4     42     43 194.3  -6.2  33140  272.53 0865.01
2015 04 09 06 22 37 .29      -7    -45     -2     46     47 188.9  -3.1  33144  272.61 0865.01
2015 04 09 06 22 37 .54      -7    -45     -2     46     47 188.9  -3.1  33144  272.61 0865.01
2015 04 09 06 22 37 .79      -3    -44     -4     45     46 184.4  -6.2  33146  272.65 0865.00
2015 04 09 06 22 38 .04      -5    -48     -1     49     50 186.2  -2.2  33146  272.63 0865.00
2015 04 09 06 22 38 .29      -3    -44     -4     45     46 184.4  -6.2  33146  272.65 0865.00
2015 04 09 06 22 38 .54      -4    -41     -6     42     43 186.2  -9.3  33148  272.66 0865.00
2015 04 09 06 22 38 .79       0    -47     -2     48     49 180.9  -3.1  33148  272.66 0865.00
2015 04 09 06 22 39 .04       0    -47     -2     48     49 180.9  -3.1  33148  272.66 0865.00
2015 04 09 06 22 39 .30      -3    -44     -4     45     46 184.4  -6.2  33146  272.65 0865.00
2015 04 09 06 22 39 .55      -3    -44     -4     45     46 184.4  -6.2  33146  272.65 0865.01
2015 04 09 06 22 39 .80      -7    -45     -2     46     47 188.9  -3.1  33144  272.61 0865.01
2015 04 09 06 22 40 .05      -5    -40     -1     41     42 188.0  -2.2  33142  272.58 0865.01
2015 04 09 06 22 40 .30      -5    -40     -1     41     42 188.0  -2.2  33142  272.58 0865.01
2015 04 09 06 22 40 .55      -5    -40     -1     41     42 188.0  -2.2  33142  272.58 0865.01
2015 04 09 06 22 40 .80      -5    -40     -1     41     42 188.0  -2.2  33142  272.58 0865.01
2015 04 09 06 22 41 .05      -7    -36     -2     37     38 191.6  -3.1  33142  272.57 0865.01
2015 04 09 06 22 41 .30      -5    -33     -1     34     35 189.8  -2.2  33140  272.53 0865.01
2015 04 09 06 22 41 .55     -11    -33      1     35     36 198.7   2.8  33138  272.52 0865.01
2015 04 09 06 22 41 .80      -8    -34     -4     35     36 193.4  -7.2  33134  272.45 0865.01
2015 04 09 06 22 42 .05      -8    -34     -4     35     36 193.4  -7.2  33134  272.45 0865.01
2015 04 09 06 22 42 .30      -8    -34     -4     35     36 193.4  -7.2  33134  272.45 0865.02
2015 04 09 06 22 42 .55      -8    -34     -4     35     36 193.4  -7.2  33134  272.45 0865.02
2015 04 09 06 22 42 .80     -12    -36     -6     39     40 198.7  -9.3  33136  272.47 0865.02
2015 04 09 06 22 43 .05     -12    -36     -6     39     40 198.7  -9.3  33136  272.47 0865.02
2015 04 09 06 22 43 .32     -13    -34     -2     37     38 201.8  -3.1  33136  272.47 0865.02
2015 04 09 06 22 43 .57      -8    -34     -4     35     36 193.4  -7.2  33134  272.45 0865.02
2015 04 09 06 22 43 .82     -13    -34     -2     37     38 201.8  -3.1  33132  272.42 0865.02
2015 04 09 06 22 44 .07      -8    -34     -4     35     36 193.4  -7.2  33134  272.45 0865.02
2015 04 09 06 22 44 .32     -13    -34     -2     37     38 201.8  -3.1  33136  272.47 0865.02
2015 04 09 06 22 44 .57     -13    -34     -2     37     38 201.8  -3.1  33132  272.42 0865.02
2015 04 09 06 22 44 .82     -13    -34     -2     37     38 201.8  -3.1  33136  272.47 0865.02
2015 04 09 06 22 45 .07     -13    -34     -2     37     38 201.8  -3.1  33136  272.47 0865.01
2015 04 09 06 22 45 .32     -13    -34     -2     37     38 201.8  -3.1  33136  272.47 0865.01
2015 04 09 06 22 45 .57     -13    -34     -2     37     38 201.8  -3.1  33136  272.47 0865.01
2015 04 09 06 22 45 .82     -13    -34     -2     37     38 201.8  -3.1  33136  272.47 0865.01
2015 04 09 06 22 46 .07     -13    -34     -2     37     38 201.8  -3.1  33132  272.42 0865.01
2015 04 09 06 22 46 .32     -20    -37     -1     43     44 208.1  -2.2  33136  272.47 0865.01
2015 04 09 06 22 46 .57     -20    -37     -1     43     44 208.1  -2.2  33136  272.47 0865.01
2015 04 09 06 22 46 .82     -20    -37     -1     43     44 208.1  -2.2  33136  272.47 0865.01
2015 04 09 06 22 47 .07     -20    -37     -1     43     44 208.1  -2.2  33136  272.47 0865.01
2015 04 09 06 22 47 .32     -17    -34     -1     39     40 207.2  -2.2  33134  272.45 0865.01
2015 04 09 06 22 47 .57     -17    -34     -1     39     40 207.2  -2.2  33134  272.45 0865.01
2015 04 09 06 22 47 .83     -17    -34     -1     39     40 207.2  -2.2  33134  272.45 0865.01
2015 04 09 06 22 48 .08     -22    -39      0     46     47 209.9  -0.3  33138  272.52 0865.01
2015 04 09 06 22 48 .33     -22    -39      0     46     47 209.9  -0.3  33138  272.52 0865.01
2015 04 09 06 22 48 .58     -16    -37      0     41     42 203.6   0.8  33142  272.57 0865.01
2015 04 09 06 22 48 .83     -16    -37      0     41     42 203.6   0.8  33142  272.57 0865.01
2015 04 09 06 22 49 .08     -16    -37      0     41     42 203.6   0.8  33142  272.57 0865.01
2015 04 09 06 22 49 .33     -16    -35     -1     39     40 205.5  -2.2  33142  272.58 0865.01
2015 04 09 06 22 49 .58     -17    -42     -1     46     47 201.8  -2.2  33146  272.63 0865.01
2015 04 09 06 22 49 .83     -19    -44     -1     49     50 203.6  -2.2  33142  272.57 0865.01
2015 04 09 06 22 50 .09     -15    -45      0     48     49 198.3  -0.3  33144  272.61 0865.01
2015 04 09 06 22 50 .34     -16    -48     -2     51     52 198.3  -2.2  33152  272.73 0865.01
2015 04 09 06 22 50 .59     -16    -48     -2     51     52 198.3  -2.2  33152  272.73 0865.01
2015 04 09 06 22 50 .84     -18    -45     -1     49     50 201.8  -2.2  33150  272.70 0865.01
2015 04 09 06 22 51 .09     -17    -42     -1     46     47 201.8  -2.2  33148  272.68 0865.01
2015 04 09 06 22 51 .34     -17    -42     -1     46     47 201.8  -2.2  33148  272.68 0865.01
2015 04 09 06 22 51 .59     -17    -42     -1     46     47 201.8  -2.2  33148  272.68 0865.01
2015 04 09 06 22 51 .85     -22    -41     -5     47     48 208.1  -6.2  33152  272.73 0865.01
2015 04 09 06 22 52 .09     -20    -37     -1     43     44 208.1  -2.2  33150  272.71 0865.01
2015 04 09 06 22 52 .35     -26    -34     -3     43     44 217.8  -4.1  33148  272.66 0865.01
2015 04 09 06 22 52 .60     -20    -42      0     47     48 206.3   0.8  33148  272.66 0865.01
2015 04 09 06 22 52 .85     -24    -37     -1     45     46 212.5  -2.2  33148  272.68 0865.01
2015 04 09 06 22 53 .10     -17    -42     -1     46     47 201.8  -2.2  33148  272.68 0865.01
2015 04 09 06 22 53 .35     -20    -42      0     47     48 206.3   0.8  33148  272.66 0865.01
2015 04 09 06 22 53 .60     -20    -37     -1     43     44 208.1  -2.2  33144  272.61 0865.01
2015 04 09 06 22 53 .85     -20    -42      0     47     48 206.3   0.8  33148  272.66 0865.01
2015 04 09 06 22 54 .10     -14    -42     -2     45     46 198.5  -3.1  33148  272.66 0865.01
2015 04 09 06 22 54 .35     -17    -41     -5     45     46 202.7  -7.3  33150  272.71 0865.01
2015 04 09 06 22 54 .60     -15    -45     -5     48     49 198.3  -6.2  33148  272.68 0865.01
2015 04 09 06 22 54 .85     -16    -38     -4     42     43 202.7  -6.2  33148  272.68 0865.01
2015 04 09 06 22 55 .10     -16    -38     -4     42     43 202.7  -6.2  33146  272.63 0865.01
2015 04 09 06 22 55 .35     -17    -41     -5     45     46 202.7  -7.3  33142  272.57 0865.01
2015 04 09 06 22 55 .61     -15    -45     -5     48     49 198.3  -6.2  33146  272.63 0865.01
2015 04 09 06 22 55 .86     -15    -45     -5     48     49 198.3  -6.2  33146  272.63 0865.01
2015 04 09 06 22 56 .11     -18    -45     -1     49     50 201.8  -2.2  33144  272.61 0865.01
2015 04 09 06 22 56 .36     -24    -37     -1     45     46 212.5  -2.2  33146  272.63 0865.01
2015 04 09 06 22 56 .61     -22    -34     -6     41     42 213.4  -8.2  33146  272.63 0865.01
2015 04 09 06 22 56 .86     -24    -37     -1     45     46 213.4  -2.2  33140  272.53 0865.01
2015 04 09 06 22 57 .12     -25    -30      4     40     41 219.6   6.9  33138  272.52 0865.01
2015 04 09 06 22 57 .37     -25    -30      4     40     41 219.6   6.9  33136  272.47 0865.01
2015 04 09 06 22 57 .62     -28    -37      7     47     48 217.0   9.0  33136  272.48 0865.01
2015 04 09 06 22 57 .87     -28    -37      7     47     48 217.0   9.0  33140  272.53 0865.01
2015 04 09 06 22 58 .13     -22    -34      7     41     42 213.4  10.1  33140  272.53 0865.01
2015 04 09 06 22 58 .37     -24    -37      5     45     46 212.5   6.9  33132  272.42 0865.01
2015 04 09 06 22 58 .62     -26    -34      2     43     44 217.8   2.9  33134  272.45 0865.00
2015 04 09 06 22 58 .87     -22    -34      0     41     42 213.4   0.8  33132  272.42 0865.00
2015 04 09 06 22 59 .12     -13    -26     -1     30     31 207.2  -3.1  33138  272.52 0865.00
2015 04 09 06 22 59 .37     -21    -26      1     34     35 219.7   2.8  33138  272.52 0865.00
2015 04 09 06 22 59 .62     -15    -34      1     38     39 203.6   2.9  33136  272.48 0865.00
2015 04 09 06 22 59 .87     -16    -37      0     41     42 203.6   0.8  33136  272.47 0865.00
2015 04 09 06 23 00 .13     -16    -37      0     41     42 203.6   0.8  33138  272.52 0865.00
2015 04 09 06 23 00 .37     -12    -36     -1     39     40 198.7  -2.2  33140  272.53 0865.00
2015 04 09 06 23 00 .63     -15    -30      1     34     35 207.2   2.8  33142  272.57 0865.00
2015 04 09 06 23 00 .87     -17    -26     13     32     34 212.5  21.0  33146  272.63 0865.00
2015 04 09 06 23 01 .13     -12    -21      6     25     26 210.7  15.3  33136  272.47 0865.00
2015 04 09 06 23 01 .38     -17    -26     -1     32     33 212.6  -2.2  33134  272.45 0865.00
2015 04 09 06 23 01 .63     -25    -30     -1     40     41 219.6  -2.2  33140  272.53 0865.00
2015 04 09 06 23 01 .88     -30    -26      4     40     41 228.7   6.9  33150  272.71 0865.00
2015 04 09 06 23 02 .15     -22    -34      0     41     42 213.4   0.8  33140  272.55 0865.00
2015 04 09 06 23 02 .38     -14    -41      2     44     45 198.7   2.9  33142  272.58 0865.00
2015 04 09 06 23 02 .63     -13    -34      1     37     38 201.8   2.9  33140  272.53 0865.00
2015 04 09 06 23 02 .88     -14    -30      6     34     35 205.4  11.1  33146  272.63 0865.00
2015 04 09 06 23 03 .13     -17    -25     10     31     33 214.3  18.9  33146  272.63 0865.00
2015 04 09 06 23 03 .38     -15    -30      1     34     35 207.2   2.8  33136  272.47 0865.00
2015 04 09 06 23 03 .63     -19    -30      1     36     37 212.5   2.9  33140  272.53 0865.00
2015 04 09 06 23 03 .88     -26    -34     -1     43     44 217.8  -2.2  33138  272.52 0865.00
2015 04 09 06 23 04 .14     -24    -37     -1     45     46 213.4  -2.2  33134  272.45 0865.00
2015 04 09 06 23 04 .39     -22    -34      0     41     42 213.4   0.8  33132  272.42 0865.00
2015 04 09 06 23 04 .64     -24    -37     -1     45     46 212.5  -2.2  33132  272.40 0865.00
2015 04 09 06 23 04 .89     -22    -34      0     41     42 213.4   0.8  33132  272.42 0865.00
2015 04 09 06 23 05 .14     -22    -34      0     41     42 213.4   0.8  33132  272.42 0865.00
2015 04 09 06 23 05 .39     -24    -37     -1     45     46 212.5  -2.2  33132  272.40 0865.00
2015 04 09 06 23 05 .65     -24    -37     -1     45     46 212.5  -2.2  33132  272.40 0865.00
2015 04 09 06 23 05 .90     -24    -37     -1     45     46 212.5  -2.2  33132  272.40 0865.00
2015 04 09 06 23 06 .15     -31    -34     -1     47     48 222.3  -2.2  33128  272.35 0865.00
2015 04 09 06 23 06 .40     -26    -35      2     44     45 217.0   3.8  33124  272.29 0865.00
2015 04 09 06 23 06 .65     -26    -35      2     44     45 217.0   3.8  33124  272.29 0865.00
2015 04 09 06 23 06 .90     -29    -30      0     43     44 224.1   0.8  33126  272.32 0865.00
2015 04 09 06 23 07 .15     -26    -35      2     44     45 217.0   3.8  33124  272.29 0865.00
2015 04 09 06 23 07 .40     -25    -30      7     40     41 219.6  10.1  33126  272.32 0865.00
2015 04 09 06 23 07 .65     -25    -25      3     36     37 225.0   4.9  33128  272.35 0865.00
2015 04 09 06 23 07 .91     -25    -25     -3     36     37 225.0  -5.2  33132  272.42 0865.00
2015 04 09 06 23 08 .15     -29    -30      0     42     43 224.1  -0.3  33156  272.81 0865.00
2015 04 09 06 23 08 .41     -25    -25      1     36     37 225.0   2.9  33158  272.83 0865.00
2015 04 09 06 23 08 .66     -21    -26      1     34     35 219.7   2.8  33132  272.42 0865.00
2015 04 09 06 23 08 .91     -26    -25      1     37     38 226.7   2.9  33158  272.83 0865.00
2015 04 09 06 23 09 .16     -26    -24      3     36     37 226.7   4.9  33166  272.98 0865.00
2015 04 09 06 23 09 .41     -19    -21     10     29     31 223.2  18.9  33176  273.14 0865.00
2015 04 09 06 23 09 .66     -15    -31     15     35     38 207.2  23.0  33176  273.14 0865.00
2015 04 09 06 23 09 .91     -16    -26     -1     31     32 212.6  -2.2  33134  272.43 0865.00
2015 04 09 06 23 10 .16     -16    -35     -1     39     40 205.5  -2.2  33128  272.34 0865.00
2015 04 09 06 23 10 .41     -24    -36      0     44     45 214.3  -0.3  33146  272.63 0865.00
2015 04 09 06 23 10 .66     -22    -34      0     41     42 213.4   0.8  33132  272.42 0865.00
2015 04 09 06 23 10 .92     -26    -34      2     43     44 217.8   2.9  33142  272.58 0865.00
2015 04 09 06 23 11 .17     -16    -35      5     39     40 205.5   8.0  33142  272.57 0865.00
2015 04 09 06 23 11 .42     -22    -34      0     41     42 213.4   0.8  33130  272.37 0865.00
2015 04 09 06 23 11 .67     -28    -40      0     49     50 215.2   0.8  33130  272.37 0865.00
2015 04 09 06 23 11 .92     -21    -25      9     33     35 219.7  15.3  33132  272.40 0865.00
2015 04 09 06 23 12 .17     -19    -30      3     36     37 212.5   4.9  33124  272.29 0865.00
2015 04 09 06 23 12 .42     -26    -31     -1     41     42 220.5  -2.2  33120  272.22 0865.00
2015 04 09 06 23 12 .67     -28    -31      0     42     43 222.3  -0.3  33120  272.22 0865.00
2015 04 09 06 23 12 .92     -30    -34     -1     46     47 222.3  -2.2  33118  272.19 0865.00
2015 04 09 06 23 13 .17     -34    -34      1     49     50 225.0   1.8  33120  272.22 0865.00
2015 04 09 06 23 13 .43     -24    -37      4     45     46 213.4   5.9  33130  272.37 0865.00
2015 04 09 06 23 13 .68     -22    -34      7     41     42 213.4  10.1  33124  272.29 0865.00
2015 04 09 06 23 13 .92     -22    -25      6     34     35 221.4  11.1  33132  272.40 0865.00
2015 04 09 06 23 14 .18     -22    -25      6     34     35 221.4  11.1  33122  272.24 0865.00
2015 04 09 06 23 14 .43     -21    -26      1     34     35 219.7   2.8  33120  272.22 0865.00
2015 04 09 06 23 14 .68     -21    -26      1     34     35 219.7   2.8  33120  272.22 0865.00
2015 04 09 06 23 14 .93     -21    -26      1     34     35 219.7   2.8  33120  272.22 0865.00
2015 04 09 06 23 15 .18     -27    -23      1     36     37 228.7   2.8  33118  272.17 0865.00
2015 04 09 06 23 15 .43     -25    -25     -3     36     37 225.0  -5.2  33124  272.27 0865.00
2015 04 09 06 23 15 .68     -25    -30     -1     40     41 219.6  -2.2  33116  272.15 0865.00
2015 04 09 06 23 15 .93     -19    -30     -1     36     37 212.5  -2.2  33118  272.17 0865.00
2015 04 09 06 23 16 .18     -26    -25     -1     37     38 226.7  -2.2  33114  272.12 0865.00
2015 04 09 06 23 16 .43     -30    -27     -1     41     42 227.8  -2.2  33116  272.15 0865.00
2015 04 09 06 23 16 .68     -26    -34     -1     43     44 217.8  -2.2  33120  272.22 0865.00
2015 04 09 06 23 16 .93     -26    -25     -1     37     38 226.7  -2.2  33114  272.12 0865.00
2015 04 09 06 23 17 .19     -26    -33     -1     43     44 218.7  -2.2  33126  272.32 0865.00
2015 04 09 06 23 17 .44     -26    -34     -1     43     44 217.8  -2.2  33120  272.22 0865.00
2015 04 09 06 23 17 .69     -16    -35     -1     39     40 205.5  -2.2  33132  272.40 0865.00
2015 04 09 06 23 17 .94     -22    -34      0     41     42 213.4   0.8  33126  272.32 0865.00
2015 04 09 06 23 18 .20     -15    -30      1     34     35 207.2   2.8  33118  272.17 0865.00
2015 04 09 06 23 18 .45     -21    -26      1     34     35 219.7   2.8  33126  272.32 0865.00
2015 04 09 06 23 18 .70     -26    -34      2     43     44 217.8   2.9  33142  272.58 0865.00
2015 04 09 06 23 18 .95     -25    -30     -1     40     41 219.6  -2.2  33122  272.24 0865.00
2015 04 09 06 23 19 .20     -25    -30      4     40     41 219.6   6.9  33118  272.17 0865.00
2015 04 09 06 23 19 .45     -26    -35      2     44     45 217.0   3.8  33124  272.29 0865.00
2015 04 09 06 23 19 .70     -25    -30      7     40     41 219.6  10.1  33126  272.32 0865.00
2015 04 09 06 23 19 .95     -25    -30      7     40     41 219.6  10.1  33126  272.32 0865.00
2015 04 09 06 23 20 .20     -29    -30      0     43     44 224.1   0.8  33126  272.32 0865.00
2015 04 09 06 23 20 .45     -22    -35      1     42     43 212.5   1.8  33124  272.27 0865.00
2015 04 09 06 23 20 .70     -26    -35      2     44     45 217.0   3.8  33124  272.29 0865.00
2015 04 09 06 23 20 .95     -25    -30     -1     40     41 219.6  -2.2  33124  272.29 0865.00
2015 04 09 06 23 21 .20     -25    -25     -3     36     37 225.0  -5.2  33124  272.27 0865.00
2015 04 09 06 23 21 .45     -31    -26     -1     41     42 229.6  -2.2  33124  272.29 0865.00
2015 04 09 06 23 21 .71     -36    -27      0     45     46 233.1   0.8  33150  272.71 0865.00
2015 04 09 06 23 21 .95     -36    -27      0     45     46 233.1   0.8  33144  272.61 0865.00
2015 04 09 06 23 22 .21     -26    -24     11     36     38 226.7  17.3  33138  272.50 0865.00
2015 04 09 06 23 22 .46     -26    -25     -1     37     38 226.7  -2.2  33114  272.12 0865.00
2015 04 09 06 23 22 .71     -26    -34     -1     43     44 217.8  -2.2  33120  272.22 0865.00
2015 04 09 06 23 22 .95     -33    -38     -2     51     52 220.5  -2.2  33124  272.27 0865.00
2015 04 09 06 23 23 .21     -29    -39      1     49     50 217.0   1.8  33126  272.32 0865.00
2015 04 09 06 23 23 .46     -28    -38      0     48     49 217.0  -0.3  33132  272.42 0865.00
2015 04 09 06 23 23 .71     -33    -38      2     51     52 220.5   2.9  33130  272.38 0865.00
2015 04 09 06 23 23 .96     -30    -41     -2     51     52 216.1  -2.2  33134  272.43 0865.00
2015 04 09 06 23 24 .21     -34    -33      0     48     49 225.9  -0.3  33138  272.52 0865.00
2015 04 09 06 23 24 .46     -30    -34     -1     46     47 222.3  -2.2  33136  272.48 0865.00
2015 04 09 06 23 24 .71     -34    -41      0     54     55 219.7  -0.3  33142  272.57 0865.00
2015 04 09 06 23 24 .97     -31    -38      2     50     51 219.7   2.8  33142  272.58 0865.01
2015 04 09 06 23 25 .22     -28    -38      0     48     49 217.0  -0.3  33144  272.60 0865.01
2015 04 09 06 23 25 .47     -28    -38      0     48     49 217.0  -0.3  33144  272.60 0865.01
2015 04 09 06 23 25 .72     -28    -31      0     42     43 222.3  -0.3  33138  272.52 0865.01
2015 04 09 06 23 25 .97     -32    -34      4     47     48 223.2   5.9  33132  272.42 0865.01
2015 04 09 06 23 26 .23     -26    -34      2     43     44 217.8   2.9  33134  272.45 0865.01
2015 04 09 06 23 26 .47     -30    -34     -1     46     47 222.3  -2.2  33136  272.48 0865.01
2015 04 09 06 23 26 .73     -38    -37     -2     54     55 225.9  -2.2  33134  272.43 0865.00
2015 04 09 06 23 26 .98     -38    -37     -2     54     55 225.9  -2.2  33130  272.38 0865.00
2015 04 09 06 23 27 .23     -38    -37     -2     54     55 225.9  -2.2  33130  272.38 0865.00
2015 04 09 06 23 27 .48     -35    -40      0     54     55 221.4  -0.3  33132  272.42 0865.00
2015 04 09 06 23 27 .73     -40    -38      0     56     57 226.9  -0.3  33132  272.42 0865.00
2015 04 09 06 23 27 .98     -40    -40      2     57     58 225.0   2.8  33134  272.43 0865.00
2015 04 09 06 23 28 .23     -40    -40      2     57     58 225.0   2.8  33134  272.43 0865.00
2015 04 09 06 23 28 .48     -43    -34      2     56     57 231.4   2.9  33148  272.66 0865.01
2015 04 09 06 23 28 .73     -36    -36      5     52     53 225.0   5.9  33136  272.47 0865.01
2015 04 09 06 23 28 .98     -34    -34      6     49     50 225.0   8.0  33132  272.40 0865.01
2015 04 09 06 23 29 .23     -32    -34      4     47     48 223.2   5.9  33132  272.42 0865.01
2015 04 09 06 23 29 .48     -32    -34      4     47     48 223.2   5.9  33132  272.42 0865.01
2015 04 09 06 23 29 .73     -32    -34      4     47     48 223.2   5.9  33132  272.42 0865.01
2015 04 09 06 23 29 .98     -33    -38      2     51     52 220.5   2.9  33130  272.38 0865.01
2015 04 09 06 23 30 .23     -31    -42      4     53     54 217.0   4.9  33130  272.37 0865.01
2015 04 09 06 23 30 .48     -31    -42      4     53     54 217.0   4.9  33130  272.37 0865.01
2015 04 09 06 23 30 .74     -32    -39      2     51     52 219.6   2.9  33128  272.34 0865.01
2015 04 09 06 23 30 .98     -30    -41     -2     51     52 216.1  -2.2  33134  272.43 0865.01
2015 04 09 06 23 31 .24     -35    -40      0     54     55 221.4  -0.3  33132  272.42 0865.01
2015 04 09 06 23 31 .48     -35    -40      0     54     55 221.4  -0.3  33132  272.42 0865.01
2015 04 09 06 23 31 .74     -32    -45      2     56     57 215.2   2.9  33130  272.38 0865.01
2015 04 09 06 23 32 .00     -35    -40      0     54     55 221.4  -0.3  33132  272.42 0865.01
2015 04 09 06 23 32 .25     -35    -40      0     54     55 221.4  -0.3  33132  272.42 0865.01
2015 04 09 06 23 32 .50     -34    -40      6     53     54 220.5   6.9  33136  272.48 0865.01
2015 04 09 06 23 32 .75     -34    -34      6     49     50 225.0   8.0  33134  272.43 0865.01
2015 04 09 06 23 33 .00     -31    -40      4     51     52 217.8   4.9  33138  272.52 0865.01
2015 04 09 06 23 33 .25     -31    -40      4     51     52 217.8   4.9  33138  272.52 0865.01
2015 04 09 06 23 33 .50     -31    -40      4     51     52 217.8   4.9  33138  272.52 0865.01
2015 04 09 06 23 33 .75     -31    -40      4     51     52 217.8   4.9  33138  272.52 0865.01
2015 04 09 06 23 34 .00     -28    -37      0     47     48 217.0   0.8  33136  272.47 0865.01
2015 04 09 06 23 34 .25     -31    -40      4     51     52 217.8   4.9  33138  272.52 0865.01
2015 04 09 06 23 34 .50     -32    -36      2     49     50 222.3   2.9  33140  272.53 0865.01
2015 04 09 06 23 34 .75     -32    -44      2     55     56 216.1   2.8  33140  272.53 0865.01
2015 04 09 06 23 35 .00     -32    -44      2     55     56 216.1   2.8  33140  272.53 0865.01
2015 04 09 06 23 35 .25     -32    -44      2     55     56 216.1   2.8  33140  272.53 0865.01
2015 04 09 06 23 35 .50     -32    -44      2     55     56 216.1   2.8  33140  272.53 0865.01
2015 04 09 06 23 35 .76     -32    -44      2     55     56 216.1   2.8  33140  272.53 0865.01
2015 04 09 06 23 36 .01     -32    -44      2     55     56 216.1   2.8  33140  272.53 0865.01
2015 04 09 06 23 36 .26     -32    -44      2     55     56 216.1   2.8  33140  272.53 0865.01
2015 04 09 06 23 36 .51     -31    -40      4     51     52 217.8   4.9  33138  272.52 0865.01
2015 04 09 06 23 36 .76     -37    -44      2     58     59 219.7   2.9  33134  272.45 0865.01
2015 04 09 06 23 37 .01     -37    -44      2     58     59 219.7   2.9  33134  272.45 0865.01
2015 04 09 06 23 37 .26     -35    -40      0     54     55 221.4  -0.3  33132  272.42 0865.01
2015 04 09 06 23 37 .51     -36    -36      5     52     53 225.0   5.9  33136  272.47 0865.01
2015 04 09 06 23 37 .76     -32    -45      2     56     57 215.2   2.9  33130  272.38 0865.01
2015 04 09 06 23 38 .01     -32    -45      2     56     57 215.2   2.9  33130  272.38 0865.01
2015 04 09 06 23 38 .26     -37    -44      6     58     59 219.6   5.9  33132  272.40 0865.01
2015 04 09 06 23 38 .51     -40    -42      3     59     60 223.4   3.8  33132  272.42 0865.01
2015 04 09 06 23 38 .77     -32    -45      2     56     57 215.2   2.9  33130  272.38 0865.01
2015 04 09 06 23 39 .02     -32    -45      2     56     57 215.2   2.9  33130  272.38 0865.01
2015 04 09 06 23 39 .27     -35    -40      0     54     55 221.4  -0.3  33132  272.42 0865.01
2015 04 09 06 23 39 .52     -32    -45      2     56     57 215.2   2.9  33130  272.38 0865.01
2015 04 09 06 23 39 .78     -32    -45      2     56     57 215.2   2.9  33130  272.38 0865.01
2015 04 09 06 23 40 .02     -35    -40      0     54     55 221.4  -0.3  33132  272.42 0865.01
2015 04 09 06 23 40 .28     -32    -45      2     56     57 215.2   2.9  33130  272.38 0865.01
2015 04 09 06 23 40 .53     -32    -45      2     56     57 215.2   2.9  33130  272.38 0865.01
2015 04 09 06 23 40 .78     -32    -45      2     56     57 215.2   2.9  33130  272.38 0865.01
2015 04 09 06 23 41 .03     -32    -45      2     56     57 215.2   2.9  33130  272.38 0865.01
2015 04 09 06 23 41 .28     -31    -42      4     53     54 217.0   4.9  33130  272.37 0865.01
2015 04 09 06 23 41 .53     -31    -42      4     53     54 217.0   4.9  33130  272.37 0865.01
2015 04 09 06 23 41 .78     -35    -40      0     54     55 221.4  -0.3  33132  272.42 0865.01
2015 04 09 06 23 42 .03     -35    -40      0     54     55 221.4  -0.3  33132  272.42 0865.01
2015 04 09 06 23 42 .28     -35    -40      0     54     55 221.4  -0.3  33132  272.42 0865.01
2015 04 09 06 23 42 .53     -38    -37      2     54     55 225.9   2.9  33130  272.37 0865.01
2015 04 09 06 23 42 .78     -30    -41     -2     51     52 216.1  -2.2  33134  272.43 0865.01
2015 04 09 06 23 43 .03     -30    -41     -2     51     52 216.1  -2.2  33134  272.43 0865.01
2015 04 09 06 23 43 .28     -30    -41     -2     51     52 216.1  -2.2  33134  272.43 0865.01
2015 04 09 06 23 43 .53     -35    -40      0     54     55 221.4  -0.3  33132  272.42 0865.01
2015 04 09 06 23 43 .78     -35    -40      0     54     55 221.4  -0.3  33132  272.42 0865.01
2015 04 09 06 23 44 .03     -37    -44     -2     58     59 219.7  -2.2  33130  272.38 0865.01
2015 04 09 06 23 44 .29     -35    -42      6     55     56 219.6   6.9  33130  272.38 0865.01
2015 04 09 06 23 44 .54     -31    -42      4     53     54 217.0   4.9  33130  272.37 0865.01
2015 04 09 06 23 44 .79     -31    -42      4     53     54 217.0   4.9  33130  272.37 0865.01
2015 04 09 06 23 45 .04     -31    -42      4     53     54 217.0   4.9  33130  272.37 0865.01
2015 04 09 06 23 45 .29     -31    -40      4     51     52 217.8   4.9  33138  272.52 0865.01
2015 04 09 06 23 45 .54     -31    -40      4     51     52 217.8   4.9  33138  272.52 0865.01
2015 04 09 06 23 45 .80     -25    -40      2     48     49 212.6   2.8  33136  272.48 0865.01
2015 04 09 06 23 46 .05     -35    -42      6     55     56 219.6   6.9  33128  272.34 0865.01
2015 04 09 06 23 46 .30     -28    -37      8     47     48 217.0  10.1  33130  272.38 0865.01
2015 04 09 06 23 46 .55     -32    -45      2     56     57 215.2   2.8  33142  272.58 0865.01
2015 04 09 06 23 46 .80     -31    -42      4     53     54 217.0   4.9  33148  272.66 0865.01
2015 04 09 06 23 47 .05     -32    -45      2     56     57 215.2   2.9  33148  272.68 0865.01
2015 04 09 06 23 47 .30     -32    -45      2     56     57 215.2   2.9  33148  272.68 0865.01
2015 04 09 06 23 47 .55     -31    -42      4     53     54 217.0   4.9  33148  272.66 0865.01
2015 04 09 06 23 47 .81     -31    -49      5     59     60 212.6   4.9  33150  272.70 0865.01
2015 04 09 06 23 48 .05     -31    -49      5     59     60 212.6   4.9  33150  272.70 0865.01
2015 04 09 06 23 48 .31     -35    -42      6     55     56 219.6   6.9  33146  272.63 0865.01
2015 04 09 06 23 48 .55     -31    -49      5     59     60 212.6   4.9  33150  272.70 0865.01
2015 04 09 06 23 48 .81     -31    -49      5     59     60 212.6   4.9  33150  272.70 0865.01
2015 04 09 06 23 49 .06     -30    -45      7     55     56 214.3   8.0  33148  272.66 0865.01
2015 04 09 06 23 49 .31     -24    -43     12     50     52 209.0  14.3  33146  272.63 0865.01
2015 04 09 06 23 49 .56     -26    -41      9     49     50 212.5  11.1  33142  272.57 0865.01
2015 04 09 06 23 49 .81     -26    -41      9     49     50 212.5  11.1  33142  272.57 0865.01
2015 04 09 06 23 50 .06     -27    -43      6     52     53 212.5   6.9  33136  272.48 0865.01
2015 04 09 06 23 50 .31     -24    -44      5     51     52 209.0   5.9  33136  272.47 0865.01
2015 04 09 06 23 50 .56     -24    -44      5     51     52 209.0   5.9  33136  272.47 0865.01
2015 04 09 06 23 50 .81     -24    -44      5     51     52 209.0   5.9  33136  272.47 0865.01
2015 04 09 06 23 51 .06     -24    -44      5     51     52 209.0   5.9  33136  272.47 0865.01
2015 04 09 06 23 51 .31     -24    -44      5     51     52 209.0   5.9  33136  272.47 0865.01
2015 04 09 06 23 51 .56     -27    -48      2     56     57 209.0   2.8  33134  272.43 0865.01
2015 04 09 06 23 51 .81     -26    -41      9     49     50 212.5  11.1  33132  272.42 0865.01
2015 04 09 06 23 52 .06     -24    -44      5     51     52 209.0   5.9  33136  272.47 0865.01
2015 04 09 06 23 52 .31     -32    -45      2     56     57 215.2   2.9  33130  272.38 0865.01
2015 04 09 06 23 52 .56     -33    -41      6     53     54 218.7   6.9  33128  272.35 0865.01
2015 04 09 06 23 52 .83     -31    -42      4     53     54 217.0   4.9  33130  272.37 0865.01
2015 04 09 06 23 53 .08     -24    -45     -2     52     53 208.1  -2.2  33130  272.38 0865.01
2015 04 09 06 23 53 .33     -22    -47      0     53     54 205.3   0.8  33132  272.42 0865.01
2015 04 09 06 23 53 .58     -17    -48     -2     52     53 200.0  -2.2  33134  272.43 0865.01
2015 04 09 06 23 53 .83     -17    -48     -2     52     53 200.0  -2.2  33134  272.43 0865.01
2015 04 09 06 23 54 .08     -17    -52      0     55     56 198.7   0.8  33132  272.42 0865.01
2015 04 09 06 23 54 .33     -19    -53      2     57     58 200.0   2.8  33130  272.38 0865.01
2015 04 09 06 23 54 .58     -14    -48      2     51     52 196.9   2.9  33128  272.34 0865.01
2015 04 09 06 23 54 .83      -8    -52      2     53     54 188.9   2.8  33128  272.34 0865.01
2015 04 09 06 23 55 .08      -4    -56      2     57     58 184.5   2.9  33130  272.37 0865.01
2015 04 09 06 23 55 .33       0    -47      2     48     49 180.0   2.8  33134  272.45 0865.01
2015 04 09 06 23 55 .58      -2    -56      2     57     58 182.7   2.8  33128  272.35 0865.01
2015 04 09 06 23 55 .83       0    -52      4     53     54 180.9   4.9  33124  272.27 0865.00
2015 04 09 06 23 56 .08      -4    -52      0     53     54 184.5   0.8  33126  272.32 0865.00
2015 04 09 06 23 56 .34       4    -60      1     61     62 175.6   1.8  33128  272.35 0865.00
2015 04 09 06 23 56 .58       5    -56      3     57     58 174.7   3.8  33126  272.32 0865.00
2015 04 09 06 23 56 .83       0    -52      4     53     54 180.9   4.9  33124  272.27 0865.00
2015 04 09 06 23 57 .09       9    -52      0     53     54 170.2   0.8  33124  272.27 0865.00
2015 04 09 06 23 57 .34      15    -52      3     55     56 164.0   3.8  33126  272.32 0865.00
2015 04 09 06 23 57 .59      15    -52      3     55     56 164.0   3.8  33126  272.32 0865.00
2015 04 09 06 23 57 .84      15    -52      3     55     56 164.0   3.8  33126  272.32 0865.01
2015 04 09 06 23 58 .09      15    -52      3     55     56 164.0   3.8  33126  272.32 0865.01
2015 04 09 06 23 58 .34      16    -46      2     49     50 160.0   2.9  33130  272.38 0865.01
2015 04 09 06 23 58 .59      21    -46      0     51     52 154.5  -0.3  33132  272.42 0865.01
2015 04 09 06 23 58 .84      23    -49      2     55     56 154.5   2.8  33134  272.43 0865.01
2015 04 09 06 23 59 .09      18    -49      3     53     54 159.1   3.8  33138  272.52 0865.01
2015 04 09 06 23 59 .34      18    -49      3     53     54 159.1   3.8  33138  272.52 0865.01
2015 04 09 06 23 59 .59      17    -53      2     56     57 161.3   2.8  33138  272.50 0865.01
2015 04 09 06 23 59 .85      18    -49      3     53     54 159.1   3.8  33132  272.42 0865.01
2015 04 09 06 24 00 .10      17    -53      2     56     57 161.3   2.8  33138  272.50 0865.01
2015 04 09 06 24 00 .35      18    -49      3     53     54 159.1   3.8  33136  272.47 0865.01
2015 04 09 06 24 00 .60      23    -49      2     55     56 154.5   2.8  33134  272.43 0865.01
2015 04 09 06 24 00 .85      21    -46      0     51     52 154.5  -0.3  33132  272.42 0865.01
2015 04 09 06 24 01 .10      21    -46      0     51     52 154.5  -0.3  33132  272.42 0865.01
2015 04 09 06 24 01 .35      33    -40      3     53     54 140.4   3.8  33132  272.42 0865.01
2015 04 09 06 24 01 .60      34    -37      0     51     52 137.7  -0.3  33132  272.42 0865.01
2015 04 09 06 24 01 .86      38    -38      2     54     55 135.0   2.9  33136  272.47 0865.01
2015 04 09 06 24 02 .11      38    -38      2     54     55 135.0   2.9  33136  272.47 0865.01
2015 04 09 06 24 02 .36      38    -38      2     54     55 135.0   2.9  33136  272.47 0865.01
2015 04 09 06 24 02 .61      34    -35      2     50     51 135.8   2.8  33134  272.45 0865.01
2015 04 09 06 24 02 .86      39    -31      5     51     52 128.6   5.9  33132  272.42 0865.01
2015 04 09 06 24 03 .11      39    -31      5     51     52 128.6   5.9  33132  272.42 0865.01
2015 04 09 06 24 03 .36      39    -31      5     51     52 128.6   5.9  33132  272.42 0865.01
2015 04 09 06 24 03 .61      43    -27      8     51     52 122.5   9.0  33134  272.45 0865.01
2015 04 09 06 24 03 .86      40    -23      4     47     48 119.8   5.9  33136  272.47 0865.01
2015 04 09 06 24 04 .11      40    -23      4     47     48 119.8   5.9  33136  272.47 0865.01
2015 04 09 06 24 04 .36      45    -24      2     52     53 118.0   2.9  33136  272.48 0865.01
2015 04 09 06 24 04 .61      45    -24      2     52     53 118.0   2.9  33136  272.48 0865.01
2015 04 09 06 24 04 .86      46    -16      6     49     50 109.1   8.0  33138  272.50 0865.01
2015 04 09 06 24 05 .11      45    -18      5     49     50 112.6   5.9  33138  272.52 0865.01
2015 04 09 06 24 05 .36      45    -18      5     49     50 112.6   5.9  33138  272.52 0865.01
2015 04 09 06 24 05 .62      46    -15      7     49     50 108.2   9.0  33136  272.48 0865.01
2015 04 09 06 24 05 .86      45    -18      5     49     50 112.6   5.9  33138  272.52 0865.01
2015 04 09 06 24 06 .12      46    -15      7     49     50 108.2   9.0  33136  272.48 0865.01
2015 04 09 06 24 06 .37      45    -18      5     49     50 112.6   5.9  33136  272.47 0865.01
2015 04 09 06 24 06 .63      45    -18      5     49     50 112.6   5.9  33138  272.52 0865.01
2015 04 09 06 24 06 .88      45    -24      2     52     53 118.0   2.9  33136  272.48 0865.01
2015 04 09 06 24 07 .13      46    -15      7     49     50 108.2   9.0  33136  272.48 0865.01
2015 04 09 06 24 07 .38      46    -15      7     49     50 108.2   9.0  33136  272.48 0865.01
2015 04 09 06 24 07 .63      45    -18      5     49     50 112.6   5.9  33138  272.52 0865.01
2015 04 09 06 24 07 .88      42    -19      8     47     48 114.4  10.1  33136  272.48 0865.01
2015 04 09 06 24 08 .13      45    -18      5     49     50 112.6   5.9  33138  272.52 0865.01
2015 04 09 06 24 08 .38      45    -18      5     49     50 112.6   5.9  33138  272.52 0865.01
2015 04 09 06 24 08 .63      45    -18      5     49     50 112.6   5.9  33140  272.55 0865.01
2015 04 09 06 24 08 .88      49    -23      7     55     56 115.3   8.0  33140  272.53 0865.01
2015 04 09 06 24 09 .13      49    -23      7     55     56 115.3   8.0  33140  272.53 0865.01
2015 04 09 06 24 09 .38      45    -18      5     49     50 112.6   5.9  33140  272.55 0865.01
2015 04 09 06 24 09 .63      45    -18      5     49     50 112.6   5.9  33138  272.52 0865.01
2015 04 09 06 24 09 .89      49    -23      7     55     56 115.3   8.0  33140  272.53 0865.01
2015 04 09 06 24 10 .14      45    -24     10     52     54 118.0  11.1  33140  272.55 0865.01
2015 04 09 06 24 10 .39      49    -23      7     55     56 115.3   8.0  33140  272.53 0865.01
2015 04 09 06 24 10 .64      40    -23     12     47     49 119.8  15.3  33140  272.53 0865.01
2015 04 09 06 24 10 .89      38    -27     10     47     49 126.0  12.2  33138  272.52 0865.01
2015 04 09 06 24 11 .14      35    -23      7     43     44 123.3  10.1  33136  272.48 0865.01
2015 04 09 06 24 11 .39      45    -23     10     51     52 118.0  11.1  33140  272.55 0865.01
2015 04 09 06 24 11 .64      42    -19      8     47     48 114.4  10.1  33142  272.58 0865.01
2015 04 09 06 24 11 .89      41    -24      5     48     49 120.7   6.9  33144  272.60 0865.01
2015 04 09 06 24 12 .14      41    -24      5     48     49 120.7   6.9  33144  272.60 0865.01
2015 04 09 06 24 12 .39      39    -16      5     43     44 112.6   6.9  33140  272.55 0865.01
2015 04 09 06 24 12 .64      39    -16      5     43     44 112.6   6.9  33140  272.55 0865.01
2015 04 09 06 24 12 .89      39    -16      5     43     44 112.6   6.9  33140  272.55 0865.01
2015 04 09 06 24 13 .14      39    -16      5     43     44 112.6   6.9  33140  272.55 0865.01
2015 04 09 06 24 13 .39      39    -16      5     43     44 112.6   6.9  33140  272.55 0865.01
2015 04 09 06 24 13 .65      42    -19      8     47     48 114.4  10.1  33146  272.63 0865.01
2015 04 09 06 24 13 .90      47    -15      7     50     51 108.2   8.0  33146  272.65 0865.01
2015 04 09 06 24 14 .15      41    -24      5     48     49 120.7   6.9  33144  272.60 0865.01
2015 04 09 06 24 14 .40      42    -19      8     47     48 114.4  10.1  33142  272.58 0865.01
2015 04 09 06 24 14 .66      39    -16      5     43     44 112.6   6.9  33140  272.55 0865.01
2015 04 09 06 24 14 .90      38    -14      5     41     42 110.8   8.0  33148  272.66 0865.00
2015 04 09 06 24 15 .16      41    -24      5     48     49 120.7   6.9  33144  272.60 0865.00
2015 04 09 06 24 15 .41      41    -24      5     48     49 120.7   6.9  33144  272.60 0865.00
2015 04 09 06 24 15 .66      37    -20      2     43     44 118.9   2.9  33146  272.63 0865.00
2015 04 09 06 24 15 .91      39    -21      2     45     46 118.9   2.9  33142  272.58 0865.00
2015 04 09 06 24 16 .16      41    -24      5     48     49 120.7   6.9  33144  272.60 0865.00
2015 04 09 06 24 16 .41      41    -24      5     48     49 120.7   6.9  33144  272.60 0865.00
2015 04 09 06 24 16 .66      37    -20      2     43     44 118.9   2.9  33146  272.63 0865.00
2015 04 09 06 24 16 .91      41    -24      5     48     49 120.7   6.9  33144  272.60 0865.00
2015 04 09 06 24 17 .16      41    -24      5     48     49 120.7   6.9  33144  272.60 0865.00
2015 04 09 06 24 17 .41      41    -24      5     48     49 120.7   6.9  33144  272.60 0865.00
2015 04 09 06 24 17 .66      41    -24      5     48     49 120.7   6.9  33144  272.60 0865.00
2015 04 09 06 24 17 .91      38    -27      2     47     48 126.0   2.9  33146  272.63 0865.00
2015 04 09 06 24 18 .16      39    -21      2     45     46 118.9   2.9  33142  272.58 0865.00
2015 04 09 06 24 18 .41      39    -21      2     45     46 118.9   2.9  33142  272.58 0865.00
2015 04 09 06 24 18 .67      38    -27      2     47     48 126.0   2.9  33142  272.58 0865.01
2015 04 09 06 24 18 .92      33    -21     -1     40     41 122.4  -2.2  33142  272.58 0865.01
2015 04 09 06 24 19 .17      33    -21     -1     40     41 122.4  -2.2  33142  272.58 0865.01
2015 04 09 06 24 19 .42      39    -21      2     45     46 118.9   2.9  33142  272.58 0865.01
2015 04 09 06 24 19 .67      41    -24      5     48     49 120.7   6.9  33144  272.60 0865.01
2015 04 09 06 24 19 .92      39    -21      2     45     46 118.9   2.9  33142  272.58 0865.01
2015 04 09 06 24 20 .17      36    -24      2     44     45 124.2   2.8  33142  272.57 0865.01
2015 04 09 06 24 20 .42      36    -24      2     44     45 124.2   2.8  33142  272.57 0865.00
2015 04 09 06 24 20 .68      38    -27      2     47     48 126.0   2.9  33142  272.58 0865.00
2015 04 09 06 24 20 .93      36    -24      2     44     45 124.2   2.8  33142  272.57 0865.00
2015 04 09 06 24 21 .18      38    -27      2     47     48 126.0   2.9  33142  272.58 0865.00
2015 04 09 06 24 21 .43      38    -27      2     47     48 126.0   2.9  33142  272.58 0865.00
2015 04 09 06 24 21 .68      38    -27      2     47     48 126.0   2.9  33142  272.58 0865.00
2015 04 09 06 24 21 .93      30    -23      3     39     40 127.8   4.9  33140  272.53 0865.00
2015 04 09 06 24 22 .18      36    -24      2     44     45 124.2   2.8  33142  272.57 0865.01
2015 04 09 06 24 22 .43      36    -24      2     44     45 124.2   2.8  33142  272.57 0865.01
2015 04 09 06 24 22 .68      34    -31      1     47     48 132.2   1.8  33144  272.60 0865.01
2015 04 09 06 24 22 .93      38    -27      2     47     48 126.0   2.9  33142  272.58 0865.01
2015 04 09 06 24 23 .19      39    -31      5     51     52 128.6   5.9  33142  272.57 0865.01
2015 04 09 06 24 23 .44      34    -35      2     50     51 135.8   2.8  33140  272.53 0865.01
2015 04 09 06 24 23 .69      33    -32      0     47     48 134.0   0.8  33136  272.47 0865.01
2015 04 09 06 24 23 .94      33    -33      4     47     48 135.0   5.9  33130  272.37 0865.01
2015 04 09 06 24 24 .19      33    -33      4     47     48 135.0   5.9  33130  272.37 0865.01
2015 04 09 06 24 24 .44      33    -33      4     48     49 135.0   4.9  33138  272.52 0865.01
2015 04 09 06 24 24 .69      33    -33      4     48     49 135.0   4.9  33138  272.52 0865.01
2015 04 09 06 24 24 .94      34    -31      7     47     48 132.2   9.0  33140  272.53 0865.01
2015 04 09 06 24 25 .19      34    -31      7     47     48 132.2   9.0  33136  272.48 0865.01
2015 04 09 06 24 25 .44      30    -30     11     43     45 135.0  15.3  33142  272.57 0865.01
2015 04 09 06 24 25 .69      27    -32      7     43     44 139.5  10.1  33142  272.58 0865.01
2015 04 09 06 24 25 .94      27    -32      7     43     44 139.5  10.1  33142  272.58 0865.01
2015 04 09 06 24 26 .19      27    -32      7     43     44 139.5  10.1  33142  272.58 0865.01
2015 04 09 06 24 26 .44      25    -30      6     40     41 140.3   9.0  33144  272.61 0865.01
2015 04 09 06 24 26 .69      25    -30      6     40     41 140.3   9.0  33144  272.61 0865.01
2015 04 09 06 24 26 .94      25    -30      6     40     41 140.3   9.0  33144  272.61 0865.01
2015 04 09 06 24 27 .19      25    -30      6     40     41 140.3   9.0  33144  272.61 0865.01
2015 04 09 06 24 27 .45      29    -29      3     42     43 135.0   4.9  33146  272.63 0865.01
2015 04 09 06 24 27 .71      27    -34      2     44     45 141.3   2.8  33144  272.60 0865.01
2015 04 09 06 24 27 .96      27    -34      2     44     45 141.3   2.8  33144  272.60 0865.01
2015 04 09 06 24 28 .20      24    -38     -1     46     47 147.5  -2.2  33146  272.63 0865.01
2015 04 09 06 24 28 .46      33    -33     -1     48     49 135.0  -2.2  33148  272.68 0865.01
2015 04 09 06 24 28 .71      35    -38      1     52     53 137.7   1.8  33150  272.71 0865.01
2015 04 09 06 24 28 .96      25    -39      4     47     48 147.4   5.9  33150  272.71 0865.01
2015 04 09 06 24 29 .21      18    -34      5     39     40 151.0   8.0  33148  272.66 0865.01
2015 04 09 06 24 29 .46      27    -34      2     44     45 141.3   2.8  33144  272.60 0865.01
2015 04 09 06 24 29 .71      23    -34      3     42     43 145.7   4.9  33146  272.63 0865.01
2015 04 09 06 24 29 .96      29    -29      3     42     43 135.0   4.9  33146  272.63 0865.01
2015 04 09 06 24 30 .21      33    -33      6     48     49 135.0   8.0  33148  272.66 0865.01
2015 04 09 06 24 30 .46      30    -38      2     49     50 142.2   2.9  33148  272.68 0865.01
2015 04 09 06 24 30 .71      30    -38      2     49     50 142.2   2.9  33148  272.68 0865.01
2015 04 09 06 24 30 .96      30    -38      2     49     50 142.2   2.9  33148  272.68 0865.01
2015 04 09 06 24 31 .21      30    -38      2     49     50 142.2   2.9  33148  272.68 0865.00
2015 04 09 06 24 31 .46      30    -38      2     49     50 142.2   2.9  33148  272.68 0865.00
2015 04 09 06 24 31 .71      30    -38      2     49     50 142.2   2.9  33148  272.68 0865.00
2015 04 09 06 24 31 .96      33    -33      6     48     49 135.0   8.0  33148  272.66 0865.00
2015 04 09 06 24 32 .22      25    -39      4     47     48 147.4   5.9  33150  272.71 0865.00
2015 04 09 06 24 32 .47      28    -35      8     45     46 141.3  10.1  33152  272.73 0865.00
2015 04 09 06 24 32 .72      32    -35      5     48     49 137.7   6.9  33150  272.71 0865.00
2015 04 09 06 24 32 .97      28    -35      8     45     46 141.3  10.1  33152  272.73 0865.00
2015 04 09 06 24 33 .22      28    -35      8     45     46 141.3  10.1  33152  272.73 0865.00
2015 04 09 06 24 33 .47      31    -31     11     45     47 135.0  14.3  33150  272.70 0865.00
2015 04 09 06 24 33 .72      32    -35      5     48     49 137.7   6.9  33150  272.71 0865.00
2015 04 09 06 24 33 .97      31    -31      2     44     45 135.0   2.9  33154  272.78 0865.00
2015 04 09 06 24 34 .22      31    -31      2     44     45 135.0   2.9  33154  272.78 0865.00
2015 04 09 06 24 34 .48      33    -32      0     47     48 134.0   0.8  33154  272.76 0865.00
2015 04 09 06 24 34 .73      33    -35      5     49     50 136.8   5.9  33154  272.76 0865.00
2015 04 09 06 24 34 .98      31    -31      2     44     45 135.0   2.9  33154  272.78 0865.00
2015 04 09 06 24 35 .23      31    -31      2     44     45 135.0   2.9  33154  272.78 0865.00
2015 04 09 06 24 35 .48      31    -31      2     44     45 135.0   2.9  33154  272.78 0865.00
2015 04 09 06 24 35 .73      31    -31      2     44     45 135.0   2.9  33154  272.78 0865.00
2015 04 09 06 24 35 .98      33    -33      4     48     49 135.0   4.9  33156  272.81 0865.00
2015 04 09 06 24 36 .23      33    -33      4     48     49 135.0   4.9  33156  272.81 0865.00
2015 04 09 06 24 36 .48      31    -31      2     44     45 135.0   2.9  33154  272.78 0865.00
2015 04 09 06 24 36 .73      31    -31      2     44     45 135.0   2.9  33154  272.78 0865.00
2015 04 09 06 24 36 .99      31    -31      2     44     45 135.0   2.9  33154  272.78 0865.00
2015 04 09 06 24 37 .24      31    -31      2     44     45 135.0   2.9  33154  272.78 0865.00
2015 04 09 06 24 37 .49      31    -31      2     44     45 135.0   2.9  33154  272.78 0865.00
2015 04 09 06 24 37 .74      33    -35      5     49     50 136.8   5.9  33154  272.76 0865.00
2015 04 09 06 24 37 .99      33    -35      5     49     50 136.8   5.9  33154  272.76 0865.00
2015 04 09 06 24 38 .24      33    -35      5     49     50 136.8   5.9  33154  272.76 0865.00
2015 04 09 06 24 38 .49      33    -35      5     49     50 136.8   5.9  33154  272.76 0865.00
2015 04 09 06 24 38 .74      33    -35      5     49     50 136.8   5.9  33154  272.76 0865.00
2015 04 09 06 24 38 .99      33    -35      5     49     50 136.8   5.9  33154  272.76 0865.00
2015 04 09 06 24 39 .24      31    -31      2     44     45 135.0   2.9  33154  272.78 0865.00
2015 04 09 06 24 39 .49      31    -31      2     44     45 135.0   2.9  33154  272.78 0865.01
2015 04 09 06 24 39 .74      31    -31      2     44     45 135.0   2.9  33154  272.78 0865.01
2015 04 09 06 24 39 .99      31    -31      2     44     45 135.0   2.9  33154  272.78 0865.01
2015 04 09 06 24 40 .24      31    -31      2     44     45 135.0   2.9  33154  272.78 0865.01
2015 04 09 06 24 40 .49      31    -31      2     44     45 135.0   2.9  33154  272.78 0865.01
2015 04 09 06 24 40 .74      31    -31      2     44     45 135.0   2.9  33154  272.78 0865.01
2015 04 09 06 24 40 .99      31    -31      2     44     45 135.0   2.9  33154  272.78 0865.01
2015 04 09 06 24 41 .24      31    -31      2     44     45 135.0   2.9  33154  272.78 0865.01
2015 04 09 06 24 41 .51      31    -31      2     44     45 135.0   2.9  33154  272.78 0865.01
2015 04 09 06 24 41 .76      31    -31      2     44     45 135.0   2.9  33154  272.78 0865.01
2015 04 09 06 24 42 .01      31    -31      2     44     45 135.0   2.9  33154  272.78 0865.01
2015 04 09 06 24 42 .26      26    -28      8     39     40 136.6  12.2  33152  272.73 0865.01
2015 04 09 06 24 42 .51      35    -32      8     48     49 133.1  10.1  33152  272.73 0865.01
2015 04 09 06 24 42 .76      33    -27      5     43     44 129.5   6.9  33154  272.76 0865.01
2015 04 09 06 24 43 .01      26    -28      8     39     40 136.6  12.2  33152  272.73 0865.01
2015 04 09 06 24 43 .26      26    -28      8     39     40 136.6  12.2  33152  272.73 0865.01
2015 04 09 06 24 43 .51      31    -31     11     45     47 135.0  14.3  33150  272.70 0865.01
2015 04 09 06 24 43 .76      31    -31     11     45     47 135.0  14.3  33150  272.70 0865.01
2015 04 09 06 24 44 .01      26    -28      8     39     40 136.6  12.2  33152  272.73 0865.01
2015 04 09 06 24 44 .26      31    -31     11     45     47 135.0  14.3  33150  272.70 0865.01
2015 04 09 06 24 44 .51      31    -31     11     45     47 135.0  14.3  33150  272.70 0865.01
2015 04 09 06 24 44 .76      31    -31     11     45     47 135.0  14.3  33150  272.70 0865.01
2015 04 09 06 24 45 .01      31    -31     11     45     47 135.0  14.3  33150  272.70 0865.01
2015 04 09 06 24 45 .26      31    -27     13     42     45 130.4  17.3  33148  272.68 0865.01
2015 04 09 06 24 45 .52      35    -28     11     46     48 128.6  14.3  33148  272.66 0865.01
2015 04 09 06 24 45 .77      35    -24      7     43     44 125.1  10.1  33146  272.63 0865.01
2015 04 09 06 24 46 .02      35    -24      7     43     44 125.1  10.1  33146  272.63 0865.01
2015 04 09 06 24 46 .27      35    -24      7     43     44 125.1  10.1  33146  272.63 0865.01
2015 04 09 06 24 46 .52      35    -24      7     43     44 125.1  10.1  33146  272.63 0865.01
2015 04 09 06 24 46 .77      35    -24      7     43     44 125.1  10.1  33146  272.63 0865.01
2015 04 09 06 24 47 .02      35    -24      7     43     44 125.1  10.1  33146  272.63 0865.01
2015 04 09 06 24 47 .27      35    -24      7     43     44 125.1  10.1  33146  272.63 0865.01
2015 04 09 06 24 47 .52      35    -24      7     43     44 125.1  10.1  33146  272.63 0865.01
2015 04 09 06 24 47 .77      35    -24      7     43     44 125.1  10.1  33146  272.63 0865.01
2015 04 09 06 24 48 .02      38    -27      2     47     48 126.0   2.9  33142  272.58 0865.01
2015 04 09 06 24 48 .27      38    -27      2     47     48 126.0   2.9  33142  272.58 0865.01
2015 04 09 06 24 48 .53      38    -27      2     47     48 126.0   2.9  33142  272.58 0865.00
2015 04 09 06 24 48 .78      36    -24      2     44     45 124.2   2.8  33142  272.57 0865.00
2015 04 09 06 24 49 .03      33    -33      4     48     49 135.0   4.9  33138  272.52 0865.00
2015 04 09 06 24 49 .28      39    -31      5     51     52 128.6   5.9  33142  272.57 0865.00
2015 04 09 06 24 49 .53      31    -31      2     44     45 135.0   2.9  33136  272.48 0865.00
2015 04 09 06 24 49 .78      31    -31      2     44     45 135.0   2.9  33136  272.48 0865.00
2015 04 09 06 24 50 .04      31    -31      2     44     45 135.0   2.9  33136  272.48 0865.00
2015 04 09 06 24 50 .29      33    -33      4     48     49 135.0   4.9  33138  272.52 0865.00
2015 04 09 06 24 50 .54      33    -32      0     47     48 134.0   0.8  33140  272.55 0865.00
2015 04 09 06 24 50 .79      33    -33      4     48     49 135.0   4.9  33156  272.81 0865.00
2015 04 09 06 24 51 .04      33    -33      4     47     48 135.0   5.9  33142  272.57 0865.00
2015 04 09 06 24 51 .29      31    -31      2     44     45 135.0   2.9  33136  272.48 0865.00
2015 04 09 06 24 51 .54      31    -31      2     44     45 135.0   2.9  33136  272.48 0865.00
2015 04 09 06 24 51 .79      31    -31      2     44     45 135.0   2.9  33136  272.48 0865.00
2015 04 09 06 24 52 .05      32    -35      5     48     49 137.7   6.9  33144  272.61 0865.00
2015 04 09 06 24 52 .29      25    -30      6     40     41 140.4   9.0  33138  272.52 0865.00
2015 04 09 06 24 52 .54      20    -32      6     38     39 147.4  10.1  33138  272.50 0865.00
2015 04 09 06 24 52 .79      25    -30      6     40     41 140.4   9.0  33138  272.52 0865.00
2015 04 09 06 24 53 .04      31    -31      2     44     45 135.0   2.9  33136  272.48 0865.00
2015 04 09 06 24 53 .29      31    -31      2     44     45 135.0   2.9  33136  272.48 0865.00
2015 04 09 06 24 53 .54      30    -23      3     39     40 127.8   4.9  33140  272.53 0865.00
2015 04 09 06 24 53 .79      26    -28      0     39     40 136.6   0.8  33138  272.52 0865.00
2015 04 09 06 24 54 .05      31    -31      2     44     45 135.0   2.9  33136  272.48 0865.00
2015 04 09 06 24 54 .29      31    -31      2     44     45 135.0   2.9  33136  272.48 0865.00
2015 04 09 06 24 54 .55      31    -31      2     44     45 135.0   2.9  33136  272.48 0865.00
2015 04 09 06 24 54 .80      31    -31      2     44     45 135.0   2.9  33136  272.48 0865.00
2015 04 09 06 24 55 .05      31    -31      2     44     45 135.0   2.9  33136  272.48 0865.00
2015 04 09 06 24 55 .31      31    -31      2     44     45 135.0   2.9  33140  272.53 0865.00
2015 04 09 06 24 55 .56      25    -30      6     40     41 140.4   9.0  33138  272.52 0865.00
2015 04 09 06 24 55 .82      31    -32      1     45     46 135.8   1.8  33150  272.70 0865.00
2015 04 09 06 24 56 .06      36    -24     15     44     47 124.2  18.9  33170  273.04 0865.00
2015 04 09 06 24 56 .31      23    -30     16     38     41 142.2  24.1  33152  272.75 0865.00
2015 04 09 06 24 56 .56      20    -32      6     38     39 147.4  10.1  33138  272.50 0865.00
2015 04 09 06 24 56 .81      26    -31      5     41     42 139.5   6.9  33136  272.47 0865.00
2015 04 09 06 24 57 .06      22    -22      0     32     33 135.0   0.8  33136  272.47 0865.00
2015 04 09 06 24 57 .31      24    -24     -1     34     35 134.9  -2.2  33136  272.48 0865.00
2015 04 09 06 24 57 .56      31    -31      2     44     45 135.0   2.9  33136  272.48 0865.00
2015 04 09 06 24 57 .81      31    -31      2     44     45 135.0   2.9  33136  272.48 0865.00
2015 04 09 06 24 58 .06      31    -31      2     44     45 135.0   2.9  33136  272.48 0865.00
2015 04 09 06 24 58 .31      31    -31      2     44     45 135.0   2.9  33136  272.48 0865.00
2015 04 09 06 24 58 .56      31    -31      2     44     45 135.0   2.9  33136  272.48 0865.00
2015 04 09 06 24 58 .82      31    -31      2     44     45 135.0   2.9  33136  272.48 0865.00
2015 04 09 06 24 59 .07      31    -31      2     44     45 135.0   2.9  33136  272.48 0865.00
2015 04 09 06 24 59 .32      31    -31      2     44     45 135.0   2.9  33136  272.48 0865.00
2015 04 09 06 24 59 .57      24    -24     -1     34     35 134.9  -2.2  33136  272.48 0865.00
2015 04 09 06 24 59 .82      24    -24     -1     34     35 134.9  -2.2  33136  272.48 0865.00
2015 04 09 06 25 00 .07      31    -31      2     44     45 135.0   2.9  33136  272.48 0865.00
2015 04 09 06 25 00 .32      24    -24     -1     34     35 134.9  -2.2  33136  272.48 0865.00
2015 04 09 06 25 00 .57      24    -24     -1     34     35 134.9  -2.2  33136  272.48 0865.00
2015 04 09 06 25 00 .83      24    -24     -1     34     35 134.9  -2.2  33136  272.48 0865.00
2015 04 09 06 25 01 .07      25    -25     -3     36     37 135.0  -5.2  33138  272.50 0865.00
2015 04 09 06 25 01 .32      31    -31     -1     44     45 135.0  -2.2  33140  272.55 0865.00
2015 04 09 06 25 01 .57      26    -31     -1     41     42 139.5  -2.2  33140  272.53 0865.00
2015 04 09 06 25 01 .82      31    -31     -1     44     45 135.0  -2.2  33140  272.55 0865.00
2015 04 09 06 25 02 .07      22    -34     -1     41     42 146.6  -2.2  33148  272.66 0865.00
2015 04 09 06 25 02 .33      22    -34     -1     41     42 146.6  -2.2  33148  272.66 0865.00
2015 04 09 06 25 02 .58      22    -34     -1     41     42 146.6  -2.2  33148  272.66 0865.00
2015 04 09 06 25 02 .84      24    -30     -1     39     40 140.4  -2.2  33148  272.68 0865.00
2015 04 09 06 25 03 .09      20    -30      1     37     38 145.7   2.8  33150  272.71 0865.00
2015 04 09 06 25 03 .34      20    -30      1     37     38 145.7   2.8  33150  272.71 0865.00
2015 04 09 06 25 03 .59      20    -32     -1     39     40 147.5  -2.2  33152  272.73 0865.00
2015 04 09 06 25 03 .84      22    -30     -4     38     39 143.9  -7.3  33154  272.78 0865.00
2015 04 09 06 25 04 .09      26    -31     -1     41     42 139.5  -2.2  33158  272.83 0865.00
2015 04 09 06 25 04 .34      20    -32      1     38     39 147.4   2.9  33160  272.86 0865.00
2015 04 09 06 25 04 .59      20    -32      1     38     39 147.4   2.9  33160  272.86 0865.00
2015 04 09 06 25 04 .84      20    -32      1     38     39 147.4   2.9  33160  272.86 0864.99
2015 04 09 06 25 05 .09      15    -31      3     35     36 152.8   4.9  33158  272.83 0864.99
2015 04 09 06 25 05 .34      20    -32      9     38     40 147.5  13.2  33154  272.78 0864.99
2015 04 09 06 25 05 .59      20    -32      1     38     39 147.4   2.9  33160  272.86 0864.99
2015 04 09 06 25 05 .84      15    -31      3     35     36 152.8   4.9  33158  272.83 0864.99
2015 04 09 06 25 06 .09      15    -31      3     35     36 152.8   4.9  33158  272.83 0864.99
2015 04 09 06 25 06 .34      17    -27      6     33     34 147.4  11.1  33156  272.81 0864.99
2015 04 09 06 25 06 .59      17    -27      6     33     34 147.4  11.1  33156  272.81 0864.99
2015 04 09 06 25 06 .84      17    -27      6     33     34 147.4  11.1  33156  272.81 0865.00
2015 04 09 06 25 07 .09      18    -26      6     32     33 145.7  11.1  33154  272.76 0865.00
2015 04 09 06 25 07 .34      18    -26      6     32     33 145.7  11.1  33154  272.76 0865.00
2015 04 09 06 25 07 .60      15    -23      4     28     29 145.7   9.0  33154  272.78 0865.00
2015 04 09 06 25 07 .85      15    -23      4     28     29 145.7   9.0  33154  272.78 0865.00
2015 04 09 06 25 08 .10      23    -25      1     35     36 136.8   2.9  33152  272.73 0865.00
2015 04 09 06 25 08 .35      19    -26      6     33     34 143.9  11.1  33148  272.66 0865.00
2015 04 09 06 25 08 .60      19    -26      6     33     34 143.9  11.1  33148  272.66 0864.99
2015 04 09 06 25 08 .85      20    -30      1     37     38 145.7   2.8  33150  272.71 0864.99
2015 04 09 06 25 09 .10      23    -25      3     35     36 136.8   4.9  33148  272.68 0864.99
2015 04 09 06 25 09 .36      19    -26      6     33     34 143.9  11.1  33148  272.66 0864.99
2015 04 09 06 25 09 .61      19    -26      6     33     34 143.9  11.1  33148  272.66 0865.00
2015 04 09 06 25 09 .86      19    -26      6     33     34 143.9  11.1  33148  272.66 0865.00
2015 04 09 06 25 10 .11      19    -26      6     33     34 143.9  11.1  33148  272.66 0865.00
2015 04 09 06 25 10 .36      19    -26      6     33     34 143.9  11.1  33148  272.66 0865.00
2015 04 09 06 25 10 .61      18    -26      6     32     33 145.7  11.1  33154  272.76 0865.00
2015 04 09 06 25 10 .86      19    -26      6     33     34 143.9  11.1  33148  272.66 0865.00
2015 04 09 06 25 11 .12      20    -30      1     37     38 145.7   2.8  33150  272.71 0865.00
2015 04 09 06 25 11 .37      20    -30      1     37     38 145.7   2.8  33150  272.71 0864.99
2015 04 09 06 25 11 .62      20    -32      9     38     40 147.5  13.2  33154  272.78 0864.99
2015 04 09 06 25 11 .87      15    -31     12     35     38 152.8  19.4  33156  272.81 0864.99
2015 04 09 06 25 12 .12      16    -27     10     32     34 149.3  17.3  33152  272.73 0864.99
2015 04 09 06 25 12 .37      21    -21      8     31     33 135.0  15.3  33148  272.68 0864.99
2015 04 09 06 25 12 .62      21    -21      8     31     33 135.0  15.3  33148  272.68 0864.99
2015 04 09 06 25 12 .87      25    -22      6     34     35 131.3  11.1  33150  272.70 0864.99
2015 04 09 06 25 13 .12      21    -21      8     31     33 135.0  15.3  33148  272.68 0864.99
2015 04 09 06 25 13 .37      19    -26      6     33     34 143.9  11.1  33148  272.66 0864.99
2015 04 09 06 25 13 .62      23    -25      1     35     36 136.8   2.9  33152  272.73 0864.99
2015 04 09 06 25 13 .87      23    -25      1     35     36 136.8   2.9  33152  272.73 0864.99
2015 04 09 06 25 14 .12      23    -25      1     35     36 136.8   2.9  33152  272.73 0864.99
2015 04 09 06 25 14 .37      23    -25      1     35     36 136.8   2.9  33152  272.73 0864.99
2015 04 09 06 25 14 .62      23    -25      1     35     36 136.8   2.9  33152  272.73 0864.99
2015 04 09 06 25 14 .87      23    -25      1     35     36 136.8   2.9  33152  272.73 0864.99
2015 04 09 06 25 15 .12      23    -25      1     35     36 136.8   2.9  33152  272.73 0864.99
2015 04 09 06 25 15 .37      20    -30      1     37     38 145.7   2.8  33150  272.71 0864.99
2015 04 09 06 25 15 .62      26    -27      1     38     39 136.6   2.9  33148  272.66 0864.99
2015 04 09 06 25 15 .87      20    -32      1     38     39 147.4   2.9  33142  272.57 0864.99
2015 04 09 06 25 16 .13      26    -28      0     39     40 136.6   0.8  33138  272.52 0864.99
2015 04 09 06 25 16 .39      33    -33     -1     48     49 135.0  -2.2  33134  272.45 0864.99
2015 04 09 06 25 16 .64      30    -25     13     40     43 130.4  18.4  33142  272.58 0864.99
2015 04 09 06 25 16 .89      26    -26     18     37     41 135.0  27.2  33152  272.73 0864.99
2015 04 09 06 25 17 .14      20    -27     19     34     38 143.9  31.4  33144  272.61 0864.99
2015 04 09 06 25 17 .39      26    -28      7     39     40 136.6  11.1  33134  272.43 0864.99
2015 04 09 06 25 17 .64      26    -23     12     35     38 131.3  18.9  33138  272.50 0864.99
2015 04 09 06 25 17 .89      22    -13     20     26     32 120.7  43.7  33144  272.61 0864.99
2015 04 09 06 25 18 .14       8     -8     22     12     25 133.1  66.8  33146  272.63 0864.99
2015 04 09 06 25 18 .39       7     -7     21     11     23 135.0  70.8  33148  272.68 0864.99
2015 04 09 06 25 18 .64       8    -25      9     27     29 161.7  18.9  33154  272.76 0864.99
2015 04 09 06 25 18 .89      15    -27      7     31     32 151.0  13.2  33134  272.43 0864.99
2015 04 09 06 25 19 .14      20    -32      6     38     39 147.4  10.1  33134  272.43 0864.99
2015 04 09 06 25 19 .39      26    -31      5     41     42 139.5   6.9  33136  272.47 0865.00
2015 04 09 06 25 19 .64      26    -31      5     41     42 139.5   6.9  33136  272.47 0865.00
2015 04 09 06 25 19 .90      23    -34      3     42     43 145.7   4.9  33142  272.58 0865.00
2015 04 09 06 25 20 .15      18    -30      3     36     37 149.3   4.9  33142  272.58 0865.00
2015 04 09 06 25 20 .40      20    -42      4     47     48 154.6   4.9  33144  272.61 0865.00
2015 04 09 06 25 20 .65      20    -45      7     50     51 155.5   8.0  33138  272.50 0865.00
2015 04 09 06 25 20 .90      20    -45      7     50     51 155.5   8.0  33138  272.50 0865.00
2015 04 09 06 25 21 .15      20    -45      7     50     51 155.5   8.0  33138  272.50 0865.00
2015 04 09 06 25 21 .40      30    -30     17     43     46 134.9  22.0  33138  272.50 0865.00
2015 04 09 06 25 21 .65      19    -34     12     40     42 151.0  17.3  33140  272.53 0865.00
2015 04 09 06 25 21 .90      18    -34      5     39     40 151.0   8.0  33148  272.66 0865.00
2015 04 09 06 25 22 .15      20    -30      1     37     38 145.7   2.8  33136  272.47 0865.00
2015 04 09 06 25 22 .40      25    -25     12     36     39 135.0  19.4  33146  272.65 0865.00
2015 04 09 06 25 22 .65      22    -22     10     32     34 135.0  17.3  33142  272.58 0865.00
2015 04 09 06 25 22 .90      19    -20     13     28     30 136.6  27.1  33140  272.53 0865.00
2015 04 09 06 25 23 .16      23    -19     10     31     33 129.5  19.2  33138  272.52 0865.00
2015 04 09 06 25 23 .41      29    -20     15     36     39 124.2  21.0  33136  272.47 0865.00
2015 04 09 06 25 23 .66      32    -23     17     40     43 126.0  23.0  33132  272.40 0865.00
2015 04 09 06 25 23 .91      26    -28      7     39     40 136.6  11.1  33130  272.38 0865.01
2015 04 09 06 25 24 .17      25    -25      1     36     37 135.0   2.9  33134  272.43 0865.01
2015 04 09 06 25 24 .42      23    -19     10     31     33 129.5  19.2  33138  272.52 0865.01
2015 04 09 06 25 24 .66      33    -21     14     40     43 122.4  19.4  33134  272.45 0865.01
2015 04 09 06 25 24 .92      33    -21     14     40     43 122.4  19.4  33134  272.45 0865.01
2015 04 09 06 25 25 .17      35    -23      7     43     44 123.3  10.1  33136  272.48 0865.01
2015 04 09 06 25 25 .42      33    -23     11     41     43 124.2  15.3  33136  272.47 0865.01
2015 04 09 06 25 25 .67      35    -23      7     43     44 123.3  10.1  33136  272.48 0865.01
2015 04 09 06 25 25 .92      35    -23      7     43     44 123.3  10.1  33136  272.48 0865.01
2015 04 09 06 25 26 .17      30    -23      3     39     40 127.8   4.9  33140  272.53 0865.01
2015 04 09 06 25 26 .42      30    -23      3     39     40 127.8   4.9  33140  272.53 0865.01
2015 04 09 06 25 26 .67      27    -25      9     38     40 133.1  13.2  33140  272.53 0865.01
2015 04 09 06 25 26 .92      26    -23     12     35     38 131.3  18.9  33138  272.50 0865.01
2015 04 09 06 25 27 .17      26    -23     12     35     38 131.3  18.9  33138  272.50 0865.01
2015 04 09 06 25 27 .42      35    -23      7     43     44 123.3  10.1  33136  272.48 0865.01
2015 04 09 06 25 27 .67      35    -23      7     43     44 123.3  10.1  33136  272.48 0865.01
2015 04 09 06 25 27 .92      30    -23      3     39     40 127.8   4.9  33136  272.48 0865.01
2015 04 09 06 25 28 .17      35    -23      7     43     44 123.3  10.1  33136  272.48 0865.01
2015 04 09 06 25 28 .42      40    -23      4     47     48 119.8   5.9  33136  272.47 0865.01
2015 04 09 06 25 28 .67      39    -31      5     51     52 128.6   5.9  33132  272.42 0865.01
2015 04 09 06 25 28 .93      38    -27      2     47     48 126.0   2.9  33134  272.43 0865.01
2015 04 09 06 25 29 .17      43    -27      0     51     52 122.5  -0.3  33130  272.37 0865.01
2015 04 09 06 25 29 .43      47    -29      2     56     57 121.5   2.9  33130  272.37 0865.01
2015 04 09 06 25 29 .68      38    -28      9     48     49 126.0  11.1  33130  272.37 0865.01
2015 04 09 06 25 29 .93      43    -27      7     51     52 122.5   8.0  33132  272.40 0865.01
2015 04 09 06 25 30 .19      38    -27      2     47     48 126.0   2.9  33134  272.43 0865.01
2015 04 09 06 25 30 .44      42    -19      8     47     48 114.4  10.1  33134  272.45 0865.01
2015 04 09 06 25 30 .69      43    -27      7     51     52 122.5   8.0  33132  272.40 0865.01
2015 04 09 06 25 30 .94      36    -24      6     44     45 124.2   8.0  33132  272.40 0865.01
2015 04 09 06 25 31 .19      39    -31      5     51     52 128.6   5.9  33132  272.42 0865.01
2015 04 09 06 25 31 .44      45    -24      2     52     53 118.0   2.8  33128  272.34 0865.01
2015 04 09 06 25 31 .69      40    -23      4     47     48 119.8   4.9  33126  272.32 0865.01
2015 04 09 06 25 31 .94      49    -23      0     55     56 115.3   0.8  33126  272.32 0865.01
2015 04 09 06 25 32 .19      49    -23      0     55     56 115.3   0.8  33126  272.32 0865.01
2015 04 09 06 25 32 .44      47    -29     -2     56     57 121.5  -2.2  33126  272.30 0865.01
2015 04 09 06 25 32 .69      38    -27      2     47     48 126.0   2.9  33126  272.30 0865.01
2015 04 09 06 25 32 .95      39    -30     -1     50     51 127.8  -2.2  33128  272.34 0865.01
2015 04 09 06 25 33 .19      39    -34      0     53     54 131.3   0.8  33138  272.52 0865.01
2015 04 09 06 25 33 .45      43    -27      0     51     52 122.5   0.8  33138  272.52 0865.01
2015 04 09 06 25 33 .70      39    -31      5     51     52 128.6   5.9  33142  272.57 0865.01
2015 04 09 06 25 33 .95      35    -24     -3     43     44 125.1  -5.2  33136  272.48 0865.01
2015 04 09 06 25 34 .20      35    -23      0     42     43 123.3  -0.3  33132  272.42 0865.01
2015 04 09 06 25 34 .45      33    -27     -1     43     44 129.5  -2.2  33130  272.38 0865.01
2015 04 09 06 25 34 .70      33    -23     -1     41     42 124.2  -2.2  33126  272.32 0865.01
2015 04 09 06 25 34 .95      28    -19      1     35     36 124.2   2.8  33130  272.37 0865.01
2015 04 09 06 25 35 .20      28    -19      1     35     36 124.2   2.8  33126  272.32 0865.01
2015 04 09 06 25 35 .45      28    -19      1     35     36 124.2   2.8  33126  272.32 0865.01
2015 04 09 06 25 35 .70      33    -21     -1     40     41 122.4  -2.2  33126  272.30 0865.01
2015 04 09 06 25 35 .95      35    -23      0     43     44 123.3  -0.3  33124  272.27 0865.01
2015 04 09 06 25 36 .20      33    -21     -1     40     41 122.4  -2.2  33126  272.30 0865.01
2015 04 09 06 25 36 .45      33    -21     -1     40     41 122.4  -2.2  33122  272.25 0865.01
2015 04 09 06 25 36 .70      35    -23      0     43     44 123.3  -0.3  33124  272.27 0865.01
2015 04 09 06 25 36 .95      31    -22      2     39     40 126.0   3.8  33122  272.25 0865.01
2015 04 09 06 25 37 .21      31    -22      2     39     40 126.0   3.8  33122  272.25 0865.01
2015 04 09 06 25 37 .47      28    -19      1     35     36 124.2   2.8  33120  272.22 0865.01
2015 04 09 06 25 37 .71      28    -19      1     35     36 124.2   2.8  33120  272.22 0865.01
2015 04 09 06 25 37 .97      28    -19      1     35     36 124.2   2.8  33120  272.22 0865.01
2015 04 09 06 25 38 .22      24    -24     -1     34     35 134.9  -2.2  33120  272.20 0865.01
2015 04 09 06 25 38 .47      31    -26     -1     41     42 130.4  -2.2  33120  272.20 0865.01
2015 04 09 06 25 38 .72      31    -31      2     44     45 135.0   2.9  33118  272.19 0865.01
2015 04 09 06 25 38 .97      28    -19      1     35     36 124.2   2.8  33118  272.17 0865.01
2015 04 09 06 25 39 .22      26    -27      0     38     39 136.6   0.8  33120  272.22 0865.01
2015 04 09 06 25 39 .47      31    -22      2     39     40 126.0   3.8  33122  272.25 0865.01
2015 04 09 06 25 39 .72      33    -23     -1     41     42 124.2  -2.2  33126  272.32 0865.01
2015 04 09 06 25 39 .97      33    -21     -1     40     41 122.4  -2.2  33126  272.30 0865.01
2015 04 09 06 25 40 .22      30    -30     -1     43     44 135.0  -2.2  33124  272.27 0865.01
2015 04 09 06 25 40 .47      30    -30     -1     43     44 135.0  -2.2  33124  272.27 0865.01
2015 04 09 06 25 40 .72      33    -21     -1     40     41 122.4  -2.2  33126  272.30 0865.01
2015 04 09 06 25 40 .97      33    -27     -1     43     44 129.5  -2.2  33126  272.30 0865.01
2015 04 09 06 25 41 .22      30    -30     -1     43     44 135.0  -2.2  33124  272.27 0865.01
2015 04 09 06 25 41 .47      34    -30      0     46     47 131.3  -0.3  33126  272.32 0865.01
2015 04 09 06 25 41 .72      33    -23     -1     41     42 124.2  -2.2  33126  272.32 0865.01
2015 04 09 06 25 41 .97      30    -30     -1     43     44 135.0  -2.2  33124  272.27 0865.01
2015 04 09 06 25 42 .22      30    -30     -1     43     44 135.0  -2.2  33124  272.27 0865.00
2015 04 09 06 25 42 .48      33    -27     -1     43     44 129.5  -2.2  33122  272.25 0865.00
2015 04 09 06 25 42 .73      30    -26     -1     40     41 131.3  -2.2  33122  272.24 0865.00
2015 04 09 06 25 42 .98      25    -30     -1     40     41 140.3  -2.2  33122  272.24 0865.00
2015 04 09 06 25 43 .23      29    -34      0     45     46 139.5   0.8  33120  272.22 0865.00
2015 04 09 06 25 43 .48      33    -33     -1     47     48 135.0  -2.2  33124  272.29 0865.00
2015 04 09 06 25 43 .73      35    -38      0     52     53 137.7  -0.3  33124  272.27 0865.00
2015 04 09 06 25 43 .99      37    -34      2     51     52 132.2   2.9  33128  272.35 0865.00
2015 04 09 06 25 44 .24      29    -29      2     42     43 134.9   2.9  33128  272.35 0865.00
2015 04 09 06 25 44 .49      33    -33     -1     47     48 135.0  -2.2  33124  272.29 0865.00
2015 04 09 06 25 44 .74      31    -37      2     49     50 140.4   2.9  33124  272.29 0865.00
2015 04 09 06 25 44 .99      37    -34      2     51     52 132.2   2.9  33124  272.29 0865.00
2015 04 09 06 25 45 .24      35    -38      0     52     53 137.7  -0.3  33124  272.27 0865.00
2015 04 09 06 25 45 .49      36    -36     10     51     53 134.9  11.1  33126  272.32 0865.00
2015 04 09 06 25 45 .74      33    -33      4     47     48 135.0   5.9  33130  272.37 0865.00
2015 04 09 06 25 45 .99      33    -33      4     47     48 135.0   5.9  33130  272.37 0865.00
2015 04 09 06 25 46 .25      38    -38      2     54     55 135.0   2.9  33136  272.47 0865.00
2015 04 09 06 25 46 .49      34    -37      7     51     52 137.7   8.0  33136  272.48 0865.00
2015 04 09 06 25 46 .75      34    -35      2     50     51 135.8   2.8  33134  272.45 0865.00
2015 04 09 06 25 47 .00      40    -33      6     53     54 129.5   6.9  33134  272.43 0865.00
2015 04 09 06 25 47 .25      39    -34      0     53     54 131.3   0.8  33138  272.52 0865.00
2015 04 09 06 25 47 .50      35    -35      2     50     51 135.0   2.9  33140  272.53 0865.00
2015 04 09 06 25 47 .75      34    -37      7     51     52 137.7   8.0  33136  272.48 0865.00
2015 04 09 06 25 48 .00      42    -38      2     57     58 132.2   2.8  33136  272.48 0865.00
2015 04 09 06 25 48 .25      38    -38      2     54     55 135.0   2.9  33136  272.47 0865.00
2015 04 09 06 25 48 .50      38    -38      2     54     55 135.0   2.9  33136  272.47 0865.00
2015 04 09 06 25 48 .75      34    -37      7     51     52 137.7   8.0  33136  272.48 0865.00
2015 04 09 06 25 49 .00      38    -38      2     54     55 135.0   2.9  33136  272.47 0865.00
2015 04 09 06 25 49 .25      38    -38      2     54     55 135.0   2.9  33136  272.47 0865.00
2015 04 09 06 25 49 .50      39    -34      0     53     54 131.3   0.8  33138  272.52 0865.00
2015 04 09 06 25 49 .75      39    -34      0     53     54 131.3   0.8  33138  272.52 0865.00
2015 04 09 06 25 50 .00      39    -34      0     53     54 131.3   0.8  33138  272.52 0865.00
2015 04 09 06 25 50 .25      38    -38     -2     54     55 135.0  -2.2  33140  272.53 0865.00
2015 04 09 06 25 50 .51      38    -38     -2     54     55 135.0  -2.2  33140  272.53 0865.00
2015 04 09 06 25 50 .75      38    -38     -2     54     55 135.0  -2.2  33140  272.53 0865.00
2015 04 09 06 25 51 .02      38    -38     -2     54     55 135.0  -2.2  33140  272.53 0865.00
2015 04 09 06 25 51 .27      34    -37      0     51     52 137.7  -0.3  33140  272.55 0865.01
2015 04 09 06 25 51 .52      34    -37      0     51     52 137.7  -0.3  33140  272.55 0865.01
2015 04 09 06 25 51 .77      40    -33      0     53     54 129.5   0.8  33142  272.57 0865.01
2015 04 09 06 25 52 .02      43    -31      2     54     55 126.0   2.9  33140  272.53 0865.01
2015 04 09 06 25 52 .27      39    -31      5     51     52 128.6   5.9  33142  272.57 0865.01
2015 04 09 06 25 52 .52      43    -27      0     51     52 122.5   0.8  33142  272.57 0865.01
2015 04 09 06 25 52 .77      43    -31      2     54     55 126.0   2.9  33140  272.53 0865.01
2015 04 09 06 25 53 .02      43    -31      2     54     55 126.0   2.9  33140  272.53 0865.01
2015 04 09 06 25 53 .27      43    -31      2     54     55 126.0   2.9  33140  272.53 0865.01
2015 04 09 06 25 53 .52      39    -34      0     53     54 131.3   0.8  33138  272.52 0865.01
2015 04 09 06 25 53 .77      39    -34      0     53     54 131.3   0.8  33138  272.52 0865.01
2015 04 09 06 25 54 .02      39    -34      0     53     54 131.3   0.8  33138  272.52 0865.00
2015 04 09 06 25 54 .27      34    -35      2     50     51 135.8   2.8  33140  272.53 0865.00
2015 04 09 06 25 54 .52      39    -34      0     53     54 131.3   0.8  33138  272.52 0865.00
2015 04 09 06 25 54 .77      39    -34      0     53     54 131.3   0.8  33138  272.52 0865.00
2015 04 09 06 25 55 .03      39    -34      0     53     54 131.3   0.8  33138  272.52 0865.00
2015 04 09 06 25 55 .28      34    -35      2     50     51 135.8   2.8  33140  272.53 0865.00
2015 04 09 06 25 55 .53      34    -35      2     50     51 135.8   2.8  33140  272.53 0865.00
2015 04 09 06 25 55 .78      34    -35      2     50     51 135.8   2.8  33140  272.53 0865.01
2015 04 09 06 25 56 .03      39    -34      0     53     54 131.3   0.8  33138  272.52 0865.01
2015 04 09 06 25 56 .28      34    -35      2     50     51 135.8   2.8  33140  272.53 0865.01
2015 04 09 06 25 56 .53      34    -35      2     50     51 135.8   2.8  33140  272.53 0865.01
2015 04 09 06 25 56 .78      33    -33      4     48     49 135.0   4.9  33138  272.52 0865.01
2015 04 09 06 25 57 .03      33    -33      4     48     49 135.0   4.9  33138  272.52 0865.01
2015 04 09 06 25 57 .28      34    -37      7     51     52 137.7   8.0  33136  272.48 0865.01
2015 04 09 06 25 57 .53      38    -38      2     54     55 135.0   2.9  33136  272.47 0865.00
2015 04 09 06 25 57 .78      34    -37      7     51     52 137.7   8.0  33136  272.48 0865.00
2015 04 09 06 25 58 .04      37    -45     -2     59     60 140.3  -2.2  33136  272.48 0865.00
2015 04 09 06 25 58 .29      36    -41     -2     55     56 138.6  -2.2  33138  272.52 0865.00
2015 04 09 06 25 58 .54      38    -38     -2     54     55 135.0  -2.2  33140  272.53 0865.00
2015 04 09 06 25 58 .79      36    -41     -2     55     56 138.6  -2.2  33138  272.52 0865.00
2015 04 09 06 25 59 .04      36    -41     -2     55     56 138.6  -2.2  33138  272.52 0865.00
2015 04 09 06 25 59 .29      38    -38     -2     54     55 135.0  -2.2  33140  272.53 0865.00
2015 04 09 06 25 59 .54      38    -38     -2     54     55 135.0  -2.2  33140  272.53 0865.00
2015 04 09 06 25 59 .79      38    -38     -2     54     55 135.0  -2.2  33140  272.53 0865.00
2015 04 09 06 26 00 .07      38    -38     -2     54     55 135.0  -2.2  33140  272.53 0865.00
2015 04 09 06 26 00 .30      38    -38     -2     54     55 135.0  -2.2  33140  272.53 0865.00
2015 04 09 06 26 00 .55      38    -38     -2     54     55 135.0  -2.2  33140  272.53 0865.00
2015 04 09 06 26 00 .80      34    -37      0     51     52 137.7  -0.3  33140  272.55 0865.00
2015 04 09 06 26 01 .29      34    -37      0     51     52 137.7  -0.3  33140  272.55 0865.00
2015 04 09 06 26 01 .30      38    -45     -2     60     61 139.5  -2.2  33146  272.63 0865.00
2015 04 09 06 26 01 .55      41    -41     -1     59     60 135.0  -1.2  33144  272.61 0865.00
2015 04 09 06 26 01 .80      41    -41     -1     59     60 135.0  -1.2  33144  272.61 0865.00
2015 04 09 06 26 02 .05      40    -44     -1     60     61 137.7  -1.3  33146  272.63 0865.00
2015 04 09 06 26 02 .30      38    -45     -2     60     61 139.5  -2.2  33146  272.63 0865.00
2015 04 09 06 26 02 .55      38    -39      3     55     56 135.8   3.8  33144  272.61 0865.00
2015 04 09 06 26 02 .80      34    -37      0     51     52 137.7  -0.3  33140  272.55 0865.00
2015 04 09 06 26 03 .05      34    -37      0     51     52 137.7  -0.3  33140  272.55 0865.00
2015 04 09 06 26 03 .30      34    -37      0     51     52 137.7  -0.3  33140  272.55 0864.99
2015 04 09 06 26 03 .56      34    -37      0     51     52 137.7  -0.3  33140  272.55 0864.99
2015 04 09 06 26 03 .81      34    -37      0     51     52 137.7  -0.3  33140  272.55 0864.99
2015 04 09 06 26 04 .06      39    -31      5     51     52 128.6   5.9  33142  272.57 0864.99
2015 04 09 06 26 04 .31      34    -37      0     51     52 137.7  -0.3  33140  272.55 0864.99
2015 04 09 06 26 04 .56      38    -38     -2     54     55 135.0  -2.2  33140  272.53 0864.99
2015 04 09 06 26 04 .82      33    -32      0     47     48 134.0   0.8  33136  272.47 0864.99
2015 04 09 06 26 05 .07      33    -32      0     47     48 134.0   0.8  33136  272.47 0864.99
2015 04 09 06 26 05 .32      39    -34      0     53     54 131.3   0.8  33138  272.52 0864.99
2015 04 09 06 26 05 .57      34    -37      0     51     52 137.7  -0.3  33140  272.55 0864.99
2015 04 09 06 26 05 .82      34    -37      0     51     52 137.7  -0.3  33140  272.55 0864.99
2015 04 09 06 26 06 .07      34    -37      0     51     52 137.7  -0.3  33140  272.55 0864.99
2015 04 09 06 26 06 .32      34    -37      0     51     52 137.7  -0.3  33140  272.55 0864.99
2015 04 09 06 26 06 .57      38    -45     -2     60     61 139.5  -2.2  33146  272.63 0864.99
2015 04 09 06 26 06 .82      38    -45     -2     60     61 139.5  -2.2  33146  272.63 0864.99
2015 04 09 06 26 07 .07      38    -45     -2     60     61 139.5  -2.2  33146  272.63 0864.99
2015 04 09 06 26 07 .32      38    -45     -2     60     61 139.5  -2.2  33146  272.63 0864.99
2015 04 09 06 26 07 .57      38    -45     -2     60     61 139.5  -2.2  33146  272.63 0864.99
2015 04 09 06 26 07 .82      38    -45     -2     60     61 139.5  -2.2  33146  272.63 0864.99
2015 04 09 06 26 08 .07      38    -45     -2     60     61 139.5  -2.2  33146  272.63 0864.99
2015 04 09 06 26 08 .32      37    -43     -2     57     58 139.5  -2.2  33148  272.66 0864.99
2015 04 09 06 26 08 .58      38    -45     -2     60     61 139.5  -2.2  33146  272.63 0864.99
2015 04 09 06 26 08 .83      39    -40     -2     56     57 135.8  -2.2  33148  272.68 0864.99
2015 04 09 06 26 09 .08      43    -38      2     58     59 131.3   2.9  33146  272.63 0864.99
2015 04 09 06 26 09 .33      43    -38      2     58     59 131.3   2.9  33146  272.63 0864.99
2015 04 09 06 26 09 .58      43    -38      2     58     59 131.3   2.9  33146  272.63 0864.99
2015 04 09 06 26 09 .83      41    -41     -1     59     60 135.0  -1.2  33148  272.66 0864.99
2015 04 09 06 26 10 .08      41    -42      0     59     60 135.8  -0.3  33146  272.65 0864.99
2015 04 09 06 26 10 .33      43    -38      2     58     59 131.3   2.9  33146  272.63 0864.99
2015 04 09 06 26 10 .58      39    -40     -2     56     57 135.8  -2.2  33148  272.68 0864.99
2015 04 09 06 26 10 .83      39    -40     -2     56     57 135.8  -2.2  33148  272.68 0864.99
2015 04 09 06 26 11 .08      39    -40     -2     56     57 135.8  -2.2  33148  272.68 0864.99
2015 04 09 06 26 11 .33      43    -35      1     56     57 129.6   1.8  33148  272.66 0864.99
2015 04 09 06 26 11 .58      43    -35      1     56     57 129.6   1.8  33148  272.66 0864.99
2015 04 09 06 26 11 .84      43    -35      1     56     57 129.6   1.8  33148  272.66 0864.99
2015 04 09 06 26 12 .09      43    -35      1     56     57 129.6   1.8  33148  272.66 0864.99
2015 04 09 06 26 12 .35      43    -38      2     58     59 131.3   2.9  33146  272.63 0864.99
2015 04 09 06 26 12 .59      38    -45     -2     60     61 139.5  -2.2  33146  272.63 0864.99
2015 04 09 06 26 12 .85      38    -39      3     55     56 135.8   3.8  33144  272.61 0864.99
2015 04 09 06 26 13 .10      34    -37      8     51     52 137.7   9.0  33146  272.63 0864.99
2015 04 09 06 26 13 .35      34    -37      8     51     52 137.7   9.0  33146  272.63 0864.99
2015 04 09 06 26 13 .60      34    -37      8     51     52 137.7   9.0  33146  272.63 0864.99
2015 04 09 06 26 13 .85      38    -39      3     55     56 135.8   3.8  33144  272.61 0864.99
2015 04 09 06 26 14 .10      38    -39      3     55     56 135.8   3.8  33144  272.61 0864.99
2015 04 09 06 26 14 .35      43    -38      2     58     59 131.3   2.9  33146  272.63 0864.99
2015 04 09 06 26 14 .60      38    -39      3     55     56 135.8   3.8  33144  272.61 0864.99
2015 04 09 06 26 14 .85      33    -33      6     48     49 135.0   8.0  33148  272.66 0864.99
2015 04 09 06 26 15 .10      38    -39      3     55     56 135.8   3.8  33144  272.61 0864.99
2015 04 09 06 26 15 .35      33    -33      6     48     49 135.0   8.0  33148  272.66 0864.99
2015 04 09 06 26 15 .60      39    -32      5     51     52 129.5   5.9  33150  272.71 0864.99
2015 04 09 06 26 15 .85      33    -33      6     48     49 135.0   8.0  33148  272.66 0864.99
2015 04 09 06 26 16 .10      34    -37      8     51     52 137.7   9.0  33146  272.63 0864.99
2015 04 09 06 26 16 .35      34    -37      8     51     52 137.7   9.0  33146  272.63 0864.99
2015 04 09 06 26 16 .60      34    -37      8     51     52 137.7   9.0  33146  272.63 0864.99
2015 04 09 06 26 16 .86      38    -39      3     55     56 135.8   3.8  33144  272.61 0865.00
2015 04 09 06 26 17 .11      34    -37      8     51     52 137.7   9.0  33146  272.63 0865.00
2015 04 09 06 26 17 .36      38    -38      3     55     56 135.0   3.8  33154  272.76 0865.00
2015 04 09 06 26 17 .61      38    -38      3     55     56 135.0   3.8  33154  272.76 0865.00
2015 04 09 06 26 17 .86      42    -38      2     57     58 132.2   2.9  33146  272.63 0865.00
2015 04 09 06 26 18 .11      39    -32      5     51     52 129.5   5.9  33150  272.71 0865.00
2015 04 09 06 26 18 .36      39    -32      5     51     52 129.5   5.9  33150  272.71 0865.00
2015 04 09 06 26 18 .61      33    -33      6     48     49 135.0   8.0  33148  272.66 0865.00
2015 04 09 06 26 18 .87      39    -32      5     51     52 129.5   5.9  33150  272.71 0865.00
2015 04 09 06 26 19 .12      41    -34      7     54     55 130.4   8.0  33152  272.73 0865.00
2015 04 09 06 26 19 .37      38    -38      3     55     56 135.0   3.8  33154  272.76 0865.00
2015 04 09 06 26 19 .62      34    -35      2     50     51 135.8   2.8  33154  272.78 0865.00
2015 04 09 06 26 19 .87      38    -38      3     55     56 135.0   3.8  33154  272.76 0865.00
2015 04 09 06 26 20 .12      38    -38      3     55     56 135.0   3.8  33154  272.76 0865.00
2015 04 09 06 26 20 .37      39    -32      5     51     52 129.5   5.9  33150  272.71 0865.00
2015 04 09 06 26 20 .62      39    -32      5     51     52 129.5   5.9  33150  272.71 0865.00
2015 04 09 06 26 20 .87      41    -34      7     54     55 130.4   8.0  33148  272.68 0865.00
2015 04 09 06 26 21 .12      39    -32      5     51     52 129.5   5.9  33150  272.71 0865.00
2015 04 09 06 26 21 .38      43    -35      1     56     57 129.6   1.8  33148  272.66 0865.00
2015 04 09 06 26 21 .63      39    -31      5     51     52 128.6   5.9  33142  272.57 0865.00
2015 04 09 06 26 21 .88      35    -34      2     50     51 134.0   2.9  33142  272.58 0865.00
2015 04 09 06 26 22 .13      39    -31      5     51     52 128.6   5.9  33142  272.57 0865.00
2015 04 09 06 26 22 .38      34    -35      2     50     51 135.8   2.8  33140  272.53 0865.00
2015 04 09 06 26 22 .63      33    -33      4     48     49 135.0   4.9  33138  272.52 0865.00
2015 04 09 06 26 22 .88      34    -37      0     51     52 137.7  -0.3  33140  272.55 0865.00
2015 04 09 06 26 23 .13      34    -37      0     51     52 137.7  -0.3  33140  272.55 0865.00
2015 04 09 06 26 23 .38      34    -35      2     50     51 135.8   2.8  33140  272.53 0865.00
2015 04 09 06 26 23 .63      33    -33      4     48     49 135.0   4.9  33138  272.52 0865.00
2015 04 09 06 26 23 .88      38    -38      2     54     55 135.0   2.9  33136  272.47 0865.00
2015 04 09 06 26 24 .13      34    -37      7     51     52 137.7   8.0  33136  272.48 0865.00
2015 04 09 06 26 24 .38      34    -37      7     51     52 137.7   8.0  33136  272.48 0865.00
2015 04 09 06 26 24 .63      34    -37      7     51     52 137.7   8.0  33136  272.48 0865.00
2015 04 09 06 26 24 .88      34    -35      2     50     51 135.8   2.8  33140  272.53 0865.00
2015 04 09 06 26 25 .13      38    -39      3     55     56 135.8   3.8  33144  272.61 0865.00
2015 04 09 06 26 25 .38      38    -39      3     55     56 135.8   3.8  33144  272.61 0865.00
2015 04 09 06 26 25 .63      43    -38      2     58     59 131.3   2.9  33146  272.63 0865.00
2015 04 09 06 26 25 .90      43    -35      1     56     57 129.6   1.8  33148  272.66 0865.00
2015 04 09 06 26 26 .15      43    -38      2     58     59 131.3   2.9  33146  272.63 0865.00
2015 04 09 06 26 26 .40      37    -41      2     56     57 137.7   2.9  33142  272.58 0865.00
2015 04 09 06 26 26 .65      38    -39      3     55     56 135.8   3.8  33144  272.61 0865.00
2015 04 09 06 26 26 .90      38    -39      3     55     56 135.8   3.8  33144  272.61 0865.00
2015 04 09 06 26 27 .15      43    -38      2     58     59 131.3   2.9  33146  272.63 0865.00
2015 04 09 06 26 27 .40      43    -35      1     56     57 129.6   1.8  33148  272.66 0865.00
2015 04 09 06 26 27 .65      38    -38      3     55     56 135.0   3.8  33154  272.76 0865.00
2015 04 09 06 26 27 .90      38    -38      3     55     56 135.0   3.8  33154  272.76 0865.00
2015 04 09 06 26 28 .15      38    -38      3     55     56 135.0   3.8  33154  272.76 0865.00
2015 04 09 06 26 28 .40      41    -38      2     57     58 133.1   2.9  33154  272.78 0865.00
2015 04 09 06 26 28 .65      41    -38      2     57     58 133.1   2.9  33154  272.78 0865.00
2015 04 09 06 26 28 .90      42    -41      0     59     60 134.1  -0.3  33156  272.80 0865.00
2015 04 09 06 26 29 .15      43    -46      3     64     65 136.8   2.9  33158  272.83 0865.00
2015 04 09 06 26 29 .40      39    -44     -1     60     61 138.6  -1.3  33154  272.78 0865.00
2015 04 09 06 26 29 .65      39    -44     -1     60     61 138.6  -1.3  33154  272.78 0865.00
2015 04 09 06 26 29 .91      36    -41     -2     55     56 138.6  -2.2  33156  272.81 0865.00
2015 04 09 06 26 30 .15      38    -38     -2     54     55 135.0  -2.2  33158  272.83 0865.00
2015 04 09 06 26 30 .41      36    -41     -2     55     56 138.6  -2.2  33156  272.81 0865.01
2015 04 09 06 26 30 .66      34    -37      0     51     52 137.7  -0.3  33158  272.85 0865.01
2015 04 09 06 26 30 .91      37    -41      2     56     57 137.7   2.9  33158  272.83 0865.01
2015 04 09 06 26 31 .16      37    -41      2     56     57 137.7   2.9  33158  272.83 0865.01
2015 04 09 06 26 31 .41      42    -41      0     59     60 134.1  -0.3  33156  272.80 0865.01
2015 04 09 06 26 31 .66      36    -41     -2     55     56 138.6  -2.2  33156  272.81 0865.01
2015 04 09 06 26 31 .91      34    -37      0     51     52 137.7  -0.3  33158  272.85 0865.01
2015 04 09 06 26 32 .16      28    -40      0     50     51 144.8  -0.3  33156  272.81 0865.01
2015 04 09 06 26 32 .41      30    -45      2     55     56 145.7   2.9  33154  272.78 0865.01
2015 04 09 06 26 32 .67      28    -40      0     50     51 144.8  -0.3  33156  272.81 0865.01
2015 04 09 06 26 32 .92      33    -42      4     54     55 141.3   4.9  33156  272.80 0865.01
2015 04 09 06 26 33 .17      37    -41      2     56     57 137.7   2.9  33152  272.73 0865.01
2015 04 09 06 26 33 .42      35    -38      1     52     53 137.7   1.8  33150  272.71 0865.01
2015 04 09 06 26 33 .67      37    -41      2     56     57 137.7   2.9  33152  272.73 0865.01
2015 04 09 06 26 33 .93      30    -45      2     55     56 145.7   2.9  33154  272.78 0865.01
2015 04 09 06 26 34 .17      31    -37      2     49     50 140.4   2.9  33158  272.83 0865.01
2015 04 09 06 26 34 .42      28    -40      0     50     51 144.8  -0.3  33156  272.81 0865.01
2015 04 09 06 26 34 .67      31    -37      2     49     50 140.4   2.9  33158  272.83 0865.01
2015 04 09 06 26 34 .93      28    -40      0     50     51 144.8  -0.3  33156  272.81 0865.01
2015 04 09 06 26 35 .18      31    -37      2     49     50 140.4   2.9  33158  272.83 0865.01
2015 04 09 06 26 35 .43      28    -40      0     50     51 144.8  -0.3  33156  272.81 0865.01
2015 04 09 06 26 35 .68      28    -40      0     50     51 144.8  -0.3  33156  272.81 0865.00
2015 04 09 06 26 35 .93      35    -38      1     52     53 137.7   1.8  33150  272.71 0865.00
2015 04 09 06 26 36 .18      30    -38      2     49     50 142.2   2.9  33148  272.68 0865.00
2015 04 09 06 26 36 .43      30    -38      2     49     50 142.2   2.9  33148  272.68 0865.00
2015 04 09 06 26 36 .68      33    -33      6     48     49 135.0   8.0  33148  272.66 0865.00
2015 04 09 06 26 36 .93      33    -33      6     48     49 135.0   8.0  33148  272.66 0865.00
2015 04 09 06 26 37 .18      33    -33      6     48     49 135.0   8.0  33148  272.66 0865.00
2015 04 09 06 26 37 .43      34    -37      8     51     52 137.7   9.0  33146  272.63 0865.00
2015 04 09 06 26 37 .68      27    -32      7     43     44 139.5  10.1  33142  272.58 0865.00
2015 04 09 06 26 37 .93      27    -32      7     43     44 139.5  10.1  33142  272.58 0865.00
2015 04 09 06 26 38 .19      33    -33      6     48     49 135.0   8.0  33148  272.66 0865.00
2015 04 09 06 26 38 .43      25    -39      4     47     48 147.4   5.9  33150  272.71 0865.00
2015 04 09 06 26 38 .68      25    -39      4     47     48 147.4   5.9  33150  272.71 0865.00
2015 04 09 06 26 38 .94      23    -34      3     42     43 145.7   4.9  33152  272.73 0865.00
2015 04 09 06 26 39 .19      25    -39      4     47     48 147.4   5.9  33150  272.71 0865.00
2015 04 09 06 26 39 .44      27    -34      2     44     45 141.3   2.8  33144  272.60 0865.00
2015 04 09 06 26 39 .70      23    -34      3     42     43 145.7   4.9  33142  272.58 0865.00
2015 04 09 06 26 39 .95      24    -37      5     45     46 146.6   6.9  33142  272.57 0865.00
2015 04 09 06 26 40 .20      24    -37      5     45     46 146.6   6.9  33142  272.57 0865.00
2015 04 09 06 26 40 .45      23    -34      3     42     43 145.7   4.9  33142  272.58 0865.00
2015 04 09 06 26 40 .70      23    -34      3     42     43 145.7   4.9  33142  272.58 0865.00
2015 04 09 06 26 40 .95      31    -37      2     49     50 140.4   2.9  33140  272.53 0865.00
2015 04 09 06 26 41 .20      30    -38      2     49     50 141.3   2.9  33142  272.58 0865.00
2015 04 09 06 26 41 .45      34    -37      0     51     52 137.7  -0.3  33140  272.55 0865.00
2015 04 09 06 26 41 .70      31    -37      2     49     50 140.4   2.9  33140  272.53 0865.00
2015 04 09 06 26 41 .95      34    -37      0     51     52 137.7  -0.3  33140  272.55 0865.00
2015 04 09 06 26 42 .20      34    -37      0     51     52 137.7  -0.3  33140  272.55 0865.00
2015 04 09 06 26 42 .45      24    -38     -1     46     47 147.5  -2.2  33146  272.63 0865.00
2015 04 09 06 26 42 .70      30    -38      2     49     50 141.3   2.9  33142  272.58 0865.00
2015 04 09 06 26 42 .96      27    -34      2     44     45 141.3   2.8  33144  272.60 0865.00
2015 04 09 06 26 43 .21      30    -38      2     49     50 141.3   2.9  33142  272.58 0865.00
2015 04 09 06 26 43 .45      26    -42      1     50     51 147.5   1.8  33144  272.60 0865.00
2015 04 09 06 26 43 .71      27    -43      0     51     52 147.5   0.8  33148  272.66 0865.00
2015 04 09 06 26 43 .96      23    -42      2     49     50 151.0   2.9  33148  272.68 0865.01
2015 04 09 06 26 44 .21      21    -46      7     51     52 154.6   8.0  33146  272.63 0865.01
2015 04 09 06 26 44 .46      18    -49      4     53     54 159.1   4.9  33148  272.66 0865.01
2015 04 09 06 26 44 .71      20    -42      4     47     48 154.6   4.9  33144  272.61 0865.01
2015 04 09 06 26 44 .96      24    -42      2     49     50 150.1   2.9  33142  272.58 0865.01
2015 04 09 06 26 45 .21      24    -37      5     45     46 146.6   6.9  33142  272.57 0865.01
2015 04 09 06 26 45 .46      24    -37      5     45     46 146.6   6.9  33142  272.57 0865.01
2015 04 09 06 26 45 .71      21    -37      6     43     44 150.1   9.0  33140  272.53 0865.00
2015 04 09 06 26 45 .96      21    -37      6     43     44 150.1   9.0  33140  272.53 0865.00
2015 04 09 06 26 46 .21      24    -37      5     45     46 146.6   6.9  33142  272.57 0865.00
2015 04 09 06 26 46 .46      24    -42      2     49     50 150.1   2.9  33142  272.58 0865.00
2015 04 09 06 26 46 .72      26    -38     -1     47     48 145.7  -2.2  33136  272.48 0865.00
2015 04 09 06 26 46 .98      28    -42      0     51     52 146.6  -0.3  33142  272.57 0865.00
2015 04 09 06 26 47 .22      26    -38     -1     47     48 145.7  -2.2  33136  272.48 0865.00
2015 04 09 06 26 47 .47      26    -38     -1     47     48 145.7  -2.2  33136  272.48 0865.00
2015 04 09 06 26 47 .73      28    -40      0     50     51 144.8  -0.3  33138  272.52 0865.00
2015 04 09 06 26 47 .99      24    -41      3     48     49 149.3   3.8  33140  272.53 0865.00
2015 04 09 06 26 48 .23      23    -42      2     49     50 151.0   2.9  33146  272.63 0865.00
2015 04 09 06 26 48 .48      24    -41      3     48     49 149.3   3.8  33140  272.53 0865.00
2015 04 09 06 26 48 .73      24    -41      3     48     49 149.3   3.8  33140  272.53 0865.00
2015 04 09 06 26 48 .98      21    -37      0     43     44 150.1   0.8  33138  272.52 0865.00
2015 04 09 06 26 49 .23      23    -38      0     45     46 149.3   0.8  33136  272.47 0865.00
2015 04 09 06 26 49 .48      20    -42     -1     47     48 154.6  -2.2  33142  272.58 0865.00
2015 04 09 06 26 49 .73      21    -37      6     43     44 150.1   9.0  33140  272.53 0865.00
2015 04 09 06 26 49 .98      21    -37      6     43     44 150.1   9.0  33140  272.53 0865.00
2015 04 09 06 26 50 .24      19    -41      5     46     47 155.5   6.9  33138  272.52 0865.00
2015 04 09 06 26 50 .48      20    -45      0     50     51 155.5  -0.3  33142  272.57 0865.00
2015 04 09 06 26 50 .73      21    -37      6     43     44 150.1   9.0  33140  272.53 0865.00
2015 04 09 06 26 50 .98      18    -34      5     39     40 151.0   8.0  33136  272.47 0865.00
2015 04 09 06 26 51 .23      20    -32      6     38     39 147.4  10.1  33138  272.50 0865.00
2015 04 09 06 26 51 .48      18    -34      5     39     40 151.0   8.0  33136  272.47 0865.00
2015 04 09 06 26 51 .74      21    -37      6     43     44 150.1   9.0  33140  272.53 0865.00
2015 04 09 06 26 51 .98      10    -38      8     40     41 164.9  12.2  33136  272.48 0865.00
2015 04 09 06 26 52 .23      10    -38      8     40     41 164.9  12.2  33136  272.48 0865.00
2015 04 09 06 26 52 .49      11    -41     11     43     45 164.9  15.3  33138  272.52 0865.00
2015 04 09 06 26 52 .74      19    -41      5     46     47 155.5   6.9  33138  272.52 0865.00
2015 04 09 06 26 52 .99      17    -37      3     41     42 155.5   4.9  33138  272.50 0865.00
2015 04 09 06 26 53 .24      17    -37      3     41     42 155.5   4.9  33138  272.50 0865.00
2015 04 09 06 26 53 .50      18    -34      5     39     40 151.0   8.0  33142  272.57 0865.00
2015 04 09 06 26 53 .75       7    -34      6     35     36 168.4  11.0  33138  272.52 0865.00
2015 04 09 06 26 54 .00      20    -32      6     38     39 147.4  10.1  33138  272.50 0865.00
2015 04 09 06 26 54 .25      21    -37      6     43     44 150.1   9.0  33140  272.53 0865.00
2015 04 09 06 26 54 .50      17    -38     10     42     44 155.5  14.3  33142  272.57 0865.00
2015 04 09 06 26 54 .75      12    -38     14     41     44 161.7  19.4  33140  272.53 0864.99
2015 04 09 06 26 55 .00       2    -37      4     38     39 175.5   5.9  33140  272.53 0864.99
2015 04 09 06 26 55 .25       2    -33      9     34     36 175.6  15.3  33140  272.53 0864.99
2015 04 09 06 26 55 .50       2    -37      4     38     39 175.5   5.9  33140  272.53 0864.99
2015 04 09 06 26 55 .75      16    -38     -1     42     43 156.4  -2.2  33142  272.57 0864.99
2015 04 09 06 26 56 .01      16    -37     -1     41     42 156.4  -2.2  33148  272.66 0864.99
2015 04 09 06 26 56 .26      12    -31     -1     34     35 158.2  -2.2  33146  272.63 0864.99
2015 04 09 06 26 56 .51      14    -32      6     35     36 156.4  11.0  33142  272.57 0865.00
2015 04 09 06 26 56 .76      14    -32      6     35     36 156.4  11.0  33142  272.57 0865.00
2015 04 09 06 26 57 .01      11    -35      1     37     38 161.7   2.9  33140  272.53 0865.00
2015 04 09 06 26 57 .26      11    -35      1     37     38 161.7   2.9  33140  272.53 0865.00
2015 04 09 06 26 57 .51       4    -29      4     30     31 172.0   9.0  33136  272.48 0865.00
2015 04 09 06 26 57 .76      11    -33      3     35     36 161.3   4.9  33134  272.43 0865.00
2015 04 09 06 26 58 .01      11    -33      3     35     36 161.3   4.9  33134  272.43 0865.00
2015 04 09 06 26 58 .26       8    -30      1     32     33 164.9   2.9  33136  272.47 0864.99
2015 04 09 06 26 58 .51      13    -30     -1     33     34 156.4  -2.2  33136  272.48 0864.99
2015 04 09 06 26 58 .76      12    -30      6     33     34 158.2  11.1  33132  272.42 0864.99
2015 04 09 06 26 59 .01       4    -29      4     30     31 172.0   9.0  33136  272.48 0864.99
2015 04 09 06 26 59 .26       7    -34      6     35     36 168.4  11.0  33138  272.52 0864.99
2015 04 09 06 26 59 .51      14    -32      6     35     36 156.4  11.0  33142  272.57 0864.99
2015 04 09 06 26 59 .77      18    -34      5     39     40 151.0   8.0  33144  272.60 0864.99
2015 04 09 06 27 00 .01      14    -32      6     35     36 156.4  11.0  33142  272.57 0864.99
2015 04 09 06 27 00 .27      22    -22     10     32     34 135.0  17.3  33140  272.55 0865.00
2015 04 09 06 27 00 .52      18    -30      3     36     37 149.3   4.9  33140  272.53 0865.00
2015 04 09 06 27 00 .78      20    -32      6     38     39 147.4  10.1  33138  272.50 0865.00
2015 04 09 06 27 01 .03      16    -27      7     32     33 149.3  13.2  33140  272.53 0865.00
2015 04 09 06 27 01 .28      13    -23     13     27     29 149.3  27.3  33140  272.53 0865.00
2015 04 09 06 27 01 .53      20    -32     10     38     40 147.4  15.3  33144  272.61 0865.00
2015 04 09 06 27 01 .78      18    -34      5     39     40 151.0   8.0  33144  272.60 0865.00
2015 04 09 06 27 02 .03      13    -45     -1     48     49 163.1  -2.2  33138  272.50 0865.00
2015 04 09 06 27 02 .28       5    -42     -1     43     44 172.0  -2.2  33136  272.48 0865.00
2015 04 09 06 27 02 .53       2    -36      1     37     38 175.5   2.9  33134  272.43 0865.00
2015 04 09 06 27 02 .78       8    -30      7     32     33 164.9  13.2  33134  272.43 0865.00
2015 04 09 06 27 03 .03      17    -38     10     42     44 155.5  14.3  33142  272.57 0865.00
2015 04 09 06 27 03 .28      21    -33     13     40     43 147.5  18.4  33142  272.58 0865.00
2015 04 09 06 27 03 .53      16    -34      6     38     39 154.6  10.1  33142  272.58 0865.00
2015 04 09 06 27 03 .78       9    -41      9     43     45 166.6  12.2  33144  272.61 0865.00
2015 04 09 06 27 04 .03       1    -40      8     41     42 178.2  11.1  33142  272.58 0865.00
2015 04 09 06 27 04 .29       9    -38      0     40     41 166.6  -0.3  33142  272.57 0865.00
2015 04 09 06 27 04 .53      11    -35      1     37     38 161.3   2.9  33142  272.58 0865.00
2015 04 09 06 27 04 .78      14    -32      6     35     36 156.4  11.0  33142  272.57 0865.00
2015 04 09 06 27 05 .03      18    -34      5     39     40 151.0   8.0  33138  272.52 0865.00
2015 04 09 06 27 05 .29      20    -32      6     38     39 147.4  10.1  33138  272.50 0865.00
2015 04 09 06 27 05 .54      25    -25     12     36     39 135.0  19.4  33136  272.47 0865.00
2015 04 09 06 27 05 .79      24    -35     10     43     45 145.7  13.2  33138  272.52 0865.00
2015 04 09 06 27 06 .04      20    -32      6     38     39 147.4  10.1  33138  272.50 0865.00
2015 04 09 06 27 06 .29      15    -33      1     37     38 154.7   2.8  33136  272.47 0865.00
2015 04 09 06 27 06 .54      12    -37      6     40     41 161.7   9.0  33136  272.47 0865.00
2015 04 09 06 27 06 .79       2    -32      6     33     34 175.5  11.1  33134  272.43 0865.00
2015 04 09 06 27 07 .04       2    -37      4     38     39 175.5   5.9  33140  272.53 0865.00
2015 04 09 06 27 07 .29       9    -32      8     34     35 163.1  13.2  33140  272.53 0865.00
2015 04 09 06 27 07 .55      11    -35      1     37     38 161.3   2.9  33142  272.58 0865.00
2015 04 09 06 27 07 .80      21    -37      6     43     44 150.1   9.0  33142  272.58 0865.00
2015 04 09 06 27 08 .05      20    -42      4     47     48 154.6   4.9  33144  272.61 0865.00
2015 04 09 06 27 08 .30      21    -37      6     43     44 150.1   9.0  33140  272.53 0864.99
2015 04 09 06 27 08 .55      21    -38     16     44     46 150.1  20.0  33130  272.37 0864.99
2015 04 09 06 27 08 .81      26    -43     10     51     52 149.3  11.1  33130  272.37 0864.99
2015 04 09 06 27 09 .06      24    -41      3     48     49 149.3   3.8  33140  272.53 0864.99
2015 04 09 06 27 09 .31      26    -43     10     51     52 149.3  11.1  33148  272.66 0864.99
2015 04 09 06 27 09 .56      23    -48      2     54     55 153.7   2.9  33150  272.71 0864.99
2015 04 09 06 27 09 .81      21    -46      0     51     52 154.6   0.8  33150  272.70 0864.99
2015 04 09 06 27 10 .06      23    -42      2     49     50 151.0   2.9  33146  272.63 0864.99
2015 04 09 06 27 10 .31      20    -42     -1     47     48 154.6  -2.2  33152  272.73 0864.99
2015 04 09 06 27 10 .56      14    -42      8     45     46 161.7  10.1  33148  272.68 0864.99
2015 04 09 06 27 10 .81      23    -35     11     42     44 146.6  15.3  33156  272.81 0864.99
2015 04 09 06 27 11 .06      16    -35     21     39     44 154.6  31.4  33158  272.85 0864.99
2015 04 09 06 27 11 .32      19    -42     19     47     50 155.5  23.0  33162  272.91 0864.99
2015 04 09 06 27 11 .56       9    -43     22     45     50 167.5  27.3  33168  272.99 0864.99
2015 04 09 06 27 11 .81       5    -49     19     50     53 173.8  20.0  33166  272.96 0864.99
2015 04 09 06 27 12 .06       2    -37     17     38     41 175.5  25.1  33160  272.88 0864.99
2015 04 09 06 27 12 .31       4    -37     24     38     44 173.8  35.5  33162  272.91 0864.99
2015 04 09 06 27 12 .57      12    -38     20     41     45 161.7  28.2  33166  272.96 0864.99
2015 04 09 06 27 12 .81      13    -32     20     35     40 158.2  32.4  33166  272.96 0864.99
2015 04 09 06 27 13 .06      19    -31     24     37     44 147.5  36.5  33154  272.76 0864.99
2015 04 09 06 27 13 .31      16    -35     16     39     42 154.6  23.0  33148  272.66 0864.99
2015 04 09 06 27 13 .56      16    -34     15     38     40 154.7  22.0  33144  272.61 0864.99
2015 04 09 06 27 13 .82      13    -31     11     34     37 156.4  18.9  33146  272.63 0864.99
2015 04 09 06 27 14 .07       2    -34     15     35     38 175.6  23.0  33144  272.60 0864.99
2015 04 09 06 27 14 .32       0    -47      3     48     49 180.9   3.8  33142  272.58 0864.99
2015 04 09 06 27 14 .58      -3    -44      1     45     46 184.4   1.8  33142  272.57 0864.99
2015 04 09 06 27 14 .83       0    -37     13     38     41 180.9  19.2  33146  272.63 0865.00
2015 04 09 06 27 15 .08       2    -34      6     35     36 175.5  11.1  33146  272.63 0865.00
2015 04 09 06 27 15 .33      -1    -30      6     31     32 182.6  11.0  33150  272.71 0865.00
2015 04 09 06 27 15 .58      -1    -33      1     34     35 182.6   2.9  33152  272.73 0865.00
2015 04 09 06 27 15 .83       3    -30     -1     31     32 173.8  -2.2  33150  272.71 0864.99
2015 04 09 06 27 16 .08       3    -30     -1     31     32 173.8  -2.2  33150  272.71 0864.99
2015 04 09 06 27 16 .33      -1    -36     -1     37     38 182.6  -2.2  33146  272.65 0864.99
2015 04 09 06 27 16 .58      -2    -28      9     29     31 184.4  17.3  33146  272.63 0864.99
2015 04 09 06 27 16 .83       5    -33      4     34     35 170.2   6.9  33148  272.66 0864.99
2015 04 09 06 27 17 .08      10    -38      8     40     41 164.9  12.2  33136  272.48 0864.99
2015 04 09 06 27 17 .33      17    -37      3     41     42 155.5   4.9  33138  272.50 0864.99
2015 04 09 06 27 17 .59      11    -41      2     43     44 164.9   2.9  33140  272.55 0865.00
2015 04 09 06 27 17 .84       5    -39     13     40     43 172.0  18.4  33140  272.53 0865.00
2015 04 09 06 27 18 .09      17    -37      3     41     42 155.5   4.9  33138  272.50 0865.00
2015 04 09 06 27 18 .34      17    -37      3     41     42 155.5   4.9  33138  272.50 0865.00
2015 04 09 06 27 18 .59      16    -37      5     41     42 156.4   6.9  33136  272.48 0865.00
2015 04 09 06 27 18 .84      12    -37      6     40     41 161.7   9.0  33136  272.47 0865.00
2015 04 09 06 27 19 .09       9    -41      3     43     44 166.6   4.9  33134  272.43 0865.00
2015 04 09 06 27 19 .34       9    -41      3     43     44 166.6   4.9  33134  272.43 0865.00
2015 04 09 06 27 19 .59       9    -41      3     43     44 166.6   4.9  33134  272.43 0865.00
2015 04 09 06 27 19 .84      16    -46      2     49     50 160.0   2.9  33130  272.38 0865.00
2015 04 09 06 27 20 .09      16    -46      2     49     50 160.0   2.9  33130  272.38 0865.00
2015 04 09 06 27 20 .34      20    -42      4     47     48 154.6   4.9  33130  272.37 0865.00
2015 04 09 06 27 20 .59      20    -42      4     47     48 154.6   4.9  33130  272.37 0865.00
2015 04 09 06 27 20 .84      16    -46      2     49     50 160.0   2.9  33130  272.38 0865.00
2015 04 09 06 27 21 .09      20    -42      4     47     48 154.6   4.9  33130  272.37 0865.00
2015 04 09 06 27 21 .35      16    -37      2     41     42 156.4   3.8  33128  272.34 0865.00
2015 04 09 06 27 21 .60      14    -40      0     43     44 160.0  -0.3  33126  272.32 0865.00
2015 04 09 06 27 21 .85      10    -40      2     42     43 164.9   2.9  33126  272.30 0865.00
2015 04 09 06 27 22 .10      10    -40      2     42     43 164.9   2.9  33126  272.30 0865.00
2015 04 09 06 27 22 .36      16    -46      2     49     50 160.0   2.9  33122  272.25 0865.00
2015 04 09 06 27 22 .61      19    -41      5     46     47 155.5   6.9  33120  272.22 0865.00
2015 04 09 06 27 22 .86      20    -45      0     50     51 155.5  -0.3  33124  272.27 0865.00
2015 04 09 06 27 23 .11      11    -41     11     43     45 164.9  15.3  33120  272.22 0865.00
2015 04 09 06 27 23 .36      18    -34      5     39     40 151.0   8.0  33120  272.22 0865.00
2015 04 09 06 27 23 .61      21    -29      7     36     37 143.9  11.1  33128  272.34 0865.00
2015 04 09 06 27 23 .86      20    -32      4     39     40 147.5   6.9  33126  272.32 0864.99
2015 04 09 06 27 24 .11      10    -40     -2     42     43 164.9  -3.1  33130  272.37 0864.99
2015 04 09 06 27 24 .36      13    -43     -1     46     47 163.1  -2.2  33128  272.34 0864.99
2015 04 09 06 27 24 .61       4    -36     -2     37     38 173.8  -3.1  33126  272.32 0864.99
2015 04 09 06 27 24 .86       7    -37      0     38     39 168.4   0.8  33132  272.42 0864.99
2015 04 09 06 27 25 .11      -1    -36      5     37     38 182.6   9.0  33132  272.42 0864.99
2015 04 09 06 27 25 .36       2    -36      1     37     38 175.5   2.9  33130  272.38 0864.99
2015 04 09 06 27 25 .61       7    -37      6     38     39 168.4  10.1  33128  272.35 0864.99
2015 04 09 06 27 25 .87       5    -33      4     34     35 170.2   6.9  33130  272.37 0864.99
2015 04 09 06 27 26 .11       7    -34     -1     35     36 168.4  -2.2  33128  272.34 0864.99
2015 04 09 06 27 26 .36      10    -37      0     39     40 164.9   0.8  33126  272.32 0864.99
2015 04 09 06 27 26 .62      10    -40      2     42     43 164.9   2.9  33126  272.30 0864.99
2015 04 09 06 27 26 .87      12    -37     -1     40     41 161.7  -2.2  33126  272.30 0864.99
2015 04 09 06 27 27 .12      15    -34      0     38     39 156.4   0.8  33124  272.27 0864.99
2015 04 09 06 27 27 .37      11    -42     -3     44     45 164.9  -4.1  33118  272.17 0864.99
2015 04 09 06 27 27 .62      11    -34      1     36     37 161.3   2.9  33128  272.34 0864.99
2015 04 09 06 27 27 .87      16    -38     16     42     44 156.4  21.0  33134  272.45 0864.99
2015 04 09 06 27 28 .12       9    -32     27     34     43 163.1  42.7  33126  272.32 0864.99
2015 04 09 06 27 28 .38      -1    -31     32     32     45 182.6  50.1  33126  272.32 0864.99
2015 04 09 06 27 28 .63       2    -37     17     38     41 175.5  25.1  33132  272.40 0864.99
2015 04 09 06 27 28 .88       6    -33     19     34     38 168.4  31.4  33130  272.37 0864.99
2015 04 09 06 27 29 .13       1    -33     15     34     37 177.3  25.1  33130  272.37 0864.99
2015 04 09 06 27 29 .38       9    -32     15     34     37 163.1  25.1  33118  272.17 0864.99
2015 04 09 06 27 29 .64       2    -36      1     37     38 175.5   2.9  33130  272.38 0864.99
2015 04 09 06 27 29 .88       0    -32      0     33     34 180.9  -1.2  33142  272.57 0864.99
2015 04 09 06 27 30 .13       0    -33     -4     34     35 180.9  -7.3  33136  272.48 0864.99
2015 04 09 06 27 30 .38       2    -36     -9     37     39 175.5 -13.4  33116  272.15 0864.99
2015 04 09 06 27 30 .63      -1    -36     -4     37     38 182.6  -7.3  33114  272.12 0864.99
2015 04 09 06 27 30 .88       0    -32      0     33     34 180.9  -1.2  33112  272.07 0864.99
2015 04 09 06 27 31 .14      -1    -36     -1     37     38 182.6  -2.2  33110  272.06 0864.99
2015 04 09 06 27 31 .39       0    -32      0     33     34 180.9  -1.2  33112  272.07 0864.99
2015 04 09 06 27 31 .64       1    -32     -4     33     34 177.3  -7.3  33114  272.10 0864.99
2015 04 09 06 27 31 .89       3    -29     -1     30     31 173.8  -3.1  33114  272.12 0864.99
2015 04 09 06 27 32 .14       0    -29     -1     30     31 180.9  -2.2  33114  272.10 0864.99
2015 04 09 06 27 32 .39       3    -29     -1     30     31 173.8  -3.1  33114  272.12 0864.99
2015 04 09 06 27 32 .64       5    -33     -1     34     35 170.2  -2.2  33116  272.15 0864.99
2015 04 09 06 27 32 .89       5    -33     -1     34     35 170.2  -2.2  33116  272.15 0864.99
2015 04 09 06 27 33 .14       5    -33     -1     34     35 170.2  -2.2  33116  272.15 0864.99
2015 04 09 06 27 33 .39       5    -33     -1     34     35 170.2  -2.2  33116  272.15 0864.99
2015 04 09 06 27 33 .64       7    -38      1     39     40 168.4   1.8  33114  272.12 0864.99
2015 04 09 06 27 33 .89       7    -38      1     39     40 168.4   1.8  33114  272.12 0864.99
2015 04 09 06 27 34 .14       7    -38      1     39     40 168.4   1.8  33114  272.12 0864.99
2015 04 09 06 27 34 .39       1    -40      8     41     42 178.2  11.1  33118  272.19 0864.99
2015 04 09 06 27 34 .64       7    -45      0     46     47 171.1  -0.3  33118  272.17 0864.99
2015 04 09 06 27 34 .89       5    -41     -1     42     43 172.0  -2.2  33120  272.20 0864.99
2015 04 09 06 27 35 .14       7    -45      0     46     47 171.1  -0.3  33118  272.17 0864.99
2015 04 09 06 27 35 .40       7    -38      1     39     40 168.4   1.8  33114  272.12 0864.99
2015 04 09 06 27 35 .66       9    -38      0     40     41 166.6  -0.3  33112  272.07 0864.99
2015 04 09 06 27 35 .91       9    -38      0     40     41 166.6  -0.3  33112  272.07 0864.99
2015 04 09 06 27 36 .16      11    -41     -1     43     44 164.9  -2.2  33112  272.07 0864.99
2015 04 09 06 27 36 .41      11    -34     -3     36     37 161.3  -5.2  33108  272.02 0864.99
2015 04 09 06 27 36 .66      11    -34     -3     36     37 161.3  -5.2  33112  272.07 0864.99
2015 04 09 06 27 36 .91       2    -35     12     36     39 175.5  19.4  33120  272.22 0864.99
2015 04 09 06 27 37 .16       1    -40      8     41     42 178.2  11.1  33118  272.19 0864.99
2015 04 09 06 27 37 .42     -11    -33      1     35     36 198.7   2.8  33118  272.17 0864.99
2015 04 09 06 27 37 .66      -6    -29     10     30     32 191.6  18.9  33132  272.42 0864.99
2015 04 09 06 27 37 .91      -7    -23     11     25     27 198.5  25.1  33132  272.42 0864.99
2015 04 09 06 27 38 .16       0    -26     11     27     29 180.9  21.0  33132  272.42 0864.99
2015 04 09 06 27 38 .41     -10    -22     19     25     31 205.4  43.7  33132  272.42 0865.00
2015 04 09 06 27 38 .66      -4    -26     19     27     33 189.8  39.7  33130  272.37 0865.00
2015 04 09 06 27 38 .91      -7    -36     10     37     39 191.5  15.3  33126  272.32 0865.00
2015 04 09 06 27 39 .16       2    -40      7     41     42 176.4  10.1  33114  272.10 0865.00
2015 04 09 06 27 39 .41       0    -37     -1     38     39 180.9  -2.2  33104  271.96 0865.00
2015 04 09 06 27 39 .67       9    -31     -4     33     34 163.1  -7.3  33104  271.96 0865.00
2015 04 09 06 27 39 .92      14    -37     -8     40     41 159.1 -12.4  33118  272.19 0865.00
2015 04 09 06 27 40 .17       7    -38     -4     39     40 168.4  -6.2  33120  272.20 0865.00
2015 04 09 06 27 40 .42      13    -30     -7     33     34 156.4 -13.4  33114  272.12 0864.99
2015 04 09 06 27 40 .67       6    -22      0     23     24 164.9  -2.2  33124  272.27 0864.99
2015 04 09 06 27 40 .92      -3    -30     15     31     34 186.2  27.2  33120  272.22 0864.99
2015 04 09 06 27 41 .17     -10    -30     13     32     34 198.3  21.0  33122  272.24 0864.99
2015 04 09 06 27 41 .42     -11    -34      3     36     37 198.3   4.9  33126  272.30 0864.99
2015 04 09 06 27 41 .67      -8    -23     11     25     27 198.7  25.1  33126  272.32 0864.99
2015 04 09 06 27 41 .92      -8    -26     15     28     31 198.5  29.3  33126  272.32 0864.99
2015 04 09 06 27 42 .18     -11    -23     19     26     32 207.2  39.7  33124  272.27 0864.99
2015 04 09 06 27 42 .43      -8    -20     15     22     26 203.6  35.6  33120  272.22 0864.99
2015 04 09 06 27 42 .68     -12    -16     13     21     24 217.8  35.5  33118  272.19 0864.99
2015 04 09 06 27 42 .93      -6    -15     17     17     24 201.8  50.1  33122  272.25 0864.99
2015 04 09 06 27 43 .18       0    -18     17     19     25 182.7  47.9  33122  272.25 0864.99
2015 04 09 06 27 43 .43      -6    -20     14     22     26 198.5  35.5  33122  272.24 0864.99
2015 04 09 06 27 43 .69      -1    -21     15     22     26 184.5  35.6  33126  272.32 0864.99
2015 04 09 06 27 43 .93       0    -26     11     27     29 180.9  21.0  33136  272.47 0864.99
2015 04 09 06 27 44 .19      -6    -30      3     31     32 191.6   6.9  33130  272.38 0864.99
2015 04 09 06 27 44 .44      -8    -30     17     32     36 195.1  29.3  33124  272.29 0864.99
2015 04 09 06 27 44 .69       0    -26     11     27     29 180.9  21.0  33124  272.27 0864.99
2015 04 09 06 27 44 .94      -4    -25     -1     26     27 189.8  -2.2  33116  272.14 0864.99
2015 04 09 06 27 45 .19      -2    -15      8     16     17 188.0  27.2  33120  272.20 0864.99
2015 04 09 06 27 45 .44       0    -26     11     27     29 180.9  21.0  33120  272.22 0864.99
2015 04 09 06 27 45 .69      -2    -30     15     31     34 184.5  27.2  33124  272.27 0864.99
2015 04 09 06 27 45 .94      -2    -29      9     30     32 184.5  17.3  33122  272.25 0864.99
2015 04 09 06 27 46 .19      -7    -35      3     36     37 191.5   4.9  33118  272.19 0864.99
2015 04 09 06 27 46 .44      -2    -43      8     44     45 182.7  11.1  33112  272.09 0864.99
2015 04 09 06 27 46 .69      -4    -33      6     34     35 188.0  11.1  33104  271.94 0864.99
2015 04 09 06 27 46 .95      -1    -36      5     37     38 182.6   9.0  33100  271.87 0864.99
2015 04 09 06 27 47 .19      -1    -36      0     37     38 182.6  -1.3  33088  271.69 0864.99
2015 04 09 06 27 47 .44       0    -37     -1     38     39 180.9  -2.2  33084  271.61 0864.99
2015 04 09 06 27 47 .69       1    -40      0     41     42 178.2   0.8  33084  271.63 0864.99
2015 04 09 06 27 47 .95       3    -45      2     46     47 175.5   2.9  33096  271.81 0864.99
2015 04 09 06 27 48 .20      13    -45      5     48     49 163.1   6.9  33102  271.92 0864.99
2015 04 09 06 27 48 .45       9    -41      3     43     44 166.6   4.9  33102  271.91 0864.99
2015 04 09 06 27 48 .69      16    -38     11     42     44 156.4  15.3  33096  271.83 0864.99
2015 04 09 06 27 48 .95      10    -38     15     40     42 164.9  21.0  33096  271.83 0864.99
2015 04 09 06 27 49 .21       7    -41      6     42     43 170.2   9.0  33100  271.87 0864.99
2015 04 09 06 27 49 .46       7    -38      1     39     40 168.4   1.8  33096  271.83 0864.99
2015 04 09 06 27 49 .71      18    -38     -1     43     44 154.6  -2.2  33096  271.83 0864.99
2015 04 09 06 27 49 .96      10    -40    -10     42     44 164.9 -13.4  33098  271.86 0864.99
2015 04 09 06 27 50 .21       9    -41     -8     43     44 166.6 -11.3  33104  271.96 0864.99
2015 04 09 06 27 50 .46      12    -44     -6     46     47 164.0  -8.2  33106  271.97 0864.99
2015 04 09 06 27 50 .72      11    -41     -1     43     44 164.9  -2.2  33112  272.07 0864.99
2015 04 09 06 27 50 .96      16    -47     -2     50     51 160.8  -3.1  33118  272.17 0864.99
2015 04 09 06 27 51 .21      16    -47     -2     50     51 160.8  -3.1  33118  272.17 0864.99
2015 04 09 06 27 51 .46      16    -47     -2     50     51 160.8  -3.1  33118  272.17 0864.99
2015 04 09 06 27 51 .71      16    -47     -2     50     51 160.8  -3.1  33118  272.17 0864.99
2015 04 09 06 27 51 .96      20    -42     -1     47     48 153.7  -2.2  33116  272.14 0864.99
2015 04 09 06 27 52 .21      23    -38      0     45     46 149.3   0.8  33118  272.17 0864.99
2015 04 09 06 27 52 .46      28    -40      0     50     51 144.8  -0.3  33120  272.22 0864.99
2015 04 09 06 27 52 .72      28    -40      0     50     51 144.8  -0.3  33120  272.22 0864.99
2015 04 09 06 27 52 .97      20    -32     -1     39     40 147.5  -2.2  33122  272.25 0864.99
2015 04 09 06 27 53 .22      15    -26      1     31     32 149.3   2.8  33120  272.22 0864.99
2015 04 09 06 27 53 .47       8    -30      7     32     33 164.9  13.2  33122  272.24 0864.99
2015 04 09 06 27 53 .72       2    -32      6     33     34 175.5  11.1  33120  272.20 0864.99
2015 04 09 06 27 53 .97       1    -40      0     41     42 178.2   0.8  33120  272.22 0864.99
2015 04 09 06 27 54 .22       7    -41     -1     42     43 170.2  -2.2  33122  272.25 0864.99
2015 04 09 06 27 54 .47       9    -41      3     43     44 166.6   4.9  33134  272.43 0864.99
2015 04 09 06 27 54 .72       0    -44      4     45     46 180.9   5.9  33136  272.47 0864.99
2015 04 09 06 27 54 .97      -2    -36      7     37     38 184.5  11.1  33122  272.25 0864.98
2015 04 09 06 27 55 .22      -2    -36      7     37     38 184.5  11.1  33122  272.25 0864.98
2015 04 09 06 27 55 .47     -12    -36     13     39     42 198.7  19.4  33110  272.06 0864.98
2015 04 09 06 27 55 .72     -11    -34     15     36     39 198.7  21.0  33106  271.97 0864.98
2015 04 09 06 27 55 .97      -8    -30     17     32     36 195.1  29.3  33104  271.94 0864.98
2015 04 09 06 27 56 .23      -2    -30     22     31     38 184.5  37.6  33110  272.06 0864.98
2015 04 09 06 27 56 .49       3    -31     17     32     36 173.8  29.3  33120  272.20 0864.98
2015 04 09 06 27 56 .73       3    -22     11     23     25 170.2  27.2  33126  272.32 0864.99
2015 04 09 06 27 56 .98       2    -25      1     26     27 175.5   2.9  33120  272.22 0864.99
2015 04 09 06 27 57 .24       4    -21     -1     22     23 168.4  -3.1  33120  272.22 0864.99
2015 04 09 06 27 57 .48       9    -26      2     28     29 160.0   4.9  33124  272.29 0864.99
2015 04 09 06 27 57 .74      17    -37      3     41     42 155.5   4.9  33120  272.20 0864.99
2015 04 09 06 27 57 .99      10    -29     10     31     33 160.0  18.9  33118  272.17 0864.99
2015 04 09 06 27 58 .24       9    -41      3     43     44 166.6   4.9  33116  272.14 0864.99
2015 04 09 06 27 58 .49      10    -37      0     39     40 164.9   0.8  33124  272.27 0864.99
2015 04 09 06 27 58 .74       5    -48     -1     49     50 173.8  -2.2  33116  272.15 0864.99
2015 04 09 06 27 58 .99       3    -45      2     46     47 175.5   2.9  33118  272.19 0864.99
2015 04 09 06 27 59 .24      10    -48      2     50     51 168.4   2.8  33116  272.15 0864.99
2015 04 09 06 27 59 .49       0    -43     -1     44     45 180.9  -2.2  33122  272.24 0864.98
2015 04 09 06 27 59 .74       4    -44     -2     45     46 173.8  -3.1  33126  272.32 0864.98
2015 04 09 06 27 59 .99       0    -52     -2     53     54 180.9  -2.2  33118  272.19 0864.98
2015 04 09 06 28 00 .24       3    -45     -1     46     47 175.5  -2.2  33114  272.12 0864.98
2015 04 09 06 28 00 .50       3    -45     -1     46     47 175.5  -2.2  33114  272.12 0864.98
2015 04 09 06 28 00 .74       9    -41     -1     43     44 166.6  -2.2  33120  272.22 0864.98
2015 04 09 06 28 00 .99       9    -41     -1     43     44 166.6  -2.2  33120  272.22 0864.98
2015 04 09 06 28 01 .25      10    -38      8     40     41 164.9  12.2  33118  272.19 0864.98
2015 04 09 06 28 01 .50      13    -43     14     46     49 163.1  17.3  33118  272.19 0864.98
2015 04 09 06 28 01 .75      11    -41      2     43     44 164.9   2.9  33122  272.25 0864.98
2015 04 09 06 28 02 .00      10    -40      2     42     43 164.9   2.9  33126  272.30 0864.98
2015 04 09 06 28 02 .25       7    -44     -4     45     46 170.2  -6.2  33122  272.25 0864.98
2015 04 09 06 28 02 .50       9    -45      0     46     47 168.4  -0.3  33120  272.22 0864.98
2015 04 09 06 28 02 .75       6    -48     -1     49     50 172.9  -2.2  33124  272.29 0864.98
2015 04 09 06 28 03 .00       6    -48     -1     49     50 172.9  -2.2  33124  272.29 0864.98
2015 04 09 06 28 03 .26      15    -46     -1     49     50 161.7  -2.2  33120  272.22 0864.98
2015 04 09 06 28 03 .51      12    -37     -1     40     41 161.7  -2.2  33122  272.25 0864.98
2015 04 09 06 28 03 .76      15    -34      0     38     39 156.4   0.8  33130  272.37 0864.98
2015 04 09 06 28 04 .01      15    -34      0     38     39 156.4   0.8  33130  272.37 0864.99
2015 04 09 06 28 04 .26       9    -31      1     33     34 163.1   2.8  33126  272.32 0864.99
2015 04 09 06 28 04 .51       9    -26      2     28     29 160.0   4.9  33124  272.29 0864.99
2015 04 09 06 28 04 .76       7    -22      8     24     26 161.5  19.4  33120  272.20 0864.99
2015 04 09 06 28 05 .01       7    -22      8     24     26 161.5  19.4  33120  272.20 0864.99
2015 04 09 06 28 05 .27      15    -23     12     28     30 147.4  25.1  33114  272.10 0864.99
2015 04 09 06 28 05 .51       8    -30      7     32     33 164.9  13.2  33122  272.24 0864.99
2015 04 09 06 28 05 .77      11    -33      1     35     36 161.5   2.9  33122  272.25 0864.99
2015 04 09 06 28 06 .02       7    -41      6     42     43 170.2   9.0  33120  272.22 0864.99
2015 04 09 06 28 06 .27      18    -42     13     46     48 156.4  16.3  33116  272.15 0864.99
2015 04 09 06 28 06 .52      23    -49      2     55     56 154.5   2.8  33120  272.20 0864.99
2015 04 09 06 28 06 .77      16    -46      2     49     50 160.0   2.9  33112  272.09 0864.99
2015 04 09 06 28 07 .02      15    -49      0     52     53 162.2  -0.3  33112  272.07 0864.99
2015 04 09 06 28 07 .27      13    -53     -2     55     56 165.7  -2.2  33114  272.10 0864.99
2015 04 09 06 28 07 .52      13    -53     -2     55     56 165.7  -2.2  33114  272.10 0864.98
2015 04 09 06 28 07 .77      17    -52      2     55     56 161.5   2.8  33112  272.09 0864.98
2015 04 09 06 28 08 .02      17    -53     -2     56     57 161.3  -2.2  33114  272.12 0864.98
2015 04 09 06 28 08 .27      13    -59     -2     61     62 167.5  -2.2  33120  272.20 0864.98
2015 04 09 06 28 08 .52       4    -52      2     53     54 175.5   2.8  33122  272.24 0864.98
2015 04 09 06 28 08 .77       9    -52      0     53     54 170.2   0.8  33124  272.27 0864.98
2015 04 09 06 28 09 .02      13    -43      3     46     47 163.1   4.9  33124  272.27 0864.98
2015 04 09 06 28 09 .28       7    -44      7     45     46 170.2   9.0  33126  272.30 0864.98
2015 04 09 06 28 09 .52      12    -47      2     49     50 164.9   2.9  33124  272.29 0864.98
2015 04 09 06 28 09 .77       0    -43     -1     44     45 180.9  -2.2  33122  272.24 0864.98
2015 04 09 06 28 10 .04       0    -40     -1     41     42 180.9  -2.2  33118  272.17 0864.98
2015 04 09 06 28 10 .29       5    -48     -1     49     50 173.8  -2.2  33116  272.15 0864.98
2015 04 09 06 28 10 .54       2    -47     -5     48     49 177.3  -6.2  33120  272.20 0864.98
2015 04 09 06 28 10 .79       3    -48     -5     49     50 176.4  -6.2  33122  272.25 0864.98
2015 04 09 06 28 11 .04       6    -44    -11     45     47 171.1 -14.5  33126  272.32 0864.98
2015 04 09 06 28 11 .29      15    -45     -2     48     49 160.8  -3.1  33126  272.32 0864.98
2015 04 09 06 28 11 .54       7    -41     -6     42     43 170.2  -9.3  33126  272.32 0864.98
2015 04 09 06 28 11 .79      10    -40     -2     42     43 164.9  -3.1  33130  272.37 0864.98
2015 04 09 06 28 12 .04      16    -37     -1     41     42 156.4  -2.2  33126  272.32 0864.98
2015 04 09 06 28 12 .29      24    -33      2     42     43 143.9   2.9  33114  272.10 0864.98
2015 04 09 06 28 12 .54      20    -34     -1     40     41 149.3  -2.2  33116  272.15 0864.98
2015 04 09 06 28 12 .79      16    -37     -1     41     42 156.4  -2.2  33124  272.27 0864.98
2015 04 09 06 28 13 .04      15    -27      7     31     32 151.0  13.2  33120  272.20 0864.98
2015 04 09 06 28 13 .29      17    -22     11     29     31 142.2  21.0  33114  272.12 0864.98
2015 04 09 06 28 13 .54       6    -26     13     27     29 166.6  27.3  33104  271.96 0864.98
2015 04 09 06 28 13 .80       5    -33     11     34     37 170.2  18.9  33108  272.01 0864.98
2015 04 09 06 28 14 .04       7    -38      7     39     40 168.4  11.1  33110  272.06 0864.98
2015 04 09 06 28 14 .30      18    -30      3     36     37 149.3   4.9  33120  272.20 0864.98
2015 04 09 06 28 14 .55      12    -38     14     41     44 161.7  19.4  33152  272.75 0864.98
2015 04 09 06 28 14 .79       7    -44      7     45     46 170.2   9.0  33128  272.34 0864.98
2015 04 09 06 28 15 .05      -2    -43      8     44     45 182.7  11.1  33124  272.29 0864.98
2015 04 09 06 28 15 .30       4    -44      2     45     46 173.8   2.9  33132  272.40 0864.98
2015 04 09 06 28 15 .55      -4    -39      6     40     41 186.2   9.0  33126  272.32 0864.98
2015 04 09 06 28 15 .80      -4    -39      6     40     41 186.2   9.0  33132  272.42 0864.98
2015 04 09 06 28 16 .05      -1    -36      5     37     38 182.6   9.0  33132  272.42 0864.98
2015 04 09 06 28 16 .30      10    -37      0     39     40 164.9   0.8  33130  272.37 0864.98
2015 04 09 06 28 16 .55      11    -34      1     36     37 161.3   2.9  33126  272.30 0864.98
2015 04 09 06 28 16 .80       6    -32      6     33     34 168.4  11.1  33120  272.22 0864.98
2015 04 09 06 28 17 .06      10    -37      0     39     40 164.9   0.8  33124  272.27 0864.98
2015 04 09 06 28 17 .31       3    -30     -1     31     32 173.8  -2.2  33132  272.42 0864.98
2015 04 09 06 28 17 .56       3    -30     -1     31     32 173.8  -2.2  33132  272.42 0864.97
2015 04 09 06 28 17 .81      12    -31     -1     34     35 158.2  -2.2  33128  272.34 0864.97
2015 04 09 06 28 18 .06      12    -37     -1     40     41 161.7  -2.2  33130  272.38 0864.97
2015 04 09 06 28 18 .31      12    -37     -1     40     41 161.7  -2.2  33130  272.38 0864.97
2015 04 09 06 28 18 .56       9    -35      1     37     38 164.9   2.8  33132  272.40 0864.97
2015 04 09 06 28 18 .81      13    -43     -1     46     47 163.1  -2.2  33128  272.34 0864.97
2015 04 09 06 28 19 .07      18    -41     -1     45     46 156.4  -2.2  33126  272.30 0864.97
2015 04 09 06 28 19 .31      10    -40      2     42     43 164.9   2.9  33126  272.30 0864.97
2015 04 09 06 28 19 .57      10    -40      2     42     43 164.9   2.9  33126  272.30 0864.97
2015 04 09 06 28 19 .82       8    -30      7     32     33 164.9  13.2  33122  272.24 0864.97
2015 04 09 06 28 20 .07       6    -32      6     33     34 168.4  11.1  33120  272.22 0864.97
2015 04 09 06 28 20 .32      11    -34      1     36     37 161.3   2.9  33126  272.30 0864.97
2015 04 09 06 28 20 .57       6    -24      8     25     27 164.9  17.3  33124  272.27 0864.97
2015 04 09 06 28 20 .82       2    -33      6     34     35 175.6  11.1  33130  272.38 0864.97
2015 04 09 06 28 21 .07      11    -34     12     36     39 161.3  19.4  33120  272.22 0864.97
2015 04 09 06 28 21 .32      13    -30      5     33     34 156.4   9.0  33124  272.27 0864.97
2015 04 09 06 28 21 .57      13    -30      5     33     34 156.4   9.0  33124  272.27 0864.97
2015 04 09 06 28 21 .82      13    -21      8     26     28 147.5  17.3  33126  272.32 0864.97
2015 04 09 06 28 22 .07       8    -22      1     24     25 160.0   2.8  33124  272.27 0864.97
2015 04 09 06 28 22 .33      -1    -21      7     22     24 182.7  19.4  33124  272.27 0864.97
2015 04 09 06 28 22 .58       2    -33      9     34     36 175.6  15.3  33140  272.53 0864.97
2015 04 09 06 28 22 .83       3    -43     -3     44     45 175.5  -4.1  33132  272.42 0864.97
2015 04 09 06 28 23 .07      -5    -40     -1     41     42 187.1  -2.2  33134  272.43 0864.97
2015 04 09 06 28 23 .32      -2    -37     -4     38     39 184.4  -7.3  33126  272.30 0864.97
2015 04 09 06 28 23 .58      -6    -25     -1     26     27 193.4  -2.2  33136  272.48 0864.97
2015 04 09 06 28 23 .83      -1    -15     15     16     21 184.5  50.0  33148  272.66 0864.97
2015 04 09 06 28 24 .09       2    -32     16     33     36 175.5  27.2  33168  272.99 0864.97
2015 04 09 06 28 24 .34       0    -26     17     27     31 180.9  35.5  33170  273.03 0864.97
2015 04 09 06 28 24 .59       0    -24     12     25     27 180.9  27.2  33162  272.89 0864.97
2015 04 09 06 28 24 .84       9    -31      1     33     34 163.1   2.8  33130  272.37 0864.97
2015 04 09 06 28 25 .09      10    -37      0     39     40 164.9   0.8  33124  272.27 0864.97
2015 04 09 06 28 25 .37      10    -37     -4     39     40 164.9  -6.2  33128  272.34 0864.97
2015 04 09 06 28 25 .59      11    -34     -3     36     37 161.3  -5.2  33130  272.37 0864.97
2015 04 09 06 28 25 .84       9    -31      1     33     34 163.1   2.8  33126  272.32 0864.97
2015 04 09 06 28 26 .09      15    -34      0     38     39 156.4   0.8  33130  272.37 0864.97
2015 04 09 06 28 26 .34      10    -40     -2     42     43 164.9  -3.1  33126  272.32 0864.97
2015 04 09 06 28 26 .59      12    -44     -6     46     47 164.0  -8.2  33124  272.27 0864.97
2015 04 09 06 28 26 .84      10    -40      2     42     43 164.9   2.9  33126  272.30 0864.97
2015 04 09 06 28 27 .09       4    -36     -2     37     38 173.8  -3.1  33126  272.32 0864.97
2015 04 09 06 28 27 .34       4    -36     -2     37     38 173.8  -3.1  33126  272.32 0864.97
2015 04 09 06 28 27 .60       7    -34     -1     35     36 168.4  -2.2  33126  272.30 0864.97
2015 04 09 06 28 27 .84       5    -33     -1     34     35 170.2  -2.2  33134  272.43 0864.97
2015 04 09 06 28 28 .10      15    -34     -4     38     39 156.4  -7.3  33140  272.53 0864.97
2015 04 09 06 28 28 .35      23    -38      0     45     46 149.3   0.8  33136  272.47 0864.98
2015 04 09 06 28 28 .60      21    -46      0     51     52 154.5  -0.3  33132  272.42 0864.98
2015 04 09 06 28 28 .85      18    -49     -6     53     54 159.1  -7.3  33136  272.47 0864.98
2015 04 09 06 28 29 .10      23    -49     -3     55     56 154.5  -3.1  33136  272.47 0864.98
2015 04 09 06 28 29 .35      25    -45     -2     52     53 150.1  -2.2  33134  272.43 0864.98
2015 04 09 06 28 29 .60      13    -43     -1     46     47 163.1  -2.2  33136  272.48 0864.98
2015 04 09 06 28 29 .85      16    -49     -5     52     53 161.5  -6.2  33134  272.45 0864.98
2015 04 09 06 28 30 .11       4    -45     -2     46     47 174.7  -3.1  33142  272.57 0864.98
2015 04 09 06 28 30 .35      11    -34     12     36     39 161.3  19.4  33156  272.81 0864.98
2015 04 09 06 28 30 .60      15    -33     10     37     39 154.5  15.3  33146  272.63 0864.98
2015 04 09 06 28 30 .86      16    -34      6     38     39 154.6  10.1  33134  272.43 0864.98
2015 04 09 06 28 31 .11       9    -41      3     43     44 166.6   4.9  33134  272.43 0864.98
2015 04 09 06 28 31 .36       9    -42     -4     44     45 167.5  -5.2  33130  272.38 0864.98
2015 04 09 06 28 31 .61      13    -45     -1     48     49 163.1  -2.2  33138  272.50 0864.98
2015 04 09 06 28 31 .87       7    -37      0     38     39 168.4   0.8  33132  272.42 0864.98
2015 04 09 06 28 32 .11       8    -52      0     53     54 171.1   0.8  33132  272.42 0864.98
2015 04 09 06 28 32 .37      15    -49      0     52     53 162.2  -0.3  33130  272.37 0864.98
2015 04 09 06 28 32 .62      17    -53     -3     56     57 161.3  -3.1  33130  272.37 0864.98
2015 04 09 06 28 32 .87      17    -53     -3     56     57 161.3  -3.1  33132  272.42 0864.98
2015 04 09 06 28 33 .12      10    -48      2     50     51 168.4   2.9  33132  272.40 0864.98
2015 04 09 06 28 33 .37      12    -44      5     46     47 164.0   6.9  33132  272.42 0864.98
2015 04 09 06 28 33 .62       7    -37      0     38     39 168.4   0.8  33132  272.42 0864.98
2015 04 09 06 28 33 .87       7    -37      0     38     39 168.4   0.8  33132  272.42 0864.98
2015 04 09 06 28 34 .12       7    -37      0     38     39 168.4   0.8  33132  272.42 0864.98
2015 04 09 06 28 34 .37      12    -37      6     40     41 161.7   9.0  33136  272.47 0864.98
2015 04 09 06 28 34 .62       9    -41      3     43     44 166.6   4.9  33134  272.43 0864.98
2015 04 09 06 28 34 .87      14    -40      7     43     44 160.0  10.1  33134  272.45 0864.98
2015 04 09 06 28 35 .12      16    -38     11     42     44 156.4  15.3  33132  272.42 0864.98
2015 04 09 06 28 35 .37      16    -36      8     40     41 156.4  12.2  33134  272.45 0864.98
2015 04 09 06 28 35 .63       7    -34     12     35     38 168.4  18.9  33134  272.45 0864.98
2015 04 09 06 28 35 .87      12    -37      6     40     41 161.7   9.0  33136  272.47 0864.98
2015 04 09 06 28 36 .12      10    -38      8     40     41 164.9  12.2  33136  272.48 0864.98
2015 04 09 06 28 36 .38       9    -41      3     43     44 166.6   4.9  33134  272.43 0864.98
2015 04 09 06 28 36 .62      16    -36      8     40     41 156.4  12.2  33134  272.45 0864.98
2015 04 09 06 28 36 .88       8    -30      1     32     33 164.9   2.9  33136  272.47 0864.98
2015 04 09 06 28 37 .13      12    -37      6     40     41 161.7   9.0  33136  272.47 0864.98
2015 04 09 06 28 37 .38      14    -41      0     44     45 160.8   0.8  33136  272.47 0864.98
2015 04 09 06 28 37 .63      20    -42     -1     47     48 153.7  -2.2  33138  272.50 0864.98
2015 04 09 06 28 37 .89      23    -38      0     45     46 149.3   0.8  33136  272.47 0864.98
2015 04 09 06 28 38 .14      14    -41      0     44     45 160.8   0.8  33136  272.47 0864.98
2015 04 09 06 28 38 .39      26    -43     10     51     52 149.3  11.1  33130  272.37 0864.98
2015 04 09 06 28 38 .64      15    -49      0     52     53 162.2  -0.3  33136  272.47 0864.98
2015 04 09 06 28 38 .89      18    -42     13     46     48 156.4  16.3  33134  272.45 0864.98
2015 04 09 06 28 39 .14      13    -54     12     56     58 165.7  12.2  33140  272.55 0864.98
2015 04 09 06 28 39 .39      16    -47      9     50     51 160.8  11.1  33136  272.47 0864.98
2015 04 09 06 28 39 .64      16    -46      2     49     50 160.0   2.9  33130  272.38 0864.98
2015 04 09 06 28 39 .89      21    -46      0     51     52 154.5  -0.3  33132  272.42 0864.98
2015 04 09 06 28 40 .14      17    -53      2     56     57 161.3   2.9  33128  272.34 0864.98
2015 04 09 06 28 40 .39      17    -53      2     56     57 161.3   2.9  33128  272.34 0864.98
2015 04 09 06 28 40 .64      23    -49      2     55     56 154.6   2.9  33126  272.30 0864.98
2015 04 09 06 28 40 .89      23    -49      2     55     56 154.6   2.9  33126  272.30 0864.98
2015 04 09 06 28 41 .15      20    -54      0     58     59 159.1   0.8  33126  272.32 0864.98
2015 04 09 06 28 41 .40      20    -54      0     58     59 159.1   0.8  33126  272.32 0864.98
2015 04 09 06 28 41 .65      23    -49      2     55     56 154.6   2.9  33126  272.30 0864.98
2015 04 09 06 28 41 .90      20    -54      0     58     59 159.1   0.8  33126  272.32 0864.99
2015 04 09 06 28 42 .15      19    -58     -2     62     63 161.5  -2.2  33124  272.29 0864.99
2015 04 09 06 28 42 .40      18    -49     -2     53     54 160.0  -2.2  33122  272.24 0864.99
2015 04 09 06 28 42 .65      25    -53     -2     59     60 154.6  -2.2  33118  272.19 0864.99
2015 04 09 06 28 42 .90      20    -54     -5     58     59 159.1  -5.2  33122  272.24 0864.99
2015 04 09 06 28 43 .15      17    -53     -3     56     57 161.3  -3.1  33124  272.27 0864.99
2015 04 09 06 28 43 .40      17    -53     -3     56     57 161.3  -3.1  33124  272.27 0864.99
2015 04 09 06 28 43 .65      17    -53     -3     56     57 161.3  -3.1  33124  272.27 0864.98
2015 04 09 06 28 43 .90      17    -56     -1     59     60 163.1  -1.3  33140  272.53 0864.98
2015 04 09 06 28 44 .16      23    -49     -3     55     56 154.5  -3.1  33130  272.37 0864.98
2015 04 09 06 28 44 .40      18    -56     -2     60     61 161.7  -2.2  33134  272.45 0864.98
2015 04 09 06 28 44 .65      13    -53     -2     55     56 165.7  -2.2  33122  272.24 0864.98
2015 04 09 06 28 44 .91      17    -53     -3     56     57 161.3  -3.1  33124  272.27 0864.98
2015 04 09 06 28 45 .16      16    -56     -4     59     60 164.0  -4.1  33122  272.24 0864.98
2015 04 09 06 28 45 .42      15    -65     -4     67     68 166.6  -4.1  33126  272.30 0864.98
2015 04 09 06 28 45 .67      17    -53      2     56     57 161.3   2.9  33128  272.34 0864.98
2015 04 09 06 28 45 .92      19    -58     -2     62     63 161.5  -2.2  33124  272.29 0864.98
2015 04 09 06 28 46 .17      19    -58     -2     62     63 161.5  -2.2  33124  272.29 0864.98
2015 04 09 06 28 46 .42      19    -58     -2     62     63 161.5  -2.2  33124  272.29 0864.98
2015 04 09 06 28 46 .67      16    -62     -3     65     66 164.9  -3.1  33126  272.32 0864.98
2015 04 09 06 28 46 .92      19    -58     -2     62     63 161.5  -2.2  33124  272.29 0864.98
2015 04 09 06 28 47 .17      25    -62     -2     67     68 158.1  -2.2  33132  272.40 0864.98
2015 04 09 06 28 47 .42      18    -56     -2     60     61 161.7  -2.2  33134  272.45 0864.98
2015 04 09 06 28 47 .67      24    -58     -3     63     64 157.3  -3.1  33126  272.32 0864.98
2015 04 09 06 28 47 .92      19    -58     -2     62     63 161.5  -2.2  33124  272.29 0864.98
2015 04 09 06 28 48 .17      21    -60     -5     64     65 160.8  -5.2  33118  272.19 0864.98
2015 04 09 06 28 48 .42      24    -64     -3     69     70 159.1  -3.1  33120  272.22 0864.98
2015 04 09 06 28 48 .67      21    -61      0     65     66 160.8  -0.3  33124  272.27 0864.98
2015 04 09 06 28 48 .92      25    -62     -2     67     68 158.1  -2.2  33126  272.30 0864.98
2015 04 09 06 28 49 .17      35    -54      6     65     66 146.6   5.9  33118  272.19 0864.98
2015 04 09 06 28 49 .42      27    -45      3     53     54 148.4   3.8  33118  272.17 0864.98
2015 04 09 06 28 49 .68      19    -58      3     62     63 161.5   2.9  33120  272.22 0864.98
2015 04 09 06 28 49 .93      23    -58      3     63     64 158.1   2.8  33122  272.25 0864.98
2015 04 09 06 28 50 .18      31    -54      3     63     64 150.1   2.8  33122  272.25 0864.98
2015 04 09 06 28 50 .43      27    -58      0     65     66 154.6  -0.3  33120  272.22 0864.98
2015 04 09 06 28 50 .68      27    -58      0     65     66 154.6  -0.3  33120  272.22 0864.98
2015 04 09 06 28 50 .93      19    -58      3     62     63 161.5   2.9  33120  272.22 0864.98
2015 04 09 06 28 51 .18      19    -58      3     62     63 161.5   2.9  33120  272.22 0864.98
2015 04 09 06 28 51 .43      25    -53      5     59     60 154.6   4.9  33124  272.27 0864.98
2015 04 09 06 28 51 .68      27    -58      0     65     66 154.6  -0.3  33120  272.22 0864.98
2015 04 09 06 28 51 .94      27    -58      0     65     66 154.6  -0.3  33120  272.22 0864.98
2015 04 09 06 28 52 .19      25    -62     -2     67     68 158.1  -2.2  33122  272.24 0864.98
2015 04 09 06 28 52 .44      25    -62     -2     67     68 158.1  -2.2  33122  272.24 0864.98
2015 04 09 06 28 52 .69      25    -62     -2     67     68 158.1  -2.2  33122  272.24 0864.98
2015 04 09 06 28 52 .94      25    -62     -2     67     68 158.1  -2.2  33122  272.24 0864.98
2015 04 09 06 28 53 .19      25    -62     -2     67     68 158.1  -2.2  33122  272.24 0864.98
2015 04 09 06 28 53 .44      25    -62     -2     67     68 158.1  -2.2  33122  272.24 0864.98
2015 04 09 06 28 53 .69      27    -58      0     65     66 154.6  -0.3  33120  272.22 0864.97
2015 04 09 06 28 53 .94      25    -53     -2     59     60 154.6  -2.2  33118  272.19 0864.97
2015 04 09 06 28 54 .19      25    -53     -2     59     60 154.6  -2.2  33118  272.19 0864.97
2015 04 09 06 28 54 .44      25    -53     -2     59     60 154.6  -2.2  33118  272.19 0864.97
2015 04 09 06 28 54 .70      25    -53     -2     59     60 154.6  -2.2  33118  272.19 0864.97
2015 04 09 06 28 54 .95      27    -58      0     65     66 154.6  -0.3  33120  272.22 0864.97
2015 04 09 06 28 55 .20      27    -58      0     65     66 154.6  -0.3  33120  272.22 0864.97
2015 04 09 06 28 55 .45      27    -58      0     65     66 154.6  -0.3  33120  272.22 0864.97
2015 04 09 06 28 55 .70      18    -56     -2     60     61 161.7  -2.2  33116  272.15 0864.97
2015 04 09 06 28 55 .95      22    -61      0     65     66 160.0  -0.3  33114  272.12 0864.97
2015 04 09 06 28 56 .20      25    -62     -2     67     68 158.1  -2.2  33122  272.24 0864.97
2015 04 09 06 28 56 .45      24    -64     -3     69     70 159.1  -3.1  33120  272.22 0864.97
2015 04 09 06 28 56 .70      25    -62     -2     67     68 158.1  -2.2  33122  272.24 0864.97
2015 04 09 06 28 56 .95      25    -62     -2     67     68 158.1  -2.2  33122  272.24 0864.97
2015 04 09 06 28 57 .20      20    -54     -1     58     59 159.1  -1.3  33118  272.17 0864.97
2015 04 09 06 28 57 .45      25    -53     -2     59     60 154.6  -2.2  33118  272.19 0864.98
2015 04 09 06 28 57 .70      25    -53     -2     59     60 154.6  -2.2  33118  272.19 0864.98
2015 04 09 06 28 57 .96      23    -57     -3     62     63 158.1  -3.1  33118  272.17 0864.98
2015 04 09 06 28 58 .20      25    -62     -2     67     68 158.1  -2.2  33122  272.24 0864.98
2015 04 09 06 28 58 .45      27    -58      0     65     66 154.6  -0.3  33120  272.22 0864.98
2015 04 09 06 28 58 .72      25    -53     -2     59     60 154.6  -2.2  33118  272.19 0864.98
2015 04 09 06 28 58 .97      27    -58      0     65     66 154.6  -0.3  33120  272.22 0864.98
2015 04 09 06 28 59 .22      20    -54     -1     58     59 159.1  -1.3  33118  272.17 0864.97
2015 04 09 06 28 59 .47      21    -61      0     65     66 160.8  -0.3  33124  272.27 0864.97
2015 04 09 06 28 59 .72      25    -62     -2     67     68 158.1  -2.2  33122  272.24 0864.97
2015 04 09 06 28 59 .97      23    -58      3     63     64 158.1   2.8  33122  272.25 0864.97
2015 04 09 06 29 00 .22      27    -58      0     65     66 154.6  -0.3  33120  272.22 0864.97
2015 04 09 06 29 00 .47      20    -54     -1     58     59 159.1  -1.3  33118  272.17 0864.97
2015 04 09 06 29 00 .72      25    -53     -2     59     60 154.6  -2.2  33118  272.19 0864.97
2015 04 09 06 29 00 .97      25    -53     -2     59     60 154.6  -2.2  33118  272.19 0864.97
2015 04 09 06 29 01 .22      27    -57     -5     64     65 154.5  -5.2  33116  272.15 0864.97
2015 04 09 06 29 01 .47      20    -54     -1     58     59 159.1  -1.3  33118  272.17 0864.97
2015 04 09 06 29 01 .72      33    -55     -1     65     66 149.3  -1.3  33116  272.14 0864.97
2015 04 09 06 29 01 .97      25    -62     -2     67     68 158.1  -2.2  33114  272.10 0864.97
2015 04 09 06 29 02 .22      24    -58      3     63     64 157.3   2.8  33116  272.14 0864.97
2015 04 09 06 29 02 .47      18    -56     -2     60     61 161.7  -2.2  33116  272.15 0864.97
2015 04 09 06 29 02 .72      27    -54      4     61     62 153.7   3.8  33114  272.12 0864.97
2015 04 09 06 29 02 .98      27    -54      4     61     62 153.7   3.8  33114  272.12 0864.97
2015 04 09 06 29 03 .23      27    -54      4     61     62 153.7   3.8  33114  272.12 0864.97
2015 04 09 06 29 03 .48      27    -54      4     61     62 153.7   3.8  33114  272.12 0864.97
2015 04 09 06 29 03 .73      23    -49      2     55     56 154.5   2.8  33116  272.14 0864.97
2015 04 09 06 29 03 .98      28    -58      5     65     66 153.7   4.9  33116  272.14 0864.97
2015 04 09 06 29 04 .23      31    -54      3     63     64 150.1   2.8  33116  272.14 0864.97
2015 04 09 06 29 04 .48      27    -54      4     61     62 153.7   3.8  33114  272.12 0864.97
2015 04 09 06 29 04 .73      27    -54      4     61     62 153.7   3.8  33114  272.12 0864.97
2015 04 09 06 29 04 .98      27    -54      4     61     62 153.7   3.8  33114  272.12 0864.98
2015 04 09 06 29 05 .23      27    -54      4     61     62 153.7   3.8  33114  272.12 0864.98
2015 04 09 06 29 05 .48      23    -49      2     55     56 154.5   2.8  33116  272.14 0864.98
2015 04 09 06 29 05 .74      27    -54      4     61     62 153.7   3.8  33114  272.12 0864.98
2015 04 09 06 29 06 .00      25    -53     -2     59     60 154.6  -2.2  33118  272.19 0864.98
2015 04 09 06 29 06 .24      27    -58      0     65     66 154.6  -0.3  33120  272.22 0864.98
2015 04 09 06 29 06 .49      24    -58      3     63     64 157.3   2.8  33116  272.14 0864.98
2015 04 09 06 29 06 .74      31    -54      3     63     64 150.1   2.8  33112  272.09 0864.98
2015 04 09 06 29 06 .99      31    -54      3     63     64 150.1   2.8  33112  272.09 0864.98
2015 04 09 06 29 07 .24      34    -53     -1     64     65 147.5  -1.2  33114  272.12 0864.98
2015 04 09 06 29 07 .50      34    -53     -1     64     65 147.5  -1.2  33114  272.12 0864.98
2015 04 09 06 29 07 .75      34    -62     -1     71     72 151.0  -1.2  33118  272.17 0864.98
2015 04 09 06 29 08 .01      32    -58     -2     67     68 151.0  -2.2  33116  272.14 0864.98
2015 04 09 06 29 08 .25      32    -57     -2     66     67 150.1  -2.2  33112  272.09 0864.98
2015 04 09 06 29 08 .50      34    -53     -1     64     65 147.5  -1.2  33114  272.12 0864.98
2015 04 09 06 29 08 .75      27    -54      4     61     62 153.7   3.8  33114  272.12 0864.98
2015 04 09 06 29 09 .00      32    -58     -2     67     68 151.0  -2.2  33116  272.14 0864.98
2015 04 09 06 29 09 .25      34    -53     -1     64     65 147.5  -1.2  33114  272.12 0864.98
2015 04 09 06 29 09 .50      32    -58     -2     67     68 151.0  -2.2  33116  272.14 0864.98
2015 04 09 06 29 09 .75      31    -49     -2     59     60 147.4  -2.2  33116  272.14 0864.98
2015 04 09 06 29 10 .00      28    -57     -1     64     65 153.7  -1.2  33112  272.07 0864.98
2015 04 09 06 29 10 .25      31    -54      3     63     64 150.1   2.8  33112  272.09 0864.98
2015 04 09 06 29 10 .50      28    -57     -1     64     65 153.7  -1.2  33112  272.07 0864.98
2015 04 09 06 29 10 .75      34    -53     -1     64     65 147.5  -1.2  33114  272.12 0864.98
2015 04 09 06 29 11 .00      31    -54      3     63     64 150.1   2.8  33112  272.09 0864.98
2015 04 09 06 29 11 .25      28    -57     -1     64     65 153.7  -1.2  33112  272.07 0864.98
2015 04 09 06 29 11 .51      31    -54      3     63     64 150.1   2.8  33112  272.09 0864.98
2015 04 09 06 29 11 .75      34    -53     -1     64     65 147.5  -1.2  33114  272.12 0864.98
2015 04 09 06 29 12 .01      37    -58      3     69     70 147.4   2.8  33116  272.14 0864.98
2015 04 09 06 29 12 .26      37    -58      2     70     71 147.4   1.8  33122  272.25 0864.98
2015 04 09 06 29 12 .51      34    -62     -1     71     72 151.0  -1.2  33118  272.17 0864.98
2015 04 09 06 29 12 .77      31    -62      2     70     71 153.7   1.8  33118  272.19 0864.98
2015 04 09 06 29 13 .02      33    -58      3     67     68 150.1   2.9  33120  272.22 0864.97
2015 04 09 06 29 13 .27      33    -58      3     67     68 150.1   2.9  33120  272.22 0864.97
2015 04 09 06 29 13 .52      31    -54      3     63     64 150.1   2.8  33122  272.25 0864.97
2015 04 09 06 29 13 .77      31    -54      3     63     64 150.1   2.8  33122  272.25 0864.97
2015 04 09 06 29 14 .02      33    -58      3     67     68 150.1   2.9  33120  272.22 0864.97
2015 04 09 06 29 14 .28      33    -58      3     67     68 150.1   2.9  33118  272.17 0864.97
2015 04 09 06 29 14 .52      35    -54      0     65     66 146.6  -0.3  33124  272.27 0864.97
2015 04 09 06 29 14 .77      31    -54      3     63     64 150.1   2.8  33122  272.25 0864.97
2015 04 09 06 29 15 .02      34    -62     -1     71     72 151.0  -1.2  33118  272.17 0864.97
2015 04 09 06 29 15 .27      31    -54      3     63     64 150.1   2.8  33122  272.25 0864.97
2015 04 09 06 29 15 .52      35    -54      0     65     66 146.6  -0.3  33124  272.27 0864.97
2015 04 09 06 29 15 .77      35    -54      0     65     66 146.6  -0.3  33124  272.27 0864.97
2015 04 09 06 29 16 .02      35    -54      0     65     66 146.6  -0.3  33124  272.27 0864.97
2015 04 09 06 29 16 .28      35    -54      0     65     66 146.6  -0.3  33124  272.27 0864.97
2015 04 09 06 29 16 .53      39    -54     -2     67     68 143.9  -2.2  33122  272.25 0864.97
2015 04 09 06 29 16 .78      37    -58      3     69     70 147.4   2.8  33116  272.14 0864.97
2015 04 09 06 29 17 .03      39    -54     -2     67     68 143.9  -2.2  33122  272.25 0864.97
2015 04 09 06 29 17 .28      35    -54      0     65     66 146.6  -0.3  33124  272.27 0864.97
2015 04 09 06 29 17 .53      36    -57      2     68     69 147.4   1.8  33126  272.30 0864.97
2015 04 09 06 29 17 .78      36    -57      2     68     69 147.4   1.8  33126  272.30 0864.97
2015 04 09 06 29 18 .03      35    -54      0     65     66 146.6  -0.3  33124  272.27 0864.97
2015 04 09 06 29 18 .28      39    -54     -2     67     68 143.9  -2.2  33122  272.25 0864.97
2015 04 09 06 29 18 .53      37    -49      3     62     63 143.0   2.9  33120  272.20 0864.97
2015 04 09 06 29 18 .78      39    -54     -2     67     68 143.9  -2.2  33122  272.25 0864.97
2015 04 09 06 29 19 .03      39    -54     -2     67     68 143.9  -2.2  33122  272.25 0864.97
2015 04 09 06 29 19 .28      37    -58     -3     69     70 147.4  -3.1  33120  272.22 0864.97
2015 04 09 06 29 19 .55      42    -58     -1     72     73 143.9  -1.3  33118  272.17 0864.97
2015 04 09 06 29 19 .79      42    -58     -1     72     73 143.9  -1.3  33120  272.22 0864.97
2015 04 09 06 29 20 .05      42    -58     -1     72     73 143.9  -1.3  33120  272.22 0864.97
2015 04 09 06 29 20 .30      35    -54      0     65     66 146.6  -0.3  33124  272.27 0864.97
2015 04 09 06 29 20 .55      36    -57      2     68     69 147.4   1.8  33126  272.30 0864.97
2015 04 09 06 29 20 .80      41    -57     -1     71     72 143.9  -1.2  33126  272.32 0864.97
2015 04 09 06 29 21 .05      41    -57     -1     71     72 143.9  -1.2  33126  272.32 0864.97
2015 04 09 06 29 21 .30      35    -54      0     65     66 146.6  -0.3  33124  272.27 0864.96
2015 04 09 06 29 21 .55      34    -62     -1     71     72 151.0  -1.2  33118  272.17 0864.96
2015 04 09 06 29 21 .80      34    -62     -1     71     72 151.0  -1.2  33118  272.17 0864.96
2015 04 09 06 29 22 .05      37    -49      3     62     63 143.0   2.9  33120  272.20 0864.96
2015 04 09 06 29 22 .30      34    -53     -1     64     65 147.5  -1.2  33120  272.22 0864.96
2015 04 09 06 29 22 .55      36    -57      2     68     69 147.4   1.8  33126  272.30 0864.96
2015 04 09 06 29 22 .80      36    -57      2     68     69 147.4   1.8  33126  272.30 0864.96
2015 04 09 06 29 23 .05      39    -54     -2     67     68 143.9  -2.2  33122  272.25 0864.96
2015 04 09 06 29 23 .30      35    -54      0     65     66 146.6  -0.3  33124  272.27 0864.96
2015 04 09 06 29 23 .55      39    -54     -2     67     68 143.9  -2.2  33122  272.25 0864.96
2015 04 09 06 29 23 .80      39    -54      3     67     68 143.9   2.9  33118  272.17 0864.96
2015 04 09 06 29 24 .05      31    -49     -2     59     60 147.4  -2.2  33116  272.14 0864.97
2015 04 09 06 29 24 .30      34    -53     -1     64     65 147.5  -1.2  33114  272.12 0864.97
2015 04 09 06 29 24 .56      34    -53     -1     64     65 147.5  -1.2  33114  272.12 0864.97
2015 04 09 06 29 24 .80      31    -54      3     63     64 150.1   2.8  33112  272.09 0864.97
2015 04 09 06 29 25 .06      34    -53     -1     64     65 147.5  -1.2  33114  272.12 0864.97
2015 04 09 06 29 25 .31      34    -53     -1     64     65 147.5  -1.2  33114  272.12 0864.97
2015 04 09 06 29 25 .56      39    -54     -2     67     68 143.9  -2.2  33122  272.25 0864.97
2015 04 09 06 29 25 .81      36    -57      2     68     69 147.4   1.8  33126  272.30 0864.97
2015 04 09 06 29 26 .06      32    -57     -2     66     67 150.1  -2.2  33126  272.30 0864.97
2015 04 09 06 29 26 .31      39    -54     -2     67     68 143.9  -2.2  33122  272.25 0864.97
2015 04 09 06 29 26 .57      39    -54     -2     67     68 143.9  -2.2  33122  272.25 0864.97
2015 04 09 06 29 26 .82      32    -58     -2     67     68 151.0  -2.2  33120  272.20 0864.97
2015 04 09 06 29 27 .07      34    -53     -1     64     65 147.5  -1.2  33114  272.12 0864.97
2015 04 09 06 29 27 .32      34    -53     -1     64     65 147.5  -1.2  33114  272.12 0864.97
2015 04 09 06 29 27 .57      34    -53     -1     64     65 147.5  -1.2  33114  272.12 0864.96
2015 04 09 06 29 27 .82      42    -50     -1     66     67 139.5  -1.2  33120  272.22 0864.96
2015 04 09 06 29 28 .07      35    -54      0     65     66 146.6  -0.3  33124  272.27 0864.96
2015 04 09 06 29 28 .32      36    -57      2     68     69 147.4   1.8  33126  272.30 0864.96
2015 04 09 06 29 28 .57      35    -54      0     65     66 146.6  -0.3  33124  272.27 0864.96
2015 04 09 06 29 28 .82      36    -57      2     68     69 147.4   1.8  33126  272.30 0864.96
2015 04 09 06 29 29 .08      35    -54      0     65     66 146.6  -0.3  33124  272.27 0864.96
2015 04 09 06 29 29 .33      35    -54      0     65     66 146.6  -0.3  33124  272.27 0864.97
2015 04 09 06 29 29 .58      35    -54      0     65     66 146.6  -0.3  33124  272.27 0864.97
2015 04 09 06 29 29 .83      35    -54      0     65     66 146.6  -0.3  33124  272.27 0864.97
2015 04 09 06 29 30 .08      35    -54      0     65     66 146.6  -0.3  33124  272.27 0864.97
2015 04 09 06 29 30 .33      35    -54      0     65     66 146.6  -0.3  33124  272.27 0864.97
2015 04 09 06 29 30 .58      36    -57      2     68     69 147.4   1.8  33126  272.30 0864.97
2015 04 09 06 29 30 .83      35    -54      0     65     66 146.6  -0.3  33124  272.27 0864.97
2015 04 09 06 29 31 .08      39    -54     -2     67     68 143.9  -2.2  33122  272.25 0864.96
2015 04 09 06 29 31 .33      35    -54      0     65     66 146.6  -0.3  33124  272.27 0864.96
2015 04 09 06 29 31 .58      38    -53     -1     66     67 144.8  -1.3  33122  272.24 0864.96
2015 04 09 06 29 31 .83      39    -54     -2     67     68 143.9  -2.2  33122  272.25 0864.96
2015 04 09 06 29 32 .08      39    -54     -2     67     68 143.9  -2.2  33122  272.25 0864.96
2015 04 09 06 29 32 .33      35    -54      0     65     66 146.6  -0.3  33124  272.27 0864.96
2015 04 09 06 29 32 .58      35    -54      0     65     66 146.6  -0.3  33124  272.27 0864.96
2015 04 09 06 29 32 .83      35    -54      0     65     66 146.6  -0.3  33124  272.27 0864.96
2015 04 09 06 29 33 .08      39    -54     -2     67     68 143.9  -2.2  33122  272.25 0864.96
2015 04 09 06 29 33 .33      39    -54     -2     67     68 143.9  -2.2  33122  272.25 0864.96
2015 04 09 06 29 33 .59      39    -54     -2     67     68 143.9  -2.2  33122  272.25 0864.96
2015 04 09 06 29 33 .85      39    -54     -2     67     68 143.9  -2.2  33122  272.25 0864.96
2015 04 09 06 29 34 .10      39    -54     -2     67     68 143.9  -2.2  33122  272.25 0864.96
2015 04 09 06 29 34 .35      39    -54     -2     67     68 143.9  -2.2  33122  272.25 0864.96
2015 04 09 06 29 34 .60      42    -50     -1     66     67 139.5  -1.2  33120  272.22 0864.96
2015 04 09 06 29 34 .85      37    -49      3     62     63 143.0   2.9  33120  272.20 0864.96
2015 04 09 06 29 35 .10      34    -45      0     57     58 143.0   0.8  33118  272.17 0864.96
2015 04 09 06 29 35 .35      34    -45      0     57     58 143.0   0.8  33118  272.17 0864.96
2015 04 09 06 29 35 .62      34    -45      0     57     58 143.0   0.8  33118  272.17 0864.97
2015 04 09 06 29 35 .85      34    -45      0     57     58 143.0   0.8  33118  272.17 0864.97
2015 04 09 06 29 36 .10      34    -45      0     57     58 143.0   0.8  33118  272.17 0864.97
2015 04 09 06 29 36 .35      34    -45      0     57     58 143.0   0.8  33118  272.17 0864.97
2015 04 09 06 29 36 .60      31    -49     -2     59     60 147.4  -2.2  33116  272.14 0864.97
2015 04 09 06 29 36 .85      31    -49     -2     59     60 147.4  -2.2  33116  272.14 0864.97
2015 04 09 06 29 37 .11      37    -49      3     62     63 143.0   2.9  33116  272.14 0864.97
2015 04 09 06 29 37 .35      34    -53     -1     64     65 147.5  -1.2  33114  272.12 0864.97
2015 04 09 06 29 37 .61      36    -57      2     68     69 147.4   1.8  33126  272.30 0864.97
2015 04 09 06 29 37 .86      36    -57      2     68     69 147.4   1.8  33126  272.30 0864.97
2015 04 09 06 29 38 .11      31    -54      3     63     64 150.1   2.8  33130  272.38 0864.97
2015 04 09 06 29 38 .36      36    -57      2     68     69 147.4   1.8  33126  272.30 0864.97
2015 04 09 06 29 38 .61      36    -57      2     68     69 147.4   1.8  33126  272.30 0864.97
2015 04 09 06 29 38 .86      31    -54      3     63     64 150.1   2.8  33122  272.25 0864.97
2015 04 09 06 29 39 .11      39    -54      3     67     68 143.9   2.9  33126  272.32 0864.97
2015 04 09 06 29 39 .36      36    -57      2     68     69 147.4   1.8  33128  272.34 0864.97
2015 04 09 06 29 39 .61      31    -54      3     63     64 150.1   2.8  33130  272.38 0864.97
2015 04 09 06 29 39 .86      32    -57      3     66     67 150.1   2.9  33130  272.37 0864.97
2015 04 09 06 29 40 .11      34    -53     -1     64     65 147.5  -1.2  33132  272.42 0864.97
2015 04 09 06 29 40 .36      35    -54      0     65     66 146.6  -0.3  33124  272.27 0864.97
2015 04 09 06 29 40 .63      36    -57      2     68     69 147.4   1.8  33126  272.30 0864.97
2015 04 09 06 29 40 .87      36    -57      2     68     69 147.4   1.8  33126  272.30 0864.97
2015 04 09 06 29 41 .12      35    -54      0     65     66 146.6  -0.3  33124  272.27 0864.97
2015 04 09 06 29 41 .37      35    -54      0     65     66 146.6  -0.3  33124  272.27 0864.97
2015 04 09 06 29 41 .62      35    -54      0     65     66 146.6  -0.3  33124  272.27 0864.97
2015 04 09 06 29 41 .87      35    -54      0     65     66 146.6  -0.3  33124  272.27 0864.97
2015 04 09 06 29 42 .14      36    -57      2     68     69 147.4   1.8  33126  272.30 0864.97
2015 04 09 06 29 42 .38      36    -57      2     68     69 147.4   1.8  33126  272.30 0864.97
2015 04 09 06 29 42 .63      35    -54      0     65     66 146.6  -0.3  33124  272.27 0864.97
2015 04 09 06 29 42 .88      35    -54      0     65     66 146.6  -0.3  33124  272.27 0864.97
2015 04 09 06 29 43 .13      36    -57      2     68     69 147.4   1.8  33126  272.30 0864.97
2015 04 09 06 29 43 .38      39    -54      3     67     68 143.9   2.9  33126  272.32 0864.97
2015 04 09 06 29 43 .63      36    -57      2     68     69 147.5   1.8  33130  272.38 0864.97
2015 04 09 06 29 43 .88      36    -57      2     68     69 147.5   1.8  33130  272.38 0864.97
2015 04 09 06 29 44 .13      32    -57      3     66     67 150.1   2.9  33130  272.37 0864.97
2015 04 09 06 29 44 .38      34    -53     -1     64     65 147.5  -1.2  33132  272.42 0864.97
2015 04 09 06 29 44 .63      34    -53     -1     64     65 147.5  -1.2  33132  272.42 0864.97
2015 04 09 06 29 44 .88      34    -53     -1     64     65 147.5  -1.2  33132  272.42 0864.98
2015 04 09 06 29 45 .13      34    -53     -1     64     65 147.5  -1.2  33132  272.42 0864.98
2015 04 09 06 29 45 .38      36    -57     -3     68     69 147.4  -3.1  33130  272.37 0864.98
2015 04 09 06 29 45 .66      37    -58      3     69     70 147.4   2.8  33116  272.14 0864.98
2015 04 09 06 29 45 .89      36    -57      2     68     69 147.4   1.8  33126  272.30 0864.98
2015 04 09 06 29 46 .13      35    -54      0     65     66 146.6  -0.3  33124  272.27 0864.98
2015 04 09 06 29 46 .38      37    -49      1     62     63 143.0   1.8  33128  272.34 0864.98
2015 04 09 06 29 46 .64      36    -57      2     68     69 147.4   1.8  33126  272.30 0864.98
2015 04 09 06 29 46 .89      36    -57      2     68     69 147.4   1.8  33126  272.30 0864.98
2015 04 09 06 29 47 .14      36    -57      2     68     69 147.4   1.8  33126  272.30 0864.98
2015 04 09 06 29 47 .40      35    -61      6     71     72 150.1   4.9  33132  272.40 0864.98
2015 04 09 06 29 47 .65      37    -58      3     69     70 147.4   2.8  33134  272.43 0864.98
2015 04 09 06 29 47 .90      34    -53     -1     64     65 147.5  -1.2  33132  272.42 0864.98
2015 04 09 06 29 48 .15      39    -54      3     67     68 143.9   2.9  33126  272.32 0864.98
2015 04 09 06 29 48 .40      36    -57      2     68     69 147.4   1.8  33126  272.30 0864.97
2015 04 09 06 29 48 .65      36    -57      2     68     69 147.4   1.8  33126  272.30 0864.97
2015 04 09 06 29 48 .90      39    -61      3     73     74 147.4   2.9  33124  272.27 0864.97
2015 04 09 06 29 49 .15      36    -57      2     68     69 147.4   1.8  33126  272.30 0864.97
2015 04 09 06 29 49 .40      36    -57      2     68     69 147.4   1.8  33126  272.30 0864.97
2015 04 09 06 29 49 .65      36    -57      2     68     69 147.4   1.8  33126  272.30 0864.97
2015 04 09 06 29 49 .90      35    -60     -1     70     71 149.3  -1.3  33126  272.32 0864.97
2015 04 09 06 29 50 .15      35    -60     -1     70     71 149.3  -1.3  33126  272.32 0864.97
2015 04 09 06 29 50 .40      34    -62     -1     71     72 151.0  -1.2  33118  272.17 0864.97
2015 04 09 06 29 50 .66      34    -62     -1     71     72 151.0  -1.2  33118  272.17 0864.97
2015 04 09 06 29 50 .91      33    -58      3     67     68 150.1   2.9  33120  272.22 0864.97
2015 04 09 06 29 51 .16      36    -57      2     68     69 147.4   1.8  33126  272.30 0864.97
2015 04 09 06 29 51 .41      36    -57      2     68     69 147.4   1.8  33126  272.30 0864.97
2015 04 09 06 29 51 .66      35    -54      0     65     66 146.6  -0.3  33124  272.27 0864.97
2015 04 09 06 29 51 .91      39    -62     -2     74     75 147.5  -2.2  33120  272.20 0864.97
2015 04 09 06 29 52 .16      37    -58      3     69     70 147.4   2.8  33116  272.14 0864.97
2015 04 09 06 29 52 .41      34    -62     -1     71     72 151.0  -1.2  33118  272.17 0864.97
2015 04 09 06 29 52 .66      36    -57      2     68     69 147.4   1.8  33126  272.30 0864.97
2015 04 09 06 29 52 .91      31    -54      3     63     64 150.1   2.8  33122  272.25 0864.97
2015 04 09 06 29 53 .16      35    -54      0     65     66 146.6  -0.3  33124  272.27 0864.97
2015 04 09 06 29 53 .41      36    -57      2     68     69 147.4   1.8  33126  272.30 0864.97
2015 04 09 06 29 53 .66      35    -61      6     71     72 150.1   4.9  33122  272.24 0864.97
2015 04 09 06 29 53 .91      36    -57      2     68     69 147.4   1.8  33126  272.30 0864.97
2015 04 09 06 29 54 .16      36    -57      2     68     69 147.4   1.8  33126  272.30 0864.97
2015 04 09 06 29 54 .42      35    -61      6     71     72 150.1   4.9  33132  272.40 0864.97
2015 04 09 06 29 54 .67      37    -58      3     69     70 147.4   2.8  33134  272.43 0864.97
2015 04 09 06 29 54 .92      37    -58      3     69     70 147.4   2.8  33134  272.43 0864.97
2015 04 09 06 29 55 .18      39    -61      3     73     74 147.4   2.9  33132  272.42 0864.97
2015 04 09 06 29 55 .42      37    -58      3     69     70 147.4   2.8  33134  272.43 0864.97
2015 04 09 06 29 55 .68      37    -58      3     69     70 147.4   2.8  33134  272.43 0864.97
2015 04 09 06 29 55 .93      37    -58      3     69     70 147.4   2.8  33134  272.43 0864.97
2015 04 09 06 29 56 .18      37    -58      3     69     70 147.4   2.8  33134  272.43 0864.97
2015 04 09 06 29 56 .43      39    -61      3     73     74 147.4   2.9  33132  272.42 0864.97
2015 04 09 06 29 56 .68      39    -61      3     73     74 147.4   2.9  33132  272.42 0864.97
2015 04 09 06 29 56 .93      39    -61      3     73     74 147.4   2.9  33132  272.42 0864.97
2015 04 09 06 29 57 .18      37    -58      3     69     70 147.4   2.8  33134  272.43 0864.97
2015 04 09 06 29 57 .43      39    -61      3     73     74 147.4   2.9  33132  272.42 0864.97
2015 04 09 06 29 57 .68      39    -61      3     73     74 147.4   2.9  33132  272.42 0864.97
2015 04 09 06 29 57 .93      37    -58      3     69     70 147.4   2.8  33134  272.43 0864.97
2015 04 09 06 29 58 .18      37    -58      3     69     70 147.4   2.8  33134  272.43 0864.97
2015 04 09 06 29 58 .43      33    -58      3     67     68 150.1   2.9  33136  272.47 0864.97
2015 04 09 06 29 58 .68      37    -58      3     69     70 147.4   2.8  33134  272.43 0864.97
2015 04 09 06 29 58 .93      37    -58      3     69     70 147.4   2.8  33134  272.43 0864.97
2015 04 09 06 29 59 .18      37    -58      3     69     70 147.4   2.8  33134  272.43 0864.97
2015 04 09 06 29 59 .44      33    -58      3     67     68 150.1   2.9  33136  272.47 0864.97
2015 04 09 06 29 59 .68      33    -58      3     67     68 150.1   2.9  33136  272.47 0864.97
2015 04 09 06 29 59 .94      33    -58      3     67     68 150.1   2.9  33136  272.47 0864.97
2015 04 09 06 30 00 .19      31    -62      2     70     71 153.7   1.8  33136  272.48 0864.97
2015 04 09 06 30 00 .44      31    -62      2     70     71 153.7   1.8  33136  272.48 0864.97
2015 04 09 06 30 00 .69      33    -58      3     67     68 150.1   2.9  33138  272.52 0864.97
2015 04 09 06 30 00 .94      33    -58      3     67     68 150.1   2.9  33136  272.47 0864.97
2015 04 09 06 30 01 .19      33    -58      3     67     68 150.1   2.9  33136  272.47 0864.97
2015 04 09 06 30 01 .45      31    -62      2     70     71 153.7   1.8  33136  272.48 0864.97
2015 04 09 06 30 01 .70      31    -62      2     70     71 153.7   1.8  33136  272.48 0864.97
2015 04 09 06 30 01 .95      31    -62      2     70     71 153.7   1.8  33136  272.48 0864.97
2015 04 09 06 30 02 .20      31    -62      2     70     71 153.7   1.8  33136  272.48 0864.97
2015 04 09 06 30 02 .45      31    -62      2     70     71 153.7   1.8  33136  272.48 0864.97
2015 04 09 06 30 02 .70      31    -62      2     70     71 153.7   1.8  33136  272.48 0864.97
2015 04 09 06 30 02 .95      31    -62      2     70     71 153.7   1.8  33136  272.48 0864.97
2015 04 09 06 30 03 .20      31    -62      2     70     71 153.7   1.8  33136  272.48 0864.97
2015 04 09 06 30 03 .45      31    -62      2     70     71 153.7   1.8  33136  272.48 0864.97
2015 04 09 06 30 03 .70      35    -61      6     71     72 150.1   4.9  33132  272.40 0864.97
2015 04 09 06 30 03 .96      31    -62      8     70     71 152.8   6.9  33132  272.42 0864.97
2015 04 09 06 30 04 .20      32    -64      3     72     73 152.8   2.9  33130  272.37 0864.97
2015 04 09 06 30 04 .46      32    -64      3     72     73 152.8   2.9  33130  272.37 0864.97
2015 04 09 06 30 04 .71      25    -60      4     66     67 157.3   3.8  33126  272.32 0864.97
2015 04 09 06 30 04 .96      27    -64      7     70     71 157.3   5.9  33124  272.29 0864.97
2015 04 09 06 30 05 .21      32    -57      3     66     67 150.1   2.9  33126  272.32 0864.97
2015 04 09 06 30 05 .46      27    -57      5     64     65 154.5   4.9  33126  272.30 0864.97
2015 04 09 06 30 05 .71      27    -57      5     64     65 154.5   4.9  33126  272.30 0864.97
2015 04 09 06 30 05 .96      30    -61      9     69     70 153.7   8.0  33124  272.27 0864.97
2015 04 09 06 30 06 .21      27    -57      5     64     65 154.5   4.9  33126  272.30 0864.97
2015 04 09 06 30 06 .46      35    -61      6     71     72 150.1   4.9  33122  272.24 0864.97
2015 04 09 06 30 06 .71      32    -65      3     73     74 153.7   2.9  33120  272.22 0864.97
2015 04 09 06 30 06 .96      32    -65      3     73     74 153.7   2.9  33120  272.22 0864.97
2015 04 09 06 30 07 .21      27    -64     -1     70     71 157.3  -1.3  33124  272.27 0864.97
2015 04 09 06 30 07 .46      32    -57      3     66     67 150.1   2.9  33124  272.27 0864.97
2015 04 09 06 30 07 .71      32    -57      3     66     67 150.1   2.9  33124  272.27 0864.97
2015 04 09 06 30 07 .96      30    -60      2     68     69 153.7   1.8  33122  272.24 0864.97
2015 04 09 06 30 08 .22      31    -62      2     70     71 153.7   1.8  33118  272.19 0864.97
2015 04 09 06 30 08 .48      27    -58      0     65     66 154.6  -0.3  33120  272.22 0864.97
2015 04 09 06 30 08 .73      31    -62      2     70     71 153.7   1.8  33118  272.19 0864.97
2015 04 09 06 30 08 .98      31    -62      2     70     71 153.7   1.8  33118  272.19 0864.97
2015 04 09 06 30 09 .23      31    -62      2     70     71 153.7   1.8  33118  272.19 0864.97
2015 04 09 06 30 09 .48      31    -62      2     70     71 153.7   1.8  33118  272.19 0864.97
2015 04 09 06 30 09 .73      31    -62      2     70     71 153.7   1.8  33118  272.19 0864.97
2015 04 09 06 30 09 .98      31    -62      2     70     71 153.7   1.8  33118  272.19 0864.97
2015 04 09 06 30 10 .23      31    -62      2     70     71 153.7   1.8  33118  272.19 0864.97
2015 04 09 06 30 10 .48      31    -62      2     70     71 153.7   1.8  33118  272.19 0864.97
2015 04 09 06 30 10 .73      31    -62      2     70     71 153.7   1.8  33118  272.19 0864.97
2015 04 09 06 30 10 .98      31    -62      2     70     71 153.7   1.8  33118  272.19 0864.97
2015 04 09 06 30 11 .24      30    -60      2     68     69 153.7   1.8  33122  272.24 0864.97
2015 04 09 06 30 11 .48      35    -60     -1     70     71 149.3  -1.3  33126  272.32 0864.97
2015 04 09 06 30 11 .73      35    -60     -1     70     71 149.3  -1.3  33126  272.32 0864.97
2015 04 09 06 30 11 .98      35    -60     -1     70     71 149.3  -1.3  33126  272.32 0864.97
2015 04 09 06 30 12 .23      35    -60     -1     70     71 149.3  -1.3  33126  272.32 0864.97
2015 04 09 06 30 12 .48      35    -60     -1     70     71 149.3  -1.3  33126  272.32 0864.97
2015 04 09 06 30 12 .73      35    -69     -1     78     79 152.8  -1.3  33124  272.27 0864.97
2015 04 09 06 30 12 .99      32    -65      3     73     74 153.7   2.9  33120  272.22 0864.97
2015 04 09 06 30 13 .24      25    -60      4     66     67 157.3   3.8  33126  272.32 0864.97
2015 04 09 06 30 13 .49      30    -61      9     69     70 153.7   8.0  33124  272.27 0864.97
2015 04 09 06 30 13 .74      27    -57      5     64     65 154.5   4.9  33126  272.30 0864.97
2015 04 09 06 30 13 .99      32    -57      3     66     67 150.1   2.9  33130  272.37 0864.97
2015 04 09 06 30 14 .24      31    -54      3     63     64 150.1   2.8  33130  272.38 0864.97
2015 04 09 06 30 14 .49      32    -59      2     68     69 151.9   1.8  33128  272.35 0864.97
2015 04 09 06 30 14 .74      27    -57      5     64     65 154.5   4.9  33126  272.30 0864.97
2015 04 09 06 30 14 .99      31    -54      3     63     64 150.1   2.8  33130  272.38 0864.97
2015 04 09 06 30 15 .25      31    -54      3     63     64 150.1   2.8  33130  272.38 0864.97
2015 04 09 06 30 15 .50      28    -57     -1     64     65 153.7  -1.2  33130  272.37 0864.97
2015 04 09 06 30 15 .75      28    -57     -1     64     65 153.7  -1.2  33130  272.37 0864.97
2015 04 09 06 30 16 .00      28    -57     -1     64     65 153.7  -1.2  33130  272.37 0864.97
2015 04 09 06 30 16 .25      31    -54      3     63     64 150.1   2.8  33126  272.30 0864.97
2015 04 09 06 30 16 .51      31    -54      3     63     64 150.1   2.8  33130  272.38 0864.97
2015 04 09 06 30 16 .75      32    -59      2     68     69 151.9   1.8  33128  272.35 0864.97
2015 04 09 06 30 17 .01      32    -59      2     68     69 151.9   1.8  33128  272.35 0864.97
2015 04 09 06 30 17 .26      36    -57      2     68     69 147.4   1.8  33126  272.30 0864.97
2015 04 09 06 30 17 .51      32    -59      2     68     69 151.9   1.8  33128  272.35 0864.96
2015 04 09 06 30 17 .76      32    -59      2     68     69 151.9   1.8  33128  272.35 0864.96
2015 04 09 06 30 18 .01      32    -59      2     68     69 151.9   1.8  33128  272.35 0864.96
2015 04 09 06 30 18 .26      32    -59      2     68     69 151.9   1.8  33128  272.35 0864.96
2015 04 09 06 30 18 .51      32    -59      2     68     69 151.9   1.8  33128  272.35 0864.96
2015 04 09 06 30 18 .76      32    -59      2     68     69 151.9   1.8  33128  272.35 0864.96
2015 04 09 06 30 19 .01      28    -57     -1     64     65 153.7  -1.2  33130  272.37 0864.96
2015 04 09 06 30 19 .26      32    -59      2     68     69 151.9   1.8  33128  272.35 0864.96
2015 04 09 06 30 19 .51      32    -59      2     68     69 151.9   1.8  33128  272.35 0864.97
2015 04 09 06 30 19 .76      32    -59      2     68     69 151.9   1.8  33128  272.35 0864.97
2015 04 09 06 30 20 .01      28    -57     -1     64     65 153.7  -1.2  33130  272.37 0864.97
2015 04 09 06 30 20 .26      31    -54      3     63     64 150.1   2.8  33130  272.38 0864.97
2015 04 09 06 30 20 .51      32    -59      2     68     69 151.9   1.8  33128  272.35 0864.97
2015 04 09 06 30 20 .76      32    -59      2     68     69 151.9   1.8  33128  272.35 0864.97
2015 04 09 06 30 21 .02      27    -57      5     64     65 154.5   4.9  33126  272.30 0864.97
2015 04 09 06 30 21 .27      31    -54      3     63     64 150.1   2.8  33130  272.38 0864.96
2015 04 09 06 30 21 .51      31    -54      3     63     64 150.1   2.8  33130  272.38 0864.96
2015 04 09 06 30 21 .77      31    -54      3     63     64 150.1   2.8  33130  272.38 0864.96
2015 04 09 06 30 22 .02      27    -54      4     61     62 153.7   3.8  33132  272.42 0864.96
2015 04 09 06 30 22 .28      27    -45      3     53     54 148.4   3.8  33136  272.47 0864.96
2015 04 09 06 30 22 .53      27    -54      4     61     62 153.7   3.8  33132  272.42 0864.96
2015 04 09 06 30 22 .78      27    -54      4     61     62 153.7   3.8  33132  272.42 0864.96
2015 04 09 06 30 23 .03      28    -49      0     57     58 150.1   0.8  33132  272.42 0864.96
2015 04 09 06 30 23 .28      31    -49      3     59     60 147.4   3.8  33130  272.37 0864.96
2015 04 09 06 30 23 .53      31    -49      3     59     60 147.4   3.8  33130  272.37 0864.96
2015 04 09 06 30 23 .79      28    -49      0     57     58 150.1   0.8  33136  272.47 0864.96
2015 04 09 06 30 24 .03      31    -49     -2     59     60 147.4  -2.2  33142  272.58 0864.96
2015 04 09 06 30 24 .28      31    -49     -2     59     60 147.4  -2.2  33142  272.58 0864.96
2015 04 09 06 30 24 .53      29    -54     -3     62     63 151.1  -3.1  33138  272.50 0864.96
2015 04 09 06 30 24 .78      27    -54     -2     61     62 153.7  -2.2  33128  272.35 0864.96
2015 04 09 06 30 25 .04      32    -57     -2     66     67 150.1  -2.2  33130  272.38 0864.96
2015 04 09 06 30 25 .29      27    -57      5     64     65 154.5   4.9  33126  272.30 0864.96
2015 04 09 06 30 25 .54      32    -57      3     66     67 150.1   2.9  33126  272.32 0864.96
2015 04 09 06 30 25 .79      31    -54      3     63     64 150.1   2.8  33122  272.25 0864.96
2015 04 09 06 30 26 .04      31    -54      3     63     64 150.1   2.8  33122  272.25 0864.96
2015 04 09 06 30 26 .29      31    -54      3     63     64 150.1   2.8  33122  272.25 0864.96
2015 04 09 06 30 26 .54      30    -54      7     62     63 151.0   7.1  33126  272.32 0864.96
2015 04 09 06 30 26 .79      24    -50     10     56     57 154.6  10.1  33130  272.37 0864.95
2015 04 09 06 30 27 .04      27    -54      4     61     62 153.7   3.8  33132  272.42 0864.95
2015 04 09 06 30 27 .29      27    -54      4     61     62 153.7   3.8  33136  272.47 0864.95
2015 04 09 06 30 27 .54      19    -50     11     54     56 159.1  12.2  33138  272.50 0864.95
2015 04 09 06 30 27 .79      28    -58     15     65     67 153.7  13.2  33138  272.52 0864.95
2015 04 09 06 30 28 .04      27    -57      5     64     65 154.5   4.9  33144  272.60 0864.95
2015 04 09 06 30 28 .29      25    -53      5     59     60 154.6   4.9  33142  272.57 0864.95
2015 04 09 06 30 28 .54      28    -49      6     57     58 150.1   6.9  33140  272.55 0864.95
2015 04 09 06 30 28 .79      28    -49      6     57     58 150.1   6.9  33140  272.55 0864.95
2015 04 09 06 30 29 .04      29    -48      5     57     58 148.4   5.9  33138  272.50 0864.95
2015 04 09 06 30 29 .30      31    -54      3     63     64 150.1   2.8  33140  272.55 0864.95
2015 04 09 06 30 29 .57      23    -49      2     55     56 154.5   2.8  33134  272.43 0864.95
2015 04 09 06 30 29 .81      23    -49      2     55     56 154.5   2.8  33134  272.43 0864.95
2015 04 09 06 30 30 .05      31    -54      3     63     64 150.1   2.8  33130  272.38 0864.95
2015 04 09 06 30 30 .31      25    -53      5     59     60 154.6   4.9  33124  272.27 0864.96
2015 04 09 06 30 30 .56      25    -53      5     59     60 154.6   4.9  33126  272.32 0864.96
2015 04 09 06 30 30 .81      25    -60      4     66     67 157.3   3.8  33126  272.32 0864.96
2015 04 09 06 30 31 .06      25    -53      5     59     60 154.6   4.9  33124  272.27 0864.96
2015 04 09 06 30 31 .31      25    -53      5     59     60 154.6   4.9  33124  272.27 0864.96
2015 04 09 06 30 31 .56      25    -53      5     59     60 154.6   4.9  33126  272.32 0864.96
2015 04 09 06 30 31 .81      20    -54      7     58     59 159.1   6.9  33130  272.38 0864.96
2015 04 09 06 30 32 .06      27    -54      4     61     62 153.7   3.8  33132  272.42 0864.96
2015 04 09 06 30 32 .31      29    -48      5     57     58 148.4   5.9  33138  272.50 0864.96
2015 04 09 06 30 32 .56      29    -48      5     57     58 148.4   5.9  33138  272.50 0864.96
2015 04 09 06 30 32 .81      23    -49      2     55     56 154.5   2.8  33134  272.43 0864.96
2015 04 09 06 30 33 .06      23    -49      2     55     56 154.5   2.8  33134  272.43 0864.96
2015 04 09 06 30 33 .31      28    -49      0     57     58 150.1   0.8  33136  272.47 0864.96
2015 04 09 06 30 33 .56      27    -54      4     61     62 153.7   3.8  33132  272.42 0864.96
2015 04 09 06 30 33 .81      28    -49      0     57     58 150.1   0.8  33136  272.47 0864.96
2015 04 09 06 30 34 .06      23    -49      2     55     56 154.5   2.8  33134  272.43 0864.96
2015 04 09 06 30 34 .32      23    -49      2     55     56 154.5   2.8  33134  272.43 0864.96
2015 04 09 06 30 34 .57      29    -48      5     57     58 148.4   5.9  33134  272.43 0864.96
2015 04 09 06 30 34 .82      31    -49      5     59     60 147.4   4.9  33138  272.52 0864.95
2015 04 09 06 30 35 .07      35    -49      1     61     62 143.9   1.8  33142  272.58 0864.95
2015 04 09 06 30 35 .32      31    -54      3     63     64 150.1   2.8  33140  272.55 0864.95
2015 04 09 06 30 35 .57      31    -54      3     63     64 150.1   2.8  33140  272.55 0864.95
2015 04 09 06 30 35 .82      31    -54      3     63     64 150.1   2.8  33140  272.55 0864.95
2015 04 09 06 30 36 .08      31    -49      5     59     60 147.4   4.9  33138  272.52 0864.95
2015 04 09 06 30 36 .33      31    -54      3     63     64 150.1   2.8  33140  272.55 0864.95
2015 04 09 06 30 36 .58      31    -54      3     63     64 150.1   2.8  33140  272.55 0864.95
2015 04 09 06 30 36 .83      31    -54      3     63     64 150.1   2.8  33140  272.55 0864.95
2015 04 09 06 30 37 .08      31    -54      3     63     64 150.1   2.8  33140  272.55 0864.95
2015 04 09 06 30 37 .33      31    -54      3     63     64 150.1   2.8  33140  272.55 0864.95
2015 04 09 06 30 37 .58      31    -49      5     59     60 147.4   4.9  33138  272.52 0864.95
2015 04 09 06 30 37 .83      31    -49      5     59     60 147.4   4.9  33138  272.52 0864.95
2015 04 09 06 30 38 .09      31    -54      3     63     64 150.1   2.8  33140  272.55 0864.95
2015 04 09 06 30 38 .33      31    -54      3     63     64 150.1   2.8  33140  272.55 0864.95
2015 04 09 06 30 38 .59      31    -54      3     63     64 150.1   2.8  33140  272.55 0864.96
2015 04 09 06 30 38 .84      31    -54      3     63     64 150.1   2.8  33140  272.55 0864.96
2015 04 09 06 30 39 .09      27    -58      0     65     66 154.6  -0.3  33138  272.52 0864.96
2015 04 09 06 30 39 .34      27    -58      0     65     66 154.6  -0.3  33138  272.52 0864.96
2015 04 09 06 30 39 .59      27    -58      0     65     66 154.6  -0.3  33138  272.52 0864.96
2015 04 09 06 30 39 .84      31    -54      3     63     64 150.1   2.8  33140  272.55 0864.96
2015 04 09 06 30 40 .09      25    -53      5     59     60 154.6   4.9  33142  272.57 0864.96
2015 04 09 06 30 40 .34      25    -53      5     59     60 154.6   4.9  33142  272.57 0864.95
2015 04 09 06 30 40 .59      23    -49      2     55     56 154.6   2.9  33144  272.60 0864.95
2015 04 09 06 30 40 .84      20    -54      0     58     59 159.1   0.8  33144  272.61 0864.95
2015 04 09 06 30 41 .09      25    -53      5     59     60 154.6   4.9  33142  272.57 0864.95
2015 04 09 06 30 41 .34      25    -53      5     59     60 154.6   4.9  33142  272.57 0864.95
2015 04 09 06 30 41 .59      25    -53      5     59     60 154.6   4.9  33142  272.57 0864.95
2015 04 09 06 30 41 .84      25    -53      5     59     60 154.6   4.9  33142  272.57 0864.95
2015 04 09 06 30 42 .09      27    -57      5     64     65 154.5   4.9  33144  272.60 0864.95
2015 04 09 06 30 42 .35      32    -57      4     66     67 151.0   3.8  33144  272.61 0864.95
2015 04 09 06 30 42 .59      25    -53      5     59     60 154.6   4.9  33142  272.57 0864.95
2015 04 09 06 30 42 .85      25    -53      5     59     60 154.6   4.9  33142  272.57 0864.95
2015 04 09 06 30 43 .10      25    -53      5     59     60 154.6   4.9  33142  272.57 0864.95
2015 04 09 06 30 43 .36      25    -53      5     59     60 154.6   4.9  33142  272.57 0864.95
2015 04 09 06 30 43 .61      25    -53      5     59     60 154.6   4.9  33142  272.57 0864.95
2015 04 09 06 30 43 .86      30    -54      3     62     63 151.0   2.9  33144  272.60 0864.95
2015 04 09 06 30 44 .11      31    -54      3     63     64 150.1   2.8  33140  272.55 0864.95
2015 04 09 06 30 44 .36      32    -57      4     66     67 151.0   3.8  33144  272.61 0864.95
2015 04 09 06 30 44 .61      32    -57      4     66     67 151.0   3.8  33144  272.61 0864.95
2015 04 09 06 30 44 .86      32    -57      4     66     67 151.0   3.8  33148  272.66 0864.96
2015 04 09 06 30 45 .11      30    -54      3     62     63 151.0   2.9  33148  272.68 0864.96
2015 04 09 06 30 45 .36      34    -53      5     64     65 147.5   4.9  33146  272.63 0864.96
2015 04 09 06 30 45 .61      30    -54      3     62     63 151.0   2.9  33148  272.68 0864.96
2015 04 09 06 30 45 .86      31    -49      5     59     60 147.4   4.9  33148  272.66 0864.95
2015 04 09 06 30 46 .11      30    -54      3     62     63 151.0   2.9  33148  272.68 0864.95
2015 04 09 06 30 46 .36      30    -54      3     62     63 151.0   2.9  33148  272.68 0864.95
2015 04 09 06 30 46 .61      31    -49      5     59     60 147.4   4.9  33148  272.66 0864.95
2015 04 09 06 30 46 .86      30    -54      3     62     63 151.0   2.9  33148  272.68 0864.95
2015 04 09 06 30 47 .11      31    -49      5     59     60 147.4   4.9  33148  272.66 0864.95
2015 04 09 06 30 47 .37      25    -53      5     59     60 154.6   4.9  33142  272.57 0864.95
2015 04 09 06 30 47 .62      30    -54      3     62     63 151.0   2.9  33148  272.68 0864.95
2015 04 09 06 30 47 .87      30    -54      3     62     63 151.0   2.9  33148  272.68 0864.95
2015 04 09 06 30 48 .12      25    -53      5     59     60 154.6   4.9  33150  272.70 0864.95
2015 04 09 06 30 48 .37      25    -53      5     59     60 154.6   4.9  33150  272.70 0864.95
2015 04 09 06 30 48 .62      25    -53      5     59     60 154.6   4.9  33150  272.70 0864.95
2015 04 09 06 30 48 .87      30    -54      3     62     63 151.0   2.9  33148  272.68 0864.95
2015 04 09 06 30 49 .12      30    -54      3     62     63 151.0   2.9  33148  272.68 0864.95
2015 04 09 06 30 49 .37      30    -54      3     62     63 151.0   2.9  33148  272.68 0864.95
2015 04 09 06 30 49 .62      30    -54      3     62     63 151.0   2.9  33148  272.68 0864.96
2015 04 09 06 30 49 .87      30    -54      3     62     63 151.0   2.9  33148  272.68 0864.96
2015 04 09 06 30 50 .13      30    -54      3     62     63 151.0   2.9  33148  272.68 0864.96
2015 04 09 06 30 50 .38      30    -54      3     62     63 151.0   2.9  33148  272.68 0864.96
2015 04 09 06 30 50 .63      30    -54      3     62     63 151.0   2.9  33148  272.68 0864.96
2015 04 09 06 30 50 .88      30    -54      3     62     63 151.0   2.9  33148  272.68 0864.96
2015 04 09 06 30 51 .13      30    -54      3     62     63 151.0   2.9  33148  272.68 0864.96
2015 04 09 06 30 51 .38      25    -53      5     59     60 154.6   4.9  33150  272.70 0864.95
2015 04 09 06 30 51 .63      25    -53      5     59     60 154.6   4.9  33150  272.70 0864.95
2015 04 09 06 30 51 .89      25    -53      5     59     60 154.6   4.9  33150  272.70 0864.95
2015 04 09 06 30 52 .14      25    -53      5     59     60 154.6   4.9  33150  272.70 0864.95
2015 04 09 06 30 52 .39      24    -50     10     56     57 154.6  10.1  33148  272.66 0864.95
2015 04 09 06 30 52 .64      28    -49      5     57     58 150.1   5.9  33148  272.68 0864.95
2015 04 09 06 30 52 .89      29    -46      2     55     56 147.4   2.9  33146  272.63 0864.95
2015 04 09 06 30 53 .14      25    -53      5     59     60 154.6   4.9  33150  272.70 0864.95
2015 04 09 06 30 53 .39      28    -49      5     57     58 150.1   5.9  33148  272.68 0864.95
2015 04 09 06 30 53 .64      31    -49      5     59     60 147.4   4.9  33148  272.66 0864.95
2015 04 09 06 30 53 .89      30    -54      3     62     63 151.0   2.9  33148  272.68 0864.95
2015 04 09 06 30 54 .14      25    -53      5     59     60 154.6   4.9  33150  272.70 0864.95
2015 04 09 06 30 54 .39      30    -54      3     62     63 151.0   2.9  33148  272.68 0864.95
2015 04 09 06 30 54 .64      30    -54      3     62     63 151.0   2.9  33148  272.68 0864.95
2015 04 09 06 30 54 .89      30    -54      3     62     63 151.0   2.9  33148  272.68 0864.95
2015 04 09 06 30 55 .14      30    -54      3     62     63 151.0   2.9  33148  272.68 0864.95
2015 04 09 06 30 55 .39      30    -54      3     62     63 151.0   2.9  33148  272.68 0864.95
2015 04 09 06 30 55 .64      30    -54      3     62     63 151.0   2.9  33148  272.68 0864.95
2015 04 09 06 30 55 .89      30    -54      3     62     63 151.0   2.9  33148  272.68 0864.95
2015 04 09 06 30 56 .14      30    -54      3     62     63 151.0   2.9  33148  272.68 0864.95
2015 04 09 06 30 56 .40      25    -53      5     59     60 154.6   4.9  33150  272.70 0864.95
2015 04 09 06 30 56 .65      25    -53      5     59     60 154.6   4.9  33150  272.70 0864.95
2015 04 09 06 30 56 .91      30    -54      3     62     63 151.0   2.9  33148  272.68 0864.95
2015 04 09 06 30 57 .16      30    -54      3     62     63 151.0   2.9  33148  272.68 0864.95
2015 04 09 06 30 57 .41      30    -54      3     62     63 151.0   2.9  33148  272.68 0864.95
2015 04 09 06 30 57 .66      30    -54      3     62     63 151.0   2.9  33148  272.68 0864.95
2015 04 09 06 30 57 .91      25    -53      5     59     60 154.6   4.9  33150  272.70 0864.95
2015 04 09 06 30 58 .16      25    -53      5     59     60 154.6   4.9  33150  272.70 0864.95
2015 04 09 06 30 58 .41      30    -54      3     62     63 151.0   2.9  33148  272.68 0864.95
2015 04 09 06 30 58 .66      25    -53      5     59     60 154.6   4.9  33150  272.70 0864.95
2015 04 09 06 30 58 .91      25    -53      5     59     60 154.6   4.9  33150  272.70 0864.95
2015 04 09 06 30 59 .16      25    -53      5     59     60 154.6   4.9  33150  272.70 0864.95
2015 04 09 06 30 59 .41      25    -53      5     59     60 154.6   4.9  33150  272.70 0864.95
2015 04 09 06 30 59 .66      25    -53      5     59     60 154.6   4.9  33150  272.70 0864.95
2015 04 09 06 30 59 .91      25    -53      5     59     60 154.6   4.9  33150  272.70 0864.95
2015 04 09 06 31 00 .16      25    -53      5     59     60 154.6   4.9  33150  272.70 0864.95
2015 04 09 06 31 00 .41      25    -53      5     59     60 154.6   4.9  33150  272.70 0864.95
2015 04 09 06 31 00 .66      25    -53      5     59     60 154.6   4.9  33150  272.70 0864.95
2015 04 09 06 31 00 .92      25    -53      5     59     60 154.6   4.9  33150  272.70 0864.95
2015 04 09 06 31 01 .17      25    -53      5     59     60 154.6   4.9  33150  272.70 0864.95
2015 04 09 06 31 01 .42      25    -53      5     59     60 154.6   4.9  33150  272.70 0864.95
2015 04 09 06 31 01 .68      25    -53      5     59     60 154.6   4.9  33150  272.70 0864.95
2015 04 09 06 31 01 .92      25    -53      5     59     60 154.6   4.9  33150  272.70 0864.95
2015 04 09 06 31 02 .36      25    -53      5     59     60 154.6   4.9  33150  272.70 0864.95
2015 04 09 06 31 02 .42      30    -54      3     62     63 151.0   2.9  33148  272.68 0864.95
2015 04 09 06 31 02 .71      30    -54      3     62     63 151.0   2.9  33148  272.68 0864.95
2015 04 09 06 31 02 .92      30    -54      3     62     63 151.0   2.9  33148  272.68 0864.95
2015 04 09 06 31 03 .17      30    -54      3     62     63 151.0   2.9  33148  272.68 0864.95
2015 04 09 06 31 03 .42      31    -49      5     59     60 147.4   4.9  33148  272.66 0864.95
2015 04 09 06 31 03 .67      25    -53      5     59     60 154.6   4.9  33150  272.70 0864.95
2015 04 09 06 31 03 .93      23    -49      2     55     56 154.6   2.9  33152  272.73 0864.95
2015 04 09 06 31 04 .18      23    -49      2     55     56 154.6   2.9  33152  272.73 0864.95
2015 04 09 06 31 04 .43      23    -49      2     55     56 154.6   2.9  33152  272.73 0864.95
2015 04 09 06 31 04 .68      23    -49      2     55     56 154.6   2.9  33152  272.73 0864.95
2015 04 09 06 31 04 .93      23    -49      2     55     56 154.6   2.9  33152  272.73 0864.95
2015 04 09 06 31 05 .19      23    -49      2     55     56 154.6   2.9  33152  272.73 0864.95
2015 04 09 06 31 05 .44      23    -49      2     55     56 154.6   2.9  33152  272.73 0864.95
2015 04 09 06 31 05 .69      23    -49      2     55     56 154.6   2.9  33152  272.73 0864.95
2015 04 09 06 31 05 .94      23    -49      2     55     56 154.6   2.9  33152  272.73 0864.95
2015 04 09 06 31 06 .19      23    -49      2     55     56 154.6   2.9  33152  272.73 0864.95
2015 04 09 06 31 06 .44      23    -49      2     55     56 154.6   2.9  33152  272.73 0864.95
2015 04 09 06 31 06 .69      23    -49      2     55     56 154.6   2.9  33152  272.73 0864.95
2015 04 09 06 31 06 .94      23    -49      2     55     56 154.6   2.9  33152  272.73 0864.95
2015 04 09 06 31 07 .19      23    -49      2     55     56 154.6   2.9  33152  272.73 0864.95
2015 04 09 06 31 07 .44      23    -49      2     55     56 154.6   2.9  33152  272.73 0864.95
2015 04 09 06 31 07 .69      25    -45      5     52     53 150.1   5.9  33152  272.75 0864.95
2015 04 09 06 31 07 .94      25    -45      5     52     53 150.1   5.9  33152  272.75 0864.95
2015 04 09 06 31 08 .19      25    -45      5     52     53 150.1   5.9  33152  272.75 0864.95
2015 04 09 06 31 08 .44      30    -45      2     55     56 145.7   2.9  33154  272.78 0864.95
2015 04 09 06 31 08 .69      25    -45      5     52     53 150.1   5.9  33152  272.75 0864.95
2015 04 09 06 31 08 .94      30    -45      2     55     56 145.7   2.9  33154  272.78 0864.95
2015 04 09 06 31 09 .19      30    -45      2     55     56 145.7   2.9  33154  272.78 0864.95
2015 04 09 06 31 09 .45      29    -48      0     57     58 148.4   0.8  33152  272.75 0864.95
2015 04 09 06 31 09 .70      23    -49      2     55     56 154.6   2.9  33152  272.73 0864.95
2015 04 09 06 31 09 .95      30    -54      3     62     63 151.0   2.9  33148  272.68 0864.95
2015 04 09 06 31 10 .20      31    -49      5     59     60 147.4   4.9  33148  272.66 0864.95
2015 04 09 06 31 10 .45      30    -54      3     62     63 151.0   2.9  33148  272.68 0864.95
2015 04 09 06 31 10 .70      30    -54      3     62     63 151.0   2.9  33148  272.68 0864.95
2015 04 09 06 31 10 .96      25    -53      5     59     60 154.6   4.9  33150  272.70 0864.95
2015 04 09 06 31 11 .21      28    -49      6     57     58 150.1   6.9  33152  272.73 0864.95
2015 04 09 06 31 11 .46      28    -49      6     57     58 150.1   6.9  33152  272.73 0864.95
2015 04 09 06 31 11 .71      25    -45      5     52     53 150.1   5.9  33152  272.75 0864.95
2015 04 09 06 31 11 .96      25    -53      5     59     60 154.6   4.9  33150  272.70 0864.95
2015 04 09 06 31 12 .21      30    -45      2     55     56 145.7   2.9  33154  272.78 0864.95
2015 04 09 06 31 12 .46      30    -45      2     55     56 145.7   2.9  33154  272.78 0864.95
2015 04 09 06 31 12 .71      30    -45      2     55     56 145.7   2.9  33154  272.78 0864.95
2015 04 09 06 31 12 .96      30    -45      2     55     56 145.7   2.9  33154  272.78 0864.95
2015 04 09 06 31 13 .21      30    -45      2     55     56 145.7   2.9  33154  272.78 0864.95
2015 04 09 06 31 13 .46      30    -45      2     55     56 145.7   2.9  33154  272.78 0864.95
2015 04 09 06 31 13 .72      30    -45      2     55     56 145.7   2.9  33154  272.78 0864.95
2015 04 09 06 31 13 .97      30    -45      2     55     56 145.7   2.9  33154  272.78 0864.95
2015 04 09 06 31 14 .22      30    -45      2     55     56 145.7   2.9  33154  272.78 0864.95
2015 04 09 06 31 14 .47      28    -40      0     50     51 144.8  -0.3  33156  272.81 0864.95
2015 04 09 06 31 14 .72      28    -40      0     50     51 144.8  -0.3  33156  272.81 0864.95
2015 04 09 06 31 14 .97      24    -41      3     48     49 149.3   3.8  33158  272.83 0864.95
2015 04 09 06 31 15 .22      24    -41      3     48     49 149.3   3.8  33158  272.83 0864.95
2015 04 09 06 31 15 .47      20    -45      0     50     51 155.5  -0.3  33160  272.86 0864.95
2015 04 09 06 31 15 .72      20    -45      0     50     51 155.5  -0.3  33160  272.86 0864.95
2015 04 09 06 31 15 .97      20    -45      0     50     51 155.5  -0.3  33160  272.86 0864.95
2015 04 09 06 31 16 .22      20    -45      0     50     51 155.5  -0.3  33160  272.86 0864.95
2015 04 09 06 31 16 .47      20    -45      0     50     51 155.5  -0.3  33160  272.86 0864.95
2015 04 09 06 31 16 .72      28    -40      0     50     51 144.8  -0.3  33156  272.81 0864.95
2015 04 09 06 31 16 .97      28    -40      0     50     51 144.8  -0.3  33156  272.81 0864.95
2015 04 09 06 31 17 .22      28    -40      0     50     51 144.8  -0.3  33156  272.81 0864.95
2015 04 09 06 31 17 .47      28    -40      0     50     51 144.8  -0.3  33156  272.81 0864.95
2015 04 09 06 31 17 .72      28    -40      0     50     51 144.8  -0.3  33156  272.81 0864.95
2015 04 09 06 31 17 .98      28    -40      0     50     51 144.8  -0.3  33156  272.81 0864.95
2015 04 09 06 31 18 .24      28    -40      0     50     51 144.8  -0.3  33156  272.81 0864.95
2015 04 09 06 31 18 .49      30    -45      2     55     56 145.7   2.9  33154  272.78 0864.95
2015 04 09 06 31 18 .74      28    -40      0     50     51 144.8  -0.3  33156  272.81 0864.95
2015 04 09 06 31 18 .99      28    -40      0     50     51 144.8  -0.3  33156  272.81 0864.95
2015 04 09 06 31 19 .24      28    -40      0     50     51 144.8  -0.3  33156  272.81 0864.95
2015 04 09 06 31 19 .49      28    -40      0     50     51 144.8  -0.3  33156  272.81 0864.95
2015 04 09 06 31 19 .74      28    -40      0     50     51 144.8  -0.3  33156  272.81 0864.95
2015 04 09 06 31 19 .99      30    -45      2     55     56 145.7   2.9  33154  272.78 0864.95
2015 04 09 06 31 20 .24      30    -45      2     55     56 145.7   2.9  33154  272.78 0864.95
2015 04 09 06 31 20 .49      28    -40      0     50     51 144.8  -0.3  33156  272.81 0864.95
2015 04 09 06 31 20 .74      30    -45      2     55     56 145.7   2.9  33154  272.78 0864.95
2015 04 09 06 31 20 .99      28    -40      0     50     51 144.8  -0.3  33156  272.81 0864.95
2015 04 09 06 31 21 .24      35    -44      1     57     58 141.3   1.8  33154  272.76 0864.95
2015 04 09 06 31 21 .49      35    -44      1     57     58 141.3   1.8  33154  272.76 0864.95
2015 04 09 06 31 21 .74      28    -49      1     57     58 150.1   1.8  33150  272.70 0864.95
2015 04 09 06 31 22 .00      29    -46      2     55     56 147.4   2.9  33148  272.68 0864.95
2015 04 09 06 31 22 .25      23    -49      2     55     56 154.6   2.9  33152  272.73 0864.95
2015 04 09 06 31 22 .49      30    -45      2     55     56 145.7   2.9  33154  272.78 0864.95
2015 04 09 06 31 22 .75      25    -45      5     52     53 150.1   5.9  33152  272.75 0864.95
2015 04 09 06 31 23 .00      30    -45      2     55     56 145.7   2.9  33154  272.78 0864.95
2015 04 09 06 31 23 .25      25    -45      5     52     53 150.1   5.9  33152  272.75 0864.95
2015 04 09 06 31 23 .50      34    -45      6     57     58 143.0   6.9  33148  272.68 0864.95
2015 04 09 06 31 23 .75      25    -45      5     52     53 150.1   5.9  33152  272.75 0864.95
2015 04 09 06 31 24 .00      29    -45      2     54     55 147.4   2.9  33152  272.73 0864.95
2015 04 09 06 31 24 .25      25    -45      5     52     53 150.1   5.9  33152  272.75 0864.95
2015 04 09 06 31 24 .50      29    -45      2     54     55 147.4   2.9  33152  272.73 0864.94
2015 04 09 06 31 24 .76      28    -42      0     51     52 146.6   0.8  33150  272.71 0864.94
2015 04 09 06 31 25 .01      25    -45      5     52     53 150.1   5.9  33152  272.75 0864.94
2015 04 09 06 31 25 .26      29    -45      2     54     55 147.5   2.9  33154  272.76 0864.94
2015 04 09 06 31 25 .51      30    -45      2     55     56 145.7   2.9  33154  272.78 0864.94
2015 04 09 06 31 25 .76      30    -45      2     55     56 145.7   2.9  33154  272.78 0864.94
2015 04 09 06 31 26 .01      30    -45      2     55     56 145.7   2.9  33154  272.78 0864.94
2015 04 09 06 31 26 .26      30    -45      2     55     56 145.7   2.9  33154  272.78 0864.95
2015 04 09 06 31 26 .51      30    -45      2     55     56 145.7   2.9  33154  272.78 0864.95
2015 04 09 06 31 26 .77      30    -45      2     55     56 145.7   2.9  33154  272.78 0864.95
2015 04 09 06 31 27 .01      30    -45      2     55     56 145.7   2.9  33154  272.78 0864.95
2015 04 09 06 31 27 .27      30    -45      2     55     56 145.7   2.9  33154  272.78 0864.95
2015 04 09 06 31 27 .52      30    -45      2     55     56 145.7   2.9  33154  272.78 0864.95
2015 04 09 06 31 27 .77      35    -44      1     57     58 141.3   1.8  33154  272.76 0864.95
2015 04 09 06 31 28 .02      35    -44      1     57     58 141.3   1.8  33154  272.76 0864.95
2015 04 09 06 31 28 .27      30    -45      2     55     56 145.7   2.9  33154  272.78 0864.95
2015 04 09 06 31 28 .52      28    -40      0     50     51 144.8  -0.3  33156  272.81 0864.95
2015 04 09 06 31 28 .77      30    -45      2     55     56 145.7   2.9  33154  272.78 0864.95
2015 04 09 06 31 29 .02      35    -44      1     57     58 141.3   1.8  33154  272.76 0864.95
2015 04 09 06 31 29 .27      32    -41      4     53     54 142.2   4.9  33150  272.71 0864.95
2015 04 09 06 31 29 .52      32    -41      4     53     54 142.2   4.9  33150  272.71 0864.95
2015 04 09 06 31 29 .77      37    -41      2     56     57 137.7   2.9  33152  272.73 0864.95
2015 04 09 06 31 30 .02      37    -41      2     56     57 137.7   2.9  33152  272.73 0864.95
2015 04 09 06 31 30 .27      37    -41      2     56     57 137.7   2.9  33152  272.73 0864.95
2015 04 09 06 31 30 .52      37    -41      2     56     57 137.7   2.9  33152  272.73 0864.95
2015 04 09 06 31 30 .78      35    -44      1     57     58 141.3   1.8  33154  272.76 0864.95
2015 04 09 06 31 31 .03      30    -45      2     55     56 145.7   2.9  33154  272.78 0864.95
2015 04 09 06 31 31 .27      31    -37      2     49     50 140.4   2.9  33158  272.83 0864.95
2015 04 09 06 31 31 .53      30    -45      2     55     56 145.7   2.9  33154  272.78 0864.95
2015 04 09 06 31 31 .79      33    -42      4     54     55 141.3   4.9  33156  272.80 0864.94
2015 04 09 06 31 32 .04      31    -37      2     49     50 140.4   2.9  33158  272.83 0864.94
2015 04 09 06 31 32 .29      33    -42      4     54     55 141.3   4.9  33156  272.80 0864.94
2015 04 09 06 31 32 .54      33    -42      4     54     55 141.3   4.9  33156  272.80 0864.94
2015 04 09 06 31 32 .79      33    -42      4     54     55 141.3   4.9  33156  272.80 0864.94
2015 04 09 06 31 33 .04      33    -42      4     54     55 141.3   4.9  33156  272.80 0864.94
2015 04 09 06 31 33 .29      30    -45      2     55     56 145.7   2.9  33154  272.78 0864.94
2015 04 09 06 31 33 .54      33    -42      4     54     55 141.3   4.9  33156  272.80 0864.95
2015 04 09 06 31 33 .79      33    -42      4     54     55 141.3   4.9  33156  272.80 0864.95
2015 04 09 06 31 34 .04      37    -41      2     56     57 137.7   2.9  33152  272.73 0864.95
2015 04 09 06 31 34 .29      35    -44      1     57     58 141.3   1.8  33154  272.76 0864.95
2015 04 09 06 31 34 .54      30    -45      2     55     56 145.7   2.9  33154  272.78 0864.95
2015 04 09 06 31 34 .79      37    -41      2     56     57 137.7   2.9  33152  272.73 0864.95
2015 04 09 06 31 35 .04      37    -41      2     56     57 137.7   2.9  33152  272.73 0864.95
2015 04 09 06 31 35 .30      30    -45      2     55     56 145.7   2.9  33154  272.78 0864.95
2015 04 09 06 31 35 .55      33    -42      4     54     55 141.3   4.9  33156  272.80 0864.95
2015 04 09 06 31 35 .80      31    -37      2     49     50 140.4   2.9  33158  272.83 0864.95
2015 04 09 06 31 36 .05      31    -37      2     49     50 140.4   2.9  33158  272.83 0864.95
2015 04 09 06 31 36 .30      31    -37      2     49     50 140.4   2.9  33158  272.83 0864.95
2015 04 09 06 31 36 .55      33    -42      4     54     55 141.3   4.9  33156  272.80 0864.95
2015 04 09 06 31 36 .80      35    -38      6     52     53 137.7   6.9  33154  272.78 0864.95
2015 04 09 06 31 37 .05      33    -42      4     54     55 141.3   4.9  33154  272.76 0864.95
2015 04 09 06 31 37 .30      33    -42      4     54     55 141.3   4.9  33156  272.80 0864.95
2015 04 09 06 31 37 .55      37    -41      2     56     57 137.7   2.9  33152  272.73 0864.95
2015 04 09 06 31 37 .80      37    -41      2     56     57 137.7   2.9  33152  272.73 0864.95
2015 04 09 06 31 38 .05      37    -41      2     56     57 137.7   2.9  33152  272.73 0864.95
2015 04 09 06 31 38 .30      35    -44      1     57     58 141.3   1.8  33154  272.76 0864.95
2015 04 09 06 31 38 .55      33    -40     -2     53     54 140.4  -2.2  33154  272.78 0864.95
2015 04 09 06 31 38 .81      35    -44      1     57     58 141.3   1.8  33154  272.76 0864.95
2015 04 09 06 31 39 .06      35    -44      1     57     58 141.3   1.8  33154  272.76 0864.95
2015 04 09 06 31 39 .31      35    -44      1     57     58 141.3   1.8  33154  272.76 0864.95
2015 04 09 06 31 39 .56      35    -44      1     57     58 141.3   1.8  33154  272.76 0864.95
2015 04 09 06 31 39 .82      35    -44      1     57     58 141.3   1.8  33154  272.76 0864.95
2015 04 09 06 31 40 .07      30    -45      2     55     56 145.7   2.9  33154  272.78 0864.95
2015 04 09 06 31 40 .32      30    -45      2     55     56 145.7   2.9  33154  272.78 0864.95
2015 04 09 06 31 40 .57      33    -42      4     54     55 141.3   4.9  33156  272.80 0864.95
2015 04 09 06 31 40 .82      35    -38      6     52     53 137.7   6.9  33154  272.78 0864.95
2015 04 09 06 31 41 .07      35    -38      6     52     53 137.7   6.9  33154  272.78 0864.95
2015 04 09 06 31 41 .32      37    -41      2     56     57 137.7   2.9  33152  272.73 0864.95
2015 04 09 06 31 41 .57      37    -41      2     56     57 137.7   2.9  33152  272.73 0864.95
2015 04 09 06 31 41 .82      33    -42      4     54     55 141.3   4.9  33154  272.76 0864.94
2015 04 09 06 31 42 .07      37    -41      2     56     57 137.7   2.9  33152  272.73 0864.94
2015 04 09 06 31 42 .32      37    -41      2     56     57 137.7   2.9  33152  272.73 0864.94
2015 04 09 06 31 42 .57      37    -41      2     56     57 137.7   2.9  33152  272.73 0864.94
2015 04 09 06 31 42 .82      35    -38      6     52     53 137.7   6.9  33154  272.78 0864.94
2015 04 09 06 31 43 .07      38    -38      3     55     56 135.0   3.8  33154  272.76 0864.94
2015 04 09 06 31 43 .32      37    -41      2     56     57 137.7   2.9  33152  272.73 0864.94
2015 04 09 06 31 43 .57      37    -41      2     56     57 137.7   2.9  33152  272.73 0864.94
2015 04 09 06 31 43 .82      37    -41      2     56     57 137.7   2.9  33152  272.73 0864.94
2015 04 09 06 31 44 .08      33    -42      4     54     55 141.3   4.9  33154  272.76 0864.94
2015 04 09 06 31 44 .33      33    -42      4     54     55 141.3   4.9  33154  272.76 0864.94
2015 04 09 06 31 44 .58      37    -41      2     56     57 137.7   2.9  33152  272.73 0864.94
2015 04 09 06 31 44 .83      35    -38      6     52     53 137.7   6.9  33154  272.78 0864.94
2015 04 09 06 31 45 .08      38    -38      3     55     56 135.0   3.8  33154  272.76 0864.94
2015 04 09 06 31 45 .33      38    -38      3     55     56 135.0   3.8  33154  272.76 0864.94
2015 04 09 06 31 45 .59      38    -38      3     55     56 135.0   3.8  33154  272.76 0864.94
2015 04 09 06 31 45 .84      35    -38      6     52     53 137.7   6.9  33154  272.78 0864.94
2015 04 09 06 31 46 .09      35    -38      6     52     53 137.7   6.9  33154  272.78 0864.94
2015 04 09 06 31 46 .34      35    -38      6     52     53 137.7   6.9  33154  272.78 0864.94
2015 04 09 06 31 46 .59      35    -38      6     52     53 137.7   6.9  33154  272.78 0864.94
2015 04 09 06 31 46 .84      33    -42      4     54     55 141.3   4.9  33154  272.76 0864.94
2015 04 09 06 31 47 .09      33    -42      4     54     55 141.3   4.9  33154  272.76 0864.94
2015 04 09 06 31 47 .34      33    -42      4     54     55 141.3   4.9  33154  272.76 0864.94
2015 04 09 06 31 47 .59      37    -41      2     56     57 137.7   2.9  33152  272.73 0864.94
2015 04 09 06 31 47 .84      38    -38      3     55     56 135.0   3.8  33154  272.76 0864.94
2015 04 09 06 31 48 .10      35    -38      1     52     53 137.7   1.8  33150  272.71 0864.94
2015 04 09 06 31 48 .35      37    -41      2     56     57 137.7   2.9  33152  272.73 0864.94
2015 04 09 06 31 48 .60      38    -38      3     55     56 135.0   3.8  33154  272.76 0864.94
2015 04 09 06 31 48 .85      35    -38      6     52     53 137.7   6.9  33154  272.78 0864.94
2015 04 09 06 31 49 .10      35    -38      6     52     53 137.7   6.9  33154  272.78 0864.94
2015 04 09 06 31 49 .35      35    -38      6     52     53 137.7   6.9  33154  272.78 0864.94
2015 04 09 06 31 49 .60      35    -38      6     52     53 137.7   6.9  33154  272.78 0864.94
2015 04 09 06 31 49 .85      33    -42      4     54     55 141.3   4.9  33156  272.80 0864.94
2015 04 09 06 31 50 .10      33    -42      4     54     55 141.3   4.9  33156  272.80 0864.94
2015 04 09 06 31 50 .35      35    -38      6     52     53 137.7   6.9  33154  272.78 0864.94
2015 04 09 06 31 50 .60      35    -38      6     52     53 137.7   6.9  33154  272.78 0864.94
2015 04 09 06 31 50 .85      35    -38      6     52     53 137.7   6.9  33154  272.78 0864.94
2015 04 09 06 31 51 .10      38    -38      3     55     56 135.0   3.8  33154  272.76 0864.94
2015 04 09 06 31 51 .35      38    -38      3     55     56 135.0   3.8  33154  272.76 0864.94
2015 04 09 06 31 51 .60      38    -38      3     55     56 135.0   3.8  33154  272.76 0864.94
2015 04 09 06 31 51 .85      38    -38      3     55     56 135.0   3.8  33154  272.76 0864.94
2015 04 09 06 31 52 .10      38    -38      3     55     56 135.0   3.8  33154  272.76 0864.94
2015 04 09 06 31 52 .36      35    -38      6     52     53 137.7   6.9  33154  272.78 0864.94
2015 04 09 06 31 52 .61      38    -38      3     55     56 135.0   3.8  33154  272.76 0864.94
2015 04 09 06 31 52 .87      35    -38      6     52     53 137.7   6.9  33154  272.78 0864.95
2015 04 09 06 31 53 .12      38    -38      3     55     56 135.0   3.8  33154  272.76 0864.95
2015 04 09 06 31 53 .37      38    -38      3     55     56 135.0   3.8  33154  272.76 0864.95
2015 04 09 06 31 53 .62      36    -37      2     52     53 135.8   2.9  33152  272.73 0864.95
2015 04 09 06 31 53 .87      36    -37      2     52     53 135.8   2.9  33152  272.73 0864.95
2015 04 09 06 31 54 .12      36    -37      2     52     53 135.8   2.9  33152  272.73 0864.95
2015 04 09 06 31 54 .37      36    -37      2     52     53 135.8   2.9  33152  272.73 0864.95
2015 04 09 06 31 54 .62      38    -38      3     55     56 135.0   3.8  33154  272.76 0864.94
2015 04 09 06 31 54 .87      38    -38      3     55     56 135.0   3.8  33154  272.76 0864.94
2015 04 09 06 31 55 .12      36    -37      2     52     53 135.8   2.9  33152  272.73 0864.94
2015 04 09 06 31 55 .37      36    -37      2     52     53 135.8   2.9  33152  272.73 0864.94
2015 04 09 06 31 55 .62      36    -37      2     52     53 135.8   2.9  33152  272.73 0864.94
2015 04 09 06 31 55 .87      36    -37      2     52     53 135.8   2.9  33152  272.73 0864.94
2015 04 09 06 31 56 .12      38    -38      3     55     56 135.0   3.8  33154  272.76 0864.94
2015 04 09 06 31 56 .37      38    -38      3     55     56 135.0   3.8  33154  272.76 0864.94
2015 04 09 06 31 56 .62      38    -38      3     55     56 135.0   3.8  33154  272.76 0864.94
2015 04 09 06 31 56 .87      35    -38      6     52     53 137.7   6.9  33154  272.78 0864.94
2015 04 09 06 31 57 .12      38    -38      3     55     56 135.0   3.8  33154  272.76 0864.94
2015 04 09 06 31 57 .37      38    -38      3     55     56 135.0   3.8  33154  272.76 0864.94
2015 04 09 06 31 57 .63      38    -38      3     55     56 135.0   3.8  33154  272.76 0864.94
2015 04 09 06 31 57 .88      35    -38      6     52     53 137.7   6.9  33154  272.78 0864.94
2015 04 09 06 31 58 .13      38    -38      3     55     56 135.0   3.8  33154  272.76 0864.94
2015 04 09 06 31 58 .38      38    -38      3     55     56 135.0   3.8  33154  272.76 0864.94
2015 04 09 06 31 58 .63      38    -38      3     55     56 135.0   3.8  33154  272.76 0864.94
2015 04 09 06 31 58 .88      38    -38      3     55     56 135.0   3.8  33154  272.76 0864.94
2015 04 09 06 31 59 .13      38    -38      3     55     56 135.0   3.8  33154  272.76 0864.94
2015 04 09 06 31 59 .38      38    -38      3     55     56 135.0   3.8  33154  272.76 0864.94
2015 04 09 06 31 59 .64      36    -37      2     52     53 135.8   2.9  33152  272.73 0864.94
2015 04 09 06 31 59 .89      36    -37      2     52     53 135.8   2.9  33152  272.73 0864.94
2015 04 09 06 32 00 .14      39    -32      5     51     52 129.5   5.9  33150  272.71 0864.94
2015 04 09 06 32 00 .39      39    -32      5     51     52 129.5   5.9  33150  272.71 0864.94
2015 04 09 06 32 00 .64      36    -37      2     52     53 135.8   2.9  33152  272.73 0864.94
2015 04 09 06 32 00 .89      33    -32      0     47     48 134.0   0.8  33154  272.76 0864.94
2015 04 09 06 32 01 .14      36    -37      2     52     53 135.8   2.9  33152  272.73 0864.94
2015 04 09 06 32 01 .39      39    -32      5     51     52 129.5   5.9  33150  272.71 0864.94
2015 04 09 06 32 01 .65      38    -27      2     47     48 126.0   2.9  33152  272.73 0864.94
2015 04 09 06 32 01 .90      34    -30      2     46     47 131.3   2.8  33152  272.75 0864.94
2015 04 09 06 32 02 .15      33    -32      0     47     48 134.0   0.8  33154  272.76 0864.94
2015 04 09 06 32 02 .40      38    -27      2     47     48 126.0   2.9  33152  272.73 0864.94
2015 04 09 06 32 02 .65      33    -32      0     47     48 134.0   0.8  33154  272.76 0864.94
2015 04 09 06 32 02 .90      33    -32      0     47     48 134.0   0.8  33154  272.76 0864.94
2015 04 09 06 32 03 .15      33    -32      0     47     48 134.0   0.8  33154  272.76 0864.94
2015 04 09 06 32 03 .40      35    -38      6     52     53 137.7   6.9  33154  272.78 0864.94
2015 04 09 06 32 03 .65      33    -32      0     47     48 134.0   0.8  33154  272.76 0864.94
2015 04 09 06 32 03 .90      33    -32      0     47     48 134.0   0.8  33154  272.76 0864.94
2015 04 09 06 32 04 .15      31    -31      2     44     45 135.0   2.9  33154  272.78 0864.94
2015 04 09 06 32 04 .40      31    -31      2     44     45 135.0   2.9  33154  272.78 0864.94
2015 04 09 06 32 04 .65      33    -32      0     47     48 134.0   0.8  33154  272.76 0864.94
2015 04 09 06 32 04 .90      33    -32      0     47     48 134.0   0.8  33154  272.76 0864.94
2015 04 09 06 32 05 .15      33    -32      0     47     48 134.0   0.8  33154  272.76 0864.94
2015 04 09 06 32 05 .40      38    -27      2     47     48 126.0   2.9  33152  272.73 0864.94
2015 04 09 06 32 05 .66      35    -32      8     48     49 133.1  10.1  33152  272.73 0864.94
2015 04 09 06 32 05 .90      38    -27      2     47     48 126.0   2.9  33152  272.73 0864.94
2015 04 09 06 32 06 .16      33    -32      0     47     48 134.0   0.8  33154  272.76 0864.94
2015 04 09 06 32 06 .41      38    -27      2     47     48 126.0   2.9  33152  272.73 0864.94
2015 04 09 06 32 06 .67      31    -26      5     41     42 130.4   8.0  33150  272.71 0864.94
2015 04 09 06 32 06 .92      39    -32      5     51     52 129.5   5.9  33150  272.71 0864.94
2015 04 09 06 32 07 .17      31    -26      5     41     42 130.4   8.0  33150  272.71 0864.94
2015 04 09 06 32 07 .42      35    -23      0     42     43 123.3  -0.3  33150  272.71 0864.94
2015 04 09 06 32 07 .67      38    -27      2     47     48 126.0   2.9  33148  272.68 0864.94
2015 04 09 06 32 07 .92      31    -26      5     41     42 130.4   8.0  33146  272.65 0864.94
2015 04 09 06 32 08 .17      33    -33      6     48     49 135.0   8.0  33148  272.66 0864.94
2015 04 09 06 32 08 .42      38    -27      2     47     48 126.0   2.9  33152  272.73 0864.94
2015 04 09 06 32 08 .67      38    -27      2     47     48 126.0   2.9  33152  272.73 0864.94
2015 04 09 06 32 08 .92      31    -26      5     41     42 130.4   8.0  33150  272.71 0864.94
2015 04 09 06 32 09 .17      38    -27      2     47     48 126.0   2.9  33152  272.73 0864.94
2015 04 09 06 32 09 .42      31    -26      5     41     42 130.4   8.0  33150  272.71 0864.94
2015 04 09 06 32 09 .67      38    -27      2     47     48 126.0   2.9  33152  272.73 0864.94
2015 04 09 06 32 09 .92      38    -27      2     47     48 126.0   2.9  33152  272.73 0864.94
2015 04 09 06 32 10 .17      38    -27      2     47     48 126.0   2.9  33152  272.73 0864.94
2015 04 09 06 32 10 .42      38    -27      2     47     48 126.0   2.9  33152  272.73 0864.94
2015 04 09 06 32 10 .68      38    -27      2     47     48 126.0   2.9  33152  272.73 0864.94
2015 04 09 06 32 10 .93      31    -26      5     41     42 130.4   8.0  33150  272.71 0864.94
2015 04 09 06 32 11 .18      38    -27      2     47     48 126.0   2.9  33152  272.73 0864.94
2015 04 09 06 32 11 .43      38    -27      2     47     48 126.0   2.9  33152  272.73 0864.94
2015 04 09 06 32 11 .68      38    -27      2     47     48 126.0   2.9  33152  272.73 0864.94
2015 04 09 06 32 11 .93      38    -27      2     47     48 126.0   2.9  33152  272.73 0864.94
2015 04 09 06 32 12 .18      39    -32      5     51     52 129.5   5.9  33150  272.71 0864.94
2015 04 09 06 32 12 .43      39    -32      5     51     52 129.5   5.9  33150  272.71 0864.94
2015 04 09 06 32 12 .68      38    -27      2     47     48 126.0   2.9  33152  272.73 0864.94
2015 04 09 06 32 12 .93      38    -27      2     47     48 126.0   2.9  33152  272.73 0864.94
2015 04 09 06 32 13 .18      38    -27      2     47     48 126.0   2.9  33152  272.73 0864.94
2015 04 09 06 32 13 .44      33    -32      8     47     48 134.0  10.1  33148  272.68 0864.94
2015 04 09 06 32 13 .69      35    -24      7     43     44 125.1  10.1  33146  272.63 0864.94
2015 04 09 06 32 13 .94      38    -27      2     47     48 126.0   2.9  33152  272.73 0864.94
2015 04 09 06 32 14 .19      39    -32      5     51     52 129.5   5.9  33150  272.71 0864.94
2015 04 09 06 32 14 .44      33    -32      8     47     48 134.0  10.1  33148  272.68 0864.94
2015 04 09 06 32 14 .70      39    -32      5     51     52 129.5   5.9  33150  272.71 0864.94
2015 04 09 06 32 14 .95      33    -32      8     47     48 134.0  10.1  33148  272.68 0864.94
2015 04 09 06 32 15 .20      38    -27      2     47     48 126.0   2.9  33152  272.73 0864.94
2015 04 09 06 32 15 .45      38    -27      2     47     48 126.0   2.9  33152  272.73 0864.94
2015 04 09 06 32 15 .70      39    -32      5     51     52 129.5   5.9  33150  272.71 0864.95
2015 04 09 06 32 15 .95      39    -32      5     51     52 129.5   5.9  33150  272.71 0864.95
2015 04 09 06 32 16 .20      39    -32      5     51     52 129.5   5.9  33150  272.71 0864.95
2015 04 09 06 32 16 .45      35    -23      0     42     43 123.3  -0.3  33150  272.71 0864.95
2015 04 09 06 32 16 .70      30    -23      4     38     39 127.8   5.9  33148  272.68 0864.95
2015 04 09 06 32 16 .95      35    -24      7     43     44 125.1  10.1  33146  272.63 0864.95
2015 04 09 06 32 17 .20      32    -20      5     39     40 122.4   8.0  33148  272.66 0864.95
2015 04 09 06 32 17 .45      32    -20      5     39     40 122.4   8.0  33148  272.66 0864.95
2015 04 09 06 32 17 .70      30    -23      4     38     39 127.8   5.9  33148  272.68 0864.95
2015 04 09 06 32 17 .95      31    -26      5     41     42 130.4   8.0  33146  272.65 0864.95
2015 04 09 06 32 18 .20      31    -26      5     41     42 130.4   8.0  33146  272.65 0864.95
2015 04 09 06 32 18 .45      38    -27      2     47     48 126.0   2.9  33142  272.58 0864.95
2015 04 09 06 32 18 .71      31    -26      5     41     42 130.4   8.0  33144  272.61 0864.95
2015 04 09 06 32 18 .95      31    -26      5     41     42 130.4   8.0  33144  272.61 0864.95
2015 04 09 06 32 19 .21      30    -23      3     39     40 127.8   4.9  33140  272.53 0864.94
2015 04 09 06 32 19 .46      30    -23      3     39     40 127.8   4.9  33140  272.53 0864.94
2015 04 09 06 32 19 .71      32    -20      5     39     40 122.4   8.0  33148  272.66 0864.94
2015 04 09 06 32 19 .96      31    -26      5     41     42 130.4   8.0  33144  272.61 0864.94
2015 04 09 06 32 20 .21      26    -28      8     39     40 136.6  12.2  33142  272.58 0864.94
2015 04 09 06 32 20 .47      38    -27      2     47     48 126.0   2.9  33142  272.58 0864.94
2015 04 09 06 32 20 .72      38    -27      2     47     48 126.0   2.9  33142  272.58 0864.94
2015 04 09 06 32 20 .97      30    -23      3     39     40 127.8   4.9  33140  272.53 0864.94
2015 04 09 06 32 21 .22      30    -23      3     39     40 127.8   4.9  33140  272.53 0864.94
2015 04 09 06 32 21 .47      30    -23      3     39     40 127.8   4.9  33140  272.53 0864.94
2015 04 09 06 32 21 .72      30    -23      3     39     40 127.8   4.9  33140  272.53 0864.94
2015 04 09 06 32 21 .97      35    -23      7     43     44 123.3  10.1  33136  272.48 0864.94
2015 04 09 06 32 22 .22      30    -23      3     39     40 127.8   4.9  33140  272.53 0864.94
2015 04 09 06 32 22 .47      33    -21      6     40     41 122.4   9.0  33138  272.52 0864.94
2015 04 09 06 32 22 .72      30    -23      3     39     40 127.8   4.9  33140  272.53 0864.94
2015 04 09 06 32 22 .97      35    -23      7     43     44 123.3  10.1  33136  272.48 0864.94
2015 04 09 06 32 23 .23      35    -23      7     43     44 123.3  10.1  33136  272.48 0864.94
2015 04 09 06 32 23 .48      33    -27      5     43     44 129.5   6.9  33136  272.47 0864.94
2015 04 09 06 32 23 .73      33    -27      5     43     44 129.5   6.9  33136  272.47 0864.94
2015 04 09 06 32 23 .98      35    -23      0     42     43 123.3  -0.3  33132  272.42 0864.94
2015 04 09 06 32 24 .23      33    -21      4     40     41 122.4   6.9  33130  272.37 0864.94
2015 04 09 06 32 24 .48      33    -21      4     40     41 122.4   6.9  33130  272.37 0864.94
2015 04 09 06 32 24 .73      31    -22      2     39     40 126.0   3.8  33130  272.38 0864.94
2015 04 09 06 32 24 .98      33    -21      4     40     41 122.4   6.9  33130  272.37 0864.94
2015 04 09 06 32 25 .23      31    -22      2     39     40 126.0   3.8  33130  272.38 0864.94
2015 04 09 06 32 25 .48      33    -21      4     40     41 122.4   6.9  33130  272.37 0864.95
2015 04 09 06 32 25 .73      33    -21      4     40     41 122.4   6.9  33130  272.37 0864.95
2015 04 09 06 32 25 .98      31    -22      2     39     40 126.0   3.8  33130  272.38 0864.95
2015 04 09 06 32 26 .23      31    -22      2     39     40 126.0   3.8  33130  272.38 0864.95
2015 04 09 06 32 26 .48      26    -23      5     35     36 131.3   9.0  33132  272.42 0864.95
2015 04 09 06 32 26 .73      31    -22      2     39     40 126.0   3.8  33130  272.38 0864.95
2015 04 09 06 32 26 .98      31    -22      2     39     40 126.0   3.8  33130  272.38 0864.95
2015 04 09 06 32 27 .23      25    -22      6     34     35 131.3  11.1  33124  272.27 0864.95
2015 04 09 06 32 27 .49      31    -22      2     39     40 126.0   3.8  33122  272.25 0864.94
2015 04 09 06 32 27 .75      25    -22      6     34     35 131.3  11.1  33124  272.27 0864.94
2015 04 09 06 32 28 .00      35    -23      0     43     44 123.3  -0.3  33124  272.27 0864.94
2015 04 09 06 32 28 .25      25    -22      6     34     35 131.3  11.1  33124  272.27 0864.94
2015 04 09 06 32 28 .50      26    -23      5     35     36 131.3   9.0  33118  272.17 0864.94
2015 04 09 06 32 28 .75      30    -23      3     39     40 127.8   4.9  33114  272.10 0864.94
2015 04 09 06 32 29 .00      23    -19      2     31     32 129.5   4.9  33116  272.15 0864.94
2015 04 09 06 32 29 .25      25    -23      6     35     36 133.1  11.0  33114  272.12 0864.95
2015 04 09 06 32 29 .50      25    -23      6     35     36 133.1  11.0  33114  272.12 0864.95
2015 04 09 06 32 29 .75      24    -24     -1     34     35 134.9  -2.2  33120  272.20 0864.95
2015 04 09 06 32 30 .00      26    -27      0     38     39 136.6   0.8  33120  272.22 0864.95
2015 04 09 06 32 30 .25      24    -24     -1     34     35 134.9  -2.2  33120  272.20 0864.95
2015 04 09 06 32 30 .51      35    -23      0     43     44 123.3  -0.3  33124  272.27 0864.95
2015 04 09 06 32 30 .75      28    -19      1     35     36 124.2   2.8  33126  272.32 0864.95
2015 04 09 06 32 31 .00      23    -25      3     35     36 136.8   4.9  33126  272.30 0864.95
2015 04 09 06 32 31 .25      26    -23     -1     35     36 131.3  -2.2  33128  272.35 0864.95
2015 04 09 06 32 31 .50      25    -22      6     34     35 131.3  11.1  33124  272.27 0864.95
2015 04 09 06 32 31 .76      23    -25      3     35     36 136.8   4.9  33126  272.30 0864.95
2015 04 09 06 32 32 .00      29    -29      2     42     43 134.9   2.9  33128  272.35 0864.95
2015 04 09 06 32 32 .26      26    -23     -1     35     36 131.3  -2.2  33128  272.35 0864.95
2015 04 09 06 32 32 .51      26    -28      0     39     40 136.6   0.8  33130  272.37 0864.95
2015 04 09 06 32 32 .76      31    -22      2     39     40 126.0   3.8  33126  272.30 0864.95
2015 04 09 06 32 33 .01      31    -22      2     39     40 126.0   3.8  33122  272.25 0864.95
2015 04 09 06 32 33 .26      31    -22      2     39     40 126.0   3.8  33122  272.25 0864.95
2015 04 09 06 32 33 .51      23    -25      3     35     36 136.8   4.9  33126  272.30 0864.95
2015 04 09 06 32 33 .76      26    -28      0     39     40 136.6   0.8  33130  272.37 0864.95
2015 04 09 06 32 34 .01      26    -23     -1     35     36 131.3  -2.2  33128  272.35 0864.95
2015 04 09 06 32 34 .27      25    -22      6     34     35 131.3  11.1  33124  272.27 0864.95
2015 04 09 06 32 34 .52      31    -22      2     39     40 126.0   3.8  33122  272.25 0864.95
2015 04 09 06 32 34 .77      31    -22      2     39     40 126.0   3.8  33122  272.25 0864.95
2015 04 09 06 32 35 .02      31    -22      2     39     40 126.0   3.8  33122  272.25 0864.95
2015 04 09 06 32 35 .27      26    -27      0     38     39 136.6   0.8  33120  272.22 0864.95
2015 04 09 06 32 35 .52      24    -24     -1     34     35 134.9  -2.2  33120  272.20 0864.95
2015 04 09 06 32 35 .77      26    -27      0     38     39 136.6   0.8  33120  272.22 0864.95
2015 04 09 06 32 36 .03      31    -22      2     39     40 126.0   3.8  33122  272.25 0864.95
2015 04 09 06 32 36 .27      31    -22      2     39     40 126.0   3.8  33122  272.25 0864.95
2015 04 09 06 32 36 .52      31    -22      2     39     40 126.0   3.8  33122  272.25 0864.96
2015 04 09 06 32 36 .78      33    -27      5     43     44 129.5   6.9  33120  272.22 0864.96
2015 04 09 06 32 37 .03      26    -27      0     38     39 136.6   0.8  33120  272.22 0864.96
2015 04 09 06 32 37 .28      35    -23      0     43     44 123.3  -0.3  33124  272.27 0864.96
2015 04 09 06 32 37 .53      31    -22      2     39     40 126.0   3.8  33122  272.25 0864.96
2015 04 09 06 32 37 .78      31    -22      2     39     40 126.0   3.8  33122  272.25 0864.96
2015 04 09 06 32 38 .03      31    -22      2     39     40 126.0   3.8  33122  272.25 0864.96
2015 04 09 06 32 38 .28      26    -27      0     38     39 136.6   0.8  33120  272.22 0864.96
2015 04 09 06 32 38 .53      26    -27      0     38     39 136.6   0.8  33120  272.22 0864.96
2015 04 09 06 32 38 .78      25    -23      6     35     36 133.1  11.0  33114  272.12 0864.96
2015 04 09 06 32 39 .03      25    -23      6     35     36 133.1  11.0  33114  272.12 0864.96
2015 04 09 06 32 39 .28      30    -23      3     39     40 127.8   4.9  33114  272.10 0864.96
2015 04 09 06 32 39 .53      33    -27      5     43     44 129.5   6.9  33114  272.12 0864.96
2015 04 09 06 32 39 .78      30    -23      3     39     40 127.8   4.9  33116  272.14 0864.96
2015 04 09 06 32 40 .03      25    -23      6     35     36 133.1  11.0  33114  272.12 0864.96
2015 04 09 06 32 40 .28      26    -28      8     39     40 136.6  12.2  33108  272.01 0864.96
2015 04 09 06 32 40 .54      30    -30      3     43     44 135.0   4.9  33110  272.06 0864.96
2015 04 09 06 32 40 .78      30    -30      3     43     44 135.0   4.9  33110  272.06 0864.96
2015 04 09 06 32 41 .05      26    -28      8     39     40 136.6  12.2  33108  272.01 0864.96
2015 04 09 06 32 41 .30      31    -22      2     39     40 126.0   3.8  33104  271.96 0864.96
2015 04 09 06 32 41 .55      31    -31      2     44     45 135.0   2.9  33100  271.89 0864.96
2015 04 09 06 32 41 .80      25    -22      6     34     35 131.3  11.1  33106  271.97 0864.96
2015 04 09 06 32 42 .05      25    -22      6     34     35 131.3  11.1  33106  271.97 0864.96
2015 04 09 06 32 42 .30      26    -28      1     39     40 136.6   1.8  33112  272.07 0864.96
2015 04 09 06 32 42 .55      23    -25      3     35     36 136.8   4.9  33108  272.01 0864.96
2015 04 09 06 32 42 .80      26    -27      0     38     39 136.6   0.8  33102  271.92 0864.96
2015 04 09 06 32 43 .05      31    -31      2     44     45 135.0   2.9  33100  271.89 0864.96
2015 04 09 06 32 43 .30      31    -31      2     44     45 135.0   2.9  33100  271.89 0864.96
2015 04 09 06 32 43 .55      31    -31      2     44     45 135.0   2.9  33100  271.89 0864.96
2015 04 09 06 32 43 .80      31    -31      2     44     45 135.0   2.9  33100  271.89 0864.96
2015 04 09 06 32 44 .05      30    -30      9     43     45 135.0  12.2  33096  271.83 0864.96
2015 04 09 06 32 44 .30      26    -31      5     41     42 139.5   6.9  33100  271.87 0864.96
2015 04 09 06 32 44 .55      26    -28      7     39     40 136.6  11.1  33098  271.84 0864.96
2015 04 09 06 32 44 .80      34    -31      7     47     48 132.2   9.0  33096  271.81 0864.96
2015 04 09 06 32 45 .06      34    -31      7     47     48 132.2   9.0  33098  271.84 0864.96
2015 04 09 06 32 45 .31      33    -33      4     47     48 135.0   5.9  33094  271.78 0864.96
2015 04 09 06 32 45 .56      33    -33      4     47     48 135.0   5.9  33094  271.78 0864.96
2015 04 09 06 32 45 .81      33    -33      4     47     48 135.0   5.9  33094  271.78 0864.96
2015 04 09 06 32 46 .06      30    -30      3     43     44 135.0   4.9  33092  271.76 0864.96
2015 04 09 06 32 46 .31      30    -30      3     43     44 135.0   4.9  33092  271.76 0864.96
2015 04 09 06 32 46 .56      30    -30      3     43     44 135.0   4.9  33092  271.76 0864.96
2015 04 09 06 32 46 .81      33    -33      4     47     48 135.0   5.9  33094  271.78 0864.96
2015 04 09 06 32 47 .06      30    -30      3     43     44 135.0   4.9  33092  271.76 0864.96
2015 04 09 06 32 47 .31      30    -30      3     43     44 135.0   4.9  33092  271.76 0864.96
2015 04 09 06 32 47 .56      30    -30      3     43     44 135.0   4.9  33092  271.76 0864.96
2015 04 09 06 32 47 .81      30    -30      3     43     44 135.0   4.9  33092  271.76 0864.96
2015 04 09 06 32 48 .06      30    -30      3     43     44 135.0   4.9  33092  271.76 0864.96
2015 04 09 06 32 48 .32      30    -30      3     43     44 135.0   4.9  33092  271.76 0864.96
2015 04 09 06 32 48 .57      30    -30      3     43     44 135.0   4.9  33092  271.76 0864.96
2015 04 09 06 32 48 .82      30    -30      3     43     44 135.0   4.9  33092  271.76 0864.96
2015 04 09 06 32 49 .07      30    -30      3     43     44 135.0   4.9  33092  271.76 0864.96
2015 04 09 06 32 49 .32      30    -30      3     43     44 135.0   4.9  33092  271.76 0864.96
2015 04 09 06 32 49 .57      30    -30      3     43     44 135.0   4.9  33092  271.76 0864.96
2015 04 09 06 32 49 .82      30    -30      3     43     44 135.0   4.9  33092  271.76 0864.96
2015 04 09 06 32 50 .08      30    -30      3     43     44 135.0   4.9  33092  271.76 0864.96
2015 04 09 06 32 50 .33      28    -35      8     45     46 141.3  10.1  33086  271.66 0864.96
2015 04 09 06 32 50 .58      35    -32      8     48     49 133.1  10.1  33086  271.66 0864.96
2015 04 09 06 32 50 .83      33    -27      5     43     44 129.5   6.9  33092  271.74 0864.96
2015 04 09 06 32 51 .08      30    -30      3     43     44 135.0   4.9  33092  271.76 0864.95
2015 04 09 06 32 51 .33      30    -30      3     43     44 135.0   4.9  33092  271.76 0864.95
2015 04 09 06 32 51 .58      30    -30      3     43     44 135.0   4.9  33092  271.76 0864.95
2015 04 09 06 32 51 .83      30    -30      3     43     44 135.0   4.9  33092  271.76 0864.96
2015 04 09 06 32 52 .08      30    -30      3     43     44 135.0   4.9  33092  271.76 0864.96
2015 04 09 06 32 52 .33      30    -30      3     43     44 135.0   4.9  33092  271.76 0864.96
2015 04 09 06 32 52 .58      30    -30      3     43     44 135.0   4.9  33092  271.76 0864.96
2015 04 09 06 32 52 .83      30    -30      3     43     44 135.0   4.9  33092  271.76 0864.96
2015 04 09 06 32 53 .08      30    -30      3     43     44 135.0   4.9  33092  271.76 0864.96
2015 04 09 06 32 53 .33      26    -28      0     39     40 136.6   0.8  33090  271.73 0864.96
2015 04 09 06 32 53 .59      26    -28      0     39     40 136.6   0.8  33090  271.73 0864.95
2015 04 09 06 32 53 .83      26    -28      0     39     40 136.6   0.8  33090  271.73 0864.95
2015 04 09 06 32 54 .09      26    -28      1     39     40 136.6   1.8  33094  271.78 0864.95
2015 04 09 06 32 54 .34      23    -25      3     35     36 136.8   4.9  33090  271.71 0864.95
2015 04 09 06 32 54 .59      23    -25      1     35     36 136.8   2.9  33086  271.66 0864.95
2015 04 09 06 32 54 .84      25    -22      6     34     35 131.3  11.1  33088  271.68 0864.95
2015 04 09 06 32 55 .09      25    -30      6     40     41 140.3   9.0  33090  271.73 0864.95
2015 04 09 06 32 55 .35      26    -28      0     39     40 136.6   0.8  33090  271.73 0864.95
2015 04 09 06 32 55 .60      26    -28      0     39     40 136.6   0.8  33090  271.73 0864.95
2015 04 09 06 32 55 .85      26    -23     -1     35     36 131.3  -2.2  33092  271.76 0864.95
2015 04 09 06 32 56 .10      26    -23     -1     35     36 131.3  -2.2  33092  271.76 0864.95
2015 04 09 06 32 56 .35      26    -28      0     39     40 136.6   0.8  33090  271.73 0864.95
2015 04 09 06 32 56 .60      26    -28      1     39     40 136.6   1.8  33094  271.78 0864.95
2015 04 09 06 32 56 .85      26    -28      1     39     40 136.6   1.8  33094  271.78 0864.95
2015 04 09 06 32 57 .10      31    -31      2     44     45 135.0   2.9  33100  271.89 0864.95
2015 04 09 06 32 57 .35      26    -28      0     39     40 136.6   0.8  33100  271.87 0864.95
2015 04 09 06 32 57 .61      26    -28      0     39     40 136.6   0.8  33100  271.87 0864.95
2015 04 09 06 32 57 .85      26    -31      5     41     42 139.5   6.9  33100  271.87 0864.95
2015 04 09 06 32 58 .11      25    -23      6     35     36 133.1  11.0  33096  271.83 0864.95
2015 04 09 06 32 58 .36      36    -24      2     44     45 124.2   2.8  33096  271.83 0864.95
2015 04 09 06 32 58 .61      30    -23      3     39     40 127.8   4.9  33098  271.84 0864.95
2015 04 09 06 32 58 .86      26    -28      0     39     40 136.6   0.8  33100  271.87 0864.95
2015 04 09 06 32 59 .11      26    -28      0     39     40 136.6   0.8  33100  271.87 0864.95
2015 04 09 06 32 59 .36      24    -27      1     37     38 138.6   2.9  33098  271.86 0864.95
2015 04 09 06 32 59 .61      24    -27      1     37     38 138.6   2.9  33098  271.86 0864.95
2015 04 09 06 32 59 .86      26    -28      0     39     40 136.6   0.8  33100  271.87 0864.95
2015 04 09 06 33 00 .11      24    -24     -1     34     35 134.9  -2.2  33102  271.91 0864.95
2015 04 09 06 33 00 .36      31    -31      2     44     45 135.0   2.9  33100  271.89 0864.95
2015 04 09 06 33 00 .61      27    -26      1     38     39 133.3   2.9  33098  271.86 0864.95
2015 04 09 06 33 00 .86      26    -28      0     39     40 136.6   0.8  33100  271.87 0864.95
2015 04 09 06 33 01 .11      26    -28      0     39     40 136.6   0.8  33100  271.87 0864.95
2015 04 09 06 33 01 .36      31    -31      2     44     45 135.0   2.9  33100  271.89 0864.95
2015 04 09 06 33 01 .61      26    -28      0     39     40 136.6   0.8  33100  271.87 0864.95
2015 04 09 06 33 01 .86      32    -27     -1     43     44 130.4  -2.2  33098  271.86 0864.95
2015 04 09 06 33 02 .12      36    -24      2     44     45 124.2   2.8  33096  271.83 0864.95
2015 04 09 06 33 02 .37      28    -26      1     39     40 133.1   1.8  33098  271.86 0864.95
2015 04 09 06 33 02 .63      26    -28      0     39     40 136.6   0.8  33100  271.87 0864.95
2015 04 09 06 33 02 .88      32    -27     -1     43     44 130.4  -2.2  33098  271.86 0864.95
2015 04 09 06 33 03 .13      24    -24     -1     34     35 134.9  -2.2  33102  271.91 0864.95
2015 04 09 06 33 03 .38      24    -24     -1     34     35 134.9  -2.2  33102  271.91 0864.95
2015 04 09 06 33 03 .63      24    -24     -1     34     35 134.9  -2.2  33102  271.91 0864.95
2015 04 09 06 33 03 .88      26    -28      0     39     40 136.6   0.8  33100  271.87 0864.95
2015 04 09 06 33 04 .13      32    -27     -1     43     44 130.4  -2.2  33098  271.86 0864.95
2015 04 09 06 33 04 .38      24    -24     -1     34     35 134.9  -2.2  33102  271.91 0864.95
2015 04 09 06 33 04 .63      24    -24     -1     34     35 134.9  -2.2  33102  271.91 0864.95
2015 04 09 06 33 04 .88      24    -24     -1     34     35 134.9  -2.2  33102  271.91 0864.95
2015 04 09 06 33 05 .13      24    -20     -1     32     33 129.6  -3.1  33102  271.92 0864.95
2015 04 09 06 33 05 .38      24    -20     -1     32     33 129.6  -3.1  33102  271.92 0864.95
2015 04 09 06 33 05 .63      28    -19      1     35     36 124.2   2.8  33102  271.92 0864.95
2015 04 09 06 33 05 .88      31    -22      2     39     40 126.0   3.8  33104  271.96 0864.95
2015 04 09 06 33 06 .13      26    -27      0     38     39 136.6   0.8  33102  271.92 0864.95
2015 04 09 06 33 06 .38      31    -22      2     39     40 126.0   3.8  33104  271.96 0864.95
2015 04 09 06 33 06 .64      31    -22      2     39     40 126.0   3.8  33104  271.96 0864.95
2015 04 09 06 33 06 .89      28    -19      1     35     36 124.2   2.8  33108  272.02 0864.95
2015 04 09 06 33 07 .13      26    -23     -1     35     36 131.3  -2.2  33110  272.06 0864.95
2015 04 09 06 33 07 .39      26    -23     -1     35     36 131.3  -2.2  33110  272.06 0864.95
2015 04 09 06 33 07 .64      26    -28      1     39     40 136.6   1.8  33112  272.07 0864.95
2015 04 09 06 33 07 .89      26    -28      1     39     40 136.6   1.8  33112  272.07 0864.95
2015 04 09 06 33 08 .14      26    -28      1     39     40 136.6   1.8  33112  272.07 0864.95
2015 04 09 06 33 08 .39      33    -27     -1     43     44 129.5  -2.2  33114  272.10 0864.95
2015 04 09 06 33 08 .64      33    -27     -1     43     44 129.5  -2.2  33114  272.10 0864.95
2015 04 09 06 33 08 .89      26    -28      1     39     40 136.6   1.8  33112  272.07 0864.95
2015 04 09 06 33 09 .15      30    -23      3     39     40 127.8   4.9  33114  272.10 0864.95
2015 04 09 06 33 09 .40      26    -28      1     39     40 136.6   1.8  33112  272.07 0864.95
2015 04 09 06 33 09 .65      26    -28      1     39     40 136.6   1.8  33112  272.07 0864.95
2015 04 09 06 33 09 .90      26    -28      1     39     40 136.6   1.8  33112  272.07 0864.95
2015 04 09 06 33 10 .15      26    -28      1     39     40 136.6   1.8  33112  272.07 0864.95
2015 04 09 06 33 10 .40      30    -23      3     39     40 127.8   4.9  33114  272.10 0864.95
2015 04 09 06 33 10 .65      30    -23      3     39     40 127.8   4.9  33114  272.10 0864.95
2015 04 09 06 33 10 .90      30    -23      3     39     40 127.8   4.9  33114  272.10 0864.95
2015 04 09 06 33 11 .15      26    -28      1     39     40 136.6   1.8  33112  272.07 0864.95
2015 04 09 06 33 11 .40      26    -28      1     39     40 136.6   1.8  33112  272.07 0864.95
2015 04 09 06 33 11 .66      26    -28      1     39     40 136.6   1.8  33112  272.07 0864.95
2015 04 09 06 33 11 .91      36    -24      2     44     45 124.2   2.8  33114  272.12 0864.95
2015 04 09 06 33 12 .16      36    -24      2     44     45 124.2   2.8  33114  272.12 0864.95
2015 04 09 06 33 12 .41      36    -24      2     44     45 124.2   2.8  33114  272.12 0864.95
2015 04 09 06 33 12 .66      30    -23      3     39     40 127.8   4.9  33114  272.10 0864.94
2015 04 09 06 33 12 .91      30    -23      3     39     40 127.8   4.9  33114  272.10 0864.94
2015 04 09 06 33 13 .16      30    -23      3     39     40 127.8   4.9  33114  272.10 0864.94
2015 04 09 06 33 13 .41      36    -24      2     44     45 124.2   2.8  33114  272.12 0864.94
2015 04 09 06 33 13 .66      30    -23      3     39     40 127.8   4.9  33114  272.10 0864.94
2015 04 09 06 33 13 .91      25    -23      6     35     36 133.1  11.0  33114  272.12 0864.94
2015 04 09 06 33 14 .16      30    -23      3     39     40 127.8   4.9  33114  272.10 0864.94
2015 04 09 06 33 14 .41      26    -28      1     39     40 136.6   1.8  33112  272.07 0864.94
2015 04 09 06 33 14 .66      28    -19      1     35     36 124.2   2.8  33112  272.07 0864.94
2015 04 09 06 33 14 .92      28    -19      1     35     36 124.2   2.8  33112  272.07 0864.94
2015 04 09 06 33 15 .16      30    -23      3     39     40 127.8   4.9  33114  272.10 0864.94
2015 04 09 06 33 15 .42      30    -23      3     39     40 127.8   4.9  33114  272.10 0864.94
2015 04 09 06 33 15 .67      30    -23      3     39     40 127.8   4.9  33114  272.10 0864.94
2015 04 09 06 33 15 .91      28    -19      1     35     36 124.2   2.8  33114  272.12 0864.94
2015 04 09 06 33 16 .23      25    -23      6     35     36 133.1  11.0  33114  272.12 0864.94
2015 04 09 06 33 16 .43      36    -24      2     44     45 124.2   2.8  33114  272.12 0864.94
2015 04 09 06 33 16 .68      28    -19      1     35     36 124.2   2.8  33120  272.22 0864.94
2015 04 09 06 33 16 .93      31    -22      2     39     40 126.0   3.8  33122  272.25 0864.94
2015 04 09 06 33 17 .18      31    -22      2     39     40 126.0   3.8  33122  272.25 0864.94
2015 04 09 06 33 17 .43      26    -27      0     38     39 136.6   0.8  33120  272.22 0864.94
2015 04 09 06 33 17 .68      30    -23      3     39     40 127.8   4.9  33116  272.14 0864.94
2015 04 09 06 33 17 .93      33    -19      5     39     40 120.7   8.0  33120  272.22 0864.94
2015 04 09 06 33 18 .18      33    -19      5     39     40 120.7   8.0  33120  272.22 0864.94
2015 04 09 06 33 18 .43      33    -19      5     39     40 120.7   8.0  33120  272.22 0864.94
2015 04 09 06 33 18 .68      31    -22      2     39     40 126.0   3.8  33122  272.25 0864.94
2015 04 09 06 33 18 .94      31    -22      2     39     40 126.0   3.8  33122  272.25 0864.94
2015 04 09 06 33 19 .18      35    -23      0     43     44 123.3  -0.3  33124  272.27 0864.94
2015 04 09 06 33 19 .43      35    -23      0     43     44 123.3  -0.3  33124  272.27 0864.94
2015 04 09 06 33 19 .68      35    -23      0     43     44 123.3  -0.3  33124  272.27 0864.94
2015 04 09 06 33 19 .93      33    -21     -1     40     41 122.4  -2.2  33126  272.30 0864.94
2015 04 09 06 33 20 .19      31    -22      2     39     40 126.0   3.8  33122  272.25 0864.94
2015 04 09 06 33 20 .44      35    -23      0     43     44 123.3  -0.3  33124  272.27 0864.94
2015 04 09 06 33 20 .69      35    -23      0     43     44 123.3  -0.3  33124  272.27 0864.94
2015 04 09 06 33 20 .94      31    -22      2     39     40 126.0   3.8  33122  272.25 0864.94
2015 04 09 06 33 21 .19      31    -22      2     39     40 126.0   3.8  33122  272.25 0864.94
2015 04 09 06 33 21 .44      35    -23      0     43     44 123.3  -0.3  33124  272.27 0864.94
2015 04 09 06 33 21 .69      31    -22      2     39     40 126.0   3.8  33126  272.30 0864.94
2015 04 09 06 33 21 .94      31    -22      2     39     40 126.0   3.8  33122  272.25 0864.94
2015 04 09 06 33 22 .19      31    -22      2     39     40 126.0   3.8  33122  272.25 0864.94
2015 04 09 06 33 22 .44      35    -23      0     43     44 123.3  -0.3  33124  272.27 0864.94
2015 04 09 06 33 22 .69      33    -19      5     39     40 120.7   8.0  33120  272.22 0864.94
2015 04 09 06 33 22 .95      33    -19      5     39     40 120.7   8.0  33120  272.22 0864.94
2015 04 09 06 33 23 .20      31    -22      2     39     40 126.0   3.8  33122  272.25 0864.94
2015 04 09 06 33 23 .45      31    -22      2     39     40 126.0   3.8  33122  272.25 0864.94
2015 04 09 06 33 23 .70      31    -22      2     39     40 126.0   3.8  33122  272.25 0864.94
2015 04 09 06 33 23 .95      31    -22      2     39     40 126.0   3.8  33122  272.25 0864.94
2015 04 09 06 33 24 .20      35    -23      0     43     44 123.3  -0.3  33124  272.27 0864.94
2015 04 09 06 33 24 .46      31    -22      2     39     40 126.0   3.8  33122  272.25 0864.94
2015 04 09 06 33 24 .71      33    -19      5     39     40 120.7   8.0  33120  272.22 0864.94
2015 04 09 06 33 24 .96      33    -19      5     39     40 120.7   8.0  33120  272.22 0864.94
2015 04 09 06 33 25 .21      33    -19      5     39     40 120.7   8.0  33120  272.22 0864.94
2015 04 09 06 33 25 .46      33    -19      5     39     40 120.7   8.0  33120  272.22 0864.94
2015 04 09 06 33 25 .71      33    -19      5     39     40 120.7   8.0  33120  272.22 0864.94
2015 04 09 06 33 25 .96      33    -19      5     39     40 120.7   8.0  33120  272.22 0864.94
2015 04 09 06 33 26 .21      33    -19      5     39     40 120.7   8.0  33120  272.22 0864.94
2015 04 09 06 33 26 .46      33    -19      5     39     40 120.7   8.0  33120  272.22 0864.94
2015 04 09 06 33 26 .71      33    -19      5     39     40 120.7   8.0  33120  272.22 0864.94
2015 04 09 06 33 26 .96      39    -18      2     44     45 115.3   2.9  33122  272.25 0864.94
2015 04 09 06 33 27 .21      31    -22      2     39     40 126.0   3.8  33122  272.25 0864.94
2015 04 09 06 33 27 .46      31    -22      2     39     40 126.0   3.8  33122  272.25 0864.94
2015 04 09 06 33 27 .71      33    -19      5     39     40 120.7   8.0  33120  272.22 0864.94
2015 04 09 06 33 27 .96      33    -19      5     39     40 120.7   8.0  33120  272.22 0864.94
2015 04 09 06 33 28 .21      31    -22      2     39     40 126.0   3.8  33122  272.25 0864.94
2015 04 09 06 33 28 .46      33    -19      5     39     40 120.7   8.0  33120  272.22 0864.94
2015 04 09 06 33 28 .71      33    -19      5     39     40 120.7   8.0  33120  272.22 0864.94
2015 04 09 06 33 28 .97      31    -22      2     39     40 126.0   3.8  33122  272.25 0864.94
2015 04 09 06 33 29 .22      33    -19      5     39     40 120.7   8.0  33120  272.22 0864.94
2015 04 09 06 33 29 .47      33    -19      5     39     40 120.7   8.0  33120  272.22 0864.94
2015 04 09 06 33 29 .72      33    -19      5     39     40 120.7   8.0  33120  272.22 0864.94
2015 04 09 06 33 29 .98      31    -14      3     35     36 115.3   4.9  33120  272.20 0864.94
2015 04 09 06 33 30 .23      33    -19      5     39     40 120.7   8.0  33120  272.22 0864.94
2015 04 09 06 33 30 .48      33    -19      5     39     40 120.7   8.0  33120  272.22 0864.94
2015 04 09 06 33 30 .73      31    -14      3     35     36 115.3   4.9  33120  272.20 0864.94
2015 04 09 06 33 30 .98      31    -14      3     35     36 115.3   4.9  33120  272.20 0864.94
2015 04 09 06 33 31 .23      31    -14      3     35     36 115.3   4.9  33120  272.20 0864.94
2015 04 09 06 33 31 .48      31    -14      3     35     36 115.3   4.9  33120  272.20 0864.94
2015 04 09 06 33 31 .73      35    -15      1     39     40 113.5   1.8  33118  272.17 0864.94
2015 04 09 06 33 31 .98      35    -15      1     39     40 113.5   1.8  33118  272.17 0864.94
2015 04 09 06 33 32 .23      35    -15      1     39     40 113.5   1.8  33118  272.17 0864.94
2015 04 09 06 33 32 .48      35    -15      1     39     40 113.5   1.8  33118  272.17 0864.94
2015 04 09 06 33 32 .73      35    -15      1     39     40 113.5   1.8  33118  272.17 0864.95
2015 04 09 06 33 32 .99      35    -15      1     39     40 113.5   1.8  33118  272.17 0864.95
2015 04 09 06 33 33 .23      35    -15      1     39     40 113.5   1.8  33118  272.17 0864.95
2015 04 09 06 33 33 .49      35    -15      1     39     40 113.5   1.8  33118  272.17 0864.94
2015 04 09 06 33 33 .74      36    -24      2     44     45 124.2   2.8  33114  272.12 0864.94
2015 04 09 06 33 33 .99      33    -21     -1     40     41 122.4  -2.2  33116  272.15 0864.94
2015 04 09 06 33 34 .24      33    -21     -1     40     41 122.4  -2.2  33116  272.15 0864.94
2015 04 09 06 33 34 .49      33    -21     -1     40     41 122.4  -2.2  33116  272.15 0864.94
2015 04 09 06 33 34 .74      36    -24      2     44     45 124.2   2.8  33114  272.12 0864.94
2015 04 09 06 33 34 .99      35    -15      1     39     40 113.5   1.8  33118  272.17 0864.94
2015 04 09 06 33 35 .24      35    -15      1     39     40 113.5   1.8  33118  272.17 0864.95
2015 04 09 06 33 35 .49      35    -15      1     39     40 113.5   1.8  33118  272.17 0864.95
2015 04 09 06 33 35 .74      39    -21      2     45     46 118.9   2.9  33114  272.10 0864.95
2015 04 09 06 33 35 .99      35    -11      1     37     38 108.4   2.9  33116  272.15 0864.95
2015 04 09 06 33 36 .24      35    -15      1     39     40 113.5   1.8  33118  272.17 0864.95
2015 04 09 06 33 36 .49      35    -15      1     39     40 113.5   1.8  33118  272.17 0864.95
2015 04 09 06 33 36 .74      35    -15      1     39     40 113.5   1.8  33118  272.17 0864.95
2015 04 09 06 33 37 .00      35    -15      1     39     40 113.5   1.8  33118  272.17 0864.95
2015 04 09 06 33 37 .25      35    -15      1     39     40 113.5   1.8  33118  272.17 0864.95
2015 04 09 06 33 37 .50      35    -15      1     39     40 113.5   1.8  33118  272.17 0864.95
2015 04 09 06 33 37 .76      35    -15      1     39     40 113.5   1.8  33118  272.17 0864.95
2015 04 09 06 33 38 .01      31    -14      3     35     36 115.3   4.9  33120  272.20 0864.95
2015 04 09 06 33 38 .26      31    -14      3     35     36 115.3   4.9  33120  272.20 0864.95
2015 04 09 06 33 38 .51      31    -14      3     35     36 115.3   4.9  33120  272.20 0864.95
2015 04 09 06 33 38 .76      31    -14      3     35     36 115.3   4.9  33120  272.20 0864.95
2015 04 09 06 33 39 .01      35    -15      1     39     40 113.5   1.8  33118  272.17 0864.95
2015 04 09 06 33 39 .26      35    -15      1     39     40 113.5   1.8  33118  272.17 0864.95
2015 04 09 06 33 39 .51      35    -15      1     39     40 113.5   1.8  33118  272.17 0864.95
2015 04 09 06 33 39 .76      33    -19      5     39     40 120.7   8.0  33120  272.22 0864.96
2015 04 09 06 33 40 .01      39    -20      2     44     45 117.1   3.8  33120  272.20 0864.96
2015 04 09 06 33 40 .26      42    -17      0     46     47 112.6  -0.3  33120  272.22 0864.96
2015 04 09 06 33 40 .51      35    -23      0     43     44 123.3  -0.3  33124  272.27 0864.96
2015 04 09 06 33 40 .76      31    -22      2     39     40 126.0   3.8  33122  272.25 0864.96
2015 04 09 06 33 41 .01      35    -23      0     43     44 123.3  -0.3  33124  272.27 0864.96
2015 04 09 06 33 41 .26      35    -23      0     43     44 123.3  -0.3  33124  272.27 0864.96
2015 04 09 06 33 41 .51      35    -23      0     43     44 123.3  -0.3  33124  272.27 0864.96
2015 04 09 06 33 41 .76      35    -23      0     43     44 123.3  -0.3  33124  272.27 0864.95
2015 04 09 06 33 42 .02      39    -18      2     44     45 115.3   2.9  33122  272.25 0864.95
2015 04 09 06 33 42 .26      39    -18      2     44     45 115.3   2.9  33122  272.25 0864.95
2015 04 09 06 33 42 .52      39    -18      2     44     45 115.3   2.9  33122  272.25 0864.95
2015 04 09 06 33 42 .77      33    -19      5     39     40 120.7   8.0  33120  272.22 0864.95
2015 04 09 06 33 43 .02      39    -18      2     44     45 115.3   2.9  33122  272.25 0864.95
2015 04 09 06 33 43 .27      39    -14      4     42     43 110.8   5.9  33124  272.27 0864.95
2015 04 09 06 33 43 .52      39    -14      4     42     43 110.8   5.9  33124  272.27 0864.95
2015 04 09 06 33 43 .77      39    -14      4     42     43 110.8   5.9  33124  272.27 0864.95
2015 04 09 06 33 44 .03      39    -14      4     42     43 110.8   5.9  33124  272.27 0864.95
2015 04 09 06 33 44 .28      39    -14      4     42     43 110.8   5.9  33124  272.27 0864.95
2015 04 09 06 33 44 .53      35    -23      0     43     44 123.3  -0.3  33124  272.27 0864.95
2015 04 09 06 33 44 .78      39    -18      2     44     45 115.3   2.9  33122  272.25 0864.95
2015 04 09 06 33 45 .03      39    -14      4     42     43 110.8   5.9  33124  272.27 0864.95
2015 04 09 06 33 45 .28      39    -14      4     42     43 110.8   5.9  33124  272.27 0864.96
2015 04 09 06 33 45 .53      35    -23      0     43     44 123.3  -0.3  33124  272.27 0864.96
2015 04 09 06 33 45 .78      35    -19      3     41     42 118.9   4.9  33124  272.29 0864.96
2015 04 09 06 33 46 .04      33    -19      5     39     40 120.7   8.0  33120  272.22 0864.96
2015 04 09 06 33 46 .29      33    -19      5     39     40 120.7   8.0  33120  272.22 0864.96
2015 04 09 06 33 46 .54      31    -22      2     39     40 126.0   3.8  33122  272.25 0864.96
2015 04 09 06 33 46 .79      25    -22      6     34     35 131.3  11.1  33124  272.27 0864.96
2015 04 09 06 33 47 .04      35    -15      7     39     40 113.5  11.1  33122  272.24 0864.96
2015 04 09 06 33 47 .29      33    -19      5     39     40 120.7   8.0  33120  272.22 0864.96
2015 04 09 06 33 47 .54      33    -19      5     39     40 120.7   8.0  33120  272.22 0864.96
2015 04 09 06 33 47 .79      33    -19      5     39     40 120.7   8.0  33120  272.22 0864.96
2015 04 09 06 33 48 .04      33    -19      5     39     40 120.7   8.0  33120  272.22 0864.96
2015 04 09 06 33 48 .29      33    -19      5     39     40 120.7   8.0  33120  272.22 0864.96
2015 04 09 06 33 48 .54      33    -19      5     39     40 120.7   8.0  33120  272.22 0864.96
2015 04 09 06 33 48 .79      31    -22      2     39     40 126.0   3.8  33122  272.25 0864.96
2015 04 09 06 33 49 .04      31    -22      2     39     40 126.0   3.8  33122  272.25 0864.96
2015 04 09 06 33 49 .29      31    -22      2     39     40 126.0   3.8  33122  272.25 0864.96
2015 04 09 06 33 49 .54      33    -19      5     39     40 120.7   8.0  33120  272.22 0864.96
2015 04 09 06 33 49 .79      33    -21     -1     40     41 122.4  -2.2  33126  272.30 0864.96
2015 04 09 06 33 50 .04      33    -21     -1     40     41 122.4  -2.2  33126  272.30 0864.96
2015 04 09 06 33 50 .29      33    -21     -1     40     41 122.4  -2.2  33126  272.30 0864.96
2015 04 09 06 33 50 .55      35    -16      0     39     40 115.3   0.8  33126  272.32 0864.96
2015 04 09 06 33 50 .80      33    -21     -1     40     41 122.4  -2.2  33126  272.30 0864.96
2015 04 09 06 33 51 .06      28    -19      1     35     36 124.2   2.8  33126  272.32 0864.96
2015 04 09 06 33 51 .31      35    -16      0     39     40 115.3   0.8  33126  272.32 0864.96
2015 04 09 06 33 51 .56      35    -23      0     43     44 123.3  -0.3  33124  272.27 0864.96
2015 04 09 06 33 51 .81      31    -22      2     39     40 126.0   3.8  33122  272.25 0864.96
2015 04 09 06 33 52 .06      38    -20      2     44     45 118.0   2.9  33126  272.30 0864.96
2015 04 09 06 33 52 .31      38    -20      2     44     45 118.0   2.9  33126  272.30 0864.96
2015 04 09 06 33 52 .56      33    -21     -1     40     41 122.4  -2.2  33126  272.30 0864.96
2015 04 09 06 33 52 .81      33    -21      4     40     41 122.4   6.9  33126  272.32 0864.96
2015 04 09 06 33 53 .06      33    -21      4     40     41 122.4   6.9  33126  272.32 0864.96
2015 04 09 06 33 53 .31      35    -23      0     43     44 123.3  -0.3  33124  272.27 0864.96
2015 04 09 06 33 53 .56      38    -20      2     44     45 118.0   2.9  33126  272.30 0864.96
2015 04 09 06 33 53 .81      38    -20      2     44     45 118.0   2.9  33126  272.30 0864.96
2015 04 09 06 33 54 .06      33    -21      4     40     41 122.4   6.9  33126  272.32 0864.96
2015 04 09 06 33 54 .31      33    -21      4     40     41 122.4   6.9  33130  272.37 0864.96
2015 04 09 06 33 54 .57      33    -21      4     40     41 122.4   6.9  33130  272.37 0864.96
2015 04 09 06 33 54 .81      38    -20      2     44     45 118.0   2.9  33126  272.30 0864.96
2015 04 09 06 33 55 .07      32    -16      1     37     38 117.1   2.9  33128  272.35 0864.96
2015 04 09 06 33 55 .32      33    -21      4     40     41 122.4   6.9  33130  272.37 0864.96
2015 04 09 06 33 55 .57      28    -20      6     35     36 126.0  11.1  33128  272.34 0864.96
2015 04 09 06 33 55 .82      33    -21      4     40     41 122.4   6.9  33130  272.37 0864.96
2015 04 09 06 33 56 .07      38    -20      2     44     45 118.0   2.9  33126  272.30 0864.96
2015 04 09 06 33 56 .32      33    -21      4     40     41 122.4   6.9  33130  272.37 0864.96
2015 04 09 06 33 56 .57      35    -23      7     42     43 123.3  10.1  33128  272.35 0864.96
2015 04 09 06 33 56 .82      35    -23      7     42     43 123.3  10.1  33128  272.35 0864.96
2015 04 09 06 33 57 .07      33    -21      4     40     41 122.4   6.9  33130  272.37 0864.96
2015 04 09 06 33 57 .32      33    -21      4     40     41 122.4   6.9  33130  272.37 0864.96
2015 04 09 06 33 57 .57      33    -21      4     40     41 122.4   6.9  33130  272.37 0864.96
2015 04 09 06 33 57 .83      33    -21      4     40     41 122.4   6.9  33130  272.37 0864.96
2015 04 09 06 33 58 .08      31    -22      2     39     40 126.0   3.8  33130  272.38 0864.96
2015 04 09 06 33 58 .33      31    -22      2     39     40 126.0   3.8  33130  272.38 0864.96
2015 04 09 06 33 58 .58      33    -21      4     40     41 122.4   6.9  33130  272.37 0864.96
2015 04 09 06 33 58 .83      33    -21      4     40     41 122.4   6.9  33130  272.37 0864.96
2015 04 09 06 33 59 .08      31    -22      2     39     40 126.0   3.8  33130  272.38 0864.96
2015 04 09 06 33 59 .34      33    -21      4     40     41 122.4   6.9  33130  272.37 0864.96
2015 04 09 06 33 59 .59      33    -21      4     40     41 122.4   6.9  33130  272.37 0864.96
2015 04 09 06 33 59 .84      37    -20      2     43     44 118.9   2.9  33130  272.38 0864.96
2015 04 09 06 34 00 .09      38    -20      2     44     45 118.0   2.9  33128  272.34 0864.96
2015 04 09 06 34 00 .34      33    -21      4     40     41 122.4   6.9  33130  272.37 0864.96
2015 04 09 06 34 00 .59      35    -23      7     42     43 123.3  10.1  33128  272.35 0864.96
2015 04 09 06 34 00 .84      40    -23      4     47     48 119.8   4.9  33126  272.32 0864.96
2015 04 09 06 34 01 .09      40    -23      4     47     48 119.8   4.9  33126  272.32 0864.96
2015 04 09 06 34 01 .34      39    -14      4     42     43 110.8   5.9  33124  272.27 0864.96
2015 04 09 06 34 01 .59      38    -20      2     44     45 118.0   2.9  33126  272.30 0864.96
2015 04 09 06 34 01 .84      40    -23      4     47     48 119.8   4.9  33126  272.32 0864.96
2015 04 09 06 34 02 .09      38    -20      2     44     45 118.0   2.9  33126  272.30 0864.96
2015 04 09 06 34 02 .34      38    -20      2     44     45 118.0   2.9  33128  272.34 0864.96
2015 04 09 06 34 02 .59      42    -19      0     47     48 114.4   0.8  33130  272.37 0864.96
2015 04 09 06 34 02 .84      42    -19      0     47     48 114.4   0.8  33130  272.37 0864.96
2015 04 09 06 34 03 .09      42    -19      0     47     48 114.4   0.8  33130  272.37 0864.96
2015 04 09 06 34 03 .34      42    -19      0     47     48 114.4   0.8  33130  272.37 0864.96
2015 04 09 06 34 03 .59      42    -19      0     47     48 114.4   0.8  33130  272.37 0864.96
2015 04 09 06 34 03 .85      42    -19      0     47     48 114.4   0.8  33130  272.37 0864.96
2015 04 09 06 34 04 .10      42    -19      0     47     48 114.4   0.8  33130  272.37 0864.96
2015 04 09 06 34 04 .35      42    -19      0     47     48 114.4   0.8  33130  272.37 0864.96
2015 04 09 06 34 04 .60      42    -19      0     47     48 114.4   0.8  33130  272.37 0864.96
2015 04 09 06 34 04 .86      42    -19      0     47     48 114.4   0.8  33130  272.37 0864.96
2015 04 09 06 34 05 .11      42    -14      2     45     46 108.2   2.9  33130  272.38 0864.96
2015 04 09 06 34 05 .36      42    -14      2     45     46 108.2   2.9  33130  272.38 0864.96
2015 04 09 06 34 05 .61      42    -14      2     45     46 108.2   2.9  33130  272.38 0864.96
2015 04 09 06 34 05 .86      42    -14      2     45     46 108.2   2.9  33130  272.38 0864.96
2015 04 09 06 34 06 .11      42    -14      2     45     46 108.2   2.9  33130  272.38 0864.96
2015 04 09 06 34 06 .36      38    -14      5     41     42 110.8   8.0  33132  272.42 0864.96
2015 04 09 06 34 06 .61      40    -23      4     47     48 119.8   5.9  33136  272.47 0864.96
2015 04 09 06 34 06 .86      42    -19      8     47     48 114.4  10.1  33134  272.45 0864.96
2015 04 09 06 34 07 .11      42    -19      8     47     48 114.4  10.1  33134  272.45 0864.96
2015 04 09 06 34 07 .36      38    -14      5     41     42 110.8   8.0  33132  272.42 0864.96
2015 04 09 06 34 07 .62      35    -23      0     42     43 123.3  -0.3  33132  272.42 0864.96
2015 04 09 06 34 07 .87      35    -23      0     42     43 123.3  -0.3  33132  272.42 0864.96
2015 04 09 06 34 08 .12      39    -20      2     44     45 117.1   3.8  33134  272.43 0864.96
2015 04 09 06 34 08 .37      39    -20      2     44     45 117.1   3.8  33134  272.43 0864.96
2015 04 09 06 34 08 .62      37    -20      2     43     44 118.9   2.9  33130  272.38 0864.96
2015 04 09 06 34 08 .87      42    -19      0     47     48 114.4   0.8  33130  272.37 0864.95
2015 04 09 06 34 09 .12      42    -19      0     47     48 114.4   0.8  33130  272.37 0864.95
2015 04 09 06 34 09 .37      42    -19      0     47     48 114.4   0.8  33130  272.37 0864.95
2015 04 09 06 34 09 .62      42    -19      0     47     48 114.4   0.8  33130  272.37 0864.95
2015 04 09 06 34 09 .87      42    -19      0     47     48 114.4   0.8  33130  272.37 0864.95
2015 04 09 06 34 10 .12      42    -14      2     45     46 108.2   2.9  33130  272.38 0864.95
2015 04 09 06 34 10 .37      37    -20      2     43     44 118.9   2.9  33130  272.38 0864.95
2015 04 09 06 34 10 .62      35    -23      0     42     43 123.3  -0.3  33132  272.42 0864.96
2015 04 09 06 34 10 .87      35    -23      0     42     43 123.3  -0.3  33132  272.42 0864.96
2015 04 09 06 34 11 .12      35    -15      1     39     40 113.5   1.8  33136  272.47 0864.96
2015 04 09 06 34 11 .37      39    -20      2     44     45 117.1   3.8  33134  272.43 0864.96
2015 04 09 06 34 11 .63      40    -23      4     47     48 119.8   5.9  33136  272.47 0864.96
2015 04 09 06 34 11 .88      38    -17      4     42     43 114.4   5.9  33134  272.43 0864.96
2015 04 09 06 34 12 .13      39    -20      2     44     45 117.1   3.8  33134  272.43 0864.96
2015 04 09 06 34 12 .39      33    -21      4     40     41 122.4   6.9  33130  272.37 0864.96
2015 04 09 06 34 12 .64      38    -20      2     44     45 118.0   2.9  33128  272.34 0864.96
2015 04 09 06 34 12 .89      38    -20      2     44     45 118.0   2.9  33128  272.34 0864.96
2015 04 09 06 34 13 .14      40    -23      4     47     48 119.8   4.9  33126  272.32 0864.96
2015 04 09 06 34 13 .42      35    -23      7     42     43 123.3  10.1  33128  272.35 0864.96
2015 04 09 06 34 13 .64      33    -21      4     40     41 122.4   6.9  33130  272.37 0864.96
2015 04 09 06 34 13 .89      35    -15      7     39     40 113.5  11.1  33132  272.40 0864.96
2015 04 09 06 34 14 .14      40    -23      4     47     48 119.8   4.9  33126  272.32 0864.95
2015 04 09 06 34 14 .39      40    -23      4     47     48 119.8   4.9  33126  272.32 0864.95
2015 04 09 06 34 14 .64      39    -14      4     42     43 110.8   5.9  33124  272.27 0864.95
2015 04 09 06 34 14 .89      39    -14      4     42     43 110.8   5.9  33124  272.27 0864.95
2015 04 09 06 34 15 .14      35    -15      7     39     40 113.5  11.1  33122  272.24 0864.95
2015 04 09 06 34 15 .39      35    -15      7     39     40 113.5  11.1  33122  272.24 0864.95
2015 04 09 06 34 15 .64      33    -19      5     39     40 120.7   8.0  33120  272.22 0864.95
2015 04 09 06 34 15 .89      33    -19      5     39     40 120.7   8.0  33120  272.22 0864.95
2015 04 09 06 34 16 .14      32    -10      6     34     35 108.2  11.1  33118  272.17 0864.95
2015 04 09 06 34 16 .40      35    -11      1     37     38 108.4   2.9  33116  272.15 0864.95
2015 04 09 06 34 16 .64      31    -14      3     35     36 115.3   4.9  33120  272.20 0864.95
2015 04 09 06 34 16 .90      35    -11      1     37     38 108.4   2.9  33116  272.15 0864.95
2015 04 09 06 34 17 .14      33    -21      6     40     41 122.4   9.0  33112  272.07 0864.95
2015 04 09 06 34 17 .40      33    -21      6     40     41 122.4   9.0  33112  272.07 0864.95
2015 04 09 06 34 17 .65      32    -16      1     37     38 117.1   2.9  33110  272.06 0864.95
2015 04 09 06 34 17 .90      32    -16      1     37     38 117.1   2.9  33110  272.06 0864.96
2015 04 09 06 34 18 .15      32    -16      1     37     38 117.1   2.9  33110  272.06 0864.96
2015 04 09 06 34 18 .40      32    -16      1     37     38 117.1   2.9  33114  272.10 0864.96
2015 04 09 06 34 18 .66      32    -16      1     37     38 117.1   2.9  33110  272.06 0864.96
2015 04 09 06 34 18 .91      32    -16      1     37     38 117.1   2.9  33110  272.06 0864.96
2015 04 09 06 34 19 .16      28    -19      1     35     36 124.2   2.8  33114  272.12 0864.96
2015 04 09 06 34 19 .41      28    -19      1     35     36 124.2   2.8  33114  272.12 0864.96
2015 04 09 06 34 19 .66      32    -16      1     37     38 117.1   2.9  33114  272.10 0864.95
2015 04 09 06 34 19 .91      33    -21      6     40     41 122.4   9.0  33112  272.07 0864.95
2015 04 09 06 34 20 .16      33    -21      6     40     41 122.4   9.0  33112  272.07 0864.95
2015 04 09 06 34 20 .41      36    -17      8     40     41 115.3  12.2  33114  272.10 0864.95
2015 04 09 06 34 20 .67      36    -17      8     40     41 115.3  12.2  33114  272.10 0864.95
2015 04 09 06 34 20 .92      28    -19      1     35     36 124.2   2.8  33114  272.12 0864.95
2015 04 09 06 34 21 .16      33    -21      6     40     41 122.4   9.0  33112  272.07 0864.95
2015 04 09 06 34 21 .42      27    -11      0     30     31 111.7   0.8  33112  272.07 0864.95
2015 04 09 06 34 21 .67      27    -11      0     30     31 111.7   0.8  33112  272.07 0864.95
2015 04 09 06 34 21 .92      32    -16      1     37     38 117.1   2.9  33110  272.06 0864.95
2015 04 09 06 34 22 .17      32    -16      1     37     38 117.1   2.9  33110  272.06 0864.95
2015 04 09 06 34 22 .42      32    -16      1     37     38 117.1   2.9  33110  272.06 0864.95
2015 04 09 06 34 22 .67      26    -16      6     31     32 122.4  11.1  33108  272.02 0864.95
2015 04 09 06 34 22 .92      27    -11      9     30     32 111.7  17.3  33106  271.99 0864.95
2015 04 09 06 34 23 .17      26    -16      6     31     32 122.4  11.1  33108  272.02 0864.95
2015 04 09 06 34 23 .42      26    -16      6     31     32 122.4  11.1  33108  272.02 0864.95
2015 04 09 06 34 23 .67      23     -7      8     25     27 108.6  17.3  33106  271.97 0864.95
2015 04 09 06 34 23 .92      24    -12      4     28     29 117.1   9.0  33104  271.96 0864.95
2015 04 09 06 34 24 .17      32    -16      1     37     38 117.1   2.9  33110  272.06 0864.95
2015 04 09 06 34 24 .43      32    -16      1     37     38 117.1   2.9  33114  272.10 0864.95
2015 04 09 06 34 24 .67      32    -10      6     34     35 108.2  11.1  33116  272.14 0864.95
2015 04 09 06 34 24 .92      32    -16      1     37     38 117.1   2.9  33110  272.06 0864.95
2015 04 09 06 34 25 .18      32    -10      6     34     35 108.2  11.1  33112  272.07 0864.95
2015 04 09 06 34 25 .42      29     -8      2     31     32 105.1   4.9  33114  272.10 0864.95
2015 04 09 06 34 25 .69      29     -8      2     31     32 105.1   4.9  33114  272.10 0864.95
2015 04 09 06 34 25 .94      27    -11      0     30     31 111.7   0.8  33112  272.07 0864.95
2015 04 09 06 34 26 .19      27    -11      0     30     31 111.7   0.8  33112  272.07 0864.95
2015 04 09 06 34 26 .44      32    -16      1     37     38 117.1   2.9  33110  272.06 0864.95
2015 04 09 06 34 26 .69      27    -11      0     30     31 111.7   0.8  33112  272.07 0864.95
2015 04 09 06 34 26 .94      32    -16      1     37     38 117.1   2.9  33110  272.06 0864.95
2015 04 09 06 34 27 .19      32    -16      1     37     38 117.1   2.9  33110  272.06 0864.95
2015 04 09 06 34 27 .44      32    -16      1     37     38 117.1   2.9  33110  272.06 0864.95
2015 04 09 06 34 27 .69      26    -16      6     31     32 122.4  11.1  33108  272.02 0864.96
2015 04 09 06 34 27 .94      29     -8      3     31     32 105.1   6.9  33104  271.94 0864.96
2015 04 09 06 34 28 .19      29     -8      3     31     32 105.1   6.9  33104  271.94 0864.96
2015 04 09 06 34 28 .44      32    -10      6     34     35 108.2  11.1  33106  271.97 0864.96
2015 04 09 06 34 28 .69      28    -12      1     31     32 113.5   2.9  33102  271.92 0864.96
2015 04 09 06 34 28 .94      31    -14      3     35     36 115.3   4.9  33102  271.91 0864.96
2015 04 09 06 34 29 .19      28    -12      1     31     32 113.5   2.9  33102  271.92 0864.96
2015 04 09 06 34 29 .44      28    -12      1     31     32 113.5   2.9  33102  271.92 0864.96
2015 04 09 06 34 29 .69      28    -12      1     31     32 113.5   2.9  33102  271.92 0864.96
2015 04 09 06 34 29 .94      28    -12      1     31     32 113.5   2.9  33102  271.92 0864.96
2015 04 09 06 34 30 .19      28    -12      1     31     32 113.5   2.9  33102  271.92 0864.96
2015 04 09 06 34 30 .45      28    -12      8     31     33 113.5  15.3  33098  271.86 0864.96
2015 04 09 06 34 30 .70      25     -8      6     27     28 108.6  13.2  33096  271.83 0864.96
2015 04 09 06 34 30 .95      24    -12      2     28     29 117.1   4.9  33096  271.81 0864.96
2015 04 09 06 34 31 .20      28    -12      1     31     32 113.5   2.9  33102  271.92 0864.96
2015 04 09 06 34 31 .45      32    -16     -2     37     38 117.1  -3.1  33106  271.97 0864.96
2015 04 09 06 34 31 .70      27    -17     -1     32     33 122.4  -2.2  33104  271.96 0864.96
2015 04 09 06 34 31 .95      31    -14      3     35     36 115.3   4.9  33102  271.91 0864.96
2015 04 09 06 34 32 .20      28    -16      6     33     34 120.7  11.1  33100  271.87 0864.96
2015 04 09 06 34 32 .45      31    -14      3     35     36 115.3   4.9  33102  271.91 0864.96
2015 04 09 06 34 32 .71      31    -14      3     35     36 115.3   4.9  33102  271.91 0864.96
2015 04 09 06 34 32 .96      31    -14      3     35     36 115.3   4.9  33102  271.91 0864.96
2015 04 09 06 34 33 .21      31    -14      3     35     36 115.3   4.9  33102  271.91 0864.96
2015 04 09 06 34 33 .47      27    -11      9     30     32 111.7  17.3  33106  271.99 0864.96
2015 04 09 06 34 33 .71      26    -16      6     31     32 122.4  11.1  33108  272.02 0864.96
2015 04 09 06 34 33 .97      32    -16      1     37     38 117.1   2.9  33110  272.06 0864.96
2015 04 09 06 34 34 .21      32    -16      1     37     38 117.1   2.9  33110  272.06 0864.96
2015 04 09 06 34 34 .47      32    -16      1     37     38 117.1   2.9  33110  272.06 0864.96
2015 04 09 06 34 34 .72      32    -16      1     37     38 117.1   2.9  33110  272.06 0864.96
2015 04 09 06 34 34 .97      28    -12      1     31     32 113.5   2.9  33102  271.92 0864.96
2015 04 09 06 34 35 .22      31    -14      3     35     36 115.3   4.9  33102  271.91 0864.96
2015 04 09 06 34 35 .47      31    -14      3     35     36 115.3   4.9  33102  271.91 0864.96
2015 04 09 06 34 35 .72      31    -14      3     35     36 115.3   4.9  33102  271.91 0864.96
2015 04 09 06 34 35 .97      28    -16      6     33     34 120.7  11.1  33100  271.87 0864.96
2015 04 09 06 34 36 .22      28    -12      8     31     33 113.5  15.3  33098  271.86 0864.96
2015 04 09 06 34 36 .47      25     -8      6     27     28 108.6  13.2  33096  271.83 0864.96
2015 04 09 06 34 36 .72      25     -8      6     27     28 108.6  13.2  33096  271.83 0864.96
2015 04 09 06 34 36 .97      28    -12      8     31     33 113.5  15.3  33096  271.81 0864.96
2015 04 09 06 34 37 .22      28    -12      8     31     33 113.5  15.3  33096  271.81 0864.96
2015 04 09 06 34 37 .47      27    -11      0     30     31 111.7   0.8  33094  271.78 0864.96
2015 04 09 06 34 37 .72      26    -16      6     31     32 122.4  11.1  33090  271.73 0864.96
2015 04 09 06 34 37 .97      32    -16      1     37     38 117.1   2.9  33092  271.76 0864.96
2015 04 09 06 34 38 .22      32    -16      1     37     38 117.1   2.9  33092  271.76 0864.96
2015 04 09 06 34 38 .47      27    -11      0     30     31 111.7   0.8  33094  271.78 0864.96
2015 04 09 06 34 38 .72      27    -11      0     30     31 111.7   0.8  33094  271.78 0864.96
2015 04 09 06 34 38 .98      27    -11      0     30     31 111.7   0.8  33094  271.78 0864.96
2015 04 09 06 34 39 .23      24    -12      2     28     29 117.1   4.9  33096  271.81 0864.96
2015 04 09 06 34 39 .49      24    -12      3     27     28 117.1   6.9  33092  271.76 0864.96
2015 04 09 06 34 39 .74      24    -14      4     28     29 120.7   9.0  33090  271.71 0864.96
2015 04 09 06 34 39 .99      24     -8     -1     26     27 108.6  -2.2  33092  271.76 0864.96
2015 04 09 06 34 40 .24      27    -11      0     30     31 111.7   0.8  33094  271.78 0864.96
2015 04 09 06 34 40 .49      25    -11      1     28     29 115.3   2.9  33094  271.78 0864.95
2015 04 09 06 34 40 .74      19    -12      6     23     24 122.4  15.3  33094  271.78 0864.95
2015 04 09 06 34 40 .99      26    -16      6     31     32 122.4  11.1  33090  271.73 0864.95
2015 04 09 06 34 41 .24      27    -11      0     30     31 111.7   0.8  33094  271.78 0864.95
2015 04 09 06 34 41 .49      23    -15      1     28     29 122.5   2.8  33096  271.83 0864.95
2015 04 09 06 34 41 .74      24    -12      2     28     29 117.1   4.9  33096  271.81 0864.95
2015 04 09 06 34 41 .99      24    -12      2     28     29 117.1   4.9  33096  271.81 0864.95
2015 04 09 06 34 42 .24      23    -15      1     28     29 122.5   2.8  33096  271.83 0864.95
2015 04 09 06 34 42 .49      23    -15      1     28     29 122.5   2.8  33096  271.83 0864.95
2015 04 09 06 34 42 .74      24    -12      2     28     29 117.1   4.9  33096  271.81 0864.95
2015 04 09 06 34 43 .00      23    -15      1     28     29 122.5   2.8  33096  271.83 0864.95
2015 04 09 06 34 43 .25      26    -16     -1     31     32 122.4  -2.2  33096  271.81 0864.95
2015 04 09 06 34 43 .50      19    -12      6     23     24 122.4  15.3  33094  271.78 0864.95
2015 04 09 06 34 43 .75      19    -12      6     23     24 122.4  15.3  33094  271.78 0864.95
2015 04 09 06 34 44 .00      19    -12      6     23     24 122.4  15.3  33094  271.78 0864.95
2015 04 09 06 34 44 .25      19    -12      6     23     24 122.4  15.3  33094  271.78 0864.96
2015 04 09 06 34 44 .50      20     -7      0     22     23 110.0   0.8  33090  271.73 0864.96
2015 04 09 06 34 44 .75      21    -16      1     27     28 127.8   2.9  33088  271.68 0864.96
2015 04 09 06 34 45 .00      24    -12      4     28     29 117.1   9.0  33086  271.66 0864.96
2015 04 09 06 34 45 .25      21    -16      1     27     28 127.8   2.9  33088  271.68 0864.96
2015 04 09 06 34 45 .50      16    -13      6     22     23 129.5  15.3  33086  271.65 0864.96
2015 04 09 06 34 45 .75      16    -16      4     23     24 134.9  11.1  33086  271.66 0864.96
2015 04 09 06 34 46 .00      16    -16      4     23     24 134.9  11.1  33086  271.66 0864.96
2015 04 09 06 34 46 .25      21    -16      1     27     28 127.8   2.9  33088  271.68 0864.96
2015 04 09 06 34 46 .51      21    -16      1     27     28 127.8   2.9  33088  271.68 0864.96
2015 04 09 06 34 46 .76      21    -16      1     27     28 127.8   2.9  33088  271.68 0864.96
2015 04 09 06 34 47 .01      24    -12      4     28     29 117.1   9.0  33086  271.66 0864.96
2015 04 09 06 34 47 .27      21    -16      1     27     28 127.8   2.9  33088  271.68 0864.96
2015 04 09 06 34 47 .52      26    -16     -1     31     32 122.4  -2.2  33096  271.81 0864.96
2015 04 09 06 34 47 .77      24    -12      3     27     28 117.1   6.9  33092  271.76 0864.96
2015 04 09 06 34 48 .02      21    -16      1     27     28 127.8   2.9  33088  271.68 0864.96
2015 04 09 06 34 48 .27      21    -16      1     27     28 127.8   2.9  33088  271.68 0864.96
2015 04 09 06 34 48 .52      24    -12      4     28     29 117.1   9.0  33086  271.66 0864.96
2015 04 09 06 34 48 .77      24    -12      4     28     29 117.1   9.0  33086  271.66 0864.96
2015 04 09 06 34 49 .02      21    -16      1     27     28 127.8   2.9  33088  271.68 0864.96
2015 04 09 06 34 49 .27      24    -14      4     28     29 120.7   9.0  33090  271.71 0864.96
2015 04 09 06 34 49 .52      21    -15      1     26     27 126.0   2.8  33094  271.78 0864.96
2015 04 09 06 34 49 .77      16    -16      2     23     24 135.0   4.9  33092  271.76 0864.96
2015 04 09 06 34 50 .02      16    -21      4     27     28 142.2   9.0  33092  271.74 0864.96
2015 04 09 06 34 50 .27      19    -12      0     23     24 122.4  -2.2  33090  271.71 0864.96
2015 04 09 06 34 50 .52      21    -16      1     27     28 127.8   2.9  33088  271.68 0864.96
2015 04 09 06 34 50 .77      21    -16      1     27     28 127.8   2.9  33088  271.68 0864.96
2015 04 09 06 34 51 .02      16    -16      4     23     24 134.9  11.1  33086  271.66 0864.96
2015 04 09 06 34 51 .27      21    -16      1     27     28 127.8   2.9  33088  271.68 0864.96
2015 04 09 06 34 51 .52      21    -12      6     25     26 120.7  15.3  33084  271.63 0864.96
2015 04 09 06 34 51 .78      21    -16      1     27     28 127.8   2.9  33088  271.68 0864.96
2015 04 09 06 34 52 .03      18    -18      0     26     27 135.0   0.8  33090  271.71 0864.96
2015 04 09 06 34 52 .28      24    -18     -1     31     32 127.8  -3.1  33094  271.78 0864.96
2015 04 09 06 34 52 .53      21    -15      1     26     27 126.0   2.8  33090  271.73 0864.96
2015 04 09 06 34 52 .78      23    -19      4     30     31 129.5   9.0  33090  271.71 0864.96
2015 04 09 06 34 53 .03      16    -15      3     22     23 133.1   9.0  33094  271.79 0864.96
2015 04 09 06 34 53 .28      23    -15      1     28     29 122.5   2.8  33096  271.83 0864.96
2015 04 09 06 34 53 .54      23    -15      1     28     29 122.5   2.8  33096  271.83 0864.96
2015 04 09 06 34 53 .79      23    -15      1     28     29 122.5   2.8  33096  271.83 0864.96
2015 04 09 06 34 54 .04      23    -15      1     28     29 122.5   2.8  33096  271.83 0864.96
2015 04 09 06 34 54 .29      18    -18     -1     26     27 134.9  -2.2  33096  271.81 0864.96
2015 04 09 06 34 54 .54      23    -15      1     28     29 122.5   2.8  33096  271.83 0864.96
2015 04 09 06 34 54 .79      18    -18     -1     26     27 134.9  -2.2  33096  271.81 0864.96
2015 04 09 06 34 55 .04      26    -23     -1     35     36 131.3  -2.2  33092  271.76 0864.96
2015 04 09 06 34 55 .29      21    -21      1     31     32 135.0   2.9  33090  271.73 0864.96
2015 04 09 06 34 55 .54      23    -19      4     30     31 129.5   9.0  33090  271.71 0864.96
2015 04 09 06 34 55 .79      23    -19      4     30     31 129.5   9.0  33090  271.71 0864.96
2015 04 09 06 34 56 .05      21    -21      2     31     32 134.9   4.9  33090  271.71 0864.96
2015 04 09 06 34 56 .29      26    -23     -1     35     36 131.3  -2.2  33092  271.76 0864.96
2015 04 09 06 34 56 .55      26    -23     -1     35     36 131.3  -2.2  33092  271.76 0864.96
2015 04 09 06 34 56 .80      26    -23     -1     35     36 131.3  -2.2  33092  271.76 0864.96
2015 04 09 06 34 57 .05      30    -23      3     39     40 127.8   4.9  33096  271.81 0864.96
2015 04 09 06 34 57 .30      30    -23      3     39     40 127.8   4.9  33096  271.81 0864.96
2015 04 09 06 34 57 .55      26    -28      0     39     40 136.6   0.8  33096  271.83 0864.96
2015 04 09 06 34 57 .80      31    -15     -1     35     36 117.1  -3.1  33096  271.83 0864.96
2015 04 09 06 34 58 .05      23    -19      2     31     32 129.5   4.9  33098  271.86 0864.96
2015 04 09 06 34 58 .30      28    -19      1     35     36 124.2   2.8  33100  271.87 0864.96
2015 04 09 06 34 58 .55      33    -21     -1     40     41 122.4  -2.2  33098  271.86 0864.96
2015 04 09 06 34 58 .80      26    -28      1     39     40 136.6   1.8  33094  271.78 0864.96
2015 04 09 06 34 59 .05      26    -28      1     39     40 136.6   1.8  33094  271.78 0864.96
2015 04 09 06 34 59 .30      28    -19      1     35     36 124.2   2.8  33096  271.83 0864.96
2015 04 09 06 34 59 .55      28    -19      1     35     36 124.2   2.8  33096  271.83 0864.96
2015 04 09 06 34 59 .80      26    -16     -1     31     32 122.4  -2.2  33096  271.81 0864.96
2015 04 09 06 35 00 .05      26    -28      1     39     40 136.6   1.8  33094  271.78 0864.96
2015 04 09 06 35 00 .32      28    -19      1     35     36 124.2   2.8  33094  271.78 0864.96
2015 04 09 06 35 00 .57      26    -23     -1     35     36 131.3  -2.2  33092  271.76 0864.96
2015 04 09 06 35 00 .82      28    -19      1     35     36 124.2   2.8  33094  271.78 0864.96
2015 04 09 06 35 01 .07      33    -21     -1     40     41 122.4  -2.2  33098  271.86 0864.96
2015 04 09 06 35 01 .32      28    -19      1     35     36 124.2   2.8  33100  271.87 0864.96
2015 04 09 06 35 01 .57      36    -24      2     44     45 124.2   2.8  33096  271.83 0864.96
2015 04 09 06 35 01 .82      36    -24      2     44     45 124.2   2.8  33096  271.83 0864.96
2015 04 09 06 35 02 .07      33    -21     -1     40     41 122.4  -2.2  33098  271.86 0864.96
2015 04 09 06 35 02 .32      29    -24     -2     38     39 129.5  -3.1  33100  271.87 0864.96
2015 04 09 06 35 02 .57      36    -24      2     44     45 124.2   2.8  33096  271.83 0864.96
2015 04 09 06 35 02 .82      36    -24      2     44     45 124.2   2.8  33096  271.83 0864.96
2015 04 09 06 35 03 .08      35    -23      0     43     44 123.3  -0.3  33106  271.97 0864.96
2015 04 09 06 35 03 .32      35    -23      0     43     44 123.3  -0.3  33106  271.97 0864.96
2015 04 09 06 35 03 .57      40    -27      2     49     50 124.2   2.9  33108  272.01 0864.96
2015 04 09 06 35 03 .82      35    -23      0     43     44 123.3  -0.3  33106  271.97 0864.96
2015 04 09 06 35 04 .07      41    -25      4     49     50 121.5   4.9  33108  272.02 0864.96
2015 04 09 06 35 04 .33      32    -16      1     37     38 117.1   2.9  33110  272.06 0864.96
2015 04 09 06 35 04 .57      33    -21      6     40     41 122.4   9.0  33112  272.07 0864.96
2015 04 09 06 35 04 .83      30    -23      3     39     40 127.8   4.9  33114  272.10 0864.96
2015 04 09 06 35 05 .08      33    -27     -1     43     44 129.5  -2.2  33114  272.10 0864.96
2015 04 09 06 35 05 .33      30    -23      3     39     40 127.8   4.9  33114  272.10 0864.96
2015 04 09 06 35 05 .58      33    -27      5     43     44 129.5   6.9  33112  272.07 0864.96
2015 04 09 06 35 05 .83      26    -28      1     39     40 136.6   1.8  33112  272.07 0864.96
2015 04 09 06 35 06 .08      26    -28      1     39     40 136.6   1.8  33112  272.07 0864.96
2015 04 09 06 35 06 .33      30    -23      3     39     40 127.8   4.9  33114  272.10 0864.96
2015 04 09 06 35 06 .58      36    -24      2     44     45 124.2   2.8  33114  272.12 0864.96
2015 04 09 06 35 06 .83      36    -24      2     44     45 124.2   2.8  33114  272.12 0864.96
2015 04 09 06 35 07 .08      30    -23      3     39     40 127.8   4.9  33116  272.14 0864.96
2015 04 09 06 35 07 .34      36    -24      2     44     45 124.2   2.8  33114  272.12 0864.96
2015 04 09 06 35 07 .59      36    -24      2     44     45 124.2   2.8  33114  272.12 0864.96
2015 04 09 06 35 07 .84      33    -27      5     43     44 129.5   6.9  33118  272.17 0864.96
2015 04 09 06 35 08 .09      33    -21     -1     40     41 122.4  -2.2  33116  272.15 0864.96
2015 04 09 06 35 08 .35      31    -22      2     39     40 126.0   3.8  33122  272.25 0864.96
2015 04 09 06 35 08 .59      31    -22      2     39     40 126.0   3.8  33122  272.25 0864.96
2015 04 09 06 35 08 .85      31    -22      2     39     40 126.0   3.8  33122  272.25 0864.96
2015 04 09 06 35 09 .09      26    -27      0     38     39 136.6   0.8  33120  272.22 0864.96
2015 04 09 06 35 09 .35      26    -27      0     38     39 136.6   0.8  33120  272.22 0864.96
2015 04 09 06 35 09 .60      35    -23      0     43     44 123.3  -0.3  33124  272.27 0864.96
2015 04 09 06 35 09 .85      26    -27      0     38     39 136.6   0.8  33120  272.22 0864.96
2015 04 09 06 35 10 .10      26    -27      0     38     39 136.6   0.8  33120  272.22 0864.96
2015 04 09 06 35 10 .35      31    -31      2     44     45 135.0   2.9  33118  272.19 0864.95
2015 04 09 06 35 10 .60      31    -31      2     44     45 135.0   2.9  33118  272.19 0864.95
2015 04 09 06 35 10 .85      31    -31      2     44     45 135.0   2.9  33118  272.19 0864.95
2015 04 09 06 35 11 .10      31    -31      2     44     45 135.0   2.9  33118  272.19 0864.95
2015 04 09 06 35 11 .35      31    -22      2     39     40 126.0   3.8  33122  272.25 0864.95
2015 04 09 06 35 11 .60      31    -22      2     39     40 126.0   3.8  33122  272.25 0864.95
2015 04 09 06 35 11 .85      38    -27      2     47     48 126.0   2.9  33126  272.30 0864.95
2015 04 09 06 35 12 .10      33    -27      5     43     44 129.5   6.9  33120  272.22 0864.95
2015 04 09 06 35 12 .35      31    -31      2     44     45 135.0   2.9  33118  272.19 0864.96
2015 04 09 06 35 12 .60      31    -31      2     44     45 135.0   2.9  33118  272.19 0864.96
2015 04 09 06 35 12 .85      31    -31      2     44     45 135.0   2.9  33118  272.19 0864.96
2015 04 09 06 35 13 .10      31    -22      2     39     40 126.0   3.8  33122  272.25 0864.96
2015 04 09 06 35 13 .35      26    -27      0     38     39 136.6   0.8  33120  272.22 0864.96
2015 04 09 06 35 13 .61      31    -22      2     39     40 126.0   3.8  33122  272.25 0864.96
2015 04 09 06 35 13 .86      31    -22      2     39     40 126.0   3.8  33122  272.25 0864.96
2015 04 09 06 35 14 .11      31    -22      2     39     40 126.0   3.8  33122  272.25 0864.96
2015 04 09 06 35 14 .37      26    -27      0     38     39 136.6   0.8  33120  272.22 0864.96
2015 04 09 06 35 14 .62      31    -31      2     44     45 135.0   2.9  33118  272.19 0864.96
2015 04 09 06 35 14 .87      33    -27      5     43     44 129.5   6.9  33120  272.22 0864.96
2015 04 09 06 35 15 .12      41    -31      3     52     53 127.8   3.8  33124  272.27 0864.96
2015 04 09 06 35 15 .37      34    -31      7     47     48 132.2   9.0  33122  272.24 0864.96
2015 04 09 06 35 15 .62      31    -31      2     44     45 135.0   2.9  33118  272.19 0864.96
2015 04 09 06 35 15 .87      31    -31      2     44     45 135.0   2.9  33118  272.19 0864.96
2015 04 09 06 35 16 .12      31    -31      2     44     45 135.0   2.9  33118  272.19 0864.96
2015 04 09 06 35 16 .37      31    -31      2     44     45 135.0   2.9  33118  272.19 0864.96
2015 04 09 06 35 16 .62      31    -31      2     44     45 135.0   2.9  33118  272.19 0864.96
2015 04 09 06 35 16 .87      31    -31      2     44     45 135.0   2.9  33118  272.19 0864.96
2015 04 09 06 35 17 .12      31    -31      2     44     45 135.0   2.9  33118  272.19 0864.96
2015 04 09 06 35 17 .37      33    -27      5     43     44 129.5   6.9  33118  272.17 0864.96
2015 04 09 06 35 17 .62      31    -31      2     44     45 135.0   2.9  33118  272.19 0864.96
2015 04 09 06 35 17 .87      31    -31      2     44     45 135.0   2.9  33118  272.19 0864.96
2015 04 09 06 35 18 .13      31    -31      2     44     45 135.0   2.9  33118  272.19 0864.96
2015 04 09 06 35 18 .38      31    -31      2     44     45 135.0   2.9  33118  272.19 0864.96
2015 04 09 06 35 18 .63      31    -31      2     44     45 135.0   2.9  33118  272.19 0864.95
2015 04 09 06 35 18 .88      26    -28      7     39     40 136.6  11.1  33116  272.14 0864.95
2015 04 09 06 35 19 .13      33    -33      4     47     48 135.0   5.9  33112  272.07 0864.95
2015 04 09 06 35 19 .38      26    -28      7     39     40 136.6  11.1  33116  272.14 0864.95
2015 04 09 06 35 19 .63      26    -28      7     39     40 136.6  11.1  33116  272.14 0864.95
2015 04 09 06 35 19 .88      33    -33      4     47     48 135.0   5.9  33112  272.07 0864.95
2015 04 09 06 35 20 .13      30    -30      3     43     44 135.0   4.9  33110  272.06 0864.95
2015 04 09 06 35 20 .39      30    -30      3     43     44 135.0   4.9  33110  272.06 0864.95
2015 04 09 06 35 20 .63      33    -27      5     43     44 129.5   6.9  33118  272.17 0864.95
2015 04 09 06 35 20 .88      31    -31      2     44     45 135.0   2.9  33118  272.19 0864.95
2015 04 09 06 35 21 .13      33    -33      4     48     49 135.0   4.9  33120  272.22 0864.95
2015 04 09 06 35 21 .39      30    -30     11     43     45 135.0  15.3  33124  272.27 0864.95
2015 04 09 06 35 21 .64      41    -31      3     52     53 127.8   3.8  33124  272.27 0864.95
2015 04 09 06 35 21 .90      25    -29      5     39     40 138.6   8.0  33126  272.32 0864.95
2015 04 09 06 35 22 .14      30    -30     11     43     45 135.0  15.3  33124  272.27 0864.95
2015 04 09 06 35 22 .40      34    -31      7     47     48 132.2   9.0  33122  272.24 0864.95
2015 04 09 06 35 22 .65      33    -33      4     48     49 135.0   4.9  33120  272.22 0864.95
2015 04 09 06 35 22 .90      33    -33      4     48     49 135.0   4.9  33120  272.22 0864.95
2015 04 09 06 35 23 .15      33    -33      4     48     49 135.0   4.9  33120  272.22 0864.95
2015 04 09 06 35 23 .40      26    -27      6     38     39 136.6  10.1  33126  272.30 0864.95
2015 04 09 06 35 23 .65      29    -29      2     42     43 134.9   2.9  33128  272.35 0864.95
2015 04 09 06 35 23 .90      29    -29      2     42     43 134.9   2.9  33128  272.35 0864.95
2015 04 09 06 35 24 .15      25    -29      5     39     40 138.6   8.0  33126  272.32 0864.95
2015 04 09 06 35 24 .40      33    -33      4     47     48 135.0   5.9  33126  272.32 0864.95
2015 04 09 06 35 24 .65      33    -33      4     47     48 135.0   5.9  33126  272.32 0864.95
2015 04 09 06 35 24 .90      29    -29      2     42     43 134.9   2.9  33128  272.35 0864.95
2015 04 09 06 35 25 .15      29    -29      2     42     43 134.9   2.9  33128  272.35 0864.95
2015 04 09 06 35 25 .40      33    -33      4     47     48 135.0   5.9  33126  272.32 0864.95
2015 04 09 06 35 25 .65      30    -30     11     43     45 135.0  15.3  33124  272.27 0864.95
2015 04 09 06 35 25 .90      34    -31      7     47     48 132.2   9.0  33122  272.24 0864.95
2015 04 09 06 35 26 .15      30    -30     11     43     45 135.0  15.3  33124  272.27 0864.95
2015 04 09 06 35 26 .40      34    -31      7     47     48 132.2   9.0  33122  272.24 0864.95
2015 04 09 06 35 26 .66      33    -33      4     48     49 135.0   4.9  33120  272.22 0864.95
2015 04 09 06 35 26 .91      34    -31      7     47     48 132.2   9.0  33122  272.24 0864.95
2015 04 09 06 35 27 .16      30    -30     11     43     45 135.0  15.3  33124  272.27 0864.95
2015 04 09 06 35 27 .41      34    -31      7     47     48 132.2   9.0  33122  272.24 0864.95
2015 04 09 06 35 27 .66      33    -33      4     48     49 135.0   4.9  33120  272.22 0864.95
2015 04 09 06 35 27 .91      34    -31      7     47     48 132.2   9.0  33122  272.24 0864.95
2015 04 09 06 35 28 .17      34    -31      7     47     48 132.2   9.0  33126  272.30 0864.95
2015 04 09 06 35 28 .42      34    -31      7     47     48 132.2   9.0  33126  272.30 0864.95
2015 04 09 06 35 28 .67      30    -30     11     43     45 135.0  15.3  33124  272.27 0864.95
2015 04 09 06 35 28 .92      33    -33      4     47     48 135.0   5.9  33126  272.32 0864.95
2015 04 09 06 35 29 .17      29    -29      2     42     43 134.9   2.9  33128  272.35 0864.95
2015 04 09 06 35 29 .42      29    -29      2     42     43 134.9   2.9  33128  272.35 0864.95
2015 04 09 06 35 29 .67      29    -29      2     42     43 134.9   2.9  33128  272.35 0864.94
2015 04 09 06 35 29 .92      29    -29      2     42     43 134.9   2.9  33128  272.35 0864.94
2015 04 09 06 35 30 .17      29    -29      2     42     43 134.9   2.9  33128  272.35 0864.94
2015 04 09 06 35 30 .42      33    -33      4     47     48 135.0   5.9  33130  272.37 0864.94
2015 04 09 06 35 30 .67      29    -29      2     42     43 134.9   2.9  33128  272.35 0864.94
2015 04 09 06 35 30 .92      29    -29      2     42     43 134.9   2.9  33128  272.35 0864.94
2015 04 09 06 35 31 .18      29    -29      2     42     43 134.9   2.9  33128  272.35 0864.94
2015 04 09 06 35 31 .42      33    -33      4     47     48 135.0   5.9  33130  272.37 0864.94
2015 04 09 06 35 31 .68      33    -33      4     47     48 135.0   5.9  33130  272.37 0864.95
2015 04 09 06 35 31 .93      29    -29      2     42     43 134.9   2.9  33128  272.35 0864.95
2015 04 09 06 35 32 .18      29    -29      2     42     43 134.9   2.9  33128  272.35 0864.95
2015 04 09 06 35 32 .43      33    -33      4     47     48 135.0   5.9  33130  272.37 0864.95
2015 04 09 06 35 32 .68      33    -33      4     47     48 135.0   5.9  33130  272.37 0864.95
2015 04 09 06 35 32 .93      33    -33      4     47     48 135.0   5.9  33130  272.37 0864.95
2015 04 09 06 35 33 .18      33    -33      4     47     48 135.0   5.9  33130  272.37 0864.95
2015 04 09 06 35 33 .43      33    -33      4     47     48 135.0   5.9  33130  272.37 0864.95
2015 04 09 06 35 33 .68      33    -33      4     47     48 135.0   5.9  33130  272.37 0864.95
2015 04 09 06 35 33 .93      33    -33      4     47     48 135.0   5.9  33130  272.37 0864.95
2015 04 09 06 35 34 .18      33    -33      4     47     48 135.0   5.9  33130  272.37 0864.95
2015 04 09 06 35 34 .44      34    -31      7     47     48 132.2   9.0  33132  272.40 0864.95
2015 04 09 06 35 34 .68      39    -31      5     51     52 128.6   5.9  33132  272.42 0864.95
2015 04 09 06 35 34 .94      39    -31      5     51     52 128.6   5.9  33132  272.42 0864.95
2015 04 09 06 35 35 .19      34    -31      7     47     48 132.2   9.0  33132  272.40 0864.95
2015 04 09 06 35 35 .45      39    -31      5     51     52 128.6   5.9  33132  272.42 0864.95
2015 04 09 06 35 35 .70      33    -33      4     48     49 135.0   4.9  33138  272.52 0864.95
2015 04 09 06 35 35 .95      33    -33      4     48     49 135.0   4.9  33138  272.52 0864.95
2015 04 09 06 35 36 .20      33    -33      4     48     49 135.0   4.9  33138  272.52 0864.96
2015 04 09 06 35 36 .45      34    -37      7     51     52 137.7   8.0  33136  272.48 0864.96
2015 04 09 06 35 36 .70      33    -33      4     48     49 135.0   4.9  33136  272.47 0864.96
2015 04 09 06 35 36 .95      33    -33      4     48     49 135.0   4.9  33136  272.47 0864.96
2015 04 09 06 35 37 .20      34    -37      7     51     52 137.7   8.0  33136  272.48 0864.96
2015 04 09 06 35 37 .45      34    -37      7     51     52 137.7   8.0  33136  272.48 0864.96
2015 04 09 06 35 37 .70      34    -35      2     50     51 135.8   2.8  33134  272.45 0864.96
2015 04 09 06 35 37 .95      30    -30      9     43     45 135.0  12.2  33132  272.42 0864.96
2015 04 09 06 35 38 .20      33    -33      4     47     48 135.0   5.9  33130  272.37 0864.96
2015 04 09 06 35 38 .45      33    -33      4     47     48 135.0   5.9  33130  272.37 0864.96
2015 04 09 06 35 38 .70      33    -33      4     47     48 135.0   5.9  33130  272.37 0864.96
2015 04 09 06 35 38 .95      33    -33      4     47     48 135.0   5.9  33130  272.37 0864.95
2015 04 09 06 35 39 .21      30    -30      9     43     45 135.0  12.2  33132  272.42 0864.95
2015 04 09 06 35 39 .45      40    -33      6     53     54 129.5   6.9  33134  272.43 0864.95
2015 04 09 06 35 39 .70      34    -31      7     47     48 132.2   9.0  33132  272.40 0864.95
2015 04 09 06 35 39 .96      29    -34      7     45     46 139.5   9.0  33134  272.45 0864.95
2015 04 09 06 35 40 .21      33    -33      4     47     48 135.0   5.9  33130  272.37 0864.95
2015 04 09 06 35 40 .46      33    -33      4     47     48 135.0   5.9  33130  272.37 0864.95
2015 04 09 06 35 40 .71      33    -33      4     47     48 135.0   5.9  33130  272.37 0864.95
2015 04 09 06 35 40 .96      33    -33      4     47     48 135.0   5.9  33130  272.37 0864.95
2015 04 09 06 35 41 .21      33    -33      4     47     48 135.0   5.9  33130  272.37 0864.95
2015 04 09 06 35 41 .46      33    -33      4     47     48 135.0   5.9  33130  272.37 0864.95
2015 04 09 06 35 41 .71      33    -33      4     47     48 135.0   5.9  33130  272.37 0864.95
2015 04 09 06 35 41 .96      27    -32      7     43     44 139.5  10.1  33124  272.29 0864.95
2015 04 09 06 35 42 .22      30    -30     11     43     45 135.0  15.3  33124  272.27 0864.95
2015 04 09 06 35 42 .47      27    -32      7     43     44 139.5  10.1  33124  272.29 0864.95
2015 04 09 06 35 42 .72      27    -32      7     43     44 139.5  10.1  33124  272.29 0864.95
2015 04 09 06 35 42 .97      26    -35      6     44     45 143.0   8.0  33122  272.25 0864.95
2015 04 09 06 35 43 .22      27    -34      6     44     45 141.3   8.0  33122  272.24 0864.95
2015 04 09 06 35 43 .47      33    -33      4     48     49 135.0   4.9  33120  272.22 0864.95
2015 04 09 06 35 43 .73      27    -34      6     44     45 141.3   8.0  33122  272.24 0864.95
2015 04 09 06 35 43 .97      27    -32      7     43     44 139.5  10.1  33124  272.29 0864.95
2015 04 09 06 35 44 .23      27    -34      6     44     45 141.3   8.0  33122  272.24 0864.95
2015 04 09 06 35 44 .48      33    -33      4     48     49 135.0   4.9  33120  272.22 0864.96
2015 04 09 06 35 44 .73      27    -34      6     44     45 141.3   8.0  33122  272.24 0864.96
2015 04 09 06 35 44 .98      27    -34      6     44     45 141.3   8.0  33122  272.24 0864.96
2015 04 09 06 35 45 .23      33    -33      4     48     49 135.0   4.9  33120  272.22 0864.96
2015 04 09 06 35 45 .48      31    -31      2     44     45 135.0   2.9  33118  272.19 0864.96
2015 04 09 06 35 45 .73      26    -31      5     41     42 139.5   6.9  33118  272.17 0864.96
2015 04 09 06 35 45 .98      29    -34      7     45     46 139.5   9.0  33116  272.15 0864.96
2015 04 09 06 35 46 .23      29    -34      7     45     46 139.5   9.0  33116  272.15 0864.96
2015 04 09 06 35 46 .48      29    -34      7     45     46 139.5   9.0  33116  272.15 0864.96
2015 04 09 06 35 46 .73      29    -34      7     45     46 139.5   9.0  33116  272.15 0864.96
2015 04 09 06 35 46 .98      26    -31      5     41     42 139.5   6.9  33118  272.17 0864.96
2015 04 09 06 35 47 .23      26    -31      5     41     42 139.5   6.9  33118  272.17 0864.96
2015 04 09 06 35 47 .48      26    -31      5     41     42 139.5   6.9  33118  272.17 0864.96
2015 04 09 06 35 47 .73      26    -31      5     41     42 139.5   6.9  33118  272.17 0864.96
2015 04 09 06 35 47 .98      31    -31      2     44     45 135.0   2.9  33118  272.19 0864.96
2015 04 09 06 35 48 .23      26    -31      5     41     42 139.5   6.9  33118  272.17 0864.96
2015 04 09 06 35 48 .48      31    -31      2     44     45 135.0   2.9  33118  272.19 0864.96
2015 04 09 06 35 48 .74      31    -31      2     44     45 135.0   2.9  33118  272.19 0864.96
2015 04 09 06 35 49 .00      27    -34      6     44     45 141.3   8.0  33122  272.24 0864.96
2015 04 09 06 35 49 .25      27    -34      6     44     45 141.3   8.0  33122  272.24 0864.96
2015 04 09 06 35 49 .50      27    -34      6     44     45 141.3   8.0  33122  272.24 0864.96
2015 04 09 06 35 49 .75      33    -33      4     48     49 135.0   4.9  33120  272.22 0864.96
2015 04 09 06 35 50 .00      33    -33      4     48     49 135.0   4.9  33120  272.22 0864.96
2015 04 09 06 35 50 .25      33    -33      4     48     49 135.0   4.9  33120  272.22 0864.96
2015 04 09 06 35 50 .50      31    -31      2     44     45 135.0   2.9  33118  272.19 0864.96
2015 04 09 06 35 50 .75      33    -33      4     48     49 135.0   4.9  33120  272.22 0864.96
2015 04 09 06 35 51 .00      27    -34      6     44     45 141.3   8.0  33122  272.24 0864.96
2015 04 09 06 35 51 .25      27    -34      6     44     45 141.3   8.0  33122  272.24 0864.96
2015 04 09 06 35 51 .50      33    -33      4     48     49 135.0   4.9  33120  272.22 0864.96
2015 04 09 06 35 51 .75      31    -31      2     44     45 135.0   2.9  33118  272.19 0864.95
2015 04 09 06 35 52 .00      29    -34      7     45     46 139.5   9.0  33116  272.15 0864.95
2015 04 09 06 35 52 .26      31    -31      2     44     45 135.0   2.9  33118  272.19 0864.95
2015 04 09 06 35 52 .50      33    -33      4     48     49 135.0   4.9  33120  272.22 0864.95
2015 04 09 06 35 52 .75      33    -33      4     48     49 135.0   4.9  33120  272.22 0864.95
2015 04 09 06 35 53 .00      31    -31      2     44     45 135.0   2.9  33118  272.19 0864.95
2015 04 09 06 35 53 .26      31    -31      2     44     45 135.0   2.9  33118  272.19 0864.95
2015 04 09 06 35 53 .51      31    -31      2     44     45 135.0   2.9  33118  272.19 0864.95
2015 04 09 06 35 53 .76      31    -31      2     44     45 135.0   2.9  33118  272.19 0864.95
2015 04 09 06 35 54 .01      26    -31      5     41     42 139.5   6.9  33118  272.17 0864.95
2015 04 09 06 35 54 .26      31    -31      2     44     45 135.0   2.9  33118  272.19 0864.95
2015 04 09 06 35 54 .51      26    -31      5     41     42 139.5   6.9  33118  272.17 0864.95
2015 04 09 06 35 54 .76      30    -30      9     43     45 135.0  12.2  33114  272.12 0864.95
2015 04 09 06 35 55 .01      29    -32      6     44     45 138.6   8.0  33114  272.10 0864.95
2015 04 09 06 35 55 .26      29    -32      6     44     45 138.6   8.0  33114  272.10 0864.95
2015 04 09 06 35 55 .51      26    -29      6     40     41 138.6   9.0  33112  272.07 0864.95
2015 04 09 06 35 55 .76      29    -32      6     44     45 138.6   8.0  33114  272.10 0864.95
2015 04 09 06 35 56 .02      29    -32      6     44     45 138.6   8.0  33114  272.10 0864.95
2015 04 09 06 35 56 .27      29    -32      6     44     45 138.6   8.0  33114  272.10 0864.95
2015 04 09 06 35 56 .52      29    -32      6     44     45 138.6   8.0  33114  272.10 0864.95
2015 04 09 06 35 56 .77      26    -38      4     47     48 145.7   4.9  33114  272.12 0864.95
2015 04 09 06 35 57 .02      26    -31      5     41     42 139.5   6.9  33118  272.17 0864.95
2015 04 09 06 35 57 .27      26    -31      5     41     42 139.5   6.9  33118  272.17 0864.95
2015 04 09 06 35 57 .53      26    -31      5     41     42 139.5   6.9  33118  272.17 0864.95
2015 04 09 06 35 57 .78      26    -31      5     41     42 139.5   6.9  33118  272.17 0864.95
2015 04 09 06 35 58 .03      26    -31      5     41     42 139.5   6.9  33118  272.17 0864.96
2015 04 09 06 35 58 .28      26    -31      5     41     42 139.5   6.9  33118  272.17 0864.96
2015 04 09 06 35 58 .53      26    -31      5     41     42 139.5   6.9  33118  272.17 0864.96
2015 04 09 06 35 58 .78      24    -33      2     42     43 143.9   2.9  33116  272.15 0864.96
2015 04 09 06 35 59 .03      31    -31      2     44     45 135.0   2.9  33118  272.19 0864.96
2015 04 09 06 35 59 .28      31    -31      2     44     45 135.0   2.9  33118  272.19 0864.96
2015 04 09 06 35 59 .53      33    -33      4     48     49 135.0   4.9  33120  272.22 0864.96
2015 04 09 06 35 59 .78      33    -33      4     48     49 135.0   4.9  33120  272.22 0864.96
2015 04 09 06 36 00 .03      33    -33      4     48     49 135.0   4.9  33120  272.22 0864.96
2015 04 09 06 36 00 .28      31    -31      2     44     45 135.0   2.9  33118  272.19 0864.96
2015 04 09 06 36 00 .53      31    -31      2     44     45 135.0   2.9  33118  272.19 0864.96
2015 04 09 06 36 00 .78      29    -34      7     45     46 139.5   9.0  33116  272.15 0864.96
2015 04 09 06 36 01 .03      29    -34      7     45     46 139.5   9.0  33116  272.15 0864.96
2015 04 09 06 36 01 .29      26    -38      4     47     48 145.7   4.9  33114  272.12 0864.96
2015 04 09 06 36 01 .54      26    -31      5     41     42 139.5   6.9  33118  272.17 0864.96
2015 04 09 06 36 01 .79      33    -33      4     48     49 135.0   4.9  33120  272.22 0864.96
2015 04 09 06 36 02 .04      33    -33      4     48     49 135.0   4.9  33120  272.22 0864.96
2015 04 09 06 36 02 .29      33    -33      4     48     49 135.0   4.9  33120  272.22 0864.96
2015 04 09 06 36 02 .54      33    -33      4     48     49 135.0   4.9  33120  272.22 0864.96
2015 04 09 06 36 02 .79      31    -37      2     49     50 140.4   2.9  33122  272.24 0864.96
2015 04 09 06 36 03 .05      33    -33      4     48     49 135.0   4.9  33120  272.22 0864.96
2015 04 09 06 36 03 .30      33    -33      4     48     49 135.0   4.9  33120  272.22 0864.96
2015 04 09 06 36 03 .55      33    -33      4     48     49 135.0   4.9  33120  272.22 0864.96
2015 04 09 06 36 03 .80      33    -33      4     48     49 135.0   4.9  33120  272.22 0864.96
2015 04 09 06 36 04 .05      33    -33      4     48     49 135.0   4.9  33120  272.22 0864.96
2015 04 09 06 36 04 .30      24    -37      5     45     46 146.6   6.9  33124  272.27 0864.96
2015 04 09 06 36 04 .55      33    -33      4     47     48 135.0   5.9  33126  272.32 0864.96
2015 04 09 06 36 04 .80      31    -37      2     49     50 140.4   2.9  33124  272.29 0864.96
2015 04 09 06 36 05 .05      33    -33      4     47     48 135.0   5.9  33126  272.32 0864.96
2015 04 09 06 36 05 .30      29    -29      2     42     43 134.9   2.9  33128  272.35 0864.96
2015 04 09 06 36 05 .55      33    -33      4     47     48 135.0   5.9  33130  272.37 0864.96
2015 04 09 06 36 05 .80      33    -33      4     47     48 135.0   5.9  33130  272.37 0864.96
2015 04 09 06 36 06 .05      29    -29      2     42     43 134.9   2.9  33128  272.35 0864.96
2015 04 09 06 36 06 .31      27    -34      6     44     45 141.3   8.0  33122  272.24 0864.96
2015 04 09 06 36 06 .56      29    -29      2     42     43 134.9   2.9  33128  272.35 0864.96
2015 04 09 06 36 06 .81      34    -31      7     47     48 132.2   9.0  33126  272.30 0864.96
2015 04 09 06 36 07 .06      33    -27      4     43     44 129.5   5.9  33126  272.32 0864.96
2015 04 09 06 36 07 .31      27    -32      7     43     44 139.5  10.1  33124  272.29 0864.96
2015 04 09 06 36 07 .56      27    -34      6     44     45 141.3   8.0  33122  272.24 0864.96
2015 04 09 06 36 07 .81      27    -34      6     44     45 141.3   8.0  33122  272.24 0864.96
2015 04 09 06 36 08 .06      30    -30     11     43     45 135.0  15.3  33124  272.27 0864.97
2015 04 09 06 36 08 .31      30    -30     11     43     45 135.0  15.3  33124  272.27 0864.97
2015 04 09 06 36 08 .56      30    -30     11     43     45 135.0  15.3  33124  272.27 0864.97
2015 04 09 06 36 08 .81      30    -30     11     43     45 135.0  15.3  33124  272.27 0864.97
2015 04 09 06 36 09 .06      33    -33      4     48     49 135.0   4.9  33120  272.22 0864.97
2015 04 09 06 36 09 .31      33    -33      4     48     49 135.0   4.9  33120  272.22 0864.97
2015 04 09 06 36 09 .56      33    -33      4     48     49 135.0   4.9  33120  272.22 0864.97
2015 04 09 06 36 09 .81      33    -33      4     48     49 135.0   4.9  33120  272.22 0864.96
2015 04 09 06 36 10 .07      27    -34      6     44     45 141.3   8.0  33122  272.24 0864.96
2015 04 09 06 36 10 .32      33    -33      4     48     49 135.0   4.9  33120  272.22 0864.96
2015 04 09 06 36 10 .59      31    -31      2     44     45 135.0   2.9  33118  272.19 0864.96
2015 04 09 06 36 10 .83      34    -31      7     47     48 132.2   9.0  33122  272.24 0864.96
2015 04 09 06 36 11 .08      30    -30     11     43     45 135.0  15.3  33124  272.27 0864.96
2015 04 09 06 36 11 .33      34    -31      7     47     48 132.2   9.0  33122  272.24 0864.96
2015 04 09 06 36 11 .58      34    -31      7     47     48 132.2   9.0  33122  272.24 0864.97
2015 04 09 06 36 11 .83      34    -31      7     47     48 132.2   9.0  33122  272.24 0864.97
2015 04 09 06 36 12 .08      33    -33      4     48     49 135.0   4.9  33120  272.22 0864.97
2015 04 09 06 36 12 .33      33    -33      4     48     49 135.0   4.9  33120  272.22 0864.97
2015 04 09 06 36 12 .58      34    -31      7     47     48 132.2   9.0  33122  272.24 0864.96
2015 04 09 06 36 12 .83      31    -37      2     49     50 140.4   2.9  33122  272.24 0864.96
2015 04 09 06 36 13 .08      27    -32      7     43     44 139.5  10.1  33124  272.29 0864.96
2015 04 09 06 36 13 .33      41    -31      3     52     53 127.8   3.8  33124  272.27 0864.96
2015 04 09 06 36 13 .58      35    -38      9     52     53 137.7  10.1  33128  272.35 0864.96
2015 04 09 06 36 13 .83      33    -33      4     47     48 135.0   5.9  33126  272.32 0864.96
2015 04 09 06 36 14 .08      33    -33      4     47     48 135.0   5.9  33126  272.32 0864.96
2015 04 09 06 36 14 .33      34    -31      7     47     48 132.2   9.0  33126  272.30 0864.96
2015 04 09 06 36 14 .58      34    -31      7     47     48 132.2   9.0  33126  272.30 0864.96
2015 04 09 06 36 14 .84      33    -33      4     47     48 135.0   5.9  33126  272.32 0864.96
2015 04 09 06 36 15 .09      29    -29      2     42     43 134.9   2.9  33128  272.35 0864.96
2015 04 09 06 36 15 .34      29    -29      2     42     43 134.9   2.9  33128  272.35 0864.96
2015 04 09 06 36 15 .59      30    -30     11     43     45 135.0  15.3  33124  272.27 0864.96
2015 04 09 06 36 15 .84      34    -31      7     47     48 132.2   9.0  33126  272.30 0864.96
2015 04 09 06 36 16 .09      33    -33      4     47     48 135.0   5.9  33130  272.37 0864.96
2015 04 09 06 36 16 .34      29    -29      2     42     43 134.9   2.9  33128  272.35 0864.96
2015 04 09 06 36 16 .59      33    -33      4     47     48 135.0   5.9  33130  272.37 0864.96
2015 04 09 06 36 16 .85      29    -29      2     42     43 134.9   2.9  33128  272.35 0864.96
2015 04 09 06 36 17 .10      29    -29      2     42     43 134.9   2.9  33128  272.35 0864.96
2015 04 09 06 36 17 .35      29    -29      2     42     43 134.9   2.9  33128  272.35 0864.96
2015 04 09 06 36 17 .60      33    -33      4     47     48 135.0   5.9  33130  272.37 0864.96
2015 04 09 06 36 17 .85      29    -29      2     42     43 134.9   2.9  33128  272.35 0864.96
2015 04 09 06 36 18 .10      29    -29      2     42     43 134.9   2.9  33128  272.35 0864.96
2015 04 09 06 36 18 .35      29    -29      2     42     43 134.9   2.9  33128  272.35 0864.96
2015 04 09 06 36 18 .60      29    -29      2     42     43 134.9   2.9  33128  272.35 0864.96
2015 04 09 06 36 18 .85      29    -29      2     42     43 134.9   2.9  33128  272.35 0864.96
2015 04 09 06 36 19 .11      29    -29      2     42     43 134.9   2.9  33128  272.35 0864.96
2015 04 09 06 36 19 .36      29    -29      2     42     43 134.9   2.9  33128  272.35 0864.96
2015 04 09 06 36 19 .61      29    -29      2     42     43 134.9   2.9  33128  272.35 0864.96
2015 04 09 06 36 19 .86      29    -29      2     42     43 134.9   2.9  33128  272.35 0864.96
2015 04 09 06 36 20 .11      27    -32      0     43     44 139.5  -0.3  33130  272.37 0864.96
2015 04 09 06 36 20 .36      29    -29      2     42     43 134.9   2.9  33128  272.35 0864.96
2015 04 09 06 36 20 .61      27    -32      0     43     44 139.5  -0.3  33130  272.37 0864.97
2015 04 09 06 36 20 .86      27    -32      0     43     44 139.5  -0.3  33130  272.37 0864.97
2015 04 09 06 36 21 .11      27    -32      0     43     44 139.5  -0.3  33130  272.37 0864.97
2015 04 09 06 36 21 .36      31    -37      2     49     50 140.4   2.9  33132  272.40 0864.97
2015 04 09 06 36 21 .61      26    -38      4     47     48 145.7   4.9  33132  272.42 0864.97
2015 04 09 06 36 21 .86      29    -29      2     42     43 134.9   2.9  33128  272.35 0864.97
2015 04 09 06 36 22 .11      29    -29      2     42     43 134.9   2.9  33128  272.35 0864.97
2015 04 09 06 36 22 .36      29    -29      2     42     43 134.9   2.9  33128  272.35 0864.97
2015 04 09 06 36 22 .61      29    -29      2     42     43 134.9   2.9  33128  272.35 0864.97
2015 04 09 06 36 22 .86      29    -29      2     42     43 134.9   2.9  33128  272.35 0864.97
2015 04 09 06 36 23 .12      29    -29      2     42     43 134.9   2.9  33128  272.35 0864.97
2015 04 09 06 36 23 .36      29    -29      2     42     43 134.9   2.9  33128  272.35 0864.97
2015 04 09 06 36 23 .62      27    -32      0     43     44 139.5  -0.3  33126  272.32 0864.97
2015 04 09 06 36 23 .88      29    -29      2     42     43 134.9   2.9  33128  272.35 0864.97
2015 04 09 06 36 24 .13      29    -29      2     42     43 134.9   2.9  33128  272.35 0864.97
2015 04 09 06 36 24 .38      25    -29      5     39     40 138.6   8.0  33126  272.32 0864.96
2015 04 09 06 36 24 .63      25    -29      5     39     40 138.6   8.0  33126  272.32 0864.96
2015 04 09 06 36 24 .88      30    -30     11     43     45 135.0  15.3  33124  272.27 0864.96
2015 04 09 06 36 25 .13      27    -32      7     43     44 139.5  10.1  33124  272.29 0864.96
2015 04 09 06 36 25 .38      25    -29      5     39     40 138.6   8.0  33126  272.32 0864.96
2015 04 09 06 36 25 .63      25    -29      5     39     40 138.6   8.0  33126  272.32 0864.96
2015 04 09 06 36 25 .88      29    -29      2     42     43 134.9   2.9  33128  272.35 0864.96
2015 04 09 06 36 26 .13      29    -29      2     42     43 134.9   2.9  33128  272.35 0864.96
2015 04 09 06 36 26 .38      25    -29      5     39     40 138.6   8.0  33126  272.32 0864.96
2015 04 09 06 36 26 .63      25    -29      5     39     40 138.6   8.0  33126  272.32 0864.96
2015 04 09 06 36 26 .88      25    -29      5     39     40 138.6   8.0  33126  272.32 0864.96
2015 04 09 06 36 27 .13      28    -28      3     41     42 135.0   4.9  33128  272.34 0864.96
2015 04 09 06 36 27 .38      33    -33      4     47     48 135.0   5.9  33126  272.32 0864.96
2015 04 09 06 36 27 .64      27    -32      7     43     44 139.5  10.1  33124  272.29 0864.96
2015 04 09 06 36 27 .89      29    -29      2     42     43 134.9   2.9  33128  272.35 0864.96
2015 04 09 06 36 28 .14      29    -29      2     42     43 134.9   2.9  33128  272.35 0864.96
2015 04 09 06 36 28 .39      29    -29      2     42     43 134.9   2.9  33128  272.35 0864.96
2015 04 09 06 36 28 .64      29    -29      2     42     43 134.9   2.9  33128  272.35 0864.96
2015 04 09 06 36 28 .89      25    -29      5     39     40 138.6   8.0  33126  272.32 0864.96
2015 04 09 06 36 29 .14      29    -29      2     42     43 134.9   2.9  33128  272.35 0864.96
2015 04 09 06 36 29 .39      25    -29      5     39     40 138.6   8.0  33126  272.32 0864.96
2015 04 09 06 36 29 .64      29    -29      2     42     43 134.9   2.9  33128  272.35 0864.96
2015 04 09 06 36 29 .89      27    -32      7     43     44 139.5  10.1  33124  272.29 0864.96
2015 04 09 06 36 30 .14      27    -32      7     43     44 139.5  10.1  33124  272.29 0864.96
2015 04 09 06 36 30 .39      27    -32      7     43     44 139.5  10.1  33124  272.29 0864.96
2015 04 09 06 36 30 .64      27    -32      7     43     44 139.5  10.1  33124  272.29 0864.97
2015 04 09 06 36 30 .90      27    -32      0     43     44 139.5  -0.3  33126  272.32 0864.97
2015 04 09 06 36 31 .15      24    -37      5     45     46 146.6   6.9  33124  272.27 0864.97
2015 04 09 06 36 31 .40      23    -33      2     41     42 144.8   3.8  33124  272.29 0864.97
2015 04 09 06 36 31 .65      33    -33      4     47     48 135.0   5.9  33126  272.32 0864.97
2015 04 09 06 36 31 .90      31    -37      2     49     50 140.4   2.9  33124  272.29 0864.97
2015 04 09 06 36 32 .16      27    -32      0     43     44 139.5  -0.3  33126  272.32 0864.97
2015 04 09 06 36 32 .41      24    -37      5     45     46 146.6   6.9  33124  272.27 0864.97
2015 04 09 06 36 32 .66      31    -37      2     49     50 140.4   2.9  33124  272.29 0864.97
2015 04 09 06 36 32 .91      25    -33      1     42     43 142.2   1.8  33126  272.30 0864.97
2015 04 09 06 36 33 .16      27    -32      0     43     44 139.5  -0.3  33126  272.32 0864.97
2015 04 09 06 36 33 .41      29    -29      2     42     43 134.9   2.9  33128  272.35 0864.97
2015 04 09 06 36 33 .66      33    -33      4     47     48 135.0   5.9  33130  272.37 0864.97
2015 04 09 06 36 33 .91      29    -29      2     42     43 134.9   2.9  33128  272.35 0864.97
2015 04 09 06 36 34 .16      33    -33      4     47     48 135.0   5.9  33126  272.32 0864.97
2015 04 09 06 36 34 .41      31    -37      2     49     50 140.4   2.9  33124  272.29 0864.96
2015 04 09 06 36 34 .66      31    -37      2     49     50 140.4   2.9  33124  272.29 0864.96
2015 04 09 06 36 34 .91      24    -37      5     45     46 146.6   6.9  33124  272.27 0864.96
2015 04 09 06 36 35 .16      24    -37      5     45     46 146.6   6.9  33124  272.27 0864.96
2015 04 09 06 36 35 .41      24    -37      5     45     46 146.6   6.9  33124  272.27 0864.96
2015 04 09 06 36 35 .66      24    -37      5     45     46 146.6   6.9  33124  272.27 0864.96
2015 04 09 06 36 35 .91      24    -37      5     45     46 146.6   6.9  33124  272.27 0864.96
2015 04 09 06 36 36 .16      24    -37      5     45     46 146.6   6.9  33124  272.27 0864.96
2015 04 09 06 36 36 .41      24    -37      5     45     46 146.6   6.9  33124  272.27 0864.96
2015 04 09 06 36 36 .67      24    -37      5     45     46 146.6   6.9  33124  272.27 0864.96
2015 04 09 06 36 36 .92      24    -37      5     45     46 146.6   6.9  33124  272.27 0864.96
2015 04 09 06 36 37 .17      24    -37      5     45     46 146.6   6.9  33124  272.27 0864.96
2015 04 09 06 36 37 .42      27    -34      6     44     45 141.3   8.0  33122  272.24 0864.96
2015 04 09 06 36 37 .68      24    -37      5     45     46 146.6   6.9  33124  272.27 0864.96
2015 04 09 06 36 37 .93      24    -37      5     45     46 146.6   6.9  33124  272.27 0864.96
2015 04 09 06 36 38 .18      24    -37      5     45     46 146.6   6.9  33124  272.27 0864.96
2015 04 09 06 36 38 .43      24    -37      5     45     46 146.6   6.9  33124  272.27 0864.96
2015 04 09 06 36 38 .68      24    -37      5     45     46 146.6   6.9  33124  272.27 0864.96
2015 04 09 06 36 38 .93      27    -34      6     44     45 141.3   8.0  33122  272.24 0864.96
2015 04 09 06 36 39 .18      27    -34      6     44     45 141.3   8.0  33122  272.24 0864.96
2015 04 09 06 36 39 .43      27    -34      6     44     45 141.3   8.0  33122  272.24 0864.96
2015 04 09 06 36 39 .68      30    -30     11     43     45 135.0  15.3  33124  272.27 0864.97
2015 04 09 06 36 39 .93      30    -30     11     43     45 135.0  15.3  33124  272.27 0864.97
2015 04 09 06 36 40 .19      27    -34      6     44     45 141.3   8.0  33122  272.24 0864.97
2015 04 09 06 36 40 .43      35    -38      0     52     53 137.7  -0.3  33124  272.27 0864.97
2015 04 09 06 36 40 .69      30    -30     11     43     45 135.0  15.3  33124  272.27 0864.97
2015 04 09 06 36 40 .94      31    -37      2     49     50 140.4   2.9  33122  272.24 0864.97
2015 04 09 06 36 41 .19      33    -33      4     48     49 135.0   4.9  33120  272.22 0864.97
2015 04 09 06 36 41 .44      33    -33      4     48     49 135.0   4.9  33120  272.22 0864.96
2015 04 09 06 36 41 .69      30    -30     11     43     45 135.0  15.3  33124  272.27 0864.96
2015 04 09 06 36 41 .94      41    -31      3     52     53 127.8   3.8  33124  272.27 0864.96
2015 04 09 06 36 42 .19      39    -32      2     51     52 129.5   2.9  33124  272.29 0864.96
2015 04 09 06 36 42 .44      34    -31      7     47     48 132.2   9.0  33122  272.24 0864.96
2015 04 09 06 36 42 .69      35    -38      0     52     53 137.7  -0.3  33124  272.27 0864.96
2015 04 09 06 36 42 .96      31    -37      2     49     50 140.4   2.9  33122  272.24 0864.96
2015 04 09 06 36 43 .19      29    -34      0     45     46 139.5   0.8  33120  272.22 0864.96
2015 04 09 06 36 43 .44      25    -30     -1     40     41 140.3  -2.2  33122  272.24 0864.96
2015 04 09 06 36 43 .69      36    -36      2     51     52 134.9   2.9  33122  272.24 0864.96
2015 04 09 06 36 43 .94      29    -29      2     42     43 135.0   2.9  33122  272.24 0864.96
2015 04 09 06 36 44 .19      33    -33      4     48     49 135.0   4.9  33120  272.22 0864.96
2015 04 09 06 36 44 .44      33    -33      4     48     49 135.0   4.9  33120  272.22 0864.96
2015 04 09 06 36 44 .70      33    -33      4     48     49 135.0   4.9  33120  272.22 0864.96
2015 04 09 06 36 44 .95      31    -31      2     44     45 135.0   2.9  33118  272.19 0864.96
2015 04 09 06 36 45 .21      31    -31      2     44     45 135.0   2.9  33118  272.19 0864.96
2015 04 09 06 36 45 .46      33    -33      4     48     49 135.0   4.9  33120  272.22 0864.96
2015 04 09 06 36 45 .71      33    -33      4     48     49 135.0   4.9  33120  272.22 0864.96
2015 04 09 06 36 45 .96      33    -33      4     48     49 135.0   4.9  33120  272.22 0864.96
2015 04 09 06 36 46 .21      33    -33      4     48     49 135.0   4.9  33120  272.22 0864.96
2015 04 09 06 36 46 .46      31    -31      2     44     45 135.0   2.9  33118  272.19 0864.96
2015 04 09 06 36 46 .71      31    -31      2     44     45 135.0   2.9  33118  272.19 0864.96
2015 04 09 06 36 46 .96      28    -31      3     42     43 137.7   4.9  33118  272.19 0864.96
2015 04 09 06 36 47 .21      26    -31      5     41     42 139.5   6.9  33118  272.17 0864.96
2015 04 09 06 36 47 .46      31    -31      2     44     45 135.0   2.9  33118  272.19 0864.96
2015 04 09 06 36 47 .71      24    -37      5     45     46 146.6   6.9  33124  272.27 0864.96
2015 04 09 06 36 47 .96      33    -33      4     48     49 135.0   4.9  33120  272.22 0864.97
2015 04 09 06 36 48 .21      31    -31      2     44     45 135.0   2.9  33118  272.19 0864.97
2015 04 09 06 36 48 .46      31    -31      2     44     45 135.0   2.9  33118  272.19 0864.97
2015 04 09 06 36 48 .71      31    -31      2     44     45 135.0   2.9  33118  272.19 0864.97
2015 04 09 06 36 48 .96      33    -33      4     48     49 135.0   4.9  33118  272.17 0864.97
2015 04 09 06 36 49 .22      29    -34      7     45     46 139.5   9.0  33116  272.15 0864.97
2015 04 09 06 36 49 .46      26    -38      4     47     48 145.7   4.9  33114  272.12 0864.97
2015 04 09 06 36 49 .72      29    -32      6     44     45 138.6   8.0  33114  272.10 0864.97
2015 04 09 06 36 49 .97      33    -33      4     47     48 135.0   5.9  33112  272.07 0864.97
2015 04 09 06 36 50 .22      33    -33      4     47     48 135.0   5.9  33112  272.07 0864.97
2015 04 09 06 36 50 .47      31    -37      2     49     50 140.4   2.9  33116  272.15 0864.97
2015 04 09 06 36 50 .72      26    -38      4     47     48 145.7   4.9  33114  272.12 0864.97
2015 04 09 06 36 50 .97      26    -38      4     47     48 145.7   4.9  33114  272.12 0864.97
2015 04 09 06 36 51 .22      26    -38      4     47     48 145.7   4.9  33114  272.12 0864.97
2015 04 09 06 36 51 .47      30    -30      9     43     45 135.0  12.2  33114  272.12 0864.96
2015 04 09 06 36 51 .73      30    -30      9     43     45 135.0  12.2  33114  272.12 0864.96
2015 04 09 06 36 51 .98      29    -32      6     44     45 138.6   8.0  33114  272.10 0864.96
2015 04 09 06 36 52 .23      34    -31      7     47     48 132.2   9.0  33114  272.10 0864.96
2015 04 09 06 36 52 .48      33    -33      4     48     49 135.0   4.9  33118  272.17 0864.96
2015 04 09 06 36 52 .73      33    -33      4     48     49 135.0   4.9  33118  272.17 0864.96
2015 04 09 06 36 52 .98      31    -37      2     49     50 140.4   2.9  33116  272.15 0864.96
2015 04 09 06 36 53 .23      29    -34      0     45     46 139.5   0.8  33118  272.17 0864.96
2015 04 09 06 36 53 .48      26    -38      4     47     48 145.7   4.9  33114  272.12 0864.97
2015 04 09 06 36 53 .74      31    -37      2     49     50 140.4   2.9  33114  272.10 0864.97
2015 04 09 06 36 53 .98      34    -37      0     51     52 137.7  -0.3  33114  272.12 0864.97
2015 04 09 06 36 54 .24      26    -38      4     47     48 145.7   4.9  33114  272.12 0864.97
2015 04 09 06 36 54 .49      26    -38      4     47     48 145.7   4.9  33114  272.12 0864.97
2015 04 09 06 36 54 .74      26    -38      4     47     48 145.7   4.9  33114  272.12 0864.97
2015 04 09 06 36 54 .99      29    -32      6     44     45 138.6   8.0  33114  272.10 0864.97
2015 04 09 06 36 55 .24      29    -32      6     44     45 138.6   8.0  33114  272.10 0864.97
2015 04 09 06 36 55 .49      29    -32      6     44     45 138.6   8.0  33114  272.10 0864.97
2015 04 09 06 36 55 .74      26    -38      4     47     48 145.7   4.9  33114  272.12 0864.97
2015 04 09 06 36 55 .99      26    -38      4     47     48 145.7   4.9  33114  272.12 0864.97
2015 04 09 06 36 56 .24      31    -37      2     49     50 140.4   2.9  33114  272.10 0864.97
2015 04 09 06 36 56 .49      26    -38      4     47     48 145.7   4.9  33114  272.12 0864.97
2015 04 09 06 36 56 .74      31    -37      2     49     50 140.4   2.9  33114  272.10 0864.97
2015 04 09 06 36 56 .99      30    -30      3     43     44 135.0   4.9  33110  272.06 0864.97
2015 04 09 06 36 57 .24      33    -33      4     47     48 135.0   5.9  33112  272.07 0864.97
2015 04 09 06 36 57 .49      33    -33      4     47     48 135.0   5.9  33112  272.07 0864.97
2015 04 09 06 36 57 .74      26    -38      4     47     48 145.7   4.9  33114  272.12 0864.97
2015 04 09 06 36 58 .00      34    -37      0     51     52 137.7  -0.3  33114  272.12 0864.97
2015 04 09 06 36 58 .24      33    -36      1     50     51 137.7   1.8  33114  272.12 0864.97
2015 04 09 06 36 58 .49      26    -38      4     47     48 145.7   4.9  33114  272.12 0864.97
2015 04 09 06 36 58 .76      33    -33      4     47     48 135.0   5.9  33112  272.07 0864.97
2015 04 09 06 36 59 .01      33    -33      4     47     48 135.0   5.9  33112  272.07 0864.97
2015 04 09 06 36 59 .26      31    -37      2     49     50 140.4   2.9  33114  272.10 0864.97
2015 04 09 06 36 59 .51      34    -37      0     51     52 137.7  -0.3  33114  272.12 0864.97
2015 04 09 06 36 59 .76      26    -38      4     47     48 145.7   4.9  33114  272.12 0864.98
2015 04 09 06 37 00 .01      31    -37      2     49     50 140.4   2.9  33116  272.15 0864.98
2015 04 09 06 37 00 .26      33    -33      4     47     48 135.0   5.9  33112  272.07 0864.98
2015 04 09 06 37 00 .51      33    -33      4     47     48 135.0   5.9  33112  272.07 0864.98
2015 04 09 06 37 00 .76      33    -33      4     47     48 135.0   5.9  33112  272.07 0864.97
2015 04 09 06 37 01 .01      26    -28      7     39     40 136.6  11.1  33116  272.14 0864.97
2015 04 09 06 37 01 .26      29    -32      6     44     45 138.6   8.0  33114  272.10 0864.97
2015 04 09 06 37 01 .51      30    -30      9     43     45 135.0  12.2  33114  272.12 0864.97
2015 04 09 06 37 01 .76      29    -32      6     44     45 138.6   8.0  33114  272.10 0864.97
2015 04 09 06 37 02 .01      26    -38      4     47     48 145.7   4.9  33114  272.12 0864.97
2015 04 09 06 37 02 .26      26    -38      4     47     48 145.7   4.9  33114  272.12 0864.97
2015 04 09 06 37 02 .52      35    -34      2     50     51 134.0   2.9  33114  272.10 0864.97
2015 04 09 06 37 02 .77      29    -34      0     45     46 139.5   0.8  33118  272.17 0864.97
2015 04 09 06 37 03 .02      33    -33      4     48     49 135.0   4.9  33120  272.22 0864.97
2015 04 09 06 37 03 .27      34    -37      7     51     52 137.7   8.0  33118  272.19 0864.97
2015 04 09 06 37 03 .52      29    -34      7     45     46 139.5   9.0  33116  272.15 0864.97
2015 04 09 06 37 03 .77      34    -37      7     51     52 137.7   8.0  33118  272.19 0864.97
2015 04 09 06 37 04 .02      33    -33      4     48     49 135.0   4.9  33118  272.17 0864.97
2015 04 09 06 37 04 .27      31    -37      2     49     50 140.4   2.9  33116  272.15 0864.97
2015 04 09 06 37 04 .52      33    -33      4     48     49 135.0   4.9  33120  272.22 0864.97
2015 04 09 06 37 04 .77      31    -31      2     44     45 135.0   2.9  33118  272.19 0864.97
2015 04 09 06 37 05 .02      29    -34      7     45     46 139.5   9.0  33116  272.15 0864.97
2015 04 09 06 37 05 .27      30    -30      9     43     45 135.0  12.2  33114  272.12 0864.97
2015 04 09 06 37 05 .53      29    -32      6     44     45 138.6   8.0  33114  272.10 0864.97
2015 04 09 06 37 05 .78      26    -38      4     47     48 145.7   4.9  33114  272.12 0864.97
2015 04 09 06 37 06 .03      29    -32      6     44     45 138.6   8.0  33114  272.10 0864.97
2015 04 09 06 37 06 .28      30    -30      3     43     44 135.0   4.9  33110  272.06 0864.97
2015 04 09 06 37 06 .54      33    -27      5     43     44 129.5   6.9  33112  272.07 0864.97
2015 04 09 06 37 06 .78      31    -37      2     49     50 140.4   2.9  33122  272.24 0864.97
2015 04 09 06 37 07 .03      31    -37      2     49     50 140.4   2.9  33122  272.24 0864.97
2015 04 09 06 37 07 .28      33    -33      4     48     49 135.0   4.9  33120  272.22 0864.97
2015 04 09 06 37 07 .54      34    -37      7     51     52 137.7   8.0  33118  272.19 0864.97
2015 04 09 06 37 07 .79      32    -39     10     51     52 140.4  11.1  33118  272.17 0864.97
2015 04 09 06 37 08 .04      30    -30      9     43     45 135.0  12.2  33114  272.12 0864.97
2015 04 09 06 37 08 .29      34    -37      7     51     52 137.7   8.0  33118  272.19 0864.97
2015 04 09 06 37 08 .54      33    -33      4     48     49 135.0   4.9  33118  272.17 0864.97
2015 04 09 06 37 08 .79      34    -37      7     51     52 137.7   8.0  33118  272.19 0864.97
2015 04 09 06 37 09 .04      33    -33      4     48     49 135.0   4.9  33120  272.22 0864.97
2015 04 09 06 37 09 .29      33    -33      4     48     49 135.0   4.9  33120  272.22 0864.97
2015 04 09 06 37 09 .54      34    -37      7     51     52 137.7   8.0  33118  272.19 0864.97
2015 04 09 06 37 09 .79      33    -33      4     48     49 135.0   4.9  33120  272.22 0864.97
2015 04 09 06 37 10 .04      33    -33      4     48     49 135.0   4.9  33118  272.17 0864.97
2015 04 09 06 37 10 .29      34    -31      7     47     48 132.2   9.0  33116  272.14 0864.97
2015 04 09 06 37 10 .54      33    -33      4     47     48 135.0   5.9  33112  272.07 0864.97
2015 04 09 06 37 10 .79      30    -30      3     43     44 135.0   4.9  33110  272.06 0864.97
2015 04 09 06 37 11 .05      25    -30      6     40     41 140.3   9.0  33108  272.02 0864.97
2015 04 09 06 37 11 .29      30    -30      3     43     44 135.0   4.9  33110  272.06 0864.97
2015 04 09 06 37 11 .55      34    -31      7     47     48 132.2   9.0  33114  272.10 0864.97
2015 04 09 06 37 11 .80      34    -31      7     47     48 132.2   9.0  33114  272.10 0864.97
2015 04 09 06 37 12 .05      30    -30      3     43     44 135.0   4.9  33110  272.06 0864.97
2015 04 09 06 37 12 .30      30    -30      3     43     44 135.0   4.9  33110  272.06 0864.97
2015 04 09 06 37 12 .56      38    -27      2     47     48 126.0   2.9  33116  272.14 0864.97
2015 04 09 06 37 12 .81      33    -33      4     48     49 135.0   4.9  33120  272.22 0864.97
2015 04 09 06 37 13 .06      36    -36      2     51     52 134.9   2.9  33122  272.24 0864.97
2015 04 09 06 37 13 .31      33    -33      4     48     49 135.0   4.9  33120  272.22 0864.97
2015 04 09 06 37 13 .56      33    -33      4     48     49 135.0   4.9  33118  272.17 0864.97
2015 04 09 06 37 13 .81      34    -35      2     50     51 135.8   2.8  33116  272.15 0864.97
2015 04 09 06 37 14 .06      39    -31      5     51     52 128.6   5.9  33114  272.12 0864.97
2015 04 09 06 37 14 .31      33    -33      4     48     49 135.0   4.9  33118  272.17 0864.97
2015 04 09 06 37 14 .56      33    -33      4     48     49 135.0   4.9  33120  272.22 0864.97
2015 04 09 06 37 14 .81      38    -27      2     47     48 126.0   2.9  33116  272.14 0864.97
2015 04 09 06 37 15 .06      39    -31      5     51     52 128.6   5.9  33114  272.12 0864.97
2015 04 09 06 37 15 .31      39    -31      5     51     52 128.6   5.9  33114  272.12 0864.97
2015 04 09 06 37 15 .56      34    -31      7     47     48 132.2   9.0  33114  272.10 0864.97
2015 04 09 06 37 15 .82      33    -27      5     43     44 129.5   6.9  33114  272.12 0864.97
2015 04 09 06 37 16 .07      38    -27      2     47     48 126.0   2.9  33116  272.14 0864.97
2015 04 09 06 37 16 .32      39    -31      5     51     52 128.6   5.9  33114  272.12 0864.97
2015 04 09 06 37 16 .57      33    -33      4     48     49 135.0   4.9  33120  272.22 0864.97
2015 04 09 06 37 16 .82      33    -33      4     48     49 135.0   4.9  33120  272.22 0864.97
2015 04 09 06 37 17 .07      33    -33      4     48     49 135.0   4.9  33120  272.22 0864.97
2015 04 09 06 37 17 .32      35    -35      2     50     51 135.0   2.9  33122  272.24 0864.97
2015 04 09 06 37 17 .57      33    -27      5     43     44 129.5   6.9  33118  272.17 0864.97
2015 04 09 06 37 17 .82      41    -31      3     52     53 127.8   3.8  33124  272.27 0864.97
2015 04 09 06 37 18 .07      41    -31      3     52     53 127.8   3.8  33124  272.27 0864.97
2015 04 09 06 37 18 .32      34    -31      7     47     48 132.2   9.0  33122  272.24 0864.97
2015 04 09 06 37 18 .57      33    -33      4     48     49 135.0   4.9  33120  272.22 0864.97
2015 04 09 06 37 18 .82      31    -31      2     44     45 135.0   2.9  33118  272.19 0864.97
2015 04 09 06 37 19 .07      33    -27      5     43     44 129.5   6.9  33118  272.17 0864.97
2015 04 09 06 37 19 .32      33    -33      4     48     49 135.0   4.9  33120  272.22 0864.97
2015 04 09 06 37 19 .58      33    -27      5     43     44 129.5   6.9  33120  272.22 0864.97
2015 04 09 06 37 19 .83      31    -31      2     44     45 135.0   2.9  33118  272.19 0864.97
2015 04 09 06 37 20 .09      31    -31      2     44     45 135.0   2.9  33118  272.19 0864.97
2015 04 09 06 37 20 .34      33    -27      5     43     44 129.5   6.9  33118  272.17 0864.97
2015 04 09 06 37 20 .59      39    -31      5     51     52 128.6   5.9  33114  272.12 0864.97
2015 04 09 06 37 20 .84      38    -27      2     47     48 126.0   2.9  33116  272.14 0864.97
2015 04 09 06 37 21 .09      36    -24      2     44     45 124.2   2.8  33114  272.12 0864.97
2015 04 09 06 37 21 .34      38    -27      2     47     48 126.0   2.9  33116  272.14 0864.97
2015 04 09 06 37 21 .59      39    -31      5     51     52 128.6   5.9  33114  272.12 0864.97
2015 04 09 06 37 21 .84      38    -27      2     47     48 126.0   2.9  33114  272.10 0864.97
2015 04 09 06 37 22 .09      36    -24      2     44     45 124.2   2.8  33114  272.12 0864.97
2015 04 09 06 37 22 .34      36    -24      2     44     45 124.2   2.8  33114  272.12 0864.97
2015 04 09 06 37 22 .59      38    -27      2     47     48 126.0   2.9  33114  272.10 0864.97
2015 04 09 06 37 22 .84      33    -27      5     43     44 129.5   6.9  33112  272.07 0864.97
2015 04 09 06 37 23 .09      30    -23      3     39     40 127.8   4.9  33114  272.10 0864.97
2015 04 09 06 37 23 .34      33    -21      6     40     41 122.4   9.0  33112  272.07 0864.97
2015 04 09 06 37 23 .59      36    -24      6     44     45 124.2   8.0  33110  272.06 0864.97
2015 04 09 06 37 23 .84      36    -24      6     44     45 124.2   8.0  33110  272.06 0864.97
2015 04 09 06 37 24 .10      33    -21      6     40     41 122.4   9.0  33112  272.07 0864.97
2015 04 09 06 37 24 .34      36    -24      6     44     45 124.2   8.0  33110  272.06 0864.97
2015 04 09 06 37 24 .60      41    -31     -2     52     53 127.8  -2.2  33110  272.06 0864.97
2015 04 09 06 37 24 .85      36    -24      6     44     45 124.2   8.0  33110  272.06 0864.97
2015 04 09 06 37 25 .10      36    -24      6     44     45 124.2   8.0  33110  272.06 0864.97
2015 04 09 06 37 25 .35      36    -24      6     44     45 124.2   8.0  33110  272.06 0864.97
2015 04 09 06 37 25 .60      36    -24      6     44     45 124.2   8.0  33110  272.06 0864.97
2015 04 09 06 37 25 .85      33    -21      6     40     41 122.4   9.0  33112  272.07 0864.97
2015 04 09 06 37 26 .10      32    -16      1     37     38 117.1   2.9  33110  272.06 0864.98
2015 04 09 06 37 26 .36      33    -21      6     40     41 122.4   9.0  33112  272.07 0864.98
2015 04 09 06 37 26 .61      30    -23      3     39     40 127.8   4.9  33114  272.10 0864.98
2015 04 09 06 37 26 .86      36    -24      2     44     45 124.2   2.8  33114  272.12 0864.98
2015 04 09 06 37 27 .11      41    -25     -1     49     50 121.5  -2.2  33112  272.09 0864.98
2015 04 09 06 37 27 .36      36    -24      2     44     45 124.2   2.8  33114  272.12 0864.98
2015 04 09 06 37 27 .61      36    -24      2     44     45 124.2   2.8  33114  272.12 0864.98
2015 04 09 06 37 27 .86      38    -27      2     47     48 126.0   2.9  33116  272.14 0864.97
2015 04 09 06 37 28 .11      38    -27      2     47     48 126.0   2.9  33116  272.14 0864.97
2015 04 09 06 37 28 .36      36    -24      2     44     45 124.2   2.8  33114  272.12 0864.97
2015 04 09 06 37 28 .62      36    -24      2     44     45 124.2   2.8  33114  272.12 0864.97
2015 04 09 06 37 28 .86      38    -27      2     47     48 126.0   2.9  33116  272.14 0864.97
2015 04 09 06 37 29 .12      38    -27      2     47     48 126.0   2.9  33116  272.14 0864.97
2015 04 09 06 37 29 .37      33    -21     -1     40     41 122.4  -2.2  33116  272.15 0864.97
2015 04 09 06 37 29 .62      33    -21     -1     40     41 122.4  -2.2  33116  272.15 0864.97
2015 04 09 06 37 29 .87      38    -27      2     47     48 126.0   2.9  33116  272.14 0864.97
2015 04 09 06 37 30 .12      47    -24      2     53     54 117.1   2.9  33120  272.20 0864.97
2015 04 09 06 37 30 .37      31    -22      2     39     40 126.0   3.8  33122  272.25 0864.97
2015 04 09 06 37 30 .62      41    -31      3     52     53 127.8   3.8  33124  272.27 0864.97
2015 04 09 06 37 30 .87      38    -27      2     47     48 126.0   2.9  33126  272.30 0864.97
2015 04 09 06 37 31 .12      38    -27      2     47     48 126.0   2.9  33126  272.30 0864.97
2015 04 09 06 37 31 .37      38    -27      2     47     48 126.0   2.9  33126  272.30 0864.97
2015 04 09 06 37 31 .62      38    -27      2     47     48 126.0   2.9  33126  272.30 0864.98
2015 04 09 06 37 31 .87      41    -23      5     48     49 119.8   6.9  33120  272.22 0864.98
2015 04 09 06 37 32 .12      35    -23      0     43     44 123.3  -0.3  33124  272.27 0864.98
2015 04 09 06 37 32 .37      44    -28      0     53     54 122.4   0.8  33120  272.22 0864.98
2015 04 09 06 37 32 .62      47    -24      2     53     54 117.1   2.9  33120  272.20 0864.98
2015 04 09 06 37 32 .88      40    -23      4     47     48 119.8   5.9  33118  272.17 0864.98
2015 04 09 06 37 33 .13      40    -23      4     47     48 119.8   5.9  33118  272.17 0864.98
2015 04 09 06 37 33 .38      40    -23      4     47     48 119.8   5.9  33118  272.17 0864.97
2015 04 09 06 37 33 .64      40    -23      4     47     48 119.8   5.9  33118  272.17 0864.97
2015 04 09 06 37 33 .89      40    -23      4     47     48 119.8   5.9  33118  272.17 0864.97
2015 04 09 06 37 34 .14      40    -23      4     47     48 119.8   5.9  33118  272.17 0864.97
2015 04 09 06 37 34 .39      38    -27      2     47     48 126.0   2.9  33116  272.14 0864.97
2015 04 09 06 37 34 .64      38    -27      2     47     48 126.0   2.9  33116  272.14 0864.97
2015 04 09 06 37 34 .89      40    -23      4     47     48 119.8   5.9  33118  272.17 0864.97
2015 04 09 06 37 35 .14      47    -24      2     53     54 117.1   2.9  33120  272.20 0864.97
2015 04 09 06 37 35 .39      47    -24      2     53     54 117.1   2.9  33120  272.20 0864.97
2015 04 09 06 37 35 .64      47    -24      2     53     54 117.1   2.9  33120  272.20 0864.97
2015 04 09 06 37 35 .89      47    -24      2     53     54 117.1   2.9  33120  272.20 0864.97
2015 04 09 06 37 36 .14      40    -23      4     47     48 119.8   5.9  33118  272.17 0864.97
2015 04 09 06 37 36 .39      47    -24      2     53     54 117.1   2.9  33120  272.20 0864.97
2015 04 09 06 37 36 .64      47    -24      2     53     54 117.1   2.9  33120  272.20 0864.97
2015 04 09 06 37 36 .89      47    -24      2     53     54 117.1   2.9  33120  272.20 0864.97
2015 04 09 06 37 37 .14      47    -24      2     53     54 117.1   2.9  33120  272.20 0864.97
2015 04 09 06 37 37 .39      47    -24      2     53     54 117.1   2.9  33120  272.20 0864.97
2015 04 09 06 37 37 .64      47    -24      2     53     54 117.1   2.9  33120  272.20 0864.97
2015 04 09 06 37 37 .90      44    -28      0     53     54 122.4   0.8  33120  272.22 0864.97
2015 04 09 06 37 38 .15      47    -24      2     53     54 117.1   2.9  33120  272.20 0864.97
2015 04 09 06 37 38 .40      39    -32     -2     51     52 129.5  -2.2  33120  272.20 0864.97
2015 04 09 06 37 38 .65      39    -32     -2     51     52 129.5  -2.2  33120  272.20 0864.97
2015 04 09 06 37 38 .90      40    -23     -1     47     48 119.8  -2.2  33122  272.25 0864.97
2015 04 09 06 37 39 .15      47    -24      2     53     54 117.1   2.9  33120  272.20 0864.97
2015 04 09 06 37 39 .40      33    -25      0     42     43 127.8  -1.3  33118  272.19 0864.97
2015 04 09 06 37 39 .65      33    -32      0     47     48 134.0   0.8  33118  272.17 0864.97
2015 04 09 06 37 39 .90      44    -28      0     53     54 122.4   0.8  33120  272.22 0864.97
2015 04 09 06 37 40 .15      40    -23     -1     47     48 119.8  -2.2  33122  272.25 0864.97
2015 04 09 06 37 40 .41      35    -23      0     43     44 123.3  -0.3  33124  272.27 0864.97
2015 04 09 06 37 40 .66      35    -23      0     43     44 123.3  -0.3  33124  272.27 0864.97
2015 04 09 06 37 40 .91      44    -28      0     53     54 122.4   0.8  33120  272.22 0864.97
2015 04 09 06 37 41 .16      40    -23     -1     47     48 119.8  -2.2  33122  272.25 0864.97
2015 04 09 06 37 41 .41      35    -23      0     43     44 123.3  -0.3  33124  272.27 0864.97
2015 04 09 06 37 41 .67      41    -31      3     52     53 127.8   3.8  33124  272.27 0864.97
2015 04 09 06 37 41 .92      40    -23     -1     47     48 119.8  -2.2  33122  272.25 0864.97
2015 04 09 06 37 42 .17      40    -23     -1     47     48 119.8  -2.2  33122  272.25 0864.97
2015 04 09 06 37 42 .42      38    -27      2     47     48 126.0   2.9  33126  272.30 0864.97
2015 04 09 06 37 42 .67      38    -27      2     47     48 126.0   2.9  33126  272.30 0864.97
2015 04 09 06 37 42 .92      35    -23      0     43     44 123.3  -0.3  33124  272.27 0864.97
2015 04 09 06 37 43 .17      35    -23      0     43     44 123.3  -0.3  33124  272.27 0864.97
2015 04 09 06 37 43 .42      35    -23      0     43     44 123.3  -0.3  33124  272.27 0864.97
2015 04 09 06 37 43 .67      40    -27      2     49     50 124.2   2.9  33122  272.25 0864.97
2015 04 09 06 37 43 .92      40    -23     -1     47     48 119.8  -2.2  33122  272.25 0864.97
2015 04 09 06 37 44 .17      35    -23      0     43     44 123.3  -0.3  33124  272.27 0864.97
2015 04 09 06 37 44 .42      43    -27      0     51     52 122.5  -0.3  33126  272.32 0864.97
2015 04 09 06 37 44 .67      40    -23      4     47     48 119.8   4.9  33126  272.32 0864.97
2015 04 09 06 37 44 .92      43    -27      0     51     52 122.5  -0.3  33126  272.32 0864.97
2015 04 09 06 37 45 .17      41    -31      3     52     53 127.8   3.8  33124  272.27 0864.97
2015 04 09 06 37 45 .42      45    -24      2     52     53 118.0   2.8  33128  272.34 0864.97
2015 04 09 06 37 45 .68      43    -27      0     51     52 122.5  -0.3  33130  272.37 0864.97
2015 04 09 06 37 45 .92      45    -24      2     52     53 118.0   2.8  33128  272.34 0864.97
2015 04 09 06 37 46 .17      45    -24      2     52     53 118.0   2.8  33128  272.34 0864.97
2015 04 09 06 37 46 .42      45    -24      2     52     53 118.0   2.8  33128  272.34 0864.97
2015 04 09 06 37 46 .68      45    -24      2     52     53 118.0   2.8  33128  272.34 0864.97
2015 04 09 06 37 46 .93      43    -27      0     51     52 122.5  -0.3  33126  272.32 0864.97
2015 04 09 06 37 47 .18      45    -24      2     52     53 118.0   2.8  33128  272.34 0864.97
2015 04 09 06 37 47 .44      45    -24      2     52     53 118.0   2.8  33128  272.34 0864.97
2015 04 09 06 37 47 .69      45    -24      2     52     53 118.0   2.8  33128  272.34 0864.97
2015 04 09 06 37 47 .94      40    -23      4     47     48 119.8   4.9  33126  272.32 0864.97
2015 04 09 06 37 48 .19      40    -23      4     47     48 119.8   4.9  33126  272.32 0864.97
2015 04 09 06 37 48 .44      40    -23      4     47     48 119.8   4.9  33126  272.32 0864.97
2015 04 09 06 37 48 .69      38    -27      2     47     48 126.0   2.9  33126  272.30 0864.97
2015 04 09 06 37 48 .94      40    -23      4     47     48 119.8   4.9  33126  272.32 0864.97
2015 04 09 06 37 49 .19      40    -23     -1     47     48 119.8  -2.2  33130  272.38 0864.97
2015 04 09 06 37 49 .44      33    -27     -1     43     44 129.5  -2.2  33128  272.34 0864.97
2015 04 09 06 37 49 .69      38    -27      2     47     48 126.0   2.9  33126  272.30 0864.97
2015 04 09 06 37 49 .94      35    -23      0     43     44 123.3  -0.3  33124  272.27 0864.97
2015 04 09 06 37 50 .19      35    -23      0     43     44 123.3  -0.3  33124  272.27 0864.97
2015 04 09 06 37 50 .44      35    -23      0     43     44 123.3  -0.3  33124  272.27 0864.97
2015 04 09 06 37 50 .69      35    -23      0     43     44 123.3  -0.3  33124  272.27 0864.97
2015 04 09 06 37 50 .95      35    -23      0     43     44 123.3  -0.3  33124  272.27 0864.97
2015 04 09 06 37 51 .20      38    -27      2     47     48 126.0   2.9  33126  272.30 0864.97
2015 04 09 06 37 51 .45      43    -27      0     51     52 122.5  -0.3  33126  272.32 0864.97
2015 04 09 06 37 51 .70      33    -21     -1     40     41 122.4  -2.2  33126  272.30 0864.97
2015 04 09 06 37 51 .95      38    -27      2     47     48 126.0   2.9  33126  272.30 0864.97
2015 04 09 06 37 52 .20      38    -27      2     47     48 126.0   2.9  33126  272.30 0864.97
2015 04 09 06 37 52 .45      33    -27     -1     43     44 129.5  -2.2  33128  272.34 0864.97
2015 04 09 06 37 52 .70      33    -23     -1     41     42 124.2  -2.2  33126  272.32 0864.97
2015 04 09 06 37 52 .95      33    -23     -1     41     42 124.2  -2.2  33126  272.32 0864.97
2015 04 09 06 37 53 .20      33    -21     -1     40     41 122.4  -2.2  33126  272.30 0864.97
2015 04 09 06 37 53 .45      33    -21     -1     40     41 122.4  -2.2  33126  272.30 0864.97
2015 04 09 06 37 53 .70      38    -27      2     47     48 126.0   2.9  33126  272.30 0864.97
2015 04 09 06 37 53 .95      35    -23      7     42     43 123.3  10.1  33128  272.35 0864.97
2015 04 09 06 37 54 .21      33    -27      4     43     44 129.5   5.9  33126  272.32 0864.97
2015 04 09 06 37 54 .46      33    -27     -1     43     44 129.5  -2.2  33126  272.30 0864.97
2015 04 09 06 37 54 .71      33    -21     -1     40     41 122.4  -2.2  33126  272.30 0864.97
2015 04 09 06 37 54 .97      33    -21      4     40     41 122.4   6.9  33126  272.32 0864.97
2015 04 09 06 37 55 .22      40    -23      4     47     48 119.8   4.9  33126  272.32 0864.97
2015 04 09 06 37 55 .47      35    -23      0     43     44 123.3  -0.3  33124  272.27 0864.97
2015 04 09 06 37 55 .72      38    -27      2     47     48 126.0   2.9  33126  272.30 0864.97
2015 04 09 06 37 55 .97      38    -27      2     47     48 126.0   2.9  33126  272.30 0864.97
2015 04 09 06 37 56 .22      33    -23     -1     41     42 124.2  -2.2  33126  272.32 0864.97
2015 04 09 06 37 56 .47      33    -23     -1     41     42 124.2  -2.2  33126  272.32 0864.97
2015 04 09 06 37 56 .72      33    -21     -1     40     41 122.4  -2.2  33126  272.30 0864.97
2015 04 09 06 37 56 .97      33    -21     -1     40     41 122.4  -2.2  33126  272.30 0864.97
2015 04 09 06 37 57 .22      34    -25     -1     43     44 126.0  -2.2  33128  272.34 0864.97
2015 04 09 06 37 57 .47      34    -30      0     46     47 131.3  -0.3  33126  272.32 0864.97
2015 04 09 06 37 57 .72      33    -27     -1     43     44 129.5  -2.2  33128  272.34 0864.97
2015 04 09 06 37 57 .97      35    -23     -3     43     44 123.3  -5.2  33128  272.34 0864.97
2015 04 09 06 37 58 .22      33    -23     -1     41     42 124.2  -2.2  33126  272.32 0864.97
2015 04 09 06 37 58 .47      33    -23     -1     41     42 124.2  -2.2  33126  272.32 0864.97
2015 04 09 06 37 58 .72      33    -27     -1     43     44 129.5  -2.2  33126  272.30 0864.97
2015 04 09 06 37 58 .97      33    -27     -1     43     44 129.5  -2.2  33126  272.30 0864.97
2015 04 09 06 37 59 .22      34    -30      0     46     47 131.3  -0.3  33126  272.32 0864.97
2015 04 09 06 37 59 .48      34    -30      0     46     47 131.3  -0.3  33126  272.32 0864.97
2015 04 09 06 37 59 .73      34    -30      0     46     47 131.3  -0.3  33126  272.32 0864.97
2015 04 09 06 37 59 .98      33    -27     -1     43     44 129.5  -2.2  33126  272.30 0864.97
2015 04 09 06 38 00 .23      34    -30      0     46     47 131.3  -0.3  33126  272.32 0864.97
2015 04 09 06 38 00 .48      34    -30      0     46     47 131.3  -0.3  33126  272.32 0864.97
2015 04 09 06 38 00 .73      34    -30      0     46     47 131.3  -0.3  33126  272.32 0864.97
2015 04 09 06 38 00 .98      38    -27      2     47     48 126.0   2.9  33126  272.30 0864.97
2015 04 09 06 38 01 .24      39    -30     -1     50     51 127.8  -2.2  33128  272.34 0864.97
2015 04 09 06 38 01 .49      35    -28      2     46     47 128.6   2.8  33126  272.30 0864.97
2015 04 09 06 38 01 .74      34    -30      0     46     47 131.3  -0.3  33126  272.32 0864.97
2015 04 09 06 38 01 .99      40    -23     -1     47     48 119.8  -2.2  33130  272.38 0864.97
2015 04 09 06 38 02 .24      40    -23     -1     47     48 119.8  -2.2  33130  272.38 0864.96
2015 04 09 06 38 02 .49      39    -30     -1     50     51 127.8  -2.2  33128  272.34 0864.96
2015 04 09 06 38 02 .74      39    -30     -1     50     51 127.8  -2.2  33128  272.34 0864.96
2015 04 09 06 38 02 .99      33    -27     -1     43     44 129.5  -2.2  33130  272.38 0864.96
2015 04 09 06 38 03 .24      33    -27      4     43     44 129.5   5.9  33130  272.37 0864.96
2015 04 09 06 38 03 .50      38    -27     -2     47     48 126.0  -3.1  33130  272.37 0864.96
2015 04 09 06 38 03 .75      33    -23     -1     41     42 124.2  -2.2  33126  272.32 0864.96
2015 04 09 06 38 04 .00      33    -23     -1     41     42 124.2  -2.2  33126  272.32 0864.96
2015 04 09 06 38 04 .25      33    -23     -1     41     42 124.2  -2.2  33126  272.32 0864.97
2015 04 09 06 38 04 .50      26    -28      0     39     40 136.6   0.8  33130  272.37 0864.97
2015 04 09 06 38 04 .75      38    -27     -2     47     48 126.0  -3.1  33130  272.37 0864.97
2015 04 09 06 38 05 .00      35    -23      0     42     43 123.3  -0.3  33132  272.42 0864.97
2015 04 09 06 38 05 .25      35    -23      0     42     43 123.3  -0.3  33132  272.42 0864.97
2015 04 09 06 38 05 .50      35    -23      0     42     43 123.3  -0.3  33132  272.42 0864.97
2015 04 09 06 38 05 .75      43    -27      0     51     52 122.5   0.8  33136  272.47 0864.97
2015 04 09 06 38 06 .00      38    -27      2     47     48 126.0   2.9  33134  272.43 0864.97
2015 04 09 06 38 06 .25      35    -23      0     42     43 123.3  -0.3  33132  272.42 0864.97
2015 04 09 06 38 06 .50      38    -27      2     47     48 126.0   2.9  33134  272.43 0864.97
2015 04 09 06 38 06 .75      35    -23      0     42     43 123.3  -0.3  33132  272.42 0864.97
2015 04 09 06 38 07 .00      35    -23      0     42     43 123.3  -0.3  33132  272.42 0864.97
2015 04 09 06 38 07 .25      35    -23      0     42     43 123.3  -0.3  33132  272.42 0864.97
2015 04 09 06 38 07 .50      35    -23      0     42     43 123.3  -0.3  33132  272.42 0864.97
2015 04 09 06 38 07 .76      35    -23      0     42     43 123.3  -0.3  33132  272.42 0864.97
2015 04 09 06 38 08 .00      35    -23      0     42     43 123.3  -0.3  33132  272.42 0864.97
2015 04 09 06 38 08 .27      35    -23      0     42     43 123.3  -0.3  33132  272.42 0864.97
2015 04 09 06 38 08 .52      35    -23      0     42     43 123.3  -0.3  33132  272.42 0864.97
2015 04 09 06 38 08 .77      35    -23      0     42     43 123.3  -0.3  33132  272.42 0864.97
2015 04 09 06 38 09 .02      35    -23      0     42     43 123.3  -0.3  33132  272.42 0864.97
2015 04 09 06 38 09 .27      35    -23      0     42     43 123.3  -0.3  33132  272.42 0864.97
2015 04 09 06 38 09 .52      35    -23      0     42     43 123.3  -0.3  33132  272.42 0864.97
2015 04 09 06 38 09 .77      31    -22      2     39     40 126.0   3.8  33130  272.38 0864.97
2015 04 09 06 38 10 .02      35    -23     -3     43     44 123.3  -5.2  33128  272.34 0864.97
2015 04 09 06 38 10 .27      33    -21     -1     40     41 122.4  -2.2  33126  272.30 0864.97
2015 04 09 06 38 10 .52      35    -23      0     43     44 123.3  -0.3  33124  272.27 0864.97
2015 04 09 06 38 10 .78      35    -23      0     42     43 123.3  -0.3  33132  272.42 0864.97
2015 04 09 06 38 11 .02      38    -27      2     47     48 126.0   2.9  33134  272.43 0864.97
2015 04 09 06 38 11 .27      35    -23      0     42     43 123.3  -0.3  33132  272.42 0864.97
2015 04 09 06 38 11 .52      35    -23      0     42     43 123.3  -0.3  33132  272.42 0864.97
2015 04 09 06 38 11 .78      32    -29      0     44     45 132.2   0.8  33130  272.37 0864.97
2015 04 09 06 38 12 .02      39    -31      5     51     52 128.6   5.9  33132  272.42 0864.97
2015 04 09 06 38 12 .27      32    -29      0     44     45 132.2   0.8  33130  272.37 0864.97
2015 04 09 06 38 12 .53      32    -29      0     44     45 132.2   0.8  33130  272.37 0864.97
2015 04 09 06 38 12 .77      38    -27      2     47     48 126.0   2.9  33134  272.43 0864.97
2015 04 09 06 38 13 .03      39    -31      5     51     52 128.6   5.9  33132  272.42 0864.97
2015 04 09 06 38 13 .28      34    -31      7     47     48 132.2   9.0  33132  272.40 0864.97
2015 04 09 06 38 13 .53      35    -23      0     42     43 123.3  -0.3  33132  272.42 0864.97
2015 04 09 06 38 13 .78      39    -31      5     51     52 128.6   5.9  33132  272.42 0864.97
2015 04 09 06 38 14 .03      39    -31      5     51     52 128.6   5.9  33132  272.42 0864.97
2015 04 09 06 38 14 .28      35    -34      2     50     51 134.0   2.9  33132  272.40 0864.97
2015 04 09 06 38 14 .53      39    -31      5     51     52 128.6   5.9  33132  272.42 0864.97
2015 04 09 06 38 14 .78      39    -31      5     51     52 128.6   5.9  33132  272.42 0864.97
2015 04 09 06 38 15 .04      39    -31      5     51     52 128.6   5.9  33132  272.42 0864.97
2015 04 09 06 38 15 .29      38    -27      2     47     48 126.0   2.9  33134  272.43 0864.97
2015 04 09 06 38 15 .54      39    -31      5     51     52 128.6   5.9  33132  272.42 0864.97
2015 04 09 06 38 15 .79      39    -31      5     51     52 128.6   5.9  33132  272.42 0864.97
2015 04 09 06 38 16 .04      39    -31      5     51     52 128.6   5.9  33132  272.42 0864.97
2015 04 09 06 38 16 .29      39    -31      5     51     52 128.6   5.9  33132  272.42 0864.97
2015 04 09 06 38 16 .54      39    -31      5     51     52 128.6   5.9  33132  272.42 0864.97
2015 04 09 06 38 16 .80      39    -31      5     51     52 128.6   5.9  33132  272.42 0864.97
2015 04 09 06 38 17 .04      39    -31      5     51     52 128.6   5.9  33132  272.42 0864.97
2015 04 09 06 38 17 .29      39    -31      5     51     52 128.6   5.9  33132  272.42 0864.97
2015 04 09 06 38 17 .55      36    -27      2     46     47 126.9   2.9  33130  272.38 0864.97
2015 04 09 06 38 17 .80      33    -27      4     43     44 129.5   5.9  33130  272.37 0864.98
2015 04 09 06 38 18 .05      29    -29      2     42     43 134.9   2.9  33128  272.35 0864.98
2015 04 09 06 38 18 .30      39    -31      5     51     52 128.6   5.9  33132  272.42 0864.98
2015 04 09 06 38 18 .55      39    -31      5     51     52 128.6   5.9  33132  272.42 0864.98
2015 04 09 06 38 18 .80      39    -31      5     51     52 128.6   5.9  33132  272.42 0864.98
2015 04 09 06 38 19 .05      39    -31      5     51     52 128.6   5.9  33132  272.42 0864.98
2015 04 09 06 38 19 .30      39    -31      5     51     52 128.6   5.9  33132  272.42 0864.98
2015 04 09 06 38 19 .55      39    -31      5     51     52 128.6   5.9  33132  272.42 0864.97
2015 04 09 06 38 19 .80      39    -31      5     51     52 128.6   5.9  33132  272.42 0864.97
2015 04 09 06 38 20 .05      39    -31      5     51     52 128.6   5.9  33132  272.42 0864.97
2015 04 09 06 38 20 .30      35    -34      2     50     51 134.0   2.9  33132  272.40 0864.97
2015 04 09 06 38 20 .55      35    -34      2     50     51 134.0   2.9  33132  272.40 0864.97
2015 04 09 06 38 20 .80      35    -34      2     50     51 134.0   2.9  33132  272.40 0864.97
2015 04 09 06 38 21 .06      39    -31      5     51     52 128.6   5.9  33132  272.42 0864.97
2015 04 09 06 38 21 .30      39    -31      5     51     52 128.6   5.9  33132  272.42 0864.97
2015 04 09 06 38 21 .56      39    -31      5     51     52 128.6   5.9  33132  272.42 0864.97
2015 04 09 06 38 21 .81      39    -31      5     51     52 128.6   5.9  33132  272.42 0864.97
2015 04 09 06 38 22 .07      39    -31      5     51     52 128.6   5.9  33132  272.42 0864.97
2015 04 09 06 38 22 .32      39    -31      5     51     52 128.6   5.9  33132  272.42 0864.97
2015 04 09 06 38 22 .57      38    -27      2     47     48 126.0   2.9  33134  272.43 0864.97
2015 04 09 06 38 22 .82      39    -31      5     51     52 128.6   5.9  33132  272.42 0864.97
2015 04 09 06 38 23 .07      39    -31      5     51     52 128.6   5.9  33132  272.42 0864.97
2015 04 09 06 38 23 .32      39    -31      5     51     52 128.6   5.9  33132  272.42 0864.97
2015 04 09 06 38 23 .57      39    -31      5     51     52 128.6   5.9  33132  272.42 0864.97
2015 04 09 06 38 23 .82      39    -31      5     51     52 128.6   5.9  33132  272.42 0864.97
2015 04 09 06 38 24 .07      39    -31      5     51     52 128.6   5.9  33132  272.42 0864.97
2015 04 09 06 38 24 .32      39    -31      5     51     52 128.6   5.9  33132  272.42 0864.97
2015 04 09 06 38 24 .57      39    -31      5     51     52 128.6   5.9  33132  272.42 0864.97
2015 04 09 06 38 24 .82      35    -34      2     50     51 134.0   2.9  33132  272.40 0864.97
2015 04 09 06 38 25 .07      33    -33      4     47     48 135.0   5.9  33130  272.37 0864.97
2015 04 09 06 38 25 .32      39    -31      5     51     52 128.6   5.9  33132  272.42 0864.97
2015 04 09 06 38 25 .57      34    -31      7     47     48 132.2   9.0  33132  272.40 0864.97
2015 04 09 06 38 25 .83      34    -31      7     47     48 132.2   9.0  33132  272.40 0864.97
2015 04 09 06 38 26 .08      33    -33      4     47     48 135.0   5.9  33130  272.37 0864.97
2015 04 09 06 38 26 .33      33    -33      4     47     48 135.0   5.9  33130  272.37 0864.97
2015 04 09 06 38 26 .58      33    -33      4     47     48 135.0   5.9  33130  272.37 0864.97
2015 04 09 06 38 26 .83      33    -33      4     47     48 135.0   5.9  33130  272.37 0864.97
2015 04 09 06 38 27 .08      33    -33      4     47     48 135.0   5.9  33130  272.37 0864.97
2015 04 09 06 38 27 .33      35    -38      9     52     53 137.7  10.1  33128  272.35 0864.97
2015 04 09 06 38 27 .58      33    -33      4     47     48 135.0   5.9  33130  272.37 0864.97
2015 04 09 06 38 27 .83      29    -29      2     42     43 134.9   2.9  33128  272.35 0864.97
2015 04 09 06 38 28 .08      38    -38      3     55     56 134.9   3.8  33126  272.32 0864.97
2015 04 09 06 38 28 .33      37    -34      2     51     52 132.2   2.9  33124  272.29 0864.97
2015 04 09 06 38 28 .58      34    -30      0     46     47 131.3  -0.3  33126  272.32 0864.97
2015 04 09 06 38 28 .83      38    -38      3     55     56 134.9   3.8  33126  272.32 0864.97
2015 04 09 06 38 29 .09      33    -33      4     47     48 135.0   5.9  33130  272.37 0864.97
2015 04 09 06 38 29 .34      42    -34      0     55     56 129.5   0.8  33130  272.37 0864.97
2015 04 09 06 38 29 .59      29    -29      2     42     43 134.9   2.9  33128  272.35 0864.97
2015 04 09 06 38 29 .85      34    -30      0     46     47 131.3  -0.3  33126  272.32 0864.97
2015 04 09 06 38 30 .09      29    -29      2     42     43 134.9   2.9  33128  272.35 0864.97
2015 04 09 06 38 30 .35      34    -30      0     46     47 131.3  -0.3  33126  272.32 0864.97
2015 04 09 06 38 30 .60      39    -30     -1     50     51 127.8  -2.2  33128  272.34 0864.97
2015 04 09 06 38 30 .85      39    -31      5     51     52 128.6   5.9  33132  272.42 0864.97
2015 04 09 06 38 31 .10      39    -31      5     51     52 128.6   5.9  33132  272.42 0864.97
2015 04 09 06 38 31 .35      39    -31      5     51     52 128.6   5.9  33132  272.42 0864.97
2015 04 09 06 38 31 .60      38    -27      2     47     48 126.0   2.9  33134  272.43 0864.97
2015 04 09 06 38 31 .85      38    -27      2     47     48 126.0   2.9  33134  272.43 0864.97
2015 04 09 06 38 32 .10      38    -27      2     47     48 126.0   2.9  33134  272.43 0864.97
2015 04 09 06 38 32 .35      39    -31      5     51     52 128.6   5.9  33132  272.42 0864.97
2015 04 09 06 38 32 .60      39    -31      5     51     52 128.6   5.9  33132  272.42 0864.97
2015 04 09 06 38 32 .85      39    -31      5     51     52 128.6   5.9  33132  272.42 0864.97
2015 04 09 06 38 33 .10      39    -31      5     51     52 128.6   5.9  33132  272.42 0864.96
2015 04 09 06 38 33 .35      39    -31      5     51     52 128.6   5.9  33132  272.42 0864.96
2015 04 09 06 38 33 .60      39    -31      5     51     52 128.6   5.9  33132  272.42 0864.96
2015 04 09 06 38 33 .85      39    -31      5     51     52 128.6   5.9  33132  272.42 0864.96
2015 04 09 06 38 34 .10      39    -31      5     51     52 128.6   5.9  33132  272.42 0864.96
2015 04 09 06 38 34 .36      38    -27      2     47     48 126.0   2.9  33134  272.43 0864.96
2015 04 09 06 38 34 .60      39    -31      5     51     52 128.6   5.9  33132  272.42 0864.96
2015 04 09 06 38 34 .86      39    -31      5     51     52 128.6   5.9  33132  272.42 0864.96
2015 04 09 06 38 35 .11      39    -31      5     51     52 128.6   5.9  33132  272.42 0864.96
2015 04 09 06 38 35 .36      40    -23      4     47     48 120.7   4.9  33130  272.37 0864.96
2015 04 09 06 38 35 .61      39    -31      5     51     52 128.6   5.9  33132  272.42 0864.96
2015 04 09 06 38 35 .86      36    -27      2     46     47 126.9   2.9  33130  272.38 0864.96
2015 04 09 06 38 36 .12      34    -31      7     47     48 132.2   9.0  33132  272.40 0864.96
2015 04 09 06 38 36 .37      42    -34      0     55     56 129.5   0.8  33130  272.37 0864.96
2015 04 09 06 38 36 .62      45    -24      2     52     53 118.0   2.8  33128  272.34 0864.96
2015 04 09 06 38 36 .87      38    -28      9     48     49 126.0  11.1  33130  272.37 0864.96
2015 04 09 06 38 37 .12      40    -23      4     47     48 120.7   4.9  33130  272.37 0864.96
2015 04 09 06 38 37 .37      43    -27      7     51     52 122.5   8.0  33132  272.40 0864.96
2015 04 09 06 38 37 .62      44    -32      2     55     56 126.0   2.8  33130  272.38 0864.96
2015 04 09 06 38 37 .87      39    -31      5     51     52 128.6   5.9  33132  272.42 0864.96
2015 04 09 06 38 38 .12      39    -31      5     51     52 128.6   5.9  33132  272.42 0864.96
2015 04 09 06 38 38 .37      34    -27      2     44     45 128.6   3.8  33130  272.38 0864.96
2015 04 09 06 38 38 .63      39    -31      5     51     52 128.6   5.9  33132  272.42 0864.97
2015 04 09 06 38 38 .87      38    -27      2     47     48 126.0   2.9  33134  272.43 0864.97
2015 04 09 06 38 39 .13      38    -27      2     47     48 126.0   2.9  33134  272.43 0864.97
2015 04 09 06 38 39 .38      39    -31      5     51     52 128.6   5.9  33132  272.42 0864.97
2015 04 09 06 38 39 .63      36    -27      2     46     47 126.9   2.9  33130  272.38 0864.97
2015 04 09 06 38 39 .88      39    -31      5     51     52 128.6   5.9  33132  272.42 0864.97
2015 04 09 06 38 40 .13      39    -31      5     51     52 128.6   5.9  33132  272.42 0864.97
2015 04 09 06 38 40 .38      39    -31      5     51     52 128.6   5.9  33132  272.42 0864.97
2015 04 09 06 38 40 .63      39    -31      5     51     52 128.6   5.9  33132  272.42 0864.97
2015 04 09 06 38 40 .88      39    -31      5     51     52 128.6   5.9  33132  272.42 0864.97
2015 04 09 06 38 41 .13      43    -27      7     51     52 122.5   8.0  33132  272.40 0864.97
2015 04 09 06 38 41 .38      39    -31      5     51     52 128.6   5.9  33132  272.42 0864.97
2015 04 09 06 38 41 .63      43    -27      7     51     52 122.5   8.0  33132  272.40 0864.97
2015 04 09 06 38 41 .88      40    -23      4     47     48 120.7   4.9  33130  272.37 0864.97
2015 04 09 06 38 42 .13      43    -27      0     51     52 122.5  -0.3  33130  272.37 0864.97
2015 04 09 06 38 42 .38      35    -23      0     42     43 123.3  -0.3  33132  272.42 0864.97
2015 04 09 06 38 42 .63      39    -31      5     51     52 128.6   5.9  33132  272.42 0864.97
2015 04 09 06 38 42 .90      44    -32      2     55     56 126.0   2.8  33130  272.38 0864.97
2015 04 09 06 38 43 .14      45    -24      2     52     53 118.0   2.8  33128  272.34 0864.97
2015 04 09 06 38 43 .40      45    -24      2     52     53 118.0   2.8  33128  272.34 0864.97
2015 04 09 06 38 43 .65      39    -31      5     51     52 128.6   5.9  33132  272.42 0864.97
2015 04 09 06 38 43 .90      44    -32      2     55     56 126.0   2.8  33130  272.38 0864.97
2015 04 09 06 38 44 .15      44    -32      2     55     56 126.0   2.8  33130  272.38 0864.97
2015 04 09 06 38 44 .40      45    -24      2     52     53 118.0   2.8  33128  272.34 0864.97
2015 04 09 06 38 44 .65      45    -24      2     52     53 118.0   2.8  33128  272.34 0864.97
2015 04 09 06 38 44 .90      43    -27      0     51     52 122.5  -0.3  33130  272.37 0864.97
2015 04 09 06 38 45 .15      43    -27      0     51     52 122.5  -0.3  33130  272.37 0864.97
2015 04 09 06 38 45 .40      40    -23      4     47     48 120.7   4.9  33130  272.37 0864.97
2015 04 09 06 38 45 .65      44    -32      2     55     56 126.0   2.8  33130  272.38 0864.97
2015 04 09 06 38 45 .90      35    -23      7     42     43 123.3  10.1  33128  272.35 0864.97
2015 04 09 06 38 46 .15      35    -23      7     42     43 123.3  10.1  33128  272.35 0864.97
2015 04 09 06 38 46 .40      35    -23      7     42     43 123.3  10.1  33128  272.35 0864.97
2015 04 09 06 38 46 .65      39    -31      5     51     52 128.6   5.9  33132  272.42 0864.96
2015 04 09 06 38 46 .90      43    -27      0     51     52 122.5  -0.3  33130  272.37 0864.96
2015 04 09 06 38 47 .17      43    -27      7     51     52 122.5   8.0  33132  272.40 0864.96
2015 04 09 06 38 47 .41      43    -27      0     51     52 122.5  -0.3  33130  272.37 0864.96
2015 04 09 06 38 47 .66      35    -23      7     42     43 123.3  10.1  33128  272.35 0864.96
2015 04 09 06 38 47 .91      35    -23      0     42     43 123.3  -0.3  33132  272.42 0864.96
2015 04 09 06 38 48 .16      45    -24      2     52     53 118.0   2.8  33128  272.34 0864.96
2015 04 09 06 38 48 .41      45    -24      2     52     53 118.0   2.8  33128  272.34 0864.97
2015 04 09 06 38 48 .66      35    -23      0     42     43 123.3  -0.3  33132  272.42 0864.97
2015 04 09 06 38 48 .91      38    -27      2     47     48 126.0   2.9  33134  272.43 0864.97
2015 04 09 06 38 49 .16      37    -20      2     43     44 118.9   2.9  33130  272.38 0864.97
2015 04 09 06 38 49 .41      36    -27      2     46     47 126.9   2.9  33130  272.38 0864.97
2015 04 09 06 38 49 .66      35    -23      0     42     43 123.3  -0.3  33132  272.42 0864.97
2015 04 09 06 38 49 .92      31    -22      2     39     40 126.0   3.8  33130  272.38 0864.97
2015 04 09 06 38 50 .17      35    -23      0     42     43 123.3  -0.3  33132  272.42 0864.97
2015 04 09 06 38 50 .42      35    -23      0     42     43 123.3  -0.3  33132  272.42 0864.96
2015 04 09 06 38 50 .67      38    -27      2     47     48 126.0   2.9  33134  272.43 0864.96
2015 04 09 06 38 50 .92      38    -27      2     47     48 126.0   2.9  33134  272.43 0864.96
2015 04 09 06 38 51 .17      38    -27      2     47     48 126.0   2.9  33134  272.43 0864.96
2015 04 09 06 38 51 .42      40    -23      4     47     48 119.8   5.9  33136  272.47 0864.96
2015 04 09 06 38 51 .67      38    -27      2     47     48 126.0   2.9  33134  272.43 0864.96
2015 04 09 06 38 51 .93      38    -27      2     47     48 126.0   2.9  33134  272.43 0864.96
2015 04 09 06 38 52 .18      42    -19      8     47     48 114.4  10.1  33134  272.45 0864.96
2015 04 09 06 38 52 .43      35    -23      0     42     43 123.3  -0.3  33132  272.42 0864.96
2015 04 09 06 38 52 .68      37    -20      2     43     44 118.9   2.9  33130  272.38 0864.96
2015 04 09 06 38 52 .93      37    -20      2     43     44 118.9   2.9  33130  272.38 0864.96
2015 04 09 06 38 53 .18      38    -26      2     47     48 124.2   2.9  33130  272.38 0864.96
2015 04 09 06 38 53 .43      36    -27      2     46     47 126.9   2.9  33130  272.38 0864.96
2015 04 09 06 38 53 .68      43    -27      0     51     52 122.5  -0.3  33130  272.37 0864.96
2015 04 09 06 38 53 .93      42    -19      0     47     48 114.4   0.8  33130  272.37 0864.96
2015 04 09 06 38 54 .18      39    -31      5     51     52 128.6   5.9  33132  272.42 0864.96
2015 04 09 06 38 54 .43      38    -27      2     47     48 126.0   2.9  33134  272.43 0864.96
2015 04 09 06 38 54 .68      43    -27      0     51     52 122.5   0.8  33136  272.47 0864.96
2015 04 09 06 38 54 .93      35    -23      0     42     43 123.3  -0.3  33132  272.42 0864.97
2015 04 09 06 38 55 .18      35    -23      0     42     43 123.3  -0.3  33132  272.42 0864.97
2015 04 09 06 38 55 .43      40    -26      4     48     49 123.3   4.9  33134  272.43 0864.97
2015 04 09 06 38 55 .68      35    -23      0     42     43 123.3  -0.3  33132  272.42 0864.97
2015 04 09 06 38 55 .94      31    -22      2     39     40 126.0   3.8  33130  272.38 0864.97
2015 04 09 06 38 56 .18      35    -23      0     42     43 123.3  -0.3  33132  272.42 0864.97
2015 04 09 06 38 56 .44      31    -22      2     39     40 126.0   3.8  33130  272.38 0864.97
2015 04 09 06 38 56 .69      35    -23      0     42     43 123.3  -0.3  33132  272.42 0864.97
2015 04 09 06 38 56 .95      38    -27      2     47     48 126.0   2.9  33134  272.43 0864.97
2015 04 09 06 38 57 .20      35    -23      0     42     43 123.3  -0.3  33132  272.42 0864.97
2015 04 09 06 38 57 .45      31    -22      2     39     40 126.0   3.8  33130  272.38 0864.97
2015 04 09 06 38 57 .70      31    -22      2     39     40 126.0   3.8  33130  272.38 0864.97
2015 04 09 06 38 57 .95      35    -23      0     42     43 123.3  -0.3  33132  272.42 0864.97
2015 04 09 06 38 58 .20      31    -22      2     39     40 126.0   3.8  33130  272.38 0864.97
2015 04 09 06 38 58 .45      35    -23      0     42     43 123.3  -0.3  33132  272.42 0864.97
2015 04 09 06 38 58 .70      35    -23      0     42     43 123.3  -0.3  33132  272.42 0864.97
2015 04 09 06 38 58 .95      40    -23     -1     47     48 119.8  -2.2  33130  272.38 0864.97
2015 04 09 06 38 59 .20      35    -23      0     42     43 123.3  -0.3  33132  272.42 0864.97
2015 04 09 06 38 59 .45      35    -23      0     42     43 123.3  -0.3  33132  272.42 0864.97
2015 04 09 06 38 59 .70      31    -22      2     39     40 126.0   3.8  33130  272.38 0864.97
2015 04 09 06 38 59 .95      31    -22      2     39     40 126.0   3.8  33130  272.38 0864.97
2015 04 09 06 39 00 .21      36    -27      2     46     47 126.9   2.9  33130  272.38 0864.97
2015 04 09 06 39 00 .45      35    -23      0     42     43 123.3  -0.3  33132  272.42 0864.97
2015 04 09 06 39 00 .70      35    -23      0     42     43 123.3  -0.3  33132  272.42 0864.97
2015 04 09 06 39 00 .95      35    -23      0     42     43 123.3  -0.3  33132  272.42 0864.97
2015 04 09 06 39 01 .21      35    -23      0     42     43 123.3  -0.3  33132  272.42 0864.97
2015 04 09 06 39 01 .46      35    -23      7     42     43 123.3  10.1  33128  272.35 0864.97
2015 04 09 06 39 01 .71      33    -21      4     40     41 122.4   6.9  33130  272.37 0864.97
2015 04 09 06 39 01 .96      31    -22      2     39     40 126.0   3.8  33130  272.38 0864.97
2015 04 09 06 39 02 .21      33    -21      4     40     41 122.4   6.9  33130  272.37 0864.97
2015 04 09 06 39 02 .46      43    -27      0     51     52 122.5  -0.3  33130  272.37 0864.97
2015 04 09 06 39 02 .71      35    -23      0     42     43 123.3  -0.3  33132  272.42 0864.97
2015 04 09 06 39 02 .96      40    -23      4     47     48 119.8   5.9  33136  272.47 0864.98
2015 04 09 06 39 03 .21      38    -27      2     47     48 126.0   2.9  33134  272.43 0864.98
2015 04 09 06 39 03 .46      35    -23      0     42     43 123.3  -0.3  33132  272.42 0864.98
2015 04 09 06 39 03 .72      31    -22      2     39     40 126.0   3.8  33130  272.38 0864.98
2015 04 09 06 39 03 .97      35    -23      0     42     43 123.3  -0.3  33132  272.42 0864.97
2015 04 09 06 39 04 .22      31    -22      2     39     40 126.0   3.8  33130  272.38 0864.97
2015 04 09 06 39 04 .47      35    -23      0     42     43 123.3  -0.3  33132  272.42 0864.97
2015 04 09 06 39 04 .72      35    -23      0     42     43 123.3  -0.3  33132  272.42 0864.97
2015 04 09 06 39 04 .97      35    -23      0     42     43 123.3  -0.3  33132  272.42 0864.97
2015 04 09 06 39 05 .23      35    -23      0     42     43 123.3  -0.3  33132  272.42 0864.97
2015 04 09 06 39 05 .48      35    -23      0     42     43 123.3  -0.3  33132  272.42 0864.97
2015 04 09 06 39 05 .73      31    -22      2     39     40 126.0   3.8  33130  272.38 0864.97
2015 04 09 06 39 05 .98      26    -28      0     39     40 136.6   0.8  33130  272.37 0864.97
2015 04 09 06 39 06 .23      33    -27      4     43     44 129.5   5.9  33130  272.37 0864.97
2015 04 09 06 39 06 .48      33    -27      4     43     44 129.5   5.9  33130  272.37 0864.97
2015 04 09 06 39 06 .73      35    -23      0     42     43 123.3  -0.3  33132  272.42 0864.97
2015 04 09 06 39 06 .98      35    -23      0     42     43 123.3  -0.3  33132  272.42 0864.97
2015 04 09 06 39 07 .23      35    -23      0     42     43 123.3  -0.3  33132  272.42 0864.97
2015 04 09 06 39 07 .48      35    -23      0     42     43 123.3  -0.3  33132  272.42 0864.97
2015 04 09 06 39 07 .73      38    -27      2     47     48 126.0   2.9  33134  272.43 0864.97
2015 04 09 06 39 07 .98      40    -23      4     47     48 120.7   4.9  33130  272.37 0864.97
2015 04 09 06 39 08 .23      35    -23      0     42     43 123.3  -0.3  33132  272.42 0864.97
2015 04 09 06 39 08 .48      35    -23      0     42     43 123.3  -0.3  33132  272.42 0864.97
2015 04 09 06 39 08 .74      31    -22      2     39     40 126.0   3.8  33130  272.38 0864.97
2015 04 09 06 39 08 .98      40    -23      4     47     48 119.8   5.9  33136  272.47 0864.97
2015 04 09 06 39 09 .23      40    -23      4     47     48 119.8   5.9  33136  272.47 0864.98
2015 04 09 06 39 09 .49      33    -21      6     40     41 122.4   9.0  33138  272.52 0864.98
2015 04 09 06 39 09 .74      40    -23      4     47     48 119.8   5.9  33138  272.52 0864.98
2015 04 09 06 39 09 .99      45    -24      2     52     53 118.0   2.9  33136  272.48 0864.98
2015 04 09 06 39 10 .24      36    -24      2     44     45 124.2   2.8  33142  272.57 0864.98
2015 04 09 06 39 10 .49      38    -27      2     47     48 126.0   2.9  33140  272.53 0864.98
2015 04 09 06 39 10 .75      35    -23      7     43     44 123.3  10.1  33136  272.48 0864.98
2015 04 09 06 39 11 .00      35    -23      7     43     44 123.3  10.1  33136  272.48 0864.98
2015 04 09 06 39 11 .25      40    -23      4     47     48 119.8   5.9  33136  272.47 0864.98
2015 04 09 06 39 11 .50      40    -23      4     47     48 119.8   5.9  33136  272.47 0864.98
2015 04 09 06 39 11 .75      40    -23      4     47     48 119.8   5.9  33136  272.47 0864.98
2015 04 09 06 39 12 .00      45    -24      2     52     53 118.0   2.9  33136  272.48 0864.98
2015 04 09 06 39 12 .25      40    -23      4     47     48 119.8   5.9  33136  272.47 0864.98
2015 04 09 06 39 12 .50      40    -23      4     47     48 119.8   5.9  33136  272.47 0864.98
2015 04 09 06 39 12 .75      35    -23      0     42     43 123.3  -0.3  33132  272.42 0864.98
2015 04 09 06 39 13 .00      39    -20      2     44     45 117.1   3.8  33134  272.43 0864.98
2015 04 09 06 39 13 .25      38    -27      2     47     48 126.0   2.9  33134  272.43 0864.98
2015 04 09 06 39 13 .50      40    -23      4     47     48 119.8   5.9  33136  272.47 0864.98
2015 04 09 06 39 13 .75      38    -27      2     47     48 126.0   2.9  33134  272.43 0864.97
2015 04 09 06 39 14 .01      38    -27      2     47     48 126.0   2.9  33134  272.43 0864.97
2015 04 09 06 39 14 .26      40    -23      4     47     48 119.8   5.9  33136  272.47 0864.97
2015 04 09 06 39 14 .51      40    -23      4     47     48 119.8   5.9  33136  272.47 0864.97
2015 04 09 06 39 14 .76      38    -27      2     47     48 126.0   2.9  33134  272.43 0864.97
2015 04 09 06 39 15 .01      35    -23      0     42     43 123.3  -0.3  33132  272.42 0864.97
2015 04 09 06 39 15 .26      35    -23      0     42     43 123.3  -0.3  33132  272.42 0864.97
2015 04 09 06 39 15 .51      35    -23      0     42     43 123.3  -0.3  33132  272.42 0864.98
2015 04 09 06 39 15 .76      35    -23      0     42     43 123.3  -0.3  33132  272.42 0864.98
2015 04 09 06 39 16 .01      33    -21      4     40     41 122.4   6.9  33130  272.37 0864.98
2015 04 09 06 39 16 .26      33    -21      4     40     41 122.4   6.9  33130  272.37 0864.98
2015 04 09 06 39 16 .51      37    -20      2     43     44 118.9   2.9  33130  272.38 0864.98
2015 04 09 06 39 16 .76      31    -22      2     39     40 126.0   3.8  33130  272.38 0864.98
2015 04 09 06 39 17 .01      35    -23      0     42     43 123.3  -0.3  33132  272.42 0864.98
2015 04 09 06 39 17 .26      35    -23      0     42     43 123.3  -0.3  33132  272.42 0864.98
2015 04 09 06 39 17 .51      35    -23      7     42     43 123.3  10.1  33128  272.35 0864.98
2015 04 09 06 39 17 .78      33    -27      4     43     44 129.5   5.9  33130  272.37 0864.98
2015 04 09 06 39 18 .02      35    -23      0     42     43 123.3  -0.3  33132  272.42 0864.98
2015 04 09 06 39 18 .28      35    -23      0     42     43 123.3  -0.3  33132  272.42 0864.98
2015 04 09 06 39 18 .53      35    -23      0     42     43 123.3  -0.3  33132  272.42 0864.98
2015 04 09 06 39 18 .78      33    -27      4     43     44 129.5   5.9  33130  272.37 0864.98
2015 04 09 06 39 19 .03      33    -27      4     43     44 129.5   5.9  33126  272.32 0864.98
2015 04 09 06 39 19 .28      35    -23      0     43     44 123.3  -0.3  33124  272.27 0864.98
2015 04 09 06 39 19 .53      35    -23      0     43     44 123.3  -0.3  33124  272.27 0864.98
2015 04 09 06 39 19 .78      32    -16      1     37     38 117.1   2.9  33128  272.35 0864.98
2015 04 09 06 39 20 .03      33    -21      4     40     41 122.4   6.9  33130  272.37 0864.98
2015 04 09 06 39 20 .28      34    -30      0     46     47 131.3  -0.3  33126  272.32 0864.98
2015 04 09 06 39 20 .53      38    -27      2     47     48 126.0   2.9  33126  272.30 0864.98
2015 04 09 06 39 20 .78      38    -27      2     47     48 126.0   2.9  33126  272.30 0864.98
2015 04 09 06 39 21 .03      38    -27      2     47     48 126.0   2.9  33126  272.30 0864.98
2015 04 09 06 39 21 .28      35    -23      0     43     44 123.3  -0.3  33124  272.27 0864.98
2015 04 09 06 39 21 .53      25    -22      6     34     35 131.3  11.1  33124  272.27 0864.98
2015 04 09 06 39 21 .78      26    -28      8     39     40 136.6  12.2  33122  272.25 0864.98
2015 04 09 06 39 22 .03      35    -23      7     43     44 123.3  10.1  33118  272.19 0864.98
2015 04 09 06 39 22 .29      35    -23      7     43     44 123.3  10.1  33118  272.19 0864.98
2015 04 09 06 39 22 .54      25    -22      6     34     35 131.3  11.1  33124  272.27 0864.98
2015 04 09 06 39 22 .79      30    -30     11     43     45 135.0  15.3  33124  272.27 0864.98
2015 04 09 06 39 23 .04      26    -27      6     38     39 136.6  10.1  33126  272.30 0864.98
2015 04 09 06 39 23 .29      35    -23      7     42     43 123.3  10.1  33128  272.35 0864.98
2015 04 09 06 39 23 .54      35    -23      7     42     43 123.3  10.1  33128  272.35 0864.98
2015 04 09 06 39 23 .79      33    -27      4     43     44 129.5   5.9  33126  272.32 0864.98
2015 04 09 06 39 24 .04      35    -23      7     42     43 123.3  10.1  33128  272.35 0864.98
2015 04 09 06 39 24 .29      35    -23      7     42     43 123.3  10.1  33128  272.35 0864.98
2015 04 09 06 39 24 .54      40    -23      4     47     48 119.8   4.9  33126  272.32 0864.98
2015 04 09 06 39 24 .80      39    -18      2     44     45 115.3   2.9  33122  272.25 0864.98
2015 04 09 06 39 25 .05      35    -23      0     43     44 123.3  -0.3  33124  272.27 0864.98
2015 04 09 06 39 25 .30      38    -27      2     47     48 126.0   2.9  33126  272.30 0864.98
2015 04 09 06 39 25 .55      27    -22      3     36     37 129.5   4.9  33124  272.29 0864.97
2015 04 09 06 39 25 .80      33    -27      4     43     44 129.5   5.9  33126  272.32 0864.97
2015 04 09 06 39 26 .05      35    -23      0     43     44 123.3  -0.3  33124  272.27 0864.97
2015 04 09 06 39 26 .30      31    -22      2     39     40 126.0   3.8  33122  272.25 0864.97
2015 04 09 06 39 26 .55      25    -22      6     34     35 131.3  11.1  33124  272.27 0864.97
2015 04 09 06 39 26 .80      38    -27      2     47     48 126.0   2.9  33126  272.30 0864.97
2015 04 09 06 39 27 .06      35    -23      0     43     44 123.3  -0.3  33124  272.27 0864.97
2015 04 09 06 39 27 .31      31    -22      2     39     40 126.0   3.8  33122  272.25 0864.97
2015 04 09 06 39 27 .56      31    -22      2     39     40 126.0   3.8  33122  272.25 0864.97
2015 04 09 06 39 27 .81      31    -22      2     39     40 126.0   3.8  33122  272.25 0864.97
2015 04 09 06 39 28 .06      39    -18      2     44     45 115.3   2.9  33122  272.25 0864.97
2015 04 09 06 39 28 .31      35    -23      0     43     44 123.3  -0.3  33124  272.27 0864.97
2015 04 09 06 39 28 .56      35    -23      0     43     44 123.3  -0.3  33124  272.27 0864.97
2015 04 09 06 39 28 .81      35    -23      0     43     44 123.3  -0.3  33124  272.27 0864.97
2015 04 09 06 39 29 .06      38    -27     -2     47     48 126.0  -3.1  33120  272.22 0864.97
2015 04 09 06 39 29 .31      39    -31      5     51     52 128.6   5.9  33114  272.12 0864.97
2015 04 09 06 39 29 .56      27    -29     15     40     42 136.6  21.0  33118  272.17 0864.97
2015 04 09 06 39 29 .81      21    -20     12     30     32 133.1  23.0  33118  272.17 0864.97
2015 04 09 06 39 30 .06      16    -22     11     28     30 143.9  21.0  33118  272.17 0864.97
2015 04 09 06 39 30 .31      23    -19      2     31     32 129.5   4.9  33116  272.15 0864.97
2015 04 09 06 39 30 .56      28    -16      6     33     34 120.7  11.1  33118  272.17 0864.97
2015 04 09 06 39 30 .81      30    -19      7     36     37 122.5  11.1  33120  272.20 0864.97
2015 04 09 06 39 31 .06      28    -19      1     35     36 124.2   2.8  33118  272.17 0864.97
2015 04 09 06 39 31 .32      23    -19      2     31     32 129.5   4.9  33116  272.15 0864.97
2015 04 09 06 39 31 .58      23    -19      2     31     32 129.5   4.9  33116  272.15 0864.97
2015 04 09 06 39 31 .83      28    -19      1     35     36 124.2   2.8  33118  272.17 0864.97
2015 04 09 06 39 32 .08      28    -19      1     35     36 124.2   2.8  33118  272.17 0864.97
2015 04 09 06 39 32 .33      25    -23      6     35     36 133.1  11.0  33114  272.12 0864.97
2015 04 09 06 39 32 .58      30    -23      3     39     40 127.8   4.9  33116  272.14 0864.97
2015 04 09 06 39 32 .83      28    -19      1     35     36 124.2   2.8  33118  272.17 0864.97
2015 04 09 06 39 33 .08      28    -19      1     35     36 124.2   2.8  33118  272.17 0864.97
2015 04 09 06 39 33 .33      24    -24     -1     34     35 134.9  -2.2  33120  272.20 0864.97
2015 04 09 06 39 33 .58      31    -22      2     39     40 126.0   3.8  33122  272.25 0864.97
2015 04 09 06 39 33 .83      25    -22      6     34     35 131.3  11.1  33124  272.27 0864.97
2015 04 09 06 39 34 .08      26    -27      6     38     39 136.6  10.1  33126  272.30 0864.97
2015 04 09 06 39 34 .33      25    -25     12     36     39 135.0  19.4  33120  272.22 0864.97
2015 04 09 06 39 34 .58      30    -20      7     37     38 124.2  11.1  33114  272.10 0864.97
2015 04 09 06 39 34 .83      24    -24     12     35     38 134.9  18.9  33110  272.06 0864.97
2015 04 09 06 39 35 .08      23    -19     10     31     33 129.5  19.2  33114  272.12 0864.97
2015 04 09 06 39 35 .33      25    -13     11     29     31 117.1  21.0  33108  272.02 0864.97
2015 04 09 06 39 35 .59      24    -20     11     32     34 129.6  19.2  33112  272.07 0864.97
2015 04 09 06 39 35 .84      24    -20     11     32     34 129.6  19.2  33112  272.07 0864.97
2015 04 09 06 39 36 .09      31    -19      8     37     39 122.5  13.2  33116  272.15 0864.97
2015 04 09 06 39 36 .34      23    -15      9     28     30 122.5  19.4  33120  272.20 0864.97
2015 04 09 06 39 36 .59      24    -18     10     31     33 127.8  19.2  33120  272.22 0864.97
2015 04 09 06 39 36 .84      24    -18     10     31     33 127.8  19.2  33124  272.27 0864.97
2015 04 09 06 39 37 .09      26    -16      6     31     32 122.4  11.1  33126  272.32 0864.97
2015 04 09 06 39 37 .34      25    -22      6     34     35 131.3  11.1  33124  272.27 0864.97
2015 04 09 06 39 37 .59      23    -19      4     30     31 129.5   9.0  33126  272.30 0864.97
2015 04 09 06 39 37 .84      23    -19      4     30     31 129.5   9.0  33126  272.30 0864.97
2015 04 09 06 39 38 .09      23    -19      4     30     31 129.5   9.0  33126  272.30 0864.97
2015 04 09 06 39 38 .34      23    -19      4     30     31 129.5   9.0  33126  272.30 0864.97
2015 04 09 06 39 38 .60      25    -22      6     34     35 131.3  11.1  33124  272.27 0864.97
2015 04 09 06 39 38 .85      25    -22      6     34     35 131.3  11.1  33124  272.27 0864.97
2015 04 09 06 39 39 .10      28    -19      1     35     36 124.2   2.8  33120  272.22 0864.97
2015 04 09 06 39 39 .35      25    -22      6     34     35 131.3  11.1  33124  272.27 0864.97
2015 04 09 06 39 39 .60      25    -22      6     34     35 131.3  11.1  33124  272.27 0864.97
2015 04 09 06 39 39 .85      25    -22      6     34     35 131.3  11.1  33124  272.27 0864.97
2015 04 09 06 39 40 .11      23    -19      4     30     31 129.5   9.0  33126  272.30 0864.97
2015 04 09 06 39 40 .35      27    -19      1     34     35 126.0   2.9  33126  272.32 0864.97
2015 04 09 06 39 40 .61      28    -19      1     35     36 124.2   2.8  33126  272.32 0864.97
2015 04 09 06 39 40 .86      28    -19      1     35     36 124.2   2.8  33126  272.32 0864.97
2015 04 09 06 39 41 .11      23    -19      4     30     31 129.5   9.0  33126  272.30 0864.97
2015 04 09 06 39 41 .36      25    -22      6     34     35 131.3  11.1  33124  272.27 0864.97
2015 04 09 06 39 41 .61      28    -19      1     35     36 124.2   2.8  33126  272.32 0864.97
2015 04 09 06 39 41 .86      28    -19      1     35     36 124.2   2.8  33126  272.32 0864.97
2015 04 09 06 39 42 .11      28    -19      1     35     36 124.2   2.8  33126  272.32 0864.97
2015 04 09 06 39 42 .36      23    -19      4     30     31 129.5   9.0  33126  272.30 0864.97
2015 04 09 06 39 42 .61      31    -22      2     39     40 126.0   3.8  33130  272.38 0864.97
2015 04 09 06 39 42 .86      26    -23      5     35     36 131.3   9.0  33132  272.42 0864.97
2015 04 09 06 39 43 .11      23    -19      2     31     32 129.5   4.9  33130  272.38 0864.97
2015 04 09 06 39 43 .36      27    -17     -1     32     33 122.4  -2.2  33130  272.38 0864.97
2015 04 09 06 39 43 .61      28    -19      1     35     36 124.2   2.8  33130  272.37 0864.97
2015 04 09 06 39 43 .86      28    -19      1     35     36 124.2   2.8  33130  272.37 0864.97
2015 04 09 06 39 44 .12      21    -21      1     31     32 135.0   2.9  33126  272.32 0864.97
2015 04 09 06 39 44 .36      28    -19      1     35     36 124.2   2.8  33126  272.32 0864.97
2015 04 09 06 39 44 .62      28    -19      1     35     36 124.2   2.8  33126  272.32 0864.97
2015 04 09 06 39 44 .87      23    -19      4     30     31 129.5   9.0  33126  272.30 0864.97
2015 04 09 06 39 45 .12      21    -16      1     27     28 127.8   2.9  33124  272.27 0864.97
2015 04 09 06 39 45 .37      21    -16      1     27     28 127.8   2.9  33124  272.27 0864.97
2015 04 09 06 39 45 .63      27    -17     -1     32     33 122.4  -2.2  33126  272.30 0864.97
2015 04 09 06 39 45 .88      32    -16     -2     37     38 117.1  -3.1  33124  272.27 0864.97
2015 04 09 06 39 46 .13      32    -16     -2     37     38 117.1  -3.1  33124  272.27 0864.97
2015 04 09 06 39 46 .38      29    -14     -4     33     34 115.2  -7.3  33126  272.30 0864.96
2015 04 09 06 39 46 .63      21    -16     -3     27     28 127.8  -7.3  33118  272.19 0864.96
2015 04 09 06 39 46 .88      23    -15      1     28     29 122.5   2.8  33114  272.12 0864.96
2015 04 09 06 39 47 .13      28    -19      1     35     36 124.2   2.8  33112  272.07 0864.96
2015 04 09 06 39 47 .38      29    -18     -4     35     36 122.5  -7.2  33114  272.10 0864.96
2015 04 09 06 39 47 .63      25    -22     -5     34     35 131.3  -9.3  33114  272.12 0864.96
2015 04 09 06 39 47 .88      24    -18     -1     31     32 127.8  -3.1  33112  272.07 0864.96
2015 04 09 06 39 48 .13      13    -16     13     21     24 140.4  35.5  33110  272.06 0864.97
2015 04 09 06 39 48 .38       7    -21      8     23     25 160.0  18.9  33110  272.06 0864.97
2015 04 09 06 39 48 .64      15    -12      8     20     21 129.5  23.0  33110  272.06 0864.97
2015 04 09 06 39 48 .88      16    -16     11     23     25 135.0  27.2  33112  272.07 0864.97
2015 04 09 06 39 49 .14      14    -12      1     19     20 129.5   2.9  33108  272.02 0864.97
2015 04 09 06 39 49 .39      21    -16      9     27     29 127.8  19.4  33110  272.04 0864.97
2015 04 09 06 39 49 .64      23    -19      2     31     32 129.5   4.9  33116  272.15 0864.97
2015 04 09 06 39 49 .89      23    -19      2     31     32 129.5   4.9  33116  272.15 0864.97
2015 04 09 06 39 50 .14      23    -19      2     31     32 129.5   4.9  33116  272.15 0864.97
2015 04 09 06 39 50 .39      23    -19      2     31     32 129.5   4.9  33116  272.15 0864.97
2015 04 09 06 39 50 .64      28    -19      1     35     36 124.2   2.8  33118  272.17 0864.97
2015 04 09 06 39 50 .89      23    -19      2     31     32 129.5   4.9  33116  272.15 0864.97
2015 04 09 06 39 51 .14      23    -15      1     28     29 122.5   2.8  33114  272.12 0864.97
2015 04 09 06 39 51 .39      23    -19      2     31     32 129.5   4.9  33116  272.15 0864.97
2015 04 09 06 39 51 .64      23    -19      2     31     32 129.5   4.9  33116  272.15 0864.97
2015 04 09 06 39 51 .89      23    -19      2     31     32 129.5   4.9  33116  272.15 0864.97
2015 04 09 06 39 52 .14      23    -19      2     31     32 129.5   4.9  33116  272.15 0864.97
2015 04 09 06 39 52 .40      23    -19      2     31     32 129.5   4.9  33116  272.15 0864.97
2015 04 09 06 39 52 .66      28    -19      1     35     36 124.2   2.8  33118  272.17 0864.97
2015 04 09 06 39 52 .90      23    -19      2     31     32 129.5   4.9  33116  272.15 0864.97
2015 04 09 06 39 53 .15      23    -19      2     31     32 129.5   4.9  33116  272.15 0864.97
2015 04 09 06 39 53 .40      23    -19      2     31     32 129.5   4.9  33116  272.15 0864.97
2015 04 09 06 39 53 .66      23    -19      2     31     32 129.5   4.9  33116  272.15 0864.97
2015 04 09 06 39 53 .91      23    -19      2     31     32 129.5   4.9  33116  272.15 0864.97
2015 04 09 06 39 54 .16      23    -19      2     31     32 129.5   4.9  33116  272.15 0864.97
2015 04 09 06 39 54 .41      23    -19      2     31     32 129.5   4.9  33116  272.15 0864.97
2015 04 09 06 39 54 .66      28    -16      6     33     34 120.7  11.1  33118  272.17 0864.97
2015 04 09 06 39 54 .91      19    -17      9     26     28 131.3  19.4  33120  272.22 0864.97
2015 04 09 06 39 55 .16      17    -17      8     25     27 135.0  17.3  33122  272.24 0864.97
2015 04 09 06 39 55 .41      21    -16      1     27     28 127.8   2.9  33124  272.27 0864.98
2015 04 09 06 39 55 .66      21    -16      1     27     28 127.8   2.9  33124  272.27 0864.98
2015 04 09 06 39 55 .91      23    -19      4     30     31 129.5   9.0  33126  272.30 0864.98
2015 04 09 06 39 56 .16      23    -19      4     30     31 129.5   9.0  33126  272.30 0864.98
2015 04 09 06 39 56 .41      23    -19      4     30     31 129.5   9.0  33126  272.30 0864.98
2015 04 09 06 39 56 .66      23    -19      4     30     31 129.5   9.0  33126  272.30 0864.98
2015 04 09 06 39 56 .91      23    -19      4     30     31 129.5   9.0  33126  272.30 0864.98
2015 04 09 06 39 57 .16      23    -19      4     30     31 129.5   9.0  33126  272.30 0864.98
2015 04 09 06 39 57 .41      23    -19      4     30     31 129.5   9.0  33126  272.30 0864.98
2015 04 09 06 39 57 .67      26    -16      6     31     32 122.4  11.1  33126  272.32 0864.98
2015 04 09 06 39 57 .92      23    -19      4     30     31 129.5   9.0  33126  272.30 0864.98
2015 04 09 06 39 58 .17      23    -19      4     30     31 129.5   9.0  33126  272.30 0864.98
2015 04 09 06 39 58 .42      23    -19      4     30     31 129.5   9.0  33126  272.30 0864.98
2015 04 09 06 39 58 .67      23    -19      4     30     31 129.5   9.0  33126  272.30 0864.98
2015 04 09 06 39 58 .92      23    -19      4     30     31 129.5   9.0  33126  272.30 0864.98
2015 04 09 06 39 59 .17      21    -16      1     27     28 127.8   2.9  33124  272.27 0864.98
2015 04 09 06 39 59 .43      23    -19      4     30     31 129.5   9.0  33126  272.30 0864.98
2015 04 09 06 39 59 .68      23    -19      4     30     31 129.5   9.0  33126  272.30 0864.98
2015 04 09 06 39 59 .93      25    -22      6     34     35 131.3  11.1  33124  272.27 0864.97
2015 04 09 06 40 00 .18      23    -19      4     30     31 129.5   9.0  33126  272.30 0864.97
2015 04 09 06 40 00 .43      23    -19      4     30     31 129.5   9.0  33126  272.30 0864.97
2015 04 09 06 40 00 .68      25    -22      6     34     35 131.3  11.1  33124  272.27 0864.97
2015 04 09 06 40 00 .93      25    -22      6     34     35 131.3  11.1  33124  272.27 0864.97
2015 04 09 06 40 01 .18      31    -22      2     39     40 126.0   3.8  33122  272.25 0864.97
2015 04 09 06 40 01 .43      25    -22      6     34     35 131.3  11.1  33124  272.27 0864.97
2015 04 09 06 40 01 .68      23    -25      1     35     36 136.8   2.9  33122  272.25 0864.98
2015 04 09 06 40 01 .94      25    -22      6     34     35 131.3  11.1  33124  272.27 0864.98
2015 04 09 06 40 02 .18      25    -22      6     34     35 131.3  11.1  33124  272.27 0864.98
2015 04 09 06 40 02 .44      23    -19      4     30     31 129.5   9.0  33126  272.30 0864.98
2015 04 09 06 40 02 .69      23    -19      4     30     31 129.5   9.0  33126  272.30 0864.98
2015 04 09 06 40 02 .94      25    -22      6     34     35 131.3  11.1  33124  272.27 0864.98
2015 04 09 06 40 03 .19      25    -22      6     34     35 131.3  11.1  33124  272.27 0864.98
2015 04 09 06 40 03 .44      17    -17      8     25     27 135.0  17.3  33118  272.17 0864.98
2015 04 09 06 40 03 .69      23    -19      2     31     32 129.5   4.9  33116  272.15 0864.97
2015 04 09 06 40 03 .94      23    -19      2     31     32 129.5   4.9  33116  272.15 0864.97
2015 04 09 06 40 04 .19      28    -19      1     35     36 124.2   2.8  33118  272.17 0864.97
2015 04 09 06 40 04 .44      23    -19      2     31     32 129.5   4.9  33116  272.15 0864.97
2015 04 09 06 40 04 .69      23    -19      2     31     32 129.5   4.9  33116  272.15 0864.97
2015 04 09 06 40 04 .95      28    -16      6     33     34 120.7  11.1  33118  272.17 0864.97
2015 04 09 06 40 05 .19      23    -19      4     30     31 129.5   9.0  33122  272.25 0864.97
2015 04 09 06 40 05 .44      24    -24     -1     34     35 134.9  -2.2  33120  272.20 0864.98
2015 04 09 06 40 05 .69      24    -24     -1     34     35 134.9  -2.2  33120  272.20 0864.98
2015 04 09 06 40 05 .95      28    -19      1     35     36 124.2   2.8  33120  272.22 0864.98
2015 04 09 06 40 06 .20      21    -16      1     27     28 127.8   2.9  33124  272.27 0864.98
2015 04 09 06 40 06 .46      23    -19      4     30     31 129.5   9.0  33122  272.25 0864.98
2015 04 09 06 40 06 .71      23    -19      2     31     32 129.5   4.9  33116  272.15 0864.98
2015 04 09 06 40 06 .96      23    -19      2     31     32 129.5   4.9  33116  272.15 0864.98
2015 04 09 06 40 07 .21      23    -19      2     31     32 129.5   4.9  33116  272.15 0864.98
2015 04 09 06 40 07 .46      23    -19      2     31     32 129.5   4.9  33116  272.15 0864.98
2015 04 09 06 40 07 .71      23    -19      2     31     32 129.5   4.9  33116  272.15 0864.98
2015 04 09 06 40 07 .96      23    -19      2     31     32 129.5   4.9  33116  272.15 0864.98
2015 04 09 06 40 08 .21      23    -19      2     31     32 129.5   4.9  33116  272.15 0864.98
2015 04 09 06 40 08 .47      23    -19      2     31     32 129.5   4.9  33116  272.15 0864.98
2015 04 09 06 40 08 .71      23    -19      2     31     32 129.5   4.9  33116  272.15 0864.98
2015 04 09 06 40 08 .96      23    -19      2     31     32 129.5   4.9  33116  272.15 0864.98
2015 04 09 06 40 09 .21      28    -16      6     33     34 120.7  11.1  33118  272.17 0864.98
2015 04 09 06 40 09 .46      23    -19      2     31     32 129.5   4.9  33116  272.15 0864.98
2015 04 09 06 40 09 .71      23    -19      2     31     32 129.5   4.9  33116  272.15 0864.98
2015 04 09 06 40 09 .96      23    -15      1     28     29 122.5   2.8  33114  272.12 0864.98
2015 04 09 06 40 10 .21      23    -15      1     28     29 122.5   2.8  33114  272.12 0864.98
2015 04 09 06 40 10 .46      23    -19      2     31     32 129.5   4.9  33116  272.15 0864.98
2015 04 09 06 40 10 .72      28    -19      1     35     36 124.2   2.8  33118  272.17 0864.98
2015 04 09 06 40 10 .97      23    -15      1     28     29 122.5   2.8  33114  272.12 0864.98
2015 04 09 06 40 11 .22      23    -15      1     28     29 122.5   2.8  33114  272.12 0864.98
2015 04 09 06 40 11 .47      23    -15      1     28     29 122.5   2.8  33114  272.12 0864.98
2015 04 09 06 40 11 .72      23    -15      1     28     29 122.5   2.8  33114  272.12 0864.98
2015 04 09 06 40 11 .97      23    -15      1     28     29 122.5   2.8  33114  272.12 0864.98
2015 04 09 06 40 12 .22      23    -15      1     28     29 122.5   2.8  33114  272.12 0864.98
2015 04 09 06 40 12 .47      23    -15      1     28     29 122.5   2.8  33114  272.12 0864.98
2015 04 09 06 40 12 .72      23    -19      2     31     32 129.5   4.9  33116  272.15 0864.98
2015 04 09 06 40 12 .97      22    -16      1     28     29 126.0   2.8  33118  272.17 0864.98
2015 04 09 06 40 13 .22      16    -16      4     23     24 134.9  11.1  33122  272.25 0864.98
2015 04 09 06 40 13 .48      16    -16      4     23     24 134.9  11.1  33122  272.25 0864.98
2015 04 09 06 40 13 .73      14    -12      1     19     20 129.5   2.9  33118  272.17 0864.97
2015 04 09 06 40 13 .98      16    -15      3     22     23 133.1   9.0  33116  272.15 0864.97
2015 04 09 06 40 14 .23      16    -15      3     22     23 133.1   9.0  33112  272.09 0864.97
2015 04 09 06 40 14 .48      16    -15      3     22     23 133.1   9.0  33112  272.09 0864.97
2015 04 09 06 40 14 .73      14    -12      1     19     20 129.5   2.9  33112  272.07 0864.97
2015 04 09 06 40 15 .22      16    -15      3     22     23 133.1   9.0  33112  272.09 0864.97
2015 04 09 06 40 15 .24      12    -14      0     19     20 138.6  -2.2  33110  272.06 0864.97
2015 04 09 06 40 15 .49      16    -15      3     22     23 133.1   9.0  33112  272.09 0864.97
2015 04 09 06 40 15 .74      15    -17      1     23     24 138.6   2.9  33112  272.07 0864.97
2015 04 09 06 40 15 .99      16    -15      3     22     23 133.1   9.0  33112  272.09 0864.97
2015 04 09 06 40 16 .24      15    -15     -1     22     23 135.0  -3.1  33120  272.22 0864.97
2015 04 09 06 40 16 .49      15    -15     -1     22     23 135.0  -3.1  33120  272.22 0864.97
2015 04 09 06 40 16 .74      23    -15      1     28     29 122.5   2.8  33114  272.12 0864.97
2015 04 09 06 40 16 .99      23    -15      1     28     29 122.5   2.8  33114  272.12 0864.97
2015 04 09 06 40 17 .24      23    -15      1     28     29 122.5   2.8  33114  272.12 0864.98
2015 04 09 06 40 17 .49      23    -15      1     28     29 122.5   2.8  33114  272.12 0864.98
2015 04 09 06 40 17 .74      23    -15      1     28     29 122.5   2.8  33114  272.12 0864.98
2015 04 09 06 40 17 .99      16    -16     -1     23     24 134.9  -3.1  33118  272.17 0864.98
2015 04 09 06 40 18 .24      23    -15      1     28     29 122.5   2.8  33114  272.12 0864.98
2015 04 09 06 40 18 .49      22    -22      1     32     33 134.9   2.9  33118  272.17 0864.98
2015 04 09 06 40 18 .75      21    -12     -1     25     26 120.7  -2.2  33116  272.14 0864.98
2015 04 09 06 40 18 .99      16    -16     -1     23     24 134.9  -3.1  33118  272.17 0864.98
2015 04 09 06 40 19 .25      18    -18     -1     26     27 135.0  -2.2  33116  272.15 0864.98
2015 04 09 06 40 19 .50      14    -20      1     25     26 143.9   2.9  33120  272.22 0864.98
2015 04 09 06 40 19 .75      14    -20      1     25     26 143.9   2.9  33120  272.22 0864.98
2015 04 09 06 40 20 .00      16    -16      4     23     24 134.9  11.1  33122  272.25 0864.98
2015 04 09 06 40 20 .26      16    -16      4     23     24 134.9  11.1  33122  272.25 0864.98
2015 04 09 06 40 20 .51      19    -18     -1     27     28 133.3  -2.2  33122  272.25 0864.98
2015 04 09 06 40 20 .76      21    -16      1     27     28 127.8   2.9  33124  272.27 0864.98
2015 04 09 06 40 21 .01      24    -20     -1     32     33 129.6  -3.1  33120  272.22 0864.98
2015 04 09 06 40 21 .26      17    -19      0     26     27 138.6   0.8  33122  272.24 0864.98
2015 04 09 06 40 21 .51      14    -20      1     25     26 143.9   2.9  33120  272.22 0864.98
2015 04 09 06 40 21 .76      16    -16     -1     23     24 134.9  -3.1  33118  272.17 0864.98
2015 04 09 06 40 22 .01      12    -15      0     20     21 140.4  -2.2  33120  272.20 0864.98
2015 04 09 06 40 22 .26      16    -15      3     22     23 133.1   9.0  33116  272.15 0864.98
2015 04 09 06 40 22 .51      22    -22      0     32     33 135.0   0.8  33118  272.17 0864.98
2015 04 09 06 40 22 .76      19    -19     -1     28     29 135.0  -2.2  33120  272.20 0864.98
2015 04 09 06 40 23 .01      24    -20     -1     32     33 129.6  -3.1  33120  272.22 0864.98
2015 04 09 06 40 23 .26      19    -18     -1     27     28 133.3  -2.2  33122  272.25 0864.98
2015 04 09 06 40 23 .51      21    -16      1     27     28 127.8   2.9  33124  272.27 0864.98
2015 04 09 06 40 23 .76      19    -18     -1     27     28 133.3  -2.2  33122  272.25 0864.98
2015 04 09 06 40 24 .02      19    -18     -1     27     28 133.3  -2.2  33122  272.25 0864.98
2015 04 09 06 40 24 .26      23    -19      4     30     31 129.5   9.0  33126  272.30 0864.98
2015 04 09 06 40 24 .52      23    -19      4     30     31 129.5   9.0  33126  272.30 0864.98
2015 04 09 06 40 24 .77      26    -23     -1     35     36 131.3  -2.2  33128  272.35 0864.98
2015 04 09 06 40 25 .02      19    -26     -1     33     34 143.9  -2.2  33124  272.29 0864.98
2015 04 09 06 40 25 .27      24    -20     -1     32     33 129.6  -3.1  33120  272.22 0864.98
2015 04 09 06 40 25 .52      23    -19      4     30     31 129.5   9.0  33126  272.30 0864.98
2015 04 09 06 40 25 .77      23    -19      4     30     31 129.5   9.0  33126  272.30 0864.98
2015 04 09 06 40 26 .02      23    -19      4     30     31 129.5   9.0  33126  272.30 0864.98
2015 04 09 06 40 26 .27      21    -16      1     27     28 127.8   2.9  33124  272.27 0864.98
2015 04 09 06 40 26 .52      21    -16      1     27     28 127.8   2.9  33124  272.27 0864.98
2015 04 09 06 40 26 .77      21    -16      1     27     28 127.8   2.9  33124  272.27 0864.98
2015 04 09 06 40 27 .02      21    -16      1     27     28 127.8   2.9  33124  272.27 0864.98
2015 04 09 06 40 27 .28      21    -16      1     27     28 127.8   2.9  33124  272.27 0864.98
2015 04 09 06 40 27 .53      21    -16      1     27     28 127.8   2.9  33124  272.27 0864.98
2015 04 09 06 40 27 .79      27    -17     -1     32     33 122.4  -2.2  33126  272.30 0864.98
2015 04 09 06 40 28 .03      26    -23     -1     35     36 131.3  -2.2  33128  272.35 0864.98
2015 04 09 06 40 28 .28      21    -16      1     27     28 127.8   2.9  33124  272.27 0864.98
2015 04 09 06 40 28 .54      21    -16      1     27     28 127.8   2.9  33124  272.27 0864.98
2015 04 09 06 40 28 .79      21    -23      0     32     33 136.8   0.8  33120  272.22 0864.98
2015 04 09 06 40 29 .05      21    -16      1     27     28 127.8   2.9  33124  272.27 0864.98
2015 04 09 06 40 29 .29      25    -22      6     34     35 131.3  11.1  33124  272.27 0864.98
2015 04 09 07 14 43 .44       2    -25     -3     26     27 175.5  -7.3  33208  273.67 0865.02
2015 04 09 07 14 43 .70      -8    -19      1     21     22 203.6   2.9  33206  273.64 0865.02
2015 04 09 07 14 43 .95     -10    -30      6     32     33 198.3  11.1  33224  273.93 0865.02
2015 04 09 07 14 44 .20     -17    -36      6     40     41 205.5   9.0  33228  273.98 0865.02
2015 04 09 07 14 44 .45     -15    -45      8     48     49 198.3  10.1  33226  273.97 0865.02
2015 04 09 07 14 44 .70     -19    -46      9     50     51 202.7  11.1  33226  273.95 0865.01
2015 04 09 07 14 44 .95     -16    -37      8     41     42 203.6  11.1  33220  273.87 0865.01
2015 04 09 07 14 45 .20     -12    -36      5     39     40 198.7   8.0  33222  273.88 0865.01
2015 04 09 07 14 45 .45     -14    -48      2     51     52 196.9   2.9  33220  273.87 0865.01
2015 04 09 07 14 45 .71       7    -38    -11     39     41 168.4 -16.6  33218  273.83 0865.01
2015 04 09 07 14 45 .98      -9    -34     -4     36     37 195.1  -7.2  33220  273.87 0865.01
2015 04 09 07 14 46 .21       0    -33     -9     34     36 180.9 -15.4  33224  273.92 0865.01
2015 04 09 07 14 46 .46      -2    -30      1     31     32 184.5   2.9  33222  273.88 0865.01
2015 04 09 07 14 46 .71      -2    -23      1     24     25 186.2   2.9  33222  273.88 0865.01
2015 04 09 07 14 46 .96      -2    -23      1     24     25 186.2   2.9  33222  273.88 0865.01
2015 04 09 07 14 47 .21      -2    -30      1     31     32 184.5   2.9  33224  273.93 0865.01
2015 04 09 07 14 47 .46      -4    -26      0     27     28 189.8  -1.3  33224  273.92 0865.01
2015 04 09 07 14 47 .71      -2    -23      1     24     25 186.2   2.9  33222  273.88 0865.01
2015 04 09 07 14 47 .96       3    -22     -1     23     24 170.2  -3.1  33216  273.78 0865.01
2015 04 09 07 14 48 .22       7    -23     -3     25     26 161.7  -7.3  33220  273.87 0865.01
2015 04 09 07 14 48 .47       5    -22      4     23     24 166.6  11.1  33224  273.92 0865.01
2015 04 09 07 14 48 .71       1    -11      9     12     15 172.0  43.7  33220  273.87 0865.01
2015 04 09 07 14 48 .96       0    -15      8     16     17 179.1  27.2  33222  273.88 0865.01
2015 04 09 07 14 49 .22      -1    -16      6     17     19 184.4  19.4  33218  273.82 0865.01
2015 04 09 07 14 49 .47       0    -11      4     12     13 184.5  18.9  33218  273.82 0865.01
2015 04 09 07 14 49 .72       0    -18     11     19     21 182.7  33.5  33224  273.93 0865.01
2015 04 09 07 14 49 .97      -3    -22      8     23     25 188.0  18.9  33226  273.97 0865.01
2015 04 09 07 14 50 .22      -1    -26      4     27     28 182.7   9.0  33220  273.87 0865.02
2015 04 09 07 14 50 .47      -4    -26      0     27     28 189.8  -1.3  33224  273.92 0865.02
2015 04 09 07 14 50 .72      -2    -23      1     24     25 186.2   2.9  33222  273.88 0865.02
2015 04 09 07 14 50 .97       0    -33      2     34     35 179.1   4.9  33224  273.92 0865.02
2015 04 09 07 14 51 .22      -1    -38      0     39     40 182.7   0.8  33230  274.03 0865.02
2015 04 09 07 14 51 .47       0    -44     -5     45     46 180.9  -7.3  33230  274.03 0865.02
2015 04 09 07 14 51 .72      -3    -41     -1     42     43 185.3  -2.2  33232  274.06 0865.02
2015 04 09 07 14 51 .98     -17    -50     -2     53     54 199.2  -2.2  33232  274.06 0865.02
2015 04 09 07 14 52 .22      -8    -40    -12     41     43 192.5 -16.6  33234  274.08 0865.02
2015 04 09 07 14 52 .47     -11    -35     -1     37     38 198.3  -2.2  33224  273.93 0865.02
2015 04 09 07 14 52 .74     -19    -30      1     36     37 212.5   2.9  33230  274.01 0865.02
2015 04 09 07 14 52 .99     -12    -37      4     40     41 198.7   6.9  33224  273.93 0865.02
2015 04 09 07 14 53 .24       0    -40     -1     41     42 180.9  -2.2  33210  273.70 0865.02
2015 04 09 07 14 53 .49      10    -48     -2     50     51 167.5  -3.1  33210  273.68 0865.02
2015 04 09 07 14 53 .74       5    -41     -1     42     43 172.0  -2.2  33214  273.77 0865.02
2015 04 09 07 14 53 .99      10    -40    -10     42     44 164.9 -13.4  33190  273.37 0865.02
2015 04 09 07 14 54 .24      10    -40    -10     42     44 164.9 -13.4  33190  273.37 0865.02
2015 04 09 07 14 54 .49       9    -35    -12     37     40 164.9 -18.7  33192  273.40 0865.02
2015 04 09 07 14 54 .74       7    -35    -12     36     37 168.4 -23.6  33190  273.37 0865.02
2015 04 09 07 14 54 .99       6    -32     -6     33     34 168.4 -11.3  33188  273.34 0865.02
2015 04 09 07 14 55 .24       2    -35    -10     36     38 175.5 -15.5  33190  273.37 0865.02
2015 04 09 07 14 55 .49       9    -35    -12     37     40 164.9 -18.7  33192  273.40 0865.02
2015 04 09 07 14 55 .74       6    -41    -12     42     43 171.1 -21.7  33194  273.42 0865.02
2015 04 09 07 14 55 .99       7    -34     -5     35     36 168.4  -9.3  33204  273.59 0865.02
2015 04 09 07 14 56 .25       9    -31     -4     33     34 163.1  -7.3  33206  273.62 0865.02
2015 04 09 07 14 56 .50      13    -30     -1     33     34 156.4  -2.2  33214  273.77 0865.02
2015 04 09 07 14 56 .74      13    -30      5     33     34 156.4   9.0  33218  273.83 0865.02
2015 04 09 07 14 56 .99      16    -30      1     35     36 151.0   2.9  33214  273.77 0865.02
2015 04 09 07 14 57 .25      11    -34     12     36     39 161.3  19.4  33212  273.73 0865.02
2015 04 09 07 14 57 .50       4    -29     10     30     32 172.0  19.4  33216  273.78 0865.02
2015 04 09 07 14 57 .75       3    -22     11     23     25 170.2  27.2  33222  273.88 0865.02
2015 04 09 07 14 58 .00       2    -26      1     27     28 175.6   2.8  33218  273.83 0865.02
2015 04 09 07 14 58 .25       4    -23     -2     24     25 168.4  -5.2  33222  273.88 0865.02
2015 04 09 07 14 58 .50       2    -25      1     26     27 175.5   2.9  33228  273.98 0865.02
2015 04 09 07 14 58 .75      -1    -30     -1     31     32 182.6  -2.2  33226  273.97 0865.02
2015 04 09 07 14 59 .00      -1    -30      1     31     32 182.7   2.8  33228  273.98 0865.02
2015 04 09 07 14 59 .25      -2    -30      1     31     32 184.5   2.9  33222  273.88 0865.03
2015 04 09 07 14 59 .50      -4    -33      6     34     35 188.0  11.1  33224  273.93 0865.03
2015 04 09 07 14 59 .76     -10    -43     15     45     48 193.4  18.4  33210  273.70 0865.03
2015 04 09 07 15 00 .02      -4    -40     19     41     45 186.2  27.2  33210  273.70 0865.03
2015 04 09 07 15 00 .26     -13    -33     17     36     39 201.8  26.2  33206  273.62 0865.03
2015 04 09 07 15 00 .51     -15    -31     15     35     38 207.2  23.0  33204  273.59 0865.03
2015 04 09 07 15 00 .77      -9    -27     22     29     36 198.3  41.7  33208  273.67 0865.03
2015 04 09 07 15 01 .01     -11    -34     27     36     45 198.7  40.7  33210  273.68 0865.03
2015 04 09 07 15 01 .27      -8    -26     16     28     32 198.3  33.5  33216  273.78 0865.03
2015 04 09 07 15 01 .51      -7    -23     11     25     27 198.5  25.1  33222  273.88 0865.03
2015 04 09 07 15 01 .77       3    -22     11     23     25 170.2  27.2  33222  273.88 0865.03
2015 04 09 07 15 02 .02       3    -22     11     23     25 170.2  27.2  33222  273.88 0865.03
2015 04 09 07 15 02 .27      -1    -34     17     35     38 182.6  27.2  33224  273.92 0865.03
2015 04 09 07 15 02 .52      -1    -30      6     31     32 182.6  11.1  33222  273.88 0865.03
2015 04 09 07 15 02 .77      -2    -30      1     31     32 184.5   2.9  33224  273.93 0865.03
2015 04 09 07 15 03 .02       2    -40      7     41     42 176.4  10.1  33218  273.82 0865.02
2015 04 09 07 15 03 .27      -1    -30      6     31     32 182.6  11.1  33222  273.88 0865.02
2015 04 09 07 15 03 .52      -4    -34     19     35     39 188.0  31.4  33218  273.83 0865.02
2015 04 09 07 15 03 .77       0    -34     17     35     38 179.1  27.2  33214  273.77 0865.02
2015 04 09 07 15 04 .02      -8    -35     21     36     41 193.4  32.4  33214  273.77 0865.02
2015 04 09 07 15 04 .27      -8    -40     14     41     44 192.5  18.9  33214  273.75 0865.02
2015 04 09 07 15 04 .52      -8    -40     14     41     44 192.5  18.9  33214  273.75 0865.02
2015 04 09 07 15 04 .77     -11    -34     15     36     39 198.7  21.0  33216  273.80 0865.02
2015 04 09 07 15 05 .02      -2    -38     22     39     44 184.4  32.4  33214  273.77 0865.02
2015 04 09 07 15 05 .27      -2    -38     22     39     44 184.4  32.4  33218  273.82 0865.02
2015 04 09 07 15 05 .52      -3    -34     26     35     43 186.2  40.7  33218  273.82 0865.02
2015 04 09 07 15 05 .78      -4    -34     32     35     47 188.0  47.9  33214  273.75 0865.03
2015 04 09 07 15 06 .02      -2    -37     21     38     43 184.5  31.4  33212  273.72 0865.03
2015 04 09 07 15 06 .28      -5    -41     19     42     46 188.0  25.1  33214  273.75 0865.03
2015 04 09 07 15 06 .54      -4    -34     19     35     39 188.0  31.4  33210  273.70 0865.03
2015 04 09 07 15 06 .79     -12    -39     12     42     44 197.8  16.3  33210  273.68 0865.03
2015 04 09 07 15 07 .04     -12    -38      6     40     41 197.8   9.0  33214  273.75 0865.03
2015 04 09 07 15 07 .29     -10    -42     13     44     47 193.4  17.3  33220  273.87 0865.03
2015 04 09 07 15 07 .54      -9    -41      0     42     43 192.5  -0.3  33212  273.73 0865.03
2015 04 09 07 15 07 .79      -2    -44      0     45     46 182.7   0.8  33210  273.70 0865.03
2015 04 09 07 15 08 .04       0    -40     11     41     43 180.9  15.3  33212  273.73 0865.03
2015 04 09 07 15 08 .29     -13    -40      9     43     45 198.5  12.2  33216  273.78 0865.03
2015 04 09 07 15 08 .54     -11    -33      1     35     36 198.7   2.8  33210  273.68 0865.03
2015 04 09 07 15 08 .79      -4    -33     -1     34     35 188.0  -2.2  33212  273.72 0865.03
2015 04 09 07 15 09 .05       0    -44     -1     45     46 180.9  -2.2  33208  273.67 0865.03
2015 04 09 07 15 09 .29      -2    -37      0     38     39 184.4   0.8  33214  273.75 0865.03
2015 04 09 07 15 09 .54      -2    -36     -4     37     38 184.5  -7.2  33208  273.67 0865.03
2015 04 09 07 15 09 .80      -7    -36     -2     37     38 191.5  -3.1  33210  273.70 0865.03
2015 04 09 07 15 10 .04      -3    -34     -1     35     36 186.2  -2.2  33214  273.77 0865.03
2015 04 09 07 15 10 .29      -2    -29      9     30     32 184.5  17.3  33218  273.82 0865.03
2015 04 09 07 15 10 .55       0    -26     11     27     29 180.9  21.0  33218  273.83 0865.03
2015 04 09 07 15 10 .80       2    -26     16     27     31 175.5  33.5  33222  273.90 0865.03
2015 04 09 07 15 11 .05       7    -21      8     23     25 160.0  18.9  33220  273.87 0865.03
2015 04 09 07 15 11 .30       2    -26     16     27     31 175.5  33.5  33222  273.90 0865.03
2015 04 09 07 15 11 .55       0    -22     19     23     29 179.1  43.7  33228  274.00 0865.03
2015 04 09 07 15 11 .80       0    -22     19     23     29 179.1  43.7  33228  274.00 0865.03
2015 04 09 07 15 12 .05       0    -23     13     24     27 180.9  31.4  33226  273.97 0865.03
2015 04 09 07 15 12 .30      -1    -23     15     24     28 184.5  35.5  33228  273.98 0865.03
2015 04 09 07 15 12 .55       1    -15     20     16     25 175.6  56.4  33228  273.98 0865.03
2015 04 09 07 15 12 .80       6    -18     19     20     27 161.7  52.0  33218  273.83 0865.03
2015 04 09 07 15 13 .05       8    -15     16     18     24 151.0  50.0  33206  273.64 0865.02
2015 04 09 07 15 13 .30       7    -23     16     25     29 161.5  35.5  33206  273.64 0865.02
2015 04 09 07 15 13 .56       6    -18     13     20     23 161.3  35.5  33208  273.67 0865.02
2015 04 09 07 15 13 .81       3    -22     11     23     25 170.2  27.2  33208  273.65 0865.02
2015 04 09 07 15 14 .06       1    -18     15     19     24 175.5  43.7  33210  273.68 0865.02
2015 04 09 07 15 14 .32      -2    -26     17     27     31 184.5  35.5  33214  273.77 0865.02
2015 04 09 07 15 14 .56       7    -26     19     27     33 164.9  39.7  33212  273.73 0865.02
2015 04 09 07 15 14 .82       7    -23     16     25     29 161.5  35.5  33206  273.64 0865.02
2015 04 09 07 15 15 .07       7    -33     15     34     37 166.6  25.1  33210  273.68 0865.02
2015 04 09 07 15 15 .32       7    -26     14     27     30 164.9  29.3  33206  273.62 0865.02
2015 04 09 07 15 15 .57       0    -30     13     31     33 180.9  23.0  33212  273.72 0865.02
2015 04 09 07 15 15 .82       0    -30     13     31     33 180.9  23.0  33214  273.77 0865.02
2015 04 09 07 15 16 .07      -6    -26     13     27     29 193.4  27.3  33220  273.87 0865.02
2015 04 09 07 15 16 .32       2    -25      9     26     28 175.5  19.4  33218  273.82 0865.02
2015 04 09 07 15 16 .57       2    -34     15     35     38 175.6  23.0  33212  273.73 0865.02
2015 04 09 07 15 16 .82       2    -35     12     36     39 175.5  19.4  33210  273.68 0865.02
2015 04 09 07 15 17 .07       2    -25      9     26     28 175.5  19.2  33208  273.67 0865.02
2015 04 09 07 15 17 .32       7    -26     14     27     30 164.9  29.3  33206  273.62 0865.02
2015 04 09 07 15 17 .57       2    -26     16     27     31 175.5  33.5  33204  273.60 0865.02
2015 04 09 07 15 17 .82       0    -26     11     27     29 180.9  21.0  33204  273.60 0865.02
2015 04 09 07 15 18 .07      -1    -21     15     22     26 184.5  35.6  33204  273.59 0865.02
2015 04 09 07 15 18 .32       0    -26     11     27     29 180.9  21.0  33204  273.60 0865.02
2015 04 09 07 15 18 .57       2    -25      9     26     28 175.5  19.2  33206  273.62 0865.02
2015 04 09 07 15 18 .82       0    -25      9     26     28 179.1  19.2  33202  273.55 0865.02
2015 04 09 07 15 19 .07      -3    -22      8     23     25 188.0  18.9  33200  273.52 0865.02
2015 04 09 07 15 19 .33      -6    -17      6     19     21 198.7  19.2  33202  273.55 0865.02
2015 04 09 07 15 19 .58      -7    -22      2     24     25 198.5   4.9  33206  273.62 0865.02
2015 04 09 07 15 19 .83      -3    -22      1     23     24 189.8   2.9  33204  273.60 0865.02
2015 04 09 07 15 20 .08       0    -17      0     18     19 182.7  -2.2  33212  273.73 0865.02
2015 04 09 07 15 20 .33      -6    -17      6     19     21 198.7  19.2  33214  273.75 0865.02
2015 04 09 07 15 20 .59     -10    -19      9     22     23 207.2  21.0  33212  273.72 0865.02
2015 04 09 07 15 20 .84     -10    -19      9     22     23 207.2  21.0  33212  273.72 0865.02
2015 04 09 07 15 21 .09      -7    -23     11     25     27 198.5  25.1  33216  273.78 0865.02
2015 04 09 07 15 21 .34      -2    -21     16     22     27 186.2  39.7  33218  273.83 0865.02
2015 04 09 07 15 21 .59      -2    -21     16     22     27 186.2  39.7  33218  273.83 0865.02
2015 04 09 07 15 21 .84      -4    -23     15     24     28 189.8  35.5  33222  273.88 0865.02
2015 04 09 07 15 22 .09      -4    -26     20     27     33 189.8  41.7  33232  274.05 0865.02
2015 04 09 07 15 22 .34      -6    -31     17     32     36 191.6  29.3  33232  274.06 0865.02
2015 04 09 07 15 22 .59      -6    -31     17     32     36 191.6  29.3  33232  274.06 0865.02
2015 04 09 07 15 22 .84      -9    -27     16     29     33 198.5  31.4  33230  274.03 0865.02
2015 04 09 07 15 23 .09       0    -27     17     28     32 180.9  35.5  33230  274.01 0865.02
2015 04 09 07 15 23 .34      -1    -31     15     32     35 182.7  27.2  33230  274.03 0865.02
2015 04 09 07 15 23 .60      -7    -31      5     32     33 193.4   9.0  33226  273.95 0865.02
2015 04 09 07 15 23 .85     -16    -26      6     31     32 212.5  11.1  33222  273.88 0865.02
2015 04 09 07 15 24 .10     -14    -30      1     34     35 205.4   2.9  33222  273.88 0865.02
2015 04 09 07 15 24 .35      -8    -26      7     28     30 198.5  15.3  33224  273.92 0865.02
2015 04 09 07 15 24 .60      -3    -18     13     19     23 191.6  39.7  33224  273.92 0865.02
2015 04 09 07 15 24 .85      -8    -23     11     25     27 198.7  25.1  33222  273.88 0865.02
2015 04 09 07 15 25 .10      -4    -26     13     27     29 189.8  27.3  33224  273.92 0865.02
2015 04 09 07 15 25 .35     -14    -18      4     23     24 217.8  11.1  33214  273.77 0865.02
2015 04 09 07 15 25 .60     -10    -16      0     19     20 212.6  -1.3  33214  273.77 0865.02
2015 04 09 07 15 25 .85      -8    -26      1     28     29 198.5   2.9  33220  273.85 0865.02
2015 04 09 07 15 26 .10     -10    -22      8     25     27 203.6  17.3  33222  273.88 0865.02
2015 04 09 07 15 26 .35     -10    -30      6     32     33 198.3  11.1  33224  273.93 0865.02
2015 04 09 07 15 26 .60      -1    -26      4     27     28 182.7   9.0  33224  273.92 0865.02
2015 04 09 07 15 26 .86      -2    -23      1     24     25 186.2   2.9  33222  273.88 0865.02
2015 04 09 07 15 27 .10       0    -22      0     23     24 180.9  -2.2  33220  273.87 0865.02
2015 04 09 07 15 27 .35       0    -21      0     22     23 179.1  -1.3  33218  273.82 0865.02
2015 04 09 07 15 27 .61       6    -15     -2     17     18 158.2  -7.3  33216  273.80 0865.02
2015 04 09 07 15 27 .87       0    -20     -6     21     23 179.1 -17.6  33218  273.83 0865.02
2015 04 09 07 15 28 .12       0    -20     -6     21     23 179.1 -17.6  33218  273.83 0865.02
2015 04 09 07 15 28 .37       0    -20     -6     21     23 179.1 -17.6  33218  273.83 0865.02
2015 04 09 07 15 28 .62       5    -23     -7     24     25 166.6 -21.7  33220  273.87 0865.02
2015 04 09 07 15 28 .87       6    -25     -6     26     27 164.9 -13.4  33216  273.80 0865.02
2015 04 09 07 15 29 .12       2    -19     -9     20     21 173.8 -29.5  33216  273.80 0865.02
2015 04 09 07 15 29 .37       0    -20     -6     21     23 179.1 -17.6  33218  273.83 0865.02
2015 04 09 07 15 29 .62       5    -23     -7     24     25 166.6 -21.7  33218  273.82 0865.02
2015 04 09 07 15 29 .87       2    -26     -3     27     28 175.5  -7.3  33224  273.92 0865.02
2015 04 09 07 15 30 .12       0    -26     -7     27     27 180.9 -21.7  33224  273.92 0865.02
2015 04 09 07 15 30 .37       7    -25     -1     27     28 163.1  -2.2  33224  273.92 0865.03
2015 04 09 07 15 30 .62       2    -26     -3     27     28 175.5  -7.3  33220  273.87 0865.03
2015 04 09 07 15 30 .87       9    -26     -1     28     29 160.0  -2.2  33216  273.80 0865.03
2015 04 09 07 15 31 .12       8    -22    -10     24     26 160.0 -27.4  33204  273.60 0865.03
2015 04 09 07 15 31 .38       1    -18     -9     19     21 175.5 -31.6  33204  273.59 0865.03
2015 04 09 07 15 31 .62       6    -10      0     13     14 147.5  -2.2  33202  273.57 0865.03
2015 04 09 07 15 31 .88       7     -3      7      8     10 115.3  47.9  33202  273.55 0865.03
2015 04 09 07 15 32 .13      10     -5      4     12     13 115.3  18.9  33208  273.67 0865.02
2015 04 09 07 15 32 .38       0     -6      0      7      8 182.7  -2.2  33206  273.62 0865.02
2015 04 09 07 15 32 .63      10    -18     -1     21     22 149.3  -3.1  33204  273.59 0865.02
2015 04 09 07 15 32 .88      -1    -17     -2     18     19 184.4  -7.2  33204  273.60 0865.02
2015 04 09 07 15 33 .13       5    -22      4     23     24 166.6  11.1  33202  273.57 0865.02
2015 04 09 07 15 33 .38       6    -25     -6     26     27 164.9 -13.4  33206  273.64 0865.02
2015 04 09 07 15 33 .63       7    -21     -3     23     24 160.0  -9.3  33214  273.77 0865.02
2015 04 09 07 15 33 .88       6    -18     -6     20     21 160.0 -17.6  33216  273.78 0865.02
2015 04 09 07 15 34 .13       3    -21      0     22     23 170.2  -2.2  33212  273.73 0865.02
2015 04 09 07 15 34 .39       1    -17     -2     18     19 175.5  -7.3  33214  273.77 0865.02
2015 04 09 07 15 34 .64       7    -22      1     24     25 161.5   2.9  33214  273.75 0865.02
2015 04 09 07 15 34 .89       7    -22      1     24     25 161.5   2.9  33214  273.75 0865.02
2015 04 09 07 15 35 .14      10    -19      5     22     23 152.8  13.2  33214  273.77 0865.02
2015 04 09 07 15 35 .39      10    -19      5     22     23 152.8  13.2  33214  273.77 0865.02
2015 04 09 07 15 35 .64       9    -16      9     19     21 151.0  27.2  33212  273.72 0865.02
2015 04 09 07 15 35 .89       9    -16      9     19     21 151.0  27.2  33212  273.72 0865.02
2015 04 09 07 15 36 .14       9    -16      9     19     21 151.0  27.2  33212  273.72 0865.02
2015 04 09 07 15 36 .39       6    -11      7     13     14 151.0  35.5  33210  273.68 0865.02
2015 04 09 07 15 36 .65       6    -18     13     20     23 161.3  35.5  33212  273.72 0865.02
2015 04 09 07 15 36 .90      13    -21     13     26     29 147.5  27.2  33218  273.82 0865.02
2015 04 09 07 15 37 .15      12    -37     -1     40     41 161.7  -2.2  33218  273.82 0865.02
2015 04 09 07 15 37 .40      14    -36      0     39     40 158.2   0.8  33206  273.64 0865.02
2015 04 09 07 15 37 .65      10    -38      8     40     41 164.9  12.2  33208  273.67 0865.02
2015 04 09 07 15 37 .90      15    -43     -5     46     47 160.0  -7.2  33212  273.72 0865.02
2015 04 09 07 15 38 .15      13    -30     -1     33     34 156.4  -2.2  33214  273.77 0865.02
2015 04 09 07 15 38 .40       9    -26     -2     28     29 160.0  -5.2  33214  273.75 0865.02
2015 04 09 07 15 38 .65       9    -25     -9     27     29 160.0 -19.7  33208  273.67 0865.02
2015 04 09 07 15 38 .90      16    -26     -4     31     32 147.5  -7.3  33212  273.72 0865.02
2015 04 09 07 15 39 .15       9    -32    -10     34     35 163.1 -23.8  33212  273.73 0865.02
2015 04 09 07 15 39 .40       3    -30    -11     31     33 173.8 -19.7  33214  273.77 0865.02
2015 04 09 07 15 39 .65       3    -30    -11     31     33 173.8 -19.7  33214  273.77 0865.02
2015 04 09 07 15 39 .90      13    -31    -11     34     35 156.4 -23.8  33206  273.62 0865.02
2015 04 09 07 15 40 .15      16    -36    -10     40     42 156.4 -14.5  33196  273.47 0865.02
2015 04 09 07 15 40 .40      16    -36    -10     40     42 156.4 -14.5  33196  273.47 0865.02
2015 04 09 07 15 40 .65      16    -36    -10     40     42 156.4 -14.5  33196  273.47 0865.02
2015 04 09 07 15 40 .90      12    -38     -8     41     42 161.5 -11.3  33196  273.45 0865.02
2015 04 09 07 15 41 .15      23    -41     -8     48     49 151.0 -10.3  33194  273.42 0865.02
2015 04 09 07 15 41 .42      16    -46     -9     49     50 160.8 -11.3  33190  273.37 0865.02
2015 04 09 07 15 41 .67      16    -46     -9     49     50 160.8 -11.3  33190  273.37 0865.02
2015 04 09 07 15 41 .92      16    -46     -9     49     50 160.8 -11.3  33190  273.37 0865.02
2015 04 09 07 15 42 .17      16    -46     -9     49     50 160.8 -11.3  33190  273.37 0865.02
2015 04 09 07 15 42 .42      18    -56     -7     60     61 161.7  -7.3  33194  273.44 0865.02
2015 04 09 07 15 42 .67      20    -54     -5     58     59 159.1  -5.2  33194  273.42 0865.02
2015 04 09 07 15 42 .92      17    -53     -3     56     57 161.3  -3.1  33192  273.40 0865.02
2015 04 09 07 15 43 .17      20    -54     -5     58     59 159.1  -5.2  33190  273.37 0865.02
2015 04 09 07 15 43 .42      18    -49     -2     53     54 159.1  -2.2  33194  273.42 0865.02
2015 04 09 07 15 43 .67      18    -49     -2     53     54 159.1  -2.2  33194  273.42 0865.02
2015 04 09 07 15 43 .92      21    -46      0     51     52 154.5  -0.3  33192  273.39 0865.02
2015 04 09 07 15 44 .17      15    -49      0     52     53 162.2  -0.3  33196  273.45 0865.02
2015 04 09 07 15 44 .42      16    -47     -2     50     51 160.8  -3.1  33194  273.44 0865.02
2015 04 09 07 15 44 .67      13    -45     -1     48     49 163.1  -2.2  33196  273.47 0865.02
2015 04 09 07 15 44 .92      16    -47     -2     50     51 160.8  -3.1  33192  273.40 0865.02
2015 04 09 07 15 45 .18      16    -46     -9     49     50 160.8 -11.3  33190  273.37 0865.02
2015 04 09 07 15 45 .43      15    -43     -5     46     47 160.0  -7.2  33194  273.42 0865.02
2015 04 09 07 15 45 .68      15    -43     -5     46     47 160.0  -7.2  33194  273.42 0865.02
2015 04 09 07 15 45 .93      18    -38     -1     43     44 154.6  -2.2  33192  273.39 0865.02
2015 04 09 07 15 46 .18      18    -38     -1     43     44 154.6  -2.2  33192  273.39 0865.02
2015 04 09 07 15 46 .43      15    -43     -5     46     47 160.0  -7.2  33194  273.42 0865.02
2015 04 09 07 15 46 .68      21    -39     -4     45     46 151.0  -5.2  33192  273.40 0865.02
2015 04 09 07 15 46 .93      15    -33      1     37     38 154.7   2.8  33198  273.50 0865.02
2015 04 09 07 15 47 .18      16    -34      1     38     39 154.6   2.9  33196  273.45 0865.02
2015 04 09 07 15 47 .43       9    -41     -1     43     44 166.6  -2.2  33198  273.50 0865.03
2015 04 09 07 15 47 .68      15    -43     -5     46     47 160.0  -7.2  33194  273.42 0865.03
2015 04 09 07 15 47 .93      15    -43     -5     46     47 160.0  -7.2  33194  273.42 0865.03
2015 04 09 07 15 48 .18      16    -47     -2     50     51 160.8  -3.1  33194  273.44 0865.03
2015 04 09 07 15 48 .44      14    -46     -6     49     50 162.2  -7.3  33192  273.40 0865.03
2015 04 09 07 15 48 .69      14    -46     -6     49     50 162.2  -7.3  33192  273.40 0865.03
2015 04 09 07 15 48 .94       8    -43    -11     44     46 169.3 -14.5  33196  273.45 0865.03
2015 04 09 07 15 49 .19      15    -47    -13     50     52 161.5 -14.5  33194  273.44 0865.03
2015 04 09 07 15 49 .44      18    -48    -14     52     54 159.1 -15.4  33194  273.42 0865.02
2015 04 09 07 15 49 .70      19    -43     -7     48     49 156.4  -8.2  33194  273.44 0865.02
2015 04 09 07 15 49 .95      22    -55     -5     60     61 158.2  -5.2  33200  273.52 0865.02
2015 04 09 07 15 50 .20      31    -48     -5     58     59 147.5  -5.2  33202  273.57 0865.02
2015 04 09 07 15 50 .45      31    -48     -5     58     59 147.5  -5.2  33202  273.57 0865.02
2015 04 09 07 15 50 .70      21    -46     -4     51     52 154.6  -5.2  33196  273.47 0865.02
2015 04 09 07 15 50 .95      18    -56     -7     60     61 161.7  -7.3  33192  273.40 0865.02
2015 04 09 07 15 51 .20      20    -59    -11     63     65 160.8 -10.3  33192  273.39 0865.03
2015 04 09 07 15 51 .45      16    -60    -17     63     66 164.9 -15.5  33192  273.40 0865.03
2015 04 09 07 15 51 .70      10    -55    -16     56     59 169.3 -16.6  33198  273.49 0865.03
2015 04 09 07 15 51 .95      12    -58    -15     60     62 168.4 -14.5  33202  273.57 0865.03
2015 04 09 07 15 52 .20      10    -55    -16     56     59 169.3 -16.6  33198  273.49 0865.03
2015 04 09 07 15 52 .45      12    -59    -16     61     64 168.4 -14.5  33196  273.47 0865.03
2015 04 09 07 15 52 .70      15    -55    -20     58     62 164.9 -19.6  33194  273.42 0865.03
2015 04 09 07 15 52 .95       7    -54    -16     55     57 172.0 -21.7  33196  273.47 0865.03
2015 04 09 07 15 53 .20      10    -46    -17     48     51 167.5 -19.7  33188  273.34 0865.03
2015 04 09 07 15 53 .46      11    -54    -16     56     59 168.4 -16.6  33186  273.31 0865.03
2015 04 09 07 15 53 .70      16    -50    -16     53     55 162.2 -22.8  33190  273.37 0865.03
2015 04 09 07 15 53 .95      15    -47    -14     50     51 161.7 -20.7  33188  273.34 0865.03
2015 04 09 07 15 54 .20      13    -43    -14     46     49 163.1 -16.6  33188  273.32 0865.03
2015 04 09 07 15 54 .46      13    -43    -14     46     49 163.1 -16.6  33188  273.32 0865.03
2015 04 09 07 15 54 .71      17    -53    -10     56     57 161.3 -10.3  33188  273.32 0865.03
2015 04 09 07 15 54 .96      13    -43    -14     46     49 163.1 -16.6  33188  273.32 0865.03
2015 04 09 07 15 55 .22      13    -43    -14     46     49 163.1 -16.6  33188  273.32 0865.03
2015 04 09 07 15 55 .47      13    -43    -14     46     49 163.1 -16.6  33188  273.32 0865.03
2015 04 09 07 15 55 .72      10    -46    -17     48     51 167.5 -19.7  33188  273.34 0865.03
2015 04 09 07 15 55 .97      18    -48    -14     52     54 159.1 -15.4  33194  273.42 0865.03
2015 04 09 07 15 56 .22      18    -48    -14     52     54 159.1 -15.4  33194  273.42 0865.03
2015 04 09 07 15 56 .47      17    -52    -16     55     58 161.3 -16.6  33192  273.39 0865.03
2015 04 09 07 15 56 .72      16    -50    -16     53     55 162.2 -22.8  33190  273.37 0865.03
2015 04 09 07 15 56 .97      18    -48    -14     52     54 159.1 -15.4  33194  273.42 0865.03
2015 04 09 07 15 57 .22      17    -52    -16     55     58 161.3 -16.6  33192  273.39 0865.03
2015 04 09 07 15 57 .47      13    -52    -15     54     57 165.7 -15.4  33190  273.37 0865.03
2015 04 09 07 15 57 .72      14    -55    -11     57     59 164.9 -11.3  33190  273.36 0865.03
2015 04 09 07 15 57 .97      10    -53    -12     54     56 169.3 -12.4  33192  273.39 0865.03
2015 04 09 07 15 58 .22      10    -53    -12     54     56 169.3 -12.4  33192  273.39 0865.03
2015 04 09 07 15 58 .48       8    -43    -11     44     46 169.3 -14.5  33192  273.39 0865.03
2015 04 09 07 15 58 .73      12    -42    -15     44     47 163.1 -18.7  33196  273.47 0865.03
2015 04 09 07 15 58 .98       9    -47    -10     49     51 168.4 -12.4  33202  273.57 0865.03
2015 04 09 07 15 59 .23       9    -47    -10     49     51 168.4 -12.4  33202  273.57 0865.03
2015 04 09 07 15 59 .48       9    -45     -5     46     47 168.4  -7.2  33208  273.67 0865.03
2015 04 09 07 15 59 .73      10    -40     -2     42     43 164.9  -3.1  33202  273.55 0865.03
2015 04 09 07 15 59 .98      13    -39    -11     42     44 160.8 -15.5  33194  273.44 0865.03
2015 04 09 07 16 00 .23      12    -42    -15     44     47 163.1 -18.7  33194  273.42 0865.03
2015 04 09 07 16 00 .48       9    -41     -8     43     44 166.6 -11.3  33196  273.47 0865.03
2015 04 09 07 16 00 .73      12    -38     -8     41     42 161.5 -11.3  33196  273.45 0865.03
2015 04 09 07 16 00 .98      18    -38     -1     43     44 154.6  -2.2  33192  273.39 0865.03
2015 04 09 07 16 01 .24      12    -37     -1     40     41 161.7  -2.2  33200  273.52 0865.04
2015 04 09 07 16 01 .48       7    -38     -4     39     40 168.4  -6.2  33196  273.47 0865.04
2015 04 09 07 16 01 .73      16    -34     -4     38     39 154.6  -7.3  33190  273.37 0865.04
2015 04 09 07 16 01 .98      10    -32     -9     34     36 161.3 -15.5  33194  273.42 0865.04
2015 04 09 07 16 02 .24      16    -34     -4     38     39 154.6  -7.3  33190  273.37 0865.04
2015 04 09 07 16 02 .49      22    -39     -4     45     46 150.1  -6.2  33194  273.42 0865.04
2015 04 09 07 16 02 .75      21    -46      0     51     52 154.6   0.8  33202  273.55 0865.04
2015 04 09 07 16 03 .00      21    -46      0     51     52 154.6   0.8  33202  273.55 0865.03
2015 04 09 07 16 03 .25      25    -53     -7     59     60 154.6  -7.3  33192  273.40 0865.03
2015 04 09 07 16 03 .50      25    -53     -7     59     60 154.6  -7.3  33192  273.40 0865.03
2015 04 09 07 16 03 .75      26    -56     -8     62     63 154.6  -7.3  33204  273.60 0865.03
2015 04 09 07 16 04 .00      30    -45     -9     55     56 145.7 -10.3  33218  273.82 0865.03
2015 04 09 07 16 04 .25      32    -54    -10     63     64 149.3  -9.3  33220  273.87 0865.03
2015 04 09 07 16 04 .50      26    -61     -8     67     68 156.4  -7.3  33226  273.95 0865.03
2015 04 09 07 16 04 .75      15    -56     -3     59     60 164.9  -3.2  33218  273.82 0865.03
2015 04 09 07 16 05 .00      17    -53    -10     56     57 161.3 -10.3  33188  273.32 0865.03
2015 04 09 07 16 05 .25      14    -46     -6     49     50 162.2  -7.3  33192  273.40 0865.03
2015 04 09 07 16 05 .50      14    -46     -6     49     50 162.2  -7.3  33192  273.40 0865.03
2015 04 09 07 16 05 .75      18    -38     -1     43     44 154.6  -2.2  33192  273.39 0865.03
2015 04 09 07 16 06 .00      16    -34     -4     38     39 154.6  -7.3  33190  273.37 0865.03
2015 04 09 07 16 06 .25      16    -34     -4     38     39 154.6  -7.3  33190  273.37 0865.03
2015 04 09 07 16 06 .50      16    -34     -4     38     39 154.6  -7.3  33190  273.37 0865.03
2015 04 09 07 16 06 .75      16    -36     -8     40     41 155.5 -12.4  33188  273.32 0865.03
2015 04 09 07 16 07 .01      23    -41     -8     48     49 151.0 -10.3  33194  273.42 0865.03
2015 04 09 07 16 07 .25      15    -43     -5     46     47 160.0  -7.2  33194  273.42 0865.03
2015 04 09 07 16 07 .51      15    -43     -5     46     47 160.0  -7.2  33194  273.42 0865.03
2015 04 09 07 16 07 .76      15    -43     -5     46     47 160.0  -7.2  33194  273.42 0865.03
2015 04 09 07 16 08 .01      18    -38     -1     43     44 154.6  -2.2  33192  273.39 0865.03
2015 04 09 07 16 08 .26      20    -42     -1     47     48 153.7  -2.2  33190  273.37 0865.04
2015 04 09 07 16 08 .51      15    -43     -5     46     47 160.0  -7.2  33194  273.42 0865.04
2015 04 09 07 16 08 .76      15    -43     -5     46     47 160.0  -7.2  33194  273.42 0865.04
2015 04 09 07 16 09 .01      15    -43     -5     46     47 160.0  -7.2  33194  273.42 0865.04
2015 04 09 07 16 09 .27      18    -38     -1     43     44 154.6  -2.2  33192  273.39 0865.04
2015 04 09 07 16 09 .52      16    -47     -2     50     51 160.8  -3.1  33192  273.40 0865.04
2015 04 09 07 16 09 .77      16    -47     -2     50     51 160.8  -3.1  33192  273.40 0865.04
2015 04 09 07 16 10 .02      18    -38     -1     43     44 154.6  -2.2  33192  273.39 0865.04
2015 04 09 07 16 10 .27      15    -43     -5     46     47 160.0  -7.2  33194  273.42 0865.03
2015 04 09 07 16 10 .52      15    -43     -5     46     47 160.0  -7.2  33194  273.42 0865.03
2015 04 09 07 16 10 .77      15    -43     -5     46     47 160.0  -7.2  33194  273.42 0865.03
2015 04 09 07 16 11 .02      15    -43     -5     46     47 160.0  -7.2  33194  273.42 0865.03
2015 04 09 07 16 11 .28      15    -43     -5     46     47 160.0  -7.2  33194  273.42 0865.03
2015 04 09 07 16 11 .53      15    -43     -5     46     47 160.0  -7.2  33194  273.42 0865.03
2015 04 09 07 16 11 .78      19    -43     -7     48     49 156.4  -8.2  33194  273.44 0865.03
2015 04 09 07 16 12 .03      22    -39     -4     45     46 150.1  -6.2  33194  273.42 0865.04
2015 04 09 07 16 12 .28      18    -38     -1     43     44 154.6  -2.2  33192  273.39 0865.04
2015 04 09 07 16 12 .53      18    -38     -1     43     44 154.6  -2.2  33192  273.39 0865.04
2015 04 09 07 16 12 .78      18    -38     -1     43     44 154.6  -2.2  33192  273.39 0865.04
2015 04 09 07 16 13 .03      18    -38     -1     43     44 154.6  -2.2  33192  273.39 0865.04
2015 04 09 07 16 13 .28      18    -38     -1     43     44 154.6  -2.2  33192  273.39 0865.04
2015 04 09 07 16 13 .53      20    -42     -1     47     48 153.7  -2.2  33190  273.37 0865.04
2015 04 09 07 16 13 .78      20    -42     -1     47     48 153.7  -2.2  33190  273.37 0865.04
2015 04 09 07 16 14 .03      18    -38     -1     43     44 154.6  -2.2  33192  273.39 0865.04
2015 04 09 07 16 14 .28      20    -42     -1     47     48 153.7  -2.2  33190  273.37 0865.04
2015 04 09 07 16 14 .53      20    -42     -1     47     48 153.7  -2.2  33190  273.37 0865.04
2015 04 09 07 16 14 .78      18    -38     -1     43     44 154.6  -2.2  33192  273.39 0865.03
2015 04 09 07 16 15 .03      25    -42     -1     49     50 149.3  -2.2  33190  273.36 0865.03
2015 04 09 07 16 15 .28      25    -42     -1     49     50 149.3  -2.2  33190  273.36 0865.03
2015 04 09 07 16 15 .53      20    -42     -1     47     48 153.7  -2.2  33190  273.37 0865.03
2015 04 09 07 16 15 .79      20    -42     -1     47     48 153.7  -2.2  33190  273.37 0865.03
2015 04 09 07 16 16 .04      18    -38     -1     43     44 154.6  -2.2  33192  273.39 0865.03
2015 04 09 07 16 16 .30      18    -38     -1     43     44 154.6  -2.2  33192  273.39 0865.03
2015 04 09 07 16 16 .55      20    -42     -1     47     48 153.7  -2.2  33190  273.37 0865.03
2015 04 09 07 16 16 .80      14    -46     -6     49     50 162.2  -7.3  33192  273.40 0865.03
2015 04 09 07 16 17 .05       9    -45     -5     46     47 168.4  -7.2  33190  273.37 0865.03
2015 04 09 07 16 17 .30      14    -41      0     44     45 160.8   0.8  33188  273.34 0865.03
2015 04 09 07 16 17 .55      14    -41      0     44     45 160.8   0.8  33188  273.34 0865.03
2015 04 09 07 16 17 .80      14    -36      0     39     40 158.2   0.8  33188  273.34 0865.03
2015 04 09 07 16 18 .05      14    -36      0     39     40 158.2   0.8  33188  273.34 0865.03
2015 04 09 07 16 18 .30      15    -34      0     38     39 156.4   0.8  33186  273.29 0865.03
2015 04 09 07 16 18 .55      15    -34      0     38     39 156.4   0.8  33186  273.29 0865.03
2015 04 09 07 16 18 .80      11    -34     -3     36     37 161.3  -5.2  33188  273.34 0865.03
2015 04 09 07 16 19 .05      11    -34     -3     36     37 161.3  -5.2  33188  273.34 0865.03
2015 04 09 07 16 19 .30      11    -34     -3     36     37 161.3  -5.2  33188  273.34 0865.03
2015 04 09 07 16 19 .55      11    -34     -3     36     37 161.3  -5.2  33188  273.34 0865.03
2015 04 09 07 16 19 .80      11    -34     -3     36     37 161.3  -5.2  33188  273.34 0865.03
2015 04 09 07 16 20 .06      11    -34     -3     36     37 161.3  -5.2  33188  273.34 0865.03
2015 04 09 07 16 20 .30      12    -38     -1     41     42 161.5  -2.2  33190  273.37 0865.03
2015 04 09 07 16 20 .56      11    -34     -3     36     37 161.3  -5.2  33188  273.34 0865.03
2015 04 09 07 16 20 .81      12    -38     -1     41     42 161.5  -2.2  33190  273.37 0865.03
2015 04 09 07 16 21 .06      11    -41     -1     43     44 164.9  -2.2  33188  273.34 0865.03
2015 04 09 07 16 21 .31      13    -43     -1     46     47 163.1  -2.2  33188  273.32 0865.03
2015 04 09 07 16 21 .56      14    -41      0     44     45 160.8   0.8  33188  273.34 0865.03
2015 04 09 07 16 21 .81      13    -43     -1     46     47 163.1  -2.2  33188  273.32 0865.03
2015 04 09 07 16 22 .06      12    -38     -1     41     42 161.5  -2.2  33190  273.37 0865.03
2015 04 09 07 16 22 .31      12    -38     -1     41     42 161.5  -2.2  33190  273.37 0865.03
2015 04 09 07 16 22 .56      18    -38     -1     43     44 154.6  -2.2  33192  273.39 0865.03
2015 04 09 07 16 22 .81      18    -38     -1     43     44 154.6  -2.2  33192  273.39 0865.03
2015 04 09 07 16 23 .07      16    -34     -4     38     39 154.6  -7.3  33190  273.37 0865.03
2015 04 09 07 16 23 .32      16    -34     -4     38     39 154.6  -7.3  33190  273.37 0865.03
2015 04 09 07 16 23 .57      16    -34     -4     38     39 154.6  -7.3  33190  273.37 0865.03
2015 04 09 07 16 23 .82      16    -34     -4     38     39 154.6  -7.3  33190  273.37 0865.03
2015 04 09 07 16 24 .07      16    -34     -4     38     39 154.6  -7.3  33190  273.37 0865.02
2015 04 09 07 16 24 .32      16    -34     -4     38     39 154.6  -7.3  33190  273.37 0865.02
2015 04 09 07 16 24 .57      16    -34     -4     38     39 154.6  -7.3  33190  273.37 0865.02
2015 04 09 07 16 24 .83      20    -32     -4     38     39 147.4  -7.3  33188  273.32 0865.02
2015 04 09 07 16 25 .08      18    -34     -6     39     40 151.0  -9.3  33188  273.34 0865.02
2015 04 09 07 16 25 .33      16    -34     -4     38     39 154.6  -7.3  33190  273.37 0865.02
2015 04 09 07 16 25 .58      16    -34     -4     38     39 154.6  -7.3  33190  273.37 0865.02
2015 04 09 07 16 25 .83      18    -34     -6     39     40 151.0  -9.3  33188  273.34 0865.02
2015 04 09 07 16 26 .08      18    -34     -6     39     40 151.0  -9.3  33188  273.34 0865.02
2015 04 09 07 16 26 .33      18    -34     -6     39     40 151.0  -9.3  33188  273.34 0865.02
2015 04 09 07 16 26 .58      18    -34     -6     39     40 151.0  -9.3  33188  273.34 0865.02
2015 04 09 07 16 26 .83      18    -34     -6     39     40 151.0  -9.3  33188  273.34 0865.02
2015 04 09 07 16 27 .08      16    -34     -4     38     39 154.6  -7.3  33190  273.37 0865.02
2015 04 09 07 16 27 .33      16    -34     -4     38     39 154.6  -7.3  33190  273.37 0865.02
2015 04 09 07 16 27 .58      16    -34     -4     38     39 154.6  -7.3  33190  273.37 0865.03
2015 04 09 07 16 27 .83      16    -34     -4     38     39 154.6  -7.3  33190  273.37 0865.03
2015 04 09 07 16 28 .08      18    -30     -3     36     37 149.3  -5.2  33188  273.34 0865.03
2015 04 09 07 16 28 .33      12    -31     -1     34     35 158.2  -2.2  33188  273.32 0865.03
2015 04 09 07 16 28 .58      12    -31     -1     34     35 158.2  -2.2  33188  273.32 0865.03
2015 04 09 07 16 28 .84      16    -34     -4     38     39 154.6  -7.3  33190  273.37 0865.03
2015 04 09 07 16 29 .09      11    -34     -3     36     37 161.3  -5.2  33188  273.34 0865.03
2015 04 09 07 16 29 .34       8    -30     -4     32     33 164.9  -7.3  33190  273.37 0865.03
2015 04 09 07 16 29 .59       8    -30     -4     32     33 164.9  -7.3  33190  273.37 0865.03
2015 04 09 07 16 29 .84      11    -34     -3     36     37 161.3  -5.2  33188  273.34 0865.03
2015 04 09 07 16 30 .10      11    -34     -3     36     37 161.3  -5.2  33188  273.34 0865.03
2015 04 09 07 16 30 .35       7    -34     -1     35     36 168.4  -2.2  33188  273.32 0865.03
2015 04 09 07 16 30 .60      11    -34     -1     36     37 161.3  -2.2  33188  273.34 0865.03
2015 04 09 07 16 30 .85       0    -29     -1     30     31 180.9  -2.2  33190  273.37 0865.03
2015 04 09 07 16 31 .10       8    -30     -4     32     33 164.9  -7.3  33190  273.37 0865.03
2015 04 09 07 16 31 .35       8    -30     -4     32     33 164.9  -7.3  33190  273.37 0865.03
2015 04 09 07 16 31 .60       8    -30     -4     32     33 164.9  -7.3  33190  273.37 0865.03
2015 04 09 07 16 31 .85      15    -26     -5     31     32 149.3  -9.3  33190  273.37 0865.03
2015 04 09 07 16 32 .10      12    -31     -1     34     35 158.2  -2.2  33188  273.32 0865.03
2015 04 09 07 16 32 .36      19    -30     -3     36     37 147.5  -5.2  33192  273.39 0865.03
2015 04 09 07 16 32 .60      18    -30      3     36     37 149.3   4.9  33190  273.37 0865.03
2015 04 09 07 16 32 .86      13    -30     -1     33     34 156.4  -2.2  33196  273.47 0865.03
2015 04 09 07 16 33 .10      12    -31      6     34     35 158.2  11.1  33192  273.40 0865.03
2015 04 09 07 16 33 .36      18    -34      5     39     40 151.0   8.0  33192  273.39 0865.03
2015 04 09 07 16 33 .61      11    -34     12     36     39 161.3  19.4  33198  273.49 0865.03
2015 04 09 07 16 33 .86       6    -32      6     33     34 168.4  11.1  33198  273.49 0865.03
2015 04 09 07 16 34 .11       9    -41      3     43     44 166.6   4.9  33196  273.47 0865.03
2015 04 09 07 16 34 .36      12    -38     -1     41     42 161.5  -2.2  33190  273.37 0865.03
2015 04 09 07 16 34 .61      12    -38     -1     41     42 161.5  -2.2  33190  273.37 0865.03
2015 04 09 07 16 34 .86      12    -38     -1     41     42 161.5  -2.2  33190  273.37 0865.03
2015 04 09 07 16 35 .11      18    -38     -1     43     44 154.6  -2.2  33192  273.39 0865.03
2015 04 09 07 16 35 .36      18    -38     -1     43     44 154.6  -2.2  33192  273.39 0865.03
2015 04 09 07 16 35 .61      18    -38     -1     43     44 154.6  -2.2  33192  273.39 0865.03
2015 04 09 07 16 35 .86      18    -38     -1     43     44 154.6  -2.2  33192  273.39 0865.03
2015 04 09 07 16 36 .11      18    -38     -1     43     44 154.6  -2.2  33192  273.39 0865.03
2015 04 09 07 16 36 .36      18    -38     -1     43     44 154.6  -2.2  33192  273.39 0865.03
2015 04 09 07 16 36 .61      18    -38     -1     43     44 154.6  -2.2  33192  273.39 0865.03
2015 04 09 07 16 36 .86      18    -38     -1     43     44 154.6  -2.2  33192  273.39 0865.03
2015 04 09 07 16 37 .12      18    -38     -1     43     44 154.6  -2.2  33192  273.39 0865.03
2015 04 09 07 16 37 .37      18    -38     -1     43     44 154.6  -2.2  33192  273.39 0865.03
2015 04 09 07 16 37 .63      16    -34     -4     38     39 154.6  -7.3  33190  273.37 0865.04
2015 04 09 07 16 37 .88      16    -34     -4     38     39 154.6  -7.3  33190  273.37 0865.04
2015 04 09 07 16 38 .13      16    -34     -4     38     39 154.6  -7.3  33190  273.37 0865.04
2015 04 09 07 16 38 .38      16    -34     -4     38     39 154.6  -7.3  33190  273.37 0865.04
2015 04 09 07 16 38 .63      18    -34     -6     39     40 151.0  -9.3  33188  273.34 0865.04
2015 04 09 07 16 38 .88      16    -34     -4     38     39 154.6  -7.3  33190  273.37 0865.04
2015 04 09 07 16 39 .13      18    -38     -1     43     44 154.6  -2.2  33192  273.39 0865.04
2015 04 09 07 16 39 .38      18    -38     -1     43     44 154.6  -2.2  33192  273.39 0865.04
2015 04 09 07 16 39 .63      16    -34     -4     38     39 154.6  -7.3  33190  273.37 0865.04
2015 04 09 07 16 39 .88      16    -34     -4     38     39 154.6  -7.3  33190  273.37 0865.04
2015 04 09 07 16 40 .13      20    -35     -1     41     42 150.1  -2.2  33190  273.37 0865.04
2015 04 09 07 16 40 .38      18    -38     -1     43     44 154.6  -2.2  33192  273.39 0865.04
2015 04 09 07 16 40 .63      18    -38     -1     43     44 154.6  -2.2  33192  273.39 0865.04
2015 04 09 07 16 40 .88      16    -34     -4     38     39 154.6  -7.3  33190  273.37 0865.04
2015 04 09 07 16 41 .13      20    -35     -1     41     42 150.1  -2.2  33190  273.37 0865.04
2015 04 09 07 16 41 .38      21    -32      0     39     40 145.7   0.8  33192  273.40 0865.04
2015 04 09 07 16 41 .63      21    -32      0     39     40 145.7   0.8  33192  273.40 0865.04
2015 04 09 07 16 41 .88      21    -32      0     39     40 145.7   0.8  33192  273.40 0865.04
2015 04 09 07 16 42 .14      21    -32      0     39     40 145.7   0.8  33192  273.40 0865.04
2015 04 09 07 16 42 .39      18    -30      3     36     37 149.3   4.9  33190  273.37 0865.04
2015 04 09 07 16 42 .64      12    -38     -1     41     42 161.5  -2.2  33190  273.37 0865.04
2015 04 09 07 16 42 .89      12    -38     -1     41     42 161.5  -2.2  33190  273.37 0865.04
2015 04 09 07 16 43 .14      12    -38     -1     41     42 161.5  -2.2  33190  273.37 0865.04
2015 04 09 07 16 43 .39      18    -38     -1     43     44 154.6  -2.2  33192  273.39 0865.04
2015 04 09 07 16 43 .64      26    -38     -1     47     48 145.7  -2.2  33196  273.47 0865.04
2015 04 09 07 16 43 .90      22    -39     -4     45     46 150.1  -6.2  33190  273.37 0865.04
2015 04 09 07 16 44 .16      18    -38     -1     43     44 154.6  -2.2  33192  273.39 0865.04
2015 04 09 07 16 44 .40      18    -38     -1     43     44 154.6  -2.2  33192  273.39 0865.04
2015 04 09 07 16 44 .65      18    -38     -1     43     44 154.6  -2.2  33192  273.39 0865.04
2015 04 09 07 16 44 .90      18    -38     -1     43     44 154.6  -2.2  33192  273.39 0865.04
2015 04 09 07 16 45 .15      18    -38     -1     43     44 154.6  -2.2  33192  273.39 0865.04
2015 04 09 07 16 45 .40      15    -43     -5     46     47 160.0  -7.2  33190  273.37 0865.04
2015 04 09 07 16 45 .65      15    -43     -5     46     47 160.0  -7.2  33194  273.42 0865.04
2015 04 09 07 16 45 .90      15    -43     -5     46     47 160.0  -7.2  33194  273.42 0865.04
2015 04 09 07 16 46 .15      15    -43     -5     46     47 160.0  -7.2  33194  273.42 0865.04
2015 04 09 07 16 46 .41      15    -43     -5     46     47 160.0  -7.2  33194  273.42 0865.04
2015 04 09 07 16 46 .66      16    -34     -4     38     39 154.6  -7.3  33190  273.37 0865.04
2015 04 09 07 16 52 .93      19    -30     -3     36     37 147.5  -5.2  33196  273.45 0865.03
2015 04 09 07 16 53 .18      16    -26     -4     31     32 147.5  -7.3  33194  273.42 0865.03
2015 04 09 07 16 53 .43      13    -30     -7     33     34 156.4 -13.4  33192  273.39 0865.03
2015 04 09 07 16 53 .68      13    -30     -7     33     34 156.4 -13.4  33192  273.39 0865.03
2015 04 09 07 16 53 .93      13    -30     -7     33     34 156.4 -13.4  33192  273.39 0865.03
2015 04 09 07 16 54 .18      13    -30     -7     33     34 156.4 -13.4  33192  273.39 0865.03
2015 04 09 07 16 54 .43      13    -30     -7     33     34 156.4 -13.4  33192  273.39 0865.03
2015 04 09 07 16 54 .68      16    -26     -4     31     32 147.5  -7.3  33194  273.42 0865.04
2015 04 09 07 16 54 .93      13    -30     -7     33     34 156.4 -13.4  33192  273.39 0865.04
2015 04 09 07 16 55 .19      13    -30     -7     33     34 156.4 -13.4  33192  273.39 0865.04
2015 04 09 07 16 55 .44      16    -26     -4     31     32 147.5  -7.3  33194  273.42 0865.04
2015 04 09 07 16 55 .69       9    -26     -2     28     29 160.0  -5.2  33196  273.45 0865.04
2015 04 09 07 16 55 .94      15    -26      1     31     32 149.3   2.8  33198  273.50 0865.04
2015 04 09 07 16 56 .19      15    -26      1     31     32 149.3   2.8  33198  273.50 0865.04
2015 04 09 07 16 56 .44      12    -31     -5     34     35 158.2  -9.3  33202  273.55 0865.04
2015 04 09 07 16 56 .69      18    -34     -6     39     40 151.0  -9.3  33194  273.44 0865.04
2015 04 09 07 16 56 .94      16    -26     -4     31     32 147.5  -7.3  33194  273.42 0865.04
2015 04 09 07 16 57 .19      16    -26     -4     31     32 147.5  -7.3  33194  273.42 0865.04
2015 04 09 07 16 57 .44      16    -26     -4     31     32 147.5  -7.3  33194  273.42 0865.04
2015 04 09 07 16 57 .69      16    -26     -4     31     32 147.5  -7.3  33194  273.42 0865.04
2015 04 09 07 16 57 .95      16    -26     -4     31     32 147.5  -7.3  33194  273.42 0865.04
2015 04 09 07 16 58 .20      16    -26     -4     31     32 147.5  -7.3  33194  273.42 0865.04
2015 04 09 07 16 58 .45      16    -26     -4     31     32 147.5  -7.3  33194  273.42 0865.04
2015 04 09 07 16 58 .70      13    -30     -7     33     34 156.4 -13.4  33192  273.39 0865.04
2015 04 09 07 16 58 .95      16    -34     -4     38     39 154.6  -7.3  33190  273.37 0865.04
2015 04 09 07 16 59 .20      16    -34     -4     38     39 154.6  -7.3  33190  273.37 0865.04
2015 04 09 07 16 59 .45      16    -34     -4     38     39 154.6  -7.3  33190  273.37 0865.04
2015 04 09 07 16 59 .70      13    -30     -7     33     34 156.4 -13.4  33192  273.39 0865.04
2015 04 09 07 16 59 .96       8    -30     -4     32     33 164.9  -7.3  33194  273.42 0865.04
2015 04 09 07 17 00 .21      16    -26     -4     31     32 147.5  -7.3  33194  273.42 0865.03
2015 04 09 07 17 00 .46      13    -30     -1     33     34 156.4  -2.2  33196  273.47 0865.03
2015 04 09 07 17 00 .71      13    -30     -1     33     34 156.4  -2.2  33196  273.47 0865.03
2015 04 09 07 17 00 .96       9    -26     -2     28     29 160.0  -5.2  33196  273.45 0865.03
2015 04 09 07 17 01 .21      16    -26     -4     31     32 147.5  -7.3  33194  273.42 0865.03
2015 04 09 07 17 01 .46       9    -26     -2     28     29 160.0  -5.2  33196  273.45 0865.03
2015 04 09 07 17 01 .71       8    -30      1     32     33 164.9   2.9  33196  273.45 0865.03
2015 04 09 07 17 01 .96      16    -21     -1     27     28 142.2  -3.1  33192  273.40 0865.03
2015 04 09 07 17 02 .21      21    -25     -1     33     34 140.4  -2.2  33190  273.37 0865.03
2015 04 09 07 17 02 .46      21    -25     -1     33     34 140.4  -2.2  33190  273.37 0865.03
2015 04 09 07 17 02 .71      16    -21     -1     27     28 142.2  -3.1  33192  273.40 0865.03
2015 04 09 07 17 02 .96      16    -21     -1     27     28 142.2  -3.1  33194  273.44 0865.03
2015 04 09 07 17 03 .22      19    -30     -3     36     37 147.5  -5.2  33192  273.39 0865.03
2015 04 09 07 17 03 .46      16    -21     -1     27     28 142.2  -3.1  33192  273.40 0865.03
2015 04 09 07 17 03 .72      20    -34     -1     40     41 149.3  -2.2  33194  273.42 0865.03
2015 04 09 07 17 03 .97      21    -25     -1     33     34 140.4  -2.2  33194  273.42 0865.03
2015 04 09 07 17 04 .22      15    -26      1     31     32 149.3   2.8  33198  273.50 0865.03
2015 04 09 07 17 04 .47      13    -30     -1     33     34 156.4  -2.2  33196  273.47 0865.03
2015 04 09 07 17 04 .72      15    -26      1     31     32 149.3   2.8  33198  273.50 0865.03
2015 04 09 07 17 04 .98       9    -26     -2     28     29 160.0  -5.2  33196  273.45 0865.03
2015 04 09 07 17 05 .23      15    -26      1     31     32 149.3   2.8  33198  273.50 0865.03
2015 04 09 07 17 05 .48      17    -22      2     28     29 142.2   4.9  33196  273.47 0865.03
2015 04 09 07 17 05 .73      18    -18     -1     26     27 135.0  -2.2  33194  273.42 0865.03
2015 04 09 07 17 05 .98      13    -30     -1     33     34 156.4  -2.2  33196  273.47 0865.03
2015 04 09 07 17 06 .23      19    -26     -1     33     34 143.9  -2.2  33200  273.52 0865.03
2015 04 09 07 17 06 .48      15    -26      1     31     32 149.3   2.8  33198  273.50 0865.02
2015 04 09 07 17 06 .73      15    -26      1     31     32 149.3   2.8  33198  273.50 0865.02
2015 04 09 07 17 06 .98      13    -30     -1     33     34 156.4  -2.2  33196  273.47 0865.02
2015 04 09 07 17 07 .23      13    -30     -1     33     34 156.4  -2.2  33196  273.47 0865.02
2015 04 09 07 17 07 .48      13    -30     -1     33     34 156.4  -2.2  33196  273.47 0865.02
2015 04 09 07 17 07 .73      13    -30     -1     33     34 156.4  -2.2  33196  273.47 0865.02
2015 04 09 07 17 07 .98      13    -30     -1     33     34 156.4  -2.2  33196  273.47 0865.02
2015 04 09 07 17 08 .23      13    -30     -1     33     34 156.4  -2.2  33196  273.47 0865.02
2015 04 09 07 17 08 .49      13    -30     -1     33     34 156.4  -2.2  33196  273.47 0865.02
2015 04 09 07 17 08 .74       8    -30      1     32     33 164.9   2.9  33196  273.45 0865.02
2015 04 09 07 17 08 .99      15    -26      1     31     32 149.3   2.8  33196  273.45 0865.02
2015 04 09 07 17 09 .24      13    -30     -1     33     34 156.4  -2.2  33196  273.47 0865.02
2015 04 09 07 17 09 .49      15    -26      1     31     32 149.3   2.8  33198  273.50 0865.02
2015 04 09 07 17 09 .74      15    -26      1     31     32 149.3   2.8  33198  273.50 0865.02
2015 04 09 07 17 09 .99      15    -26      1     31     32 149.3   2.8  33198  273.50 0865.03
2015 04 09 07 17 10 .24      15    -26      1     31     32 149.3   2.8  33198  273.50 0865.03
2015 04 09 07 17 10 .49      15    -26      1     31     32 149.3   2.8  33198  273.50 0865.03
2015 04 09 07 17 10 .74      15    -26      1     31     32 149.3   2.8  33198  273.50 0865.03
2015 04 09 07 17 10 .99      15    -26      1     31     32 149.3   2.8  33198  273.50 0865.03
2015 04 09 07 17 11 .24      15    -26      1     31     32 149.3   2.8  33198  273.50 0865.03
2015 04 09 07 17 11 .49      15    -26      1     31     32 149.3   2.8  33198  273.50 0865.03
2015 04 09 07 17 11 .75      15    -26      1     31     32 149.3   2.8  33198  273.50 0865.03
2015 04 09 07 17 12 .00      13    -22     -1     26     27 149.3  -2.2  33200  273.52 0865.03
2015 04 09 07 17 12 .25      13    -22     -1     26     27 149.3  -2.2  33200  273.52 0865.03
2015 04 09 07 17 12 .51      15    -26      1     31     32 149.3   2.8  33198  273.50 0865.03
2015 04 09 07 17 12 .76      15    -26      1     31     32 149.3   2.8  33198  273.50 0865.03
2015 04 09 07 17 13 .01      15    -26      1     31     32 149.3   2.8  33198  273.50 0865.03
2015 04 09 07 17 13 .26      15    -26      1     31     32 149.3   2.8  33198  273.50 0865.03
2015 04 09 07 17 13 .51      15    -26      1     31     32 149.3   2.8  33198  273.50 0865.03
2015 04 09 07 17 13 .76      13    -22     -1     26     27 149.3  -2.2  33200  273.52 0865.03
2015 04 09 07 17 14 .01       9    -26      2     28     29 160.0   4.9  33200  273.52 0865.03
2015 04 09 07 17 14 .26       9    -26      2     28     29 160.0   4.9  33200  273.52 0865.03
2015 04 09 07 17 14 .51      15    -26      1     31     32 149.3   2.8  33198  273.50 0865.02
2015 04 09 07 17 14 .76      15    -26      1     31     32 149.3   2.8  33198  273.50 0865.02
2015 04 09 07 17 15 .01      13    -22     -1     26     27 149.3  -2.2  33200  273.52 0865.02
2015 04 09 07 17 15 .26      13    -22     -1     26     27 149.3  -2.2  33200  273.52 0865.02
2015 04 09 07 17 15 .51      13    -22     -1     26     27 149.3  -2.2  33200  273.52 0865.02
2015 04 09 07 17 15 .76      13    -22     -1     26     27 149.3  -2.2  33200  273.52 0865.02
2015 04 09 07 17 16 .01       8    -22      1     24     25 160.0   2.8  33200  273.54 0865.02
2015 04 09 07 17 16 .26       8    -22      1     24     25 160.0   2.8  33200  273.54 0865.02
2015 04 09 07 17 16 .51      13    -22     -1     26     27 149.3  -2.2  33200  273.52 0865.02
2015 04 09 07 17 16 .77      13    -22     -1     26     27 149.3  -2.2  33200  273.52 0865.02
2015 04 09 07 17 17 .02      13    -22     -1     26     27 149.3  -2.2  33200  273.52 0865.02
2015 04 09 07 17 17 .27      10    -18     -1     21     22 149.3  -3.1  33198  273.49 0865.02
2015 04 09 07 17 17 .52       6    -18      0     20     21 160.0  -2.2  33200  273.52 0865.02
2015 04 09 07 17 17 .77       6    -18      0     20     21 160.0  -2.2  33202  273.57 0865.02
2015 04 09 07 17 18 .02       9    -14      0     17     18 147.5   2.9  33204  273.60 0865.02
2015 04 09 07 17 18 .27      10    -18      3     21     22 149.3   9.0  33206  273.62 0865.02
2015 04 09 07 17 18 .52       7    -21      8     23     25 160.0  18.9  33206  273.62 0865.02
2015 04 09 07 17 18 .78       3    -22     11     23     25 170.2  27.2  33204  273.59 0865.02
2015 04 09 07 17 19 .03      13    -21      8     26     28 147.5  17.3  33204  273.59 0865.02
2015 04 09 07 17 19 .28      11    -18     11     22     24 149.3  27.2  33206  273.64 0865.02
2015 04 09 07 17 19 .53       7    -21      8     23     25 160.0  18.9  33206  273.62 0865.02
2015 04 09 07 17 19 .78      15    -26      1     31     32 149.3   2.8  33206  273.64 0865.02
2015 04 09 07 17 20 .03      13    -22     -1     26     27 149.3  -2.2  33206  273.62 0865.02
2015 04 09 07 17 20 .28      17    -22     -1     28     29 142.2  -2.2  33200  273.54 0865.02
2015 04 09 07 17 20 .53      17    -22     -1     28     29 142.2  -2.2  33200  273.54 0865.02
2015 04 09 07 17 20 .78      17    -22     -1     28     29 142.2  -2.2  33200  273.54 0865.02
2015 04 09 07 17 21 .03      17    -22     -1     28     29 142.2  -2.2  33200  273.54 0865.03
2015 04 09 07 17 21 .28      13    -22     -1     26     27 149.3  -2.2  33200  273.52 0865.03
2015 04 09 07 17 21 .54      13    -22     -1     26     27 149.3  -2.2  33200  273.52 0865.03
2015 04 09 07 17 21 .79      13    -22     -1     26     27 149.3  -2.2  33200  273.52 0865.03
2015 04 09 07 17 22 .04      15    -26      1     31     32 149.3   2.8  33198  273.50 0865.03
2015 04 09 07 17 22 .33      17    -22     -1     28     29 142.2  -2.2  33200  273.54 0865.03
2015 04 09 07 17 22 .54      17    -22     -1     28     29 142.2  -2.2  33200  273.54 0865.03
2015 04 09 07 17 22 .79      17    -22     -1     28     29 142.2  -2.2  33200  273.54 0865.03
2015 04 09 07 17 23 .04      13    -22     -1     26     27 149.3  -2.2  33200  273.52 0865.03
2015 04 09 07 17 23 .29      15    -26      1     31     32 149.3   2.8  33198  273.50 0865.03
2015 04 09 07 17 23 .54      15    -26      1     31     32 149.3   2.8  33198  273.50 0865.03
2015 04 09 07 17 23 .79      15    -26      1     31     32 149.3   2.8  33198  273.50 0865.03
2015 04 09 07 17 24 .04      13    -22     -1     26     27 149.3  -2.2  33200  273.52 0865.03
2015 04 09 07 17 24 .29      13    -22     -1     26     27 149.3  -2.2  33200  273.52 0865.03
2015 04 09 07 17 24 .54      13    -22     -1     26     27 149.3  -2.2  33200  273.52 0865.03
2015 04 09 07 17 24 .79      13    -22     -1     26     27 149.3  -2.2  33200  273.52 0865.03
2015 04 09 07 17 25 .04      13    -22     -1     26     27 149.3  -2.2  33200  273.52 0865.03
2015 04 09 07 17 25 .29      13    -22     -1     26     27 149.3  -2.2  33200  273.52 0865.03
2015 04 09 07 17 25 .55      13    -22     -1     26     27 149.3  -2.2  33200  273.52 0865.04
2015 04 09 07 17 25 .81       8    -22      1     24     25 160.0   2.8  33200  273.54 0865.04
2015 04 09 07 17 26 .06       8    -22      1     24     25 160.0   2.8  33200  273.54 0865.04
2015 04 09 07 17 26 .31      13    -22     -1     26     27 149.3  -2.2  33200  273.52 0865.04
2015 04 09 07 17 26 .56      13    -22     -1     26     27 149.3  -2.2  33200  273.52 0865.04
2015 04 09 07 17 26 .81       8    -22      1     24     25 160.0   2.8  33200  273.54 0865.04
2015 04 09 07 17 27 .06       8    -22      1     24     25 160.0   2.8  33200  273.54 0865.04
2015 04 09 07 17 27 .31      13    -22     -1     26     27 149.3  -2.2  33200  273.52 0865.04
2015 04 09 07 17 27 .56      13    -22     -1     26     27 149.3  -2.2  33200  273.52 0865.04
2015 04 09 07 17 27 .81      17    -22     -1     28     29 142.2  -2.2  33200  273.54 0865.04
2015 04 09 07 17 28 .06      17    -22     -1     28     29 142.2  -2.2  33200  273.54 0865.04
2015 04 09 07 17 28 .31      13    -22     -1     26     27 149.3  -2.2  33200  273.52 0865.04
2015 04 09 07 17 28 .56      13    -22     -1     26     27 149.3  -2.2  33200  273.52 0865.04
2015 04 09 07 17 28 .81      13    -22     -1     26     27 149.3  -2.2  33200  273.52 0865.04
2015 04 09 07 17 29 .06      13    -22     -1     26     27 149.3  -2.2  33200  273.52 0865.04
2015 04 09 07 17 29 .31      13    -22     -1     26     27 149.3  -2.2  33200  273.52 0865.04
2015 04 09 07 17 29 .56      13    -22     -1     26     27 149.3  -2.2  33200  273.52 0865.04
2015 04 09 07 17 29 .81       9    -26     -1     28     29 160.0  -2.2  33198  273.50 0865.04
2015 04 09 07 17 30 .07       7    -21     -3     23     24 160.0  -9.3  33196  273.47 0865.04
2015 04 09 07 17 30 .32       7    -21     -3     23     24 160.0  -9.3  33196  273.47 0865.04
2015 04 09 07 17 30 .57       9    -26     -1     28     29 160.0  -2.2  33198  273.50 0865.04
2015 04 09 07 17 30 .82      13    -22     -1     26     27 149.3  -2.2  33200  273.52 0865.04
2015 04 09 07 17 31 .07      17    -22     -1     28     29 142.2  -2.2  33200  273.54 0865.04
2015 04 09 07 17 31 .32      17    -22     -1     28     29 142.2  -2.2  33200  273.54 0865.04
2015 04 09 07 17 31 .57      17    -22     -1     28     29 142.2  -2.2  33200  273.54 0865.04
2015 04 09 07 17 31 .82      15    -27     -4     31     32 151.0  -7.3  33202  273.57 0865.03
2015 04 09 07 17 32 .07      17    -22     -1     28     29 142.2  -2.2  33200  273.54 0865.03
2015 04 09 07 17 32 .32      17    -22     -1     28     29 142.2  -2.2  33200  273.54 0865.03
2015 04 09 07 17 32 .58      15    -27     -4     31     32 151.0  -7.3  33202  273.57 0865.03
2015 04 09 07 17 32 .83      10    -28     -1     30     31 160.0  -3.1  33204  273.59 0865.03
2015 04 09 07 17 33 .08      10    -28     -1     30     31 160.0  -3.1  33204  273.59 0865.03
2015 04 09 07 17 33 .33      10    -28     -1     30     31 160.0  -3.1  33204  273.59 0865.03
2015 04 09 07 17 33 .58      15    -27     -4     31     32 151.0  -7.3  33202  273.57 0865.04
2015 04 09 07 17 33 .83      10    -28     -1     30     31 160.0  -3.1  33204  273.59 0865.04
2015 04 09 07 17 34 .08      15    -27     -4     31     32 151.0  -7.3  33202  273.57 0865.04
2015 04 09 07 17 34 .34      17    -22     -1     28     29 142.2  -2.2  33200  273.54 0865.04
2015 04 09 07 17 34 .59      15    -27     -4     31     32 151.0  -7.3  33202  273.57 0865.04
2015 04 09 07 17 34 .84      10    -28     -1     30     31 160.0  -3.1  33204  273.59 0865.04
2015 04 09 07 17 35 .09      15    -31     -1     35     36 152.8  -3.1  33204  273.59 0865.04
2015 04 09 07 17 35 .34      15    -27     -4     31     32 151.0  -7.3  33202  273.57 0865.03
2015 04 09 07 17 35 .59      10    -28     -1     30     31 160.0  -3.1  33204  273.59 0865.03
2015 04 09 07 17 35 .84      10    -28     -1     30     31 160.0  -3.1  33204  273.59 0865.03
2015 04 09 07 17 36 .09       8    -25     -1     27     28 161.7  -3.1  33206  273.64 0865.03
2015 04 09 07 17 36 .34      12    -31     -1     34     35 158.2  -2.2  33206  273.62 0865.03
2015 04 09 07 17 36 .59      10    -28     -1     30     31 160.0  -3.1  33204  273.59 0865.03
2015 04 09 07 17 36 .84      10    -28     -1     30     31 160.0  -3.1  33204  273.59 0865.03
2015 04 09 07 17 37 .09      10    -28     -1     30     31 160.0  -3.1  33204  273.59 0865.04
2015 04 09 07 17 37 .34      10    -28     -1     30     31 160.0  -3.1  33204  273.59 0865.04
2015 04 09 07 17 37 .59      10    -28     -1     30     31 160.0  -3.1  33204  273.59 0865.04
2015 04 09 07 17 37 .84      10    -28     -1     30     31 160.0  -3.1  33204  273.59 0865.04
2015 04 09 07 17 38 .10      17    -22     -1     28     29 142.2  -2.2  33200  273.54 0865.04
2015 04 09 07 17 38 .35       8    -22      1     24     25 160.0   2.8  33200  273.54 0865.04
2015 04 09 07 17 38 .60       8    -22      1     24     25 160.0   2.8  33200  273.54 0865.04
2015 04 09 07 17 38 .85       9    -26      2     28     29 160.0   4.9  33202  273.57 0865.04
2015 04 09 07 17 39 .10       8    -22      1     24     25 160.0   2.8  33200  273.54 0865.04
2015 04 09 07 17 39 .35       8    -22      1     24     25 160.0   2.8  33200  273.54 0865.04
2015 04 09 07 17 39 .61      13    -22     -1     26     27 149.3  -2.2  33200  273.52 0865.04
2015 04 09 07 17 39 .86      13    -22     -1     26     27 149.3  -2.2  33200  273.52 0865.04
2015 04 09 07 17 40 .11      13    -22     -1     26     27 149.3  -2.2  33200  273.52 0865.04
2015 04 09 07 17 40 .36      13    -22     -1     26     27 149.3  -2.2  33200  273.52 0865.04
2015 04 09 07 17 40 .61      13    -22     -1     26     27 149.3  -2.2  33200  273.52 0865.04
2015 04 09 07 17 40 .86      13    -22     -1     26     27 149.3  -2.2  33200  273.52 0865.04
2015 04 09 07 17 41 .11      13    -22     -1     26     27 149.3  -2.2  33200  273.52 0865.04
2015 04 09 07 17 41 .36      17    -22     -1     28     29 142.2  -2.2  33200  273.54 0865.04
2015 04 09 07 17 41 .61      13    -22     -1     26     27 149.3  -2.2  33202  273.57 0865.04
2015 04 09 07 17 41 .86      13    -22     -1     26     27 149.3  -2.2  33202  273.57 0865.04
2015 04 09 07 17 42 .11       8    -22      1     24     25 160.0   2.8  33200  273.54 0865.04
2015 04 09 07 17 42 .36       8    -22      1     24     25 160.0   2.8  33200  273.54 0865.04
2015 04 09 07 17 42 .62      13    -22     -1     26     27 149.3  -2.2  33202  273.57 0865.04
2015 04 09 07 17 42 .87      13    -22     -1     26     27 149.3  -2.2  33202  273.57 0865.04
2015 04 09 07 17 43 .12       7    -22     -3     24     25 161.5  -7.3  33206  273.62 0865.04
2015 04 09 07 17 43 .37      10    -18     -1     21     22 149.3  -3.1  33204  273.59 0865.04
2015 04 09 07 17 43 .62      10    -18     -1     21     22 149.3  -3.1  33208  273.65 0865.04
2015 04 09 07 17 43 .87      10    -18     -1     21     22 149.3  -3.1  33204  273.59 0865.04
2015 04 09 07 17 44 .12      10    -18     -1     21     22 149.3  -3.1  33204  273.59 0865.04
2015 04 09 07 17 44 .37      13    -22     -1     26     27 149.3  -2.2  33202  273.57 0865.04
2015 04 09 07 17 44 .62      13    -22     -1     26     27 149.3  -2.2  33202  273.57 0865.04
2015 04 09 07 17 44 .87      13    -22     -1     26     27 149.3  -2.2  33202  273.57 0865.04
2015 04 09 07 17 45 .12      10    -18     -1     21     22 149.3  -3.1  33208  273.65 0865.04
2015 04 09 07 17 45 .37      10    -18     -1     21     22 149.3  -3.1  33208  273.65 0865.04
2015 04 09 07 17 45 .62      13    -22     -1     26     27 149.3  -2.2  33202  273.57 0865.04
2015 04 09 07 17 45 .87      13    -22     -1     26     27 149.3  -2.2  33202  273.57 0865.04
2015 04 09 07 17 46 .12      13    -22     -1     26     27 149.3  -2.2  33202  273.57 0865.04
2015 04 09 07 17 46 .37      13    -22     -1     26     27 149.3  -2.2  33202  273.57 0865.04
2015 04 09 07 17 46 .63      13    -22     -1     26     27 149.3  -2.2  33202  273.57 0865.04
2015 04 09 07 17 46 .89      10    -18     -1     21     22 149.3  -3.1  33204  273.59 0865.04
2015 04 09 07 17 47 .14       7    -22     -3     24     25 161.5  -7.3  33206  273.62 0865.04
2015 04 09 07 17 47 .39      10    -18     -1     21     22 149.3  -3.1  33204  273.59 0865.04
2015 04 09 07 17 47 .64       8    -22      1     24     25 160.0   2.8  33200  273.54 0865.04
2015 04 09 07 17 47 .89       6    -18      0     20     21 160.0  -2.2  33202  273.57 0865.04
2015 04 09 07 17 48 .14       8    -22      1     24     25 160.0   2.8  33200  273.54 0865.04
2015 04 09 07 17 48 .39       6    -18      0     20     21 160.0  -2.2  33200  273.52 0865.04
2015 04 09 07 17 48 .64       4    -14     -2     15     16 161.5  -7.2  33200  273.54 0865.04
2015 04 09 07 17 48 .89       8    -22      1     24     25 160.0   2.8  33200  273.54 0865.04
2015 04 09 07 17 49 .14      10    -18     -1     21     22 149.3  -3.1  33204  273.59 0865.04
2015 04 09 07 17 49 .39       7    -22     -3     24     25 161.5  -7.3  33206  273.62 0865.04
2015 04 09 07 17 49 .64       7    -22     -3     24     25 161.5  -7.3  33206  273.62 0865.04
2015 04 09 07 17 49 .89       7    -22     -3     24     25 161.5  -7.3  33206  273.62 0865.04
2015 04 09 07 17 50 .14      10    -18     -1     21     22 149.3  -3.1  33208  273.65 0865.04
2015 04 09 07 17 50 .39      10    -18     -1     21     22 149.3  -3.1  33208  273.65 0865.04
2015 04 09 07 17 50 .64      12    -14      0     19     20 138.6  -2.2  33206  273.62 0865.04
2015 04 09 07 17 50 .89      10    -18     -1     21     22 149.3  -3.1  33208  273.65 0865.04
2015 04 09 07 17 51 .14      15    -17     -3     24     25 138.6  -7.3  33208  273.67 0865.04
2015 04 09 07 17 51 .40      15    -17     -3     24     25 138.6  -7.3  33208  273.67 0865.04
2015 04 09 07 17 51 .65       8    -15     -3     18     19 151.0 -11.3  33212  273.72 0865.04
2015 04 09 07 17 51 .90      15    -17     -3     24     25 138.6  -7.3  33208  273.67 0865.04
2015 04 09 07 17 52 .15      10    -18     -1     21     22 149.3  -3.1  33208  273.65 0865.04
2015 04 09 07 17 52 .40       7    -22     -3     24     25 161.5  -7.3  33206  273.62 0865.04
2015 04 09 07 17 52 .65      10    -18     -1     21     22 149.3  -3.1  33208  273.65 0865.04
2015 04 09 07 17 52 .90      10    -18     -1     21     22 149.3  -3.1  33204  273.59 0865.04
2015 04 09 07 17 53 .15      10    -18     -1     21     22 149.3  -3.1  33204  273.59 0865.04
2015 04 09 07 17 53 .40      10    -18     -1     21     22 149.3  -3.1  33204  273.59 0865.04
2015 04 09 07 17 53 .66      10    -18     -1     21     22 149.3  -3.1  33204  273.59 0865.04
2015 04 09 07 17 53 .91      10    -18     -1     21     22 149.3  -3.1  33204  273.59 0865.04
2015 04 09 07 17 54 .16      10    -18     -1     21     22 149.3  -3.1  33204  273.59 0865.04
2015 04 09 07 17 54 .41      10    -18     -1     21     22 149.3  -3.1  33208  273.65 0865.04
2015 04 09 07 17 54 .66      10    -18     -1     21     22 149.3  -3.1  33208  273.65 0865.04
2015 04 09 07 17 54 .91      10    -18     -1     21     22 149.3  -3.1  33208  273.65 0865.04
2015 04 09 07 17 55 .16      10    -18     -1     21     22 149.3  -3.1  33208  273.65 0865.04
2015 04 09 07 17 55 .41      10    -18     -1     21     22 149.3  -3.1  33208  273.65 0865.04
2015 04 09 07 17 55 .67       7    -22     -3     24     25 161.5  -7.3  33206  273.62 0865.04
2015 04 09 07 17 55 .92       7    -22     -3     24     25 161.5  -7.3  33206  273.62 0865.04
2015 04 09 07 17 56 .17      10    -18     -1     21     22 149.3  -3.1  33208  273.65 0865.04
2015 04 09 07 17 56 .42      15    -17     -3     24     25 138.6  -7.3  33208  273.67 0865.04
2015 04 09 07 17 56 .67      14    -18     -3     23     24 142.2  -7.3  33208  273.67 0865.04
2015 04 09 07 17 56 .92      15    -17     -3     24     25 138.6  -7.3  33208  273.67 0865.04
2015 04 09 07 17 57 .17      15    -17     -3     24     25 138.6  -7.3  33208  273.67 0865.04
2015 04 09 07 17 57 .42      15    -17     -3     24     25 138.6  -7.3  33208  273.67 0865.04
2015 04 09 07 17 57 .67      15    -17     -3     24     25 138.6  -7.3  33208  273.67 0865.04
2015 04 09 07 17 57 .92      10    -18     -1     21     22 149.3  -3.1  33210  273.70 0865.03
2015 04 09 07 17 58 .17      10    -18     -1     21     22 149.3  -3.1  33210  273.70 0865.03
2015 04 09 07 17 58 .42      10    -18     -1     21     22 149.3  -3.1  33210  273.70 0865.03
2015 04 09 07 17 58 .67      11    -12      0     17     18 136.8  -3.1  33214  273.75 0865.03
2015 04 09 07 17 58 .92      10    -18     -1     21     22 149.3  -3.1  33210  273.70 0865.03
2015 04 09 07 17 59 .17      10    -18     -1     21     22 149.3  -3.1  33210  273.70 0865.03
2015 04 09 07 17 59 .42      12    -14      0     19     20 138.6  -2.2  33208  273.67 0865.03
2015 04 09 07 17 59 .68      17    -15     -1     23     24 131.3  -3.1  33208  273.65 0865.03
2015 04 09 07 17 59 .93      17    -15     -1     23     24 131.3  -3.1  33208  273.65 0865.03
2015 04 09 07 18 00 .17      12    -14      0     19     20 138.6  -2.2  33206  273.62 0865.03
2015 04 09 07 18 00 .44      10    -18     -1     21     22 149.3  -3.1  33204  273.59 0865.03
2015 04 09 07 18 00 .69      12    -14      0     19     20 138.6  -2.2  33206  273.62 0865.03
2015 04 09 07 18 00 .94      12    -14      0     19     20 138.6  -2.2  33206  273.62 0865.03
2015 04 09 07 18 01 .19      10    -18     -1     21     22 149.3  -3.1  33204  273.59 0865.03
2015 04 09 07 18 01 .44       8    -14     -3     17     18 151.0 -11.3  33202  273.57 0865.03
2015 04 09 07 18 01 .69       8    -14     -3     17     18 151.0 -11.3  33202  273.57 0865.03
2015 04 09 07 18 01 .94      10    -10     -2     15     16 135.0  -7.2  33204  273.59 0865.03
2015 04 09 07 18 02 .19       8    -14     -3     17     18 151.0 -11.3  33202  273.57 0865.03
2015 04 09 07 18 02 .44       8    -14     -3     17     18 151.0 -11.3  33202  273.57 0865.03
2015 04 09 07 18 02 .69       8    -14     -3     17     18 151.0 -11.3  33202  273.57 0865.03
2015 04 09 07 18 02 .94      10    -10     -2     15     16 135.0  -7.2  33204  273.59 0865.03
2015 04 09 07 18 03 .19      10    -10     -2     15     16 135.0  -7.2  33204  273.59 0865.03
2015 04 09 07 18 03 .44       8    -14     -3     17     18 151.0 -11.3  33202  273.57 0865.03
2015 04 09 07 18 03 .69       8    -14     -3     17     18 151.0 -11.3  33202  273.57 0865.03
2015 04 09 07 18 03 .94       8    -14     -3     17     18 151.0 -11.3  33202  273.57 0865.03
2015 04 09 07 18 04 .19       8    -14     -3     17     18 151.0 -11.3  33202  273.57 0865.04
2015 04 09 07 18 04 .45       8    -14     -3     17     18 151.0 -11.3  33202  273.57 0865.04
2015 04 09 07 18 04 .70      10    -10     -2     15     16 135.0  -7.2  33204  273.59 0865.04
2015 04 09 07 18 04 .95       8    -15     -3     18     19 151.0 -11.3  33212  273.72 0865.04
2015 04 09 07 18 05 .20      10    -18     -1     21     22 149.3  -3.1  33214  273.75 0865.04
2015 04 09 07 18 05 .45      11    -12      0     17     18 136.8  -3.1  33214  273.75 0865.04
2015 04 09 07 18 05 .70      11    -12      0     17     18 136.8  -3.1  33214  273.75 0865.04
2015 04 09 07 18 05 .95      11    -12      0     17     18 136.8  -3.1  33214  273.75 0865.04
2015 04 09 07 18 06 .20      11    -12      0     17     18 136.8  -3.1  33214  273.75 0865.04
2015 04 09 07 18 06 .45      11    -12      0     17     18 136.8  -3.1  33214  273.75 0865.04
2015 04 09 07 18 06 .70       8    -15     -3     18     19 151.0 -11.3  33212  273.72 0865.04
2015 04 09 07 18 06 .95       8    -15     -3     18     19 151.0 -11.3  33212  273.72 0865.05
2015 04 09 07 18 07 .20       8    -15     -3     18     19 151.0 -11.3  33212  273.72 0865.05
2015 04 09 07 18 07 .46       8    -15     -3     18     19 151.0 -11.3  33212  273.72 0865.05
2015 04 09 07 18 07 .71       8    -15     -3     18     19 151.0 -11.3  33212  273.72 0865.05
2015 04 09 07 18 07 .96       8    -15     -3     18     19 151.0 -11.3  33212  273.72 0865.05
2015 04 09 07 18 08 .21       4    -15      0     16     17 164.9  -2.2  33210  273.70 0865.05
2015 04 09 07 18 08 .46       8    -15     -3     18     19 151.0 -11.3  33208  273.67 0865.05
2015 04 09 07 18 08 .72       6    -17      0     19     20 161.3  -2.2  33208  273.67 0865.05
2015 04 09 07 18 08 .97       4    -15      0     16     17 164.9  -2.2  33210  273.70 0865.05
2015 04 09 07 18 09 .22       8    -15     -3     18     19 151.0 -11.3  33212  273.72 0865.05
2015 04 09 07 18 09 .47       8    -15     -3     18     19 151.0 -11.3  33212  273.72 0865.05
2015 04 09 07 18 09 .72       8    -15     -3     18     19 151.0 -11.3  33212  273.72 0865.05
2015 04 09 07 18 09 .97       8    -15     -3     18     19 151.0 -11.3  33212  273.72 0865.05
2015 04 09 07 18 10 .22       8    -15     -3     18     19 151.0 -11.3  33212  273.72 0865.05
2015 04 09 07 18 10 .47       8    -15     -3     18     19 151.0 -11.3  33212  273.72 0865.05
2015 04 09 07 18 10 .72       8    -15     -3     18     19 151.0 -11.3  33212  273.72 0865.05
2015 04 09 07 18 10 .97       8    -15     -3     18     19 151.0 -11.3  33212  273.72 0865.05
2015 04 09 07 18 11 .22       8    -15     -3     18     19 151.0 -11.3  33212  273.72 0865.05
2015 04 09 07 18 11 .47       8    -15     -3     18     19 151.0 -11.3  33212  273.72 0865.05
2015 04 09 07 18 11 .72       8    -15     -3     18     19 151.0 -11.3  33212  273.72 0865.05
2015 04 09 07 18 11 .97       8    -15     -3     18     19 151.0 -11.3  33212  273.72 0865.05
2015 04 09 07 18 12 .22       8    -15     -3     18     19 151.0 -11.3  33212  273.72 0865.05
2015 04 09 07 18 12 .47       8    -15     -3     18     19 151.0 -11.3  33212  273.72 0865.05
2015 04 09 07 18 12 .72       8    -15     -3     18     19 151.0 -11.3  33212  273.72 0865.05
2015 04 09 07 18 12 .98       8    -15     -3     18     19 151.0 -11.3  33212  273.72 0865.05
2015 04 09 07 18 13 .23      10    -18     -1     21     22 149.3  -3.1  33214  273.75 0865.05
2015 04 09 07 18 13 .48      10    -18     -1     21     22 149.3  -3.1  33214  273.75 0865.05
2015 04 09 07 18 13 .73       8    -15     -3     18     19 151.0 -11.3  33212  273.72 0865.05
2015 04 09 07 18 13 .98       8    -15     -3     18     19 151.0 -11.3  33212  273.72 0865.05
2015 04 09 07 18 14 .23       8    -15     -3     18     19 151.0 -11.3  33212  273.72 0865.05
2015 04 09 07 18 14 .49       8    -15     -3     18     19 151.0 -11.3  33212  273.72 0865.05
2015 04 09 07 18 14 .74       4    -15      0     16     17 164.9  -2.2  33210  273.70 0865.05
2015 04 09 07 18 14 .99       4    -15      0     16     17 164.9  -2.2  33210  273.70 0865.05
2015 04 09 07 18 15 .24       6    -18     -6     20     21 160.0 -17.6  33214  273.75 0865.05
2015 04 09 07 18 15 .49       8    -15     -3     18     19 151.0 -11.3  33214  273.77 0865.05
2015 04 09 07 18 15 .74       8    -15     -3     18     19 151.0 -11.3  33212  273.72 0865.05
2015 04 09 07 18 15 .99       4    -15      0     16     17 164.9  -2.2  33210  273.70 0865.05
2015 04 09 07 18 16 .24       8    -15     -3     18     19 151.0 -11.3  33212  273.72 0865.05
2015 04 09 07 18 16 .49       8    -15     -3     18     19 151.0 -11.3  33212  273.72 0865.05
2015 04 09 07 18 16 .74       8    -15     -3     18     19 151.0 -11.3  33212  273.72 0865.05
2015 04 09 07 18 17 .00      10    -18     -1     21     22 149.3  -3.1  33214  273.75 0865.05
2015 04 09 07 18 17 .24      11    -12      0     17     18 136.8  -3.1  33216  273.78 0865.05
2015 04 09 07 18 17 .50      12    -15      0     20     21 140.4  -2.2  33214  273.77 0865.05
2015 04 09 07 18 17 .75       4    -15      0     16     17 164.9  -2.2  33210  273.70 0865.05
2015 04 09 07 18 18 .00       4    -15      0     16     17 164.9  -2.2  33210  273.70 0865.05
2015 04 09 07 18 18 .25       8    -15     -3     18     19 151.0 -11.3  33212  273.72 0865.05
2015 04 09 07 18 18 .50       8    -15     -3     18     19 151.0 -11.3  33212  273.72 0865.05
2015 04 09 07 18 18 .75       8    -15     -3     18     19 151.0 -11.3  33212  273.72 0865.05
2015 04 09 07 18 19 .00       8    -15     -3     18     19 151.0 -11.3  33212  273.72 0865.05
2015 04 09 07 18 19 .25       8    -15     -3     18     19 151.0 -11.3  33212  273.72 0865.05
2015 04 09 07 18 19 .50       8    -15     -3     18     19 151.0 -11.3  33212  273.72 0865.05
2015 04 09 07 18 19 .75       8    -15     -3     18     19 151.0 -11.3  33212  273.72 0865.05
2015 04 09 07 18 20 .00       8    -15     -3     18     19 151.0 -11.3  33212  273.72 0865.05
2015 04 09 07 18 20 .25      11    -12      0     17     18 136.8  -3.1  33214  273.75 0865.05
2015 04 09 07 18 20 .50       8    -15     -3     18     19 151.0 -11.3  33212  273.72 0865.05
2015 04 09 07 18 20 .75       8    -15     -3     18     19 151.0 -11.3  33212  273.72 0865.05
2015 04 09 07 18 21 .00       8    -15     -3     18     19 151.0 -11.3  33212  273.72 0865.05
2015 04 09 07 18 21 .26       8    -15     -3     18     19 151.0 -11.3  33212  273.72 0865.05
2015 04 09 07 18 21 .51       8    -15     -3     18     19 151.0 -11.3  33212  273.72 0865.05
2015 04 09 07 18 21 .76       8    -15     -3     18     19 151.0 -11.3  33212  273.72 0865.05
2015 04 09 07 18 22 .02      11    -12      0     17     18 136.8  -3.1  33214  273.75 0865.05
2015 04 09 07 18 22 .27      11    -12      0     17     18 136.8  -3.1  33214  273.75 0865.05
2015 04 09 07 18 22 .52      11    -12      0     17     18 136.8  -3.1  33214  273.75 0865.05
2015 04 09 07 18 22 .77       8    -15     -3     18     19 151.0 -11.3  33212  273.72 0865.05
2015 04 09 07 18 23 .02       8    -15     -3     18     19 151.0 -11.3  33212  273.72 0865.05
2015 04 09 07 18 23 .27       8    -15     -3     18     19 151.0 -11.3  33212  273.72 0865.05
2015 04 09 07 18 23 .52      11    -12      0     17     18 136.8  -3.1  33214  273.75 0865.05
2015 04 09 07 18 23 .77       5    -15     -2     16     17 161.3  -7.2  33214  273.75 0865.05
2015 04 09 07 18 24 .02      11    -12      0     17     18 136.8  -3.1  33214  273.75 0865.05
2015 04 09 07 18 24 .27      11    -12      0     17     18 136.8  -3.1  33214  273.75 0865.05
2015 04 09 07 18 24 .52      11    -12      0     17     18 136.8  -3.1  33214  273.75 0865.05
2015 04 09 07 18 24 .77       8    -15     -3     18     19 151.0 -11.3  33212  273.72 0865.05
2015 04 09 07 18 25 .02       8    -15     -3     18     19 151.0 -11.3  33212  273.72 0865.05
2015 04 09 07 18 25 .27       8    -15     -3     18     19 151.0 -11.3  33212  273.72 0865.05
2015 04 09 07 18 25 .52       8    -15     -3     18     19 151.0 -11.3  33212  273.72 0865.05
2015 04 09 07 18 25 .77       8    -15     -3     18     19 151.0 -11.3  33214  273.77 0865.05
2015 04 09 07 18 26 .03       5    -16     -7     17     18 161.3 -23.3  33214  273.77 0865.05
2015 04 09 07 18 26 .28       1    -13     -4     14     14 172.0 -23.8  33216  273.78 0865.05
2015 04 09 07 18 26 .53       3    -11     -4     12     13 164.9 -19.7  33218  273.82 0865.05
2015 04 09 07 18 26 .78       3    -11     -4     12     13 164.9 -19.7  33218  273.82 0865.05
2015 04 09 07 18 27 .03       3    -11     -4     12     13 164.9 -19.7  33218  273.82 0865.05
2015 04 09 07 18 27 .28       3    -11     -4     12     13 164.9 -19.7  33218  273.82 0865.05
2015 04 09 07 18 27 .53       3    -11     -4     12     13 164.9 -19.7  33218  273.82 0865.05
2015 04 09 07 18 27 .78       3    -11     -4     12     13 164.9 -19.7  33218  273.82 0865.04
2015 04 09 07 18 28 .03       1    -15     -5     16     16 175.6 -23.8  33216  273.78 0865.04
2015 04 09 07 18 28 .29       1    -15     -5     16     16 175.6 -23.8  33216  273.78 0865.04
2015 04 09 07 18 28 .54       1    -15     -5     16     16 175.6 -23.8  33216  273.78 0865.04
2015 04 09 07 18 28 .79       1    -15     -5     16     16 175.6 -23.8  33216  273.78 0865.04
2015 04 09 07 18 29 .04       1    -15     -5     16     16 175.6 -23.8  33216  273.78 0865.04
2015 04 09 07 18 29 .29       1    -15     -5     16     16 175.6 -23.8  33216  273.78 0865.04
2015 04 09 07 18 29 .54       1    -15     -5     16     16 175.6 -23.8  33216  273.78 0865.05
2015 04 09 07 18 29 .79       1    -15     -5     16     16 175.6 -23.8  33216  273.78 0865.05
2015 04 09 07 18 30 .04       3    -11     -4     12     13 164.9 -19.7  33218  273.82 0865.05
2015 04 09 07 18 30 .30       1    -15     -5     16     16 175.6 -23.8  33216  273.78 0865.04
2015 04 09 07 18 30 .55       1    -15     -5     16     16 175.6 -23.8  33216  273.78 0865.04
2015 04 09 07 18 30 .80       1    -15     -5     16     16 175.6 -23.8  33216  273.78 0865.04
2015 04 09 07 18 31 .05       1    -15     -5     16     16 175.6 -23.8  33216  273.78 0865.04
2015 04 09 07 18 31 .30       1    -15     -5     16     16 175.6 -23.8  33216  273.78 0865.04
2015 04 09 07 18 31 .55       3    -11     -4     12     13 164.9 -19.7  33218  273.82 0865.04
2015 04 09 07 18 31 .80       3    -11     -4     12     13 164.9 -19.7  33218  273.82 0865.04
2015 04 09 07 18 32 .05       1    -15     -5     16     16 175.6 -23.8  33216  273.78 0865.04
2015 04 09 07 18 32 .30       1    -15     -5     16     16 175.6 -23.8  33216  273.78 0865.04
2015 04 09 07 18 32 .55       1    -15     -5     16     16 175.6 -23.8  33216  273.78 0865.04
2015 04 09 07 18 32 .80       3    -11     -4     12     13 164.9 -19.7  33218  273.82 0865.04
2015 04 09 07 18 33 .05       1    -15     -5     16     16 175.6 -23.8  33216  273.78 0865.04
2015 04 09 07 18 33 .30       1    -15     -5     16     16 175.6 -23.8  33216  273.78 0865.04
2015 04 09 07 18 33 .55       1    -15     -5     16     16 175.6 -23.8  33216  273.78 0865.04
2015 04 09 07 18 33 .80       1    -15     -5     16     16 175.6 -23.8  33216  273.78 0865.04
2015 04 09 07 18 34 .05       1    -15     -5     16     16 175.6 -23.8  33216  273.78 0865.04
2015 04 09 07 18 34 .30       1    -15     -5     16     16 175.6 -23.8  33216  273.78 0865.04
2015 04 09 07 18 34 .55       1    -15     -5     16     16 175.6 -23.8  33216  273.78 0865.04
2015 04 09 07 18 34 .81       1    -15     -5     16     16 175.6 -23.8  33216  273.78 0865.04
2015 04 09 07 18 35 .06       1    -15     -5     16     16 175.6 -23.8  33216  273.78 0865.04
2015 04 09 07 18 35 .32       1    -15     -5     16     16 175.6 -23.8  33216  273.78 0865.04
2015 04 09 07 18 35 .57       1    -15     -5     16     16 175.6 -23.8  33216  273.78 0865.04
2015 04 09 07 18 35 .82       1    -15     -5     16     16 175.6 -23.8  33216  273.78 0865.04
2015 04 09 07 18 36 .07       1    -15     -5     16     16 175.6 -23.8  33216  273.78 0865.04
2015 04 09 07 18 36 .32       2    -17     -3     18     19 172.0 -11.3  33218  273.82 0865.04
2015 04 09 07 18 36 .57       5    -15     -2     16     17 161.3  -7.2  33218  273.83 0865.04
2015 04 09 07 18 36 .82       5    -15     -2     16     17 161.3  -7.2  33218  273.83 0865.05
2015 04 09 07 18 37 .07       3    -11     -4     12     13 164.9 -19.7  33218  273.82 0865.05
2015 04 09 07 18 37 .32       1    -15     -5     16     16 175.6 -23.8  33216  273.78 0865.05
2015 04 09 07 18 37 .57       3    -11     -4     12     13 164.9 -19.7  33218  273.82 0865.05
2015 04 09 07 18 37 .82       1    -15     -5     16     16 175.6 -23.8  33216  273.78 0865.05
2015 04 09 07 18 38 .07       1    -15     -5     16     16 175.6 -23.8  33216  273.78 0865.05
2015 04 09 07 18 38 .32       3    -11     -4     12     13 164.9 -19.7  33218  273.82 0865.05
2015 04 09 07 18 38 .57       3    -11     -4     12     13 164.9 -19.7  33218  273.82 0865.05
2015 04 09 07 18 38 .82       3    -11     -4     12     13 164.9 -19.7  33218  273.82 0865.05
2015 04 09 07 18 39 .08       3    -11     -4     12     13 164.9 -19.7  33218  273.82 0865.05
2015 04 09 07 18 39 .33       3    -11     -4     12     13 164.9 -19.7  33218  273.82 0865.05
2015 04 09 07 18 39 .58       3    -11     -4     12     13 164.9 -19.7  33218  273.82 0865.05
2015 04 09 07 18 39 .83       1    -15     -5     16     16 175.6 -23.8  33216  273.78 0865.05
2015 04 09 07 18 40 .08       1    -15     -5     16     16 175.6 -23.8  33216  273.78 0865.05
2015 04 09 07 18 40 .33       3    -11     -4     12     13 164.9 -19.7  33218  273.82 0865.05
2015 04 09 07 18 40 .58       3    -11     -4     12     13 164.9 -19.7  33218  273.82 0865.05
2015 04 09 07 18 40 .83       3    -11     -4     12     13 164.9 -19.7  33218  273.82 0865.05
2015 04 09 07 18 41 .08       3    -11     -4     12     13 164.9 -19.7  33218  273.82 0865.05
2015 04 09 07 18 41 .33       3    -11     -4     12     13 164.9 -19.7  33218  273.82 0865.05
2015 04 09 07 18 41 .58       3    -11     -4     12     13 164.9 -19.7  33218  273.82 0865.05
2015 04 09 07 18 41 .83       1    -15     -5     16     16 175.6 -23.8  33216  273.78 0865.05
2015 04 09 07 18 42 .08       1    -15     -5     16     16 175.6 -23.8  33216  273.78 0865.05
2015 04 09 07 18 42 .34       1    -15     -5     16     16 175.6 -23.8  33216  273.78 0865.05
2015 04 09 07 18 42 .59       1    -15     -5     16     16 175.6 -23.8  33216  273.78 0865.05
2015 04 09 07 18 42 .84       3    -11     -4     12     13 164.9 -19.7  33218  273.82 0865.05
2015 04 09 07 18 43 .10       3    -11     -4     12     13 164.9 -19.7  33218  273.82 0865.05
2015 04 09 07 18 43 .35       3    -11     -4     12     13 164.9 -19.7  33218  273.82 0865.05
2015 04 09 07 18 43 .60       3    -11     -4     12     13 164.9 -19.7  33218  273.82 0865.05
2015 04 09 07 18 43 .85       3    -11     -4     12     13 164.9 -19.7  33218  273.82 0865.04
2015 04 09 07 18 44 .10       1    -15     -5     16     16 175.6 -23.8  33216  273.78 0865.04
2015 04 09 07 18 44 .35       1    -15     -5     16     16 175.6 -23.8  33216  273.78 0865.04
2015 04 09 07 18 44 .60       1    -15     -5     16     16 175.6 -23.8  33216  273.78 0865.04
2015 04 09 07 18 44 .85       1    -15     -5     16     16 175.6 -23.8  33216  273.78 0865.04
2015 04 09 07 18 45 .10       3    -11     -4     12     13 164.9 -19.7  33218  273.82 0865.04
2015 04 09 07 18 45 .35       3    -11     -4     12     13 164.9 -19.7  33218  273.82 0865.04
2015 04 09 07 18 45 .60       3    -11     -4     12     13 164.9 -19.7  33218  273.82 0865.04
2015 04 09 07 18 45 .85       3    -11     -4     12     13 164.9 -19.7  33218  273.82 0865.04
2015 04 09 07 18 46 .10       3    -11     -4     12     13 164.9 -19.7  33218  273.82 0865.04
2015 04 09 07 18 46 .35       3    -11     -4     12     13 164.9 -19.7  33218  273.82 0865.04
2015 04 09 07 18 46 .60       3    -11     -4     12     13 164.9 -19.7  33218  273.82 0865.04
2015 04 09 07 18 46 .85       3    -11     -4     12     13 164.9 -19.7  33218  273.82 0865.04
2015 04 09 07 18 47 .10       3    -11     -4     12     13 164.9 -19.7  33218  273.82 0865.04
2015 04 09 07 18 47 .35       3    -11     -4     12     13 164.9 -19.7  33218  273.82 0865.04
2015 04 09 07 18 47 .61       3    -11     -4     12     13 164.9 -19.7  33218  273.82 0865.04
2015 04 09 07 18 47 .86       3    -11     -4     12     13 164.9 -19.7  33218  273.82 0865.04
2015 04 09 07 18 48 .11       3    -11     -4     12     13 164.9 -19.7  33218  273.82 0865.04
2015 04 09 07 18 48 .36       3    -11     -4     12     13 164.9 -19.7  33218  273.82 0865.04
2015 04 09 07 18 48 .61       3    -11     -4     12     13 164.9 -19.7  33218  273.82 0865.04
2015 04 09 07 18 48 .86       3    -11     -4     12     13 164.9 -19.7  33218  273.82 0865.04
2015 04 09 07 18 49 .12       3    -11     -4     12     13 164.9 -19.7  33218  273.82 0865.04
2015 04 09 07 18 49 .37       3    -11     -4     12     13 164.9 -19.7  33218  273.82 0865.04
2015 04 09 07 18 49 .62       3    -11     -4     12     13 164.9 -19.7  33218  273.82 0865.04
2015 04 09 07 18 49 .87       3    -11     -4     12     13 164.9 -19.7  33218  273.82 0865.04
2015 04 09 07 18 50 .12       3    -11     -4     12     13 164.9 -19.7  33218  273.82 0865.04
2015 04 09 07 18 50 .37       3    -11     -4     12     13 164.9 -19.7  33218  273.82 0865.04
2015 04 09 07 18 50 .62       3    -11     -4     12     13 164.9 -19.7  33218  273.82 0865.04
2015 04 09 07 18 50 .87       3    -11     -4     12     13 164.9 -19.7  33218  273.82 0865.04
2015 04 09 07 18 51 .12       3    -11     -4     12     13 164.9 -19.7  33218  273.82 0865.04
2015 04 09 07 18 51 .37       3    -11     -4     12     13 164.9 -19.7  33218  273.82 0865.04
2015 04 09 07 18 51 .63       3    -11     -4     12     13 164.9 -19.7  33218  273.82 0865.04
2015 04 09 07 18 51 .88       3    -11     -4     12     13 164.9 -19.7  33218  273.82 0865.04
2015 04 09 07 18 52 .12       7    -11     -5     14     14 147.5 -23.6  33218  273.83 0865.04
2015 04 09 07 18 52 .38       7    -11     -5     14     14 147.5 -23.6  33218  273.83 0865.04
2015 04 09 07 18 52 .63       7    -11     -5     14     14 147.5 -23.6  33218  273.83 0865.04
2015 04 09 07 18 52 .88       7    -11     -5     14     14 147.5 -23.6  33218  273.83 0865.04
2015 04 09 07 18 53 .13       7    -11     -5     14     14 147.5 -23.6  33218  273.83 0865.04
2015 04 09 07 18 53 .38       7    -11     -5     14     14 147.5 -23.6  33218  273.83 0865.04
2015 04 09 07 18 53 .63       6    -11     -5     13     13 151.0 -23.3  33222  273.88 0865.04
2015 04 09 07 18 53 .88       4    -16     -8     17     18 164.9 -27.4  33224  273.92 0865.04
2015 04 09 07 18 54 .13       0    -15     -5     16     16 179.1 -23.8  33224  273.93 0865.04
2015 04 09 07 18 54 .38       0    -15     -5     16     16 179.1 -23.8  33224  273.93 0865.04
2015 04 09 07 18 54 .63       0    -15     -5     16     16 179.1 -23.8  33224  273.93 0865.04
2015 04 09 07 18 54 .88       0    -15     -5     16     16 179.1 -23.8  33224  273.93 0865.04
2015 04 09 07 18 55 .13       6    -11     -5     13     13 151.0 -23.3  33222  273.88 0865.04
2015 04 09 07 18 55 .38       4     -7     -7      9     11 147.5 -48.1  33220  273.87 0865.04
2015 04 09 07 18 55 .63       4     -7     -7      9     11 147.5 -48.1  33220  273.87 0865.04
2015 04 09 07 18 55 .88       4     -7     -7      9     11 147.5 -48.1  33220  273.87 0865.04
2015 04 09 07 18 56 .14       4     -7     -7      9     11 147.5 -48.1  33220  273.87 0865.04
2015 04 09 07 18 56 .39       4     -7     -7      9     11 147.5 -48.1  33220  273.87 0865.04
2015 04 09 07 18 56 .65       6    -11     -5     13     13 151.0 -23.3  33222  273.88 0865.04
2015 04 09 07 18 56 .90       6    -11     -5     13     13 151.0 -23.3  33222  273.88 0865.04
2015 04 09 07 18 57 .15       6    -11     -5     13     13 151.0 -23.3  33222  273.88 0865.04
2015 04 09 07 18 57 .40       6    -11     -5     13     13 151.0 -23.3  33222  273.88 0865.05
2015 04 09 07 18 57 .65       6    -11     -5     13     13 151.0 -23.3  33222  273.88 0865.05
2015 04 09 07 18 57 .90       6    -11     -5     13     13 151.0 -23.3  33222  273.88 0865.05
2015 04 09 07 18 58 .15       6    -11     -5     13     13 151.0 -23.3  33222  273.88 0865.05
2015 04 09 07 18 58 .40       6    -11     -5     13     13 151.0 -23.3  33222  273.88 0865.05
2015 04 09 07 18 58 .65       6    -11     -5     13     13 151.0 -23.3  33222  273.88 0865.05
2015 04 09 07 18 58 .90       6    -11     -5     13     13 151.0 -23.3  33222  273.88 0865.05
2015 04 09 07 18 59 .15       6    -11     -5     13     13 151.0 -23.3  33222  273.88 0865.05
2015 04 09 07 18 59 .40       6    -11     -5     13     13 151.0 -23.3  33222  273.88 0865.05
2015 04 09 07 18 59 .65       6    -11     -5     13     13 151.0 -23.3  33222  273.88 0865.05
2015 04 09 07 18 59 .90       6    -11     -5     13     13 151.0 -23.3  33222  273.88 0865.05
2015 04 09 07 19 00 .16       1    -10     -3     11     12 172.0 -15.5  33224  273.92 0865.05
2015 04 09 07 19 00 .40       1    -10     -3     11     12 172.0 -15.5  33224  273.92 0865.05
2015 04 09 07 19 00 .65       0     -7     -5      8      9 182.7 -39.9  33222  273.88 0865.05
2015 04 09 07 19 00 .91       4     -7     -7      9     11 147.5 -48.1  33220  273.87 0865.05
2015 04 09 07 19 01 .16       1    -12     -9     13     15 172.0 -40.0  33222  273.88 0865.05
2015 04 09 07 19 01 .41      -1    -12     -8     13     15 186.2 -39.9  33228  273.98 0865.05
2015 04 09 07 19 01 .66      -1    -12     -7     13     14 184.5 -39.9  33226  273.97 0865.05
2015 04 09 07 19 01 .91       0     -7     -5      8      9 175.5 -39.9  33228  273.98 0865.05
2015 04 09 07 19 02 .16       4     -7     -7      9     11 147.5 -48.1  33226  273.97 0865.05
2015 04 09 07 19 02 .41      -1    -12     -8     13     15 186.2 -39.9  33230  274.01 0865.05
2015 04 09 07 19 02 .66       6     -7     -8     10     12 140.4 -52.3  33232  274.06 0865.05
2015 04 09 07 19 02 .91       0     -7     -5      8      9 175.5 -39.9  33230  274.03 0865.05
2015 04 09 07 19 03 .17       0     -7     -5      8      9 175.5 -39.9  33230  274.03 0865.05
2015 04 09 07 19 03 .42       3    -11     -4     12     13 164.9 -19.7  33232  274.06 0865.05
2015 04 09 07 19 03 .67       0     -7     -5      8      9 175.5 -39.9  33230  274.03 0865.04
2015 04 09 07 19 03 .92       4     -7     -7      9     11 147.5 -48.1  33230  274.01 0865.04
2015 04 09 07 19 04 .17       6    -11     -5     13     13 151.0 -23.3  33228  274.00 0865.04
2015 04 09 07 19 04 .42       6    -11     -5     13     13 151.0 -23.3  33228  274.00 0865.04
2015 04 09 07 19 04 .67       4    -16     -8     17     18 164.9 -27.4  33226  273.97 0865.04
2015 04 09 07 19 04 .92       4    -16     -8     17     18 164.9 -27.4  33226  273.97 0865.04
2015 04 09 07 19 05 .17       4    -16     -8     17     18 164.9 -27.4  33226  273.97 0865.04
2015 04 09 07 19 05 .43       7    -11    -12     14     18 147.5 -56.4  33226  273.97 0865.04
2015 04 09 07 19 05 .68       7    -11    -12     14     18 147.5 -56.4  33230  274.01 0865.05
2015 04 09 07 19 05 .93       7    -11    -12     14     18 147.5 -56.4  33226  273.97 0865.05
2015 04 09 07 19 06 .18       1    -12     -9     13     15 172.0 -40.0  33226  273.95 0865.05
2015 04 09 07 19 06 .43       1    -12     -9     13     15 172.0 -40.0  33226  273.95 0865.05
2015 04 09 07 19 06 .68       7    -11    -12     14     18 147.5 -56.4  33224  273.92 0865.05
2015 04 09 07 19 06 .93       1    -12     -9     13     15 172.0 -40.0  33222  273.88 0865.05
2015 04 09 07 19 07 .18       1    -12     -9     13     15 172.0 -40.0  33226  273.95 0865.05
2015 04 09 07 19 07 .43       1    -12     -9     13     15 172.0 -40.0  33226  273.95 0865.04
2015 04 09 07 19 07 .68       1    -12     -9     13     15 172.0 -40.0  33226  273.95 0865.04
2015 04 09 07 19 07 .93       7    -11    -12     14     18 147.5 -56.4  33224  273.92 0865.04
2015 04 09 07 19 08 .18       1    -12     -9     13     15 172.0 -40.0  33226  273.95 0865.04
2015 04 09 07 19 08 .43       4    -16     -8     17     18 164.9 -27.4  33226  273.97 0865.04
2015 04 09 07 19 08 .68       1    -12     -9     13     15 172.0 -40.0  33226  273.95 0865.04
2015 04 09 07 19 08 .93       4    -16     -8     17     18 164.9 -27.4  33226  273.97 0865.04
2015 04 09 07 19 09 .19       4     -7     -7      9     11 147.5 -48.1  33226  273.97 0865.05
2015 04 09 07 19 09 .44       8     -8     -9     12     15 133.1 -48.1  33228  274.00 0865.05
2015 04 09 07 19 09 .69       8     -8     -9     12     15 133.1 -48.1  33228  274.00 0865.05
2015 04 09 07 19 09 .95      12    -11     -8     17     18 133.3 -27.4  33230  274.01 0865.05
2015 04 09 07 19 10 .20       4     -7     -7      9     11 147.5 -48.1  33230  274.01 0865.05
2015 04 09 07 19 10 .45       4     -7     -7      9     11 147.5 -48.1  33230  274.01 0865.05
2015 04 09 07 19 10 .70       4     -7     -7      9     11 147.5 -48.1  33226  273.97 0865.05
2015 04 09 07 19 10 .95       6    -11     -5     13     13 151.0 -23.3  33228  274.00 0865.04
2015 04 09 07 19 11 .20      12    -11     -8     17     18 133.3 -27.4  33230  274.01 0865.04
2015 04 09 07 19 11 .45       8     -8     -9     12     15 133.1 -48.1  33232  274.05 0865.04
2015 04 09 07 19 11 .70       8     -8     -9     12     15 133.1 -48.1  33232  274.05 0865.04
2015 04 09 07 19 11 .95       6     -7     -8     10     12 140.4 -52.3  33236  274.11 0865.04
2015 04 09 07 19 12 .20      11     -5     -8     13     15 115.3 -39.9  33236  274.11 0865.04
2015 04 09 07 19 12 .45       6     -7     -8     10     12 140.4 -52.3  33236  274.11 0865.04
2015 04 09 07 19 12 .70       8     -5     -6     10     11 122.4 -39.9  33234  274.08 0865.04
2015 04 09 07 19 12 .96       6     -7     -8     10     12 140.4 -52.3  33236  274.11 0865.04
2015 04 09 07 19 13 .20       2     -4     -3      5      5 147.5 -39.9  33238  274.16 0865.04
2015 04 09 07 19 13 .45       2     -4     -3      5      5 147.5 -39.9  33238  274.16 0865.04
2015 04 09 07 19 13 .70       4     -7      0      9     10 151.0  -3.1  33238  274.15 0865.04
2015 04 09 07 19 13 .96       4     -7      0      9     10 151.0  -3.1  33234  274.08 0865.04
2015 04 09 07 19 14 .21       8     -5     -6     10     11 122.4 -39.9  33234  274.08 0865.04
2015 04 09 07 19 14 .46       6     -5     -5      8      9 129.5 -39.9  33240  274.20 0865.04
2015 04 09 07 19 14 .71       8     -8     -4     12     13 136.6 -19.7  33236  274.11 0865.04
2015 04 09 07 19 14 .96       4     -7      0      9     10 151.0  -3.1  33238  274.15 0865.04
2015 04 09 07 19 15 .21       8     -8     -4     12     13 136.6 -19.7  33236  274.11 0865.04
2015 04 09 07 19 15 .46       6     -5     -5      8      9 129.5 -39.9  33240  274.20 0865.04
2015 04 09 07 19 15 .71      11     -5     -8     13     15 115.3 -39.9  33238  274.16 0865.04
2015 04 09 07 19 15 .96      12    -11     -8     17     18 133.3 -27.4  33238  274.16 0865.04
2015 04 09 07 19 16 .21      10    -16     -9     19     21 147.5 -31.6  33234  274.10 0865.04
2015 04 09 07 19 16 .46       7    -11     -5     14     14 147.5 -23.6  33232  274.05 0865.04
2015 04 09 07 19 16 .71       5    -13      0     15     16 158.2  -2.2  33234  274.08 0865.04
2015 04 09 07 19 16 .97       4    -12      0     13     14 158.2  -2.2  33230  274.01 0865.04
2015 04 09 07 19 17 .22      10    -19      0     22     23 151.0  -2.2  33228  274.00 0865.05
2015 04 09 07 19 17 .48      15    -19     -3     25     26 140.4  -7.3  33230  274.01 0865.05
2015 04 09 07 19 17 .72      14    -15     -5     21     22 136.8 -15.5  33232  274.05 0865.05
2015 04 09 07 19 17 .98      17    -17     -8     25     26 134.9 -23.8  33230  274.01 0865.05
2015 04 09 07 19 18 .23      15    -12     -4     20     21 127.8 -11.3  33226  273.97 0865.05
2015 04 09 07 19 18 .48      15    -12     -4     20     21 127.8 -11.3  33226  273.97 0865.05
2015 04 09 07 19 18 .73      16    -16      0     24     25 134.9  -2.2  33224  273.93 0865.05
2015 04 09 07 19 18 .98      16    -16      0     24     25 134.9  -2.2  33224  273.93 0865.05
2015 04 09 07 19 19 .23      15    -19     -3     25     26 140.4  -7.3  33226  273.97 0865.05
2015 04 09 07 19 19 .48      10    -19      0     22     23 151.0  -2.2  33228  274.00 0865.05
2015 04 09 07 19 19 .73      14    -15     -5     21     22 136.8 -15.5  33228  274.00 0865.05
2015 04 09 07 19 19 .98      12    -11     -8     17     18 133.3 -27.4  33226  273.97 0865.04
2015 04 09 07 19 20 .23      12    -11     -8     17     18 133.3 -27.4  33226  273.97 0865.04
2015 04 09 07 19 20 .48      14    -15     -5     21     22 136.8 -15.5  33228  274.00 0865.04
2015 04 09 07 19 20 .73       8    -15     -3     18     19 151.0 -11.3  33230  274.01 0865.04
2015 04 09 07 19 20 .98       8    -15     -3     18     19 151.0 -11.3  33230  274.01 0865.04
2015 04 09 07 19 21 .23       8    -15     -3     18     19 151.0 -11.3  33230  274.01 0865.04
2015 04 09 07 19 21 .48       4    -15      0     16     17 164.9  -2.2  33228  274.00 0865.04
2015 04 09 07 19 21 .73       6    -17      0     19     20 161.3  -2.2  33230  274.01 0865.04
2015 04 09 07 19 21 .98       4    -15      0     16     17 164.9  -2.2  33228  274.00 0865.04
2015 04 09 07 19 22 .23       4    -15      0     16     17 164.9  -2.2  33228  274.00 0865.04
2015 04 09 07 19 22 .49       6    -19     -5     21     22 161.5 -15.5  33222  273.88 0865.04
2015 04 09 07 19 22 .74       8    -26    -11     28     30 161.3 -25.4  33228  274.00 0865.05
2015 04 09 07 19 22 .99       5    -29     -8     30     32 168.5 -15.5  33242  274.21 0865.05
2015 04 09 07 19 23 .24       0    -21    -12     22     25 179.1 -37.9  33242  274.21 0865.05
2015 04 09 07 19 23 .49       0    -20     -6     21     23 179.1 -17.6  33246  274.30 0865.05
2015 04 09 07 19 23 .74      -3    -22     -3     23     24 188.0  -9.3  33244  274.26 0865.05
2015 04 09 07 19 24 .00       0    -20     -6     21     23 179.1 -17.6  33240  274.20 0865.05
2015 04 09 07 19 24 .25       2    -18     -3     19     20 173.8  -9.3  33242  274.21 0865.05
2015 04 09 07 19 24 .50       7    -19    -12     21     24 160.0 -35.8  33232  274.06 0865.05
2015 04 09 07 19 24 .75       7    -19    -12     21     24 160.0 -35.8  33226  273.97 0865.05
2015 04 09 07 19 25 .00       7    -19    -12     21     24 160.0 -35.8  33226  273.97 0865.05
2015 04 09 07 19 25 .25       9    -16    -10     19     21 151.0 -33.7  33224  273.93 0865.05
2015 04 09 07 19 25 .50       9    -16    -10     19     21 151.0 -33.7  33224  273.93 0865.05
2015 04 09 07 19 25 .75       9    -16    -10     19     21 151.0 -33.7  33224  273.93 0865.05
2015 04 09 07 19 26 .00       9    -16    -10     19     21 151.0 -33.7  33224  273.93 0865.05
2015 04 09 07 19 26 .25       9    -16    -10     19     21 151.0 -33.7  33224  273.93 0865.05
2015 04 09 07 19 26 .51       9    -15     -9     18     20 147.5 -33.7  33228  273.98 0865.05
2015 04 09 07 19 26 .75       2    -17     -3     18     19 172.0 -11.3  33232  274.06 0865.05
2015 04 09 07 19 27 .01       1    -15     -5     16     16 175.6 -23.8  33234  274.08 0865.05
2015 04 09 07 19 27 .26       2    -17     -3     18     19 172.0 -11.3  33236  274.11 0865.05
2015 04 09 07 19 27 .51       0    -14      0     15     16 179.1  -2.2  33234  274.10 0865.05
2015 04 09 07 19 27 .76      -5    -19      0     20     21 196.9  -2.2  33242  274.21 0865.05
2015 04 09 07 19 28 .01      -3    -22      1     23     24 189.8   2.9  33242  274.23 0865.05
2015 04 09 07 19 28 .26       0    -14      7     15     16 182.7  27.2  33242  274.23 0865.05
2015 04 09 07 19 28 .51      -3    -16      9     17     19 191.6  31.4  33250  274.36 0865.05
2015 04 09 07 19 28 .76      -1    -12     11     13     17 186.2  47.9  33246  274.28 0865.05
2015 04 09 07 19 29 .01       2    -19      8     20     21 173.8  23.0  33236  274.11 0865.05
2015 04 09 07 19 29 .26       2    -25      9     26     28 175.5  19.4  33236  274.11 0865.05
2015 04 09 07 19 29 .51      10    -29     10     31     33 160.0  18.9  33230  274.03 0865.05
2015 04 09 07 19 29 .76       7    -23      8     25     27 161.7  19.2  33230  274.01 0865.05
2015 04 09 07 19 30 .01      12    -31      6     34     35 158.2  11.1  33230  274.03 0865.05
2015 04 09 07 19 30 .26      11    -34      3     36     37 161.3   4.9  33232  274.06 0865.05
2015 04 09 07 19 30 .51      16    -34      1     38     39 154.6   2.9  33234  274.08 0865.05
2015 04 09 07 19 30 .77       9    -31      1     33     34 163.1   2.9  33230  274.03 0865.05
2015 04 09 07 19 31 .03       8    -26     13     28     30 163.1  27.1  33232  274.06 0865.05
2015 04 09 07 19 31 .28      12    -31      6     34     35 158.2  11.1  33230  274.03 0865.05
2015 04 09 07 19 31 .52       8    -26     13     28     30 163.1  27.1  33232  274.06 0865.05
2015 04 09 07 19 31 .78       6    -24      8     25     27 164.9  17.3  33232  274.05 0865.05
2015 04 09 07 19 32 .03      -1    -22     13     23     26 182.7  33.5  33236  274.11 0865.05
2015 04 09 07 19 32 .28       2    -19     16     20     25 173.8  43.7  33234  274.10 0865.05
2015 04 09 07 19 32 .53       9    -16      9     19     21 151.0  27.2  33232  274.06 0865.05
2015 04 09 07 19 32 .78       7    -18      8     20     21 158.2  23.0  33234  274.08 0865.05
2015 04 09 07 19 33 .03      11    -18     11     22     24 149.3  27.2  33236  274.13 0865.05
2015 04 09 07 19 33 .28      11    -18     11     22     24 149.3  27.2  33236  274.13 0865.05
2015 04 09 07 19 33 .53       9    -16      9     19     21 151.0  27.2  33236  274.11 0865.05
2015 04 09 07 19 33 .78      11    -20     11     23     25 151.0  27.2  33230  274.03 0865.05
2015 04 09 07 19 34 .03       8    -22      8     24     26 160.0  18.9  33226  273.97 0865.05
2015 04 09 07 19 34 .28       5    -23     12     24     26 166.6  29.3  33224  273.93 0865.05
2015 04 09 07 19 34 .53       6    -23     11     24     26 164.9  25.1  33228  273.98 0865.05
2015 04 09 07 19 34 .78      11    -20     11     23     25 151.0  27.2  33228  273.98 0865.05
2015 04 09 07 19 35 .03       5    -23     12     24     26 166.6  29.3  33224  273.93 0865.05
2015 04 09 07 19 35 .28       5    -23     12     24     26 166.6  29.3  33224  273.93 0865.05
2015 04 09 07 19 35 .53       5    -23     12     24     26 166.6  29.3  33224  273.93 0865.05
2015 04 09 07 19 35 .78       5    -23     12     24     26 166.6  29.3  33224  273.93 0865.05
2015 04 09 07 19 36 .03       5    -23     12     24     26 166.6  29.3  33224  273.93 0865.05
2015 04 09 07 19 36 .29       0    -21      7     22     24 179.1  19.4  33232  274.05 0865.05
2015 04 09 07 19 36 .54      -2    -19     12     20     23 186.2  33.5  33236  274.13 0865.05
2015 04 09 07 19 36 .79       2    -18      9     19     21 172.0  27.2  33238  274.16 0865.05
2015 04 09 07 19 37 .04       0    -18     11     19     21 182.7  33.5  33240  274.18 0865.05
2015 04 09 07 19 37 .29      -6    -18     14     20     24 198.7  39.7  33238  274.16 0865.05
2015 04 09 07 19 37 .54       0    -18     11     19     21 182.7  33.5  33246  274.28 0865.05
2015 04 09 07 19 37 .80       0    -13      7     14     15 179.1  27.2  33242  274.23 0865.05
2015 04 09 07 19 38 .05       0    -19     11     20     22 180.9  31.4  33234  274.08 0865.05
2015 04 09 07 19 38 .30       0    -19     11     20     22 180.9  31.4  33230  274.03 0865.05
2015 04 09 07 19 38 .55       4    -14      5     15     16 161.5  19.4  33226  273.97 0865.05
2015 04 09 07 19 38 .81       6    -18      7     20     22 160.0  19.2  33228  274.00 0865.05
2015 04 09 07 19 39 .05      11    -22      6     25     26 152.8  15.3  33234  274.08 0865.05
2015 04 09 07 19 39 .30      15    -21      9     26     28 143.9  19.2  33230  274.01 0865.05
2015 04 09 07 19 39 .55      11    -20     11     23     25 151.0  27.2  33226  273.95 0865.05
2015 04 09 07 19 39 .81       8    -22      8     24     26 160.0  18.9  33226  273.97 0865.05
2015 04 09 07 19 40 .05      11    -20     11     23     25 151.0  27.2  33226  273.95 0865.05
2015 04 09 07 19 40 .31      15    -21      9     26     28 143.9  19.2  33230  274.01 0865.05
2015 04 09 07 19 40 .56       9    -16      9     19     21 151.0  27.2  33232  274.06 0865.05
2015 04 09 07 19 40 .81       0    -15     13     16     20 179.1  43.7  33232  274.05 0865.05
2015 04 09 07 19 41 .06      -3    -23     16     24     28 188.0  35.6  33240  274.18 0865.05
2015 04 09 07 19 41 .31       0    -23     13     24     27 180.9  31.4  33244  274.26 0865.05
2015 04 09 07 19 41 .56       2    -19     16     20     25 173.8  43.7  33246  274.30 0865.05
2015 04 09 07 19 41 .81       0    -19     24     20     31 180.9  56.3  33250  274.34 0865.05
2015 04 09 07 19 42 .06      -7    -22     25     24     34 198.7  48.2  33250  274.36 0865.05
2015 04 09 07 19 42 .31      -3    -23     22     24     32 188.0  50.0  33250  274.36 0865.05
2015 04 09 07 19 42 .56      -5    -27     20     28     34 191.6  37.6  33244  274.25 0865.06
2015 04 09 07 19 42 .81     -13    -22     20     26     32 210.7  43.7  33240  274.18 0865.06
2015 04 09 07 19 43 .07      -9    -12     22     16     27 216.1  60.5  33244  274.26 0865.06
2015 04 09 07 19 43 .31     -12    -16     20     21     29 217.8  52.0  33248  274.33 0865.06
2015 04 09 07 19 43 .56     -14    -20     17     25     30 216.1  37.6  33242  274.21 0865.06
2015 04 09 07 19 43 .81     -10    -19     16     22     27 207.2  39.7  33238  274.15 0865.06
2015 04 09 07 19 44 .07      -6    -18     14     20     24 198.7  39.7  33238  274.16 0865.06
2015 04 09 07 19 44 .31      -2    -15     16     16     22 188.0  50.1  33240  274.18 0865.06
2015 04 09 07 19 44 .57      -7    -17     11     19     21 201.8  33.5  33240  274.18 0865.06
2015 04 09 07 19 44 .83      -7    -15     11     17     20 205.4  37.6  33242  274.23 0865.06
2015 04 09 07 19 45 .08      -2     -7      9      8     12 198.5  52.2  33242  274.21 0865.06
2015 04 09 07 19 45 .33       0    -11     11     12     16 180.9  52.0  33242  274.23 0865.06
2015 04 09 07 19 45 .58       0    -11     11     12     16 180.9  52.0  33246  274.30 0865.06
2015 04 09 07 19 45 .83       0     -7     13      8     15 182.7  64.7  33250  274.36 0865.06
2015 04 09 07 19 46 .08       1    -11      9     12     15 172.0  43.7  33254  274.41 0865.06
2015 04 09 07 19 46 .33      -4    -12     14     13     19 198.3  48.2  33250  274.36 0865.06
2015 04 09 07 19 46 .58       0    -15     13     16     20 179.1  43.7  33244  274.26 0865.06
2015 04 09 07 19 46 .84      -7    -24     17     26     31 196.9  35.6  33248  274.31 0865.06
2015 04 09 07 19 47 .08      -7    -22     18     24     30 198.3  41.7  33256  274.46 0865.06
2015 04 09 07 19 47 .33      -6    -20     13     21     24 196.9  35.5  33254  274.41 0865.06
2015 04 09 07 19 47 .58      -1    -18     17     19     25 184.4  47.9  33250  274.36 0865.06
2015 04 09 07 19 47 .83       4    -22     11     23     25 168.4  27.2  33248  274.33 0865.06
2015 04 09 07 19 48 .08       4    -22     11     23     25 168.4  27.2  33242  274.23 0865.06
2015 04 09 07 19 48 .34       0    -21     13     22     25 180.9  35.5  33250  274.36 0865.06
2015 04 09 07 19 48 .59      -2    -21     16     22     27 186.2  39.7  33254  274.43 0865.06
2015 04 09 07 19 48 .83      -1    -19     11     20     22 184.5  31.4  33250  274.34 0865.06
2015 04 09 07 19 49 .09       6    -19      7     21     23 161.5  19.4  33246  274.28 0865.06
2015 04 09 07 19 49 .34      -1    -18     12     19     22 184.4  35.5  33252  274.39 0865.06
2015 04 09 07 19 49 .59      -7    -15     18     17     24 205.4  48.2  33256  274.46 0865.06
2015 04 09 07 19 49 .84      -6    -15     17     17     24 201.8  50.1  33260  274.51 0865.06
2015 04 09 07 19 50 .09      -6    -18     19     20     27 198.7  52.0  33252  274.39 0865.06
2015 04 09 07 19 50 .34     -10    -20     16     23     28 207.2  37.6  33242  274.23 0865.06
2015 04 09 07 19 50 .59     -12    -16     20     21     29 217.8  52.0  33246  274.28 0865.06
2015 04 09 07 19 50 .84      -6    -20     20     21     29 196.9  52.0  33246  274.30 0865.06
2015 04 09 07 19 51 .09      -7     -7     18     11     21 225.0  66.8  33248  274.31 0865.06
2015 04 09 07 19 51 .34      -7    -15     18     17     24 205.4  48.2  33248  274.31 0865.06
2015 04 09 07 19 51 .59      -2    -15     16     16     22 188.0  50.1  33248  274.33 0865.06
2015 04 09 07 19 51 .86      -5    -11     13     13     18 205.4  50.1  33256  274.46 0865.06
2015 04 09 07 19 52 .10      -3     -8     15      9     17 205.4  64.7  33258  274.48 0865.06
2015 04 09 07 19 52 .36      -8    -12     16     15     21 212.6  50.1  33254  274.43 0865.06
2015 04 09 07 19 52 .61      -1    -12     17     13     21 184.5  58.5  33266  274.61 0865.06
2015 04 09 07 19 52 .86      -3    -14     22     15     26 191.6  64.6  33268  274.66 0865.06
2015 04 09 07 19 53 .10      -5    -12     20     14     24 201.8  60.5  33264  274.58 0865.06
2015 04 09 07 19 53 .36      -7    -15     18     17     24 205.4  48.2  33254  274.41 0865.05
2015 04 09 07 19 53 .61      -5    -10     21     12     24 205.4  68.8  33264  274.58 0865.05
2015 04 09 07 19 53 .86      -4     -5     13      7     14 223.4  64.7  33268  274.66 0865.05
2015 04 09 07 19 54 .11      -2     -7     16      8     17 198.5  72.9  33262  274.54 0865.05
2015 04 09 07 19 54 .36       0    -15     13     16     20 179.1  43.7  33254  274.41 0865.05
2015 04 09 07 19 54 .61       0    -19     11     20     22 180.9  31.4  33248  274.33 0865.05
2015 04 09 07 19 54 .86       0    -15     13     16     20 179.1  43.7  33244  274.26 0865.05
2015 04 09 07 19 55 .11       0    -15     13     16     20 179.1  43.7  33242  274.21 0865.06
2015 04 09 07 19 55 .36      -1    -12     11     13     17 186.2  47.9  33250  274.34 0865.06
2015 04 09 07 19 55 .61       3    -10     10     11     14 161.5  52.0  33252  274.39 0865.06
2015 04 09 07 19 55 .86      -1    -11     11     12     16 188.0  52.0  33256  274.44 0865.06
2015 04 09 07 19 56 .11       0     -3     17      4     17 184.5  89.0  33260  274.51 0865.06
2015 04 09 07 19 56 .36      -4    -12     19     13     23 198.3  60.5  33266  274.63 0865.06
2015 04 09 07 19 56 .61     -11      0     20     12     23 269.2  66.8  33274  274.74 0865.06
2015 04 09 07 19 56 .87       0     -3     17      4     17 184.5  89.0  33284  274.91 0865.06
2015 04 09 07 19 57 .12       0      0     13      1     13 189.7  90.0  33282  274.87 0865.05
2015 04 09 07 19 57 .36      -4     -3     14      6     15 230.5  77.1  33286  274.96 0865.05
2015 04 09 07 19 57 .62      -1      0     15      2     15 251.6  90.0  33274  274.74 0865.05
2015 04 09 07 19 57 .87      -4     -3     14      6     15 230.5  77.1  33272  274.71 0865.05
2015 04 09 07 19 58 .12      -2    -15     16     16     22 188.0  50.1  33248  274.33 0865.05
2015 04 09 07 19 58 .37      -9    -27     16     29     33 198.5  31.4  33246  274.30 0865.05
2015 04 09 07 19 58 .63      -7    -24     17     26     31 196.9  35.6  33248  274.31 0865.05
2015 04 09 07 19 58 .88      -2    -24     16     25     29 186.2  35.5  33248  274.33 0865.05
2015 04 09 07 19 59 .13      -4    -12     19     13     23 198.3  60.5  33252  274.39 0865.05
2015 04 09 07 19 59 .38       0    -11     18     12     21 180.9  62.6  33262  274.56 0865.05
2015 04 09 07 19 59 .63       3     -8     18      9     20 154.6  70.8  33260  274.51 0865.05
2015 04 09 07 19 59 .88      -6    -20     20     21     29 196.9  52.0  33242  274.23 0865.05
2015 04 09 07 20 00 .13      -3    -23     22     24     32 188.0  50.0  33238  274.16 0865.05
2015 04 09 07 20 00 .38     -11    -17     26     21     33 214.3  56.4  33248  274.31 0865.05
2015 04 09 07 20 00 .63      -7    -15     18     17     24 205.4  48.2  33244  274.26 0865.05
2015 04 09 07 20 00 .88     -10    -19     22     22     31 207.2  50.1  33244  274.26 0865.05
2015 04 09 07 20 01 .14     -10    -19     22     22     31 207.2  50.1  33244  274.26 0865.05
2015 04 09 07 20 01 .38      -6    -20     26     21     33 196.9  56.4  33248  274.31 0865.05
2015 04 09 07 20 01 .64     -12    -27     24     30     38 205.4  43.7  33242  274.23 0865.06
2015 04 09 07 20 01 .88      -8    -26     22     28     35 198.5  43.7  33242  274.21 0865.06
2015 04 09 07 20 02 .14     -17    -27     20     33     38 212.6  35.5  33230  274.03 0865.06
2015 04 09 07 20 02 .39     -14    -20     24     25     34 216.1  52.0  33234  274.08 0865.06
2015 04 09 07 20 02 .64     -19    -31     18     37     41 212.5  27.2  33230  274.01 0865.06
2015 04 09 07 20 02 .89     -15    -24     22     29     36 212.6  41.7  33236  274.11 0865.06
2015 04 09 07 20 03 .14     -14    -26     24     30     38 209.0  43.7  33232  274.05 0865.06
2015 04 09 07 20 03 .39     -14    -26     24     30     38 209.0  43.7  33232  274.05 0865.06
2015 04 09 07 20 03 .64     -15    -27     24     31     39 209.0  43.7  33234  274.10 0865.06
2015 04 09 07 20 03 .89     -14    -26     17     30     34 209.0  31.4  33230  274.01 0865.06
2015 04 09 07 20 04 .14     -15    -31     15     35     38 207.2  23.0  33222  273.88 0865.06
2015 04 09 07 20 04 .39     -15    -31     16     35     38 207.2  25.1  33224  273.93 0865.06
2015 04 09 07 20 04 .64     -20    -24     24     32     40 219.7  40.7  33236  274.13 0865.06
2015 04 09 07 20 04 .89     -16    -22     22     28     35 216.1  43.7  33236  274.11 0865.06
2015 04 09 07 20 05 .14     -17    -27     13     33     35 212.6  21.0  33230  274.01 0865.05
2015 04 09 07 20 05 .39     -15    -31     16     35     38 207.2  25.1  33228  273.98 0865.05
2015 04 09 07 20 05 .65     -17    -27     20     33     38 212.6  35.5  33230  274.03 0865.05
2015 04 09 07 20 05 .91     -10    -31     14     33     35 198.3  23.0  33230  274.01 0865.05
2015 04 09 07 20 06 .16     -14    -27     18     31     35 207.2  35.5  33232  274.06 0865.05
2015 04 09 07 20 06 .40     -14    -27     18     31     35 207.2  35.5  33236  274.11 0865.05
2015 04 09 07 20 06 .66     -12    -25      9     28     30 205.4  18.9  33228  273.98 0865.05
2015 04 09 07 20 06 .91     -12    -25      9     28     30 205.4  18.9  33228  273.98 0865.05
2015 04 09 07 20 07 .16     -15    -21      9     26     28 216.1  19.4  33230  274.01 0865.05
2015 04 09 07 20 07 .41     -12    -25      9     28     30 205.4  18.9  33228  273.98 0865.05
2015 04 09 07 20 07 .66     -11    -23     13     26     29 205.4  27.2  33230  274.01 0865.05
2015 04 09 07 20 07 .91     -13    -25     10     29     31 207.2  18.9  33230  274.03 0865.05
2015 04 09 07 20 08 .16     -12    -21      6     25     26 210.7  15.3  33230  274.03 0865.05
2015 04 09 07 20 08 .41     -11    -23     13     26     29 205.4  27.2  33226  273.97 0865.05
2015 04 09 07 20 08 .66     -12    -25      9     28     30 205.4  18.9  33228  273.98 0865.05
2015 04 09 07 20 08 .91     -12    -25      9     28     30 205.4  18.9  33228  273.98 0865.05
2015 04 09 07 20 09 .16     -13    -25     10     29     31 207.2  18.9  33230  274.03 0865.05
2015 04 09 07 20 09 .41     -13    -25     10     29     31 207.2  18.9  33234  274.10 0865.05
2015 04 09 07 20 09 .66     -12    -21      6     25     26 210.7  15.3  33230  274.03 0865.05
2015 04 09 07 20 09 .91     -15    -21      9     26     28 216.1  19.4  33230  274.01 0865.05
2015 04 09 07 20 10 .17     -13    -25     10     29     31 207.2  18.9  33230  274.03 0865.05
2015 04 09 07 20 10 .41     -10    -31     14     33     35 198.3  23.0  33230  274.01 0865.05
2015 04 09 07 20 10 .67     -11    -23     13     26     29 205.4  27.2  33236  274.11 0865.05
2015 04 09 07 20 10 .92     -14    -26     17     30     34 209.0  31.4  33236  274.11 0865.05
2015 04 09 07 20 11 .17      -1    -18     24     19     30 184.4  56.4  33244  274.25 0865.05
2015 04 09 07 20 11 .41      -4    -23     22     24     32 189.8  50.0  33244  274.26 0865.05
2015 04 09 07 20 11 .67      -9    -27     22     29     36 198.3  41.7  33244  274.26 0865.05
2015 04 09 07 20 11 .92      -6    -31     24     32     40 191.6  40.7  33244  274.25 0865.05
2015 04 09 07 20 12 .17     -11    -34     22     36     42 198.7  34.4  33232  274.06 0865.05
2015 04 09 07 20 12 .42     -11    -34     22     36     42 198.7  34.4  33232  274.06 0865.06
2015 04 09 07 20 12 .68      -6    -31     17     32     36 191.6  29.3  33232  274.06 0865.06
2015 04 09 07 20 12 .93     -16    -35     13     39     42 205.5  19.2  33230  274.01 0865.06
2015 04 09 07 20 13 .18     -10    -31     13     33     35 198.3  21.0  33232  274.06 0865.06
2015 04 09 07 20 13 .43     -17    -27     13     33     35 212.6  21.0  33232  274.06 0865.06
2015 04 09 07 20 13 .69     -22    -27     16     36     39 219.7  25.1  33234  274.10 0865.06
2015 04 09 07 20 13 .94     -12    -20     24     24     33 212.5  50.1  33246  274.30 0865.06
2015 04 09 07 20 14 .19      -3    -23     22     24     32 188.0  50.0  33250  274.36 0865.05
2015 04 09 07 20 14 .44      -1    -27     17     28     32 182.7  35.5  33260  274.51 0865.05
2015 04 09 07 20 14 .68     -11    -23     19     26     32 207.2  39.7  33242  274.23 0865.05
2015 04 09 07 20 14 .93      -9    -27     16     29     33 198.5  31.4  33230  274.03 0865.05
2015 04 09 07 20 15 .18     -10    -31     14     33     35 198.3  23.0  33230  274.01 0865.05
2015 04 09 07 20 15 .44      -7    -31     11     32     34 193.4  19.2  33234  274.08 0865.05
2015 04 09 07 20 15 .69      -6    -31     11     32     34 191.6  18.9  33230  274.03 0865.05
2015 04 09 07 20 15 .94     -10    -30      6     32     33 198.3  11.1  33224  273.93 0865.06
2015 04 09 07 20 16 .19      -6    -30      3     31     32 191.6   6.9  33224  273.92 0865.06
2015 04 09 07 20 16 .44      -4    -26      7     27     28 189.8  15.3  33222  273.88 0865.06
2015 04 09 07 20 16 .69      -4    -33      6     34     35 188.0  11.1  33220  273.85 0865.06
2015 04 09 07 20 16 .94      -8    -34      6     35     36 193.4  11.1  33220  273.87 0865.06
2015 04 09 07 20 17 .19      -8    -34      6     35     36 193.4  11.1  33220  273.87 0865.06
2015 04 09 07 20 17 .44     -10    -30      6     32     33 198.3  11.1  33222  273.88 0865.06
2015 04 09 07 20 17 .69      -4    -33      6     34     35 188.0  11.1  33220  273.85 0865.06
2015 04 09 07 20 17 .94     -11    -34      3     36     37 198.3   4.9  33224  273.92 0865.06
2015 04 09 07 20 18 .19     -10    -30      6     32     33 198.3  11.1  33224  273.93 0865.06
2015 04 09 07 20 18 .44     -10    -30      6     32     33 198.3  11.1  33224  273.93 0865.06
2015 04 09 07 20 18 .69     -10    -33     12     35     38 198.3  19.4  33228  273.98 0865.05
2015 04 09 07 20 18 .95      -7    -35      8     36     37 191.6  13.2  33226  273.97 0865.05
2015 04 09 07 20 19 .20      -2    -30      9     31     33 184.5  17.3  33232  274.06 0865.05
2015 04 09 07 20 19 .44     -10    -31     14     33     35 198.3  23.0  33230  274.01 0865.05
2015 04 09 07 20 19 .71      -9    -27     16     29     33 198.5  31.4  33230  274.03 0865.05
2015 04 09 07 20 19 .96     -12    -24     20     27     33 207.2  41.7  33238  274.15 0865.05
2015 04 09 07 20 20 .21     -14    -27     18     31     35 207.2  35.5  33236  274.11 0865.05
2015 04 09 07 20 20 .46     -14    -20     17     25     30 216.1  37.6  33238  274.16 0865.05
2015 04 09 07 20 20 .71     -14    -20     17     25     30 216.1  37.6  33238  274.16 0865.05
2015 04 09 07 20 20 .96     -14    -18     18     24     30 217.8  41.7  33236  274.11 0865.05
2015 04 09 07 20 21 .21     -10    -19     16     22     27 207.2  39.7  33238  274.15 0865.05
2015 04 09 07 20 21 .46     -14    -18     18     24     30 217.8  41.7  33236  274.11 0865.05
2015 04 09 07 20 21 .71      -8    -20     15     22     26 203.6  35.6  33232  274.05 0865.05
2015 04 09 07 20 21 .96      -6    -15     12     17     20 201.8  39.7  33236  274.13 0865.05
2015 04 09 07 20 22 .21      -6    -20     13     21     24 196.9  35.5  33242  274.21 0865.05
2015 04 09 07 20 22 .46      -2    -15     16     16     22 188.0  50.1  33246  274.28 0865.05
2015 04 09 07 20 22 .71      -6    -15     17     17     24 201.8  50.1  33248  274.31 0865.05
2015 04 09 07 20 22 .96     -10    -19     16     22     27 207.2  39.7  33244  274.25 0865.05
2015 04 09 07 20 23 .21      -9    -12     16     16     22 216.1  50.1  33246  274.28 0865.05
2015 04 09 07 20 23 .47      -6    -15     17     17     24 201.8  50.1  33250  274.36 0865.05
2015 04 09 07 20 23 .72      -4    -15     22     16     27 195.1  60.5  33244  274.26 0865.05
2015 04 09 07 20 23 .96     -13    -16     13     21     24 219.6  35.5  33244  274.26 0865.05
2015 04 09 07 20 24 .22      -9    -19     16     22     27 205.4  39.7  33236  274.13 0865.05
2015 04 09 07 20 24 .47      -7    -23     17     25     30 198.5  37.6  33242  274.21 0865.05
2015 04 09 07 20 24 .72     -10    -19     22     22     31 207.2  50.1  33238  274.16 0865.05
2015 04 09 07 20 24 .97      -9    -19     16     22     27 205.4  39.7  33234  274.10 0865.05
2015 04 09 07 20 25 .22     -10    -32     14     34     36 198.3  23.0  33236  274.11 0865.05
2015 04 09 07 20 25 .47     -15    -31     16     35     38 207.2  25.1  33232  274.05 0865.05
2015 04 09 07 20 25 .72     -15    -31     16     35     38 207.2  25.1  33234  274.10 0865.05
2015 04 09 07 20 25 .97     -15    -31     22     35     41 207.2  35.5  33238  274.16 0865.05
2015 04 09 07 20 26 .22     -14    -26     17     30     34 209.0  31.4  33238  274.16 0865.05
2015 04 09 07 20 26 .49     -17    -37     19     41     45 205.5  27.2  33236  274.13 0865.05
2015 04 09 07 20 26 .74      -8    -20     22     22     31 203.6  50.1  33248  274.31 0865.05
2015 04 09 07 20 26 .99     -12    -31     26     34     42 201.8  41.7  33248  274.31 0865.05
2015 04 09 07 20 27 .23     -14    -26     24     30     38 209.0  43.7  33250  274.34 0865.05
2015 04 09 07 20 27 .49     -16    -22     22     28     35 216.1  43.7  33248  274.31 0865.05
2015 04 09 07 20 27 .73     -10    -31     26     33     42 198.3  42.7  33260  274.51 0865.05
2015 04 09 07 20 27 .99      -3    -35     32     36     48 186.2  47.9  33260  274.53 0865.05
2015 04 09 07 20 28 .23      -3    -38     22     39     44 184.5  32.4  33242  274.21 0865.05
2015 04 09 07 20 28 .49     -13    -38     20     41     45 198.7  28.2  33234  274.10 0865.05
2015 04 09 07 20 28 .74     -13    -38     26     41     48 198.7  35.5  33242  274.21 0865.05
2015 04 09 07 20 28 .99      -7    -38     24     39     45 191.6  35.5  33246  274.28 0865.05
2015 04 09 07 20 29 .24      -7    -38     24     39     45 191.6  35.5  33246  274.28 0865.05
2015 04 09 07 20 29 .49      -7    -37     18     38     42 191.6  27.2  33232  274.06 0865.05
2015 04 09 07 20 29 .74     -13    -36     17     39     42 200.0  25.1  33236  274.11 0865.05
2015 04 09 07 20 29 .99      -6    -31     17     32     36 191.6  29.3  33232  274.06 0865.05
2015 04 09 07 20 30 .24     -14    -35     18     38     42 201.8  27.2  33232  274.06 0865.05
2015 04 09 07 20 30 .49      -8    -35     16     36     39 193.4  25.1  33230  274.03 0865.05
2015 04 09 07 20 30 .74      -8    -35     16     36     39 193.4  25.1  33230  274.03 0865.05
2015 04 09 07 20 30 .99      -7    -32     24     33     40 193.4  39.7  33234  274.08 0865.05
2015 04 09 07 20 31 .24      -6    -31     17     32     36 191.6  29.3  33232  274.06 0865.05
2015 04 09 07 20 31 .49      -8    -35     16     36     39 193.4  25.1  33228  274.00 0865.05
2015 04 09 07 20 31 .75      -8    -35     16     36     39 193.4  25.1  33230  274.03 0865.05
2015 04 09 07 20 31 .99     -13    -36     17     39     42 200.0  25.1  33236  274.11 0865.05
2015 04 09 07 20 32 .24     -10    -32     20     34     39 198.3  33.5  33238  274.15 0865.05
2015 04 09 07 20 32 .50      -6    -31     17     32     36 191.6  29.3  33232  274.06 0865.05
2015 04 09 07 20 32 .74      -9    -27     16     29     33 198.5  31.4  33230  274.03 0865.05
2015 04 09 07 20 33 .00     -15    -29      9     33     35 207.2  15.3  33226  273.97 0865.05
2015 04 09 07 20 33 .25      -6    -30     10     31     33 191.5  19.2  33228  273.98 0865.05
2015 04 09 07 20 33 .51      -9    -27     16     29     33 198.5  31.4  33230  274.03 0865.05
2015 04 09 07 20 33 .75      -9    -27     16     29     33 198.5  31.4  33234  274.10 0865.05
2015 04 09 07 20 34 .01     -10    -31     14     33     35 198.3  23.0  33230  274.01 0865.05
2015 04 09 07 20 34 .26     -10    -31     13     33     35 198.3  21.0  33226  273.97 0865.05
2015 04 09 07 20 34 .51     -11    -23     13     26     29 205.4  27.2  33230  274.01 0865.05
2015 04 09 07 20 34 .76     -11    -23     13     26     29 205.4  27.2  33232  274.06 0865.05
2015 04 09 07 20 35 .01     -11    -23     13     26     29 205.4  27.2  33232  274.06 0865.05
2015 04 09 07 20 35 .26      -7    -24     17     26     31 196.9  35.6  33230  274.01 0865.05
2015 04 09 07 20 35 .51      -7    -24     17     26     31 196.9  35.6  33230  274.01 0865.05
2015 04 09 07 20 35 .76     -15    -24     22     29     36 212.6  41.7  33230  274.01 0865.05
2015 04 09 07 20 36 .01     -17    -27     20     33     38 212.6  35.5  33236  274.13 0865.05
2015 04 09 07 20 36 .26     -15    -31     22     35     41 207.2  35.5  33238  274.16 0865.05
2015 04 09 07 20 36 .51      -8    -26     22     28     35 198.5  43.7  33242  274.21 0865.05
2015 04 09 07 20 36 .76      -8    -23     18     25     30 198.7  39.7  33232  274.06 0865.05
2015 04 09 07 20 37 .02      -4    -20     20     21     29 193.4  52.0  33232  274.05 0865.05
2015 04 09 07 20 37 .27      -2    -21     28     22     35 186.2  56.4  33238  274.15 0865.05
2015 04 09 07 20 37 .52     -12    -25     25     28     37 205.4  47.9  33242  274.23 0865.05
2015 04 09 07 20 37 .77     -20    -19     32     28     42 226.7  53.3  33236  274.13 0865.05
2015 04 09 07 20 38 .02     -17    -27     33     33     46 212.6  50.1  33240  274.18 0865.05
2015 04 09 07 20 38 .27     -14    -26     30     30     42 209.0  50.1  33250  274.36 0865.05
2015 04 09 07 20 38 .52     -13    -38     26     41     48 198.7  35.5  33254  274.41 0865.05
2015 04 09 07 20 38 .77     -11    -34     22     36     42 198.7  34.4  33250  274.36 0865.05
2015 04 09 07 20 39 .02     -19    -31     24     37     44 212.5  36.5  33248  274.33 0865.05
2015 04 09 07 20 39 .27     -19    -31     18     37     41 212.5  27.2  33248  274.31 0865.05
2015 04 09 07 20 39 .52      -7    -32     24     33     40 193.4  39.7  33246  274.28 0865.05
2015 04 09 07 20 39 .77     -13    -36     30     39     49 200.0  41.7  33244  274.26 0865.05
2015 04 09 07 20 40 .02       2    -35     29     36     46 175.6  42.7  33242  274.23 0865.05
2015 04 09 07 20 40 .27      -7    -32     18     33     37 193.4  31.4  33238  274.16 0865.05
2015 04 09 07 20 40 .54      -5    -42     20     43     47 188.0  26.2  33240  274.18 0865.05
2015 04 09 07 20 40 .79      -9    -41     22     43     48 192.5  29.3  33244  274.26 0865.05
2015 04 09 07 20 41 .04      -2    -38     22     39     44 184.4  32.4  33248  274.31 0865.05
2015 04 09 07 20 41 .29       4    -23     24     24     33 170.2  50.1  33258  274.48 0865.05
2015 04 09 07 20 41 .54      10    -29     18     31     35 160.0  35.5  33254  274.41 0865.05
2015 04 09 07 20 41 .79       7    -23     16     25     29 161.5  35.5  33242  274.23 0865.05
2015 04 09 07 20 42 .04       7    -26     14     27     30 164.9  29.3  33244  274.26 0865.05
2015 04 09 07 20 42 .29       8    -31     16     33     36 164.9  27.2  33242  274.23 0865.05
2015 04 09 07 20 42 .54       2    -34     15     35     38 175.6  23.0  33240  274.18 0865.05
2015 04 09 07 20 42 .79       3    -30     18     31     35 173.8  35.5  33244  274.26 0865.05
2015 04 09 07 20 43 .04       3    -30     18     31     35 173.8  35.5  33244  274.26 0865.05
2015 04 09 07 20 43 .29       7    -26     14     27     30 164.9  29.3  33242  274.21 0865.05
2015 04 09 07 20 43 .54       3    -38     17     39     42 175.5  25.1  33262  274.56 0865.05
2015 04 09 07 20 43 .79       4    -30     17     31     35 172.0  33.5  33260  274.51 0865.05
2015 04 09 07 20 44 .04      -1    -22     20     23     30 182.7  43.8  33256  274.44 0865.05
2015 04 09 07 20 44 .29       2    -26     22     27     34 175.5  43.8  33260  274.51 0865.05
2015 04 09 07 20 44 .54       8    -22     22     24     32 160.0  50.0  33262  274.56 0865.05
2015 04 09 07 20 44 .80       1    -15     25     16     29 175.5  64.7  33260  274.53 0865.05
2015 04 09 07 20 45 .04      -5    -11     26     13     29 205.4  72.9  33262  274.56 0865.05
2015 04 09 07 20 45 .30      -1    -18     24     19     30 184.4  56.4  33262  274.54 0865.05
2015 04 09 07 20 45 .54      -3    -23     22     24     32 188.0  50.0  33254  274.41 0865.05
2015 04 09 07 20 45 .80      -8    -30     24     32     40 195.1  40.7  33252  274.39 0865.05
2015 04 09 07 20 46 .05      -8    -26     28     28     39 198.3  50.1  33252  274.38 0865.05
2015 04 09 07 20 46 .30      -2    -24     28     25     37 186.2  52.2  33262  274.54 0865.05
2015 04 09 07 20 46 .55      -4    -12     32     13     34 198.3  79.2  33258  274.49 0865.05
2015 04 09 07 20 46 .80      -4    -12     26     13     29 198.3  72.9  33262  274.56 0865.05
2015 04 09 07 20 47 .05      -7    -17     24     19     30 201.8  56.4  33248  274.33 0865.05
2015 04 09 07 20 47 .31     -12    -24     20     27     33 207.2  41.7  33240  274.18 0865.05
2015 04 09 07 20 47 .56     -16    -23     16     29     33 214.3  31.4  33238  274.15 0865.05
2015 04 09 07 20 47 .81     -14    -26     17     30     34 209.0  31.4  33244  274.26 0865.05
2015 04 09 07 20 48 .06     -14    -37     25     40     47 201.8  35.5  33242  274.23 0865.05
2015 04 09 07 20 48 .31     -17    -37     26     41     48 205.5  35.5  33244  274.26 0865.05
2015 04 09 07 20 48 .56     -15    -31     29     35     45 207.2  44.8  33246  274.30 0865.05
2015 04 09 07 20 48 .81     -14    -27     31     31     43 207.2  50.1  33248  274.31 0865.05
2015 04 09 07 20 49 .06     -14    -27     31     31     43 207.2  50.1  33248  274.31 0865.05
2015 04 09 07 20 49 .31      -9    -35     28     37     46 195.1  40.7  33242  274.23 0865.06
2015 04 09 07 20 49 .56     -12    -35     27     38     46 198.7  38.6  33238  274.15 0865.06
2015 04 09 07 20 49 .82     -16    -38     22     42     47 203.6  30.3  33224  273.92 0865.06
2015 04 09 07 20 50 .06     -18    -35     19     40     44 207.2  26.2  33220  273.85 0865.06
2015 04 09 07 20 50 .32     -19    -31     17     37     40 212.5  26.2  33218  273.82 0865.06
2015 04 09 07 20 50 .57     -24    -36     12     44     46 213.4  16.3  33218  273.82 0865.06
2015 04 09 07 20 50 .82     -21    -38     15     44     47 209.0  18.9  33218  273.83 0865.06
2015 04 09 07 20 51 .07     -22    -33     13     40     43 213.4  18.9  33222  273.88 0865.05
2015 04 09 07 20 51 .32     -22    -33     13     40     43 213.4  18.9  33222  273.88 0865.05
2015 04 09 07 20 51 .57     -18    -26     19     32     37 214.3  35.5  33224  273.93 0865.05
2015 04 09 07 20 51 .82     -10    -32     20     34     39 198.3  33.5  33228  273.98 0865.05
2015 04 09 07 20 52 .07     -19    -26     20     33     38 216.1  35.5  33228  273.98 0865.05
2015 04 09 07 20 52 .32     -25    -37     21     45     49 214.3  27.2  33228  273.98 0865.05
2015 04 09 07 20 52 .57     -27    -35     18     45     48 217.0  21.0  33232  274.06 0865.05
2015 04 09 07 20 52 .82     -15    -31     22     35     41 207.2  35.5  33230  274.01 0865.05
2015 04 09 07 20 53 .07     -19    -31     24     37     44 212.5  36.5  33236  274.13 0865.05
2015 04 09 07 20 53 .32     -28    -35     24     46     51 218.7  29.3  33236  274.13 0865.05
2015 04 09 07 20 53 .58     -17    -36     20     40     44 205.5  29.3  33240  274.18 0865.05
2015 04 09 07 20 53 .82     -14    -43     24     46     51 198.3  29.3  33234  274.10 0865.05
2015 04 09 07 20 54 .08     -10    -32     20     34     39 198.3  33.5  33240  274.20 0865.05
2015 04 09 07 20 54 .34     -11    -34     22     36     42 198.7  34.4  33242  274.21 0865.05
2015 04 09 07 20 54 .59     -11    -34     22     36     42 198.7  34.4  33244  274.26 0865.05
2015 04 09 07 20 54 .84      -7    -38     24     39     45 191.6  35.5  33252  274.39 0865.05
2015 04 09 07 20 55 .09     -11    -43     22     45     50 194.3  27.3  33254  274.41 0865.05
2015 04 09 07 20 55 .34     -12    -37     20     40     44 198.7  29.3  33246  274.28 0865.05
2015 04 09 07 20 55 .59     -14    -43     24     46     51 198.5  29.3  33240  274.18 0865.05
2015 04 09 07 20 55 .84     -19    -55     24     59     63 199.2  23.0  33246  274.30 0865.05
2015 04 09 07 20 56 .09      -4    -34     26     35     43 188.0  40.7  33256  274.46 0865.05
2015 04 09 07 20 56 .34      -3    -38     22     39     44 184.5  32.4  33260  274.51 0865.05
2015 04 09 07 20 56 .59      -3    -38     22     39     44 184.5  32.4  33256  274.46 0865.05
2015 04 09 07 20 56 .84     -14    -42     24     45     51 198.5  30.3  33250  274.34 0865.05
2015 04 09 07 20 57 .09     -16    -38     22     42     47 203.6  30.3  33248  274.31 0865.05
2015 04 09 07 20 57 .34     -16    -38     22     42     47 203.6  30.3  33248  274.31 0865.05
2015 04 09 07 20 57 .59     -11    -34     22     36     42 198.7  34.4  33244  274.26 0865.05
2015 04 09 07 20 57 .84     -15    -35     24     39     45 203.6  35.5  33248  274.33 0865.05
2015 04 09 07 20 58 .10      -1    -31     22     32     38 182.7  37.6  33254  274.41 0865.05
2015 04 09 07 20 58 .34      -1    -31     19     32     37 182.6  35.5  33246  274.30 0865.05
2015 04 09 07 20 58 .59      -5    -27     20     28     34 191.6  37.6  33244  274.25 0865.05
2015 04 09 07 20 58 .85      -2    -31     16     32     35 184.5  27.3  33244  274.25 0865.05
2015 04 09 07 20 59 .10      -2    -30     10     31     33 184.5  19.4  33248  274.31 0865.05
2015 04 09 07 20 59 .35      -1    -30      8     31     33 182.6  15.3  33246  274.28 0865.05
2015 04 09 07 20 59 .60      -8    -25      9     27     29 198.3  19.4  33242  274.21 0865.05
2015 04 09 07 20 59 .85     -12    -30     11     33     35 201.8  18.9  33238  274.16 0865.05
2015 04 09 07 21 00 .10      -8    -26     16     28     32 198.3  33.5  33242  274.23 0865.06
2015 04 09 07 21 00 .35      -1    -22     20     23     30 182.7  43.8  33250  274.34 0865.06
2015 04 09 07 21 00 .61      -1    -27     17     28     32 182.7  35.5  33260  274.51 0865.06
2015 04 09 07 21 00 .85      -6    -26     20     27     33 193.4  41.7  33258  274.49 0865.06
2015 04 09 07 21 01 .10       0    -38     14     39     41 180.9  20.0  33250  274.36 0865.06
2015 04 09 07 21 01 .36      -1    -37     14     38     40 182.6  21.0  33248  274.31 0865.06
2015 04 09 07 21 01 .61      -4    -34     12     35     38 188.0  18.9  33238  274.16 0865.06
2015 04 09 07 21 01 .86       0    -33     25     34     42 180.9  40.7  33242  274.23 0865.06
2015 04 09 07 21 02 .11      -4    -34     12     35     38 188.0  18.9  33242  274.21 0865.06
2015 04 09 07 21 02 .36     -22    -39     15     46     49 209.9  18.4  33216  273.80 0865.06
2015 04 09 07 21 02 .61     -23    -37     12     44     46 212.5  16.3  33212  273.72 0865.06
2015 04 09 07 21 02 .86     -16    -40     12     44     46 202.7  15.3  33214  273.77 0865.06
2015 04 09 07 21 03 .11     -20    -37      9     43     44 208.1  12.2  33214  273.75 0865.06
2015 04 09 07 21 03 .36     -20    -37      9     43     44 208.1  12.2  33214  273.75 0865.06
2015 04 09 07 21 03 .62     -16    -40     12     44     46 202.7  15.3  33214  273.77 0865.06
2015 04 09 07 21 03 .87     -16    -36     13     40     43 203.6  18.9  33216  273.80 0865.06
2015 04 09 07 21 04 .12     -19    -44      9     49     50 203.6  11.1  33216  273.78 0865.06
2015 04 09 07 21 04 .37      -4    -42     19     43     47 186.2  25.1  33234  274.10 0865.06
2015 04 09 07 21 04 .62      -8    -40     14     41     44 192.5  18.9  33226  273.95 0865.06
2015 04 09 07 21 04 .87      -2    -37     15     38     40 184.4  22.0  33228  273.98 0865.06
2015 04 09 07 21 05 .12      -8    -40     14     41     44 192.5  18.9  33222  273.88 0865.06
2015 04 09 07 21 05 .37     -15    -35     17     39     42 203.6  25.1  33220  273.87 0865.06
2015 04 09 07 21 05 .62     -14    -35     16     38     41 201.8  24.1  33218  273.82 0865.06
2015 04 09 07 21 05 .87     -11    -34      8     36     37 198.7  13.2  33214  273.77 0865.06
2015 04 09 07 21 06 .12     -18    -35     11     40     42 208.1  15.3  33212  273.73 0865.06
2015 04 09 07 21 06 .37     -12    -33     17     36     39 200.0  26.2  33214  273.77 0865.06
2015 04 09 07 21 06 .62     -20    -38     17     44     47 208.1  21.0  33218  273.82 0865.06
2015 04 09 07 21 06 .88     -27    -34     24     44     50 218.7  31.4  33226  273.95 0865.06
2015 04 09 07 21 07 .13     -20    -36     27     42     49 209.9  35.5  33244  274.25 0865.06
2015 04 09 07 21 07 .37     -33    -39     31     52     60 220.5  33.5  33244  274.26 0865.06
2015 04 09 07 21 07 .63     -23    -35     22     42     47 213.4  30.3  33242  274.21 0865.06
2015 04 09 07 21 07 .88     -15    -31     28     35     44 207.2  42.7  33244  274.25 0865.06
2015 04 09 07 21 08 .13     -16    -16     35     23     41 225.0  63.6  33256  274.46 0865.05
2015 04 09 07 21 08 .39     -16    -23     28     29     40 214.3  50.0  33246  274.30 0865.05
2015 04 09 07 21 08 .64     -10    -32     20     34     39 198.3  33.5  33234  274.08 0865.05
2015 04 09 07 21 08 .89     -14    -35     18     38     42 201.8  27.2  33230  274.01 0865.05
2015 04 09 07 21 09 .14      -7    -35     12     36     39 191.6  19.4  33216  273.80 0865.05
2015 04 09 07 21 09 .39      -7    -37      1     38     39 191.6   2.9  33212  273.72 0865.05
2015 04 09 07 21 09 .65     -11    -53      2     55     56 191.6   2.9  33222  273.90 0865.05
2015 04 09 07 21 09 .89     -26    -31     32     41     52 219.6  42.7  33250  274.34 0865.05
2015 04 09 07 21 10 .14     -16    -27     37     32     48 210.7  53.3  33254  274.43 0865.05
2015 04 09 07 21 10 .39       0    -37     13     38     41 180.9  19.2  33232  274.06 0865.05
2015 04 09 07 21 10 .64     -12    -45      4     47     48 195.1   5.9  33234  274.08 0865.05
2015 04 09 07 21 10 .89     -20    -38     17     44     47 208.1  21.0  33236  274.11 0865.05
2015 04 09 07 21 11 .14      -7    -37     11     38     40 191.5  16.3  33230  274.03 0865.05
2015 04 09 07 21 11 .40     -12    -40     20     42     46 196.9  27.2  33240  274.18 0865.05
2015 04 09 07 21 11 .65     -22    -26     28     35     44 219.7  42.7  33246  274.30 0865.05
2015 04 09 07 21 11 .89     -18    -26     26     32     41 214.3  43.7  33248  274.31 0865.05
2015 04 09 07 21 12 .15     -23    -25     22     35     41 223.2  35.5  33244  274.26 0865.05
2015 04 09 07 21 12 .40     -24    -36     12     44     46 213.4  16.3  33238  274.16 0865.05
2015 04 09 07 21 12 .65     -22    -33      7     40     41 213.4  11.1  33238  274.16 0865.05
2015 04 09 07 21 12 .90     -18    -28     12     34     37 212.5  19.4  33234  274.10 0865.05
2015 04 09 07 21 13 .15     -10    -31     11     33     36 198.3  19.2  33230  274.03 0865.05
2015 04 09 07 21 13 .40     -14    -38      8     41     42 200.9  11.1  33226  273.97 0865.05
2015 04 09 07 21 13 .65     -17    -41      5     45     46 202.7   6.9  33218  273.83 0865.05
2015 04 09 07 21 13 .90     -14    -42      2     45     46 198.5   2.9  33232  274.06 0865.05
2015 04 09 07 21 14 .15      -5    -40      5     41     42 187.1   8.0  33240  274.20 0865.05
2015 04 09 07 21 14 .40       3    -46      2     47     48 175.5   2.9  33236  274.11 0865.05
2015 04 09 07 21 14 .65       4    -45      3     46     47 174.7   3.8  33238  274.16 0865.05
2015 04 09 07 21 14 .90      -5    -49     -1     50     51 186.2  -2.2  33242  274.21 0865.05
2015 04 09 07 21 15 .16     -12    -38     -1     41     42 198.5  -2.2  33234  274.10 0865.05
2015 04 09 07 21 15 .42     -14    -42      2     45     46 198.5   2.9  33232  274.06 0865.05
2015 04 09 07 21 15 .66      -7    -37     11     38     40 191.6  16.3  33234  274.08 0865.05
2015 04 09 07 21 15 .92     -15    -45      8     48     49 198.3  10.1  33226  273.97 0865.05
2015 04 09 07 21 16 .17     -11    -39      5     41     42 196.9   8.0  33230  274.03 0865.05
2015 04 09 07 21 16 .42     -11    -37     13     39     42 197.8  19.2  33236  274.11 0865.06
2015 04 09 07 21 16 .67     -10    -41     14     43     46 194.3  18.9  33238  274.15 0865.06
2015 04 09 07 21 16 .92      -7    -39     18     40     43 190.7  25.1  33238  274.16 0865.06
2015 04 09 07 21 17 .17      -8    -35     16     36     39 193.4  25.1  33228  274.00 0865.06
2015 04 09 07 21 17 .42     -10    -31     11     33     35 198.3  18.9  33224  273.92 0865.06
2015 04 09 07 21 17 .67     -23    -26     16     35     38 221.4  25.1  33222  273.90 0865.06
2015 04 09 07 21 17 .92     -24    -30     13     39     42 219.6  19.4  33220  273.87 0865.06
2015 04 09 07 21 18 .17     -23    -35     15     43     46 213.4  19.4  33224  273.92 0865.06
2015 04 09 07 21 18 .42     -24    -35     16     43     45 214.3  20.0  33224  273.93 0865.06
2015 04 09 07 21 18 .67     -19    -31     17     37     40 212.5  26.2  33220  273.87 0865.06
2015 04 09 07 21 18 .93     -15    -31     16     35     38 207.2  25.1  33224  273.93 0865.06
2015 04 09 07 21 19 .17     -13    -36     17     39     42 200.0  25.1  33230  274.01 0865.06
2015 04 09 07 21 19 .42     -14    -27     18     31     35 207.2  35.5  33230  274.01 0865.06
2015 04 09 07 21 19 .67     -11    -23     20     26     32 205.4  43.7  33230  274.03 0865.06
2015 04 09 07 21 19 .92     -16    -23     23     29     37 214.3  43.7  33232  274.06 0865.06
2015 04 09 07 21 20 .18      -6    -20     20     21     29 196.9  52.0  33236  274.13 0865.06
2015 04 09 07 21 20 .43      -7    -15     18     17     24 205.4  48.2  33238  274.16 0865.06
2015 04 09 07 21 20 .67      -7    -15     18     17     24 205.4  48.2  33242  274.21 0865.06
2015 04 09 07 21 20 .93      -7    -15     18     17     24 205.4  48.2  33238  274.16 0865.06
2015 04 09 07 21 21 .18     -10    -14     13     18     22 216.1  39.7  33232  274.06 0865.06
2015 04 09 07 21 21 .43     -11    -23     14     26     29 207.2  31.4  33238  274.16 0865.06
2015 04 09 07 21 21 .68      -7    -23     11     25     27 198.5  25.1  33236  274.13 0865.06
2015 04 09 07 21 21 .93      -4    -19      7     20     22 193.4  19.2  33240  274.20 0865.06
2015 04 09 07 21 22 .19     -15     -7      2     17     18 244.7   6.9  33244  274.25 0865.06
2015 04 09 07 21 22 .44     -15     -7      2     17     18 244.7   6.9  33240  274.20 0865.06
2015 04 09 07 21 22 .69     -11     -9      7     15     16 230.5  27.2  33236  274.13 0865.06
2015 04 09 07 21 22 .94     -26    -11     -1     29     30 246.5  -3.1  33232  274.05 0865.06
2015 04 09 07 21 23 .19     -24    -12     -3     27     28 242.9  -7.3  33230  274.01 0865.06
2015 04 09 07 21 23 .44     -16    -16      9     23     24 225.0  21.0  33236  274.11 0865.06
2015 04 09 07 21 23 .69     -26    -16     13     31     33 237.5  23.0  33236  274.11 0865.06
2015 04 09 07 21 23 .94      -7     -2     11      8     13 251.4  60.5  33238  274.15 0865.06
2015 04 09 07 21 24 .20     -16     -7      9     18     20 244.7  29.3  33244  274.26 0865.06
2015 04 09 07 21 24 .44     -20      4      4     21     22 283.3  11.1  33236  274.11 0865.06
2015 04 09 07 21 24 .70     -23      4     -6     24     25 281.5 -15.5  33230  274.03 0865.06
2015 04 09 07 21 24 .94     -18      1     -5     19     19 274.4 -23.8  33224  273.93 0865.06
2015 04 09 07 21 25 .20     -20      0     -7     21     22 270.0 -23.6  33224  273.92 0865.06
2015 04 09 07 21 25 .45     -14      1     -6     15     16 274.3 -23.3  33232  274.05 0865.06
2015 04 09 07 21 25 .70     -10      5     -5     12     13 298.9 -23.3  33236  274.13 0865.06
2015 04 09 07 21 25 .95     -11      1      0     12     13 277.9  -2.2  33236  274.13 0865.06
2015 04 09 07 21 26 .20      -8      8     -4     12     13 316.6 -19.7  33248  274.31 0865.06
2015 04 09 07 21 26 .45       1      7      1      8      9  11.6  11.1  33256  274.44 0865.06
2015 04 09 07 21 26 .70      -4      0     14      5     14 281.5  81.0  33260  274.51 0865.06
2015 04 09 07 21 26 .95      -8     -8     18     12     21 223.2  62.6  33262  274.56 0865.06
2015 04 09 07 21 27 .20     -14    -20     17     25     30 216.1  37.6  33244  274.26 0865.06
2015 04 09 07 21 27 .45     -18    -26     14     32     34 214.3  27.1  33242  274.21 0865.06
2015 04 09 07 21 27 .70     -22    -18      1     29     30 230.5   2.9  33238  274.15 0865.06
2015 04 09 07 21 27 .95     -15    -21      9     26     28 216.1  19.4  33230  274.01 0865.06
2015 04 09 07 21 28 .20     -11    -23     13     26     29 205.4  27.2  33230  274.01 0865.06
2015 04 09 07 21 28 .45      -8    -26     15     28     31 198.5  29.3  33224  273.93 0865.06
2015 04 09 07 21 28 .70     -12    -25      9     28     30 205.4  18.9  33222  273.88 0865.06
2015 04 09 07 21 28 .96     -16    -36     10     40     42 204.5  14.3  33222  273.90 0865.06
2015 04 09 07 21 29 .21     -19    -30      1     36     37 212.5   2.9  33230  274.01 0865.06
2015 04 09 07 21 29 .47     -11    -23     13     26     29 205.4  27.2  33226  273.97 0865.06
2015 04 09 07 21 29 .71     -10    -32     20     34     39 198.3  33.5  33228  273.98 0865.06
2015 04 09 07 21 29 .97     -16    -23     16     29     33 214.3  31.4  33230  274.03 0865.06
2015 04 09 07 21 30 .22     -14    -20     17     25     30 216.1  37.6  33226  273.97 0865.06
2015 04 09 07 21 30 .47      -9    -27     16     29     33 198.5  31.4  33228  273.98 0865.06
2015 04 09 07 21 30 .72      -7    -15     18     17     24 205.4  48.2  33236  274.11 0865.06
2015 04 09 07 21 30 .97     -12    -16     20     21     29 217.8  52.0  33240  274.20 0865.06
2015 04 09 07 21 31 .22     -14    -20     17     25     30 216.1  37.6  33236  274.11 0865.06
2015 04 09 07 21 31 .47     -22    -27     16     36     39 219.7  25.1  33230  274.03 0865.06
2015 04 09 07 21 31 .72     -17    -25      6     31     32 214.3  11.1  33232  274.05 0865.07
2015 04 09 07 21 31 .97     -25    -30      6     40     41 219.6   9.0  33232  274.05 0865.07
2015 04 09 07 21 32 .22     -24    -24     12     34     37 225.0  19.4  33234  274.10 0865.07
2015 04 09 07 21 32 .47     -23    -24      9     34     36 223.2  15.3  33236  274.11 0865.07
2015 04 09 07 21 32 .72     -22    -23      6     33     34 223.4  11.1  33234  274.10 0865.07
2015 04 09 07 21 32 .97     -19    -19     -3     28     29 225.1  -7.3  33224  273.92 0865.07
2015 04 09 07 21 33 .22     -19    -23      4     30     31 219.7   9.0  33220  273.85 0865.07
2015 04 09 07 21 33 .48     -18    -18      0     26     27 225.0   0.8  33214  273.77 0865.06
2015 04 09 07 21 33 .73     -14    -22      1     27     28 212.6   2.8  33224  273.93 0865.06
2015 04 09 07 21 33 .98     -17    -18      6     25     26 223.2  15.3  33228  274.00 0865.06
2015 04 09 07 21 34 .22       0    -25      4     26     27 180.9   9.0  33226  273.97 0865.06
2015 04 09 07 21 34 .48      -6    -25     -1     26     27 193.4  -2.2  33226  273.97 0865.06
2015 04 09 07 21 34 .73     -15    -21      9     26     28 216.1  19.4  33230  274.01 0865.06
2015 04 09 07 21 34 .98     -19    -23     10     30     32 219.7  18.9  33236  274.13 0865.06
2015 04 09 07 21 35 .23     -17    -26      7     32     33 212.6  13.2  33240  274.18 0865.06
2015 04 09 07 21 35 .48     -14    -20     12     25     27 216.1  27.2  33236  274.13 0865.06
2015 04 09 07 21 35 .73      -4    -12      7     13     14 198.3  35.5  33240  274.20 0865.06
2015 04 09 07 21 35 .99      -7     -7     11     11     15 225.0  50.1  33236  274.13 0865.06
2015 04 09 07 21 36 .24      -9     -3      9     10     13 248.3  52.0  33242  274.21 0865.06
2015 04 09 07 21 36 .49      -9    -12      9     16     18 216.1  31.4  33238  274.16 0865.06
2015 04 09 07 21 36 .74      -7     -7     11     11     15 225.0  50.1  33244  274.25 0865.06
2015 04 09 07 21 37 .00      -4     -5     20      7     21 223.4  81.0  33254  274.43 0865.07
2015 04 09 07 21 37 .25      -4     -5     20      7     21 223.4  81.0  33260  274.53 0865.07
2015 04 09 07 21 37 .49      -9     -3     22     10     24 248.3  75.0  33254  274.41 0865.07
2015 04 09 07 21 37 .75      -9    -12     22     16     27 216.1  60.5  33256  274.46 0865.07
2015 04 09 07 21 37 .99     -13    -13     24     19     30 223.4  56.4  33262  274.54 0865.07
2015 04 09 07 21 38 .24     -11    -12     24     17     29 223.4  62.6  33258  274.49 0865.07
2015 04 09 07 21 38 .50     -14    -18     24     24     33 217.8  50.1  33258  274.48 0865.07
2015 04 09 07 21 38 .75      -6    -20     26     21     33 196.9  56.4  33260  274.51 0865.07
2015 04 09 07 21 39 .00     -15    -31     28     35     44 207.2  42.7  33236  274.13 0865.06
2015 04 09 07 21 39 .25     -20    -30     18     37     41 214.3  27.2  33226  273.97 0865.06
2015 04 09 07 21 39 .50     -12    -27     17     30     34 205.4  31.4  33220  273.87 0865.06
2015 04 09 07 21 39 .75     -14    -30     15     34     37 205.4  25.1  33214  273.75 0865.06
2015 04 09 07 21 40 .00     -21    -21     17     30     34 225.0  31.4  33214  273.77 0865.06
2015 04 09 07 21 40 .25     -21    -25     13     33     35 219.6  21.0  33214  273.75 0865.06
2015 04 09 07 21 40 .50     -22    -25      6     34     35 221.4  11.1  33214  273.77 0865.06
2015 04 09 07 21 40 .75     -17    -27     11     33     36 212.5  19.2  33218  273.83 0865.06
2015 04 09 07 21 41 .00     -15    -29      9     33     35 207.2  15.3  33224  273.92 0865.06
2015 04 09 07 21 41 .26     -25    -30      6     40     41 219.6   9.0  33224  273.93 0865.06
2015 04 09 07 21 41 .50     -25    -25      3     36     37 225.0   4.9  33220  273.87 0865.07
2015 04 09 07 21 41 .75     -25    -25      3     36     37 225.0   4.9  33220  273.87 0865.07
2015 04 09 07 21 42 .00     -26    -25     -1     37     38 226.7  -2.2  33216  273.78 0865.07
2015 04 09 07 21 42 .25     -22    -25      1     34     35 221.4   2.9  33218  273.83 0865.07
2015 04 09 07 21 42 .51     -25    -30     -1     40     41 219.6  -2.2  33226  273.97 0865.07
2015 04 09 07 21 42 .76     -17    -36      6     40     41 205.5   9.0  33228  273.98 0865.07
2015 04 09 07 21 43 .02     -23    -24     20     34     39 223.4  33.5  33240  274.20 0865.07
2015 04 09 07 21 43 .27     -30    -31     16     44     46 224.1  20.0  33236  274.13 0865.07
2015 04 09 07 21 43 .52     -19    -30      1     36     37 212.5   2.9  33230  274.01 0865.06
2015 04 09 07 21 43 .77     -14    -22      1     27     28 212.6   2.8  33224  273.93 0865.06
2015 04 09 07 21 44 .02     -13    -18      4     23     24 216.1  11.1  33226  273.97 0865.06
2015 04 09 07 21 44 .27     -16    -26      6     31     32 212.5  11.1  33222  273.88 0865.06
2015 04 09 07 21 44 .53     -21    -25      9     33     35 219.7  15.3  33224  273.92 0865.06
2015 04 09 07 21 44 .77     -23    -19      1     30     31 230.4   2.9  33234  274.10 0865.06
2015 04 09 07 21 45 .02     -23    -23     -1     33     34 225.0  -2.2  33230  274.01 0865.06
2015 04 09 07 21 45 .27     -15    -23     -3     28     29 214.3  -7.3  33226  273.97 0865.05
2015 04 09 07 21 45 .52     -17    -18     -6     25     26 223.2 -13.4  33220  273.85 0865.05
2015 04 09 07 21 45 .78     -21    -26     -4     34     35 219.7  -7.2  33230  274.01 0865.05
2015 04 09 07 21 46 .02     -18    -18      9     26     28 225.0  19.4  33234  274.08 0865.05
2015 04 09 07 21 46 .28     -20    -20     10     29     31 225.0  18.9  33228  273.98 0865.05
2015 04 09 07 21 46 .53     -22    -23      6     33     34 223.4  11.1  33222  273.88 0865.05
2015 04 09 07 21 46 .78     -33    -24      3     41     42 234.0   4.9  33218  273.82 0865.05
2015 04 09 07 21 47 .02     -25    -25      3     36     37 225.0   4.9  33220  273.87 0865.06
2015 04 09 07 21 47 .28     -26    -24      3     36     37 226.7   4.9  33218  273.82 0865.06
2015 04 09 07 21 47 .53     -28    -31      0     42     43 222.3  -0.3  33216  273.78 0865.06
2015 04 09 07 21 47 .78     -28    -31      0     42     43 222.3  -0.3  33216  273.78 0865.06
2015 04 09 07 21 48 .03     -28    -31      0     42     43 222.3  -0.3  33216  273.78 0865.06
2015 04 09 07 21 48 .28     -26    -25      1     37     38 226.7   2.9  33212  273.72 0865.06
2015 04 09 07 21 48 .53     -28    -31      0     42     43 222.3  -0.3  33216  273.78 0865.06
2015 04 09 07 21 48 .78     -25    -30      4     40     41 219.6   6.9  33212  273.73 0865.06
2015 04 09 07 21 49 .03     -26    -24      3     36     37 226.7   4.9  33218  273.82 0865.06
2015 04 09 07 21 49 .28     -29    -30      6     43     44 224.1   9.0  33214  273.77 0865.06
2015 04 09 07 21 49 .53     -28    -31      0     42     43 222.3  -0.3  33212  273.73 0865.06
2015 04 09 07 21 49 .78     -27    -23      1     36     37 228.7   2.8  33212  273.73 0865.06
2015 04 09 07 21 50 .04     -28    -31      0     42     43 222.3  -0.3  33216  273.78 0865.06
2015 04 09 07 21 50 .29     -26    -25      1     37     38 226.7   2.9  33214  273.77 0865.06
2015 04 09 07 21 50 .54     -27    -22      1     36     37 230.5   2.8  33218  273.83 0865.06
2015 04 09 07 21 50 .79     -25    -30     -1     40     41 219.6  -2.2  33216  273.80 0865.06
2015 04 09 07 21 51 .05     -22    -34      0     41     42 213.4   0.8  33216  273.78 0865.06
2015 04 09 07 21 51 .30     -31    -32      2     45     46 224.2   2.9  33218  273.82 0865.06
2015 04 09 07 21 51 .55     -30    -26      6     40     41 228.7   9.0  33218  273.83 0865.06
2015 04 09 07 21 51 .80     -29    -30      9     42     43 224.1  12.2  33218  273.82 0865.06
2015 04 09 07 21 52 .05     -24    -24     12     34     37 225.0  19.4  33216  273.80 0865.06
2015 04 09 07 21 52 .30     -29    -30      9     42     43 224.1  12.2  33218  273.82 0865.06
2015 04 09 07 21 52 .55     -27    -22      1     36     37 230.4   2.9  33216  273.78 0865.06
2015 04 09 07 21 52 .80     -22    -25      1     34     35 221.4   2.9  33218  273.83 0865.06
2015 04 09 07 21 53 .05     -25    -30     -1     40     41 219.6  -2.2  33212  273.72 0865.06
2015 04 09 07 21 53 .30     -28    -31      0     42     43 222.3  -0.3  33216  273.78 0865.06
2015 04 09 07 21 53 .55     -30    -27     -1     41     42 227.8  -2.2  33214  273.77 0865.06
2015 04 09 07 21 53 .80     -27    -23      1     36     37 228.7   2.8  33212  273.73 0865.06
2015 04 09 07 21 54 .05     -22    -23      6     33     34 223.4  11.1  33216  273.78 0865.06
2015 04 09 07 21 54 .30     -30    -27     -1     41     42 227.8  -2.2  33214  273.77 0865.06
2015 04 09 07 21 54 .55     -27    -34      2     44     45 218.7   3.8  33232  274.06 0865.06
2015 04 09 07 21 54 .80     -26    -26      4     38     39 225.0   5.9  33230  274.01 0865.06
2015 04 09 07 21 55 .05     -30    -31     12     44     46 224.2  15.3  33222  273.90 0865.06
2015 04 09 07 21 55 .30     -26    -34      2     43     44 217.8   2.9  33214  273.77 0865.06
2015 04 09 07 21 55 .55     -26    -34      2     43     44 217.8   2.9  33214  273.77 0865.06
2015 04 09 07 21 55 .80     -29    -30      6     43     44 224.1   9.0  33212  273.72 0865.06
2015 04 09 07 21 56 .06     -28    -31      0     42     43 222.3  -0.3  33212  273.73 0865.07
2015 04 09 07 21 56 .31     -22    -34      0     41     42 213.4   0.8  33212  273.73 0865.07
2015 04 09 07 21 56 .56     -25    -30     -1     40     41 219.6  -2.2  33212  273.72 0865.07
2015 04 09 07 21 56 .81     -25    -30     -1     40     41 219.6  -2.2  33214  273.77 0865.07
2015 04 09 07 21 57 .07     -29    -30      0     43     44 224.1   0.8  33218  273.83 0865.07
2015 04 09 07 21 57 .32     -22    -35      1     42     43 212.5   1.8  33226  273.95 0865.07
2015 04 09 07 21 57 .57     -28    -38      1     48     49 217.0   1.8  33228  274.00 0865.07
2015 04 09 07 21 57 .83     -26    -35      2     44     45 217.0   3.8  33224  273.92 0865.07
2015 04 09 07 21 58 .07     -26    -35      2     44     45 217.0   3.8  33230  274.01 0865.07
2015 04 09 07 21 58 .32     -25    -30      6     40     41 219.6   9.0  33228  274.00 0865.07
2015 04 09 07 21 58 .57     -26    -35      2     44     45 217.0   3.8  33224  273.92 0865.07
2015 04 09 07 21 58 .82     -16    -35     -1     39     40 205.4  -2.2  33224  273.92 0865.07
2015 04 09 07 21 59 .07     -22    -25      1     34     35 221.4   2.9  33218  273.83 0865.07
2015 04 09 07 21 59 .32     -26    -35      2     44     45 217.0   3.8  33224  273.92 0865.07
2015 04 09 07 21 59 .58     -24    -37      5     45     46 212.5   6.9  33222  273.90 0865.07
2015 04 09 07 21 59 .83     -31    -31      8     44     45 225.0  11.1  33230  274.01 0865.07
2015 04 09 07 22 00 .08     -31    -31      8     44     45 225.0  11.1  33230  274.01 0865.07
2015 04 09 07 22 00 .33     -24    -25     12     35     38 223.4  19.4  33232  274.05 0865.07
2015 04 09 07 22 00 .58     -22    -34      8     41     42 213.4  12.2  33226  273.97 0865.07
2015 04 09 07 22 00 .83     -22    -34      8     41     42 213.4  12.2  33226  273.97 0865.07
2015 04 09 07 22 01 .08     -33    -33      4     47     48 225.0   5.9  33230  274.03 0865.07
2015 04 09 07 22 01 .33     -26    -35      2     44     45 217.0   3.8  33226  273.97 0865.07
2015 04 09 07 22 01 .58     -26    -35      2     44     45 217.0   3.8  33224  273.92 0865.07
2015 04 09 07 22 01 .83     -26    -35      2     44     45 217.0   3.8  33224  273.92 0865.07
2015 04 09 07 22 02 .08     -25    -30     -1     40     41 219.6  -2.2  33230  274.01 0865.07
2015 04 09 07 22 02 .33     -23    -24      9     34     36 223.2  15.3  33232  274.06 0865.06
2015 04 09 07 22 02 .58     -24    -24     12     34     37 225.0  19.4  33234  274.10 0865.06
2015 04 09 07 22 02 .83     -19    -31     24     37     44 212.5  36.5  33230  274.03 0865.06
2015 04 09 07 22 03 .08     -32    -28     19     43     47 228.7  25.1  33230  274.03 0865.06
2015 04 09 07 22 03 .33     -29    -30      7     43     44 224.1  10.1  33226  273.97 0865.06
2015 04 09 07 22 03 .58     -25    -30      6     40     41 219.6   9.0  33224  273.93 0865.06
2015 04 09 07 22 03 .85     -25    -30      7     40     41 219.6  10.1  33240  274.18 0865.06
2015 04 09 07 22 04 .09     -21    -38      2     44     45 209.0   3.8  33236  274.11 0865.06
2015 04 09 07 22 04 .35     -29    -30      0     43     44 224.1   0.8  33226  273.95 0865.06
2015 04 09 07 22 04 .60     -26    -35      2     44     45 217.0   3.8  33224  273.92 0865.06
2015 04 09 07 22 04 .85     -22    -35      1     42     43 212.5   1.8  33226  273.95 0865.06
2015 04 09 07 22 05 .10     -26    -35      2     44     45 217.0   3.8  33224  273.92 0865.06
2015 04 09 07 22 05 .35     -28    -38      1     48     49 217.0   1.8  33224  273.93 0865.06
2015 04 09 07 22 05 .60     -22    -25      1     34     35 221.4   2.9  33218  273.83 0865.06
2015 04 09 07 22 05 .85     -19    -30      3     36     37 212.6   4.9  33218  273.82 0865.07
2015 04 09 07 22 06 .10     -25    -30      7     40     41 219.6  10.1  33222  273.88 0865.07
2015 04 09 07 22 06 .35     -29    -30      0     43     44 224.1   0.8  33222  273.88 0865.07
2015 04 09 07 22 06 .60     -22    -33      7     40     41 213.4  11.1  33220  273.87 0865.07
2015 04 09 07 22 06 .85     -25    -30      7     40     41 219.6  10.1  33222  273.88 0865.07
2015 04 09 07 22 07 .10     -26    -35      2     44     45 217.0   3.8  33224  273.92 0865.07
2015 04 09 07 22 07 .35     -26    -35      2     44     45 217.0   3.8  33224  273.92 0865.07
2015 04 09 07 22 07 .61     -24    -37      5     45     46 212.5   6.9  33236  274.13 0865.07
2015 04 09 07 22 07 .85     -29    -37     -3     48     49 217.8  -4.1  33236  274.11 0865.07
2015 04 09 07 22 08 .11     -33    -33     -6     47     48 225.0  -7.3  33240  274.18 0865.07
2015 04 09 07 22 08 .35     -32    -30     -1     45     46 226.9  -2.2  33242  274.23 0865.07
2015 04 09 07 22 08 .61     -26    -34     -1     43     44 217.8  -2.2  33230  274.03 0865.06
2015 04 09 07 22 08 .86     -22    -35    -12     42     44 212.5 -16.6  33230  274.03 0865.06
2015 04 09 07 22 09 .11     -21    -26    -12     34     37 219.7 -19.7  33240  274.18 0865.06
2015 04 09 07 22 09 .36     -18    -18     -1     26     27 225.0  -2.2  33242  274.21 0865.06
2015 04 09 07 22 09 .61     -29    -30      0     43     44 224.1   0.8  33234  274.08 0865.06
2015 04 09 07 22 09 .86     -32    -34     -1     47     48 223.2  -1.3  33230  274.01 0865.06
2015 04 09 07 22 10 .11     -24    -37     -1     45     46 212.5  -1.3  33226  273.97 0865.06
2015 04 09 07 22 10 .36     -26    -41      9     49     50 212.5  11.1  33240  274.20 0865.07
2015 04 09 07 22 10 .61     -36    -32      5     49     50 228.7   5.9  33240  274.20 0865.07
2015 04 09 07 22 10 .87     -39    -34      2     52     53 228.7   2.9  33226  273.97 0865.07
2015 04 09 07 22 11 .12     -35    -35      0     50     51 225.0  -0.3  33218  273.83 0865.07
2015 04 09 07 22 11 .37     -36    -32     -1     49     50 228.7  -2.2  33220  273.87 0865.07
2015 04 09 07 22 11 .62     -36    -32     -1     49     50 228.7  -2.2  33220  273.87 0865.07
2015 04 09 07 22 11 .87     -36    -32     -1     49     50 228.7  -2.2  33220  273.87 0865.07
2015 04 09 07 22 12 .12     -35    -35      0     50     51 225.0  -0.3  33218  273.83 0865.06
2015 04 09 07 22 12 .37     -35    -35      0     50     51 225.0  -0.3  33218  273.83 0865.06
2015 04 09 07 22 12 .63     -31    -34     -1     47     48 222.3  -2.2  33220  273.87 0865.06
2015 04 09 07 22 12 .87     -33    -38     -2     51     52 220.5  -2.2  33224  273.93 0865.06
2015 04 09 07 22 13 .13     -31    -34     -1     47     48 222.3  -2.2  33220  273.87 0865.07
2015 04 09 07 22 13 .38     -34    -34      1     49     50 225.0   1.8  33222  273.88 0865.07
2015 04 09 07 22 13 .62     -31    -35     -1     47     48 221.4  -2.2  33218  273.82 0865.07
2015 04 09 07 22 13 .88     -31    -35     -1     47     48 221.4  -2.2  33218  273.82 0865.07
2015 04 09 07 22 14 .13     -31    -32     -2     45     46 224.2  -3.1  33218  273.83 0865.07
2015 04 09 07 22 14 .38     -31    -32     -2     45     46 224.2  -3.1  33216  273.78 0865.07
2015 04 09 07 22 14 .64     -25    -25     -3     36     37 225.0  -5.2  33222  273.88 0865.07
2015 04 09 07 22 14 .88     -34    -24     -1     42     43 234.9  -2.2  33240  274.20 0865.06
2015 04 09 07 22 15 .13     -36    -12     -3     38     39 251.6  -5.2  33238  274.16 0865.06
2015 04 09 07 22 15 .38     -28    -13     -1     31     32 244.7  -2.2  33242  274.23 0865.06
2015 04 09 07 22 15 .63     -23     -7      6     25     26 251.6  15.3  33248  274.33 0865.06
2015 04 09 07 22 15 .88     -22     -5      8     23     25 256.7  18.9  33248  274.31 0865.06
2015 04 09 07 22 16 .13     -16     -7     16     18     24 244.7  50.0  33246  274.30 0865.06
2015 04 09 07 22 16 .38     -20    -19     20     28     34 226.7  37.6  33244  274.25 0865.06
2015 04 09 07 22 16 .63     -27    -17     26     32     41 237.6  43.7  33238  274.16 0865.06
2015 04 09 07 22 16 .88     -19    -23     24     31     39 219.7  43.7  33234  274.08 0865.06
2015 04 09 07 22 17 .13     -14    -26     24     30     38 209.0  43.7  33232  274.05 0865.06
2015 04 09 07 22 17 .39     -22    -27     16     36     39 219.7  25.1  33234  274.10 0865.06
2015 04 09 07 22 17 .63     -28    -23      1     37     38 230.5   2.8  33234  274.10 0865.07
2015 04 09 07 22 17 .89     -25    -30     -1     40     41 219.6  -2.2  33220  273.87 0865.07
2015 04 09 07 22 18 .15     -25    -25     -3     36     37 225.0  -5.2  33226  273.95 0865.07
2015 04 09 07 22 18 .40     -19    -30      3     36     37 212.5   4.9  33220  273.87 0865.07
2015 04 09 07 22 18 .65     -21    -26      1     34     35 219.7   2.8  33228  274.00 0865.07
2015 04 09 07 22 18 .90     -25    -30     -1     40     41 219.6  -2.2  33220  273.87 0865.07
2015 04 09 07 22 19 .15     -19    -30      3     36     37 212.6   4.9  33218  273.82 0865.07
2015 04 09 07 22 19 .40     -26    -35      2     44     45 217.0   3.8  33224  273.92 0865.07
2015 04 09 07 22 19 .65     -22    -25      1     34     35 221.4   2.9  33218  273.83 0865.07
2015 04 09 07 22 19 .90     -29    -30      0     43     44 224.1   0.8  33222  273.88 0865.07
2015 04 09 07 22 20 .15     -22    -25      1     34     35 221.4   2.9  33222  273.88 0865.07
2015 04 09 07 22 20 .40     -25    -30     -1     40     41 219.6  -2.2  33224  273.92 0865.07
2015 04 09 07 22 20 .65     -25    -30      7     40     41 219.6  10.1  33222  273.88 0865.07
2015 04 09 07 22 20 .90     -25    -25      3     36     37 225.0   4.9  33220  273.87 0865.07
2015 04 09 07 22 21 .15     -25    -25      3     36     37 225.0   4.9  33220  273.87 0865.07
2015 04 09 07 22 21 .40     -25    -30     -1     40     41 219.6  -2.2  33224  273.92 0865.07
2015 04 09 07 22 21 .65     -31    -26     -1     41     42 229.6  -2.2  33224  273.92 0865.07
2015 04 09 07 22 21 .90     -31    -26     -1     41     42 229.6  -2.2  33224  273.92 0865.07
2015 04 09 07 22 22 .16     -25    -25     -3     36     37 225.0  -5.2  33222  273.88 0865.07
2015 04 09 07 22 22 .40     -25    -30     -1     40     41 219.6  -2.2  33220  273.87 0865.07
2015 04 09 07 22 22 .66     -25    -30     -1     40     41 219.6  -2.2  33220  273.87 0865.07
2015 04 09 07 22 22 .91     -31    -26     -1     41     42 229.6  -2.2  33224  273.92 0865.07
2015 04 09 07 22 23 .16     -29    -30      0     43     44 224.1   0.8  33222  273.88 0865.06
2015 04 09 07 22 23 .41     -29    -30      0     43     44 224.1   0.8  33222  273.88 0865.06
2015 04 09 07 22 23 .66     -35    -35      0     50     51 225.0  -0.3  33218  273.83 0865.06
2015 04 09 07 22 23 .91     -35    -28      2     46     47 231.4   2.8  33230  274.03 0865.06
2015 04 09 07 22 24 .16     -35    -35      0     50     51 225.0  -0.3  33218  273.83 0865.06
2015 04 09 07 22 24 .41     -29    -30      0     43     44 224.1   0.8  33226  273.95 0865.06
2015 04 09 07 22 24 .67     -26    -26      4     38     39 225.0   5.9  33224  273.92 0865.06
2015 04 09 07 22 24 .92     -36    -27      0     45     46 233.1   0.8  33222  273.90 0865.06
2015 04 09 07 22 25 .17     -35    -35      0     50     51 225.0  -0.3  33218  273.83 0865.06
2015 04 09 07 22 25 .42     -31    -26     -1     41     42 229.6  -2.2  33224  273.92 0865.06
2015 04 09 07 22 25 .67     -29    -30      0     43     44 224.1   0.8  33226  273.95 0865.06
2015 04 09 07 22 25 .92     -29    -22      1     37     38 232.2   2.8  33222  273.88 0865.06
2015 04 09 07 22 26 .17     -29    -22      1     37     38 232.2   2.8  33222  273.88 0865.06
2015 04 09 07 22 26 .43     -29    -22      1     37     38 232.2   2.8  33222  273.88 0865.06
2015 04 09 07 22 26 .67     -25    -25      3     36     37 225.0   4.9  33224  273.92 0865.06
2015 04 09 07 22 26 .93     -31    -26     -1     41     42 229.6  -2.2  33224  273.92 0865.06
2015 04 09 07 22 27 .18     -31    -26     -1     41     42 229.6  -2.2  33224  273.92 0865.06
2015 04 09 07 22 27 .43     -26    -26      4     38     39 225.0   5.9  33226  273.97 0865.06
2015 04 09 07 22 27 .68     -29    -30      0     43     44 224.1   0.8  33226  273.95 0865.07
2015 04 09 07 22 27 .93     -29    -30      0     43     44 224.1   0.8  33222  273.88 0865.07
2015 04 09 07 22 28 .18     -31    -26     -1     41     42 229.6  -2.2  33224  273.92 0865.07
2015 04 09 07 22 28 .43     -31    -26     -1     41     42 229.6  -2.2  33224  273.92 0865.07
2015 04 09 07 22 28 .68     -25    -25     -3     36     37 225.0  -5.2  33226  273.95 0865.07
2015 04 09 07 22 28 .93     -25    -25     -3     36     37 225.0  -5.2  33226  273.95 0865.07
2015 04 09 07 22 29 .18     -29    -30      0     43     44 224.1   0.8  33226  273.95 0865.07
2015 04 09 07 22 29 .43     -29    -30      0     43     44 224.1   0.8  33226  273.95 0865.07
2015 04 09 07 22 29 .68     -34    -32     -1     47     48 226.9  -2.2  33222  273.88 0865.07
2015 04 09 07 22 29 .93     -31    -34     -1     47     48 222.3  -2.2  33220  273.87 0865.07
2015 04 09 07 22 30 .19     -27    -36      2     46     47 217.0   2.9  33224  273.93 0865.07
2015 04 09 07 22 30 .44     -29    -30      0     43     44 224.1   0.8  33222  273.88 0865.07
2015 04 09 07 22 30 .69     -19    -30     -3     36     37 212.5  -5.2  33222  273.88 0865.07
2015 04 09 07 22 30 .94     -20    -37     -1     43     44 208.1  -2.2  33244  274.25 0865.07
2015 04 09 07 22 31 .19     -17    -36      0     40     41 205.5  -1.3  33256  274.46 0865.08
2015 04 09 07 22 31 .44     -19    -15     -1     25     26 230.5  -2.2  33264  274.59 0865.08
2015 04 09 07 22 31 .70     -26     -3    -13     27     29 262.1 -31.7  33274  274.74 0865.08
2015 04 09 07 22 31 .95     -38     -7    -11     39     40 258.5 -20.7  33276  274.77 0865.08
2015 04 09 07 22 32 .20     -43     -3     -6     44     45 265.6  -8.2  33256  274.44 0865.08
2015 04 09 07 22 32 .45     -37     -7     -1     38     39 258.5  -2.2  33256  274.46 0865.08
2015 04 09 07 22 32 .70     -28    -13     -1     31     32 244.7  -2.2  33260  274.53 0865.08
2015 04 09 07 22 32 .95     -11    -12     11     17     20 223.4  37.6  33258  274.48 0865.08
2015 04 09 07 22 33 .20     -19    -14     20     24     31 234.0  43.8  33258  274.49 0865.08
2015 04 09 07 22 33 .46     -23    -15     22     28     35 237.6  43.7  33260  274.51 0865.08
2015 04 09 07 22 33 .70     -19    -14     20     24     31 234.0  43.8  33260  274.53 0865.08
2015 04 09 07 22 33 .95     -19    -30      3     36     37 212.5   4.9  33244  274.26 0865.08
2015 04 09 07 22 34 .20     -22    -34      0     41     42 213.4   0.8  33228  274.00 0865.08
2015 04 09 07 22 34 .46     -20    -37      3     43     44 208.1   4.9  33218  273.82 0865.08
2015 04 09 07 22 34 .70     -22    -35      1     42     43 212.5   1.8  33222  273.88 0865.08
2015 04 09 07 22 34 .96     -22    -34      0     41     42 213.4   0.8  33218  273.83 0865.08
2015 04 09 07 22 35 .21     -22    -35      1     42     43 212.5   1.8  33222  273.88 0865.08
2015 04 09 07 22 35 .46     -19    -30      3     36     37 212.5   4.9  33224  273.92 0865.08
2015 04 09 07 22 35 .71     -19    -30      3     36     37 212.5   4.9  33224  273.92 0865.07
2015 04 09 07 22 35 .96     -25    -30     -1     40     41 219.6  -2.2  33224  273.92 0865.07
2015 04 09 07 22 36 .21     -19    -30     -3     36     37 212.5  -5.2  33222  273.88 0865.07
2015 04 09 07 22 36 .46     -16    -26     -1     31     32 212.5  -2.2  33226  273.97 0865.07
2015 04 09 07 22 36 .71     -19    -30     -3     36     37 212.5  -5.2  33222  273.88 0865.07
2015 04 09 07 22 36 .96     -19    -30     -3     36     37 212.5  -5.2  33222  273.88 0865.07
2015 04 09 07 22 37 .22     -25    -40      4     48     49 212.5   4.9  33228  274.00 0865.07
2015 04 09 07 22 37 .46     -30    -31     12     44     46 224.2  15.3  33240  274.20 0865.08
2015 04 09 07 22 37 .71     -23    -26      1     36     37 221.4   2.9  33224  273.93 0865.08
2015 04 09 07 22 37 .96     -29    -30      0     43     44 224.1   0.8  33222  273.88 0865.08
2015 04 09 07 22 38 .21     -22    -34      0     41     42 213.4   0.8  33218  273.83 0865.08
2015 04 09 07 22 38 .46     -16    -35      5     39     40 205.5   8.0  33218  273.83 0865.08
2015 04 09 07 22 38 .72     -19    -30      3     36     37 212.5   4.9  33220  273.87 0865.08
2015 04 09 07 22 38 .98     -21    -26      1     34     35 219.7   2.8  33224  273.93 0865.08
2015 04 09 07 22 39 .23     -19    -30     -1     36     37 212.5  -2.2  33236  274.13 0865.08
2015 04 09 07 22 39 .48     -21    -26      1     34     35 219.7   2.8  33246  274.30 0865.08
2015 04 09 07 22 39 .73     -25    -30     -1     40     41 219.6  -2.2  33248  274.31 0865.08
2015 04 09 07 22 39 .98     -25    -26     -1     37     38 223.4  -2.2  33236  274.13 0865.08
2015 04 09 07 22 40 .23     -19    -23     -1     30     31 219.6  -3.1  33228  273.98 0865.07
2015 04 09 07 22 40 .49     -23    -24     -4     34     35 223.2  -7.3  33220  273.87 0865.07
2015 04 09 07 22 40 .73     -23    -24     -4     34     35 223.2  -7.3  33220  273.87 0865.07
2015 04 09 07 22 41 .05     -10    -31     -6     33     34 198.3 -11.3  33226  273.95 0865.07
2015 04 09 07 22 41 .23     -16    -26     -6     31     32 212.5 -11.3  33234  274.08 0865.07
2015 04 09 07 22 41 .48     -22    -23     -1     33     34 223.4  -2.2  33244  274.26 0865.07
2015 04 09 07 22 41 .73     -18    -28     12     34     37 212.5  19.4  33242  274.23 0865.07
2015 04 09 07 22 41 .98     -19    -23     17     31     35 219.7  33.5  33238  274.16 0865.07
2015 04 09 07 22 42 .24     -19    -26     -1     33     34 216.1  -3.2  33230  274.01 0865.07
2015 04 09 07 22 42 .48     -16    -26     -1     31     32 212.5  -2.2  33224  273.92 0865.07
2015 04 09 07 22 42 .74     -14    -22      1     27     28 212.6   2.8  33224  273.93 0865.07
2015 04 09 07 22 42 .99     -14    -26     -1     30     31 209.0  -2.2  33228  273.98 0865.07
2015 04 09 07 22 43 .23     -15    -30      1     34     35 207.2   2.9  33228  273.98 0865.07
2015 04 09 07 22 43 .48     -17    -26     -1     32     33 212.6  -2.2  33230  274.01 0865.07
2015 04 09 07 22 43 .73     -22    -25     -4     34     35 221.4  -7.3  33224  273.92 0865.07
2015 04 09 07 22 43 .98     -22    -25     -4     34     35 221.4  -7.3  33224  273.92 0865.07
2015 04 09 07 22 44 .24     -22    -25     -4     34     35 221.4  -7.3  33224  273.92 0865.07
2015 04 09 07 22 44 .49     -22    -25     -4     34     35 221.4  -7.3  33224  273.92 0865.07
2015 04 09 07 22 44 .74     -24    -29     -6     38     39 219.6 -10.3  33224  273.93 0865.07
2015 04 09 07 22 44 .99     -29    -30     -4     42     43 224.1  -6.2  33226  273.97 0865.07
2015 04 09 07 22 45 .24     -19    -30     -3     36     37 212.5  -5.2  33222  273.88 0865.07
2015 04 09 07 22 45 .49     -22    -35      1     42     43 212.5   1.8  33226  273.95 0865.07
2015 04 09 07 22 45 .75     -25    -25     -3     36     37 225.0  -5.2  33226  273.95 0865.07
2015 04 09 07 22 46 .00     -31    -26     -1     41     42 229.6  -2.2  33224  273.92 0865.07
2015 04 09 07 22 46 .25     -25    -25     -3     36     37 225.0  -5.2  33226  273.95 0865.07
2015 04 09 07 22 46 .50     -29    -30      0     43     44 224.1   0.8  33222  273.88 0865.07
2015 04 09 07 22 46 .75     -25    -25     -3     36     37 225.0  -5.2  33226  273.95 0865.07
2015 04 09 07 22 47 .00     -22    -34     -3     41     42 213.4  -5.2  33230  274.01 0865.07
2015 04 09 07 22 47 .26     -20    -32     -1     38     39 212.6  -2.2  33230  274.03 0865.07
2015 04 09 07 22 47 .50     -29    -30     -4     42     43 224.1  -6.2  33226  273.97 0865.07
2015 04 09 07 22 47 .75     -31    -26     -1     41     42 229.6  -2.2  33224  273.92 0865.07
2015 04 09 07 22 48 .01     -32    -34     -1     47     48 223.2  -1.3  33226  273.97 0865.07
2015 04 09 07 22 48 .26     -34    -35     -5     49     50 224.2  -6.2  33224  273.92 0865.08
2015 04 09 07 22 48 .51     -32    -34     -1     47     48 223.2  -1.3  33226  273.97 0865.08
2015 04 09 07 22 48 .76     -32    -30     -1     45     46 226.9  -2.2  33224  273.93 0865.08
2015 04 09 07 22 49 .01     -32    -30     -1     45     46 226.9  -2.2  33224  273.93 0865.08
2015 04 09 07 22 49 .26     -33    -31     -2     46     47 226.0  -3.1  33222  273.88 0865.08
2015 04 09 07 22 49 .51     -34    -35     -5     49     50 224.2  -6.2  33224  273.92 0865.08
2015 04 09 07 22 49 .76     -33    -31     -2     46     47 226.0  -3.1  33222  273.88 0865.08
2015 04 09 07 22 50 .01     -31    -26     -1     41     42 229.6  -2.2  33224  273.92 0865.08
2015 04 09 07 22 50 .26     -29    -30      0     43     44 224.1   0.8  33232  274.05 0865.08
2015 04 09 07 22 50 .51     -17    -36      0     40     41 205.5  -1.3  33230  274.01 0865.08
2015 04 09 07 22 50 .76     -24    -37     -1     45     46 212.5  -1.3  33226  273.97 0865.08
2015 04 09 07 22 51 .01     -26    -35      2     44     45 217.0   3.8  33224  273.92 0865.08
2015 04 09 07 22 51 .26     -24    -37     -1     45     46 212.5  -1.3  33226  273.97 0865.08
2015 04 09 07 22 51 .51     -28    -38      1     48     49 217.0   1.8  33228  274.00 0865.08
2015 04 09 07 22 51 .76     -24    -37     -1     45     46 212.5  -1.3  33226  273.97 0865.08
2015 04 09 07 22 52 .01     -24    -37     -1     45     46 212.5  -1.3  33226  273.97 0865.07
2015 04 09 07 22 52 .26     -24    -37     -1     45     46 212.5  -1.3  33226  273.97 0865.07
2015 04 09 07 22 52 .52     -24    -37     -1     45     46 212.5  -1.3  33226  273.97 0865.07
2015 04 09 07 22 52 .78     -24    -37     -1     45     46 212.5  -1.3  33226  273.97 0865.07
2015 04 09 07 22 53 .03     -17    -36      0     40     41 205.5  -1.3  33230  274.01 0865.07
2015 04 09 07 22 53 .28     -26    -34     -1     43     44 217.8  -2.2  33228  274.00 0865.07
2015 04 09 07 22 53 .53     -22    -34     -3     41     42 213.4  -5.2  33230  274.01 0865.07
2015 04 09 07 22 53 .78     -20    -37     -1     43     44 208.1  -2.2  33228  273.98 0865.07
2015 04 09 07 22 54 .03     -26    -34     -1     43     44 217.8  -2.2  33228  274.00 0865.07
2015 04 09 07 22 54 .28     -22    -34     -3     41     42 213.4  -5.2  33230  274.01 0865.07
2015 04 09 07 22 54 .53     -26    -34     -1     43     44 217.8  -2.2  33228  274.00 0865.07
2015 04 09 07 22 54 .78     -19    -30     -1     36     37 212.5  -2.2  33230  274.03 0865.07
2015 04 09 07 22 55 .03     -26    -34     -1     43     44 217.8  -2.2  33224  273.93 0865.07
2015 04 09 07 22 55 .28     -26    -34     -1     43     44 217.8  -2.2  33228  274.00 0865.07
2015 04 09 07 22 55 .53     -20    -37     -1     43     44 208.1  -2.2  33228  273.98 0865.07
2015 04 09 07 22 55 .78     -24    -37     -1     45     46 212.5  -1.3  33226  273.97 0865.07
2015 04 09 07 22 56 .04     -31    -34      7     47     48 222.3   9.0  33226  273.95 0865.07
2015 04 09 07 22 56 .28     -28    -38      1     48     49 217.0   1.8  33228  274.00 0865.07
2015 04 09 07 22 56 .54     -28    -38      1     48     49 217.0   1.8  33228  274.00 0865.07
2015 04 09 07 22 56 .79     -26    -35      2     44     45 217.0   3.8  33224  273.92 0865.07
2015 04 09 07 22 57 .03     -24    -37     -1     45     46 212.5  -1.3  33226  273.97 0865.07
2015 04 09 07 22 57 .29     -28    -38      1     48     49 217.0   1.8  33224  273.93 0865.07
2015 04 09 07 22 57 .54     -22    -34     -3     41     42 213.4  -5.2  33230  274.01 0865.07
2015 04 09 07 22 57 .79     -22    -35      1     42     43 212.5   1.8  33228  273.98 0865.07
2015 04 09 07 22 58 .04     -22    -34     -3     41     42 213.4  -5.2  33230  274.01 0865.07
2015 04 09 07 22 58 .29     -24    -37     -1     45     46 212.5  -1.3  33226  273.97 0865.07
2015 04 09 07 22 58 .54     -20    -37     -1     43     44 208.1  -2.2  33228  273.98 0865.07
2015 04 09 07 22 58 .79     -24    -37     -1     45     46 212.5  -1.3  33226  273.97 0865.07
2015 04 09 07 22 59 .04     -28    -38     -5     48     49 217.0  -6.2  33224  273.92 0865.07
2015 04 09 07 22 59 .29     -26    -34     -1     43     44 217.8  -2.2  33228  274.00 0865.07
2015 04 09 07 22 59 .55     -26    -34     -1     43     44 217.8  -2.2  33228  274.00 0865.07
2015 04 09 07 22 59 .80     -26    -34     -1     43     44 217.8  -2.2  33228  274.00 0865.07
2015 04 09 07 23 00 .05     -24    -37     -1     45     46 212.5  -1.3  33226  273.97 0865.06
2015 04 09 07 23 00 .30     -26    -34     -1     43     44 217.8  -2.2  33228  274.00 0865.06
2015 04 09 07 23 00 .55     -24    -37     -1     45     46 212.5  -1.3  33226  273.97 0865.06
2015 04 09 07 23 00 .80     -26    -34     -1     43     44 217.8  -2.2  33224  273.93 0865.06
2015 04 09 07 23 01 .06     -24    -37     -1     45     46 212.5  -1.3  33226  273.97 0865.06
2015 04 09 07 23 01 .31     -24    -37     -1     45     46 212.5  -1.3  33226  273.97 0865.06
2015 04 09 07 23 01 .56     -26    -34     -1     43     44 217.8  -2.2  33228  274.00 0865.06
2015 04 09 07 23 01 .81     -28    -38      1     48     49 217.0   1.8  33224  273.93 0865.06
2015 04 09 07 23 02 .06     -28    -38     -5     48     49 217.0  -6.2  33226  273.97 0865.06
2015 04 09 07 23 02 .31     -33    -38      4     51     52 220.5   4.9  33226  273.97 0865.06
2015 04 09 07 23 02 .56     -34    -35     -5     49     50 224.2  -6.2  33224  273.92 0865.06
2015 04 09 07 23 02 .81     -34    -35     -5     49     50 224.2  -6.2  33224  273.92 0865.07
2015 04 09 07 23 03 .06     -33    -31     -2     46     47 226.0  -3.1  33222  273.88 0865.07
2015 04 09 07 23 03 .31     -29    -30      0     43     44 224.1   0.8  33226  273.95 0865.07
2015 04 09 07 23 03 .56     -32    -34     -1     47     48 223.2  -1.3  33226  273.97 0865.06
2015 04 09 07 23 03 .81     -26    -34     -1     43     44 217.8  -2.2  33228  274.00 0865.06
2015 04 09 07 23 04 .06     -26    -26      4     38     39 225.0   5.9  33230  274.01 0865.06
2015 04 09 07 23 04 .31     -26    -35      2     44     45 217.0   3.8  33226  273.97 0865.06
2015 04 09 07 23 04 .56     -32    -34     -1     47     48 223.2  -1.3  33230  274.01 0865.06
2015 04 09 07 23 04 .81     -28    -38      1     48     49 217.0   1.8  33224  273.93 0865.06
2015 04 09 07 23 05 .06     -28    -38      1     48     49 217.0   1.8  33224  273.93 0865.06
2015 04 09 07 23 05 .32     -28    -38      1     48     49 217.0   1.8  33224  273.93 0865.06
2015 04 09 07 23 05 .57     -28    -38      1     48     49 217.0   1.8  33224  273.93 0865.06
2015 04 09 07 23 05 .82     -29    -30      0     43     44 224.1   0.8  33232  274.05 0865.06
2015 04 09 07 23 06 .07     -33    -33      4     47     48 225.0   5.9  33230  274.03 0865.06
2015 04 09 07 23 06 .32     -34    -35      7     49     50 224.2   9.0  33232  274.06 0865.06
2015 04 09 07 23 06 .58     -29    -37      8     48     49 217.8  10.1  33230  274.01 0865.06
2015 04 09 07 23 06 .83     -29    -30      7     43     44 224.1  10.1  33226  273.97 0865.06
2015 04 09 07 23 07 .08     -29    -30      0     43     44 224.1   0.8  33232  274.05 0865.06
2015 04 09 07 23 07 .33     -34    -35      1     49     50 224.2   1.8  33228  274.00 0865.06
2015 04 09 07 23 07 .58     -32    -30     -1     45     46 226.9  -2.2  33224  273.93 0865.06
2015 04 09 07 23 07 .83     -32    -34     -1     47     48 223.2  -1.3  33226  273.97 0865.06
2015 04 09 07 23 08 .08     -34    -27    -11     44     46 231.4 -14.5  33224  273.93 0865.06
2015 04 09 07 23 08 .33     -29    -37      0     48     49 217.8  -0.3  33234  274.10 0865.06
2015 04 09 07 23 08 .58     -25    -30     -1     40     41 219.6  -2.2  33230  274.01 0865.06
2015 04 09 07 23 08 .83     -25    -25     -3     36     37 225.0  -5.2  33228  273.98 0865.06
2015 04 09 07 23 09 .08     -21    -26     -4     34     35 219.7  -7.2  33232  274.06 0865.06
2015 04 09 07 23 09 .33     -19    -30    -10     36     38 212.6 -15.4  33226  273.97 0865.06
2015 04 09 07 23 09 .59     -28    -38     -5     48     49 217.0  -6.2  33226  273.97 0865.06
2015 04 09 07 23 09 .84     -29    -30      0     43     44 224.1   0.8  33232  274.05 0865.06
2015 04 09 07 23 10 .08     -25    -30     -1     40     41 219.6  -2.2  33230  274.01 0865.06
2015 04 09 07 23 10 .34     -26    -34     -1     43     44 217.8  -2.2  33228  274.00 0865.06
2015 04 09 07 23 10 .59     -28    -38     -5     48     49 217.0  -6.2  33230  274.01 0865.06
2015 04 09 07 23 10 .84     -26    -34     -1     43     44 217.8  -2.2  33228  274.00 0865.06
2015 04 09 07 23 11 .09     -29    -30     -4     42     43 224.1  -6.2  33226  273.97 0865.06
2015 04 09 07 23 11 .34     -26    -34     -1     43     44 217.8  -2.2  33228  274.00 0865.06
2015 04 09 07 23 11 .59     -26    -35     -3     44     45 217.0  -4.1  33232  274.05 0865.06
2015 04 09 07 23 11 .84     -24    -37      5     45     46 212.5   6.9  33240  274.20 0865.06
2015 04 09 07 23 12 .09     -26    -35      2     44     45 217.0   3.8  33242  274.21 0865.06
2015 04 09 07 23 12 .34     -27    -34     10     44     46 218.7  13.2  33246  274.28 0865.06
2015 04 09 07 23 12 .59     -29    -30      0     43     44 224.1   0.8  33250  274.34 0865.06
2015 04 09 07 23 12 .84     -31    -34     -1     47     48 222.3  -2.2  33232  274.06 0865.06
2015 04 09 07 23 13 .09     -28    -35     -1     45     46 218.7  -2.2  33234  274.10 0865.06
2015 04 09 07 23 13 .35     -24    -37     -1     45     46 213.4  -1.3  33232  274.06 0865.06
2015 04 09 07 23 13 .61     -24    -38     -1     46     47 212.6  -2.2  33236  274.11 0865.07
2015 04 09 07 23 13 .86     -32    -34      4     47     48 223.2   5.9  33234  274.08 0865.07
2015 04 09 07 23 14 .10     -23    -34      1     42     43 214.3   1.8  33234  274.08 0865.07
2015 04 09 07 23 14 .35     -26    -35      2     44     45 217.0   3.8  33224  273.92 0865.07
2015 04 09 07 23 14 .61     -24    -37     -1     45     46 212.5  -1.3  33226  273.97 0865.07
2015 04 09 07 23 14 .86     -27    -34      2     44     45 218.7   3.8  33232  274.06 0865.07
2015 04 09 07 23 15 .11     -22    -34      8     41     42 213.4  12.2  33226  273.97 0865.07
2015 04 09 07 23 15 .36     -22    -34      8     41     42 213.4  12.2  33226  273.97 0865.06
2015 04 09 07 23 15 .61     -25    -30      6     40     41 219.6   9.0  33224  273.93 0865.06
2015 04 09 07 23 15 .86     -22    -34      8     41     42 213.4  12.2  33226  273.97 0865.06
2015 04 09 07 23 16 .11     -19    -30     -1     36     37 212.5  -2.2  33230  274.03 0865.06
2015 04 09 07 23 16 .36     -25    -30      0     40     41 219.6  -1.3  33232  274.06 0865.06
2015 04 09 07 23 16 .61     -23    -24      1     34     35 223.2   2.9  33236  274.13 0865.06
2015 04 09 07 23 16 .86     -19    -30      4     36     37 212.5   6.9  33238  274.16 0865.06
2015 04 09 07 23 17 .11     -23    -24      9     34     36 223.2  15.3  33236  274.11 0865.07
2015 04 09 07 23 17 .36     -20    -29      3     36     37 214.3   4.9  33236  274.11 0865.07
2015 04 09 07 23 17 .61     -19    -30      3     36     37 212.5   4.9  33226  273.97 0865.07
2015 04 09 07 23 17 .86     -25    -30      0     40     41 219.6  -1.3  33230  274.01 0865.07
2015 04 09 07 23 18 .12     -29    -30      0     43     44 224.1   0.8  33222  273.88 0865.07
2015 04 09 07 23 18 .37     -31    -27      6     42     43 229.6   9.0  33224  273.93 0865.07
2015 04 09 07 23 18 .62     -29    -30      7     43     44 224.1  10.1  33226  273.97 0865.07
2015 04 09 07 23 18 .87     -26    -26      4     38     39 225.0   5.9  33230  274.01 0865.07
2015 04 09 07 23 19 .12     -17    -26     -1     32     33 212.6  -2.2  33230  274.01 0865.07
2015 04 09 07 23 19 .37     -17    -26     -1     32     33 212.6  -2.2  33230  274.01 0865.07
2015 04 09 07 23 19 .62     -21    -26      1     34     35 219.7   2.8  33228  274.00 0865.07
2015 04 09 07 23 19 .87     -21    -26     -4     34     35 219.7  -7.2  33232  274.06 0865.07
2015 04 09 07 23 20 .12     -24    -24     -9     35     37 225.0 -15.4  33230  274.01 0865.07
2015 04 09 07 23 20 .38     -26    -25     -1     37     38 226.7  -2.2  33230  274.03 0865.07
2015 04 09 07 23 20 .63     -21    -26     -4     34     35 219.7  -7.2  33230  274.01 0865.07
2015 04 09 07 23 20 .88     -25    -30      0     40     41 219.6  -1.3  33232  274.06 0865.07
2015 04 09 07 23 21 .13     -25    -30      0     40     41 219.6  -1.3  33232  274.06 0865.07
2015 04 09 07 23 21 .38     -25    -30     -1     40     41 219.6  -2.2  33230  274.01 0865.07
2015 04 09 07 23 21 .63     -25    -30     -1     40     41 219.6  -2.2  33226  273.97 0865.07
2015 04 09 07 23 21 .88     -26    -34     -1     43     44 217.8  -2.2  33228  274.00 0865.07
2015 04 09 07 23 22 .13     -32    -34     -1     47     48 223.2  -1.3  33230  274.01 0865.07
2015 04 09 07 23 22 .38     -32    -30     -1     45     46 226.9  -2.2  33224  273.93 0865.07
2015 04 09 07 23 22 .64     -32    -34     -1     47     48 223.2  -1.3  33230  274.01 0865.07
2015 04 09 07 23 22 .89     -26    -35      2     44     45 217.0   3.8  33230  274.01 0865.07
2015 04 09 07 23 23 .14     -31    -42     -2     53     54 217.0  -2.2  33230  274.01 0865.07
2015 04 09 07 23 23 .39     -28    -38      1     48     49 217.0   1.8  33228  274.00 0865.07
2015 04 09 07 23 23 .64     -32    -34     -1     47     48 223.2  -1.3  33230  274.01 0865.07
2015 04 09 07 23 23 .89     -38    -38     -1     54     55 225.0  -1.3  33226  273.97 0865.07
2015 04 09 07 23 24 .14     -38    -37     -2     54     55 225.9  -2.2  33220  273.87 0865.07
2015 04 09 07 23 24 .39     -32    -34     -1     47     48 223.2  -1.3  33226  273.97 0865.07
2015 04 09 07 23 24 .64     -26    -35      2     44     45 217.0   3.8  33242  274.21 0865.07
2015 04 09 07 23 24 .89     -31    -33     14     46     49 223.2  17.3  33238  274.16 0865.07
2015 04 09 07 23 25 .14     -27    -34      2     44     45 218.7   3.8  33232  274.06 0865.07
2015 04 09 07 23 25 .39     -36    -27      0     45     46 233.1   0.8  33222  273.90 0865.07
2015 04 09 07 23 25 .64     -31    -32      2     45     46 224.2   2.9  33218  273.82 0865.07
2015 04 09 07 23 25 .89     -31    -32      2     45     46 224.2   2.9  33218  273.82 0865.07
2015 04 09 07 23 26 .14     -31    -34     -1     47     48 222.3  -2.2  33220  273.87 0865.07
2015 04 09 07 23 26 .39     -29    -30      0     43     44 224.1   0.8  33226  273.95 0865.07
2015 04 09 07 23 26 .64     -31    -26     -1     41     42 229.6  -2.2  33220  273.87 0865.07
2015 04 09 07 23 26 .90     -31    -34     -1     47     48 222.3  -2.2  33220  273.87 0865.07
2015 04 09 07 23 27 .15     -31    -26     -1     41     42 229.6  -2.2  33224  273.92 0865.07
2015 04 09 07 23 27 .41     -35    -35      0     50     51 225.0  -0.3  33218  273.83 0865.07
2015 04 09 07 23 27 .66     -32    -34     -1     47     48 223.2  -1.3  33226  273.97 0865.07
2015 04 09 07 23 27 .91     -26    -34     -1     43     44 217.8  -2.2  33228  274.00 0865.07
2015 04 09 07 23 28 .16     -27    -34     -1     44     45 218.7  -2.2  33232  274.05 0865.07
2015 04 09 07 23 28 .41     -25    -30      0     40     41 219.6  -1.3  33232  274.06 0865.07
2015 04 09 07 23 28 .66     -20    -32     -1     38     39 212.6  -2.2  33230  274.03 0865.07
2015 04 09 07 23 28 .91     -29    -30     -4     42     43 224.1  -6.2  33226  273.97 0865.07
2015 04 09 07 23 29 .16     -17    -36      0     40     41 205.5  -1.3  33226  273.97 0865.07
2015 04 09 07 23 29 .41     -26    -34     -1     43     44 217.8  -2.2  33228  274.00 0865.07
2015 04 09 07 23 29 .66     -29    -30     -4     42     43 224.1  -6.2  33226  273.97 0865.07
2015 04 09 07 23 29 .91     -26    -34     -1     43     44 217.8  -2.2  33228  274.00 0865.07
2015 04 09 07 23 30 .16     -25    -30     -1     40     41 219.6  -2.2  33230  274.01 0865.07
2015 04 09 07 23 30 .41     -26    -34    -10     43     45 217.8 -13.4  33224  273.92 0865.07
2015 04 09 07 23 30 .66     -26    -34    -10     43     45 217.8 -13.4  33224  273.92 0865.08
2015 04 09 07 23 30 .91     -20    -34     -4     40     41 211.6  -6.2  33226  273.97 0865.08
2015 04 09 07 23 31 .16     -22    -34     -3     41     42 213.4  -5.2  33230  274.01 0865.08
2015 04 09 07 23 31 .42     -19    -30     -1     36     37 212.5  -2.2  33230  274.03 0865.08
2015 04 09 07 23 31 .66     -22    -34     -3     41     42 213.4  -5.2  33230  274.01 0865.08
2015 04 09 07 23 31 .92     -27    -34     -8     44     45 218.7 -11.3  33226  273.97 0865.08
2015 04 09 07 23 32 .17     -29    -30     -4     42     43 224.1  -6.2  33226  273.97 0865.08
2015 04 09 07 23 32 .42     -24    -37     -5     45     46 212.5  -7.3  33224  273.93 0865.08
2015 04 09 07 23 32 .67     -29    -30     -4     42     43 224.1  -6.2  33226  273.97 0865.08
2015 04 09 07 23 32 .92     -29    -30     -4     42     43 224.1  -6.2  33226  273.97 0865.08
2015 04 09 07 23 33 .17     -29    -30     -4     42     43 224.1  -6.2  33226  273.97 0865.08
2015 04 09 07 23 33 .42     -22    -34     -3     41     42 213.4  -5.2  33230  274.01 0865.08
2015 04 09 07 23 33 .67     -19    -30     -1     36     37 212.5  -2.2  33236  274.13 0865.08
2015 04 09 07 23 33 .92     -23    -34      1     42     43 214.3   1.8  33234  274.08 0865.08
2015 04 09 07 23 34 .17     -25    -25     -3     36     37 225.0  -5.2  33222  273.88 0865.08
2015 04 09 07 23 34 .43     -22    -25     -4     34     35 221.4  -7.3  33224  273.92 0865.08
2015 04 09 07 23 34 .69     -25    -30     -1     40     41 219.6  -2.2  33230  274.01 0865.08
2015 04 09 07 23 34 .93     -23    -24     -4     34     35 223.2  -7.3  33226  273.97 0865.08
2015 04 09 07 23 35 .18     -25    -30     -1     40     41 219.6  -2.2  33230  274.01 0865.08
2015 04 09 07 23 35 .43     -19    -30     -1     36     37 212.5  -2.2  33230  274.03 0865.08
2015 04 09 07 23 35 .68     -19    -30     -3     36     37 212.5  -5.2  33222  273.88 0865.08
2015 04 09 07 23 35 .94     -16    -35     -1     39     40 205.4  -2.2  33224  273.92 0865.08
2015 04 09 07 23 36 .19     -19    -30      3     36     37 212.5   4.9  33224  273.92 0865.07
2015 04 09 07 23 36 .44      -7    -32      1     33     34 193.4   2.9  33226  273.97 0865.07
2015 04 09 07 23 36 .69     -17    -34     -1     39     40 207.2  -2.2  33232  274.06 0865.07
2015 04 09 07 23 36 .94     -17    -34     -1     39     40 207.2  -2.2  33232  274.06 0865.07
2015 04 09 07 23 37 .19     -17    -34     -1     39     40 207.2  -2.2  33232  274.06 0865.07
2015 04 09 07 23 37 .44     -19    -30     -1     36     37 212.5  -2.2  33234  274.08 0865.07
2015 04 09 07 23 37 .69     -19    -23     -1     30     31 219.7  -2.2  33234  274.08 0865.07
2015 04 09 07 23 37 .94      -8    -34     -4     35     36 193.4  -7.2  33232  274.06 0865.08
2015 04 09 07 23 38 .19     -19    -30     -1     36     37 212.5  -2.2  33230  274.03 0865.08
2015 04 09 07 23 38 .44      -8    -26     -3     28     29 198.5  -7.3  33230  274.01 0865.08
2015 04 09 07 23 38 .69     -14    -30    -10     34     36 205.4 -17.6  33228  273.98 0865.08
2015 04 09 07 23 38 .94     -19    -30     -1     36     37 212.5  -2.2  33230  274.03 0865.08
2015 04 09 07 23 39 .19     -23    -24      1     34     35 223.2   2.9  33236  274.13 0865.08
2015 04 09 07 23 39 .44     -12    -19      0     23     24 212.5  -2.2  33234  274.10 0865.08
2015 04 09 07 23 39 .69     -10    -30     -7     32     33 198.3 -13.4  33230  274.03 0865.08
2015 04 09 07 23 39 .94     -12    -27    -13     30     32 205.4 -29.5  33228  273.98 0865.08
2015 04 09 07 23 40 .19     -14    -42     -9     45     46 198.5 -11.3  33224  273.92 0865.08
2015 04 09 07 23 40 .45     -17    -52     -6     55     56 198.7  -6.2  33220  273.87 0865.08
2015 04 09 07 23 40 .70     -11    -45      4     47     48 194.3   5.9  33226  273.95 0865.07
2015 04 09 07 23 40 .95     -12    -36      5     39     40 198.7   8.0  33228  273.98 0865.07
2015 04 09 07 23 41 .21     -10    -30      6     32     33 198.3  11.1  33224  273.93 0865.07
2015 04 09 07 23 41 .46     -17    -33     12     38     41 207.2  18.4  33224  273.92 0865.07
2015 04 09 07 23 41 .71     -11    -35      1     37     38 198.3   2.9  33226  273.97 0865.07
2015 04 09 07 23 41 .96     -10    -30     -1     32     33 198.3  -2.2  33226  273.97 0865.07
2015 04 09 07 23 42 .21     -10    -30     -1     32     33 198.3  -2.2  33226  273.97 0865.07
2015 04 09 07 23 42 .46     -10    -31     -1     33     34 198.3  -2.2  33230  274.01 0865.08
2015 04 09 07 23 42 .71     -18    -18      0     26     27 225.0   0.8  33232  274.06 0865.08
2015 04 09 07 23 42 .96     -14    -19      4     24     25 216.1  11.1  33236  274.11 0865.08
2015 04 09 07 23 43 .21     -11    -16      0     20     21 214.3  -2.2  33236  274.11 0865.08
2015 04 09 07 23 43 .46     -17    -11     -6     21     23 235.8 -17.6  33234  274.10 0865.08
2015 04 09 07 23 43 .71     -18    -13      0     23     24 234.0  -2.2  33238  274.16 0865.08
2015 04 09 07 23 43 .96     -12    -15      7     20     22 217.8  19.2  33236  274.13 0865.08
2015 04 09 07 23 44 .22     -23     -7      6     25     26 251.6  15.3  33236  274.13 0865.08
2015 04 09 07 23 44 .47     -26    -16     13     31     33 237.5  23.0  33232  274.06 0865.08
2015 04 09 07 23 44 .71     -20    -16     11     26     28 230.5  21.0  33232  274.05 0865.08
2015 04 09 07 23 44 .97     -21    -16      6     27     28 232.2  13.2  33232  274.06 0865.08
2015 04 09 07 23 45 .22     -14    -18     11     24     26 217.8  25.1  33230  274.03 0865.08
2015 04 09 07 23 45 .47     -12    -15      7     20     22 217.8  19.2  33234  274.08 0865.08
2015 04 09 07 23 45 .72     -12    -15      7     20     22 217.8  19.2  33228  274.00 0865.08
2015 04 09 07 23 45 .97     -17    -36      6     40     41 205.5   9.0  33228  273.98 0865.08
2015 04 09 07 23 46 .22     -15    -30      1     34     35 207.2   2.8  33230  274.03 0865.08
2015 04 09 07 23 46 .47     -20    -21     10     30     32 223.2  19.2  33236  274.13 0865.08
2015 04 09 07 23 46 .72     -17    -27     13     33     35 212.6  21.0  33238  274.16 0865.08
2015 04 09 07 23 46 .97     -13    -36     17     39     42 200.0  25.1  33236  274.11 0865.08
2015 04 09 07 23 47 .22       0    -26      3     27     28 180.9   6.9  33232  274.06 0865.08
2015 04 09 07 23 47 .47      -4    -33     -5     34     35 188.0  -9.3  33228  274.00 0865.08
2015 04 09 07 23 47 .72      -6    -30     -1     31     32 191.6  -3.1  33230  274.03 0865.08
2015 04 09 07 23 47 .97     -15    -30      1     34     35 207.2   2.9  33234  274.08 0865.08
2015 04 09 07 23 48 .23     -15    -23      1     28     29 214.3   2.9  33234  274.08 0865.08
2015 04 09 07 23 48 .48     -22    -23      6     33     34 223.4  11.1  33232  274.05 0865.08
2015 04 09 07 23 48 .73     -25    -30      6     40     41 219.6   9.0  33232  274.05 0865.08
2015 04 09 07 23 48 .98      -9    -34      1     36     37 195.1   2.8  33228  273.98 0865.08
2015 04 09 07 23 49 .24     -14    -41      2     44     45 198.7   2.9  33224  273.92 0865.08
2015 04 09 07 23 49 .49     -17    -42      5     46     47 201.8   6.9  33228  274.00 0865.08
2015 04 09 07 23 49 .74     -22    -34      0     41     42 213.4   0.8  33230  274.03 0865.08
2015 04 09 07 23 49 .99     -25    -30      6     40     41 219.6   9.0  33232  274.05 0865.08
2015 04 09 07 23 50 .24     -26    -42      9     50     51 212.5  11.1  33234  274.08 0865.08
2015 04 09 07 23 50 .49     -30    -38     22     49     53 217.8  25.1  33236  274.11 0865.08
2015 04 09 07 23 50 .74     -31    -41     17     52     55 217.0  18.9  33228  274.00 0865.08
2015 04 09 07 23 50 .99     -27    -34     10     44     46 218.7  13.2  33228  273.98 0865.08
2015 04 09 07 23 51 .24     -26    -26     18     37     41 225.0  27.2  33230  274.01 0865.08
2015 04 09 07 23 51 .49     -30    -31     12     44     46 224.2  15.3  33222  273.90 0865.08
2015 04 09 07 23 51 .74     -38    -38     20     54     57 225.0  20.0  33222  273.88 0865.08
2015 04 09 07 23 51 .99     -19    -37     10     42     44 208.1  13.2  33222  273.88 0865.08
2015 04 09 07 23 52 .24     -16    -48      5     51     52 198.3   5.9  33224  273.93 0865.08
2015 04 09 07 23 52 .49     -20    -37      3     43     44 208.1   4.9  33232  274.06 0865.08
2015 04 09 07 23 52 .74     -17    -34     -1     39     40 207.2  -2.2  33232  274.06 0865.08
2015 04 09 07 23 52 .99     -12    -35      4     38     39 200.0   5.9  33230  274.01 0865.08
2015 04 09 07 23 53 .24     -20    -37      3     43     44 208.1   4.9  33226  273.97 0865.07
2015 04 09 07 23 53 .49     -20    -37      3     43     44 208.1   4.9  33226  273.97 0865.07
2015 04 09 07 23 53 .75     -22    -34      0     41     42 213.4   0.8  33228  274.00 0865.07
2015 04 09 07 23 54 .00     -20    -37      3     43     44 208.1   4.9  33226  273.97 0865.07
2015 04 09 07 23 54 .25     -20    -37      3     43     44 208.1   4.9  33226  273.97 0865.07
2015 04 09 07 23 54 .50     -24    -37      5     45     46 212.5   6.9  33224  273.93 0865.07
2015 04 09 07 23 54 .75     -20    -37      3     43     44 208.1   4.9  33226  273.97 0865.07
2015 04 09 07 23 55 .00     -22    -35      1     42     43 212.5   1.8  33226  273.95 0865.07
2015 04 09 07 23 55 .26     -17    -36      6     40     41 205.5   9.0  33228  273.98 0865.07
2015 04 09 07 23 55 .51     -19    -30      1     36     37 212.5   2.9  33230  274.01 0865.07
2015 04 09 07 23 55 .76     -24    -37      5     45     46 212.5   6.9  33230  274.03 0865.07
2015 04 09 07 23 56 .01     -27    -34      2     44     45 218.7   3.8  33232  274.06 0865.07
2015 04 09 07 23 56 .26     -20    -37      3     43     44 208.1   4.9  33226  273.97 0865.07
2015 04 09 07 23 56 .51     -21    -38      2     44     45 209.0   3.8  33236  274.11 0865.07
2015 04 09 07 23 56 .77     -21    -38      2     44     45 209.0   3.8  33236  274.11 0865.07
2015 04 09 07 23 57 .01     -17    -34     -1     39     40 207.2  -2.2  33232  274.06 0865.07
2015 04 09 07 23 57 .26     -27    -34      2     44     45 218.7   3.8  33232  274.06 0865.07
2015 04 09 07 23 57 .52     -27    -34      2     44     45 218.7   3.8  33232  274.06 0865.07
2015 04 09 07 23 57 .76     -25    -30      0     40     41 219.6  -1.3  33232  274.06 0865.07
2015 04 09 07 23 58 .02     -25    -30      6     40     41 219.6   9.0  33232  274.05 0865.07
2015 04 09 07 23 58 .27     -24    -38     -1     46     47 212.6  -2.2  33236  274.11 0865.07
2015 04 09 07 23 58 .52     -26    -35      2     44     45 217.0   3.8  33230  274.01 0865.07
2015 04 09 07 23 58 .77     -22    -34      0     41     42 213.4   0.8  33228  274.00 0865.07
2015 04 09 07 23 59 .02     -23    -34      1     42     43 214.3   1.8  33234  274.08 0865.07
2015 04 09 07 23 59 .27     -26    -41      2     49     50 212.5   2.9  33230  274.01 0865.07
2015 04 09 07 23 59 .52     -24    -37      5     45     46 212.5   6.9  33230  274.03 0865.07
2015 04 09 07 23 59 .77     -23    -34      1     42     43 214.3   1.8  33234  274.08 0865.07
2015 04 09 07 24 00 .02     -26    -35      2     44     45 217.0   3.8  33230  274.01 0865.07
2015 04 09 07 24 00 .27     -22    -35      1     42     43 212.5   1.8  33228  273.98 0865.07
2015 04 09 07 24 00 .52     -25    -30      0     40     41 219.6  -1.3  33232  274.06 0865.07
2015 04 09 07 24 00 .77     -22    -35      1     42     43 212.5   1.8  33228  273.98 0865.07
2015 04 09 07 24 01 .02     -25    -30      0     40     41 219.6  -1.3  33232  274.06 0865.07
2015 04 09 07 24 01 .27     -25    -30      0     40     41 219.6  -1.3  33232  274.06 0865.07
2015 04 09 07 24 01 .52     -22    -34     -3     41     42 213.4  -5.2  33230  274.01 0865.07
2015 04 09 07 24 01 .77     -19    -30     -1     36     37 212.5  -2.2  33230  274.03 0865.07
2015 04 09 07 24 02 .04     -27    -34     -1     44     45 218.7  -2.2  33232  274.05 0865.07
2015 04 09 07 24 02 .29     -25    -30      0     40     41 219.6  -1.3  33232  274.06 0865.07
2015 04 09 07 24 02 .53     -26    -34     -1     43     44 217.8  -2.2  33228  274.00 0865.07
2015 04 09 07 24 02 .79     -19    -30     -1     36     37 212.5  -2.2  33230  274.03 0865.07
2015 04 09 07 24 03 .04     -27    -34     -1     44     45 218.7  -2.2  33232  274.05 0865.07
2015 04 09 07 24 03 .29     -28    -35     -1     45     46 218.7  -2.2  33234  274.10 0865.07
2015 04 09 07 24 03 .54     -25    -30     -1     40     41 219.6  -2.2  33230  274.01 0865.07
2015 04 09 07 24 03 .79     -28    -36     -2     46     47 217.8  -3.1  33232  274.06 0865.07
2015 04 09 07 24 04 .04     -25    -30      0     40     41 219.6  -1.3  33232  274.06 0865.07
2015 04 09 07 24 04 .29     -23    -34      1     42     43 214.3   1.8  33234  274.08 0865.07
2015 04 09 07 24 04 .54     -23    -35     -4     42     43 213.4  -6.2  33236  274.11 0865.07
2015 04 09 07 24 04 .79     -22    -34     -3     41     42 213.4  -5.2  33230  274.01 0865.07
2015 04 09 07 24 05 .04     -22    -34     -3     41     42 213.4  -5.2  33230  274.01 0865.08
2015 04 09 07 24 05 .29     -27    -34     -1     44     45 218.7  -2.2  33232  274.05 0865.08
2015 04 09 07 24 05 .54     -26    -34     -1     43     44 217.8  -2.2  33228  274.00 0865.08
2015 04 09 07 24 05 .79     -22    -34     -3     41     42 213.4  -5.2  33230  274.01 0865.08
2015 04 09 07 24 06 .04     -22    -34     -3     41     42 213.4  -5.2  33230  274.01 0865.08
2015 04 09 07 24 06 .29     -25    -30      0     40     41 219.6  -1.3  33232  274.06 0865.08
2015 04 09 07 24 06 .54     -28    -35     -1     45     46 218.7  -2.2  33234  274.10 0865.08
2015 04 09 07 24 06 .80     -17    -34     -1     39     40 207.2  -2.2  33236  274.11 0865.08
2015 04 09 07 24 07 .05     -17    -34     -1     39     40 207.2  -2.2  33236  274.11 0865.08
2015 04 09 07 24 07 .30     -23    -34      1     42     43 214.3   1.8  33238  274.15 0865.08
2015 04 09 07 24 07 .55     -19    -30     -1     36     37 212.5  -2.2  33234  274.10 0865.08
2015 04 09 07 24 07 .80     -23    -34      1     42     43 214.3   1.8  33234  274.08 0865.08
2015 04 09 07 24 08 .05     -17    -34     -1     39     40 207.2  -2.2  33238  274.16 0865.08
2015 04 09 07 24 08 .30     -17    -36      0     40     41 205.5  -1.3  33230  274.01 0865.08
2015 04 09 07 24 08 .55     -18    -34      0     39     40 209.0  -1.3  33232  274.05 0865.08
2015 04 09 07 24 08 .80     -27    -34      2     44     45 218.7   3.8  33232  274.06 0865.08
2015 04 09 07 24 09 .06     -17    -36      6     40     41 205.5   9.0  33228  273.98 0865.08
2015 04 09 07 24 09 .31     -23    -34      1     42     43 214.3   1.8  33234  274.08 0865.08
2015 04 09 07 24 09 .56     -27    -34      2     44     45 218.7   3.8  33232  274.06 0865.08
2015 04 09 07 24 09 .81     -26    -33     -1     43     44 218.7  -2.2  33234  274.08 0865.08
2015 04 09 07 24 10 .06     -24    -38     -1     46     47 212.6  -2.2  33236  274.11 0865.08
2015 04 09 07 24 10 .31     -27    -34     -1     44     45 218.7  -2.2  33232  274.05 0865.08
2015 04 09 07 24 10 .57     -27    -34     -1     44     45 218.7  -2.2  33232  274.05 0865.08
2015 04 09 07 24 10 .82     -29    -37     -3     48     49 217.8  -4.1  33232  274.06 0865.08
2015 04 09 07 24 11 .06     -28    -35     -1     45     46 218.7  -2.2  33234  274.10 0865.08
2015 04 09 07 24 11 .32     -24    -38     -1     46     47 212.6  -2.2  33236  274.11 0865.08
2015 04 09 07 24 11 .57     -27    -34     -1     44     45 218.7  -2.2  33232  274.05 0865.08
2015 04 09 07 24 11 .82     -23    -35     -4     42     43 213.4  -6.2  33236  274.11 0865.08
2015 04 09 07 24 12 .07     -27    -34     -1     44     45 218.7  -2.2  33232  274.05 0865.08
2015 04 09 07 24 12 .32     -24    -38     -1     46     47 212.6  -2.2  33236  274.11 0865.08
2015 04 09 07 24 12 .57     -24    -37     -5     45     46 212.5  -7.3  33232  274.05 0865.08
2015 04 09 07 24 12 .82     -24    -37     -1     45     46 213.4  -2.2  33236  274.11 0865.08
2015 04 09 07 24 13 .07     -20    -35     -6     41     42 209.9  -8.2  33234  274.08 0865.07
2015 04 09 07 24 13 .32     -23    -34      1     42     43 214.3   1.8  33238  274.15 0865.07
2015 04 09 07 24 13 .57     -17    -34     -1     39     40 207.2  -2.2  33236  274.11 0865.07
2015 04 09 07 24 13 .82     -24    -37     -5     45     46 212.5  -7.3  33232  274.05 0865.07
2015 04 09 07 24 14 .07     -23    -35     -4     42     43 213.4  -6.2  33238  274.16 0865.08
2015 04 09 07 24 14 .32     -23    -41      1     48     49 209.9   1.8  33234  274.10 0865.08
2015 04 09 07 24 14 .57     -20    -37     -1     43     44 208.1  -2.2  33230  274.03 0865.08
2015 04 09 07 24 14 .83     -18    -43      7     47     48 203.6   9.0  33234  274.08 0865.08
2015 04 09 07 24 15 .07     -21    -38      2     44     45 209.0   3.8  33232  274.06 0865.08
2015 04 09 07 24 15 .33     -23    -41      1     48     49 209.9   1.8  33230  274.03 0865.08
2015 04 09 07 24 15 .58     -19    -46      3     50     51 202.7   3.8  33232  274.06 0865.08
2015 04 09 07 24 15 .83     -20    -35     -6     41     42 209.9  -8.2  33234  274.08 0865.08
2015 04 09 07 24 16 .09     -21    -38     -3     44     45 209.0  -4.1  33238  274.15 0865.08
2015 04 09 07 24 16 .34     -25    -30     -1     40     41 219.6  -2.2  33242  274.21 0865.08
2015 04 09 07 24 16 .59     -21    -38     -3     44     45 209.0  -4.1  33234  274.08 0865.08
2015 04 09 07 24 16 .84     -16    -38     -4     42     43 202.7  -6.2  33236  274.11 0865.07
2015 04 09 07 24 17 .09     -23    -41     -5     48     49 209.9  -6.2  33236  274.11 0865.07
2015 04 09 07 24 17 .34     -33    -44     -2     56     57 217.0  -2.2  33234  274.10 0865.07
2015 04 09 07 24 17 .59     -31    -49     -2     59     60 212.5  -2.2  33230  274.01 0865.07
2015 04 09 07 24 17 .84     -31    -41     -2     52     53 217.8  -2.2  33232  274.06 0865.07
2015 04 09 07 24 18 .09     -26    -41      2     49     50 212.5   2.9  33230  274.01 0865.07
2015 04 09 07 24 18 .34     -29    -37      0     48     49 217.8  -0.3  33236  274.13 0865.07
2015 04 09 07 24 18 .59     -27    -34      2     44     45 218.7   3.8  33232  274.06 0865.07
2015 04 09 07 24 18 .84     -24    -37      5     45     46 212.5   6.9  33230  274.03 0865.07
2015 04 09 07 24 19 .09     -17    -36      6     40     41 205.5   9.0  33228  273.98 0865.07
2015 04 09 07 24 19 .34     -24    -37      5     45     46 212.5   6.9  33224  273.93 0865.07
2015 04 09 07 24 19 .59     -22    -41      1     47     48 208.1   1.8  33228  273.98 0865.07
2015 04 09 07 24 19 .85     -20    -37      3     43     44 208.1   4.9  33230  274.01 0865.07
2015 04 09 07 24 20 .10     -17    -34     -1     39     40 207.2  -2.2  33232  274.06 0865.07
2015 04 09 07 24 20 .35     -17    -42      5     46     47 201.8   6.9  33228  274.00 0865.07
2015 04 09 07 24 20 .60     -17    -36      6     40     41 205.5   9.0  33228  273.98 0865.07
2015 04 09 07 24 20 .85     -20    -37      3     43     44 208.1   4.9  33226  273.97 0865.07
2015 04 09 07 24 21 .10     -20    -37      3     43     44 208.1   4.9  33226  273.97 0865.07
2015 04 09 07 24 21 .35     -14    -38      0     41     42 200.9   0.8  33224  273.93 0865.07
2015 04 09 07 24 21 .60     -14    -41      2     44     45 198.7   2.9  33224  273.92 0865.07
2015 04 09 07 24 21 .85     -14    -38      0     41     42 200.9   0.8  33224  273.93 0865.07
2015 04 09 07 24 22 .10     -14    -38      0     41     42 200.9   0.8  33224  273.93 0865.07
2015 04 09 07 24 22 .35     -25    -30      7     40     41 219.6  10.1  33222  273.88 0865.07
2015 04 09 07 24 22 .60     -25    -30      6     40     41 219.6   9.0  33224  273.93 0865.07
2015 04 09 07 24 22 .85     -25    -30      6     40     41 219.6   9.0  33228  273.98 0865.07
2015 04 09 07 24 23 .11     -19    -30      3     36     37 212.5   4.9  33220  273.87 0865.07
2015 04 09 07 24 23 .36     -19    -30      3     36     37 212.5   4.9  33220  273.87 0865.07
2015 04 09 07 24 23 .61     -19    -30      3     36     37 212.5   4.9  33220  273.87 0865.07
2015 04 09 07 24 23 .87     -22    -35      1     42     43 212.5   1.8  33222  273.88 0865.07
2015 04 09 07 24 24 .12     -25    -30      6     40     41 219.6   9.0  33224  273.93 0865.07
2015 04 09 07 24 24 .36     -22    -34      0     41     42 213.4   0.8  33230  274.03 0865.07
2015 04 09 07 24 24 .62     -26    -35      2     44     45 217.0   3.8  33224  273.92 0865.07
2015 04 09 07 24 24 .87     -20    -37      3     43     44 208.1   4.9  33226  273.97 0865.07
2015 04 09 07 24 25 .12     -26    -41      2     49     50 212.5   2.9  33226  273.97 0865.07
2015 04 09 07 24 25 .37     -24    -37      5     45     46 212.5   6.9  33224  273.93 0865.07
2015 04 09 07 24 25 .62     -24    -37      5     45     46 212.5   6.9  33224  273.93 0865.07
2015 04 09 07 24 25 .87     -22    -41      1     47     48 208.1   1.8  33228  273.98 0865.07
2015 04 09 07 24 26 .12     -22    -41      1     47     48 208.1   1.8  33228  273.98 0865.07
2015 04 09 07 24 26 .37     -22    -41      1     47     48 208.1   1.8  33228  273.98 0865.07
2015 04 09 07 24 26 .62     -26    -41      2     49     50 212.5   2.9  33230  274.01 0865.07
2015 04 09 07 24 26 .87     -20    -37      3     43     44 208.1   4.9  33226  273.97 0865.07
2015 04 09 07 24 27 .12     -25    -45      5     52     53 209.0   5.9  33222  273.88 0865.07
2015 04 09 07 24 27 .37     -26    -41      2     49     50 212.5   2.9  33230  274.01 0865.07
2015 04 09 07 24 27 .62     -22    -41      1     47     48 208.1   1.8  33228  273.98 0865.07
2015 04 09 07 24 27 .87     -24    -37      5     45     46 212.5   6.9  33224  273.93 0865.07
2015 04 09 07 24 28 .12     -20    -37      3     43     44 208.1   4.9  33226  273.97 0865.07
2015 04 09 07 24 28 .38     -17    -42      5     46     47 201.8   6.9  33230  274.03 0865.07
2015 04 09 07 24 28 .63     -21    -38      2     44     45 209.0   3.8  33236  274.11 0865.07
2015 04 09 07 24 28 .88     -20    -37      3     43     44 208.1   4.9  33226  273.97 0865.07
2015 04 09 07 24 29 .13     -22    -41      1     47     48 208.1   1.8  33228  273.98 0865.07
2015 04 09 07 24 29 .38     -20    -37      3     43     44 208.1   4.9  33226  273.97 0865.07
2015 04 09 07 24 29 .63     -25    -39     -1     47     48 212.6  -1.3  33238  274.16 0865.07
2015 04 09 07 24 29 .89     -23    -34      1     42     43 214.3   1.8  33234  274.08 0865.07
2015 04 09 07 24 30 .14     -24    -37      5     45     46 212.5   6.9  33228  274.00 0865.07
2015 04 09 07 24 30 .39     -17    -36      6     40     41 205.5   9.0  33228  273.98 0865.07
2015 04 09 07 24 30 .64     -23    -34      1     42     43 214.3   1.8  33234  274.08 0865.07
2015 04 09 07 24 30 .89     -27    -34      2     44     45 218.7   3.8  33232  274.06 0865.07
2015 04 09 07 24 31 .14     -21    -38      2     44     45 209.0   3.8  33236  274.11 0865.07
2015 04 09 07 24 31 .39     -23    -34      1     42     43 214.3   1.8  33234  274.08 0865.07
2015 04 09 07 24 31 .65     -29    -30      0     43     44 224.1   0.8  33232  274.05 0865.07
2015 04 09 07 24 31 .90     -22    -34      0     41     42 213.4   0.8  33230  274.03 0865.07
2015 04 09 07 24 32 .14     -20    -37     -1     43     44 208.1  -2.2  33234  274.10 0865.08
2015 04 09 07 24 32 .39     -23    -34      1     42     43 214.3   1.8  33234  274.08 0865.08
2015 04 09 07 24 32 .65     -24    -38     -1     46     47 212.6  -2.2  33236  274.11 0865.08
2015 04 09 07 24 32 .90     -21    -38     -3     44     45 209.0  -4.1  33238  274.15 0865.08
2015 04 09 07 24 33 .15     -17    -34     -1     39     40 207.2  -2.2  33236  274.11 0865.08
2015 04 09 07 24 33 .40     -21    -38     -3     44     45 209.0  -4.1  33238  274.15 0865.08
2015 04 09 07 24 33 .65     -23    -35     -4     42     43 213.4  -6.2  33238  274.16 0865.08
2015 04 09 07 24 33 .90     -23    -35     -4     42     43 213.4  -6.2  33232  274.06 0865.08
2015 04 09 07 24 34 .15     -22    -34     -3     41     42 213.4  -5.2  33230  274.01 0865.08
2015 04 09 07 24 34 .40     -21    -38     -3     44     45 209.0  -4.1  33238  274.15 0865.08
2015 04 09 07 24 34 .65     -21    -38     -3     44     45 209.0  -4.1  33234  274.08 0865.08
2015 04 09 07 24 34 .90     -27    -34     -1     44     45 218.7  -2.2  33232  274.05 0865.08
2015 04 09 07 24 35 .15     -24    -38     -1     46     47 212.6  -2.2  33236  274.11 0865.08
2015 04 09 07 24 35 .40     -28    -35     -1     45     46 218.7  -2.2  33236  274.13 0865.08
2015 04 09 07 24 35 .65     -29    -37      0     48     49 217.8  -0.3  33236  274.13 0865.08
2015 04 09 07 24 35 .90     -28    -38     -5     48     49 217.0  -6.2  33242  274.21 0865.08
2015 04 09 07 24 36 .16     -24    -38     -1     46     47 212.6  -2.2  33236  274.11 0865.08
2015 04 09 07 24 36 .41     -23    -34      1     42     43 214.3   1.8  33234  274.08 0865.08
2015 04 09 07 24 36 .65     -21    -38     -3     44     45 209.0  -4.1  33238  274.15 0865.08
2015 04 09 07 24 36 .91     -24    -38     -1     46     47 212.6  -2.2  33236  274.11 0865.08
2015 04 09 07 24 37 .17     -19    -30     -1     36     37 212.5  -2.2  33240  274.20 0865.08
2015 04 09 07 24 37 .42     -21    -38     -3     44     45 209.0  -4.1  33238  274.15 0865.08
2015 04 09 07 24 37 .66     -23    -34      1     42     43 214.3   1.8  33234  274.08 0865.08
2015 04 09 07 24 37 .92     -23    -34      1     42     43 214.3   1.8  33234  274.08 0865.08
2015 04 09 07 24 38 .17     -28    -35     -1     45     46 218.7  -2.2  33236  274.13 0865.08
2015 04 09 07 24 38 .42     -23    -34      1     42     43 214.3   1.8  33234  274.08 0865.08
2015 04 09 07 24 38 .67     -21    -38     -3     44     45 209.0  -4.1  33238  274.15 0865.08
2015 04 09 07 24 38 .92     -17    -34     -1     39     40 207.2  -2.2  33238  274.16 0865.08
2015 04 09 07 24 39 .17     -20    -37     -1     43     44 208.1  -2.2  33234  274.10 0865.08
2015 04 09 07 24 39 .42     -19    -30     -1     36     37 212.5  -2.2  33240  274.20 0865.07
2015 04 09 07 24 39 .67     -17    -36      0     40     41 205.5  -1.3  33242  274.21 0865.07
2015 04 09 07 24 39 .92     -23    -35     -4     42     43 213.4  -6.2  33238  274.16 0865.07
2015 04 09 07 24 40 .17     -21    -38     -3     44     45 209.0  -4.1  33238  274.15 0865.07
2015 04 09 07 24 40 .42     -23    -35     -4     42     43 213.4  -6.2  33232  274.06 0865.07
2015 04 09 07 24 40 .67     -23    -34      1     42     43 214.3   1.8  33234  274.08 0865.07
2015 04 09 07 24 40 .92     -29    -37     -3     48     49 217.8  -4.1  33232  274.06 0865.07
2015 04 09 07 24 41 .17     -21    -38     -3     44     45 209.0  -4.1  33238  274.15 0865.08
2015 04 09 07 24 41 .42     -21    -38     -3     44     45 209.0  -4.1  33238  274.15 0865.08
2015 04 09 07 24 41 .68     -21    -38     -3     44     45 209.0  -4.1  33238  274.15 0865.08
2015 04 09 07 24 41 .93     -24    -37     -1     45     46 212.5  -1.3  33244  274.26 0865.08
2015 04 09 07 24 42 .18     -26    -42      2     50     51 212.5   2.9  33238  274.16 0865.08
2015 04 09 07 24 42 .43     -30    -39      1     50     51 217.8   1.8  33240  274.18 0865.08
2015 04 09 07 24 42 .68     -28    -37      8     47     48 217.0  10.1  33236  274.11 0865.08
2015 04 09 07 24 42 .93     -23    -46      5     52     53 207.2   5.9  33234  274.10 0865.07
2015 04 09 07 24 43 .18     -21    -38      2     44     45 209.0   3.8  33236  274.11 0865.07
2015 04 09 07 24 43 .43     -23    -34      1     42     43 214.3   1.8  33234  274.08 0865.07
2015 04 09 07 24 43 .68     -19    -34      6     40     41 209.0   9.0  33230  274.03 0865.07
2015 04 09 07 24 43 .94     -22    -34      0     41     42 213.4   0.8  33230  274.03 0865.07
2015 04 09 07 24 44 .19     -27    -34      2     44     45 218.7   3.8  33232  274.06 0865.07
2015 04 09 07 24 44 .44     -20    -29      3     36     37 214.3   4.9  33236  274.11 0865.07
2015 04 09 07 24 44 .69     -20    -29      3     36     37 214.3   4.9  33236  274.11 0865.07
2015 04 09 07 24 44 .95     -23    -34      1     42     43 214.3   1.8  33234  274.08 0865.07
2015 04 09 07 24 45 .19     -17    -30      1     35     36 210.7   2.9  33240  274.18 0865.07
2015 04 09 07 24 45 .44     -17    -36      0     40     41 205.5  -1.3  33242  274.21 0865.07
2015 04 09 07 24 45 .69     -22    -35      1     42     43 212.5   1.8  33244  274.25 0865.07
2015 04 09 07 24 45 .94     -21    -38      2     44     45 209.0   3.8  33236  274.11 0865.07
2015 04 09 07 24 46 .20     -23    -41      1     48     49 209.0   1.8  33238  274.15 0865.07
2015 04 09 07 24 46 .45     -23    -34      1     42     43 214.3   1.8  33234  274.08 0865.07
2015 04 09 07 24 46 .70     -24    -37     -1     45     46 213.4  -2.2  33230  274.01 0865.07
2015 04 09 07 24 46 .95     -18    -45      2     49     50 201.8   2.9  33230  274.01 0865.07
2015 04 09 07 24 47 .20     -15    -45      1     48     49 198.3   1.8  33230  274.03 0865.07
2015 04 09 07 24 47 .45     -17    -42      5     46     47 201.8   6.9  33230  274.03 0865.08
2015 04 09 07 24 47 .70     -27    -34      2     44     45 218.7   3.8  33232  274.06 0865.08
2015 04 09 07 24 47 .95     -27    -34      2     44     45 218.7   3.8  33232  274.06 0865.08
2015 04 09 07 24 48 .20     -20    -37      3     43     44 208.1   4.9  33232  274.06 0865.08
2015 04 09 07 24 48 .45     -20    -37      3     43     44 208.1   4.9  33232  274.06 0865.08
2015 04 09 07 24 48 .70     -23    -41      1     48     49 209.0   1.8  33238  274.15 0865.08
2015 04 09 07 24 48 .95     -24    -38     -1     46     47 212.6  -2.2  33236  274.11 0865.08
2015 04 09 07 24 49 .20     -27    -34      2     44     45 218.7   3.8  33232  274.06 0865.08
2015 04 09 07 24 49 .45     -23    -34      1     42     43 214.3   1.8  33234  274.08 0865.08
2015 04 09 07 24 49 .70     -24    -38     -1     46     47 212.6  -2.2  33236  274.11 0865.08
2015 04 09 07 24 49 .96     -23    -34      1     42     43 214.3   1.8  33234  274.08 0865.08
2015 04 09 07 24 50 .21     -23    -35     -4     42     43 213.4  -6.2  33238  274.16 0865.08
2015 04 09 07 24 50 .46     -24    -36      0     44     45 214.3  -0.3  33234  274.10 0865.08
2015 04 09 07 24 50 .72     -17    -34     -1     39     40 207.2  -2.2  33238  274.16 0865.08
2015 04 09 07 24 50 .97     -24    -38     -1     46     47 212.6  -2.2  33236  274.11 0865.08
2015 04 09 07 24 51 .22     -23    -34      1     42     43 214.3   1.8  33234  274.08 0865.08
2015 04 09 07 24 51 .47     -17    -36      0     40     41 205.5  -1.3  33242  274.21 0865.08
2015 04 09 07 24 51 .72     -17    -34     -1     39     40 207.2  -2.2  33238  274.16 0865.08
2015 04 09 07 24 51 .97     -25    -39     -1     47     48 212.6  -1.3  33238  274.16 0865.08
2015 04 09 07 24 52 .22     -24    -38     -1     46     47 212.6  -2.2  33236  274.11 0865.08
2015 04 09 07 24 52 .47     -24    -37     -1     45     46 212.5  -2.2  33238  274.16 0865.08
2015 04 09 07 24 52 .72     -21    -38     -3     44     45 209.0  -4.1  33238  274.15 0865.08
2015 04 09 07 24 52 .98     -21    -38     -3     44     45 209.0  -4.1  33238  274.15 0865.08
2015 04 09 07 24 53 .22     -21    -38     -3     44     45 209.0  -4.1  33238  274.15 0865.08
2015 04 09 07 24 53 .47     -20    -34      0     40     41 210.7  -1.3  33234  274.10 0865.08
2015 04 09 07 24 53 .72     -23    -34      1     42     43 214.3   1.8  33234  274.08 0865.08
2015 04 09 07 24 53 .97     -28    -35     -1     45     46 218.7  -2.2  33236  274.13 0865.08
2015 04 09 07 24 54 .23     -16    -38      1     42     43 202.7   1.8  33238  274.15 0865.08
2015 04 09 07 24 54 .48     -19    -30     -1     36     37 212.5  -2.2  33240  274.20 0865.08
2015 04 09 07 24 54 .73     -19    -30     -1     36     37 212.5  -2.2  33240  274.20 0865.08
2015 04 09 07 24 54 .98     -19    -30     -1     36     37 212.5  -2.2  33246  274.30 0865.08
2015 04 09 07 24 55 .23     -19    -30     -1     36     37 212.5  -2.2  33240  274.20 0865.08
2015 04 09 07 24 55 .48     -25    -30     -1     40     41 219.6  -2.2  33242  274.21 0865.07
2015 04 09 07 24 55 .73     -19    -30     -1     36     37 212.5  -2.2  33240  274.20 0865.07
2015 04 09 07 24 55 .98     -17    -34     -1     39     40 207.2  -2.2  33238  274.16 0865.07
2015 04 09 07 24 56 .23     -19    -30     -1     36     37 212.5  -2.2  33240  274.20 0865.07
2015 04 09 07 24 56 .48     -17    -36      0     40     41 205.5  -1.3  33242  274.21 0865.07
2015 04 09 07 24 56 .73     -26    -34     -1     43     44 217.8  -2.2  33242  274.23 0865.07
2015 04 09 07 24 56 .98     -24    -35     -3     43     44 214.3  -4.1  33238  274.15 0865.07
2015 04 09 07 24 57 .23     -23    -34      1     42     43 214.3   1.8  33238  274.15 0865.07
2015 04 09 07 24 57 .48     -19    -39     -1     44     45 206.3  -2.2  33240  274.20 0865.08
2015 04 09 07 24 57 .74     -24    -38     -1     46     47 212.6  -2.2  33236  274.11 0865.08
2015 04 09 07 24 57 .99     -24    -38     -1     46     47 212.6  -2.2  33236  274.11 0865.08
2015 04 09 07 24 58 .24     -24    -38     -1     46     47 212.6  -2.2  33236  274.11 0865.08
2015 04 09 07 24 58 .49     -24    -38     -1     46     47 212.6  -2.2  33236  274.11 0865.08
2015 04 09 07 24 58 .75     -22    -34      0     41     42 213.4   0.8  33240  274.20 0865.08
2015 04 09 07 24 59 .00     -22    -35      1     42     43 212.5   1.8  33244  274.25 0865.08
2015 04 09 07 24 59 .25     -25    -30     -1     40     41 219.6  -2.2  33242  274.21 0865.08
2015 04 09 07 24 59 .50     -28    -31      9     42     43 222.3  12.2  33248  274.31 0865.08
2015 04 09 07 24 59 .75     -25    -30      6     40     41 219.6   9.0  33250  274.34 0865.08
2015 04 09 07 25 00 .00     -25    -30     -1     40     41 219.6  -2.2  33242  274.21 0865.08
2015 04 09 07 25 00 .25     -19    -30      3     36     37 212.6   4.9  33238  274.16 0865.08
2015 04 09 07 25 00 .50     -25    -30     -1     40     41 219.6  -2.2  33238  274.16 0865.08
2015 04 09 07 25 00 .75     -24    -38     -1     46     47 212.6  -2.2  33236  274.11 0865.08
2015 04 09 07 25 01 .00     -24    -38     -1     46     47 212.6  -2.2  33236  274.11 0865.07
2015 04 09 07 25 01 .25     -23    -35     -4     42     43 213.4  -6.2  33236  274.11 0865.07
2015 04 09 07 25 01 .51     -19    -30     -1     36     37 212.5  -2.2  33242  274.23 0865.07
2015 04 09 07 25 01 .75     -25    -30     -1     40     41 219.6  -2.2  33242  274.21 0865.07
2015 04 09 07 25 02 .01     -25    -30      0     40     41 219.6  -1.3  33238  274.16 0865.07
2015 04 09 07 25 02 .25     -19    -30     -1     36     37 212.5  -2.2  33240  274.20 0865.07
2015 04 09 07 25 02 .51     -28    -31     -4     42     43 222.3  -6.2  33238  274.16 0865.07
2015 04 09 07 25 02 .75     -22    -35      1     42     43 212.5   1.8  33244  274.25 0865.07
2015 04 09 07 25 03 .00     -19    -30     -1     36     37 212.5  -2.2  33240  274.20 0865.07
2015 04 09 07 25 03 .25     -23    -35     -4     42     43 213.4  -6.2  33238  274.16 0865.07
2015 04 09 07 25 03 .50     -19    -30     -1     36     37 212.5  -2.2  33240  274.20 0865.07
2015 04 09 07 25 03 .75     -19    -30     -1     36     37 212.5  -2.2  33240  274.20 0865.07
2015 04 09 07 25 04 .01     -24    -38     -1     46     47 212.6  -2.2  33236  274.11 0865.07
2015 04 09 07 25 04 .26     -25    -30      0     40     41 219.6  -1.3  33236  274.11 0865.07
2015 04 09 07 25 04 .51     -25    -30     -1     40     41 219.6  -2.2  33242  274.21 0865.08
2015 04 09 07 25 04 .77     -23    -35     -4     42     43 213.4  -6.2  33238  274.16 0865.08
2015 04 09 07 25 05 .02     -25    -30     -1     40     41 219.6  -2.2  33242  274.21 0865.08
2015 04 09 07 25 05 .27     -23    -35     -4     42     43 213.4  -6.2  33242  274.21 0865.08
2015 04 09 07 25 05 .52     -24    -37     -1     45     46 212.5  -1.3  33244  274.26 0865.08
2015 04 09 07 25 05 .77     -21    -38     -3     44     45 209.0  -4.1  33238  274.15 0865.08
2015 04 09 07 25 06 .02     -19    -34     -7     40     41 209.0 -10.3  33240  274.18 0865.08
2015 04 09 07 25 06 .27     -23    -35     -4     42     43 213.4  -6.2  33238  274.16 0865.08
2015 04 09 07 25 06 .52     -24    -35      2     43     44 214.3   2.9  33242  274.23 0865.08
2015 04 09 07 25 06 .77     -23    -34      1     42     43 214.3   1.8  33234  274.08 0865.08
2015 04 09 07 25 07 .02     -28    -35     -1     45     46 218.7  -2.2  33236  274.13 0865.08
2015 04 09 07 25 07 .28     -27    -34      2     44     45 218.7   3.8  33232  274.06 0865.08
2015 04 09 07 25 07 .52     -23    -34      1     42     43 214.3   1.8  33234  274.08 0865.08
2015 04 09 07 25 07 .77     -25    -30      0     40     41 219.6  -1.3  33236  274.11 0865.08
2015 04 09 07 25 08 .03     -23    -35      1     42     43 213.4   1.8  33240  274.20 0865.08
2015 04 09 07 25 08 .28     -21    -38     -3     44     45 209.0  -4.1  33238  274.15 0865.08
2015 04 09 07 25 08 .53     -17    -25      0     31     32 214.3  -1.3  33238  274.16 0865.08
2015 04 09 07 25 08 .78     -19    -30     -1     36     37 212.5  -2.2  33240  274.20 0865.08
2015 04 09 07 25 09 .03     -23    -35     -4     42     43 213.4  -6.2  33238  274.16 0865.08
2015 04 09 07 25 09 .28     -25    -25     -3     36     37 225.0  -5.2  33244  274.25 0865.08
2015 04 09 07 25 09 .53     -23    -34      1     42     43 214.3   1.8  33252  274.38 0865.08
2015 04 09 07 25 09 .78     -28    -35     -1     45     46 218.7  -2.2  33252  274.39 0865.08
2015 04 09 07 25 10 .03     -25    -25      3     36     37 225.0   4.9  33260  274.51 0865.08
2015 04 09 07 25 10 .28     -25    -25      3     36     37 225.0   4.9  33256  274.46 0865.08
2015 04 09 07 25 10 .53     -23    -23     11     33     35 225.0  18.9  33256  274.46 0865.08
2015 04 09 07 25 10 .78     -19    -38     11     43     45 206.3  14.3  33250  274.34 0865.08
2015 04 09 07 25 11 .03     -22    -34      8     41     42 213.4  12.2  33248  274.31 0865.08
2015 04 09 07 25 11 .28     -17    -33     12     38     41 207.2  18.4  33244  274.26 0865.08
2015 04 09 07 25 11 .53     -22    -34      8     41     42 213.4  12.2  33248  274.31 0865.08
2015 04 09 07 25 11 .79     -17    -36      6     40     41 205.5   9.0  33246  274.28 0865.08
2015 04 09 07 25 12 .05     -21    -26      1     34     35 219.7   2.8  33246  274.30 0865.08
2015 04 09 07 25 12 .29     -20    -35      7     41     42 209.9  10.1  33246  274.28 0865.08
2015 04 09 07 25 12 .55     -15    -29      9     33     35 207.2  15.3  33242  274.21 0865.08
2015 04 09 07 25 12 .80     -17    -36      6     40     41 205.5   9.0  33250  274.34 0865.07
2015 04 09 07 25 13 .05     -19    -37     10     42     44 208.1  13.2  33258  274.48 0865.07
2015 04 09 07 25 13 .30     -22    -33      7     40     41 213.4  11.1  33260  274.51 0865.07
2015 04 09 07 25 13 .55     -18    -28     12     34     37 212.5  19.4  33260  274.53 0865.07
2015 04 09 07 25 13 .80     -15    -31     16     35     38 207.2  25.1  33260  274.53 0865.07
2015 04 09 07 25 14 .05     -17    -27     13     33     35 212.6  21.0  33256  274.46 0865.07
2015 04 09 07 25 14 .30     -18    -26     14     32     34 214.3  27.1  33262  274.56 0865.07
2015 04 09 07 25 14 .55     -19    -23     10     30     32 219.7  18.9  33260  274.53 0865.08
2015 04 09 07 25 14 .80     -16    -23     16     29     33 214.3  31.4  33260  274.53 0865.08
2015 04 09 07 25 15 .05     -16    -39     16     43     45 202.7  20.0  33260  274.53 0865.08
2015 04 09 07 25 15 .30     -20    -30     18     37     41 214.3  27.2  33262  274.56 0865.08
2015 04 09 07 25 15 .55     -22    -33     13     40     43 213.4  18.9  33258  274.48 0865.08
2015 04 09 07 25 15 .80     -23    -26     16     35     38 221.4  25.1  33258  274.49 0865.08
2015 04 09 07 25 16 .05     -18    -28     12     34     37 212.5  19.4  33260  274.53 0865.08
2015 04 09 07 25 16 .31     -12    -35      4     38     39 200.0   5.9  33250  274.36 0865.08
2015 04 09 07 25 16 .55     -17    -36      0     40     41 205.5  -1.3  33242  274.21 0865.08
2015 04 09 07 25 16 .81     -19    -30     -1     36     37 212.5  -2.2  33240  274.20 0865.08
2015 04 09 07 25 17 .06     -23    -24     -4     34     35 223.2  -7.3  33242  274.21 0865.08
2015 04 09 07 25 17 .32     -25    -30     -5     40     41 219.6  -7.3  33248  274.33 0865.08
2015 04 09 07 25 17 .56     -29    -30      0     43     44 224.1   0.8  33262  274.54 0865.08
2015 04 09 07 25 17 .81     -21    -26      1     34     35 219.7   2.8  33264  274.59 0865.08
2015 04 09 07 25 18 .06     -28    -20      3     35     36 234.0   4.9  33260  274.51 0865.08
2015 04 09 07 25 18 .31     -23    -24      9     34     36 223.2  15.3  33254  274.41 0865.08
2015 04 09 07 25 18 .57     -22    -23     11     33     35 223.4  18.9  33254  274.41 0865.08
2015 04 09 07 25 18 .82     -25    -20      4     33     34 230.5   6.9  33254  274.41 0865.08
2015 04 09 07 25 19 .07     -22    -23      6     33     34 223.4  11.1  33254  274.43 0865.08
2015 04 09 07 25 19 .32     -17    -30      1     35     36 210.7   2.9  33258  274.48 0865.08
2015 04 09 07 25 19 .57     -17    -26      7     32     33 212.6  13.2  33256  274.44 0865.08
2015 04 09 07 25 19 .83     -15    -23      7     28     30 214.3  15.3  33250  274.36 0865.08
2015 04 09 07 25 20 .08     -24    -37      5     45     46 212.5   6.9  33258  274.49 0865.08
2015 04 09 07 25 20 .32     -25    -30      7     40     41 219.6  10.1  33258  274.48 0865.08
2015 04 09 07 25 20 .57     -21    -25      9     33     35 219.7  15.3  33256  274.46 0865.08
2015 04 09 07 25 20 .82     -18    -28     12     34     37 212.5  19.4  33256  274.44 0865.08
2015 04 09 07 25 21 .08     -18    -26     14     32     34 214.3  27.1  33262  274.56 0865.08
2015 04 09 07 25 21 .32     -21    -25      9     33     35 219.7  15.3  33260  274.51 0865.08
2015 04 09 07 25 21 .58     -18    -28     12     34     37 212.5  19.4  33260  274.53 0865.08
2015 04 09 07 25 21 .83     -20    -24      7     32     33 219.6  13.2  33264  274.58 0865.08
2015 04 09 07 25 22 .08     -17    -29     10     34     36 210.7  17.3  33262  274.54 0865.08
2015 04 09 07 25 22 .33     -15    -29      9     33     35 207.2  15.3  33262  274.56 0865.08
2015 04 09 07 25 22 .58     -12    -25      9     28     30 205.4  18.9  33264  274.58 0865.08
2015 04 09 07 25 22 .83     -14    -21      9     26     28 212.6  19.4  33262  274.56 0865.08
2015 04 09 07 25 23 .08     -21    -21     12     30     32 225.0  23.0  33270  274.67 0865.08
2015 04 09 07 25 23 .33     -22    -26     15     35     38 219.7  23.0  33274  274.74 0865.08
2015 04 09 07 25 23 .58     -17    -27     13     33     35 212.6  21.0  33272  274.71 0865.08
2015 04 09 07 25 23 .83     -17    -27     13     33     35 212.6  21.0  33272  274.71 0865.08
2015 04 09 07 25 24 .08     -16    -23     16     29     33 214.3  31.4  33266  274.63 0865.08
2015 04 09 07 25 24 .33     -18    -26     14     32     34 214.3  27.1  33266  274.61 0865.08
2015 04 09 07 25 24 .58     -12    -25      9     28     30 205.4  18.9  33264  274.58 0865.08
2015 04 09 07 25 24 .83     -11    -23     14     26     29 207.2  31.4  33254  274.41 0865.08
2015 04 09 07 25 25 .09     -17    -27     13     33     35 212.6  21.0  33250  274.36 0865.08
2015 04 09 07 25 25 .33     -23    -36     16     43     45 212.5  20.0  33252  274.39 0865.08
2015 04 09 07 25 25 .60     -22    -26     15     35     38 219.7  23.0  33256  274.44 0865.08
2015 04 09 07 25 25 .84     -23    -24     20     34     39 223.4  33.5  33252  274.38 0865.08
2015 04 09 07 25 26 .10     -15    -31     16     35     38 207.2  25.1  33252  274.39 0865.09
2015 04 09 07 25 26 .35     -19    -31     17     37     40 212.5  26.2  33254  274.41 0865.09
2015 04 09 07 25 26 .60     -23    -36     16     43     45 212.5  20.0  33252  274.39 0865.09
2015 04 09 07 25 26 .85     -24    -30     13     39     42 219.6  19.4  33254  274.41 0865.09
2015 04 09 07 25 27 .10     -22    -26     22     35     41 219.7  35.5  33244  274.26 0865.09
2015 04 09 07 25 27 .35     -24    -35     16     43     45 214.3  20.0  33242  274.23 0865.09
2015 04 09 07 25 27 .60     -24    -30     13     39     42 219.6  19.2  33248  274.31 0865.09
2015 04 09 07 25 27 .85     -18    -28     12     34     37 212.5  19.4  33258  274.48 0865.09
2015 04 09 07 25 28 .10     -19    -41      5     46     47 205.4   6.9  33254  274.43 0865.09
2015 04 09 07 25 28 .35     -22    -33      7     40     41 213.4  11.1  33260  274.51 0865.09
2015 04 09 07 25 28 .60     -18    -28     12     34     37 212.5  19.4  33258  274.48 0865.09
2015 04 09 07 25 28 .85     -24    -30     13     39     42 219.6  19.2  33262  274.56 0865.09
2015 04 09 07 25 29 .10     -19    -23     10     30     32 219.7  18.9  33260  274.53 0865.09
2015 04 09 07 25 29 .35     -14    -26      5     30     31 209.0  11.0  33250  274.34 0865.09
2015 04 09 07 25 29 .60     -17    -25      0     31     32 214.3  -1.3  33238  274.16 0865.09
2015 04 09 07 25 29 .86     -15    -30      1     34     35 207.2   2.9  33238  274.15 0865.09
2015 04 09 07 25 30 .11     -17    -36      0     40     41 205.5  -1.3  33242  274.21 0865.09
2015 04 09 07 25 30 .36     -18    -25      0     32     33 216.1  -1.3  33240  274.20 0865.09
2015 04 09 07 25 30 .61     -15    -30     -4     34     35 207.2  -7.2  33242  274.21 0865.09
2015 04 09 07 25 30 .86     -14    -26     -1     30     31 209.0  -2.2  33246  274.30 0865.09
2015 04 09 07 25 31 .11     -19    -30     -1     36     37 212.5  -2.2  33240  274.20 0865.09
2015 04 09 07 25 31 .36     -19    -30     -1     36     37 212.5  -2.2  33234  274.10 0865.09
2015 04 09 07 25 31 .61     -15    -30     -4     34     35 207.2  -7.2  33242  274.21 0865.09
2015 04 09 07 25 31 .86     -19    -30     -1     36     37 212.5  -2.2  33252  274.38 0865.09
2015 04 09 07 25 32 .11     -19    -23     -1     30     31 219.6  -3.1  33268  274.64 0865.09
2015 04 09 07 25 32 .37     -20    -20     -1     29     30 225.0  -2.2  33270  274.67 0865.09
2015 04 09 07 25 32 .62     -16    -26      6     31     32 212.5  11.1  33278  274.82 0865.09
2015 04 09 07 25 32 .87     -16    -26      6     31     32 212.5  11.1  33274  274.74 0865.09
2015 04 09 07 25 33 .12     -15    -29      9     33     35 207.2  15.3  33256  274.46 0865.09
2015 04 09 07 25 33 .37     -24    -29     -6     38     39 219.6 -10.3  33244  274.25 0865.09
2015 04 09 07 25 33 .63     -18    -25     -7     32     33 216.1 -13.4  33246  274.28 0865.09
2015 04 09 07 25 33 .87     -15    -30     -4     34     35 207.2  -7.3  33254  274.41 0865.09
2015 04 09 07 25 34 .13     -17    -30     -4     35     36 210.7  -7.2  33250  274.34 0865.09
2015 04 09 07 25 34 .38     -28    -28     -3     41     42 225.0  -5.2  33262  274.56 0865.09
2015 04 09 07 25 34 .63     -21    -26      1     34     35 219.7   2.8  33264  274.59 0865.09
2015 04 09 07 25 34 .88     -16    -26     -1     31     32 212.5  -2.2  33266  274.61 0865.09
2015 04 09 07 25 35 .13     -19    -23      4     30     31 219.7   9.0  33270  274.67 0865.09
2015 04 09 07 25 35 .38     -17    -18      6     25     26 223.2  15.3  33268  274.64 0865.09
2015 04 09 07 25 35 .63     -21    -25      9     33     35 219.7  15.3  33262  274.56 0865.09
2015 04 09 07 25 35 .88     -21    -25      9     33     35 219.7  15.3  33262  274.56 0865.09
2015 04 09 07 25 36 .13     -12    -20     11     24     26 212.5  25.1  33264  274.58 0865.09
2015 04 09 07 25 36 .38     -19    -19     14     27     30 225.0  29.3  33260  274.51 0865.09
2015 04 09 07 25 36 .63     -19    -23     10     30     32 219.7  19.2  33258  274.48 0865.09
2015 04 09 07 25 36 .88     -23    -24     14     34     36 223.4  23.0  33262  274.56 0865.09
2015 04 09 07 25 37 .13     -26    -26     11     37     39 225.0  17.3  33260  274.53 0865.09
2015 04 09 07 25 37 .38     -19    -23     10     30     32 219.7  18.9  33260  274.53 0865.09
2015 04 09 07 25 37 .63     -21    -25      9     33     35 219.7  15.3  33260  274.51 0865.09
2015 04 09 07 25 37 .89     -23    -24      9     34     36 223.2  15.3  33262  274.56 0865.09
2015 04 09 07 25 38 .13     -26    -26     11     37     39 225.0  17.3  33260  274.53 0865.09
2015 04 09 07 25 38 .38     -19    -23     10     30     32 219.7  18.9  33260  274.53 0865.09
2015 04 09 07 25 38 .64     -19    -23     10     30     32 219.7  19.2  33256  274.44 0865.09
2015 04 09 07 25 38 .88     -18    -25      6     32     33 216.1  11.1  33252  274.39 0865.09
2015 04 09 07 25 39 .14     -22    -33      7     40     41 213.4  11.1  33256  274.46 0865.09
2015 04 09 07 25 39 .40     -28    -31      9     42     43 222.3  12.2  33256  274.46 0865.09
2015 04 09 07 25 39 .65     -31    -33     14     46     49 223.2  17.3  33254  274.41 0865.09
2015 04 09 07 25 39 .90     -16    -35      5     39     40 205.5   8.0  33252  274.39 0865.09
2015 04 09 07 25 40 .15     -21    -26      1     34     35 219.7   2.8  33246  274.30 0865.09
2015 04 09 07 25 40 .40     -17    -26     -1     32     33 212.6  -2.2  33248  274.31 0865.09
2015 04 09 07 25 40 .65     -25    -25     -3     36     37 225.0  -5.2  33244  274.25 0865.09
2015 04 09 07 25 40 .90     -17    -26     -1     32     33 212.6  -2.2  33244  274.26 0865.09
2015 04 09 07 25 41 .15     -15    -30     -4     34     35 207.2  -7.3  33248  274.31 0865.09
2015 04 09 07 25 41 .40     -23    -24     -4     34     35 223.2  -7.3  33244  274.26 0865.08
2015 04 09 07 25 41 .65     -19    -30     -1     36     37 212.5  -2.2  33240  274.20 0865.08
2015 04 09 07 25 41 .90     -25    -30     -1     40     41 219.6  -2.2  33244  274.26 0865.08
2015 04 09 07 25 42 .15     -21    -26      1     34     35 219.7   2.8  33242  274.23 0865.08
2015 04 09 07 25 42 .40     -19    -26     -1     33     34 216.1  -3.2  33248  274.31 0865.08
2015 04 09 07 25 42 .66     -25    -30     -1     40     41 219.6  -2.2  33242  274.21 0865.08
2015 04 09 07 25 42 .90     -25    -30     -1     40     41 219.6  -2.2  33242  274.21 0865.08
2015 04 09 07 25 43 .15     -19    -30     -1     36     37 212.5  -2.2  33240  274.20 0865.08
2015 04 09 07 25 43 .41     -19    -30     -1     36     37 212.5  -2.2  33240  274.20 0865.08
2015 04 09 07 25 43 .66     -19    -30     -1     36     37 212.5  -2.2  33246  274.30 0865.08
2015 04 09 07 25 43 .91     -19    -30     -1     36     37 212.5  -2.2  33248  274.33 0865.08
2015 04 09 07 25 44 .16     -25    -25     -3     36     37 225.0  -5.2  33244  274.25 0865.08
2015 04 09 07 25 44 .41     -17    -26     -1     32     33 212.6  -2.2  33248  274.31 0865.08
2015 04 09 07 25 44 .66     -25    -30     -1     40     41 219.6  -2.2  33244  274.26 0865.08
2015 04 09 07 25 44 .91     -25    -30     -1     40     41 219.6  -2.2  33244  274.26 0865.08
2015 04 09 07 25 45 .16     -25    -25     -3     36     37 225.0  -5.2  33244  274.25 0865.08
2015 04 09 07 25 45 .41     -25    -30     -1     40     41 219.6  -2.2  33244  274.26 0865.08
2015 04 09 07 25 45 .66     -25    -25     -3     36     37 225.0  -5.2  33244  274.25 0865.08
2015 04 09 07 25 45 .91     -25    -26     -1     37     38 223.4  -2.2  33240  274.20 0865.08
2015 04 09 07 25 46 .17     -22    -34     -3     41     42 213.4  -5.2  33248  274.31 0865.08
2015 04 09 07 25 46 .42     -21    -22     -1     31     32 223.2  -3.1  33244  274.25 0865.08
2015 04 09 07 25 46 .67     -28    -35     -1     45     46 218.7  -2.2  33236  274.13 0865.08
2015 04 09 07 25 46 .92     -23    -35     -4     42     43 213.4  -6.2  33238  274.16 0865.09
2015 04 09 07 25 47 .18     -23    -35     -4     42     43 213.4  -6.2  33238  274.16 0865.09
2015 04 09 07 25 47 .42     -31    -31     -5     44     45 225.0  -7.2  33238  274.16 0865.09
2015 04 09 07 25 47 .68     -31    -31     -5     44     45 225.0  -7.2  33238  274.16 0865.09
2015 04 09 07 25 47 .93     -31    -31     -5     44     45 225.0  -7.2  33238  274.16 0865.09
2015 04 09 07 25 48 .18     -31    -31     -5     44     45 225.0  -7.2  33238  274.16 0865.09
2015 04 09 07 25 48 .43     -31    -31     -5     44     45 225.0  -7.2  33238  274.16 0865.09
2015 04 09 07 25 48 .68     -31    -31     -5     44     45 225.0  -7.2  33238  274.16 0865.09
2015 04 09 07 25 48 .93     -23    -35     -4     42     43 213.4  -6.2  33242  274.21 0865.09
2015 04 09 07 25 49 .18     -29    -30     -4     42     43 224.1  -6.2  33244  274.26 0865.09
2015 04 09 07 25 49 .43     -28    -35     -1     45     46 218.7  -2.2  33240  274.20 0865.09
2015 04 09 07 25 49 .68     -25    -30     -1     40     41 219.6  -2.2  33244  274.26 0865.09
2015 04 09 07 25 49 .93     -24    -29     -6     38     39 219.6 -10.3  33246  274.28 0865.09
2015 04 09 07 25 50 .18     -23    -35     -4     42     43 213.4  -6.2  33242  274.21 0865.09
2015 04 09 07 25 50 .43     -25    -30     -7     40     41 219.6 -10.3  33240  274.20 0865.09
2015 04 09 07 25 50 .68     -20    -29    -10     36     38 214.3 -15.4  33244  274.26 0865.09
2015 04 09 07 25 50 .93     -23    -24     -4     34     35 223.2  -7.3  33242  274.21 0865.09
2015 04 09 07 25 51 .19     -23    -24     -4     34     35 223.2  -7.3  33242  274.21 0865.09
2015 04 09 07 25 51 .44     -19    -30     -1     36     37 212.5  -2.2  33246  274.30 0865.08
2015 04 09 07 25 51 .68     -25    -30      0     40     41 219.6  -1.3  33250  274.36 0865.08
2015 04 09 07 25 51 .94     -19    -30     -1     36     37 212.5  -2.2  33248  274.33 0865.08
2015 04 09 07 25 52 .19     -21    -26     -4     34     35 219.7  -7.2  33250  274.36 0865.08
2015 04 09 07 25 52 .44     -25    -25     -3     36     37 225.0  -5.2  33244  274.25 0865.08
2015 04 09 07 25 52 .69     -17    -25     -6     31     32 214.3 -11.3  33240  274.20 0865.08
2015 04 09 07 25 52 .94     -17    -34     -5     39     40 207.2  -8.2  33246  274.30 0865.08
2015 04 09 07 25 53 .19     -23    -24     -4     34     35 223.2  -7.3  33244  274.26 0865.08
2015 04 09 07 25 53 .45     -19    -30     -1     36     37 212.5  -2.2  33248  274.33 0865.08
2015 04 09 07 25 53 .70     -19    -23     -1     30     31 219.7  -2.2  33256  274.44 0865.08
2015 04 09 07 25 53 .95     -17    -25      0     31     32 214.3  -1.3  33256  274.46 0865.08
2015 04 09 07 25 54 .20     -23    -19      1     30     31 230.4   2.9  33252  274.39 0865.08
2015 04 09 07 25 54 .45     -21    -22      3     31     32 223.2   6.9  33256  274.46 0865.08
2015 04 09 07 25 54 .71     -20    -17      4     27     28 230.5   9.0  33254  274.41 0865.08
2015 04 09 07 25 54 .96     -18    -18     -1     26     27 225.0  -2.2  33260  274.51 0865.08
2015 04 09 07 25 55 .20     -21    -19      1     29     30 226.9   2.8  33260  274.53 0865.08
2015 04 09 07 25 55 .45     -16    -26     -1     31     32 212.5  -2.2  33266  274.61 0865.08
2015 04 09 07 25 55 .71     -13    -18      4     23     24 216.1  11.1  33266  274.61 0865.08
2015 04 09 07 25 55 .96     -21    -19      1     29     30 226.9   2.8  33278  274.82 0865.08
2015 04 09 07 25 56 .20     -29    -24      0     38     39 230.5   0.8  33282  274.89 0865.08
2015 04 09 07 25 56 .46     -26    -26      4     38     39 225.0   5.9  33284  274.91 0865.08
2015 04 09 07 25 56 .71     -29    -30      0     43     44 224.1  -0.3  33286  274.94 0865.08
2015 04 09 07 25 56 .96     -25    -30     -1     40     41 219.6  -2.2  33274  274.76 0865.08
2015 04 09 07 25 57 .21     -28    -37      8     47     48 217.0  10.1  33254  274.41 0865.08
2015 04 09 07 25 57 .46     -26    -42      9     50     51 212.5  11.1  33252  274.38 0865.08
2015 04 09 07 25 57 .71     -25    -45      5     52     53 209.0   5.9  33256  274.44 0865.08
2015 04 09 07 25 57 .96     -26    -41      9     49     50 212.5  11.1  33254  274.43 0865.08
2015 04 09 07 25 58 .21     -28    -37      8     47     48 217.0  10.1  33254  274.41 0865.08
2015 04 09 07 25 58 .46     -21    -38      2     44     45 209.0   3.8  33254  274.41 0865.08
2015 04 09 07 25 58 .71     -29    -30      0     43     44 224.1   0.8  33250  274.34 0865.08
2015 04 09 07 25 58 .96     -32    -34     -1     47     48 223.2  -1.3  33248  274.31 0865.08
2015 04 09 07 25 59 .22     -31    -27      0     42     43 228.7  -1.3  33254  274.41 0865.08
2015 04 09 07 25 59 .46     -29    -30      0     43     44 224.1   0.8  33268  274.64 0865.08
2015 04 09 07 25 59 .71     -27    -34      2     44     45 218.7   3.8  33254  274.41 0865.08
2015 04 09 07 25 59 .96     -38    -27      1     47     48 234.0   1.8  33244  274.25 0865.08
2015 04 09 07 26 00 .22     -31    -26     -1     41     42 229.6  -2.2  33242  274.21 0865.08
2015 04 09 07 26 00 .47     -31    -26     -1     41     42 229.6  -2.2  33242  274.21 0865.09
2015 04 09 07 26 00 .73     -35    -28     -5     46     47 231.4  -7.2  33238  274.16 0865.09
2015 04 09 07 26 00 .98     -35    -28     -5     46     47 231.4  -7.2  33238  274.16 0865.09
2015 04 09 07 26 01 .23     -34    -24     -1     42     43 234.9  -2.2  33240  274.20 0865.09
2015 04 09 07 26 01 .48     -33    -31     -2     46     47 226.0  -3.1  33240  274.18 0865.09
2015 04 09 07 26 01 .73     -34    -24     -1     42     43 234.9  -2.2  33240  274.20 0865.09
2015 04 09 07 26 01 .98     -35    -28     -5     46     47 231.4  -7.2  33238  274.16 0865.09
2015 04 09 07 26 02 .23     -35    -28     -5     46     47 231.4  -7.2  33238  274.16 0865.09
2015 04 09 07 26 02 .48     -33    -31     -2     46     47 226.0  -3.1  33240  274.18 0865.09
2015 04 09 07 26 02 .73     -31    -26     -1     41     42 229.6  -2.2  33242  274.21 0865.09
2015 04 09 07 26 02 .98     -29    -24      0     38     39 230.5   0.8  33242  274.23 0865.09
2015 04 09 07 26 03 .23     -28    -20      3     35     36 234.0   4.9  33242  274.21 0865.09
2015 04 09 07 26 03 .48     -31    -17      1     36     37 241.1   2.9  33240  274.18 0865.09
2015 04 09 07 26 03 .73     -25    -16     -1     30     31 237.5  -2.2  33242  274.21 0865.09
2015 04 09 07 26 03 .98     -29    -24      0     38     39 230.5   0.8  33246  274.30 0865.08
2015 04 09 07 26 04 .24     -26    -26      4     38     39 225.0   5.9  33248  274.31 0865.08
2015 04 09 07 26 04 .48     -36    -24      2     44     45 235.8   3.8  33244  274.26 0865.08
2015 04 09 07 26 04 .73     -31    -26     -1     41     42 229.6  -2.2  33242  274.21 0865.08
2015 04 09 07 26 04 .99     -31    -26     -1     41     42 229.6  -2.2  33242  274.21 0865.08
2015 04 09 07 26 05 .23     -34    -24     -1     42     43 234.9  -2.2  33240  274.20 0865.08
2015 04 09 07 26 05 .49     -34    -24     -1     42     43 234.9  -2.2  33240  274.20 0865.08
2015 04 09 07 26 05 .74     -31    -27     -6     42     43 229.6  -9.3  33238  274.15 0865.08
2015 04 09 07 26 05 .99     -31    -27     -6     42     43 229.6  -9.3  33238  274.15 0865.09
2015 04 09 07 26 06 .24     -29    -24     -3     38     39 230.5  -5.2  33238  274.16 0865.09
2015 04 09 07 26 06 .49     -29    -24     -3     38     39 230.5  -5.2  33238  274.16 0865.09
2015 04 09 07 26 06 .74     -31    -27     -6     42     43 229.6  -9.3  33238  274.15 0865.09
2015 04 09 07 26 06 .99     -35    -28     -5     46     47 231.4  -7.2  33238  274.16 0865.09
2015 04 09 07 26 07 .25     -31    -26     -1     41     42 229.6  -2.2  33242  274.21 0865.09
2015 04 09 07 26 07 .50     -31    -31     -5     44     45 225.0  -7.2  33238  274.16 0865.09
2015 04 09 07 26 07 .75     -31    -27     -6     42     43 229.6  -9.3  33238  274.15 0865.09
2015 04 09 07 26 08 .00     -31    -27     -6     42     43 229.6  -9.3  33238  274.15 0865.09
2015 04 09 07 26 08 .25     -35    -28     -5     46     47 231.4  -7.2  33238  274.16 0865.09
2015 04 09 07 26 08 .50     -33    -31     -2     46     47 226.0  -3.1  33240  274.18 0865.08
2015 04 09 07 26 08 .75     -34    -35     -5     49     50 224.2  -6.2  33242  274.21 0865.08
2015 04 09 07 26 09 .01     -31    -34     -1     47     48 222.3  -2.2  33238  274.16 0865.08
2015 04 09 07 26 09 .25     -31    -26     -1     41     42 229.6  -2.2  33242  274.21 0865.08
2015 04 09 07 26 09 .51     -33    -38     -2     51     52 220.5  -2.2  33242  274.23 0865.08
2015 04 09 07 26 09 .76     -39    -31     -1     50     51 231.4  -1.3  33244  274.26 0865.08
2015 04 09 07 26 10 .01     -33    -31     -2     46     47 226.0  -3.1  33240  274.18 0865.08
2015 04 09 07 26 10 .26     -33    -31     -2     46     47 226.0  -3.1  33238  274.15 0865.08
2015 04 09 07 26 10 .51     -34    -35     -5     49     50 224.2  -6.2  33242  274.21 0865.08
2015 04 09 07 26 10 .76     -35    -35      8     50     51 225.0  10.1  33266  274.61 0865.08
2015 04 09 07 26 11 .01     -32    -34      4     47     48 223.2   5.9  33270  274.67 0865.08
2015 04 09 07 26 11 .26     -28    -40      0     49     50 215.2   0.8  33276  274.79 0865.08
2015 04 09 07 26 11 .51     -29    -32      6     44     45 222.3   8.0  33278  274.82 0865.08
2015 04 09 07 26 11 .76     -38    -38      4     54     55 225.0   4.9  33274  274.74 0865.08
2015 04 09 07 26 12 .01     -32    -30      4     45     46 226.9   5.9  33266  274.61 0865.08
2015 04 09 07 26 12 .26     -23    -41      1     48     49 209.0   1.8  33252  274.38 0865.08
2015 04 09 07 26 12 .51     -31    -32      2     45     46 224.2   2.9  33250  274.36 0865.08
2015 04 09 07 26 12 .76     -34    -34      1     49     50 225.0   1.8  33250  274.34 0865.08
2015 04 09 07 26 13 .01     -33    -31      3     46     47 226.0   3.8  33248  274.31 0865.08
2015 04 09 07 26 13 .26     -32    -34     -1     47     48 223.2  -1.3  33248  274.31 0865.08
2015 04 09 07 26 13 .52     -31    -34     -1     47     48 222.3  -2.2  33250  274.36 0865.08
2015 04 09 07 26 13 .76     -28    -35     -1     45     46 218.7  -2.2  33252  274.39 0865.08
2015 04 09 07 26 14 .02     -28    -35     -1     45     46 218.7  -2.2  33252  274.39 0865.08
2015 04 09 07 26 14 .28     -25    -30      0     40     41 219.6  -1.3  33254  274.41 0865.08
2015 04 09 07 26 14 .53     -29    -30      0     43     44 224.1   0.8  33250  274.34 0865.08
2015 04 09 07 26 14 .78     -32    -34     -1     47     48 223.2  -1.3  33242  274.21 0865.08
2015 04 09 07 26 15 .03     -26    -34     -1     43     44 217.8  -2.2  33246  274.30 0865.09
2015 04 09 07 26 15 .28     -29    -34     -1     45     46 220.5  -2.2  33246  274.28 0865.09
2015 04 09 07 26 15 .53     -32    -30     -1     45     46 226.9  -2.2  33242  274.23 0865.09
2015 04 09 07 26 15 .78     -25    -25     -3     36     37 225.0  -5.2  33244  274.25 0865.09
2015 04 09 07 26 16 .03     -25    -29     -5     39     40 221.4  -8.2  33242  274.23 0865.09
2015 04 09 07 26 16 .28     -29    -30    -11     43     45 224.1 -14.5  33240  274.20 0865.09
2015 04 09 07 26 16 .53     -27    -35     -9     45     46 217.0 -11.3  33238  274.16 0865.09
2015 04 09 07 26 16 .78     -29    -30    -11     43     45 224.1 -14.5  33240  274.20 0865.09
2015 04 09 07 26 17 .03     -24    -29     -6     38     39 219.6 -10.3  33244  274.25 0865.09
2015 04 09 07 26 17 .28     -25    -26     -1     37     38 223.4  -2.2  33240  274.20 0865.09
2015 04 09 07 26 17 .53     -25    -26     -1     37     38 223.4  -2.2  33240  274.20 0865.09
2015 04 09 07 26 17 .79     -25    -25     -3     36     37 225.0  -5.2  33244  274.25 0865.09
2015 04 09 07 26 18 .04     -24    -29     -6     38     39 219.6 -10.3  33244  274.25 0865.09
2015 04 09 07 26 18 .28     -23    -24     -4     34     35 223.2  -7.3  33242  274.21 0865.09
2015 04 09 07 26 18 .54     -23    -24     -4     34     35 223.2  -7.3  33242  274.21 0865.09
2015 04 09 07 26 18 .79     -23    -24     -4     34     35 223.2  -7.3  33242  274.21 0865.09
2015 04 09 07 26 19 .04     -23    -24     -4     34     35 223.2  -7.3  33242  274.21 0865.09
2015 04 09 07 26 19 .29     -29    -29     -3     42     43 225.0  -4.1  33242  274.21 0865.09
2015 04 09 07 26 19 .54     -29    -30     -4     42     43 224.1  -6.2  33244  274.26 0865.08
2015 04 09 07 26 19 .79     -29    -30     -4     42     43 224.1  -6.2  33244  274.26 0865.08
2015 04 09 07 26 20 .04     -21    -26     -4     34     35 219.7  -7.2  33250  274.36 0865.08
2015 04 09 07 26 20 .29     -25    -30     -1     40     41 219.6  -2.2  33248  274.31 0865.08
2015 04 09 07 26 20 .54     -22    -23     -6     33     34 223.4 -11.3  33240  274.20 0865.08
2015 04 09 07 26 20 .79     -22    -23     -6     33     34 223.4 -11.3  33240  274.20 0865.08
2015 04 09 07 26 21 .04     -28    -23     -4     37     38 230.5  -7.2  33242  274.21 0865.08
2015 04 09 07 26 21 .30     -28    -23     -4     37     38 230.5  -7.2  33242  274.21 0865.08
2015 04 09 07 26 21 .55     -22    -23     -6     33     34 223.4 -11.3  33240  274.20 0865.08
2015 04 09 07 26 21 .80     -22    -23     -6     33     34 223.4 -11.3  33240  274.20 0865.08
2015 04 09 07 26 22 .05     -34    -24     -1     42     43 234.9  -2.2  33240  274.20 0865.08
2015 04 09 07 26 22 .30     -28    -23     -4     37     38 230.5  -7.2  33242  274.21 0865.08
2015 04 09 07 26 22 .56     -28    -23     -4     37     38 230.5  -7.2  33242  274.21 0865.08
2015 04 09 07 26 22 .81     -22    -23     -6     33     34 223.4 -11.3  33240  274.20 0865.08
2015 04 09 07 26 23 .06     -22    -23     -6     33     34 223.4 -11.3  33240  274.20 0865.08
2015 04 09 07 26 23 .31     -33    -31     -9     46     47 226.0 -11.3  33238  274.16 0865.08
2015 04 09 07 26 23 .56     -33    -33     -6     47     48 225.0  -7.3  33240  274.18 0865.08
2015 04 09 07 26 23 .81     -34    -35     -5     49     50 224.2  -6.2  33242  274.21 0865.08
2015 04 09 07 26 24 .06     -31    -34     -6     47     48 222.3  -7.3  33236  274.13 0865.08
2015 04 09 07 26 24 .31     -29    -30     -3     43     44 224.1  -5.2  33242  274.21 0865.08
2015 04 09 07 26 24 .56     -35    -28     -5     46     47 231.4  -7.2  33238  274.16 0865.08
2015 04 09 07 26 24 .81     -33    -31     -1     46     47 226.0  -2.2  33234  274.10 0865.08
2015 04 09 07 26 25 .06     -35    -28     -5     46     47 231.4  -7.2  33238  274.16 0865.08
2015 04 09 07 26 25 .31     -43    -27     -9     51     52 237.5 -10.3  33232  274.06 0865.08
2015 04 09 07 26 25 .56     -36    -32     -6     49     50 228.7  -7.3  33232  274.05 0865.08
2015 04 09 07 26 25 .81     -35    -35     -3     50     51 225.0  -4.1  33232  274.06 0865.08
2015 04 09 07 26 26 .07     -33    -31     -9     46     47 226.0 -11.3  33232  274.06 0865.08
2015 04 09 07 26 26 .31     -35    -35     -3     50     51 225.0  -4.1  33232  274.06 0865.08
2015 04 09 07 26 26 .57     -35    -35     -3     50     51 225.0  -4.1  33232  274.06 0865.08
2015 04 09 07 26 26 .82     -35    -35     -3     50     51 225.0  -4.1  33232  274.06 0865.08
2015 04 09 07 26 27 .07     -33    -31     -1     46     47 226.0  -2.2  33234  274.10 0865.08
2015 04 09 07 26 27 .32     -29    -30     -4     42     43 224.1  -6.2  33244  274.26 0865.08
2015 04 09 07 26 27 .57     -29    -29     -3     42     43 225.0  -4.1  33248  274.31 0865.07
2015 04 09 07 26 27 .82     -25    -25      3     36     37 225.0   4.9  33254  274.41 0865.07
2015 04 09 07 26 28 .08     -36    -32      5     49     50 228.7   5.9  33258  274.49 0865.07
2015 04 09 07 26 28 .33     -33    -31      3     46     47 226.0   3.8  33262  274.56 0865.07
2015 04 09 07 26 28 .58     -29    -29      9     42     43 225.0  12.2  33256  274.46 0865.07
2015 04 09 07 26 28 .83     -24    -29      6     38     39 219.6   9.0  33252  274.39 0865.07
2015 04 09 07 26 29 .08     -28    -37      8     47     48 217.0  10.1  33250  274.36 0865.07
2015 04 09 07 26 29 .33     -27    -34     10     44     46 218.7  13.2  33246  274.28 0865.08
2015 04 09 07 26 29 .58     -28    -31      9     42     43 222.3  12.2  33242  274.21 0865.08
2015 04 09 07 26 29 .84     -26    -35      2     44     45 217.0   3.8  33242  274.21 0865.08
2015 04 09 07 26 30 .08     -29    -30      7     43     44 224.1  10.1  33244  274.26 0865.08
2015 04 09 07 26 30 .33     -25    -30      6     40     41 219.6   9.0  33246  274.30 0865.08
2015 04 09 07 26 30 .59     -17    -25      0     31     32 214.3  -1.3  33250  274.36 0865.08
2015 04 09 07 26 30 .83     -25    -30      0     40     41 219.6  -1.3  33250  274.36 0865.08
2015 04 09 07 26 31 .08     -25    -30     -1     40     41 219.6  -2.2  33244  274.26 0865.07
2015 04 09 07 26 31 .34     -25    -26     -1     37     38 223.4  -2.2  33240  274.20 0865.07
2015 04 09 07 26 31 .58     -31    -26     -1     41     42 229.6  -2.2  33242  274.21 0865.07
2015 04 09 07 26 31 .84     -31    -26     -1     41     42 229.6  -2.2  33242  274.21 0865.07
2015 04 09 07 26 32 .09     -25    -26     -1     37     38 223.4  -2.2  33240  274.20 0865.07
2015 04 09 07 26 32 .34     -25    -26     -1     37     38 223.4  -2.2  33240  274.20 0865.07
2015 04 09 07 26 32 .59     -31    -31     -5     44     45 225.0  -7.2  33238  274.16 0865.07
2015 04 09 07 26 32 .84     -23    -24     -4     34     35 223.2  -7.3  33242  274.21 0865.07
2015 04 09 07 26 33 .09     -29    -30     -4     42     43 224.1  -6.2  33244  274.26 0865.07
2015 04 09 07 26 33 .34     -25    -30     -1     40     41 219.6  -2.2  33248  274.31 0865.07
2015 04 09 07 26 33 .59     -29    -30     -4     42     43 224.1  -6.2  33244  274.26 0865.07
2015 04 09 07 26 33 .84     -25    -25     -3     36     37 225.0  -5.2  33246  274.28 0865.07
2015 04 09 07 26 34 .09     -29    -30     -4     42     43 224.1  -6.2  33244  274.26 0865.07
2015 04 09 07 26 34 .34     -25    -25     -3     36     37 225.0  -5.2  33246  274.28 0865.07
2015 04 09 07 26 34 .59     -24    -29     -6     38     39 219.6 -10.3  33244  274.25 0865.07
2015 04 09 07 26 34 .84     -24    -29     -6     38     39 219.6 -10.3  33244  274.25 0865.07
2015 04 09 07 26 35 .11     -29    -30     -4     42     43 224.1  -6.2  33244  274.26 0865.07
2015 04 09 07 26 35 .36     -27    -34      2     44     45 218.7   3.8  33250  274.36 0865.07
2015 04 09 07 26 35 .60     -29    -30      1     42     43 224.1   1.8  33248  274.33 0865.08
2015 04 09 07 26 35 .86     -29    -30      0     43     44 224.1   0.8  33246  274.30 0865.08
2015 04 09 07 26 36 .11     -25    -20      0     33     34 230.5  -1.2  33246  274.28 0865.08
2015 04 09 07 26 36 .36     -34    -24     -1     42     43 234.9  -2.2  33248  274.33 0865.08
2015 04 09 07 26 36 .61     -32    -20     -6     39     40 237.5  -9.3  33246  274.28 0865.08
2015 04 09 07 26 36 .86     -36    -27     -4     45     46 233.1  -5.2  33248  274.31 0865.08
2015 04 09 07 26 37 .11     -40    -35     -2     54     55 228.7  -2.2  33250  274.34 0865.08
2015 04 09 07 26 37 .36     -36    -32     -1     49     50 228.7  -2.2  33248  274.31 0865.08
2015 04 09 07 26 37 .61     -39    -31     -1     50     51 231.4  -1.3  33244  274.26 0865.08
2015 04 09 07 26 37 .86     -41    -34     -2     54     55 229.6  -2.2  33242  274.23 0865.08
2015 04 09 07 26 38 .11     -34    -35     -5     49     50 224.2  -6.2  33242  274.21 0865.08
2015 04 09 07 26 38 .36     -29    -30     -4     42     43 224.1  -6.2  33244  274.26 0865.08
2015 04 09 07 26 38 .61     -32    -34     -1     47     48 223.2  -1.3  33248  274.31 0865.08
2015 04 09 07 26 38 .86     -32    -34     -1     47     48 223.2  -1.3  33248  274.31 0865.08
2015 04 09 07 26 39 .11     -32    -30     -1     45     46 226.9  -2.2  33242  274.23 0865.08
2015 04 09 07 26 39 .36     -31    -32     -9     45     46 224.2 -11.3  33242  274.21 0865.08
2015 04 09 07 26 39 .62     -31    -32     -9     45     46 224.2 -11.3  33242  274.21 0865.08
2015 04 09 07 26 39 .87     -36    -32     -6     49     50 228.7  -7.3  33240  274.18 0865.08
2015 04 09 07 26 40 .12     -30    -26     -7     40     41 228.7 -10.3  33244  274.25 0865.09
2015 04 09 07 26 40 .37     -33    -24     -9     41     42 234.0 -12.4  33244  274.26 0865.09
2015 04 09 07 26 40 .62     -36    -27     -4     45     46 233.1  -5.2  33242  274.21 0865.09
2015 04 09 07 26 40 .87     -35    -28     -5     46     47 231.4  -7.2  33238  274.16 0865.09
2015 04 09 07 26 41 .12     -31    -26     -1     41     42 229.6  -2.2  33242  274.21 0865.09
2015 04 09 07 26 41 .37     -32    -20     -6     39     40 237.5  -9.3  33244  274.25 0865.09
2015 04 09 07 26 41 .62     -36    -27     -4     45     46 233.1  -5.2  33248  274.31 0865.09
2015 04 09 07 26 41 .87     -30    -23     -3     38     39 232.2  -5.2  33242  274.21 0865.08
2015 04 09 07 26 42 .13     -34    -22     -9     41     43 236.7 -13.4  33238  274.16 0865.08
2015 04 09 07 26 42 .38     -31    -32     -9     45     46 224.2 -11.3  33242  274.21 0865.08
2015 04 09 07 26 42 .63     -31    -35     -6     47     48 221.4  -7.3  33250  274.34 0865.08
2015 04 09 07 26 42 .88     -23    -35     -4     42     43 213.4  -6.2  33242  274.21 0865.08
2015 04 09 07 26 43 .14     -23    -24     -4     34     35 223.2  -7.3  33242  274.21 0865.08
2015 04 09 07 26 43 .38     -25    -30      0     40     41 219.6  -1.3  33254  274.41 0865.08
2015 04 09 07 26 43 .63     -24    -29      6     38     39 219.6   9.0  33254  274.43 0865.08
2015 04 09 07 26 43 .88     -42    -21      3     48     49 242.9   3.8  33248  274.31 0865.08
2015 04 09 07 26 44 .14     -36    -27      0     45     46 233.1   0.8  33248  274.33 0865.08
2015 04 09 07 26 44 .39     -33    -31      3     46     47 226.0   3.8  33260  274.51 0865.08
2015 04 09 07 26 44 .64     -31    -27      0     42     43 228.7  -1.3  33256  274.46 0865.08
2015 04 09 07 26 44 .89     -44    -28      6     53     54 237.6   6.9  33258  274.48 0865.08
2015 04 09 07 26 45 .14     -38    -46     -1     61     62 219.6  -1.3  33262  274.56 0865.08
2015 04 09 07 26 45 .39     -26    -42      2     50     51 212.5   2.9  33256  274.46 0865.08
2015 04 09 07 26 45 .64     -24    -44      7     51     52 209.0   8.0  33254  274.43 0865.08
2015 04 09 07 26 45 .89     -24    -37      5     45     46 212.5   6.9  33258  274.49 0865.08
2015 04 09 07 26 46 .14     -29    -37      8     48     49 217.8  10.1  33260  274.51 0865.08
2015 04 09 07 26 46 .39     -25    -25      3     36     37 225.0   4.9  33256  274.46 0865.08
2015 04 09 07 26 46 .64     -26    -35      2     44     45 217.0   3.8  33260  274.51 0865.08
2015 04 09 07 26 46 .89     -33    -31      3     46     47 226.0   3.8  33260  274.51 0865.08
2015 04 09 07 26 47 .14     -26    -26      4     38     39 225.0   5.9  33266  274.61 0865.08
2015 04 09 07 26 47 .39     -26    -26      4     38     39 225.0   5.9  33266  274.61 0865.08
2015 04 09 07 26 47 .64     -31    -34     -1     47     48 222.3  -2.2  33256  274.46 0865.08
2015 04 09 07 26 47 .90     -31    -32     -1     45     46 224.2  -2.2  33246  274.28 0865.08
2015 04 09 07 26 48 .14     -31    -32     -9     45     46 224.2 -11.3  33248  274.31 0865.08
2015 04 09 07 26 48 .40     -46    -28     -7     55     56 238.5  -7.3  33252  274.39 0865.07
2015 04 09 07 26 48 .65     -43    -28     -2     52     53 236.7  -2.2  33258  274.49 0865.07
2015 04 09 07 26 48 .90     -44    -33      0     55     56 233.1   0.8  33258  274.49 0865.07
2015 04 09 07 26 49 .16     -35    -35     -3     50     51 225.0  -4.1  33250  274.36 0865.07
2015 04 09 07 26 49 .41     -40    -38     -4     56     57 226.9  -4.1  33254  274.41 0865.07
2015 04 09 07 26 49 .66     -34    -35     -5     49     50 224.2  -6.2  33260  274.51 0865.07
2015 04 09 07 26 49 .91     -38    -38     -1     54     55 225.0  -1.3  33262  274.56 0865.07
2015 04 09 07 26 50 .16     -39    -31     -1     50     51 231.4  -1.3  33262  274.56 0865.08
2015 04 09 07 26 50 .41     -34    -35      1     49     50 224.2   1.8  33264  274.59 0865.08
2015 04 09 07 26 50 .66     -34    -35      1     49     50 224.2   1.8  33264  274.59 0865.08
2015 04 09 07 26 50 .91     -36    -32      5     49     50 228.7   5.9  33258  274.49 0865.08
2015 04 09 07 26 51 .16     -36    -32      5     49     50 228.7   5.9  33258  274.49 0865.08
2015 04 09 07 26 51 .41     -29    -30      9     42     43 224.1  12.2  33254  274.41 0865.08
2015 04 09 07 26 51 .66     -32    -34      4     47     48 223.2   5.9  33256  274.44 0865.08
2015 04 09 07 26 51 .91     -26    -35     -3     44     45 217.0  -4.1  33244  274.25 0865.08
2015 04 09 07 26 52 .16     -31    -31     -5     44     45 225.0  -7.2  33238  274.16 0865.08
2015 04 09 07 26 52 .41     -25    -26     -1     37     38 223.4  -2.2  33240  274.20 0865.08
2015 04 09 07 26 52 .66     -31    -31     -5     44     45 225.0  -7.2  33238  274.16 0865.08
2015 04 09 07 26 52 .92     -25    -26     -1     37     38 223.4  -2.2  33240  274.20 0865.08
2015 04 09 07 26 53 .17     -26    -25     -1     37     38 226.7  -2.2  33248  274.33 0865.08
2015 04 09 07 26 53 .42     -31    -27      0     42     43 229.6  -1.3  33256  274.46 0865.08
2015 04 09 07 26 53 .67     -25    -30     -1     40     41 219.6  -2.2  33260  274.51 0865.08
2015 04 09 07 26 53 .92     -29    -29      2     42     43 225.0   2.9  33256  274.46 0865.08
2015 04 09 07 26 54 .17     -35    -35      0     50     51 225.0  -0.3  33236  274.13 0865.08
2015 04 09 07 26 54 .42     -36    -27      0     45     46 233.1   0.8  33240  274.20 0865.08
2015 04 09 07 26 54 .67     -36    -27      0     45     46 233.1   0.8  33240  274.20 0865.08
2015 04 09 07 26 54 .92     -36    -32     -1     49     50 228.7  -2.2  33238  274.16 0865.08
2015 04 09 07 26 55 .17     -31    -26     -1     41     42 229.6  -2.2  33242  274.21 0865.08
2015 04 09 07 26 55 .42     -34    -24     -1     42     43 234.9  -2.2  33242  274.23 0865.08
2015 04 09 07 26 55 .67     -33    -31     -1     46     47 226.0  -2.2  33254  274.43 0865.08
2015 04 09 07 26 55 .93     -28    -23      1     37     38 230.5   2.8  33254  274.43 0865.08
2015 04 09 07 26 56 .18     -31    -26     -1     41     42 229.6  -2.2  33256  274.46 0865.08
2015 04 09 07 26 56 .43     -28    -23      1     37     38 230.5   2.8  33254  274.43 0865.07
2015 04 09 07 26 56 .68     -28    -23      8     37     39 230.5  13.2  33250  274.36 0865.07
2015 04 09 07 26 56 .93     -28    -23      1     37     38 230.5   2.8  33254  274.43 0865.07
2015 04 09 07 26 57 .19     -29    -30      0     43     44 224.1   0.8  33258  274.48 0865.07
2015 04 09 07 26 57 .44     -31    -27      0     42     43 228.7  -1.3  33256  274.46 0865.07
2015 04 09 07 26 57 .69     -29    -30      0     43     44 224.1   0.8  33258  274.48 0865.07
2015 04 09 07 26 57 .94     -28    -20      3     35     36 234.0   4.9  33260  274.51 0865.07
2015 04 09 07 26 58 .19     -21    -25      9     33     35 219.7  15.3  33260  274.51 0865.07
2015 04 09 07 26 58 .44     -24    -30     13     39     42 219.6  19.4  33254  274.41 0865.07
2015 04 09 07 26 58 .69     -29    -30      9     42     43 224.1  12.2  33254  274.41 0865.07
2015 04 09 07 26 58 .94     -34    -24      4     42     43 234.9   5.9  33256  274.46 0865.07
2015 04 09 07 26 59 .19     -25    -20      4     33     34 230.5   6.9  33256  274.46 0865.07
2015 04 09 07 26 59 .44     -33    -24      3     41     42 234.0   4.9  33254  274.41 0865.07
2015 04 09 07 26 59 .69     -31    -27      0     42     43 228.7  -1.3  33256  274.46 0865.07
2015 04 09 07 26 59 .95     -32    -20      0     38     39 237.6  -1.3  33252  274.39 0865.07
2015 04 09 07 27 00 .19     -38    -21     -4     44     45 240.2  -5.2  33248  274.31 0865.07
2015 04 09 07 27 00 .44     -32    -20     -6     39     40 237.5  -9.3  33246  274.28 0865.07
2015 04 09 07 27 00 .69     -38    -21     -4     44     45 240.2  -5.2  33248  274.31 0865.07
2015 04 09 07 27 00 .94     -39    -25     -6     47     48 237.6  -7.3  33246  274.30 0865.07
2015 04 09 07 27 01 .19     -49    -23     -3     55     56 244.6  -3.1  33238  274.15 0865.07
2015 04 09 07 27 01 .45     -43    -36     -2     57     58 230.5  -2.2  33238  274.16 0865.07
2015 04 09 07 27 01 .69     -34    -32     -1     47     48 226.9  -2.2  33236  274.13 0865.07
2015 04 09 07 27 01 .95     -39    -35     -2     53     54 227.8  -2.2  33234  274.10 0865.07
2015 04 09 07 27 02 .20     -35    -28      1     45     46 231.4   1.8  33238  274.15 0865.07
2015 04 09 07 27 02 .45     -28    -38      1     48     49 217.0   1.8  33246  274.30 0865.07
2015 04 09 07 27 02 .70     -39    -31     -1     50     51 231.4  -1.3  33244  274.26 0865.08
2015 04 09 07 27 02 .96     -33    -31      3     46     47 226.0   3.8  33244  274.26 0865.08
2015 04 09 07 27 03 .21     -34    -35      1     49     50 224.2   1.8  33246  274.30 0865.08
2015 04 09 07 27 03 .46     -32    -26      0     42     43 230.5  -1.3  33242  274.21 0865.08
2015 04 09 07 27 03 .71     -31    -27     -6     42     43 229.6  -9.3  33238  274.15 0865.07
2015 04 09 07 27 03 .96     -26    -26     -1     38     39 225.0  -2.2  33238  274.15 0865.07
2015 04 09 07 27 04 .21     -35    -28     -5     46     47 231.4  -7.2  33238  274.16 0865.07
2015 04 09 07 27 04 .46     -31    -32     -9     45     46 224.2 -11.3  33242  274.21 0865.07
2015 04 09 07 27 04 .71     -26    -26     -9     37     39 225.0 -13.4  33238  274.16 0865.07
2015 04 09 07 27 04 .96     -31    -32     -9     45     46 224.2 -11.3  33242  274.21 0865.07
2015 04 09 07 27 05 .21     -30    -26     -7     40     41 228.7 -10.3  33244  274.25 0865.07
2015 04 09 07 27 05 .46     -32    -20     -6     39     40 237.6  -9.3  33242  274.23 0865.07
2015 04 09 07 27 05 .72     -38    -21     -4     44     45 240.2  -5.2  33248  274.31 0865.07
2015 04 09 07 27 05 .97     -43    -28     -2     52     53 236.7  -2.2  33258  274.49 0865.07
2015 04 09 07 27 06 .21     -39    -25     -1     47     48 237.6  -2.2  33254  274.41 0865.07
2015 04 09 07 27 06 .46     -39    -25     -1     47     48 237.6  -2.2  33250  274.36 0865.07
2015 04 09 07 27 06 .72     -39    -25     -1     47     48 237.6  -2.2  33250  274.36 0865.07
2015 04 09 07 27 06 .97     -45    -25     -5     52     53 241.1  -6.2  33256  274.46 0865.07
2015 04 09 07 27 07 .22     -41    -24     -7     48     49 239.3  -8.2  33254  274.43 0865.08
2015 04 09 07 27 07 .47     -38    -21     -4     44     45 240.2  -5.2  33248  274.31 0865.08
2015 04 09 07 27 07 .72     -44    -25     -3     51     52 240.2  -4.1  33244  274.26 0865.08
2015 04 09 07 27 07 .98     -41    -32     -4     53     54 232.2  -5.2  33250  274.36 0865.08
2015 04 09 07 27 08 .22     -46    -29     -7     55     56 237.6  -7.3  33252  274.38 0865.08
2015 04 09 07 27 08 .47     -41    -28    -10     50     51 235.8 -11.3  33244  274.26 0865.08
2015 04 09 07 27 08 .72     -41    -28    -10     50     51 235.8 -11.3  33248  274.31 0865.08
2015 04 09 07 27 08 .97     -40    -35     -8     54     55 228.7  -9.3  33248  274.31 0865.08
2015 04 09 07 27 09 .22     -35    -35     -3     50     51 225.0  -4.1  33250  274.36 0865.08
2015 04 09 07 27 09 .47     -34    -35     -5     49     50 224.2  -6.2  33242  274.21 0865.08
2015 04 09 07 27 09 .72     -36    -32     -6     49     50 228.7  -7.3  33240  274.18 0865.08
2015 04 09 07 27 09 .98     -41    -28    -10     50     51 235.8 -11.3  33242  274.21 0865.08
2015 04 09 07 27 10 .24     -36    -32     -6     49     50 228.7  -7.3  33250  274.34 0865.08
2015 04 09 07 27 10 .49     -43    -27     -2     51     52 237.5  -2.2  33262  274.54 0865.08
2015 04 09 07 27 10 .74     -35    -28      2     46     47 231.4   2.8  33258  274.49 0865.08
2015 04 09 07 27 10 .99     -39    -25      7     47     48 237.6   9.0  33256  274.44 0865.08
2015 04 09 07 27 11 .24     -43    -43      5     62     63 225.1   4.9  33260  274.53 0865.08
2015 04 09 07 27 11 .49     -45    -38     -2     60     61 229.6  -2.2  33252  274.38 0865.08
2015 04 09 07 27 11 .74     -43    -36     -2     57     58 230.5  -2.2  33256  274.46 0865.08
2015 04 09 07 27 11 .99     -39    -31     -1     50     51 231.4  -1.3  33262  274.56 0865.08
2015 04 09 07 27 12 .24     -39    -35     -2     53     54 227.8  -2.2  33252  274.39 0865.08
2015 04 09 07 27 12 .50     -29    -30      1     42     43 224.1   1.8  33266  274.63 0865.08
2015 04 09 07 27 12 .74     -33    -38      2     51     52 220.5   2.9  33272  274.71 0865.08
2015 04 09 07 27 12 .99     -28    -37      8     47     48 217.0  10.1  33268  274.66 0865.08
2015 04 09 07 27 13 .24     -36    -32      5     49     50 228.7   5.9  33272  274.72 0865.08
2015 04 09 07 27 13 .49     -31    -32      2     45     46 224.2   2.9  33272  274.71 0865.09
2015 04 09 07 27 13 .74     -41    -34     -2     54     55 229.6  -2.2  33264  274.59 0865.09
2015 04 09 07 27 13 .99     -34    -35      1     49     50 224.2   1.8  33264  274.59 0865.09
2015 04 09 07 27 14 .25     -33    -33      0     47     48 225.0   0.8  33268  274.64 0865.09
2015 04 09 07 27 14 .50     -32    -34      4     47     48 223.2   5.9  33270  274.67 0865.09
2015 04 09 07 27 14 .75     -28    -35     -1     45     46 218.7  -2.2  33254  274.43 0865.09
2015 04 09 07 27 14 .99     -36    -27     -4     45     46 233.1  -5.2  33244  274.26 0865.09
2015 04 09 07 27 15 .25     -36    -27     -4     45     46 233.1  -5.2  33248  274.31 0865.09
2015 04 09 07 27 15 .50     -39    -26     -2     48     49 235.8  -3.1  33246  274.30 0865.09
2015 04 09 07 27 15 .75     -32    -30     -1     45     46 226.9  -2.2  33246  274.30 0865.09
2015 04 09 07 27 16 .00     -38    -21     -4     44     45 240.2  -5.2  33248  274.31 0865.09
2015 04 09 07 27 16 .25     -36    -27     -4     45     46 233.1  -5.2  33242  274.21 0865.09
2015 04 09 07 27 16 .50     -30    -26     -7     40     41 228.7 -10.3  33244  274.25 0865.09
2015 04 09 07 27 16 .76     -32    -20     -6     39     40 237.5  -9.3  33246  274.28 0865.09
2015 04 09 07 27 17 .01     -33    -24     -9     41     42 234.0 -12.4  33244  274.26 0865.08
2015 04 09 07 27 17 .26     -38    -21     -4     44     45 240.2  -5.2  33248  274.31 0865.08
2015 04 09 07 27 17 .51     -38    -21     -4     44     45 240.2  -5.2  33248  274.31 0865.08
2015 04 09 07 27 17 .76     -38    -21     -4     44     45 240.2  -5.2  33248  274.31 0865.08
2015 04 09 07 27 18 .01     -32    -20     -5     39     40 237.6  -8.2  33248  274.33 0865.08
2015 04 09 07 27 18 .26     -36    -20     -4     42     43 241.1  -6.2  33256  274.46 0865.08
2015 04 09 07 27 18 .51     -35    -16     -1     39     40 244.8  -2.2  33254  274.43 0865.08
2015 04 09 07 27 18 .77     -35    -16     -1     39     40 244.8  -2.2  33252  274.39 0865.08
2015 04 09 07 27 19 .02     -27    -19     -1     34     35 234.0  -2.2  33258  274.49 0865.08
2015 04 09 07 27 19 .27     -32    -20     -1     39     40 237.6  -2.2  33262  274.56 0865.08
2015 04 09 07 27 19 .52     -33    -21      6     40     41 237.6   9.0  33264  274.59 0865.08
2015 04 09 07 27 19 .77     -31    -17      1     36     37 241.1   2.9  33258  274.48 0865.08
2015 04 09 07 27 20 .02     -20    -20      1     29     30 225.1   2.9  33258  274.48 0865.08
2015 04 09 07 27 20 .27     -25    -16     -1     30     31 237.5  -2.2  33260  274.51 0865.08
2015 04 09 07 27 20 .52     -21    -19      1     29     30 226.9   2.8  33264  274.59 0865.08
2015 04 09 07 27 20 .77     -19    -23      4     30     31 219.7   9.0  33270  274.67 0865.08
2015 04 09 07 27 21 .02     -22    -23     -1     33     34 223.4  -2.2  33262  274.56 0865.08
2015 04 09 07 27 21 .27     -35    -19      1     41     42 241.1   1.8  33256  274.44 0865.08
2015 04 09 07 27 21 .52     -34    -24     -1     42     43 234.9  -2.2  33260  274.53 0865.08
2015 04 09 07 27 21 .77     -36    -20     -4     42     43 241.1  -6.2  33262  274.56 0865.08
2015 04 09 07 27 22 .02     -32    -20     -1     39     40 237.6  -2.2  33260  274.51 0865.08
2015 04 09 07 27 22 .27     -35    -18     -1     40     41 242.9  -2.2  33264  274.59 0865.08
2015 04 09 07 27 22 .52     -35    -18     -1     40     41 242.9  -2.2  33264  274.59 0865.08
2015 04 09 07 27 22 .77     -35    -18     -1     40     41 242.9  -2.2  33264  274.59 0865.08
2015 04 09 07 27 23 .02     -39    -17     -1     43     44 246.5  -2.2  33262  274.56 0865.08
2015 04 09 07 27 23 .28     -32    -20     -1     39     40 237.6  -2.2  33266  274.61 0865.08
2015 04 09 07 27 23 .53     -34    -24     -1     42     43 234.9  -2.2  33266  274.63 0865.08
2015 04 09 07 27 23 .79     -35    -28      1     45     46 231.4   1.8  33274  274.74 0865.08
2015 04 09 07 27 24 .04     -32    -20     -1     38     39 237.6  -2.2  33274  274.76 0865.08
2015 04 09 07 27 24 .29     -42    -19     -1     47     48 245.6  -2.2  33258  274.49 0865.08
2015 04 09 07 27 24 .54     -45    -20     -1     50     51 245.6  -1.3  33266  274.61 0865.08
2015 04 09 07 27 24 .79     -30    -27     14     41     44 228.7  19.4  33262  274.56 0865.08
2015 04 09 07 27 25 .04     -33    -31      3     46     47 226.0   3.8  33262  274.56 0865.08
2015 04 09 07 27 25 .29     -36    -27      8     45     46 233.1  10.1  33256  274.46 0865.08
2015 04 09 07 27 25 .54     -36    -32      5     49     50 228.7   5.9  33252  274.38 0865.08
2015 04 09 07 27 25 .79     -39    -25      7     47     48 237.6   9.0  33252  274.38 0865.08
2015 04 09 07 27 26 .04     -41    -25     -1     49     50 238.5  -2.2  33250  274.34 0865.09
2015 04 09 07 27 26 .29     -38    -14     -1     41     42 249.2  -2.2  33256  274.46 0865.09
2015 04 09 07 27 26 .54     -34    -24     -1     42     43 234.9  -2.2  33258  274.49 0865.09
2015 04 09 07 27 26 .80     -33    -21     -7     40     41 237.6 -10.3  33252  274.38 0865.09
2015 04 09 07 27 27 .04     -32    -20      0     39     40 237.6  -1.3  33256  274.46 0865.09
2015 04 09 07 27 27 .30     -22    -23     -1     33     34 223.4  -2.2  33262  274.56 0865.09
2015 04 09 07 27 27 .55     -32    -34     -1     47     48 223.2  -1.3  33266  274.61 0865.09
2015 04 09 07 27 27 .79     -42    -31      0     53     54 234.0   0.8  33264  274.58 0865.09
2015 04 09 07 27 28 .05     -39    -25     -6     47     48 237.6  -7.3  33246  274.30 0865.08
2015 04 09 07 27 28 .30     -40    -24     -6     47     48 239.3  -7.3  33240  274.18 0865.08
2015 04 09 07 27 28 .55     -38    -16     -6     42     43 246.5  -9.3  33240  274.18 0865.08
2015 04 09 07 27 28 .80     -42    -20     -1     47     48 243.8  -2.2  33248  274.33 0865.08
2015 04 09 07 27 29 .05     -42    -15     -4     45     46 250.0  -5.2  33242  274.21 0865.08
2015 04 09 07 27 29 .31     -43    -15     -3     46     47 250.9  -4.1  33250  274.34 0865.08
2015 04 09 07 27 29 .55     -35    -35      8     50     51 225.0  10.1  33262  274.56 0865.08
2015 04 09 07 27 29 .80     -31    -26     -1     41     42 229.6  -2.2  33260  274.51 0865.08
2015 04 09 07 27 30 .05     -35    -40      7     54     55 221.4   8.0  33266  274.61 0865.08
2015 04 09 07 27 30 .30     -36    -32      5     49     50 228.7   5.9  33266  274.63 0865.08
2015 04 09 07 27 30 .55     -42    -31      0     53     54 234.0   0.8  33264  274.58 0865.08
2015 04 09 07 27 30 .81     -35    -35      8     50     51 225.0  10.1  33260  274.51 0865.08
2015 04 09 07 27 31 .06     -39    -31     -1     50     51 231.4  -1.3  33262  274.56 0865.08
2015 04 09 07 27 31 .31     -41    -24     -1     48     49 239.3  -1.3  33260  274.51 0865.08
2015 04 09 07 27 31 .56     -35    -28      2     46     47 231.4   2.8  33258  274.49 0865.08
2015 04 09 07 27 31 .82     -41    -28      2     50     51 235.8   2.9  33256  274.46 0865.08
2015 04 09 07 27 32 .06     -47    -38      3     61     62 230.5   2.8  33254  274.41 0865.08
2015 04 09 07 27 32 .32     -36    -32      5     49     50 228.7   5.9  33258  274.49 0865.08
2015 04 09 07 27 32 .57     -43    -36     -2     57     58 230.5  -2.2  33250  274.36 0865.08
2015 04 09 07 27 32 .82     -44    -33      7     55     56 233.1   8.0  33256  274.46 0865.08
2015 04 09 07 27 33 .07     -33    -24      3     42     43 234.0   4.9  33260  274.51 0865.08
2015 04 09 07 27 33 .32     -35    -16     -2     39     40 244.7  -3.1  33240  274.18 0865.08
2015 04 09 07 27 33 .57     -32    -20     -1     39     40 237.6  -2.2  33244  274.26 0865.08
2015 04 09 07 27 33 .82     -36    -27      0     45     46 233.1   0.8  33248  274.33 0865.08
2015 04 09 07 27 34 .07     -35    -16     -2     39     40 244.7  -3.1  33240  274.18 0865.08
2015 04 09 07 27 34 .32     -37    -17     -1     41     42 244.7  -2.2  33246  274.28 0865.09
2015 04 09 07 27 34 .57     -32    -20     -1     39     40 237.6  -2.2  33244  274.26 0865.09
2015 04 09 07 27 34 .82     -41    -24     -1     48     49 239.3  -1.3  33244  274.26 0865.09
2015 04 09 07 27 35 .07     -34    -24     -1     42     43 234.9  -2.2  33248  274.33 0865.09
2015 04 09 07 27 35 .32     -36    -24     -8     44     45 235.8 -11.3  33254  274.41 0865.09
2015 04 09 07 27 35 .57     -36    -12     -3     38     39 251.6  -5.2  33254  274.41 0865.09
2015 04 09 07 27 35 .82     -33    -15     -1     37     38 244.6  -2.2  33250  274.34 0865.09
2015 04 09 07 27 36 .08     -36    -24     -8     44     45 235.8 -11.3  33254  274.41 0865.09
2015 04 09 07 27 36 .33     -40    -19     -9     45     46 243.8 -11.3  33268  274.66 0865.09
2015 04 09 07 27 36 .57     -42    -20     -1     47     48 243.8  -2.2  33266  274.63 0865.09
2015 04 09 07 27 36 .83     -39    -25     -1     47     48 237.6  -2.2  33268  274.66 0865.09
2015 04 09 07 27 37 .08     -39    -25     -1     47     48 237.6  -2.2  33268  274.66 0865.09
2015 04 09 07 27 37 .33     -35    -26      2     44     45 233.1   2.8  33278  274.82 0865.09
2015 04 09 07 27 37 .58     -39    -35      2     53     54 227.8   2.8  33284  274.92 0865.09
2015 04 09 07 27 37 .84     -34    -35      7     49     50 224.2   9.0  33274  274.76 0865.09
2015 04 09 07 27 38 .09     -43    -27     12     51     53 237.5  13.2  33270  274.69 0865.09
2015 04 09 07 27 38 .34     -33    -22      4     40     41 235.8   5.9  33268  274.66 0865.09
2015 04 09 07 27 38 .59     -45    -23     -3     51     52 242.0  -4.1  33242  274.21 0865.09
2015 04 09 07 27 38 .84     -42    -21     -9     48     49 242.9 -11.3  33236  274.11 0865.09
2015 04 09 07 27 39 .09     -44    -25     -4     51     52 240.2  -5.2  33236  274.11 0865.09
2015 04 09 07 27 39 .34     -44    -25     -4     51     52 240.2  -5.2  33236  274.11 0865.09
2015 04 09 07 27 39 .59     -44    -25     -4     51     52 240.2  -5.2  33236  274.11 0865.09
2015 04 09 07 27 39 .84     -45    -18     -1     49     50 247.4  -2.2  33238  274.16 0865.09
2015 04 09 07 27 40 .09     -45    -25     -5     52     53 241.1  -6.2  33238  274.16 0865.09
2015 04 09 07 27 40 .34     -43    -27     -2     51     52 237.5  -2.2  33244  274.25 0865.09
2015 04 09 07 27 40 .59     -42    -19     -1     47     48 245.6  -2.2  33240  274.20 0865.09
2015 04 09 07 27 40 .84     -41    -28     -2     50     51 235.8  -3.1  33234  274.08 0865.09
2015 04 09 07 27 41 .09     -41    -28     -2     50     51 235.8  -3.1  33234  274.08 0865.09
2015 04 09 07 27 41 .35     -44    -25     -4     51     52 240.2  -5.2  33236  274.11 0865.09
2015 04 09 07 27 41 .60     -44    -25     -4     51     52 240.2  -5.2  33236  274.11 0865.09
2015 04 09 07 27 41 .85     -41    -24     -7     48     49 239.3  -8.2  33236  274.13 0865.09
2015 04 09 07 27 42 .10     -36    -20     -4     42     43 241.1  -6.2  33238  274.16 0865.09
2015 04 09 07 27 42 .35     -41    -24     -7     48     49 239.3  -8.2  33236  274.13 0865.09
2015 04 09 07 27 42 .60     -41    -19     -2     46     47 244.7  -3.1  33238  274.15 0865.09
2015 04 09 07 27 42 .85     -36    -20     -4     42     43 241.1  -6.2  33238  274.16 0865.09
2015 04 09 07 27 43 .10     -36    -24     -8     44     45 235.8 -11.3  33236  274.11 0865.09
2015 04 09 07 27 43 .36     -36    -24     -8     44     45 235.8 -11.3  33254  274.41 0865.09
2015 04 09 07 27 43 .60     -29    -30      0     43     44 224.1   0.8  33268  274.64 0865.09
2015 04 09 07 27 43 .85     -21    -26      1     34     35 219.7   2.8  33264  274.59 0865.09
2015 04 09 07 27 44 .10     -26    -26     11     37     39 225.0  17.3  33260  274.53 0865.09
2015 04 09 07 27 44 .35     -29    -30      7     43     44 224.1  10.1  33262  274.56 0865.09
2015 04 09 07 27 44 .61     -29    -37      8     48     49 217.8  10.1  33250  274.36 0865.09
2015 04 09 07 27 44 .87     -25    -24     12     35     38 226.7  19.4  33258  274.48 0865.09
2015 04 09 07 27 45 .11     -22    -23      6     33     34 223.4  11.1  33258  274.48 0865.09
2015 04 09 07 27 45 .37     -42    -21     -1     48     49 242.9  -2.2  33262  274.54 0865.09
2015 04 09 07 27 45 .62     -39    -21      1     45     46 241.1   1.8  33262  274.54 0865.09
2015 04 09 07 27 45 .87     -41    -19     -2     46     47 244.7  -3.1  33256  274.44 0865.09
2015 04 09 07 27 46 .12     -39    -25     -6     47     48 237.6  -7.3  33246  274.30 0865.09
2015 04 09 07 27 46 .37     -36    -20     -4     42     43 241.1  -6.2  33238  274.16 0865.09
2015 04 09 07 27 46 .62     -43    -27     -9     51     52 237.5 -10.3  33238  274.16 0865.09
2015 04 09 07 27 46 .87     -36    -20     -4     42     43 241.1  -6.2  33238  274.16 0865.09
2015 04 09 07 27 47 .12     -44    -25     -4     51     52 240.2  -5.2  33236  274.11 0865.09
2015 04 09 07 27 47 .37     -43    -27     -9     51     52 237.5 -10.3  33238  274.16 0865.09
2015 04 09 07 27 47 .62     -45    -20     -6     50     51 245.6  -7.3  33234  274.10 0865.09
2015 04 09 07 27 47 .87     -45    -20     -6     50     51 245.6  -7.3  33234  274.10 0865.09
2015 04 09 07 27 48 .12     -49    -23     -8     55     56 244.6  -8.2  33242  274.21 0865.09
2015 04 09 07 27 48 .37     -38    -16     -6     42     43 246.5  -9.3  33240  274.18 0865.09
2015 04 09 07 27 48 .63     -33    -15     -1     37     38 244.6  -2.2  33250  274.34 0865.09
2015 04 09 07 27 48 .87     -35    -23      3     42     43 236.7   4.9  33260  274.51 0865.09
2015 04 09 07 27 49 .13     -41    -27      2     50     51 236.7   2.9  33264  274.59 0865.09
2015 04 09 07 27 49 .38     -35    -28      1     45     46 231.4   1.8  33270  274.67 0865.09
2015 04 09 07 27 49 .63     -39    -11     -1     41     42 253.2  -2.2  33272  274.72 0865.09
2015 04 09 07 27 49 .88     -37    -15     -1     41     42 247.4  -2.2  33272  274.71 0865.09
2015 04 09 07 27 50 .13     -25    -20      4     33     34 230.5   6.9  33274  274.76 0865.09
2015 04 09 07 27 50 .38     -22    -23      6     33     34 223.4  11.1  33276  274.77 0865.09
2015 04 09 07 27 50 .63     -32    -20      5     39     40 237.5   8.0  33270  274.69 0865.09
2015 04 09 07 27 50 .88     -25    -25      3     36     37 225.0   4.9  33268  274.66 0865.09
2015 04 09 07 27 51 .13     -29    -24      0     38     39 230.5   0.8  33264  274.59 0865.09
2015 04 09 07 27 51 .38     -25    -30      0     40     41 219.6  -1.3  33254  274.41 0865.09
2015 04 09 07 27 51 .64     -21    -19      1     29     30 226.9   2.8  33260  274.53 0865.09
2015 04 09 07 27 51 .89     -28    -20      3     35     36 234.0   4.9  33260  274.51 0865.09
2015 04 09 07 27 52 .14     -21    -19      9     29     31 226.9  17.3  33260  274.51 0865.09
2015 04 09 07 27 52 .39     -21    -19      9     29     31 226.9  17.3  33260  274.51 0865.09
2015 04 09 07 27 52 .64     -21    -19      9     29     31 226.9  17.3  33260  274.51 0865.09
2015 04 09 07 27 52 .89     -23    -26      1     36     37 221.4   2.9  33260  274.53 0865.09
2015 04 09 07 27 53 .14     -22    -23     -1     33     34 223.4  -2.2  33262  274.56 0865.08
2015 04 09 07 27 53 .39     -21    -19      1     29     30 226.9   2.8  33260  274.53 0865.08
2015 04 09 07 27 53 .64     -25    -16     -1     30     31 237.5  -2.2  33260  274.51 0865.08
2015 04 09 07 27 53 .89     -21    -19      1     29     30 226.9   2.8  33260  274.53 0865.08
2015 04 09 07 27 54 .15     -22    -23     -1     33     34 223.4  -2.2  33262  274.56 0865.08
2015 04 09 07 27 54 .39     -25    -20      0     33     34 230.5  -1.2  33264  274.58 0865.08
2015 04 09 07 27 54 .65     -25    -20      0     33     34 230.5  -1.2  33264  274.58 0865.08
2015 04 09 07 27 54 .90     -25    -20      0     33     34 230.5  -1.2  33264  274.58 0865.08
2015 04 09 07 27 55 .15     -19    -18      0     27     28 226.7  -1.3  33268  274.66 0865.08
2015 04 09 07 27 55 .40     -41    -28      2     50     51 235.8   2.9  33268  274.66 0865.08
2015 04 09 07 27 55 .65     -29    -24      1     38     39 230.4   2.9  33258  274.48 0865.08
2015 04 09 07 27 55 .91     -28    -20      3     35     36 234.0   4.9  33262  274.56 0865.08
2015 04 09 07 27 56 .15     -34    -24      2     42     43 234.9   2.9  33266  274.61 0865.08
2015 04 09 07 27 56 .40     -38    -21     -4     44     45 240.2  -5.2  33248  274.31 0865.08
2015 04 09 07 27 56 .65     -44    -25     -3     51     52 240.2  -4.1  33244  274.26 0865.08
2015 04 09 07 27 56 .90     -38    -21     -4     44     45 240.2  -5.2  33248  274.31 0865.08
2015 04 09 07 27 57 .15     -38    -21     -4     44     45 240.2  -5.2  33248  274.31 0865.08
2015 04 09 07 27 57 .40     -38    -21     -4     44     45 240.2  -5.2  33248  274.31 0865.08
2015 04 09 07 27 57 .65     -39    -25     -6     47     48 237.6  -7.3  33246  274.30 0865.08
2015 04 09 07 27 57 .90     -36    -27     -4     45     46 233.1  -5.2  33244  274.26 0865.08
2015 04 09 07 27 58 .15     -41    -24     -1     48     49 239.3  -1.3  33244  274.26 0865.08
2015 04 09 07 27 58 .40     -40    -24     -1     47     48 239.3  -1.3  33244  274.26 0865.08
2015 04 09 07 27 58 .67     -41    -24     -1     48     49 239.3  -1.3  33242  274.21 0865.08
2015 04 09 07 27 58 .92     -34    -24     -1     42     43 234.9  -2.2  33246  274.30 0865.08
2015 04 09 07 27 59 .17     -32    -24     -9     41     43 233.1 -13.4  33248  274.31 0865.08
2015 04 09 07 27 59 .42     -44    -25     -3     51     52 240.2  -4.1  33262  274.56 0865.08
2015 04 09 07 27 59 .67     -41    -27     -1     50     51 236.7  -2.2  33266  274.63 0865.08
2015 04 09 07 27 59 .92     -31    -32      2     45     46 224.2   2.9  33268  274.66 0865.08
2015 04 09 07 28 00 .17     -41    -25     -1     49     50 238.5  -2.2  33260  274.51 0865.08
2015 04 09 07 28 00 .42     -33    -31     -1     46     47 226.0  -2.2  33252  274.39 0865.08
2015 04 09 07 28 00 .68     -34    -32     -7     47     48 226.9  -9.3  33258  274.49 0865.08
2015 04 09 07 28 00 .92     -41    -24     -7     48     49 239.3  -8.2  33270  274.69 0865.08
2015 04 09 07 28 01 .17     -35    -18     -1     40     41 242.9  -2.2  33264  274.59 0865.08
2015 04 09 07 28 01 .42     -42    -20     -1     47     48 243.8  -2.2  33266  274.63 0865.09
2015 04 09 07 28 01 .67     -38    -27      1     47     48 234.0   1.8  33264  274.58 0865.09
2015 04 09 07 28 01 .92     -39    -25     -6     47     48 237.6  -7.3  33260  274.53 0865.09
2015 04 09 07 28 02 .18     -47    -22     -7     53     54 244.6  -8.2  33268  274.66 0865.09
2015 04 09 07 28 02 .42     -42    -15     -4     45     46 250.0  -5.2  33260  274.51 0865.09
2015 04 09 07 28 02 .67     -35    -16     -1     39     40 244.8  -2.2  33254  274.43 0865.09
2015 04 09 07 28 02 .92     -32    -20     -6     39     40 237.6  -9.3  33258  274.49 0865.09
2015 04 09 07 28 03 .18     -29    -24     -3     38     39 230.5  -5.2  33250  274.36 0865.09
2015 04 09 07 28 03 .42     -34    -24     -1     42     43 234.9  -2.2  33248  274.33 0865.09
2015 04 09 07 28 03 .68     -34    -24     -1     42     43 234.9  -2.2  33248  274.33 0865.09
2015 04 09 07 28 03 .93     -32    -20      0     39     40 237.6  -1.3  33250  274.36 0865.09
2015 04 09 07 28 04 .18     -38    -21     -4     44     45 240.2  -5.2  33248  274.31 0865.09
2015 04 09 07 28 04 .43     -35    -28     -5     46     47 231.4  -7.2  33250  274.36 0865.09
2015 04 09 07 28 04 .68     -41    -28     -2     50     51 235.8  -3.1  33252  274.38 0865.09
2015 04 09 07 28 04 .93     -33    -31     -1     46     47 226.0  -2.2  33254  274.43 0865.09
2015 04 09 07 28 05 .18     -37    -28     -4     47     48 233.1  -5.2  33256  274.46 0865.09
2015 04 09 07 28 05 .44     -22    -23     -1     33     34 223.4  -3.2  33254  274.41 0865.09
2015 04 09 07 28 05 .69     -30    -15     -4     34     35 242.9  -7.2  33254  274.41 0865.09
2015 04 09 07 28 05 .94     -33    -15     -1     37     38 244.6  -2.2  33258  274.48 0865.09
2015 04 09 07 28 06 .20     -44    -23     -2     50     51 242.0  -3.1  33262  274.56 0865.09
2015 04 09 07 28 06 .44     -41    -19     -2     46     47 244.7  -3.1  33274  274.74 0865.09
2015 04 09 07 28 06 .69     -42    -20     -1     47     48 243.8  -2.2  33266  274.63 0865.09
2015 04 09 07 28 06 .95     -41    -19     -2     46     47 244.7  -3.1  33270  274.67 0865.09
2015 04 09 07 28 07 .20     -38    -16     -6     42     43 246.5  -9.3  33268  274.64 0865.09
2015 04 09 07 28 07 .44     -43    -12     -1     45     46 254.1  -1.3  33254  274.41 0865.09
2015 04 09 07 28 07 .70     -42    -21     -1     48     49 242.9  -2.2  33246  274.28 0865.08
2015 04 09 07 28 07 .95     -41    -19     -9     46     47 244.7 -11.3  33244  274.26 0865.08
2015 04 09 07 28 08 .20     -41    -19     -9     46     47 244.7 -11.3  33244  274.26 0865.08
2015 04 09 07 28 08 .45     -41    -19     -9     46     47 244.7 -11.3  33244  274.26 0865.08
2015 04 09 07 28 08 .70     -41    -19     -9     46     47 244.7 -11.3  33244  274.26 0865.08
2015 04 09 07 28 08 .96     -44    -17    -13     48     50 249.2 -15.4  33248  274.31 0865.08
2015 04 09 07 28 09 .20     -42    -21     -9     48     49 242.9 -11.3  33268  274.66 0865.08
2015 04 09 07 28 09 .45     -41    -28    -10     50     51 235.8 -11.3  33284  274.91 0865.09
2015 04 09 07 28 09 .70     -42    -15     -4     45     46 250.0  -6.2  33268  274.66 0865.09
2015 04 09 07 28 09 .96     -39    -17     -1     43     44 246.5  -2.2  33262  274.56 0865.09
2015 04 09 07 28 10 .20     -41    -28      2     50     51 235.8   2.9  33268  274.66 0865.09
2015 04 09 07 28 10 .45     -44    -25     -3     51     52 240.2  -4.1  33262  274.56 0865.09
2015 04 09 07 28 10 .70     -49    -18      0     53     54 249.2   0.8  33258  274.49 0865.09
2015 04 09 07 28 10 .96     -42    -21     -9     48     49 242.9 -11.3  33250  274.36 0865.09
2015 04 09 07 28 11 .20     -49    -18     -4     53     54 249.2  -5.2  33262  274.56 0865.09
2015 04 09 07 28 11 .45     -50    -16     -2     53     54 251.4  -2.2  33260  274.51 0865.09
2015 04 09 07 28 11 .70     -43    -12     -1     45     46 254.1  -1.3  33250  274.36 0865.09
2015 04 09 07 28 11 .96     -45    -18     -1     49     50 247.4  -2.2  33250  274.36 0865.09
2015 04 09 07 28 12 .21     -44    -25     -3     51     52 240.2  -4.1  33248  274.31 0865.09
2015 04 09 07 28 12 .47     -38    -21     -4     44     45 240.2  -5.2  33248  274.31 0865.09
2015 04 09 07 28 12 .72     -42    -20     -1     47     48 243.8  -2.2  33248  274.33 0865.09
2015 04 09 07 28 12 .97     -32    -19     -4     38     39 239.3  -7.3  33254  274.43 0865.09
2015 04 09 07 28 13 .22     -39    -11     -9     41     43 253.2 -13.4  33260  274.51 0865.09
2015 04 09 07 28 13 .47     -40    -12     -1     42     43 253.2  -2.2  33258  274.48 0865.09
2015 04 09 07 28 13 .72     -50    -16     -2     53     54 251.4  -2.2  33260  274.51 0865.09
2015 04 09 07 28 13 .97     -37    -10     -6     39     40 254.9  -9.3  33258  274.48 0865.09
2015 04 09 07 28 14 .23     -38    -12     -9     41     43 251.6 -13.4  33256  274.46 0865.09
2015 04 09 07 28 14 .47     -35     -7     -6     36     37 258.5  -9.3  33276  274.79 0865.09
2015 04 09 07 28 14 .73     -31     -3      0     32     33 263.9   0.8  33280  274.84 0865.09
2015 04 09 07 28 14 .97     -35      1     -4     36     37 272.6  -7.3  33268  274.66 0865.09
2015 04 09 07 28 15 .23     -24     -1     -5     25     26 267.4 -11.3  33272  274.72 0865.09
2015 04 09 07 28 15 .47     -16    -11      0     20     21 234.0  -2.2  33284  274.91 0865.09
2015 04 09 07 28 15 .72     -12     -4      0     13     14 251.4  -3.1  33286  274.94 0865.09
2015 04 09 07 28 15 .98      -8    -12     -3     15     16 216.1 -11.3  33290  275.01 0865.09
2015 04 09 07 28 16 .23     -12     -4      0     13     14 251.4  -3.1  33288  274.97 0865.09
2015 04 09 07 28 16 .48     -34      0      1     35     36 269.1   2.8  33280  274.84 0865.09
2015 04 09 07 28 16 .73     -32    -20     -6     39     40 237.5  -9.3  33264  274.58 0865.09
2015 04 09 07 28 16 .98     -38    -21     -4     44     45 240.2  -5.2  33248  274.31 0865.09
2015 04 09 07 28 17 .23     -36    -11     -4     38     39 251.8  -7.3  33260  274.51 0865.09
2015 04 09 07 28 17 .48     -38    -16      0     42     43 246.5  -1.3  33266  274.61 0865.09
2015 04 09 07 28 17 .73     -42    -21     -9     48     49 242.9 -11.3  33254  274.41 0865.09
2015 04 09 07 28 17 .98     -39    -25     -6     47     48 237.6  -7.3  33246  274.30 0865.09
2015 04 09 07 28 18 .23     -42    -20     -1     47     48 243.8  -2.2  33248  274.33 0865.09
2015 04 09 07 28 18 .48     -35    -16     -8     39     40 244.7 -12.4  33250  274.36 0865.09
2015 04 09 07 28 18 .74     -38    -16     -6     42     43 246.5  -9.3  33252  274.38 0865.09
2015 04 09 07 28 18 .98     -27     -9     -3     29     30 251.4  -7.3  33260  274.51 0865.09
2015 04 09 07 28 19 .23     -31    -17      1     36     37 241.1   2.9  33258  274.48 0865.09
2015 04 09 07 28 19 .50     -22    -23     -1     33     34 223.4  -3.2  33274  274.76 0865.09
2015 04 09 07 28 19 .75     -25    -20      0     33     34 230.5  -1.2  33280  274.84 0865.09
2015 04 09 07 28 19 .99     -22    -23      6     33     34 223.4  11.1  33276  274.77 0865.09
2015 04 09 07 28 20 .25     -28    -12      6     31     32 246.5  11.0  33280  274.86 0865.09
2015 04 09 07 28 20 .50     -31    -12      0     34     35 248.3   0.8  33284  274.91 0865.09
2015 04 09 07 28 20 .74     -23      0      0     24     25 269.2  -2.2  33274  274.76 0865.09
2015 04 09 07 28 21 .00     -46     -7     -1     47     48 260.3  -2.2  33248  274.33 0865.09
2015 04 09 07 28 21 .25     -35     -2     -4     36     37 265.6  -7.3  33250  274.36 0865.09
2015 04 09 07 28 21 .50     -42     -7     -3     43     44 259.4  -5.2  33244  274.26 0865.09
2015 04 09 07 28 21 .75     -38     -7     -6     39     40 258.5  -9.3  33246  274.30 0865.09
2015 04 09 07 28 22 .00     -38     -7     -6     39     40 258.5  -9.3  33246  274.30 0865.09
2015 04 09 07 28 22 .26     -38    -12     -9     41     43 251.6 -13.4  33256  274.46 0865.09
2015 04 09 07 28 22 .50     -45    -18     -1     49     50 247.4  -2.2  33272  274.71 0865.09
2015 04 09 07 28 22 .75     -42    -12     -5     44     45 253.2  -7.3  33270  274.67 0865.09
2015 04 09 07 28 23 .00     -47    -15     -1     50     51 251.8  -2.2  33258  274.49 0865.09
2015 04 09 07 28 23 .25     -45    -20     -6     50     51 245.6  -7.3  33254  274.43 0865.09
2015 04 09 07 28 23 .51     -49    -23     -7     55     56 244.7  -7.3  33258  274.49 0865.09
2015 04 09 07 28 23 .75     -44    -25     -3     51     52 240.2  -4.1  33262  274.56 0865.09
2015 04 09 07 28 24 .00     -39    -25     -6     47     48 237.6  -7.3  33264  274.59 0865.08
2015 04 09 07 28 24 .25     -38    -16     -6     42     43 246.5  -9.3  33268  274.64 0865.08
2015 04 09 07 28 24 .50     -38    -16     -1     42     43 246.5  -2.2  33268  274.66 0865.08
2015 04 09 07 28 24 .76     -49    -20      2     54     55 247.4   2.8  33262  274.54 0865.08
2015 04 09 07 28 25 .01     -50    -21     -6     55     56 247.4  -6.2  33254  274.41 0865.08
2015 04 09 07 28 25 .26     -45    -25     -5     52     53 241.1  -6.2  33256  274.46 0865.08
2015 04 09 07 28 25 .51     -41    -24     -7     48     49 239.3  -8.2  33254  274.43 0865.08
2015 04 09 07 28 25 .76     -44    -25     -4     51     52 240.2  -5.2  33254  274.41 0865.08
2015 04 09 07 28 26 .01     -41    -24     -7     48     49 239.3  -8.2  33254  274.43 0865.08
2015 04 09 07 28 26 .26     -41    -24     -1     48     49 239.3  -1.3  33260  274.51 0865.08
2015 04 09 07 28 26 .52     -38    -21     -4     44     45 240.2  -5.2  33266  274.61 0865.08
2015 04 09 07 28 26 .77     -33    -15     -2     37     38 244.6  -3.1  33270  274.69 0865.08
2015 04 09 07 28 27 .02     -31    -17      1     36     37 241.1   2.9  33268  274.64 0865.08
2015 04 09 07 28 27 .27     -32    -20      0     39     40 237.6  -1.3  33268  274.66 0865.08
2015 04 09 07 28 27 .52     -22    -23     -1     33     34 223.4  -3.2  33272  274.71 0865.08
2015 04 09 07 28 27 .77     -37    -16     -6     41     42 246.5  -9.3  33276  274.79 0865.08
2015 04 09 07 28 28 .02     -37    -16     -1     41     42 246.5  -2.2  33278  274.81 0865.08
2015 04 09 07 28 28 .27     -39    -17     -1     43     44 246.5  -2.2  33262  274.56 0865.08
2015 04 09 07 28 28 .52     -42    -21     -9     48     49 242.9 -11.3  33254  274.41 0865.08
2015 04 09 07 28 28 .78     -38    -16     -6     42     43 246.5  -9.3  33252  274.38 0865.08
2015 04 09 07 28 29 .03     -41    -19     -9     46     47 244.7 -11.3  33262  274.56 0865.08
2015 04 09 07 28 29 .28     -39    -11     -1     41     42 253.2  -2.2  33270  274.69 0865.08
2015 04 09 07 28 29 .53     -45    -20     -1     50     51 245.6  -1.3  33278  274.81 0865.08
2015 04 09 07 28 29 .78     -54    -17     -2     57     58 251.8  -2.2  33270  274.67 0865.08
2015 04 09 07 28 30 .03     -51    -17     -1     54     55 251.4  -1.3  33254  274.41 0865.08
2015 04 09 07 28 30 .28     -40    -28      2     49     50 234.9   2.9  33278  274.81 0865.08
2015 04 09 07 28 30 .53     -41    -32      7     53     54 232.2   8.0  33278  274.81 0865.08
2015 04 09 07 28 30 .78     -36    -32      5     49     50 228.7   5.9  33276  274.79 0865.08
2015 04 09 07 28 31 .03     -35    -28      1     45     46 231.4   1.8  33274  274.74 0865.08
2015 04 09 07 28 31 .28     -42    -19     -1     47     48 245.6  -2.2  33258  274.49 0865.08
2015 04 09 07 28 31 .53     -42    -19     -1     47     48 245.6  -2.2  33258  274.49 0865.08
2015 04 09 07 28 31 .78     -50    -21     -6     55     56 247.4  -6.2  33254  274.41 0865.08
2015 04 09 07 28 32 .03     -54    -17     -8     57     58 251.8  -8.2  33248  274.31 0865.08
2015 04 09 07 28 32 .28     -44    -25     -3     51     52 240.2  -4.1  33244  274.26 0865.08
2015 04 09 07 28 32 .53     -54    -25     -7     60     61 244.8  -7.3  33242  274.23 0865.08
2015 04 09 07 28 32 .78     -49    -23     -8     55     56 244.6  -8.2  33242  274.21 0865.08
2015 04 09 07 28 33 .04     -49    -18     -4     53     54 249.2  -5.2  33242  274.21 0865.08
2015 04 09 07 28 33 .30     -45    -18     -6     49     50 247.4  -7.3  33242  274.23 0865.08
2015 04 09 07 28 33 .54     -49    -23     -8     55     56 244.6  -8.2  33242  274.21 0865.08
2015 04 09 07 28 33 .79     -54    -25     -7     60     61 244.8  -7.3  33240  274.18 0865.08
2015 04 09 07 28 34 .05     -54    -25     -7     60     61 244.8  -7.3  33240  274.18 0865.08
2015 04 09 07 28 34 .30     -54    -25     -7     60     61 244.8  -7.3  33242  274.23 0865.08
2015 04 09 07 28 34 .55     -50    -21     -6     55     56 247.4  -6.2  33238  274.16 0865.08
2015 04 09 07 28 34 .80     -50    -21     -6     55     56 247.4  -6.2  33238  274.16 0865.08
2015 04 09 07 28 35 .05     -45    -15     -9     48     49 251.6 -11.3  33248  274.31 0865.08
2015 04 09 07 28 35 .30     -49    -18     -4     53     54 249.2  -5.2  33248  274.31 0865.08
2015 04 09 07 28 35 .55     -41    -19     -9     46     47 244.7 -11.3  33244  274.26 0865.08
2015 04 09 07 28 35 .80     -50    -21     -6     55     56 247.4  -6.2  33254  274.41 0865.08
2015 04 09 07 28 36 .05     -41    -24     -7     48     49 239.3  -8.2  33254  274.43 0865.08
2015 04 09 07 28 36 .30     -41    -24     -7     48     49 239.3  -8.2  33254  274.43 0865.08
2015 04 09 07 28 36 .56     -42    -21     -9     48     49 242.9 -11.3  33256  274.46 0865.09
2015 04 09 07 28 36 .80     -47    -30     -7     56     57 237.6  -7.2  33264  274.59 0865.09
2015 04 09 07 28 37 .05     -38    -21      0     44     45 240.2   0.8  33266  274.63 0865.09
2015 04 09 07 28 37 .31     -39    -25     -1     47     48 237.6  -2.2  33268  274.66 0865.08
2015 04 09 07 28 37 .56     -38    -37     -2     54     55 225.9  -2.2  33268  274.66 0865.08
2015 04 09 07 28 37 .80     -31    -26     -1     41     42 229.6  -2.2  33266  274.61 0865.08
2015 04 09 07 28 38 .06     -36    -32     -1     49     50 228.7  -2.2  33272  274.71 0865.08
2015 04 09 07 28 38 .31     -31    -32      2     45     46 224.2   2.9  33272  274.71 0865.08
2015 04 09 07 28 38 .56     -35    -28      1     45     46 231.4   1.8  33270  274.67 0865.08
2015 04 09 07 28 38 .81     -33    -21      6     40     41 237.6   9.0  33264  274.59 0865.08
2015 04 09 07 28 39 .06     -41    -24     -1     48     49 239.3  -1.3  33262  274.56 0865.08
2015 04 09 07 28 39 .31     -42    -21     -1     48     49 242.9  -2.2  33264  274.58 0865.08
2015 04 09 07 28 39 .56     -35    -28     -4     45     46 231.4  -6.2  33272  274.71 0865.08
2015 04 09 07 28 39 .81     -41    -24     -7     48     49 239.3  -8.2  33270  274.69 0865.08
2015 04 09 07 28 40 .06     -34    -24     -1     42     43 234.9  -2.2  33266  274.63 0865.08
2015 04 09 07 28 40 .32     -38    -21     -4     44     45 240.2  -5.2  33262  274.56 0865.08
2015 04 09 07 28 40 .58     -39    -13      3     42     43 251.6   4.9  33244  274.26 0865.08
2015 04 09 07 28 40 .83     -35    -16      3     39     40 244.7   4.9  33260  274.51 0865.08
2015 04 09 07 28 41 .08     -31    -27      0     42     43 228.7  -1.3  33268  274.66 0865.08
2015 04 09 07 28 41 .32     -22    -23     -1     33     34 223.4  -3.2  33272  274.71 0865.08
2015 04 09 07 28 41 .58     -28    -23      1     37     38 230.5   2.8  33270  274.69 0865.08
2015 04 09 07 28 41 .82     -35    -28      1     45     46 231.4   1.8  33270  274.67 0865.08
2015 04 09 07 28 42 .07     -33    -31      3     46     47 226.0   3.8  33262  274.56 0865.08
2015 04 09 07 28 42 .33     -32    -34     -1     47     48 223.2  -1.3  33242  274.21 0865.08
2015 04 09 07 28 42 .58     -38    -38     -1     54     55 225.0  -1.3  33260  274.51 0865.08
2015 04 09 07 28 42 .83     -47    -29     -7     56     57 238.5  -7.3  33258  274.48 0865.08
2015 04 09 07 28 43 .08     -42    -21     -9     48     49 242.9 -11.3  33250  274.36 0865.08
2015 04 09 07 28 43 .33     -49    -18    -11     53     55 249.2 -12.4  33242  274.23 0865.08
2015 04 09 07 28 43 .58     -45    -12    -11     47     49 254.9 -13.4  33240  274.20 0865.08
2015 04 09 07 28 43 .83     -42    -21     -9     48     49 242.9 -11.3  33254  274.41 0865.08
2015 04 09 07 28 44 .08     -42    -15     -4     45     46 250.0  -5.2  33262  274.56 0865.08
2015 04 09 07 28 44 .33     -36    -11     -4     38     39 251.8  -7.3  33266  274.61 0865.08
2015 04 09 07 28 44 .58     -28    -18     -4     34     35 237.6  -7.3  33262  274.56 0865.08
2015 04 09 07 28 44 .83     -28    -23     -4     37     38 230.5  -7.2  33268  274.66 0865.08
2015 04 09 07 28 45 .08     -20    -20      1     29     30 225.1   2.9  33274  274.74 0865.08
2015 04 09 07 28 45 .33     -33    -24      3     41     42 234.0   4.9  33272  274.71 0865.08
2015 04 09 07 28 45 .58     -32    -20     -1     39     40 237.5  -2.2  33278  274.81 0865.08
2015 04 09 07 28 45 .83     -33    -22      4     40     41 235.8   5.9  33276  274.79 0865.08
2015 04 09 07 28 46 .08     -49    -18     -4     53     54 249.2  -5.2  33248  274.31 0865.08
2015 04 09 07 28 46 .33     -50    -21     -6     55     56 247.4  -6.2  33238  274.16 0865.08
2015 04 09 07 28 46 .58     -54    -25     -7     60     61 244.8  -7.3  33240  274.18 0865.08
2015 04 09 07 28 46 .83     -54    -25     -7     60     61 244.8  -7.3  33240  274.18 0865.08
2015 04 09 07 28 47 .09     -49    -23     -8     55     56 244.6  -8.2  33242  274.21 0865.08
2015 04 09 07 28 47 .35     -51    -29    -12     59     61 240.2 -11.5  33242  274.23 0865.08
2015 04 09 07 28 47 .60     -49    -23     -8     55     56 244.6  -8.2  33242  274.21 0865.08
2015 04 09 07 28 47 .85     -47    -29     -7     56     57 238.5  -7.3  33240  274.18 0865.08
2015 04 09 07 28 48 .10     -43    -27     -2     51     52 237.5  -2.2  33244  274.25 0865.08
2015 04 09 07 28 48 .35     -51    -29    -12     59     61 240.2 -11.5  33242  274.23 0865.08
2015 04 09 07 28 48 .60     -54    -25     -7     60     61 244.8  -7.3  33240  274.18 0865.08
2015 04 09 07 28 48 .85     -49    -23     -8     55     56 244.6  -8.2  33242  274.21 0865.08
2015 04 09 07 28 49 .10     -49    -23     -8     55     56 244.6  -8.2  33242  274.21 0865.08
2015 04 09 07 28 49 .35     -54    -18     -2     58     59 250.9  -2.2  33236  274.13 0865.08
2015 04 09 07 28 49 .60     -53    -19     -2     57     58 250.0  -2.2  33240  274.18 0865.08
2015 04 09 07 28 49 .85     -49    -23     -3     55     56 244.6  -3.1  33238  274.15 0865.08
2015 04 09 07 28 50 .10     -53    -19     -2     57     58 250.0  -2.2  33240  274.18 0865.08
2015 04 09 07 28 50 .35     -54    -25     -7     60     61 244.8  -7.3  33240  274.18 0865.08
2015 04 09 07 28 50 .60     -54    -25     -7     60     61 244.8  -7.3  33240  274.18 0865.08
2015 04 09 07 28 50 .85     -56    -22     -4     61     62 248.3  -4.1  33242  274.21 0865.08
2015 04 09 07 28 51 .11     -47    -29     -7     56     57 238.5  -7.3  33240  274.18 0865.08
2015 04 09 07 28 51 .36     -51    -28     -4     59     60 241.1  -4.1  33238  274.16 0865.08
2015 04 09 07 28 51 .61     -51    -28     -4     59     60 241.1  -4.1  33238  274.16 0865.08
2015 04 09 07 28 51 .86     -47    -29     -7     56     57 238.5  -7.3  33240  274.18 0865.08
2015 04 09 07 28 52 .11     -45    -23     -3     51     52 242.0  -4.1  33242  274.21 0865.08
2015 04 09 07 28 52 .36     -49    -23     -8     55     56 244.6  -8.2  33242  274.21 0865.08
2015 04 09 07 28 52 .61     -49    -23     -8     55     56 244.6  -8.2  33242  274.21 0865.08
2015 04 09 07 28 52 .86     -49    -23     -8     55     56 244.6  -8.2  33242  274.21 0865.08
2015 04 09 07 28 53 .11     -49    -23     -8     55     56 244.6  -8.2  33242  274.21 0865.08
2015 04 09 07 28 53 .36     -49    -23     -8     55     56 244.6  -8.2  33242  274.21 0865.08
2015 04 09 07 28 53 .61     -49    -23     -8     55     56 244.6  -8.2  33242  274.21 0865.07
2015 04 09 07 28 53 .86     -53    -19     -8     57     58 250.0  -8.2  33238  274.16 0865.07
2015 04 09 07 28 54 .12     -49    -23     -8     55     56 244.6  -8.2  33242  274.21 0865.07
2015 04 09 07 28 54 .37     -49    -23     -8     55     56 244.6  -8.2  33242  274.21 0865.07
2015 04 09 07 28 54 .62     -49    -23     -8     55     56 244.6  -8.2  33242  274.21 0865.07
2015 04 09 07 28 54 .87     -49    -23     -8     55     56 244.6  -8.2  33242  274.21 0865.07
2015 04 09 07 28 55 .12     -53    -19     -8     57     58 250.0  -8.2  33238  274.16 0865.07
2015 04 09 07 28 55 .38     -49    -20    -11     54     56 247.4 -11.3  33240  274.18 0865.08
2015 04 09 07 28 55 .63     -54    -25     -7     60     61 244.8  -7.3  33240  274.18 0865.08
2015 04 09 07 28 55 .88     -53    -19     -8     57     58 250.0  -8.2  33238  274.16 0865.08
2015 04 09 07 28 56 .13     -53    -19     -8     57     58 250.0  -8.2  33238  274.16 0865.08
2015 04 09 07 28 56 .38     -50    -21     -6     55     56 247.4  -6.2  33238  274.16 0865.08
2015 04 09 07 28 56 .63     -50    -21     -6     55     56 247.4  -6.2  33238  274.16 0865.08
2015 04 09 07 28 56 .88     -53    -19     -8     57     58 250.0  -8.2  33238  274.16 0865.08
2015 04 09 07 28 57 .13     -49    -20    -11     54     56 247.4 -11.3  33240  274.18 0865.09
2015 04 09 07 28 57 .38     -49    -23     -8     55     56 244.6  -8.2  33242  274.21 0865.09
2015 04 09 07 28 57 .63     -54    -25     -7     60     61 244.8  -7.3  33240  274.18 0865.09
2015 04 09 07 28 57 .88     -54    -25     -7     60     61 244.8  -7.3  33240  274.18 0865.09
2015 04 09 07 28 58 .13     -54    -25     -7     60     61 244.8  -7.3  33240  274.18 0865.09
2015 04 09 07 28 58 .38     -54    -25     -7     60     61 244.8  -7.3  33240  274.18 0865.09
2015 04 09 07 28 58 .63     -49    -18     -4     53     54 249.2  -5.2  33242  274.21 0865.09
2015 04 09 07 28 58 .88     -50    -21     -6     55     56 247.4  -6.2  33238  274.16 0865.09
2015 04 09 07 28 59 .13     -50    -21     -6     55     56 247.4  -6.2  33238  274.16 0865.08
2015 04 09 07 28 59 .38     -54    -15    -11     57     59 254.1 -11.3  33240  274.18 0865.08
2015 04 09 07 28 59 .63     -54    -25     -7     60     61 244.8  -7.3  33240  274.18 0865.08
2015 04 09 07 28 59 .88     -50    -21     -6     55     56 247.4  -6.2  33238  274.16 0865.08
2015 04 09 07 29 00 .14     -54    -25     -7     60     61 244.8  -7.3  33240  274.18 0865.08
2015 04 09 07 29 00 .39     -54    -25     -7     60     61 244.8  -7.3  33240  274.18 0865.08
2015 04 09 07 29 00 .64     -54    -25     -7     60     61 244.8  -7.3  33240  274.18 0865.08
2015 04 09 07 29 00 .89     -54    -25     -7     60     61 244.8  -7.3  33240  274.18 0865.08
2015 04 09 07 29 01 .15     -50    -21     -6     55     56 247.4  -6.2  33238  274.16 0865.08
2015 04 09 07 29 01 .40     -54    -25     -7     60     61 244.8  -7.3  33240  274.18 0865.08
2015 04 09 07 29 01 .65     -54    -25     -7     60     61 244.8  -7.3  33240  274.18 0865.09
2015 04 09 07 29 01 .90     -54    -25     -7     60     61 244.8  -7.3  33240  274.18 0865.09
2015 04 09 07 29 02 .15     -54    -25     -7     60     61 244.8  -7.3  33240  274.18 0865.09
2015 04 09 07 29 02 .40     -54    -25     -7     60     61 244.8  -7.3  33240  274.18 0865.09
2015 04 09 07 29 02 .65     -54    -25     -7     60     61 244.8  -7.3  33240  274.18 0865.08
2015 04 09 07 29 02 .90     -50    -21     -6     55     56 247.4  -6.2  33238  274.16 0865.08
2015 04 09 07 29 03 .15     -54    -17    -11     57     59 252.3 -11.5  33240  274.20 0865.08
2015 04 09 07 29 03 .40     -53    -19     -8     57     58 250.0  -8.2  33238  274.16 0865.08
2015 04 09 07 29 03 .65     -54    -25     -7     60     61 244.8  -7.3  33240  274.18 0865.08
2015 04 09 07 29 03 .90     -54    -25     -7     60     61 244.8  -7.3  33240  274.18 0865.08
2015 04 09 07 29 04 .16     -54    -25     -7     60     61 244.8  -7.3  33240  274.18 0865.08
2015 04 09 07 29 04 .41     -54    -25     -7     60     61 244.8  -7.3  33240  274.18 0865.08
2015 04 09 07 29 04 .66     -50    -21     -6     55     56 247.4  -6.2  33238  274.16 0865.08
2015 04 09 07 29 04 .91     -53    -19     -8     57     58 250.0  -8.2  33238  274.16 0865.08
2015 04 09 07 29 05 .16     -54    -25     -7     60     61 244.8  -7.3  33240  274.18 0865.08
2015 04 09 07 29 05 .41     -54    -25     -7     60     61 244.8  -7.3  33240  274.18 0865.08
2015 04 09 07 29 05 .66     -51    -17     -7     54     55 251.6  -7.3  33238  274.15 0865.08
2015 04 09 07 29 05 .91     -54    -17     -8     57     58 251.8  -8.2  33242  274.21 0865.08
2015 04 09 07 29 06 .16     -54    -17     -8     57     58 251.8  -8.2  33242  274.21 0865.09
2015 04 09 07 29 06 .41     -54    -25     -7     60     61 244.8  -7.3  33240  274.18 0865.09
2015 04 09 07 29 06 .66     -54    -25     -7     60     61 244.8  -7.3  33240  274.18 0865.09
2015 04 09 07 29 06 .91     -45    -18     -6     49     50 247.4  -7.3  33242  274.23 0865.09
2015 04 09 07 29 07 .16     -49    -23     -8     55     56 244.6  -8.2  33242  274.21 0865.09
2015 04 09 07 29 07 .41     -54    -25     -7     60     61 244.8  -7.3  33240  274.18 0865.09
2015 04 09 07 29 07 .66     -54    -25     -7     60     61 244.8  -7.3  33240  274.18 0865.09
2015 04 09 07 29 07 .91     -54    -25     -7     60     61 244.8  -7.3  33240  274.18 0865.09
2015 04 09 07 29 08 .17     -54    -25     -7     60     61 244.8  -7.3  33240  274.18 0865.08
2015 04 09 07 29 08 .42     -54    -25     -7     60     61 244.8  -7.3  33240  274.18 0865.08
2015 04 09 07 29 08 .68     -54    -25     -7     60     61 244.8  -7.3  33240  274.18 0865.08
2015 04 09 07 29 08 .93     -54    -25     -7     60     61 244.8  -7.3  33240  274.18 0865.08
2015 04 09 07 29 09 .18     -53    -19     -8     57     58 250.0  -8.2  33238  274.16 0865.08
2015 04 09 07 29 09 .43     -54    -25     -7     60     61 244.8  -7.3  33240  274.18 0865.08
2015 04 09 07 29 09 .68     -54    -17     -8     57     58 251.8  -8.2  33242  274.21 0865.08
2015 04 09 07 29 09 .93     -54    -25     -7     60     61 244.8  -7.3  33240  274.18 0865.09
2015 04 09 07 29 10 .18     -49    -23     -8     55     56 244.6  -8.2  33242  274.21 0865.09
2015 04 09 07 29 10 .43     -54    -17     -8     57     58 251.8  -8.2  33242  274.21 0865.09
2015 04 09 07 29 10 .68     -54    -17     -8     57     58 251.8  -8.2  33242  274.21 0865.09
2015 04 09 07 29 10 .93     -54    -25     -7     60     61 244.8  -7.3  33240  274.18 0865.09
2015 04 09 07 29 11 .18     -54    -25     -7     60     61 244.8  -7.3  33240  274.18 0865.09
2015 04 09 07 29 11 .43     -54    -25     -7     60     61 244.8  -7.3  33240  274.18 0865.09
2015 04 09 07 29 11 .68     -53    -19     -8     57     58 250.0  -8.2  33238  274.16 0865.09
2015 04 09 07 29 11 .93     -54    -25     -7     60     61 244.8  -7.3  33240  274.18 0865.09
2015 04 09 07 29 12 .18     -54    -25     -7     60     61 244.8  -7.3  33240  274.18 0865.09
2015 04 09 07 29 12 .43     -54    -25     -7     60     61 244.8  -7.3  33240  274.18 0865.09
2015 04 09 07 29 12 .69     -54    -25     -7     60     61 244.8  -7.3  33240  274.18 0865.09
2015 04 09 07 29 12 .94     -51    -22     -7     56     57 246.5  -7.2  33240  274.18 0865.09
2015 04 09 07 29 13 .19     -47    -15     -1     50     51 251.8  -2.2  33240  274.20 0865.09
2015 04 09 07 29 13 .44     -50    -16     -2     53     54 251.4  -2.2  33242  274.21 0865.09
2015 04 09 07 29 13 .69     -49    -18     -4     53     54 249.2  -5.2  33242  274.21 0865.09
2015 04 09 07 29 13 .94     -49    -18     -4     53     54 249.2  -5.2  33242  274.21 0865.09
2015 04 09 07 29 14 .19     -49    -18     -4     53     54 249.2  -5.2  33242  274.21 0865.09
2015 04 09 07 29 14 .44     -50    -21     -6     55     56 247.4  -6.2  33238  274.16 0865.08
2015 04 09 07 29 14 .69     -51    -15     -7     54     55 253.2  -7.3  33244  274.25 0865.08
2015 04 09 07 29 14 .94     -52    -12     -8     54     55 256.7  -9.3  33242  274.21 0865.08
2015 04 09 07 29 15 .20     -54    -17    -11     57     59 252.3 -11.5  33240  274.20 0865.08
2015 04 09 07 29 15 .45     -51    -17     -7     54     55 251.4  -7.3  33240  274.20 0865.08
2015 04 09 07 29 15 .70     -54    -17     -8     57     58 251.8  -8.2  33242  274.21 0865.08
2015 04 09 07 29 15 .95     -54    -17     -8     57     58 251.8  -8.2  33242  274.21 0865.08
2015 04 09 07 29 16 .20     -49    -18    -11     53     55 249.2 -12.4  33242  274.23 0865.09
2015 04 09 07 29 16 .46     -49    -18    -11     53     55 249.2 -12.4  33242  274.23 0865.09
2015 04 09 07 29 16 .71     -53    -19     -8     57     58 250.0  -8.2  33268  274.66 0865.09
2015 04 09 07 29 16 .96     -51    -17     -7     54     55 251.6  -7.3  33270  274.67 0865.09
2015 04 09 07 29 17 .21     -53    -13     -8     55     56 255.8  -8.2  33274  274.76 0865.09
2015 04 09 07 29 17 .45     -58    -13     -7     60     61 256.7  -7.3  33252  274.38 0865.09
2015 04 09 07 29 17 .71     -50     -7     -6     51     52 261.2  -7.3  33240  274.20 0865.09
2015 04 09 07 29 17 .96     -50     -7     -6     51     52 261.2  -7.3  33240  274.20 0865.09
2015 04 09 07 29 18 .21     -51    -17     -7     54     55 251.4  -7.3  33240  274.20 0865.09
2015 04 09 07 29 18 .46     -45    -18     -6     49     50 247.4  -7.3  33246  274.30 0865.09
2015 04 09 07 29 18 .71     -35    -16     -1     39     40 244.8  -2.2  33254  274.43 0865.09
2015 04 09 07 29 18 .96     -32    -20     -1     39     40 237.6  -2.2  33260  274.51 0865.09
2015 04 09 07 29 19 .21     -27     -9     -3     29     30 251.4  -7.3  33266  274.61 0865.09
2015 04 09 07 29 19 .46     -25    -20      0     33     34 230.5  -1.2  33264  274.58 0865.09
2015 04 09 07 29 19 .71     -32    -20      0     39     40 237.6  -1.3  33268  274.66 0865.09
2015 04 09 07 29 19 .96     -44    -25     -4     51     52 240.2  -5.2  33272  274.71 0865.09
2015 04 09 07 29 20 .21     -44     -4      5     45     46 263.9   6.9  33272  274.72 0865.09
2015 04 09 07 29 20 .46     -48    -12     -5     50     51 255.8  -6.2  33242  274.21 0865.09
2015 04 09 07 29 20 .71     -50     -7     -6     51     52 261.2  -7.3  33240  274.20 0865.09
2015 04 09 07 29 20 .96     -46    -12    -12     48     50 254.9 -14.5  33238  274.15 0865.09
2015 04 09 07 29 21 .22     -50     -7     -6     51     52 261.2  -7.3  33240  274.20 0865.09
2015 04 09 07 29 21 .46     -51    -10     -7     53     54 258.5  -8.2  33242  274.21 0865.09
2015 04 09 07 29 21 .72     -54    -17     -8     57     58 251.8  -8.2  33244  274.26 0865.09
2015 04 09 07 29 21 .98     -54    -17     -8     57     58 251.8  -8.2  33248  274.31 0865.09
2015 04 09 07 29 22 .23     -50    -21     -6     55     56 247.4  -6.2  33238  274.16 0865.09
2015 04 09 07 29 22 .48     -50    -21     -6     55     56 247.4  -6.2  33238  274.16 0865.09
2015 04 09 07 29 22 .73     -54    -17     -8     57     58 251.8  -8.2  33242  274.21 0865.09
2015 04 09 07 29 22 .98     -48    -20    -11     53     55 247.4 -12.4  33252  274.39 0865.09
2015 04 09 07 29 23 .23     -35     -3     -9     36     38 263.9 -14.5  33258  274.48 0865.09
2015 04 09 07 29 23 .48     -35    -11     -4     37     38 251.8  -7.2  33268  274.66 0865.09
2015 04 09 07 29 23 .73     -48    -25      2     55     56 242.9   2.9  33274  274.76 0865.09
2015 04 09 07 29 23 .98     -43    -12     -1     45     46 254.1  -1.3  33274  274.76 0865.09
2015 04 09 07 29 24 .23     -39    -13     -2     42     43 251.6  -3.1  33258  274.48 0865.10
2015 04 09 07 29 24 .49     -45    -20     -1     50     51 245.6  -1.3  33266  274.61 0865.10
2015 04 09 07 29 24 .73     -47    -15     -1     50     51 251.8  -2.2  33264  274.59 0865.10
2015 04 09 07 29 24 .98     -53    -11     -2     55     56 257.6  -2.2  33266  274.63 0865.10
2015 04 09 07 29 25 .24     -52     -4     -2     53     54 265.7  -2.2  33264  274.59 0865.10
2015 04 09 07 29 25 .48     -50     -7     -2     51     52 261.2  -2.2  33266  274.61 0865.10
2015 04 09 07 29 25 .74     -42     -7     -3     43     44 259.4  -5.2  33244  274.26 0865.10
2015 04 09 07 29 25 .99     -46     -7     -1     47     48 260.3  -2.2  33260  274.53 0865.10
2015 04 09 07 29 26 .24     -39     -7    -12     40     42 259.4 -16.6  33252  274.39 0865.10
2015 04 09 07 29 26 .49     -41     -9     -4     42     43 257.6  -6.2  33268  274.66 0865.10
2015 04 09 07 29 26 .74     -34      0     -4     35     36 269.1  -7.2  33274  274.76 0865.10
2015 04 09 07 29 26 .99     -35     -2     -4     36     37 265.6  -7.3  33280  274.86 0865.10
2015 04 09 07 29 27 .24     -18    -16     11     25     27 228.7  25.1  33292  275.04 0865.10
2015 04 09 07 29 27 .49     -15     -1      9     16     18 265.7  31.4  33290  275.01 0865.10
2015 04 09 07 29 27 .74     -12    -15      7     20     22 217.8  19.2  33282  274.89 0865.10
2015 04 09 07 29 27 .99      -4     -4     13      7     14 225.0  64.7  33286  274.96 0865.10
2015 04 09 07 29 28 .24     -12    -13     17     18     24 223.4  52.0  33290  275.01 0865.10
2015 04 09 07 29 28 .49     -19    -19     19     27     33 225.0  39.7  33290  275.02 0865.10
2015 04 09 07 29 28 .74     -10    -16      6     19     21 212.6  19.2  33286  274.94 0865.10
2015 04 09 07 29 29 .00     -16    -16      9     23     24 225.0  21.0  33292  275.05 0865.10
2015 04 09 07 29 29 .25      -7     -7      0     10     11 225.0  -2.2  33288  274.99 0865.10
2015 04 09 07 29 29 .50     -10    -22     -1     25     26 205.4  -2.2  33280  274.86 0865.10
2015 04 09 07 29 29 .76     -11    -12     11     17     20 223.4  37.6  33276  274.77 0865.09
2015 04 09 07 29 30 .01     -19     -1      4     20     21 265.6  13.2  33280  274.86 0865.09
2015 04 09 07 29 30 .25     -31     -3     -7     32     33 263.9 -13.4  33262  274.54 0865.09
2015 04 09 07 29 30 .51     -29     -8     -9     31     32 254.9 -21.7  33258  274.49 0865.09
2015 04 09 07 29 30 .76     -39    -13     -2     42     43 251.6  -3.1  33268  274.64 0865.09
2015 04 09 07 29 31 .01     -47    -15     -1     50     51 251.8  -2.2  33252  274.39 0865.09
2015 04 09 07 29 31 .26     -45    -20     -6     50     51 245.6  -7.3  33252  274.39 0865.09
2015 04 09 07 29 31 .51     -45    -18     -6     49     50 247.4  -7.3  33258  274.49 0865.09
2015 04 09 07 29 31 .76     -46    -15    -10     49     51 251.8 -12.4  33256  274.46 0865.09
2015 04 09 07 29 32 .01     -42    -16    -11     46     48 248.3 -13.4  33272  274.72 0865.09
2015 04 09 07 29 32 .26     -43     -3     -6     44     45 265.6  -8.2  33274  274.74 0865.09
2015 04 09 07 29 32 .51     -39     -4     -1     40     41 263.0  -2.2  33288  274.99 0865.09
2015 04 09 07 29 32 .76     -27     -9      9     29     31 251.4  17.3  33292  275.05 0865.09
2015 04 09 07 29 33 .01     -21     -3      0     22     23 260.3   0.8  33290  275.02 0865.09
2015 04 09 07 29 33 .26     -15     -8      0     18     19 241.1   2.9  33284  274.92 0865.10
2015 04 09 07 29 33 .51     -21     -4     -4     22     23 258.5 -11.3  33284  274.91 0865.10
2015 04 09 07 29 33 .77     -28    -13    -11     31     33 244.7 -19.7  33288  274.97 0865.10
2015 04 09 07 29 34 .01     -18    -13      0     23     24 234.0  -2.2  33292  275.05 0865.10
2015 04 09 07 29 34 .26     -23    -13      1     27     28 239.3   2.9  33288  274.97 0865.10
2015 04 09 07 29 34 .51     -32      0      4     33     34 269.2   6.9  33268  274.66 0865.10
2015 04 09 07 29 34 .77     -39    -17     -1     43     44 246.5  -2.2  33244  274.26 0865.10
2015 04 09 07 29 35 .02     -40    -13     -1     43     44 252.3  -2.2  33242  274.23 0865.09
2015 04 09 07 29 35 .27     -38    -21     -4     44     45 240.2  -5.2  33248  274.31 0865.09
2015 04 09 07 29 35 .52     -51    -15     -7     54     55 253.2  -7.3  33246  274.28 0865.09
2015 04 09 07 29 35 .77     -51    -15     -7     54     55 253.2  -7.3  33246  274.28 0865.09
2015 04 09 07 29 36 .03     -48    -12     -5     50     51 255.8  -6.2  33248  274.31 0865.09
2015 04 09 07 29 36 .28     -49    -18     -4     53     54 249.2  -5.2  33248  274.31 0865.09
2015 04 09 07 29 36 .53     -47    -15     -1     50     51 251.8  -2.2  33258  274.49 0865.09
2015 04 09 07 29 36 .79     -44    -13     -1     46     47 253.2  -2.2  33266  274.61 0865.09
2015 04 09 07 29 37 .03     -38    -16     -1     42     43 246.5  -2.2  33268  274.66 0865.09
2015 04 09 07 29 37 .28     -25    -20      4     33     34 230.5   6.9  33268  274.66 0865.09
2015 04 09 07 29 37 .53     -30    -17      1     35     36 239.3   2.8  33278  274.82 0865.09
2015 04 09 07 29 37 .78     -35    -11     -4     37     38 251.8  -7.2  33274  274.76 0865.09
2015 04 09 07 29 38 .04     -25    -16     -5     30     31 237.6  -9.3  33278  274.82 0865.09
2015 04 09 07 29 38 .29     -17    -18     -1     25     26 223.2  -2.2  33284  274.91 0865.09
2015 04 09 07 29 38 .53     -18    -16     11     25     27 228.7  25.1  33288  274.99 0865.09
2015 04 09 07 29 38 .79     -27    -23      1     36     37 228.7   2.8  33292  275.04 0865.09
2015 04 09 07 29 39 .04     -29      2     -1     30     31 274.3  -2.2  33296  275.10 0865.09
2015 04 09 07 29 39 .29     -33    -11     -9     35     37 251.4 -15.5  33276  274.77 0865.09
2015 04 09 07 29 39 .54     -39    -17     -1     43     44 245.6  -2.2  33286  274.96 0865.09
2015 04 09 07 29 39 .79     -42     -7     -3     43     44 259.4  -5.2  33250  274.36 0865.09
2015 04 09 07 29 40 .04     -40    -13     -1     43     44 252.3  -2.2  33242  274.23 0865.09
2015 04 09 07 29 40 .29     -39    -25     -6     47     48 237.6  -7.3  33246  274.30 0865.09
2015 04 09 07 29 40 .54     -38    -21     -4     44     45 240.2  -5.2  33248  274.31 0865.09
2015 04 09 07 29 40 .79     -39    -25     -6     47     48 237.6  -7.3  33246  274.30 0865.09
2015 04 09 07 29 41 .04     -39    -25     -6     47     48 237.6  -7.3  33246  274.30 0865.09
2015 04 09 07 29 41 .29     -34    -24     -1     42     43 234.9  -2.2  33248  274.33 0865.09
2015 04 09 07 29 41 .54     -35    -19      1     41     42 241.1   1.8  33252  274.38 0865.09
2015 04 09 07 29 41 .79     -36    -20     -4     42     43 241.1  -6.2  33256  274.46 0865.09
2015 04 09 07 29 42 .04     -34    -24     -1     42     43 234.9  -2.2  33258  274.49 0865.09
2015 04 09 07 29 42 .29     -28    -20      3     35     36 234.0   4.9  33266  274.61 0865.09
2015 04 09 07 29 42 .54     -31    -27      6     42     43 228.7   9.0  33268  274.64 0865.09
2015 04 09 07 29 42 .80     -29    -30      9     43     45 224.1  12.2  33266  274.61 0865.09
2015 04 09 07 29 43 .06     -29    -30      0     43     44 224.1   0.8  33268  274.64 0865.09
2015 04 09 07 29 43 .31     -29    -30      9     42     43 224.1  12.2  33272  274.71 0865.09
2015 04 09 07 29 43 .56     -19    -19      9     28     30 225.1  19.4  33278  274.81 0865.09
2015 04 09 07 29 43 .81     -14    -19     17     24     29 216.1  37.6  33280  274.86 0865.09
2015 04 09 07 29 44 .06     -17    -26     20     32     37 212.5  35.5  33276  274.77 0865.09
2015 04 09 07 29 44 .31     -19    -14     13     24     27 234.0  31.4  33290  275.01 0865.09
2015 04 09 07 29 44 .56     -25    -18     -1     31     32 234.0  -2.2  33288  274.97 0865.09
2015 04 09 07 29 44 .81     -25    -20      4     33     34 230.5   6.9  33290  275.01 0865.09
2015 04 09 07 29 45 .06     -18    -13      0     23     24 234.0  -2.2  33296  275.12 0865.09
2015 04 09 07 29 45 .31     -16     -3      5     17     18 258.5  18.9  33294  275.09 0865.09
2015 04 09 07 29 45 .56     -13     -4     11     14     17 251.4  43.7  33300  275.19 0865.09
2015 04 09 07 29 45 .81     -16     -3      5     17     18 258.5  18.9  33272  274.72 0865.09
2015 04 09 07 29 46 .06     -23     -7      0     25     26 251.6  -1.3  33268  274.66 0865.09
2015 04 09 07 29 46 .32     -33     -3    -12     34     37 263.9 -19.7  33282  274.87 0865.09
2015 04 09 07 29 46 .56     -37     -7     -1     38     39 258.5  -2.2  33286  274.96 0865.09
2015 04 09 07 29 46 .82     -28    -23      8     37     39 230.5  13.2  33280  274.86 0865.09
2015 04 09 07 29 47 .07     -33    -15      1     37     38 244.6   2.9  33278  274.81 0865.09
2015 04 09 07 29 47 .31     -42     -9     -4     44     45 257.6  -5.2  33260  274.51 0865.09
2015 04 09 07 29 47 .57     -52     -4     -8     53     54 265.6  -9.3  33250  274.36 0865.09
2015 04 09 07 29 47 .81     -56     -6     -5     57     58 263.0  -5.2  33254  274.41 0865.08
2015 04 09 07 29 48 .07     -57     -7     -9     58     59 263.0  -9.3  33244  274.26 0865.08
2015 04 09 07 29 48 .32     -52     -4     -8     53     54 265.6  -9.3  33244  274.26 0865.08
2015 04 09 07 29 48 .57     -54      0     -5     55     56 269.2  -5.2  33248  274.31 0865.08
2015 04 09 07 29 48 .82     -46      0     -1     47     48 269.2  -2.2  33248  274.33 0865.08
2015 04 09 07 29 49 .07     -42     -7     -3     43     44 259.4  -5.2  33262  274.56 0865.08
2015 04 09 07 29 49 .33     -26    -20     -6     34     35 232.2 -11.3  33280  274.86 0865.08
2015 04 09 07 29 49 .57     -35    -28     -5     46     47 231.4  -7.2  33290  275.01 0865.08
2015 04 09 07 29 49 .83     -48    -15     -2     51     52 251.8  -2.2  33282  274.89 0865.08
2015 04 09 07 29 50 .08     -47    -15     -1     50     51 251.8  -2.2  33258  274.49 0865.08
2015 04 09 07 29 50 .33     -43    -12     -1     45     46 254.1  -1.3  33256  274.46 0865.08
2015 04 09 07 29 50 .58     -44    -20      4     49     50 244.7   4.9  33256  274.46 0865.08
2015 04 09 07 29 50 .83     -41    -24     -1     48     49 239.3  -1.3  33260  274.51 0865.08
2015 04 09 07 29 51 .08     -36    -24      2     44     45 235.8   3.8  33262  274.56 0865.08
2015 04 09 07 29 51 .34     -26    -11     -1     29     30 246.5  -3.1  33270  274.69 0865.09
2015 04 09 07 29 51 .58     -30    -12     -1     33     34 248.3  -2.2  33274  274.76 0865.09
2015 04 09 07 29 51 .83     -28    -13      2     31     32 244.7   4.9  33272  274.71 0865.09
2015 04 09 07 29 52 .09     -22     -5     -3     23     24 256.7  -9.3  33274  274.76 0865.09
2015 04 09 07 29 52 .34     -35     -2     -4     36     37 265.6  -7.3  33280  274.86 0865.08
2015 04 09 07 29 52 .58     -21     -4      2     22     23 258.5   6.9  33280  274.84 0865.08
2015 04 09 07 29 52 .84     -11     -8      6     14     15 234.0  23.0  33282  274.89 0865.08
2015 04 09 07 29 53 .09     -13     -1      0     14     15 265.6   2.9  33282  274.89 0865.08
2015 04 09 07 29 53 .34     -24    -14     -3     28     29 239.3  -7.3  33284  274.91 0865.08
2015 04 09 07 29 53 .59     -33    -15      1     37     38 244.6   2.9  33282  274.87 0865.08
2015 04 09 07 29 53 .84     -33    -24     -1     41     42 234.0  -2.2  33270  274.67 0865.08
2015 04 09 07 29 54 .09     -39    -25     -1     47     48 237.6  -2.2  33272  274.71 0865.09
2015 04 09 07 29 54 .34     -34    -24     -1     42     43 234.9  -2.2  33258  274.49 0865.09
2015 04 09 07 29 54 .59     -36    -20      1     42     43 241.1   1.8  33254  274.43 0865.09
2015 04 09 07 29 54 .85     -35    -19      1     41     42 241.1   1.8  33252  274.38 0865.09
2015 04 09 07 29 55 .10     -25    -20      4     33     34 230.5   6.9  33268  274.66 0865.09
2015 04 09 07 29 55 .34     -31    -26     -1     41     42 229.6  -2.2  33280  274.86 0865.09
2015 04 09 07 29 55 .59     -26    -22     11     35     37 230.4  17.3  33286  274.96 0865.09
2015 04 09 07 29 55 .85     -23    -24      9     34     36 223.2  15.3  33286  274.96 0865.09
2015 04 09 07 29 56 .10     -18    -22     10     29     31 219.7  19.4  33294  275.09 0865.09
2015 04 09 07 29 56 .34     -19    -19     12     27     29 225.0  23.0  33296  275.10 0865.09
2015 04 09 07 29 56 .60     -24    -16      5     30     31 235.8  11.1  33294  275.09 0865.09
2015 04 09 07 29 56 .86     -28     -9     -3     30     31 251.4  -7.3  33292  275.05 0865.09
2015 04 09 07 29 57 .11     -35    -16     -2     39     40 244.7  -3.1  33286  274.94 0865.09
2015 04 09 07 29 57 .36     -25     -4     -2     26     27 260.3  -5.2  33294  275.09 0865.09
2015 04 09 07 29 57 .61     -30     -6     -6     31     32 258.6 -11.3  33294  275.09 0865.09
2015 04 09 07 29 57 .86     -40    -12      3     42     43 253.2   4.9  33274  274.76 0865.09
2015 04 09 07 29 58 .11     -36    -20     -4     42     43 241.1  -6.2  33254  274.41 0865.09
2015 04 09 07 29 58 .36     -36    -11     -4     38     39 251.8  -7.3  33254  274.41 0865.09
2015 04 09 07 29 58 .61     -38    -12     -2     40     41 251.8  -4.1  33262  274.54 0865.09
2015 04 09 07 29 58 .86     -32    -15    -10     36     38 244.6 -15.4  33268  274.66 0865.09
2015 04 09 07 29 59 .11     -30    -17     -4     35     36 239.3  -7.2  33278  274.81 0865.09
2015 04 09 07 29 59 .36     -26    -11     -1     29     30 246.5  -3.1  33276  274.77 0865.09
2015 04 09 07 29 59 .61     -22    -14      1     27     28 237.6   2.8  33270  274.69 0865.09
2015 04 09 07 29 59 .87     -18    -12      7     22     24 235.8  19.4  33280  274.84 0865.09
2015 04 09 07 30 00 .11     -12     -4      4     13     14 251.4  19.2  33292  275.05 0865.09
2015 04 09 07 30 00 .37     -13     -4     11     14     17 251.4  43.7  33288  274.99 0865.09
2015 04 09 07 30 00 .62     -16     -3     13     17     21 258.5  41.7  33296  275.10 0865.09
2015 04 09 07 30 00 .87     -20     -8     11     22     24 246.5  27.2  33310  275.34 0865.09
2015 04 09 07 30 01 .11     -25     -4      4     26     27 260.3   9.0  33284  274.91 0865.09
2015 04 09 07 30 01 .37     -19      0      0     20     21 269.2  -2.2  33276  274.79 0865.09
2015 04 09 07 30 01 .62     -27      0     -3     28     29 269.2  -7.2  33262  274.56 0865.09
2015 04 09 07 30 01 .87     -19     -1      4     20     21 265.6  13.2  33274  274.76 0865.09
2015 04 09 07 30 02 .12     -25     -4     -2     26     27 260.3  -5.2  33258  274.48 0865.09
2015 04 09 07 30 02 .37     -27     -9     -3     29     30 251.4  -7.3  33262  274.56 0865.09
2015 04 09 07 30 02 .62     -26    -11     -1     29     30 246.5  -3.1  33270  274.69 0865.09
2015 04 09 07 30 02 .87     -27     -9     -3     29     30 251.4  -7.3  33280  274.86 0865.09
2015 04 09 07 30 03 .12     -14    -19      4     24     25 216.1  11.1  33292  275.05 0865.09
2015 04 09 07 30 03 .37     -19    -15     -1     25     26 230.5  -2.2  33288  274.99 0865.09
2015 04 09 07 30 03 .62     -31    -17      1     36     37 241.1   2.9  33286  274.94 0865.09
2015 04 09 07 30 03 .88     -32    -20     -1     39     40 237.5  -2.2  33284  274.91 0865.09
2015 04 09 07 30 04 .14     -39    -17     -1     43     44 245.6  -2.2  33284  274.91 0865.09
2015 04 09 07 30 04 .38     -44    -22     -1     50     51 242.9  -2.2  33284  274.92 0865.09
2015 04 09 07 30 04 .64     -45    -20     -6     50     51 245.6  -7.3  33270  274.69 0865.09
2015 04 09 07 30 04 .89     -45    -20     -6     50     51 245.6  -7.3  33272  274.72 0865.09
2015 04 09 07 30 05 .14     -32    -20     -6     39     40 237.5  -9.3  33280  274.84 0865.09
2015 04 09 07 30 05 .39     -42    -21     -2     48     49 242.9  -3.1  33288  274.99 0865.09
2015 04 09 07 30 05 .64     -39    -13     -2     42     43 251.6  -3.1  33286  274.94 0865.09
2015 04 09 07 30 05 .89     -36    -12    -11     38     40 251.6 -16.6  33282  274.89 0865.09
2015 04 09 07 30 06 .14     -29      0     -8     30     32 269.2 -15.5  33274  274.76 0865.09
2015 04 09 07 30 06 .39     -30     -5     -1     31     32 260.3  -2.2  33290  275.01 0865.09
2015 04 09 07 30 06 .64     -22    -23     -1     33     34 223.4  -2.2  33298  275.15 0865.09
2015 04 09 07 30 06 .89     -27     -9      1     29     30 251.4   2.8  33298  275.14 0865.09
2015 04 09 07 30 07 .14     -31     -9      0     33     34 253.2  -1.2  33294  275.09 0865.09
2015 04 09 07 30 07 .39     -32    -20     -1     39     40 237.6  -2.2  33298  275.15 0865.09
2015 04 09 07 30 07 .64     -38    -16     -1     42     43 246.5  -2.2  33296  275.10 0865.09
2015 04 09 07 30 07 .89     -32    -20     -1     39     40 237.5  -2.2  33290  275.01 0865.09
2015 04 09 07 30 08 .14     -32    -20     -6     39     40 237.5  -9.3  33294  275.09 0865.09
2015 04 09 07 30 08 .39     -27    -12     -8     30     32 244.6 -15.5  33302  275.20 0865.09
2015 04 09 07 30 08 .64     -21     -4     -4     22     23 258.5 -11.3  33304  275.25 0865.09
2015 04 09 07 30 08 .89     -36      2     -4     37     38 274.4  -7.3  33298  275.14 0865.09
2015 04 09 07 30 09 .15     -32      0      0     33     34 269.2  -1.2  33300  275.19 0865.09
2015 04 09 07 30 09 .39     -37    -16      5     41     42 246.5   8.0  33286  274.94 0865.09
2015 04 09 07 30 09 .64     -40    -12      3     42     43 253.2   4.9  33272  274.71 0865.09
2015 04 09 07 30 09 .90     -45    -20     -1     50     51 245.6  -1.3  33262  274.56 0865.09
2015 04 09 07 30 10 .15     -39    -16     -5     43     44 247.4  -7.3  33252  274.38 0865.08
2015 04 09 07 30 10 .40     -38    -16     -6     42     43 246.5  -9.3  33250  274.34 0865.08
2015 04 09 07 30 10 .67     -38    -12     -9     41     43 251.6 -13.4  33254  274.41 0865.08
2015 04 09 07 30 10 .91     -45    -14     -9     48     49 251.8 -11.3  33268  274.66 0865.08
2015 04 09 07 30 11 .16     -49    -20    -11     54     56 247.4 -11.3  33256  274.44 0865.08
2015 04 09 07 30 11 .41     -45    -12    -11     47     49 254.9 -13.4  33248  274.33 0865.08
2015 04 09 07 30 11 .66     -45    -14     -9     48     49 251.8 -11.3  33250  274.36 0865.08
2015 04 09 07 30 11 .91     -44     -6     -9     45     46 261.2 -11.3  33250  274.36 0865.08
2015 04 09 07 30 12 .16     -43     -4     -6     44     45 263.9  -8.2  33248  274.33 0865.09
2015 04 09 07 30 12 .41     -43     -4     -6     44     45 263.9  -8.2  33248  274.33 0865.09
2015 04 09 07 30 12 .66     -44     -6     -9     45     46 261.2 -11.3  33250  274.36 0865.09
2015 04 09 07 30 12 .91     -52    -12     -8     54     55 256.7  -9.3  33248  274.31 0865.09
2015 04 09 07 30 13 .16     -52    -12     -8     54     55 256.7  -9.3  33248  274.31 0865.09
2015 04 09 07 30 13 .41     -51    -15     -7     54     55 253.2  -7.3  33246  274.28 0865.09
2015 04 09 07 30 13 .66     -52    -12     -8     54     55 256.7  -9.3  33248  274.31 0865.09
2015 04 09 07 30 13 .91     -52    -12     -8     54     55 256.7  -9.3  33248  274.31 0865.08
2015 04 09 07 30 14 .16     -52    -12     -8     54     55 256.7  -9.3  33248  274.31 0865.08
2015 04 09 07 30 14 .42     -46    -11    -10     48     50 255.8 -12.4  33246  274.28 0865.08
2015 04 09 07 30 14 .67     -45    -14    -16     48     51 251.8 -18.7  33250  274.34 0865.08
2015 04 09 07 30 14 .92     -38    -16     -6     42     43 246.5  -9.3  33258  274.48 0865.08
2015 04 09 07 30 15 .17     -38    -16     -6     42     43 246.5  -9.3  33268  274.64 0865.08
2015 04 09 07 30 15 .42     -38    -16     -6     42     43 246.5  -9.3  33268  274.64 0865.08
2015 04 09 07 30 15 .67     -38    -16     -6     42     43 246.5  -9.3  33268  274.64 0865.08
2015 04 09 07 30 15 .92     -35    -34     -5     49     50 225.9  -6.2  33272  274.71 0865.08
2015 04 09 07 30 16 .18     -47    -22     -7     53     54 244.6  -8.2  33286  274.96 0865.08
2015 04 09 07 30 16 .42     -47    -16     -2     50     51 250.9  -3.1  33304  275.24 0865.08
2015 04 09 07 30 16 .67     -47    -12     -5     49     50 254.9  -6.2  33298  275.15 0865.08
2015 04 09 07 30 16 .92     -38    -21      0     44     45 240.2   0.8  33292  275.04 0865.08
2015 04 09 07 30 17 .18     -35    -18     11     40     42 242.9  15.3  33292  275.04 0865.08
2015 04 09 07 30 17 .42     -35     -3      1     36     37 263.9   2.8  33294  275.09 0865.07
2015 04 09 07 30 17 .68     -33    -15     -2     37     38 244.6  -3.1  33292  275.04 0865.07
2015 04 09 07 30 17 .94     -32    -20     -6     39     40 237.5  -9.3  33298  275.14 0865.07
2015 04 09 07 30 18 .19     -27     -9     -3     29     30 251.4  -7.3  33302  275.20 0865.07
2015 04 09 07 30 18 .44     -33    -10     -1     35     36 253.2  -3.1  33300  275.19 0865.07
2015 04 09 07 30 18 .69     -31      4     -1     32     33 277.9  -3.1  33294  275.09 0865.07
2015 04 09 07 30 18 .94     -37     -4    -10     38     40 263.0 -14.5  33290  275.01 0865.07
2015 04 09 07 30 19 .18     -37    -15     -1     41     42 247.4  -2.2  33284  274.91 0865.08
2015 04 09 07 30 19 .44     -38     -7     -5     39     40 258.5  -8.2  33264  274.58 0865.08
2015 04 09 07 30 19 .70     -40    -14     -3     43     44 250.9  -4.1  33272  274.71 0865.08
2015 04 09 07 30 19 .94     -37    -15     -1     41     42 247.4  -2.2  33272  274.71 0865.08
2015 04 09 07 30 20 .19     -32    -15    -10     36     38 244.6 -15.4  33256  274.46 0865.08
2015 04 09 07 30 20 .45     -32    -20     -6     39     40 237.6  -9.3  33276  274.79 0865.08
2015 04 09 07 30 20 .69     -28    -18     -4     34     35 237.6  -7.3  33280  274.86 0865.08
2015 04 09 07 30 20 .94     -32    -15    -10     36     38 244.7 -15.4  33280  274.84 0865.08
2015 04 09 07 30 21 .19     -23     -7     -6     25     26 251.6 -13.4  33278  274.82 0865.09
2015 04 09 07 30 21 .44     -33     -6     -6     34     35 258.5 -11.3  33276  274.79 0865.09
2015 04 09 07 30 21 .69     -37     -7     -1     38     39 258.5  -2.2  33272  274.71 0865.09
2015 04 09 07 30 21 .94     -41     -7      0     42     43 259.4  -0.3  33278  274.82 0865.09
2015 04 09 07 30 22 .20     -47    -15      2     50     51 251.8   2.8  33286  274.96 0865.09
2015 04 09 07 30 22 .45     -42    -15     -4     45     46 250.0  -6.2  33272  274.71 0865.09
2015 04 09 07 30 22 .70     -42    -16      0     46     47 248.3  -0.3  33298  275.14 0865.09
2015 04 09 07 30 22 .95     -35    -19     -4     41     42 241.1  -6.2  33272  274.71 0865.08
2015 04 09 07 30 23 .20     -33    -15     -2     37     38 244.6  -3.1  33276  274.79 0865.08
2015 04 09 07 30 23 .45     -35    -16     -1     39     40 244.8  -2.2  33270  274.69 0865.08
2015 04 09 07 30 23 .70     -38    -21      0     44     45 240.2   0.8  33266  274.63 0865.08
2015 04 09 07 30 23 .95     -36    -20     -4     42     43 241.1  -6.2  33254  274.41 0865.08
2015 04 09 07 30 24 .20     -36    -12     -3     38     39 251.6  -5.2  33254  274.41 0865.08
2015 04 09 07 30 24 .45     -36    -20     -4     42     43 241.1  -6.2  33256  274.46 0865.08
2015 04 09 07 30 24 .71     -35    -18     -1     40     41 242.9  -2.2  33264  274.59 0865.08
2015 04 09 07 30 24 .96     -37     -7     -1     38     39 258.5  -2.2  33268  274.66 0865.08
2015 04 09 07 30 25 .21     -36    -12      0     38     39 251.6   0.8  33274  274.74 0865.08
2015 04 09 07 30 25 .46     -28    -13      2     31     32 244.7   4.9  33272  274.71 0865.08
2015 04 09 07 30 25 .71     -17    -17      8     25     27 225.0  17.3  33270  274.69 0865.08
2015 04 09 07 30 25 .96     -23    -24     14     34     36 223.4  23.0  33280  274.86 0865.08
2015 04 09 07 30 26 .21     -23    -24      9     34     36 223.2  15.3  33286  274.96 0865.08
2015 04 09 07 30 26 .47     -23    -24      6     34     35 223.4  11.1  33288  274.99 0865.08
2015 04 09 07 30 26 .72     -24    -16      5     30     31 235.8  11.1  33294  275.09 0865.08
2015 04 09 07 30 26 .97     -17    -17      8     25     27 225.0  17.3  33300  275.17 0865.08
2015 04 09 07 30 27 .22     -28    -13      3     31     32 244.6   6.9  33300  275.17 0865.08
2015 04 09 07 30 27 .47     -23     -7     -1     25     26 251.8  -2.2  33302  275.20 0865.09
2015 04 09 07 30 27 .72     -16    -16      8     23     25 225.0  19.2  33306  275.27 0865.09
2015 04 09 07 30 27 .97     -19    -14     13     24     27 234.0  31.4  33302  275.20 0865.09
2015 04 09 07 30 28 .22     -11    -17     13     21     24 214.3  35.5  33302  275.20 0865.09
2015 04 09 07 30 28 .47     -20     -7     -1     22     23 250.0  -3.1  33304  275.24 0865.09
2015 04 09 07 30 28 .72     -19     -7     -1     21     22 248.3  -3.1  33304  275.24 0865.09
2015 04 09 07 30 28 .97     -24    -14     -3     28     29 239.3  -7.3  33298  275.15 0865.09
2015 04 09 07 30 29 .22     -27     -2     -3     28     29 265.7  -7.3  33298  275.15 0865.09
2015 04 09 07 30 29 .47     -29     -5     -8     30     32 260.3 -15.4  33300  275.19 0865.09
2015 04 09 07 30 29 .72     -30      0     -6     31     32 270.8 -11.3  33276  274.79 0865.09
2015 04 09 07 30 29 .97     -24     -2     -9     25     27 263.9 -19.7  33262  274.56 0865.09
2015 04 09 07 30 30 .22     -28     -9    -10     30     31 251.4 -23.6  33264  274.59 0865.09
2015 04 09 07 30 30 .47     -25    -11     -8     28     30 244.7 -15.5  33268  274.66 0865.09
2015 04 09 07 30 30 .72     -17    -11     -6     21     23 235.8 -17.6  33276  274.79 0865.09
2015 04 09 07 30 30 .98     -18    -18      0     26     27 225.0   0.8  33274  274.76 0865.09
2015 04 09 07 30 31 .23     -20    -20      1     29     30 225.1   2.9  33276  274.77 0865.09
2015 04 09 07 30 31 .48     -22    -23     -1     33     34 223.4  -2.2  33280  274.86 0865.09
2015 04 09 07 30 31 .74     -22    -23     -1     33     34 223.4  -2.2  33280  274.86 0865.09
2015 04 09 07 30 31 .99     -22    -23      6     33     34 223.4  11.1  33288  274.99 0865.09
2015 04 09 07 30 32 .24     -19    -15      3     25     26 230.5   6.9  33298  275.15 0865.09
2015 04 09 07 30 32 .49     -31    -12      0     34     35 248.3   0.8  33302  275.20 0865.09
2015 04 09 07 30 32 .74     -30    -13     -1     33     34 246.5  -2.2  33296  275.10 0865.09
2015 04 09 07 30 32 .99     -29    -24     -4     38     39 230.4  -7.3  33304  275.25 0865.09
2015 04 09 07 30 33 .24     -29    -24      1     38     39 230.4   2.9  33306  275.29 0865.09
2015 04 09 07 30 33 .49     -35    -16     -2     39     40 244.7  -3.1  33306  275.29 0865.09
2015 04 09 07 30 33 .74     -37     -7     -7     38     39 258.5 -11.3  33294  275.09 0865.09
2015 04 09 07 30 33 .99     -39    -17     -7     43     44 246.5  -9.3  33286  274.94 0865.09
2015 04 09 07 30 34 .24     -29    -15     -4     33     34 242.9  -7.3  33280  274.86 0865.09
2015 04 09 07 30 34 .49     -28    -13     -1     31     32 244.7  -2.2  33292  275.04 0865.09
2015 04 09 07 30 34 .74     -25    -16     -1     30     31 237.5  -2.2  33290  275.02 0865.09
2015 04 09 07 30 34 .99     -21    -21      0     30     31 225.1   0.8  33292  275.04 0865.09
2015 04 09 07 30 35 .24     -19    -15      3     25     26 230.5   6.9  33298  275.15 0865.09
2015 04 09 07 30 35 .49     -19    -23      2     31     32 219.7   4.9  33296  275.10 0865.09
2015 04 09 07 30 35 .75     -23    -19     -3     30     31 230.4  -7.3  33296  275.10 0865.09
2015 04 09 07 30 35 .99     -24    -16     -1     30     31 235.8  -2.2  33294  275.07 0865.09
2015 04 09 07 30 36 .25     -18    -18     -1     26     27 225.0  -2.2  33298  275.15 0865.09
2015 04 09 07 30 36 .50     -19    -23     10     30     32 219.7  19.2  33300  275.19 0865.09
2015 04 09 07 30 36 .75     -28    -18     -4     34     35 237.6  -7.3  33302  275.20 0865.09
2015 04 09 07 30 37 .00     -32    -20     -1     39     40 237.6  -2.2  33298  275.15 0865.09
2015 04 09 07 30 37 .25     -29    -20      4     36     37 235.8   6.9  33286  274.96 0865.09
2015 04 09 07 30 37 .50     -22    -23      6     33     34 223.4  11.1  33280  274.84 0865.09
2015 04 09 07 30 37 .75     -25    -30     -1     40     41 219.6  -2.2  33262  274.56 0865.09
2015 04 09 07 30 38 .00     -26    -26      4     38     39 225.0   5.9  33266  274.61 0865.09
2015 04 09 07 30 38 .25     -22    -25      6     34     35 221.4  11.1  33272  274.71 0865.09
2015 04 09 07 30 38 .51     -29    -21     17     36     39 234.0  26.2  33292  275.05 0865.09
2015 04 09 07 30 38 .76     -24    -24     11     34     37 225.1  18.9  33286  274.94 0865.09
2015 04 09 07 30 39 .01     -33    -25      3     42     43 233.1   4.9  33290  275.01 0865.09
2015 04 09 07 30 39 .26     -38    -21      0     44     45 240.2   0.8  33288  274.99 0865.09
2015 04 09 07 30 39 .51     -51    -19     -5     55     56 249.2  -5.2  33286  274.96 0865.09
2015 04 09 07 30 39 .77     -34     -4      9     35     37 262.1  15.3  33286  274.96 0865.09
2015 04 09 07 30 40 .01     -43    -12     -1     45     46 254.1  -1.3  33268  274.66 0865.09
2015 04 09 07 30 40 .27     -45    -25     -5     52     53 241.1  -6.2  33256  274.46 0865.09
2015 04 09 07 30 40 .52     -42    -19     -1     47     48 245.6  -2.2  33258  274.49 0865.09
2015 04 09 07 30 40 .77     -41    -24     -7     48     49 239.3  -8.2  33254  274.43 0865.09
2015 04 09 07 30 41 .02     -45    -25     -5     52     53 241.1  -6.2  33256  274.46 0865.09
2015 04 09 07 30 41 .27     -45    -23     -3     51     52 242.0  -4.1  33260  274.51 0865.09
2015 04 09 07 30 41 .52     -42    -21     -9     48     49 242.9 -11.3  33254  274.41 0865.09
2015 04 09 07 30 41 .77     -42    -21     -9     48     49 242.9 -11.3  33254  274.41 0865.09
2015 04 09 07 30 42 .02     -43    -27     -2     51     52 237.5  -2.2  33262  274.54 0865.09
2015 04 09 07 30 42 .27     -37    -28     -4     47     48 233.1  -5.2  33256  274.46 0865.09
2015 04 09 07 30 42 .52     -34    -24     -1     42     43 234.9  -2.2  33264  274.59 0865.09
2015 04 09 07 30 42 .77     -41    -24      5     48     49 239.3   6.9  33264  274.58 0865.09
2015 04 09 07 30 43 .02     -36    -27      0     45     46 233.1   0.8  33266  274.63 0865.09
2015 04 09 07 30 43 .27     -40    -35      2     54     55 228.7   2.9  33274  274.76 0865.09
2015 04 09 07 30 43 .52     -35    -28      8     46     47 231.4  10.1  33278  274.81 0865.09
2015 04 09 07 30 43 .77     -33    -22      4     40     41 235.8   5.9  33268  274.66 0865.09
2015 04 09 07 30 44 .02     -32    -20     -1     39     40 237.6  -2.2  33262  274.56 0865.09
2015 04 09 07 30 44 .27     -32    -20     -1     39     40 237.6  -2.2  33262  274.56 0865.09
2015 04 09 07 30 44 .52     -32    -20     -1     39     40 237.6  -2.2  33262  274.56 0865.09
2015 04 09 07 30 44 .78     -25    -25     -3     36     37 225.0  -5.2  33262  274.54 0865.09
2015 04 09 07 30 45 .03     -26    -11      3     29     30 246.5   6.9  33266  274.61 0865.09
2015 04 09 07 30 45 .28     -20    -20     10     29     31 225.0  18.9  33268  274.64 0865.09
2015 04 09 07 30 45 .54     -25    -25      4     36     37 225.0   6.9  33268  274.66 0865.09
2015 04 09 07 30 45 .79     -25    -20      4     33     34 230.5   6.9  33272  274.71 0865.09
2015 04 09 07 30 46 .04     -23    -16      5     29     30 235.8  11.1  33276  274.79 0865.09
2015 04 09 07 30 46 .29     -23    -16      5     29     30 235.8  11.1  33276  274.79 0865.09
2015 04 09 07 30 46 .54     -28    -13     -1     31     32 244.7  -2.2  33278  274.82 0865.09
2015 04 09 07 30 46 .79     -16    -16      9     23     24 225.0  21.0  33286  274.96 0865.09
2015 04 09 07 30 47 .04     -16    -12      7     21     23 232.2  19.4  33292  275.04 0865.09
2015 04 09 07 30 47 .29     -22     -1      7     23     25 265.6  17.3  33294  275.09 0865.09
2015 04 09 07 30 47 .54     -15     -7     -3     17     18 244.7 -11.3  33296  275.10 0865.09
2015 04 09 07 30 47 .79      -8     -8      6     12     13 225.0  27.2  33296  275.10 0865.09
2015 04 09 07 30 48 .04      -8    -11      9     14     16 216.1  35.5  33296  275.10 0865.09
2015 04 09 07 30 48 .29     -11     -8     20     14     24 234.0  60.5  33300  275.19 0865.09
2015 04 09 07 30 48 .54     -10      0     14     11     17 265.6  56.4  33304  275.25 0865.09
2015 04 09 07 30 48 .80     -12      4      7     13     14 288.2  35.5  33312  275.39 0865.09
2015 04 09 07 30 49 .04     -13      0      8     14     16 269.2  35.5  33320  275.52 0865.09
2015 04 09 07 30 49 .30     -22     -1      7     23     25 265.6  17.3  33306  275.29 0865.09
2015 04 09 07 30 49 .55     -14     -1      1     15     16 265.6   6.9  33292  275.04 0865.09
2015 04 09 07 30 49 .80     -11    -16     -6     20     21 216.1 -17.6  33294  275.09 0865.09
2015 04 09 07 30 50 .05      -8    -12     -3     15     16 216.1 -11.3  33298  275.15 0865.09
2015 04 09 07 30 50 .30     -18    -13      0     23     24 234.0  -2.2  33308  275.32 0865.09
2015 04 09 07 30 50 .55     -17    -11      7     21     23 235.8  19.4  33302  275.22 0865.09
2015 04 09 07 30 50 .80     -25     -4      2     26     27 260.3   4.9  33296  275.10 0865.09
2015 04 09 07 30 51 .05     -32    -10     -1     34     35 251.8  -2.2  33260  274.51 0865.09
2015 04 09 07 30 51 .30     -26    -11     -1     29     30 246.5  -3.1  33264  274.58 0865.09
2015 04 09 07 30 51 .55     -25    -16     -1     30     31 237.5  -2.2  33272  274.71 0865.09
2015 04 09 07 30 51 .80     -29    -24      1     38     39 230.5   2.9  33272  274.72 0865.09
2015 04 09 07 30 52 .05     -38    -21     -4     44     45 240.2  -5.2  33266  274.61 0865.09
2015 04 09 07 30 52 .31     -36    -21     -4     42     43 239.3  -6.2  33268  274.66 0865.09
2015 04 09 07 30 52 .56     -32    -20     -1     39     40 237.6  -2.2  33266  274.61 0865.09
2015 04 09 07 30 52 .81     -39    -25     -1     47     48 237.6  -2.2  33266  274.61 0865.09
2015 04 09 07 30 53 .06     -36    -24      2     44     45 235.8   3.8  33262  274.56 0865.09
2015 04 09 07 30 53 .32     -34    -24      2     42     43 234.9   2.9  33266  274.61 0865.09
2015 04 09 07 30 53 .56     -38    -27      1     47     48 234.0   1.8  33264  274.58 0865.09
2015 04 09 07 30 53 .82     -32    -30     -1     45     46 226.9  -2.2  33260  274.53 0865.09
2015 04 09 07 30 54 .07     -31    -26     -1     41     42 229.6  -2.2  33262  274.56 0865.09
2015 04 09 07 30 54 .32     -35    -19      1     41     42 241.1   1.8  33276  274.79 0865.09
2015 04 09 07 30 54 .57     -33    -24     -1     41     42 234.0  -2.2  33274  274.74 0865.10
2015 04 09 07 30 54 .82     -28    -23     -4     37     38 230.5  -7.2  33276  274.77 0865.10
2015 04 09 07 30 55 .07     -34    -24      2     42     43 234.9   2.9  33284  274.91 0865.10
2015 04 09 07 30 55 .32     -39    -25     -1     47     48 237.6  -2.2  33278  274.82 0865.10
2015 04 09 07 30 55 .57     -32    -16      1     37     38 242.9   2.9  33282  274.87 0865.10
2015 04 09 07 30 55 .82     -23     -7      0     25     26 251.6  -1.3  33280  274.86 0865.10
2015 04 09 07 30 56 .07     -19    -15      3     25     26 230.5   6.9  33278  274.81 0865.10
2015 04 09 07 30 56 .32     -16    -16      9     23     24 225.0  21.0  33284  274.92 0865.10
2015 04 09 07 30 56 .57     -21    -19      9     29     31 226.9  17.3  33292  275.05 0865.10
2015 04 09 07 30 56 .82     -18    -16     18     25     30 228.7  39.7  33286  274.96 0865.10
2015 04 09 07 30 57 .08     -22    -23     11     33     35 223.4  18.9  33292  275.05 0865.10
2015 04 09 07 30 57 .32     -14    -18     11     24     26 217.8  25.1  33294  275.09 0865.10
2015 04 09 07 30 57 .57     -11    -17     13     21     24 214.3  35.5  33306  275.27 0865.10
2015 04 09 07 30 57 .82     -10     -8      0     14     15 230.5  -2.2  33304  275.25 0865.10
2015 04 09 07 30 58 .08     -14     -1     -3     15     16 265.6 -11.3  33298  275.15 0865.10
2015 04 09 07 30 58 .33      -6      0     -7      7      9 265.6 -54.5  33292  275.05 0865.10
2015 04 09 07 30 58 .58     -11     -3      0     12     13 251.8  -2.2  33298  275.14 0865.10
2015 04 09 07 30 58 .83     -11    -16      0     20     21 214.3  -2.2  33302  275.22 0865.10
2015 04 09 07 30 59 .08      -2     -2      0      4      5 225.0  -2.2  33314  275.42 0865.10
2015 04 09 07 30 59 .34      -4     -4      7      7      9 225.0  50.1  33312  275.39 0865.10
2015 04 09 07 30 59 .59      -8    -20     15     22     26 203.6  35.6  33310  275.34 0865.10
2015 04 09 07 30 59 .84      -8    -12     16     15     21 212.6  50.1  33318  275.48 0865.10
2015 04 09 07 31 00 .09     -16    -12     13     21     24 234.0  35.5  33330  275.67 0865.10
2015 04 09 07 31 00 .34     -30     -3      6     31     32 263.9  11.1  33328  275.63 0865.10
2015 04 09 07 31 00 .59     -35     -3      1     36     37 263.9   2.8  33288  274.99 0865.10
2015 04 09 07 31 00 .84     -31    -12      0     34     35 248.3   0.8  33266  274.61 0865.10
2015 04 09 07 31 01 .09     -36    -11     -4     38     39 251.8  -7.3  33260  274.51 0865.10
2015 04 09 07 31 01 .35     -48    -16     -9     51     52 251.6 -10.3  33260  274.51 0865.10
2015 04 09 07 31 01 .60     -45    -18     -6     49     50 247.4  -7.3  33264  274.59 0865.10
2015 04 09 07 31 01 .84     -40    -13     -9     43     45 251.6 -12.4  33264  274.58 0865.10
2015 04 09 07 31 02 .10     -35    -11    -11     37     39 251.8 -17.6  33270  274.69 0865.10
2015 04 09 07 31 02 .35     -32    -15    -10     36     38 244.6 -15.4  33278  274.81 0865.10
2015 04 09 07 31 02 .59     -39     -7    -12     40     42 259.4 -16.6  33274  274.74 0865.10
2015 04 09 07 31 02 .85     -44     -2     -9     45     46 267.4 -11.3  33298  275.15 0865.10
2015 04 09 07 31 03 .10     -50      0    -10     51     53 270.8 -11.3  33302  275.20 0865.10
2015 04 09 07 31 03 .35     -40    -13      3     43     44 252.3   4.9  33296  275.10 0865.10
2015 04 09 07 31 03 .60     -43     -4      5     44     45 263.9   6.9  33294  275.07 0865.10
2015 04 09 07 31 03 .85     -53    -33     -2     63     64 237.6  -2.2  33278  274.81 0865.10
2015 04 09 07 31 04 .10     -44    -36     -2     58     59 230.5  -2.2  33274  274.76 0865.10
2015 04 09 07 31 04 .35     -50    -32      3     60     61 237.5   2.9  33272  274.71 0865.10
2015 04 09 07 31 04 .60     -50    -21      1     55     56 247.4   1.8  33266  274.63 0865.10
2015 04 09 07 31 04 .85     -41    -27     -1     50     51 236.7  -2.2  33266  274.63 0865.10
2015 04 09 07 31 05 .10     -52    -29     -5     60     61 240.2  -5.2  33274  274.76 0865.10
2015 04 09 07 31 05 .35     -47    -30     -2     56     57 237.6  -2.2  33274  274.76 0865.10
2015 04 09 07 31 05 .60     -41    -32      0     53     54 232.2   0.8  33274  274.74 0865.10
2015 04 09 07 31 05 .86     -41    -14      2     44     45 250.9   2.8  33274  274.74 0865.10
2015 04 09 07 31 06 .10     -33    -15      1     37     38 244.6   2.9  33278  274.81 0865.10
2015 04 09 07 31 06 .37     -35    -19      1     41     42 241.1   1.8  33274  274.74 0865.10
2015 04 09 07 31 06 .62     -33    -38     10     51     52 220.5  11.1  33276  274.79 0865.10
2015 04 09 07 31 06 .87     -37    -44     20     58     62 219.7  19.4  33276  274.77 0865.10
2015 04 09 07 31 07 .12     -46    -47      9     66     67 224.2   8.0  33286  274.94 0865.09
2015 04 09 07 31 07 .37     -55    -37      9     67     68 235.8   8.0  33288  274.99 0865.09
2015 04 09 07 31 07 .62     -47    -45      3     66     67 225.9   2.8  33298  275.15 0865.09
2015 04 09 07 31 07 .87     -53    -49      8     73     74 226.8   6.9  33292  275.04 0865.09
2015 04 09 07 31 08 .12     -42    -54     -1     69     70 217.8  -1.2  33280  274.84 0865.09
2015 04 09 07 31 08 .37     -38    -46      5     61     62 219.6   4.9  33276  274.79 0865.09
2015 04 09 07 31 08 .62     -34    -53      3     64     65 212.5   2.9  33272  274.71 0865.09
2015 04 09 07 31 08 .87     -43    -45      7     63     64 223.2   6.9  33268  274.66 0865.09
2015 04 09 07 31 09 .13     -40    -48      8     63     64 219.6   8.0  33276  274.79 0865.09
2015 04 09 07 31 09 .37     -42    -45      7     62     63 223.2   6.9  33286  274.96 0865.09
2015 04 09 07 31 09 .62     -37    -45     11     59     61 219.7  11.1  33280  274.86 0865.09
2015 04 09 07 31 09 .87     -41    -50      8     65     66 219.6   7.1  33280  274.84 0865.09
2015 04 09 07 31 10 .12     -41    -42     10     59     60 224.1  10.1  33282  274.89 0865.09
2015 04 09 07 31 10 .38     -34    -41     14     54     56 219.7  15.3  33282  274.89 0865.09
2015 04 09 07 31 10 .63     -40    -38      5     56     57 226.9   5.9  33288  274.97 0865.09
2015 04 09 07 31 10 .87     -44    -36      6     58     59 230.5   5.9  33272  274.72 0865.09
2015 04 09 07 31 11 .13     -43    -41      9     60     61 225.9   9.0  33274  274.74 0865.09
2015 04 09 07 31 11 .38     -41    -38      6     57     58 226.9   6.9  33272  274.71 0865.09
2015 04 09 07 31 11 .63     -41    -38      6     57     58 226.9   6.9  33272  274.71 0865.09
2015 04 09 07 31 11 .88     -43    -34      4     56     57 231.4   4.9  33264  274.59 0865.09
2015 04 09 07 31 12 .13     -40    -38      1     56     57 226.9   1.8  33258  274.48 0865.09
2015 04 09 07 31 12 .38     -50    -36      0     63     64 234.0   0.8  33270  274.69 0865.09
2015 04 09 07 31 12 .63     -39    -34      2     52     53 228.7   2.9  33266  274.61 0865.09
2015 04 09 07 31 12 .88     -39    -34      2     52     53 228.7   2.9  33266  274.61 0865.09
2015 04 09 07 31 13 .14     -44    -36      6     58     59 230.5   5.9  33276  274.79 0865.09
2015 04 09 07 31 13 .39     -43    -36      3     57     58 230.5   3.8  33286  274.94 0865.09
2015 04 09 07 31 13 .64     -46    -33      2     57     58 234.0   2.8  33290  275.02 0865.09
2015 04 09 07 31 13 .89     -40    -35      2     54     55 228.7   2.9  33292  275.05 0865.09
2015 04 09 07 31 14 .14     -41    -32      0     53     54 232.2   0.8  33292  275.04 0865.09
2015 04 09 07 31 14 .39     -30    -34     12     46     48 221.4  15.3  33284  274.91 0865.09
2015 04 09 07 31 14 .64     -28    -43     16     52     55 212.6  17.3  33276  274.79 0865.09
2015 04 09 07 31 14 .90     -32    -40     11     52     54 218.7  12.2  33280  274.86 0865.09
2015 04 09 07 31 15 .15     -31    -41     14     52     54 217.0  15.3  33274  274.76 0865.09
2015 04 09 07 31 15 .40     -36    -38     18     53     57 224.1  19.4  33292  275.05 0865.09
2015 04 09 07 31 15 .65     -39    -40     17     57     60 224.1  17.3  33290  275.01 0865.09
2015 04 09 07 31 15 .90     -37    -37     12     53     55 225.0  13.2  33290  275.02 0865.09
2015 04 09 07 31 16 .15     -25    -34     11     43     45 217.0  14.3  33282  274.89 0865.09
2015 04 09 07 31 16 .40     -21    -40     15     46     49 208.1  18.4  33282  274.89 0865.09
2015 04 09 07 31 16 .65     -20    -38     17     44     47 208.1  21.0  33280  274.86 0865.09
2015 04 09 07 31 16 .90     -17    -36     20     40     44 205.5  29.3  33282  274.89 0865.09
2015 04 09 07 31 17 .15     -19    -31     17     37     40 212.6  26.2  33280  274.86 0865.09
2015 04 09 07 31 17 .40     -19    -31     18     37     41 212.5  27.2  33284  274.91 0865.09
2015 04 09 07 31 17 .65     -23    -36     16     43     45 212.5  20.0  33288  274.99 0865.09
2015 04 09 07 31 17 .90     -14    -27     18     31     35 207.2  35.5  33286  274.96 0865.09
2015 04 09 07 31 18 .15     -18    -26     19     32     37 214.3  35.5  33286  274.94 0865.09
2015 04 09 07 31 18 .41     -12    -20     24     24     33 212.5  50.1  33298  275.14 0865.09
2015 04 09 07 31 18 .65     -18    -14     18     24     30 232.2  41.7  33304  275.25 0865.09
2015 04 09 07 31 18 .90     -20    -16     24     26     35 230.5  50.0  33300  275.19 0865.09
2015 04 09 07 31 19 .15     -27    -27     17     39     42 225.0  25.1  33296  275.12 0865.09
2015 04 09 07 31 19 .41     -28    -23      8     37     39 230.5  13.2  33298  275.15 0865.09
2015 04 09 07 31 19 .65     -27    -27     17     39     42 225.0  25.1  33296  275.12 0865.09
2015 04 09 07 31 19 .90     -33    -32     17     47     49 226.0  20.0  33294  275.07 0865.09
2015 04 09 07 31 20 .17     -32    -31     11     45     47 226.0  14.3  33298  275.14 0865.09
2015 04 09 07 31 20 .42     -29    -24      6     38     39 230.4  10.1  33296  275.10 0865.09
2015 04 09 07 31 20 .67     -26    -26      9     38     40 225.0  13.2  33292  275.04 0865.09
2015 04 09 07 31 20 .92     -40    -35      2     54     55 228.7   2.9  33292  275.05 0865.09
2015 04 09 07 31 21 .17     -31    -35     -1     47     48 221.4  -2.2  33292  275.05 0865.09
2015 04 09 07 31 21 .42     -27    -28      1     39     40 224.1   1.8  33294  275.07 0865.09
2015 04 09 07 31 21 .67     -33    -25      3     42     43 233.1   4.9  33290  275.01 0865.09
2015 04 09 07 31 21 .92     -36    -32     -1     49     50 228.7  -2.2  33290  275.01 0865.09
2015 04 09 07 31 22 .17     -36    -32      5     49     50 228.7   5.9  33294  275.09 0865.09
2015 04 09 07 31 22 .42     -34    -35      7     49     50 224.2   9.0  33292  275.05 0865.09
2015 04 09 07 31 22 .67     -40    -35      8     54     55 228.7   9.0  33288  274.99 0865.09
2015 04 09 07 31 22 .93     -31    -28     26     42     49 227.8  35.5  33292  275.05 0865.09
2015 04 09 07 31 23 .17     -35    -24     17     43     46 234.9  22.0  33294  275.07 0865.09
2015 04 09 07 31 23 .42     -35    -28      8     46     47 231.4  10.1  33296  275.10 0865.09
2015 04 09 07 31 23 .67     -31    -27      6     42     43 228.7   9.0  33286  274.94 0865.09
2015 04 09 07 31 23 .92     -26    -34      2     43     44 217.8   2.9  33274  274.76 0865.09
2015 04 09 07 31 24 .18     -30    -26      6     40     41 228.7   9.0  33276  274.79 0865.09
2015 04 09 07 31 24 .43     -23    -26     16     35     38 221.4  25.1  33288  274.99 0865.09
2015 04 09 07 31 24 .68     -27    -39     15     48     51 215.2  17.3  33288  274.99 0865.09
2015 04 09 07 31 24 .93     -31    -35      4     47     48 221.4   5.9  33280  274.84 0865.09
2015 04 09 07 31 25 .18     -31    -32      2     45     46 224.2   2.9  33274  274.76 0865.08
2015 04 09 07 31 25 .43     -38    -38      4     54     55 225.0   4.9  33274  274.74 0865.08
2015 04 09 07 31 25 .68     -32    -31     11     45     47 226.0  14.3  33280  274.84 0865.08
2015 04 09 07 31 25 .93     -33    -38     10     51     52 220.5  11.1  33270  274.67 0865.08
2015 04 09 07 31 26 .18     -39    -35     10     53     55 227.8  11.0  33280  274.84 0865.08
2015 04 09 07 31 26 .44     -38    -36     12     53     55 225.9  13.2  33294  275.07 0865.08
2015 04 09 07 31 26 .68     -38    -38      4     54     55 225.0   4.9  33292  275.04 0865.08
2015 04 09 07 31 26 .93     -38    -38      4     54     55 225.0   4.9  33276  274.79 0865.09
2015 04 09 07 31 27 .19     -40    -38      1     56     57 226.9   1.8  33268  274.64 0865.09
2015 04 09 07 31 27 .45     -40    -38      0     56     57 226.9  -0.3  33286  274.94 0865.09
2015 04 09 07 31 27 .69     -40    -38      5     56     57 226.9   5.9  33290  275.01 0865.09
2015 04 09 07 31 27 .95     -47    -39      1     62     63 230.4   1.8  33292  275.05 0865.09
2015 04 09 07 31 28 .20     -39    -35      2     53     54 227.8   2.8  33284  274.92 0865.09
2015 04 09 07 31 28 .45     -39    -41      2     57     58 223.2   2.9  33284  274.91 0865.09
2015 04 09 07 31 28 .70     -29    -30      0     43     44 224.1  -0.3  33286  274.94 0865.09
2015 04 09 07 31 28 .95     -32    -39      2     51     52 219.6   2.9  33282  274.87 0865.09
2015 04 09 07 31 29 .20     -28    -37      8     47     48 217.0  10.1  33280  274.86 0865.09
2015 04 09 07 31 29 .45     -24    -44     13     51     53 208.1  14.3  33282  274.87 0865.09
2015 04 09 07 31 29 .70     -23    -45     13     51     53 207.2  14.3  33284  274.92 0865.09
2015 04 09 07 31 29 .95     -19    -38     11     43     45 206.3  14.3  33286  274.94 0865.09
2015 04 09 07 31 30 .20     -23    -36     14     43     46 212.5  18.4  33286  274.94 0865.09
2015 04 09 07 31 30 .45     -32    -28     19     43     47 228.7  25.1  33284  274.92 0865.09
2015 04 09 07 31 30 .70     -23    -30     20     39     43 217.8  28.2  33286  274.94 0865.09
2015 04 09 07 31 30 .95     -15    -31     21     35     40 207.2  34.4  33296  275.10 0865.09
2015 04 09 07 31 31 .21     -16    -35     13     39     42 205.5  19.2  33286  274.96 0865.09
2015 04 09 07 31 31 .45     -25    -20     11     33     35 230.5  19.4  33294  275.09 0865.09
2015 04 09 07 31 31 .70     -22    -23      6     33     34 223.4  11.1  33292  275.04 0865.09
2015 04 09 07 31 31 .95     -36    -32      4     49     50 228.7   4.9  33286  274.94 0865.09
2015 04 09 07 31 32 .20     -28    -31      9     42     43 222.3  12.2  33280  274.86 0865.09
2015 04 09 07 31 32 .46     -25    -34     11     43     45 217.0  14.3  33282  274.89 0865.09
2015 04 09 07 31 32 .71     -36    -32     12     49     51 228.7  14.3  33280  274.86 0865.09
2015 04 09 07 31 32 .95     -25    -40     16     48     51 212.5  18.9  33274  274.76 0865.09
2015 04 09 07 31 33 .21     -27    -35     15     45     48 217.8  19.2  33278  274.82 0865.09
2015 04 09 07 31 33 .46     -25    -34     11     43     45 217.0  14.3  33282  274.89 0865.09
2015 04 09 07 31 33 .71     -26    -26     24     37     44 225.0  36.5  33282  274.87 0865.09
2015 04 09 07 31 33 .96     -26    -26     24     37     44 225.0  36.5  33286  274.94 0865.09
2015 04 09 07 31 34 .22     -27    -26     30     38     48 226.7  42.7  33292  275.05 0865.08
2015 04 09 07 31 34 .47     -25    -20     11     33     35 230.5  19.4  33292  275.04 0865.08
2015 04 09 07 31 34 .72     -25    -25      4     36     37 225.0   6.9  33284  274.91 0865.08
2015 04 09 07 31 34 .97     -27    -26     24     38     44 226.7  35.5  33282  274.89 0865.08
2015 04 09 07 31 35 .22     -29    -30     22     43     48 224.1  29.3  33280  274.86 0865.08
2015 04 09 07 31 35 .47     -25    -46     26     53     59 209.0  27.2  33274  274.76 0865.08
2015 04 09 07 31 35 .72     -23    -42     28     49     56 209.0  33.5  33274  274.74 0865.08
2015 04 09 07 31 35 .98     -15    -31     22     35     41 207.2  35.5  33278  274.81 0865.09
2015 04 09 07 31 36 .22     -26    -31     26     41     48 219.6  35.5  33278  274.81 0865.09
2015 04 09 07 31 36 .47     -28    -35     24     45     51 218.7  30.3  33276  274.77 0865.09
2015 04 09 07 31 36 .73     -25    -30      6     40     41 219.6   9.0  33268  274.64 0865.09
2015 04 09 07 31 36 .98     -31    -32      2     45     46 224.2   2.9  33274  274.76 0865.09
2015 04 09 07 31 37 .23     -32    -34      4     47     48 223.2   5.9  33274  274.74 0865.09
2015 04 09 07 31 37 .48     -36    -32     12     49     51 228.7  14.3  33280  274.86 0865.09
2015 04 09 07 31 37 .73     -32    -31     11     45     47 226.0  14.3  33280  274.84 0865.09
2015 04 09 07 31 37 .98     -31    -32      2     45     46 224.2   2.9  33272  274.71 0865.09
2015 04 09 07 31 38 .23     -36    -27      0     45     46 233.1   0.8  33280  274.84 0865.09
2015 04 09 07 31 38 .48     -36    -32      4     49     50 228.7   4.9  33286  274.94 0865.09
2015 04 09 07 31 38 .73     -35    -35      0     50     51 225.0  -0.3  33298  275.14 0865.09
2015 04 09 07 31 38 .98     -31    -27      6     42     43 228.7   9.0  33298  275.14 0865.09
2015 04 09 07 31 39 .23     -31    -26     13     41     44 229.6  18.4  33292  275.05 0865.09
2015 04 09 07 31 39 .49     -22    -26      6     35     36 219.7  11.1  33290  275.01 0865.09
2015 04 09 07 31 39 .73     -41    -32      0     53     54 232.2   0.8  33286  274.94 0865.09
2015 04 09 07 31 39 .98     -35    -34      6     49     50 225.9   8.0  33284  274.91 0865.09
2015 04 09 07 31 40 .23     -35    -35      0     50     51 225.0  -0.3  33290  275.02 0865.09
2015 04 09 07 31 40 .48     -36    -32      5     49     50 228.7   5.9  33294  275.09 0865.09
2015 04 09 07 31 40 .73     -26    -36     17     45     48 216.1  20.0  33286  274.96 0865.09
2015 04 09 07 31 40 .98     -31    -32      9     45     47 224.2  12.2  33286  274.94 0865.09
2015 04 09 07 31 41 .24     -34    -34     16     49     52 225.0  18.4  33286  274.94 0865.09
2015 04 09 07 31 41 .50     -32    -36     17     49     53 222.3  19.4  33278  274.81 0865.09
2015 04 09 07 31 41 .75     -30    -34     12     46     48 221.4  15.3  33286  274.96 0865.09
2015 04 09 07 31 42 .00     -31    -32      9     45     47 224.2  12.2  33286  274.94 0865.09
2015 04 09 07 31 42 .25     -24    -30     13     39     42 219.6  19.4  33280  274.86 0865.10
2015 04 09 07 31 42 .50     -31    -32      9     45     47 224.2  12.2  33286  274.94 0865.10
2015 04 09 07 31 42 .75     -15    -31     16     35     38 207.2  25.1  33288  274.99 0865.10
2015 04 09 07 31 43 .00     -22    -26      6     35     36 219.7  11.1  33290  275.01 0865.10
2015 04 09 07 31 43 .25     -23    -24      9     34     36 223.2  15.3  33286  274.96 0865.10
2015 04 09 07 31 43 .50     -13    -21      8     25     27 212.6  19.2  33290  275.01 0865.10
2015 04 09 07 31 43 .75     -21    -19      9     29     31 226.9  17.3  33284  274.91 0865.10
2015 04 09 07 31 44 .00     -18    -26     14     32     34 214.3  27.1  33284  274.91 0865.09
2015 04 09 07 31 44 .25     -23    -23      5     33     34 225.0   9.0  33294  275.09 0865.09
2015 04 09 07 31 44 .50     -18    -22     10     29     31 219.6  18.9  33294  275.09 0865.09
2015 04 09 07 31 44 .75     -28    -35     15     45     48 218.7  18.9  33296  275.10 0865.09
2015 04 09 07 31 45 .00     -22    -34     14     41     44 213.4  18.9  33294  275.09 0865.09
2015 04 09 07 31 45 .25     -11    -35      1     37     38 198.3   2.9  33290  275.02 0865.09
2015 04 09 07 31 45 .51     -23    -35      0     42     43 213.4  -0.3  33288  274.99 0865.09
2015 04 09 07 31 45 .76     -19    -30     -3     36     37 212.5  -5.2  33288  274.99 0865.09
2015 04 09 07 31 46 .01     -15    -23      1     28     29 214.3   2.9  33292  275.04 0865.09
2015 04 09 07 31 46 .26     -25    -20      2     33     34 230.5   4.9  33296  275.10 0865.09
2015 04 09 07 31 46 .51     -26    -29     10     40     42 222.3  14.3  33298  275.15 0865.09
2015 04 09 07 31 46 .76     -18    -22     10     29     31 219.6  18.9  33294  275.09 0865.09
2015 04 09 07 31 47 .01     -19    -23     10     30     32 219.7  19.2  33300  275.19 0865.09
2015 04 09 07 31 47 .26     -31    -17      7     36     37 241.1  11.1  33300  275.17 0865.09
2015 04 09 07 31 47 .51     -28    -18      1     34     35 237.6   2.8  33294  275.09 0865.09
2015 04 09 07 31 47 .76     -26    -16      6     31     32 237.6  11.1  33298  275.14 0865.09
2015 04 09 07 31 48 .02     -16    -16      9     23     24 225.0  21.0  33298  275.15 0865.09
2015 04 09 07 31 48 .27     -19    -23     17     31     35 219.7  33.5  33298  275.15 0865.09
2015 04 09 07 31 48 .52     -29    -30      6     43     44 224.1   9.0  33302  275.20 0865.08
2015 04 09 07 31 48 .77     -25    -30      7     40     41 219.6  10.1  33296  275.12 0865.08
2015 04 09 07 31 49 .02     -33    -31      2     46     47 226.0   2.9  33296  275.10 0865.08
2015 04 09 07 31 49 .27     -31    -27      6     42     43 228.7   9.0  33300  275.19 0865.08
2015 04 09 07 31 49 .52     -28    -23      8     37     39 230.5  13.2  33302  275.22 0865.08
2015 04 09 07 31 49 .78     -25    -24     12     35     38 226.7  19.4  33300  275.19 0865.08
2015 04 09 07 31 50 .02     -24    -24     12     34     37 225.0  19.4  33288  274.99 0865.08
2015 04 09 07 31 50 .28     -33    -31      2     46     47 226.0   2.9  33290  275.01 0865.08
2015 04 09 07 31 50 .53     -35    -35      0     50     51 225.0  -0.3  33290  275.02 0865.08
2015 04 09 07 31 50 .78     -36    -39      4     54     55 223.2   4.9  33300  275.19 0865.08
2015 04 09 07 31 51 .03     -34    -34     16     49     52 225.0  18.4  33294  275.09 0865.08
2015 04 09 07 31 51 .28     -33    -38     10     51     52 220.5  11.1  33294  275.09 0865.08
2015 04 09 07 31 51 .53     -30    -35      2     47     48 220.5   2.9  33284  274.92 0865.08
2015 04 09 07 31 51 .78     -31    -32     -2     45     46 224.2  -3.1  33280  274.84 0865.08
2015 04 09 07 31 52 .03     -31    -35      4     47     48 221.4   5.9  33280  274.84 0865.08
2015 04 09 07 31 52 .28     -29    -30      6     43     44 224.1   9.0  33286  274.96 0865.08
2015 04 09 07 31 52 .53     -28    -37     16     47     50 217.0  19.4  33292  275.04 0865.08
2015 04 09 07 31 52 .78     -38    -21      0     44     45 240.2   0.8  33298  275.14 0865.08
2015 04 09 07 31 53 .03     -37    -23     -5     44     45 238.5  -7.2  33302  275.20 0865.08
2015 04 09 07 31 53 .28     -34    -24      2     42     43 234.9   2.9  33298  275.15 0865.08
2015 04 09 07 31 53 .53     -33    -34      8     48     49 224.2  10.1  33304  275.25 0865.08
2015 04 09 07 31 53 .78     -34    -35      7     49     50 224.2   9.0  33310  275.35 0865.08
2015 04 09 07 31 54 .03     -40    -35      8     54     55 228.7   9.0  33306  275.29 0865.09
2015 04 09 07 31 54 .28     -34    -34     16     49     52 225.0  18.4  33300  275.17 0865.09
2015 04 09 07 31 54 .53     -34    -34     16     49     52 225.0  18.4  33300  275.17 0865.09
2015 04 09 07 31 54 .79     -28    -35     15     45     48 218.7  18.9  33296  275.10 0865.09
2015 04 09 07 31 55 .05     -31    -35     20     48     52 221.4  24.1  33286  274.94 0865.09
2015 04 09 07 31 55 .30     -34    -34     16     49     52 225.0  18.4  33292  275.04 0865.09
2015 04 09 07 31 55 .55     -36    -27     15     45     48 233.1  19.4  33288  274.99 0865.09
2015 04 09 07 31 55 .80     -35    -28      0     46     47 231.4  -0.3  33288  274.99 0865.09
2015 04 09 07 31 56 .05     -32    -35     19     48     51 222.3  22.0  33298  275.14 0865.09
2015 04 09 07 31 56 .30     -22    -27     21     36     41 219.6  32.4  33304  275.25 0865.09
2015 04 09 07 31 56 .55     -17    -37     32     41     52 205.5  42.7  33304  275.24 0865.09
2015 04 09 07 31 56 .80     -16    -39     34     43     54 202.7  42.7  33296  275.10 0865.09
2015 04 09 07 31 57 .05      -9    -41     35     43     55 192.5  43.7  33280  274.86 0865.09
2015 04 09 07 31 57 .30      -4    -42     19     43     47 186.2  25.1  33282  274.89 0865.09
2015 04 09 07 31 57 .55       2    -34     22     35     41 175.5  35.5  33290  275.01 0865.09
2015 04 09 07 31 57 .80      -8    -23     24     25     34 198.7  52.0  33300  275.19 0865.09
2015 04 09 07 31 58 .05     -16    -23     28     29     40 214.3  50.0  33298  275.14 0865.09
2015 04 09 07 31 58 .30     -11    -23     26     26     36 205.4  50.1  33298  275.15 0865.09
2015 04 09 07 31 58 .56      -1    -21     28     22     35 184.5  56.4  33298  275.14 0865.09
2015 04 09 07 31 58 .81     -18    -26     32     32     45 214.3  50.1  33304  275.24 0865.09
2015 04 09 07 31 59 .06      -1    -22     32     23     39 182.7  60.5  33306  275.29 0865.09
2015 04 09 07 31 59 .31     -14    -18     36     24     43 217.8  62.6  33312  275.39 0865.09
2015 04 09 07 31 59 .56     -19    -23     36     31     47 219.6  54.3  33316  275.43 0865.09
2015 04 09 07 31 59 .81     -17    -26     38     32     49 212.5  56.3  33314  275.42 0865.09
2015 04 09 07 32 00 .06     -30    -31     28     44     52 224.1  35.5  33304  275.24 0865.09
2015 04 09 07 32 00 .31     -27    -30     14     41     44 222.3  18.9  33304  275.24 0865.09
2015 04 09 07 32 00 .56     -33    -32     24     47     52 226.0  28.2  33300  275.19 0865.09
2015 04 09 07 32 00 .81     -15    -31     27     35     44 207.2  42.7  33306  275.29 0865.09
2015 04 09 07 32 01 .06     -21    -25     23     33     40 219.6  38.6  33296  275.10 0865.09
2015 04 09 07 32 01 .31     -29    -24     15     38     40 230.5  22.0  33288  274.99 0865.09
2015 04 09 07 32 01 .56     -24    -15      8     29     31 237.5  15.3  33294  275.07 0865.09
2015 04 09 07 32 01 .81     -16    -16     22     23     31 225.0  50.0  33298  275.15 0865.09
2015 04 09 07 32 02 .07     -16    -16     26     24     35 225.0  50.1  33304  275.25 0865.09
2015 04 09 07 32 02 .32     -24    -15     14     29     32 237.6  27.2  33302  275.20 0865.09
2015 04 09 07 32 02 .57     -19    -14     13     24     27 234.0  31.4  33302  275.20 0865.09
2015 04 09 07 32 02 .83     -17    -13     20     22     29 232.2  50.0  33306  275.29 0865.09
2015 04 09 07 32 03 .08     -25    -25     20     36     41 225.1  31.4  33302  275.22 0865.09
2015 04 09 07 32 03 .33     -19    -23     16     30     34 219.6  29.3  33306  275.27 0865.09
2015 04 09 07 32 03 .58     -12    -12      4     17     18 225.0  15.3  33304  275.25 0865.09
2015 04 09 07 32 03 .82      -4    -12      7     13     14 198.3  35.5  33306  275.29 0865.09
2015 04 09 07 32 04 .08      -5    -14      5     16     17 201.8  19.4  33302  275.20 0865.09
2015 04 09 07 32 04 .33     -11     -3      4     12     13 251.8  19.4  33302  275.20 0865.09
2015 04 09 07 32 04 .58     -10    -16     19     20     27 212.6  52.0  33306  275.29 0865.09
2015 04 09 07 32 04 .83     -12    -16     20     21     29 217.8  52.0  33312  275.39 0865.09
2015 04 09 07 32 05 .08      -6    -14     25     16     29 205.4  64.7  33332  275.72 0865.09
2015 04 09 07 32 05 .33     -12     -8     20     15     25 234.0  60.5  33342  275.88 0865.09
2015 04 09 07 32 05 .58      -5    -16     24     17     29 198.3  62.6  33328  275.63 0865.09
2015 04 09 07 32 05 .83     -21    -21     24     30     38 225.0  43.7  33316  275.43 0865.10
2015 04 09 07 32 06 .08     -26    -31     26     41     48 219.6  35.5  33304  275.25 0865.10
2015 04 09 07 32 06 .33     -19    -31     17     37     40 212.5  26.2  33302  275.20 0865.10
2015 04 09 07 32 06 .59     -20    -21     25     30     39 223.2  43.8  33314  275.42 0865.10
2015 04 09 07 32 06 .83     -19    -30      3     36     37 212.5   4.9  33320  275.50 0865.10
2015 04 09 07 32 07 .09     -22    -14      1     27     28 237.6   2.8  33318  275.48 0865.10
2015 04 09 07 32 07 .33     -30    -24     15     39     41 230.5  22.0  33292  275.04 0865.10
2015 04 09 07 32 07 .59     -42    -23      9     49     50 241.1  11.1  33306  275.29 0865.09
2015 04 09 07 32 07 .83     -17    -25     -6     31     32 214.3 -11.3  33316  275.43 0865.09
2015 04 09 07 32 08 .09     -13    -34     -2     37     38 201.8  -3.1  33310  275.34 0865.09
2015 04 09 07 32 08 .34     -17    -36    -14     40     43 205.5 -19.7  33268  274.66 0865.09
2015 04 09 07 32 08 .59      -9    -34    -13     36     39 195.1 -19.7  33274  274.74 0865.09
2015 04 09 07 32 08 .85      -6    -30     -1     31     32 191.6  -3.1  33282  274.89 0865.09
2015 04 09 07 32 09 .10      -4    -33     -5     34     35 188.0  -9.3  33300  275.19 0865.09
2015 04 09 07 32 09 .35      -7    -38     10     39     41 190.7  15.3  33298  275.14 0865.09
2015 04 09 07 32 09 .60      -7    -38     17     39     42 191.6  25.1  33302  275.20 0865.09
2015 04 09 07 32 09 .85      -8    -26      7     28     30 198.5  15.3  33302  275.20 0865.09
2015 04 09 07 32 10 .10     -23    -24      9     34     36 223.2  15.3  33304  275.25 0865.09
2015 04 09 07 32 10 .35     -28    -37     15     47     50 217.8  18.4  33294  275.09 0865.09
2015 04 09 07 32 10 .61     -31    -42      4     53     54 217.0   4.9  33310  275.34 0865.09
2015 04 09 07 32 10 .85     -29    -39     -5     49     50 217.0  -6.2  33296  275.10 0865.09
2015 04 09 07 32 11 .10     -28    -38      0     48     49 217.0  -0.3  33294  275.09 0865.09
2015 04 09 07 32 11 .35     -17    -42      3     46     47 202.7   4.9  33282  274.89 0865.09
2015 04 09 07 32 11 .60     -20    -37     11     43     45 209.0  14.3  33260  274.53 0865.09
2015 04 09 07 32 11 .86     -24    -37     -1     45     46 212.5  -2.2  33272  274.71 0865.09
2015 04 09 07 32 12 .61     -15    -45      1     48     49 198.5   1.8  33268  274.64 0865.09
2015 04 09 07 32 12 .86     -13    -41      2     44     45 198.5   3.8  33274  274.76 0865.09
2015 04 09 07 32 13 .11     -20    -33      8     39     40 211.6  12.2  33278  274.81 0865.09
2015 04 09 07 32 13 .36     -19    -30      3     36     37 212.5   4.9  33266  274.61 0865.09
2015 04 09 07 32 13 .61     -23    -35      1     42     43 213.4   1.8  33258  274.49 0865.09
2015 04 09 07 32 13 .87     -18    -38      2     43     44 205.4   2.9  33272  274.72 0865.09
2015 04 09 07 32 14 .11     -24    -38      3     46     47 212.5   4.9  33280  274.84 0865.09
2015 04 09 07 32 14 .36     -22    -34      8     41     42 213.4  12.2  33262  274.56 0865.09
2015 04 09 07 32 14 .61     -14    -38      0     41     42 200.9   0.8  33266  274.63 0865.09
2015 04 09 07 32 14 .86     -22    -34      0     41     42 213.4   0.8  33270  274.69 0865.09
2015 04 09 07 32 15 .11     -22    -35     -4     42     43 212.5  -6.2  33268  274.66 0865.09
2015 04 09 07 32 15 .37     -23    -40     -2     47     48 210.7  -3.1  33286  274.94 0865.09
2015 04 09 07 32 15 .61     -25    -30     -1     40     41 219.6  -2.2  33274  274.76 0865.09
2015 04 09 07 32 15 .87     -19    -30     -3     36     37 212.5  -5.2  33268  274.64 0865.09
2015 04 09 07 32 16 .13     -23    -34     -3     42     43 214.3  -4.1  33266  274.61 0865.09
2015 04 09 07 32 16 .38     -22    -35     -4     42     43 212.5  -6.2  33268  274.66 0865.09
2015 04 09 07 32 16 .63     -24    -37     -1     45     46 212.5  -2.2  33284  274.91 0865.09
2015 04 09 07 32 16 .87     -16    -35     -1     39     40 205.4  -2.2  33284  274.91 0865.09
2015 04 09 07 32 17 .13     -19    -39      2     44     45 206.3   2.9  33308  275.32 0865.09
2015 04 09 07 32 17 .38     -25    -34     11     43     45 217.0  14.3  33310  275.34 0865.08
2015 04 09 07 32 17 .63     -24    -29      0     38     39 219.6  -1.3  33280  274.84 0865.08
2015 04 09 07 32 17 .88     -26    -25     -1     37     38 226.7  -2.2  33266  274.63 0865.08
2015 04 09 07 32 18 .13     -28    -23     -4     37     38 230.5  -7.2  33262  274.56 0865.08
2015 04 09 07 32 18 .38     -25    -25     -3     36     37 225.0  -5.2  33262  274.54 0865.08
2015 04 09 07 32 18 .63     -29    -20     -1     36     37 235.8  -2.2  33266  274.63 0865.08
2015 04 09 07 32 18 .88     -26    -25     -1     37     38 226.7  -2.2  33266  274.63 0865.08
2015 04 09 07 32 19 .13     -27    -22      1     36     37 230.5   2.8  33276  274.79 0865.08
2015 04 09 07 32 19 .38     -27    -22      1     36     37 230.4   2.9  33274  274.74 0865.08
2015 04 09 07 32 19 .63     -27    -19     -1     34     35 234.0  -2.2  33272  274.72 0865.08
2015 04 09 07 32 19 .88     -29    -14      2     33     34 244.6   4.9  33282  274.87 0865.08
2015 04 09 07 32 20 .14     -31    -17      1     36     37 241.1   2.9  33282  274.89 0865.08
2015 04 09 07 32 20 .38     -30    -17     -4     35     36 239.3  -7.2  33268  274.66 0865.08
2015 04 09 07 32 20 .64     -38    -21     -4     44     45 240.2  -5.2  33266  274.61 0865.08
2015 04 09 07 32 20 .89     -31    -12     -5     34     35 248.3  -9.3  33264  274.59 0865.08
2015 04 09 07 32 21 .14     -21    -21     -9     30     31 225.1 -21.7  33266  274.63 0865.08
2015 04 09 07 32 21 .38     -24    -16     -7     30     31 235.8 -13.4  33264  274.59 0865.08
2015 04 09 07 32 21 .64     -27    -19     -1     34     35 234.0  -2.2  33270  274.69 0865.08
2015 04 09 07 32 21 .89     -25    -24     -9     35     37 226.7 -15.4  33266  274.61 0865.07
2015 04 09 07 32 22 .14     -29    -30     -4     42     43 224.1  -6.2  33262  274.56 0865.07
2015 04 09 07 32 22 .39     -26    -34     -1     43     44 217.8  -2.2  33264  274.59 0865.07
2015 04 09 07 32 22 .64     -29    -30     -3     43     44 224.1  -5.2  33274  274.76 0865.07
2015 04 09 07 32 22 .90     -29    -30      0     43     44 224.1   0.8  33270  274.67 0865.07
2015 04 09 07 32 23 .15     -26    -35     -3     44     45 217.0  -4.1  33274  274.74 0865.07
2015 04 09 07 32 23 .40     -25    -30     -1     40     41 219.6  -2.2  33288  274.97 0865.07
2015 04 09 07 32 23 .65     -22    -23     -1     33     34 223.4  -2.2  33280  274.86 0865.07
2015 04 09 07 32 23 .91     -23    -23     -1     33     34 225.0  -2.2  33290  275.02 0865.07
2015 04 09 07 32 24 .15     -19    -30      1     36     37 212.5   2.9  33290  275.02 0865.07
2015 04 09 07 32 24 .40     -21    -25      9     33     35 219.7  15.3  33284  274.91 0865.07
2015 04 09 07 32 24 .66     -22    -34      8     41     42 213.4  12.2  33284  274.91 0865.08
2015 04 09 07 32 24 .91     -26    -31     19     41     45 219.6  27.2  33304  275.24 0865.08
2015 04 09 07 32 25 .15     -24    -27     16     37     40 221.4  25.1  33302  275.22 0865.08
2015 04 09 07 32 25 .41     -22    -26     15     35     38 219.7  23.0  33292  275.04 0865.08
2015 04 09 07 32 25 .65     -15    -31     16     35     38 207.2  25.1  33292  275.04 0865.08
2015 04 09 07 32 25 .91     -17    -26     13     32     34 212.5  21.0  33292  275.05 0865.08
2015 04 09 07 32 26 .16     -19    -17      4     26     27 228.7   9.0  33292  275.05 0865.08
2015 04 09 07 32 26 .41     -23    -19      0     30     31 230.4   0.8  33304  275.24 0865.08
2015 04 09 07 32 26 .67     -10    -14     13     18     22 216.1  39.7  33330  275.67 0865.08
2015 04 09 07 32 26 .91     -17    -25     15     31     34 214.3  27.2  33320  275.50 0865.08
2015 04 09 07 32 27 .16     -12    -20     11     24     26 212.5  25.1  33304  275.24 0865.08
2015 04 09 07 32 27 .41     -15    -23      1     28     29 214.3   2.9  33282  274.89 0865.08
2015 04 09 07 32 27 .66     -10    -22     -1     25     26 205.4  -2.2  33280  274.86 0865.08
2015 04 09 07 32 27 .91     -10    -22     -1     25     26 205.4  -2.2  33286  274.96 0865.08
2015 04 09 07 32 28 .16     -13    -21     -1     25     26 212.6  -3.1  33292  275.04 0865.08
2015 04 09 07 32 28 .41     -25    -20     11     33     35 230.5  19.4  33294  275.09 0865.08
2015 04 09 07 32 28 .66     -27    -26     17     38     41 226.7  25.1  33298  275.15 0865.08
2015 04 09 07 32 28 .91     -29    -30     14     42     45 224.1  19.2  33294  275.09 0865.08
2015 04 09 07 32 29 .17     -19    -30      1     36     37 212.5   2.9  33290  275.02 0865.08
2015 04 09 07 32 29 .42     -14    -26      2     30     31 209.0   4.9  33292  275.05 0865.08
2015 04 09 07 32 29 .67     -16    -23     16     29     33 214.3  31.4  33310  275.34 0865.08
2015 04 09 07 32 29 .92     -19    -31     10     37     39 212.6  16.3  33300  275.19 0865.08
2015 04 09 07 32 30 .18     -22    -34     14     41     44 212.5  18.9  33300  275.19 0865.09
2015 04 09 07 32 30 .43     -26    -31     19     41     45 219.6  27.2  33304  275.24 0865.09
2015 04 09 07 32 30 .68     -18    -26     19     32     37 214.3  35.5  33300  275.19 0865.09
2015 04 09 07 32 30 .93     -27    -30     14     41     44 222.3  18.9  33304  275.24 0865.09
2015 04 09 07 32 31 .18     -34    -24      2     42     43 234.9   2.9  33286  274.96 0865.09
2015 04 09 07 32 31 .43     -30    -26     -7     40     41 228.7 -10.3  33264  274.58 0865.09
2015 04 09 07 32 31 .68     -31    -32     -9     45     46 224.2 -11.3  33262  274.56 0865.09
2015 04 09 07 32 31 .93     -36    -32     -6     49     50 228.7  -7.3  33260  274.53 0865.08
2015 04 09 07 32 32 .18     -31    -32     -9     45     46 224.2 -11.3  33266  274.61 0865.08
2015 04 09 07 32 32 .43     -34    -27    -11     44     46 231.4 -14.5  33264  274.59 0865.08
2015 04 09 07 32 32 .68     -33    -21    -12     40     41 237.5 -21.7  33268  274.66 0865.08
2015 04 09 07 32 32 .93     -21    -21     -9     30     31 225.1 -21.7  33266  274.63 0865.08
2015 04 09 07 32 33 .18     -24    -20     -9     32     34 230.5 -15.5  33266  274.61 0865.08
2015 04 09 07 32 33 .43     -24    -20     -9     32     34 230.5 -15.5  33266  274.61 0865.08
2015 04 09 07 32 33 .68     -30    -17     -4     35     36 239.3  -7.2  33268  274.66 0865.08
2015 04 09 07 32 33 .93     -25    -16     -5     30     31 237.5  -9.3  33270  274.69 0865.08
2015 04 09 07 32 34 .19     -25    -11     -8     28     30 244.7 -15.5  33268  274.66 0865.08
2015 04 09 07 32 34 .44     -31    -12     -5     34     35 248.3  -9.3  33264  274.59 0865.08
2015 04 09 07 32 34 .69     -31    -12     -5     34     35 248.3  -9.3  33264  274.59 0865.08
2015 04 09 07 32 34 .94     -30    -17    -11     35     37 239.3 -17.6  33268  274.64 0865.08
2015 04 09 07 32 35 .19     -38    -16     -6     42     43 246.5  -9.3  33268  274.64 0865.08
2015 04 09 07 32 35 .44     -32    -15    -10     36     38 244.6 -15.4  33268  274.66 0865.08
2015 04 09 07 32 35 .69     -37    -21    -12     43     45 240.2 -15.5  33270  274.69 0865.08
2015 04 09 07 32 35 .94     -41    -19     -9     46     47 244.7 -11.3  33266  274.61 0865.08
2015 04 09 07 32 36 .19     -40    -14    -12     43     45 250.9 -15.5  33264  274.59 0865.08
2015 04 09 07 32 36 .44     -35    -19    -11     40     42 241.1 -15.5  33264  274.59 0865.08
2015 04 09 07 32 36 .70     -41    -19     -9     46     47 244.7 -11.3  33266  274.61 0865.08
2015 04 09 07 32 36 .95     -32    -15    -10     36     38 244.6 -15.4  33268  274.66 0865.08
2015 04 09 07 32 37 .20     -33    -24    -14     42     44 234.0 -23.6  33268  274.64 0865.08
2015 04 09 07 32 37 .45     -36    -21    -16     43     45 239.3 -24.4  33268  274.66 0865.08
2015 04 09 07 32 37 .70     -35    -19    -11     40     42 241.1 -15.5  33268  274.64 0865.08
2015 04 09 07 32 37 .95     -32    -15    -10     36     38 244.6 -15.4  33268  274.66 0865.08
2015 04 09 07 32 38 .21     -35    -18    -10     40     42 242.9 -14.5  33270  274.67 0865.09
2015 04 09 07 32 38 .45     -36    -11    -16     38     41 251.8 -28.5  33266  274.61 0865.09
2015 04 09 07 32 38 .71     -40    -12    -13     42     43 253.2 -22.8  33264  274.58 0865.09
2015 04 09 07 32 38 .96     -34    -16    -14     38     40 244.7 -25.4  33264  274.59 0865.09
2015 04 09 07 32 39 .21     -31     -7     -9     32     34 256.7 -15.5  33266  274.61 0865.09
2015 04 09 07 32 39 .46     -31     -7     -9     32     34 256.7 -15.5  33262  274.56 0865.09
2015 04 09 07 32 39 .71     -31    -12    -12     34     36 248.3 -23.3  33266  274.61 0865.09
2015 04 09 07 32 39 .96     -36    -15    -14     40     43 246.5 -19.7  33266  274.61 0865.09
2015 04 09 07 32 40 .21     -30     -4    -12     31     33 262.1 -23.3  33266  274.61 0865.09
2015 04 09 07 32 40 .46     -30    -17    -11     35     37 239.3 -17.6  33268  274.64 0865.09
2015 04 09 07 32 40 .71     -30    -17    -11     35     37 239.3 -17.6  33268  274.64 0865.09
2015 04 09 07 32 40 .96     -36    -12    -11     38     40 251.6 -16.6  33268  274.64 0865.09
2015 04 09 07 32 41 .21     -24    -12    -10     28     30 242.9 -19.7  33270  274.67 0865.09
2015 04 09 07 32 41 .46     -32     -8    -14     34     36 254.9 -27.4  33266  274.63 0865.09
2015 04 09 07 32 41 .71     -28     -9    -16     30     34 251.4 -33.7  33266  274.61 0865.09
2015 04 09 07 32 41 .97     -28     -9    -16     30     34 251.4 -33.7  33268  274.66 0865.09
2015 04 09 07 32 42 .22     -35    -28    -11     45     47 231.4 -14.5  33280  274.84 0865.09
2015 04 09 07 32 42 .47     -25    -11     -8     28     30 246.5 -15.5  33274  274.76 0865.09
2015 04 09 07 32 42 .72     -35    -18     -1     40     41 242.9  -2.2  33282  274.89 0865.09
2015 04 09 07 32 42 .97     -25    -20      0     33     34 230.5  -1.2  33292  275.04 0865.09
2015 04 09 07 32 43 .21     -38    -21      0     44     45 240.2   0.8  33280  274.84 0865.09
2015 04 09 07 32 43 .47     -32    -20     -6     39     40 237.6  -9.3  33276  274.79 0865.09
2015 04 09 07 32 43 .73     -24    -15     -8     29     31 237.5 -15.4  33288  274.99 0865.09
2015 04 09 07 32 43 .98     -28    -18     -4     34     35 237.6  -7.3  33284  274.91 0865.09
2015 04 09 07 32 44 .23     -30    -12     -6     33     34 248.3 -11.3  33270  274.69 0865.09
2015 04 09 07 32 44 .48     -31    -12     -5     34     35 248.3  -9.3  33268  274.64 0865.09
2015 04 09 07 32 44 .73     -28    -18     -4     34     35 237.6  -7.3  33266  274.61 0865.09
2015 04 09 07 32 44 .98     -28    -13     -1     31     32 244.7  -2.2  33268  274.64 0865.09
2015 04 09 07 32 45 .23     -25    -20      0     33     34 230.5  -1.2  33268  274.64 0865.09
2015 04 09 07 32 45 .48     -35    -18     -1     40     41 242.9  -2.2  33264  274.59 0865.09
2015 04 09 07 32 45 .73     -33    -15     -1     37     38 244.6  -2.2  33268  274.64 0865.09
2015 04 09 07 32 45 .99     -28    -18     -4     34     35 237.6  -7.3  33308  275.30 0865.09
2015 04 09 07 32 46 .23     -27    -22      1     36     37 230.4   2.9  33336  275.78 0865.09
2015 04 09 07 32 46 .48     -23    -23      5     33     34 225.0   9.0  33324  275.58 0865.08
2015 04 09 07 32 46 .74     -29    -24      1     38     39 230.4   2.9  33306  275.29 0865.08
2015 04 09 07 32 46 .98     -31     -9      0     33     34 253.2  -1.2  33280  274.84 0865.08
2015 04 09 07 32 47 .24     -32    -15    -10     36     38 244.6 -15.4  33268  274.66 0865.09
2015 04 09 07 32 47 .49     -28    -18     -4     34     35 237.6  -7.3  33280  274.86 0865.09
2015 04 09 07 32 47 .73     -30    -12     -6     33     34 248.3 -11.3  33274  274.74 0865.09
2015 04 09 07 32 47 .99     -31    -17     -4     36     37 241.1  -7.3  33268  274.66 0865.09
2015 04 09 07 32 48 .24     -30    -17      1     35     36 239.3   2.8  33270  274.69 0865.09
2015 04 09 07 32 48 .49     -30    -17     -4     35     36 239.3  -7.2  33268  274.66 0865.09
2015 04 09 07 32 48 .74     -28    -13     -1     31     32 244.7  -2.2  33268  274.64 0865.09
2015 04 09 07 32 48 .99     -30    -12     -6     33     34 248.3 -11.3  33270  274.69 0865.09
2015 04 09 07 32 49 .24     -30    -17     -4     35     36 239.3  -7.2  33268  274.66 0865.09
2015 04 09 07 32 49 .49     -29    -15     -4     33     34 242.9  -7.3  33272  274.71 0865.09
2015 04 09 07 32 49 .74     -23     -7     -6     25     26 251.6 -13.4  33268  274.64 0865.09
2015 04 09 07 32 49 .99     -29    -15     -4     33     34 242.9  -7.3  33272  274.71 0865.09
2015 04 09 07 32 50 .25     -25    -16     -7     30     31 237.6 -13.4  33274  274.74 0865.09
2015 04 09 07 32 50 .49     -24    -15     -8     29     31 237.5 -15.4  33286  274.94 0865.09
2015 04 09 07 32 50 .76     -23    -19     -9     30     32 230.5 -17.6  33294  275.07 0865.09
2015 04 09 07 32 51 .01     -26    -19     -9     33     35 234.0 -15.5  33302  275.20 0865.09
2015 04 09 07 32 51 .26     -25    -25    -10     36     37 225.1 -21.7  33304  275.24 0865.09
2015 04 09 07 32 51 .51     -23    -24     -4     34     35 223.2  -7.3  33320  275.50 0865.09
2015 04 09 07 32 51 .76     -21    -21     -6     31     32 225.1 -11.3  33306  275.27 0865.09
2015 04 09 07 32 52 .01     -28    -18     -4     34     35 237.6  -7.3  33280  274.86 0865.09
2015 04 09 07 32 52 .26     -25    -11     -8     28     30 244.7 -15.5  33268  274.66 0865.09
2015 04 09 07 32 52 .51     -25    -16     -7     30     31 237.6 -13.4  33270  274.69 0865.09
2015 04 09 07 32 52 .76     -25    -11     -8     28     30 244.7 -15.5  33268  274.66 0865.09
2015 04 09 07 32 53 .01     -24    -14     -9     28     29 239.3 -23.8  33270  274.69 0865.09
2015 04 09 07 32 53 .26     -21    -15     -7     27     27 234.0 -21.7  33272  274.71 0865.09
2015 04 09 07 32 53 .51     -17    -11     -6     21     23 235.8 -17.6  33272  274.72 0865.09
2015 04 09 07 32 53 .76     -17    -11     -6     21     23 235.8 -17.6  33272  274.72 0865.09
2015 04 09 07 32 54 .01     -12    -13     -2     18     19 223.4  -7.2  33274  274.74 0865.09
2015 04 09 07 32 54 .27     -14    -14     -2     21     22 225.0  -7.3  33280  274.86 0865.09
2015 04 09 07 32 54 .52     -17    -25      6     31     32 214.3  11.1  33342  275.88 0865.09
2015 04 09 07 32 54 .76     -17    -26     14     32     34 212.6  27.1  33368  276.30 0865.09
2015 04 09 07 32 55 .02     -17    -21      9     28     30 219.6  18.9  33348  275.98 0865.09
2015 04 09 07 32 55 .26     -19    -21     10     29     31 223.2  18.9  33346  275.93 0865.09
2015 04 09 07 32 55 .51     -18    -15     -2     24     25 228.7  -5.2  33328  275.63 0865.09
2015 04 09 07 32 55 .76     -20    -16     -8     26     27 230.5 -23.8  33288  274.97 0865.09
2015 04 09 07 32 56 .02     -21    -21     -9     30     31 225.1 -21.7  33270  274.69 0865.09
2015 04 09 07 32 56 .27     -17    -18     -6     25     26 223.2 -13.4  33270  274.67 0865.09
2015 04 09 07 32 56 .52     -27    -19     -9     34     36 234.0 -15.4  33274  274.76 0865.09
2015 04 09 07 32 56 .77     -27    -19     -9     34     36 234.0 -15.4  33274  274.76 0865.09
2015 04 09 07 32 57 .02     -23    -15     -9     28     29 237.6 -23.8  33274  274.74 0865.09
2015 04 09 07 32 57 .27     -24    -14     -9     28     29 239.3 -23.8  33270  274.69 0865.09
2015 04 09 07 32 57 .53     -25    -16     -7     30     31 237.6 -13.4  33274  274.74 0865.09
2015 04 09 07 32 57 .78     -24    -12     -3     27     28 242.9  -7.3  33274  274.76 0865.09
2015 04 09 07 32 58 .03     -30    -17     -4     35     36 239.3  -7.2  33268  274.66 0865.09
2015 04 09 07 32 58 .28     -30    -12     -6     33     34 248.3 -11.3  33270  274.69 0865.09
2015 04 09 07 32 58 .53     -30    -17    -11     35     37 239.3 -17.6  33268  274.64 0865.09
2015 04 09 07 32 58 .78     -32    -15    -10     36     38 244.6 -15.4  33268  274.66 0865.09
2015 04 09 07 32 59 .03     -25    -11     -8     28     30 244.7 -15.5  33268  274.66 0865.09
2015 04 09 07 32 59 .28     -31    -12     -5     34     35 248.3  -9.3  33268  274.64 0865.09
2015 04 09 07 32 59 .53     -36    -11     -4     38     39 251.8  -7.3  33266  274.61 0865.09
2015 04 09 07 32 59 .78     -31    -12     -5     34     35 248.3  -9.3  33264  274.59 0865.09
2015 04 09 07 33 00 .04     -27     -9     -3     29     30 251.4  -7.3  33266  274.61 0865.09
2015 04 09 07 33 00 .29     -28    -13     -1     31     32 244.7  -2.2  33264  274.59 0865.09
2015 04 09 07 33 00 .54     -27     -9     -3     29     30 251.4  -7.3  33270  274.67 0865.09
2015 04 09 07 33 00 .79     -36    -11     -4     38     39 251.8  -7.3  33266  274.61 0865.09
2015 04 09 07 33 01 .04     -30    -17     -4     35     36 239.3  -7.2  33268  274.66 0865.09
2015 04 09 07 33 01 .29     -39    -17     -1     43     44 246.5  -2.2  33262  274.56 0865.09
2015 04 09 07 33 01 .54     -27    -17     -4     32     33 237.6  -7.3  33270  274.67 0865.09
2015 04 09 07 33 01 .79     -32    -20     -6     39     40 237.5  -9.3  33268  274.64 0865.08
2015 04 09 07 33 02 .04     -29    -15     -4     33     34 242.9  -7.3  33274  274.76 0865.08
2015 04 09 07 33 02 .29     -25    -20      0     33     34 230.5  -1.2  33280  274.84 0865.08
2015 04 09 07 33 02 .54     -32    -20     -1     39     40 237.6  -2.2  33280  274.86 0865.08
2015 04 09 07 33 02 .79     -32    -20     -1     39     40 237.6  -2.2  33280  274.86 0865.08
2015 04 09 07 33 03 .04     -25    -16     -1     30     31 237.5  -2.2  33284  274.92 0865.08
2015 04 09 07 33 03 .29     -32    -20     -1     39     40 237.6  -2.2  33280  274.86 0865.08
2015 04 09 07 33 03 .54     -35    -19     -4     41     42 241.1  -6.2  33274  274.76 0865.09
2015 04 09 07 33 03 .80     -32    -16     -4     37     38 242.9  -7.2  33276  274.79 0865.09
2015 04 09 07 33 04 .05     -31    -17     -4     36     37 241.1  -7.3  33278  274.81 0865.09
2015 04 09 07 33 04 .30     -28    -23     -4     37     38 230.5  -7.2  33278  274.81 0865.09
2015 04 09 07 33 04 .56     -31    -17      1     36     37 241.1   2.9  33282  274.89 0865.09
2015 04 09 07 33 04 .81     -39    -17     -1     43     44 245.6  -2.2  33284  274.91 0865.09
2015 04 09 07 33 05 .06     -31    -12      0     34     35 248.3   0.8  33284  274.91 0865.09
2015 04 09 07 33 05 .31     -31    -12      0     34     35 248.3   0.8  33280  274.86 0865.08
2015 04 09 07 33 05 .56     -36    -12      0     38     39 251.6   0.8  33276  274.79 0865.08
2015 04 09 07 33 05 .81     -35    -19      1     41     42 241.1   1.8  33276  274.79 0865.08
2015 04 09 07 33 06 .06     -30    -17      1     35     36 239.3   2.8  33276  274.79 0865.08
2015 04 09 07 33 06 .31     -30    -12     -1     33     34 248.3  -2.2  33272  274.71 0865.08
2015 04 09 07 33 06 .56     -25    -16     -1     30     31 237.5  -2.2  33278  274.81 0865.08
2015 04 09 07 33 06 .81     -20    -20      1     29     30 225.1   2.9  33276  274.77 0865.08
2015 04 09 07 33 07 .06     -33    -15     -2     37     38 244.6  -3.1  33276  274.79 0865.08
2015 04 09 07 33 07 .31     -32    -20     -1     38     39 237.6  -2.2  33272  274.71 0865.08
2015 04 09 07 33 07 .56     -32    -20     -1     38     39 237.6  -2.2  33272  274.71 0865.08
2015 04 09 07 33 07 .81     -33    -24     -1     41     42 234.0  -2.2  33270  274.67 0865.08
2015 04 09 07 33 08 .07     -35    -19      1     41     42 241.1   1.8  33270  274.67 0865.08
2015 04 09 07 33 08 .31     -30    -17     -4     35     36 239.3  -7.2  33268  274.66 0865.08
2015 04 09 07 33 08 .57     -33    -24     -1     41     42 234.0  -2.2  33270  274.67 0865.08
2015 04 09 07 33 08 .81     -35    -19     -4     41     42 241.1  -6.2  33274  274.76 0865.08
2015 04 09 07 33 09 .07     -33    -23    -10     41     43 234.9 -14.5  33274  274.76 0865.09
2015 04 09 07 33 09 .32     -28    -23     -4     37     38 230.5  -7.2  33276  274.77 0865.09
2015 04 09 07 33 09 .57     -35    -28     -5     46     47 231.4  -7.2  33282  274.87 0865.09
2015 04 09 07 33 09 .82     -31    -17     -4     36     37 241.1  -7.3  33278  274.81 0865.09
2015 04 09 07 33 10 .07     -33    -15     -2     37     38 244.7  -3.1  33274  274.74 0865.09
2015 04 09 07 33 10 .32     -28    -23     -4     37     38 230.5  -7.2  33272  274.71 0865.09
2015 04 09 07 33 10 .57     -31    -27     -6     42     43 228.7  -9.3  33270  274.69 0865.09
2015 04 09 07 33 10 .82     -29    -24    -11     38     40 230.5 -16.6  33274  274.74 0865.09
2015 04 09 07 33 11 .07     -33    -23    -10     41     43 234.9 -14.5  33272  274.71 0865.09
2015 04 09 07 33 11 .32     -24    -12     -3     27     28 242.9  -7.3  33274  274.76 0865.09
2015 04 09 07 33 11 .58     -27     -9     -3     29     30 251.4  -7.3  33270  274.67 0865.09
2015 04 09 07 33 11 .83     -29    -15     -4     33     34 242.9  -7.3  33272  274.71 0865.09
2015 04 09 07 33 12 .08     -26    -11     -1     29     30 246.5  -3.1  33274  274.74 0865.09
2015 04 09 07 33 12 .33     -37    -13     -7     40     41 250.0 -10.3  33270  274.67 0865.09
2015 04 09 07 33 12 .59     -33    -15     -2     37     38 244.7  -3.1  33274  274.74 0865.09
2015 04 09 07 33 12 .83     -39    -11     -1     41     42 253.2  -2.2  33270  274.69 0865.09
2015 04 09 07 33 13 .09     -39    -16     -5     43     44 247.4  -7.3  33270  274.67 0865.09
2015 04 09 07 33 13 .34     -37      0     -1     38     39 270.0  -2.2  33284  274.91 0865.09
2015 04 09 07 33 13 .59     -41      0     -4     42     43 269.2  -6.2  33274  274.76 0865.09
2015 04 09 07 33 13 .84     -39    -13     -2     42     43 251.6  -3.1  33280  274.84 0865.09
2015 04 09 07 33 14 .09     -45    -20     -6     50     51 245.6  -7.3  33280  274.84 0865.09
2015 04 09 07 33 14 .34     -41    -15    -11     44     46 250.0 -14.5  33282  274.89 0865.09
2015 04 09 07 33 14 .59     -35     -2     -4     36     37 265.6  -7.3  33284  274.91 0865.09
2015 04 09 07 33 14 .85     -32    -15     -1     36     37 244.7  -2.2  33294  275.07 0865.09
2015 04 09 07 33 15 .09     -31    -12      6     34     35 248.3  11.1  33300  275.19 0865.09
2015 04 09 07 33 15 .34     -31     -9      4     33     34 253.2   6.9  33296  275.10 0865.09
2015 04 09 07 33 15 .59     -31    -12     -1     34     35 248.3  -2.2  33298  275.15 0865.09
2015 04 09 07 33 15 .84     -17    -18     13     26     29 223.2  27.2  33310  275.35 0865.09
2015 04 09 07 33 16 .09     -36    -29     27     47     54 231.4  33.5  33300  275.19 0865.09
2015 04 09 07 33 16 .35     -35    -34     21     50     54 225.9  23.0  33310  275.35 0865.08
2015 04 09 07 33 16 .60     -32    -33     22     47     51 224.1  27.1  33314  275.40 0865.08
2015 04 09 07 33 16 .84     -33    -23     17     41     44 235.8  23.0  33326  275.62 0865.08
2015 04 09 07 33 17 .10     -33    -21      7     40     41 237.6  10.1  33338  275.82 0865.08
2015 04 09 07 33 17 .34     -29    -30      6     43     44 224.1   9.0  33330  275.67 0865.08
2015 04 09 07 33 17 .59     -35    -18     11     40     42 242.9  15.3  33312  275.39 0865.08
2015 04 09 07 33 17 .84     -35    -19     -4     41     42 241.1  -6.2  33292  275.05 0865.08
2015 04 09 07 33 18 .10     -35    -35      0     50     51 225.0  -0.3  33300  275.19 0865.08
2015 04 09 07 33 18 .35     -43    -36      3     57     58 230.5   3.8  33292  275.04 0865.08
2015 04 09 07 33 18 .61     -47    -32      2     58     59 235.8   2.9  33286  274.96 0865.08
2015 04 09 07 33 18 .86     -47    -30      4     56     57 237.5   4.9  33316  275.43 0865.08
2015 04 09 07 33 19 .12     -31    -27      6     42     43 228.7   9.0  33330  275.68 0865.08
2015 04 09 07 33 19 .36     -22    -35      7     42     43 212.5  10.1  33330  275.67 0865.08
2015 04 09 07 33 19 .61     -32    -39      2     51     52 219.6   2.9  33336  275.77 0865.08
2015 04 09 07 33 19 .86     -32    -20     13     39     42 237.5  18.4  33338  275.82 0865.08
2015 04 09 07 33 20 .12     -31    -48     13     58     60 212.6  13.2  33338  275.82 0865.08
2015 04 09 07 33 20 .36     -33    -47      1     58     59 215.2   1.8  33334  275.75 0865.08
2015 04 09 07 33 20 .61     -41    -40      2     58     59 225.9   2.9  33326  275.60 0865.08
2015 04 09 07 33 20 .86     -47    -32      2     58     59 235.8   2.9  33312  275.37 0865.08
2015 04 09 07 33 21 .12     -38    -37     -2     54     55 225.9  -2.2  33304  275.25 0865.08
2015 04 09 07 33 21 .36     -47    -32     -3     58     59 235.8  -3.1  33286  274.94 0865.08
2015 04 09 07 33 21 .61     -38    -37     -2     54     55 225.9  -2.2  33284  274.92 0865.08
2015 04 09 07 33 21 .86     -33    -40     -9     52     53 219.6 -10.3  33272  274.72 0865.08
2015 04 09 07 33 22 .12     -29    -39     -5     49     50 217.0  -6.2  33274  274.76 0865.08
2015 04 09 07 33 22 .37     -33    -41     -2     53     54 218.7  -2.2  33290  275.01 0865.08
2015 04 09 07 33 22 .62     -33    -38     -2     51     52 220.5  -2.2  33286  274.94 0865.08
2015 04 09 07 33 22 .87     -28    -38      0     48     49 217.0  -0.3  33292  275.04 0865.08
2015 04 09 07 33 23 .12     -28    -38      0     48     49 217.0  -0.3  33292  275.04 0865.08
2015 04 09 07 33 23 .37     -17    -42     -1     46     47 201.8  -2.2  33308  275.30 0865.08
2015 04 09 07 33 23 .63     -29    -39     -5     49     50 217.0  -6.2  33314  275.40 0865.08
2015 04 09 07 33 23 .87     -17    -25      0     31     32 214.3  -1.3  33330  275.67 0865.08
2015 04 09 07 33 24 .12      -3    -33     -1     34     35 186.2  -2.2  33332  275.72 0865.08
2015 04 09 07 33 24 .37      -7    -38     -2     39     40 190.7  -3.1  33324  275.58 0865.08
2015 04 09 07 33 24 .62      -9    -34      1     36     37 195.1   2.8  33318  275.48 0865.08
2015 04 09 07 33 24 .87     -17    -36      6     40     41 205.5   9.0  33318  275.47 0865.08
2015 04 09 07 33 25 .12     -17    -26     13     32     34 212.5  21.0  33310  275.35 0865.08
2015 04 09 07 33 25 .38     -24    -30     13     39     42 219.6  19.4  33298  275.15 0865.08
2015 04 09 07 33 25 .64     -23    -36     16     43     45 212.5  20.0  33306  275.29 0865.08
2015 04 09 07 33 25 .89     -24    -30     13     39     42 219.6  19.4  33310  275.35 0865.08
2015 04 09 07 33 26 .13     -24    -30     13     39     42 219.6  19.4  33310  275.35 0865.08
2015 04 09 07 33 26 .39     -30    -34     12     46     48 221.4  15.3  33298  275.15 0865.08
2015 04 09 07 33 26 .63     -28    -31     22     43     48 222.3  29.3  33308  275.30 0865.08
2015 04 09 07 33 26 .89     -28    -31     22     43     48 222.3  29.3  33308  275.30 0865.08
2015 04 09 07 33 27 .14     -27    -35     24     45     51 217.0  30.3  33316  275.43 0865.08
2015 04 09 07 33 27 .39     -28    -35     15     45     48 218.7  18.9  33310  275.35 0865.08
2015 04 09 07 33 27 .64     -19    -31     17     37     40 212.5  26.2  33310  275.35 0865.08
2015 04 09 07 33 27 .89     -12    -34     10     37     39 200.0  16.3  33310  275.34 0865.08
2015 04 09 07 33 28 .14     -15    -30      6     34     35 207.2  11.1  33312  275.37 0865.08
2015 04 09 07 33 28 .39     -23    -24      9     34     36 223.2  15.3  33304  275.25 0865.08
2015 04 09 07 33 28 .64     -19    -30      1     36     37 212.5   2.9  33308  275.32 0865.08
2015 04 09 07 33 28 .89     -22    -26      6     35     36 219.7  11.1  33308  275.30 0865.08
2015 04 09 07 33 29 .14     -17    -27     13     33     35 212.6  21.0  33312  275.37 0865.08
2015 04 09 07 33 29 .39     -13    -26      2     30     31 207.2   4.9  33308  275.30 0865.08
2015 04 09 07 33 29 .64     -12    -24     13     27     29 207.2  27.3  33304  275.25 0865.08
2015 04 09 07 33 29 .89     -12    -24     13     27     29 207.2  27.3  33298  275.15 0865.08
2015 04 09 07 33 30 .14     -19    -15      3     25     26 230.5   6.9  33304  275.25 0865.08
2015 04 09 07 33 30 .39     -14    -15      0     21     22 223.2  -1.3  33296  275.10 0865.08
2015 04 09 07 33 30 .64     -14    -18      4     23     24 217.8  11.1  33290  275.01 0865.08
2015 04 09 07 33 30 .89     -11    -22      6     25     26 207.2  15.3  33292  275.04 0865.08
2015 04 09 07 33 31 .15      -8    -19      1     21     22 203.6   2.9  33288  274.99 0865.08
2015 04 09 07 33 31 .40     -15    -23     -3     28     29 212.6  -7.3  33290  275.01 0865.08
2015 04 09 07 33 31 .65     -15    -23      1     28     29 212.6   2.8  33294  275.09 0865.08
2015 04 09 07 33 31 .90     -17    -26     -1     32     33 212.6  -2.2  33298  275.15 0865.08
2015 04 09 07 33 32 .15     -17    -26     -1     32     33 212.6  -2.2  33298  275.15 0865.08
2015 04 09 07 33 32 .41     -16    -26     -1     31     32 212.5  -2.2  33306  275.27 0865.08
2015 04 09 07 33 32 .66     -19    -23     -1     30     31 219.7  -3.1  33300  275.19 0865.08
2015 04 09 07 33 32 .91     -13    -26     -1     30     31 207.2  -3.1  33304  275.24 0865.08
2015 04 09 07 33 33 .16     -13    -26     -1     30     31 207.2  -3.1  33298  275.14 0865.08
2015 04 09 07 33 33 .41     -15    -30     -4     34     35 207.2  -7.3  33292  275.05 0865.08
2015 04 09 07 33 33 .66     -19    -23     -1     30     31 219.6  -3.1  33288  274.99 0865.08
2015 04 09 07 33 33 .91     -22    -26     -4     35     36 219.7  -7.2  33280  274.86 0865.08
2015 04 09 07 33 34 .16     -25    -30     -7     40     41 219.6 -10.3  33276  274.79 0865.08
2015 04 09 07 33 34 .41     -33    -31     -1     46     47 226.0  -2.2  33270  274.69 0865.08
2015 04 09 07 33 34 .66     -28    -40    -11     49     51 215.2 -13.4  33270  274.69 0865.08
2015 04 09 07 33 34 .92     -32    -32    -14     46     48 224.2 -23.8  33270  274.69 0865.08
2015 04 09 07 33 35 .17     -20    -42     -5     47     48 206.3  -6.2  33284  274.91 0865.08
2015 04 09 07 33 35 .42     -18    -39     -3     44     45 205.4  -4.1  33286  274.94 0865.08
2015 04 09 07 33 35 .67     -22    -35     -4     42     43 212.5  -6.2  33286  274.96 0865.08
2015 04 09 07 33 35 .92     -24    -37     -5     45     46 212.5  -7.3  33286  274.94 0865.08
2015 04 09 07 33 36 .17     -26    -35     -9     44     46 217.0 -12.4  33272  274.71 0865.08
2015 04 09 07 33 36 .42     -31    -34     -6     47     48 222.3  -7.3  33274  274.74 0865.09
2015 04 09 07 33 36 .67     -34    -34     -4     49     50 225.0  -5.2  33272  274.71 0865.09
2015 04 09 07 33 36 .92     -28    -31     -4     42     43 222.3  -6.2  33272  274.71 0865.09
2015 04 09 07 33 37 .17     -25    -30     -7     40     41 219.6 -10.3  33270  274.69 0865.09
2015 04 09 07 33 37 .42     -26    -36     -9     45     46 216.1 -11.3  33268  274.66 0865.09
2015 04 09 07 33 37 .67     -33    -31     -1     46     47 226.0  -2.2  33270  274.69 0865.09
2015 04 09 07 33 37 .92     -25    -30     -7     40     41 219.6 -10.3  33270  274.69 0865.09
2015 04 09 07 33 38 .18     -26    -35     -3     44     45 217.0  -4.1  33274  274.74 0865.09
2015 04 09 07 33 38 .42     -28    -31     -4     42     43 222.3  -6.2  33272  274.71 0865.09
2015 04 09 07 33 38 .68     -29    -39     -5     49     50 217.0  -6.2  33274  274.76 0865.09
2015 04 09 07 33 38 .92     -29    -42     -7     52     53 214.3  -8.2  33276  274.79 0865.09
2015 04 09 07 33 39 .18     -20    -42     -5     47     48 206.3  -6.2  33284  274.91 0865.09
2015 04 09 07 33 39 .44     -23    -35     -4     42     43 213.4  -6.2  33278  274.81 0865.09
2015 04 09 07 33 39 .69     -20    -32     -2     38     39 212.6  -3.1  33280  274.84 0865.09
2015 04 09 07 33 39 .94     -26    -35     -3     44     45 217.0  -4.1  33280  274.84 0865.09
2015 04 09 07 33 40 .19     -29    -39     -5     49     50 217.0  -6.2  33278  274.81 0865.09
2015 04 09 07 33 40 .44     -31    -34     -6     47     48 222.3  -7.3  33274  274.74 0865.09
2015 04 09 07 33 40 .69     -29    -39     -5     49     50 217.0  -6.2  33274  274.76 0865.09
2015 04 09 07 33 40 .94     -25    -30     -7     40     41 219.6 -10.3  33270  274.69 0865.09
2015 04 09 07 33 41 .19     -28    -31     -4     42     43 222.3  -6.2  33272  274.71 0865.09
2015 04 09 07 33 41 .44     -26    -35     -3     44     45 217.0  -4.1  33280  274.84 0865.09
2015 04 09 07 33 41 .69     -28    -31     -4     42     43 222.3  -6.2  33272  274.71 0865.09
2015 04 09 07 33 41 .94     -35    -35     -3     50     51 225.0  -4.1  33268  274.66 0865.09
2015 04 09 07 33 42 .19     -31    -35     -6     47     48 221.4  -7.3  33270  274.69 0865.09
2015 04 09 07 33 42 .44     -31    -38     -2     50     51 219.7  -3.1  33270  274.69 0865.09
2015 04 09 07 33 42 .69     -31    -35     -1     47     48 221.4  -2.2  33274  274.76 0865.09
2015 04 09 07 33 42 .94     -35    -35     -6     50     51 225.0  -7.2  33278  274.81 0865.09
2015 04 09 07 33 43 .19     -33    -38     -2     51     52 220.5  -2.2  33286  274.94 0865.09
2015 04 09 07 33 43 .44     -31    -35     -1     47     48 221.4  -2.2  33278  274.81 0865.09
2015 04 09 07 33 43 .70     -28    -38     -5     48     49 217.0  -6.2  33288  274.97 0865.09
2015 04 09 07 33 43 .95     -28    -37      8     47     48 217.0  10.1  33296  275.12 0865.09
2015 04 09 07 33 44 .20     -29    -45      0     54     55 212.5  -0.3  33294  275.09 0865.09
2015 04 09 07 33 44 .45     -31    -35     -1     47     48 221.4  -2.2  33296  275.10 0865.09
2015 04 09 07 33 44 .70     -32    -31    -10     45     47 226.0 -12.4  33280  274.86 0865.09
2015 04 09 07 33 44 .95     -31    -34     -7     47     48 222.3  -9.3  33276  274.79 0865.09
2015 04 09 07 33 45 .21     -24    -35     -3     43     44 214.3  -4.1  33298  275.15 0865.09
2015 04 09 07 33 45 .45     -26    -35     -3     44     45 217.0  -4.1  33304  275.24 0865.08
2015 04 09 07 33 45 .70     -28    -31      0     42     43 222.3  -0.3  33298  275.14 0865.08
2015 04 09 07 33 45 .95     -25    -30     -1     40     41 219.6  -2.2  33292  275.05 0865.08
2015 04 09 07 33 46 .21     -31    -35     -1     47     48 221.4  -2.2  33288  274.97 0865.08
2015 04 09 07 33 46 .46     -29    -39      1     49     50 217.0   1.8  33282  274.89 0865.08
2015 04 09 07 33 46 .71     -25    -30     -1     40     41 219.6  -2.2  33288  274.97 0865.08
2015 04 09 07 33 46 .96     -31    -34     -1     47     48 222.3  -2.2  33280  274.86 0865.08
2015 04 09 07 33 47 .21     -30    -26     -1     40     41 228.7  -2.2  33278  274.81 0865.09
2015 04 09 07 33 47 .46     -33    -31      2     46     47 226.0   2.9  33280  274.86 0865.09
2015 04 09 07 33 47 .72     -35    -35      0     50     51 225.0  -0.3  33276  274.79 0865.09
2015 04 09 07 33 47 .96     -31    -32     -2     45     46 224.2  -3.1  33274  274.74 0865.09
2015 04 09 07 33 48 .22     -31    -32     -2     45     46 224.2  -3.1  33280  274.84 0865.09
2015 04 09 07 33 48 .46     -31    -32     -2     45     46 224.2  -3.1  33280  274.84 0865.09
2015 04 09 07 33 48 .72     -30    -26     -1     40     41 228.7  -2.2  33278  274.81 0865.09
2015 04 09 07 33 48 .97     -31    -32     -2     45     46 224.2  -3.1  33280  274.84 0865.09
2015 04 09 07 33 49 .22     -31    -32     -2     45     46 224.2  -3.1  33280  274.84 0865.08
2015 04 09 07 33 49 .47     -31    -32     -2     45     46 224.2  -3.1  33274  274.74 0865.08
2015 04 09 07 33 49 .72     -39    -25     -1     47     48 237.6  -2.2  33278  274.82 0865.08
2015 04 09 07 33 49 .97     -39    -25     -1     47     48 237.6  -2.2  33274  274.76 0865.08
2015 04 09 07 33 50 .22     -38    -21      0     44     45 240.2   0.8  33280  274.84 0865.08
2015 04 09 07 33 50 .47     -34    -33      8     48     49 225.9  10.1  33284  274.91 0865.08
2015 04 09 07 33 50 .72     -39    -25     -1     47     48 237.6  -2.2  33278  274.82 0865.08
2015 04 09 07 33 50 .97     -40    -35      2     54     55 228.7   2.9  33274  274.76 0865.08
2015 04 09 07 33 51 .22     -31    -32      2     45     46 224.2   2.9  33278  274.81 0865.08
2015 04 09 07 33 51 .47     -31    -27      6     42     43 228.7   9.0  33280  274.84 0865.08
2015 04 09 07 33 51 .72     -31    -32      2     45     46 224.2   2.9  33278  274.81 0865.08
2015 04 09 07 33 51 .97     -31    -32      2     45     46 224.2   2.9  33274  274.76 0865.08
2015 04 09 07 33 52 .22     -33    -24      3     41     42 234.0   4.9  33272  274.71 0865.08
2015 04 09 07 33 52 .48     -32    -20     -1     38     39 237.6  -2.2  33272  274.71 0865.08
2015 04 09 07 33 52 .73     -39    -25     -1     47     48 237.6  -2.2  33278  274.82 0865.08
2015 04 09 07 33 53 .01     -39    -17     -1     43     44 245.6  -2.2  33280  274.86 0865.08
2015 04 09 07 33 53 .25     -32    -26      0     42     43 230.5  -1.3  33310  275.34 0865.08
2015 04 09 07 33 53 .48     -33    -15      1     37     38 244.6   2.9  33320  275.52 0865.08
2015 04 09 07 33 53 .74     -28    -31    -12     42     44 222.3 -16.6  33304  275.24 0865.08
2015 04 09 07 33 53 .99     -28    -31    -12     42     44 222.3 -16.6  33316  275.43 0865.08
2015 04 09 07 33 54 .24     -17    -27     -6     33     34 212.6 -11.3  33304  275.24 0865.08
2015 04 09 07 33 54 .50     -18    -29     -9     35     37 212.5 -15.5  33302  275.22 0865.08
2015 04 09 07 33 54 .74     -17    -27    -11     33     34 212.6 -23.6  33308  275.30 0865.08
2015 04 09 07 33 54 .99     -15    -23     -3     28     29 214.3  -7.3  33314  275.40 0865.08
2015 04 09 07 33 55 .24     -28    -23      1     37     38 230.5   2.8  33316  275.43 0865.08
2015 04 09 07 33 55 .49     -35    -18     -1     40     41 242.9  -2.2  33304  275.24 0865.08
2015 04 09 07 33 55 .75     -35    -18     -1     40     41 242.9  -2.2  33300  275.19 0865.08
2015 04 09 07 33 56 .00     -28    -23      8     37     39 230.5  13.2  33320  275.52 0865.08
2015 04 09 07 33 56 .25     -25    -25      4     36     37 225.0   6.9  33320  275.50 0865.08
2015 04 09 07 33 56 .50     -24    -29      6     38     39 219.6   9.0  33340  275.83 0865.08
2015 04 09 07 33 56 .74     -23    -36     16     43     45 212.5  20.0  33342  275.88 0865.08
2015 04 09 07 33 57 .00     -22    -33     13     40     43 213.4  18.9  33340  275.83 0865.08
2015 04 09 07 33 57 .24     -30    -31     28     44     52 224.1  35.5  33336  275.78 0865.08
2015 04 09 07 33 57 .50     -32    -34     32     48     57 223.2  35.6  33324  275.58 0865.08
2015 04 09 07 33 57 .75     -19    -38     24     43     49 207.2  31.4  33324  275.58 0865.08
2015 04 09 07 33 58 .00     -27    -35     36     45     57 217.0  43.7  33322  275.53 0865.08
2015 04 09 07 33 58 .25     -22    -42     28     48     55 208.1  34.4  33322  275.53 0865.08
2015 04 09 07 33 58 .50     -19    -38     24     43     49 207.2  31.4  33324  275.58 0865.08
2015 04 09 07 33 58 .75     -23    -37     12     44     46 212.5  16.3  33314  275.40 0865.08
2015 04 09 07 33 59 .01     -28    -35     15     45     48 218.7  18.9  33314  275.40 0865.08
2015 04 09 07 33 59 .25     -11    -36     17     38     41 198.3  25.1  33314  275.40 0865.08
2015 04 09 07 33 59 .50     -15    -31     15     35     38 207.2  23.0  33312  275.39 0865.08
2015 04 09 07 33 59 .75     -18    -29     31     35     46 212.6  46.9  33314  275.40 0865.08
2015 04 09 07 34 00 .00     -17    -37     32     41     52 205.5  42.7  33312  275.39 0865.08
2015 04 09 07 34 00 .26     -14    -26     30     30     42 209.0  50.1  33318  275.47 0865.08
2015 04 09 07 34 00 .51     -12    -27     17     30     34 205.4  31.4  33314  275.40 0865.08
2015 04 09 07 34 00 .77     -15    -15     15     22     26 225.0  35.6  33318  275.48 0865.08
2015 04 09 07 34 01 .01       0    -16     18     17     24 182.7  48.2  33316  275.45 0865.08
2015 04 09 07 34 01 .26     -17    -26     13     32     34 212.5  21.0  33314  275.42 0865.08
2015 04 09 07 34 01 .52     -19    -31     17     37     40 212.6  26.2  33320  275.52 0865.08
2015 04 09 07 34 01 .77     -20    -37      3     43     44 208.1   4.9  33312  275.37 0865.08
2015 04 09 07 34 02 .02     -20    -37      3     43     44 208.1   4.9  33316  275.45 0865.08
2015 04 09 07 34 02 .27     -13    -27      3     31     32 205.5   6.9  33314  275.40 0865.08
2015 04 09 07 34 02 .52      -9    -19     16     22     27 205.4  39.7  33316  275.43 0865.08
2015 04 09 07 34 02 .77     -12    -25     25     28     37 205.4  47.9  33324  275.58 0865.08
2015 04 09 07 34 03 .02     -11    -23     32     26     41 205.4  56.4  33328  275.63 0865.08
2015 04 09 07 34 03 .27     -14    -20     30     25     39 216.1  56.3  33332  275.70 0865.08
2015 04 09 07 34 03 .52     -12    -20     30     24     38 212.5  56.4  33326  275.62 0865.08
2015 04 09 07 34 03 .77     -17    -26     32     32     45 212.5  50.1  33318  275.48 0865.08
2015 04 09 07 34 04 .02     -20    -38     17     44     47 208.1  21.0  33320  275.52 0865.08
2015 04 09 07 34 04 .27     -12    -20     30     24     38 212.5  56.4  33326  275.62 0865.08
2015 04 09 07 34 04 .52     -23    -23     26     33     42 225.1  42.7  33322  275.55 0865.09
2015 04 09 07 34 04 .77     -12    -25     -8     28     30 205.5 -15.5  33304  275.25 0865.09
2015 04 09 07 34 05 .03     -17    -26     -1     32     33 212.6  -2.2  33310  275.35 0865.09
2015 04 09 07 34 05 .27     -11    -23     13     26     29 205.4  27.2  33312  275.37 0865.09
2015 04 09 07 34 05 .52      -9    -18      7     21     23 205.4  18.9  33308  275.30 0865.09
2015 04 09 07 34 05 .77     -11    -23     13     26     29 205.4  27.2  33298  275.15 0865.09
2015 04 09 07 34 06 .03     -15    -31     16     35     38 207.2  25.1  33304  275.24 0865.09
2015 04 09 07 34 06 .28     -19    -40     17     45     48 206.3  20.0  33292  275.05 0865.09
2015 04 09 07 34 06 .53     -17    -36      6     40     41 205.5   9.0  33282  274.87 0865.09
2015 04 09 07 34 06 .78     -11    -35      1     37     38 198.3   2.9  33284  274.91 0865.09
2015 04 09 07 34 07 .03     -20    -32     -2     38     39 212.6  -3.1  33282  274.89 0865.09
2015 04 09 07 34 07 .29     -19    -30     -3     36     37 212.5  -5.2  33286  274.94 0865.09
2015 04 09 07 34 07 .54     -14    -27     -9     31     33 207.2 -17.6  33280  274.86 0865.09
2015 04 09 07 34 07 .79     -16    -26     -6     31     32 212.5 -11.3  33274  274.74 0865.09
2015 04 09 07 34 08 .04      -8    -25     -3     27     28 198.7  -7.3  33274  274.76 0865.09
2015 04 09 07 34 08 .29     -13    -26     -1     30     31 207.2  -3.1  33282  274.89 0865.09
2015 04 09 07 34 08 .54     -21    -26     -4     34     35 219.7  -7.3  33284  274.91 0865.09
2015 04 09 07 34 08 .79     -15    -23     -3     28     29 214.3  -7.3  33280  274.86 0865.09
2015 04 09 07 34 09 .04     -16    -26     -1     31     32 212.5  -2.2  33280  274.86 0865.09
2015 04 09 07 34 09 .30     -17    -36     -7     40     41 205.5 -10.3  33280  274.84 0865.09
2015 04 09 07 34 09 .55     -22    -34      0     41     42 213.4   0.8  33276  274.79 0865.09
2015 04 09 07 34 09 .79     -25    -30     -7     40     41 219.6 -10.3  33270  274.69 0865.08
2015 04 09 07 34 10 .04     -25    -39     -6     47     48 212.6  -7.3  33276  274.79 0865.08
2015 04 09 07 34 10 .29     -26    -36     -9     45     46 216.1 -11.3  33268  274.66 0865.08
2015 04 09 07 34 10 .55     -28    -31     -4     42     43 222.3  -6.2  33272  274.71 0865.08
2015 04 09 07 34 10 .80     -19    -30     -3     36     37 212.5  -5.2  33282  274.89 0865.08
2015 04 09 07 34 11 .05     -21    -25      9     33     35 219.7  15.3  33302  275.20 0865.08
2015 04 09 07 34 11 .30     -23    -24      9     34     36 223.2  15.3  33304  275.25 0865.08
2015 04 09 07 34 11 .55     -16    -26      6     31     32 212.5  11.1  33300  275.19 0865.08
2015 04 09 07 34 11 .80     -23    -19      9     30     32 230.4  17.3  33302  275.20 0865.08
2015 04 09 07 34 12 .05     -11    -23     -1     26     27 207.2  -2.2  33292  275.05 0865.08
2015 04 09 07 34 12 .30     -12    -26      5     29     30 205.4  11.1  33296  275.10 0865.08
2015 04 09 07 34 12 .55     -17    -26     -1     32     33 212.6  -2.2  33298  275.15 0865.08
2015 04 09 07 34 12 .80     -20    -20     -3     29     30 225.1  -7.3  33302  275.20 0865.08
2015 04 09 07 34 13 .05     -12    -19      3     23     24 212.5   9.0  33302  275.22 0865.08
2015 04 09 07 34 13 .30      -9    -21      7     23     25 203.6  17.3  33306  275.27 0865.08
2015 04 09 07 34 13 .55      -8    -25      1     27     28 198.5   2.8  33304  275.24 0865.08
2015 04 09 07 34 13 .80      -8    -19      7     21     23 203.6  18.9  33304  275.25 0865.08
2015 04 09 07 34 14 .06     -14    -20     10     25     26 216.1  21.0  33306  275.29 0865.08
2015 04 09 07 34 14 .31     -15    -23      7     28     30 214.3  15.3  33306  275.27 0865.09
2015 04 09 07 34 14 .57     -17    -17      8     25     27 225.0  17.3  33310  275.34 0865.09
2015 04 09 07 34 14 .82     -22    -23     -1     33     34 223.4  -2.2  33302  275.20 0865.09
2015 04 09 07 34 15 .07     -25    -20      0     33     34 230.5  -1.2  33294  275.09 0865.09
2015 04 09 07 34 15 .32     -21    -26      1     34     35 219.7   2.8  33292  275.04 0865.09
2015 04 09 07 34 15 .57     -23    -23      5     33     34 225.0   9.0  33294  275.09 0865.09
2015 04 09 07 34 15 .82     -22    -23     -1     33     34 223.4  -2.2  33296  275.10 0865.09
2015 04 09 07 34 16 .07     -31    -17      1     36     37 241.1   2.9  33300  275.19 0865.09
2015 04 09 07 34 16 .32     -19    -23      4     30     31 219.7   9.0  33306  275.27 0865.09
2015 04 09 07 34 16 .57     -22    -26     15     35     38 219.7  23.0  33298  275.14 0865.09
2015 04 09 07 34 16 .82     -25    -20     11     33     35 230.5  19.4  33298  275.14 0865.09
2015 04 09 07 34 17 .07     -41     -7      1     42     43 259.4   1.8  33300  275.19 0865.09
2015 04 09 07 34 17 .33     -42    -20      2     47     48 243.8   2.9  33302  275.20 0865.09
2015 04 09 07 34 17 .57     -39    -17      4     43     44 245.6   5.9  33306  275.29 0865.09
2015 04 09 07 34 17 .82     -38    -21      0     44     45 240.2   0.8  33292  275.04 0865.09
2015 04 09 07 34 18 .08     -26    -22     -4     35     36 230.4  -7.2  33308  275.30 0865.09
2015 04 09 07 34 18 .33     -33    -15      1     37     38 244.6   2.9  33322  275.55 0865.09
2015 04 09 07 34 18 .57     -26    -11      3     29     30 246.5   6.9  33326  275.62 0865.09
2015 04 09 07 34 18 .82     -28    -13      3     31     32 244.6   6.9  33320  275.50 0865.09
2015 04 09 07 34 19 .08     -39    -17      5     43     44 246.5   6.9  33316  275.43 0865.09
2015 04 09 07 34 19 .33     -33    -15      1     37     38 244.6   2.9  33304  275.25 0865.09
2015 04 09 07 34 19 .58     -32    -20     13     39     42 237.6  18.4  33308  275.30 0865.09
2015 04 09 07 34 19 .83     -28    -18      9     34     36 237.6  15.3  33308  275.30 0865.09
2015 04 09 07 34 20 .08     -20    -20     22     29     36 225.1  41.7  33308  275.30 0865.09
2015 04 09 07 34 20 .34     -15    -16     28     23     36 223.2  56.4  33322  275.53 0865.09
2015 04 09 07 34 20 .58     -12    -16     25     21     32 217.8  56.3  33324  275.57 0865.09
2015 04 09 07 34 20 .83     -16     -7     21     18     27 244.7  54.3  33328  275.65 0865.09
2015 04 09 07 34 21 .09     -16    -16     29     23     37 225.0  56.4  33322  275.53 0865.09
2015 04 09 07 34 21 .34     -14    -18     24     24     33 217.8  50.1  33324  275.58 0865.09
2015 04 09 07 34 21 .59     -15    -31     29     35     45 207.2  44.8  33316  275.43 0865.09
2015 04 09 07 34 21 .84     -19    -31     31     37     48 212.5  45.8  33316  275.45 0865.09
2015 04 09 07 34 22 .09     -27    -35     24     45     51 217.0  30.3  33312  275.39 0865.09
2015 04 09 07 34 22 .34     -16    -23     16     29     33 214.3  31.4  33306  275.29 0865.09
2015 04 09 07 34 22 .59     -26    -26      4     38     39 225.0   5.9  33298  275.15 0865.08
2015 04 09 07 34 22 .85     -34    -24      2     42     43 234.9   2.9  33302  275.20 0865.08
2015 04 09 07 34 23 .10     -29    -24      6     38     39 230.4  10.1  33314  275.40 0865.08
2015 04 09 07 34 23 .34     -26    -26      4     38     39 225.0   5.9  33320  275.50 0865.08
2015 04 09 07 34 23 .60     -24    -24     12     34     37 225.0  19.4  33306  275.29 0865.08
2015 04 09 07 34 23 .85     -28    -13     -1     31     32 244.7  -3.1  33312  275.39 0865.08
2015 04 09 07 34 24 .10     -19     -8      3     21     22 246.5   9.0  33308  275.30 0865.08
2015 04 09 07 34 24 .35     -17    -13     13     22     25 232.2  35.5  33310  275.35 0865.09
2015 04 09 07 34 24 .60     -19    -23     17     31     35 219.7  33.5  33310  275.35 0865.09
2015 04 09 07 34 24 .85     -19    -12     26     23     34 235.8  52.2  33318  275.47 0865.09
2015 04 09 07 34 25 .10     -17    -18     25     26     36 223.2  52.0  33326  275.60 0865.09
2015 04 09 07 34 25 .35     -17    -18     25     26     36 223.2  52.0  33324  275.57 0865.09
2015 04 09 07 34 25 .60     -10    -32     20     34     39 198.3  33.5  33322  275.53 0865.09
2015 04 09 07 34 25 .85     -15    -23     28     28     39 212.6  50.1  33322  275.53 0865.09
2015 04 09 07 34 26 .10     -18    -26     26     32     41 214.3  43.7  33320  275.50 0865.09
2015 04 09 07 34 26 .35      -6    -31     17     32     36 191.6  29.3  33314  275.42 0865.09
2015 04 09 07 34 26 .60     -16    -34     12     38     41 205.4  18.4  33308  275.30 0865.09
2015 04 09 07 34 26 .85     -17    -26     20     32     37 212.5  35.5  33312  275.39 0865.09
2015 04 09 07 34 27 .11     -23    -25     22     35     41 223.2  35.5  33318  275.47 0865.09
2015 04 09 07 34 27 .35     -27    -35     24     45     51 217.0  30.3  33312  275.39 0865.09
2015 04 09 07 34 27 .60     -30    -31     21     44     48 224.1  26.2  33298  275.15 0865.09
2015 04 09 07 34 27 .86     -29    -30      6     43     44 224.1   9.0  33308  275.30 0865.09
2015 04 09 07 34 28 .12     -17    -36      0     40     41 205.5  -1.3  33296  275.10 0865.09
2015 04 09 07 34 28 .37     -14    -20     10     25     26 216.1  21.0  33306  275.29 0865.09
2015 04 09 07 34 28 .62     -14    -18     24     24     33 217.8  50.1  33318  275.48 0865.09
2015 04 09 07 34 28 .87     -14    -27     18     31     35 207.2  35.5  33326  275.60 0865.08
2015 04 09 07 34 29 .12      -9    -19     16     22     27 205.4  39.7  33330  275.68 0865.08
2015 04 09 07 34 29 .37     -12    -27     30     30     42 205.5  50.1  33320  275.50 0865.08
2015 04 09 07 34 29 .62     -14    -27     31     31     43 207.2  50.1  33320  275.52 0865.08
2015 04 09 07 34 29 .87     -11    -36     24     38     44 198.3  35.5  33324  275.58 0865.08
2015 04 09 07 34 30 .12     -14    -19      4     24     25 216.1  11.1  33314  275.40 0865.08
2015 04 09 07 34 30 .37     -16    -26      6     31     32 212.5  11.1  33322  275.53 0865.08
2015 04 09 07 34 30 .63     -21    -26      1     34     35 219.7   2.8  33324  275.58 0865.08
2015 04 09 07 34 30 .87     -19    -23     -1     30     31 219.6  -3.1  33306  275.29 0865.08
2015 04 09 07 34 31 .12     -17    -26     -1     32     33 212.6  -2.2  33308  275.32 0865.08
2015 04 09 07 34 31 .37     -13    -26     -1     30     31 207.2  -3.1  33306  275.29 0865.08
2015 04 09 07 34 31 .63     -10    -31     -1     33     34 198.3  -2.2  33308  275.30 0865.09
2015 04 09 07 34 31 .88     -17    -27      6     33     34 212.6  11.1  33316  275.43 0865.09
2015 04 09 07 34 32 .13     -25    -20     11     33     35 230.5  19.4  33318  275.48 0865.09
2015 04 09 07 34 32 .38     -13    -25     10     29     31 207.2  18.9  33312  275.39 0865.09
2015 04 09 07 34 32 .63     -14    -26      2     30     31 209.0   4.9  33310  275.35 0865.09
2015 04 09 07 34 32 .88     -16    -26     -1     31     32 212.5  -2.2  33302  275.20 0865.09
2015 04 09 07 34 33 .13     -13    -26     -1     30     31 207.2  -3.1  33304  275.24 0865.09
2015 04 09 07 34 33 .38     -10    -22     -1     25     26 205.4  -2.2  33304  275.25 0865.09
2015 04 09 07 34 33 .63     -14    -22      1     27     28 212.6   2.8  33306  275.29 0865.09
2015 04 09 07 34 33 .88      -8    -26      7     28     30 198.5  15.3  33308  275.30 0865.09
2015 04 09 07 34 34 .13       0    -21      7     22     24 179.1  19.4  33306  275.29 0865.09
2015 04 09 07 34 34 .38      -1    -21      7     22     24 182.7  19.4  33310  275.34 0865.09
2015 04 09 07 34 34 .63      -1    -26      4     27     28 182.7   9.0  33308  275.30 0865.09
2015 04 09 07 34 34 .89     -10    -30     -1     32     33 198.3  -2.2  33310  275.35 0865.09
2015 04 09 07 34 35 .14     -13    -26     -1     30     31 207.2  -3.1  33292  275.04 0865.09
2015 04 09 07 34 35 .39     -15    -30     -4     34     35 207.2  -7.3  33282  274.87 0865.09
2015 04 09 07 34 35 .64     -18    -18     -6     26     27 225.0 -13.4  33282  274.89 0865.09
2015 04 09 07 34 35 .90     -15    -23     -3     28     29 212.6  -7.3  33288  274.97 0865.09
2015 04 09 07 34 36 .15     -15    -23     -3     28     29 214.3  -7.3  33280  274.86 0865.09
2015 04 09 07 34 36 .40     -15    -30     -4     34     35 207.2  -7.3  33284  274.92 0865.09
2015 04 09 07 34 36 .65     -15    -23     -3     28     29 214.3  -7.3  33284  274.92 0865.09
2015 04 09 07 34 36 .90     -19    -18     -1     27     28 226.7  -2.2  33296  275.10 0865.09
2015 04 09 07 34 37 .15     -14    -19     -2     24     25 216.1  -5.2  33298  275.14 0865.08
2015 04 09 07 34 37 .40     -18    -15     -2     24     25 228.7  -5.2  33304  275.24 0865.08
2015 04 09 07 34 37 .65     -24    -12     -3     27     28 242.9  -7.3  33308  275.30 0865.08
2015 04 09 07 34 37 .90     -25     -4     -2     26     27 260.3  -5.2  33310  275.34 0865.08
2015 04 09 07 34 38 .15     -18    -12      7     22     24 235.8  19.4  33318  275.48 0865.08
2015 04 09 07 34 38 .40     -23    -23      5     33     34 225.0   9.0  33312  275.39 0865.08
2015 04 09 07 34 38 .65     -26    -21      1     34     35 230.5   2.9  33310  275.35 0865.08
2015 04 09 07 34 38 .90     -28    -18      1     34     35 237.6   2.8  33310  275.34 0865.08
2015 04 09 07 34 39 .15     -27    -19      1     34     35 234.0   2.9  33304  275.25 0865.08
2015 04 09 07 34 39 .40     -24    -16     -1     30     31 235.8  -2.2  33296  275.10 0865.08
2015 04 09 07 34 39 .65     -15    -15      0     22     23 225.0   0.8  33298  275.14 0865.08
2015 04 09 07 34 39 .91     -12    -12      4     17     18 225.0  15.3  33304  275.25 0865.08
2015 04 09 07 34 40 .15     -13    -13     11     19     21 223.4  33.5  33318  275.48 0865.08
2015 04 09 07 34 40 .40     -14    -20     10     25     26 216.1  21.0  33306  275.29 0865.08
2015 04 09 07 34 40 .65     -16    -16      8     23     25 225.0  19.2  33306  275.27 0865.08
2015 04 09 07 34 40 .91     -23     -7     -1     25     26 251.8  -2.2  33292  275.05 0865.08
2015 04 09 07 34 41 .16     -18    -13     -6     23     24 234.0 -15.5  33292  275.04 0865.08
2015 04 09 07 34 41 .41     -19    -14     -4     24     25 234.0  -9.3  33302  275.22 0865.08
2015 04 09 07 34 41 .66     -19    -15     -1     25     26 230.5  -2.2  33306  275.29 0865.08
2015 04 09 07 34 41 .92     -23    -23     -1     33     34 225.0  -2.2  33310  275.35 0865.08
2015 04 09 07 34 42 .17     -28    -23      1     37     38 230.5   2.8  33316  275.43 0865.08
2015 04 09 07 34 42 .42     -24    -24      0     35     36 225.1  -1.3  33310  275.35 0865.08
2015 04 09 07 34 42 .67     -28    -13      2     31     32 244.7   4.9  33308  275.30 0865.08
2015 04 09 07 34 42 .92     -19    -23      2     31     32 219.7   4.9  33314  275.40 0865.08
2015 04 09 07 34 43 .17     -21    -21      0     30     31 225.1   0.8  33316  275.43 0865.08
2015 04 09 07 34 43 .42     -18    -15      5     24     25 230.5  13.2  33314  275.40 0865.08
2015 04 09 07 34 43 .67     -15    -23      1     28     29 212.6   2.8  33316  275.43 0865.08
2015 04 09 07 34 43 .93     -17    -18     -1     25     26 223.2  -2.2  33320  275.50 0865.08
2015 04 09 07 34 44 .18     -19    -23      2     31     32 219.7   4.9  33314  275.40 0865.08
2015 04 09 07 34 44 .42     -19    -17      4     26     27 228.7   9.0  33308  275.30 0865.08
2015 04 09 07 34 44 .67     -27    -23      1     36     37 228.7   2.8  33292  275.04 0865.08
2015 04 09 07 34 44 .92     -27    -19     -1     34     35 234.0  -2.2  33276  274.79 0865.08
2015 04 09 07 34 45 .18     -33    -24     -1     41     42 234.0  -2.2  33276  274.79 0865.08
2015 04 09 07 34 45 .43     -25    -20      0     33     34 230.5  -1.2  33280  274.84 0865.08
2015 04 09 07 34 45 .68     -25    -20      0     33     34 230.5  -1.2  33280  274.84 0865.08
2015 04 09 07 34 45 .93     -25    -25     -3     36     37 225.0  -5.2  33280  274.84 0865.08
2015 04 09 07 34 46 .18     -25    -30     -1     40     41 219.6  -2.2  33284  274.91 0865.08
2015 04 09 07 34 46 .43     -25    -30     -7     40     41 219.6 -10.3  33280  274.84 0865.08
2015 04 09 07 34 46 .68     -30    -26     -1     40     41 228.7  -2.2  33278  274.81 0865.08
2015 04 09 07 34 46 .93     -29    -25      0     39     40 228.7  -1.3  33278  274.81 0865.08
2015 04 09 07 34 47 .18     -23    -23     -1     33     34 225.0  -2.2  33286  274.96 0865.08
2015 04 09 07 34 47 .44     -26    -24     -1     36     37 226.7  -2.2  33290  275.02 0865.08
2015 04 09 07 34 47 .68     -33    -24     -1     41     42 234.0  -2.2  33294  275.09 0865.08
2015 04 09 07 34 47 .93     -35    -18     -1     40     41 242.9  -2.2  33282  274.89 0865.08
2015 04 09 07 34 48 .19     -33    -25     -2     42     43 233.1  -3.1  33292  275.04 0865.08
2015 04 09 07 34 48 .43     -31    -27     -1     42     43 228.7  -2.2  33292  275.05 0865.08
2015 04 09 07 34 48 .68     -31    -28     -1     42     43 227.8  -2.2  33286  274.96 0865.08
2015 04 09 07 34 48 .95     -21    -21     -1     31     32 225.0  -2.2  33300  275.17 0865.08
2015 04 09 07 34 49 .19     -31    -26     -1     41     42 229.6  -2.2  33298  275.15 0865.08
2015 04 09 07 34 49 .45     -32    -20     -1     39     40 237.5  -2.2  33290  275.01 0865.08
2015 04 09 07 34 49 .70     -33    -15     -2     37     38 244.6  -3.1  33276  274.79 0865.08
2015 04 09 07 34 49 .95     -28    -23     -4     37     38 230.5  -7.2  33278  274.81 0865.08
2015 04 09 07 34 50 .20     -36    -32     -1     49     50 228.7  -2.2  33282  274.87 0865.08
2015 04 09 07 34 50 .45     -36    -32     -1     49     50 228.7  -2.2  33282  274.87 0865.08
2015 04 09 07 34 50 .70     -41    -32     -4     53     54 232.2  -5.2  33278  274.82 0865.08
2015 04 09 07 34 50 .95     -41    -28     -2     50     51 235.8  -3.1  33280  274.84 0865.08
2015 04 09 07 34 51 .20     -41    -31    -13     52     54 232.2 -14.5  33274  274.74 0865.08
2015 04 09 07 34 51 .46     -36    -32     -8     49     50 228.7  -9.3  33276  274.79 0865.08
2015 04 09 07 34 51 .70     -35    -28     -5     46     47 231.4  -7.2  33284  274.91 0865.09
2015 04 09 07 34 51 .96     -38    -25    -15     46     49 236.7 -18.7  33292  275.05 0865.09
2015 04 09 07 34 52 .21     -26    -25     -9     37     39 226.7 -14.5  33320  275.50 0865.09
2015 04 09 07 34 52 .45     -20    -32     -2     38     39 212.6  -3.1  33328  275.63 0865.09
2015 04 09 07 34 52 .70     -19    -30     -3     36     37 212.5  -5.2  33340  275.83 0865.09
2015 04 09 07 34 52 .95     -25    -30     -1     40     41 219.6  -2.2  33342  275.86 0865.09
2015 04 09 07 34 53 .21     -24    -38     -1     46     47 212.5  -2.2  33334  275.75 0865.09
2015 04 09 07 34 53 .45     -32    -34      4     47     48 223.2   5.9  33330  275.68 0865.09
2015 04 09 07 34 53 .71     -35    -42      6     55     56 219.6   6.9  33326  275.60 0865.09
2015 04 09 07 34 53 .96     -26    -49     11     56     58 208.1  11.0  33318  275.48 0865.09
2015 04 09 07 34 54 .21     -29    -39      6     49     50 217.0   8.0  33326  275.60 0865.09
2015 04 09 07 34 54 .46     -33    -31      2     46     47 226.0   2.9  33322  275.55 0865.09
2015 04 09 07 34 54 .71     -31    -35     -1     47     48 221.4  -2.2  33292  275.05 0865.09
2015 04 09 07 34 54 .96     -33    -31     -1     46     47 226.0  -2.2  33270  274.69 0865.09
2015 04 09 07 34 55 .21     -39    -34     -2     52     53 228.7  -3.1  33274  274.74 0865.09
2015 04 09 07 34 55 .46     -39    -35     -2     53     54 227.8  -2.2  33270  274.69 0865.09
2015 04 09 07 34 55 .71     -35    -35     -3     50     51 225.0  -4.1  33268  274.66 0865.09
2015 04 09 07 34 55 .97     -39    -35     -2     53     54 227.8  -2.2  33270  274.69 0865.09
2015 04 09 07 34 56 .22     -35    -35     -3     50     51 225.0  -4.1  33268  274.66 0865.08
2015 04 09 07 34 56 .47     -36    -39     -7     54     55 223.2  -7.3  33274  274.74 0865.08
2015 04 09 07 34 56 .73     -38    -37     -2     54     55 225.9  -2.2  33290  275.02 0865.08
2015 04 09 07 34 56 .98     -30    -34     12     46     48 221.4  15.3  33322  275.55 0865.08
2015 04 09 07 34 57 .22     -33    -38     10     51     53 220.5  11.1  33328  275.63 0865.08
2015 04 09 07 34 57 .47     -24    -37      5     45     46 212.5   6.9  33312  275.39 0865.08
2015 04 09 07 34 57 .72     -23    -35      0     42     43 213.4  -0.3  33304  275.24 0865.08
2015 04 09 07 34 57 .97     -29    -30     -3     43     44 224.1  -5.2  33274  274.76 0865.08
2015 04 09 07 34 58 .23     -26    -35     -3     44     45 217.0  -4.1  33274  274.74 0865.08
2015 04 09 07 34 58 .47     -29    -30     -3     43     44 224.1  -5.2  33278  274.82 0865.08
2015 04 09 07 34 58 .73     -33    -31     -1     46     47 226.0  -2.2  33270  274.69 0865.08
2015 04 09 07 34 58 .98     -31    -35     -6     47     48 221.4  -7.3  33270  274.69 0865.08
2015 04 09 07 34 59 .23     -35    -35     -3     50     51 225.0  -4.1  33268  274.66 0865.08
2015 04 09 07 34 59 .48     -35    -34    -11     50     52 226.0 -12.4  33278  274.82 0865.08
2015 04 09 07 34 59 .73     -38    -37     -2     54     55 225.9  -2.2  33310  275.35 0865.08
2015 04 09 07 34 59 .98     -45    -45     -2     64     65 225.1  -2.2  33294  275.07 0865.08
2015 04 09 07 35 00 .23     -33    -38      2     51     52 220.5   2.9  33290  275.01 0865.08
2015 04 09 07 35 00 .48     -38    -38     -7     54     55 225.0  -7.3  33270  274.69 0865.08
2015 04 09 07 35 00 .73     -38    -38     -7     54     55 225.0  -7.3  33270  274.69 0865.08
2015 04 09 07 35 00 .98     -31    -38     -2     50     51 219.7  -3.1  33282  274.89 0865.08
2015 04 09 07 35 01 .23     -38    -38     -2     54     55 225.0  -2.2  33274  274.76 0865.08
2015 04 09 07 35 01 .49     -36    -32     -1     49     50 228.7  -2.2  33282  274.87 0865.08
2015 04 09 07 35 01 .73     -31    -34     -6     47     48 222.3  -7.3  33274  274.74 0865.08
2015 04 09 07 35 01 .98     -31    -32     -9     45     46 224.2 -11.3  33266  274.61 0865.08
2015 04 09 07 35 02 .23     -34    -35     -5     49     50 224.2  -6.2  33272  274.71 0865.08
2015 04 09 07 35 02 .49     -38    -37     -7     54     55 225.9  -7.3  33276  274.79 0865.08
2015 04 09 07 35 02 .75     -35    -35     -6     50     51 225.0  -7.2  33278  274.81 0865.08
2015 04 09 07 35 03 .00     -35    -35      0     50     51 225.0  -0.3  33282  274.89 0865.08
2015 04 09 07 35 03 .25     -36    -32     -1     49     50 228.7  -2.2  33286  274.96 0865.08
2015 04 09 07 35 03 .50     -36    -32     -1     49     50 228.7  -2.2  33282  274.87 0865.08
2015 04 09 07 35 03 .75     -39    -35     -2     53     54 227.8  -2.2  33270  274.69 0865.08
2015 04 09 07 35 04 .00     -46    -28     -7     55     56 238.5  -7.3  33270  274.69 0865.08
2015 04 09 07 35 04 .25     -46    -28     -7     55     56 238.5  -7.3  33270  274.69 0865.09
2015 04 09 07 35 04 .50     -40    -27    -10     49     51 235.8 -12.4  33274  274.76 0865.09
2015 04 09 07 35 04 .75     -40    -27    -10     49     51 235.8 -12.4  33274  274.76 0865.09
2015 04 09 07 35 05 .00     -39    -25     -7     47     48 237.6  -9.3  33274  274.74 0865.09
2015 04 09 07 35 05 .25     -47    -30     -7     56     57 237.6  -7.3  33276  274.79 0865.09
2015 04 09 07 35 05 .50     -39    -25     -1     47     48 237.6  -2.2  33278  274.82 0865.09
2015 04 09 07 35 05 .76     -35    -28     -5     46     47 231.4  -7.2  33286  274.96 0865.09
2015 04 09 07 35 06 .00     -35    -36     -4     51     52 224.2  -5.2  33280  274.86 0865.09
2015 04 09 07 35 06 .25     -39    -25     -7     47     48 237.6  -9.3  33274  274.74 0865.09
2015 04 09 07 35 06 .50     -44    -25     -4     51     52 240.2  -5.2  33278  274.82 0865.09
2015 04 09 07 35 06 .76     -39    -35     -2     53     54 227.8  -2.2  33276  274.79 0865.09
2015 04 09 07 35 07 .00     -38    -38     -2     54     55 225.0  -2.2  33278  274.81 0865.09
2015 04 09 07 35 07 .26     -43    -34     -1     56     57 231.4  -1.3  33274  274.76 0865.09
2015 04 09 07 35 07 .51     -40    -35      2     54     55 228.7   2.9  33274  274.76 0865.09
2015 04 09 07 35 07 .76     -41    -28      2     50     51 235.8   2.9  33274  274.76 0865.09
2015 04 09 07 35 08 .01     -39    -35     -2     53     54 227.8  -2.2  33274  274.74 0865.09
2015 04 09 07 35 08 .26     -43    -36     -2     57     58 230.5  -2.2  33268  274.66 0865.09
2015 04 09 07 35 08 .51     -43    -36     -2     57     58 230.5  -2.2  33272  274.71 0865.09
2015 04 09 07 35 08 .76     -41    -32      0     53     54 232.2   0.8  33274  274.74 0865.09
2015 04 09 07 35 09 .01     -41    -32      0     53     54 232.2   0.8  33274  274.74 0865.09
2015 04 09 07 35 09 .26     -38    -38     -2     54     55 225.0  -2.2  33274  274.76 0865.09
2015 04 09 07 35 09 .51     -38    -38     -2     54     55 225.0  -2.2  33282  274.87 0865.09
2015 04 09 07 35 09 .77     -40    -35     -3     54     55 228.7  -3.1  33280  274.84 0865.09
2015 04 09 07 35 10 .03     -43    -36     -7     57     58 230.5  -7.3  33300  275.19 0865.09
2015 04 09 07 35 10 .27     -39    -35     -2     53     54 227.8  -2.2  33304  275.24 0865.09
2015 04 09 07 35 10 .52     -44    -36     -2     58     59 230.5  -2.2  33296  275.10 0865.09
2015 04 09 07 35 10 .77     -43    -43     -2     62     63 225.1  -2.2  33284  274.91 0865.09
2015 04 09 07 35 11 .02     -38    -37     -2     54     55 225.9  -2.2  33284  274.92 0865.09
2015 04 09 07 35 11 .27     -47    -38     -3     61     62 230.5  -3.1  33276  274.79 0865.09
2015 04 09 07 35 11 .53     -44    -43     -2     62     63 226.0  -2.2  33278  274.82 0865.09
2015 04 09 07 35 11 .78     -36    -51      7     63     64 215.2   6.9  33310  275.35 0865.09
2015 04 09 07 35 12 .03     -31    -42      4     53     54 217.0   4.9  33300  275.19 0865.09
2015 04 09 07 35 12 .28     -39    -35     -2     53     54 227.8  -2.2  33274  274.74 0865.09
2015 04 09 07 35 12 .53     -39    -35     -2     53     54 227.8  -2.2  33270  274.69 0865.09
2015 04 09 07 35 12 .78     -40    -35     -3     54     55 228.7  -3.1  33276  274.79 0865.09
2015 04 09 07 35 13 .03     -35    -35      0     50     51 225.0  -0.3  33290  275.02 0865.09
2015 04 09 07 35 13 .28     -38    -38      4     54     55 225.0   4.9  33292  275.04 0865.09
2015 04 09 07 35 13 .53     -34    -35      7     49     50 224.2   9.0  33292  275.05 0865.09
2015 04 09 07 35 13 .78     -38    -38      4     54     55 225.0   4.9  33298  275.14 0865.09
2015 04 09 07 35 14 .03     -40    -35      2     54     55 228.7   2.9  33290  275.01 0865.09
2015 04 09 07 35 14 .28     -41    -40      0     58     59 226.0  -0.3  33294  275.09 0865.09
2015 04 09 07 35 14 .53     -45    -40     -3     61     62 228.7  -3.1  33288  274.99 0865.09
2015 04 09 07 35 14 .79     -46    -47      2     66     67 224.2   1.8  33290  275.02 0865.09
2015 04 09 07 35 15 .03     -46    -54      8     72     73 220.5   6.9  33318  275.48 0865.09
2015 04 09 07 35 15 .28     -26    -51     15     58     61 207.2  15.2  33318  275.47 0865.09
2015 04 09 07 35 15 .54     -35    -42      7     55     56 219.7   8.0  33292  275.05 0865.09
2015 04 09 07 35 15 .79     -33    -47      1     58     59 215.2   1.8  33284  274.91 0865.09
2015 04 09 07 35 16 .04     -38    -46     -2     60     61 219.7  -2.2  33272  274.71 0865.09
2015 04 09 07 35 16 .29     -45    -48     -2     67     68 223.2  -2.2  33268  274.66 0865.09
2015 04 09 07 35 16 .54     -42    -54     -5     69     70 217.8  -4.1  33272  274.71 0865.09
2015 04 09 07 35 16 .80     -43    -46     -5     64     65 223.2  -5.2  33266  274.61 0865.09
2015 04 09 07 35 17 .05     -43    -46     -5     64     65 223.2  -5.2  33266  274.61 0865.09
2015 04 09 07 35 17 .30     -44    -44     -8     63     64 225.1  -7.2  33268  274.64 0865.09
2015 04 09 07 35 17 .55     -48    -40     -8     63     64 230.4  -7.3  33266  274.61 0865.09
2015 04 09 07 35 17 .80     -40    -39    -11     57     59 226.0 -11.5  33268  274.64 0865.09
2015 04 09 07 35 18 .05     -36    -51     -5     63     64 215.2  -5.2  33266  274.61 0865.09
2015 04 09 07 35 18 .30     -33    -47    -11     58     60 215.2 -11.3  33266  274.61 0865.09
2015 04 09 07 35 18 .55     -35    -42     -6     55     56 219.7  -6.2  33270  274.67 0865.09
2015 04 09 07 35 18 .80     -33    -47    -11     58     60 215.2 -11.3  33266  274.61 0865.09
2015 04 09 07 35 19 .05     -36    -50    -12     62     64 216.1 -11.3  33264  274.59 0865.09
2015 04 09 07 35 19 .30     -33    -47    -11     58     60 215.2 -11.3  33266  274.61 0865.09
2015 04 09 07 35 19 .55     -33    -47    -11     58     60 215.2 -11.3  33266  274.61 0865.09
2015 04 09 07 35 19 .81     -38    -46    -16     60     63 219.7 -15.4  33262  274.56 0865.09
2015 04 09 07 35 20 .06     -36    -50    -12     62     64 216.1 -11.3  33270  274.67 0865.09
2015 04 09 07 35 20 .31     -28    -53     -4     61     62 208.1  -4.1  33276  274.77 0865.09
2015 04 09 07 35 20 .56     -29    -45     -6     54     55 212.5  -7.2  33284  274.91 0865.09
2015 04 09 07 35 20 .81     -31    -49     -7     59     60 212.5  -7.3  33280  274.84 0865.09
2015 04 09 07 35 21 .06     -29    -45     -6     54     55 212.6  -7.2  33278  274.81 0865.09
2015 04 09 07 35 21 .31     -22    -41     -5     47     48 208.1  -6.2  33286  274.96 0865.09
2015 04 09 07 35 21 .56     -26    -42      2     50     51 212.5   2.8  33292  275.05 0865.09
2015 04 09 07 35 21 .81     -17    -42     -1     46     47 201.8  -2.2  33286  274.96 0865.09
2015 04 09 07 35 22 .06     -41    -42     -9     59     60 224.1  -9.3  33268  274.66 0865.09
2015 04 09 07 35 22 .31     -36    -32     -6     49     50 228.7  -7.3  33268  274.64 0865.09
2015 04 09 07 35 22 .56     -40    -35     -8     54     55 228.7  -9.3  33268  274.66 0865.09
2015 04 09 07 35 22 .81     -43    -36    -15     57     60 230.5 -15.4  33268  274.66 0865.09
2015 04 09 07 35 23 .06     -40    -41    -10     58     59 224.1 -10.3  33272  274.71 0865.09
2015 04 09 07 35 23 .31     -42    -38     -4     58     59 227.8  -4.1  33280  274.86 0865.09
2015 04 09 07 35 23 .57     -40    -35     -3     54     55 228.7  -3.1  33280  274.84 0865.09
2015 04 09 07 35 23 .82     -36    -32     -1     49     50 228.7  -2.2  33282  274.87 0865.09
2015 04 09 07 35 24 .07     -36    -32     -8     49     50 228.7  -9.3  33276  274.79 0865.09
2015 04 09 07 35 24 .33     -35    -35    -13     50     52 225.0 -14.5  33270  274.69 0865.09
2015 04 09 07 35 24 .57     -35    -35    -13     50     52 225.0 -14.5  33268  274.64 0865.09
2015 04 09 07 35 24 .83     -40    -39    -11     57     59 226.0 -11.5  33268  274.64 0865.09
2015 04 09 07 35 25 .08     -43    -32    -12     54     56 233.1 -12.4  33270  274.69 0865.09
2015 04 09 07 35 25 .33     -39    -26    -17     48     52 235.8 -19.7  33270  274.69 0865.09
2015 04 09 07 35 25 .58     -37    -40    -18     55     57 223.2 -23.8  33268  274.64 0865.09
2015 04 09 07 35 25 .83     -43    -42    -16     61     64 226.0 -14.5  33268  274.66 0865.09
2015 04 09 07 35 26 .08     -36    -39     -7     54     55 223.2  -7.3  33274  274.74 0865.09
2015 04 09 07 35 26 .33     -41    -32      0     53     54 232.2   0.8  33274  274.74 0865.09
2015 04 09 07 35 26 .58     -40    -35     -3     54     55 228.7  -3.1  33280  274.84 0865.09
2015 04 09 07 35 26 .83     -36    -32     -1     49     50 228.7  -2.2  33282  274.87 0865.09
2015 04 09 07 35 27 .08     -35    -35     -6     50     51 225.0  -7.2  33278  274.81 0865.09
2015 04 09 07 35 27 .33     -35    -40      0     54     55 221.4  -0.3  33288  274.99 0865.09
2015 04 09 07 35 27 .58     -35    -42      1     55     56 219.6   1.8  33282  274.89 0865.09
2015 04 09 07 35 27 .84     -32    -45      2     56     57 215.2   2.9  33286  274.96 0865.09
2015 04 09 07 35 28 .08     -35    -42      7     55     56 219.7   8.0  33292  275.05 0865.09
2015 04 09 07 35 28 .33     -31    -42      4     53     54 217.0   4.9  33288  274.97 0865.09
2015 04 09 07 35 28 .59     -24    -38     -1     46     47 212.5  -2.2  33280  274.86 0865.09
2015 04 09 07 35 28 .84     -31    -34     -1     47     48 222.3  -2.2  33284  274.92 0865.09
2015 04 09 07 35 29 .09     -26    -35     -3     44     45 217.0  -4.1  33280  274.84 0865.09
2015 04 09 07 35 29 .34     -31    -34     -1     47     48 222.3  -2.2  33284  274.92 0865.09
2015 04 09 07 35 29 .59     -31    -32      2     45     46 224.2   2.9  33282  274.87 0865.09
2015 04 09 07 35 29 .84     -32    -39      2     51     52 219.6   2.9  33282  274.87 0865.09
2015 04 09 07 35 30 .09     -31    -27      6     42     43 228.7   9.0  33294  275.09 0865.09
2015 04 09 07 35 30 .34     -31    -27      6     42     43 228.7   9.0  33298  275.14 0865.09
2015 04 09 07 35 30 .60     -29    -30      6     43     44 224.1   9.0  33296  275.10 0865.09
2015 04 09 07 35 30 .85     -35    -28      1     45     46 231.4   1.8  33292  275.04 0865.09
2015 04 09 07 35 31 .10     -38    -21      0     44     45 240.2   0.8  33288  274.99 0865.09
2015 04 09 07 35 31 .35     -39    -25     -1     47     48 236.7  -2.2  33286  274.96 0865.09
2015 04 09 07 35 31 .60     -37    -23      8     44     45 238.5  11.1  33292  275.05 0865.10
2015 04 09 07 35 31 .85     -28    -23      1     37     38 230.5   2.8  33288  274.99 0865.10
2015 04 09 07 35 32 .10     -28    -23      1     37     38 230.5   2.8  33280  274.84 0865.10
2015 04 09 07 35 32 .35     -30    -26     -1     40     41 228.7  -2.2  33278  274.81 0865.10
2015 04 09 07 35 32 .60     -36    -32     -8     49     50 228.7  -9.3  33276  274.79 0865.10
2015 04 09 07 35 32 .86     -33    -26     -3     43     44 231.4  -4.1  33278  274.81 0865.10
2015 04 09 07 35 33 .10     -34    -24     -1     42     43 234.9  -2.2  33280  274.84 0865.10
2015 04 09 07 35 33 .36     -35    -28     -4     45     46 231.4  -6.2  33274  274.76 0865.10
2015 04 09 07 35 33 .61     -31    -32     -2     45     46 224.2  -3.1  33276  274.79 0865.10
2015 04 09 07 35 33 .86     -35    -28     -4     45     46 231.4  -6.2  33278  274.82 0865.10
2015 04 09 07 35 34 .11     -33    -24     -1     41     42 234.0  -2.2  33276  274.79 0865.10
2015 04 09 07 35 34 .36     -31    -27     -6     42     43 228.7  -9.3  33280  274.84 0865.10
2015 04 09 07 35 34 .61     -35    -28     -4     45     46 231.4  -6.2  33278  274.82 0865.10
2015 04 09 07 35 34 .86     -36    -32     -8     49     50 228.7  -9.3  33276  274.79 0865.10
2015 04 09 07 35 35 .11     -33    -24     -1     41     42 234.0  -2.2  33276  274.79 0865.09
2015 04 09 07 35 35 .36     -33    -24     -1     41     42 234.0  -2.2  33276  274.79 0865.09
2015 04 09 07 35 35 .61     -41    -28     -2     50     51 235.8  -3.1  33280  274.84 0865.09
2015 04 09 07 35 35 .86     -33    -24     -1     41     42 234.0  -2.2  33276  274.79 0865.09
2015 04 09 07 35 36 .11     -39    -25     -1     47     48 237.6  -2.2  33278  274.82 0865.09
2015 04 09 07 35 36 .36     -41    -28     -2     50     51 235.8  -3.1  33280  274.84 0865.09
2015 04 09 07 35 36 .61     -41    -28     -2     50     51 235.8  -3.1  33282  274.89 0865.09
2015 04 09 07 35 36 .86     -31    -32     -2     45     46 224.2  -3.1  33280  274.84 0865.09
2015 04 09 07 35 37 .11     -41    -28     -2     50     51 235.8  -3.1  33280  274.84 0865.09
2015 04 09 07 35 37 .36     -36    -32     -1     49     50 228.7  -2.2  33282  274.87 0865.09
2015 04 09 07 35 37 .62     -40    -38     -6     56     57 226.9  -6.2  33278  274.81 0865.09
2015 04 09 07 35 37 .88     -49    -43      0     66     67 228.7   0.8  33274  274.74 0865.09
2015 04 09 07 35 38 .13     -54    -45     -2     71     72 230.5  -2.2  33270  274.69 0865.09
2015 04 09 07 35 38 .38     -51    -41     -1     66     67 231.4  -1.3  33272  274.71 0865.09
2015 04 09 07 35 38 .63     -50    -47     -8     69     70 226.9  -7.2  33280  274.84 0865.09
2015 04 09 07 35 38 .88     -43    -42     -7     61     62 226.0  -7.2  33280  274.84 0865.09
2015 04 09 07 35 39 .13     -47    -38     -3     61     62 230.5  -3.1  33280  274.84 0865.09
2015 04 09 07 35 39 .38     -49    -42     -5     65     66 229.6  -5.2  33278  274.81 0865.09
2015 04 09 07 35 39 .63     -43    -42     -7     61     62 226.0  -7.2  33280  274.84 0865.08
2015 04 09 07 35 39 .88     -43    -42     -7     61     62 226.0  -7.2  33280  274.84 0865.08
2015 04 09 07 35 40 .13     -40    -38     -6     56     57 226.9  -6.2  33280  274.86 0865.08
2015 04 09 07 35 40 .38     -42    -46     -5     63     64 222.3  -5.2  33284  274.92 0865.08
2015 04 09 07 35 40 .63     -40    -41     -3     58     59 224.1  -3.1  33286  274.94 0865.08
2015 04 09 07 35 40 .88     -33    -39     -2     52     53 220.5  -3.1  33288  274.99 0865.08
2015 04 09 07 35 41 .13     -40    -41     -3     58     59 224.1  -3.1  33288  274.99 0865.08
2015 04 09 07 35 41 .38     -40    -41     -3     58     59 224.1  -3.1  33282  274.89 0865.09
2015 04 09 07 35 41 .63     -46    -47     -2     66     67 224.2  -2.2  33276  274.79 0865.09
2015 04 09 07 35 41 .88     -48    -43     -4     65     66 227.8  -4.1  33274  274.76 0865.09
2015 04 09 07 35 42 .14     -50    -47     -1     69     70 226.9  -1.3  33274  274.76 0865.09
2015 04 09 07 35 42 .39     -44    -43     -2     62     63 226.0  -2.2  33278  274.81 0865.08
2015 04 09 07 35 42 .64     -38    -38     -2     54     55 225.0  -2.2  33278  274.81 0865.08
2015 04 09 07 35 42 .89     -41    -40      0     58     59 226.0  -0.3  33280  274.84 0865.08
2015 04 09 07 35 43 .14     -38    -38     -2     54     55 225.0  -2.2  33274  274.76 0865.08
2015 04 09 07 35 43 .39     -41    -32      0     53     54 232.2   0.8  33274  274.74 0865.08
2015 04 09 07 35 43 .64     -51    -41     -1     66     67 231.4  -1.3  33272  274.71 0865.08
2015 04 09 07 35 43 .89     -44    -36     -2     58     59 230.5  -2.2  33278  274.81 0865.08
2015 04 09 07 35 44 .14     -44    -36     -2     58     59 230.5  -2.2  33274  274.76 0865.08
2015 04 09 07 35 44 .39     -44    -36     -2     58     59 230.5  -2.2  33278  274.81 0865.08
2015 04 09 07 35 44 .65     -50    -36      0     63     64 234.0  -0.3  33280  274.84 0865.08
2015 04 09 07 35 44 .90     -41    -40      0     58     59 226.0  -0.3  33276  274.79 0865.08
2015 04 09 07 35 45 .15     -43    -43      5     62     63 225.0   4.9  33280  274.84 0865.08
2015 04 09 07 35 45 .40     -40    -40      6     57     58 225.1   6.9  33280  274.86 0865.08
2015 04 09 07 35 45 .65     -47    -39      1     62     63 230.4   1.8  33278  274.81 0865.08
2015 04 09 07 35 45 .90     -53    -43      3     69     70 230.5   2.8  33284  274.91 0865.09
2015 04 09 07 35 46 .15     -39    -41      2     57     58 223.2   2.9  33284  274.91 0865.09
2015 04 09 07 35 46 .41     -42    -45      7     62     63 223.2   6.9  33286  274.96 0865.09
2015 04 09 07 35 46 .66     -45    -49      3     67     68 222.3   2.9  33292  275.04 0865.09
2015 04 09 07 35 46 .91     -45    -49      3     67     68 222.3   2.9  33306  275.29 0865.09
2015 04 09 07 35 47 .16     -33    -53      8     63     64 212.5   8.0  33310  275.34 0865.09
2015 04 09 07 35 47 .41     -36    -50     -1     62     63 216.1  -1.3  33298  275.14 0865.09
2015 04 09 07 35 47 .66     -45    -49      3     67     68 222.3   2.9  33282  274.87 0865.09
2015 04 09 07 35 47 .91     -47    -45      3     66     67 225.9   2.8  33280  274.86 0865.09
2015 04 09 07 35 48 .16     -41    -42      3     59     60 224.1   2.9  33278  274.81 0865.09
2015 04 09 07 35 48 .41     -44    -36     -2     58     59 230.5  -2.2  33278  274.81 0865.09
2015 04 09 07 35 48 .66     -45    -42     -6     62     63 226.9  -6.2  33278  274.82 0865.09
2015 04 09 07 35 48 .91     -40    -38     -6     56     57 226.9  -6.2  33280  274.86 0865.09
2015 04 09 07 35 49 .16     -51    -39     -2     65     66 232.2  -2.2  33280  274.86 0865.09
2015 04 09 07 35 49 .41     -42    -38     -4     58     59 227.8  -4.1  33280  274.86 0865.09
2015 04 09 07 35 49 .67     -38    -46     -2     61     62 219.6  -2.2  33280  274.86 0865.09
2015 04 09 07 35 49 .91     -36    -51     -5     63     64 215.2  -5.2  33284  274.91 0865.09
2015 04 09 07 35 50 .17     -41    -50    -10     65     66 219.6  -9.3  33278  274.81 0865.09
2015 04 09 07 35 50 .42     -35    -49     -4     61     62 216.1  -4.1  33290  275.01 0865.09
2015 04 09 07 35 50 .67     -26    -50     -2     57     58 208.1  -2.2  33300  275.17 0865.09
2015 04 09 07 35 50 .92     -26    -49     11     56     58 208.1  11.0  33300  275.19 0865.09
2015 04 09 07 35 51 .16     -36    -36    -14     52     55 225.0 -15.5  33280  274.86 0865.09
2015 04 09 07 35 51 .43     -40    -40     -6     57     58 225.1  -6.2  33272  274.71 0865.09
2015 04 09 07 35 51 .68     -40    -38     -6     56     57 226.9  -6.2  33274  274.76 0865.09
2015 04 09 07 35 51 .93     -29    -39     -5     49     50 217.0  -6.2  33274  274.76 0865.09
2015 04 09 07 35 52 .18     -29    -45    -12     54     56 212.6 -12.4  33276  274.79 0865.09
2015 04 09 07 35 52 .43     -31    -42     -6     53     54 217.0  -7.3  33276  274.79 0865.10
2015 04 09 07 35 52 .68     -38    -38     -7     54     55 225.0  -7.3  33270  274.69 0865.10
2015 04 09 07 35 52 .93     -35    -42    -14     55     57 219.7 -14.5  33264  274.59 0865.10
2015 04 09 07 35 53 .18     -35    -42    -14     55     57 219.7 -14.5  33264  274.59 0865.10
2015 04 09 07 35 53 .43     -35    -43    -12     56     58 219.6 -12.4  33268  274.64 0865.10
2015 04 09 07 35 53 .68     -35    -42    -14     55     57 219.7 -14.5  33264  274.59 0865.10
2015 04 09 07 35 53 .93     -35    -42    -14     55     57 219.7 -14.5  33264  274.59 0865.10
2015 04 09 07 35 54 .18     -35    -42    -14     55     57 219.7 -14.5  33264  274.59 0865.10
2015 04 09 07 35 54 .43     -35    -42    -14     55     57 219.7 -14.5  33264  274.59 0865.10
2015 04 09 07 35 54 .68     -35    -42    -14     55     57 219.7 -14.5  33264  274.59 0865.10
2015 04 09 07 35 54 .93     -35    -42    -14     55     57 219.7 -14.5  33264  274.59 0865.10
2015 04 09 07 35 55 .19     -33    -38    -11     51     53 220.5 -12.4  33266  274.61 0865.10
2015 04 09 07 35 55 .43     -33    -38    -11     51     53 220.5 -12.4  33266  274.61 0865.10
2015 04 09 07 35 55 .69     -33    -38    -11     51     53 220.5 -12.4  33266  274.61 0865.10
2015 04 09 07 35 55 .94     -31    -32     -9     45     46 224.2 -11.3  33266  274.61 0865.10
2015 04 09 07 35 56 .19     -31    -32     -9     45     46 224.2 -11.3  33266  274.61 0865.10
2015 04 09 07 35 56 .44     -31    -32     -9     45     46 224.2 -11.3  33266  274.61 0865.10
2015 04 09 07 35 56 .69     -31    -32     -9     45     46 224.2 -11.3  33266  274.61 0865.10
2015 04 09 07 35 56 .94     -35    -35    -13     50     52 225.0 -14.5  33268  274.64 0865.10
2015 04 09 07 35 57 .19     -31    -35    -16     47     50 221.4 -18.7  33268  274.66 0865.10
2015 04 09 07 35 57 .44     -28    -31    -12     42     44 222.3 -16.6  33268  274.64 0865.10
2015 04 09 07 35 57 .69     -28    -31    -12     42     44 222.3 -16.6  33268  274.64 0865.10
2015 04 09 07 35 57 .94     -25    -30    -14     40     43 219.6 -19.7  33266  274.61 0865.10
2015 04 09 07 35 58 .19     -28    -31    -12     42     44 222.3 -16.6  33268  274.64 0865.10
2015 04 09 07 35 58 .45     -28    -31    -12     42     44 222.3 -16.6  33268  274.64 0865.10
2015 04 09 07 35 58 .70     -26    -24    -10     36     38 226.7 -15.5  33268  274.66 0865.10
2015 04 09 07 35 58 .95     -25    -30    -14     40     43 219.6 -19.7  33266  274.61 0865.10
2015 04 09 07 35 59 .20     -25    -30    -14     40     43 219.6 -19.7  33266  274.61 0865.10
2015 04 09 07 35 59 .45     -25    -30    -14     40     43 219.6 -19.7  33266  274.61 0865.10
2015 04 09 07 35 59 .70     -25    -30    -14     40     43 219.6 -19.7  33266  274.61 0865.10
2015 04 09 07 35 59 .96     -20    -38     -8     44     45 208.1 -11.3  33278  274.81 0865.10
2015 04 09 07 36 00 .21     -24    -37     -1     45     46 212.5  -2.2  33290  275.01 0865.10
2015 04 09 07 36 00 .46     -19    -39      2     44     45 206.3   2.9  33284  274.91 0865.10
2015 04 09 07 36 00 .71     -25    -30     -1     40     41 219.6  -2.2  33292  275.05 0865.10
2015 04 09 07 36 00 .96     -20    -37      3     43     44 208.1   4.9  33294  275.07 0865.10
2015 04 09 07 36 01 .21     -22    -42      0     48     49 208.1  -0.3  33294  275.09 0865.10
2015 04 09 07 36 01 .46     -33    -38     -2     51     52 220.5  -2.2  33304  275.24 0865.10
2015 04 09 07 36 01 .71     -23    -35      0     42     43 213.4  -0.3  33306  275.29 0865.10
2015 04 09 07 36 01 .96     -21    -26      1     34     35 219.7   2.8  33310  275.34 0865.10
2015 04 09 07 36 02 .21     -24    -37     -1     45     46 212.5  -2.2  33308  275.30 0865.10
2015 04 09 07 36 02 .46     -41    -42     10     59     60 224.1  10.1  33300  275.19 0865.09
2015 04 09 07 36 02 .71     -39    -41      2     57     58 223.2   2.9  33302  275.20 0865.09
2015 04 09 07 36 02 .97     -42    -46      6     63     64 222.3   5.9  33296  275.10 0865.09
2015 04 09 07 36 03 .21     -27    -40     10     49     51 214.3  12.2  33296  275.12 0865.09
2015 04 09 07 36 03 .47     -31    -40      7     51     52 217.8   8.0  33294  275.07 0865.09
2015 04 09 07 36 03 .71     -24    -38      3     46     47 212.5   4.9  33310  275.34 0865.09
2015 04 09 07 36 03 .96     -31    -48     11     58     60 212.5  11.1  33292  275.05 0865.09
2015 04 09 07 36 04 .22     -38    -36     12     53     55 225.9  13.2  33294  275.07 0865.09
2015 04 09 07 36 04 .47     -38    -36     12     53     55 225.9  13.2  33296  275.10 0865.09
2015 04 09 07 36 04 .72     -33    -38     10     51     52 220.5  11.1  33294  275.09 0865.09
2015 04 09 07 36 04 .97     -35    -28      8     46     47 231.4  10.1  33296  275.10 0865.09
2015 04 09 07 36 05 .22     -35    -28      0     46     47 231.4  -0.3  33300  275.19 0865.09
2015 04 09 07 36 05 .48     -35    -28      1     45     46 231.4   1.8  33292  275.04 0865.09
2015 04 09 07 36 05 .73     -33    -31      2     46     47 226.0   2.9  33286  274.96 0865.09
2015 04 09 07 36 05 .98     -38    -21      0     44     45 240.2   0.8  33288  274.99 0865.10
2015 04 09 07 36 06 .23     -32    -20     -1     39     40 237.6  -2.2  33286  274.96 0865.10
2015 04 09 07 36 06 .48     -32    -20     -1     39     40 237.5  -2.2  33294  275.07 0865.10
2015 04 09 07 36 06 .73     -31    -32      2     45     46 224.2   2.9  33296  275.10 0865.10
2015 04 09 07 36 06 .98     -41    -28      2     50     51 235.8   2.9  33292  275.05 0865.10
2015 04 09 07 36 07 .23     -39    -25     -1     47     48 236.7  -2.2  33286  274.96 0865.10
2015 04 09 07 36 07 .48     -42    -21     -2     48     49 242.9  -3.1  33280  274.84 0865.10
2015 04 09 07 36 07 .73     -41    -19     -2     46     47 244.7  -3.1  33276  274.79 0865.10
2015 04 09 07 36 07 .98     -35    -19     -4     41     42 241.1  -6.2  33274  274.76 0865.10
2015 04 09 07 36 08 .24     -35    -28     -4     45     46 231.4  -6.2  33272  274.71 0865.10
2015 04 09 07 36 08 .49     -35    -28     -5     46     47 231.4  -7.2  33282  274.87 0865.10
2015 04 09 07 36 08 .73     -33    -23    -10     41     43 234.9 -14.5  33278  274.81 0865.10
2015 04 09 07 36 08 .99     -35    -19     -4     41     42 241.1  -6.2  33274  274.76 0865.10
2015 04 09 07 36 09 .24     -32    -20     -1     39     40 237.6  -2.2  33280  274.86 0865.10
2015 04 09 07 36 09 .49     -39    -25     -1     47     48 236.7  -2.2  33286  274.96 0865.10
2015 04 09 07 36 09 .74     -35    -28      8     46     47 231.4  10.1  33292  275.05 0865.10
2015 04 09 07 36 09 .99     -38    -25      5     46     47 235.8   6.9  33306  275.29 0865.10
2015 04 09 07 36 10 .24     -31    -32      2     45     46 224.2   2.9  33314  275.40 0865.10
2015 04 09 07 36 10 .49     -35    -35      0     50     51 225.0  -0.3  33306  275.29 0865.10
2015 04 09 07 36 10 .74     -35    -40      0     54     55 221.4  -0.3  33306  275.29 0865.10
2015 04 09 07 36 10 .99     -32    -39      2     51     52 219.6   2.9  33300  275.17 0865.10
2015 04 09 07 36 11 .25     -23    -45     13     51     53 207.2  14.3  33308  275.30 0865.10
2015 04 09 07 36 11 .50     -27    -35     18     45     48 217.0  21.0  33330  275.67 0865.10
2015 04 09 07 36 11 .74     -29    -24     22     38     43 230.5  32.4  33336  275.77 0865.10
2015 04 09 07 36 11 .99     -26    -31     26     41     48 219.6  35.5  33328  275.65 0865.10
2015 04 09 07 36 12 .25     -24    -24     26     34     42 225.0  41.7  33328  275.65 0865.10
2015 04 09 07 36 12 .50     -23    -25     22     35     41 223.2  35.5  33320  275.50 0865.10
2015 04 09 07 36 12 .76     -21    -25      9     33     35 219.6  15.3  33316  275.45 0865.10
2015 04 09 07 36 13 .00     -23    -24     20     34     39 223.4  33.5  33316  275.43 0865.10
2015 04 09 07 36 13 .26     -19    -31     10     37     39 212.6  16.3  33300  275.19 0865.10
2015 04 09 07 36 13 .51     -20    -24     17     32     36 219.7  29.3  33300  275.17 0865.10
2015 04 09 07 36 13 .76     -20    -24     24     32     40 219.7  40.7  33316  275.43 0865.10
2015 04 09 07 36 14 .01     -31    -26     13     41     44 229.6  18.4  33310  275.35 0865.10
2015 04 09 07 36 14 .26     -19    -23     17     31     35 219.7  33.5  33318  275.47 0865.10
2015 04 09 07 36 14 .51     -21    -15     17     27     31 234.0  35.5  33310  275.35 0865.10
2015 04 09 07 36 14 .76     -16    -22     22     28     35 216.1  43.7  33306  275.27 0865.10
2015 04 09 07 36 15 .01     -18    -26     19     32     37 214.3  35.5  33306  275.29 0865.10
2015 04 09 07 36 15 .26     -16    -23     21     29     35 214.3  39.7  33320  275.52 0865.10
2015 04 09 07 36 15 .52     -22    -33     13     40     43 213.4  18.9  33318  275.48 0865.10
2015 04 09 07 36 15 .76     -33    -24     11     41     43 234.0  15.3  33322  275.53 0865.10
2015 04 09 07 36 16 .01     -23    -37     12     44     46 212.5  16.3  33316  275.45 0865.10
2015 04 09 07 36 16 .26     -25    -40     16     48     51 212.5  19.2  33310  275.35 0865.10
2015 04 09 07 36 16 .52     -17    -26     13     32     34 212.5  21.0  33310  275.35 0865.10
2015 04 09 07 36 16 .76     -31    -27      0     42     43 228.7  -1.3  33308  275.30 0865.10
2015 04 09 07 36 17 .01     -35    -35      0     50     51 225.0  -0.3  33298  275.14 0865.10
2015 04 09 07 36 17 .26     -26    -35     -3     44     45 217.0  -4.1  33298  275.14 0865.10
2015 04 09 07 36 17 .52     -28    -31      0     42     43 222.3  -0.3  33292  275.04 0865.10
2015 04 09 07 36 17 .77     -31    -35     -1     47     48 221.4  -2.2  33292  275.05 0865.10
2015 04 09 07 36 18 .02     -31    -27     -6     42     43 228.7  -9.3  33282  274.89 0865.10
2015 04 09 07 36 18 .27     -39    -25     -6     47     48 236.7  -7.3  33282  274.89 0865.10
2015 04 09 07 36 18 .52     -33    -31     -2     46     47 226.0  -3.1  33282  274.89 0865.10
2015 04 09 07 36 18 .77     -29    -24      0     38     39 230.5   0.8  33282  274.89 0865.10
2015 04 09 07 36 19 .02     -31    -26     -1     41     42 229.6  -2.2  33280  274.86 0865.10
2015 04 09 07 36 19 .28     -33    -31      2     46     47 226.0   2.9  33286  274.96 0865.10
2015 04 09 07 36 19 .53     -31    -27     -1     42     43 229.6  -2.2  33284  274.91 0865.10
2015 04 09 07 36 19 .78     -31    -27     -1     42     43 229.6  -2.2  33284  274.91 0865.10
2015 04 09 07 36 20 .03     -35    -28     -5     46     47 231.4  -7.2  33282  274.87 0865.10
2015 04 09 07 36 20 .28     -41    -32      0     53     54 232.2   0.8  33282  274.89 0865.10
2015 04 09 07 36 20 .53     -41    -28     -2     50     51 235.8  -3.1  33280  274.84 0865.10
2015 04 09 07 36 20 .78     -41    -28     -2     50     51 235.8  -3.1  33280  274.84 0865.10
2015 04 09 07 36 21 .03     -40    -35     -3     54     55 228.7  -3.1  33280  274.84 0865.10
2015 04 09 07 36 21 .29     -43    -34     -2     56     57 231.4  -2.2  33284  274.91 0865.10
2015 04 09 07 36 21 .54     -40    -38      0     56     57 226.9  -0.3  33286  274.94 0865.10
2015 04 09 07 36 21 .78     -43    -34     -2     56     57 231.4  -2.2  33284  274.91 0865.10
2015 04 09 07 36 22 .04     -50    -32     -3     60     61 237.5  -3.1  33276  274.79 0865.10
2015 04 09 07 36 22 .29     -50    -36      0     63     64 234.0  -0.3  33280  274.84 0865.10
2015 04 09 07 36 22 .54     -44    -36     -2     58     59 230.5  -2.2  33274  274.76 0865.10
2015 04 09 07 36 22 .79     -44    -36     -2     58     59 230.5  -2.2  33274  274.76 0865.10
2015 04 09 07 36 23 .04     -41    -28     -2     50     51 235.8  -3.1  33280  274.84 0865.10
2015 04 09 07 36 23 .29     -40    -35     -3     54     55 228.7  -3.1  33280  274.84 0865.10
2015 04 09 07 36 23 .54     -39    -38      9     55     56 226.0  10.1  33286  274.96 0865.10
2015 04 09 07 36 23 .79     -42    -45      7     62     63 223.2   6.9  33286  274.96 0865.10
2015 04 09 07 36 24 .04     -42    -45      7     62     63 223.2   6.9  33286  274.96 0865.10
2015 04 09 07 36 24 .29     -39    -41      2     57     58 223.2   2.9  33284  274.91 0865.10
2015 04 09 07 36 24 .54     -38    -46      5     60     61 219.7   4.9  33288  274.99 0865.10
2015 04 09 07 36 24 .79     -38    -46     -2     60     61 219.7  -2.2  33290  275.01 0865.10
2015 04 09 07 36 25 .04     -41    -40      2     58     59 225.9   2.9  33290  275.01 0865.11
2015 04 09 07 36 25 .29     -38    -37      2     54     55 225.9   2.9  33288  274.99 0865.11
2015 04 09 07 36 25 .55     -37    -37     12     53     55 225.0  13.2  33290  275.02 0865.11
2015 04 09 07 36 25 .80     -34    -34     16     49     52 225.0  18.4  33292  275.04 0865.11
2015 04 09 07 36 26 .06     -33    -39     24     52     57 220.5  27.1  33286  274.94 0865.11
2015 04 09 07 36 26 .31     -32    -45     16     56     59 215.2  16.3  33288  274.97 0865.11
2015 04 09 07 36 26 .56     -27    -43     15     52     55 212.5  16.3  33286  274.94 0865.11
2015 04 09 07 36 26 .81     -32    -51     16     61     64 211.6  15.3  33298  275.15 0865.11
2015 04 09 07 36 27 .06     -29    -53     15     61     63 209.0  14.3  33306  275.27 0865.11
2015 04 09 07 36 27 .31     -34    -47     20     59     63 216.1  18.9  33308  275.30 0865.11
2015 04 09 07 36 27 .56     -30    -55     28     63     68 209.0  25.1  33306  275.29 0865.11
2015 04 09 07 36 27 .81     -33    -42     25     54     59 218.7  26.2  33308  275.30 0865.11
2015 04 09 07 36 28 .06     -42    -41     19     59     63 226.0  18.4  33298  275.14 0865.11
2015 04 09 07 36 28 .31     -41    -44     14     61     63 223.2  13.2  33294  275.09 0865.11
2015 04 09 07 36 28 .56     -32    -50     25     60     65 212.5  23.0  33296  275.10 0865.11
2015 04 09 07 36 28 .81     -38    -46     25     61     65 219.7  23.0  33292  275.05 0865.11
2015 04 09 07 36 29 .06     -30    -41     13     51     53 216.1  14.3  33290  275.01 0865.11
2015 04 09 07 36 29 .31     -37    -37     12     53     55 225.0  13.2  33290  275.02 0865.11
2015 04 09 07 36 29 .56     -30    -34     12     46     48 221.4  15.3  33286  274.96 0865.11
2015 04 09 07 36 29 .81     -40    -39     16     57     60 225.9  16.3  33278  274.81 0865.11
2015 04 09 07 36 30 .06     -43    -41     24     60     64 225.9  23.0  33282  274.89 0865.11
2015 04 09 07 36 30 .32     -42    -39     22     58     62 226.9  22.0  33280  274.86 0865.11
2015 04 09 07 36 30 .56     -42    -45     13     62     64 223.2  12.2  33280  274.84 0865.11
2015 04 09 07 36 30 .82     -41    -42     10     59     60 224.1  10.1  33282  274.89 0865.11
2015 04 09 07 36 31 .07     -35    -42      6     55     56 219.6   6.9  33284  274.91 0865.11
2015 04 09 07 36 31 .32     -41    -50      3     65     66 219.6   2.8  33294  275.07 0865.11
2015 04 09 07 36 31 .57     -44    -48     13     66     68 222.3  11.1  33286  274.96 0865.11
2015 04 09 07 36 31 .82     -39    -56     16     69     71 215.2  13.2  33278  274.81 0865.11
2015 04 09 07 36 32 .07     -30    -48     20     57     61 212.5  19.2  33276  274.79 0865.11
2015 04 09 07 36 32 .32     -34    -54     22     65     69 212.5  19.4  33280  274.86 0865.11
2015 04 09 07 36 32 .57     -32    -58     23     67     71 209.0  19.2  33280  274.84 0865.11
2015 04 09 07 36 32 .82     -34    -54     22     65     69 212.5  19.4  33286  274.96 0865.11
2015 04 09 07 36 33 .07     -46    -49     26     68     72 223.2  22.0  33290  275.01 0865.11
2015 04 09 07 36 33 .33     -41    -44     21     61     65 223.2  18.9  33286  274.96 0865.11
2015 04 09 07 36 33 .58     -40    -55     16     69     71 216.0  13.2  33286  274.96 0865.11
2015 04 09 07 36 33 .83     -33    -60     16     69     71 208.9  13.2  33284  274.91 0865.11
2015 04 09 07 36 34 .08     -39    -61     11     73     74 212.5   9.0  33280  274.86 0865.11
2015 04 09 07 36 34 .33     -31    -56     12     65     67 209.0  11.0  33278  274.81 0865.11
2015 04 09 07 36 34 .59     -33    -60     16     69     71 208.9  13.2  33278  274.81 0865.11
2015 04 09 07 36 34 .84     -35    -57     13     67     69 211.6  11.1  33282  274.89 0865.11
2015 04 09 07 36 35 .09     -35    -56     13     67     69 212.5  11.1  33286  274.94 0865.11
2015 04 09 07 36 35 .34     -42    -54      7     69     70 217.8   5.9  33290  275.02 0865.11
2015 04 09 07 36 35 .59     -37    -44     19     58     62 219.6  18.4  33288  274.99 0865.11
2015 04 09 07 36 35 .84     -42    -45     15     62     64 223.3  14.3  33288  274.97 0865.11
2015 04 09 07 36 36 .09     -42    -45      7     62     63 223.2   6.9  33286  274.96 0865.11
2015 04 09 07 36 36 .34     -40    -48      8     63     64 219.6   8.0  33288  274.99 0865.11
2015 04 09 07 36 36 .59     -39    -57      8     70     71 214.3   7.1  33292  275.04 0865.11
2015 04 09 07 36 36 .84     -47    -57     14     75     77 219.7  10.6  33292  275.04 0865.11
2015 04 09 07 36 37 .09     -47    -57     14     75     77 219.7  10.6  33292  275.04 0865.11
2015 04 09 07 36 37 .34     -49    -57     15     76     78 220.5  11.1  33282  274.89 0865.11
2015 04 09 07 36 37 .60     -45    -49      3     67     68 222.3   2.9  33282  274.87 0865.11
2015 04 09 07 36 37 .84     -42    -45      7     62     63 223.2   6.9  33284  274.91 0865.11
2015 04 09 07 36 38 .09     -41    -50      8     65     66 219.6   7.1  33280  274.84 0865.11
2015 04 09 07 36 38 .35     -38    -53      3     66     67 215.2   2.9  33282  274.89 0865.11
2015 04 09 07 36 38 .59     -28    -62      7     69     70 204.5   5.9  33292  275.05 0865.11
2015 04 09 07 36 38 .84     -37    -53     12     65     67 215.2  11.0  33286  274.96 0865.11
2015 04 09 07 36 39 .10     -35    -56      8     67     68 212.5   6.9  33280  274.86 0865.11
2015 04 09 07 36 39 .35     -30    -54      6     62     63 209.0   5.9  33278  274.81 0865.11
2015 04 09 07 36 39 .60     -33    -60      8     69     70 208.9   6.9  33286  274.94 0865.11
2015 04 09 07 36 39 .85     -29    -61      4     68     69 205.4   3.8  33284  274.91 0865.11
2015 04 09 07 36 40 .11     -29    -61      4     68     69 205.4   3.8  33284  274.91 0865.11
2015 04 09 07 36 40 .36     -24    -71     -1     76     77 198.7  -1.2  33282  274.89 0865.11
2015 04 09 07 36 40 .61     -28    -70      3     76     77 201.9   2.9  33284  274.91 0865.11
2015 04 09 07 36 40 .86     -30    -75     11     81     82 201.9   8.0  33286  274.96 0865.11
2015 04 09 07 36 41 .11     -37    -68     19     78     81 208.9  13.7  33286  274.94 0865.11
2015 04 09 07 36 41 .36     -33    -60     16     69     71 208.9  13.2  33290  275.02 0865.11
2015 04 09 07 36 41 .61     -18    -53     16     57     60 199.2  16.3  33290  275.01 0865.11
2015 04 09 07 36 41 .86     -24    -47     20     53     56 207.2  20.0  33294  275.09 0865.11
2015 04 09 07 36 42 .11     -28    -43     16     52     55 212.6  17.3  33294  275.09 0865.11
2015 04 09 07 36 42 .36     -27    -51     24     58     62 208.1  23.1  33300  275.17 0865.11
2015 04 09 07 36 42 .61     -32    -45     16     56     59 215.2  16.3  33302  275.20 0865.11
2015 04 09 07 36 42 .86     -35    -43     22     56     60 219.7  23.0  33306  275.27 0865.11
2015 04 09 07 36 43 .12     -35    -48     21     60     64 216.1  19.2  33304  275.25 0865.11
2015 04 09 07 36 43 .37     -33    -46     24     57     61 216.1  23.1  33306  275.29 0865.11
2015 04 09 07 36 43 .62     -31    -41     17     52     55 217.0  18.9  33304  275.24 0865.11
2015 04 09 07 36 43 .87     -33    -38     10     51     52 220.5  11.1  33312  275.39 0865.11
2015 04 09 07 36 44 .12     -32    -31     11     45     47 226.0  14.3  33310  275.34 0865.11
2015 04 09 07 36 44 .37     -40    -35      8     54     55 228.7   9.0  33306  275.29 0865.11
2015 04 09 07 36 44 .62     -34    -34     16     49     52 225.0  18.4  33306  275.29 0865.11
2015 04 09 07 36 44 .87     -35    -36      7     51     52 224.2   8.0  33308  275.30 0865.11
2015 04 09 07 36 45 .12     -35    -42      6     55     56 219.6   6.9  33302  275.20 0865.11
2015 04 09 07 36 45 .39     -38    -37      2     54     55 225.9   2.9  33288  274.99 0865.11
2015 04 09 07 36 45 .63     -32    -39      2     51     52 219.6   2.9  33300  275.17 0865.11
2015 04 09 07 36 45 .87     -27    -39     15     48     51 215.2  17.3  33304  275.24 0865.10
2015 04 09 07 36 46 .12     -33    -40     23     52     56 219.6  25.1  33312  275.39 0865.10
2015 04 09 07 36 46 .37     -35    -43     22     56     60 219.7  23.0  33308  275.30 0865.10
2015 04 09 07 36 46 .63     -30    -48     20     57     61 212.5  19.2  33312  275.39 0865.10
2015 04 09 07 36 46 .87     -36    -38     18     53     57 223.2  18.9  33310  275.34 0865.10
2015 04 09 07 36 47 .14     -35    -39     15     53     56 221.4  16.3  33294  275.09 0865.10
2015 04 09 07 36 47 .39     -31    -41     17     52     55 217.0  18.9  33310  275.34 0865.10
2015 04 09 07 36 47 .64     -31    -37     17     49     52 219.6  19.4  33308  275.32 0865.10
2015 04 09 07 36 47 .89     -47    -38      9     61     62 230.5   9.0  33304  275.24 0865.10
2015 04 09 07 36 48 .14     -43    -43      5     62     63 225.0   4.9  33298  275.14 0865.10
2015 04 09 07 36 48 .39     -42    -54      7     69     70 217.8   5.9  33292  275.05 0865.10
2015 04 09 07 36 48 .64     -40    -49      2     64     65 219.6   1.8  33284  274.91 0865.11
2015 04 09 07 36 48 .89     -42    -54      7     69     70 217.8   5.9  33290  275.02 0865.11
2015 04 09 07 36 49 .14     -42    -54      7     69     70 217.8   5.9  33290  275.02 0865.11
2015 04 09 07 36 49 .40     -45    -49      3     67     68 222.3   2.9  33286  274.94 0865.11
2015 04 09 07 36 49 .64     -41    -53     14     68     70 217.8  12.2  33286  274.94 0865.11
2015 04 09 07 36 49 .89     -37    -53     12     65     67 215.2  11.0  33290  275.01 0865.11
2015 04 09 07 36 50 .14     -40    -52     23     66     71 217.8  19.4  33292  275.05 0865.11
2015 04 09 07 36 50 .39     -47    -55     22     73     77 220.5  16.8  33286  274.96 0865.11
2015 04 09 07 36 50 .64     -52    -55     23     76     80 223.3  17.3  33286  274.94 0865.11
2015 04 09 07 36 50 .89     -32    -59     24     68     73 209.0  19.4  33286  274.96 0865.11
2015 04 09 07 36 51 .14     -34    -54     22     65     69 212.5  19.4  33290  275.01 0865.11
2015 04 09 07 36 51 .40     -26    -56      8     62     63 205.3   8.0  33270  274.69 0865.11
2015 04 09 07 36 51 .65     -45    -55     19     72     75 219.6  15.2  33282  274.89 0865.11
2015 04 09 07 36 51 .89     -35    -56     13     67     69 212.5  11.1  33280  274.84 0865.11
2015 04 09 07 36 52 .14     -46    -57     11     74     75 218.7   9.0  33280  274.86 0865.11
2015 04 09 07 36 52 .40     -46    -60      9     76     77 217.8   6.9  33280  274.84 0865.11
2015 04 09 07 36 52 .65     -48    -57      5     75     76 220.5   3.8  33278  274.81 0865.11
2015 04 09 07 36 52 .90     -50    -47      3     69     70 226.8   2.9  33276  274.79 0865.11
2015 04 09 07 36 53 .15     -49    -43      0     66     67 228.7   0.8  33274  274.74 0865.11
2015 04 09 07 36 53 .40     -48    -48      0     69     70 225.0  -0.3  33280  274.84 0865.11
2015 04 09 07 36 53 .65     -48    -48      0     69     70 225.0  -0.3  33280  274.84 0865.11
2015 04 09 07 36 53 .90     -53    -49      3     73     74 226.8   2.8  33278  274.81 0865.11
2015 04 09 07 36 54 .16     -51    -47     -2     70     71 226.9  -2.2  33272  274.71 0865.11
2015 04 09 07 36 54 .41     -51    -47     -2     70     71 226.9  -2.2  33272  274.71 0865.11
2015 04 09 07 36 54 .66     -56    -47     -1     74     75 230.4  -1.2  33270  274.69 0865.11
2015 04 09 07 36 54 .91     -59    -48      2     77     78 230.5   1.8  33272  274.71 0865.11
2015 04 09 07 36 55 .16     -50    -47      3     69     70 226.8   2.9  33276  274.79 0865.11
2015 04 09 07 36 55 .41     -53    -49      3     73     74 226.8   2.8  33278  274.81 0865.11
2015 04 09 07 36 55 .67     -55    -55      6     78     79 225.1   4.9  33278  274.81 0865.11
2015 04 09 07 36 55 .91     -51    -60     12     79     81 220.5   9.0  33280  274.86 0865.10
2015 04 09 07 36 56 .17     -47    -56      3     74     75 219.6   2.9  33288  274.97 0865.10
2015 04 09 07 36 56 .41     -54    -57      1     79     80 223.2   1.2  33284  274.91 0865.10
2015 04 09 07 36 56 .67     -53    -49      3     73     74 226.8   2.8  33278  274.81 0865.10
2015 04 09 07 36 56 .92     -54    -57      9     79     80 223.2   6.5  33288  274.99 0865.10
2015 04 09 07 36 57 .17     -45    -60     23     76     80 217.0  17.3  33294  275.09 0865.10
2015 04 09 07 36 57 .42     -56    -46     22     73     77 230.4  17.3  33290  275.01 0865.10
2015 04 09 07 36 57 .67     -45    -50     26     68     72 222.3  22.0  33296  275.10 0865.10
2015 04 09 07 36 57 .92     -50    -53     19     73     76 223.3  15.2  33294  275.09 0865.10
2015 04 09 07 36 58 .17     -46    -54      8     72     73 220.5   6.9  33286  274.94 0865.10
2015 04 09 07 36 58 .42     -50    -53      3     74     75 223.3   2.9  33276  274.79 0865.10
2015 04 09 07 36 58 .67     -50    -51      4     72     73 224.1   3.8  33276  274.77 0865.10
2015 04 09 07 36 58 .92     -50    -48      7     70     71 225.9   5.9  33274  274.76 0865.10
2015 04 09 07 36 59 .17     -53    -49      3     73     74 226.8   2.8  33278  274.81 0865.10
2015 04 09 07 36 59 .42     -58    -54      2     80     81 226.9   1.8  33274  274.76 0865.11
2015 04 09 07 36 59 .67     -53    -55      0     77     78 224.2  -0.3  33276  274.77 0865.11
2015 04 09 07 36 59 .92     -53    -49      3     73     74 226.8   2.8  33278  274.81 0865.11
2015 04 09 07 37 00 .18     -57    -51      3     77     78 227.8   2.9  33274  274.74 0865.11
2015 04 09 07 37 00 .42     -58    -54      2     80     81 226.9   1.8  33274  274.76 0865.11
2015 04 09 07 37 00 .67     -53    -43      3     69     70 230.5   2.8  33274  274.76 0865.11
2015 04 09 07 37 00 .94     -56    -47      6     74     75 230.4   4.9  33280  274.86 0865.11
2015 04 09 07 37 01 .19     -59    -50      5     78     79 229.6   3.8  33280  274.84 0865.10
2015 04 09 07 37 01 .44     -56    -46      1     73     74 230.4   0.8  33276  274.77 0865.10
2015 04 09 07 37 01 .69     -59    -50      5     78     79 229.6   3.8  33280  274.84 0865.10
2015 04 09 07 37 01 .94     -56    -46      1     73     74 230.4   0.8  33276  274.77 0865.10
2015 04 09 07 37 02 .19     -56    -46      1     73     74 230.4   0.8  33276  274.77 0865.10
2015 04 09 07 37 02 .44     -56    -47      6     74     75 230.4   4.9  33278  274.81 0865.10
2015 04 09 07 37 02 .69     -58    -42      7     72     73 234.1   5.9  33278  274.81 0865.10
2015 04 09 07 37 02 .94     -60    -44      3     75     76 234.0   2.9  33282  274.89 0865.10
2015 04 09 07 37 03 .19     -60    -38      3     72     73 237.6   2.9  33280  274.84 0865.11
2015 04 09 07 37 03 .44     -54    -40      3     68     69 233.1   2.9  33276  274.77 0865.11
2015 04 09 07 37 03 .69     -47    -39      1     62     63 230.4   1.8  33278  274.81 0865.11
2015 04 09 07 37 03 .94     -51    -39     -2     65     66 232.2  -2.2  33280  274.86 0865.11
2015 04 09 07 37 04 .19     -50    -35     -1     62     63 234.9  -1.3  33282  274.89 0865.11
2015 04 09 07 37 04 .44     -60    -44      3     75     76 234.0   2.9  33282  274.89 0865.11
2015 04 09 07 37 04 .69     -53    -33      3     63     64 237.6   2.9  33282  274.89 0865.11
2015 04 09 07 37 04 .95     -53    -33      3     63     64 237.6   2.9  33282  274.89 0865.11
2015 04 09 07 37 05 .19     -54    -45      8     71     72 230.5   7.1  33280  274.84 0865.11
2015 04 09 07 37 05 .44     -50    -48      7     70     71 225.9   5.9  33284  274.91 0865.11
2015 04 09 07 37 05 .70     -54    -50      8     74     75 226.9   6.9  33282  274.87 0865.11
2015 04 09 07 37 05 .95     -45    -48     12     66     68 223.2  11.0  33284  274.91 0865.11
2015 04 09 07 37 06 .20     -41    -45     16     61     64 222.3  15.2  33286  274.94 0865.11
2015 04 09 07 37 06 .45     -38    -46     11     60     62 219.6  11.1  33286  274.96 0865.11
2015 04 09 07 37 06 .70     -32    -45     16     56     59 215.2  16.3  33284  274.91 0865.11
2015 04 09 07 37 06 .95     -36    -52     18     64     67 214.3  16.3  33294  275.09 0865.11
2015 04 09 07 37 07 .20     -32    -52     21     62     66 211.6  18.9  33300  275.19 0865.11
2015 04 09 07 37 07 .45     -25    -55     26     61     66 204.5  23.1  33308  275.32 0865.11
2015 04 09 07 37 07 .70     -29    -52     21     60     64 209.0  19.2  33302  275.20 0865.11
2015 04 09 07 37 07 .96     -32    -50     25     60     65 212.5  23.0  33296  275.10 0865.11
2015 04 09 07 37 08 .21     -34    -48     20     59     63 215.2  18.9  33296  275.10 0865.11
2015 04 09 07 37 08 .46     -39    -56     16     69     71 215.2  13.2  33278  274.81 0865.11
2015 04 09 07 37 08 .72     -38    -52     17     65     68 216.0  15.3  33286  274.94 0865.11
2015 04 09 07 37 08 .97     -41    -52     21     67     71 217.8  17.3  33290  275.01 0865.11
2015 04 09 07 37 09 .21     -36    -51     19     63     67 215.2  17.3  33280  274.84 0865.11
2015 04 09 07 37 09 .47     -36    -50     15     62     64 216.1  14.3  33276  274.79 0865.11
2015 04 09 07 37 09 .72     -36    -50      6     62     63 216.1   5.9  33278  274.81 0865.11
2015 04 09 07 37 09 .97     -31    -49      3     59     60 212.5   3.8  33276  274.79 0865.11
2015 04 09 07 37 10 .22     -37    -45     11     59     61 219.7  11.1  33280  274.86 0865.11
2015 04 09 07 37 10 .47     -35    -44     11     57     59 218.7  11.0  33278  274.82 0865.11
2015 04 09 07 37 10 .72     -33    -47      1     58     59 215.2   1.8  33278  274.82 0865.11
2015 04 09 07 37 10 .97     -40    -37     15     55     58 226.9  15.3  33282  274.89 0865.11
2015 04 09 07 37 11 .22     -27    -39     15     48     51 215.2  17.3  33288  274.99 0865.11
2015 04 09 07 37 11 .47     -30    -43     -2     53     54 215.2  -2.2  33278  274.81 0865.11
2015 04 09 07 37 11 .72     -31    -42     -2     53     54 217.0  -2.2  33274  274.76 0865.11
2015 04 09 07 37 11 .97     -32    -45     -3     56     57 215.2  -3.1  33274  274.74 0865.11
2015 04 09 07 37 12 .22     -36    -50     -1     62     63 216.1  -1.3  33282  274.89 0865.11
2015 04 09 07 37 12 .48     -37    -53     -1     65     66 215.2  -1.3  33286  274.94 0865.11
2015 04 09 07 37 12 .72     -42    -46      6     63     64 222.3   5.9  33298  275.15 0865.11
2015 04 09 07 37 12 .97     -38    -46     11     60     62 219.6  11.1  33302  275.20 0865.11
2015 04 09 07 37 13 .23     -23    -46      5     52     53 207.2   5.9  33282  274.89 0865.11
2015 04 09 07 37 13 .48     -28    -49      2     57     58 209.9   2.8  33292  275.05 0865.11
2015 04 09 07 37 13 .72     -27    -51      2     58     59 208.1   2.9  33290  275.01 0865.11
2015 04 09 07 37 13 .97     -22    -50      1     55     56 203.6   1.8  33286  274.94 0865.11
2015 04 09 07 37 14 .23     -15    -45      0     48     49 198.3  -0.3  33280  274.84 0865.11
2015 04 09 07 37 14 .48     -22    -42      0     48     49 208.1  -0.3  33282  274.89 0865.11
2015 04 09 07 37 14 .73     -28    -35      2     45     46 218.7   2.9  33284  274.91 0865.10
2015 04 09 07 37 14 .99     -38    -46      5     61     62 219.6   4.9  33276  274.79 0865.10
2015 04 09 07 37 15 .24     -36    -50     15     62     64 216.1  14.3  33272  274.72 0865.10
2015 04 09 07 37 15 .49     -36    -50      6     62     63 216.1   5.9  33278  274.81 0865.10
2015 04 09 07 37 15 .74     -45    -48     12     66     68 223.2  11.0  33278  274.81 0865.10
2015 04 09 07 37 15 .99     -50    -48      7     70     71 225.9   5.9  33284  274.91 0865.10
2015 04 09 07 37 16 .24     -46    -54      8     72     73 220.5   6.9  33286  274.94 0865.10
2015 04 09 07 37 16 .49     -49    -57     15     76     78 220.5  11.1  33282  274.89 0865.10
2015 04 09 07 37 16 .74     -46    -57     11     74     75 218.7   9.0  33280  274.86 0865.10
2015 04 09 07 37 16 .99     -43    -53      7     69     70 218.7   5.9  33272  274.71 0865.10
2015 04 09 07 37 17 .24     -49    -57     15     76     78 220.5  11.1  33282  274.89 0865.10
2015 04 09 07 37 17 .49     -47    -52     15     71     73 222.3  12.2  33280  274.86 0865.10
2015 04 09 07 37 17 .74     -40    -52     23     66     71 217.8  19.4  33278  274.81 0865.10
2015 04 09 07 37 17 .99     -45    -56     19     72     75 218.7  15.3  33280  274.84 0865.10
2015 04 09 07 37 18 .24     -43    -46     20     64     68 223.2  17.3  33286  274.94 0865.10
2015 04 09 07 37 18 .49     -41    -51     24     66     70 218.7  20.0  33280  274.84 0865.10
2015 04 09 07 37 18 .75     -47    -55     22     73     77 220.5  16.8  33286  274.96 0865.10
2015 04 09 07 37 19 .00     -43    -46     20     64     68 223.2  17.3  33282  274.89 0865.10
2015 04 09 07 37 19 .25     -44    -48     18     66     69 222.3  15.3  33290  275.02 0865.10
2015 04 09 07 37 19 .50     -41    -53     14     68     70 217.8  12.2  33286  274.94 0865.12
2015 04 09 07 37 19 .75     -44    -48     13     66     68 222.3  11.1  33286  274.96 0865.12
2015 04 09 07 37 20 .00     -41    -53     14     68     70 217.8  12.2  33286  274.94 0865.12
2015 04 09 07 37 20 .25     -44    -48     13     66     68 222.3  11.1  33286  274.96 0865.12
2015 04 09 07 37 20 .50     -46    -47      9     66     67 224.2   8.0  33286  274.94 0865.12
2015 04 09 07 37 20 .75     -42    -45     13     62     64 223.2  12.2  33282  274.89 0865.12
2015 04 09 07 37 21 .00     -36    -42      7     56     57 220.5   8.0  33284  274.91 0865.12
2015 04 09 07 37 21 .25     -44    -36      6     58     59 230.5   5.9  33272  274.72 0865.12
2015 04 09 07 37 21 .50     -49    -43      0     66     67 228.7   0.8  33274  274.74 0865.12
2015 04 09 07 37 21 .75     -49    -43      0     66     67 228.7   0.8  33274  274.74 0865.12
2015 04 09 07 37 22 .01     -51    -41     -1     66     67 231.4  -1.3  33272  274.71 0865.12
2015 04 09 07 37 22 .27     -51    -47     -2     70     71 226.9  -2.2  33272  274.71 0865.12
2015 04 09 07 37 22 .51     -50    -50     -1     71     72 225.0  -1.2  33270  274.69 0865.12
2015 04 09 07 37 22 .76     -51    -47     -2     70     71 226.9  -2.2  33272  274.71 0865.12
2015 04 09 07 37 23 .02     -48    -45     -6     66     67 226.9  -5.2  33268  274.66 0865.12
2015 04 09 07 37 23 .27     -51    -41     -1     66     67 231.4  -1.3  33268  274.66 0865.12
2015 04 09 07 37 23 .52     -54    -45     -2     71     72 230.5  -2.2  33270  274.69 0865.12
2015 04 09 07 37 23 .77     -51    -47     -2     70     71 226.9  -2.2  33272  274.71 0865.12
2015 04 09 07 37 24 .02     -56    -47     -1     74     75 230.4  -1.2  33270  274.69 0865.13
2015 04 09 07 37 24 .27     -49    -43      0     66     67 228.7   0.8  33274  274.74 0865.13
2015 04 09 07 37 24 .52     -50    -47      3     69     70 226.8   2.9  33276  274.79 0865.13
2015 04 09 07 37 24 .77     -41    -50      3     65     66 219.6   2.8  33276  274.77 0865.13
2015 04 09 07 37 25 .02     -40    -48     -2     63     64 219.6  -2.2  33278  274.82 0865.13
2015 04 09 07 37 25 .27     -44    -53      7     70     71 219.6   5.9  33280  274.84 0865.13
2015 04 09 07 37 25 .52     -42    -54      5     69     70 217.8   4.9  33280  274.86 0865.13
2015 04 09 07 37 25 .77     -44    -56      3     72     73 217.8   2.9  33280  274.84 0865.13
2015 04 09 07 37 26 .02     -40    -49      2     64     65 219.6   1.8  33284  274.91 0865.13
2015 04 09 07 37 26 .27     -47    -56     21     74     78 219.7  16.3  33278  274.81 0865.13
2015 04 09 07 37 26 .52     -44    -61     15     76     78 216.1  11.6  33274  274.76 0865.13
2015 04 09 07 37 26 .77     -44    -60      5     75     76 216.0   3.8  33274  274.76 0865.12
2015 04 09 07 37 27 .02     -42    -64      5     77     78 213.4   3.8  33272  274.71 0865.12
2015 04 09 07 37 27 .27     -45    -66     11     80     81 214.3   8.5  33268  274.66 0865.12
2015 04 09 07 37 27 .53     -40    -57      8     70     71 215.2   7.1  33274  274.74 0865.12
2015 04 09 07 37 27 .78     -46    -57      3     74     75 218.7   2.9  33270  274.69 0865.12
2015 04 09 07 37 28 .03     -45    -66      4     80     81 214.3   3.3  33272  274.72 0865.12
2015 04 09 07 37 28 .28     -39    -58     -3     71     72 214.3  -3.1  33274  274.74 0865.12
2015 04 09 07 37 28 .53     -42    -54     -5     69     70 217.8  -4.1  33272  274.71 0865.12
2015 04 09 07 37 28 .81     -46    -57     -2     74     75 218.7  -2.2  33274  274.76 0865.12
2015 04 09 07 37 29 .05     -46    -62     -3     78     79 217.0  -2.6  33276  274.79 0865.12
2015 04 09 07 37 29 .47     -59    -50     -3     78     79 229.6  -2.2  33274  274.76 0865.12
2015 04 09 07 37 29 .57     -58    -54     -3     80     81 226.9  -2.2  33270  274.69 0865.12
2015 04 09 07 37 29 .80     -61    -50     -4     80     81 230.5  -3.1  33268  274.66 0865.12
2015 04 09 07 37 30 .04     -59    -46     -2     75     76 232.2  -2.2  33268  274.66 0865.12
2015 04 09 07 37 30 .29     -51    -47     -2     70     71 226.9  -2.2  33272  274.71 0865.12
2015 04 09 07 37 30 .54     -45    -48     -2     67     68 223.2  -2.2  33268  274.66 0865.13
2015 04 09 07 37 30 .79     -50    -48     -6     70     71 225.9  -5.2  33268  274.66 0865.13
2015 04 09 07 37 31 .05     -45    -48     -2     67     68 223.2  -2.2  33268  274.66 0865.13
2015 04 09 07 37 31 .29     -46    -54     -3     72     73 220.5  -3.1  33270  274.67 0865.13
2015 04 09 07 37 31 .55     -47    -47     -3     67     68 225.0  -3.1  33270  274.67 0865.13
2015 04 09 07 37 31 .80     -46    -47     -2     66     67 224.2  -2.2  33276  274.79 0865.13
2015 04 09 07 37 32 .05     -47    -47     -3     67     68 225.0  -3.1  33270  274.67 0865.13
2015 04 09 07 37 32 .30     -48    -45     -6     66     67 226.9  -5.2  33268  274.66 0865.12
2015 04 09 07 37 32 .55     -54    -45     -2     71     72 230.5  -2.2  33270  274.69 0865.12
2015 04 09 07 37 32 .80     -54    -45     -2     71     72 230.5  -2.2  33270  274.69 0865.12
2015 04 09 07 37 33 .05     -47    -47     -3     67     68 225.0  -3.1  33270  274.67 0865.12
2015 04 09 07 37 33 .30     -48    -45     -6     66     67 226.9  -5.2  33268  274.66 0865.12
2015 04 09 07 37 33 .55     -47    -47     -3     67     68 225.0  -3.1  33270  274.67 0865.12
2015 04 09 07 37 33 .80     -54    -45     -2     71     72 230.5  -2.2  33270  274.69 0865.12
2015 04 09 07 37 34 .05     -54    -45     -2     71     72 230.5  -2.2  33270  274.69 0865.12
2015 04 09 07 37 34 .30     -54    -45     -2     71     72 230.5  -2.2  33270  274.69 0865.12
2015 04 09 07 37 34 .55     -54    -45     -2     71     72 230.5  -2.2  33270  274.69 0865.12
2015 04 09 07 37 34 .80     -47    -39     -2     62     63 230.4  -2.2  33274  274.74 0865.12
2015 04 09 07 37 35 .05     -51    -41     -1     66     67 231.4  -1.3  33272  274.71 0865.12
2015 04 09 07 37 35 .30     -51    -41     -1     66     67 231.4  -1.3  33272  274.71 0865.12
2015 04 09 07 37 35 .55     -51    -41     -1     66     67 231.4  -1.3  33272  274.71 0865.12
2015 04 09 07 37 35 .81     -44    -43     -2     62     63 226.0  -2.2  33272  274.71 0865.12
2015 04 09 07 37 36 .06     -47    -47     -3     67     68 225.0  -3.1  33270  274.67 0865.12
2015 04 09 07 37 36 .32     -40    -41     -3     58     59 224.1  -3.1  33274  274.74 0865.12
2015 04 09 07 37 36 .57     -42    -51      3     67     68 219.6   2.8  33276  274.77 0865.12
2015 04 09 07 37 36 .82     -41    -50      3     65     66 219.6   2.8  33276  274.77 0865.12
2015 04 09 07 37 37 .07     -48    -46      3     67     68 226.0   2.8  33272  274.71 0865.12
2015 04 09 07 37 37 .32     -52    -49      3     72     73 226.9   2.8  33274  274.76 0865.12
2015 04 09 07 37 37 .57     -50    -53      3     74     75 223.3   2.9  33276  274.79 0865.12
2015 04 09 07 37 37 .82     -54    -50     -2     74     75 226.9  -2.2  33272  274.72 0865.12
2015 04 09 07 37 38 .07     -54    -45     -2     71     72 230.5  -2.2  33270  274.69 0865.12
2015 04 09 07 37 38 .32     -56    -47     -1     74     75 230.4  -1.2  33268  274.64 0865.12
2015 04 09 07 37 38 .57     -48    -46      3     67     68 226.0   2.8  33272  274.71 0865.12
2015 04 09 07 37 38 .82     -50    -48      7     70     71 225.9   5.9  33274  274.76 0865.12
2015 04 09 07 37 39 .08     -49    -49     13     70     72 225.0  11.1  33280  274.84 0865.12
2015 04 09 07 37 39 .32     -50    -48      7     70     71 225.9   5.9  33274  274.76 0865.12
2015 04 09 07 37 39 .58     -49    -49     13     70     72 225.0  11.1  33280  274.84 0865.12
2015 04 09 07 37 39 .83     -49    -49     13     70     72 225.0  11.1  33280  274.84 0865.12
2015 04 09 07 37 40 .07     -42    -54      5     69     70 217.8   4.9  33280  274.86 0865.12
2015 04 09 07 37 40 .32     -45    -49      3     67     68 222.3   2.9  33276  274.79 0865.12
2015 04 09 07 37 40 .57     -41    -50      3     65     66 219.6   2.8  33276  274.77 0865.12
2015 04 09 07 37 40 .83     -50    -48      7     70     71 225.9   5.9  33274  274.76 0865.12
2015 04 09 07 37 41 .08     -56    -46      1     73     74 230.4   0.8  33276  274.77 0865.12
2015 04 09 07 37 41 .33     -53    -43      3     69     70 230.5   2.8  33274  274.76 0865.12
2015 04 09 07 37 41 .58     -49    -43      0     66     67 228.7   0.8  33274  274.74 0865.12
2015 04 09 07 37 41 .83     -51    -41     -1     66     67 231.4  -1.3  33272  274.71 0865.12
2015 04 09 07 37 42 .08     -54    -45     -2     71     72 230.5  -2.2  33270  274.69 0865.12
2015 04 09 07 37 42 .33     -54    -45     -2     71     72 230.5  -2.2  33270  274.69 0865.12
2015 04 09 07 37 42 .58     -56    -47     -4     74     75 230.4  -3.2  33272  274.71 0865.12
2015 04 09 07 37 42 .84     -56    -47     -4     74     75 230.4  -3.2  33272  274.71 0865.12
2015 04 09 07 37 43 .09     -51    -39     -8     65     66 232.2  -7.2  33274  274.74 0865.12
2015 04 09 07 37 43 .34     -58    -42     -5     72     73 234.1  -4.1  33268  274.66 0865.12
2015 04 09 07 37 43 .59     -60    -44     -9     75     76 234.0  -7.2  33270  274.67 0865.12
2015 04 09 07 37 43 .84     -56    -47     -4     74     75 230.4  -3.2  33272  274.71 0865.12
2015 04 09 07 37 44 .09     -54    -45     -2     71     72 230.5  -2.2  33270  274.69 0865.13
2015 04 09 07 37 44 .34     -56    -37     -2     68     69 236.7  -2.2  33270  274.69 0865.13
2015 04 09 07 37 44 .60     -50    -36     -5     63     64 234.0  -5.2  33272  274.71 0865.13
2015 04 09 07 37 44 .85     -56    -37     -2     68     69 236.7  -2.2  33270  274.69 0865.13
2015 04 09 07 37 45 .10     -60    -44     -9     75     76 234.0  -7.2  33274  274.74 0865.13
2015 04 09 07 37 45 .35     -53    -49     -4     73     74 226.8  -3.1  33282  274.89 0865.13
2015 04 09 07 37 45 .60     -53    -49     -4     73     74 226.8  -3.1  33282  274.89 0865.13
2015 04 09 07 37 45 .85     -53    -43     -8     69     70 230.5  -7.3  33274  274.76 0865.13
2015 04 09 07 37 46 .10     -55    -36     -8     67     68 236.7  -7.3  33274  274.76 0865.13
2015 04 09 07 37 46 .35     -51    -39     -8     65     66 232.2  -7.2  33276  274.79 0865.13
2015 04 09 07 37 46 .60     -51    -39     -2     65     66 232.2  -2.2  33280  274.86 0865.13
2015 04 09 07 37 46 .85     -45    -49     -8     67     68 222.3  -7.2  33280  274.84 0865.13
2015 04 09 07 37 47 .10     -50    -47     -2     69     70 226.8  -2.2  33284  274.91 0865.13
2015 04 09 07 37 47 .35     -40    -50     -3     65     66 218.7  -3.1  33282  274.89 0865.13
2015 04 09 07 37 47 .61     -45    -49     -8     67     68 222.3  -7.2  33282  274.89 0865.13
2015 04 09 07 37 47 .85     -50    -53     -9     74     75 223.3  -7.2  33282  274.89 0865.13
2015 04 09 07 37 48 .10     -53    -49     -4     73     74 226.8  -3.1  33282  274.89 0865.13
2015 04 09 07 37 48 .35     -56    -46     -6     73     74 230.4  -5.2  33280  274.86 0865.13
2015 04 09 07 37 48 .60     -49    -42     -5     65     66 229.6  -5.2  33278  274.81 0865.13
2015 04 09 07 37 48 .86     -47    -42    -11     64     66 227.8 -10.3  33280  274.84 0865.13
2015 04 09 07 37 49 .10     -51    -39     -8     65     66 232.2  -7.2  33276  274.79 0865.13
2015 04 09 07 37 49 .36     -50    -47     -8     69     70 226.9  -7.2  33280  274.84 0865.13
2015 04 09 07 37 49 .62     -47    -45     -3     66     67 225.9  -3.1  33286  274.94 0865.13
2015 04 09 07 37 49 .87     -47    -44     -5     65     66 226.9  -5.2  33286  274.96 0865.13
2015 04 09 07 37 50 .12     -47    -45     -3     66     67 225.9  -3.1  33286  274.94 0865.13
2015 04 09 07 37 50 .37     -50    -47     -2     69     70 226.8  -2.2  33288  274.97 0865.13
2015 04 09 07 37 50 .62     -43    -45      0     63     64 223.2  -0.3  33294  275.09 0865.13
2015 04 09 07 37 50 .87     -38    -46     -2     60     61 219.7  -2.2  33308  275.30 0865.13
2015 04 09 07 37 51 .12     -47    -45      3     66     67 225.9   2.8  33298  275.15 0865.13
2015 04 09 07 37 51 .37     -44    -57     11     73     74 217.8   9.0  33296  275.10 0865.12
2015 04 09 07 37 51 .62     -40    -64     15     76     78 212.5  11.6  33284  274.91 0865.12
2015 04 09 07 37 51 .87     -32    -73      4     80     81 203.6   3.3  33298  275.14 0865.12
2015 04 09 07 37 52 .13     -28    -70      3     76     77 201.9   2.9  33308  275.30 0865.12
2015 04 09 07 37 52 .38     -24    -60     12     65     67 201.8  11.0  33308  275.30 0865.12
2015 04 09 07 37 52 .62     -36    -65      5     75     76 208.9   3.8  33314  275.40 0865.12
2015 04 09 07 37 52 .87     -38    -69     11     79     80 209.0   8.0  33312  275.37 0865.12
2015 04 09 07 37 53 .12     -32    -68      9     76     77 205.5   6.9  33316  275.43 0865.13
2015 04 09 07 37 53 .38     -24    -61     -2     66     67 201.8  -2.2  33310  275.35 0865.13
2015 04 09 07 37 53 .63     -24    -60     12     65     67 201.8  11.0  33326  275.60 0865.13
2015 04 09 07 37 53 .88     -21    -62      8     66     67 198.7   6.9  33334  275.73 0865.13
2015 04 09 07 37 54 .13     -19    -54      1     58     59 199.2   1.8  33314  275.40 0865.13
2015 04 09 07 37 54 .38     -16    -62      0     65     66 195.1   0.8  33282  274.89 0865.13
2015 04 09 07 37 54 .63     -23    -50     -6     56     57 205.3  -6.2  33280  274.86 0865.13
2015 04 09 07 37 54 .88     -21    -46     -2     51     52 205.3  -2.2  33294  275.09 0865.13
2015 04 09 07 37 55 .13     -19    -46      2     50     51 202.7   2.8  33298  275.15 0865.13
2015 04 09 07 37 55 .38     -19    -40     17     45     48 206.3  20.0  33300  275.17 0865.13
2015 04 09 07 37 55 .63     -24    -46     26     53     59 208.1  27.2  33308  275.32 0865.13
2015 04 09 07 37 55 .88     -22    -47     24     52     57 205.3  27.1  33312  275.39 0865.13
2015 04 09 07 37 56 .13     -19    -54      1     58     59 199.2   1.8  33310  275.35 0865.13
2015 04 09 07 37 56 .38     -18    -64     13     67     69 196.0  11.0  33304  275.25 0865.13
2015 04 09 07 37 56 .64     -26    -56      8     62     63 205.3   8.0  33306  275.29 0865.13
2015 04 09 07 37 56 .89     -31    -55     18     64     67 209.0  16.3  33302  275.22 0865.12
2015 04 09 07 37 57 .14     -35    -49     14     61     63 216.1  13.2  33292  275.04 0865.12
2015 04 09 07 37 57 .39     -39    -57      8     70     71 214.3   7.1  33292  275.04 0865.12
2015 04 09 07 37 57 .64     -39    -58      3     71     72 214.3   2.8  33292  275.05 0865.12
2015 04 09 07 37 57 .90     -35    -49     -4     61     62 215.2  -4.1  33296  275.10 0865.12
2015 04 09 07 37 58 .15     -29    -45     -6     54     55 212.6  -7.2  33290  275.02 0865.12
2015 04 09 07 37 58 .40     -29    -45    -12     54     56 212.5 -13.4  33286  274.94 0865.12
2015 04 09 07 37 58 .65     -32    -46     -9     57     58 215.2  -9.3  33274  274.76 0865.12
2015 04 09 07 37 58 .90     -27    -51    -10     58     59 208.1 -10.3  33286  274.96 0865.12
2015 04 09 07 37 59 .15     -24    -41     -3     48     49 210.7  -4.1  33290  275.01 0865.12
2015 04 09 07 37 59 .40     -32    -46     -9     57     58 215.2  -9.3  33274  274.76 0865.12
2015 04 09 07 37 59 .65     -33    -47    -11     58     60 215.2 -11.3  33284  274.91 0865.12
2015 04 09 07 37 59 .90     -29    -45     -6     54     55 212.6  -7.2  33308  275.32 0865.12
2015 04 09 07 38 00 .15     -22    -42      0     48     49 208.1  -0.3  33318  275.48 0865.12
2015 04 09 07 38 00 .40     -29    -45      2     54     55 212.6   2.8  33324  275.58 0865.12
2015 04 09 07 38 00 .65     -33    -45     -3     56     57 216.1  -3.1  33324  275.58 0865.12
2015 04 09 07 38 00 .90     -26    -42      2     50     51 212.5   2.9  33320  275.50 0865.12
2015 04 09 07 38 01 .15     -33    -38     -2     51     52 220.5  -2.2  33322  275.53 0865.12
2015 04 09 07 38 01 .41     -28    -23     -4     37     38 230.5  -7.2  33332  275.70 0865.12
2015 04 09 07 38 01 .65     -11    -34      3     36     37 198.3   4.9  33338  275.80 0865.12
2015 04 09 07 38 01 .91     -15    -35      9     39     41 202.7  13.2  33344  275.90 0865.12
2015 04 09 07 38 02 .15     -17    -41      5     45     46 202.7   6.9  33348  275.98 0865.12
2015 04 09 07 38 02 .41     -27    -41      9     50     51 213.4  11.1  33358  276.13 0865.12
2015 04 09 07 38 02 .66     -34    -34      6     49     50 225.0   8.0  33358  276.13 0865.12
2015 04 09 07 38 02 .90     -23    -36     16     43     45 212.5  20.0  33364  276.23 0865.12
2015 04 09 07 38 03 .16     -17    -26     13     32     34 212.5  21.0  33350  276.01 0865.12
2015 04 09 07 38 03 .41     -19    -30      3     36     37 212.5   4.9  33348  275.96 0865.12
2015 04 09 07 38 03 .67     -28    -35      2     45     46 218.7   2.9  33320  275.50 0865.12
2015 04 09 07 38 03 .92     -13    -42      2     45     46 197.8   2.9  33322  275.55 0865.12
2015 04 09 07 38 04 .17     -17    -43      4     47     48 201.8   5.9  33322  275.53 0865.12
2015 04 09 07 38 04 .42     -12    -38      6     40     41 197.8   9.0  33330  275.68 0865.12
2015 04 09 07 38 04 .67     -14    -37     13     40     43 200.9  18.9  33334  275.73 0865.12
2015 04 09 07 38 04 .92     -19    -46      2     50     51 202.7   2.8  33316  275.45 0865.12
2015 04 09 07 38 05 .17     -17    -50     -6     53     54 199.2  -7.3  33302  275.22 0865.12
2015 04 09 07 38 05 .42     -11    -45     -6     47     48 194.3  -7.3  33300  275.19 0865.12
2015 04 09 07 38 05 .67     -11    -43    -13     45     47 194.3 -16.6  33292  275.04 0865.12
2015 04 09 07 38 05 .93     -12    -45     -6     47     48 195.1  -7.3  33286  274.94 0865.12
2015 04 09 07 38 06 .18     -15    -30      1     34     35 207.2   2.9  33298  275.14 0865.12
2015 04 09 07 38 06 .43     -26    -35     -3     44     45 217.0  -4.1  33304  275.24 0865.12
2015 04 09 07 38 06 .68     -16    -38      7     42     43 202.7  10.1  33312  275.37 0865.12
2015 04 09 07 38 06 .93      -6    -53      2     54     55 187.1   2.9  33328  275.65 0865.13
2015 04 09 07 38 07 .18      -7    -53     10     54     56 188.0  11.1  33336  275.78 0865.13
2015 04 09 07 38 07 .43      -6    -46     17     47     49 188.0  20.0  33334  275.75 0865.13
2015 04 09 07 38 07 .68     -18    -46     24     50     55 201.8  27.3  33340  275.83 0865.13
2015 04 09 07 38 07 .93     -12    -57     24     59     63 192.5  23.0  33336  275.78 0865.13
2015 04 09 07 38 08 .18      -7    -50     22     51     55 188.9  25.1  33320  275.50 0865.13
2015 04 09 07 38 08 .43     -23    -50      7     56     57 205.3   8.0  33298  275.15 0865.13
2015 04 09 07 38 08 .68      -3    -49      6     50     51 184.5   6.9  33280  274.84 0865.13
2015 04 09 07 38 08 .93      -9    -41      0     42     43 192.5  -0.3  33276  274.79 0865.13
2015 04 09 07 38 09 .18     -12    -45      4     47     48 195.1   5.9  33280  274.84 0865.13
2015 04 09 07 38 09 .43     -12    -46      5     48     49 195.1   6.9  33282  274.89 0865.13
2015 04 09 07 38 09 .69     -11    -46      4     48     49 193.4   4.9  33286  274.94 0865.13
2015 04 09 07 38 09 .93     -18    -39     -3     44     45 205.4  -4.1  33282  274.89 0865.13
2015 04 09 07 38 10 .18     -11    -53    -15     55     58 191.6 -15.4  33276  274.77 0865.13
2015 04 09 07 38 10 .44     -15    -46    -13     49     51 198.3 -15.4  33274  274.74 0865.13
2015 04 09 07 38 10 .69      -9    -48    -12     49     51 190.7 -14.5  33274  274.74 0865.13
2015 04 09 07 38 10 .95     -14    -58    -18     60     63 194.3 -16.6  33274  274.74 0865.13
2015 04 09 07 38 11 .20     -19    -54    -17     58     61 199.2 -16.6  33274  274.74 0865.13
2015 04 09 07 38 11 .45     -11    -53    -15     55     58 191.6 -15.4  33276  274.77 0865.12
2015 04 09 07 38 11 .70     -13    -49    -17     51     54 195.1 -18.7  33276  274.79 0865.12
2015 04 09 07 38 11 .95     -16    -49    -14     52     55 198.3 -15.5  33278  274.81 0865.12
2015 04 09 07 38 12 .20     -21    -47     -9     52     53 204.5 -10.3  33280  274.86 0865.12
2015 04 09 07 38 12 .45      -9    -49     -6     50     51 190.7  -7.2  33278  274.81 0865.12
2015 04 09 07 38 12 .70     -17    -50     -6     53     54 199.2  -7.3  33282  274.89 0865.12
2015 04 09 07 38 12 .95      -9    -49     -6     50     51 190.7  -7.2  33278  274.81 0865.12
2015 04 09 07 38 13 .20     -17    -53     -6     56     57 197.8  -6.2  33274  274.76 0865.12
2015 04 09 07 38 13 .45     -14    -58     -3     60     61 194.3  -3.1  33274  274.74 0865.12
2015 04 09 07 38 13 .70     -14    -58     -3     60     61 194.3  -3.1  33274  274.74 0865.12
2015 04 09 07 38 13 .95     -14    -58     -3     60     61 194.3  -3.1  33274  274.74 0865.12
2015 04 09 07 38 14 .20     -14    -49     -2     51     52 196.0  -2.2  33276  274.79 0865.12
2015 04 09 07 38 14 .45     -24    -54     -2     60     61 204.5  -2.2  33280  274.86 0865.12
2015 04 09 07 38 14 .70     -18    -58     -2     61     62 197.8  -2.2  33274  274.76 0865.12
2015 04 09 07 38 14 .96     -18    -49     -2     53     54 200.9  -2.2  33278  274.81 0865.12
2015 04 09 07 38 15 .20     -23    -50      0     56     57 205.3  -0.3  33280  274.84 0865.12
2015 04 09 07 38 15 .45     -18    -58     -2     61     62 197.8  -2.2  33274  274.76 0865.12
2015 04 09 07 38 15 .70     -14    -58     -3     60     61 194.3  -3.1  33274  274.74 0865.12
2015 04 09 07 38 15 .96     -19    -55    -10     59     60 199.2 -10.3  33280  274.86 0865.12
2015 04 09 07 38 16 .21      -8    -42     -3     43     44 191.6  -5.2  33280  274.86 0865.12
2015 04 09 07 38 16 .46     -23    -46     -6     52     53 207.2  -7.3  33282  274.89 0865.12
2015 04 09 07 38 16 .71     -15    -46    -16     49     51 198.3 -23.8  33274  274.76 0865.12
2015 04 09 07 38 16 .96     -17    -53     -6     56     57 197.8  -6.2  33284  274.91 0865.12
2015 04 09 07 38 17 .21     -19    -56     -7     60     61 198.7  -7.3  33280  274.84 0865.12
2015 04 09 07 38 17 .47     -10    -61     -8     62     63 189.8  -7.3  33276  274.79 0865.12
2015 04 09 07 38 17 .72     -16    -62      0     65     66 195.1   0.8  33276  274.79 0865.12
2015 04 09 07 38 17 .97     -26    -68      3     73     74 200.9   2.9  33282  274.87 0865.12
2015 04 09 07 38 18 .22     -22    -69     -2     73     74 198.3  -2.2  33290  275.01 0865.12
2015 04 09 07 38 18 .47     -18    -65     -2     68     69 196.0  -2.2  33286  274.96 0865.12
2015 04 09 07 38 18 .73     -21    -62      3     66     67 198.7   2.8  33296  275.10 0865.12
2015 04 09 07 38 18 .98     -18    -65      3     68     69 196.0   2.9  33300  275.17 0865.12
2015 04 09 07 38 19 .22     -26    -55     -7     61     62 205.4  -7.2  33306  275.27 0865.12
2015 04 09 07 38 19 .47     -26    -65      2     71     72 201.8   1.8  33284  274.91 0865.12
2015 04 09 07 38 19 .73     -32    -73      4     80     81 203.6   3.3  33282  274.89 0865.12
2015 04 09 07 38 19 .98     -24    -75      9     79     80 198.3   6.5  33288  274.99 0865.12
2015 04 09 07 38 20 .23     -24    -73     24     77     81 198.3  17.9  33298  275.14 0865.12
2015 04 09 07 38 20 .48     -21    -56     24     60     64 200.9  23.0  33298  275.14 0865.12
2015 04 09 07 38 20 .73     -23    -51     20     57     61 204.5  19.4  33304  275.24 0865.13
2015 04 09 07 38 20 .98     -25    -39     19     47     50 212.5  23.0  33306  275.29 0865.13
2015 04 09 07 38 21 .23     -15    -31     15     35     38 207.2  23.0  33304  275.24 0865.13
2015 04 09 07 38 21 .48     -22    -41      7     47     48 208.1   9.0  33296  275.10 0865.13
2015 04 09 07 38 21 .74     -32    -57      4     66     67 209.0   3.8  33294  275.07 0865.13
2015 04 09 07 38 21 .98     -28    -53     -1     61     62 208.1  -1.2  33294  275.09 0865.13
2015 04 09 07 38 22 .23     -22    -50     -6     55     56 203.6  -6.2  33284  274.91 0865.13
2015 04 09 07 38 22 .48     -15    -69     -5     71     72 192.5  -4.1  33292  275.05 0865.13
2015 04 09 07 38 22 .73     -13    -65     -8     67     68 191.6  -7.3  33290  275.01 0865.13
2015 04 09 07 38 22 .99      -5    -64     -2     65     66 184.5  -2.2  33308  275.32 0865.13
2015 04 09 07 38 23 .23     -13    -69      3     71     72 190.7   2.9  33318  275.48 0865.13
2015 04 09 07 38 23 .48     -12    -60     12     62     64 191.6  11.1  33328  275.65 0865.13
2015 04 09 07 38 23 .74      -7    -41     34     42     54 190.7  43.7  33328  275.65 0865.13
2015 04 09 07 38 23 .99     -15    -46     34     49     59 198.3  38.6  33320  275.52 0865.13
2015 04 09 07 38 24 .24     -23    -48     28     54     60 205.3  30.3  33336  275.78 0865.13
2015 04 09 07 38 24 .49     -17    -42     39     46     60 201.8  43.8  33332  275.70 0865.13
2015 04 09 07 38 24 .75     -26    -31     39     41     56 219.6  50.0  33336  275.77 0865.13
2015 04 09 07 38 25 .00     -43    -36     -7     57     58 230.5  -7.3  33294  275.09 0865.13
2015 04 09 07 38 25 .25     -35    -34     -5     49     50 225.9  -6.2  33310  275.35 0865.13
2015 04 09 07 38 25 .50     -31    -46     11     56     58 214.3  11.0  33322  275.53 0865.13
2015 04 09 07 38 25 .75     -35    -57      4     68     69 211.6   3.8  33326  275.60 0865.13
2015 04 09 07 38 26 .00     -40    -55     16     69     71 216.0  13.2  33322  275.55 0865.12
2015 04 09 07 38 26 .25     -40    -55     16     69     71 216.0  13.2  33322  275.55 0865.12
2015 04 09 07 38 26 .51     -33    -53      7     63     64 211.6   7.1  33318  275.48 0865.12
2015 04 09 07 38 26 .75     -24    -53     11     59     61 204.5  11.1  33328  275.65 0865.12
2015 04 09 07 38 27 .00     -26    -59     30     65     71 204.5  27.1  33328  275.65 0865.12
2015 04 09 07 38 27 .25     -25    -56     17     62     65 204.5  15.3  33304  275.25 0865.12
2015 04 09 07 38 27 .50     -20    -60     17     64     67 198.5  15.2  33284  274.91 0865.12
2015 04 09 07 38 27 .75     -22    -69     11     73     74 198.3   9.0  33274  274.76 0865.12
2015 04 09 07 38 28 .00     -27    -81      8     86     87 198.3   5.9  33272  274.72 0865.12
2015 04 09 07 38 28 .26     -31    -74      9     81     82 203.2   6.5  33278  274.82 0865.12
2015 04 09 07 38 28 .50     -38    -84     18     93     95 204.5  11.1  33276  274.77 0865.12
2015 04 09 07 38 28 .76     -30    -80     10     86     87 200.9   6.9  33274  274.76 0865.12
2015 04 09 07 38 29 .01     -35    -80     14     88     90 204.1   9.5  33272  274.72 0865.12
2015 04 09 07 38 29 .26     -22    -76      9     80     81 196.0   6.5  33270  274.69 0865.12
2015 04 09 07 38 29 .51     -25    -84      4     88     89 196.5   2.9  33270  274.69 0865.12
2015 04 09 07 38 29 .76     -23    -80     -1     84     85 196.0  -0.7  33274  274.74 0865.12
2015 04 09 07 38 30 .01     -25    -76      4     81     82 198.7   2.9  33268  274.64 0865.12
2015 04 09 07 38 30 .26     -27    -81      2     86     87 198.3   1.8  33268  274.66 0865.12
2015 04 09 07 38 30 .51     -23    -87      5     91     92 195.1   3.3  33268  274.66 0865.13
2015 04 09 07 38 30 .76     -22    -76      9     80     81 196.0   6.5  33270  274.69 0865.13
2015 04 09 07 38 31 .01     -15    -76      5     78     79 191.6   3.8  33272  274.71 0865.13
2015 04 09 07 38 31 .26     -25    -76     11     81     82 198.7   8.0  33282  274.87 0865.13
2015 04 09 07 38 31 .53     -27    -67     14     73     75 201.8  11.1  33290  275.02 0865.13
2015 04 09 07 38 31 .77     -26    -64      8     70     71 201.8   7.1  33292  275.04 0865.13
2015 04 09 07 38 32 .03     -21    -65      0     69     70 198.3  -0.3  33298  275.14 0865.13
2015 04 09 07 38 32 .28     -38    -53      4     66     67 215.2   3.8  33358  276.15 0865.13
2015 04 09 07 38 32 .52     -21    -56      0     60     61 200.9   0.8  33354  276.06 0865.13
2015 04 09 07 38 32 .78     -25    -55     25     61     65 204.5  23.0  33332  275.70 0865.13
2015 04 09 07 38 33 .02     -29    -62     28     69     74 205.4  23.0  33318  275.48 0865.13
2015 04 09 07 38 33 .28      -9    -64     14     65     67 188.0  12.2  33300  275.19 0865.13
2015 04 09 07 38 33 .53     -13    -66      9     68     69 191.6   8.0  33300  275.19 0865.13
2015 04 09 07 38 33 .78     -30    -56     12     64     66 208.9  11.0  33304  275.25 0865.13
2015 04 09 07 38 34 .03     -32    -57      4     66     67 209.0   3.8  33310  275.34 0865.13
2015 04 09 07 38 34 .28     -26    -50      2     57     58 208.1   2.8  33314  275.40 0865.13
2015 04 09 07 38 34 .53     -35    -42     -6     55     56 219.7  -6.2  33320  275.50 0865.13
2015 04 09 07 38 34 .79     -45    -37     10     59     60 230.4  10.1  33342  275.88 0865.13
2015 04 09 07 38 35 .03     -30    -27     20     41     45 228.7  28.2  33332  275.72 0865.13
2015 04 09 07 38 35 .29     -38    -36     12     53     55 225.9  13.2  33332  275.70 0865.13
2015 04 09 07 38 35 .54     -20    -42     20     47     51 205.4  24.1  33358  276.13 0865.13
2015 04 09 07 38 35 .79     -33    -33     16     48     51 225.1  19.4  33382  276.54 0865.13
2015 04 09 07 38 36 .04     -40    -55     16     69     71 216.0  13.2  33348  275.96 0865.13
2015 04 09 07 38 36 .28     -32    -50      5     60     61 212.5   4.9  33322  275.53 0865.13
2015 04 09 07 38 36 .53     -23    -45     13     51     53 207.2  14.3  33322  275.55 0865.13
2015 04 09 07 38 36 .78     -26    -41      9     49     50 212.5  11.1  33316  275.43 0865.13
2015 04 09 07 38 37 .04     -32    -57      4     66     67 209.0   3.8  33304  275.24 0865.13
2015 04 09 07 38 37 .79     -16    -52     15     55     58 197.8  15.3  33300  275.19 0865.13
2015 04 09 07 38 38 .04     -24    -53     11     59     61 204.5  11.1  33300  275.17 0865.13
2015 04 09 07 38 38 .30     -31    -46     11     56     58 214.3  11.0  33304  275.24 0865.13
2015 04 09 07 38 38 .55     -23    -65     16     70     72 200.0  13.2  33304  275.25 0865.13
2015 04 09 07 38 38 .80     -21    -48     17     53     56 203.6  18.4  33312  275.39 0865.13
2015 04 09 07 38 39 .05     -10    -45     12     47     49 193.4  15.3  33316  275.45 0865.13
2015 04 09 07 38 39 .31     -15    -31      0     35     36 205.5  -1.3  33340  275.85 0865.13
2015 04 09 07 38 39 .55     -41    -43     20     60     64 223.2  18.9  33338  275.82 0865.13
2015 04 09 07 38 39 .80     -31    -48     11     58     60 212.5  11.1  33302  275.22 0865.13
2015 04 09 07 38 40 .05     -38    -53     13     66     68 216.1  11.1  33312  275.39 0865.13
2015 04 09 07 38 40 .30     -36    -57     -1     68     69 212.5  -1.2  33294  275.09 0865.13
2015 04 09 07 38 40 .55     -37    -60      3     71     72 211.6   2.9  33330  275.68 0865.13
2015 04 09 07 38 40 .80     -29    -62     -1     69     70 205.4  -1.2  33286  274.94 0865.13
2015 04 09 07 38 41 .05     -39    -61     -2     73     74 212.5  -2.2  33290  275.01 0865.13
2015 04 09 07 38 41 .31     -32    -58     -8     67     68 209.0  -7.2  33288  274.99 0865.13
2015 04 09 07 38 41 .56     -36    -57     -1     68     69 212.5  -1.2  33280  274.84 0865.13
2015 04 09 07 38 41 .81     -36    -57     -1     68     69 212.5  -1.2  33280  274.84 0865.13
2015 04 09 07 38 42 .06     -45    -59      9     75     76 217.8   7.1  33330  275.68 0865.13
2015 04 09 07 38 42 .31     -35    -57      4     68     69 211.6   3.8  33288  274.97 0865.13
2015 04 09 07 38 42 .56     -42    -54     -1     69     70 217.8  -1.2  33286  274.94 0865.13
2015 04 09 07 38 42 .81     -26    -50     -2     57     58 208.1  -2.2  33280  274.84 0865.13
2015 04 09 07 38 43 .06     -33    -54     -8     64     65 211.6  -7.3  33280  274.86 0865.13
2015 04 09 07 38 43 .31     -34    -53     -3     64     65 212.5  -3.1  33286  274.94 0865.13
2015 04 09 07 38 43 .56     -32    -58     -8     67     68 209.0  -7.2  33280  274.84 0865.13
2015 04 09 07 38 43 .81     -33    -54     -8     64     65 211.6  -7.3  33280  274.86 0865.13
2015 04 09 07 38 44 .06     -24    -54     -7     60     61 204.5  -7.3  33286  274.94 0865.13
2015 04 09 07 38 44 .31     -44    -57     -9     73     74 217.8  -7.2  33270  274.69 0865.13
2015 04 09 07 38 44 .56     -41    -63    -12     76     78 213.4  -9.3  33274  274.74 0865.13
2015 04 09 07 38 44 .81     -41    -57     -9     71     72 216.0  -7.3  33268  274.66 0865.13
2015 04 09 07 38 45 .07     -41    -57     -9     71     72 216.0  -7.3  33268  274.66 0865.13
2015 04 09 07 38 45 .33     -39    -61    -14     73     75 212.5 -11.3  33276  274.77 0865.13
2015 04 09 07 38 45 .58     -36    -57    -13     68     70 212.5 -11.3  33276  274.79 0865.13
2015 04 09 07 38 45 .82     -32    -58     -8     67     68 209.0  -7.2  33280  274.84 0865.13
2015 04 09 07 38 46 .07     -36    -58    -19     69     72 211.6 -15.5  33272  274.71 0865.13
2015 04 09 07 38 46 .33     -36    -58    -19     69     72 211.6 -15.5  33272  274.71 0865.13
2015 04 09 07 38 46 .58     -36    -57    -13     68     70 212.5 -11.3  33276  274.79 0865.13
2015 04 09 07 38 46 .83     -32    -58     -8     67     68 209.0  -7.2  33294  275.09 0865.13
2015 04 09 07 38 47 .08     -29    -45    -12     54     56 212.6 -12.4  33276  274.79 0865.13
2015 04 09 07 38 47 .33     -32    -50     -7     60     61 212.5  -7.3  33282  274.89 0865.13
2015 04 09 07 38 47 .58     -32    -50     -7     60     61 212.5  -7.3  33282  274.89 0865.13
2015 04 09 07 38 47 .83     -24    -54     -7     60     61 204.5  -7.3  33276  274.79 0865.13
2015 04 09 07 38 48 .08     -18    -46    -14     50     51 201.8 -20.7  33276  274.79 0865.13
2015 04 09 07 38 48 .33     -21    -47     -9     52     53 204.5 -10.3  33280  274.86 0865.13
2015 04 09 07 38 48 .58     -23    -46     -2     52     53 207.2  -2.2  33280  274.86 0865.13
2015 04 09 07 38 48 .83     -21    -47     -9     52     53 204.5 -10.3  33280  274.86 0865.13
2015 04 09 07 38 49 .08     -26    -50      2     57     58 208.1   2.8  33278  274.81 0865.13
2015 04 09 07 38 49 .33     -29    -45     -6     54     55 212.5  -7.2  33280  274.86 0865.13
2015 04 09 07 38 49 .58     -24    -45     -2     52     53 208.1  -2.2  33284  274.91 0865.14
2015 04 09 07 38 49 .83     -26    -50      2     57     58 208.1   2.8  33278  274.81 0865.14
2015 04 09 07 38 50 .09     -21    -47     -9     52     53 204.5 -10.3  33274  274.76 0865.14
2015 04 09 07 38 50 .34     -19    -46     -1     50     51 202.7  -2.2  33282  274.89 0865.14
2015 04 09 07 38 50 .59     -21    -55     -3     59     60 200.9  -3.1  33280  274.84 0865.14
2015 04 09 07 38 50 .84     -17    -42     -1     46     47 202.7  -2.2  33280  274.86 0865.14
2015 04 09 07 38 51 .09     -29    -45     -6     54     55 212.5  -7.2  33280  274.86 0865.14
2015 04 09 07 38 51 .34     -26    -42      2     50     51 212.5   2.9  33284  274.91 0865.14
2015 04 09 07 38 51 .59     -22    -41     -5     47     48 208.1  -6.2  33286  274.96 0865.14
2015 04 09 07 38 51 .84     -23    -50      0     56     57 205.3  -0.3  33280  274.84 0865.14
2015 04 09 07 38 52 .09     -31    -49     -2     59     60 212.5  -2.2  33280  274.86 0865.14
2015 04 09 07 38 52 .35     -26    -50     -2     57     58 208.1  -2.2  33280  274.84 0865.14
2015 04 09 07 38 52 .60     -23    -46     -2     52     53 207.2  -2.2  33278  274.81 0865.14
2015 04 09 07 38 52 .85     -31    -49     -7     59     60 212.5  -7.3  33280  274.84 0865.14
2015 04 09 07 38 53 .12     -26    -42     -1     50     51 212.5  -2.2  33282  274.89 0865.14
2015 04 09 07 38 53 .35     -26    -50     -2     57     58 208.1  -2.2  33280  274.84 0865.14
2015 04 09 07 38 53 .61     -22    -50     -6     55     56 203.6  -6.2  33286  274.96 0865.14
2015 04 09 07 38 53 .86     -29    -45     -6     54     55 212.5  -7.2  33280  274.86 0865.14
2015 04 09 07 38 54 .10     -36    -50    -12     62     64 216.1 -11.3  33274  274.74 0865.14
2015 04 09 07 38 54 .35     -31    -49     -7     59     60 212.5  -7.3  33276  274.79 0865.14
2015 04 09 07 38 54 .60     -32    -50    -16     60     63 212.5 -15.5  33272  274.71 0865.14
2015 04 09 07 38 54 .85     -26    -51     -8     58     59 207.2  -8.2  33274  274.76 0865.14
2015 04 09 07 38 55 .11     -27    -51    -18     58     61 208.1 -17.6  33270  274.69 0865.14
2015 04 09 07 38 55 .36     -29    -46    -16     55     57 212.5 -21.7  33272  274.71 0865.14
2015 04 09 07 38 55 .61     -27    -51    -18     58     61 208.1 -17.6  33272  274.72 0865.14
2015 04 09 07 38 55 .86     -25    -55    -16     61     64 204.5 -15.4  33272  274.71 0865.14
2015 04 09 07 38 56 .11     -22    -50    -12     55     57 203.6 -12.4  33276  274.79 0865.14
2015 04 09 07 38 56 .36     -30    -55    -21     63     67 209.0 -18.7  33274  274.76 0865.14
2015 04 09 07 38 56 .61     -24    -45    -14     52     55 208.1 -15.5  33274  274.76 0865.14
2015 04 09 07 38 56 .87     -31    -49     -2     59     60 212.5  -2.2  33294  275.07 0865.14
2015 04 09 07 38 57 .11     -26    -50     -2     57     58 208.1  -2.2  33292  275.04 0865.14
2015 04 09 07 38 57 .36     -37    -44      6     58     59 219.6   5.9  33306  275.29 0865.14
2015 04 09 07 38 57 .62     -26    -50      2     57     58 208.1   2.8  33296  275.10 0865.14
2015 04 09 07 38 57 .86     -35    -42      6     55     56 219.6   6.9  33284  274.91 0865.14
2015 04 09 07 38 58 .12     -26    -50      2     57     58 208.1   2.8  33278  274.81 0865.14
2015 04 09 07 38 58 .37     -29    -37      0     48     49 217.8  -0.3  33286  274.94 0865.14
2015 04 09 07 38 58 .62     -26    -41     -1     49     50 212.5  -2.2  33288  274.99 0865.14
2015 04 09 07 38 58 .87     -26    -50     -2     57     58 208.1  -2.2  33300  275.17 0865.14
2015 04 09 07 38 59 .12     -26    -42      2     50     51 212.5   2.8  33290  275.01 0865.14
2015 04 09 07 38 59 .38     -26    -35     -3     44     45 217.0  -4.1  33288  274.99 0865.14
2015 04 09 07 38 59 .63     -29    -45      0     54     55 212.5  -0.3  33312  275.39 0865.14
2015 04 09 07 38 59 .88     -28    -59      8     66     67 205.3   6.9  33298  275.15 0865.14
2015 04 09 07 39 00 .13     -23    -50      0     56     57 205.3  -0.3  33276  274.79 0865.14
2015 04 09 07 39 00 .38     -24    -50     -2     56     57 206.3  -2.2  33302  275.22 0865.14
2015 04 09 07 39 00 .63     -29    -61     -1     68     69 205.3  -1.2  33298  275.14 0865.14
2015 04 09 07 39 00 .88     -24    -54     -7     60     61 204.5  -7.3  33298  275.14 0865.14
2015 04 09 07 39 01 .13     -24    -54      5     60     61 204.5   4.9  33304  275.24 0865.14
2015 04 09 07 39 01 .38     -17    -42     19     46     49 202.7  23.0  33306  275.29 0865.14
2015 04 09 07 39 01 .63     -24    -44     13     51     53 208.1  14.3  33300  275.17 0865.14
2015 04 09 07 39 01 .88     -12    -38      6     40     41 197.8   9.0  33298  275.14 0865.14
2015 04 09 07 39 02 .13     -11    -42      8     44     45 195.1  11.1  33286  274.96 0865.14
2015 04 09 07 39 02 .39     -24    -44     13     51     53 208.1  14.3  33300  275.17 0865.13
2015 04 09 07 39 02 .63     -18    -28     12     34     37 212.5  19.4  33306  275.29 0865.13
2015 04 09 07 39 02 .88     -20    -37      9     43     44 208.1  12.2  33298  275.14 0865.13
2015 04 09 07 39 03 .13     -25    -39      4     47     48 212.6   5.9  33286  274.94 0865.13
2015 04 09 07 39 03 .39     -24    -37     -1     45     46 212.5  -2.2  33286  274.96 0865.13
2015 04 09 07 39 03 .64     -23    -41      6     48     49 209.0   8.0  33290  275.01 0865.13
2015 04 09 07 39 03 .89     -12    -36     13     39     42 198.7  19.4  33300  275.17 0865.13
2015 04 09 07 39 04 .14     -12    -37     -1     40     41 198.7  -2.2  33314  275.40 0865.13
2015 04 09 07 39 04 .39     -25    -30     -1     40     41 219.6  -2.2  33322  275.55 0865.13
2015 04 09 07 39 04 .64     -18    -28     12     34     37 212.5  19.4  33322  275.53 0865.13
2015 04 09 07 39 04 .89     -16    -35     11     39     41 205.5  16.3  33314  275.40 0865.13
2015 04 09 07 39 05 .14     -19    -40     17     45     48 206.3  20.0  33314  275.40 0865.13
2015 04 09 07 39 05 .39     -22    -34      8     41     42 213.4  12.2  33308  275.32 0865.13
2015 04 09 07 39 05 .64     -15    -39      0     43     44 201.8  -0.3  33288  274.99 0865.13
2015 04 09 07 39 05 .89     -20    -37      3     43     44 208.1   4.9  33280  274.86 0865.13
2015 04 09 07 39 06 .15     -17    -43      4     47     48 201.8   5.9  33286  274.94 0865.14
2015 04 09 07 39 06 .40     -15    -39      7     43     44 201.8  10.1  33284  274.91 0865.14
2015 04 09 07 39 06 .66     -22    -49     15     54     57 204.5  15.3  33310  275.34 0865.14
2015 04 09 07 39 06 .91     -24    -52     20     58     62 204.5  19.4  33312  275.39 0865.14
2015 04 09 07 39 07 .15     -27    -51     29     58     64 208.1  28.2  33314  275.40 0865.14
2015 04 09 07 39 07 .40     -23    -51     20     57     61 204.5  19.4  33310  275.34 0865.14
2015 04 09 07 39 07 .66     -30    -47     18     56     60 212.5  18.4  33306  275.29 0865.14
2015 04 09 07 39 07 .91     -25    -54     14     60     62 205.4  13.2  33304  275.25 0865.14
2015 04 09 07 39 08 .16     -27    -60     29     66     72 204.5  25.1  33314  275.42 0865.14
2015 04 09 07 39 08 .40     -25    -48     15     55     58 208.1  15.3  33304  275.25 0865.14
2015 04 09 07 39 08 .66     -25    -48     18     55     58 208.1  18.4  33296  275.10 0865.14
2015 04 09 07 39 08 .91     -24    -45      3     52     53 208.1   3.8  33280  274.84 0865.14
2015 04 09 07 39 09 .16     -22    -50      1     55     56 203.6   1.8  33288  274.99 0865.14
2015 04 09 07 39 09 .41     -17    -48     -1     52     53 200.0  -1.3  33278  274.81 0865.14
2015 04 09 07 39 09 .66     -12    -45     -6     47     48 195.1  -7.3  33270  274.69 0865.14
2015 04 09 07 39 09 .91     -11    -46     -7     48     49 193.4  -9.3  33276  274.79 0865.14
2015 04 09 07 39 10 .16      -7    -45    -11     46     48 189.8 -13.4  33276  274.77 0865.14
2015 04 09 07 39 10 .41      -2    -45     -5     46     47 183.6  -7.2  33284  274.91 0865.13
2015 04 09 07 39 10 .66      -2    -45     -5     46     47 183.6  -7.2  33284  274.91 0865.13
2015 04 09 07 39 10 .91      -6    -45      3     46     47 188.0   3.8  33282  274.87 0865.13
2015 04 09 07 39 11 .17     -16    -35     13     39     42 205.5  19.2  33286  274.96 0865.13
2015 04 09 07 39 11 .41     -19    -39      2     44     45 206.3   2.9  33290  275.02 0865.13
2015 04 09 07 39 11 .66     -15    -46     22     49     53 198.3  25.1  33280  274.86 0865.13
2015 04 09 07 39 11 .92     -34    -48     20     59     63 215.2  18.9  33296  275.10 0865.13
2015 04 09 07 39 12 .17     -35    -56     13     67     69 212.5  11.1  33294  275.09 0865.13
2015 04 09 07 39 12 .41     -31    -56     12     65     67 209.0  11.0  33296  275.10 0865.13
2015 04 09 07 39 12 .67     -31    -56     12     65     67 209.0  11.0  33296  275.10 0865.13
2015 04 09 07 39 12 .92     -31    -55     18     64     67 209.0  16.3  33292  275.04 0865.13
2015 04 09 07 39 13 .18     -33    -53      8     63     64 212.5   8.0  33298  275.14 0865.13
2015 04 09 07 39 13 .43     -24    -53     11     59     61 204.5  11.1  33292  275.05 0865.13
2015 04 09 07 39 13 .68     -26    -49     11     56     58 208.1  11.0  33300  275.19 0865.13
2015 04 09 07 39 13 .93     -17    -50      4     53     54 199.2   4.9  33304  275.24 0865.13
2015 04 09 07 39 14 .18     -24    -37     -1     45     46 212.5  -2.2  33320  275.50 0865.13
2015 04 09 07 39 14 .43     -17    -36     -1     40     41 205.5  -2.2  33322  275.55 0865.13
2015 04 09 07 39 14 .69     -24    -38    -16     46     49 212.5 -19.7  33292  275.05 0865.13
2015 04 09 07 39 14 .93     -26    -35     -3     44     45 217.0  -4.1  33306  275.29 0865.13
2015 04 09 07 39 15 .18     -34    -34     16     49     52 225.0  18.4  33318  275.47 0865.13
2015 04 09 07 39 15 .43     -37    -45     11     59     61 219.7  11.1  33314  275.42 0865.13
2015 04 09 07 39 15 .68     -31    -49      5     59     60 212.6   4.9  33300  275.19 0865.13
2015 04 09 07 39 15 .93     -32    -47     -2     57     58 214.3  -2.2  33294  275.09 0865.13
2015 04 09 07 39 16 .19     -26    -50     -2     57     58 208.1  -2.2  33298  275.14 0865.13
2015 04 09 07 39 16 .44     -43    -30      0     53     54 234.9   0.8  33312  275.37 0865.13
2015 04 09 07 39 16 .69     -34    -24     11     42     44 234.9  15.3  33312  275.39 0865.13
2015 04 09 07 39 16 .93     -26    -31     26     41     48 219.6  35.5  33310  275.35 0865.13
2015 04 09 07 39 17 .19     -22    -26     15     35     38 219.7  23.0  33310  275.34 0865.13
2015 04 09 07 39 17 .44     -24    -30     13     39     42 219.6  19.4  33310  275.35 0865.13
2015 04 09 07 39 17 .69     -34    -24      2     42     43 234.9   2.9  33316  275.45 0865.14
2015 04 09 07 39 17 .94     -31    -27      6     42     43 228.7   9.0  33318  275.48 0865.14
2015 04 09 07 39 18 .19     -37    -34     18     51     55 227.8  19.4  33314  275.40 0865.14
2015 04 09 07 39 18 .44     -26    -41      9     49     50 212.5  11.1  33298  275.14 0865.14
2015 04 09 07 39 18 .70     -33    -47      1     58     59 215.2   1.8  33292  275.05 0865.14
2015 04 09 07 39 18 .94     -35    -57      4     68     69 211.6   3.8  33302  275.20 0865.14
2015 04 09 07 39 19 .19     -34    -62      2     71     72 208.9   1.8  33302  275.22 0865.14
2015 04 09 07 39 19 .45     -29    -64     10     71     72 204.5   8.0  33314  275.42 0865.14
2015 04 09 07 39 19 .69     -29    -62     28     69     74 205.3  23.0  33312  275.39 0865.14
2015 04 09 07 39 19 .97     -25    -55     25     61     65 204.5  23.0  33312  275.37 0865.14
2015 04 09 07 39 20 .20     -31    -48     11     58     60 212.5  11.1  33302  275.22 0865.14
2015 04 09 07 39 20 .46     -38    -46     -2     61     62 219.6  -2.2  33298  275.15 0865.14
2015 04 09 07 39 20 .71     -32    -45     16     56     59 215.2  16.3  33306  275.27 0865.14
2015 04 09 07 39 20 .96     -38    -56     10     68     69 214.3   9.0  33308  275.32 0865.14
2015 04 09 07 39 21 .21     -49    -48     13     69     71 225.9  11.1  33316  275.43 0865.14
2015 04 09 07 39 21 .46     -39    -56     16     69     71 215.2  13.2  33320  275.50 0865.14
2015 04 09 07 39 21 .71     -36    -43     28     57     63 219.6  27.3  33316  275.43 0865.14
2015 04 09 07 39 21 .96     -56    -46     -6     73     74 230.4  -5.2  33298  275.15 0865.14
2015 04 09 07 39 22 .21     -35    -40    -12     54     56 221.4 -12.4  33294  275.09 0865.14
2015 04 09 07 39 22 .46     -35    -40      0     54     55 221.4  -0.3  33306  275.29 0865.14
2015 04 09 07 39 22 .71     -46    -47      2     66     67 224.2   1.8  33290  275.02 0865.14
2015 04 09 07 39 22 .96     -43    -43      5     62     63 225.0   4.9  33298  275.14 0865.14
2015 04 09 07 39 23 .22     -36    -51      7     63     64 215.2   6.9  33292  275.05 0865.14
2015 04 09 07 39 23 .46     -37    -44     -7     58     59 219.6  -7.3  33280  274.84 0865.14
2015 04 09 07 39 23 .71     -35    -43      0     56     57 219.6  -0.3  33280  274.84 0865.14
2015 04 09 07 39 23 .96     -26    -42      2     50     51 212.5   2.9  33284  274.91 0865.14
2015 04 09 07 39 24 .21     -35    -43      0     56     57 219.6  -0.3  33280  274.84 0865.14
2015 04 09 07 39 24 .47     -40    -49     -2     64     65 219.6  -2.2  33280  274.84 0865.14
2015 04 09 07 39 24 .72     -35    -42     -6     55     56 219.6  -6.2  33278  274.81 0865.14
2015 04 09 07 39 24 .96     -35    -49     -4     61     62 215.2  -4.1  33278  274.81 0865.14
2015 04 09 07 39 25 .22     -33    -47     -2     58     59 215.2  -2.2  33282  274.89 0865.14
2015 04 09 07 39 25 .47     -33    -47     -2     58     59 215.2  -2.2  33282  274.89 0865.14
2015 04 09 07 39 25 .72     -35    -43      0     56     57 219.6  -0.3  33280  274.84 0865.14
2015 04 09 07 39 25 .97     -33    -47     -2     58     59 215.2  -2.2  33282  274.89 0865.14
2015 04 09 07 39 26 .22     -31    -42     -2     53     54 217.0  -2.2  33284  274.91 0865.14
2015 04 09 07 39 26 .47     -33    -47     -2     58     59 215.2  -2.2  33282  274.89 0865.14
2015 04 09 07 39 26 .72     -38    -38     -2     54     55 225.0  -2.2  33278  274.81 0865.14
2015 04 09 07 39 26 .98     -35    -43      0     56     57 219.6  -0.3  33280  274.84 0865.14
2015 04 09 07 39 27 .23     -44    -43     -2     62     63 226.0  -2.2  33280  274.86 0865.14
2015 04 09 07 39 27 .48     -45    -49     -1     67     68 222.3  -1.3  33278  274.81 0865.14
2015 04 09 07 39 27 .73     -45    -49     -1     67     68 222.3  -1.3  33278  274.81 0865.14
2015 04 09 07 39 27 .98     -49    -42     -5     65     66 229.6  -5.2  33278  274.81 0865.14
2015 04 09 07 39 28 .23     -49    -43     -6     66     67 228.7  -5.2  33274  274.76 0865.14
2015 04 09 07 39 28 .48     -44    -43     -2     62     63 226.0  -2.2  33274  274.76 0865.14
2015 04 09 07 39 28 .73     -45    -49     -1     67     68 222.3  -1.3  33278  274.81 0865.14
2015 04 09 07 39 28 .98     -38    -46     -2     61     62 219.6  -2.2  33280  274.86 0865.14
2015 04 09 07 39 29 .23     -38    -46     -2     61     62 219.6  -2.2  33280  274.86 0865.14
2015 04 09 07 39 29 .49     -31    -49     -2     59     60 212.5  -2.2  33276  274.77 0865.14
2015 04 09 07 39 29 .74     -44    -43     -2     62     63 226.0  -2.2  33274  274.76 0865.14
2015 04 09 07 39 29 .99     -47    -39     -2     62     63 230.4  -2.2  33274  274.74 0865.14
2015 04 09 07 39 30 .23     -49    -43      0     66     67 228.7   0.8  33274  274.74 0865.14
2015 04 09 07 39 30 .49     -47    -38     -3     61     62 230.5  -3.1  33276  274.79 0865.14
2015 04 09 07 39 30 .74     -50    -36     -5     63     64 234.0  -5.2  33276  274.77 0865.14
2015 04 09 07 39 30 .99     -50    -36     -5     63     64 234.0  -5.2  33276  274.77 0865.14
2015 04 09 07 39 31 .24     -46    -38    -11     61     63 230.4 -10.3  33272  274.71 0865.14
2015 04 09 07 39 31 .49     -43    -43     -8     62     63 225.0  -7.3  33270  274.69 0865.13
2015 04 09 07 39 31 .74     -47    -42    -11     64     66 227.8 -10.3  33274  274.74 0865.13
2015 04 09 07 39 31 .99     -40    -40    -14     57     59 225.1 -14.5  33274  274.74 0865.13
2015 04 09 07 39 32 .24     -43    -35    -15     56     59 230.5 -15.5  33272  274.71 0865.13
2015 04 09 07 39 32 .49     -45    -38    -18     60     63 229.6 -16.6  33274  274.74 0865.13
2015 04 09 07 39 32 .74     -59    -50     -9     78     79 229.6  -6.7  33280  274.84 0865.13
2015 04 09 07 39 32 .99     -54    -50     -9     74     75 226.9  -7.3  33278  274.81 0865.13
2015 04 09 07 39 33 .24     -56    -46    -12     73     75 230.4  -9.3  33276  274.79 0865.13
2015 04 09 07 39 33 .49     -56    -46    -12     73     75 230.4  -9.3  33276  274.79 0865.13
2015 04 09 07 39 33 .75     -56    -46     -6     73     74 230.4  -5.2  33278  274.81 0865.13
2015 04 09 07 39 34 .01     -53    -49    -20     73     76 226.8 -15.4  33298  275.14 0865.13
2015 04 09 07 39 34 .26     -57    -50     -3     76     77 228.7  -2.2  33310  275.35 0865.13
2015 04 09 07 39 34 .51     -57    -57     -3     82     83 225.0  -2.2  33314  275.40 0865.13
2015 04 09 07 39 34 .76     -53    -66      1     85     86 218.7   0.8  33310  275.35 0865.13
2015 04 09 07 39 35 .01     -49    -66      5     83     84 217.0   3.8  33302  275.22 0865.14
2015 04 09 07 39 35 .26     -44    -57      3     73     74 217.8   2.9  33306  275.29 0865.14
2015 04 09 07 39 35 .51     -42    -54     -1     69     70 217.8  -1.2  33304  275.24 0865.14
2015 04 09 07 39 35 .76     -46    -54      8     72     73 220.5   6.9  33304  275.24 0865.14
2015 04 09 07 39 36 .01     -44    -48     13     66     68 222.3  11.1  33304  275.25 0865.14
2015 04 09 07 39 36 .26     -48    -48     14     68     70 225.0  12.2  33306  275.29 0865.14
2015 04 09 07 39 36 .51     -48    -57      5     75     76 220.5   3.8  33298  275.15 0865.14
2015 04 09 07 39 36 .76     -43    -67      4     80     81 212.6   3.3  33292  275.04 0865.14
2015 04 09 07 39 37 .01     -38    -60      3     72     73 212.5   2.9  33294  275.09 0865.14
2015 04 09 07 39 37 .26     -45    -49     -1     67     68 222.3  -1.3  33296  275.10 0865.14
2015 04 09 07 39 37 .51     -35    -49     -4     61     62 215.2  -4.1  33296  275.10 0865.14
2015 04 09 07 39 37 .76     -33    -47     -2     58     59 215.2  -2.2  33304  275.24 0865.14
2015 04 09 07 39 38 .01     -41    -41     -7     58     59 225.0  -7.3  33298  275.15 0865.14
2015 04 09 07 39 38 .27     -33    -47     -2     58     59 215.2  -2.2  33300  275.19 0865.14
2015 04 09 07 39 38 .52     -41    -40      2     58     59 225.9   2.9  33308  275.30 0865.14
2015 04 09 07 39 38 .77     -38    -38      4     54     55 225.0   4.9  33310  275.34 0865.14
2015 04 09 07 39 39 .02     -31    -35      4     47     48 221.4   5.9  33316  275.43 0865.14
2015 04 09 07 39 39 .27     -27    -52     20     59     63 208.1  18.9  33312  275.37 0865.14
2015 04 09 07 39 39 .52     -31    -44     25     54     59 215.2  26.2  33314  275.40 0865.14
2015 04 09 07 39 39 .77     -17    -37     26     41     48 205.5  35.5  33318  275.47 0865.14
2015 04 09 07 39 40 .02     -21    -43     34     48     58 206.3  38.6  33320  275.52 0865.14
2015 04 09 07 39 40 .27     -24    -47     32     53     61 207.2  34.4  33306  275.29 0865.14
2015 04 09 07 39 40 .52     -24    -47     32     53     61 207.2  34.4  33306  275.29 0865.14
2015 04 09 07 39 40 .77     -22    -42     41     48     63 208.1  44.8  33318  275.48 0865.14
2015 04 09 07 39 41 .04     -14    -43     24     46     51 198.5  29.3  33298  275.14 0865.14
2015 04 09 07 39 41 .29     -33    -34      1     48     49 224.2   1.8  33324  275.57 0865.14
2015 04 09 07 39 41 .53     -38    -37     -2     54     55 225.9  -2.2  33322  275.55 0865.14
2015 04 09 07 39 41 .79     -43    -28     -7     52     53 236.7  -8.2  33334  275.75 0865.14
2015 04 09 07 39 42 .03     -57    -21     16     61     64 249.2  15.3  33334  275.73 0865.14
2015 04 09 07 39 42 .29     -49    -23     -3     55     56 244.6  -3.1  33294  275.09 0865.14
2015 04 09 07 39 42 .54     -48    -23      2     54     55 244.6   2.9  33322  275.55 0865.14
2015 04 09 07 39 42 .78     -45    -19      6     50     51 246.5   6.9  33336  275.78 0865.14
2015 04 09 07 39 43 .04     -33    -31     -2     46     47 226.0  -3.1  33336  275.78 0865.14
2015 04 09 07 39 43 .28     -51    -51      3     73     74 225.1   2.8  33316  275.45 0865.14
2015 04 09 07 39 43 .54     -54    -50      2     74     75 226.9   1.8  33304  275.25 0865.14
2015 04 09 07 39 43 .79     -38    -46     -2     61     62 219.6  -2.2  33284  274.91 0865.14
2015 04 09 07 39 44 .04     -33    -45     -3     56     57 216.1  -3.1  33288  274.99 0865.14
2015 04 09 07 39 44 .29     -32    -47     -2     57     58 214.3  -2.2  33294  275.09 0865.14
2015 04 09 07 39 44 .54     -40    -41      1     58     59 224.1   1.8  33290  275.01 0865.14
2015 04 09 07 39 44 .79     -41    -32     -4     53     54 232.2  -5.2  33280  274.86 0865.14
2015 04 09 07 39 45 .04     -53    -43     -3     69     70 231.4  -3.1  33280  274.84 0865.14
2015 04 09 07 39 45 .29     -50    -47     -8     69     70 226.9  -7.2  33280  274.84 0865.14
2015 04 09 07 39 45 .54     -43    -50     -2     67     68 220.5  -2.2  33284  274.91 0865.14
2015 04 09 07 39 45 .79     -38    -53     -2     66     67 215.2  -2.2  33286  274.96 0865.14
2015 04 09 07 39 46 .04     -42    -46     -5     63     64 222.3  -5.2  33284  274.92 0865.14
2015 04 09 07 39 46 .29     -40    -40    -10     57     58 225.0 -10.3  33278  274.81 0865.14
2015 04 09 07 39 46 .54     -35    -43    -16     56     58 219.7 -22.8  33278  274.82 0865.14
2015 04 09 07 39 46 .80     -42    -46    -22     63     67 222.3 -19.6  33276  274.77 0865.14
2015 04 09 07 39 47 .05     -45    -51    -18     69     72 221.4 -14.5  33278  274.82 0865.14
2015 04 09 07 39 47 .30     -47    -61    -10     78     79 217.8  -7.3  33288  274.97 0865.14
2015 04 09 07 39 47 .55     -51    -61     -3     80     81 219.6  -2.2  33286  274.96 0865.14
2015 04 09 07 39 47 .80     -46    -54      8     72     73 220.5   6.9  33286  274.94 0865.14
2015 04 09 07 39 48 .06     -53    -49      3     73     74 226.8   2.8  33290  275.01 0865.14
2015 04 09 07 39 48 .31     -43    -48     -8     65     66 222.3  -7.2  33282  274.89 0865.14
2015 04 09 07 39 48 .56     -47    -45     -3     66     67 225.9  -3.1  33286  274.94 0865.14
2015 04 09 07 39 48 .81     -50    -47     -8     69     70 226.9  -7.2  33276  274.79 0865.14
2015 04 09 07 39 49 .06     -47    -42    -11     64     66 227.8 -10.3  33274  274.74 0865.14
2015 04 09 07 39 49 .31     -45    -49     -8     67     68 222.3  -7.2  33272  274.72 0865.14
2015 04 09 07 39 49 .56     -46    -54     -2     72     73 220.5  -2.2  33280  274.84 0865.14
2015 04 09 07 39 49 .81     -46    -54     -2     72     73 220.5  -2.2  33280  274.84 0865.14
2015 04 09 07 39 50 .06     -45    -49     -8     67     68 222.3  -7.2  33272  274.72 0865.14
2015 04 09 07 39 50 .31     -48    -58     -6     76     77 219.7  -5.2  33278  274.81 0865.14
2015 04 09 07 39 50 .56     -50    -47     -8     69     70 226.9  -7.2  33276  274.79 0865.14
2015 04 09 07 39 50 .81     -49    -42     -5     65     66 229.6  -5.2  33278  274.81 0865.14
2015 04 09 07 39 51 .07     -49    -42     -5     65     66 229.6  -5.2  33278  274.81 0865.14
2015 04 09 07 39 51 .31     -53    -43     -3     69     70 231.4  -3.1  33280  274.84 0865.14
2015 04 09 07 39 51 .56     -53    -43     -3     69     70 231.4  -3.1  33280  274.84 0865.14
2015 04 09 07 39 51 .82     -51    -39     -2     65     66 232.2  -2.2  33280  274.86 0865.14
2015 04 09 07 39 52 .06     -47    -38     -3     61     62 230.5  -3.1  33280  274.84 0865.14
2015 04 09 07 39 52 .32     -47    -45     -9     66     67 225.9  -8.2  33272  274.71 0865.14
2015 04 09 07 39 52 .57     -40    -37    -12     55     57 226.9 -12.4  33276  274.79 0865.14
2015 04 09 07 39 52 .82     -37    -32    -17     50     52 228.7 -23.6  33276  274.79 0865.14
2015 04 09 07 39 53 .07     -36    -29    -16     47     49 231.4 -23.6  33278  274.81 0865.14
2015 04 09 07 39 53 .32     -39    -26    -17     48     52 235.8 -19.7  33278  274.82 0865.14
2015 04 09 07 39 53 .57     -35    -28    -12     46     48 231.4 -15.5  33274  274.74 0865.14
2015 04 09 07 39 53 .82     -36    -32     -8     49     50 228.7  -9.3  33276  274.79 0865.14
2015 04 09 07 39 54 .07     -38    -38     -2     54     55 225.0  -2.2  33274  274.76 0865.14
2015 04 09 07 39 54 .32     -42    -45     -5     62     63 223.2  -5.2  33274  274.76 0865.15
2015 04 09 07 39 54 .57     -45    -49     -1     67     68 222.3  -1.3  33278  274.81 0865.15
2015 04 09 07 39 54 .83     -40    -50     -3     65     66 218.7  -3.1  33282  274.89 0865.15
2015 04 09 07 39 55 .08     -34    -53     -2     64     65 212.5  -2.2  33280  274.84 0865.15
2015 04 09 07 39 55 .33     -30    -54     -5     62     63 209.0  -5.2  33280  274.86 0865.15
2015 04 09 07 39 55 .59     -30    -54     -1     62     63 209.0  -1.3  33282  274.89 0865.15
2015 04 09 07 39 55 .83     -34    -53     -3     64     65 212.5  -3.1  33286  274.94 0865.15
2015 04 09 07 39 56 .08     -38    -53     -2     66     67 215.2  -2.2  33282  274.87 0865.15
2015 04 09 07 39 56 .33     -38    -53     -2     66     67 215.2  -2.2  33278  274.82 0865.15
2015 04 09 07 39 56 .59     -38    -53     -2     66     67 215.2  -2.2  33278  274.82 0865.15
2015 04 09 07 39 56 .84     -38    -53     -2     66     67 215.2  -2.2  33278  274.82 0865.15
2015 04 09 07 39 57 .09     -38    -53     -2     66     67 215.2  -2.2  33278  274.82 0865.15
2015 04 09 07 39 57 .34     -38    -53     -2     66     67 215.2  -2.2  33278  274.82 0865.15
2015 04 09 07 39 57 .59     -33    -53     -3     63     64 211.6  -3.1  33276  274.79 0865.15
2015 04 09 07 39 57 .84     -34    -53     -2     64     65 212.5  -2.2  33280  274.84 0865.14
2015 04 09 07 39 58 .09     -34    -53     -2     64     65 212.5  -2.2  33280  274.84 0865.14
2015 04 09 07 39 58 .34     -36    -51     -5     63     64 215.2  -5.2  33284  274.91 0865.14
2015 04 09 07 39 58 .59     -38    -53     -2     66     67 215.2  -2.2  33282  274.87 0865.14
2015 04 09 07 39 58 .84     -36    -57     -1     68     69 212.5  -1.2  33286  274.94 0865.14
2015 04 09 07 39 59 .09     -39    -58     -3     71     72 214.3  -3.1  33280  274.84 0865.14
2015 04 09 07 39 59 .34     -38    -53     -2     66     67 215.2  -2.2  33278  274.82 0865.14
2015 04 09 07 39 59 .59     -34    -53     -2     64     65 212.5  -2.2  33280  274.84 0865.14
2015 04 09 07 39 59 .84     -28    -53     -4     61     62 208.1  -4.1  33278  274.81 0865.14
2015 04 09 07 40 00 .09     -38    -53     -2     66     67 215.2  -2.2  33278  274.82 0865.14
2015 04 09 07 40 00 .35     -40    -48     -3     63     64 219.6  -3.1  33276  274.79 0865.14
2015 04 09 07 40 00 .60     -35    -49     -4     61     62 215.2  -4.1  33278  274.81 0865.14
2015 04 09 07 40 00 .85     -36    -57     -6     68     69 212.5  -5.2  33282  274.87 0865.14
2015 04 09 07 40 01 .10     -38    -53     -2     66     67 215.2  -2.2  33278  274.82 0865.14
2015 04 09 07 40 01 .35     -35    -49     -4     61     62 215.2  -4.1  33278  274.81 0865.14
2015 04 09 07 40 01 .60     -39    -58     -3     71     72 214.3  -3.1  33280  274.84 0865.14
2015 04 09 07 40 01 .86     -41    -63     -6     76     77 213.4  -5.2  33278  274.82 0865.14
2015 04 09 07 40 02 .11     -46    -62     -3     78     79 217.0  -2.6  33288  274.99 0865.14
2015 04 09 07 40 02 .36     -41    -65     -3     78     79 212.5  -2.6  33280  274.84 0865.14
2015 04 09 07 40 02 .61     -46    -57     -2     74     75 218.7  -2.2  33274  274.76 0865.14
2015 04 09 07 40 02 .86     -38    -53     -2     66     67 215.2  -2.2  33278  274.82 0865.14
2015 04 09 07 40 03 .11     -42    -54     -5     69     70 217.8  -4.1  33272  274.71 0865.14
2015 04 09 07 40 03 .36     -40    -49     -2     64     65 219.6  -2.2  33280  274.84 0865.14
2015 04 09 07 40 03 .61     -40    -49     -2     64     65 219.6  -2.2  33280  274.84 0865.14
2015 04 09 07 40 03 .86     -40    -49     -2     64     65 219.6  -2.2  33280  274.84 0865.14
2015 04 09 07 40 04 .12     -36    -50     -5     62     63 216.1  -5.2  33286  274.96 0865.14
2015 04 09 07 40 04 .36     -38    -53     -2     66     67 215.2  -2.2  33292  275.05 0865.14
2015 04 09 07 40 04 .61     -42    -54     -5     69     70 217.8  -4.1  33282  274.87 0865.14
2015 04 09 07 40 04 .87     -34    -62      0     72     73 209.0  -0.3  33288  274.97 0865.14
2015 04 09 07 40 05 .12     -26    -65     -3     71     72 201.8  -3.1  33292  275.04 0865.14
2015 04 09 07 40 05 .37     -40    -64      9     76     77 212.5   6.9  33292  275.04 0865.14
2015 04 09 07 40 05 .62     -39    -54      3     67     68 216.0   2.9  33280  274.84 0865.14
2015 04 09 07 40 05 .87     -34    -53      2     64     65 212.5   1.8  33278  274.82 0865.14
2015 04 09 07 40 06 .12     -41    -56      3     70     71 216.0   2.8  33278  274.81 0865.14
2015 04 09 07 40 06 .37     -36    -57      8     68     69 212.6   6.9  33274  274.76 0865.14
2015 04 09 07 40 06 .62     -44    -56      3     72     73 217.8   2.9  33280  274.84 0865.14
2015 04 09 07 40 06 .88     -41    -61      6     74     75 214.3   4.9  33278  274.81 0865.14
2015 04 09 07 40 07 .12     -39    -58     -3     71     72 214.3  -3.1  33280  274.84 0865.14
2015 04 09 07 40 07 .37     -47    -60      2     77     78 217.8   1.8  33280  274.86 0865.14
2015 04 09 07 40 07 .62     -49    -65     -1     82     83 217.4  -1.3  33282  274.89 0865.14
2015 04 09 07 40 07 .88     -41    -65     -3     78     79 212.5  -2.6  33294  275.09 0865.14
2015 04 09 07 40 08 .12     -51    -60      4     80     81 220.5   3.3  33286  274.94 0865.14
2015 04 09 07 40 08 .38     -51    -62     -3     81     82 219.6  -2.2  33278  274.81 0865.14
2015 04 09 07 40 08 .62     -49    -66      5     83     84 217.0   3.8  33290  275.01 0865.14
2015 04 09 07 40 08 .88     -51    -62     11     81     82 219.6   8.0  33272  274.71 0865.14
2015 04 09 07 40 09 .14     -46    -60      9     76     77 217.8   6.9  33276  274.77 0865.14
2015 04 09 07 40 09 .39     -45    -54      3     71     72 219.7   2.8  33278  274.81 0865.14
2015 04 09 07 40 09 .64     -46    -57     -2     74     75 218.7  -2.2  33274  274.76 0865.14
2015 04 09 07 40 09 .89     -46    -57     -2     74     75 218.7  -2.2  33274  274.76 0865.14
2015 04 09 07 40 10 .14     -46    -57     -2     74     75 218.7  -2.2  33274  274.76 0865.14
2015 04 09 07 40 10 .39     -45    -54      3     71     72 219.7   2.8  33278  274.81 0865.14
2015 04 09 07 40 10 .64     -48    -50      1     70     71 224.2   0.8  33274  274.74 0865.14
2015 04 09 07 40 10 .89     -50    -47     -1     69     70 226.9  -1.3  33274  274.76 0865.14
2015 04 09 07 40 11 .14     -51    -47     -2     70     71 226.9  -2.2  33272  274.71 0865.14
2015 04 09 07 40 11 .39     -45    -49     -8     67     68 222.3  -7.2  33272  274.72 0865.14
2015 04 09 07 40 11 .64     -40    -49     -2     64     65 219.6  -2.2  33280  274.84 0865.14
2015 04 09 07 40 11 .89     -33    -54     -8     64     65 211.6  -7.3  33280  274.86 0865.14
2015 04 09 07 40 12 .15     -33    -47     -2     58     59 215.2  -2.2  33286  274.94 0865.14
2015 04 09 07 40 12 .39     -41    -50     -8     65     66 219.6  -7.3  33284  274.92 0865.14
2015 04 09 07 40 12 .64     -42    -54     -5     69     70 217.8  -4.1  33284  274.91 0865.14
2015 04 09 07 40 12 .90     -42    -58     -2     72     73 216.1  -2.2  33290  275.02 0865.14
2015 04 09 07 40 13 .15     -46    -57     11     74     75 218.7   9.0  33284  274.91 0865.14
2015 04 09 07 40 13 .39     -42    -45      7     62     63 223.2   6.9  33286  274.96 0865.14
2015 04 09 07 40 13 .64     -45    -38      3     60     61 229.6   2.9  33288  274.97 0865.14
2015 04 09 07 40 13 .90     -40    -40      6     57     58 225.1   6.9  33280  274.86 0865.14
2015 04 09 07 40 14 .15     -44    -36     -2     58     59 230.5  -2.2  33278  274.81 0865.14
2015 04 09 07 40 14 .40     -43    -36     -7     57     58 230.5  -7.3  33294  275.09 0865.14
2015 04 09 07 40 14 .65     -40    -38     -6     56     57 226.9  -6.2  33326  275.62 0865.14
2015 04 09 07 40 14 .91     -48    -48     -1     69     70 225.0  -1.2  33288  274.99 0865.14
2015 04 09 07 40 15 .15     -47    -69     -4     84     85 214.7  -3.1  33294  275.09 0865.14
2015 04 09 07 40 15 .41     -35    -56     29     67     73 212.5  25.1  33334  275.73 0865.14
2015 04 09 07 40 15 .66     -23    -43     35     49     60 208.1  39.7  33344  275.90 0865.14
2015 04 09 07 40 15 .91     -23    -35     34     43     54 213.4  42.7  33344  275.91 0865.14
2015 04 09 07 40 16 .17     -46    -33      6     57     58 234.0   6.9  33322  275.55 0865.14
2015 04 09 07 40 16 .41     -23    -46     -2     52     53 207.2  -2.2  33314  275.40 0865.14
2015 04 09 07 40 16 .67     -19    -46    -11     50     52 202.7 -12.4  33320  275.50 0865.14
2015 04 09 07 40 16 .91     -29    -45     22     54     58 212.5  22.0  33342  275.86 0865.14
2015 04 09 07 40 17 .16     -35    -43     28     56     62 219.6  28.2  33336  275.78 0865.14
2015 04 09 07 40 17 .41     -44    -48     18     66     69 222.3  15.3  33292  275.04 0865.14
2015 04 09 07 40 17 .67     -48    -57      5     75     76 220.5   3.8  33278  274.81 0865.14
2015 04 09 07 40 17 .92     -42    -67      6     80     81 212.5   4.9  33284  274.91 0865.14
2015 04 09 07 40 18 .17     -42    -67      0     80     81 212.5   0.2  33284  274.92 0865.14
2015 04 09 07 40 18 .42     -41    -62     14     75     77 213.4  10.6  33324  275.58 0865.14
2015 04 09 07 40 18 .67     -44    -47     21     65     69 223.2  18.4  33308  275.30 0865.14
2015 04 09 07 40 18 .92     -42    -54     -1     69     70 217.8  -1.2  33280  274.84 0865.14
2015 04 09 07 40 19 .17     -42    -54      0     69     70 217.8  -0.3  33276  274.79 0865.14
2015 04 09 07 40 19 .42     -39    -58     -3     71     72 214.3  -3.1  33276  274.79 0865.14
2015 04 09 07 40 19 .67     -42    -59     -5     73     74 215.2  -4.1  33278  274.81 0865.14
2015 04 09 07 40 19 .92     -44    -60     -1     75     76 216.0  -1.2  33276  274.79 0865.14
2015 04 09 07 40 20 .17     -39    -58     -3     71     72 214.3  -3.1  33280  274.84 0865.14
2015 04 09 07 40 20 .42     -45    -58     -9     74     75 217.8  -7.2  33280  274.84 0865.14
2015 04 09 07 40 20 .67     -54    -50     -2     74     75 226.9  -2.2  33272  274.72 0865.14
2015 04 09 07 40 20 .92     -46    -54     -3     72     73 220.5  -3.1  33280  274.84 0865.14
2015 04 09 07 40 21 .17     -46    -57     -2     74     75 218.7  -2.2  33274  274.76 0865.14
2015 04 09 07 40 21 .42     -46    -57     -2     74     75 218.7  -2.2  33274  274.76 0865.14
2015 04 09 07 40 21 .67     -46    -62     -3     78     79 217.0  -2.6  33276  274.79 0865.14
2015 04 09 07 40 21 .92     -42    -54     -1     69     70 217.8  -1.2  33282  274.89 0865.14
2015 04 09 07 40 22 .17     -42    -54     -1     69     70 217.8  -1.2  33280  274.84 0865.14
2015 04 09 07 40 22 .43     -46    -57     -2     74     75 218.7  -2.2  33274  274.76 0865.14
2015 04 09 07 40 22 .69     -45    -49     -1     67     68 222.3  -1.3  33278  274.81 0865.14
2015 04 09 07 40 22 .94     -42    -54     -5     69     70 217.8  -4.1  33272  274.71 0865.14
2015 04 09 07 40 23 .19     -38    -53     -2     66     67 215.2  -2.2  33278  274.82 0865.14
2015 04 09 07 40 23 .44     -42    -54      0     69     70 217.8  -0.3  33276  274.79 0865.14
2015 04 09 07 40 23 .69     -37    -55     -8     67     68 214.3  -7.2  33280  274.84 0865.14
2015 04 09 07 40 23 .94     -42    -54     -5     69     70 217.8  -4.1  33282  274.87 0865.14
2015 04 09 07 40 24 .19     -34    -53     -3     64     65 212.5  -3.1  33286  274.94 0865.14
2015 04 09 07 40 24 .44     -38    -53     -2     66     67 215.2  -2.2  33286  274.96 0865.14
2015 04 09 07 40 24 .69     -42    -54     -1     69     70 217.8  -1.2  33286  274.94 0865.14
2015 04 09 07 40 24 .94     -40    -49     -2     64     65 219.6  -2.2  33280  274.84 0865.14
2015 04 09 07 40 25 .19     -38    -54     -8     67     68 215.2  -7.2  33282  274.89 0865.14
2015 04 09 07 40 25 .45     -41    -61     -1     74     75 214.3  -1.2  33282  274.89 0865.14
2015 04 09 07 40 25 .69     -36    -57     -6     68     69 212.5  -5.2  33284  274.91 0865.14
2015 04 09 07 40 25 .94     -36    -57     -1     68     69 212.5  -1.2  33288  274.99 0865.14
2015 04 09 07 40 26 .19     -43    -59     14     74     76 216.0  11.0  33286  274.94 0865.14
2015 04 09 07 40 26 .45     -46    -54      8     72     73 220.5   6.9  33288  274.99 0865.14
2015 04 09 07 40 26 .69     -41    -63      3     76     77 213.4   2.9  33288  274.97 0865.14
2015 04 09 07 40 26 .94     -38    -53     -2     66     67 215.2  -2.2  33278  274.82 0865.14
2015 04 09 07 40 27 .20     -38    -60     -2     72     73 212.5  -2.2  33282  274.87 0865.14
2015 04 09 07 40 27 .45     -42    -54      0     69     70 217.8  -0.3  33276  274.79 0865.14
2015 04 09 07 40 27 .70     -42    -54      5     69     70 217.8   4.9  33280  274.86 0865.14
2015 04 09 07 40 27 .95     -38    -53     -2     66     67 215.2  -2.2  33278  274.82 0865.14
2015 04 09 07 40 28 .20     -31    -49     -7     59     60 212.5  -7.3  33280  274.84 0865.14
2015 04 09 07 40 28 .45     -37    -44     -7     58     59 219.6  -7.3  33276  274.79 0865.14
2015 04 09 07 40 28 .70     -31    -42     -6     53     54 217.0  -7.3  33274  274.74 0865.14
2015 04 09 07 40 28 .95     -35    -49     -4     61     62 215.2  -4.1  33278  274.81 0865.14
2015 04 09 07 40 29 .20     -35    -49     -4     61     62 215.2  -4.1  33278  274.81 0865.14
2015 04 09 07 40 29 .45     -35    -49     -4     61     62 215.2  -4.1  33278  274.81 0865.14
2015 04 09 07 40 29 .72     -33    -47     -2     58     59 215.2  -2.2  33282  274.89 0865.14
2015 04 09 07 40 29 .96     -35    -49     -4     61     62 215.2  -4.1  33278  274.81 0865.14
2015 04 09 07 40 30 .21     -35    -49     -4     61     62 215.2  -4.1  33278  274.81 0865.14
2015 04 09 07 40 30 .46     -37    -44     -7     58     59 219.6  -7.3  33276  274.79 0865.14
2015 04 09 07 40 30 .71     -38    -54     -8     67     68 215.2  -7.2  33282  274.89 0865.14
2015 04 09 07 40 30 .96     -42    -54     -5     69     70 217.8  -4.1  33282  274.87 0865.14
2015 04 09 07 40 31 .22     -40    -49     -2     64     65 219.6  -2.2  33280  274.84 0865.14
2015 04 09 07 40 31 .47     -47    -45     -3     66     67 225.9  -3.1  33286  274.94 0865.15
2015 04 09 07 40 31 .72     -43    -43     -2     62     63 225.1  -2.2  33286  274.96 0865.15
2015 04 09 07 40 31 .97     -49    -46     -2     68     69 226.9  -2.2  33278  274.81 0865.15
2015 04 09 07 40 32 .22     -49    -42     -5     65     66 229.6  -5.2  33278  274.81 0865.15
2015 04 09 07 40 32 .47     -47    -39      1     62     63 230.4   1.8  33280  274.86 0865.15
2015 04 09 07 40 32 .72     -50    -47      3     69     70 226.8   2.9  33276  274.79 0865.15
2015 04 09 07 40 32 .97     -42    -46      0     63     64 222.3   0.8  33276  274.79 0865.15
2015 04 09 07 40 33 .22     -47    -38     -3     61     62 230.5  -3.1  33276  274.79 0865.14
2015 04 09 07 40 33 .47     -40    -38     -6     56     57 226.9  -6.2  33274  274.76 0865.14
2015 04 09 07 40 33 .72     -43    -36     -7     57     58 230.5  -7.3  33274  274.74 0865.14
2015 04 09 07 40 33 .97     -40    -40    -10     57     58 225.0 -10.3  33278  274.81 0865.14
2015 04 09 07 40 34 .22     -40    -41     -3     58     59 224.1  -3.1  33282  274.89 0865.14
2015 04 09 07 40 34 .48     -40    -38      0     56     57 226.9  -0.3  33286  274.94 0865.14
2015 04 09 07 40 34 .72     -35    -35      0     50     51 225.0  -0.3  33288  274.99 0865.14
2015 04 09 07 40 34 .97     -32    -31    -10     45     47 226.0 -12.4  33278  274.81 0865.14
2015 04 09 07 40 35 .23     -41    -31    -11     52     54 232.2 -12.4  33276  274.79 0865.14
2015 04 09 07 40 35 .48     -36    -32    -13     49     51 228.7 -15.5  33280  274.86 0865.14
2015 04 09 07 40 35 .72     -39    -26    -17     48     52 235.8 -19.7  33278  274.82 0865.14
2015 04 09 07 40 35 .98     -38    -24    -14     46     49 237.6 -16.6  33280  274.86 0865.14
2015 04 09 07 40 36 .23     -38    -24    -14     46     49 237.6 -16.6  33280  274.86 0865.14
2015 04 09 07 40 36 .48     -37    -21    -12     43     45 240.2 -15.5  33280  274.84 0865.14
2015 04 09 07 40 36 .74     -34    -17    -10     39     41 242.9 -14.5  33280  274.86 0865.14
2015 04 09 07 40 36 .99     -33    -21    -12     40     41 237.5 -21.7  33280  274.86 0865.14
2015 04 09 07 40 37 .24     -34    -17    -10     39     41 242.9 -14.5  33288  274.97 0865.14
2015 04 09 07 40 37 .49     -35    -18    -14     40     42 242.9 -24.4  33288  274.99 0865.14
2015 04 09 07 40 37 .74     -32     -9    -14     34     36 253.2 -27.4  33286  274.94 0865.14
2015 04 09 07 40 37 .99     -21    -21     -9     31     32 225.1 -21.7  33282  274.89 0865.14
2015 04 09 07 40 38 .24     -20    -17     -7     27     27 228.7 -21.7  33280  274.86 0865.14
2015 04 09 07 40 38 .49     -24    -16     -7     30     31 235.8 -13.4  33282  274.89 0865.14
2015 04 09 07 40 38 .74     -25    -16     -1     30     31 237.5  -2.2  33286  274.96 0865.14
2015 04 09 07 40 39 .00     -31    -17     -4     36     37 241.1  -7.3  33290  275.02 0865.14
2015 04 09 07 40 39 .25     -31    -17      1     36     37 241.1   2.9  33310  275.34 0865.14
2015 04 09 07 40 39 .50     -22    -23      6     33     34 223.4  11.1  33342  275.88 0865.14
2015 04 09 07 40 39 .75     -21    -21      0     31     32 225.1  -1.3  33358  276.15 0865.14
2015 04 09 07 40 40 .00     -23    -19      9     30     32 230.4  17.3  33378  276.46 0865.14
2015 04 09 07 40 40 .25     -21    -15     17     27     31 234.0  35.5  33356  276.11 0865.14
2015 04 09 07 40 40 .50     -21    -15     17     27     31 234.0  35.5  33346  275.95 0865.14
2015 04 09 07 40 40 .75     -14     -6     16     16     22 244.7  50.1  33346  275.93 0865.14
2015 04 09 07 40 41 .01     -10    -16     19     20     27 212.6  52.0  33352  276.03 0865.14
2015 04 09 07 40 41 .25      -9    -11     22     15     26 219.6  64.6  33362  276.21 0865.14
2015 04 09 07 40 41 .50      -4    -12     20     13     23 198.3  64.7  33364  276.23 0865.14
2015 04 09 07 40 41 .75      -2    -15     28     16     32 188.0  66.8  33366  276.28 0865.14
2015 04 09 07 40 42 .00       0     -3     31      4     31 189.7  90.0  33380  276.51 0865.14
2015 04 09 07 40 42 .25      -1     -4     18      5     18 191.6  80.7  33384  276.56 0865.14
2015 04 09 07 40 42 .50       0      0     20      0     20   0.0 -90.0  33384  276.58 0865.15
2015 04 09 07 40 42 .75      -1    -12     17     13     21 186.2  58.5  33366  276.26 0865.15
2015 04 09 07 40 43 .00       0    -26     11     27     29 180.9  21.0  33348  275.98 0865.15
2015 04 09 07 40 43 .25       0    -30      6     31     32 179.1  11.1  33336  275.78 0865.15
2015 04 09 07 40 43 .52      -4    -34     14     35     37 188.0  21.0  33346  275.95 0865.15
2015 04 09 07 40 43 .76     -22    -35      1     42     43 212.5   1.8  33352  276.03 0865.15
2015 04 09 07 40 44 .02     -15    -31      0     35     36 205.5  -1.3  33358  276.15 0865.15
2015 04 09 07 40 44 .29     -23    -23     -1     33     34 225.1  -2.2  33372  276.36 0865.14
2015 04 09 07 40 44 .52     -26    -16      6     31     32 237.6  11.1  33372  276.38 0865.14
2015 04 09 07 40 44 .77     -21    -17     11     28     30 230.5  21.0  33382  276.54 0865.14
2015 04 09 07 40 45 .02     -26    -16      6     31     32 237.6  11.1  33380  276.49 0865.14
2015 04 09 07 40 45 .27     -18    -13      7     23     25 234.0  17.3  33382  276.53 0865.14
2015 04 09 07 40 45 .52     -24    -12      9     27     29 242.9  19.4  33374  276.41 0865.14
2015 04 09 07 40 45 .78     -24     -8     13     26     29 251.6  27.2  33392  276.71 0865.14
2015 04 09 07 40 46 .03     -15     -2     21     16     26 262.1  58.5  33416  277.09 0865.15
2015 04 09 07 40 46 .27     -19    -14     13     24     27 234.0  31.4  33414  277.06 0865.15
2015 04 09 07 40 46 .52     -20    -16     11     26     28 230.5  21.0  33398  276.79 0865.15
2015 04 09 07 40 46 .77     -19    -31     10     37     39 212.6  16.3  33394  276.73 0865.15
2015 04 09 07 40 47 .03     -23    -19      9     30     32 230.4  17.3  33372  276.36 0865.15
2015 04 09 07 40 47 .27     -30    -25     13     40     43 229.6  18.4  33356  276.11 0865.15
2015 04 09 07 40 47 .52     -35    -36      7     51     52 224.2   8.0  33326  275.60 0865.15
2015 04 09 07 40 47 .78     -32    -39      2     51     52 219.6   2.9  33314  275.40 0865.14
2015 04 09 07 40 48 .02     -25    -34     11     43     45 217.0  14.3  33330  275.68 0865.14
2015 04 09 07 40 48 .27     -15    -39      0     43     44 201.8  -0.3  33300  275.19 0865.14
2015 04 09 07 40 48 .52     -14    -42     -2     45     46 198.5  -3.1  33282  274.89 0865.14
2015 04 09 07 40 48 .78     -20    -37      3     43     44 208.1   4.9  33280  274.86 0865.14
2015 04 09 07 40 49 .03     -24    -42      1     49     50 210.7   1.8  33290  275.02 0865.14
2015 04 09 07 40 49 .28     -22    -34      0     41     42 213.4   0.8  33348  275.98 0865.14
2015 04 09 07 40 49 .53     -16    -35      5     39     40 205.5   8.0  33360  276.18 0865.14
2015 04 09 07 40 49 .78     -15    -31     16     35     38 207.2  25.1  33366  276.28 0865.14
2015 04 09 07 40 50 .03     -10    -32     20     34     39 198.3  33.5  33370  276.33 0865.14
2015 04 09 07 40 50 .28      -2    -31     16     32     35 184.5  27.3  33358  276.13 0865.14
2015 04 09 07 40 50 .54      -8    -35     21     36     41 193.4  32.4  33356  276.11 0865.15
2015 04 09 07 40 50 .79      -8    -35     21     36     41 193.4  32.4  33340  275.85 0865.15
2015 04 09 07 40 51 .04      -7    -38     10     39     41 190.7  15.3  33310  275.34 0865.15
2015 04 09 07 40 51 .29      -5    -31     22     32     38 189.8  37.6  33322  275.55 0865.15
2015 04 09 07 40 51 .54     -10    -31     19     33     38 198.3  35.5  33306  275.29 0865.15
2015 04 09 07 40 51 .79      -7    -45     15     46     49 189.8  18.9  33294  275.07 0865.15
2015 04 09 07 40 52 .04       0    -44     14     45     48 180.0  17.3  33286  274.96 0865.15
2015 04 09 07 40 52 .29      -3    -45      0     46     47 184.5  -0.3  33286  274.94 0865.14
2015 04 09 07 40 52 .54      -9    -49      0     50     51 190.7  -0.3  33282  274.89 0865.14
2015 04 09 07 40 52 .79     -12    -37     -1     40     41 198.7  -2.2  33280  274.86 0865.14
2015 04 09 07 40 53 .04      -5    -40     -1     41     42 187.1  -2.2  33278  274.81 0865.14
2015 04 09 07 40 53 .29     -13    -41      2     44     45 198.5   3.8  33278  274.81 0865.14
2015 04 09 07 40 53 .55      -6    -45     -2     46     47 188.0  -3.1  33280  274.84 0865.14
2015 04 09 07 40 53 .81     -11    -53      3     55     56 192.5   3.8  33300  275.19 0865.14
2015 04 09 07 40 54 .05     -16    -52      1     55     56 196.9   1.8  33342  275.86 0865.14
2015 04 09 07 40 54 .30      -9    -48     16     49     52 190.7  18.4  33316  275.43 0865.15
2015 04 09 07 40 54 .55      -3    -49      6     50     51 184.5   6.9  33292  275.04 0865.15
2015 04 09 07 40 54 .80     -17    -53      5     56     57 197.8   5.9  33288  274.97 0865.15
2015 04 09 07 40 55 .06     -10    -61      5     62     63 189.8   4.9  33294  275.09 0865.15
2015 04 09 07 40 55 .31     -22    -58      7     63     64 200.9   6.9  33296  275.10 0865.15
2015 04 09 07 40 55 .56     -17    -53      7     56     57 197.8   8.0  33308  275.30 0865.15
2015 04 09 07 40 55 .80     -17    -53      7     56     57 197.8   8.0  33326  275.60 0865.15
2015 04 09 07 40 56 .06     -23    -59     12     64     66 201.8  11.1  33314  275.40 0865.15
2015 04 09 07 40 56 .30     -28    -59     22     66     70 205.4  18.4  33322  275.55 0865.15
2015 04 09 07 40 56 .55     -21    -55      9     59     60 200.9   9.0  33286  274.94 0865.15
2015 04 09 07 40 56 .80     -21    -55      9     59     60 200.9   9.0  33286  274.94 0865.15
2015 04 09 07 40 57 .05     -21    -55      9     59     60 200.9   9.0  33286  274.94 0865.15
2015 04 09 07 40 57 .31     -21    -55      9     59     60 200.9   9.0  33288  274.99 0865.15
2015 04 09 07 40 57 .57     -29    -45      2     54     55 212.6   2.8  33304  275.24 0865.15
2015 04 09 07 40 57 .82     -33    -47      1     58     59 215.2   1.8  33310  275.35 0865.15
2015 04 09 07 40 58 .07     -28    -62     -1     69     70 204.5  -1.2  33310  275.34 0865.15
2015 04 09 07 40 58 .32     -30    -65      3     72     73 205.4   2.9  33330  275.68 0865.15
2015 04 09 07 40 58 .57     -22    -58     -5     63     64 200.9  -5.2  33322  275.55 0865.15
2015 04 09 07 40 58 .82     -23    -46    -15     52     55 207.2 -16.6  33320  275.52 0865.15
2015 04 09 07 40 59 .07     -11    -53      3     55     56 191.6   3.8  33342  275.88 0865.15
2015 04 09 07 40 59 .32      -3    -35     32     36     48 186.2  47.9  33352  276.03 0865.15
2015 04 09 07 40 59 .57     -40    -25     20     48     52 237.6  24.1  33360  276.18 0865.15
2015 04 09 07 40 59 .82     -42    -31      7     53     54 234.0   8.0  33346  275.95 0865.15
2015 04 09 07 41 00 .08     -52    -32     -6     62     63 238.5  -6.2  33352  276.03 0865.15
2015 04 09 07 41 00 .32     -33    -38     10     51     53 220.5  11.1  33370  276.34 0865.15
2015 04 09 07 41 00 .58     -33    -39     24     52     57 220.5  27.1  33364  276.23 0865.15
2015 04 09 07 41 00 .82     -32    -35     26     48     54 222.3  31.4  33350  276.01 0865.15
2015 04 09 07 41 01 .07     -31    -41     17     52     55 217.0  18.9  33304  275.24 0865.15
2015 04 09 07 41 01 .33     -40    -48     17     63     66 219.6  15.2  33302  275.22 0865.15
2015 04 09 07 41 01 .57     -37    -53     12     65     67 215.2  11.0  33310  275.35 0865.15
2015 04 09 07 41 01 .83     -31    -43     10     54     56 216.1  11.1  33302  275.22 0865.15
2015 04 09 07 41 02 .08     -33    -47     10     58     59 215.2  10.1  33292  275.04 0865.15
2015 04 09 07 41 02 .33     -47    -56     21     74     78 219.7  16.3  33292  275.05 0865.15
2015 04 09 07 41 02 .58     -44    -57     11     73     74 217.8   9.0  33292  275.05 0865.15
2015 04 09 07 41 02 .83     -33    -60      8     69     70 208.9   6.9  33286  274.94 0865.15
2015 04 09 07 41 03 .08     -39    -57      8     70     71 214.3   7.1  33292  275.04 0865.15
2015 04 09 07 41 03 .33     -48    -71      5     87     88 214.3   3.8  33322  275.55 0865.15
2015 04 09 07 41 03 .58     -51    -61      3     80     81 219.6   2.3  33330  275.68 0865.15
2015 04 09 07 41 03 .83     -57    -57     18     81     84 225.0  12.6  33322  275.53 0865.15
2015 04 09 07 41 04 .08     -46    -60      9     76     77 217.8   6.9  33280  274.84 0865.15
2015 04 09 07 41 04 .34     -49    -66      5     83     84 217.0   3.8  33284  274.92 0865.14
2015 04 09 07 41 04 .59     -46    -57     11     74     75 218.7   9.0  33284  274.91 0865.14
2015 04 09 07 41 04 .85     -47    -56      3     74     75 219.6   2.9  33288  274.97 0865.14
2015 04 09 07 41 05 .09     -46    -61      9     77     78 217.0   6.9  33288  274.99 0865.14
2015 04 09 07 41 05 .34     -48    -58      6     76     77 219.7   4.9  33286  274.96 0865.14
2015 04 09 07 41 05 .59     -51    -62      4     81     82 219.6   2.9  33286  274.94 0865.14
2015 04 09 07 41 05 .84     -49    -66      5     83     84 217.0   3.8  33284  274.92 0865.14
2015 04 09 07 41 06 .10     -41    -57      3     71     72 216.1   2.8  33280  274.86 0865.14
2015 04 09 07 41 06 .35     -43    -62      2     76     77 215.2   1.8  33308  275.32 0865.14
2015 04 09 07 41 06 .60     -42    -55     19     70     73 217.8  15.2  33306  275.29 0865.14
2015 04 09 07 41 06 .84     -51    -62      4     81     82 219.6   2.9  33286  274.94 0865.14
2015 04 09 07 41 07 .10     -44    -56      3     72     73 217.8   2.9  33280  274.84 0865.14
2015 04 09 07 41 07 .35     -46    -54      8     72     73 220.5   6.9  33288  274.99 0865.14
2015 04 09 07 41 07 .60     -46    -54      8     72     73 220.5   6.9  33286  274.94 0865.14
2015 04 09 07 41 07 .85     -41    -63      3     76     77 213.4   2.9  33290  275.01 0865.14
2015 04 09 07 41 08 .10     -46    -57     11     74     75 218.7   9.0  33284  274.91 0865.14
2015 04 09 07 41 08 .35     -50    -53      3     74     75 223.3   2.9  33282  274.89 0865.14
2015 04 09 07 41 08 .60     -64    -51      0     83     84 231.4  -0.3  33284  274.92 0865.14
2015 04 09 07 41 08 .85     -58    -57     -3     82     83 225.1  -2.2  33286  274.96 0865.14
2015 04 09 07 41 09 .10     -53    -43      2     69     70 230.5   1.8  33292  275.05 0865.14
2015 04 09 07 41 09 .35     -55    -55     -1     78     79 225.1  -1.3  33286  274.94 0865.14
2015 04 09 07 41 09 .60     -58    -54    -10     80     81 226.9  -7.7  33284  274.91 0865.14
2015 04 09 07 41 09 .86     -56    -46    -20     73     76 230.4 -15.5  33296  275.12 0865.14
2015 04 09 07 41 10 .11     -49    -40      3     64     65 230.5   2.9  33312  275.39 0865.14
2015 04 09 07 41 10 .36     -43    -27      2     51     52 237.5   2.9  33314  275.40 0865.14
2015 04 09 07 41 10 .61     -45    -18     12     49     51 247.4  14.3  33320  275.50 0865.14
2015 04 09 07 41 10 .86     -41    -25     -1     49     50 238.5  -2.2  33314  275.40 0865.14
2015 04 09 07 41 11 .10     -51    -41      4     66     67 231.4   3.8  33300  275.19 0865.14
2015 04 09 07 41 11 .37     -46    -47     -2     66     67 224.2  -2.2  33276  274.79 0865.14
2015 04 09 07 41 11 .62     -47    -42    -11     64     66 227.8 -10.3  33274  274.74 0865.13
2015 04 09 07 41 11 .87     -47    -45     -9     66     67 225.9  -8.2  33272  274.71 0865.13
2015 04 09 07 41 12 .12     -50    -47     -8     69     70 226.9  -7.2  33276  274.79 0865.13
2015 04 09 07 41 12 .37     -46    -47     -2     66     67 224.2  -2.2  33280  274.84 0865.13
2015 04 09 07 41 12 .62     -43    -50     -2     67     68 220.5  -2.2  33284  274.91 0865.13
2015 04 09 07 41 12 .87     -42    -54     -1     69     70 217.8  -1.2  33286  274.94 0865.13
2015 04 09 07 41 13 .12     -50    -48     -1     70     71 225.9  -1.3  33288  274.99 0865.13
2015 04 09 07 41 13 .38     -46    -47      9     66     67 224.2   8.0  33304  275.24 0865.14
2015 04 09 07 41 13 .62     -59    -50     -3     78     79 229.6  -2.2  33284  274.92 0865.14
2015 04 09 07 41 13 .87     -59    -50      5     78     79 229.6   3.8  33280  274.84 0865.14
2015 04 09 07 41 14 .12     -54    -57      1     79     80 223.2   1.2  33282  274.87 0865.14
2015 04 09 07 41 14 .38     -58    -58     -3     83     84 225.0  -2.2  33278  274.81 0865.14
2015 04 09 07 41 14 .62     -56    -54      1     79     80 226.0   0.8  33282  274.87 0865.14
2015 04 09 07 41 14 .88     -54    -57     -3     79     80 223.2  -2.6  33280  274.84 0865.14
2015 04 09 07 41 15 .13     -53    -49      3     73     74 226.8   2.8  33278  274.81 0865.14
2015 04 09 07 41 15 .38     -53    -55      0     77     78 224.2  -0.3  33276  274.77 0865.14
2015 04 09 07 41 15 .63     -59    -50     -3     78     79 229.6  -2.2  33274  274.76 0865.14
2015 04 09 07 41 15 .88     -59    -50     -3     78     79 229.6  -2.2  33274  274.76 0865.14
2015 04 09 07 41 16 .13     -50    -47     -1     69     70 226.9  -1.3  33274  274.76 0865.14
2015 04 09 07 41 16 .38     -50    -53     -2     74     75 223.2  -2.2  33280  274.86 0865.14
2015 04 09 07 41 16 .63     -36    -50     -1     62     63 216.1  -1.3  33292  275.04 0865.14
2015 04 09 07 41 16 .88     -37    -44      6     58     59 219.6   5.9  33286  274.94 0865.14
2015 04 09 07 41 17 .14     -31    -49      5     59     60 212.5   4.9  33288  274.99 0865.14
2015 04 09 07 41 17 .39     -32    -58     23     67     72 208.9  19.2  33304  275.24 0865.14
2015 04 09 07 41 17 .63     -38    -54     25     67     71 215.2  21.0  33308  275.30 0865.14
2015 04 09 07 41 17 .88     -31    -57     23     66     71 208.9  19.4  33298  275.14 0865.14
2015 04 09 07 41 18 .13     -44    -72     18     85     87 211.2  12.2  33288  274.99 0865.14
2015 04 09 07 41 18 .40     -46    -67     24     82     86 214.3  16.3  33288  274.99 0865.14
2015 04 09 07 41 18 .64     -55    -68     20     88     91 219.2  13.2  33290  275.01 0865.14
2015 04 09 07 41 18 .90     -52    -67     19     85     88 217.8  12.6  33294  275.07 0865.14
2015 04 09 07 41 19 .15     -54    -61     21     82     85 221.9  14.7  33314  275.40 0865.14
2015 04 09 07 41 19 .40     -56    -46      3     73     74 230.4   2.9  33322  275.55 0865.14
2015 04 09 07 41 19 .65     -51    -39      3     65     66 232.2   2.9  33322  275.53 0865.15
2015 04 09 07 41 19 .90     -56    -37      2     68     69 236.7   1.8  33316  275.45 0865.15
2015 04 09 07 41 20 .15     -53    -43      3     69     70 230.5   2.8  33284  274.91 0865.15
2015 04 09 07 41 20 .40     -59    -50     -3     78     79 229.6  -2.2  33274  274.76 0865.15
2015 04 09 07 41 20 .65     -61    -47     -3     78     79 232.2  -2.6  33276  274.77 0865.15
2015 04 09 07 41 20 .90     -56    -46      1     73     74 230.4   0.8  33276  274.77 0865.15
2015 04 09 07 41 21 .15     -59    -48     -3     77     78 230.5  -2.2  33272  274.72 0865.15
2015 04 09 07 41 21 .40     -53    -43     -8     69     70 230.5  -7.3  33274  274.76 0865.14
2015 04 09 07 41 21 .65     -54    -50     -9     74     75 226.9  -7.3  33278  274.81 0865.14
2015 04 09 07 41 21 .90     -50    -53     -1     74     75 223.3  -1.3  33274  274.76 0865.14
2015 04 09 07 41 22 .15     -53    -55      0     77     78 224.2  -0.3  33280  274.84 0865.14
2015 04 09 07 41 22 .40     -50    -53     -2     74     75 223.2  -2.2  33280  274.86 0865.14
2015 04 09 07 41 22 .65     -50    -53     -2     74     75 223.2  -2.2  33280  274.86 0865.14
2015 04 09 07 41 22 .90     -48    -58     -1     76     77 219.7  -1.2  33276  274.79 0865.14
2015 04 09 07 41 23 .15     -50    -53     -2     74     75 223.2  -2.2  33278  274.81 0865.14
2015 04 09 07 41 23 .41     -45    -49     -1     67     68 222.3  -1.3  33278  274.81 0865.14
2015 04 09 07 41 23 .65     -50    -58      0     77     78 220.5  -0.3  33274  274.74 0865.14
2015 04 09 07 41 23 .91     -46    -54     -3     72     73 220.5  -3.1  33274  274.74 0865.14
2015 04 09 07 41 24 .15     -54    -50     -2     74     75 226.9  -2.2  33272  274.72 0865.14
2015 04 09 07 41 24 .41     -50    -53     -9     74     75 223.3  -7.2  33270  274.67 0865.14
2015 04 09 07 41 24 .66     -50    -53     -9     74     75 223.3  -7.2  33270  274.67 0865.14
2015 04 09 07 41 24 .91     -50    -53     -9     74     75 223.3  -7.2  33270  274.67 0865.14
2015 04 09 07 41 25 .17     -55    -55     -4     78     79 225.1  -3.1  33272  274.71 0865.14
2015 04 09 07 41 25 .42     -53    -49     -9     73     74 226.8  -7.3  33268  274.66 0865.14
2015 04 09 07 41 25 .67     -53    -49     -9     73     74 226.8  -7.3  33268  274.66 0865.14
2015 04 09 07 41 25 .92     -54    -55    -11     78     79 224.2  -8.2  33270  274.69 0865.14
2015 04 09 07 41 26 .17     -59    -50     -7     78     79 229.6  -5.2  33270  274.69 0865.14
2015 04 09 07 41 26 .42     -59    -50     -7     78     79 229.6  -5.2  33270  274.69 0865.14
2015 04 09 07 41 26 .67     -59    -50     -7     78     79 229.6  -5.2  33270  274.69 0865.14
2015 04 09 07 41 26 .92     -59    -50     -7     78     79 229.6  -5.2  33270  274.69 0865.14
2015 04 09 07 41 27 .17     -59    -50     -7     78     79 229.6  -5.2  33270  274.69 0865.14
2015 04 09 07 41 27 .42     -50    -50    -11     72     73 225.0  -9.3  33270  274.67 0865.14
2015 04 09 07 41 27 .68     -49    -46    -15     68     70 226.9 -12.4  33272  274.71 0865.14
2015 04 09 07 41 27 .92     -54    -50     -2     74     75 226.9  -2.2  33272  274.72 0865.14
2015 04 09 07 41 28 .18     -54    -50     -2     74     75 226.9  -2.2  33272  274.72 0865.14
2015 04 09 07 41 28 .42     -47    -55    -10     73     74 220.5  -8.2  33274  274.76 0865.14
2015 04 09 07 41 28 .68     -48    -58     -6     76     77 219.7  -5.2  33278  274.81 0865.14
2015 04 09 07 41 28 .93     -48    -58    -12     76     78 219.7  -9.3  33282  274.89 0865.14
2015 04 09 07 41 29 .18     -39    -61     -9     73     74 212.5  -7.2  33286  274.94 0865.14
2015 04 09 07 41 29 .43     -39    -55     -8     68     69 216.0  -7.2  33288  274.99 0865.14
2015 04 09 07 41 29 .68     -32    -58     -8     67     68 209.0  -7.2  33284  274.92 0865.14
2015 04 09 07 41 29 .93     -28    -53     -1     61     62 208.1  -1.2  33292  275.04 0865.14
2015 04 09 07 41 30 .18     -32    -58     -8     67     68 209.0  -7.2  33288  274.99 0865.14
2015 04 09 07 41 30 .43     -40    -59     -9     72     73 214.3  -7.3  33284  274.91 0865.14
2015 04 09 07 41 30 .68     -39    -55     -8     68     69 216.0  -7.2  33288  274.99 0865.14
2015 04 09 07 41 30 .93     -29    -46    -16     55     57 212.6 -21.7  33282  274.87 0865.14
2015 04 09 07 41 31 .18     -36    -50    -22     62     66 216.1 -19.7  33280  274.86 0865.14
2015 04 09 07 41 31 .43     -38    -46    -16     60     63 219.7 -15.4  33280  274.86 0865.14
2015 04 09 07 41 31 .68     -29    -46    -16     55     57 212.6 -21.7  33282  274.87 0865.14
2015 04 09 07 41 31 .93     -38    -46    -16     60     63 219.7 -15.4  33280  274.86 0865.14
2015 04 09 07 41 32 .19     -33    -38    -11     51     53 220.5 -12.4  33280  274.86 0865.14
2015 04 09 07 41 32 .44     -33    -38    -11     51     53 220.5 -12.4  33280  274.86 0865.14
2015 04 09 07 41 32 .70     -33    -38    -11     51     53 220.5 -12.4  33280  274.86 0865.14
2015 04 09 07 41 32 .95     -43    -36     -7     57     58 230.5  -7.3  33282  274.89 0865.14
2015 04 09 07 41 33 .20     -43    -36     -7     57     58 230.5  -7.3  33284  274.92 0865.14
2015 04 09 07 41 33 .45     -49    -40     -8     64     65 230.5  -7.3  33286  274.94 0865.14
2015 04 09 07 41 33 .70     -56    -46     -6     73     74 230.4  -5.2  33280  274.86 0865.14
2015 04 09 07 41 33 .95     -59    -50     -9     78     79 229.6  -6.7  33280  274.84 0865.14
2015 04 09 07 41 34 .20     -62    -51     -5     81     82 230.5  -4.1  33278  274.81 0865.14
2015 04 09 07 41 34 .45     -62    -51     -5     81     82 230.5  -4.1  33278  274.81 0865.14
2015 04 09 07 41 34 .70     -59    -50     -9     78     79 229.6  -6.7  33280  274.84 0865.14
2015 04 09 07 41 34 .95     -62    -51     -5     81     82 230.5  -4.1  33278  274.81 0865.14
2015 04 09 07 41 35 .20     -56    -46      1     73     74 230.4   0.8  33280  274.84 0865.14
2015 04 09 07 41 35 .45     -50    -53     -9     74     75 223.3  -7.2  33276  274.79 0865.14
2015 04 09 07 41 35 .70     -50    -53     -9     74     75 223.3  -7.2  33276  274.79 0865.14
2015 04 09 07 41 35 .95     -50    -53     -9     74     75 223.3  -7.2  33276  274.79 0865.15
2015 04 09 07 41 36 .20     -50    -48     -6     70     71 225.9  -5.2  33274  274.76 0865.15
2015 04 09 07 41 36 .45     -54    -50     -2     74     75 226.9  -2.2  33272  274.72 0865.15
2015 04 09 07 41 36 .70     -53    -43     -8     69     70 230.5  -7.3  33274  274.76 0865.15
2015 04 09 07 41 36 .95     -53    -43     -8     69     70 230.5  -7.3  33274  274.76 0865.15
2015 04 09 07 41 37 .21     -53    -43     -8     69     70 230.5  -7.3  33274  274.76 0865.15
2015 04 09 07 41 37 .46     -53    -43     -8     69     70 230.5  -7.3  33274  274.76 0865.15
2015 04 09 07 41 37 .71     -53    -43     -8     69     70 230.5  -7.3  33274  274.76 0865.15
2015 04 09 07 41 37 .96     -51    -39     -8     65     66 232.2  -7.2  33276  274.79 0865.15
2015 04 09 07 41 38 .21     -51    -39     -8     65     66 232.2  -7.2  33276  274.79 0865.15
2015 04 09 07 41 38 .46     -51    -39     -8     65     66 232.2  -7.2  33276  274.79 0865.15
2015 04 09 07 41 38 .71     -51    -39     -8     65     66 232.2  -7.2  33276  274.79 0865.15
2015 04 09 07 41 38 .96     -49    -42     -5     65     66 229.6  -5.2  33278  274.81 0865.15
2015 04 09 07 41 39 .22     -48    -43      0     65     66 227.8  -0.3  33276  274.79 0865.15
2015 04 09 07 41 39 .47     -46    -36     -7     59     60 231.4  -7.2  33278  274.82 0865.15
2015 04 09 07 41 39 .72     -43    -42     -7     61     62 226.0  -7.2  33276  274.79 0865.15
2015 04 09 07 41 39 .97     -46    -47     -2     66     67 224.2  -2.2  33276  274.79 0865.15
2015 04 09 07 41 40 .22     -49    -42     -5     65     66 229.6  -5.2  33278  274.81 0865.15
2015 04 09 07 41 40 .48     -53    -49     -4     73     74 226.8  -3.1  33282  274.89 0865.14
2015 04 09 07 41 40 .72     -46    -54      1     72     73 220.5   0.8  33286  274.96 0865.14
2015 04 09 07 41 40 .97     -41    -50      3     65     66 219.6   2.8  33294  275.07 0865.14
2015 04 09 07 41 41 .22     -47    -42      5     64     65 227.8   4.9  33290  275.01 0865.14
2015 04 09 07 41 41 .47     -49    -42      6     65     66 229.6   5.9  33286  274.96 0865.14
2015 04 09 07 41 41 .73     -49    -46     -2     68     69 226.9  -2.2  33280  274.86 0865.14
2015 04 09 07 41 41 .98     -43    -42     -7     61     62 226.0  -7.2  33280  274.84 0865.14
2015 04 09 07 41 42 .23     -43    -43     -2     62     63 225.1  -2.2  33284  274.91 0865.14
2015 04 09 07 41 42 .48     -40    -40    -10     57     58 225.0 -10.3  33278  274.81 0865.14
2015 04 09 07 41 42 .73     -35    -40      0     54     55 221.4  -0.3  33286  274.94 0865.14
2015 04 09 07 41 42 .98     -35    -42     -6     55     56 219.7  -6.2  33290  275.01 0865.14
2015 04 09 07 41 43 .23     -31    -37     17     49     52 219.6  19.4  33304  275.25 0865.14
2015 04 09 07 41 43 .48     -30    -34     12     46     48 221.4  15.3  33304  275.25 0865.14
2015 04 09 07 41 43 .73     -45    -38      3     60     61 229.6   2.9  33290  275.01 0865.14
2015 04 09 07 41 43 .98     -40    -40      2     57     58 225.0   2.8  33286  274.96 0865.14
2015 04 09 07 41 44 .24     -43    -42      5     61     62 226.0   4.9  33288  274.99 0865.14
2015 04 09 07 41 44 .48     -43    -34     -2     56     57 231.4  -2.2  33284  274.91 0865.14
2015 04 09 07 41 44 .73     -41    -32     -4     53     54 232.2  -5.2  33282  274.87 0865.14
2015 04 09 07 41 44 .98     -41    -28     -2     50     51 235.8  -3.1  33280  274.84 0865.14
2015 04 09 07 41 45 .23     -41    -32     -4     53     54 232.2  -5.2  33278  274.82 0865.14
2015 04 09 07 41 45 .48     -39    -25     -1     47     48 237.6  -2.2  33278  274.82 0865.14
2015 04 09 07 41 45 .74     -42    -20      2     47     48 243.8   2.9  33280  274.86 0865.14
2015 04 09 07 41 45 .98     -44    -25      0     51     52 240.2  -0.3  33280  274.84 0865.14
2015 04 09 07 41 46 .25     -52    -29     -1     60     61 240.2  -1.2  33282  274.89 0865.14
2015 04 09 07 41 46 .50     -48    -25     -8     55     56 242.9  -8.2  33284  274.92 0865.14
2015 04 09 07 41 46 .76     -47    -30     -7     56     57 237.5  -7.3  33300  275.19 0865.14
2015 04 09 07 41 47 .00     -40    -35      2     54     55 228.7   2.9  33310  275.35 0865.14
2015 04 09 07 41 47 .25     -48    -36     -4     61     62 233.1  -4.1  33298  275.15 0865.14
2015 04 09 07 41 47 .50     -51    -28     -4     59     60 241.1  -4.1  33308  275.30 0865.14
2015 04 09 07 41 47 .75     -43    -21     -1     49     50 243.8  -2.2  33306  275.27 0865.14
2015 04 09 07 41 48 .00     -47    -32      2     58     59 235.8   2.9  33290  275.01 0865.14
2015 04 09 07 41 48 .25     -57    -50     -3     76     77 228.7  -2.2  33296  275.10 0865.14
2015 04 09 07 41 48 .50     -44    -57     -2     73     74 217.8  -2.2  33304  275.25 0865.14
2015 04 09 07 41 48 .75     -32    -50     -8     60     61 212.5  -8.2  33306  275.29 0865.14
2015 04 09 07 41 49 .00     -37    -44     -7     58     59 219.6  -7.3  33310  275.34 0865.14
2015 04 09 07 41 49 .26     -34    -62     -2     71     72 208.9  -2.2  33306  275.29 0865.14
2015 04 09 07 41 49 .51     -30    -54     -5     62     63 209.0  -5.2  33304  275.25 0865.14
2015 04 09 07 41 49 .76     -22    -50      1     55     56 203.6   1.8  33322  275.53 0865.14
2015 04 09 07 41 50 .01     -19    -47     30     51     59 202.7  34.4  33338  275.82 0865.14
2015 04 09 07 41 50 .25     -24    -46     39     53     65 208.1  39.7  33338  275.82 0865.14
2015 04 09 07 41 50 .51     -33    -53      8     63     64 212.5   8.0  33294  275.09 0865.14
2015 04 09 07 41 50 .76     -41    -63      3     76     77 213.4   2.9  33304  275.25 0865.14
2015 04 09 07 41 51 .01     -47    -55     30     73     78 220.5  23.0  33308  275.30 0865.14
2015 04 09 07 41 51 .26     -28    -52     15     60     62 208.1  14.3  33288  274.99 0865.14
2015 04 09 07 41 51 .51     -33    -53      7     63     64 211.6   7.1  33292  275.04 0865.14
2015 04 09 07 41 51 .76     -29    -61      4     68     69 205.4   3.8  33290  275.01 0865.14
2015 04 09 07 41 52 .01     -24    -54     -2     60     61 204.5  -2.2  33290  275.02 0865.14
2015 04 09 07 41 52 .26     -31    -48     11     58     60 212.5  11.1  33292  275.05 0865.13
2015 04 09 07 41 52 .51     -33    -53      8     63     64 212.5   8.0  33294  275.09 0865.13
2015 04 09 07 41 52 .76     -29    -45      2     54     55 212.6   2.8  33286  274.94 0865.13
2015 04 09 07 41 53 .02     -38    -46     -2     60     61 219.7  -2.2  33290  275.01 0865.13
2015 04 09 07 41 53 .28     -38    -46     -2     60     61 219.7  -2.2  33290  275.01 0865.13
2015 04 09 07 41 53 .52     -42    -46      6     63     64 222.3   5.9  33296  275.10 0865.13
2015 04 09 07 41 53 .77     -37    -44      6     58     59 219.6   5.9  33286  274.94 0865.13
2015 04 09 07 41 54 .03     -40    -48      8     63     64 219.6   8.0  33288  274.99 0865.13
2015 04 09 07 41 54 .28     -35    -43     22     56     60 219.7  23.0  33308  275.30 0865.13
2015 04 09 07 41 54 .52     -31    -41     17     52     55 217.0  18.9  33300  275.19 0865.13
2015 04 09 07 41 54 .78     -36    -52     18     64     67 214.3  16.3  33294  275.09 0865.13
2015 04 09 07 41 55 .03     -38    -46     11     60     62 219.6  11.1  33290  275.01 0865.13
2015 04 09 07 41 55 .28     -41    -40     16     58     61 225.9  15.3  33320  275.50 0865.13
2015 04 09 07 41 55 .53     -38    -40     15     56     59 223.2  15.3  33292  275.05 0865.13
2015 04 09 07 41 55 .78     -35    -42     19     55     59 219.6  19.4  33294  275.09 0865.13
2015 04 09 07 41 56 .03     -40    -41     16     58     61 224.1  15.3  33286  274.96 0865.13
2015 04 09 07 41 56 .29     -35    -39     15     53     56 221.4  16.3  33294  275.09 0865.13
2015 04 09 07 41 56 .53     -34    -41     15     54     57 219.6  15.3  33286  274.94 0865.13
2015 04 09 07 41 56 .78     -32    -45     16     56     59 215.2  16.3  33284  274.91 0865.13
2015 04 09 07 41 57 .03     -30    -39     21     50     54 217.0  23.0  33286  274.96 0865.13
2015 04 09 07 41 57 .28     -31    -41     17     52     55 217.0  18.9  33288  274.99 0865.13
2015 04 09 07 41 57 .53     -27    -35     24     45     51 217.0  30.3  33288  274.99 0865.13
2015 04 09 07 41 57 .78     -24    -38     19     46     49 212.5  23.0  33286  274.94 0865.13
2015 04 09 07 41 58 .03     -27    -39     15     48     51 215.2  17.3  33288  274.99 0865.13
2015 04 09 07 41 58 .29     -28    -31     14     43     46 222.3  18.4  33292  275.05 0865.13
2015 04 09 07 41 58 .53     -29    -42     11     52     54 215.2  12.2  33286  274.96 0865.13
2015 04 09 07 41 58 .79     -27    -39     15     48     51 215.2  17.3  33288  274.99 0865.13
2015 04 09 07 41 59 .04     -31    -41     17     52     55 217.0  18.9  33300  275.19 0865.13
2015 04 09 07 41 59 .29     -35    -35     21     50     54 225.0  23.0  33298  275.15 0865.13
2015 04 09 07 41 59 .54     -30    -34     12     46     48 222.3  15.3  33300  275.17 0865.13
2015 04 09 07 41 59 .79     -28    -37     15     47     50 217.8  18.4  33298  275.14 0865.13
2015 04 09 07 42 00 .05     -33    -38     10     51     52 220.5  11.1  33298  275.14 0865.13
2015 04 09 07 42 00 .30     -24    -38     20     46     50 212.5  26.2  33324  275.58 0865.13
2015 04 09 07 42 00 .55     -27    -30     14     41     44 222.3  18.9  33324  275.58 0865.13
2015 04 09 07 42 00 .80     -28    -37     15     47     50 217.8  18.4  33316  275.43 0865.13
2015 04 09 07 42 01 .05     -28    -35     15     45     48 218.7  18.9  33314  275.40 0865.13
2015 04 09 07 42 01 .30     -25    -45     14     52     54 209.9  15.3  33320  275.50 0865.14
2015 04 09 07 42 01 .55     -31    -44     16     54     57 215.2  17.3  33320  275.52 0865.14
2015 04 09 07 42 01 .80     -25    -40     16     48     51 212.5  19.2  33310  275.35 0865.14
2015 04 09 07 42 02 .05     -20    -38     17     44     47 208.1  21.0  33316  275.45 0865.14
2015 04 09 07 42 02 .30     -23    -43     22     49     53 208.1  25.1  33320  275.52 0865.14
2015 04 09 07 42 02 .56     -31    -41     17     52     55 217.0  18.9  33318  275.48 0865.14
2015 04 09 07 42 02 .80     -30    -39     21     50     54 217.0  23.0  33310  275.35 0865.14
2015 04 09 07 42 03 .06     -33    -54     31     64     71 211.6  27.3  33338  275.82 0865.14
2015 04 09 07 42 03 .30     -31    -49      5     59     60 212.5   4.9  33324  275.58 0865.14
2015 04 09 07 42 03 .56     -23    -48     15     54     57 205.3  15.3  33322  275.53 0865.14
2015 04 09 07 42 03 .81     -33    -38     -2     51     52 220.5  -2.2  33304  275.24 0865.14
2015 04 09 07 42 04 .07     -32    -46     -9     57     58 215.2  -9.3  33316  275.45 0865.14
2015 04 09 07 42 04 .31     -23    -35     35     42     54 213.4  43.8  33344  275.91 0865.14
2015 04 09 07 42 04 .56     -34    -54     22     65     69 212.5  19.4  33336  275.77 0865.14
2015 04 09 07 42 04 .81     -42    -60     29     74     79 215.2  22.0  33324  275.57 0865.14
2015 04 09 07 42 05 .06     -38    -59     19     71     74 212.5  15.2  33294  275.09 0865.14
2015 04 09 07 42 05 .31     -35    -64     14     74     76 208.9  11.0  33300  275.17 0865.14
2015 04 09 07 42 05 .56     -27    -69      5     75     76 201.9   3.8  33298  275.15 0865.14
2015 04 09 07 42 05 .81     -26    -58      2     64     65 204.5   1.8  33296  275.12 0865.14
2015 04 09 07 42 06 .07     -25    -54     -7     60     61 205.3  -7.3  33312  275.39 0865.14
2015 04 09 07 42 06 .31     -22    -35     -4     42     43 212.5  -6.2  33310  275.35 0865.14
2015 04 09 07 42 06 .56     -11    -35    -15     37     39 198.7 -28.5  33290  275.01 0865.14
2015 04 09 07 42 06 .81     -23    -50    -13     56     58 205.3 -13.4  33288  274.99 0865.14
2015 04 09 07 42 07 .07     -14    -49    -14     52     53 196.0 -20.7  33288  274.99 0865.14
2015 04 09 07 42 07 .32     -15    -39    -11     43     45 201.8 -14.5  33292  275.04 0865.14
2015 04 09 07 42 07 .57     -17    -42    -15     46     49 202.7 -18.7  33290  275.01 0865.14
2015 04 09 07 42 07 .82     -20    -38     -8     44     45 208.1 -11.3  33284  274.92 0865.14
2015 04 09 07 42 08 .08     -17    -42    -15     46     49 202.7 -18.7  33284  274.91 0865.14
2015 04 09 07 42 08 .33     -13    -42    -10     45     47 197.8 -13.4  33278  274.81 0865.14
2015 04 09 07 42 08 .58     -13    -41     -8     44     45 198.5 -11.3  33286  274.96 0865.14
2015 04 09 07 42 08 .83     -20    -38     -8     44     45 208.1 -11.3  33286  274.96 0865.14
2015 04 09 07 42 09 .08     -23    -35    -13     42     45 213.4 -17.6  33280  274.84 0865.14
2015 04 09 07 42 09 .33     -21    -47     -9     52     53 204.5 -10.3  33280  274.86 0865.15
2015 04 09 07 42 09 .58     -25    -40     -7     48     49 212.6  -9.3  33276  274.79 0865.15
2015 04 09 07 42 09 .83     -25    -39     -6     47     48 212.6  -7.3  33276  274.79 0865.15
2015 04 09 07 42 10 .08     -24    -38    -16     46     49 212.5 -19.7  33280  274.86 0865.15
2015 04 09 07 42 10 .34     -17    -36     -7     40     41 205.5 -10.3  33290  275.02 0865.15
2015 04 09 07 42 10 .58     -26    -41     -1     49     50 212.5  -2.2  33288  274.99 0865.15
2015 04 09 07 42 10 .83     -24    -38    -16     46     49 212.5 -19.7  33280  274.86 0865.15
2015 04 09 07 42 11 .08     -22    -42    -12     48     50 208.1 -14.5  33280  274.84 0865.15
2015 04 09 07 42 11 .33     -24    -38    -16     46     49 212.5 -19.7  33280  274.86 0865.15
2015 04 09 07 42 11 .58     -20    -38     -8     44     45 208.1 -11.3  33284  274.92 0865.15
2015 04 09 07 42 11 .83     -20    -38     -8     44     45 208.1 -11.3  33286  274.96 0865.15
2015 04 09 07 42 12 .09     -20    -38     -8     44     45 208.1 -11.3  33286  274.96 0865.15
2015 04 09 07 42 12 .34     -22    -41     -5     47     48 208.1  -6.2  33286  274.96 0865.15
2015 04 09 07 42 12 .59     -17    -42     -1     46     47 202.7  -2.2  33292  275.05 0865.15
2015 04 09 07 42 12 .84     -26    -42     -2     50     51 212.5  -3.1  33292  275.04 0865.15
2015 04 09 07 42 13 .09     -21    -46     -2     51     52 205.3  -2.2  33294  275.09 0865.15
2015 04 09 07 42 13 .34     -24    -45     -2     52     53 208.1  -2.2  33290  275.02 0865.15
2015 04 09 07 42 13 .59     -24    -54     -2     60     61 204.5  -2.2  33290  275.02 0865.15
2015 04 09 07 42 13 .84     -24    -54     -2     60     61 204.5  -2.2  33290  275.02 0865.15
2015 04 09 07 42 14 .10     -21    -46     -2     51     52 205.3  -2.2  33294  275.09 0865.15
2015 04 09 07 42 14 .35     -28    -49      2     57     58 209.9   2.9  33290  275.01 0865.15
2015 04 09 07 42 14 .60     -23    -57      7     62     63 201.9   6.9  33286  274.96 0865.15
2015 04 09 07 42 14 .85     -22    -58      0     63     64 200.9  -0.3  33282  274.89 0865.15
2015 04 09 07 42 15 .10     -24    -54      5     60     61 204.5   4.9  33288  274.99 0865.15
2015 04 09 07 42 15 .35     -32    -57      4     66     67 209.0   3.8  33282  274.89 0865.15
2015 04 09 07 42 15 .60     -31    -49      5     59     60 212.5   4.9  33286  274.94 0865.14
2015 04 09 07 42 15 .85     -26    -49     11     56     58 208.1  11.0  33282  274.89 0865.14
2015 04 09 07 42 16 .10     -26    -49     11     56     58 208.1  11.0  33282  274.89 0865.14
2015 04 09 07 42 16 .36     -26    -49     11     56     58 208.1  11.0  33282  274.89 0865.14
2015 04 09 07 42 16 .61     -26    -50      2     57     58 208.1   2.9  33286  274.96 0865.14
2015 04 09 07 42 16 .86     -22    -47      0     53     54 205.3   0.8  33310  275.34 0865.14
2015 04 09 07 42 17 .11     -23    -58      0     63     64 201.9   0.8  33320  275.52 0865.14
2015 04 09 07 42 17 .36     -17    -58      5     61     62 196.9   4.9  33328  275.63 0865.14
2015 04 09 07 42 17 .62     -17    -50     -2     53     54 199.2  -2.2  33334  275.75 0865.14
2015 04 09 07 42 17 .86     -12    -37      4     40     41 198.7   6.9  33346  275.93 0865.14
2015 04 09 07 42 18 .11     -33    -53      8     63     64 212.5   8.0  33298  275.14 0865.14
2015 04 09 07 42 18 .36     -31    -61      9     69     70 207.2   8.0  33292  275.04 0865.14
2015 04 09 07 42 18 .61     -31    -65     18     73     76 205.4  14.3  33292  275.04 0865.14
2015 04 09 07 42 18 .86     -38    -59     12     71     73 212.5  10.1  33290  275.02 0865.14
2015 04 09 07 42 19 .11     -45    -54      8     71     72 219.7   7.1  33292  275.04 0865.14
2015 04 09 07 42 19 .36     -43    -67     11     80     81 212.6   8.5  33292  275.05 0865.14
2015 04 09 07 42 19 .61     -41    -68     13     80     82 211.6   9.5  33294  275.09 0865.14
2015 04 09 07 42 19 .87     -42    -66     11     79     80 212.6   8.0  33296  275.10 0865.14
2015 04 09 07 42 20 .11     -44    -72     11     85     86 211.2   8.0  33298  275.15 0865.14
2015 04 09 07 42 20 .37     -35    -72     13     81     83 206.3   9.5  33298  275.14 0865.14
2015 04 09 07 42 20 .62     -40    -72      8     83     84 209.0   5.9  33310  275.34 0865.14
2015 04 09 07 42 20 .88     -35    -72     13     81     83 206.3   9.5  33312  275.39 0865.14
2015 04 09 07 42 21 .13     -36    -57     -6     68     69 212.5  -5.2  33304  275.25 0865.14
2015 04 09 07 42 21 .38     -32    -59     -2     68     69 209.0  -2.2  33312  275.37 0865.14
2015 04 09 07 42 21 .64     -23    -58     -5     63     64 201.8  -5.2  33362  276.21 0865.14
2015 04 09 07 42 21 .88     -12    -61     12     63     65 191.5  11.1  33386  276.61 0865.15
2015 04 09 07 42 22 .13     -10    -52      4     54     55 191.6   4.9  33354  276.08 0865.15
2015 04 09 07 42 22 .38     -11    -60      3     62     63 190.7   2.9  33358  276.13 0865.15
2015 04 09 07 42 22 .63     -15    -48     11     51     53 197.8  12.2  33364  276.23 0865.15
2015 04 09 07 42 22 .89      -3    -40     13     41     44 185.3  18.4  33356  276.10 0865.15
2015 04 09 07 42 23 .13       4    -50     18     51     55 174.7  19.2  33342  275.88 0865.15
2015 04 09 07 42 23 .38      -5    -49     12     50     52 186.2  14.3  33326  275.60 0865.15
2015 04 09 07 42 23 .64       0    -52     17     53     56 180.0  18.4  33342  275.86 0865.15
2015 04 09 07 42 23 .88     -32    -43     32     54     62 217.0  33.5  33340  275.83 0865.15
2015 04 09 07 42 24 .13     -41    -60     14     73     75 214.3  11.1  33292  275.04 0865.15
2015 04 09 07 42 24 .38     -47    -60      2     77     78 217.8   1.8  33296  275.10 0865.15
2015 04 09 07 42 24 .64     -16    -62     -5     65     66 195.1  -5.2  33350  276.01 0865.15
2015 04 09 07 42 24 .89     -24    -62     -2     67     68 201.8  -2.2  33326  275.60 0865.15
2015 04 09 07 42 25 .14      -9    -49      8     50     51 190.7  10.1  33350  276.00 0865.15
2015 04 09 07 42 25 .38     -13    -56     16     58     61 193.4  15.3  33320  275.50 0865.15
2015 04 09 07 42 25 .65     -33    -70      2     78     79 205.4   1.8  33322  275.55 0865.15
2015 04 09 07 42 25 .89     -33    -60      8     69     70 208.9   6.9  33294  275.09 0865.15
2015 04 09 07 42 26 .14     -34    -62      2     71     72 208.9   1.8  33290  275.01 0865.15
2015 04 09 07 42 26 .39     -32    -59      3     68     69 209.0   2.9  33292  275.04 0865.14
2015 04 09 07 42 26 .64     -36    -50     -1     62     63 216.1  -1.3  33292  275.04 0865.14
2015 04 09 07 42 26 .89     -31    -56     -2     65     66 208.9  -2.2  33296  275.10 0865.14
2015 04 09 07 42 27 .14     -41    -65      2     78     79 212.5   1.8  33292  275.05 0865.14
2015 04 09 07 42 27 .39     -42    -54     -5     69     70 217.8  -4.1  33300  275.17 0865.14
2015 04 09 07 42 27 .64     -28    -53     -4     61     62 208.1  -4.1  33296  275.10 0865.14
2015 04 09 07 42 27 .90     -36    -57     -1     68     69 212.5  -1.2  33306  275.29 0865.14
2015 04 09 07 42 28 .15     -31    -66     11     74     75 205.5   9.0  33302  275.20 0865.14
2015 04 09 07 42 28 .40     -26    -64      8     70     71 201.8   7.1  33300  275.19 0865.14
2015 04 09 07 42 28 .66     -27    -69     -5     75     76 201.9  -4.1  33308  275.30 0865.14
2015 04 09 07 42 28 .91     -30    -77      4     83     84 201.4   3.3  33312  275.37 0865.14
2015 04 09 07 42 29 .16     -40    -72     15     83     85 209.0  10.6  33304  275.25 0865.14
2015 04 09 07 42 29 .41     -33    -69     15     77     79 205.4  11.6  33316  275.45 0865.14
2015 04 09 07 42 29 .66     -35    -64     14     74     76 208.9  11.0  33310  275.34 0865.14
2015 04 09 07 42 29 .91     -31    -49     -2     59     60 212.5  -2.2  33308  275.30 0865.14
2015 04 09 07 42 30 .16     -26    -45     -6     53     54 209.9  -7.2  33312  275.37 0865.14
2015 04 09 07 42 30 .41      -6    -52      2     53     54 187.1   2.9  33354  276.06 0865.14
2015 04 09 07 42 30 .66     -24    -63      3     68     69 200.9   2.9  33314  275.40 0865.14
2015 04 09 07 42 30 .92     -26    -58     -2     64     65 204.5  -2.2  33328  275.63 0865.14
2015 04 09 07 42 31 .16     -17    -53      1     56     57 197.8   1.8  33360  276.18 0865.14
2015 04 09 07 42 31 .41     -29    -54     20     62     66 208.9  18.4  33334  275.73 0865.14
2015 04 09 07 42 31 .67     -20    -68      1     72     73 196.9   0.8  33352  276.05 0865.14
2015 04 09 07 42 31 .92       0    -55     11     56     58 180.9  11.0  33348  275.96 0865.14
2015 04 09 07 42 32 .16     -10    -51     13     53     55 191.6  14.3  33350  276.00 0865.14
2015 04 09 07 42 32 .42     -14    -42     15     45     48 198.3  18.9  33374  276.41 0865.14
2015 04 09 07 42 32 .66     -18    -59     26     62     67 197.8  23.1  33398  276.81 0865.14
2015 04 09 07 42 32 .91     -27    -58      8     65     66 205.4   7.1  33294  275.09 0865.14
2015 04 09 07 42 33 .16     -28    -62      7     69     70 204.5   5.9  33280  274.86 0865.14
2015 04 09 07 42 33 .41     -30    -64      3     72     73 205.5   2.9  33282  274.89 0865.14
2015 04 09 07 42 33 .66     -27    -69      5     75     76 201.9   3.8  33280  274.86 0865.14
2015 04 09 07 42 33 .92     -32    -73      4     80     81 203.6   3.3  33282  274.89 0865.14
2015 04 09 07 42 34 .17     -24    -73      9     77     78 198.3   6.9  33286  274.94 0865.14
2015 04 09 07 42 34 .42     -22    -69     11     73     74 198.3   9.0  33284  274.92 0865.13
2015 04 09 07 42 34 .67     -35    -64     14     74     76 208.9  11.0  33282  274.87 0865.13
2015 04 09 07 42 34 .93     -26    -64      8     70     71 201.8   7.1  33282  274.89 0865.13
2015 04 09 07 42 35 .19     -16    -61      7     64     65 195.2   6.9  33334  275.75 0865.13
2015 04 09 07 42 35 .43     -37    -68     19     78     81 208.9  13.7  33322  275.53 0865.13
2015 04 09 07 42 35 .68     -22    -68     -2     72     73 198.3  -2.2  33308  275.32 0865.13
2015 04 09 07 42 35 .93      -2    -61      7     62     63 182.7   6.9  33316  275.45 0865.13
2015 04 09 07 42 36 .18     -25    -76     11     81     82 198.7   8.0  33300  275.17 0865.13
2015 04 09 07 42 36 .43     -47    -84      8     97     98 209.0   4.9  33292  275.04 0865.13
2015 04 09 07 42 36 .68     -36    -77      4     86     87 205.4   2.9  33306  275.29 0865.13
2015 04 09 07 42 36 .94     -31    -81     -3     87     88 200.9  -2.2  33304  275.25 0865.13
2015 04 09 07 42 37 .18     -15    -74      1     76     77 191.6   0.8  33296  275.12 0865.13
2015 04 09 07 42 37 .43     -18    -65     -8     68     69 196.0  -7.2  33282  274.89 0865.13
2015 04 09 07 42 37 .68     -12    -60    -17     62     65 191.6 -15.4  33280  274.86 0865.13
2015 04 09 07 42 37 .94     -24    -61     -8     66     67 201.8  -7.3  33282  274.89 0865.13
2015 04 09 07 42 38 .19     -24    -62     -8     67     68 201.8  -7.2  33286  274.94 0865.14
2015 04 09 07 42 38 .44     -26    -58     -3     64     65 204.5  -3.1  33288  274.99 0865.14
2015 04 09 07 42 38 .69     -22    -58     -5     63     64 200.9  -5.2  33286  274.96 0865.14
2015 04 09 07 42 38 .94     -21    -62     -9     66     67 198.7  -8.2  33290  275.01 0865.14
2015 04 09 07 42 39 .19     -24    -54     -7     60     61 204.5  -7.3  33288  274.99 0865.14
2015 04 09 07 42 39 .44     -24    -62     -2     67     68 201.8  -2.2  33290  275.01 0865.14
2015 04 09 07 42 39 .69     -26    -58     -3     64     65 204.5  -3.1  33288  274.99 0865.14
2015 04 09 07 42 39 .94     -34    -62     -2     71     72 208.9  -2.2  33286  274.94 0865.14
2015 04 09 07 42 40 .20     -37    -76     -3     85     86 206.3  -2.2  33340  275.85 0865.14
2015 04 09 07 42 40 .44     -19    -67     11     70     71 196.0   9.0  33308  275.32 0865.14
2015 04 09 07 42 40 .69     -14    -58     10     60     61 194.3  10.1  33292  275.04 0865.14
2015 04 09 07 42 40 .94     -23    -57      7     62     63 201.9   6.9  33286  274.96 0865.14
2015 04 09 07 42 41 .20     -20    -68      1     72     73 196.9   0.8  33284  274.91 0865.14
2015 04 09 07 42 41 .45     -20    -61      3     65     66 198.5   2.8  33284  274.91 0865.14
2015 04 09 07 42 41 .70     -24    -54     -2     60     61 204.5  -2.2  33284  274.91 0865.14
2015 04 09 07 42 41 .95     -23    -50     -6     56     57 205.3  -6.2  33294  275.07 0865.14
2015 04 09 07 42 42 .21     -24    -54     -2     60     61 204.5  -2.2  33290  275.02 0865.14
2015 04 09 07 42 42 .46     -28    -62     -5     69     70 204.5  -4.1  33288  274.97 0865.14
2015 04 09 07 42 42 .71     -24    -73     -4     77     78 198.3  -3.1  33288  274.99 0865.14
2015 04 09 07 42 42 .96     -29    -61      4     68     69 205.4   3.8  33308  275.30 0865.14
2015 04 09 07 42 43 .21     -32    -68      3     76     77 205.5   2.8  33286  274.96 0865.14
2015 04 09 07 42 43 .46     -26    -64      8     70     71 201.8   7.1  33282  274.89 0865.14
2015 04 09 07 42 43 .71     -24    -62      3     67     68 201.8   2.9  33280  274.84 0865.14
2015 04 09 07 42 43 .96     -26    -50      2     57     58 208.1   2.9  33286  274.96 0865.14
2015 04 09 07 42 44 .21     -19    -46      2     50     51 202.7   2.8  33292  275.05 0865.14
2015 04 09 07 42 44 .46     -19    -46     -1     50     51 202.7  -2.2  33292  275.04 0865.14
2015 04 09 07 42 44 .71     -23    -58      6     63     64 201.8   5.9  33284  274.91 0865.14
2015 04 09 07 42 44 .96     -30    -56     12     64     66 208.9  11.0  33286  274.96 0865.14
2015 04 09 07 42 45 .21     -33    -60      8     69     70 208.9   6.9  33286  274.94 0865.14
2015 04 09 07 42 45 .46     -39    -61      3     73     74 212.5   2.9  33288  274.99 0865.14
2015 04 09 07 42 45 .71     -29    -61      4     68     69 205.4   3.8  33286  274.96 0865.14
2015 04 09 07 42 45 .96     -33    -60      8     69     70 208.9   6.9  33286  274.94 0865.14
2015 04 09 07 42 46 .21     -36    -50     -1     62     63 216.1  -1.3  33292  275.04 0865.14
2015 04 09 07 42 46 .47     -31    -49     -7     59     60 212.6  -7.2  33294  275.07 0865.14
2015 04 09 07 42 46 .72     -33    -53     -3     63     64 211.6  -3.1  33294  275.09 0865.14
2015 04 09 07 42 46 .97     -28    -53      7     61     62 208.1   6.9  33290  275.01 0865.14
2015 04 09 07 42 47 .22     -24    -54     -2     60     61 204.5  -2.2  33290  275.02 0865.15
2015 04 09 07 42 47 .47     -23    -50      0     56     57 205.3  -0.3  33298  275.14 0865.15
2015 04 09 07 42 47 .72     -26    -50      2     57     58 208.1   2.8  33296  275.10 0865.15
2015 04 09 07 42 47 .97     -39    -54      3     67     68 216.0   2.9  33294  275.09 0865.15
2015 04 09 07 42 48 .22     -39    -58      2     71     72 214.3   1.8  33286  274.96 0865.15
2015 04 09 07 42 48 .47     -33    -60      8     69     70 208.9   6.9  33286  274.94 0865.15
2015 04 09 07 42 48 .73     -41    -65      7     78     79 212.5   5.4  33288  274.99 0865.15
2015 04 09 07 42 48 .98     -43    -67      4     80     81 212.6   3.3  33292  275.04 0865.14
2015 04 09 07 42 49 .23     -41    -63      3     76     77 213.4   2.9  33290  275.01 0865.14
2015 04 09 07 42 49 .49     -36    -57     -1     68     69 212.5  -1.2  33298  275.14 0865.14
2015 04 09 07 42 49 .73     -34    -53      2     64     65 212.5   1.8  33298  275.15 0865.14
2015 04 09 07 42 49 .99     -26    -58      2     64     65 204.5   1.8  33292  275.05 0865.14
2015 04 09 07 42 50 .23     -37    -76     11     85     86 206.3   8.0  33308  275.30 0865.14
2015 04 09 07 42 50 .48     -37    -54      4     66     67 214.3   3.8  33304  275.24 0865.14
2015 04 09 07 42 50 .73     -42    -68      5     81     82 211.6   3.8  33290  275.01 0865.14
2015 04 09 07 42 50 .99     -36    -73      6     82     83 206.3   4.4  33292  275.05 0865.14
2015 04 09 07 42 51 .23     -36    -57     -1     68     69 212.5  -1.2  33294  275.09 0865.14
2015 04 09 07 42 51 .49     -39    -61      3     73     74 212.5   2.9  33292  275.04 0865.14
2015 04 09 07 42 51 .74     -34    -62      2     71     72 208.9   1.8  33290  275.01 0865.14
2015 04 09 07 42 51 .99     -32    -57      4     66     67 209.0   3.8  33292  275.04 0865.14
2015 04 09 07 42 52 .24     -34    -53      2     64     65 212.5   1.8  33298  275.15 0865.14
2015 04 09 07 42 52 .49     -36    -57     -1     68     69 212.5  -1.2  33294  275.09 0865.14
2015 04 09 07 42 52 .74     -34    -62      2     71     72 208.9   1.8  33290  275.01 0865.14
2015 04 09 07 42 52 .99     -26    -56     -3     63     64 205.3  -3.1  33298  275.14 0865.14
2015 04 09 07 42 53 .24     -26    -50     -2     57     58 208.1  -2.2  33292  275.04 0865.14
2015 04 09 07 42 53 .49     -22    -58      0     63     64 200.9  -0.3  33292  275.04 0865.14
2015 04 09 07 42 53 .74     -26    -50     -2     57     58 208.1  -2.2  33292  275.04 0865.14
2015 04 09 07 42 53 .99     -24    -54     -2     60     61 204.5  -2.2  33294  275.07 0865.14
2015 04 09 07 42 54 .24     -19    -46     -1     50     51 202.7  -2.2  33292  275.04 0865.14
2015 04 09 07 42 54 .49     -24    -54     -2     60     61 204.5  -2.2  33290  275.02 0865.14
2015 04 09 07 42 54 .74     -24    -54     -2     60     61 204.5  -2.2  33290  275.02 0865.14
2015 04 09 07 42 54 .99     -19    -54      2     58     59 199.2   2.9  33290  275.01 0865.14
2015 04 09 07 42 55 .24     -24    -54     -2     60     61 204.5  -2.2  33294  275.07 0865.15
2015 04 09 07 42 55 .50     -26    -58      2     64     65 204.5   1.8  33292  275.05 0865.15
2015 04 09 07 42 55 .75     -27    -58      3     65     66 205.4   2.8  33290  275.01 0865.15
2015 04 09 07 42 56 .01     -26    -58      2     64     65 204.5   1.8  33292  275.05 0865.15
2015 04 09 07 42 56 .26     -26    -58      2     64     65 204.5   1.8  33292  275.05 0865.15
2015 04 09 07 42 56 .51     -28    -53     -1     61     62 208.1  -1.2  33292  275.04 0865.15
2015 04 09 07 42 56 .76     -26    -58     -3     64     65 204.5  -3.1  33288  274.99 0865.15
2015 04 09 07 42 57 .01     -28    -53     -1     61     62 208.1  -1.2  33294  275.09 0865.15
2015 04 09 07 42 57 .26     -29    -45     -6     54     55 212.6  -7.2  33290  275.02 0865.15
2015 04 09 07 42 57 .51     -26    -50      2     57     58 208.1   2.9  33286  274.96 0865.15
2015 04 09 07 42 57 .76     -30    -54      0     62     63 209.0   0.8  33286  274.94 0865.15
2015 04 09 07 42 58 .01     -32    -57     -2     66     67 209.0  -2.2  33286  274.96 0865.15
2015 04 09 07 42 58 .26     -31    -49      5     59     60 212.5   4.9  33288  274.99 0865.15
2015 04 09 07 42 58 .51     -32    -57      4     66     67 209.0   3.8  33282  274.89 0865.15
2015 04 09 07 42 58 .76     -33    -53      3     63     64 211.6   2.8  33290  275.01 0865.15
2015 04 09 07 42 59 .01     -31    -49     -2     59     60 212.5  -2.2  33294  275.07 0865.15
2015 04 09 07 42 59 .26     -31    -49     -2     59     60 212.5  -2.2  33294  275.07 0865.15
2015 04 09 07 42 59 .52     -33    -53     -3     63     64 211.6  -3.1  33288  274.99 0865.15
2015 04 09 07 42 59 .76     -31    -49     -2     59     60 212.5  -2.2  33294  275.07 0865.15
2015 04 09 07 43 00 .01     -31    -49      5     59     60 212.5   4.9  33288  274.99 0865.15
2015 04 09 07 43 00 .27     -36    -50     -1     62     63 216.1  -1.3  33292  275.04 0865.15
2015 04 09 07 43 00 .52     -29    -45      0     54     55 212.5  -0.3  33292  275.04 0865.15
2015 04 09 07 43 00 .77     -31    -49      5     59     60 212.5   4.9  33288  274.99 0865.15
2015 04 09 07 43 01 .02     -33    -53      3     63     64 211.6   2.8  33284  274.91 0865.15
2015 04 09 07 43 01 .27     -30    -54      0     62     63 209.0   0.8  33288  274.99 0865.15
2015 04 09 07 43 01 .52     -26    -50      2     57     58 208.1   2.9  33286  274.96 0865.14
2015 04 09 07 43 01 .77     -30    -54      0     62     63 209.0   0.8  33286  274.94 0865.14
2015 04 09 07 43 02 .02     -26    -58     -2     64     65 204.5  -2.2  33292  275.04 0865.14
2015 04 09 07 43 02 .27     -32    -50     -8     60     61 212.5  -8.2  33288  274.99 0865.14
2015 04 09 07 43 02 .52     -24    -54     -2     60     61 204.5  -2.2  33290  275.02 0865.14
2015 04 09 07 43 02 .78     -32    -45     -3     56     57 215.2  -3.1  33292  275.04 0865.14
2015 04 09 07 43 03 .03     -39    -55     -8     68     69 216.0  -7.2  33288  274.99 0865.14
2015 04 09 07 43 03 .28     -36    -50    -12     62     64 216.1 -11.3  33282  274.89 0865.14
2015 04 09 07 43 03 .53     -41    -50    -10     65     66 219.6  -9.3  33282  274.87 0865.14
2015 04 09 07 43 03 .78     -36    -50    -12     62     64 216.1 -11.3  33282  274.89 0865.14
2015 04 09 07 43 04 .03     -36    -50    -12     62     64 216.1 -11.3  33282  274.89 0865.14
2015 04 09 07 43 04 .29     -32    -50     -8     60     61 212.5  -8.2  33288  274.99 0865.14
2015 04 09 07 43 04 .53     -26    -50     -2     57     58 208.1  -2.2  33292  275.04 0865.14
2015 04 09 07 43 04 .79     -38    -46     -7     61     62 219.6  -7.2  33286  274.94 0865.14
2015 04 09 07 43 05 .04     -32    -50     -8     60     61 212.5  -8.2  33286  274.94 0865.14
2015 04 09 07 43 05 .29     -31    -41    -14     52     55 217.8 -15.5  33278  274.81 0865.14
2015 04 09 07 43 05 .54     -42    -50    -18     66     69 219.6 -15.5  33280  274.84 0865.14
2015 04 09 07 43 05 .79     -45    -49    -17     67     70 222.3 -14.5  33278  274.81 0865.14
2015 04 09 07 43 06 .04     -50    -48    -14     70     72 225.9 -11.3  33280  274.84 0865.14
2015 04 09 07 43 06 .29     -48    -48    -20     68     72 225.0 -16.6  33278  274.81 0865.14
2015 04 09 07 43 06 .54     -45    -55    -19     72     75 219.7 -15.4  33280  274.84 0865.14
2015 04 09 07 43 06 .79     -48    -48    -20     68     72 225.0 -16.6  33278  274.81 0865.14
2015 04 09 07 43 07 .04     -56    -46    -20     73     76 230.4 -15.5  33280  274.86 0865.14
2015 04 09 07 43 07 .29     -50    -53    -15     74     76 223.3 -11.5  33280  274.86 0865.14
2015 04 09 07 43 07 .54     -50    -53     -9     74     75 223.3  -7.2  33280  274.84 0865.14
2015 04 09 07 43 07 .79     -44    -57     -9     73     74 217.8  -7.2  33288  274.99 0865.14
2015 04 09 07 43 08 .04     -54    -57    -11     79     80 223.2  -8.2  33284  274.91 0865.14
2015 04 09 07 43 08 .29     -57    -57     -8     82     83 225.0  -5.6  33282  274.89 0865.14
2015 04 09 07 43 08 .55     -47    -57     -5     75     76 219.7  -4.1  33286  274.96 0865.14
2015 04 09 07 43 08 .79     -47    -57     -5     75     76 219.7  -4.1  33286  274.96 0865.14
2015 04 09 07 43 09 .04     -51    -61     -3     80     81 219.6  -2.2  33284  274.91 0865.14
2015 04 09 07 43 09 .30     -55    -61      0     83     84 222.3  -0.3  33286  274.94 0865.14
2015 04 09 07 43 09 .56     -51    -61     -3     80     81 219.6  -2.2  33286  274.96 0865.14
2015 04 09 07 43 09 .81     -41    -63     -1     76     77 213.4  -1.2  33288  274.99 0865.14
2015 04 09 07 43 10 .06     -41    -64     -3     77     78 212.5  -2.2  33288  274.99 0865.14
2015 04 09 07 43 10 .31     -45    -73     -3     86     87 211.6  -2.2  33290  275.02 0865.14
2015 04 09 07 43 10 .56     -45    -62      3     77     78 216.1   2.8  33290  275.01 0865.14
2015 04 09 07 43 10 .81     -39    -61     -2     73     74 212.5  -2.2  33290  275.01 0865.14
2015 04 09 07 43 11 .06     -38    -53     -2     66     67 215.2  -2.2  33286  274.96 0865.14
2015 04 09 07 43 11 .31     -36    -57    -13     68     70 212.5 -11.3  33288  274.99 0865.14
2015 04 09 07 43 11 .56     -39    -58     -3     71     72 214.3  -3.1  33286  274.94 0865.14
2015 04 09 07 43 11 .82     -42    -54    -12     69     71 217.8 -10.3  33286  274.94 0865.14
2015 04 09 07 43 12 .06     -38    -60    -15     72     74 212.5 -12.4  33284  274.91 0865.14
2015 04 09 07 43 12 .32     -28    -53     -1     61     62 208.1  -1.2  33292  275.04 0865.15
2015 04 09 07 43 12 .56     -42    -54     -5     69     70 217.8  -4.1  33290  275.01 0865.15
2015 04 09 07 43 12 .82     -42    -54     -5     69     70 217.8  -4.1  33290  275.01 0865.15
2015 04 09 07 43 13 .06     -34    -54    -10     65     66 212.5  -9.3  33290  275.01 0865.15
2015 04 09 07 43 13 .32     -33    -53     -3     63     64 211.6  -3.1  33294  275.09 0865.15
2015 04 09 07 43 13 .57     -44    -57     -9     73     74 217.8  -7.2  33288  274.99 0865.15
2015 04 09 07 43 13 .82     -34    -62     -9     71     72 208.9  -7.3  33286  274.96 0865.15
2015 04 09 07 43 14 .07     -41    -50     -3     65     66 219.6  -3.1  33288  274.99 0865.15
2015 04 09 07 43 14 .32     -42    -54    -12     69     71 217.8 -10.3  33286  274.94 0865.15
2015 04 09 07 43 14 .57     -41    -57     -9     71     72 216.0  -7.3  33286  274.96 0865.15
2015 04 09 07 43 14 .82     -41    -50     -3     65     66 219.6  -3.1  33304  275.24 0865.15
2015 04 09 07 43 15 .07     -36    -50     -5     62     63 216.1  -5.2  33286  274.96 0865.15
2015 04 09 07 43 15 .32     -33    -47    -11     58     60 215.2 -11.3  33284  274.91 0865.15
2015 04 09 07 43 15 .57     -41    -50     -8     65     66 219.6  -7.3  33284  274.92 0865.15
2015 04 09 07 43 15 .82     -40    -40    -10     57     58 225.0 -10.3  33278  274.81 0865.15
2015 04 09 07 43 16 .07     -42    -45    -12     62     64 223.2 -11.5  33280  274.84 0865.15
2015 04 09 07 43 16 .32     -42    -45    -12     62     64 223.2 -11.5  33280  274.84 0865.15
2015 04 09 07 43 16 .58     -38    -46    -16     60     63 219.7 -15.4  33280  274.86 0865.15
2015 04 09 07 43 16 .83     -38    -46    -16     60     63 219.7 -15.4  33280  274.86 0865.15
2015 04 09 07 43 17 .08     -38    -46    -16     60     63 219.7 -15.4  33280  274.86 0865.15
2015 04 09 07 43 17 .33     -38    -46    -16     60     63 219.7 -15.4  33280  274.86 0865.15
2015 04 09 07 43 17 .59     -38    -46    -16     60     63 219.7 -15.4  33280  274.86 0865.15
2015 04 09 07 43 17 .84     -44    -44    -22     63     67 225.1 -19.7  33282  274.89 0865.15
2015 04 09 07 43 18 .09     -36    -50    -12     62     64 216.1 -11.3  33306  275.27 0865.15
2015 04 09 07 43 18 .34     -31    -42     -2     53     54 217.0  -2.2  33310  275.35 0865.15
2015 04 09 07 43 18 .59     -35    -42     -6     55     56 219.6  -6.2  33302  275.22 0865.15
2015 04 09 07 43 18 .85     -39    -54    -13     67     69 216.1 -11.3  33314  275.40 0865.15
2015 04 09 07 43 19 .09     -33    -47     -2     58     59 215.2  -2.2  33336  275.78 0865.15
2015 04 09 07 43 19 .34     -42    -46     -5     63     64 222.3  -5.2  33296  275.10 0865.15
2015 04 09 07 43 19 .59     -33    -47    -11     58     60 215.2 -11.3  33288  274.97 0865.15
2015 04 09 07 43 19 .84     -32    -45     -3     56     57 215.2  -3.1  33292  275.04 0865.15
2015 04 09 07 43 20 .09     -23    -46     -2     52     53 207.2  -2.2  33296  275.10 0865.15
2015 04 09 07 43 20 .34     -24    -50     -2     56     57 206.3  -2.2  33296  275.12 0865.15
2015 04 09 07 43 20 .59     -26    -50     -2     57     58 208.1  -2.2  33298  275.14 0865.15
2015 04 09 07 43 20 .84     -21    -55     -3     59     60 200.9  -3.1  33294  275.09 0865.15
2015 04 09 07 43 21 .09     -24    -54     -2     60     61 204.5  -2.2  33298  275.15 0865.15
2015 04 09 07 43 21 .34     -24    -54     -2     60     61 204.5  -2.2  33294  275.07 0865.15
2015 04 09 07 43 21 .60     -28    -53     -1     61     62 208.1  -1.2  33298  275.14 0865.15
2015 04 09 07 43 21 .85     -21    -55     -3     59     60 200.9  -3.1  33294  275.09 0865.15
2015 04 09 07 43 22 .10     -14    -49     -2     51     52 196.0  -2.2  33298  275.14 0865.15
2015 04 09 07 43 22 .35     -17    -58     -2     61     62 196.9  -2.2  33290  275.01 0865.15
2015 04 09 07 43 22 .60     -24    -54     -2     60     61 204.5  -2.2  33294  275.07 0865.15
2015 04 09 07 43 22 .85     -23    -50      7     56     57 205.3   8.0  33290  275.01 0865.15
2015 04 09 07 43 23 .10     -23    -46     -2     52     53 207.2  -2.2  33298  275.15 0865.15
2015 04 09 07 43 23 .35     -17    -42     -1     46     47 202.7  -2.2  33292  275.05 0865.15
2015 04 09 07 43 23 .61     -28    -49      2     57     58 209.9   2.8  33298  275.15 0865.15
2015 04 09 07 43 23 .86     -29    -45      5     54     55 212.6   5.9  33306  275.27 0865.15
2015 04 09 07 43 24 .11     -19    -46      2     50     51 202.7   2.8  33298  275.15 0865.15
2015 04 09 07 43 24 .36     -26    -42      2     50     51 212.5   2.8  33292  275.05 0865.15
2015 04 09 07 43 24 .62     -29    -45      7     54     55 212.5   8.0  33302  275.22 0865.15
2015 04 09 07 43 24 .87     -31    -48     -1     58     59 212.5  -1.3  33316  275.45 0865.15
2015 04 09 07 43 25 .11     -28    -43     16     52     55 212.6  17.3  33306  275.29 0865.15
2015 04 09 07 43 25 .36     -26    -49     11     56     58 208.1  11.0  33294  275.09 0865.15
2015 04 09 07 43 25 .62     -26    -50      2     57     58 208.1   2.8  33296  275.10 0865.15
2015 04 09 07 43 25 .87     -28    -53      7     61     62 208.1   6.9  33310  275.35 0865.15
2015 04 09 07 43 26 .12     -30    -54      6     62     63 209.0   5.9  33330  275.67 0865.15
2015 04 09 07 43 26 .37     -22    -42      0     48     49 208.1  -0.3  33360  276.18 0865.15
2015 04 09 07 43 26 .62     -17    -37     32     41     52 205.5  42.7  33382  276.53 0865.15
2015 04 09 07 43 26 .87     -20    -42     20     47     51 205.4  24.1  33364  276.23 0865.15
2015 04 09 07 43 27 .12      -7    -46     24     47     52 188.9  28.2  33380  276.49 0865.15
2015 04 09 07 43 27 .37     -14    -44     15     47     50 198.3  18.4  33388  276.63 0865.15
2015 04 09 07 43 27 .62     -36    -36     22     51     55 225.0  25.1  33332  275.72 0865.15
2015 04 09 07 43 27 .88     -38    -46      5     60     61 219.7   4.9  33316  275.43 0865.15
2015 04 09 07 43 28 .12     -26    -45     27     53     59 209.9  29.3  33352  276.05 0865.15
2015 04 09 07 43 28 .38     -25    -55     27     61     66 204.5  25.1  33356  276.11 0865.15
2015 04 09 07 43 28 .62     -19    -57     26     61     66 198.7  23.1  33324  275.57 0865.15
2015 04 09 07 43 28 .87     -12    -61     25     63     67 191.6  23.0  33322  275.55 0865.15
2015 04 09 07 43 29 .12     -16    -60     16     63     66 195.1  14.3  33306  275.29 0865.15
2015 04 09 07 43 29 .38     -17    -71     20     74     77 193.4  15.3  33350  276.01 0865.15
2015 04 09 07 43 29 .62     -15    -59     24     61     65 194.3  23.0  33322  275.53 0865.15
2015 04 09 07 43 29 .88     -22    -51     28     56     62 203.6  28.2  33328  275.63 0865.15
2015 04 09 07 43 30 .12     -16    -40     22     44     49 201.8  27.3  33312  275.37 0865.15
2015 04 09 07 43 30 .38     -24    -42     22     49     53 209.9  25.1  33320  275.50 0865.15
2015 04 09 07 43 30 .63     -31    -44     16     54     57 215.2  17.3  33292  275.05 0865.15
2015 04 09 07 43 30 .89     -31    -48     11     58     60 212.5  11.1  33290  275.01 0865.15
2015 04 09 07 43 31 .14     -26    -50      2     57     58 208.1   2.9  33286  274.96 0865.15
2015 04 09 07 43 31 .39     -26    -49     11     56     58 208.1  11.0  33288  274.99 0865.15
2015 04 09 07 43 31 .63     -26    -50      2     57     58 208.1   2.9  33286  274.96 0865.15
2015 04 09 07 43 31 .89     -30    -54      0     62     63 209.0   0.8  33288  274.99 0865.15
2015 04 09 07 43 32 .14     -23    -50      0     56     57 205.3  -0.3  33298  275.14 0865.15
2015 04 09 07 43 32 .39     -33    -53      3     63     64 211.6   2.8  33290  275.01 0865.15
2015 04 09 07 43 32 .64     -36    -50     -1     62     63 216.1  -1.3  33298  275.14 0865.15
2015 04 09 07 43 32 .89     -28    -49      2     57     58 209.9   2.8  33298  275.15 0865.15
2015 04 09 07 43 33 .14     -28    -44     -4     53     54 212.5  -5.2  33308  275.30 0865.15
2015 04 09 07 43 33 .39     -22    -42      0     48     49 208.1  -0.3  33304  275.24 0865.15
2015 04 09 07 43 33 .64     -24    -38     -1     46     47 212.5  -2.2  33298  275.15 0865.15
2015 04 09 07 43 33 .89     -21    -46     -2     51     52 205.3  -2.2  33294  275.09 0865.15
2015 04 09 07 43 34 .14     -17    -42     -1     46     47 201.8  -2.2  33290  275.01 0865.15
2015 04 09 07 43 34 .39     -30    -54      0     62     63 209.0   0.8  33286  274.94 0865.15
2015 04 09 07 43 34 .64     -29    -61      4     68     69 205.4   3.8  33284  274.91 0865.15
2015 04 09 07 43 34 .89     -29    -61      4     68     69 205.4   3.8  33284  274.91 0865.15
2015 04 09 07 43 35 .15     -36    -65      3     75     76 208.9   2.9  33286  274.96 0865.15
2015 04 09 07 43 35 .40     -32    -57      4     66     67 209.0   3.8  33292  275.04 0865.15
2015 04 09 07 43 35 .65     -35    -49      7     61     62 215.2   6.9  33286  274.96 0865.15
2015 04 09 07 43 35 .90     -31    -49     -2     59     60 212.5  -2.2  33294  275.07 0865.15
2015 04 09 07 43 36 .15     -40    -41     -3     58     59 224.1  -3.1  33292  275.04 0865.15
2015 04 09 07 43 36 .40     -31    -42     -6     53     54 217.0  -7.3  33296  275.12 0865.15
2015 04 09 07 43 36 .65     -28    -38     -5     48     49 217.0  -6.2  33302  275.20 0865.15
2015 04 09 07 43 36 .90     -22    -42      0     48     49 208.1  -0.3  33300  275.19 0865.15
2015 04 09 07 43 37 .15     -32    -57      4     66     67 209.0   3.8  33292  275.04 0865.15
2015 04 09 07 43 37 .41     -31    -49      3     59     60 212.5   3.8  33298  275.14 0865.15
2015 04 09 07 43 37 .66     -35    -49     -4     61     62 215.2  -4.1  33296  275.10 0865.16
2015 04 09 07 43 37 .91     -37    -55     -8     67     68 214.3  -7.2  33298  275.14 0865.16
2015 04 09 07 43 38 .17     -40    -40    -10     57     58 225.0 -10.3  33296  275.10 0865.16
2015 04 09 07 43 38 .41     -43    -43     -8     62     63 225.0  -7.3  33288  274.99 0865.16
2015 04 09 07 43 38 .66     -45    -49     -8     67     68 222.3  -7.2  33290  275.02 0865.16
2015 04 09 07 43 38 .92     -34    -53     -2     64     65 212.5  -2.2  33298  275.14 0865.16
2015 04 09 07 43 39 .17     -31    -49     -2     59     60 212.5  -2.2  33298  275.15 0865.16
2015 04 09 07 43 39 .42     -33    -53     -2     63     64 212.5  -2.2  33302  275.22 0865.16
2015 04 09 07 43 39 .67     -34    -53     -3     64     65 212.5  -3.1  33304  275.24 0865.16
2015 04 09 07 43 39 .92     -36    -57     -6     68     69 212.5  -5.2  33304  275.25 0865.16
2015 04 09 07 43 40 .17     -36    -57     -1     68     69 212.5  -1.2  33304  275.24 0865.16
2015 04 09 07 43 40 .42     -34    -63    -11     72     73 208.9  -9.3  33294  275.07 0865.16
2015 04 09 07 43 40 .67     -37    -58      0     69     70 212.6  -0.3  33296  275.12 0865.16
2015 04 09 07 43 40 .92     -42    -54     -1     69     70 217.8  -1.2  33304  275.24 0865.16
2015 04 09 07 43 41 .17     -37    -51     -8     64     65 216.0  -7.3  33308  275.32 0865.15
2015 04 09 07 43 41 .42     -40    -59    -11     72     73 214.3  -9.3  33314  275.40 0865.15
2015 04 09 07 43 41 .67     -32    -47     -2     57     58 214.3  -2.2  33316  275.43 0865.15
2015 04 09 07 43 41 .93     -24    -62     -8     67     68 201.8  -7.2  33318  275.48 0865.15
2015 04 09 07 43 42 .17     -30    -75     -3     81     82 201.9  -2.2  33332  275.70 0865.15
2015 04 09 07 43 42 .43     -30    -70      0     77     78 203.6  -0.3  33318  275.47 0865.15
2015 04 09 07 43 42 .68     -32    -67      3     75     76 205.4   2.9  33352  276.03 0865.15
2015 04 09 07 43 42 .92     -20    -65     32     69     76 196.9  27.1  33348  275.98 0865.15
2015 04 09 07 43 43 .17     -44    -53     16     70     72 219.7  13.2  33332  275.72 0865.15
2015 04 09 07 43 43 .43     -41    -50      3     65     66 219.6   2.8  33298  275.15 0865.15
2015 04 09 07 43 43 .67     -26    -50      2     57     58 208.1   2.9  33304  275.25 0865.15
2015 04 09 07 43 43 .93     -24    -54      3     60     61 204.5   2.9  33298  275.14 0865.15
2015 04 09 07 43 44 .18     -31    -49     -2     59     60 212.5  -2.2  33298  275.15 0865.15
2015 04 09 07 43 44 .44     -31    -49      5     59     60 212.5   4.9  33304  275.24 0865.15
2015 04 09 07 43 44 .69     -24    -45     -2     52     53 208.1  -2.2  33308  275.32 0865.15
2015 04 09 07 43 44 .95     -20    -62     -2     66     67 198.3  -2.2  33312  275.37 0865.15
2015 04 09 07 43 45 .19     -24    -60     12     65     67 201.8  11.0  33348  275.98 0865.15
2015 04 09 07 43 45 .45     -23    -58      7     63     64 201.8   6.9  33356  276.11 0865.15
2015 04 09 07 43 45 .69     -23    -36     28     43     51 212.5  35.6  33358  276.13 0865.15
2015 04 09 07 43 45 .94     -41    -33     27     53     59 231.4  29.3  33358  276.15 0865.15
2015 04 09 07 43 46 .19     -28    -52     15     60     62 208.1  14.3  33336  275.78 0865.15
2015 04 09 07 43 46 .45     -33    -60     16     69     71 208.9  13.2  33316  275.45 0865.15
2015 04 09 07 43 46 .69     -33    -60     16     69     71 208.9  13.2  33316  275.45 0865.15
2015 04 09 07 43 46 .94     -31    -71     18     78     81 203.6  13.2  33318  275.48 0865.15
2015 04 09 07 43 47 .20     -32    -74     23     81     85 203.6  16.3  33322  275.53 0865.15
2015 04 09 07 43 47 .45     -29    -61     13     68     70 205.4  11.1  33316  275.43 0865.15
2015 04 09 07 43 47 .69     -23    -71     24     75     79 198.3  17.9  33322  275.53 0865.15
2015 04 09 07 43 47 .95     -20    -76     16     79     81 195.1  11.6  33302  275.20 0865.15
2015 04 09 07 43 48 .20     -32    -68     23     76     80 205.4  16.8  33316  275.43 0865.15
2015 04 09 07 43 48 .45     -33    -70     26     78     83 205.4  18.9  33310  275.34 0865.15
2015 04 09 07 43 48 .70     -26    -72     15     77     79 200.0  11.6  33296  275.12 0865.15
2015 04 09 07 43 48 .95     -31    -55     18     64     67 209.0  16.3  33306  275.29 0865.15
2015 04 09 07 43 49 .20     -31    -55     18     64     67 209.0  16.3  33306  275.29 0865.15
2015 04 09 07 43 49 .45     -24    -60     17     65     68 201.8  15.3  33304  275.24 0865.15
2015 04 09 07 43 49 .70     -35    -64     14     74     76 208.9  11.0  33304  275.24 0865.15
2015 04 09 07 43 49 .95     -40    -64      9     76     77 212.5   6.9  33300  275.19 0865.15
2015 04 09 07 43 50 .20     -30    -63     19     70     73 205.5  15.2  33316  275.43 0865.15
2015 04 09 07 43 50 .45     -25    -56     24     62     66 204.5  22.0  33340  275.83 0865.15
2015 04 09 07 43 50 .71     -31    -66     11     74     75 205.5   9.0  33302  275.20 0865.15
2015 04 09 07 43 50 .95     -16    -49     25     52     57 198.3  27.2  33338  275.80 0865.15
2015 04 09 07 43 51 .21     -20    -38     17     44     47 208.1  21.0  33338  275.82 0865.16
2015 04 09 07 43 51 .46     -31    -48     11     58     60 212.5  11.1  33304  275.25 0865.16
2015 04 09 07 43 51 .72     -30    -47     18     56     60 212.5  18.4  33306  275.29 0865.16
2015 04 09 07 43 51 .96     -34    -54     22     65     69 212.5  19.4  33308  275.30 0865.16
2015 04 09 07 43 52 .22     -32    -51     16     61     64 211.6  15.3  33298  275.15 0865.16
2015 04 09 07 43 52 .46     -33    -52     17     62     65 212.5  15.3  33286  274.96 0865.16
2015 04 09 07 43 52 .71     -28    -52     15     60     62 208.1  14.3  33286  274.94 0865.16
2015 04 09 07 43 52 .97     -28    -52     15     60     62 208.1  14.3  33286  274.94 0865.16
2015 04 09 07 43 53 .22     -24    -53     11     59     61 204.5  11.1  33284  274.92 0865.16
2015 04 09 07 43 53 .47     -21    -55      9     59     60 200.9   9.0  33286  274.94 0865.16
2015 04 09 07 43 53 .72     -17    -53      5     56     57 197.8   5.9  33284  274.91 0865.16
2015 04 09 07 43 53 .97     -17    -50      4     53     54 199.2   4.9  33286  274.94 0865.16
2015 04 09 07 43 54 .22     -21    -46      2     51     52 204.5   2.9  33284  274.91 0865.16
2015 04 09 07 43 54 .47     -19    -54      1     58     59 199.2   1.8  33280  274.86 0865.16
2015 04 09 07 43 54 .72     -17    -53      5     56     57 197.8   5.9  33284  274.91 0865.16
2015 04 09 07 43 54 .97     -24    -61     12     66     68 201.8  11.0  33280  274.86 0865.16
2015 04 09 07 43 55 .22     -20    -66     16     70     72 196.9  13.2  33290  275.01 0865.16
2015 04 09 07 43 55 .47      -7    -70      7     71     72 186.2   5.9  33290  275.01 0865.16
2015 04 09 07 43 55 .72      -3    -75      3     76     77 182.7   2.9  33284  274.91 0865.16
2015 04 09 07 43 55 .97      -2    -83      6     84     85 181.8   4.4  33280  274.86 0865.16
2015 04 09 07 43 56 .22      -7    -83      8     84     85 185.3   5.9  33280  274.84 0865.16
2015 04 09 07 43 56 .47     -10    -91     10     92     93 186.7   6.5  33284  274.91 0865.16
2015 04 09 07 43 56 .73      -7    -93      0     94     95 184.5   0.2  33288  274.99 0865.16
2015 04 09 07 43 56 .98     -16    -92     14     94     96 190.2   8.5  33304  275.24 0865.16
2015 04 09 07 43 57 .22     -13    -80     16     82     84 189.3  11.1  33280  274.86 0865.16
2015 04 09 07 43 57 .48     -15    -83     13     85     87 190.2   9.0  33280  274.84 0865.15
2015 04 09 07 43 57 .73      -5    -75      9     76     77 184.5   6.9  33280  274.84 0865.15
2015 04 09 07 43 57 .98      -7    -83      8     84     85 185.3   5.9  33280  274.84 0865.15
2015 04 09 07 43 58 .24      -1    -75     -1     76     77 181.0  -1.2  33280  274.84 0865.15
2015 04 09 07 43 58 .49      -4    -84     -5     85     86 183.1  -3.7  33280  274.86 0865.15
2015 04 09 07 43 58 .74       0    -84     -8     85     86 180.4  -5.6  33280  274.84 0865.15
2015 04 09 07 43 58 .99       0    -84     -8     85     86 180.4  -5.6  33280  274.84 0865.15
2015 04 09 07 43 59 .24       0    -84     -8     85     86 180.4  -5.6  33280  274.84 0865.16
2015 04 09 07 43 59 .49       0    -75     -3     76     77 180.0  -2.2  33280  274.86 0865.16
2015 04 09 07 43 59 .74       0    -83      4     84     85 180.0   2.9  33280  274.84 0865.16
2015 04 09 07 43 59 .99      -7    -84     -3     85     86 184.9  -2.6  33280  274.84 0865.16
2015 04 09 07 44 00 .24      -5    -80     -3     81     82 183.6  -2.2  33278  274.81 0865.16
2015 04 09 07 44 00 .49      -1    -75     -1     76     77 181.0  -1.2  33280  274.84 0865.16
2015 04 09 07 44 00 .74      -1    -75     -1     76     77 181.0  -1.2  33280  274.84 0865.16
2015 04 09 07 44 00 .99       0    -80      1     81     82 180.4   1.2  33278  274.81 0865.16
2015 04 09 07 44 01 .24       0    -80      1     81     82 180.4   1.2  33278  274.81 0865.16
2015 04 09 07 44 01 .49      -1    -75     -1     76     77 181.0  -1.2  33280  274.84 0865.16
2015 04 09 07 44 01 .74      -1    -75     -1     76     77 181.0  -1.2  33280  274.84 0865.16
2015 04 09 07 44 02 .00      -7    -84     -3     85     86 184.9  -2.6  33280  274.84 0865.16
2015 04 09 07 44 02 .25      -5    -80     -3     81     82 183.6  -2.2  33278  274.81 0865.16
2015 04 09 07 44 02 .50      -1    -75     -1     76     77 181.0  -1.2  33280  274.84 0865.16
2015 04 09 07 44 02 .75      -1    -75     -1     76     77 181.0  -1.2  33280  274.84 0865.16
2015 04 09 07 44 03 .00      -1    -75     -1     76     77 181.0  -1.2  33280  274.84 0865.16
2015 04 09 07 44 03 .25      -1    -75     -1     76     77 181.0  -1.2  33280  274.84 0865.16
2015 04 09 07 44 03 .50      -5    -71     -2     72     73 184.4  -2.2  33278  274.81 0865.16
2015 04 09 07 44 03 .75      -5    -71     -2     72     73 184.4  -2.2  33278  274.81 0865.16
2015 04 09 07 44 04 .00      -6    -67     -3     68     69 185.3  -3.1  33280  274.84 0865.16
2015 04 09 07 44 04 .25      -6    -67     -3     68     69 185.3  -3.1  33280  274.84 0865.16
2015 04 09 07 44 04 .50      -6    -67     -3     68     69 185.3  -3.1  33280  274.84 0865.15
2015 04 09 07 44 04 .75      -3    -67     -6     68     69 182.7  -5.2  33280  274.86 0865.15
2015 04 09 07 44 05 .00      -3    -67     -6     68     69 182.7  -5.2  33280  274.86 0865.15
2015 04 09 07 44 05 .26       0    -67     -8     68     69 180.0  -7.2  33280  274.84 0865.15
2015 04 09 07 44 05 .51       0    -67     -8     68     69 180.0  -7.2  33280  274.84 0865.15
2015 04 09 07 44 05 .76       0    -67     -8     68     69 180.0  -7.2  33280  274.84 0865.15
2015 04 09 07 44 06 .02       0    -67     -8     68     69 180.0  -7.2  33280  274.84 0865.15
2015 04 09 07 44 06 .27      -3    -67     -6     68     69 182.7  -5.2  33280  274.86 0865.15
2015 04 09 07 44 06 .52      -4    -63     -8     64     65 184.5  -7.3  33282  274.89 0865.15
2015 04 09 07 44 06 .77      -6    -67     -3     68     69 185.3  -3.1  33280  274.84 0865.15
2015 04 09 07 44 07 .02     -10    -61     -8     62     63 189.8  -7.3  33280  274.84 0865.15
2015 04 09 07 44 07 .27      -6    -60    -10     61     62 186.2  -9.3  33280  274.86 0865.15
2015 04 09 07 44 07 .52      -8    -63     -5     64     65 188.0  -5.2  33280  274.86 0865.15
2015 04 09 07 44 07 .77      -6    -67     -3     68     69 185.3  -3.1  33280  274.84 0865.15
2015 04 09 07 44 08 .02      -6    -67     -3     68     69 185.3  -3.1  33280  274.84 0865.15
2015 04 09 07 44 08 .27      -6    -67     -3     68     69 185.3  -3.1  33280  274.84 0865.15
2015 04 09 07 44 08 .52      -8    -63    -11     64     66 188.0 -10.3  33282  274.89 0865.15
2015 04 09 07 44 08 .77      -8    -57     -5     58     59 188.9  -5.2  33280  274.86 0865.15
2015 04 09 07 44 09 .02      -8    -57     -5     58     59 188.9  -5.2  33280  274.86 0865.15
2015 04 09 07 44 09 .27      -8    -55    -11     56     58 188.9 -11.3  33280  274.84 0865.15
2015 04 09 07 44 09 .52      -9    -57    -20     58     62 189.8 -19.7  33280  274.86 0865.15
2015 04 09 07 44 09 .77      -9    -57    -20     58     62 189.8 -19.7  33280  274.86 0865.15
2015 04 09 07 44 10 .02     -11    -53    -15     55     58 191.6 -15.4  33280  274.86 0865.16
2015 04 09 07 44 10 .27     -11    -53    -15     55     58 191.6 -15.4  33280  274.86 0865.16
2015 04 09 07 44 10 .52     -11    -53    -15     55     58 191.6 -15.4  33280  274.86 0865.16
2015 04 09 07 44 10 .78     -11    -53    -15     55     58 191.6 -15.4  33280  274.86 0865.16
2015 04 09 07 44 11 .03     -14    -58    -18     60     63 194.3 -16.6  33282  274.89 0865.16
2015 04 09 07 44 11 .28     -14    -58    -18     60     63 194.3 -16.6  33282  274.89 0865.16
2015 04 09 07 44 11 .53     -17    -50    -25     54     59 199.2 -30.6  33280  274.86 0865.16
2015 04 09 07 44 11 .78     -14    -49    -27     52     58 196.0 -33.7  33280  274.84 0865.15
2015 04 09 07 44 12 .03      -9    -50    -22     51     55 190.7 -29.5  33282  274.89 0865.15
2015 04 09 07 44 12 .29      -6    -46    -20     47     51 188.0 -28.5  33282  274.87 0865.15
2015 04 09 07 44 12 .54      -9    -50    -22     51     55 190.7 -29.5  33282  274.89 0865.15
2015 04 09 07 44 12 .79     -12    -46    -24     48     53 195.1 -31.7  33282  274.87 0865.15
2015 04 09 07 44 13 .04      -9    -41    -22     43     48 192.5 -33.7  33280  274.84 0865.15
2015 04 09 07 44 13 .29     -17    -42    -18     46     49 202.7 -26.4  33280  274.84 0865.15
2015 04 09 07 44 13 .54     -12    -39    -18     41     44 197.8 -28.5  33280  274.84 0865.15
2015 04 09 07 44 13 .79      -4    -42    -18     43     46 186.2 -27.4  33282  274.89 0865.15
2015 04 09 07 44 14 .04      -8    -43    -16     44     46 191.6 -24.4  33284  274.91 0865.15
2015 04 09 07 44 14 .29      -6    -39    -14     40     42 189.8 -24.4  33282  274.89 0865.15
2015 04 09 07 44 14 .54      -9    -34    -13     36     39 195.1 -19.7  33282  274.89 0865.15
2015 04 09 07 44 14 .80      -7    -38    -14     39     41 191.5 -24.4  33286  274.94 0865.15
2015 04 09 07 44 15 .05     -10    -31    -18     33     37 198.3 -35.8  33286  274.94 0865.15
2015 04 09 07 44 15 .30     -15    -31    -16     35     38 207.2 -29.5  33284  274.91 0865.15
2015 04 09 07 44 15 .55     -23    -35    -16     43     45 213.4 -24.4  33286  274.96 0865.15
2015 04 09 07 44 15 .80     -17    -34    -14     39     42 207.2 -19.7  33284  274.91 0865.15
2015 04 09 07 44 16 .05     -14    -35    -14     38     40 201.8 -25.4  33286  274.94 0865.15
2015 04 09 07 44 16 .30     -17    -34    -14     39     42 207.2 -19.7  33284  274.91 0865.16
2015 04 09 07 44 16 .55     -20    -37     -1     43     44 208.1  -2.2  33288  274.99 0865.16
2015 04 09 07 44 16 .80     -19    -30    -10     36     38 212.5 -15.4  33290  275.01 0865.16
2015 04 09 07 44 17 .05     -17    -26     -1     32     33 212.6  -2.2  33296  275.10 0865.16
2015 04 09 07 44 17 .30      -8    -26     -3     28     29 198.5  -7.3  33292  275.05 0865.16
2015 04 09 07 44 17 .55     -10    -23     -6     26     27 203.6 -13.4  33294  275.09 0865.16
2015 04 09 07 44 17 .80     -13    -26     -1     30     31 207.2  -3.1  33298  275.14 0865.16
2015 04 09 07 44 18 .05      -9    -29     -8     31     33 196.9 -15.4  33292  275.05 0865.16
2015 04 09 07 44 18 .30     -11    -35     -1     37     38 198.3  -2.2  33298  275.14 0865.16
2015 04 09 07 44 18 .55      -7    -36     -9     37     39 191.6 -14.5  33290  275.01 0865.16
2015 04 09 07 44 18 .80      -8    -26     -3     28     29 198.5  -7.3  33292  275.05 0865.16
2015 04 09 07 44 19 .07      -8    -26     -3     28     29 198.5  -7.3  33292  275.05 0865.16
2015 04 09 07 44 19 .32     -19    -30     -1     36     37 212.5  -2.2  33294  275.09 0865.16
2015 04 09 07 44 19 .57     -10    -31     -1     33     34 198.3  -2.2  33302  275.20 0865.16
2015 04 09 07 44 19 .82     -14    -22      1     27     28 212.6   2.8  33304  275.24 0865.16
2015 04 09 07 44 20 .07     -25    -35      2     44     45 216.1   3.8  33296  275.10 0865.16
2015 04 09 07 44 20 .32     -26    -34      2     43     44 217.8   2.9  33292  275.05 0865.16
2015 04 09 07 44 20 .57     -25    -39      4     47     48 212.6   5.9  33288  274.99 0865.16
2015 04 09 07 44 20 .82     -20    -37      3     43     44 208.1   4.9  33294  275.07 0865.16
2015 04 09 07 44 21 .07     -19    -39      2     44     45 206.3   2.9  33290  275.02 0865.16
2015 04 09 07 44 21 .32     -19    -39      2     44     45 206.3   2.9  33290  275.02 0865.16
2015 04 09 07 44 21 .57     -13    -42      2     45     46 197.8   2.9  33286  274.96 0865.16
2015 04 09 07 44 21 .82     -15    -39      0     43     44 201.8  -0.3  33288  274.99 0865.16
2015 04 09 07 44 22 .07     -25    -39      4     47     48 212.6   5.9  33288  274.99 0865.16
2015 04 09 07 44 22 .32     -20    -37      3     43     44 208.1   4.9  33294  275.07 0865.16
2015 04 09 07 44 22 .57     -12    -37     -1     40     41 198.7  -2.2  33292  275.05 0865.16
2015 04 09 07 44 22 .82      -9    -42      0     44     45 192.5   0.8  33286  274.94 0865.16
2015 04 09 07 44 23 .07     -11    -46     -1     48     49 193.4  -2.2  33284  274.92 0865.16
2015 04 09 07 44 23 .33      -2    -45     -5     46     47 183.6  -7.2  33284  274.91 0865.16
2015 04 09 07 44 23 .58      -2    -45     -5     46     47 183.6  -7.2  33284  274.91 0865.16
2015 04 09 07 44 23 .83       0    -48     -1     49     50 180.9  -2.2  33282  274.89 0865.16
2015 04 09 07 44 24 .08       0    -48     -1     49     50 180.9  -2.2  33282  274.89 0865.16
2015 04 09 07 44 24 .33      -1    -53     -2     54     55 181.8  -2.2  33284  274.91 0865.16
2015 04 09 07 44 24 .58      -1    -53     -2     54     55 181.8  -2.2  33284  274.91 0865.16
2015 04 09 07 44 24 .83      -9    -42      0     44     45 192.5   0.8  33286  274.94 0865.16
2015 04 09 07 44 25 .08      -7    -46      2     47     48 189.8   2.9  33284  274.92 0865.16
2015 04 09 07 44 25 .33      -9    -49      0     50     51 190.7  -0.3  33282  274.89 0865.16
2015 04 09 07 44 25 .58     -14    -49      2     51     52 196.0   2.9  33282  274.87 0865.16
2015 04 09 07 44 25 .83     -17    -54     -2     57     58 198.3  -2.2  33286  274.94 0865.16
2015 04 09 07 44 26 .09     -12    -60     -2     62     63 191.6  -2.2  33284  274.91 0865.16
2015 04 09 07 44 26 .34     -14    -61     -1     63     64 193.4  -1.3  33284  274.91 0865.16
2015 04 09 07 44 26 .59      -9    -57      7     58     59 189.8   7.1  33280  274.86 0865.16
2015 04 09 07 44 26 .84     -19    -56      5     60     61 198.7   4.9  33286  274.94 0865.16
2015 04 09 07 44 27 .09     -19    -56      5     60     61 198.7   4.9  33286  274.94 0865.16
2015 04 09 07 44 27 .34     -17    -53      5     56     57 197.8   5.9  33284  274.91 0865.16
2015 04 09 07 44 27 .59     -19    -56      5     60     61 198.7   4.9  33286  274.94 0865.16
2015 04 09 07 44 27 .84     -19    -56      5     60     61 198.7   4.9  33288  274.99 0865.16
2015 04 09 07 44 28 .10     -20    -61      9     65     66 198.5   8.0  33288  274.99 0865.16
2015 04 09 07 44 28 .35     -28    -60     13     67     69 205.3  11.1  33288  274.99 0865.16
2015 04 09 07 44 28 .60     -26    -65      2     71     72 201.9   1.8  33286  274.96 0865.16
2015 04 09 07 44 28 .85     -24    -62     -2     67     68 201.8  -2.2  33290  275.01 0865.16
2015 04 09 07 44 29 .10     -26    -58      2     64     65 204.5   1.8  33292  275.05 0865.15
2015 04 09 07 44 29 .35     -29    -62     -1     69     70 205.4  -1.2  33288  274.99 0865.15
2015 04 09 07 44 29 .60     -33    -61      3     70     71 208.9   2.8  33292  275.05 0865.15
2015 04 09 07 44 29 .85     -32    -68      9     76     77 205.5   6.9  33294  275.09 0865.15
2015 04 09 07 44 30 .10     -32    -68      9     76     77 205.5   6.9  33294  275.09 0865.15
2015 04 09 07 44 30 .36     -27    -69      5     75     76 201.9   3.8  33298  275.15 0865.15
2015 04 09 07 44 30 .62     -35    -64     14     74     76 208.9  11.0  33300  275.17 0865.15
2015 04 09 07 44 30 .85     -27    -67     22     73     77 201.9  16.8  33308  275.30 0865.16
2015 04 09 07 44 31 .10     -25    -74     24     79     83 198.7  17.3  33298  275.15 0865.16
2015 04 09 07 44 31 .35     -31    -75     22     82     86 202.7  15.3  33300  275.19 0865.16
2015 04 09 07 44 31 .61     -34    -79     29     87     92 203.6  18.4  33300  275.19 0865.16
2015 04 09 07 44 31 .86     -35    -95     19    102    104 200.5  11.0  33296  275.10 0865.16
2015 04 09 07 44 32 .11     -40    -83     25     93     97 205.9  15.3  33306  275.29 0865.16
2015 04 09 07 44 32 .36     -42    -78     30     89     95 208.5  18.9  33318  275.47 0865.16
2015 04 09 07 44 32 .61     -34    -79     29     87     92 203.6  18.4  33300  275.19 0865.16
2015 04 09 07 44 32 .86     -38    -78     30     87     93 206.3  19.4  33302  275.20 0865.16
2015 04 09 07 44 33 .12     -41    -86     14     96     98 205.3   8.5  33286  274.96 0865.16
2015 04 09 07 44 33 .37     -34    -88     14     95     97 201.4   8.5  33292  275.04 0865.16
2015 04 09 07 44 33 .62     -30    -90     14     96     98 198.7   8.5  33290  275.02 0865.15
2015 04 09 07 44 33 .87     -39    -87     16     96     98 204.1   9.5  33290  275.01 0865.15
2015 04 09 07 44 34 .12     -44    -81     12     93     94 208.5   7.5  33286  274.96 0865.15
2015 04 09 07 44 34 .37     -38    -83      9     92     93 204.5   5.9  33290  275.01 0865.15
2015 04 09 07 44 34 .62     -40    -82      7     92     93 206.3   4.9  33288  274.99 0865.15
2015 04 09 07 44 34 .87     -32    -73      4     80     81 203.6   3.3  33292  275.04 0865.15
2015 04 09 07 44 36 .88     -15    -69      7     71     72 192.5   5.9  33284  274.91 0865.15
2015 04 09 07 44 37 .13     -20    -77      2     80     81 195.1   1.8  33284  274.91 0865.15
2015 04 09 07 44 37 .38     -24    -71     -1     76     77 198.7  -1.2  33288  274.99 0865.15
2015 04 09 07 44 37 .63     -25    -76     -3     81     82 198.7  -2.2  33290  275.02 0865.15
2015 04 09 07 44 37 .88     -24    -69      3     74     75 199.2   2.9  33286  274.94 0865.15
2015 04 09 07 44 38 .16     -26    -64      8     70     71 201.8   7.1  33282  274.89 0865.15
2015 04 09 07 44 38 .38     -26    -64      8     70     71 201.8   7.1  33282  274.89 0865.15
2015 04 09 07 44 38 .63     -23    -66      8     70     71 199.2   6.9  33282  274.89 0865.15
2015 04 09 07 44 38 .88     -22    -69     -2     73     74 198.3  -2.2  33290  275.01 0865.15
2015 04 09 07 44 39 .13     -32    -58     -8     67     68 209.0  -7.2  33294  275.09 0865.15
2015 04 09 07 44 39 .39     -32    -59    -17     68     71 209.0 -14.5  33292  275.05 0865.15
2015 04 09 07 44 39 .64     -29    -61     -1     68     69 205.3  -1.2  33294  275.09 0865.15
2015 04 09 07 44 39 .88     -23    -50    -13     56     58 205.3 -13.4  33288  274.99 0865.15
2015 04 09 07 44 40 .14     -31    -42     -6     53     54 217.0  -7.3  33294  275.09 0865.15
2015 04 09 07 44 40 .40     -32    -44     -7     55     56 216.1  -7.3  33292  275.05 0865.15
2015 04 09 07 44 40 .65     -38    -53    -14     66     68 215.2 -12.4  33290  275.01 0865.15
2015 04 09 07 44 40 .89     -32    -46    -20     57     60 215.2 -23.3  33284  274.91 0865.16
2015 04 09 07 44 41 .15     -32    -45    -19     56     60 215.2 -18.7  33282  274.89 0865.16
2015 04 09 07 44 41 .40     -29    -46    -22     55     59 212.6 -27.4  33286  274.94 0865.16
2015 04 09 07 44 41 .65     -33    -40    -14     52     53 219.6 -20.7  33286  274.94 0865.16
2015 04 09 07 44 41 .90     -39    -38    -18     55     57 225.9 -23.8  33288  274.99 0865.16
2015 04 09 07 44 42 .15     -32    -32    -14     46     48 224.2 -23.8  33288  274.99 0865.16
2015 04 09 07 44 42 .40     -35    -36     -4     51     52 224.2  -5.2  33292  275.05 0865.16
2015 04 09 07 44 42 .65     -35    -43    -12     56     58 219.6 -12.4  33286  274.94 0865.16
2015 04 09 07 44 42 .90     -40    -35     -8     54     55 228.7  -9.3  33286  274.96 0865.16
2015 04 09 07 44 43 .15     -32    -50     -8     60     61 212.5  -8.2  33288  274.99 0865.16
2015 04 09 07 44 43 .40     -42    -54    -12     69     71 217.8 -10.3  33286  274.94 0865.16
2015 04 09 07 44 43 .65     -27    -51    -18     58     61 208.1 -17.6  33282  274.89 0865.15
2015 04 09 07 44 43 .90     -35    -35    -13     50     52 225.0 -14.5  33282  274.87 0865.15
2015 04 09 07 44 44 .15     -33    -40     -9     52     53 219.6 -10.3  33284  274.91 0865.15
2015 04 09 07 44 44 .40     -31    -42     -6     53     54 217.0  -7.3  33282  274.89 0865.15
2015 04 09 07 44 44 .65     -38    -38    -15     54     57 225.0 -15.5  33284  274.91 0865.15
2015 04 09 07 44 44 .90     -37    -32    -18     50     53 228.7 -23.3  33286  274.94 0865.15
2015 04 09 07 44 45 .16     -32    -35    -24     48     53 222.3 -31.7  33286  274.96 0865.15
2015 04 09 07 44 45 .41     -30    -31    -22     44     49 224.1 -31.7  33286  274.94 0865.16
2015 04 09 07 44 45 .66     -27    -26    -13     38     40 226.7 -23.6  33282  274.89 0865.16
2015 04 09 07 44 45 .91     -31    -32     -9     45     46 224.2 -11.3  33284  274.91 0865.16
2015 04 09 07 44 46 .16     -41    -32     -4     53     54 232.2  -5.2  33286  274.96 0865.16
2015 04 09 07 44 46 .41     -47    -32      2     58     59 235.8   2.9  33290  275.01 0865.16
2015 04 09 07 44 46 .66     -47    -32      2     57     58 235.8   2.9  33290  275.01 0865.16
2015 04 09 07 44 46 .92     -38    -38      4     54     55 225.0   4.9  33292  275.04 0865.16
2015 04 09 07 44 47 .17     -35    -42      7     55     56 219.7   8.0  33292  275.05 0865.16
2015 04 09 07 44 47 .42     -31    -48     11     58     60 212.5  11.1  33286  274.96 0865.16
2015 04 09 07 44 47 .68     -32    -52      8     62     63 211.6   8.0  33288  274.99 0865.16
2015 04 09 07 44 47 .92     -26    -49     16     56     59 208.1  16.3  33310  275.35 0865.16
2015 04 09 07 44 48 .18     -42    -46      6     63     64 222.3   5.9  33298  275.15 0865.16
2015 04 09 07 44 48 .42     -42    -45      7     62     63 223.2   6.9  33308  275.32 0865.16
2015 04 09 07 44 48 .68     -38    -46     -2     61     62 219.6  -2.2  33304  275.25 0865.16
2015 04 09 07 44 48 .93     -41    -42     -9     59     60 224.1  -9.3  33322  275.55 0865.16
2015 04 09 07 44 49 .18     -15    -46     -5     49     50 198.3  -6.2  33334  275.75 0865.16
2015 04 09 07 44 49 .43     -23    -50      0     56     57 204.5  -0.3  33324  275.58 0865.16
2015 04 09 07 44 49 .68     -15    -39      7     43     44 201.8  10.1  33334  275.75 0865.16
2015 04 09 07 44 49 .93      -9    -48     16     49     52 190.7  18.4  33318  275.47 0865.16
2015 04 09 07 44 50 .18     -15    -45      8     48     49 198.3  10.1  33316  275.45 0865.16
2015 04 09 07 44 50 .43     -23    -43     22     49     53 208.1  25.1  33316  275.45 0865.16
2015 04 09 07 44 50 .68     -31    -56     12     65     67 209.0  11.0  33296  275.10 0865.16
2015 04 09 07 44 50 .93     -23    -70     11     74     75 198.3   9.0  33302  275.20 0865.15
2015 04 09 07 44 51 .18     -33    -60      8     69     70 208.9   6.9  33306  275.29 0865.15
2015 04 09 07 44 51 .43     -26    -50     -2     57     58 208.1  -2.2  33318  275.47 0865.15
2015 04 09 07 44 51 .68     -26    -42      2     50     51 212.5   2.8  33328  275.65 0865.15
2015 04 09 07 44 51 .93     -17    -37     19     41     45 205.5  27.2  33324  275.58 0865.15
2015 04 09 07 44 52 .18     -17    -43     32     47     56 201.8  36.5  33310  275.34 0865.15
2015 04 09 07 44 52 .43     -26    -50     -2     57     58 208.1  -2.2  33298  275.14 0865.15
2015 04 09 07 44 52 .68     -32    -45     -3     56     57 215.2  -3.1  33292  275.04 0865.15
2015 04 09 07 44 52 .93     -29    -45    -12     54     56 212.5 -13.4  33288  274.99 0865.15
2015 04 09 07 44 53 .19     -24    -38    -15     46     49 212.5 -18.7  33286  274.96 0865.15
2015 04 09 07 44 53 .44     -25    -39     -6     47     48 212.6  -7.3  33294  275.09 0865.15
2015 04 09 07 44 53 .69     -24    -38    -15     46     49 212.5 -18.7  33286  274.96 0865.15
2015 04 09 07 44 53 .95     -24    -38    -15     46     49 212.5 -18.7  33288  274.97 0865.15
2015 04 09 07 44 54 .20     -30    -39    -16     50     52 217.0 -23.8  33284  274.91 0865.15
2015 04 09 07 44 54 .45     -32    -35    -18     48     51 222.3 -25.4  33286  274.94 0865.16
2015 04 09 07 44 54 .70     -33    -32    -20     47     51 226.0 -28.5  33284  274.92 0865.16
2015 04 09 07 44 54 .95     -37    -32    -18     50     53 228.7 -23.3  33286  274.94 0865.16
2015 04 09 07 44 55 .20     -33    -32    -20     47     51 226.0 -28.5  33286  274.96 0865.16
2015 04 09 07 44 55 .45     -38    -26    -18     47     50 235.8 -25.4  33288  274.99 0865.16
2015 04 09 07 44 55 .70     -33    -32    -20     47     51 226.0 -28.5  33286  274.96 0865.16
2015 04 09 07 44 55 .95     -32    -32    -14     46     48 224.2 -23.8  33288  274.99 0865.16
2015 04 09 07 44 56 .20     -33    -24    -14     42     44 234.0 -23.6  33286  274.94 0865.16
2015 04 09 07 44 56 .45     -33    -23    -10     41     43 234.9 -14.5  33290  275.01 0865.16
2015 04 09 07 44 56 .70     -29    -24     -4     38     39 230.4  -7.3  33286  274.96 0865.16
2015 04 09 07 44 56 .95     -29    -24     -4     38     39 230.4  -7.3  33286  274.96 0865.16
2015 04 09 07 44 57 .20     -25    -20      0     33     34 230.5  -1.2  33288  274.99 0865.16
2015 04 09 07 44 57 .45     -31    -17     -4     36     37 241.1  -7.3  33290  275.02 0865.16
2015 04 09 07 44 57 .70     -31    -17     -4     36     37 241.1  -7.3  33292  275.05 0865.16
2015 04 09 07 44 57 .95     -28    -23     -4     37     38 230.5  -7.2  33290  275.01 0865.16
2015 04 09 07 44 58 .21     -27    -26     -2     38     39 226.7  -3.1  33288  274.99 0865.16
2015 04 09 07 44 58 .46     -32    -20     -6     39     40 237.6  -9.3  33292  275.04 0865.16
2015 04 09 07 44 58 .73     -29    -24     -4     38     39 230.4  -7.3  33286  274.96 0865.16
2015 04 09 07 44 58 .96     -27    -26     -2     38     39 226.7  -3.1  33286  274.94 0865.16
2015 04 09 07 44 59 .21     -27    -26     -2     38     39 226.7  -3.1  33286  274.94 0865.16
2015 04 09 07 44 59 .46     -22    -35      1     42     43 212.5   1.8  33294  275.09 0865.16
2015 04 09 07 44 59 .71     -19    -30      3     36     37 212.5   4.9  33294  275.07 0865.16
2015 04 09 07 44 59 .96     -24    -38      3     46     47 212.5   4.9  33292  275.04 0865.16
2015 04 09 07 45 00 .21     -28    -35      2     45     46 218.7   2.9  33286  274.96 0865.16
2015 04 09 07 45 00 .46     -23    -43      7     49     50 208.1   9.0  33286  274.96 0865.16
2015 04 09 07 45 00 .71     -26    -42      2     50     51 212.5   2.8  33292  275.05 0865.16
2015 04 09 07 45 00 .97     -23    -46      5     52     53 207.2   5.9  33288  274.99 0865.16
2015 04 09 07 45 01 .23     -29    -37      0     48     49 217.8  -0.3  33288  274.99 0865.16
2015 04 09 07 45 01 .47     -26    -42      2     50     51 212.5   2.8  33292  275.05 0865.16
2015 04 09 07 45 01 .72     -24    -38      3     46     47 212.5   4.9  33292  275.04 0865.16
2015 04 09 07 45 01 .97     -31    -42      4     53     54 217.0   4.9  33292  275.04 0865.16
2015 04 09 07 45 02 .22     -26    -42      2     50     51 212.5   2.9  33290  275.01 0865.16
2015 04 09 07 45 02 .48     -31    -42      4     53     54 217.0   4.9  33300  275.19 0865.16
2015 04 09 07 45 02 .73     -31    -42      4     53     54 217.0   4.9  33298  275.14 0865.16
2015 04 09 07 45 02 .98     -33    -38      2     51     52 220.5   2.9  33308  275.30 0865.16
2015 04 09 07 45 03 .23     -31    -35     -1     47     48 221.4  -2.2  33310  275.35 0865.16
2015 04 09 07 45 03 .48     -28    -40      0     49     50 215.2   0.8  33316  275.43 0865.16
2015 04 09 07 45 03 .73     -28    -37      2     47     48 217.0   2.9  33318  275.47 0865.16
2015 04 09 07 45 03 .98     -32    -39      2     51     52 219.6   2.9  33310  275.35 0865.16
2015 04 09 07 45 04 .23     -26    -35     -3     44     45 217.0  -4.1  33300  275.19 0865.16
2015 04 09 07 45 04 .48     -29    -39      1     49     50 217.0   1.8  33304  275.24 0865.16
2015 04 09 07 45 04 .73     -26    -35     -3     44     45 217.0  -4.1  33304  275.24 0865.16
2015 04 09 07 45 04 .98     -20    -38     -8     44     45 208.1 -11.3  33290  275.01 0865.16
2015 04 09 07 45 05 .23     -17    -50     -6     53     54 199.2  -7.3  33292  275.04 0865.16
2015 04 09 07 45 05 .48      -8    -42     -3     43     44 191.6  -5.2  33292  275.05 0865.16
2015 04 09 07 45 05 .73     -11    -43    -13     45     47 194.3 -16.6  33292  275.04 0865.16
2015 04 09 07 45 05 .99      -5    -41    -13     42     45 187.1 -17.6  33296  275.10 0865.16
2015 04 09 07 45 06 .23     -17    -36     -7     40     41 205.5 -10.3  33300  275.19 0865.16
2015 04 09 07 45 06 .48     -15    -30     -4     34     35 207.2  -7.3  33296  275.10 0865.16
2015 04 09 07 45 06 .73     -12    -39    -18     41     44 197.8 -28.5  33298  275.14 0865.16
2015 04 09 07 45 06 .99     -27    -43    -17     51     54 212.5 -18.7  33292  275.04 0865.16
2015 04 09 07 45 07 .24     -27    -43    -17     51     54 212.5 -18.7  33292  275.04 0865.16
2015 04 09 07 45 07 .49     -27    -44    -14     52     53 211.6 -20.7  33288  274.99 0865.16
2015 04 09 07 45 07 .75     -33    -40     -9     52     53 219.6 -10.3  33290  275.02 0865.16
2015 04 09 07 45 08 .00     -29    -37    -12     48     50 217.8 -14.5  33298  275.14 0865.16
2015 04 09 07 45 08 .25     -17    -43     -6     47     48 201.8  -7.3  33298  275.14 0865.16
2015 04 09 07 45 08 .50     -11    -39      5     41     42 196.0   8.0  33304  275.24 0865.16
2015 04 09 07 45 08 .75      -8    -56    -11     57     59 188.9 -11.5  33288  274.99 0865.16
2015 04 09 07 45 09 .00      -6    -45     -9     46     47 188.0 -11.3  33290  275.02 0865.16
2015 04 09 07 45 09 .25      -9    -48    -12     49     51 190.7 -14.5  33292  275.04 0865.16
2015 04 09 07 45 09 .51      -5    -52     -7     53     54 186.2  -8.2  33304  275.25 0865.16
2015 04 09 07 45 09 .75      -9    -49      0     50     51 190.7  -0.3  33318  275.48 0865.16
2015 04 09 07 45 10 .01      -7    -46     -1     47     48 189.8  -2.2  33336  275.78 0865.16
2015 04 09 07 45 10 .25      -5    -40      5     41     42 187.1   8.0  33330  275.68 0865.16
2015 04 09 07 45 10 .50     -18    -53     16     57     60 199.2  16.3  33298  275.15 0865.16
2015 04 09 07 45 10 .76     -17    -54     22     57     61 197.8  22.0  33308  275.30 0865.16
2015 04 09 07 45 11 .01     -22    -42     21     48     52 208.1  25.1  33326  275.62 0865.16
2015 04 09 07 45 11 .26     -35    -48     20     60     64 216.1  18.9  33348  275.96 0865.16
2015 04 09 07 45 11 .52     -30    -31     28     44     52 224.1  35.5  33342  275.88 0865.16
2015 04 09 07 45 11 .76     -38    -38     32     54     62 225.0  33.5  33346  275.93 0865.16
2015 04 09 07 45 12 .01     -34    -37     31     51     59 222.3  34.4  33344  275.91 0865.16
2015 04 09 07 45 12 .26     -19    -40     37     45     58 206.3  43.8  33342  275.88 0865.16
2015 04 09 07 45 12 .51     -19    -23     17     31     35 219.7  33.5  33328  275.65 0865.16
2015 04 09 07 45 12 .76     -17    -25      7     31     32 214.3  13.2  33330  275.67 0865.16
2015 04 09 07 45 13 .01      -8    -23     11     25     27 198.7  25.1  33328  275.63 0865.16
2015 04 09 07 45 13 .26      -8    -12     -3     15     16 216.1 -11.3  33320  275.50 0865.16
2015 04 09 07 45 13 .51      -1    -17      0     18     19 184.5  -2.2  33326  275.62 0865.16
2015 04 09 07 45 13 .76      -4    -24      8     25     27 189.8  17.3  33336  275.78 0865.16
2015 04 09 07 45 14 .01     -14    -26     17     30     34 209.0  31.4  33340  275.85 0865.16
2015 04 09 07 45 14 .26     -16     -3      5     17     18 258.5  18.9  33334  275.73 0865.16
2015 04 09 07 45 14 .52     -27      0     -3     28     29 270.0  -7.3  33324  275.57 0865.16
2015 04 09 07 45 14 .77     -14    -25      3     29     30 209.0   6.9  33332  275.70 0865.16
2015 04 09 07 45 15 .02       5    -33     11     34     37 170.2  18.9  33326  275.60 0865.16
2015 04 09 07 45 15 .28      -5    -42     -1     43     44 187.1  -2.2  33322  275.55 0865.16
2015 04 09 07 45 15 .53      -2    -30      1     31     32 184.5   2.9  33324  275.58 0865.16
2015 04 09 07 45 15 .78      -8    -24      9     26     28 198.7  19.4  33326  275.62 0865.16
2015 04 09 07 45 16 .03     -16    -39     21     43     47 202.7  28.2  33322  275.55 0865.15
2015 04 09 07 45 16 .28     -17    -37     26     41     48 205.5  35.5  33336  275.77 0865.15
2015 04 09 07 45 16 .53     -10    -31     26     33     42 198.3  42.7  33334  275.75 0865.15
2015 04 09 07 45 16 .78      -1    -31     22     32     38 182.7  37.6  33332  275.72 0865.15
2015 04 09 07 45 17 .03     -19    -41     14     46     49 205.4  17.3  33302  275.20 0865.16
2015 04 09 07 45 17 .28     -16    -40     13     44     47 201.8  17.3  33298  275.15 0865.16
2015 04 09 07 45 17 .53     -15    -34     10     38     40 203.6  15.3  33296  275.12 0865.16
2015 04 09 07 45 17 .78     -13    -41      2     44     45 198.5   3.8  33296  275.10 0865.16
2015 04 09 07 45 18 .03     -12    -38      6     40     41 197.8   9.0  33294  275.09 0865.16
2015 04 09 07 45 18 .28     -12    -38      6     40     41 197.8   9.0  33298  275.14 0865.16
2015 04 09 07 45 18 .53     -12    -37     -1     40     41 198.7  -2.2  33298  275.15 0865.16
2015 04 09 07 45 18 .78     -10    -31     -1     33     34 198.3  -2.2  33302  275.20 0865.16
2015 04 09 07 45 19 .03     -10    -30     -7     32     33 198.3 -13.4  33312  275.39 0865.16
2015 04 09 07 45 19 .28     -18    -22     -8     29     31 219.7 -15.5  33308  275.30 0865.16
2015 04 09 07 45 19 .53     -19    -30    -10     36     38 212.5 -15.5  33300  275.17 0865.16
2015 04 09 07 45 19 .79     -16    -26     -1     31     32 212.5  -2.2  33302  275.20 0865.16
2015 04 09 07 45 20 .04     -12    -19      0     23     24 212.5  -2.2  33306  275.29 0865.16
2015 04 09 07 45 20 .28      -7    -22      0     24     25 198.5  -2.2  33306  275.29 0865.16
2015 04 09 07 45 20 .54     -11    -23     -1     26     27 207.2  -2.2  33300  275.17 0865.16
2015 04 09 07 45 20 .79      -7    -31     -1     32     33 193.4  -3.1  33304  275.24 0865.16
2015 04 09 07 45 21 .04      -5    -27     13     28     30 191.6  27.1  33310  275.35 0865.16
2015 04 09 07 45 21 .29      -8    -26     15     28     31 198.5  29.3  33328  275.63 0865.16
2015 04 09 07 45 21 .54     -13    -22     20     26     32 210.7  43.7  33354  276.08 0865.15
2015 04 09 07 45 21 .80     -17    -27     26     33     42 212.6  42.7  33360  276.16 0865.15
2015 04 09 07 45 22 .05     -11    -36     24     38     44 198.3  35.5  33352  276.03 0865.15
2015 04 09 07 45 22 .30     -23    -35     28     42     50 213.4  36.5  33346  275.93 0865.15
2015 04 09 07 45 22 .55     -26    -34     24     44     50 217.8  31.4  33334  275.73 0865.15
2015 04 09 07 45 22 .80     -23    -35     22     43     48 213.4  29.3  33342  275.86 0865.15
2015 04 09 07 45 23 .05      -6    -30     10     31     33 191.6  19.2  33322  275.53 0865.15
2015 04 09 07 45 23 .30     -11    -37     13     39     42 196.9  18.4  33316  275.45 0865.15
2015 04 09 07 45 23 .55     -11    -36     24     38     44 198.3  35.5  33318  275.48 0865.15
2015 04 09 07 45 23 .81     -12    -27     24     30     38 205.4  43.7  33324  275.58 0865.15
2015 04 09 07 45 24 .05      -9    -41     22     43     48 192.5  29.3  33326  275.62 0865.15
2015 04 09 07 45 24 .32     -12    -36     13     39     42 198.7  19.4  33338  275.80 0865.15
2015 04 09 07 45 24 .56      -6    -31     17     32     36 191.6  29.3  33366  276.26 0865.15
2015 04 09 07 45 24 .80     -20    -27     21     34     39 216.1  34.4  33342  275.86 0865.15
2015 04 09 07 45 25 .06     -24    -30     13     39     42 219.6  19.4  33338  275.80 0865.16
2015 04 09 07 45 25 .31     -17    -42     19     46     49 202.7  23.0  33336  275.78 0865.16
2015 04 09 07 45 25 .56     -27    -51     24     58     62 208.1  23.1  33330  275.68 0865.16
2015 04 09 07 45 25 .81     -24    -53     11     59     61 204.5  11.1  33320  275.52 0865.16
2015 04 09 07 45 26 .06      -8    -57      7     58     59 188.9   6.9  33308  275.30 0865.16
2015 04 09 07 45 26 .31     -17    -53     -6     56     57 197.8  -6.2  33302  275.20 0865.16
2015 04 09 07 45 26 .56     -17    -53     -6     56     57 197.8  -6.2  33308  275.30 0865.16
2015 04 09 07 45 26 .81     -33    -70      7     78     79 205.4   5.4  33306  275.29 0865.16
2015 04 09 07 45 27 .06     -27    -69      5     75     76 201.9   3.8  33296  275.12 0865.16
2015 04 09 07 45 27 .31     -36    -66    -11     76     77 208.9  -8.2  33300  275.17 0865.16
2015 04 09 07 45 27 .57     -45    -73     -3     86     87 211.6  -2.2  33310  275.35 0865.16
2015 04 09 07 45 27 .82     -42    -68     -5     81     82 211.6  -4.1  33310  275.35 0865.16
2015 04 09 07 45 28 .07     -41    -65      2     78     79 212.5   1.8  33310  275.35 0865.16
2015 04 09 07 45 28 .31     -46    -60     15     76     78 217.8  11.6  33322  275.55 0865.16
2015 04 09 07 45 28 .57     -32    -58     26     67     71 209.0  22.0  33322  275.55 0865.16
2015 04 09 07 45 28 .82     -35    -64     14     74     76 208.9  11.0  33300  275.17 0865.16
2015 04 09 07 45 29 .08     -32    -68      9     76     77 205.5   6.9  33298  275.14 0865.16
2015 04 09 07 45 29 .33     -38    -69     11     79     80 209.0   8.0  33298  275.15 0865.16
2015 04 09 07 45 29 .58     -38    -60      3     72     73 212.5   2.9  33298  275.14 0865.16
2015 04 09 07 45 29 .83     -28    -62      7     69     70 204.5   5.9  33296  275.12 0865.16
2015 04 09 07 45 30 .08     -37    -60      3     71     72 211.6   2.9  33300  275.19 0865.16
2015 04 09 07 45 30 .33     -33    -61      3     70     71 208.9   2.8  33300  275.17 0865.16
2015 04 09 07 45 30 .58     -33    -70      2     78     79 205.4   1.8  33292  275.05 0865.16
2015 04 09 07 45 30 .83     -42    -70      6     82     83 211.2   4.4  33292  275.05 0865.16
2015 04 09 07 45 31 .08     -36    -57     -1     68     69 212.5  -1.2  33298  275.14 0865.16
2015 04 09 07 45 31 .33     -24    -61     -2     66     67 201.8  -2.2  33298  275.15 0865.16
2015 04 09 07 45 31 .58     -26    -64      2     70     71 201.8   1.8  33298  275.15 0865.16
2015 04 09 07 45 31 .83     -20    -61     -2     65     66 198.5  -2.2  33298  275.14 0865.16
2015 04 09 07 45 32 .08     -28    -53     -4     61     62 208.1  -4.1  33298  275.15 0865.16
2015 04 09 07 45 32 .33     -27    -69      5     75     76 201.9   3.8  33298  275.15 0865.16
2015 04 09 07 45 32 .59     -33    -61      8     70     71 208.9   7.1  33294  275.09 0865.16
2015 04 09 07 45 32 .84     -33    -61      3     70     71 208.9   2.8  33300  275.17 0865.16
2015 04 09 07 45 33 .09     -32    -57      4     66     67 209.0   3.8  33292  275.04 0865.16
2015 04 09 07 45 33 .34     -24    -63      3     68     69 200.9   2.9  33296  275.10 0865.16
2015 04 09 07 45 33 .59     -26    -50      2     57     58 208.1   2.8  33296  275.10 0865.16
2015 04 09 07 45 33 .84     -26    -58      2     64     65 204.5   1.8  33296  275.12 0865.16
2015 04 09 07 45 34 .09     -30    -54      6     62     63 209.0   5.9  33300  275.17 0865.16
2015 04 09 07 45 34 .34     -32    -54      7     63     64 210.7   6.9  33298  275.15 0865.16
2015 04 09 07 45 34 .59     -26    -50      2     57     58 208.1   2.8  33296  275.10 0865.16
2015 04 09 07 45 34 .84     -32    -58     -8     67     68 209.0  -7.2  33292  275.04 0865.16
2015 04 09 07 45 35 .09     -26    -50      2     57     58 208.1   2.8  33296  275.10 0865.16
2015 04 09 07 45 35 .34     -28    -53     -1     61     62 208.1  -1.2  33294  275.09 0865.16
2015 04 09 07 45 35 .60     -30    -54    -12     62     64 209.0 -11.3  33292  275.04 0865.16
2015 04 09 07 45 35 .85     -23    -50      0     56     57 205.3  -0.3  33298  275.14 0865.16
2015 04 09 07 45 36 .10     -26    -43     -2     51     52 211.6  -2.2  33298  275.14 0865.16
2015 04 09 07 45 36 .35     -35    -49     -4     61     62 215.2  -4.1  33296  275.10 0865.16
2015 04 09 07 45 36 .60     -23    -50     -6     56     57 205.3  -6.2  33294  275.07 0865.16
2015 04 09 07 45 36 .85     -37    -44     -7     58     59 219.6  -7.3  33294  275.09 0865.16
2015 04 09 07 45 37 .11     -38    -46    -14     61     63 219.6 -13.4  33290  275.01 0865.16
2015 04 09 07 45 37 .36     -41    -42     -9     59     60 224.1  -9.3  33286  274.96 0865.16
2015 04 09 07 45 37 .61     -48    -48    -12     69     71 225.0 -10.3  33288  274.99 0865.16
2015 04 09 07 45 37 .86     -45    -55     -9     72     73 219.7  -7.3  33290  275.01 0865.16
2015 04 09 07 45 38 .11     -47    -64      6     80     81 216.1   4.9  33292  275.04 0865.16
2015 04 09 07 45 38 .36     -41    -65      7     78     79 212.5   5.4  33288  274.99 0865.16
2015 04 09 07 45 38 .61     -37    -54      4     66     67 214.3   3.8  33288  274.99 0865.16
2015 04 09 07 45 38 .86     -36    -50     -1     62     63 216.1  -1.3  33294  275.09 0865.16
2015 04 09 07 45 39 .11     -40    -49     -2     64     65 219.6  -2.2  33294  275.09 0865.16
2015 04 09 07 45 39 .36     -50    -47     -2     69     70 226.8  -2.2  33290  275.01 0865.16
2015 04 09 07 45 39 .61     -50    -47     -8     69     70 226.9  -7.2  33294  275.09 0865.15
2015 04 09 07 45 39 .86     -48    -40    -13     63     65 230.5 -12.4  33292  275.05 0865.15
2015 04 09 07 45 40 .12     -34    -24     -1     42     43 234.9  -2.2  33318  275.48 0865.15
2015 04 09 07 45 40 .37     -28    -37      8     47     48 217.0  10.1  33334  275.75 0865.15
2015 04 09 07 45 40 .61     -17    -36     32     40     51 205.5  43.7  33334  275.73 0865.15
2015 04 09 07 45 40 .86     -24    -38     45     46     64 212.5  51.1  33330  275.68 0865.15
2015 04 09 07 45 41 .11     -30    -31     28     44     52 224.1  35.5  33330  275.68 0865.15
2015 04 09 07 45 41 .36     -24    -38     19     46     49 212.5  23.0  33324  275.58 0865.15
2015 04 09 07 45 41 .62     -19    -31     24     37     44 212.5  36.5  33330  275.68 0865.15
2015 04 09 07 45 41 .86     -26    -42     24     50     55 212.5  27.3  33324  275.58 0865.15
2015 04 09 07 45 42 .12     -36    -32      5     49     50 228.7   5.9  33312  275.39 0865.15
2015 04 09 07 45 42 .37     -40    -41     -3     58     59 224.1  -3.1  33292  275.04 0865.15
2015 04 09 07 45 42 .63     -38    -46     -2     61     62 219.6  -2.2  33298  275.15 0865.15
2015 04 09 07 45 42 .88     -33    -47     -2     58     59 215.2  -2.2  33300  275.19 0865.15
2015 04 09 07 45 43 .13     -31    -42     -6     53     54 217.0  -7.3  33296  275.12 0865.15
2015 04 09 07 45 43 .38     -31    -42     -6     53     54 217.0  -7.3  33292  275.04 0865.15
2015 04 09 07 45 43 .63     -32    -39     -2     51     52 219.6  -2.2  33294  275.09 0865.15
2015 04 09 07 45 43 .88     -29    -45     -6     54     55 212.5  -7.2  33298  275.15 0865.15
2015 04 09 07 45 44 .13     -33    -47    -11     58     60 215.2 -11.3  33290  275.01 0865.15
2015 04 09 07 45 44 .38     -31    -42     -6     53     54 217.0  -7.3  33292  275.04 0865.15
2015 04 09 07 45 44 .63     -35    -42     -6     55     56 219.7  -6.2  33290  275.01 0865.15
2015 04 09 07 45 44 .89     -35    -42     -6     55     56 219.6  -6.2  33292  275.05 0865.15
2015 04 09 07 45 45 .13     -35    -35     -3     50     51 225.0  -4.1  33286  274.96 0865.15
2015 04 09 07 45 45 .38     -35    -42     -6     55     56 219.7  -6.2  33290  275.01 0865.15
2015 04 09 07 45 45 .64     -36    -42     -4     56     57 220.5  -4.1  33292  275.05 0865.15
2015 04 09 07 45 45 .89     -40    -50     -3     65     66 218.7  -3.1  33304  275.24 0865.15
2015 04 09 07 45 46 .14     -46    -54     -2     72     73 220.5  -2.2  33298  275.14 0865.15
2015 04 09 07 45 46 .39     -42    -54     -5     69     70 217.8  -4.1  33308  275.30 0865.15
2015 04 09 07 45 46 .64     -45    -49     -8     67     68 222.3  -7.2  33308  275.32 0865.15
2015 04 09 07 45 46 .89     -48    -48    -12     69     71 225.0 -10.3  33306  275.29 0865.15
2015 04 09 07 45 47 .14     -53    -43     -3     69     70 231.4  -3.1  33316  275.43 0865.15
2015 04 09 07 45 47 .39     -56    -47     -1     74     75 230.4  -1.2  33324  275.58 0865.15
2015 04 09 07 45 47 .64     -47    -45      3     66     67 225.9   2.8  33336  275.77 0865.15
2015 04 09 07 45 47 .89     -48    -57     -5     75     76 220.5  -4.1  33308  275.30 0865.15
2015 04 09 07 45 48 .15     -37    -54      4     66     67 214.3   3.8  33324  275.58 0865.15
2015 04 09 07 45 48 .39     -45    -49      3     67     68 222.3   2.9  33340  275.83 0865.15
2015 04 09 07 45 48 .64     -37    -32     20     50     53 228.7  22.0  33352  276.03 0865.15
2015 04 09 07 45 48 .89     -31    -32      9     45     47 224.2  12.2  33342  275.88 0865.15
2015 04 09 07 45 49 .14      -6    -31     17     32     36 191.6  29.3  33328  275.65 0865.15
2015 04 09 07 45 49 .40     -26    -26     24     37     44 225.0  36.5  33330  275.68 0865.15
2015 04 09 07 45 49 .65     -47    -39      1     62     63 230.4   1.8  33322  275.55 0865.15
2015 04 09 07 45 49 .91     -39    -35     10     53     55 227.8  11.0  33316  275.43 0865.15
2015 04 09 07 45 50 .15     -43    -36      3     57     58 230.5   3.8  33310  275.34 0865.15
2015 04 09 07 45 50 .41     -48    -36      7     61     62 233.1   6.9  33310  275.35 0865.15
2015 04 09 07 45 50 .66     -53    -54     20     76     79 224.2  14.7  33314  275.40 0865.15
2015 04 09 07 45 50 .91     -42    -53     13     68     70 218.7  11.1  33318  275.48 0865.15
2015 04 09 07 45 51 .16     -53    -49      8     73     74 226.8   6.9  33310  275.34 0865.15
2015 04 09 07 45 51 .41     -50    -58      0     77     78 220.5  -0.3  33308  275.32 0865.15
2015 04 09 07 45 51 .66     -45    -54      3     71     72 219.7   2.8  33298  275.15 0865.15
2015 04 09 07 45 51 .91     -46    -47     -2     66     67 224.2  -2.2  33298  275.14 0865.15
2015 04 09 07 45 52 .16     -51    -39     -8     65     66 232.2  -7.2  33294  275.09 0865.15
2015 04 09 07 45 52 .42     -50    -32    -15     60     63 237.6 -14.5  33308  275.30 0865.15
2015 04 09 07 45 52 .66     -59    -24     -3     64     65 247.4  -3.2  33338  275.80 0865.15
2015 04 09 07 45 52 .91     -46    -38     16     61     64 230.4  15.3  33330  275.67 0865.15
2015 04 09 07 45 53 .17     -40    -59     22     72     76 214.3  17.3  33326  275.60 0865.15
2015 04 09 07 45 53 .41     -33    -70      7     78     79 205.4   5.4  33324  275.58 0865.15
2015 04 09 07 45 53 .66     -35    -81     14     89     91 203.6   9.0  33322  275.53 0865.15
2015 04 09 07 45 53 .92     -52    -62     10     82     83 220.1   7.5  33344  275.90 0865.15
2015 04 09 07 45 54 .16     -39    -54     23     67     71 216.0  19.2  33346  275.93 0865.15
2015 04 09 07 45 54 .41     -41    -50     24     65     69 219.7  20.0  33342  275.88 0865.15
2015 04 09 07 45 54 .67     -33    -47     15     58     61 215.2  15.2  33346  275.93 0865.15
2015 04 09 07 45 54 .93     -34    -54     22     65     69 212.5  19.4  33348  275.96 0865.15
2015 04 09 07 45 55 .17     -32    -51     17     61     64 211.6  16.3  33348  275.96 0865.15
2015 04 09 07 45 55 .42     -29    -62     23     69     74 205.5  18.9  33344  275.90 0865.15
2015 04 09 07 45 55 .67     -26    -64      8     70     71 201.8   7.1  33330  275.68 0865.15
2015 04 09 07 45 55 .92     -35    -64     14     74     76 208.9  11.0  33328  275.63 0865.15
2015 04 09 07 45 56 .17     -24    -62      3     67     68 201.8   2.9  33330  275.68 0865.15
2015 04 09 07 45 56 .43     -34    -62     -2     71     72 209.0  -2.2  33326  275.62 0865.15
2015 04 09 07 45 56 .68     -49    -66    -13     83     85 217.0  -9.3  33340  275.83 0865.15
2015 04 09 07 45 56 .93     -42    -66      1     79     80 212.5   0.8  33346  275.95 0865.15
2015 04 09 07 45 57 .18     -32    -97    -10    103    104 198.5  -5.6  33352  276.03 0865.15
2015 04 09 07 45 57 .43     -16    -92      4     94     95 190.2   2.9  33352  276.05 0865.15
2015 04 09 07 45 57 .68     -28    -70     -1     76     77 201.8  -1.2  33352  276.03 0865.15
2015 04 09 07 45 57 .94     -21    -62      3     66     67 198.7   2.8  33348  275.96 0865.16
2015 04 09 07 45 58 .18     -12    -60      5     62     63 191.6   4.9  33352  276.03 0865.16
2015 04 09 07 45 58 .43     -14    -72      8     74     75 191.5   6.9  33354  276.08 0865.16
2015 04 09 07 45 58 .69      -5    -68      3     69     70 184.5   2.8  33344  275.90 0865.16
2015 04 09 07 45 58 .93     -14    -58     -9     60     61 194.3  -9.3  33340  275.85 0865.16
2015 04 09 07 45 59 .19     -10    -61      5     62     63 189.8   4.9  33354  276.08 0865.16
2015 04 09 07 45 59 .44       5    -68      3     69     70 175.6   2.8  33344  275.90 0865.16
2015 04 09 07 45 59 .69       8    -76      5     77     78 173.8   3.8  33340  275.85 0865.16
2015 04 09 07 45 59 .94      -1    -71     -3     72     73 180.9  -3.1  33352  276.03 0865.16
2015 04 09 07 46 00 .19      -9    -72      1     73     74 187.1   0.8  33358  276.13 0865.16
2015 04 09 07 46 00 .44      -3    -67     -6     68     69 182.7  -5.2  33334  275.75 0865.16
2015 04 09 07 46 00 .69      -7    -62    -20     63     66 187.1 -23.8  33296  275.12 0865.16
2015 04 09 07 46 00 .94      -6    -61    -20     62     65 186.2 -23.8  33290  275.01 0865.16
2015 04 09 07 46 01 .19      -6    -60    -18     61     64 186.2 -16.6  33286  274.94 0865.16
2015 04 09 07 46 01 .44      -4    -56    -15     57     60 184.5 -15.4  33286  274.96 0865.16
2015 04 09 07 46 01 .69     -13    -65    -18     67     70 191.5 -15.4  33286  274.94 0865.16
2015 04 09 07 46 01 .94     -19    -57    -18     61     63 198.7 -21.7  33286  274.94 0865.16
2015 04 09 07 46 02 .19     -14    -58    -18     60     63 194.3 -16.6  33282  274.89 0865.16
2015 04 09 07 46 02 .44     -16    -60    -21     63     67 195.1 -18.7  33284  274.91 0865.15
2015 04 09 07 46 02 .70     -20    -61    -18     65     68 198.5 -15.4  33286  274.94 0865.15
2015 04 09 07 46 02 .94     -18    -59    -18     62     64 197.8 -21.7  33294  275.09 0865.15
2015 04 09 07 46 03 .20     -17    -53    -12     56     58 197.8 -12.4  33304  275.24 0865.15
2015 04 09 07 46 03 .46     -35    -54     -2     65     66 213.4  -2.2  33318  275.47 0865.15
2015 04 09 07 46 03 .71     -29    -61      4     68     69 205.4   3.8  33320  275.50 0865.15
2015 04 09 07 46 03 .96     -35    -72     13     81     83 206.3   9.5  33312  275.39 0865.15
2015 04 09 07 46 04 .21     -26    -73      7     78     79 200.0   5.4  33310  275.34 0865.15
2015 04 09 07 46 04 .46     -26    -65      2     71     72 201.9   1.8  33304  275.25 0865.15
2015 04 09 07 46 04 .71     -26    -58      2     64     65 204.5   1.8  33298  275.15 0865.15
2015 04 09 07 46 04 .96     -22    -58      6     63     64 200.9   5.9  33296  275.10 0865.15
2015 04 09 07 46 05 .21     -24    -54      3     60     61 204.5   2.9  33298  275.14 0865.15
2015 04 09 07 46 05 .46     -22    -50     -6     55     56 203.6  -6.2  33302  275.20 0865.15
2015 04 09 07 46 05 .71     -26    -50     -2     57     58 208.1  -2.2  33298  275.14 0865.15
2015 04 09 07 46 05 .96     -28    -53     -1     61     62 208.1  -1.2  33298  275.14 0865.15
2015 04 09 07 46 06 .21     -18    -49     -2     53     54 200.9  -2.2  33296  275.10 0865.15
2015 04 09 07 46 06 .46     -18    -49     -2     53     54 200.9  -2.2  33296  275.10 0865.15
2015 04 09 07 46 06 .71     -18    -49     -2     53     54 200.9  -2.2  33296  275.10 0865.15
2015 04 09 07 46 06 .96     -17    -54     -2     57     58 198.3  -2.2  33306  275.29 0865.15
2015 04 09 07 46 07 .21     -26    -57      8     63     64 204.5   8.0  33298  275.14 0865.15
2015 04 09 07 46 07 .46     -28    -53     -1     61     62 208.1  -1.2  33298  275.14 0865.15
2015 04 09 07 46 07 .72     -24    -62      5     67     68 201.8   4.9  33294  275.07 0865.15
2015 04 09 07 46 07 .96     -26    -65      2     71     72 201.9   1.8  33286  274.96 0865.15
2015 04 09 07 46 08 .22     -32    -57      4     66     67 209.0   3.8  33292  275.04 0865.15
2015 04 09 07 46 08 .47     -35    -49     -4     61     62 215.2  -4.1  33296  275.10 0865.15
2015 04 09 07 46 08 .72     -26    -50     -2     57     58 208.1  -2.2  33298  275.14 0865.15
2015 04 09 07 46 08 .97     -26    -65     -3     71     72 201.8  -3.1  33292  275.04 0865.15
2015 04 09 07 46 09 .22     -29    -61     -1     68     69 205.3  -1.2  33298  275.14 0865.15
2015 04 09 07 46 09 .47     -32    -57      4     66     67 209.0   3.8  33300  275.19 0865.15
2015 04 09 07 46 09 .72     -29    -61     13     68     70 205.4  11.1  33298  275.14 0865.15
2015 04 09 07 46 09 .97     -28    -53      7     61     62 208.1   6.9  33290  275.01 0865.15
2015 04 09 07 46 10 .22     -28    -53      7     61     62 208.1   6.9  33290  275.01 0865.15
2015 04 09 07 46 10 .48     -28    -53      7     61     62 208.1   6.9  33290  275.01 0865.15
2015 04 09 07 46 10 .73     -32    -52      8     62     63 211.6   8.0  33288  274.99 0865.15
2015 04 09 07 46 10 .98     -24    -54      5     60     61 204.5   4.9  33288  274.99 0865.15
2015 04 09 07 46 11 .23     -27    -58      3     65     66 205.4   2.8  33286  274.96 0865.15
2015 04 09 07 46 11 .49     -20    -61      3     65     66 198.5   2.8  33284  274.91 0865.15
2015 04 09 07 46 11 .73     -24    -62      3     67     68 201.8   2.9  33286  274.94 0865.15
2015 04 09 07 46 11 .98     -23    -57      7     62     63 201.9   6.9  33286  274.96 0865.15
2015 04 09 07 46 12 .24     -24    -62      3     67     68 201.8   2.9  33288  274.99 0865.15
2015 04 09 07 46 12 .49     -16    -61     -1     64     65 195.1  -1.2  33286  274.94 0865.15
2015 04 09 07 46 12 .74     -24    -62     -2     67     68 201.8  -2.2  33290  275.01 0865.15
2015 04 09 07 46 12 .99     -22    -58      0     63     64 200.9  -0.3  33292  275.04 0865.15
2015 04 09 07 46 13 .24     -24    -62     -2     67     68 201.8  -2.2  33290  275.01 0865.15
2015 04 09 07 46 13 .49     -18    -65     -2     68     69 196.0  -2.2  33286  274.96 0865.15
2015 04 09 07 46 13 .74     -22    -58      0     63     64 200.9  -0.3  33292  275.04 0865.15
2015 04 09 07 46 13 .99     -24    -50     -2     56     57 206.3  -2.2  33296  275.12 0865.15
2015 04 09 07 46 14 .24     -31    -49      3     59     60 212.5   3.8  33298  275.14 0865.15
2015 04 09 07 46 14 .49     -31    -48     -1     58     59 212.5  -1.3  33296  275.10 0865.15
2015 04 09 07 46 14 .74     -29    -45      0     54     55 212.5  -0.3  33294  275.09 0865.15
2015 04 09 07 46 14 .99     -24    -54     -2     60     61 204.5  -2.2  33298  275.15 0865.15
2015 04 09 07 46 15 .24     -31    -49     -2     59     60 212.5  -2.2  33296  275.10 0865.15
2015 04 09 07 46 15 .49     -26    -58      2     64     65 204.5   1.8  33292  275.05 0865.15
2015 04 09 07 46 15 .74     -21    -62     -3     66     67 198.7  -3.1  33288  274.99 0865.15
2015 04 09 07 46 15 .99     -17    -50     -6     53     54 199.2  -7.3  33300  275.19 0865.15
2015 04 09 07 46 16 .24     -21    -55     -3     59     60 200.9  -3.1  33298  275.14 0865.15
2015 04 09 07 46 16 .49     -21    -62     -3     66     67 198.7  -3.1  33292  275.04 0865.15
2015 04 09 07 46 16 .75     -26    -56     -3     63     64 205.3  -3.1  33294  275.09 0865.15
2015 04 09 07 46 17 .00     -26    -50      2     57     58 208.1   2.8  33296  275.10 0865.15
2015 04 09 07 46 17 .25     -21    -55     -3     59     60 200.9  -3.1  33298  275.14 0865.15
2015 04 09 07 46 17 .51     -22    -58      0     63     64 200.9  -0.3  33292  275.04 0865.15
2015 04 09 07 46 17 .76     -27    -51    -10     58     59 208.1 -10.3  33286  274.96 0865.15
2015 04 09 07 46 18 .01     -21    -55     -3     59     60 200.9  -3.1  33294  275.09 0865.15
2015 04 09 07 46 18 .26     -23    -46     -6     52     53 207.2  -7.3  33298  275.14 0865.15
2015 04 09 07 46 18 .51     -13    -49    -11     51     53 195.1 -12.4  33296  275.10 0865.15
2015 04 09 07 46 18 .76     -17    -50     -6     53     54 199.2  -7.3  33296  275.12 0865.15
2015 04 09 07 46 19 .01     -22    -46     -7     52     53 205.4  -8.2  33298  275.15 0865.15
2015 04 09 07 46 19 .27     -16    -48    -14     51     53 198.5 -15.4  33314  275.40 0865.15
2015 04 09 07 46 19 .51     -24    -53     12     59     61 204.5  12.2  33350  276.01 0865.15
2015 04 09 07 46 19 .77     -23    -68      8     72     73 198.7   6.9  33364  276.25 0865.15
2015 04 09 07 46 20 .01     -21    -66     11     70     71 197.8   9.0  33344  275.91 0865.15
2015 04 09 07 46 20 .27     -21    -71      0     75     76 196.9  -0.3  33306  275.27 0865.15
2015 04 09 07 46 20 .52     -20    -67     -9     71     72 196.9  -7.3  33322  275.55 0865.15
2015 04 09 07 46 20 .76     -28    -62     -5     69     70 204.5  -4.1  33296  275.10 0865.15
2015 04 09 07 46 21 .02     -26    -65     -3     71     72 201.8  -3.1  33292  275.04 0865.15
2015 04 09 07 46 21 .27     -23    -59      5     64     65 201.9   4.9  33342  275.86 0865.15
2015 04 09 07 46 21 .52     -20    -61      3     65     66 198.5   2.8  33308  275.32 0865.15
2015 04 09 07 46 21 .77     -22    -58      0     63     64 200.9  -0.3  33298  275.14 0865.15
2015 04 09 07 46 22 .02     -22    -58      0     63     64 200.9  -0.3  33292  275.04 0865.15
2015 04 09 07 46 22 .27     -22    -58      0     63     64 200.9  -0.3  33292  275.04 0865.15
2015 04 09 07 46 22 .52     -18    -65     -2     68     69 196.0  -2.2  33286  274.96 0865.16
2015 04 09 07 46 22 .77     -19    -54      2     58     59 199.2   2.9  33290  275.01 0865.16
2015 04 09 07 46 23 .02     -20    -61      3     65     66 198.5   2.8  33290  275.02 0865.16
2015 04 09 07 46 23 .27     -18    -65     -2     68     69 196.0  -2.2  33286  274.96 0865.16
2015 04 09 07 46 23 .52     -17    -53      1     56     57 198.7   1.8  33288  274.97 0865.16
2015 04 09 07 46 23 .77     -20    -61      3     65     66 198.5   2.8  33284  274.91 0865.16
2015 04 09 07 46 24 .02     -27    -58      3     65     66 205.4   2.8  33290  275.01 0865.16
2015 04 09 07 46 24 .28     -24    -54      5     60     61 204.5   4.9  33288  274.99 0865.16
2015 04 09 07 46 24 .53     -24    -54      5     60     61 204.5   4.9  33288  274.99 0865.16
2015 04 09 07 46 24 .78     -26    -58      2     64     65 204.5   1.8  33292  275.05 0865.16
2015 04 09 07 46 25 .03     -24    -54      5     60     61 204.5   4.9  33288  274.99 0865.16
2015 04 09 07 46 25 .28     -23    -57      7     62     63 201.9   6.9  33286  274.96 0865.16
2015 04 09 07 46 25 .53     -28    -49      2     57     58 209.9   2.8  33292  275.05 0865.16
2015 04 09 07 46 25 .79     -28    -53      7     61     62 208.1   6.9  33290  275.01 0865.16
2015 04 09 07 46 26 .04     -23    -50      0     56     57 205.3  -0.3  33294  275.09 0865.15
2015 04 09 07 46 26 .29     -41    -56      3     70     71 216.0   2.8  33296  275.10 0865.15
2015 04 09 07 46 26 .54     -34    -53      2     64     65 212.5   1.8  33296  275.12 0865.15
2015 04 09 07 46 26 .79     -32    -68      9     76     77 205.5   6.9  33294  275.09 0865.15
2015 04 09 07 46 27 .04     -38    -60      3     72     73 212.5   2.9  33298  275.14 0865.15
2015 04 09 07 46 27 .29     -23    -65      3     70     71 200.0   2.8  33296  275.10 0865.15
2015 04 09 07 46 27 .54     -34    -62      2     71     72 208.9   1.8  33302  275.22 0865.15
2015 04 09 07 46 27 .80     -25    -63     -1     68     69 201.9  -1.3  33308  275.30 0865.15
2015 04 09 07 46 28 .04     -21    -65      0     69     70 198.3  -0.3  33330  275.68 0865.16
2015 04 09 07 46 28 .29     -26    -66    -11     72     73 201.9  -9.3  33296  275.10 0865.16
2015 04 09 07 46 28 .55     -28    -59     -8     66     67 205.4  -7.3  33296  275.10 0865.16
2015 04 09 07 46 28 .80     -20    -62    -10     66     67 198.5  -9.3  33310  275.35 0865.16
2015 04 09 07 46 29 .04     -18    -65     -2     68     69 196.0  -2.2  33304  275.25 0865.16
2015 04 09 07 46 29 .30     -19    -56     -7     60     61 198.7  -7.3  33298  275.14 0865.16
2015 04 09 07 46 29 .55     -27    -51    -10     58     59 208.1 -10.3  33304  275.25 0865.16
2015 04 09 07 46 29 .79     -26    -55    -13     61     63 205.4 -12.4  33302  275.20 0865.16
2015 04 09 07 46 30 .05     -23    -50    -13     56     58 205.3 -13.4  33306  275.29 0865.16
2015 04 09 07 46 30 .30     -25    -55    -16     61     64 204.5 -15.4  33302  275.22 0865.16
2015 04 09 07 46 30 .56     -17    -53     -9     56     57 198.3  -9.3  33334  275.75 0865.16
2015 04 09 07 46 30 .80     -31    -42      4     53     54 217.0   4.9  33352  276.03 0865.16
2015 04 09 07 46 31 .05     -20    -38     24     44     50 208.1  31.4  33364  276.23 0865.16
2015 04 09 07 46 31 .31     -15    -31     16     35     38 207.2  25.1  33360  276.18 0865.16
2015 04 09 07 46 31 .56       0    -48     -1     49     50 180.9  -2.2  33352  276.03 0865.16
2015 04 09 07 46 31 .81      -9    -48     -5     49     50 190.7  -6.2  33350  276.01 0865.16
2015 04 09 07 46 32 .06     -14    -48      2     51     52 196.9   2.9  33350  276.01 0865.16
2015 04 09 07 46 32 .31       0    -53      4     54     55 179.1   4.9  33330  275.68 0865.16
2015 04 09 07 46 32 .56      -8    -57      0     58     59 188.9  -0.3  33294  275.09 0865.17
2015 04 09 07 46 32 .81     -21    -62     -3     66     67 198.7  -3.1  33288  274.99 0865.17
2015 04 09 07 46 33 .06     -18    -65     -2     68     69 196.0  -2.2  33286  274.96 0865.17
2015 04 09 07 46 33 .31     -21    -62     -3     66     67 198.7  -3.1  33288  274.99 0865.17
2015 04 09 07 46 33 .57     -21    -62     -3     66     67 198.7  -3.1  33288  274.99 0865.17
2015 04 09 07 46 33 .81     -19    -54     -3     58     59 199.2  -3.1  33292  275.04 0865.17
2015 04 09 07 46 34 .07     -11    -53     -2     55     56 191.6  -2.2  33290  275.01 0865.17
2015 04 09 07 46 34 .32     -13    -65      3     67     68 191.5   2.8  33290  275.02 0865.16
2015 04 09 07 46 34 .58     -12    -65     -3     67     68 190.7  -3.2  33304  275.25 0865.16
2015 04 09 07 46 34 .82     -16    -68      1     70     71 193.4   0.8  33298  275.14 0865.16
2015 04 09 07 46 35 .07     -24    -62      3     67     68 201.8   2.9  33304  275.24 0865.16
2015 04 09 07 46 35 .32     -32    -57      4     66     67 209.0   3.8  33300  275.19 0865.16
2015 04 09 07 46 35 .57     -16    -61     -5     64     65 195.1  -5.2  33300  275.17 0865.16
2015 04 09 07 46 35 .82     -26    -59    -10     65     66 204.5  -9.3  33302  275.20 0865.16
2015 04 09 07 46 36 .08     -20    -62    -20     66     68 198.5 -22.8  33316  275.45 0865.16
2015 04 09 07 46 36 .32     -22    -58    -12     63     65 200.9 -11.3  33322  275.53 0865.16
2015 04 09 07 46 36 .58     -18    -65     -8     68     69 196.0  -7.2  33348  275.98 0865.16
2015 04 09 07 46 36 .83     -20    -68    -18     72     75 196.9 -14.5  33354  276.08 0865.16
2015 04 09 07 46 37 .07      -4    -66    -13     67     69 183.6 -11.3  33394  276.73 0865.16
2015 04 09 07 46 37 .32      -1    -64      3     65     66 180.9   2.8  33374  276.41 0865.16
2015 04 09 07 46 37 .57       0    -63      2     64     65 180.9   1.8  33368  276.31 0865.16
2015 04 09 07 46 37 .83      -4    -66    -13     67     69 183.6 -11.3  33364  276.23 0865.16
2015 04 09 07 46 38 .07     -15    -76     -6     78     79 191.6  -4.6  33350  276.00 0865.16
2015 04 09 07 46 38 .34     -10    -68     -8     69     70 188.9  -7.3  33354  276.08 0865.16
2015 04 09 07 46 38 .59     -18    -66     -8     69     70 195.2  -7.3  33346  275.93 0865.16
2015 04 09 07 46 38 .84     -11    -57      0     59     60 191.6  -0.3  33358  276.13 0865.16
2015 04 09 07 46 39 .09     -14    -58     -3     60     61 194.3  -3.1  33370  276.33 0865.16
2015 04 09 07 46 39 .34     -24    -70     -9     75     76 199.2  -7.2  33376  276.44 0865.16
2015 04 09 07 46 39 .59     -11    -53     -2     55     56 191.6  -2.2  33356  276.11 0865.16
2015 04 09 07 46 39 .84      14    -62     12     64     66 166.6  11.1  33362  276.21 0865.16
2015 04 09 07 46 40 .09      21    -60     22     64     68 160.8  19.4  33366  276.28 0865.16
2015 04 09 07 46 40 .34       8    -61     16     62     65 172.0  14.3  33360  276.18 0865.16
2015 04 09 07 46 40 .59      -1    -54     32     55     63 181.8  32.4  33378  276.48 0865.16
2015 04 09 07 46 40 .84      10    -55     28     56     62 169.3  28.2  33360  276.18 0865.16
2015 04 09 07 46 41 .09      13    -32     26     35     43 158.2  40.7  33358  276.15 0865.16
2015 04 09 07 46 41 .34      20    -36     20     42     46 150.1  27.2  33354  276.08 0865.16
2015 04 09 07 46 41 .60      28    -42      7     51     52 145.7   8.0  33350  276.00 0865.16
2015 04 09 07 46 41 .84      22    -33     -9     40     42 145.7 -13.4  33346  275.95 0865.16
2015 04 09 07 46 42 .10      23    -34      3     42     43 145.7   4.9  33356  276.10 0865.16
2015 04 09 07 46 42 .34      27    -31     26     42     49 139.5  35.5  33370  276.34 0865.16
2015 04 09 07 46 42 .60      31    -31     30     45     54 135.0  36.5  33366  276.26 0865.16
2015 04 09 07 46 42 .85      31    -31     37     45     58 135.0  43.8  33372  276.38 0865.16
2015 04 09 07 46 43 .10      28    -35     34     46     57 141.3  40.7  33370  276.34 0865.16
2015 04 09 07 46 43 .35      27    -31     26     42     49 139.5  35.5  33364  276.25 0865.16
2015 04 09 07 46 43 .59      22    -33     15     40     42 145.7  21.0  33354  276.08 0865.16
2015 04 09 07 46 43 .85       7    -22      1     24     25 161.5   2.9  33346  275.93 0865.16
2015 04 09 07 46 44 .10      11    -41     10     43     45 164.9  13.2  33352  276.03 0865.16
2015 04 09 07 46 44 .35       0    -48     -1     49     50 180.9  -2.2  33328  275.63 0865.16
2015 04 09 07 46 44 .61       0    -63     -9     64     65 180.9  -8.2  33302  275.20 0865.16
2015 04 09 07 46 44 .85     -11    -84     -3     85     86 187.6  -2.2  33328  275.65 0865.16
2015 04 09 07 46 45 .11     -11    -83     -3     84     85 187.6  -2.2  33328  275.65 0865.16
2015 04 09 07 46 45 .36     -13    -78     -9     80     81 189.8  -6.7  33308  275.30 0865.16
2015 04 09 07 46 45 .61      -8    -79    -19     80     83 186.2 -13.9  33296  275.10 0865.16
2015 04 09 07 46 45 .87     -20    -84    -26     87     91 193.4 -16.6  33308  275.30 0865.16
2015 04 09 07 46 46 .11     -14    -81    -11     83     84 190.2  -7.7  33342  275.86 0865.16
2015 04 09 07 46 46 .37      -5    -75     -9     76     77 184.5  -7.3  33328  275.65 0865.16
2015 04 09 07 46 46 .62      12    -62     -8     64     65 168.4  -7.3  33364  276.23 0865.16
2015 04 09 07 46 46 .87      -1    -64     -3     65     66 180.9  -3.1  33372  276.38 0865.16
2015 04 09 07 46 47 .12      -1    -53     12     54     56 181.8  13.2  33360  276.16 0865.16
2015 04 09 07 46 47 .37       0    -49      9     50     51 180.9  11.1  33370  276.33 0865.16
2015 04 09 07 46 47 .62       1    -56    -11     57     59 178.2 -11.5  33312  275.39 0865.16
2015 04 09 07 46 47 .88       4    -52    -17     53     56 175.5 -18.7  33328  275.63 0865.16
2015 04 09 07 46 48 .12      -3    -38    -11     39     41 184.5 -16.6  33352  276.03 0865.16
2015 04 09 07 46 48 .37      -3    -34     -5     35     36 186.2  -9.3  33364  276.23 0865.16
2015 04 09 07 46 48 .62     -14    -26     12     30     32 209.0  23.0  33370  276.33 0865.16
2015 04 09 07 46 48 .87     -13    -22     32     26     41 210.7  56.4  33382  276.53 0865.16
2015 04 09 07 46 49 .12     -11    -23     33     26     42 205.4  57.5  33384  276.58 0865.16
2015 04 09 07 46 49 .37      -8    -26     35     28     44 198.5  57.5  33378  276.46 0865.16
2015 04 09 07 46 49 .62     -21    -45     17     50     53 205.3  18.9  33368  276.31 0865.16
2015 04 09 07 46 49 .87     -22    -47     15     52     55 205.3  16.3  33354  276.08 0865.16
2015 04 09 07 46 50 .12       7    -42     19     43     47 170.2  25.1  33346  275.93 0865.16
2015 04 09 07 46 50 .38      -1    -61     41     62     74 181.8  35.6  33354  276.08 0865.16
2015 04 09 07 46 50 .62      -1    -64     29     65     71 180.9  26.2  33362  276.21 0865.16
2015 04 09 07 46 50 .87      -3    -49     32     50     59 183.6  35.6  33368  276.30 0865.16
2015 04 09 07 46 51 .12       5    -56     20     57     61 174.7  19.4  33354  276.08 0865.16
2015 04 09 07 46 51 .37       5    -56     -7     57     58 174.7  -7.3  33316  275.43 0865.16
2015 04 09 07 46 51 .62      19    -58    -19     62     66 161.7 -17.6  33304  275.25 0865.16
2015 04 09 07 46 51 .88      19    -52    -20     56     60 159.1 -19.7  33300  275.17 0865.16
2015 04 09 07 46 52 .14      28    -60    -18     67     70 154.6 -15.4  33300  275.19 0865.16
2015 04 09 07 46 52 .39      17    -62    -10     65     66 164.0  -9.3  33298  275.15 0865.16
2015 04 09 07 46 52 .64      13    -77     -3     79     80 170.2  -2.2  33290  275.01 0865.16
2015 04 09 07 46 52 .89      21    -86     -6     89     90 165.7  -4.1  33290  275.02 0865.16
2015 04 09 07 46 53 .14      21    -93    -12     96     97 167.1  -7.3  33298  275.14 0865.16
2015 04 09 07 46 53 .39      27    -82    -12     87     88 161.3  -8.2  33294  275.09 0865.16
2015 04 09 07 46 53 .64      15    -81    -12     83     84 169.3  -8.2  33294  275.07 0865.16
2015 04 09 07 46 53 .90       9    -76     -8     77     78 172.9  -6.2  33324  275.57 0865.16
2015 04 09 07 46 54 .14       7    -83      0     84     85 174.7   0.2  33334  275.73 0865.16
2015 04 09 07 46 54 .39       0    -80     -3     81     82 180.5  -2.2  33300  275.19 0865.16
2015 04 09 07 46 54 .64       0    -75     -8     76     77 180.0  -6.2  33302  275.22 0865.16
2015 04 09 07 46 54 .89       1    -75     -9     76     77 179.1  -7.2  33304  275.24 0865.16
2015 04 09 07 46 55 .15       5    -81    -18     82     85 176.4 -12.9  33314  275.42 0865.16
2015 04 09 07 46 55 .40       5    -73     -9     74     75 175.5  -7.2  33342  275.88 0865.16
2015 04 09 07 46 55 .65       3    -64      0     65     66 177.3   0.8  33346  275.93 0865.16
2015 04 09 07 46 55 .90       1    -57      0     58     59 178.2  -0.3  33358  276.13 0865.16
2015 04 09 07 46 56 .15       1    -56     15     57     60 178.2  15.2  33364  276.23 0865.16
2015 04 09 07 46 56 .40       1    -57      0     58     59 178.2  -0.3  33370  276.33 0865.16
2015 04 09 07 46 56 .64       4    -55     15     56     59 175.6  15.3  33370  276.33 0865.16
2015 04 09 07 46 56 .91       7    -44     15     45     48 170.2  18.9  33364  276.23 0865.16
2015 04 09 07 46 57 .15      16    -51     15     54     57 162.2  16.3  33360  276.18 0865.16
2015 04 09 07 46 57 .40      21    -44     13     49     51 154.6  15.3  33356  276.10 0865.16
2015 04 09 07 46 57 .65      24    -35      3     43     44 145.7   4.9  33326  275.60 0865.16
2015 04 09 07 46 57 .90       8    -26      2     28     29 161.7   4.9  33316  275.45 0865.16
2015 04 09 07 46 58 .16       0    -26     17     27     31 180.9  35.5  33340  275.85 0865.16
2015 04 09 07 46 58 .41      -2    -31     21     32     38 184.5  35.6  33340  275.85 0865.16
2015 04 09 07 46 58 .65       0    -38     32     39     50 180.9  43.7  33352  276.03 0865.16
2015 04 09 07 46 58 .90       0    -45     26     46     52 180.9  32.4  33354  276.06 0865.16
2015 04 09 07 46 59 .17       4    -52     18     53     57 175.5  19.4  33356  276.11 0865.16
2015 04 09 07 46 59 .41      -4    -64     -2     65     66 184.4  -2.2  33338  275.80 0865.16
2015 04 09 07 46 59 .66      -8    -57     -5     58     59 188.9  -5.2  33310  275.35 0865.16
2015 04 09 07 46 59 .91       0    -61     -8     62     63 180.9  -7.3  33312  275.39 0865.16
2015 04 09 07 47 00 .17       4    -76     -9     77     78 176.4  -7.3  33328  275.65 0865.16
2015 04 09 07 47 00 .41       8    -61     -1     62     63 172.0  -1.3  33330  275.68 0865.16
2015 04 09 07 47 00 .67       5    -69    -20     70     72 175.5 -20.7  33372  276.36 0865.16
2015 04 09 07 47 00 .92       3    -57    -29     58     64 176.4 -32.6  33374  276.41 0865.16
2015 04 09 07 47 01 .17      13    -43    -14     45     47 163.1 -22.8  33372  276.38 0865.16
2015 04 09 07 47 01 .42       6    -10      0     13     14 147.5  -2.2  33372  276.36 0865.16
2015 04 09 07 47 01 .67      13    -23     26     27     37 149.3  52.0  33368  276.31 0865.16
2015 04 09 07 47 01 .92      20    -28     26     35     43 143.9  40.7  33374  276.39 0865.16
2015 04 09 07 47 02 .17      13    -16     20     21     29 140.4  52.0  33378  276.48 0865.16
2015 04 09 07 47 02 .42      10    -11     24     16     28 136.8  64.6  33382  276.53 0865.16
2015 04 09 07 47 02 .67       4    -24     24     25     34 170.2  52.0  33382  276.53 0865.16
2015 04 09 07 47 02 .92      20    -35     26     41     48 149.3  35.5  33368  276.31 0865.16
2015 04 09 07 47 03 .17       8    -76      5     77     78 173.8   3.8  33352  276.05 0865.16
2015 04 09 07 47 03 .43       6    -86    -15     87     89 175.6  -9.8  33302  275.20 0865.16
2015 04 09 07 47 03 .67      -1    -74    -12     75     77 181.0  -9.3  33294  275.09 0865.16
2015 04 09 07 47 03 .92      17    -77    -12     79     80 167.5  -8.8  33290  275.01 0865.16
2015 04 09 07 47 04 .17      16    -81    -18     83     86 168.4 -12.4  33292  275.04 0865.16
2015 04 09 07 47 04 .42      15    -96    -13     98     99 171.1  -7.7  33292  275.04 0865.16
2015 04 09 07 47 04 .68      23   -104    -12    107    108 167.1  -6.7  33292  275.05 0865.16
2015 04 09 07 47 04 .93      22   -108    -14    111    112 168.5  -7.3  33292  275.04 0865.16
2015 04 09 07 47 05 .18      29   -110    -29    114    118 164.9 -14.5  33288  274.99 0865.16
2015 04 09 07 47 05 .43      37   -111    -10    118    119 161.5  -5.2  33302  275.20 0865.16
2015 04 09 07 47 05 .68      40   -109     10    117    118 160.0   4.9  33344  275.91 0865.16
2015 04 09 07 47 05 .93      25   -115     10    118    119 167.5   4.9  33322  275.55 0865.16
2015 04 09 07 47 06 .19      13   -108    -14    109    110 172.9  -7.7  33290  275.01 0865.16
2015 04 09 07 47 06 .44      33    -81    -28     88     93 157.7 -17.6  33292  275.04 0865.16
2015 04 09 07 47 06 .69      39    -84    -33     93     98 155.1 -24.4  33294  275.07 0865.16
2015 04 09 07 47 06 .94      35    -86    -29     94     98 157.7 -21.7  33292  275.05 0865.16
2015 04 09 07 47 07 .19      24    -86    -25     90     94 164.0 -15.5  33292  275.05 0865.16
2015 04 09 07 47 07 .44      26    -89    -24     93     97 163.5 -14.5  33292  275.04 0865.16
2015 04 09 07 47 07 .69      26    -97    -25    101    105 164.9 -13.9  33292  275.04 0865.16
2015 04 09 07 47 07 .94      21    -91    -12     94     95 166.6  -7.3  33292  275.04 0865.16
2015 04 09 07 47 08 .19      19    -96     -9     99    100 168.4  -5.2  33288  274.99 0865.16
2015 04 09 07 47 08 .44      19    -96     -9     99    100 168.4  -5.2  33288  274.99 0865.16
2015 04 09 07 47 08 .69      19    -94    -23     96     99 168.4 -13.9  33288  274.99 0865.16
2015 04 09 07 47 08 .94      35   -106    -27    112    116 161.3 -13.9  33292  275.04 0865.16
2015 04 09 07 47 09 .20      35   -104    -26    110    114 161.3 -13.4  33290  275.01 0865.16
2015 04 09 07 47 09 .45      37   -106    -33    113    117 160.4 -21.7  33290  275.01 0865.16
2015 04 09 07 47 09 .70      38    -95    -17    103    105 158.2  -9.8  33288  274.99 0865.16
2015 04 09 07 47 09 .95      34    -86    -12     93     94 158.2  -7.7  33292  275.04 0865.16
2015 04 09 07 47 10 .20      27    -85     -3     90     91 162.2  -2.2  33286  274.96 0865.16
2015 04 09 07 47 10 .45      21    -86     -6     89     90 165.7  -4.1  33290  275.02 0865.16
2015 04 09 07 47 10 .70      24    -73     -3     78     79 161.5  -2.6  33288  274.99 0865.16
2015 04 09 07 47 10 .95      26    -78     -3     83     84 161.3  -2.2  33290  275.02 0865.16
2015 04 09 07 47 11 .20      28    -77    -17     82     84 160.0 -11.9  33290  275.02 0865.16
2015 04 09 07 47 11 .45      40    -77     -9     87     88 152.4  -6.2  33292  275.04 0865.16
2015 04 09 07 47 11 .70      29    -86    -20     91     94 161.3 -12.9  33290  275.01 0865.16
2015 04 09 07 47 11 .95      30    -88    -26     94     97 160.8 -20.7  33292  275.04 0865.16
2015 04 09 07 47 12 .20      24    -90    -32     94     99 164.9 -23.3  33292  275.05 0865.16
2015 04 09 07 47 12 .45      24    -90    -32     94     99 164.9 -23.3  33292  275.05 0865.16
2015 04 09 07 47 12 .70      20    -90    -31     93     98 167.5 -23.6  33292  275.04 0865.16
2015 04 09 07 47 12 .96      17    -78    -27     80     84 167.5 -23.6  33292  275.04 0865.16
2015 04 09 07 47 13 .21      11    -82    -33     83     89 172.0 -26.9  33292  275.05 0865.16
2015 04 09 07 47 13 .46       5    -73    -24     74     77 175.5 -23.8  33292  275.05 0865.16
2015 04 09 07 47 13 .71       1    -72    -22     73     76 179.1 -22.8  33292  275.04 0865.16
2015 04 09 07 47 13 .97       7    -91    -22     92     95 175.5 -13.4  33290  275.01 0865.16
2015 04 09 07 47 14 .22       7    -91    -22     92     95 175.5 -13.4  33290  275.01 0865.16
2015 04 09 07 47 14 .47       8    -94    -26     95     99 174.7 -15.5  33292  275.05 0865.16
2015 04 09 07 47 14 .72       7    -81    -28     82     87 174.7 -19.1  33292  275.04 0865.16
2015 04 09 07 47 14 .97       5    -82    -24     83     86 176.0 -21.2  33292  275.05 0865.16
2015 04 09 07 47 15 .22       7    -81    -28     82     87 174.7 -19.1  33292  275.04 0865.16
2015 04 09 07 47 15 .47       7    -81    -28     82     87 174.7 -19.1  33292  275.04 0865.16
2015 04 09 07 47 15 .72       9    -77    -26     78     83 173.3 -18.7  33294  275.07 0865.16
2015 04 09 07 47 15 .97       4    -74    -25     75     80 176.4 -18.7  33290  275.02 0865.16
2015 04 09 07 47 16 .22      11    -66    -23     68     72 170.2 -18.7  33292  275.04 0865.16
2015 04 09 07 47 16 .47       9    -66    -20     67     69 171.9 -21.7  33292  275.05 0865.16
2015 04 09 07 47 16 .72      -3    -66    -18     67     70 182.7 -15.5  33290  275.01 0865.16
2015 04 09 07 47 16 .97      -4    -63    -14     64     66 184.5 -12.4  33292  275.05 0865.16
2015 04 09 07 47 17 .22     -10    -67    -13     68     70 188.9 -11.5  33290  275.01 0865.16
2015 04 09 07 47 17 .47      -8    -80    -12     81     82 186.2  -8.8  33292  275.04 0865.16
2015 04 09 07 47 17 .73     -15    -76     -6     78     79 191.6  -4.6  33290  275.01 0865.16
2015 04 09 07 47 17 .98     -14    -72    -19     74     77 191.5 -14.5  33292  275.04 0865.16
2015 04 09 07 47 18 .23      -5    -78    -24     79     83 184.0 -17.0  33288  274.99 0865.16
2015 04 09 07 47 18 .48       5    -75    -18     76     79 175.6 -13.9  33292  275.04 0865.16
2015 04 09 07 47 18 .73      -5    -65    -24     66     70 184.4 -24.4  33294  275.07 0865.16
2015 04 09 07 47 18 .98      -3    -68    -23     69     72 182.7 -23.6  33294  275.09 0865.15
2015 04 09 07 47 19 .23      -1    -69    -25     70     75 180.9 -19.7  33292  275.05 0865.15
2015 04 09 07 47 19 .48       0    -74    -15     75     77 180.0 -11.3  33290  275.01 0865.15
2015 04 09 07 47 19 .73       5    -71    -15     72     74 175.5 -12.4  33292  275.05 0865.15
2015 04 09 07 47 19 .99       2    -62    -21     63     67 177.3 -18.7  33292  275.05 0865.15
2015 04 09 07 47 20 .24       7    -54    -22     55     59 172.0 -27.4  33292  275.04 0865.15
2015 04 09 07 47 20 .49       3    -50    -16     51     53 176.4 -23.8  33294  275.07 0865.15
2015 04 09 07 47 20 .74      -3    -68    -23     69     72 182.7 -23.6  33294  275.09 0865.15
2015 04 09 07 47 20 .99       0    -76    -24     77     80 180.0 -22.3  33290  275.01 0865.15
2015 04 09 07 47 21 .25      15    -74    -28     76     81 168.5 -25.4  33292  275.05 0865.15
2015 04 09 07 47 21 .49       9    -69    -35     70     78 172.0 -31.7  33294  275.09 0865.15
2015 04 09 07 47 21 .74       5    -69    -32     70     76 175.6 -31.5  33296  275.10 0865.15
2015 04 09 07 47 21 .99       0    -76    -24     77     80 180.0 -22.3  33292  275.05 0865.15
2015 04 09 07 47 22 .25      -4    -78    -24     79     82 183.6 -21.7  33296  275.10 0865.15
2015 04 09 07 47 22 .50       1   -104    -35    105    110 179.1 -23.6  33328  275.63 0865.15
2015 04 09 07 47 22 .75       1    -81    -12     82     83 178.6  -8.8  33342  275.88 0865.15
2015 04 09 07 47 23 .00      -1    -79    -25     80     83 180.9 -22.8  33290  275.02 0865.15
2015 04 09 07 47 23 .25       5    -73    -24     74     77 175.5 -23.8  33292  275.05 0865.15
2015 04 09 07 47 23 .50       4    -68    -26     69     73 176.4 -24.4  33294  275.09 0865.15
2015 04 09 07 47 23 .75       4    -77    -33     78     84 176.4 -28.0  33292  275.05 0865.15
2015 04 09 07 47 24 .00      11    -73    -44     74     86 171.1 -38.4  33296  275.10 0865.15
2015 04 09 07 47 24 .26       6    -81    -31     82     87 175.1 -25.4  33376  276.44 0865.15
2015 04 09 07 47 24 .50       1    -68    -25     69     73 179.1 -23.3  33386  276.61 0865.15
2015 04 09 07 47 24 .75       5    -70    -20     71     73 175.6 -20.7  33380  276.51 0865.15
2015 04 09 07 47 25 .00       4    -57      2     58     59 175.5   2.9  33388  276.64 0865.15
2015 04 09 07 47 25 .26       0    -56    -11     57     59 180.9 -11.3  33378  276.46 0865.14
2015 04 09 07 47 25 .50       0    -63    -10     64     65 180.9  -9.3  33378  276.46 0865.14
2015 04 09 07 47 25 .75       7    -62     -5     63     64 172.9  -5.2  33380  276.49 0865.14
2015 04 09 07 47 26 .00      14    -61     -8     63     64 166.6  -7.2  33352  276.03 0865.14
2015 04 09 07 47 26 .25      13    -75    -23     77     81 170.2 -17.0  33304  275.24 0865.14
2015 04 09 07 47 26 .51      19    -86    -24     89     93 167.5 -15.0  33294  275.09 0865.14
2015 04 09 07 47 26 .75      21    -83    -24     86     89 165.7 -20.7  33294  275.07 0865.14
2015 04 09 07 47 27 .02      24    -79    -25     83     87 163.1 -17.0  33290  275.01 0865.15
2015 04 09 07 47 27 .27      12    -74    -22     76     80 170.2 -16.0  33292  275.04 0865.15
2015 04 09 07 47 27 .52       9    -66    -20     67     69 171.9 -21.7  33292  275.05 0865.15
2015 04 09 07 47 27 .77       5    -69    -20     70     72 175.6 -20.7  33290  275.01 0865.15
2015 04 09 07 47 28 .02      -3    -68    -23     69     72 182.7 -23.6  33294  275.09 0865.15
2015 04 09 07 47 28 .27      -2    -62    -23     63     67 182.7 -24.4  33294  275.09 0865.15
2015 04 09 07 47 28 .52      -1    -59    -21     60     64 181.8 -19.7  33292  275.05 0865.15
2015 04 09 07 47 28 .77      -9    -57    -20     58     62 189.8 -19.7  33292  275.05 0865.15
2015 04 09 07 47 29 .02     -12    -54    -18     56     58 192.5 -23.8  33292  275.04 0865.15
2015 04 09 07 47 29 .27     -12    -54    -18     56     58 192.5 -23.8  33292  275.04 0865.15
2015 04 09 07 47 29 .52     -14    -58    -18     60     63 194.3 -16.6  33292  275.04 0865.15
2015 04 09 07 47 29 .78     -14    -72    -19     74     77 191.5 -14.5  33318  275.48 0865.15
2015 04 09 07 47 30 .02     -13    -65     -2     67     68 191.5  -2.2  33334  275.73 0865.15
2015 04 09 07 47 30 .28     -18    -82     -9     84     85 192.5  -6.2  33328  275.63 0865.15
2015 04 09 07 47 30 .53     -15    -69     -5     71     72 192.5  -4.1  33336  275.77 0865.15
2015 04 09 07 47 30 .77     -20    -68    -25     72     77 196.9 -19.7  33304  275.25 0865.15
2015 04 09 07 47 31 .03     -16    -62    -28     65     70 195.1 -29.5  33296  275.10 0865.15
2015 04 09 07 47 31 .27     -15    -59    -26     61     66 194.3 -27.5  33294  275.09 0865.15
2015 04 09 07 47 31 .52     -12    -54    -24     56     60 192.5 -28.5  33296  275.10 0865.15
2015 04 09 07 47 31 .78      -9    -58    -22     59     62 188.9 -25.4  33300  275.19 0865.15
2015 04 09 07 47 32 .03     -11    -53    -15     55     58 191.6 -15.4  33326  275.60 0865.15
2015 04 09 07 47 32 .28     -12    -61     -8     63     64 191.5  -7.2  33340  275.83 0865.15
2015 04 09 07 47 32 .53     -14    -58     -9     60     61 194.3  -9.3  33320  275.50 0865.15
2015 04 09 07 47 32 .78       0    -49    -14     50     51 180.9 -20.7  33322  275.53 0865.15
2015 04 09 07 47 33 .03      -1    -36     -1     37     38 182.6  -2.2  33332  275.72 0865.15
2015 04 09 07 47 33 .28      -9    -34    -13     36     39 195.1 -19.7  33316  275.43 0865.15
2015 04 09 07 47 33 .53      -7    -39    -14     40     42 190.7 -24.4  33298  275.14 0865.15
2015 04 09 07 47 33 .79     -12    -35     -9     38     40 200.0 -13.4  33298  275.15 0865.15
2015 04 09 07 47 34 .04     -16    -40    -13     44     46 201.8 -16.6  33294  275.09 0865.15
2015 04 09 07 47 34 .30     -21    -39    -14     45     47 209.0 -22.8  33318  275.48 0865.15
2015 04 09 07 47 34 .54     -20    -37     -1     43     44 208.1  -2.2  33324  275.58 0865.15
2015 04 09 07 47 34 .79     -22    -42      0     48     49 208.1  -0.3  33328  275.63 0865.15
2015 04 09 07 47 35 .05     -23    -46     -6     52     53 207.2  -7.3  33336  275.78 0865.15
2015 04 09 07 47 35 .30     -25    -20     11     33     35 230.5  19.4  33340  275.83 0865.15
2015 04 09 07 47 35 .55     -29    -21     24     36     43 234.0  37.6  33354  276.08 0865.15
2015 04 09 07 47 35 .80     -15    -31     22     35     41 207.2  35.5  33362  276.21 0865.15
2015 04 09 07 47 36 .05      -8    -26     22     28     35 198.5  43.7  33372  276.36 0865.15
2015 04 09 07 47 36 .30     -12    -24     20     27     33 207.2  41.7  33378  276.48 0865.15
2015 04 09 07 47 36 .55     -10    -19     22     22     31 207.2  50.1  33386  276.61 0865.15
2015 04 09 07 47 36 .80      -4    -12     19     13     23 198.3  60.5  33394  276.74 0865.15
2015 04 09 07 47 37 .05      -8    -14     24     17     29 209.0  62.6  33384  276.58 0865.15
2015 04 09 07 47 37 .30      -8    -23     25     25     35 200.0  50.1  33366  276.28 0865.15
2015 04 09 07 47 37 .55      -4    -26     20     27     33 189.8  41.7  33366  276.28 0865.15
2015 04 09 07 47 37 .80      -6    -31     17     32     36 191.6  29.3  33364  276.25 0865.15
2015 04 09 07 47 38 .05     -10    -32     20     34     39 198.3  33.5  33364  276.23 0865.15
2015 04 09 07 47 38 .30      -6    -31     17     32     36 191.6  29.3  33352  276.05 0865.15
2015 04 09 07 47 38 .55     -15    -31     22     35     41 207.2  35.5  33344  275.90 0865.15
2015 04 09 07 47 38 .81     -12    -27     24     30     38 205.4  43.7  33346  275.93 0865.15
2015 04 09 07 47 39 .05      -1    -34     24     35     42 182.6  37.6  33348  275.98 0865.15
2015 04 09 07 47 39 .30      -2    -38     22     39     44 184.4  32.4  33338  275.80 0865.15
2015 04 09 07 47 39 .55       2    -34     22     35     41 175.5  35.5  33338  275.80 0865.15
2015 04 09 07 47 39 .81       0    -26     24     27     36 180.9  45.8  33342  275.88 0865.15
2015 04 09 07 47 40 .06       0    -11     11     12     16 180.9  52.0  33342  275.88 0865.15
2015 04 09 07 47 40 .31       0    -14      0     15     16 179.1  -2.2  33334  275.75 0865.15
2015 04 09 07 47 40 .56     -10    -21     -6     24     25 205.4 -15.5  33334  275.73 0865.16
2015 04 09 07 47 40 .82     -18    -22     -8     29     31 219.7 -15.5  33328  275.65 0865.16
2015 04 09 07 47 41 .07      -9    -27    -10     29     30 198.3 -23.6  33316  275.43 0865.16
2015 04 09 07 47 41 .32     -21    -23    -14     32     34 223.2 -31.5  33306  275.29 0865.16
2015 04 09 07 47 41 .57     -16    -23     -9     29     30 214.3 -23.8  33306  275.29 0865.16
2015 04 09 07 47 41 .82      -8    -20    -22     22     31 203.6 -54.5  33300  275.19 0865.16
2015 04 09 07 47 42 .07     -17    -26    -12     32     34 212.5 -23.3  33296  275.12 0865.16
2015 04 09 07 47 42 .32     -27    -35    -14     45     47 217.0 -22.8  33294  275.09 0865.16
2015 04 09 07 47 42 .57     -19    -39     -9     44     46 206.3 -12.4  33296  275.10 0865.16
2015 04 09 07 47 42 .82     -17    -36     -7     40     41 205.5 -10.3  33306  275.29 0865.16
2015 04 09 07 47 43 .07     -15    -30     -4     34     35 207.2  -7.3  33304  275.25 0865.16
2015 04 09 07 47 43 .32     -11    -35    -10     37     39 198.3 -15.5  33296  275.10 0865.16
2015 04 09 07 47 43 .57     -17    -42    -16     46     49 201.8 -19.7  33296  275.10 0865.16
2015 04 09 07 47 43 .83     -24    -38    -16     46     49 212.5 -19.7  33298  275.15 0865.16
2015 04 09 07 47 44 .08     -14    -42     -2     45     46 198.5  -3.1  33306  275.27 0865.16
2015 04 09 07 47 44 .32     -26    -34    -10     43     45 217.8 -13.4  33302  275.20 0865.16
2015 04 09 07 47 44 .58     -24    -38     -7     46     47 212.5  -9.3  33306  275.29 0865.16
2015 04 09 07 47 44 .83     -24    -37     -5     45     46 212.5  -7.3  33304  275.24 0865.16
2015 04 09 07 47 45 .08     -29    -39      1     49     50 217.0   1.8  33322  275.53 0865.16
2015 04 09 07 47 45 .33     -29    -30    -11     43     45 224.1 -14.5  33298  275.14 0865.16
2015 04 09 07 47 45 .58     -19    -31    -14     37     39 212.5 -23.3  33294  275.09 0865.16
2015 04 09 07 47 45 .83     -10    -35    -16     37     40 196.9 -29.5  33296  275.10 0865.16
2015 04 09 07 47 46 .08      -7    -39    -14     40     42 190.7 -24.4  33294  275.09 0865.15
2015 04 09 07 47 46 .33     -16    -40    -16     44     46 201.8 -24.4  33304  275.25 0865.15
2015 04 09 07 47 46 .58     -15    -47    -16     50     52 198.3 -23.8  33306  275.27 0865.15
2015 04 09 07 47 46 .83     -16    -49    -14     52     55 198.3 -15.5  33296  275.10 0865.15
2015 04 09 07 47 47 .08     -15    -46    -16     49     51 198.3 -23.8  33298  275.15 0865.15
2015 04 09 07 47 47 .33      -7    -50    -16     51     53 188.9 -23.8  33298  275.15 0865.15
2015 04 09 07 47 47 .58      -4    -49    -17     50     52 185.3 -23.6  33298  275.14 0865.15
2015 04 09 07 47 47 .84      -7    -39    -14     40     42 190.7 -24.4  33294  275.09 0865.15
2015 04 09 07 47 48 .10      -7    -38    -20     39     43 191.6 -32.6  33296  275.12 0865.15
2015 04 09 07 47 48 .34     -14    -42    -20     45     49 198.5 -28.5  33296  275.10 0865.15
2015 04 09 07 47 48 .60     -17    -42    -16     46     49 201.8 -19.7  33296  275.10 0865.15
2015 04 09 07 47 48 .85     -12    -48    -16     50     53 195.1 -18.7  33296  275.12 0865.15
2015 04 09 07 47 49 .10     -10    -49     -4     51     52 191.5  -5.2  33328  275.65 0865.15
2015 04 09 07 47 49 .35     -14    -41     -1     44     45 198.7  -2.2  33346  275.93 0865.15
2015 04 09 07 47 49 .60     -15    -45     -5     48     49 198.3  -6.2  33338  275.80 0865.15
2015 04 09 07 47 49 .85      -5    -43     -7     44     45 187.1  -9.3  33322  275.55 0865.15
2015 04 09 07 47 50 .11     -14    -43    -14     46     48 198.5 -23.8  33310  275.34 0865.15
2015 04 09 07 47 50 .35     -12    -46     -7     48     49 195.1  -8.2  33304  275.24 0865.15
2015 04 09 07 47 50 .60     -11    -47    -13     49     51 193.4 -15.5  33298  275.15 0865.14
2015 04 09 07 47 50 .85     -17    -42    -16     46     49 201.8 -19.7  33296  275.10 0865.14
2015 04 09 07 47 51 .10     -16    -40    -13     44     46 201.8 -16.6  33294  275.09 0865.14
2015 04 09 07 47 51 .35     -14    -43    -19     46     49 198.5 -27.4  33292  275.05 0865.14
2015 04 09 07 47 51 .61     -15    -46    -13     49     51 198.3 -15.4  33322  275.53 0865.14
2015 04 09 07 47 51 .85     -22    -50      1     55     56 203.6   1.8  33354  276.08 0865.14
2015 04 09 07 47 52 .10     -16    -50     -2     53     54 198.5  -2.2  33360  276.16 0865.14
2015 04 09 07 47 52 .36     -19    -46     -1     50     51 202.7  -2.2  33348  275.98 0865.15
2015 04 09 07 47 52 .61     -15    -53      0     56     57 196.0  -0.3  33346  275.93 0865.15
2015 04 09 07 47 52 .86     -23    -50      0     56     57 205.3  -0.3  33330  275.68 0865.15
2015 04 09 07 47 53 .11     -17    -42     -1     46     47 201.8  -2.2  33322  275.55 0865.15
2015 04 09 07 47 53 .36     -22    -35    -12     42     44 212.5 -16.6  33306  275.29 0865.15
2015 04 09 07 47 53 .61     -25    -30     -8     40     41 219.6 -11.3  33304  275.24 0865.15
2015 04 09 07 47 53 .86     -21    -26     -4     34     35 219.7  -7.3  33302  275.20 0865.15
2015 04 09 07 47 54 .11     -17    -21    -12     28     30 219.6 -29.5  33298  275.15 0865.15
2015 04 09 07 47 54 .36     -21    -26    -12     34     37 219.7 -19.7  33294  275.09 0865.15
2015 04 09 07 47 54 .61     -19    -31    -14     37     39 212.5 -23.3  33298  275.14 0865.15
2015 04 09 07 47 54 .87     -17    -26    -12     32     34 212.5 -23.3  33296  275.12 0865.15
2015 04 09 07 47 55 .12     -26    -26     -9     37     39 225.0 -13.4  33296  275.12 0865.15
2015 04 09 07 47 55 .37     -21    -43    -16     48     50 206.3 -23.6  33292  275.05 0865.15
2015 04 09 07 47 55 .62     -21    -43    -16     48     50 206.3 -23.6  33292  275.05 0865.15
2015 04 09 07 47 55 .87     -29    -39    -16     49     51 217.0 -23.8  33292  275.05 0865.15
2015 04 09 07 47 56 .12     -27    -26    -20     38     42 226.7 -34.7  33296  275.10 0865.15
2015 04 09 07 47 56 .37     -29    -39    -16     49     51 217.0 -23.8  33292  275.05 0865.15
2015 04 09 07 47 56 .62     -32    -43    -18     54     56 217.0 -23.6  33294  275.09 0865.15
2015 04 09 07 47 56 .87     -24    -37     -5     45     46 212.5  -7.3  33304  275.24 0865.15
2015 04 09 07 47 57 .12     -26    -42    -18     50     54 212.5 -19.7  33298  275.14 0865.15
2015 04 09 07 47 57 .37     -29    -39    -16     49     51 217.0 -23.8  33292  275.05 0865.15
2015 04 09 07 47 57 .62     -29    -39    -16     49     51 217.0 -23.8  33292  275.05 0865.15
2015 04 09 07 47 57 .87     -29    -39    -16     49     51 217.0 -23.8  33292  275.05 0865.15
2015 04 09 07 47 58 .13     -29    -39    -16     49     51 217.0 -23.8  33292  275.05 0865.15
2015 04 09 07 47 58 .38     -29    -39    -16     49     51 217.0 -23.8  33292  275.05 0865.15
2015 04 09 07 47 58 .63     -36    -29    -16     47     49 231.4 -23.6  33296  275.10 0865.15
2015 04 09 07 47 58 .88     -33    -39    -18     52     56 220.5 -19.7  33298  275.14 0865.15
2015 04 09 07 47 59 .13     -32    -43    -18     54     56 217.0 -23.6  33294  275.09 0865.15
2015 04 09 07 47 59 .38     -32    -43    -18     54     56 217.0 -23.6  33294  275.09 0865.15
2015 04 09 07 47 59 .63     -29    -37    -12     48     50 217.8 -14.5  33298  275.14 0865.15
2015 04 09 07 47 59 .88     -28    -35    -10     45     47 218.7 -13.4  33296  275.10 0865.15
2015 04 09 07 48 00 .13     -23    -46    -15     52     55 207.2 -16.6  33302  275.22 0865.15
2015 04 09 07 48 00 .38     -32    -50    -24     60     64 212.5 -27.4  33296  275.10 0865.15
2015 04 09 07 48 00 .63     -31    -49    -24     59     63 212.5 -27.4  33296  275.10 0865.15
2015 04 09 07 48 00 .88     -27    -49    -20     57     60 209.0 -23.3  33298  275.15 0865.15
2015 04 09 07 48 01 .13     -27    -43    -20     51     54 212.5 -25.4  33296  275.12 0865.15
2015 04 09 07 48 01 .39     -32    -43    -18     54     56 217.0 -23.6  33300  275.19 0865.15
2015 04 09 07 48 01 .64     -31    -35    -16     47     50 221.4 -18.7  33304  275.25 0865.15
2015 04 09 07 48 01 .90     -31    -35     -6     47     48 221.4  -7.3  33304  275.24 0865.15
2015 04 09 07 48 02 .15     -31    -27     -6     42     43 228.7  -9.3  33300  275.19 0865.15
2015 04 09 07 48 02 .40     -36    -32     -1     49     50 228.7  -2.2  33302  275.22 0865.15
2015 04 09 07 48 02 .65     -33    -31      2     46     47 226.0   2.9  33304  275.25 0865.15
2015 04 09 07 48 02 .90     -33    -31      2     46     47 226.0   2.9  33308  275.30 0865.15
2015 04 09 07 48 03 .15     -35    -28      8     46     47 231.4  10.1  33310  275.35 0865.15
2015 04 09 07 48 03 .40     -41    -29      2     51     52 234.9   2.9  33304  275.25 0865.15
2015 04 09 07 48 03 .65     -38    -21      0     44     45 240.2   0.8  33306  275.29 0865.15
2015 04 09 07 48 03 .90     -38    -21      0     44     45 240.2   0.8  33306  275.29 0865.15
2015 04 09 07 48 04 .15     -31    -27      6     42     43 228.7   9.0  33306  275.29 0865.15
2015 04 09 07 48 04 .40     -36    -32      4     49     50 228.7   4.9  33304  275.24 0865.15
2015 04 09 07 48 04 .65     -34    -34     16     49     52 225.0  18.4  33300  275.17 0865.15
2015 04 09 07 48 04 .90     -35    -35     21     50     54 225.0  23.0  33298  275.15 0865.15
2015 04 09 07 48 05 .15     -37    -34     18     51     55 227.8  19.4  33298  275.15 0865.15
2015 04 09 07 48 05 .41     -40    -37     15     55     58 226.9  15.3  33300  275.19 0865.15
2015 04 09 07 48 05 .66     -40    -41     16     58     61 224.1  15.3  33304  275.25 0865.15
2015 04 09 07 48 05 .91     -41    -43     20     60     64 223.2  18.9  33306  275.27 0865.15
2015 04 09 07 48 06 .16     -46    -45     17     65     68 225.9  15.2  33308  275.30 0865.15
2015 04 09 07 48 06 .41     -41    -42     10     59     60 224.1  10.1  33306  275.29 0865.15
2015 04 09 07 48 06 .66     -41    -45     13     62     64 222.3  12.2  33310  275.34 0865.15
2015 04 09 07 48 06 .91     -40    -48      8     63     64 219.6   8.0  33306  275.29 0865.16
2015 04 09 07 48 07 .16     -43    -42      5     61     62 226.0   4.9  33306  275.29 0865.16
2015 04 09 07 48 07 .41     -42    -45      7     62     63 223.2   6.9  33304  275.25 0865.16
2015 04 09 07 48 07 .66     -37    -44      6     58     59 219.6   5.9  33304  275.24 0865.16
2015 04 09 07 48 07 .91     -40    -38      5     56     57 226.9   5.9  33308  275.30 0865.16
2015 04 09 07 48 08 .16     -40    -38      5     56     57 226.9   5.9  33308  275.30 0865.16
2015 04 09 07 48 08 .41     -33    -38      2     51     52 220.5   2.9  33304  275.25 0865.16
2015 04 09 07 48 08 .67     -40    -38      0     56     57 226.9  -0.3  33304  275.24 0865.16
2015 04 09 07 48 08 .92     -35    -35      0     50     51 225.0  -0.3  33300  275.19 0865.16
2015 04 09 07 48 09 .17     -39    -35      2     53     54 227.8   2.8  33302  275.22 0865.16
2015 04 09 07 48 09 .42     -36    -32     -1     49     50 228.7  -2.2  33300  275.17 0865.16
2015 04 09 07 48 09 .67     -36    -32     -1     49     50 228.7  -2.2  33300  275.17 0865.15
2015 04 09 07 48 09 .93     -41    -28      2     50     51 235.8   2.8  33302  275.20 0865.15
2015 04 09 07 48 10 .18     -35    -28      0     46     47 231.4  -0.3  33300  275.19 0865.15
2015 04 09 07 48 10 .42     -36    -32     -1     49     50 228.7  -2.2  33300  275.17 0865.15
2015 04 09 07 48 10 .68     -36    -31      5     48     49 228.7   6.9  33300  275.19 0865.15
2015 04 09 07 48 10 .93     -31    -31      9     44     46 225.0  12.2  33310  275.35 0865.15
2015 04 09 07 48 11 .17     -33    -32     17     47     49 226.0  20.0  33312  275.37 0865.15
2015 04 09 07 48 11 .43     -33    -31      2     46     47 226.0   2.9  33302  275.22 0865.15
2015 04 09 07 48 11 .68     -31    -34      4     47     48 222.3   4.9  33304  275.24 0865.15
2015 04 09 07 48 11 .93     -25    -34     11     43     45 217.0  14.3  33306  275.29 0865.15
2015 04 09 07 48 12 .18     -30    -34     12     46     48 221.4  15.3  33302  275.20 0865.15
2015 04 09 07 48 12 .43     -29    -30      6     43     44 224.1   9.0  33308  275.30 0865.15
2015 04 09 07 48 12 .68     -34    -34      5     49     50 225.0   5.9  33306  275.27 0865.15
2015 04 09 07 48 12 .93     -28    -37      8     47     48 217.0  10.1  33298  275.15 0865.15
2015 04 09 07 48 13 .18     -28    -37      8     47     48 217.0  10.1  33298  275.15 0865.15
2015 04 09 07 48 13 .43     -25    -34     11     43     45 217.0  14.3  33300  275.19 0865.15
2015 04 09 07 48 13 .69     -24    -30     13     39     42 219.6  19.4  33302  275.20 0865.15
2015 04 09 07 48 13 .93     -26    -26      9     38     40 225.0  13.2  33310  275.34 0865.15
2015 04 09 07 48 14 .19     -26    -26      9     38     40 225.0  13.2  33310  275.34 0865.15
2015 04 09 07 48 14 .43     -33    -25      3     42     43 233.1   4.9  33308  275.30 0865.15
2015 04 09 07 48 14 .69     -26    -24    -10     36     38 226.7 -15.5  33304  275.25 0865.15
2015 04 09 07 48 14 .94     -25    -20     -9     33     35 230.5 -15.5  33302  275.20 0865.15
2015 04 09 07 48 15 .19     -25    -20     -9     33     35 230.5 -15.5  33302  275.20 0865.15
2015 04 09 07 48 15 .44     -24    -15     -8     29     31 237.5 -15.4  33306  275.29 0865.15
2015 04 09 07 48 15 .70     -25    -16     -1     30     31 237.5  -2.2  33304  275.25 0865.15
2015 04 09 07 48 15 .95     -19    -15     -1     25     26 230.5  -2.2  33306  275.29 0865.15
2015 04 09 07 48 16 .20     -23    -19      9     30     32 230.4  17.3  33304  275.25 0865.15
2015 04 09 07 48 16 .45     -26    -21      1     34     35 230.5   2.9  33310  275.35 0865.15
2015 04 09 07 48 16 .70     -15    -23      7     28     30 214.3  15.3  33308  275.30 0865.15
2015 04 09 07 48 16 .95      -8    -26      7     28     30 198.5  15.3  33302  275.20 0865.15
2015 04 09 07 48 17 .20      -8    -26      7     28     30 198.5  15.3  33306  275.27 0865.15
2015 04 09 07 48 17 .45      -3    -27     13     28     30 186.2  27.1  33302  275.20 0865.15
2015 04 09 07 48 17 .70     -15    -31     16     35     38 207.2  25.1  33304  275.24 0865.15
2015 04 09 07 48 17 .95     -20    -24     17     32     36 219.7  29.3  33308  275.30 0865.15
2015 04 09 07 48 18 .20     -16    -23     16     29     33 214.3  31.4  33310  275.34 0865.15
2015 04 09 07 48 18 .45     -11    -23     13     26     29 205.4  27.2  33304  275.25 0865.15
2015 04 09 07 48 18 .70     -10    -33     12     35     38 198.3  19.4  33304  275.24 0865.15
2015 04 09 07 48 18 .96      -6    -30     10     31     33 191.6  19.2  33306  275.29 0865.15
2015 04 09 07 48 19 .20     -19    -40     17     45     48 206.3  20.0  33310  275.35 0865.15
2015 04 09 07 48 19 .46     -20    -37      9     43     44 208.1  12.2  33298  275.14 0865.15
2015 04 09 07 48 19 .71     -29    -39      6     49     50 217.0   8.0  33302  275.20 0865.15
2015 04 09 07 48 19 .96     -31    -42      4     53     54 217.0   4.9  33300  275.19 0865.15
2015 04 09 07 48 20 .21     -29    -30      6     43     44 224.1   9.0  33302  275.20 0865.15
2015 04 09 07 48 20 .46     -31    -32      9     45     47 224.2  12.2  33304  275.24 0865.15
2015 04 09 07 48 20 .71     -34    -35      7     49     50 224.2   9.0  33310  275.35 0865.15
2015 04 09 07 48 20 .96     -25    -38     14     46     49 213.4  17.3  33308  275.30 0865.15
2015 04 09 07 48 21 .22     -14    -47     24     50     55 196.9  27.3  33324  275.57 0865.15
2015 04 09 07 48 21 .46     -17    -63     28     66     71 195.1  24.1  33366  276.28 0865.15
2015 04 09 07 48 21 .72      -5    -64     12     65     67 184.5  11.0  33372  276.36 0865.15
2015 04 09 07 48 21 .96      -9    -58     28     59     65 188.9  27.2  33364  276.23 0865.15
2015 04 09 07 48 22 .21     -12    -61     25     63     67 191.6  23.0  33342  275.86 0865.15
2015 04 09 07 48 22 .47     -23    -51     20     57     61 204.5  19.4  33310  275.34 0865.15
2015 04 09 07 48 22 .72     -18    -53     16     57     60 199.2  16.3  33306  275.27 0865.15
2015 04 09 07 48 22 .97     -16    -51     15     54     57 197.8  15.3  33306  275.29 0865.15
2015 04 09 07 48 23 .22     -22    -47     15     52     55 205.3  16.3  33300  275.19 0865.16
2015 04 09 07 48 23 .48     -15    -47     21     50     54 198.3  23.0  33310  275.35 0865.16
2015 04 09 07 48 23 .73     -16    -39     28     43     51 202.7  35.6  33316  275.43 0865.16
2015 04 09 07 48 23 .98     -17    -43     25     47     53 201.8  30.3  33330  275.67 0865.16
2015 04 09 07 48 24 .23     -18    -45     31     49     57 202.7  35.5  33340  275.85 0865.16
2015 04 09 07 48 24 .48     -17    -42     19     46     49 202.7  23.0  33346  275.93 0865.16
2015 04 09 07 48 24 .73     -13    -49     30     51     59 195.1  34.4  33344  275.90 0865.16
2015 04 09 07 48 24 .98      -6    -46     30     47     55 188.0  35.5  33356  276.11 0865.16
2015 04 09 07 48 25 .23      -5    -41     20     42     46 187.1  27.2  33360  276.18 0865.16
2015 04 09 07 48 25 .48      22    -68     16     72     74 161.7  13.2  33382  276.54 0865.16
2015 04 09 07 48 25 .73      12    -59     24     61     65 168.5  23.0  33376  276.43 0865.16
2015 04 09 07 48 25 .98      -1    -54     26     55     60 181.8  27.2  33374  276.41 0865.16
2015 04 09 07 48 26 .23      14    -55     20     57     61 165.7  19.2  33372  276.38 0865.16
2015 04 09 07 48 26 .48       2    -47     16     48     51 177.3  18.4  33366  276.28 0865.16
2015 04 09 07 48 26 .73       2    -57     22     58     62 177.3  22.0  33354  276.06 0865.16
2015 04 09 07 48 26 .98       5    -44      4     45     46 172.9   5.9  33328  275.65 0865.16
2015 04 09 07 48 27 .23       1    -41     -3     42     43 177.3  -4.1  33298  275.15 0865.16
2015 04 09 07 48 27 .48      -1    -53     -2     54     55 181.8  -2.2  33292  275.05 0865.16
2015 04 09 07 48 27 .74       0    -60     -2     61     62 180.0  -2.2  33310  275.35 0865.16
2015 04 09 07 48 27 .99       0    -61     -6     62     63 180.9  -6.2  33326  275.62 0865.16
2015 04 09 07 48 28 .24       0    -54     -2     55     56 180.9  -2.2  33320  275.52 0865.16
2015 04 09 07 48 28 .49       1    -56    -11     57     59 178.2 -11.5  33304  275.24 0865.16
2015 04 09 07 48 28 .74       5    -69    -10     70     71 175.6  -8.2  33324  275.57 0865.15
2015 04 09 07 48 28 .99       4    -63      5     64     65 175.5   4.9  33344  275.91 0865.15
2015 04 09 07 48 29 .24      -4    -63     -2     64     65 183.6  -2.2  33334  275.75 0865.15
2015 04 09 07 48 29 .50      -4    -57      6     58     59 184.5   5.9  33324  275.58 0865.15
2015 04 09 07 48 29 .75      -3    -57     -2     58     59 183.6  -2.2  33296  275.12 0865.15
2015 04 09 07 48 30 .00       6    -57     -7     58     59 173.8  -7.3  33298  275.14 0865.15
2015 04 09 07 48 30 .25       7    -53     -6     54     55 172.0  -7.2  33296  275.10 0865.15
2015 04 09 07 48 30 .50       5    -64     -8     65     66 175.5  -7.2  33322  275.53 0865.15
2015 04 09 07 48 30 .75      11    -58     -3     60     61 169.3  -3.2  33302  275.20 0865.15
2015 04 09 07 48 31 .00       7    -62      0     63     64 172.9   0.8  33298  275.14 0865.15
2015 04 09 07 48 31 .25      12    -61     -2     63     64 168.4  -2.2  33296  275.10 0865.15
2015 04 09 07 48 31 .50       6    -57     -2     58     59 173.8  -2.2  33290  275.01 0865.15
2015 04 09 07 48 31 .75      18    -69     -2     72     73 164.9  -2.2  33288  274.99 0865.15
2015 04 09 07 48 32 .00      14    -69     -9     71     72 168.5  -7.3  33294  275.09 0865.15
2015 04 09 07 48 32 .25      14    -69     -9     71     72 168.5  -7.3  33294  275.09 0865.14
2015 04 09 07 48 32 .50       4    -67     -3     68     69 176.4  -3.1  33294  275.09 0865.14
2015 04 09 07 48 32 .76       5    -72     -2     73     74 175.5  -2.2  33304  275.25 0865.14
2015 04 09 07 48 33 .01      -1    -72     -4     73     74 180.9  -3.1  33304  275.24 0865.14
2015 04 09 07 48 33 .26       3    -84      1     85     86 177.8   0.8  33326  275.62 0865.14
2015 04 09 07 48 33 .51      10    -76      3     77     78 172.0   2.9  33320  275.52 0865.14
2015 04 09 07 48 33 .76       7    -68      0     69     70 173.8  -0.3  33304  275.24 0865.14
2015 04 09 07 48 34 .01      28    -64     19     70     73 156.4  15.3  33336  275.78 0865.15
2015 04 09 07 48 34 .26      16    -71      3     73     74 166.6   2.8  33308  275.30 0865.15
2015 04 09 07 48 34 .51      12    -61     -2     63     64 168.4  -2.2  33292  275.05 0865.15
2015 04 09 07 48 34 .77      14    -65     -1     67     68 167.5  -1.2  33298  275.14 0865.15
2015 04 09 07 48 35 .02      16    -65     -3     68     69 165.7  -3.2  33304  275.25 0865.15
2015 04 09 07 48 35 .27      10    -54      7     55     56 169.3   8.0  33338  275.80 0865.15
2015 04 09 07 48 35 .51       5    -48     12     49     51 173.8  14.3  33348  275.96 0865.15
2015 04 09 07 48 35 .76       7    -41     14     42     45 170.2  19.4  33326  275.62 0865.15
2015 04 09 07 48 36 .01       3    -45      2     46     47 175.5   2.9  33302  275.20 0865.15
2015 04 09 07 48 36 .27       8    -48     -6     49     50 170.2  -7.3  33306  275.29 0865.15
2015 04 09 07 48 36 .52      11    -42      2     44     45 164.9   3.8  33346  275.95 0865.15
2015 04 09 07 48 36 .78       9    -41      3     43     44 166.6   4.9  33336  275.77 0865.15
2015 04 09 07 48 37 .02      13    -47     -1     49     50 164.0  -2.2  33298  275.15 0865.15
2015 04 09 07 48 37 .28      10    -50     -2     52     53 168.5  -3.1  33288  274.99 0865.15
2015 04 09 07 48 37 .53       3    -46     -2     47     48 175.5  -3.1  33288  274.99 0865.15
2015 04 09 07 48 37 .78       3    -46     -2     47     48 175.5  -3.1  33288  274.99 0865.15
2015 04 09 07 48 38 .03      13    -45     -1     48     49 163.1  -2.2  33300  275.17 0865.15
2015 04 09 07 48 38 .29      16    -50      0     53     54 162.2   0.8  33298  275.14 0865.15
2015 04 09 07 48 38 .53       9    -45     -5     46     47 168.4  -7.2  33292  275.05 0865.15
2015 04 09 07 48 38 .79       0    -47    -10     48     50 180.9 -12.4  33304  275.25 0865.15
2015 04 09 07 48 39 .03       0    -44     -8     45     46 180.9 -10.3  33310  275.34 0865.15
2015 04 09 07 48 39 .28       0    -40     -1     41     42 180.9  -2.2  33312  275.39 0865.15
2015 04 09 07 48 39 .53      -5    -40     -1     41     42 187.1  -2.2  33314  275.40 0865.15
2015 04 09 07 48 39 .78     -10    -42     -5     44     45 194.3  -7.2  33308  275.30 0865.15
2015 04 09 07 48 40 .04      -7    -39    -14     40     42 190.7 -24.4  33294  275.09 0865.15
2015 04 09 07 48 40 .29     -15    -45    -12     48     50 198.3 -14.5  33304  275.24 0865.16
2015 04 09 07 48 40 .53      -8    -34     -4     35     36 193.4  -7.2  33316  275.45 0865.16
2015 04 09 07 48 40 .78      -6    -30     -1     31     32 191.6  -3.1  33318  275.48 0865.16
2015 04 09 07 48 41 .04      -2    -30      1     31     32 184.5   2.9  33324  275.58 0865.16
2015 04 09 07 48 41 .29      11    -35      1     37     38 161.3   2.9  33322  275.55 0865.16
2015 04 09 07 48 41 .54      11    -34      3     36     37 161.3   4.9  33328  275.65 0865.16
2015 04 09 07 48 41 .79      16    -34      1     38     39 154.6   2.9  33334  275.73 0865.16
2015 04 09 07 48 42 .04      14    -36      0     39     40 158.2   0.8  33342  275.88 0865.16
2015 04 09 07 48 42 .29       7    -25      7     27     28 163.1  15.3  33340  275.83 0865.16
2015 04 09 07 48 42 .54      10    -29     18     31     35 160.0  35.5  33336  275.77 0865.16
2015 04 09 07 48 42 .79      16    -28     16     33     36 149.3  27.2  33334  275.73 0865.16
2015 04 09 07 48 43 .05      17    -22     24     29     37 142.2  43.8  33334  275.73 0865.16
2015 04 09 07 48 43 .29      13    -23     20     27     33 149.3  41.7  33334  275.73 0865.16
2015 04 09 07 48 43 .55      11    -23     19     26     32 152.8  39.7  33328  275.63 0865.16
2015 04 09 07 48 43 .80      12    -19     17     23     28 147.5  41.7  33320  275.52 0865.16
2015 04 09 07 48 44 .05      15    -21     15     26     30 143.9  33.5  33330  275.68 0865.16
2015 04 09 07 48 44 .30      15    -19      8     25     27 140.4  19.2  33338  275.82 0865.16
2015 04 09 07 48 44 .55      16    -13     16     21     26 129.5  41.7  33336  275.78 0865.16
2015 04 09 07 48 44 .80       7     -7      8     11     13 135.0  39.7  33332  275.70 0865.16
2015 04 09 07 48 45 .07       8    -11     13     14     19 143.9  52.0  33344  275.90 0865.16
2015 04 09 07 48 45 .30       0    -15     13     16     20 179.1  43.7  33344  275.90 0865.16
2015 04 09 07 48 45 .56      -6    -15     17     17     24 201.8  50.1  33348  275.96 0865.16
2015 04 09 07 48 45 .81     -16     -7     16     18     24 244.7  50.0  33370  276.34 0865.15
2015 04 09 07 48 46 .06     -21    -17     18     28     33 230.5  35.6  33360  276.16 0865.15
2015 04 09 07 48 46 .31     -12    -13     17     18     24 223.4  52.0  33358  276.15 0865.15
2015 04 09 07 48 46 .56      -5    -11     20     13     23 205.4  64.7  33378  276.48 0865.15
2015 04 09 07 48 46 .82     -11     -8     20     14     24 234.0  60.5  33390  276.68 0865.15
2015 04 09 07 48 47 .06      -7     -7     17     11     20 225.0  62.6  33398  276.81 0865.15
2015 04 09 07 48 47 .31      -6     -7     17     10     19 223.2  64.7  33390  276.66 0865.15
2015 04 09 07 48 47 .56       0    -15     19     16     24 179.1  54.3  33378  276.48 0865.15
2015 04 09 07 48 47 .82       0     -7     14      8     16 182.7  64.7  33390  276.66 0865.15
2015 04 09 07 48 48 .06      -8     -2     16      9     18 251.8  68.8  33396  276.78 0865.15
2015 04 09 07 48 48 .31      -2     -7      9      8     12 198.5  52.2  33392  276.71 0865.15
2015 04 09 07 48 48 .56      -7     -8      0     11     12 223.2  -3.1  33382  276.53 0865.15
2015 04 09 07 48 48 .81      -4    -12     -5     13     13 198.3 -23.3  33372  276.38 0865.15
2015 04 09 07 48 49 .06      -9    -12    -10     16     18 216.1 -39.9  33370  276.33 0865.15
2015 04 09 07 48 49 .31      -7     -7     -8     11     13 225.0 -44.1  33356  276.10 0865.15
2015 04 09 07 48 49 .56      -9    -27    -10     29     30 198.3 -23.6  33316  275.43 0865.15
2015 04 09 07 48 49 .82     -17    -37    -12     41     42 205.5 -20.7  33314  275.40 0865.15
2015 04 09 07 48 50 .06     -15    -31    -16     35     38 207.2 -29.5  33312  275.37 0865.15
2015 04 09 07 48 50 .33     -17    -27    -11     33     34 212.6 -23.6  33312  275.37 0865.15
2015 04 09 07 48 50 .58      -9    -34      1     36     37 195.1   2.8  33328  275.63 0865.15
2015 04 09 07 48 50 .83      -7    -34     -4     35     36 191.6  -7.2  33336  275.77 0865.15
2015 04 09 07 48 51 .08      -7    -37      4     38     39 191.5   5.9  33338  275.82 0865.15
2015 04 09 07 48 51 .33      -7    -35      8     36     37 191.6  13.2  33340  275.85 0865.15
2015 04 09 07 48 51 .58     -13    -25     10     29     31 207.2  18.9  33342  275.88 0865.15
2015 04 09 07 48 51 .83     -10    -31     13     33     35 198.3  21.0  33342  275.86 0865.15
2015 04 09 07 48 52 .08     -11    -34      3     36     37 198.3   4.9  33342  275.86 0865.15
2015 04 09 07 48 52 .34     -10    -32     20     34     39 198.3  33.5  33370  276.33 0865.15
2015 04 09 07 48 52 .58      -7    -23     24     25     34 198.5  52.0  33372  276.38 0865.15
2015 04 09 07 48 52 .83      -4    -27     19     28     33 189.8  37.6  33366  276.28 0865.15
2015 04 09 07 48 53 .08       0    -27     24     28     36 180.9  45.8  33364  276.23 0865.15
2015 04 09 07 48 53 .33      -9    -27     28     29     40 198.5  50.0  33346  275.93 0865.15
2015 04 09 07 48 53 .58      -4    -23     28     24     36 189.8  54.3  33334  275.73 0865.15
2015 04 09 07 48 53 .84       9    -27     17     29     33 160.0  33.5  33336  275.77 0865.15
2015 04 09 07 48 54 .09      -1    -31     13     32     34 182.6  21.0  33342  275.86 0865.15
2015 04 09 07 48 54 .34       7    -36     19     37     41 168.4  29.3  33346  275.93 0865.15
2015 04 09 07 48 54 .58      20    -27     26     34     42 143.9  41.7  33344  275.91 0865.15
2015 04 09 07 48 54 .84      28    -35      1     45     46 141.3   1.8  33334  275.73 0865.15
2015 04 09 07 48 55 .09      25    -42     -1     50     51 149.3  -2.2  33342  275.88 0865.15
2015 04 09 07 48 55 .34      29    -34     22     46     51 139.5  27.2  33332  275.72 0865.15
2015 04 09 07 48 55 .59      22    -39     22     46     51 150.1  27.2  33338  275.82 0865.15
2015 04 09 07 48 55 .84      -1    -53      4     54     55 181.8   4.9  33342  275.88 0865.15
2015 04 09 07 48 56 .09       0    -57      1     58     59 180.9   1.8  33310  275.35 0865.15
2015 04 09 07 48 56 .34      -1    -53     -2     54     55 181.8  -2.2  33302  275.22 0865.15
2015 04 09 07 48 56 .59      -7    -53     -3     54     55 188.0  -3.1  33300  275.19 0865.15
2015 04 09 07 48 56 .84      -1    -47    -10     48     50 181.8 -12.4  33296  275.10 0865.16
2015 04 09 07 48 57 .09       1    -48    -13     49     51 178.2 -15.5  33298  275.14 0865.16
2015 04 09 07 48 57 .35       0    -40    -10     41     43 180.9 -14.5  33298  275.15 0865.16
2015 04 09 07 48 57 .60      -6    -38     -8     39     40 189.8 -12.4  33298  275.15 0865.16
2015 04 09 07 48 57 .86       2    -40     -4     41     42 176.4  -6.2  33304  275.25 0865.16
2015 04 09 07 48 58 .10       0    -30      6     31     32 179.1  11.1  33318  275.48 0865.16
2015 04 09 07 48 58 .35      -7    -31      1     32     33 193.4   2.9  33314  275.40 0865.16
2015 04 09 07 48 58 .60     -10    -34     10     36     38 196.9  15.3  33316  275.45 0865.16
2015 04 09 07 48 58 .86      -6    -30     -1     31     32 191.6  -3.1  33304  275.24 0865.16
2015 04 09 07 48 59 .11      -6    -30     -1     31     32 191.6  -3.1  33300  275.19 0865.16
2015 04 09 07 48 59 .36     -12    -37     -1     40     41 198.7  -2.2  33334  275.75 0865.16
2015 04 09 07 48 59 .61     -12    -37     -1     40     41 198.7  -2.2  33344  275.91 0865.16
2015 04 09 07 48 59 .86     -12    -37     -1     40     41 198.7  -2.2  33346  275.95 0865.16
2015 04 09 07 49 00 .11     -16    -35      5     39     40 205.5   8.0  33358  276.13 0865.16
2015 04 09 07 49 00 .36     -17    -25     -6     31     32 214.3 -11.3  33348  275.98 0865.16
2015 04 09 07 49 00 .61     -13    -34     -2     37     38 201.8  -3.1  33336  275.78 0865.16
2015 04 09 07 49 00 .86     -10    -42     -5     44     45 194.3  -7.2  33322  275.55 0865.16
2015 04 09 07 49 01 .12      -8    -42     -3     43     44 191.6  -5.2  33316  275.45 0865.16
2015 04 09 07 49 01 .36       0    -34      3     35     36 180.9   4.9  33336  275.77 0865.16
2015 04 09 07 49 01 .61      11    -27      4     30     31 158.2   9.0  33342  275.86 0865.16
2015 04 09 07 49 01 .86       1    -19      9     20     21 175.5  25.1  33334  275.75 0865.16
2015 04 09 07 49 02 .11       6    -18     13     20     23 161.3  35.5  33342  275.86 0865.16
2015 04 09 07 49 02 .36       5    -15     17     16     23 161.5  50.1  33344  275.91 0865.16
2015 04 09 07 49 02 .61       5    -17     17     18     24 161.3  52.0  33356  276.11 0865.16
2015 04 09 07 49 02 .86       1    -18     15     19     24 175.5  43.7  33358  276.13 0865.16
2015 04 09 07 49 03 .11       0    -27     17     28     32 180.9  35.5  33354  276.06 0865.15
2015 04 09 07 49 03 .36       1    -18     15     19     24 175.5  43.7  33348  275.98 0865.15
2015 04 09 07 49 03 .62      -9    -27     16     29     33 198.5  31.4  33318  275.48 0865.15
2015 04 09 07 49 03 .87     -11    -23     13     26     29 205.4  27.2  33316  275.45 0865.15
2015 04 09 07 49 04 .12     -14    -18     11     24     26 217.8  25.1  33328  275.63 0865.15
2015 04 09 07 49 04 .38     -20    -20      1     29     30 225.1   2.9  33328  275.63 0865.15
2015 04 09 07 49 04 .63     -16    -16     -3     23     24 225.0  -9.3  33316  275.45 0865.15
2015 04 09 07 49 04 .88     -23    -19     -3     30     31 230.4  -7.3  33312  275.37 0865.16
2015 04 09 07 49 05 .13     -14    -19      4     24     25 216.1  11.1  33310  275.35 0865.16
2015 04 09 07 49 05 .38     -21    -25      9     33     35 219.6  15.3  33310  275.35 0865.16
2015 04 09 07 49 05 .63     -19    -31     10     37     39 212.6  16.3  33318  275.48 0865.16
2015 04 09 07 49 05 .89     -26    -38      7     47     48 214.3   9.0  33318  275.47 0865.16
2015 04 09 07 49 06 .13     -19    -38     11     43     45 206.3  14.3  33322  275.53 0865.16
2015 04 09 07 49 06 .38     -29    -39      6     49     50 217.0   8.0  33308  275.30 0865.16
2015 04 09 07 49 06 .63     -31    -49     -2     59     60 212.5  -2.2  33314  275.42 0865.16
2015 04 09 07 49 06 .88     -19    -46     -1     50     51 202.7  -2.2  33306  275.29 0865.15
2015 04 09 07 49 07 .14     -24    -37     -1     45     46 212.5  -2.2  33308  275.30 0865.15
2015 04 09 07 49 07 .39     -26    -56     -3     63     64 205.3  -3.1  33316  275.43 0865.15
2015 04 09 07 49 07 .63     -21    -55     -3     59     60 200.9  -3.1  33312  275.39 0865.15
2015 04 09 07 49 07 .89     -17    -58      5     61     62 196.9   4.9  33310  275.34 0865.15
2015 04 09 07 49 08 .14     -17    -53      7     56     57 197.8   8.0  33310  275.35 0865.15
2015 04 09 07 49 08 .39     -17    -53     11     56     58 198.3  11.0  33312  275.39 0865.15
2015 04 09 07 49 08 .64     -20    -41      8     46     47 206.3  10.1  33310  275.35 0865.15
2015 04 09 07 49 08 .89     -21    -46      2     51     52 204.5   2.9  33302  275.20 0865.15
2015 04 09 07 49 09 .14     -21    -46      2     51     52 204.5   2.9  33302  275.20 0865.15
2015 04 09 07 49 09 .39     -23    -46      5     52     53 207.2   5.9  33304  275.24 0865.15
2015 04 09 07 49 09 .64     -17    -50      4     53     54 199.2   4.9  33304  275.24 0865.15
2015 04 09 07 49 09 .89     -21    -46     10     51     52 205.3  11.1  33306  275.29 0865.15
2015 04 09 07 49 10 .14     -17    -50      4     53     54 199.2   4.9  33310  275.34 0865.15
2015 04 09 07 49 10 .39     -22    -47     15     52     55 205.3  16.3  33318  275.48 0865.15
2015 04 09 07 49 10 .64     -25    -48     18     55     58 208.1  18.4  33314  275.40 0865.15
2015 04 09 07 49 10 .89     -23    -50      7     56     57 205.3   8.0  33302  275.22 0865.15
2015 04 09 07 49 11 .15     -17    -53      5     56     57 197.8   5.9  33302  275.20 0865.15
2015 04 09 07 49 11 .41     -17    -53      5     56     57 197.8   5.9  33302  275.20 0865.15
2015 04 09 07 49 11 .65     -18    -58      4     61     62 197.8   3.8  33300  275.19 0865.15
2015 04 09 07 49 11 .91     -13    -65      3     67     68 191.6   2.8  33296  275.10 0865.15
2015 04 09 07 49 12 .16     -24    -62      3     67     68 201.8   2.9  33294  275.09 0865.15
2015 04 09 07 49 12 .41     -21    -62      3     66     67 198.7   2.8  33294  275.07 0865.15
2015 04 09 07 49 12 .66     -18    -65      3     68     69 196.0   2.9  33294  275.09 0865.15
2015 04 09 07 49 12 .91     -24    -62     -2     67     68 201.8  -2.2  33302  275.20 0865.15
2015 04 09 07 49 13 .16     -24    -61     -2     66     67 201.8  -2.2  33298  275.15 0865.15
2015 04 09 07 49 13 .41     -18    -65     -1     68     69 196.0  -1.3  33296  275.10 0865.15
2015 04 09 07 49 13 .66     -17    -53     -6     56     57 197.8  -6.2  33302  275.20 0865.15
2015 04 09 07 49 13 .91     -24    -45     -2     52     53 208.1  -2.2  33308  275.32 0865.15
2015 04 09 07 49 14 .16     -12    -48     -7     50     51 195.1  -8.2  33304  275.25 0865.15
2015 04 09 07 49 14 .41     -23    -50      0     56     57 204.5  -0.3  33300  275.19 0865.15
2015 04 09 07 49 14 .66     -31    -49     -2     59     60 212.5  -2.2  33312  275.37 0865.15
2015 04 09 07 49 14 .92     -22    -50     -6     55     56 203.6  -6.2  33304  275.25 0865.15
2015 04 09 07 49 15 .16     -23    -46      5     52     53 207.2   5.9  33304  275.24 0865.15
2015 04 09 07 49 15 .41     -22    -41     -5     47     48 208.1  -6.2  33304  275.25 0865.15
2015 04 09 07 49 15 .66     -30    -55    -21     63     67 209.0 -18.7  33292  275.05 0865.15
2015 04 09 07 49 15 .91     -23    -54    -23     59     63 203.6 -26.4  33290  275.01 0865.16
2015 04 09 07 49 16 .17     -17    -54    -18     57     60 198.3 -17.6  33294  275.09 0865.16
2015 04 09 07 49 16 .42     -14    -58     -3     60     61 194.3  -3.1  33300  275.19 0865.16
2015 04 09 07 49 16 .67     -22    -50     -6     55     56 203.6  -6.2  33302  275.20 0865.16
2015 04 09 07 49 16 .92     -26    -58      2     64     65 204.5   1.8  33298  275.15 0865.16
2015 04 09 07 49 17 .17     -24    -62      3     67     68 201.8   2.9  33294  275.09 0865.16
2015 04 09 07 49 17 .42     -21    -65      0     69     70 198.3  -0.3  33298  275.14 0865.16
2015 04 09 07 49 17 .67     -21    -63      0     67     68 198.3  -0.3  33302  275.22 0865.16
2015 04 09 07 49 17 .92     -10    -61     -8     62     63 189.8  -7.3  33298  275.14 0865.16
2015 04 09 07 49 18 .18     -14    -49    -14     52     53 196.0 -20.7  33304  275.24 0865.16
2015 04 09 07 49 18 .43     -19    -46    -11     50     52 202.7 -12.4  33302  275.20 0865.16
2015 04 09 07 49 18 .68     -15    -45     -5     48     49 198.3  -6.2  33308  275.30 0865.16
2015 04 09 07 49 18 .93     -16    -61     -5     64     65 195.1  -5.2  33300  275.17 0865.16
2015 04 09 07 49 19 .18     -13    -65     -3     67     68 191.6  -3.1  33304  275.24 0865.16
2015 04 09 07 49 19 .44     -10    -69     -8     70     71 188.9  -7.2  33330  275.68 0865.16
2015 04 09 07 49 19 .69      -5    -68     -8     69     70 184.5  -7.3  33316  275.45 0865.16
2015 04 09 07 49 19 .93      -5    -71     -9     72     73 184.4  -7.2  33322  275.53 0865.16
2015 04 09 07 49 20 .18      -6    -60    -10     61     62 186.2  -9.3  33314  275.42 0865.16
2015 04 09 07 49 20 .43     -12    -60    -17     62     65 191.6 -15.4  33310  275.35 0865.16
2015 04 09 07 49 20 .69      -4    -57     -7     58     59 184.5  -7.3  33300  275.19 0865.16
2015 04 09 07 49 20 .94      -4    -57    -15     58     60 184.4 -14.5  33302  275.20 0865.16
2015 04 09 07 49 21 .19      -6    -52    -17     53     56 187.1 -18.7  33300  275.19 0865.16
2015 04 09 07 49 21 .44      -9    -48    -12     49     51 190.7 -14.5  33300  275.17 0865.16
2015 04 09 07 49 21 .69      -9    -48    -12     49     51 190.7 -14.5  33300  275.17 0865.16
2015 04 09 07 49 21 .94     -10    -42     -5     44     45 194.3  -7.2  33302  275.20 0865.16
2015 04 09 07 49 22 .19      -7    -39    -14     40     42 190.7 -24.4  33298  275.14 0865.15
2015 04 09 07 49 22 .45     -11    -43    -23     45     50 194.3 -33.7  33300  275.19 0865.15
2015 04 09 07 49 22 .69       0    -42    -14     43     45 180.0 -23.8  33336  275.78 0865.15
2015 04 09 07 49 22 .95     -13    -41     -8     44     45 197.8 -11.3  33350  276.01 0865.15
2015 04 09 07 49 23 .19     -15    -44      1     47     48 199.2   1.8  33348  275.98 0865.15
2015 04 09 07 49 23 .44      -9    -41      0     42     43 192.5  -0.3  33346  275.93 0865.15
2015 04 09 07 49 23 .69      -2    -37     -4     38     39 184.4  -7.3  33338  275.80 0865.15
2015 04 09 07 49 23 .94       0    -41     -2     42     43 180.0  -3.1  33328  275.63 0865.15
2015 04 09 07 49 24 .19      -9    -34    -13     36     39 195.1 -19.7  33304  275.24 0865.15
2015 04 09 07 49 24 .44      -2    -38    -16     39     42 184.4 -27.4  33308  275.30 0865.15
2015 04 09 07 49 24 .70      11    -43    -19     45     48 165.7 -27.4  33320  275.50 0865.15
2015 04 09 07 49 24 .95      -4    -48     -1     49     50 185.3  -2.2  33338  275.80 0865.15
2015 04 09 07 49 25 .21       0    -48     -1     49     50 180.9  -2.2  33336  275.77 0865.15
2015 04 09 07 49 25 .46      -1    -38     -6     39     40 182.6  -9.3  33322  275.53 0865.15
2015 04 09 07 49 25 .71       0    -40     -9     41     43 180.0 -13.4  33332  275.72 0865.15
2015 04 09 07 49 25 .96     -14    -42     -2     45     46 198.5  -3.1  33334  275.73 0865.15
2015 04 09 07 49 26 .21     -14    -44     15     47     50 198.3  18.4  33334  275.73 0865.15
2015 04 09 07 49 26 .46     -10    -45     12     47     49 193.4  15.3  33330  275.67 0865.15
2015 04 09 07 49 26 .71     -12    -45      4     47     48 195.1   5.9  33334  275.73 0865.15
2015 04 09 07 49 26 .96      -2    -45     -5     46     47 183.6  -7.2  33320  275.50 0865.15
2015 04 09 07 49 27 .21      -4    -41      0     42     43 186.2  -1.3  33320  275.50 0865.15
2015 04 09 07 49 27 .46     -16    -39     16     43     45 202.7  20.0  33324  275.58 0865.15
2015 04 09 07 49 27 .71     -22    -42      6     48     49 208.1   8.0  33328  275.65 0865.15
2015 04 09 07 49 27 .96     -22    -42      0     48     49 208.1  -0.3  33328  275.63 0865.15
2015 04 09 07 49 28 .21     -12    -40    -12     42     43 196.9 -21.7  33314  275.40 0865.15
2015 04 09 07 49 28 .46      -6    -46    -14     47     49 188.0 -22.8  33304  275.24 0865.15
2015 04 09 07 49 28 .72       0    -37     -6     38     39 180.9 -10.3  33316  275.43 0865.15
2015 04 09 07 49 28 .96      -2    -31     -9     32     33 184.5 -21.7  33316  275.43 0865.15
2015 04 09 07 49 29 .22      -1    -31    -10     32     33 182.6 -23.8  33310  275.34 0865.15
2015 04 09 07 49 29 .47      -4    -41     -6     42     43 186.2  -9.3  33318  275.48 0865.15
2015 04 09 07 49 29 .72       0    -44    -16     45     48 180.0 -19.7  33316  275.45 0865.15
2015 04 09 07 49 29 .97       0    -49    -14     50     51 180.9 -20.7  33336  275.78 0865.15
2015 04 09 07 49 30 .22      -8    -43    -16     44     46 191.6 -24.4  33328  275.65 0865.15
2015 04 09 07 49 30 .47     -17    -43     -6     47     48 201.8  -7.3  33334  275.73 0865.15
2015 04 09 07 49 30 .72     -19    -30     -1     36     37 212.5  -2.2  33334  275.73 0865.15
2015 04 09 07 49 30 .97     -19    -23      4     30     31 219.7   9.0  33336  275.77 0865.15
2015 04 09 07 49 31 .22     -17    -33      6     38     39 207.2  10.1  33346  275.93 0865.15
2015 04 09 07 49 31 .47     -13    -32     12     35     38 201.8  19.4  33346  275.93 0865.15
2015 04 09 07 49 31 .72     -13    -32     12     35     38 201.8  19.4  33346  275.93 0865.15
2015 04 09 07 49 31 .97      -6    -31     17     32     36 191.6  29.3  33348  275.96 0865.16
2015 04 09 07 49 32 .23     -11    -36     24     38     44 198.3  35.5  33348  275.98 0865.16
2015 04 09 07 49 32 .48     -15    -31     22     35     41 207.2  35.5  33346  275.95 0865.16
2015 04 09 07 49 32 .73     -11    -23     20     26     32 205.4  43.7  33340  275.83 0865.16
2015 04 09 07 49 32 .98     -15    -31     16     35     38 207.2  25.1  33342  275.88 0865.16
2015 04 09 07 49 33 .23     -22    -23      6     33     34 223.4  11.1  33334  275.73 0865.16
2015 04 09 07 49 33 .48     -26    -26      4     38     39 225.0   5.9  33326  275.60 0865.16
2015 04 09 07 49 33 .74     -28    -31      9     42     43 222.3  12.2  33336  275.77 0865.16
2015 04 09 07 49 33 .99     -25    -30      6     40     41 219.6   9.0  33330  275.68 0865.16
2015 04 09 07 49 34 .24     -19    -30      3     36     37 212.5   4.9  33332  275.70 0865.16
2015 04 09 07 49 34 .49     -20    -37      3     43     44 208.1   4.9  33344  275.91 0865.16
2015 04 09 07 49 34 .74      -7    -37     -1     38     39 191.6  -2.2  33342  275.88 0865.16
2015 04 09 07 49 34 .99      -7    -37     -2     38     39 191.5  -3.1  33334  275.73 0865.16
2015 04 09 07 49 35 .24     -17    -48     -2     52     53 200.0  -2.2  33310  275.35 0865.16
2015 04 09 07 49 35 .49     -15    -45      0     48     49 198.3  -0.3  33316  275.43 0865.16
2015 04 09 07 49 35 .74     -24    -38      3     46     47 212.5   4.9  33310  275.34 0865.16
2015 04 09 07 49 36 .00     -16    -38      1     42     43 202.7   1.8  33312  275.39 0865.16
2015 04 09 07 49 36 .24     -14    -38      0     41     42 200.9   0.8  33318  275.48 0865.16
2015 04 09 07 49 36 .49     -17    -36     -1     40     41 205.5  -2.2  33322  275.55 0865.16
2015 04 09 07 49 36 .74     -19    -30      3     36     37 212.5   4.9  33316  275.45 0865.16
2015 04 09 07 49 37 .00     -17    -36      6     40     41 205.5   9.0  33310  275.34 0865.16
2015 04 09 07 49 37 .25     -17    -36      6     40     41 205.5   9.0  33318  275.47 0865.16
2015 04 09 07 49 37 .49     -19    -38     11     43     45 206.3  14.3  33322  275.53 0865.17
2015 04 09 07 49 37 .95     -19    -38     11     43     45 206.3  14.3  33324  275.58 0865.17
2015 04 09 07 49 38 .00     -17    -33     12     38     41 207.2  18.4  33326  275.60 0865.17
2015 04 09 07 49 38 .25     -19    -38     11     43     45 206.3  14.3  33324  275.58 0865.17
2015 04 09 07 49 38 .50     -23    -46      5     52     53 207.2   5.9  33322  275.53 0865.17
2015 04 09 07 49 38 .74     -26    -42      2     50     51 212.5   2.9  33324  275.57 0865.17
2015 04 09 07 49 39 .01     -25    -40     16     48     51 212.5  19.2  33314  275.42 0865.17
2015 04 09 07 49 39 .26     -31    -37     17     49     53 220.5  19.4  33314  275.40 0865.16
2015 04 09 07 49 39 .51     -27    -35     17     45     48 217.0  20.0  33314  275.40 0865.16
2015 04 09 07 49 39 .76     -26    -31     19     41     45 219.6  27.2  33312  275.39 0865.16
2015 04 09 07 49 40 .01     -28    -31     28     43     51 222.3  35.6  33316  275.43 0865.16
2015 04 09 07 49 40 .26     -36    -36     22     51     55 225.0  25.1  33308  275.30 0865.16
2015 04 09 07 49 40 .51     -33    -32     17     47     49 226.0  20.0  33312  275.37 0865.16
2015 04 09 07 49 40 .76     -33    -32     17     47     49 226.0  20.0  33312  275.37 0865.16
2015 04 09 07 49 41 .01     -35    -35     21     50     54 225.0  23.0  33316  275.45 0865.16
2015 04 09 07 49 41 .27     -37    -34     18     51     55 227.8  19.4  33314  275.40 0865.16
2015 04 09 07 49 41 .52     -34    -34     16     49     52 225.0  18.4  33312  275.39 0865.16
2015 04 09 07 49 41 .76     -35    -42      6     55     56 219.6   6.9  33320  275.50 0865.16
2015 04 09 07 49 42 .01     -31    -48     11     58     60 212.5  11.1  33322  275.55 0865.16
2015 04 09 07 49 42 .27     -34    -41     15     54     57 219.6  15.3  33322  275.53 0865.16
2015 04 09 07 49 42 .51     -40    -38      5     56     57 226.9   5.9  33306  275.27 0865.16
2015 04 09 07 49 42 .77     -38    -37      2     54     55 225.9   2.9  33304  275.24 0865.16
2015 04 09 07 49 43 .02     -40    -38      5     56     57 226.9   5.9  33302  275.20 0865.16
2015 04 09 07 49 43 .27     -43    -36      3     57     58 230.5   3.8  33300  275.19 0865.16
2015 04 09 07 49 43 .52     -40    -38      5     56     57 226.9   5.9  33302  275.20 0865.16
2015 04 09 07 49 43 .77     -43    -42      5     61     62 226.0   4.9  33304  275.24 0865.16
2015 04 09 07 49 44 .02     -40    -38      5     56     57 226.9   5.9  33308  275.30 0865.16
2015 04 09 07 49 44 .27     -43    -43     12     61     63 225.1  11.1  33310  275.35 0865.16
2015 04 09 07 49 44 .52     -37    -45     11     59     61 219.7  11.1  33320  275.52 0865.16
2015 04 09 07 49 44 .77     -40    -48     17     63     66 219.6  15.2  33322  275.55 0865.15
2015 04 09 07 49 45 .02     -40    -48     17     63     66 219.6  15.2  33326  275.60 0865.15
2015 04 09 07 49 45 .27     -38    -46     12     61     63 219.6  11.0  33318  275.47 0865.15
2015 04 09 07 49 45 .52     -37    -53     12     65     67 215.2  11.0  33308  275.30 0865.15
2015 04 09 07 49 45 .78     -44    -57     11     73     74 217.8   9.0  33310  275.35 0865.15
2015 04 09 07 49 46 .03     -41    -50      8     65     66 219.6   7.1  33312  275.39 0865.15
2015 04 09 07 49 46 .29     -39    -57      8     70     71 214.3   7.1  33312  275.39 0865.15
2015 04 09 07 49 46 .54     -24    -54      5     60     61 204.5   4.9  33306  275.29 0865.15
2015 04 09 07 49 46 .79     -32    -57      4     66     67 209.0   3.8  33310  275.34 0865.15
2015 04 09 07 49 47 .04     -38    -53     -2     66     67 215.2  -2.2  33326  275.60 0865.15
2015 04 09 07 49 47 .29     -33    -61      3     70     71 209.0   2.8  33360  276.16 0865.15
2015 04 09 07 49 47 .54     -37    -69      4     79     80 208.1   2.9  33316  275.43 0865.15
2015 04 09 07 49 47 .79     -30    -65     -2     72     73 205.4  -2.2  33318  275.47 0865.15
2015 04 09 07 49 48 .04     -35    -62      3     72     73 209.9   2.8  33306  275.29 0865.15
2015 04 09 07 49 48 .29     -39    -62      3     74     75 212.5   2.8  33306  275.29 0865.15
2015 04 09 07 49 48 .54     -45    -58     -9     74     75 217.8  -7.2  33304  275.24 0865.15
2015 04 09 07 49 48 .80     -34    -54    -10     65     66 212.5  -9.3  33308  275.30 0865.15
2015 04 09 07 49 49 .04     -28    -53     -4     61     62 208.1  -4.1  33314  275.40 0865.15
2015 04 09 07 49 49 .29     -34    -49      6     60     61 215.2   5.9  33320  275.50 0865.15
2015 04 09 07 49 49 .54     -29    -45      7     54     55 212.5   8.0  33322  275.55 0865.15
2015 04 09 07 49 49 .79     -35    -49     14     61     63 216.1  13.2  33324  275.58 0865.15
2015 04 09 07 49 50 .04     -30    -48     20     57     61 212.5  19.4  33328  275.63 0865.15
2015 04 09 07 49 50 .30     -30    -54      6     62     63 209.0   5.9  33314  275.40 0865.15
2015 04 09 07 49 50 .55     -27    -43     15     52     55 212.5  16.3  33324  275.58 0865.15
2015 04 09 07 49 50 .80     -33    -47      1     58     59 215.2   1.8  33328  275.65 0865.15
2015 04 09 07 49 51 .05     -33    -38      2     51     52 220.5   2.9  33322  275.55 0865.16
2015 04 09 07 49 51 .29     -32    -40     11     52     54 218.7  12.2  33328  275.65 0865.16
2015 04 09 07 49 51 .55     -31    -44     16     54     57 215.2  17.3  33328  275.65 0865.16
2015 04 09 07 49 51 .80     -34    -34      6     49     50 225.0   8.0  33320  275.50 0865.16
2015 04 09 07 49 52 .05     -35    -35      8     50     51 225.0  10.1  33314  275.40 0865.16
2015 04 09 07 49 52 .30     -31    -42      4     53     54 217.0   4.9  33312  275.37 0865.16
2015 04 09 07 49 52 .55     -21    -40     15     46     49 208.1  18.4  33330  275.68 0865.16
2015 04 09 07 49 52 .80     -21    -40     15     46     49 208.1  18.4  33318  275.48 0865.16
2015 04 09 07 49 53 .07     -17    -39      9     43     44 203.6  12.2  33322  275.55 0865.16
2015 04 09 07 49 53 .31     -29    -46      0     55     56 212.5   0.8  33318  275.48 0865.16
2015 04 09 07 49 53 .56     -35    -49     -4     61     62 215.2  -4.1  33314  275.40 0865.16
2015 04 09 07 49 53 .82     -47    -57     -5     75     76 219.7  -4.1  33322  275.55 0865.16
2015 04 09 07 49 54 .06     -36    -50     -1     62     63 216.1  -1.3  33328  275.63 0865.16
2015 04 09 07 49 54 .32     -33    -38     10     51     52 220.5  11.1  33330  275.68 0865.16
2015 04 09 07 49 54 .56     -26    -35     -3     44     45 217.0  -4.1  33340  275.83 0865.16
2015 04 09 07 49 54 .81     -35    -34      7     49     50 225.9   9.0  33334  275.75 0865.16
2015 04 09 07 49 55 .07     -31    -48     11     58     60 212.5  11.1  33338  275.82 0865.16
2015 04 09 07 49 55 .32     -27    -52     16     59     62 208.1  15.3  33348  275.98 0865.16
2015 04 09 07 49 55 .57     -29    -54     20     62     66 208.9  18.4  33348  275.98 0865.16
2015 04 09 07 49 55 .82     -25    -48     15     55     58 207.2  15.3  33344  275.91 0865.16
2015 04 09 07 49 56 .07     -28    -43     16     52     55 212.6  17.3  33334  275.73 0865.16
2015 04 09 07 49 56 .32     -20    -62     24     66     70 198.3  20.0  33342  275.86 0865.16
2015 04 09 07 49 56 .57     -15    -49     24     52     57 196.9  27.1  33346  275.93 0865.16
2015 04 09 07 49 56 .82     -12    -46     20     48     52 195.1  24.1  33342  275.88 0865.16
2015 04 09 07 49 57 .07     -12    -46     20     48     52 195.1  24.1  33342  275.88 0865.16
2015 04 09 07 49 57 .32     -17    -49     17     52     55 199.2  18.9  33348  275.98 0865.16
2015 04 09 07 49 57 .57     -30    -55     28     63     68 209.0  25.1  33342  275.88 0865.15
2015 04 09 07 49 57 .83     -32    -58     23     67     71 209.0  19.2  33364  276.23 0865.15
2015 04 09 07 49 58 .08     -32    -58     26     67     71 209.0  22.0  33372  276.36 0865.15
2015 04 09 07 49 58 .33     -29    -46     41     55     68 212.6  41.7  33364  276.23 0865.15
2015 04 09 07 49 58 .58     -42    -50     43     66     78 219.6  35.6  33390  276.66 0865.15
2015 04 09 07 49 58 .82     -19    -47     37     51     63 202.7  39.7  33392  276.69 0865.15
2015 04 09 07 49 59 .07     -24    -51     54     57     78 205.3  48.5  33378  276.48 0865.15
2015 04 09 07 49 59 .32     -32    -58     51     67     84 209.0  41.2  33368  276.31 0865.15
2015 04 09 07 49 59 .58     -29    -74     27     80     85 201.4  19.2  33352  276.03 0865.15
2015 04 09 07 49 59 .83     -11    -61     26     63     68 190.7  23.0  33346  275.95 0865.15
2015 04 09 07 50 00 .08     -10    -76     -9     77     78 188.0  -7.2  33330  275.68 0865.15
2015 04 09 07 50 00 .34     -18    -72     11     75     76 194.3   9.0  33344  275.90 0865.15
2015 04 09 07 50 00 .59     -27    -65     30     71     77 202.7  23.1  33360  276.16 0865.15
2015 04 09 07 50 00 .84     -23    -58     19     63     67 201.8  17.3  33354  276.08 0865.15
2015 04 09 07 50 01 .09      -7    -61     11     62     63 187.1  10.1  33336  275.78 0865.15
2015 04 09 07 50 01 .35      -7    -67      9     68     69 186.2   8.0  33348  275.98 0865.15
2015 04 09 07 50 01 .59     -16    -62     20     65     69 195.1  17.3  33348  275.98 0865.15
2015 04 09 07 50 01 .84      -1    -64      9     65     66 180.9   8.0  33322  275.53 0865.15
2015 04 09 07 50 02 .09      -4    -67     13     68     70 183.6  11.1  33318  275.48 0865.15
2015 04 09 07 50 02 .34      -2    -68      5     69     70 181.8   4.9  33314  275.40 0865.15
2015 04 09 07 50 02 .59      -4    -57     -2     58     59 184.5  -2.2  33316  275.45 0865.15
2015 04 09 07 50 02 .85      -1    -67    -12     68     70 181.0 -10.3  33328  275.63 0865.15
2015 04 09 07 50 03 .09       1    -71      4     72     73 179.1   3.8  33334  275.75 0865.15
2015 04 09 07 50 03 .35       0    -84      4     85     86 180.4   2.8  33352  276.03 0865.15
2015 04 09 07 50 03 .60       5    -66      9     67     68 175.6   8.0  33352  276.03 0865.15
2015 04 09 07 50 03 .85       4    -63     20     64     68 175.5  17.3  33348  275.98 0865.15
2015 04 09 07 50 04 .10       0    -75     27     76     80 180.0  20.0  33352  276.03 0865.15
2015 04 09 07 50 04 .35       7    -63     28     64     69 172.9  26.2  33354  276.08 0865.15
2015 04 09 07 50 04 .60      -5    -73     24     74     79 184.5  18.4  33346  275.93 0865.15
2015 04 09 07 50 04 .85      -9    -87      5     88     89 186.2   3.8  33334  275.75 0865.15
2015 04 09 07 50 05 .10       7    -92     14     93     95 175.5   9.0  33360  276.18 0865.15
2015 04 09 07 50 05 .35      23    -70     24     74     79 161.3  18.4  33366  276.26 0865.15
2015 04 09 07 50 05 .60     -13    -56     16     58     61 193.4  15.3  33338  275.82 0865.15
2015 04 09 07 50 05 .85     -18    -58      4     61     62 197.8   3.8  33336  275.78 0865.15
2015 04 09 07 50 06 .10     -24    -60     12     65     67 201.8  11.0  33344  275.90 0865.15
2015 04 09 07 50 06 .35     -24    -44     17     51     54 209.0  18.9  33352  276.03 0865.15
2015 04 09 07 50 06 .60       0    -42     30     43     52 180.0  38.6  33366  276.26 0865.15
2015 04 09 07 50 06 .86       0    -46     20     47     51 180.0  24.1  33372  276.38 0865.15
2015 04 09 07 50 07 .12      -5    -42     20     43     47 188.0  26.2  33376  276.43 0865.15
2015 04 09 07 50 07 .36      -3    -39     16     40     43 184.5  22.0  33384  276.58 0865.15
2015 04 09 07 50 07 .61      -1    -31     13     32     34 182.6  21.0  33378  276.46 0865.15
2015 04 09 07 50 07 .86      -7    -23     11     25     27 198.5  25.1  33380  276.49 0865.15
2015 04 09 07 50 08 .11       9    -32      8     34     35 163.1  13.2  33374  276.39 0865.15
2015 04 09 07 50 08 .36      29    -48     15     57     60 148.4  15.2  33372  276.38 0865.15
2015 04 09 07 50 08 .62      31    -47     24     57     61 146.6  23.1  33366  276.28 0865.15
2015 04 09 07 50 08 .87      29    -34     22     46     51 139.5  27.2  33368  276.31 0865.15
2015 04 09 07 50 09 .12      22    -33     28     40     48 145.7  38.6  33370  276.33 0865.15
2015 04 09 07 50 09 .37      31    -39     24     51     56 141.3  27.1  33366  276.28 0865.15
2015 04 09 07 50 09 .62       6    -49      6     50     51 172.0   6.9  33370  276.33 0865.15
2015 04 09 07 50 09 .87      10    -54      7     55     56 169.3   8.0  33370  276.34 0865.15
2015 04 09 07 50 10 .12      13    -48     12     50     52 164.0  14.3  33374  276.39 0865.15
2015 04 09 07 50 10 .37      12    -38     13     41     44 161.5  18.4  33374  276.39 0865.16
2015 04 09 07 50 10 .62      18    -44     20     48     52 157.3  24.1  33372  276.36 0865.16
2015 04 09 07 50 10 .87       8    -39     28     40     48 168.4  38.6  33376  276.43 0865.16
2015 04 09 07 50 11 .12       8    -39     28     40     48 168.4  38.6  33376  276.43 0865.16
2015 04 09 07 50 11 .37       0    -53      4     54     55 179.1   4.9  33366  276.28 0865.16
2015 04 09 07 50 11 .63       8    -44      8     45     46 169.3  10.1  33364  276.25 0865.16
2015 04 09 07 50 11 .87       4    -30     17     31     35 172.0  33.5  33374  276.41 0865.16
2015 04 09 07 50 12 .12      16    -36     22     40     45 156.4  32.4  33372  276.36 0865.16
2015 04 09 07 50 12 .37      29    -44     15     53     56 146.6  16.3  33336  275.78 0865.16
2015 04 09 07 50 12 .62      26    -43     10     51     53 149.3  11.1  33318  275.48 0865.16
2015 04 09 07 50 12 .88      34    -51     21     62     66 146.6  19.4  33332  275.72 0865.16
2015 04 09 07 50 13 .13      29    -59     17     66     69 153.7  14.3  33352  276.03 0865.16
2015 04 09 07 50 13 .38      32    -65     17     73     75 153.7  13.2  33344  275.90 0865.16
2015 04 09 07 50 13 .63      40    -54      3     68     69 143.9   2.9  33318  275.48 0865.16
2015 04 09 07 50 13 .90      28    -58      5     65     66 153.7   4.9  33336  275.77 0865.16
2015 04 09 07 50 14 .14      16    -59     27     62     67 164.9  24.1  33354  276.06 0865.16
2015 04 09 07 50 14 .39      32    -51      5     61     62 147.4   4.9  33342  275.88 0865.16
2015 04 09 07 50 14 .64      28    -74      0     80     81 159.1  -0.3  33352  276.03 0865.16
2015 04 09 07 50 14 .90      17    -84      1     86     87 168.4   0.8  33364  276.25 0865.16
2015 04 09 07 50 15 .14      -5    -81     11     82     83 184.0   8.0  33366  276.26 0865.16
2015 04 09 07 50 15 .39     -21    -62     25     66     70 199.2  22.0  33366  276.28 0865.16
2015 04 09 07 50 15 .64     -24    -62     26     67     71 201.8  22.0  33362  276.21 0865.16
2015 04 09 07 50 15 .89     -25    -76     11     81     82 198.7   8.0  33332  275.70 0865.15
2015 04 09 07 50 16 .15     -16    -86     -6     88     89 190.7  -4.1  33340  275.85 0865.15
2015 04 09 07 50 16 .39     -18    -72      3     75     76 194.3   2.9  33328  275.63 0865.15
2015 04 09 07 50 16 .65     -15    -75     13     77     79 191.6  10.1  33330  275.68 0865.15
2015 04 09 07 50 16 .90     -15    -75     13     77     79 191.6  10.1  33354  276.08 0865.15
2015 04 09 07 50 17 .15     -18    -70     25     73     78 194.3  19.4  33360  276.16 0865.15
2015 04 09 07 50 17 .39      -8    -57     35     58     67 188.9  34.4  33362  276.21 0865.15
2015 04 09 07 50 17 .65     -25    -75     46     80     92 198.7  32.9  33372  276.38 0865.15
2015 04 09 07 50 17 .90     -24    -82     27     86     91 196.5  17.3  33360  276.16 0865.15
2015 04 09 07 50 18 .15     -31    -78     30     85     91 201.8  19.4  33364  276.23 0865.15
2015 04 09 07 50 18 .40     -25    -76     11     81     82 198.7   8.0  33340  275.85 0865.15
2015 04 09 07 50 18 .65      -5    -80     -3     81     82 183.6  -2.2  33344  275.90 0865.15
2015 04 09 07 50 18 .90      -7    -61      1     62     63 187.1   1.8  33334  275.75 0865.15
2015 04 09 07 50 19 .16      -4    -48      5     49     50 185.3   5.9  33348  275.98 0865.15
2015 04 09 07 50 19 .40     -12    -39     39     41     56 197.8  50.0  33370  276.34 0865.15
2015 04 09 07 50 19 .65     -15    -49     37     52     63 197.8  39.5  33372  276.38 0865.15
2015 04 09 07 50 19 .90     -23    -79     21     83     86 196.5  14.7  33360  276.16 0865.15
2015 04 09 07 50 20 .15     -26    -78     29     83     88 198.7  19.4  33350  276.01 0865.15
2015 04 09 07 50 20 .40     -27    -83     48     88    100 198.5  31.3  33334  275.75 0865.15
2015 04 09 07 50 20 .66     -28    -89     36     94    100 197.8  22.5  33322  275.53 0865.15
2015 04 09 07 50 20 .91      -7    -84     15     85     87 184.9  10.6  33320  275.50 0865.15
2015 04 09 07 50 21 .16      -8    -94     19     95     98 185.3  11.6  33304  275.25 0865.15
2015 04 09 07 50 21 .42      -9   -104     12    105    106 185.3   6.9  33318  275.48 0865.15
2015 04 09 07 50 21 .67      -9    -97     26     98    102 185.8  15.2  33316  275.45 0865.15
2015 04 09 07 50 21 .92     -15    -76     41     78     88 191.6  29.8  33340  275.83 0865.15
2015 04 09 07 50 22 .17     -32    -76     16     83     85 202.7  11.1  33328  275.65 0865.15
2015 04 09 07 50 22 .42     -23    -70      3     74     75 198.3   2.8  33328  275.63 0865.15
2015 04 09 07 50 22 .69     -27    -68     20     74     77 201.9  15.8  33334  275.75 0865.15
2015 04 09 07 50 22 .92     -21    -82     24     85     89 194.7  15.8  33312  275.39 0865.15
2015 04 09 07 50 23 .17      -8    -76     10     77     78 186.2   7.5  33312  275.37 0865.14
2015 04 09 07 50 23 .43     -24    -81    -14     85     87 196.5  -9.3  33322  275.53 0865.14
2015 04 09 07 50 23 .68     -31    -83     -9     89     90 200.9  -6.2  33364  276.23 0865.14
2015 04 09 07 50 23 .92     -47    -75      8     89     90 212.1   5.4  33376  276.43 0865.14
2015 04 09 07 50 24 .18     -15    -77      0     79     80 191.6  -0.7  33354  276.08 0865.14
2015 04 09 07 50 24 .42      -9    -65     41     66     77 188.0  35.5  33364  276.23 0865.14
2015 04 09 07 50 24 .67       5    -64      3     65     66 175.5   2.9  33336  275.78 0865.14
2015 04 09 07 50 24 .93      20    -56     14     60     62 160.0  13.2  33338  275.80 0865.15
2015 04 09 07 50 25 .18      14    -70     24     72     77 168.5  18.9  33346  275.95 0865.15
2015 04 09 07 50 25 .42       1    -79     14     80     82 179.0  10.1  33316  275.43 0865.15
2015 04 09 07 50 25 .68      -7    -98      7     99    100 184.4   4.4  33306  275.29 0865.15
2015 04 09 07 50 25 .93     -15   -105     20    107    110 188.5  11.0  33308  275.30 0865.15
2015 04 09 07 50 26 .18     -18   -101     17    103    105 190.2   9.5  33304  275.24 0865.15
2015 04 09 07 50 26 .43     -11    -83      3     84     85 187.6   2.3  33304  275.24 0865.15
2015 04 09 07 50 26 .68      -8   -102      5    103    104 184.9   2.9  33304  275.25 0865.15
2015 04 09 07 50 26 .93       0   -110      6    111    112 180.0   3.3  33322  275.53 0865.15
2015 04 09 07 50 27 .18      -5   -111    -10    112    113 182.7  -5.6  33300  275.19 0865.15
2015 04 09 07 50 27 .43       0   -106    -16    107    109 180.0  -8.8  33298  275.15 0865.15
2015 04 09 07 50 27 .69       6    -98    -19     99    101 176.4 -11.3  33294  275.09 0865.15
2015 04 09 07 50 27 .94       0    -94    -26     95     99 180.5 -15.5  33302  275.20 0865.15
2015 04 09 07 50 28 .19       0    -86    -25     87     91 180.0 -16.0  33296  275.10 0865.15
2015 04 09 07 50 28 .44      -1    -82    -28     83     88 180.9 -19.1  33294  275.09 0865.15
2015 04 09 07 50 28 .69       0    -80    -25     81     85 180.0 -17.6  33292  275.05 0865.15
2015 04 09 07 50 28 .94       1    -74    -23     75     79 179.1 -17.6  33294  275.09 0865.15
2015 04 09 07 50 29 .19       1    -74    -23     75     79 179.1 -17.6  33294  275.09 0865.15
2015 04 09 07 50 29 .44      -3    -74    -12     75     77 182.7  -9.3  33294  275.09 0865.15
2015 04 09 07 50 29 .69      -1    -71     -9     72     73 180.9  -7.3  33296  275.10 0865.15
2015 04 09 07 50 29 .95      -1    -70    -19     71     74 180.9 -15.4  33300  275.19 0865.15
2015 04 09 07 50 30 .19       0    -67    -16     68     70 180.0 -13.4  33302  275.22 0865.15
2015 04 09 07 50 30 .44       5    -68     -8     69     70 175.6  -7.3  33298  275.15 0865.15
2015 04 09 07 50 30 .69       5    -68     -8     69     70 175.6  -7.3  33298  275.15 0865.15
2015 04 09 07 50 30 .95       5    -68     -8     69     70 175.6  -7.3  33298  275.15 0865.15
2015 04 09 07 50 31 .20       7    -67    -12     68     70 173.8 -10.3  33300  275.19 0865.15
2015 04 09 07 50 31 .45       4    -62    -13     63     65 175.5 -12.4  33302  275.20 0865.15
2015 04 09 07 50 31 .70       4    -59    -16     60     63 175.6 -15.5  33300  275.19 0865.15
2015 04 09 07 50 31 .95       4    -57    -15     58     60 175.5 -14.5  33302  275.20 0865.15
2015 04 09 07 50 32 .21       4    -57     -7     58     59 175.5  -7.3  33300  275.19 0865.15
2015 04 09 07 50 32 .45       0    -48    -10     49     51 180.9 -12.4  33302  275.20 0865.15
2015 04 09 07 50 32 .70      -7    -53      2     54     55 188.0   2.8  33302  275.22 0865.15
2015 04 09 07 50 32 .95     -18    -65     -8     68     69 196.0  -7.2  33300  275.19 0865.15
2015 04 09 07 50 33 .20     -20    -61      3     65     66 198.5   2.8  33302  275.20 0865.15
2015 04 09 07 50 33 .45     -24    -71     -1     76     77 198.7  -1.2  33300  275.19 0865.15
2015 04 09 07 50 33 .70     -18    -82      4     84     85 192.5   2.9  33300  275.19 0865.15
2015 04 09 07 50 33 .95     -24    -71     -1     76     77 198.7  -1.2  33304  275.24 0865.15
2015 04 09 07 50 34 .21     -25    -76      4     81     82 198.7   2.9  33304  275.24 0865.15
2015 04 09 07 50 34 .45     -18    -82      4     84     85 192.5   2.9  33304  275.24 0865.15
2015 04 09 07 50 34 .71      -9    -73     -1     74     75 187.1  -1.2  33304  275.24 0865.15
2015 04 09 07 50 34 .96     -16    -68     -6     70     71 193.4  -5.2  33302  275.22 0865.15
2015 04 09 07 50 35 .22     -20    -67      3     71     72 196.9   2.8  33298  275.15 0865.15
2015 04 09 07 50 35 .47     -20    -67      3     71     72 196.9   2.8  33298  275.15 0865.15
2015 04 09 07 50 35 .72     -17    -72      3     75     76 193.4   2.9  33300  275.19 0865.15
2015 04 09 07 50 35 .97     -14    -72     -4     74     75 191.5  -3.1  33300  275.19 0865.15
2015 04 09 07 50 36 .22     -13    -69     -2     71     72 190.7  -2.2  33308  275.30 0865.15
2015 04 09 07 50 36 .47     -17    -72     -2     75     76 193.4  -2.2  33306  275.27 0865.15
2015 04 09 07 50 36 .72     -15    -69     -1     71     72 192.5  -1.2  33306  275.29 0865.15
2015 04 09 07 50 36 .97     -17    -72     -2     75     76 193.4  -2.2  33306  275.27 0865.15
2015 04 09 07 50 37 .22     -20    -77     -3     80     81 195.1  -2.6  33306  275.29 0865.15
2015 04 09 07 50 37 .47     -24    -71     -6     76     77 198.7  -5.2  33304  275.25 0865.15
2015 04 09 07 50 37 .72     -16    -68    -12     70     72 193.4 -10.3  33306  275.29 0865.15
2015 04 09 07 50 37 .97     -24    -73     -4     77     78 198.3  -3.1  33306  275.29 0865.15
2015 04 09 07 50 38 .22     -22    -76    -19     80     83 196.0 -13.4  33306  275.29 0865.15
2015 04 09 07 50 38 .47     -18    -65     -2     68     69 196.0  -2.2  33304  275.25 0865.15
2015 04 09 07 50 38 .73     -23    -70    -14     74     76 198.3 -11.3  33304  275.25 0865.15
2015 04 09 07 50 38 .97     -18    -72     -9     75     76 194.3  -7.2  33306  275.29 0865.15
2015 04 09 07 50 39 .22     -15    -75    -12     77     79 191.6  -9.3  33304  275.24 0865.15
2015 04 09 07 50 39 .48     -18    -65     -8     68     69 196.0  -7.2  33300  275.19 0865.15
2015 04 09 07 50 39 .73     -21    -65      0     69     70 198.3  -0.3  33316  275.43 0865.15
2015 04 09 07 50 39 .98     -26    -68     -1     73     74 200.9  -1.3  33322  275.55 0865.15
2015 04 09 07 50 40 .23     -24    -74    -10     78     79 198.3  -7.3  33308  275.30 0865.15
2015 04 09 07 50 40 .48     -17    -53      1     56     57 197.8   1.8  33328  275.63 0865.15
2015 04 09 07 50 40 .73     -28    -70     -1     76     77 201.8  -1.2  33330  275.68 0865.15
2015 04 09 07 50 40 .98     -24    -62     26     67     71 201.8  22.0  33334  275.75 0865.15
2015 04 09 07 50 41 .23     -12    -56      1     58     59 192.5   1.8  33322  275.55 0865.15
2015 04 09 07 50 41 .48      -7    -61      1     62     63 187.1   1.8  33316  275.45 0865.15
2015 04 09 07 50 41 .74      -5    -65      4     66     67 184.5   3.8  33318  275.48 0865.15
2015 04 09 07 50 41 .99     -15    -69      7     71     72 192.5   5.9  33320  275.50 0865.15
2015 04 09 07 50 42 .24     -10    -73      1     74     75 188.1   0.8  33320  275.52 0865.15
2015 04 09 07 50 42 .49      -1    -71     -2     72     73 180.9  -2.2  33318  275.48 0865.15
2015 04 09 07 50 42 .74      -7    -84      1     85     86 184.9   1.2  33328  275.65 0865.15
2015 04 09 07 50 43 .00      -3    -75     15     76     78 182.7  11.1  33340  275.83 0865.15
2015 04 09 07 50 43 .24     -14    -70     25     72     77 191.5  19.4  33340  275.83 0865.15
2015 04 09 07 50 43 .49      -6    -68     23     69     73 185.3  18.9  33334  275.73 0865.15
2015 04 09 07 50 43 .74       0    -65      2     66     67 180.0   1.8  33316  275.45 0865.15
2015 04 09 07 50 44 .00      -1    -68     -1     69     70 181.0  -1.2  33318  275.48 0865.15
2015 04 09 07 50 44 .25       1    -71     -1     72     73 179.1  -1.3  33320  275.52 0865.15
2015 04 09 07 50 44 .50       0    -75     -3     76     77 180.0  -2.2  33316  275.45 0865.15
2015 04 09 07 50 44 .75      -1    -71     -9     72     73 180.9  -7.3  33310  275.35 0865.15
2015 04 09 07 50 45 .00      -1    -71    -10     72     73 180.9  -8.2  33306  275.27 0865.15
2015 04 09 07 50 45 .25       1    -70    -13     71     73 179.1 -10.3  33300  275.19 0865.15
2015 04 09 07 50 45 .50       0    -62    -12     63     65 179.1 -11.3  33300  275.19 0865.15
2015 04 09 07 50 45 .75       0    -63    -17     64     67 180.9 -15.5  33300  275.19 0865.15
2015 04 09 07 50 46 .00       0    -74    -15     75     77 180.0 -11.5  33298  275.15 0865.15
2015 04 09 07 50 46 .25      -7    -67     -9     68     69 186.2  -8.2  33302  275.20 0865.15
2015 04 09 07 50 46 .50       0    -67    -16     68     70 180.0 -13.4  33302  275.22 0865.15
2015 04 09 07 50 46 .75      -3    -66    -13     67     69 182.7 -11.3  33304  275.24 0865.16
2015 04 09 07 50 47 .00      -3    -67     -6     68     69 182.7  -5.2  33298  275.15 0865.16
2015 04 09 07 50 47 .26       0    -75     -9     76     77 180.0  -7.2  33310  275.34 0865.16
2015 04 09 07 50 47 .51      -5    -71     -2     72     73 184.4  -2.2  33314  275.40 0865.16
2015 04 09 07 50 47 .75      -5    -75     -9     76     77 184.5  -7.3  33298  275.15 0865.16
2015 04 09 07 50 48 .01       0    -74    -15     75     77 180.0 -11.5  33298  275.15 0865.16
2015 04 09 07 50 48 .26      -2    -68     -5     69     70 181.8  -4.1  33308  275.32 0865.16
2015 04 09 07 50 48 .52      -6    -60     -3     61     62 186.2  -3.1  33318  275.48 0865.16
2015 04 09 07 50 48 .77      -4    -57      6     58     59 184.5   5.9  33330  275.67 0865.16
2015 04 09 07 50 49 .02       0    -57    -10     58     59 180.9 -10.3  33314  275.42 0865.16
2015 04 09 07 50 49 .27      -4    -57     -7     58     59 184.5  -7.3  33300  275.19 0865.16
2015 04 09 07 50 49 .52      -4    -55    -15     56     59 184.5 -15.4  33296  275.10 0865.16
2015 04 09 07 50 49 .77      -7    -52    -16     53     56 188.0 -17.6  33298  275.14 0865.16
2015 04 09 07 50 50 .02      -4    -55    -15     56     59 184.5 -15.4  33296  275.10 0865.16
2015 04 09 07 50 50 .27      -6    -60    -10     61     62 186.2  -9.3  33298  275.15 0865.16
2015 04 09 07 50 50 .52      -8    -55    -11     56     58 188.9 -11.3  33298  275.14 0865.16
2015 04 09 07 50 50 .77     -14    -58    -18     60     63 194.3 -16.6  33300  275.19 0865.16
2015 04 09 07 50 51 .03      -7    -60    -11     61     63 187.1 -10.3  33302  275.20 0865.16
2015 04 09 07 50 51 .27      -6    -59    -19     60     63 186.2 -17.6  33310  275.34 0865.16
2015 04 09 07 50 51 .52     -17    -46    -11     50     52 200.9 -12.4  33318  275.47 0865.16
2015 04 09 07 50 51 .78     -27    -51    -10     58     59 208.1 -10.3  33322  275.55 0865.16
2015 04 09 07 50 52 .03     -23    -50     -6     56     57 205.3  -6.2  33332  275.70 0865.16
2015 04 09 07 50 52 .27     -36    -50     -1     62     63 216.1  -1.3  33346  275.93 0865.16
2015 04 09 07 50 52 .53     -33    -43     10     55     57 217.0  11.0  33348  275.98 0865.16
2015 04 09 07 50 52 .78     -44    -38     17     59     62 229.6  16.3  33350  276.01 0865.16
2015 04 09 07 50 53 .03     -39    -39     11     56     58 225.0  11.0  33342  275.88 0865.16
2015 04 09 07 50 53 .28     -30    -41     -2     51     52 216.1  -2.2  33344  275.90 0865.16
2015 04 09 07 50 53 .53     -22    -42     -3     48     49 208.1  -4.1  33328  275.65 0865.16
2015 04 09 07 50 53 .78     -22    -42    -12     48     50 208.1 -14.5  33322  275.53 0865.16
2015 04 09 07 50 54 .03     -22    -50     -6     55     56 203.6  -6.2  33320  275.50 0865.16
2015 04 09 07 50 54 .28     -17    -50    -18     54     56 199.2 -23.6  33318  275.48 0865.16
2015 04 09 07 50 54 .53      -6    -52    -17     53     56 187.1 -18.7  33310  275.34 0865.16
2015 04 09 07 50 54 .78      -7    -53     -9     54     55 188.0 -10.3  33314  275.40 0865.16
2015 04 09 07 50 55 .03     -11    -40    -18     42     45 196.0 -28.5  33304  275.24 0865.16
2015 04 09 07 50 55 .29      -3    -47     -7     48     49 184.5  -8.2  33306  275.29 0865.16
2015 04 09 07 50 55 .55     -13    -69     -9     71     72 190.7  -7.2  33310  275.34 0865.16
2015 04 09 07 50 55 .79     -19    -56     -7     60     61 198.7  -7.3  33316  275.43 0865.16
2015 04 09 07 50 56 .05      -5    -75     -4     76     77 184.5  -3.1  33310  275.34 0865.16
2015 04 09 07 50 56 .29     -13    -69     -2     71     72 190.7  -2.2  33308  275.30 0865.16
2015 04 09 07 50 56 .54     -14    -72     -4     74     75 191.5  -3.1  33310  275.34 0865.16
2015 04 09 07 50 56 .80     -16    -62     -5     65     66 195.1  -5.2  33308  275.30 0865.16
2015 04 09 07 50 57 .05     -13    -65      3     67     68 191.6   2.8  33314  275.40 0865.16
2015 04 09 07 50 57 .30     -13    -65      3     67     68 191.6   2.8  33316  275.45 0865.16
2015 04 09 07 50 57 .55     -13    -66      9     68     69 191.6   8.0  33318  275.48 0865.16
2015 04 09 07 50 57 .80      -8    -57      7     58     59 188.9   6.9  33324  275.57 0865.16
2015 04 09 07 50 58 .05      -4    -57     11     58     60 184.5  11.0  33326  275.60 0865.16
2015 04 09 07 50 58 .30     -13    -47     17     49     53 196.0  19.4  33322  275.55 0865.16
2015 04 09 07 50 58 .55     -23    -53     11     58     60 203.6  11.1  33320  275.52 0865.16
2015 04 09 07 50 58 .80     -16    -52     15     55     58 197.8  15.3  33318  275.48 0865.16
2015 04 09 07 50 59 .05     -14    -58     10     60     61 194.3  10.1  33318  275.48 0865.16
2015 04 09 07 50 59 .30     -16    -61      7     64     65 195.1   6.9  33304  275.25 0865.16
2015 04 09 07 50 59 .55     -13    -57      3     59     60 193.4   2.9  33308  275.30 0865.16
2015 04 09 07 50 59 .80      -6    -53     -8     54     55 187.1  -9.3  33302  275.20 0865.16
2015 04 09 07 51 00 .05     -14    -58     -3     60     61 194.3  -3.1  33300  275.19 0865.16
2015 04 09 07 51 00 .30     -12    -60     -2     62     63 191.6  -2.2  33302  275.20 0865.17
2015 04 09 07 51 00 .55     -15    -53    -12     56     58 196.0 -12.4  33298  275.14 0865.17
2015 04 09 07 51 00 .80     -16    -49    -14     52     55 198.3 -15.5  33296  275.10 0865.17
2015 04 09 07 51 01 .06     -27    -51    -10     58     59 208.1 -10.3  33304  275.25 0865.17
2015 04 09 07 51 01 .31     -17    -53     -6     56     57 197.8  -6.2  33302  275.20 0865.17
2015 04 09 07 51 01 .56     -26    -51    -11     58     60 207.2 -11.3  33302  275.20 0865.17
2015 04 09 07 51 01 .81     -24    -45     -7     52     53 208.1  -8.2  33306  275.29 0865.17
2015 04 09 07 51 02 .06     -22    -50     -6     55     56 203.6  -6.2  33302  275.20 0865.16
2015 04 09 07 51 02 .31     -16    -49     -2     52     53 198.3  -2.2  33304  275.25 0865.16
2015 04 09 07 51 02 .57     -19    -46      2     50     51 202.7   2.8  33310  275.35 0865.16
2015 04 09 07 51 02 .82     -21    -46     -2     51     52 205.3  -2.2  33312  275.39 0865.16
2015 04 09 07 51 03 .07     -16    -49     -2     52     53 198.3  -2.2  33304  275.25 0865.16
2015 04 09 07 51 03 .33     -17    -50      4     53     54 199.2   4.9  33306  275.29 0865.16
2015 04 09 07 51 03 .57     -17    -50      4     53     54 199.2   4.9  33312  275.39 0865.16
2015 04 09 07 51 03 .82     -17    -53     11     56     58 198.3  11.0  33312  275.39 0865.17
2015 04 09 07 51 04 .07     -19    -56      5     60     61 198.7   4.9  33304  275.24 0865.17
2015 04 09 07 51 04 .32     -17    -50      4     53     54 199.2   4.9  33300  275.19 0865.17
2015 04 09 07 51 04 .57     -17    -53      5     56     57 197.8   5.9  33302  275.20 0865.17
2015 04 09 07 51 04 .82     -11    -53      3     55     56 192.5   3.8  33300  275.19 0865.17
2015 04 09 07 51 05 .07     -17    -53      0     56     57 197.8  -0.3  33298  275.14 0865.17
2015 04 09 07 51 05 .33     -24    -54      3     60     61 204.5   2.9  33298  275.14 0865.17
2015 04 09 07 51 05 .58     -24    -60     12     65     67 201.8  11.0  33308  275.30 0865.17
2015 04 09 07 51 05 .83     -16    -61     -1     64     65 195.1  -1.2  33300  275.19 0865.17
2015 04 09 07 51 06 .08     -15    -69      7     71     72 192.5   5.9  33302  275.20 0865.17
2015 04 09 07 51 06 .33     -17    -64     -2     67     68 195.1  -2.2  33302  275.20 0865.17
2015 04 09 07 51 06 .58     -16    -68     -6     70     71 193.4  -5.2  33302  275.22 0865.17
2015 04 09 07 51 06 .83     -14    -49     -9     51     52 196.0 -10.3  33304  275.25 0865.17
2015 04 09 07 51 07 .08      -9    -72     -6     73     74 187.1  -5.2  33298  275.15 0865.17
2015 04 09 07 51 07 .33     -15    -76     -6     78     79 191.6  -4.6  33298  275.15 0865.17
2015 04 09 07 51 07 .58     -13    -80    -11     82     83 189.3  -8.2  33296  275.10 0865.17
2015 04 09 07 51 07 .83     -20    -81     -3     84     85 193.8  -2.2  33296  275.10 0865.17
2015 04 09 07 51 08 .08     -25    -76     -3     81     82 198.7  -2.2  33298  275.15 0865.17
2015 04 09 07 51 08 .33     -16    -68      1     70     71 193.4   0.8  33298  275.14 0865.16
2015 04 09 07 51 08 .58     -19    -73     -9     76     77 195.1  -7.2  33298  275.14 0865.16
2015 04 09 07 51 08 .83     -15    -69     -5     71     72 192.5  -4.1  33296  275.10 0865.16
2015 04 09 07 51 09 .08     -15    -69    -14     71     73 192.5 -11.3  33298  275.14 0865.16
2015 04 09 07 51 09 .33     -13    -65     -2     67     68 191.5  -2.2  33298  275.14 0865.16
2015 04 09 07 51 09 .60     -21    -66     -1     70     71 198.3  -1.3  33306  275.29 0865.16
2015 04 09 07 51 09 .84     -24    -54     -2     60     61 204.5  -2.2  33312  275.37 0865.16
2015 04 09 07 51 10 .09     -18    -72     -2     75     76 194.3  -2.2  33296  275.10 0865.16
2015 04 09 07 51 10 .35     -16    -68      1     70     71 193.4   0.8  33298  275.14 0865.16
2015 04 09 07 51 10 .60      -6    -67     -3     68     69 185.3  -3.1  33298  275.14 0865.16
2015 04 09 07 51 10 .85     -15    -69    -14     71     73 192.5 -11.3  33298  275.14 0865.16
2015 04 09 07 51 11 .10     -15    -69     -5     71     72 192.5  -4.1  33300  275.17 0865.16
2015 04 09 07 51 11 .35     -16    -61     -5     64     65 195.1  -5.2  33300  275.17 0865.16
2015 04 09 07 51 11 .60     -17    -54     -2     57     58 198.3  -2.2  33304  275.24 0865.16
2015 04 09 07 51 11 .85     -19    -46    -11     50     52 202.7 -12.4  33308  275.30 0865.16
2015 04 09 07 51 12 .10     -19    -54     -2     58     59 199.2  -2.2  33310  275.34 0865.16
2015 04 09 07 51 12 .35     -18    -49     -2     53     54 200.9  -2.2  33314  275.40 0865.16
2015 04 09 07 51 12 .60     -17    -53    -12     56     58 197.8 -12.4  33306  275.29 0865.16
2015 04 09 07 51 12 .85     -14    -58     -9     60     61 194.3  -9.3  33304  275.25 0865.16
2015 04 09 07 51 13 .10      -9    -63    -21     64     68 188.1 -18.7  33296  275.10 0865.16
2015 04 09 07 51 13 .35     -24    -62    -24     67     72 201.8 -19.6  33298  275.14 0865.16
2015 04 09 07 51 13 .61     -28    -62    -20     69     73 204.5 -16.6  33298  275.15 0865.16
2015 04 09 07 51 13 .85     -19    -59    -22     63     67 198.3 -19.7  33296  275.12 0865.16
2015 04 09 07 51 14 .10     -13    -64    -19     66     68 191.6 -21.7  33298  275.14 0865.16
2015 04 09 07 51 14 .36     -13    -66    -20     68     70 191.5 -21.7  33302  275.20 0865.16
2015 04 09 07 51 14 .61     -10    -69    -24     70     74 188.9 -23.3  33316  275.45 0865.16
2015 04 09 07 51 14 .86     -31    -59    -24     67     71 208.1 -23.3  33310  275.35 0865.17
2015 04 09 07 51 15 .11     -42    -54    -20     69     73 217.8 -16.6  33312  275.37 0865.17
2015 04 09 07 51 15 .36     -30    -55    -21     63     67 209.0 -18.7  33310  275.35 0865.17
2015 04 09 07 51 15 .61     -29    -54    -22     62     66 208.1 -19.7  33320  275.52 0865.17
2015 04 09 07 51 15 .86     -29    -45     -6     54     55 212.6  -7.2  33326  275.62 0865.17
2015 04 09 07 51 16 .11     -32    -51     16     61     64 211.6  15.3  33310  275.35 0865.17
2015 04 09 07 51 16 .37     -21    -63     21     67     71 198.3  17.3  33322  275.55 0865.17
2015 04 09 07 51 16 .62     -24    -60     17     65     68 201.8  15.3  33322  275.53 0865.17
2015 04 09 07 51 16 .87     -25    -56     17     62     65 204.5  15.3  33324  275.57 0865.17
2015 04 09 07 51 17 .12     -27    -57     22     64     68 205.5  19.4  33328  275.65 0865.17
2015 04 09 07 51 17 .37     -19    -55     30     59     66 199.2  29.3  33330  275.67 0865.17
2015 04 09 07 51 17 .62     -19    -55     30     59     66 199.2  29.3  33330  275.67 0865.17
2015 04 09 07 51 17 .87     -13    -50     37     52     63 195.1  39.5  33330  275.68 0865.17
2015 04 09 07 51 18 .13     -10    -58     22     59     62 189.8  21.0  33326  275.60 0865.17
2015 04 09 07 51 18 .38     -21    -62      8     66     67 198.7   6.9  33312  275.39 0865.17
2015 04 09 07 51 18 .63     -17    -53     11     56     58 198.3  11.0  33316  275.43 0865.17
2015 04 09 07 51 18 .88     -22    -50     -6     55     56 203.6  -6.2  33326  275.62 0865.17
2015 04 09 07 51 19 .13     -17    -42     -1     46     47 202.7  -2.2  33314  275.40 0865.17
2015 04 09 07 51 19 .38     -16    -38      1     42     43 202.7   1.8  33316  275.43 0865.16
2015 04 09 07 51 19 .63     -31    -34     -6     47     48 222.3  -7.3  33310  275.34 0865.16
2015 04 09 07 51 19 .88     -15    -46      6     49     50 198.3   8.0  33308  275.30 0865.16
2015 04 09 07 51 20 .13     -22    -42      0     48     49 208.1  -0.3  33316  275.43 0865.16
2015 04 09 07 51 20 .38     -17    -42      5     46     47 201.8   6.9  33318  275.48 0865.16
2015 04 09 07 51 20 .63     -28    -31     -4     42     43 222.3  -6.2  33326  275.60 0865.16
2015 04 09 07 51 20 .88     -20    -26     -6     33     34 217.8 -11.3  33318  275.47 0865.16
2015 04 09 07 51 21 .13     -22    -34    -11     41     43 213.4 -15.5  33318  275.48 0865.17
2015 04 09 07 51 21 .38     -19    -30      1     36     37 212.5   2.9  33320  275.50 0865.17
2015 04 09 07 51 21 .63     -10    -35      0     37     38 196.9  -1.3  33328  275.65 0865.17
2015 04 09 07 51 21 .88     -10    -30     -1     32     33 198.3  -2.2  33328  275.65 0865.17
2015 04 09 07 51 22 .13      -8    -24      9     26     28 198.5  19.4  33330  275.67 0865.17
2015 04 09 07 51 22 .38     -13    -26     -1     30     31 207.2  -3.1  33328  275.63 0865.17
2015 04 09 07 51 22 .63     -25    -20      0     33     34 230.5  -1.2  33318  275.47 0865.17
2015 04 09 07 51 22 .89     -23    -24     -5     34     35 223.4  -9.3  33316  275.43 0865.16
2015 04 09 07 51 23 .14     -25    -30     -7     40     41 219.6 -10.3  33310  275.34 0865.16
2015 04 09 07 51 23 .40     -15    -23     -3     28     29 214.3  -7.3  33310  275.35 0865.16
2015 04 09 07 51 23 .65     -22    -23     -1     33     34 223.4  -2.2  33316  275.45 0865.16
2015 04 09 07 51 23 .90     -23    -19      0     30     31 230.4   0.8  33316  275.43 0865.16
2015 04 09 07 51 24 .15     -16    -16      9     23     24 225.0  21.0  33326  275.62 0865.16
2015 04 09 07 51 24 .40     -16    -13     12     21     24 230.5  31.4  33332  275.72 0865.16
2015 04 09 07 51 24 .65     -19    -23     17     31     35 219.7  33.5  33332  275.72 0865.16
2015 04 09 07 51 24 .90     -22    -26     15     35     38 219.7  23.0  33336  275.78 0865.16
2015 04 09 07 51 25 .15     -13    -25     10     29     31 207.2  18.9  33336  275.78 0865.16
2015 04 09 07 51 25 .40     -17    -27     13     33     35 212.6  21.0  33342  275.86 0865.16
2015 04 09 07 51 25 .65     -12    -27     17     30     34 205.4  31.4  33336  275.77 0865.16
2015 04 09 07 51 25 .90     -12    -25      9     28     30 205.4  18.9  33334  275.73 0865.16
2015 04 09 07 51 26 .15     -24    -37      5     45     46 212.5   6.9  33330  275.68 0865.16
2015 04 09 07 51 26 .41     -31    -42      4     53     54 217.0   4.9  33330  275.68 0865.16
2015 04 09 07 51 26 .65     -35    -35      0     50     51 225.0  -0.3  33336  275.78 0865.16
2015 04 09 07 51 26 .90     -28    -31      9     42     43 222.3  12.2  33336  275.77 0865.16
2015 04 09 07 51 27 .15     -23    -24     14     34     36 223.4  23.0  33332  275.72 0865.16
2015 04 09 07 51 27 .41     -30    -27     14     41     44 228.7  19.4  33332  275.72 0865.16
2015 04 09 07 51 27 .66     -28    -35     17     45     48 218.7  20.0  33328  275.65 0865.16
2015 04 09 07 51 27 .91     -27    -35     24     45     51 217.0  30.3  33336  275.78 0865.16
2015 04 09 07 51 28 .16     -23    -35     28     42     50 213.4  36.5  33340  275.83 0865.16
2015 04 09 07 51 28 .41     -26    -31     26     41     48 219.6  35.5  33344  275.91 0865.16
2015 04 09 07 51 28 .66     -23    -36     21     43     47 212.5  28.2  33346  275.95 0865.16
2015 04 09 07 51 28 .91     -23    -35     28     42     50 213.4  36.5  33342  275.88 0865.16
2015 04 09 07 51 29 .16     -17    -36     20     40     44 205.5  29.3  33340  275.83 0865.16
2015 04 09 07 51 29 .41     -15    -31     22     35     41 207.2  35.5  33346  275.95 0865.16
2015 04 09 07 51 29 .66     -15    -23     28     28     39 212.6  50.1  33352  276.03 0865.16
2015 04 09 07 51 29 .91     -12    -27     30     30     42 205.5  50.1  33350  276.00 0865.16
2015 04 09 07 51 30 .17     -16    -39     28     43     51 202.7  35.6  33352  276.03 0865.16
2015 04 09 07 51 30 .42     -16    -39     35     43     55 202.7  43.7  33362  276.21 0865.16
2015 04 09 07 51 30 .68     -10    -31     39     33     51 198.3  55.4  33362  276.21 0865.16
2015 04 09 07 51 30 .92     -16    -39     28     43     51 202.7  35.6  33362  276.20 0865.16
2015 04 09 07 51 31 .18     -15    -31     28     35     44 207.2  42.7  33364  276.23 0865.17
2015 04 09 07 51 31 .43      -4    -26     32     27     41 189.8  55.4  33360  276.18 0865.17
2015 04 09 07 51 31 .67      -4    -26     25     27     36 189.8  50.0  33356  276.10 0865.17
2015 04 09 07 51 31 .92      -4    -26     25     27     36 189.8  50.0  33356  276.10 0865.17
2015 04 09 07 51 32 .17      -8    -35     21     36     41 193.4  32.4  33356  276.11 0865.17
2015 04 09 07 51 32 .43      -7    -38     24     39     45 191.5  35.5  33352  276.03 0865.17
2015 04 09 07 51 32 .68     -21    -39     31     45     54 209.0  37.6  33352  276.05 0865.17
2015 04 09 07 51 32 .93     -19    -54     24     58     62 200.0  23.1  33352  276.03 0865.16
2015 04 09 07 51 33 .18     -20    -61     22     65     69 198.3  18.9  33370  276.33 0865.16
2015 04 09 07 51 33 .43     -30    -55     35     63     72 209.0  31.4  33362  276.20 0865.16
2015 04 09 07 51 33 .68      -4    -63     21     64     68 184.4  18.4  33346  275.93 0865.16
2015 04 09 07 51 33 .93      -9    -64      5     65     66 188.0   4.9  33340  275.85 0865.16
2015 04 09 07 51 34 .18     -11    -53     -2     55     56 192.5  -2.2  33318  275.47 0865.16
2015 04 09 07 51 34 .43     -13    -49      2     51     52 195.1   2.9  33322  275.55 0865.16
2015 04 09 07 51 34 .69     -15    -45      9     48     49 198.5  11.1  33344  275.90 0865.16
2015 04 09 07 51 34 .94      -4    -57      6     58     59 184.5   5.9  33366  276.28 0865.16
2015 04 09 07 51 35 .18       1    -41      0     42     43 177.3  -0.3  33372  276.38 0865.16
2015 04 09 07 51 35 .43      18    -39     10     44     46 154.6  13.2  33376  276.43 0865.16
2015 04 09 07 51 35 .68      22    -39      8     46     47 150.1  10.1  33374  276.41 0865.16
2015 04 09 07 51 35 .93      24    -43     17     50     54 151.0  19.2  33368  276.31 0865.16
2015 04 09 07 51 36 .18      16    -47     17     50     54 160.8  19.2  33366  276.26 0865.16
2015 04 09 07 51 36 .44      19    -51     13     55     57 159.1  13.2  33356  276.10 0865.16
2015 04 09 07 51 36 .69       4    -54     30     55     62 175.5  31.3  33360  276.16 0865.16
2015 04 09 07 51 36 .94       3    -56     15     57     60 176.4  15.3  33360  276.18 0865.16
2015 04 09 07 51 37 .20       0    -67     19     68     71 180.0  16.3  33346  275.93 0865.16
2015 04 09 07 51 37 .45      -7    -61      1     62     63 187.1   1.8  33314  275.40 0865.16
2015 04 09 07 51 37 .70      -6    -60      8     61     62 186.2   8.0  33324  275.58 0865.16
2015 04 09 07 51 37 .95      -1    -53     -2     54     55 181.8  -2.2  33304  275.25 0865.16
2015 04 09 07 51 38 .20      -1    -53     -2     54     55 181.8  -2.2  33302  275.20 0865.16
2015 04 09 07 51 38 .45      -4    -55      5     56     57 184.4   5.9  33312  275.37 0865.17
2015 04 09 07 51 38 .70     -10    -56      2     57     58 190.7   2.8  33310  275.35 0865.17
2015 04 09 07 51 38 .95       0    -63     -1     64     65 179.1  -1.2  33310  275.34 0865.17
2015 04 09 07 51 39 .20       4    -57     -2     58     59 175.5  -2.2  33314  275.40 0865.17
2015 04 09 07 51 39 .45       7    -62     -5     63     64 172.9  -5.2  33296  275.10 0865.17
2015 04 09 07 51 39 .70       9    -67    -12     68     70 172.0 -10.3  33298  275.14 0865.17
2015 04 09 07 51 39 .95       9    -67    -12     68     70 172.0 -10.3  33298  275.14 0865.17
2015 04 09 07 51 40 .20       8    -64    -14     65     67 172.9 -12.4  33296  275.10 0865.17
2015 04 09 07 51 40 .46      14    -64    -12     66     68 167.5 -10.3  33298  275.14 0865.17
2015 04 09 07 51 40 .72      11    -56     -2     58     59 168.4  -2.2  33332  275.72 0865.17
2015 04 09 07 51 40 .96       7    -53      2     54     55 172.0   2.8  33342  275.88 0865.17
2015 04 09 07 51 41 .21       7    -62     -5     63     64 172.9  -5.2  33304  275.25 0865.17
2015 04 09 07 51 41 .46      10    -65    -10     66     67 171.1  -9.3  33296  275.10 0865.17
2015 04 09 07 51 41 .71      10    -65    -10     66     67 171.1  -9.3  33302  275.20 0865.17
2015 04 09 07 51 41 .96      15    -57     -1     60     61 164.9  -1.2  33304  275.24 0865.17
2015 04 09 07 51 42 .21      11    -58     -3     60     61 168.5  -3.1  33298  275.14 0865.17
2015 04 09 07 51 42 .46      19    -59      3     63     64 161.5   2.9  33322  275.53 0865.17
2015 04 09 07 51 42 .71      13    -54     -2     56     57 165.7  -2.2  33302  275.22 0865.17
2015 04 09 07 51 42 .96      15    -58     -4     61     62 164.8  -4.1  33296  275.10 0865.17
2015 04 09 07 51 43 .21      15    -58     -4     61     62 164.8  -4.1  33296  275.10 0865.17
2015 04 09 07 51 43 .46      15    -58     -4     61     62 164.8  -4.1  33296  275.10 0865.17
2015 04 09 07 51 43 .71      12    -62     -8     64     65 168.4  -7.3  33298  275.14 0865.17
2015 04 09 07 51 43 .96      19    -59     -8     63     64 161.5  -7.2  33296  275.12 0865.17
2015 04 09 07 51 44 .22       7    -62     -5     63     64 172.9  -5.2  33298  275.15 0865.17
2015 04 09 07 51 44 .47      14    -70     -2     72     73 168.5  -2.2  33300  275.17 0865.17
2015 04 09 07 51 44 .73      15    -73     -5     75     76 168.4  -4.1  33302  275.20 0865.17
2015 04 09 07 51 44 .97      16    -71     -9     73     74 166.6  -7.3  33304  275.25 0865.17
2015 04 09 07 51 45 .23      24    -73     -3     78     79 161.5  -2.2  33312  275.39 0865.17
2015 04 09 07 51 45 .48      22    -77     -1     81     82 164.0  -0.7  33300  275.19 0865.17
2015 04 09 07 51 45 .73      18    -77      9     80     81 166.6   6.5  33322  275.53 0865.17
2015 04 09 07 51 45 .98      12    -63      9     65     66 169.3   8.0  33322  275.53 0865.17
2015 04 09 07 51 46 .23       3    -64      5     65     66 177.3   4.9  33324  275.57 0865.17
2015 04 09 07 51 46 .49       0    -63     -1     64     65 179.1  -1.2  33310  275.34 0865.16
2015 04 09 07 51 46 .74       0    -63     -1     64     65 179.1  -1.2  33352  276.03 0865.16
2015 04 09 07 51 46 .98       4    -53     10     54     56 175.6  11.1  33400  276.84 0865.16
2015 04 09 07 51 47 .23      12    -61     12     63     65 168.4  11.0  33370  276.34 0865.16
2015 04 09 07 51 47 .48       7    -42     26     43     50 170.2  34.4  33338  275.80 0865.16
2015 04 09 07 51 47 .74       4    -53      2     54     55 175.5   2.9  33334  275.75 0865.16
2015 04 09 07 51 47 .99      -9    -48      1     49     50 190.7   1.8  33342  275.88 0865.16
2015 04 09 07 51 48 .23      -9    -48    -12     49     51 190.7 -14.5  33318  275.47 0865.16
2015 04 09 07 51 48 .49      -4    -47    -15     48     51 185.3 -17.6  33320  275.50 0865.17
2015 04 09 07 51 48 .74      -7    -53      2     54     55 188.0   2.8  33334  275.75 0865.17
2015 04 09 07 51 48 .99      -4    -57     -2     58     59 184.4  -2.2  33322  275.55 0865.17
2015 04 09 07 51 49 .24      -6    -60     -3     61     62 186.2  -3.1  33318  275.48 0865.17
2015 04 09 07 51 49 .49     -12    -60      5     62     63 191.6   4.9  33328  275.63 0865.17
2015 04 09 07 51 49 .74     -10    -50      9     52     53 191.6  10.1  33328  275.65 0865.17
2015 04 09 07 51 49 .99      -4    -53      0     54     55 184.4  -0.3  33322  275.53 0865.17
2015 04 09 07 51 50 .24       0    -57     -3     58     59 180.9  -3.1  33318  275.48 0865.16
2015 04 09 07 51 50 .49      -7    -53     -9     54     55 188.0 -10.3  33312  275.37 0865.16
2015 04 09 07 51 50 .74      -9    -49     -6     50     51 190.7  -7.2  33314  275.40 0865.16
2015 04 09 07 51 51 .00     -13    -46     -1     48     49 196.0  -1.3  33318  275.48 0865.16
2015 04 09 07 51 51 .26     -10    -49      0     51     52 191.6   0.8  33330  275.67 0865.16
2015 04 09 07 51 51 .51     -16    -52     15     55     58 197.8  15.3  33354  276.08 0865.16
2015 04 09 07 51 51 .75     -14    -63     17     65     68 192.5  15.3  33344  275.90 0865.16
2015 04 09 07 51 52 .00     -17    -56     20     59     63 196.9  19.4  33342  275.88 0865.16
2015 04 09 07 51 52 .25      -9    -64     14     65     67 188.0  12.2  33342  275.88 0865.16
2015 04 09 07 51 52 .50     -11    -61     26     63     68 190.7  23.0  33346  275.95 0865.16
2015 04 09 07 51 52 .76     -12    -60     12     62     64 191.6  11.1  33328  275.65 0865.16
2015 04 09 07 51 53 .00     -13    -40     11     43     45 198.7  14.3  33336  275.78 0865.16
2015 04 09 07 51 53 .26       2    -41     16     42     44 176.4  21.0  33352  276.03 0865.16
2015 04 09 07 51 53 .51       2    -27     35     28     44 175.6  57.5  33368  276.30 0865.16
2015 04 09 07 51 53 .75      -1    -31     26     32     41 182.6  43.7  33372  276.36 0865.17
2015 04 09 07 51 54 .01      -1    -39     26     40     47 182.6  35.6  33368  276.31 0865.17
2015 04 09 07 51 54 .26       0    -26     31     27     41 180.9  54.3  33386  276.61 0865.17
2015 04 09 07 51 54 .51      -2    -31     35     32     47 184.5  52.2  33396  276.76 0865.17
2015 04 09 07 51 54 .76      -3    -45     35     46     57 184.4  41.7  33374  276.41 0865.17
2015 04 09 07 51 55 .01       3    -65     28     66     71 177.3  24.1  33336  275.78 0865.17
2015 04 09 07 51 55 .26     -14    -88     -4     90     91 189.3  -2.6  33322  275.53 0865.17
2015 04 09 07 51 55 .51     -11    -84     -3     85     86 187.6  -2.2  33310  275.35 0865.17
2015 04 09 07 51 55 .76     -24    -92    -10     96     97 195.1  -6.2  33304  275.24 0865.17
2015 04 09 07 51 56 .01     -18    -87     -8     89     90 192.0  -5.6  33298  275.14 0865.17
2015 04 09 07 51 56 .26     -26    -91     -9     95     96 196.0  -5.6  33294  275.09 0865.17
2015 04 09 07 51 56 .51     -27    -96     -5    100    101 196.0  -3.1  33304  275.24 0865.17
2015 04 09 07 51 56 .76     -24    -99     -4    102    103 193.8  -2.2  33310  275.35 0865.17
2015 04 09 07 51 57 .01     -12    -94    -12     95     96 187.6  -7.3  33296  275.10 0865.17
2015 04 09 07 51 57 .27     -16    -99     -5    101    102 189.3  -3.2  33302  275.22 0865.17
2015 04 09 07 51 57 .52     -24    -81     -6     85     86 196.5  -4.1  33314  275.40 0865.17
2015 04 09 07 51 57 .76     -18    -89      4     91     92 191.6   2.8  33298  275.14 0865.17
2015 04 09 07 51 58 .02     -22    -89      4     92     93 194.3   2.9  33296  275.10 0865.17
2015 04 09 07 51 58 .28     -25    -85      3     89     90 196.5   2.3  33298  275.14 0865.16
2015 04 09 07 51 58 .53     -24    -71    -12     76     78 198.7  -9.3  33310  275.34 0865.16
2015 04 09 07 51 58 .78     -36    -66     -9     76     77 208.9  -7.2  33314  275.40 0865.16
2015 04 09 07 51 59 .04     -30    -75     -3     81     82 201.9  -2.2  33314  275.40 0865.16
2015 04 09 07 51 59 .28     -20    -68     -2     72     73 196.9  -2.2  33316  275.43 0865.17
2015 04 09 07 51 59 .53     -18    -72     -2     75     76 194.3  -2.2  33310  275.35 0865.17
2015 04 09 07 51 59 .78     -25    -76     -7     81     82 198.7  -5.6  33312  275.39 0865.17
2015 04 09 07 52 00 .03     -25    -76     -3     81     82 198.7  -2.2  33298  275.15 0865.17
2015 04 09 07 52 00 .28     -24    -74    -10     78     79 198.3  -7.3  33304  275.25 0865.17
2015 04 09 07 52 00 .53     -28    -85      0     90     91 198.7  -0.3  33304  275.24 0865.17
2015 04 09 07 52 00 .78     -25    -84      4     88     89 196.5   2.9  33306  275.29 0865.17
2015 04 09 07 52 01 .03     -16    -85      5     87     88 190.7   3.8  33310  275.35 0865.17
2015 04 09 07 52 01 .28     -15    -83     -1     85     86 190.2  -0.7  33306  275.29 0865.17
2015 04 09 07 52 01 .54     -14    -96     -5     98     99 188.5  -3.1  33310  275.34 0865.17
2015 04 09 07 52 01 .78     -34   -109     10    115    116 197.4   5.0  33326  275.60 0865.17
2015 04 09 07 52 02 .03     -11   -106     20    107    109 186.2  10.6  33324  275.58 0865.17
2015 04 09 07 52 02 .29     -18   -132     31    134    138 188.0  13.2  33310  275.34 0865.17
2015 04 09 07 52 02 .54     -30   -122     18    126    128 193.8   8.5  33314  275.40 0865.17
2015 04 09 07 52 02 .79     -24   -127      6    130    131 190.7   2.8  33304  275.25 0865.17
2015 04 09 07 52 03 .04     -16   -129      4    131    132 187.1   1.8  33312  275.37 0865.17
2015 04 09 07 52 03 .30     -15   -131      6    132    133 186.7   2.8  33314  275.42 0865.17
2015 04 09 07 52 03 .54     -14   -102      6    104    105 188.0   3.8  33318  275.48 0865.17
2015 04 09 07 52 03 .79     -14   -102      0    104    105 188.0  -0.3  33308  275.30 0865.17
2015 04 09 07 52 04 .04     -13    -96      8     97     98 188.0   4.9  33310  275.34 0865.17
2015 04 09 07 52 04 .29     -17   -103     10    105    106 189.8   5.4  33314  275.42 0865.17
2015 04 09 07 52 04 .54     -14   -110      0    111    112 187.6   0.2  33314  275.40 0865.17
2015 04 09 07 52 04 .79     -10   -107     10    108    109 185.3   5.4  33314  275.40 0865.17
2015 04 09 07 52 05 .05     -13   -103      2    104    105 187.6   1.2  33302  275.20 0865.17
2015 04 09 07 52 05 .30     -18   -103     -4    105    106 190.2  -2.2  33296  275.10 0865.17
2015 04 09 07 52 05 .55     -14   -102     -5    104    105 188.0  -3.1  33294  275.07 0865.17
2015 04 09 07 52 05 .80     -15   -106     -2    108    109 188.5  -1.3  33294  275.09 0865.17
2015 04 09 07 52 06 .05     -18   -103      3    105    106 190.2   1.8  33292  275.04 0865.17
2015 04 09 07 52 06 .30     -16    -99      5    101    102 189.3   2.9  33294  275.07 0865.17
2015 04 09 07 52 06 .55     -16    -92      0     94     95 190.2   0.2  33294  275.09 0865.17
2015 04 09 07 52 06 .80     -10    -91     -3     92     93 186.7  -2.2  33292  275.05 0865.17
2015 04 09 07 52 07 .05     -10    -91     -3     92     93 186.7  -2.2  33292  275.05 0865.17
2015 04 09 07 52 07 .31     -16    -92      0     94     95 190.2   0.2  33294  275.09 0865.17
2015 04 09 07 52 07 .56     -16    -92      0     94     95 190.2   0.2  33294  275.09 0865.17
2015 04 09 07 52 07 .81     -13    -96      2     97     98 188.0   1.2  33296  275.10 0865.17
2015 04 09 07 52 08 .06     -18    -95      3     97     98 191.1   2.3  33294  275.09 0865.17
2015 04 09 07 52 08 .31     -13    -96      2     97     98 188.0   1.2  33296  275.10 0865.17
2015 04 09 07 52 08 .56     -13    -96      2     97     98 188.0   1.2  33296  275.10 0865.17
2015 04 09 07 52 08 .81     -16    -92      0     94     95 190.2   0.2  33294  275.09 0865.17
2015 04 09 07 52 09 .06     -16    -92      0     94     95 190.2   0.2  33294  275.09 0865.18
2015 04 09 07 52 09 .31     -10    -91     -3     92     93 186.7  -2.2  33292  275.05 0865.18
2015 04 09 07 52 09 .56     -13    -96      2     97     98 188.0   1.2  33296  275.10 0865.18
2015 04 09 07 52 09 .81     -11   -106     -4    107    108 186.2  -2.2  33292  275.05 0865.18
2015 04 09 07 52 10 .06     -11   -106     -4    107    108 186.2  -2.2  33292  275.05 0865.18
2015 04 09 07 52 10 .31     -18   -103     -4    105    106 190.2  -2.2  33296  275.10 0865.18
2015 04 09 07 52 10 .56      -9   -117     -7    118    119 184.5  -3.7  33296  275.12 0865.18
2015 04 09 07 52 10 .82     -21   -114     14    117    118 190.7   7.1  33316  275.45 0865.18
2015 04 09 07 52 11 .07     -13   -111      5    112    113 187.1   2.9  33324  275.58 0865.18
2015 04 09 07 52 11 .31      -7    -98      7     99    100 184.5   4.4  33316  275.43 0865.18
2015 04 09 07 52 11 .57     -12   -110      6    111    112 186.7   3.3  33294  275.09 0865.18
2015 04 09 07 52 11 .82     -10   -107     10    108    109 185.3   5.4  33294  275.07 0865.18
2015 04 09 07 52 12 .08     -14   -102      6    104    105 188.0   3.8  33294  275.09 0865.18
2015 04 09 07 52 12 .33     -15   -106     -2    108    109 188.5  -1.3  33294  275.09 0865.18
2015 04 09 07 52 12 .58     -14   -102     -5    104    105 188.0  -3.1  33294  275.07 0865.18
2015 04 09 07 52 12 .83     -16    -99     -2    101    102 189.3  -1.2  33298  275.14 0865.17
2015 04 09 07 52 13 .08     -16    -99     -5    101    102 189.3  -3.2  33292  275.05 0865.17
2015 04 09 07 52 13 .33     -16    -99     -5    101    102 189.3  -3.2  33292  275.05 0865.17
2015 04 09 07 52 13 .58      -9    -98     -9     99    100 185.8  -5.2  33294  275.09 0865.17
2015 04 09 07 52 13 .83      -9    -98     -9     99    100 185.8  -5.2  33294  275.09 0865.17
2015 04 09 07 52 14 .08      -9    -98     -9     99    100 185.8  -5.2  33294  275.09 0865.17
2015 04 09 07 52 14 .33     -12    -94     -3     95     96 187.6  -2.2  33294  275.09 0865.17
2015 04 09 07 52 14 .58     -12    -94     -3     95     96 187.6  -2.2  33294  275.09 0865.17
2015 04 09 07 52 14 .83      -8    -94     -1     95     96 184.9  -0.7  33294  275.09 0865.17
2015 04 09 07 52 15 .08     -10    -99      4    100    101 186.2   2.3  33294  275.09 0865.17
2015 04 09 07 52 15 .34     -18   -103     -4    105    106 190.2  -2.2  33296  275.10 0865.17
2015 04 09 07 52 15 .58     -14   -102     -5    104    105 188.0  -3.1  33294  275.07 0865.18
2015 04 09 07 52 15 .84     -13    -96      2     97     98 188.0   1.2  33296  275.10 0865.18
2015 04 09 07 52 16 .08     -18   -103     -4    105    106 190.2  -2.2  33296  275.10 0865.18
2015 04 09 07 52 16 .34      -8   -102     -6    103    104 184.9  -3.7  33296  275.10 0865.18
2015 04 09 07 52 16 .59      -8    -94     -1     95     96 184.9  -0.7  33298  275.14 0865.18
2015 04 09 07 52 16 .84      -9    -98     -3     99    100 185.8  -2.2  33298  275.15 0865.18
2015 04 09 07 52 17 .09     -16    -99      5    101    102 189.3   2.9  33302  275.20 0865.18
2015 04 09 07 52 17 .34     -15   -107     -2    109    110 188.0  -1.3  33304  275.24 0865.18
2015 04 09 07 52 17 .59     -16   -114      5    116    117 188.0   2.8  33302  275.20 0865.18
2015 04 09 07 52 17 .84     -18   -111      4    113    114 189.3   2.3  33304  275.24 0865.18
2015 04 09 07 52 18 .10     -18   -111    -10    113    114 189.3  -5.2  33310  275.34 0865.18
2015 04 09 07 52 18 .34     -17   -109      3    111    112 188.9   1.8  33312  275.39 0865.18
2015 04 09 07 52 18 .59      -1   -106     13    107    108 181.0   7.1  33306  275.29 0865.18
2015 04 09 07 52 18 .85      -2    -90      4     91     92 181.8   2.9  33310  275.35 0865.18
2015 04 09 07 52 19 .10     -11    -83     -3     84     85 187.6  -2.2  33308  275.30 0865.17
2015 04 09 07 52 19 .36     -11    -90     -3     91     92 187.1  -2.2  33300  275.17 0865.17
2015 04 09 07 52 19 .60     -21    -95     -2     98     99 192.9  -1.3  33300  275.19 0865.17
2015 04 09 07 52 19 .86     -16    -91     -6     93     94 190.2  -4.1  33300  275.17 0865.17
2015 04 09 07 52 20 .10     -16    -91     -6     93     94 190.2  -4.1  33300  275.17 0865.17
2015 04 09 07 52 20 .36     -18    -88      2     90     91 191.6   1.8  33300  275.19 0865.17
2015 04 09 07 52 20 .61     -11    -83     -3     84     85 187.6  -2.2  33308  275.30 0865.17
2015 04 09 07 52 20 .86     -14    -88      8     90     91 189.3   5.4  33324  275.58 0865.17
2015 04 09 07 52 21 .11     -21    -83     16     86     88 194.3  10.6  33332  275.70 0865.17
2015 04 09 07 52 21 .36     -15    -83     -1     85     86 190.2  -0.7  33306  275.29 0865.17
2015 04 09 07 52 21 .61     -19    -85     -4     88     89 192.9  -2.6  33304  275.24 0865.17
2015 04 09 07 52 21 .86     -24    -81     -6     85     86 196.5  -4.1  33314  275.40 0865.17
2015 04 09 07 52 22 .11     -24    -83      4     87     88 196.5   2.8  33314  275.42 0865.17
2015 04 09 07 52 22 .36     -25    -85     -3     89     90 196.5  -2.2  33302  275.20 0865.17
2015 04 09 07 52 22 .61     -19    -85     -4     88     89 192.9  -2.6  33304  275.24 0865.17
2015 04 09 07 52 22 .86     -18    -88     -3     90     91 191.6  -2.2  33298  275.15 0865.17
2015 04 09 07 52 23 .11     -12    -94      1     95     96 187.6   0.8  33304  275.25 0865.17
2015 04 09 07 52 23 .36     -16    -91     -1     93     94 190.2  -0.7  33304  275.24 0865.17
2015 04 09 07 52 23 .61     -16    -99     -2    101    102 189.3  -1.2  33298  275.14 0865.17
2015 04 09 07 52 23 .87     -18   -103     -4    105    106 190.2  -2.2  33314  275.40 0865.17
2015 04 09 07 52 24 .12     -28   -104      1    108    109 195.2   0.8  33324  275.57 0865.17
2015 04 09 07 52 24 .37     -24    -91      9     95     96 195.1   5.9  33326  275.60 0865.17
2015 04 09 07 52 24 .62     -18    -94     18     96     98 191.1  10.6  33334  275.73 0865.18
2015 04 09 07 52 24 .87     -27    -99     20    103    106 195.6  11.1  33330  275.67 0865.18
2015 04 09 07 52 25 .12     -23    -97     25    100    104 193.8  14.3  33328  275.65 0865.18
2015 04 09 07 52 25 .37     -28   -105     27    109    113 195.2  14.3  33324  275.58 0865.18
2015 04 09 07 52 25 .62     -22   -105     13    108    109 192.0   6.9  33306  275.29 0865.18
2015 04 09 07 52 25 .88     -28   -118      6    122    123 193.4   2.9  33300  275.19 0865.18
2015 04 09 07 52 26 .13     -26   -111      5    115    116 193.4   2.9  33294  275.09 0865.18
2015 04 09 07 52 26 .38     -28   -106     -1    110    111 195.1  -0.7  33296  275.12 0865.17
2015 04 09 07 52 26 .63     -26   -111      0    115    116 193.4   0.2  33296  275.10 0865.17
2015 04 09 07 52 26 .88     -17   -103    -17    105    107 189.8  -9.3  33296  275.12 0865.17
2015 04 09 07 52 27 .13     -20    -99    -19    102    104 191.6 -10.9  33294  275.09 0865.17
2015 04 09 07 52 27 .38     -16    -91    -13     93     94 190.2  -8.2  33294  275.09 0865.17
2015 04 09 07 52 27 .63     -18    -95    -17     97     99 191.1 -10.3  33296  275.10 0865.17
2015 04 09 07 52 27 .88     -16    -99     -5    101    102 189.3  -3.2  33292  275.05 0865.17
2015 04 09 07 52 28 .13     -16    -99     -5    101    102 189.3  -3.2  33292  275.05 0865.17
2015 04 09 07 52 28 .38     -24    -99    -16    102    104 193.8  -9.3  33292  275.05 0865.17
2015 04 09 07 52 28 .64     -16    -99     -5    101    102 189.3  -3.2  33292  275.05 0865.17
2015 04 09 07 52 28 .89     -22   -104     -5    107    108 192.0  -3.1  33292  275.05 0865.17
2015 04 09 07 52 29 .14     -28   -104      0    108    109 195.1  -0.3  33296  275.10 0865.17
2015 04 09 07 52 29 .39     -32   -103      4    109    110 197.4   2.3  33304  275.24 0865.17
2015 04 09 07 52 29 .64     -34   -104     13    110    111 198.5   6.9  33318  275.48 0865.17
2015 04 09 07 52 29 .89     -30    -90     14     96     98 198.7   8.5  33304  275.25 0865.17
2015 04 09 07 52 30 .14     -31    -91     12     97     98 198.7   7.1  33298  275.14 0865.17
2015 04 09 07 52 30 .39     -28    -87     15     92     94 197.8   9.5  33296  275.10 0865.17
2015 04 09 07 52 30 .64     -31    -91     12     97     98 198.7   7.1  33298  275.14 0865.17
2015 04 09 07 52 30 .89     -24    -99      5    102    103 193.8   2.8  33298  275.14 0865.17
2015 04 09 07 52 31 .14     -16    -92      0     94     95 190.2   0.2  33294  275.09 0865.17
2015 04 09 07 52 31 .39     -18    -95      3     97     98 191.1   2.3  33294  275.09 0865.17
2015 04 09 07 52 31 .64     -11    -90      4     91     92 187.1   2.8  33294  275.09 0865.17
2015 04 09 07 52 31 .89     -10    -91     -3     92     93 186.7  -2.2  33292  275.05 0865.17
2015 04 09 07 52 32 .14     -10    -91     -3     92     93 186.7  -2.2  33292  275.05 0865.17
2015 04 09 07 52 32 .39      -8    -87     -6     88     89 185.3  -4.1  33296  275.12 0865.17
2015 04 09 07 52 32 .64     -16    -92      0     94     95 190.2   0.2  33294  275.09 0865.17
2015 04 09 07 52 32 .90     -26    -91     -9     95     96 196.0  -5.6  33294  275.09 0865.17
2015 04 09 07 52 33 .16     -24    -91     -3     95     96 195.1  -2.2  33296  275.12 0865.17
2015 04 09 07 52 33 .41     -16    -92      0     94     95 190.2   0.2  33294  275.09 0865.17
2015 04 09 07 52 33 .66     -19    -91     -3     94     95 192.0  -2.2  33298  275.14 0865.17
2015 04 09 07 52 33 .91     -29    -91     -2     96     97 197.8  -1.3  33298  275.14 0865.17
2015 04 09 07 52 34 .16     -24    -91     -3     95     96 195.1  -2.2  33298  275.15 0865.17
2015 04 09 07 52 34 .41     -23    -88     -5     91     92 194.7  -3.1  33298  275.15 0865.17
2015 04 09 07 52 34 .66     -21    -84    -11     87     88 194.3  -7.2  33298  275.15 0865.17
2015 04 09 07 52 34 .91     -12    -86    -11     87     88 188.5  -7.7  33296  275.10 0865.17
2015 04 09 07 52 35 .16     -17    -81    -14     83     85 192.0  -9.8  33296  275.10 0865.17
2015 04 09 07 52 35 .41     -15    -83    -12     85     86 190.2  -8.2  33298  275.14 0865.17
2015 04 09 07 52 35 .66     -11    -83     -9     84     85 187.6  -6.7  33294  275.09 0865.17
2015 04 09 07 52 35 .91     -11    -83     -9     84     85 187.6  -6.7  33294  275.09 0865.17
2015 04 09 07 52 36 .16      -8    -87     -6     88     89 185.3  -4.1  33296  275.12 0865.17
2015 04 09 07 52 36 .41     -20    -81     -3     84     85 193.8  -2.2  33296  275.10 0865.17
2015 04 09 07 52 36 .66     -20    -77    -19     80     83 195.1 -13.4  33298  275.14 0865.17
2015 04 09 07 52 36 .91     -15    -76    -20     78     81 191.6 -15.0  33298  275.15 0865.17
2015 04 09 07 52 37 .17      -8    -79    -28     80     85 186.2 -19.7  33298  275.14 0865.17
2015 04 09 07 52 37 .41     -11    -85    -24     86     89 187.6 -20.7  33300  275.17 0865.17
2015 04 09 07 52 37 .67     -13    -79    -25     81     86 189.8 -17.6  33296  275.10 0865.17
2015 04 09 07 52 37 .91      -8    -79    -19     80     83 186.2 -13.9  33296  275.10 0865.17
2015 04 09 07 52 38 .17      -8    -79    -19     80     83 186.2 -13.9  33296  275.10 0865.17
2015 04 09 07 52 38 .42      -8    -80    -12     81     82 186.2  -8.8  33300  275.17 0865.17
2015 04 09 07 52 38 .67      -5    -77    -23     78     82 184.4 -16.6  33300  275.19 0865.17
2015 04 09 07 52 38 .92     -11    -85    -24     86     89 187.6 -20.7  33300  275.17 0865.17
2015 04 09 07 52 39 .17      -7    -81    -26     82     87 185.3 -17.6  33302  275.22 0865.17
2015 04 09 07 52 39 .42      -4    -82    -31     83     88 183.1 -25.4  33300  275.19 0865.17
2015 04 09 07 52 39 .67       0    -84    -24     85     88 180.4 -20.7  33302  275.20 0865.17
2015 04 09 07 52 39 .93       0    -76    -24     77     80 180.0 -22.3  33298  275.15 0865.17
2015 04 09 07 52 40 .18      -1    -69    -25     70     75 180.9 -19.7  33302  275.20 0865.17
2015 04 09 07 52 40 .43       0    -69    -24     70     74 180.0 -23.3  33302  275.20 0865.17
2015 04 09 07 52 40 .68       1    -66    -22     67     70 179.0 -23.8  33300  275.19 0865.17
2015 04 09 07 52 40 .93       0    -62    -24     63     67 180.9 -25.4  33298  275.15 0865.17
2015 04 09 07 52 41 .18      -2    -62    -23     63     67 182.7 -24.4  33298  275.14 0865.17
2015 04 09 07 52 41 .43      -5    -65    -24     66     70 184.5 -24.4  33302  275.20 0865.17
2015 04 09 07 52 41 .68       0    -62    -24     63     67 180.9 -25.4  33298  275.15 0865.17
2015 04 09 07 52 41 .94      -4    -63    -23     64     69 184.5 -19.7  33300  275.19 0865.17
2015 04 09 07 52 42 .19       0    -56    -16     57     60 180.9 -15.5  33300  275.19 0865.17
2015 04 09 07 52 42 .44      -9    -57    -20     58     62 189.8 -19.7  33298  275.15 0865.17
2015 04 09 07 52 42 .69      -4    -55    -15     56     59 184.5 -15.4  33296  275.10 0865.17
2015 04 09 07 52 42 .94      -4    -63    -14     64     66 184.5 -12.4  33296  275.10 0865.17
2015 04 09 07 52 43 .19      -2    -67    -20     68     71 181.8 -16.6  33300  275.17 0865.17
2015 04 09 07 52 43 .44       0    -63    -17     64     67 180.9 -15.5  33298  275.14 0865.17
2015 04 09 07 52 43 .69      -2    -67    -20     68     71 181.8 -16.6  33300  275.17 0865.17
2015 04 09 07 52 43 .94     -10    -75    -22     76     80 188.1 -16.0  33298  275.14 0865.17
2015 04 09 07 52 44 .19     -15    -69    -14     71     73 192.5 -11.3  33298  275.14 0865.17
2015 04 09 07 52 44 .44     -15    -76     -6     78     79 191.6  -4.6  33298  275.15 0865.17
2015 04 09 07 52 44 .69     -24    -71     -1     76     77 198.7  -1.2  33300  275.19 0865.17
2015 04 09 07 52 44 .94     -31    -66     -2     74     75 205.5  -2.2  33304  275.25 0865.17
2015 04 09 07 52 45 .19     -20    -68      1     72     73 196.9   0.8  33304  275.25 0865.17
2015 04 09 07 52 45 .44     -20    -67      3     71     72 196.9   2.8  33298  275.15 0865.17
2015 04 09 07 52 45 .70     -20    -61      3     65     66 198.5   2.8  33302  275.20 0865.17
2015 04 09 07 52 45 .95     -34    -53      2     64     65 212.5   1.8  33310  275.35 0865.17
2015 04 09 07 52 46 .19     -24    -54     -7     60     61 204.5  -7.3  33316  275.43 0865.17
2015 04 09 07 52 46 .45     -22    -58    -12     63     65 200.9 -11.3  33310  275.34 0865.17
2015 04 09 07 52 46 .70      -9    -63    -21     64     68 188.1 -18.7  33296  275.10 0865.17
2015 04 09 07 52 46 .96     -13    -71    -17     73     76 190.7 -13.4  33300  275.17 0865.17
2015 04 09 07 52 47 .21     -18    -72     -9     75     76 194.3  -7.2  33304  275.24 0865.17
2015 04 09 07 52 47 .46     -13    -69    -17     71     74 190.7 -13.4  33298  275.15 0865.17
2015 04 09 07 52 47 .71      -8    -63    -11     64     66 188.0 -10.3  33300  275.19 0865.17
2015 04 09 07 52 47 .96      -6    -60    -10     61     62 186.2  -9.3  33298  275.15 0865.17
2015 04 09 07 52 48 .21      -1    -64     -3     65     66 180.9  -3.1  33300  275.17 0865.17
2015 04 09 07 52 48 .46      -4    -57    -15     58     60 184.5 -14.5  33298  275.15 0865.17
2015 04 09 07 52 48 .71      -6    -60    -10     61     62 186.2  -9.3  33298  275.15 0865.17
2015 04 09 07 52 48 .96     -14    -58    -18     60     63 194.3 -16.6  33300  275.19 0865.17
2015 04 09 07 52 49 .21     -17    -53    -12     56     58 197.8 -12.4  33304  275.24 0865.17
2015 04 09 07 52 49 .46     -19    -55    -10     59     60 199.2 -10.3  33298  275.15 0865.17
2015 04 09 07 52 49 .72     -15    -69     -1     71     72 192.5  -1.2  33306  275.29 0865.17
2015 04 09 07 52 49 .96     -23    -57     -5     62     63 201.9  -5.2  33314  275.40 0865.17
2015 04 09 07 52 50 .21     -23    -70     -2     74     75 198.3  -2.2  33310  275.35 0865.17
2015 04 09 07 52 50 .47     -24    -72     -5     77     78 198.7  -4.1  33314  275.40 0865.17
2015 04 09 07 52 50 .72     -18    -65     -8     68     69 196.0  -7.2  33318  275.48 0865.17
2015 04 09 07 52 50 .97     -24    -73    -26     77     82 198.3 -18.7  33310  275.35 0865.17
2015 04 09 07 52 51 .22     -17    -72    -16     75     77 193.4 -12.4  33316  275.45 0865.17
2015 04 09 07 52 51 .46     -20    -62    -20     66     68 198.5 -22.8  33308  275.32 0865.17
2015 04 09 07 52 51 .72     -37    -58    -19     69     72 212.5 -15.5  33310  275.35 0865.17
2015 04 09 07 52 51 .97     -24    -54    -15     60     62 204.5 -14.5  33318  275.47 0865.17
2015 04 09 07 52 52 .22     -26    -59    -10     65     66 204.5  -9.3  33320  275.50 0865.17
2015 04 09 07 52 52 .47     -36    -57    -13     68     70 212.5 -11.3  33316  275.43 0865.17
2015 04 09 07 52 52 .72     -26    -59    -10     65     66 204.5  -9.3  33320  275.50 0865.17
2015 04 09 07 52 52 .97     -39    -61    -14     73     75 212.5 -11.3  33316  275.45 0865.17
2015 04 09 07 52 53 .22     -42    -61    -20     75     78 214.3 -15.5  33314  275.40 0865.17
2015 04 09 07 52 53 .47     -25    -55    -18     61     63 204.5 -21.7  33312  275.39 0865.17
2015 04 09 07 52 53 .73     -29    -46    -22     55     59 212.6 -27.4  33304  275.24 0865.17
2015 04 09 07 52 53 .99     -34    -54    -26     65     70 212.5 -27.4  33304  275.24 0865.17
2015 04 09 07 52 54 .23     -34    -62    -20     71     73 208.9 -20.7  33310  275.35 0865.17
2015 04 09 07 52 54 .49     -13    -79    -25     81     86 189.8 -17.6  33310  275.35 0865.17
2015 04 09 07 52 54 .74     -23    -82    -12     86     87 195.6  -8.2  33312  275.39 0865.17
2015 04 09 07 52 54 .98     -18    -95     -9     97     98 191.1  -5.6  33308  275.32 0865.17
2015 04 09 07 52 55 .24     -26    -91     -9     95     96 196.0  -5.6  33312  275.39 0865.17
2015 04 09 07 52 55 .49     -22    -84    -10     87     88 195.1  -6.7  33316  275.45 0865.17
2015 04 09 07 52 55 .74     -16    -83     -6     85     86 191.1  -4.1  33310  275.35 0865.17
2015 04 09 07 52 55 .99     -23    -88     -2     91     92 194.7  -1.3  33310  275.34 0865.17
2015 04 09 07 52 56 .24     -13    -80     -3     82     83 189.8  -2.6  33312  275.39 0865.17
2015 04 09 07 52 56 .49     -14    -79     -3     81     82 190.2  -2.2  33310  275.34 0865.17
2015 04 09 07 52 56 .74      -5    -75      2     76     77 184.5   1.8  33308  275.30 0865.17
2015 04 09 07 52 56 .99     -14    -72      8     74     75 191.5   6.9  33310  275.34 0865.17
2015 04 09 07 52 57 .25      -8    -80     -1     81     82 186.2  -0.7  33322  275.53 0865.17
2015 04 09 07 52 57 .49      -4    -75     14     76     78 183.6  10.6  33336  275.78 0865.17
2015 04 09 07 52 57 .74      -4    -75     14     76     78 183.6  10.6  33334  275.73 0865.17
2015 04 09 07 52 57 .99     -12    -83      4     84     85 188.5   2.9  33318  275.48 0865.17
2015 04 09 07 52 58 .24      -5    -88     10     89     90 183.6   6.9  33322  275.55 0865.17
2015 04 09 07 52 58 .49      -7    -98      6     99    100 184.4   3.8  33312  275.39 0865.17
2015 04 09 07 52 58 .74     -14   -102      0    104    105 188.0  -0.3  33308  275.30 0865.17
2015 04 09 07 52 58 .99     -26   -100      5    104    105 194.7   2.8  33306  275.29 0865.17
2015 04 09 07 52 59 .25     -12   -110      0    111    112 186.7  -0.3  33302  275.22 0865.17
2015 04 09 07 52 59 .50     -16    -99     -5    101    102 189.3  -3.2  33302  275.22 0865.17
2015 04 09 07 52 59 .74     -16    -91     -6     93     94 190.2  -4.1  33300  275.17 0865.17
2015 04 09 07 53 00 .00     -19    -91     -3     94     95 192.0  -2.2  33298  275.14 0865.17
2015 04 09 07 53 00 .25     -17    -94     -7     96     97 190.7  -4.6  33300  275.19 0865.17
2015 04 09 07 53 00 .50     -19    -91     -3     94     95 192.0  -2.2  33316  275.43 0865.17
2015 04 09 07 53 00 .76     -25    -86    -10     90     91 196.5  -6.7  33324  275.58 0865.17
2015 04 09 07 53 01 .01     -24    -71     -6     76     77 198.7  -5.2  33322  275.55 0865.17
2015 04 09 07 53 01 .26     -25    -76      4     81     82 198.7   2.9  33322  275.53 0865.17
2015 04 09 07 53 01 .51     -17    -72      3     75     76 193.4   2.9  33318  275.48 0865.17
2015 04 09 07 53 01 .76     -20    -77      9     80     81 195.1   6.5  33316  275.43 0865.17
2015 04 09 07 53 02 .01      -8    -81      5     82     83 186.2   3.8  33308  275.30 0865.17
2015 04 09 07 53 02 .26      -6    -94      3     95     96 183.6   2.3  33312  275.39 0865.17
2015 04 09 07 53 02 .52      -9    -98     -3     99    100 185.8  -2.2  33316  275.45 0865.17
2015 04 09 07 53 02 .77     -13    -85     12     87     88 188.9   8.0  33340  275.85 0865.18
2015 04 09 07 53 03 .01      -3    -68     34     69     76 182.7  27.3  33358  276.15 0865.18
2015 04 09 07 53 03 .27      -9    -88     34     89     95 186.2  21.0  33338  275.82 0865.18
2015 04 09 07 53 03 .52     -21    -95     19     98    100 192.9  11.1  33326  275.60 0865.18
2015 04 09 07 53 03 .77     -24    -91     11     95     96 195.1   6.9  33316  275.45 0865.18
2015 04 09 07 53 04 .02     -21    -83     16     86     88 194.3  10.6  33316  275.45 0865.18
2015 04 09 07 53 04 .27     -14    -75     21     77     80 190.7  15.3  33324  275.57 0865.18
2015 04 09 07 53 04 .52     -19    -89     30     92     97 192.0  18.4  33338  275.80 0865.18
2015 04 09 07 53 04 .77     -23   -106     32    109    114 192.5  16.8  33340  275.83 0865.18
2015 04 09 07 53 05 .02     -35   -106     35    112    118 198.7  17.3  33332  275.70 0865.18
2015 04 09 07 53 05 .27     -26   -110     22    114    117 193.4  11.1  33324  275.58 0865.18
2015 04 09 07 53 05 .52     -30    -88     18     94     96 199.2  11.0  33336  275.78 0865.18
2015 04 09 07 53 05 .78     -14   -101     22    103    106 188.0  12.2  33340  275.83 0865.18
2015 04 09 07 53 06 .02     -15   -108     13    110    111 188.0   6.9  33330  275.68 0865.18
2015 04 09 07 53 06 .28     -30   -101     -2    106    107 196.5  -1.3  33346  275.93 0865.18
2015 04 09 07 53 06 .53     -32    -96      2    102    103 198.5   1.2  33352  276.03 0865.18
2015 04 09 07 53 06 .77     -36    -74     -1     83     84 205.9  -0.7  33342  275.88 0865.18
2015 04 09 07 53 07 .02     -41    -74      1     85     86 209.0   1.2  33332  275.70 0865.18
2015 04 09 07 53 07 .28     -40    -72      8     83     84 209.0   5.9  33336  275.78 0865.18
2015 04 09 07 53 07 .52     -27    -86     16     91     93 197.4  10.1  33324  275.57 0865.18
2015 04 09 07 53 07 .78     -16    -92      4     94     95 190.2   2.9  33316  275.45 0865.18
2015 04 09 07 53 08 .04     -20    -85      0     88     89 193.4   0.2  33316  275.45 0865.18
2015 04 09 07 53 08 .29     -32    -88      9     94     95 200.0   5.9  33316  275.45 0865.18
2015 04 09 07 53 08 .54     -27   -100      5    104    105 195.6   2.9  33316  275.45 0865.18
2015 04 09 07 53 08 .79     -37    -91     11     99    100 202.3   6.5  33320  275.50 0865.18
2015 04 09 07 53 09 .04     -37    -92      4    100    101 201.8   2.3  33324  275.57 0865.18
2015 04 09 07 53 09 .29     -43    -88     11     99    100 206.3   6.5  33328  275.65 0865.17
2015 04 09 07 53 09 .54     -46    -85      7     97     98 208.5   4.4  33330  275.68 0865.17
2015 04 09 07 53 09 .79     -35    -90     -2     97     98 201.4  -1.3  33324  275.58 0865.17
2015 04 09 07 53 10 .04     -45    -96      3    107    108 205.3   1.8  33334  275.73 0865.17
2015 04 09 07 53 10 .29     -57    -88      5    106    107 213.0   2.8  33336  275.78 0865.17
2015 04 09 07 53 10 .54     -56    -86      5    103    104 213.0   2.9  33336  275.77 0865.17
2015 04 09 07 53 10 .79     -54    -88      5    104    105 211.6   2.9  33328  275.63 0865.17
2015 04 09 07 53 11 .05     -32    -96      5    102    103 198.3   2.8  33314  275.42 0865.18
2015 04 09 07 53 11 .29     -31    -85      1     91     92 200.5   1.2  33320  275.50 0865.18
2015 04 09 07 53 11 .54     -33    -69     -3     77     78 205.5  -2.2  33322  275.53 0865.18
2015 04 09 07 53 11 .79     -28    -70     -1     76     77 201.8  -1.2  33312  275.39 0865.18
2015 04 09 07 53 12 .05     -38    -69     11     79     80 209.0   8.0  33316  275.45 0865.18
2015 04 09 07 53 12 .30     -57    -71      4     92     93 218.7   2.9  33326  275.62 0865.18
2015 04 09 07 53 12 .55     -55    -69      4     89     90 218.7   2.9  33332  275.70 0865.18
2015 04 09 07 53 12 .80     -54    -76     13     94     95 215.6   8.0  33324  275.58 0865.18
2015 04 09 07 53 13 .05     -52    -80     23     96     99 213.4  13.7  33334  275.73 0865.18
2015 04 09 07 53 13 .30     -46    -80     32     93     99 209.9  18.9  33334  275.75 0865.18
2015 04 09 07 53 13 .55     -38    -76     16     86     88 206.7  11.1  33324  275.58 0865.18
2015 04 09 07 53 13 .80     -37    -76     11     85     86 206.3   8.0  33324  275.57 0865.18
2015 04 09 07 53 14 .05     -32    -77      2     84     85 202.7   1.8  33326  275.60 0865.18
2015 04 09 07 53 14 .30     -46    -74     16     88     90 212.1  10.6  33314  275.40 0865.18
2015 04 09 07 53 14 .57     -52    -76     18     93     95 214.7  11.1  33332  275.72 0865.18
2015 04 09 07 53 14 .81     -46    -82     23     95     98 209.4  13.7  33330  275.68 0865.18
2015 04 09 07 53 15 .06     -52    -81     15     97     99 212.6   9.0  33322  275.55 0865.18
2015 04 09 07 53 15 .31     -54    -85     12    102    103 212.6   6.9  33322  275.53 0865.18
2015 04 09 07 53 15 .56     -46    -74     16     88     90 211.6  10.6  33320  275.52 0865.18
2015 04 09 07 53 15 .81     -39    -70     23     81     85 209.0  16.3  33322  275.53 0865.18
2015 04 09 07 53 16 .07     -27    -84      5     89     90 198.3   3.3  33320  275.52 0865.18
2015 04 09 07 53 16 .32     -37    -65      6     76     77 209.9   4.9  33322  275.55 0865.18
2015 04 09 07 53 16 .57     -42    -68      5     81     82 211.6   3.8  33326  275.60 0865.18
2015 04 09 07 53 16 .82     -40    -77     12     87     88 207.6   8.0  33328  275.65 0865.18
2015 04 09 07 53 17 .07     -23    -67     19     72     75 199.2  15.2  33334  275.73 0865.18
2015 04 09 07 53 17 .32     -33    -61      8     70     71 208.9   7.1  33330  275.68 0865.18
2015 04 09 07 53 17 .57     -37    -58     -3     69     70 212.5  -3.2  33328  275.65 0865.18
2015 04 09 07 53 17 .82     -46    -54      1     72     73 220.5   0.8  33326  275.62 0865.18
2015 04 09 07 53 18 .07     -38    -70     11     80     81 208.9   8.5  33326  275.62 0865.18
2015 04 09 07 53 18 .32     -39    -81     31     91     97 205.9  18.9  33330  275.67 0865.18
2015 04 09 07 53 18 .57     -30    -81     30     87     93 200.5  19.4  33338  275.80 0865.18
2015 04 09 07 53 18 .82     -30    -79     30     85     91 200.9  19.4  33336  275.78 0865.18
2015 04 09 07 53 19 .07     -30    -82     38     88     95 200.0  25.1  33326  275.60 0865.18
2015 04 09 07 53 19 .32     -31    -75     28     82     87 202.7  19.4  33324  275.57 0865.18
2015 04 09 07 53 19 .57     -26    -79     30     84     89 198.3  20.0  33332  275.70 0865.18
2015 04 09 07 53 19 .83     -27    -82     43     87     97 198.3  27.8  33332  275.70 0865.18
2015 04 09 07 53 20 .07     -27    -82     36     87     94 198.3  23.0  33340  275.83 0865.19
2015 04 09 07 53 20 .32     -17    -81     18     83     86 192.5  12.6  33322  275.53 0865.19
2015 04 09 07 53 20 .57     -22    -78     28     82     87 196.0  19.4  33310  275.34 0865.19
2015 04 09 07 53 20 .83     -27    -75     27     80     85 200.0  18.9  33316  275.43 0865.19
2015 04 09 07 53 21 .08     -26    -79     23     84     88 198.3  15.3  33318  275.47 0865.19
2015 04 09 07 53 21 .33     -29    -78     26     84     88 200.9  17.3  33322  275.55 0865.19
2015 04 09 07 53 21 .59     -40    -81     36     91     97 206.3  22.0  33328  275.63 0865.19
2015 04 09 07 53 21 .83     -34    -87     36     94    100 201.4  22.5  33334  275.73 0865.18
2015 04 09 07 53 22 .09     -41    -84     37     94    101 206.3  23.0  33336  275.78 0865.18
2015 04 09 07 53 22 .34     -39    -86     38     95    102 204.5  23.0  33332  275.72 0865.18
2015 04 09 07 53 22 .59     -31    -75     28     82     87 202.7  19.4  33326  275.60 0865.18
2015 04 09 07 53 22 .84     -35    -71     21     80     83 206.3  14.7  33326  275.60 0865.18
2015 04 09 07 53 23 .09     -27    -84     13     89     90 198.3   8.5  33322  275.53 0865.18
2015 04 09 07 53 23 .34     -39    -88      8     97     98 204.1   4.9  33324  275.58 0865.18
2015 04 09 07 53 23 .59     -25    -74     18     79     82 198.7  13.2  33324  275.58 0865.18
2015 04 09 07 53 23 .84     -33    -80     19     87     90 202.7  12.6  33328  275.65 0865.18
2015 04 09 07 53 24 .10     -32    -75     28     82     87 203.6  19.4  33338  275.82 0865.18
2015 04 09 07 53 24 .34     -36    -83     35     91     97 203.6  21.5  33354  276.06 0865.18
2015 04 09 07 53 24 .59     -39    -78     39     88     96 206.7  25.7  33356  276.11 0865.18
2015 04 09 07 53 24 .85     -28    -70     29     76     81 201.9  21.5  33346  275.93 0865.18
2015 04 09 07 53 25 .09     -27    -82     21     87     90 198.3  13.7  33338  275.80 0865.18
2015 04 09 07 53 25 .35     -32    -92     14     98    100 199.6   8.5  33338  275.80 0865.18
2015 04 09 07 53 25 .60     -34    -85     32     92     98 201.8  19.4  33340  275.85 0865.18
2015 04 09 07 53 25 .85     -43    -77     41     89     97 209.0  26.6  33340  275.83 0865.18
2015 04 09 07 53 26 .10     -30    -90     14     96     98 198.7   8.5  33328  275.65 0865.18
2015 04 09 07 53 26 .35     -41    -86     14     96     98 205.3   8.5  33322  275.55 0865.18
2015 04 09 07 53 26 .60     -39    -80     16     90     92 206.3  10.1  33322  275.55 0865.18
2015 04 09 07 53 26 .85     -30    -88     18     94     96 199.2  11.0  33318  275.48 0865.18
2015 04 09 07 53 27 .10     -32    -94     10    100    101 198.7   5.9  33322  275.55 0865.18
2015 04 09 07 53 27 .35     -42   -107     11    116    117 201.4   5.4  33330  275.68 0865.18
2015 04 09 07 53 27 .65     -41   -107     18    115    117 201.4   9.0  33326  275.60 0865.18
2015 04 09 07 53 27 .85     -38   -114     15    121    123 198.3   7.5  33312  275.39 0865.18
2015 04 09 07 53 28 .10     -38   -114     15    121    123 198.3   7.5  33322  275.53 0865.18
2015 04 09 07 53 28 .35     -32   -109     16    114    116 196.5   8.0  33318  275.48 0865.18
2015 04 09 07 53 28 .61     -32   -111     16    116    118 196.0   8.0  33328  275.63 0865.18
2015 04 09 07 53 28 .86     -45   -104     16    114    116 203.6   8.0  33328  275.63 0865.18
2015 04 09 07 53 29 .12     -39   -100     29    108    113 201.4  15.3  33334  275.75 0865.18
2015 04 09 07 53 29 .37     -45    -96     37    107    114 205.3  19.4  33342  275.88 0865.18
2015 04 09 07 53 29 .62     -52    -86     29    101    106 211.6  16.3  33338  275.80 0865.18
2015 04 09 07 53 29 .87     -49    -90     36    103    110 209.0  19.4  33344  275.90 0865.18
2015 04 09 07 53 30 .12     -39    -93     29    101    106 202.7  16.3  33322  275.55 0865.18
2015 04 09 07 53 30 .37     -36   -107      8    114    115 198.7   4.4  33310  275.35 0865.18
2015 04 09 07 53 30 .62     -35   -107     16    113    115 198.3   8.5  33316  275.43 0865.18
2015 04 09 07 53 30 .87     -38   -112     14    119    120 198.7   6.9  33314  275.40 0865.18
2015 04 09 07 53 31 .12     -43   -107     12    116    117 201.8   5.9  33310  275.34 0865.18
2015 04 09 07 53 31 .37     -42   -108     14    117    118 201.4   6.9  33304  275.24 0865.18
2015 04 09 07 53 31 .62     -44   -102     17    112    114 203.2   9.0  33300  275.19 0865.18
2015 04 09 07 53 31 .87     -42   -108      4    117    118 201.4   2.3  33298  275.15 0865.19
2015 04 09 07 53 32 .12     -40    -95      6    104    105 202.7   3.8  33300  275.19 0865.19
2015 04 09 07 53 32 .38     -42   -101      5    110    111 202.7   2.8  33302  275.20 0865.19
2015 04 09 07 53 32 .62     -37    -92      4    100    101 201.8   2.3  33304  275.24 0865.19
2015 04 09 07 53 32 .87     -44    -95     10    105    106 204.9   5.4  33298  275.15 0865.19
2015 04 09 07 53 33 .12     -40    -95      6    104    105 202.7   3.8  33300  275.19 0865.19
2015 04 09 07 53 33 .37     -37    -92      4    100    101 202.3   2.3  33298  275.14 0865.19
2015 04 09 07 53 33 .62     -42    -91      5    101    102 204.9   2.9  33298  275.15 0865.19
2015 04 09 07 53 33 .88     -41    -90      0     99    100 204.5   0.2  33304  275.25 0865.19
2015 04 09 07 53 34 .13     -38    -93     -9    101    102 202.3  -5.2  33306  275.29 0865.19
2015 04 09 07 53 34 .38     -31    -89     -9     95     96 199.2  -5.6  33304  275.24 0865.19
2015 04 09 07 53 34 .63     -37    -93     -3    101    102 201.8  -2.2  33302  275.22 0865.18
2015 04 09 07 53 34 .88     -37   -100      3    107    108 200.5   1.8  33304  275.24 0865.18
2015 04 09 07 53 35 .13     -47   -101      5    112    113 205.3   2.9  33304  275.24 0865.18
2015 04 09 07 53 35 .38     -40    -95      0    104    105 202.7  -0.3  33304  275.25 0865.18
2015 04 09 07 53 35 .64     -28    -85     -6     90     91 198.7  -4.1  33308  275.32 0865.18
2015 04 09 07 53 35 .89     -32    -82     -8     89     90 201.4  -5.2  33308  275.32 0865.18
2015 04 09 07 53 36 .14     -32    -73    -24     80     84 203.6 -16.6  33306  275.29 0865.18
2015 04 09 07 53 36 .39     -44    -82     -9     94     95 208.5  -5.6  33308  275.32 0865.18
2015 04 09 07 53 36 .64     -35    -81     -6     89     90 203.6  -4.1  33316  275.45 0865.18
2015 04 09 07 53 36 .89     -50    -91      3    105    106 209.0   1.8  33312  275.39 0865.18
2015 04 09 07 53 37 .14     -49   -104      5    116    117 205.3   2.9  33310  275.35 0865.18
2015 04 09 07 53 37 .40     -40    -95     -4    104    105 202.7  -2.2  33306  275.29 0865.18
2015 04 09 07 53 37 .65     -45    -88      2    100    101 207.2   1.2  33310  275.34 0865.18
2015 04 09 07 53 37 .89     -44    -96      5    106    107 204.9   2.8  33310  275.34 0865.18
2015 04 09 07 53 38 .15     -46    -85      2     97     98 208.5   1.2  33316  275.45 0865.18
2015 04 09 07 53 38 .39     -53    -97      6    111    112 209.0   3.3  33312  275.39 0865.18
2015 04 09 07 53 38 .64     -60   -108     14    124    125 209.0   6.9  33308  275.32 0865.18
2015 04 09 07 53 38 .90     -64   -106     17    124    126 211.2   8.0  33306  275.29 0865.18
2015 04 09 07 53 39 .15     -69   -100     12    122    123 214.7   5.9  33306  275.29 0865.18
2015 04 09 07 53 39 .40     -64   -106     17    124    126 211.2   8.0  33306  275.29 0865.18
2015 04 09 07 53 39 .65     -67   -106     25    126    129 212.6  11.6  33304  275.24 0865.18
2015 04 09 07 53 39 .90     -67   -113      6    132    133 210.8   2.9  33310  275.34 0865.18
2015 04 09 07 53 40 .15     -68    -98     26    120    123 214.7  12.6  33306  275.29 0865.18
2015 04 09 07 53 40 .40     -61    -96     11    114    115 212.6   5.9  33304  275.24 0865.18
2015 04 09 07 53 40 .65     -63    -99     16    118    120 212.6   8.0  33304  275.24 0865.18
2015 04 09 07 53 40 .90     -59   -107     21    123    125 209.0  10.1  33304  275.24 0865.18
2015 04 09 07 53 41 .15     -64   -106     17    124    126 211.2   8.0  33306  275.29 0865.18
2015 04 09 07 53 41 .40     -60   -117     26    132    135 207.2  11.1  33310  275.34 0865.18
2015 04 09 07 53 41 .65     -64   -109     20    127    129 210.3   9.0  33308  275.30 0865.18
2015 04 09 07 53 41 .90     -52   -110     28    122    126 205.3  13.2  33310  275.35 0865.18
2015 04 09 07 53 42 .15     -52   -111     21    123    125 205.5  10.1  33304  275.24 0865.18
2015 04 09 07 53 42 .42     -52   -111     21    123    125 205.5  10.1  33304  275.24 0865.18
2015 04 09 07 53 42 .66     -60   -108     14    124    125 209.0   6.9  33298  275.15 0865.18
2015 04 09 07 53 42 .91     -60   -108     14    124    125 209.0   6.9  33298  275.15 0865.18
2015 04 09 07 53 43 .17     -60   -108     14    124    125 209.0   6.9  33298  275.15 0865.18
2015 04 09 07 53 43 .42     -56   -108     10    122    123 207.6   5.0  33298  275.14 0865.18
2015 04 09 07 53 43 .67     -51   -117     15    128    129 203.7   7.1  33298  275.14 0865.18
2015 04 09 07 53 43 .92     -50   -106     16    118    120 205.5   8.0  33294  275.09 0865.18
2015 04 09 07 53 44 .17     -48   -110     19    121    123 203.7   9.0  33296  275.10 0865.18
2015 04 09 07 53 44 .42     -45   -109     14    119    120 202.7   6.9  33298  275.15 0865.18
2015 04 09 07 53 44 .67     -44   -111     15    120    122 201.8   7.5  33298  275.14 0865.18
2015 04 09 07 53 44 .92     -54   -112     14    125    126 205.9   6.5  33296  275.10 0865.18
2015 04 09 07 53 45 .17     -50   -106     10    118    119 205.5   5.0  33298  275.15 0865.18
2015 04 09 07 53 45 .42     -56   -108     10    122    123 207.6   5.0  33298  275.14 0865.17
2015 04 09 07 53 45 .67     -56   -108     10    122    123 207.6   5.0  33298  275.14 0865.17
2015 04 09 07 53 45 .92     -56   -108     10    122    123 207.6   5.0  33298  275.14 0865.17
2015 04 09 07 53 46 .17     -56   -108     10    122    123 207.6   5.0  33298  275.14 0865.17
2015 04 09 07 53 46 .42     -56   -108     10    122    123 207.6   5.0  33298  275.14 0865.17
2015 04 09 07 53 46 .67     -53   -112     14    125    126 205.4   6.5  33298  275.15 0865.17
2015 04 09 07 53 46 .92     -49   -113     10    124    125 203.6   5.0  33300  275.19 0865.17
2015 04 09 07 53 47 .18     -52   -119     12    131    132 203.7   5.4  33304  275.25 0865.17
2015 04 09 07 53 47 .43     -50   -116      9    127    128 203.6   4.4  33302  275.20 0865.17
2015 04 09 07 53 47 .68     -50   -116      9    127    128 203.6   4.4  33302  275.20 0865.17
2015 04 09 07 53 47 .93     -50   -116      9    127    128 203.6   4.4  33302  275.20 0865.17
2015 04 09 07 53 48 .18     -57   -111      9    125    126 207.2   4.4  33304  275.25 0865.17
2015 04 09 07 53 48 .43     -55   -107     19    121    123 207.1   9.0  33316  275.45 0865.17
2015 04 09 07 53 48 .68     -57   -103     16    118    120 209.0   8.0  33300  275.19 0865.17
2015 04 09 07 53 48 .93     -46   -100     14    111    112 204.9   7.5  33298  275.15 0865.17
2015 04 09 07 53 49 .18     -50    -90      9    104    105 209.0   5.4  33302  275.20 0865.17
2015 04 09 07 53 49 .44     -51   -100      8    113    114 207.2   4.4  33298  275.15 0865.17
2015 04 09 07 53 49 .69     -51   -100      8    113    114 207.2   4.4  33302  275.22 0865.17
2015 04 09 07 53 49 .94     -58   -103     10    119    120 209.4   4.9  33298  275.15 0865.17
2015 04 09 07 53 50 .19     -47   -109      6    119    120 203.6   3.3  33300  275.19 0865.17
2015 04 09 07 53 50 .44     -42   -107      5    116    117 201.4   2.9  33308  275.32 0865.17
2015 04 09 07 53 50 .69     -51   -108      2    120    121 205.3   1.2  33312  275.39 0865.17
2015 04 09 07 53 50 .94     -53   -111      6    124    125 205.5   2.9  33312  275.39 0865.18
2015 04 09 07 53 51 .19     -50   -106     10    118    119 205.3   4.9  33310  275.35 0865.18
2015 04 09 07 53 51 .44     -53   -107     11    120    121 206.7   5.4  33306  275.29 0865.18
2015 04 09 07 53 51 .70     -61   -100     14    118    119 211.2   6.9  33308  275.32 0865.18
2015 04 09 07 53 51 .95     -58    -95      8    112    113 211.6   4.4  33304  275.25 0865.18
2015 04 09 07 53 52 .20     -60    -95      5    113    114 212.6   2.8  33308  275.30 0865.18
2015 04 09 07 53 52 .45     -50    -95      5    108    109 207.6   2.9  33304  275.25 0865.18
2015 04 09 07 53 52 .70     -59    -96      4    113    114 211.6   2.3  33310  275.34 0865.18
2015 04 09 07 53 52 .95     -47   -101     13    112    113 205.3   7.1  33326  275.60 0865.18
2015 04 09 07 53 53 .20     -48    -86     27     99    103 209.0  15.3  33318  275.48 0865.18
2015 04 09 07 53 53 .45     -44    -89     23    100    103 206.7  13.2  33324  275.58 0865.18
2015 04 09 07 53 53 .70     -49    -90     18    103    105 209.0  10.1  33322  275.53 0865.18
2015 04 09 07 53 53 .95     -36    -87     12     95     96 202.3   7.5  33306  275.29 0865.18
2015 04 09 07 53 54 .20     -43    -79     17     91     93 208.5  11.0  33322  275.53 0865.18
2015 04 09 07 53 54 .45     -45    -84     14     96     98 208.5   8.5  33326  275.60 0865.18
2015 04 09 07 53 54 .70     -48    -80     15     94     96 211.2   9.0  33322  275.53 0865.18
2015 04 09 07 53 54 .95     -36    -96      5    103    104 200.5   2.9  33298  275.15 0865.18
2015 04 09 07 53 55 .20     -40    -95      6    104    105 202.7   3.8  33300  275.19 0865.18
2015 04 09 07 53 55 .45     -40    -95      6    104    105 202.7   3.8  33300  275.19 0865.18
2015 04 09 07 53 55 .71     -46    -92      6    103    104 206.7   3.8  33298  275.14 0865.18
2015 04 09 07 53 55 .95     -44    -95     10    105    106 204.9   5.4  33298  275.15 0865.18
2015 04 09 07 53 56 .21     -44    -95     10    105    106 204.9   5.4  33298  275.15 0865.18
2015 04 09 07 53 56 .47     -44    -95     10    105    106 204.9   5.4  33298  275.15 0865.18
2015 04 09 07 53 56 .72     -40    -95      6    104    105 202.7   3.8  33300  275.19 0865.18
2015 04 09 07 53 56 .97     -40    -95      6    104    105 202.7   3.8  33300  275.19 0865.18
2015 04 09 07 53 57 .22     -41    -86     -2     96     97 205.9  -1.3  33306  275.29 0865.18
2015 04 09 07 53 57 .47     -27    -81     -3     86     87 198.3  -2.6  33304  275.24 0865.18
2015 04 09 07 53 57 .72     -40    -83     -4     93     94 205.5  -2.6  33310  275.34 0865.18
2015 04 09 07 53 57 .97     -36    -73     -5     82     83 206.3  -4.1  33308  275.30 0865.18
2015 04 09 07 53 58 .22     -27    -69     -5     75     76 201.9  -4.1  33308  275.30 0865.18
2015 04 09 07 53 58 .47     -30    -77      0     83     84 201.4  -0.3  33306  275.29 0865.18
2015 04 09 07 53 58 .72     -31    -85      1     91     92 200.5   1.2  33302  275.20 0865.18
2015 04 09 07 53 58 .97     -37    -86      4     94     95 203.6   2.8  33304  275.24 0865.17
2015 04 09 07 53 59 .22     -35    -89      0     96     97 201.4  -0.3  33300  275.19 0865.17
2015 04 09 07 53 59 .47     -42    -91      5    101    102 204.9   2.9  33298  275.15 0865.17
2015 04 09 07 53 59 .73     -41    -84     15     94     96 206.3   9.0  33306  275.29 0865.17
2015 04 09 07 53 59 .97     -31    -91      7     97     98 198.7   4.4  33304  275.24 0865.17
2015 04 09 07 54 00 .22     -41    -96     13    105    106 203.2   7.5  33304  275.25 0865.17
2015 04 09 07 54 00 .47     -38    -84     10     93     94 204.5   6.5  33298  275.15 0865.17
2015 04 09 07 54 00 .73     -41    -86      4     96     97 205.9   2.9  33302  275.20 0865.17
2015 04 09 07 54 00 .98     -31    -85      1     91     92 200.5   1.2  33302  275.20 0865.17
2015 04 09 07 54 01 .23     -41    -86      4     96     97 205.9   2.9  33302  275.20 0865.17
2015 04 09 07 54 01 .48     -37    -86      4     94     95 203.6   2.8  33304  275.24 0865.17
2015 04 09 07 54 01 .73     -41    -96      1    105    106 203.2   0.8  33314  275.40 0865.17
2015 04 09 07 54 01 .98     -40    -95      6    104    105 202.7   3.8  33318  275.48 0865.17
2015 04 09 07 54 02 .23     -37    -99     10    106    107 200.5   5.4  33310  275.35 0865.17
2015 04 09 07 54 02 .49     -40   -104     15    112    114 201.4   8.0  33320  275.50 0865.17
2015 04 09 07 54 02 .73     -45    -92     14    103    105 206.3   8.0  33310  275.35 0865.17
2015 04 09 07 54 02 .98     -35    -89      4     96     97 201.8   2.9  33316  275.45 0865.17
2015 04 09 07 54 03 .25     -42    -85      0     95     96 206.3  -0.3  33316  275.43 0865.17
2015 04 09 07 54 03 .49     -43    -92     12    102    103 205.3   6.9  33322  275.53 0865.17
2015 04 09 07 54 03 .74     -42    -91     12    101    102 204.9   7.1  33318  275.48 0865.17
2015 04 09 07 54 04 .00     -37    -92      4    100    101 202.3   2.3  33316  275.43 0865.17
2015 04 09 07 54 04 .24     -32    -88      9     94     95 200.0   5.9  33316  275.45 0865.17
2015 04 09 07 54 04 .50     -28    -84     13     89     90 198.7   8.5  33316  275.43 0865.18
2015 04 09 07 54 04 .75     -25    -82     18     86     89 196.9  12.2  33332  275.72 0865.18
2015 04 09 07 54 05 .00     -27    -81     29     86     91 198.7  18.9  33360  276.18 0865.18
2015 04 09 07 54 05 .25     -31    -83     23     89     93 200.9  14.7  33334  275.73 0865.18
2015 04 09 07 54 05 .50     -38    -78     30     87     93 206.3  19.4  33332  275.70 0865.18
2015 04 09 07 54 05 .75     -43    -70     25     83     87 211.6  16.8  33332  275.72 0865.18
2015 04 09 07 54 06 .00     -39    -78     32     88     93 206.7  20.0  33334  275.73 0865.18
2015 04 09 07 54 06 .25     -41    -84     27     94     98 206.3  16.3  33342  275.88 0865.18
2015 04 09 07 54 06 .50     -49    -80     20     94     97 211.6  12.2  33332  275.70 0865.18
2015 04 09 07 54 06 .75     -50    -81      4     96     97 211.6   2.9  33304  275.25 0865.18
2015 04 09 07 54 07 .00     -37    -92     10    100    101 201.8   5.9  33312  275.37 0865.18
2015 04 09 07 54 07 .25     -39    -97      7    105    106 201.9   3.8  33310  275.34 0865.18
2015 04 09 07 54 07 .50     -41    -86     13     96     97 205.9   8.0  33316  275.43 0865.18
2015 04 09 07 54 07 .75     -54    -87     14    103    105 211.6   8.0  33314  275.42 0865.18
2015 04 09 07 54 08 .00     -43    -88     11     99    100 206.3   6.5  33310  275.35 0865.18
2015 04 09 07 54 08 .25     -41    -86      4     96     97 205.9   2.9  33302  275.20 0865.17
2015 04 09 07 54 08 .50     -40    -95      6    104    105 202.7   3.8  33300  275.19 0865.17
2015 04 09 07 54 08 .75     -40    -95      6    104    105 202.7   3.8  33300  275.19 0865.17
2015 04 09 07 54 09 .01     -42    -91      5    101    102 204.9   2.9  33298  275.15 0865.17
2015 04 09 07 54 09 .25     -35    -89      4     96     97 201.8   2.9  33296  275.12 0865.17
2015 04 09 07 54 09 .51     -37    -92      4    100    101 202.3   2.3  33298  275.14 0865.17
2015 04 09 07 54 09 .76     -35    -89      4     96     97 201.8   2.9  33298  275.15 0865.17
2015 04 09 07 54 10 .01     -31    -91      2     97     98 198.7   1.2  33300  275.17 0865.18
2015 04 09 07 54 10 .27     -35    -89      4     96     97 201.8   2.9  33296  275.12 0865.18
2015 04 09 07 54 10 .52     -31    -82      4     88     89 200.9   2.9  33300  275.19 0865.18
2015 04 09 07 54 10 .77     -31    -85      1     91     92 200.5   1.2  33302  275.20 0865.18
2015 04 09 07 54 11 .02     -31    -85      1     91     92 200.5   1.2  33302  275.20 0865.18
2015 04 09 07 54 11 .27     -31    -85      1     91     92 200.5   1.2  33302  275.20 0865.18
2015 04 09 07 54 11 .52     -33    -86      7     93     94 201.4   4.4  33298  275.14 0865.18
2015 04 09 07 54 11 .77     -33    -86      7     93     94 201.4   4.4  33298  275.14 0865.18
2015 04 09 07 54 12 .02     -31    -82      4     88     89 200.9   2.9  33300  275.19 0865.18
2015 04 09 07 54 12 .27     -31    -82      4     88     89 200.9   2.9  33300  275.19 0865.18
2015 04 09 07 54 12 .52     -31    -82      4     88     89 200.9   2.9  33300  275.19 0865.18
2015 04 09 07 54 12 .77     -35    -82      6     90     91 203.2   3.8  33304  275.25 0865.18
2015 04 09 07 54 13 .02     -34    -82      4     89     90 202.7   2.9  33302  275.20 0865.18
2015 04 09 07 54 13 .27     -33    -69      2     77     78 205.5   1.8  33304  275.25 0865.18
2015 04 09 07 54 13 .52     -42    -76      4     88     89 209.0   2.9  33298  275.15 0865.18
2015 04 09 07 54 13 .77     -39    -77      4     87     88 206.7   2.8  33298  275.14 0865.18
2015 04 09 07 54 14 .03     -33    -86      7     93     94 201.4   4.4  33298  275.14 0865.18
2015 04 09 07 54 14 .28     -28    -85      4     90     91 198.7   2.9  33300  275.17 0865.18
2015 04 09 07 54 14 .53     -35    -83      5     91     92 203.2   3.3  33298  275.15 0865.17
2015 04 09 07 54 14 .78     -24    -72     -6     76     77 198.5  -5.2  33302  275.20 0865.17
2015 04 09 07 54 15 .03     -31    -82      4     88     89 200.9   2.9  33300  275.19 0865.17
2015 04 09 07 54 15 .28     -27    -82      1     87     88 198.7   0.8  33298  275.15 0865.17
2015 04 09 07 54 15 .53     -27    -82      1     87     88 198.7   0.8  33298  275.15 0865.17
2015 04 09 07 54 15 .78     -27    -81      1     86     87 198.3   0.8  33296  275.10 0865.17
2015 04 09 07 54 16 .03     -33    -76      1     84     85 203.6   0.8  33298  275.15 0865.17
2015 04 09 07 54 16 .28     -33    -86      7     93     94 201.4   4.4  33298  275.14 0865.17
2015 04 09 07 54 16 .53     -33    -76      1     84     85 203.6   0.8  33298  275.15 0865.17
2015 04 09 07 54 16 .78     -33    -86      7     93     94 201.4   4.4  33298  275.14 0865.17
2015 04 09 07 54 17 .03     -33    -76      1     84     85 203.6   0.8  33304  275.25 0865.17
2015 04 09 07 54 17 .29     -32    -77      2     84     85 202.7   1.8  33308  275.30 0865.17
2015 04 09 07 54 17 .54     -36    -74      4     83     84 205.9   3.3  33306  275.27 0865.17
2015 04 09 07 54 17 .80     -39    -79      8     89     90 206.3   5.4  33310  275.34 0865.17
2015 04 09 07 54 18 .05     -37    -76     18     85     87 206.3  12.2  33312  275.39 0865.17
2015 04 09 07 54 18 .30     -29    -80     18     86     88 200.0  12.2  33312  275.39 0865.17
2015 04 09 07 54 18 .55     -31    -82     17     88     90 200.9  11.1  33310  275.34 0865.17
2015 04 09 07 54 18 .80     -42    -76      4     88     89 209.0   2.9  33316  275.45 0865.17
2015 04 09 07 54 19 .05     -41    -74      1     85     86 209.0   1.2  33314  275.40 0865.17
2015 04 09 07 54 19 .30     -42    -76      5     88     89 209.0   3.8  33308  275.32 0865.17
2015 04 09 07 54 19 .55     -39    -79      8     89     90 206.3   5.4  33310  275.34 0865.17
2015 04 09 07 54 19 .80     -35    -89      4     96     97 201.4   2.9  33304  275.25 0865.17
2015 04 09 07 54 20 .05     -29    -80     10     86     87 200.0   6.9  33304  275.25 0865.17
2015 04 09 07 54 20 .30     -31    -91      7     97     98 198.7   4.4  33304  275.24 0865.17
2015 04 09 07 54 20 .55     -27   -100     12    104    105 195.6   6.9  33304  275.24 0865.17
2015 04 09 07 54 20 .80     -21    -95     12     98     99 192.9   7.5  33310  275.34 0865.17
2015 04 09 07 54 21 .05     -18    -95     11     97     98 191.1   6.5  33308  275.30 0865.17
2015 04 09 07 54 21 .30     -21    -99      7    102    103 192.0   4.4  33306  275.29 0865.17
2015 04 09 07 54 21 .55      -9    -98     -3     99    100 185.8  -2.2  33302  275.22 0865.17
2015 04 09 07 54 21 .80      -5   -108     -3    109    110 182.7  -1.8  33304  275.25 0865.17
2015 04 09 07 54 22 .05      -1   -102      1    103    104 180.9   0.8  33304  275.25 0865.17
2015 04 09 07 54 22 .30      -3    -98     -2     99    100 182.2  -1.3  33306  275.29 0865.17
2015 04 09 07 54 22 .56      -7    -98      0     99    100 184.5   0.2  33308  275.30 0865.17
2015 04 09 07 54 22 .81      -9   -103     -6    104    105 185.3  -3.7  33306  275.27 0865.17
2015 04 09 07 54 23 .06      -4    -87     -2     88     89 183.1  -1.8  33308  275.30 0865.17
2015 04 09 07 54 23 .31      -5    -94      4     95     96 183.1   2.8  33310  275.34 0865.17
2015 04 09 07 54 23 .56      -7    -98      0     99    100 184.5   0.2  33310  275.35 0865.17
2015 04 09 07 54 23 .81      -7    -98      0     99    100 184.5   0.2  33310  275.35 0865.17
2015 04 09 07 54 24 .06      -5   -110     -4    111    112 182.7  -2.2  33314  275.40 0865.17
2015 04 09 07 54 24 .32      -7    -98      3     99    100 184.5   1.8  33316  275.45 0865.17
2015 04 09 07 54 24 .57      -8    -94     -1     95     96 184.9  -0.7  33312  275.39 0865.17
2015 04 09 07 54 24 .82     -16    -92      0     94     95 190.2   0.2  33312  275.39 0865.17
2015 04 09 07 54 25 .07     -14    -79     -3     81     82 190.2  -2.2  33310  275.34 0865.17
2015 04 09 07 54 25 .32      -7    -98      0     99    100 184.5   0.2  33310  275.35 0865.17
2015 04 09 07 54 25 .57     -20    -99      0    102    103 191.6  -0.3  33308  275.32 0865.17
2015 04 09 07 54 25 .82     -16    -91      4     93     94 190.2   2.9  33308  275.32 0865.17
2015 04 09 07 54 26 .07      -7    -93      0     94     95 184.5   0.2  33312  275.37 0865.17
2015 04 09 07 54 26 .32     -14    -88      8     90     91 189.3   5.4  33312  275.39 0865.17
2015 04 09 07 54 26 .57     -16    -85      5     87     88 190.7   3.8  33310  275.35 0865.17
2015 04 09 07 54 26 .83     -11    -84     10     85     86 187.6   6.9  33310  275.35 0865.17
2015 04 09 07 54 27 .08      -7    -85      5     86     87 184.9   3.8  33308  275.30 0865.17
2015 04 09 07 54 27 .33      -7    -90      1     91     92 184.5   1.2  33308  275.30 0865.17
2015 04 09 07 54 27 .58     -10    -82    -15     83     85 187.6 -10.3  33316  275.45 0865.17
2015 04 09 07 54 27 .83     -13    -65    -11     67     68 191.5  -9.3  33314  275.40 0865.17
2015 04 09 07 54 28 .08     -29    -61     -6     68     69 205.4  -5.2  33310  275.35 0865.17
2015 04 09 07 54 28 .33     -30    -65     -2     72     73 205.4  -2.2  33314  275.40 0865.17
2015 04 09 07 54 28 .58     -33    -70      2     78     79 205.4   1.8  33310  275.35 0865.17
2015 04 09 07 54 28 .83     -24    -69      3     74     75 199.2   2.9  33306  275.29 0865.17
2015 04 09 07 54 29 .08     -24    -69      3     74     75 199.2   2.9  33306  275.29 0865.18
2015 04 09 07 54 29 .33     -30    -75     -3     81     82 201.9  -2.2  33314  275.40 0865.18
2015 04 09 07 54 29 .58     -23    -68     -3     72     73 198.7  -3.1  33316  275.43 0865.18
2015 04 09 07 54 29 .83     -13    -80      1     82     83 189.8   1.2  33314  275.40 0865.18
2015 04 09 07 54 30 .08     -27    -81      8     86     87 198.3   5.9  33312  275.39 0865.18
2015 04 09 07 54 30 .33     -35    -72     13     81     83 206.3   9.5  33310  275.34 0865.18
2015 04 09 07 54 30 .58     -29    -76     14     82     84 201.4  10.1  33316  275.43 0865.18
2015 04 09 07 54 30 .83     -26    -79     15     84     86 198.7  10.6  33316  275.45 0865.18
2015 04 09 07 54 31 .10     -25    -71     23     76     80 200.0  16.8  33318  275.48 0865.18
2015 04 09 07 54 31 .35     -31    -65     18     73     76 205.4  14.3  33318  275.48 0865.18
2015 04 09 07 54 31 .60     -27    -60     23     66     70 204.5  19.4  33320  275.50 0865.18
2015 04 09 07 54 31 .85     -27    -60     23     66     70 204.5  19.4  33320  275.50 0865.18
2015 04 09 07 54 32 .10     -41    -68     21     80     83 211.2  14.7  33320  275.50 0865.18
2015 04 09 07 54 32 .35     -44    -72     18     85     87 211.2  12.2  33322  275.53 0865.18
2015 04 09 07 54 32 .60     -49    -64     13     81     83 217.4   9.5  33318  275.48 0865.18
2015 04 09 07 54 32 .85     -50    -70     17     87     89 215.6  11.1  33322  275.55 0865.17
2015 04 09 07 54 33 .10     -50    -68     18     85     87 216.1  12.2  33324  275.58 0865.17
2015 04 09 07 54 33 .35     -48    -67     25     83     87 216.1  16.8  33320  275.50 0865.17
2015 04 09 07 54 33 .60     -39    -62     24     74     78 212.5  17.9  33322  275.53 0865.17
2015 04 09 07 54 33 .85     -36    -66     28     76     81 208.9  21.0  33322  275.53 0865.17
2015 04 09 07 54 34 .10     -32    -68     32     76     82 205.4  24.1  33328  275.63 0865.17
2015 04 09 07 54 34 .35     -28    -68     30     74     79 202.7  23.6  33326  275.60 0865.17
2015 04 09 07 54 34 .60     -24    -74     30     78     83 198.3  21.5  33334  275.75 0865.17
2015 04 09 07 54 34 .85     -36    -74     34     83     89 206.3  23.0  33342  275.86 0865.17
2015 04 09 07 54 35 .10     -44    -82     45     94    104 208.5  27.3  33336  275.78 0865.17
2015 04 09 07 54 35 .35     -60    -82     46    102    111 216.1  26.2  33322  275.53 0865.17
2015 04 09 07 54 35 .61     -54    -88     35    104    110 211.6  18.9  33310  275.35 0865.17
2015 04 09 07 54 35 .86     -52    -86     29    101    106 211.6  16.3  33306  275.27 0865.17
2015 04 09 07 54 36 .11     -52    -95     21    109    112 209.0  11.1  33304  275.24 0865.17
2015 04 09 07 54 36 .36     -48    -86     27     99    103 209.0  15.3  33304  275.24 0865.17
2015 04 09 07 54 36 .61     -48    -88     19    101    103 209.0  11.1  33302  275.20 0865.17
2015 04 09 07 54 36 .86     -42    -86     25     97    101 206.3  14.7  33306  275.27 0865.17
2015 04 09 07 54 37 .11     -42    -86     25     97    101 206.3  14.7  33306  275.27 0865.17
2015 04 09 07 54 37 .36     -39    -80     16     90     92 206.3  10.1  33304  275.25 0865.18
2015 04 09 07 54 37 .61     -42    -70      6     82     83 211.2   4.4  33310  275.35 0865.18
2015 04 09 07 54 37 .86     -38    -60     -2     72     73 212.5  -2.2  33310  275.35 0865.18
2015 04 09 07 54 38 .12     -38    -69     11     79     80 209.0   8.0  33316  275.45 0865.18
2015 04 09 07 54 38 .37     -25    -76     -3     81     82 198.7  -2.2  33316  275.45 0865.18
2015 04 09 07 54 38 .63     -22    -76     -3     80     81 196.0  -2.6  33316  275.43 0865.18
2015 04 09 07 54 38 .88     -24    -73      2     77     78 198.3   1.8  33314  275.40 0865.18
2015 04 09 07 54 39 .13     -27    -81     -3     86     87 198.3  -2.6  33312  275.39 0865.17
2015 04 09 07 54 39 .37     -42    -85      4     95     96 206.3   2.9  33308  275.30 0865.17
2015 04 09 07 54 39 .63     -37    -93      3    101    102 201.8   1.8  33306  275.29 0865.17
2015 04 09 07 54 39 .88     -40    -83     -4     93     94 205.5  -2.6  33310  275.34 0865.17
2015 04 09 07 54 40 .13     -35    -89      4     96     97 201.4   2.9  33304  275.25 0865.17
2015 04 09 07 54 40 .38     -40    -89      0     98     99 204.1  -0.3  33308  275.30 0865.17
2015 04 09 07 54 40 .63     -45    -81     -2     93     94 209.0  -1.8  33314  275.40 0865.17
2015 04 09 07 54 40 .88     -40    -84      4     94     95 205.3   2.8  33312  275.39 0865.17
2015 04 09 07 54 41 .13     -48    -85      0     98     99 209.4  -0.3  33308  275.32 0865.18
2015 04 09 07 54 41 .38     -42    -76      0     88     89 209.0  -0.3  33312  275.39 0865.18
2015 04 09 07 54 41 .63     -48    -73     -1     88     89 213.8  -1.3  33310  275.34 0865.18
2015 04 09 07 54 41 .88     -40    -73     -4     84     85 209.0  -3.1  33310  275.34 0865.18
2015 04 09 07 54 42 .13     -46    -68      2     83     84 214.3   1.8  33308  275.30 0865.18
2015 04 09 07 54 42 .38     -48    -73      5     88     89 213.8   3.8  33304  275.25 0865.18
2015 04 09 07 54 42 .63     -48    -73      5     88     89 213.8   3.8  33304  275.25 0865.18
2015 04 09 07 54 42 .88     -52    -81      8     97     98 212.6   4.9  33304  275.24 0865.17
2015 04 09 07 54 43 .14     -44    -81      4     93     94 208.5   2.8  33306  275.29 0865.17
2015 04 09 07 54 43 .38     -52    -85      4    100    101 211.6   2.3  33306  275.29 0865.17
2015 04 09 07 54 43 .64     -57    -88      5    106    107 213.0   2.8  33310  275.34 0865.17
2015 04 09 07 54 43 .88     -64    -86      4    108    109 217.0   2.3  33312  275.39 0865.17
2015 04 09 07 54 44 .14     -56    -85      5    102    103 213.4   2.9  33316  275.45 0865.17
2015 04 09 07 54 44 .39     -56    -85      5    102    103 213.4   2.9  33316  275.45 0865.17
2015 04 09 07 54 44 .64     -50    -76      9     92     93 213.4   5.9  33316  275.45 0865.17
2015 04 09 07 54 44 .89     -53    -73      7     91     92 216.1   4.9  33316  275.43 0865.17
2015 04 09 07 54 45 .15     -50    -69      3     86     87 216.1   2.3  33316  275.43 0865.17
2015 04 09 07 54 45 .40     -47    -70      1     85     86 214.3   0.8  33316  275.45 0865.17
2015 04 09 07 54 45 .65     -48    -73      4     88     89 213.8   2.9  33316  275.45 0865.17
2015 04 09 07 54 45 .90     -51    -68     -3     86     87 217.0  -2.2  33314  275.40 0865.17
2015 04 09 07 54 46 .15     -45    -73     -3     86     87 211.6  -2.2  33310  275.35 0865.17
2015 04 09 07 54 46 .40     -47    -70     -3     85     86 214.3  -2.2  33310  275.34 0865.17
2015 04 09 07 54 46 .65     -49    -66     -6     83     84 217.0  -4.1  33312  275.37 0865.17
2015 04 09 07 54 46 .90     -43    -68     -8     81     82 212.6  -6.2  33312  275.39 0865.17
2015 04 09 07 54 47 .15     -37    -61     -9     72     73 211.6  -7.2  33310  275.34 0865.17
2015 04 09 07 54 47 .41     -41    -65     -3     78     79 212.5  -2.6  33316  275.43 0865.18
2015 04 09 07 54 47 .65     -41    -65      2     78     79 212.5   1.8  33314  275.40 0865.18
2015 04 09 07 54 47 .90     -38    -70     -3     80     81 208.9  -2.2  33318  275.47 0865.18
2015 04 09 07 54 48 .16     -38    -69     -7     79     80 209.0  -5.2  33320  275.52 0865.18
2015 04 09 07 54 48 .41     -26    -66    -11     72     73 201.9  -9.3  33314  275.40 0865.18
2015 04 09 07 54 48 .65     -36    -82     -2     90     91 203.6  -1.3  33316  275.43 0865.18
2015 04 09 07 54 48 .91     -40    -82      1     92     93 206.3   1.2  33314  275.40 0865.18
2015 04 09 07 54 49 .16     -35    -89     -2     96     97 201.8  -1.3  33310  275.34 0865.18
2015 04 09 07 54 49 .41     -41    -87      2     97     98 205.3   1.2  33314  275.40 0865.18
2015 04 09 07 54 49 .66     -38    -87    -10     95     96 203.6  -6.2  33312  275.39 0865.18
2015 04 09 07 54 49 .91     -41    -84    -18     94     96 206.3 -11.3  33316  275.43 0865.18
2015 04 09 07 54 50 .16     -37   -100     -4    107    108 200.5  -2.2  33308  275.30 0865.18
2015 04 09 07 54 50 .41     -46    -86    -11     98     99 208.5  -6.7  33308  275.30 0865.18
2015 04 09 07 54 50 .66     -32   -103     -8    109    110 197.4  -4.6  33306  275.29 0865.18
2015 04 09 07 54 50 .91     -20    -99    -12    102    103 191.6  -7.2  33300  275.17 0865.18
2015 04 09 07 54 51 .16     -24    -92    -15     96     98 195.1  -9.3  33298  275.15 0865.18
2015 04 09 07 54 51 .41     -20    -93    -19     96     98 192.5 -11.3  33298  275.14 0865.18
2015 04 09 07 54 51 .67     -23    -88    -21     92     95 195.1 -12.9  33302  275.20 0865.18
2015 04 09 07 54 51 .92     -23    -82    -22     86     89 195.6 -14.5  33300  275.17 0865.18
2015 04 09 07 54 52 .18     -25    -76    -22     81     85 198.7 -15.5  33304  275.24 0865.18
2015 04 09 07 54 52 .42     -21    -78    -11     81     82 195.1  -8.2  33304  275.25 0865.18
2015 04 09 07 54 52 .67     -27    -81    -19     86     89 198.3 -12.4  33300  275.19 0865.18
2015 04 09 07 54 52 .93     -20    -86    -25     89     93 193.4 -16.0  33298  275.15 0865.17
2015 04 09 07 54 53 .17     -20    -77    -26     80     85 195.1 -18.1  33302  275.20 0865.17
2015 04 09 07 54 53 .43     -17    -64    -14     67     69 195.2 -12.4  33308  275.30 0865.17
2015 04 09 07 54 53 .68     -26    -66    -11     72     73 201.9  -9.3  33314  275.40 0865.17
2015 04 09 07 54 53 .93     -18    -59    -18     62     64 197.8 -21.7  33312  275.39 0865.17
2015 04 09 07 54 54 .18     -10    -69    -23     70     74 188.9 -18.7  33304  275.24 0865.17
2015 04 09 07 54 54 .43     -12    -60     -8     62     63 191.6  -7.3  33312  275.39 0865.17
2015 04 09 07 54 54 .68     -14    -58     -3     60     61 194.3  -3.1  33312  275.39 0865.17
2015 04 09 07 54 54 .93     -21    -66     -6     70     71 198.3  -5.2  33314  275.40 0865.17
2015 04 09 07 54 55 .18     -26    -57      8     63     64 204.5   8.0  33310  275.34 0865.17
2015 04 09 07 54 55 .43     -16    -61      7     64     65 195.1   6.9  33308  275.32 0865.17
2015 04 09 07 54 55 .68     -13    -66     -3     68     69 191.6  -3.1  33310  275.34 0865.17
2015 04 09 07 54 55 .94     -22    -66     -1     70     71 198.5  -1.3  33310  275.34 0865.17
2015 04 09 07 54 56 .18     -22    -57     13     62     64 200.9  12.2  33312  275.37 0865.17
2015 04 09 07 54 56 .44     -16    -60     14     63     65 195.1  13.2  33310  275.34 0865.17
2015 04 09 07 54 56 .68     -10    -58     22     59     62 189.8  21.0  33308  275.30 0865.17
2015 04 09 07 54 56 .94     -17    -64      9     67     68 195.1   8.0  33312  275.37 0865.17
2015 04 09 07 54 57 .18      -7    -67      2     68     69 186.2   1.8  33310  275.35 0865.17
2015 04 09 07 54 57 .44     -15    -69     -1     71     72 192.5  -1.2  33306  275.29 0865.17
2015 04 09 07 54 57 .69      -9    -64     14     65     67 188.0  12.2  33312  275.39 0865.17
2015 04 09 07 54 57 .94     -14    -71     14     73     75 191.5  11.1  33316  275.45 0865.17
2015 04 09 07 54 58 .19     -16    -68      4     70     71 193.4   3.8  33312  275.37 0865.17
2015 04 09 07 54 58 .44     -14    -72      8     74     75 191.5   6.9  33312  275.39 0865.17
2015 04 09 07 54 58 .69     -17    -63     12     66     68 195.2  11.0  33308  275.30 0865.17
2015 04 09 07 54 58 .95     -17    -55     19     58     62 197.8  18.4  33310  275.34 0865.17
2015 04 09 07 54 59 .20     -16    -59     21     62     66 195.1  19.2  33314  275.40 0865.17
2015 04 09 07 54 59 .45     -13    -56     16     58     61 193.4  15.3  33316  275.45 0865.17
2015 04 09 07 54 59 .70     -14    -72      8     74     75 191.5   6.9  33312  275.39 0865.17
2015 04 09 07 54 59 .95     -20    -67     15     71     73 196.9  12.2  33318  275.47 0865.17
2015 04 09 07 55 00 .20     -33    -60     16     69     71 208.9  13.2  33316  275.45 0865.17
2015 04 09 07 55 00 .45     -33    -52     17     62     65 212.5  15.3  33320  275.50 0865.17
2015 04 09 07 55 00 .70     -31    -55     18     64     67 209.0  16.3  33318  275.48 0865.17
2015 04 09 07 55 00 .95     -35    -63     22     73     77 209.0  16.8  33326  275.60 0865.17
2015 04 09 07 55 01 .21     -41    -67     20     79     82 211.6  14.7  33328  275.65 0865.17
2015 04 09 07 55 01 .46     -32    -68     23     76     80 205.4  16.8  33334  275.73 0865.17
2015 04 09 07 55 01 .70     -22    -69     11     73     74 198.3   9.0  33328  275.65 0865.17
2015 04 09 07 55 01 .95     -21    -66      7     70     71 198.3   5.9  33322  275.55 0865.17
2015 04 09 07 55 02 .21     -24    -60     12     65     67 201.8  11.0  33326  275.60 0865.17
2015 04 09 07 55 02 .46     -22    -57     13     62     64 200.9  12.2  33330  275.67 0865.17
2015 04 09 07 55 02 .71     -27    -56     17     63     66 205.4  15.2  33332  275.70 0865.17
2015 04 09 07 55 02 .96     -31    -55     18     64     67 209.0  16.3  33328  275.63 0865.17
2015 04 09 07 55 03 .21     -30    -47     18     56     60 212.5  18.4  33324  275.58 0865.17
2015 04 09 07 55 03 .46     -23    -51     20     57     61 204.5  19.4  33324  275.58 0865.17
2015 04 09 07 55 03 .71     -23    -48     15     54     57 205.3  15.3  33322  275.53 0865.18
2015 04 09 07 55 03 .96     -24    -54      3     60     61 204.5   2.9  33316  275.43 0865.18
2015 04 09 07 55 04 .21     -26    -49     11     56     58 208.1  11.0  33322  275.53 0865.18
2015 04 09 07 55 04 .46     -19    -54      8     58     59 199.2   8.0  33318  275.48 0865.18
2015 04 09 07 55 04 .71     -21    -46      2     51     52 204.5   2.9  33320  275.50 0865.18
2015 04 09 07 55 04 .96     -21    -46      2     51     52 204.5   2.9  33316  275.45 0865.18
2015 04 09 07 55 05 .21     -17    -53     11     56     58 198.3  11.0  33312  275.39 0865.18
2015 04 09 07 55 05 .47     -29    -45      7     54     55 212.5   8.0  33320  275.52 0865.18
2015 04 09 07 55 05 .71     -29    -45      0     54     55 212.5  -0.3  33330  275.68 0865.18
2015 04 09 07 55 05 .97     -11    -53     -7     55     56 192.5  -7.3  33304  275.24 0865.18
2015 04 09 07 55 06 .23     -17    -53     -6     56     57 197.8  -6.2  33302  275.20 0865.18
2015 04 09 07 55 06 .48     -10    -48     -5     50     51 191.6  -6.2  33308  275.30 0865.18
2015 04 09 07 55 06 .73     -17    -58     -2     61     62 196.9  -2.2  33304  275.25 0865.17
2015 04 09 07 55 06 .98     -15    -62     -1     64     65 194.3  -1.2  33310  275.34 0865.17
2015 04 09 07 55 07 .23     -21    -62     -3     66     67 198.7  -3.1  33306  275.29 0865.17
2015 04 09 07 55 07 .48     -26    -58     -2     64     65 204.5  -2.2  33318  275.48 0865.17
2015 04 09 07 55 07 .73     -38    -46      5     60     61 219.7   4.9  33328  275.63 0865.17
2015 04 09 07 55 07 .98     -34    -56     22     66     70 211.6  18.4  33332  275.70 0865.17
2015 04 09 07 55 08 .23     -36    -51     19     63     67 215.2  17.3  33328  275.63 0865.17
2015 04 09 07 55 08 .48     -38    -52     17     65     68 216.0  15.3  33322  275.53 0865.17
2015 04 09 07 55 08 .73     -35    -49     14     61     63 216.1  13.2  33318  275.48 0865.17
2015 04 09 07 55 08 .98     -36    -58     28     69     74 211.6  23.0  33336  275.78 0865.17
2015 04 09 07 55 09 .23     -25    -63     23     68     73 201.8  19.2  33340  275.83 0865.17
2015 04 09 07 55 09 .48     -22    -58      6     63     64 200.9   5.9  33334  275.75 0865.17
2015 04 09 07 55 09 .73     -21    -62      8     66     67 198.7   6.9  33334  275.73 0865.17
2015 04 09 07 55 09 .99     -21    -65     13     69     71 198.5  11.1  33336  275.78 0865.17
2015 04 09 07 55 10 .23     -17    -65     -2     68     69 195.1  -2.2  33328  275.65 0865.17
2015 04 09 07 55 10 .48      -3    -74    -13     75     77 182.7 -10.3  33318  275.48 0865.17
2015 04 09 07 55 10 .74     -14    -81     -3     83     84 189.8  -2.6  33336  275.78 0865.17
2015 04 09 07 55 10 .99     -13    -80      1     82     83 189.8   1.2  33332  275.70 0865.17
2015 04 09 07 55 11 .23      -9    -87     -1     88     89 186.2  -1.3  33318  275.48 0865.17
2015 04 09 07 55 11 .49      -7    -91     -3     92     93 184.5  -2.2  33310  275.34 0865.17
2015 04 09 07 55 11 .74      -7    -98    -12     99    100 184.5  -7.3  33320  275.50 0865.17
2015 04 09 07 55 12 .02     -10   -107    -10    108    109 185.3  -5.6  33316  275.43 0865.16
2015 04 09 07 55 12 .24     -14   -102    -13    104    105 188.0  -7.2  33316  275.45 0865.16
2015 04 09 07 55 12 .49     -18   -103    -11    105    106 190.2  -6.2  33318  275.48 0865.16
2015 04 09 07 55 12 .75     -14   -102    -13    104    105 188.0  -7.2  33316  275.45 0865.16
2015 04 09 07 55 13 .00     -22   -109    -14    112    113 191.6  -7.2  33320  275.52 0865.16
2015 04 09 07 55 13 .25       0   -110     -5    111    112 180.0  -2.6  33322  275.53 0865.16
2015 04 09 07 55 13 .50      -1   -102      1    103    104 180.9   0.8  33322  275.55 0865.16
2015 04 09 07 55 13 .75     -15   -111    -14    113    114 188.0  -7.2  33324  275.57 0865.16
2015 04 09 07 55 14 .00      -8   -111      5    112    113 184.5   2.8  33326  275.60 0865.17
2015 04 09 07 55 14 .26     -14   -102     15    104    106 188.0   8.5  33326  275.60 0865.17
2015 04 09 07 55 14 .51     -21    -98     15    101    103 192.5   8.5  33328  275.65 0865.17
2015 04 09 07 55 14 .76     -32   -103     17    108    110 197.4   9.0  33330  275.68 0865.17
2015 04 09 07 55 15 .01     -16   -114     18    116    118 188.0   9.0  33328  275.65 0865.17
2015 04 09 07 55 15 .26     -22   -107     21    110    113 192.0  11.1  33332  275.72 0865.17
2015 04 09 07 55 15 .51     -30   -118     24    122    125 194.7  11.1  33336  275.77 0865.17
2015 04 09 07 55 15 .76     -17   -119      9    121    122 188.5   4.4  33332  275.70 0865.17
2015 04 09 07 55 16 .01     -22   -107     21    110    113 191.6  11.1  33334  275.73 0865.17
2015 04 09 07 55 16 .26     -28   -112     21    116    118 194.3  10.6  33336  275.78 0865.17
2015 04 09 07 55 16 .51     -34   -114     28    120    124 196.9  13.2  33338  275.82 0865.16
2015 04 09 07 55 16 .76     -19   -105     37    107    114 190.7  19.4  33340  275.83 0865.16
2015 04 09 07 55 17 .02     -27    -87     43     92    101 197.4  27.1  33342  275.86 0865.16
2015 04 09 07 55 17 .26     -14    -73     43     75     86 191.5  32.9  33348  275.96 0865.16
2015 04 09 07 55 17 .51     -12    -54     52     56     76 192.5  48.0  33350  276.01 0865.16
2015 04 09 07 55 17 .76      -7    -54     49     55     73 188.0  47.9  33366  276.28 0865.16
2015 04 09 07 55 18 .01      18    -69      8     72     73 164.9   6.9  33360  276.18 0865.16
2015 04 09 07 55 18 .27      -4    -91     -7     92     93 182.7  -4.6  33338  275.80 0865.16
2015 04 09 07 55 18 .51     -18   -104     -4    106    107 189.8  -2.2  33344  275.90 0865.16
2015 04 09 07 55 18 .77     -24   -108     16    111    113 192.9   8.5  33360  276.18 0865.16
2015 04 09 07 55 19 .01      -9    -98     17     99    101 185.8  10.1  33342  275.88 0865.16
2015 04 09 07 55 19 .26      -8   -103     13    104    105 184.9   7.5  33324  275.58 0865.16
2015 04 09 07 55 19 .52     -14   -101     22    103    106 188.0  12.2  33330  275.67 0865.16
2015 04 09 07 55 19 .78     -16    -98     20    100    103 189.3  11.6  33328  275.65 0865.16
2015 04 09 07 55 20 .03     -20   -107     21    109    112 190.7  11.1  33342  275.88 0865.16
2015 04 09 07 55 20 .28      -5   -110      9    111    112 182.7   4.9  33328  275.65 0865.16
2015 04 09 07 55 20 .53     -14   -103     13    105    106 188.0   7.1  33316  275.45 0865.16
2015 04 09 07 55 20 .79     -31    -94     25    100    104 198.5  14.3  33344  275.91 0865.16
2015 04 09 07 55 21 .03     -24    -99     11    102    103 193.8   6.5  33338  275.80 0865.16
2015 04 09 07 55 21 .29     -18   -109      9    111    112 189.8   4.9  33320  275.50 0865.16
2015 04 09 07 55 21 .53     -24   -114     17    117    119 192.0   8.5  33334  275.73 0865.16
2015 04 09 07 55 21 .78     -37   -112     18    118    120 198.3   9.0  33332  275.72 0865.16
2015 04 09 07 55 22 .04     -55   -113     33    126    131 205.9  14.7  33354  276.06 0865.16
2015 04 09 07 55 22 .28     -11   -104     33    105    111 186.2  17.3  33360  276.18 0865.16
2015 04 09 07 55 22 .53     -19   -112     45    114    122 189.8  22.5  33346  275.93 0865.16
2015 04 09 07 55 22 .78     -16   -113     27    115    119 188.0  13.2  33306  275.29 0865.16
2015 04 09 07 55 23 .04     -19   -106     22    108    111 190.2  11.6  33324  275.58 0865.16
2015 04 09 07 55 23 .28     -12   -108     30    109    114 186.7  15.3  33340  275.85 0865.16
2015 04 09 07 55 23 .54      -8   -114     14    115    116 184.4   7.1  33312  275.37 0865.16
2015 04 09 07 55 23 .79      -9   -118     11    119    120 184.4   5.4  33336  275.78 0865.16
2015 04 09 07 55 24 .04      -8   -122      6    123    124 184.0   2.9  33316  275.43 0865.16
2015 04 09 07 55 24 .29      -5   -125      9    126    127 182.7   4.4  33314  275.40 0865.16
2015 04 09 07 55 24 .54       0   -126     14    127    128 180.4   6.5  33310  275.35 0865.16
2015 04 09 07 55 24 .80      -5   -117     10    118    119 182.7   5.0  33316  275.45 0865.16
2015 04 09 07 55 25 .04      -2   -122     19    123    125 181.0   9.0  33322  275.55 0865.16
2015 04 09 07 55 25 .29      -7   -107     14    108    109 184.0   7.5  33310  275.35 0865.16
2015 04 09 07 55 25 .54     -11   -106     10    107    108 186.2   5.4  33302  275.20 0865.16
2015 04 09 07 55 25 .79     -14   -111     14    112    113 187.6   7.5  33304  275.25 0865.16
2015 04 09 07 55 26 .04      -8   -114     14    115    116 184.4   7.1  33322  275.55 0865.16
2015 04 09 07 55 26 .29     -21   -113      1    116    117 190.7   0.8  33308  275.30 0865.16
2015 04 09 07 55 26 .54      -8   -122      0    123    124 184.0   0.2  33302  275.22 0865.16
2015 04 09 07 55 26 .81      -1   -129      1    130    131 180.8   0.7  33316  275.43 0865.16
2015 04 09 07 55 27 .05      -8   -114      5    115    116 184.4   2.9  33324  275.58 0865.16
2015 04 09 07 55 27 .30       1   -126     -2    127    128 179.1  -1.3  33300  275.19 0865.16
2015 04 09 07 55 27 .55      -2   -122      6    123    124 181.0   2.8  33302  275.22 0865.16
2015 04 09 07 55 27 .80      -2   -122      6    123    124 181.0   2.8  33302  275.22 0865.16
2015 04 09 07 55 28 .06      -1   -117      1    118    119 180.9   0.7  33306  275.27 0865.16
2015 04 09 07 55 28 .31       0   -121      3    122    123 180.4   1.8  33306  275.29 0865.16
2015 04 09 07 55 28 .55       7   -110      3    111    112 176.0   1.8  33304  275.24 0865.16
2015 04 09 07 55 28 .81       1   -117     -2    118    119 179.1  -1.3  33304  275.24 0865.16
2015 04 09 07 55 29 .06       0   -113     -4    114    115 180.4  -2.2  33302  275.20 0865.16
2015 04 09 07 55 29 .31       1   -117     -2    118    119 179.1  -1.3  33304  275.24 0865.16
2015 04 09 07 55 29 .56       5   -113     -6    114    115 177.3  -3.1  33304  275.24 0865.16
2015 04 09 07 55 29 .81       8   -113     -7    114    115 175.6  -3.7  33302  275.22 0865.16
2015 04 09 07 55 30 .06      10   -109     -5    110    111 174.7  -2.6  33300  275.19 0865.16
2015 04 09 07 55 30 .31       9   -115     -2    116    117 175.5  -1.3  33306  275.29 0865.16
2015 04 09 07 55 30 .57       1   -117      3    118    119 179.1   1.8  33308  275.30 0865.16
2015 04 09 07 55 30 .82      -8   -107      7    108    109 184.4   3.8  33330  275.68 0865.16
2015 04 09 07 55 31 .07      22   -109     12    112    113 168.4   6.5  33354  276.08 0865.16
2015 04 09 07 55 31 .31      45    -88     24    100    103 152.8  13.7  33348  275.98 0865.16
2015 04 09 07 55 31 .56       9   -118      0    119    120 175.5   0.2  33314  275.40 0865.16
2015 04 09 07 55 31 .81       0   -113     -4    114    115 180.4  -2.2  33302  275.20 0865.16
2015 04 09 07 55 32 .07      -1   -117      1    118    119 180.9   0.7  33306  275.27 0865.16
2015 04 09 07 55 32 .32       4   -106      0    107    108 177.8   0.2  33302  275.20 0865.16
2015 04 09 07 55 32 .57       4   -106      0    107    108 177.8   0.2  33322  275.55 0865.16
2015 04 09 07 55 32 .81      10   -109     -5    110    111 174.7  -2.6  33300  275.19 0865.16
2015 04 09 07 55 33 .06       8   -113     -7    114    115 175.6  -3.7  33302  275.22 0865.16
2015 04 09 07 55 33 .32      10   -109     -5    110    111 174.7  -2.6  33300  275.19 0865.16
2015 04 09 07 55 33 .57       7   -103    -10    104    105 176.0  -5.6  33300  275.19 0865.16
2015 04 09 07 55 33 .83       7   -103     -4    104    105 176.0  -2.2  33304  275.25 0865.16
2015 04 09 07 55 34 .08       7   -103    -10    104    105 176.0  -5.6  33300  275.19 0865.16
2015 04 09 07 55 34 .33       1   -102     -2    103    104 179.1  -1.2  33302  275.22 0865.16
2015 04 09 07 55 34 .58       7    -99     -6    100    101 175.5  -3.7  33302  275.20 0865.16
2015 04 09 07 55 34 .83       0    -98     -3     99    100 180.4  -2.2  33302  275.20 0865.16
2015 04 09 07 55 35 .08       7    -95    -10     96     97 175.6  -6.2  33304  275.24 0865.16
2015 04 09 07 55 35 .33       3    -90    -11     91     92 177.8  -7.3  33302  275.20 0865.16
2015 04 09 07 55 35 .58       3    -90    -11     91     92 177.8  -7.3  33302  275.20 0865.16
2015 04 09 07 55 35 .83       3    -90    -11     91     92 177.8  -7.3  33302  275.20 0865.16
2015 04 09 07 55 36 .08       7    -95    -10     96     97 175.6  -6.2  33304  275.24 0865.16
2015 04 09 07 55 36 .33       0    -94     -4     95     96 180.5  -2.6  33304  275.24 0865.16
2015 04 09 07 55 36 .58       0    -94     -4     95     96 180.5  -2.6  33304  275.24 0865.16
2015 04 09 07 55 36 .83       0    -98     -3     99    100 180.4  -2.2  33302  275.20 0865.16
2015 04 09 07 55 37 .08       0    -98     -3     99    100 180.4  -2.2  33302  275.20 0865.16
2015 04 09 07 55 37 .34       0    -94     -4     95     96 180.5  -2.6  33304  275.24 0865.16
2015 04 09 07 55 37 .59       0    -94     -4     95     96 180.5  -2.6  33304  275.24 0865.16
2015 04 09 07 55 37 .84       0    -94     -4     95     96 180.5  -2.6  33304  275.24 0865.16
2015 04 09 07 55 38 .09       0    -98     -3     99    100 180.4  -2.2  33302  275.20 0865.16
2015 04 09 07 55 38 .34       0    -94     -4     95     96 180.5  -2.6  33304  275.24 0865.16
2015 04 09 07 55 38 .59       0    -98     -3     99    100 180.4  -2.2  33302  275.20 0865.16
2015 04 09 07 55 38 .84       6    -99     -5    100    101 176.4  -3.1  33304  275.24 0865.16
2015 04 09 07 55 39 .09       6    -99     -5    100    101 176.4  -3.1  33304  275.24 0865.16
2015 04 09 07 55 39 .34       0    -98     -3     99    100 180.4  -2.2  33302  275.20 0865.16
2015 04 09 07 55 39 .59       0    -98     -3     99    100 180.4  -2.2  33302  275.20 0865.16
2015 04 09 07 55 39 .84       0    -98     -3     99    100 180.4  -2.2  33302  275.20 0865.16
2015 04 09 07 55 40 .09       1   -102     -2    103    104 179.1  -1.2  33302  275.22 0865.16
2015 04 09 07 55 40 .34       6    -99      1    100    101 176.4   0.8  33304  275.25 0865.16
2015 04 09 07 55 40 .60       6    -99      1    100    101 176.4   0.8  33304  275.25 0865.16
2015 04 09 07 55 40 .85       2    -94      0     95     96 178.2  -0.3  33304  275.24 0865.16
2015 04 09 07 55 41 .10       5    -91      1     92     93 176.9   1.2  33302  275.20 0865.16
2015 04 09 07 55 41 .35       2    -94      0     95     96 178.2  -0.3  33304  275.24 0865.16
2015 04 09 07 55 41 .60       5    -91      1     92     93 176.9   1.2  33302  275.20 0865.16
2015 04 09 07 55 41 .85       2    -94      0     95     96 178.2  -0.3  33304  275.24 0865.16
2015 04 09 07 55 42 .11       2    -94      0     95     96 178.2  -0.3  33304  275.24 0865.16
2015 04 09 07 55 42 .36       7    -95     -3     96     97 175.5  -2.2  33304  275.25 0865.16
2015 04 09 07 55 42 .62       7    -95     -3     96     97 175.6  -2.2  33308  275.30 0865.16
2015 04 09 07 55 42 .86       7    -96     -3     97     98 175.6  -2.2  33342  275.86 0865.15
2015 04 09 07 55 43 .11      13    -99     11    100    101 172.0   6.5  33336  275.77 0865.15
2015 04 09 07 55 43 .36      10    -95      0     96     97 173.8   0.2  33304  275.25 0865.15
2015 04 09 07 55 43 .61       7    -99     -2    100    101 175.5  -1.3  33306  275.29 0865.15
2015 04 09 07 55 43 .86       5    -91      1     92     93 176.9   1.2  33302  275.20 0865.16
2015 04 09 07 55 44 .12       5    -90     -3     91     92 176.4  -2.2  33306  275.29 0865.16
2015 04 09 07 55 44 .36       3    -98      0     99    100 177.8   0.2  33338  275.80 0865.16
2015 04 09 07 55 44 .62       3    -90      7     91     92 177.8   4.9  33340  275.83 0865.16
2015 04 09 07 55 44 .86      19    -84      8     87     88 167.1   5.4  33324  275.58 0865.16
2015 04 09 07 55 45 .11       6    -79     -3     80     81 175.5  -2.2  33316  275.45 0865.16
2015 04 09 07 55 45 .37      -1    -64     -3     65     66 180.9  -3.1  33328  275.63 0865.16
2015 04 09 07 55 45 .62      -1    -70     25     71     76 180.9  19.4  33336  275.78 0865.16
2015 04 09 07 55 45 .86      13    -77     -3     79     80 170.2  -2.2  33326  275.60 0865.16
2015 04 09 07 55 46 .12      17    -86    -11     88     89 168.4  -7.3  33308  275.32 0865.16
2015 04 09 07 55 46 .37       7    -96     -3     97     98 175.6  -2.2  33320  275.50 0865.15
2015 04 09 07 55 46 .62       1    -96     -2     97     98 179.1  -1.3  33320  275.52 0865.15
2015 04 09 07 55 46 .87       1   -102     -2    103    104 179.1  -1.2  33320  275.52 0865.15
2015 04 09 07 55 47 .12     -13    -97     36     98    104 188.0  20.4  33346  275.93 0865.15
2015 04 09 07 55 47 .37      -6    -89     31     90     96 184.0  18.9  33356  276.10 0865.15
2015 04 09 07 55 47 .63      -1    -71      8     72     73 180.9   6.9  33328  275.63 0865.15
2015 04 09 07 55 47 .89      -9    -64     22     65     69 188.0  19.4  33326  275.60 0865.15
2015 04 09 07 55 48 .13       1    -65     -1     66     67 179.0  -1.2  33336  275.78 0865.15
2015 04 09 07 55 48 .39       9    -65     -9     66     67 171.9  -8.2  33340  275.85 0865.15
2015 04 09 07 55 48 .63       1    -71     -1     72     73 179.1  -1.3  33338  275.82 0865.15
2015 04 09 07 55 48 .88      22    -77     -5     81     82 164.0  -4.1  33320  275.50 0865.15
2015 04 09 07 55 49 .13      19    -73     -9     76     77 164.8  -7.2  33310  275.34 0865.15
2015 04 09 07 55 49 .38      15    -80     -5     82     83 169.3  -4.1  33302  275.20 0865.15
2015 04 09 07 55 49 .63      18    -73     -3     76     77 165.7  -2.2  33302  275.20 0865.15
2015 04 09 07 55 49 .89      15    -81     -1     83     84 169.3  -0.7  33318  275.48 0865.15
2015 04 09 07 55 50 .13      14    -81     -6     83     84 170.2  -4.1  33322  275.55 0865.15
2015 04 09 07 55 50 .39      13    -85     -8     87     88 171.1  -5.6  33330  275.68 0865.15
2015 04 09 07 55 50 .64      15    -88     -2     90     91 170.2  -1.3  33318  275.48 0865.15
2015 04 09 07 55 50 .89      18    -89     -3     91     92 168.4  -2.2  33326  275.60 0865.15
2015 04 09 07 55 51 .14      11    -72      8     73     74 171.1   6.9  33352  276.03 0865.15
2015 04 09 07 55 51 .39       6    -76      0     77     78 175.5  -0.3  33312  275.39 0865.15
2015 04 09 07 55 51 .65      16    -86     -4     88     89 169.3  -3.1  33320  275.50 0865.15
2015 04 09 07 55 51 .89      14    -90     -2     92     93 171.1  -1.8  33332  275.70 0865.15
2015 04 09 07 55 52 .14       8    -91     -6     92     93 174.7  -4.1  33308  275.30 0865.15
2015 04 09 07 55 52 .39       6    -87     -3     88     89 175.5  -2.2  33306  275.27 0865.15
2015 04 09 07 55 52 .65       7    -92     -1     93     94 175.1  -0.7  33304  275.24 0865.15
2015 04 09 07 55 52 .90      15    -96     -6     98     99 171.1  -3.7  33308  275.30 0865.15
2015 04 09 07 55 53 .15      13    -85     -8     87     88 171.1  -5.6  33322  275.53 0865.15
2015 04 09 07 55 53 .39       9    -80     -3     81     82 173.3  -2.2  33304  275.24 0865.15
2015 04 09 07 55 53 .64       4    -83     -4     84     85 176.9  -3.1  33304  275.24 0865.15
2015 04 09 07 55 53 .89       6    -78     -3     79     80 175.5  -2.2  33304  275.25 0865.15
2015 04 09 07 55 54 .14      13    -77     -3     79     80 170.2  -2.2  33302  275.20 0865.15
2015 04 09 07 55 54 .39       7    -83     -6     84     85 174.7  -4.6  33302  275.22 0865.15
2015 04 09 07 55 54 .66       9    -80    -10     81     82 173.3  -7.3  33304  275.25 0865.15
2015 04 09 07 55 54 .91       3    -80     -5     81     82 177.8  -4.1  33304  275.25 0865.15
2015 04 09 07 55 55 .16       3    -80     -5     81     82 177.8  -4.1  33304  275.25 0865.15
2015 04 09 07 55 55 .42       5    -72     -2     73     74 175.5  -2.2  33326  275.60 0865.15
2015 04 09 07 55 55 .66       6    -76     -1     77     78 175.5  -1.2  33336  275.78 0865.15
2015 04 09 07 55 55 .91      -5    -71      3     72     73 184.4   2.9  33352  276.03 0865.15
2015 04 09 07 55 56 .17      -5    -70     -1     71     72 184.4  -1.2  33358  276.15 0865.15
2015 04 09 07 55 56 .41      -5    -71     -2     72     73 184.4  -2.2  33350  276.01 0865.15
2015 04 09 07 55 56 .66      -1    -60     16     61     64 181.8  15.3  33366  276.28 0865.15
2015 04 09 07 55 56 .92      -2    -64     17     65     68 181.8  15.2  33372  276.36 0865.15
2015 04 09 07 55 57 .16       2    -65     29     66     72 178.2  25.1  33372  276.38 0865.15
2015 04 09 07 55 57 .42       5    -68     23     69     74 175.5  18.9  33358  276.13 0865.15
2015 04 09 07 55 57 .66      10    -89     24     90     94 173.3  15.3  33372  276.38 0865.15
2015 04 09 07 55 57 .92       5    -81     16     82     84 176.0  11.6  33370  276.34 0865.15
2015 04 09 07 55 58 .17      17    -78     26     80     85 167.5  17.9  33384  276.58 0865.15
2015 04 09 07 55 58 .42      14    -69     12     71     73 168.5  10.1  33380  276.51 0865.15
2015 04 09 07 55 58 .67       2    -64     14     65     67 178.2  12.2  33372  276.38 0865.15
2015 04 09 07 55 58 .92       0    -57     17     58     61 180.9  16.3  33378  276.46 0865.15
2015 04 09 07 55 59 .17       9    -66     30     67     73 171.9  26.2  33378  276.46 0865.15
2015 04 09 07 55 59 .42       4    -58     26     59     64 175.5  24.1  33380  276.51 0865.15
2015 04 09 07 55 59 .67       0    -58     41     59     71 179.1  38.6  33388  276.64 0865.15
2015 04 09 07 55 59 .92       2    -51     28     52     59 177.3  31.3  33384  276.58 0865.15
2015 04 09 07 56 00 .17       0    -45     26     46     52 180.9  32.4  33378  276.46 0865.15
2015 04 09 07 56 00 .42       7    -50     19     51     54 172.0  20.0  33376  276.43 0865.15
2015 04 09 07 56 00 .67      -4    -53      0     54     55 184.4  -0.3  33376  276.43 0865.15
2015 04 09 07 56 00 .92      15    -57      7     60     61 164.9   7.1  33368  276.31 0865.15
2015 04 09 07 56 01 .18      22    -77      5     81     82 164.0   3.8  33362  276.20 0865.15
2015 04 09 07 56 01 .42      24    -67     16     72     74 160.0  13.2  33362  276.20 0865.15
2015 04 09 07 56 01 .68      22    -77      0     81     82 164.0  -0.3  33306  275.29 0865.15
2015 04 09 07 56 01 .93      15    -77     -3     79     80 168.4  -2.6  33304  275.24 0865.15
2015 04 09 07 56 02 .18      15    -77     -3     79     80 168.4  -2.6  33304  275.24 0865.15
2015 04 09 07 56 02 .43      25    -75    -14     80     82 161.3 -10.3  33306  275.29 0865.15
2015 04 09 07 56 02 .68      23    -76    -13     80     82 163.1  -9.8  33306  275.29 0865.15
2015 04 09 07 56 02 .94      17    -77    -12     79     80 167.5  -8.8  33308  275.30 0865.15
2015 04 09 07 56 03 .19      17    -93     -3     95     96 169.3  -2.2  33322  275.53 0865.15
2015 04 09 07 56 03 .44      15    -96     -5     98     99 171.1  -3.1  33322  275.55 0865.15
2015 04 09 07 56 03 .69      15    -96    -13     98     99 171.1  -7.7  33306  275.29 0865.15
2015 04 09 07 56 03 .94       8    -91     -6     92     93 174.7  -4.1  33312  275.37 0865.15
2015 04 09 07 56 04 .19      14    -91     -9     93     94 171.1  -5.6  33310  275.34 0865.15
2015 04 09 07 56 04 .44      15    -87    -12     89     90 170.2  -7.7  33306  275.29 0865.15
2015 04 09 07 56 04 .69      19    -70    -23     73     77 164.8 -17.6  33306  275.29 0865.15
2015 04 09 07 56 04 .94       8    -69     -6     70     71 172.9  -5.2  33356  276.11 0865.15
2015 04 09 07 56 05 .19      -1    -66      0     67     68 180.9  -0.3  33372  276.38 0865.15
2015 04 09 07 56 05 .44       7    -62      6     63     64 172.9   5.9  33374  276.39 0865.15
2015 04 09 07 56 05 .69      13    -63     26     65     70 168.4  23.0  33356  276.11 0865.15
2015 04 09 07 56 05 .94       8    -62     27     63     68 172.0  24.1  33360  276.18 0865.15
2015 04 09 07 56 06 .20      -7    -68     23     69     74 186.2  18.9  33370  276.33 0865.15
2015 04 09 07 56 06 .44      -3    -67      8     68     69 182.7   6.9  33374  276.41 0865.15
2015 04 09 07 56 06 .69      14    -42     22     45     50 160.8  27.3  33362  276.21 0865.15
2015 04 09 07 56 06 .94      15    -57     16     60     63 164.9  15.3  33366  276.26 0865.15
2015 04 09 07 56 07 .20      16    -39     17     43     46 157.3  22.0  33368  276.30 0865.15
2015 04 09 07 56 07 .45       7    -36     19     37     41 168.4  29.3  33372  276.38 0865.15
2015 04 09 07 56 07 .70      14    -42     41     45     60 161.5  47.9  33370  276.33 0865.15
2015 04 09 07 56 07 .95      16    -48     23     51     55 160.8  26.2  33370  276.33 0865.15
2015 04 09 07 56 08 .20      -2    -37     48     38     61 184.5  56.4  33380  276.51 0865.15
2015 04 09 07 56 08 .46       2    -34     48     35     59 175.6  60.5  33386  276.61 0865.16
2015 04 09 07 56 08 .71      14    -55     26     57     62 165.7  26.2  33374  276.41 0865.16
2015 04 09 07 56 08 .96       3    -45     11     46     48 175.5  14.3  33366  276.28 0865.16
2015 04 09 07 56 09 .21       3    -49      7     50     51 176.4   8.0  33372  276.36 0865.16
2015 04 09 07 56 09 .46      -9    -48      7     49     50 190.7   9.0  33370  276.34 0865.16
2015 04 09 07 56 09 .71       4    -30     17     31     35 172.0  33.5  33374  276.41 0865.16
2015 04 09 07 56 09 .96       6    -20     20     21     29 163.1  52.0  33378  276.48 0865.16
2015 04 09 07 56 10 .21       7    -35     20     36     41 168.4  31.4  33376  276.43 0865.16
2015 04 09 07 56 10 .46       8    -47     16     48     51 169.3  18.4  33372  276.38 0865.16
2015 04 09 07 56 10 .71      14    -42     15     45     48 160.8  19.2  33370  276.33 0865.16
2015 04 09 07 56 10 .96       9    -39     15     41     43 166.6  20.0  33372  276.38 0865.16
2015 04 09 07 56 11 .21      11    -50     17     52     55 167.5  18.9  33366  276.26 0865.16
2015 04 09 07 56 11 .47      14    -55     13     57     59 165.7  13.2  33372  276.36 0865.16
2015 04 09 07 56 11 .72       4    -53      2     54     55 175.5   2.9  33350  276.00 0865.16
2015 04 09 07 56 11 .96       0    -60      4     61     62 180.0   3.8  33330  275.68 0865.16
2015 04 09 07 56 12 .21       4    -60     -3     61     62 175.5  -3.1  33306  275.29 0865.16
2015 04 09 07 56 12 .46       0    -60     -8     61     62 180.0  -8.2  33304  275.24 0865.16
2015 04 09 07 56 12 .72      -1    -64    -10     65     66 180.9  -9.3  33304  275.25 0865.16
2015 04 09 07 56 12 .97       0    -68     -8     69     70 180.0  -7.3  33306  275.29 0865.15
2015 04 09 07 56 13 .22      -3    -66    -13     67     69 182.7 -11.3  33304  275.24 0865.15
2015 04 09 07 56 13 .47      -1    -64    -10     65     66 180.9  -9.3  33304  275.25 0865.15
2015 04 09 07 56 13 .72       0    -68     -8     69     70 180.0  -7.3  33306  275.29 0865.15
2015 04 09 07 56 13 .97       0    -68     -8     69     70 180.0  -7.3  33306  275.29 0865.15
2015 04 09 07 56 14 .22       0    -68     -8     69     70 180.0  -7.3  33306  275.29 0865.15
2015 04 09 07 56 14 .47      -1    -64    -10     65     66 180.9  -9.3  33304  275.25 0865.15
2015 04 09 07 56 14 .72       4    -66    -18     67     70 176.4 -15.4  33304  275.24 0865.15
2015 04 09 07 56 14 .97       8    -75    -21     76     79 173.8 -15.5  33308  275.32 0865.16
2015 04 09 07 56 15 .23       8    -75    -21     76     79 173.8 -15.5  33308  275.32 0865.16
2015 04 09 07 56 15 .48      -5    -75      2     76     77 184.5   1.8  33354  276.06 0865.16
2015 04 09 07 56 15 .73       5    -71    -14     72     74 175.5 -11.3  33306  275.27 0865.16
2015 04 09 07 56 15 .98       2    -72     -6     73     74 178.2  -5.2  33304  275.25 0865.16
2015 04 09 07 56 16 .23       2    -72     -6     73     74 178.2  -5.2  33304  275.25 0865.16
2015 04 09 07 56 16 .48       1    -70    -13     71     73 179.1 -10.3  33306  275.29 0865.16
2015 04 09 07 56 16 .74       5    -69    -10     70     71 175.6  -8.2  33308  275.30 0865.16
2015 04 09 07 56 16 .99       7    -68    -12     69     71 173.8 -10.3  33306  275.29 0865.16
2015 04 09 07 56 17 .24       7    -68    -12     69     71 173.8 -10.3  33306  275.29 0865.16
2015 04 09 07 56 17 .49       5    -69    -10     70     71 175.6  -8.2  33308  275.30 0865.16
2015 04 09 07 56 17 .74       5    -69    -10     70     71 175.6  -8.2  33308  275.30 0865.16
2015 04 09 07 56 17 .99       5    -69    -10     70     71 175.6  -8.2  33308  275.30 0865.16
2015 04 09 07 56 18 .24       5    -69    -10     70     71 175.6  -8.2  33308  275.30 0865.16
2015 04 09 07 56 18 .49       5    -69    -10     70     71 175.6  -8.2  33308  275.30 0865.16
2015 04 09 07 56 18 .74       7    -68    -12     69     71 173.8 -10.3  33306  275.29 0865.16
2015 04 09 07 56 18 .99       7    -68    -12     69     71 173.8 -10.3  33306  275.29 0865.16
2015 04 09 07 56 19 .24       7    -68    -12     69     71 173.8 -10.3  33306  275.29 0865.16
2015 04 09 07 56 19 .49       7    -68    -12     69     71 173.8 -10.3  33306  275.29 0865.15
2015 04 09 07 56 19 .74       7    -68    -12     69     71 173.8 -10.3  33306  275.29 0865.15
2015 04 09 07 56 19 .99       5    -64     -8     65     66 175.5  -7.2  33306  275.29 0865.15
2015 04 09 07 56 20 .24       9    -65     -9     66     67 171.9  -8.2  33304  275.25 0865.15
2015 04 09 07 56 20 .49       8    -69     -6     70     71 172.9  -5.2  33304  275.25 0865.15
2015 04 09 07 56 20 .74       8    -69     -6     70     71 172.9  -5.2  33304  275.25 0865.15
2015 04 09 07 56 21 .00       9    -68     -1     69     70 172.0  -1.2  33306  275.29 0865.15
2015 04 09 07 56 21 .25       8    -69     -6     70     71 172.9  -5.2  33304  275.25 0865.15
2015 04 09 07 56 21 .50       5    -69     -3     70     71 175.6  -3.1  33304  275.24 0865.15
2015 04 09 07 56 21 .75       5    -69    -10     70     71 175.6  -8.2  33308  275.30 0865.15
2015 04 09 07 56 22 .00       5    -73     -9     74     75 175.5  -7.2  33306  275.29 0865.15
2015 04 09 07 56 22 .25       5    -69     -2     70     71 175.6  -2.2  33316  275.43 0865.15
2015 04 09 07 56 22 .52       5    -72     -9     73     74 175.5  -7.2  33312  275.39 0865.15
2015 04 09 07 56 22 .77      15    -81    -12     83     84 169.3  -8.2  33330  275.68 0865.15
2015 04 09 07 56 23 .01       4    -67     -3     68     69 176.4  -3.1  33348  275.98 0865.15
2015 04 09 07 56 23 .26      -6    -61     11     62     63 186.2  10.1  33358  276.13 0865.15
2015 04 09 07 56 23 .51      -8    -57      7     58     59 188.9   6.9  33360  276.16 0865.15
2015 04 09 07 56 23 .77       0    -43      5     44     45 180.9   6.9  33358  276.13 0865.15
2015 04 09 07 56 24 .01       0    -53     13     54     56 179.1  14.3  33356  276.11 0865.15
2015 04 09 07 56 24 .27      12    -63     -3     65     66 169.3  -3.1  33310  275.34 0865.15
2015 04 09 07 56 24 .52      13    -54     -2     56     57 165.7  -2.2  33326  275.60 0865.15
2015 04 09 07 56 24 .76       5    -50      4     51     52 173.8   4.9  33336  275.77 0865.15
2015 04 09 07 56 25 .02       6    -48     12     49     51 172.9  14.3  33328  275.65 0865.15
2015 04 09 07 56 25 .27      26    -46     26     54     59 150.1  27.3  33362  276.21 0865.15
2015 04 09 07 56 25 .52      24    -50     30     56     63 154.5  31.3  33364  276.25 0865.15
2015 04 09 07 56 25 .77      22    -47      7     53     54 154.6   8.0  33358  276.15 0865.15
2015 04 09 07 56 26 .02      10    -48     -2     50     51 167.5  -3.1  33342  275.88 0865.15
2015 04 09 07 56 26 .27      14    -46      5     49     50 162.2   5.9  33342  275.88 0865.15
2015 04 09 07 56 26 .52      10    -48     -2     50     51 167.5  -3.1  33322  275.53 0865.15
2015 04 09 07 56 26 .77      10    -50     -9     52     53 168.5 -10.3  33304  275.25 0865.16
2015 04 09 07 56 27 .02      10    -50     -9     52     53 168.5 -10.3  33304  275.25 0865.16
2015 04 09 07 56 27 .27      15    -48    -11     51     53 162.2 -12.4  33306  275.29 0865.16
2015 04 09 07 56 27 .52       7    -46     -5     47     48 170.2  -6.2  33308  275.30 0865.16
2015 04 09 07 56 27 .77       7    -46     -5     47     48 170.2  -6.2  33308  275.30 0865.16
2015 04 09 07 56 28 .02      10    -50     -9     52     53 168.5 -10.3  33304  275.25 0865.16
2015 04 09 07 56 28 .28      11    -58     -3     60     61 168.5  -3.1  33366  276.28 0865.16
2015 04 09 07 56 28 .52       4    -53     -3     54     55 175.5  -3.1  33358  276.13 0865.16
2015 04 09 07 56 28 .77      15    -46      4     49     50 161.7   4.9  33352  276.05 0865.16
2015 04 09 07 56 29 .03      31    -39      2     50     51 141.3   2.9  33334  275.75 0865.16
2015 04 09 07 56 29 .28      14    -55     19     57     61 164.9  18.9  33348  275.98 0865.16
2015 04 09 07 56 29 .53      10    -54     15     55     58 169.3  15.3  33348  275.98 0865.16
2015 04 09 07 56 29 .79       4    -44      2     45     46 173.8   2.9  33342  275.86 0865.16
2015 04 09 07 56 30 .04       6    -57     -2     58     59 173.8  -2.2  33308  275.30 0865.16
2015 04 09 07 56 30 .28       6    -57     -2     58     59 173.8  -2.2  33306  275.27 0865.16
2015 04 09 07 56 30 .54       6    -57     -2     58     59 173.8  -2.2  33306  275.27 0865.16
2015 04 09 07 56 30 .79       4    -53      2     54     55 175.6   2.8  33308  275.32 0865.16
2015 04 09 07 56 31 .04      10    -54      0     55     56 169.3   0.8  33306  275.29 0865.16
2015 04 09 07 56 31 .29      10    -54      0     55     56 169.3   0.8  33306  275.29 0865.16
2015 04 09 07 56 31 .54       8    -46      0     47     48 169.3   0.8  33306  275.29 0865.16
2015 04 09 07 56 31 .79      10    -50      2     52     53 168.4   2.8  33304  275.25 0865.16
2015 04 09 07 56 32 .04       3    -49     -5     50     51 176.4  -6.2  33304  275.25 0865.16
2015 04 09 07 56 32 .29      10    -54      0     55     56 169.3   0.8  33306  275.29 0865.16
2015 04 09 07 56 32 .54       7    -46     -5     47     48 170.2  -6.2  33308  275.30 0865.16
2015 04 09 07 56 32 .79       4    -53     -8     54     55 175.5  -9.3  33308  275.30 0865.16
2015 04 09 07 56 33 .04       4    -53     -8     54     55 175.5  -9.3  33308  275.30 0865.15
2015 04 09 07 56 33 .29       7    -53     -9     54     55 172.0 -10.3  33308  275.32 0865.15
2015 04 09 07 56 33 .55      13    -52    -15     54     57 165.7 -15.5  33334  275.75 0865.15
2015 04 09 07 56 33 .80       6    -49    -17     50     52 172.9 -23.6  33342  275.88 0865.15
2015 04 09 07 56 34 .05      15    -45    -17     48     51 160.8 -19.7  33316  275.43 0865.15
2015 04 09 07 56 34 .29      14    -43    -16     46     48 161.7 -23.3  33310  275.35 0865.15
2015 04 09 07 56 34 .55      15    -47    -14     50     51 161.7 -20.7  33312  275.39 0865.15
2015 04 09 07 56 34 .80      14    -46    -17     49     51 163.1 -23.3  33310  275.34 0865.15
2015 04 09 07 56 35 .05      16    -40    -14     44     46 158.2 -23.8  33310  275.34 0865.15
2015 04 09 07 56 35 .30      16    -40    -14     44     46 158.2 -23.8  33310  275.34 0865.15
2015 04 09 07 56 35 .55      14    -43    -16     46     48 161.7 -23.3  33310  275.35 0865.15
2015 04 09 07 56 35 .80      22    -41    -16     47     49 151.0 -23.6  33312  275.37 0865.15
2015 04 09 07 56 36 .05      19    -44    -18     49     52 156.4 -24.4  33312  275.39 0865.15
2015 04 09 07 56 36 .31      17    -44    -17     48     50 158.2 -23.3  33312  275.37 0865.15
2015 04 09 07 56 36 .56      14    -43    -16     46     48 161.7 -23.3  33310  275.35 0865.15
2015 04 09 07 56 36 .81      16    -40    -14     44     46 158.2 -23.8  33310  275.34 0865.15
2015 04 09 07 56 37 .06      13    -40    -17     43     46 161.5 -26.4  33312  275.39 0865.15
2015 04 09 07 56 37 .31      14    -37    -22     40     45 158.2 -36.8  33312  275.39 0865.15
2015 04 09 07 56 37 .56      18    -31    -20     37     42 149.3 -34.7  33314  275.40 0865.15
2015 04 09 07 56 37 .81      20    -36    -24     42     48 150.1 -37.9  33310  275.35 0865.15
2015 04 09 07 56 38 .07      14    -37    -22     40     45 158.2 -36.8  33312  275.39 0865.15
2015 04 09 07 56 38 .31      21    -32    -22     39     44 147.4 -36.8  33316  275.43 0865.15
2015 04 09 07 56 38 .56      20    -28    -18     35     39 143.9 -31.7  33312  275.39 0865.15
2015 04 09 07 56 38 .82      16    -28    -16     33     36 149.3 -31.6  33314  275.40 0865.15
2015 04 09 07 56 39 .07      10    -29    -14     31     34 160.0 -29.5  33314  275.42 0865.15
2015 04 09 07 56 39 .32       7    -33    -22     34     40 166.6 -40.9  33312  275.39 0865.15
2015 04 09 07 56 39 .57      -1    -31    -24     32     40 182.6 -45.1  33316  275.45 0865.15
2015 04 09 07 56 39 .82       7    -33    -22     34     40 166.6 -40.9  33312  275.39 0865.15
2015 04 09 07 56 40 .07       3    -31    -20     32     37 173.8 -39.9  33314  275.40 0865.15
2015 04 09 07 56 40 .32       3    -31    -20     32     37 173.8 -39.9  33314  275.40 0865.14
2015 04 09 07 56 40 .58      16    -27    -22     32     38 149.3 -42.0  33316  275.43 0865.14
2015 04 09 07 56 40 .82      16    -28    -16     33     36 149.3 -31.6  33314  275.40 0865.14
2015 04 09 07 56 41 .07       8    -23    -22     25     33 160.0 -50.2  33316  275.43 0865.14
2015 04 09 07 56 41 .32      17    -17    -20     25     32 135.0 -48.1  33320  275.50 0865.14
2015 04 09 07 56 41 .57      17    -17    -20     25     32 135.0 -48.1  33320  275.50 0865.14
2015 04 09 07 56 41 .82      17    -17    -20     25     32 135.0 -48.1  33320  275.50 0865.14
2015 04 09 07 56 42 .07      17    -17    -20     25     32 135.0 -48.1  33316  275.45 0865.14
2015 04 09 07 56 42 .33      15    -13    -23     20     30 131.3 -60.7  33322  275.53 0865.14
2015 04 09 07 56 42 .58       7    -17    -16     19     24 158.2 -50.2  33326  275.60 0865.14
2015 04 09 07 56 42 .83      12    -16    -24     21     31 142.2 -58.7  33328  275.65 0865.14
2015 04 09 07 56 43 .07      10    -20    -20     23     30 152.8 -48.2  33322  275.55 0865.14
2015 04 09 07 56 43 .34      12    -16    -18     21     27 143.9 -50.2  33318  275.48 0865.14
2015 04 09 07 56 43 .59       7    -17    -16     19     24 158.2 -50.2  33320  275.50 0865.14
2015 04 09 07 56 43 .84      13     -8    -17     16     23 122.5 -54.5  33322  275.53 0865.14
2015 04 09 07 56 44 .09      13     -8    -18     16     24 122.4 -54.5  33328  275.63 0865.14
2015 04 09 07 56 44 .34       7    -11    -17     14     22 147.5 -60.8  33336  275.78 0865.14
2015 04 09 07 56 44 .59       7     -3    -12      8     14 115.3 -64.9  33338  275.82 0865.14
2015 04 09 07 56 44 .84       2     -3     -9      4      9 147.5 -85.6  33330  275.68 0865.14
2015 04 09 07 56 45 .09      -1     -8    -11      9     14 189.7 -56.6  33332  275.70 0865.14
2015 04 09 07 56 45 .34       4     -7     -7      9     11 147.5 -48.1  33328  275.65 0865.14
2015 04 09 07 56 45 .59       8      0    -10      9     13  94.4 -52.6  33322  275.53 0865.14
2015 04 09 07 56 45 .84      15     -9     -5     18     18 122.4 -23.8  33322  275.53 0865.14
2015 04 09 07 56 46 .09      11     -5     -8     13     15 115.3 -39.9  33324  275.57 0865.14
2015 04 09 07 56 46 .34      13    -12     -7     18     19 133.3 -23.3  33322  275.55 0865.14
2015 04 09 07 56 46 .59       6     -5     -5      8      9 129.5 -39.9  33322  275.53 0865.14
2015 04 09 07 56 46 .84      13     -8     -6     16     17 122.4 -23.3  33318  275.48 0865.14
2015 04 09 07 56 47 .10      10     -5      0     12     13 115.3  -2.2  33318  275.48 0865.14
2015 04 09 07 56 47 .34      13     -8     -6     16     17 122.4 -23.3  33318  275.48 0865.14
2015 04 09 07 56 47 .60      17     -7     -8     19     20 111.7 -27.4  33318  275.47 0865.14
2015 04 09 07 56 47 .85      17     -3      0     18     19 101.5   2.8  33314  275.40 0865.14
2015 04 09 07 56 48 .10      25     -8      0     27     28 108.6  -1.3  33314  275.40 0865.14
2015 04 09 07 56 48 .35      22     -3      4     23     24  99.7  11.1  33314  275.40 0865.14
2015 04 09 07 56 48 .60      15     -1      5     16     17  94.3  19.4  33314  275.40 0865.14
2015 04 09 07 56 48 .85      15      0      5     16     18  90.0  19.4  33310  275.35 0865.14
2015 04 09 07 56 49 .10      23     -4      5     24     25  99.7  13.2  33314  275.40 0865.14
2015 04 09 07 56 49 .35      21     -7      2     23     24 108.2   4.9  33316  275.43 0865.14
2015 04 09 07 56 49 .60      23     -4      4     24     25 101.5  11.1  33316  275.45 0865.14
2015 04 09 07 56 49 .85      24      0      8     25     27  90.8  19.4  33318  275.48 0865.14
2015 04 09 07 56 50 .10      24      0      8     25     27  90.8  19.4  33318  275.48 0865.14
2015 04 09 07 56 50 .36      22     -1      9     23     24  94.4  21.0  33322  275.55 0865.14
2015 04 09 07 56 50 .61      18     -4      6     19     21 103.3  19.2  33322  275.53 0865.14
2015 04 09 07 56 50 .86      22      4      9     23     24  78.5  21.0  33322  275.55 0865.14
2015 04 09 07 56 51 .11      24      0     11     25     27  89.2  25.1  33322  275.53 0865.14
2015 04 09 07 56 51 .36      19      1      7     20     22  85.6  19.2  33322  275.53 0865.14
2015 04 09 07 56 51 .61      22      0      9     23     24  90.8  21.0  33320  275.50 0865.14
2015 04 09 07 56 51 .87      18     -3      7     19     20 101.5  21.0  33324  275.58 0865.14
2015 04 09 07 56 52 .12      12      0      7     13     14  94.4  35.5  33324  275.58 0865.14
2015 04 09 07 56 52 .37      14      1      9     15     17  85.7  35.5  33326  275.62 0865.14
2015 04 09 07 56 52 .62      13      0      7     14     15  90.8  27.2  33328  275.63 0865.14
2015 04 09 07 56 52 .87      13     -4      0     14     15 108.4   2.9  33324  275.58 0865.14
2015 04 09 07 56 53 .12      13      0      7     14     15  90.8  27.2  33322  275.53 0865.14
2015 04 09 07 56 53 .37      17      0     11     18     21  90.0  33.5  33322  275.53 0865.14
2015 04 09 07 56 53 .62      13      0      7     14     15  90.8  27.2  33318  275.48 0865.14
2015 04 09 07 56 53 .88      10     -5      4     12     13 115.3  18.9  33324  275.57 0865.14
2015 04 09 07 56 54 .12      10     -3     11     11     15 108.4  50.1  33328  275.63 0865.14
2015 04 09 07 56 54 .37      14     -4     15     15     21 108.4  50.1  33330  275.68 0865.14
2015 04 09 07 56 54 .62      13     -8     13     16     20 122.4  43.7  33326  275.62 0865.14
2015 04 09 07 56 54 .87       8      0     15      9     17  94.4  64.7  33328  275.63 0865.14
2015 04 09 07 56 55 .12      10     -3     11     11     15 108.4  50.1  33334  275.73 0865.14
2015 04 09 07 56 55 .37      16     -1     10     17     19  94.3  35.5  33330  275.68 0865.14
2015 04 09 07 56 55 .63      15     -1     11     16     19  94.3  35.6  33328  275.63 0865.14
2015 04 09 07 56 55 .87      16     -1     17     17     24  94.3  50.1  33328  275.65 0865.14
2015 04 09 07 56 56 .13      16     -1     17     17     24  94.3  50.1  33338  275.82 0865.14
2015 04 09 07 56 56 .38      15     -2     16     16     22  97.9  50.1  33344  275.91 0865.14
2015 04 09 07 56 56 .63      13      0     19     14     23  90.8  58.5  33342  275.88 0865.14
2015 04 09 07 56 56 .88       8      0     22      9     23  94.4  79.2  33366  276.26 0865.14
2015 04 09 07 56 57 .14       8      0     22      9     23  94.4  79.2  33348  275.96 0865.14
2015 04 09 07 56 57 .39      15     -4     16     16     22 105.1  50.1  33346  275.93 0865.14
2015 04 09 07 56 57 .64      13     -8     20     16     25 122.4  56.4  33348  275.98 0865.14
2015 04 09 07 56 57 .89      13     -8     20     16     25 122.4  56.4  33348  275.98 0865.14
2015 04 09 07 56 58 .14      18    -10     17     21     27 118.9  43.7  33340  275.85 0865.14
2015 04 09 07 56 58 .39      14     -4     22     15     26 108.4  64.6  33344  275.91 0865.14
2015 04 09 07 56 58 .64      15     -9     19     18     26 122.4  50.1  33340  275.83 0865.14
2015 04 09 07 56 58 .89      10     -5     17     12     20 115.3  60.5  33344  275.91 0865.14
2015 04 09 07 56 59 .14       4     -7     17      9     19 147.5  68.8  33356  276.11 0865.14
2015 04 09 07 56 59 .39       2     -4     16      5     16 147.5  80.7  33364  276.23 0865.14
2015 04 09 07 56 59 .64       6     -5     19      8     20 129.5  77.1  33358  276.13 0865.14
2015 04 09 07 56 59 .90       2     -4     16      5     16 147.5  80.7  33364  276.23 0865.14
2015 04 09 07 57 00 .15       0      0     14      1     14 189.7  90.0  33380  276.49 0865.14
2015 04 09 07 57 00 .40       0     -3     18      4     18 184.5  84.9  33392  276.71 0865.14
2015 04 09 07 57 00 .65       0      1     18      2     18 341.5  90.0  33396  276.76 0865.14
2015 04 09 07 57 00 .89      -5      1     13      6     14 288.4  77.1  33392  276.71 0865.14
2015 04 09 07 57 01 .15       0      1     17      2     17 350.3  90.0  33366  276.26 0865.14
2015 04 09 07 57 01 .40       2      1     16      3     16  57.6  90.0  33360  276.18 0865.14
2015 04 09 07 57 01 .65      10      9     18     14     22  46.9  56.4  33356  276.11 0865.14
2015 04 09 07 57 01 .90      10      7     11     13     17  54.0  47.9  33346  275.93 0865.14
2015 04 09 07 57 02 .15      10      7     11     13     17  54.0  47.9  33334  275.73 0865.14
2015 04 09 07 57 02 .40      18     12     11     22     24  55.8  27.2  33340  275.83 0865.14
2015 04 09 07 57 02 .65      10      9     11     14     17  46.9  43.7  33334  275.73 0865.14
2015 04 09 07 57 02 .90      13     14     14     20     24  43.4  39.7  33346  275.95 0865.14
2015 04 09 07 57 03 .15      10      9     11     14     17  46.9  43.7  33346  275.93 0865.15
2015 04 09 07 57 03 .41      10      9     11     14     17  46.9  43.7  33352  276.03 0865.15
2015 04 09 07 57 03 .66       4      5     11      7     13  43.4  64.7  33370  276.33 0865.15
2015 04 09 07 57 03 .90       0      1     12      2     12 350.3  90.0  33370  276.33 0865.15
2015 04 09 07 57 04 .17       0      1     18      2     18 341.5  90.0  33380  276.51 0865.15
2015 04 09 07 57 04 .42      -6      0     18      7     19 270.0  81.2  33390  276.66 0865.15
2015 04 09 07 57 04 .66       0      0     13      1     13 189.7  90.0  33372  276.36 0865.15
2015 04 09 07 57 04 .91       4      0     11      5     12 101.5  72.9  33340  275.83 0865.15
2015 04 09 07 57 05 .17       6      1      7      7      9  78.5  50.1  33324  275.58 0865.15
2015 04 09 07 57 05 .42       7      0      1      8      9  94.4  11.1  33324  275.58 0865.15
2015 04 09 07 57 05 .67      11      0      4     12     13  89.2  18.9  33326  275.60 0865.15
2015 04 09 07 57 05 .92       9      0      6     10     11  89.2  35.5  33332  275.70 0865.15
2015 04 09 07 57 06 .17       0      0      7      1      7 135.0  90.0  33334  275.73 0865.15
2015 04 09 07 57 06 .42       2      1      3      3      4  57.6  50.1  33340  275.83 0865.15
2015 04 09 07 57 06 .67       4      0      5      5      7 101.5  50.1  33344  275.91 0865.15
2015 04 09 07 57 06 .92       4      0      5      5      7  90.0  50.1  33348  275.96 0865.15
2015 04 09 07 57 07 .18       2     -3      2      4      4 147.5  35.5  33358  276.13 0865.15
2015 04 09 07 57 07 .42      -1      0      9      2      9 251.6  89.0  33356  276.10 0865.15
2015 04 09 07 57 07 .67      -2     -7      9      8     12 198.5  52.2  33368  276.31 0865.15
2015 04 09 07 57 07 .93      -4     -7     10      9     13 212.5  48.2  33386  276.59 0865.15
2015 04 09 07 57 08 .18      -7     -7     17     11     20 225.0  62.6  33398  276.81 0865.15
2015 04 09 07 57 08 .42      -4     -5     13      7     14 223.4  64.7  33408  276.96 0865.15
2015 04 09 07 57 08 .68      -4     -4     13      7     14 225.0  64.7  33402  276.86 0865.15
2015 04 09 07 57 08 .92      -6     -7     17     10     19 223.2  64.7  33402  276.86 0865.15
2015 04 09 07 57 09 .17      -7     -8     17     11     20 219.6  62.6  33402  276.86 0865.15
2015 04 09 07 57 09 .43      -4     -4     13      7     14 225.0  64.7  33416  277.11 0865.15
2015 04 09 07 57 09 .67      -4     -3     14      6     15 230.5  77.1  33434  277.41 0865.15
2015 04 09 07 57 09 .93      -9     -5     15     11     18 241.1  60.5  33412  277.02 0865.15
2015 04 09 07 57 10 .18      -6      0     12      7     13 265.6  68.8  33400  276.84 0865.15
2015 04 09 07 57 10 .43      -9    -12     22     16     27 216.1  60.5  33410  277.01 0865.15
2015 04 09 07 57 10 .69      -6    -15     17     17     24 201.8  50.1  33416  277.11 0865.15
2015 04 09 07 57 10 .93      -7    -11     20     14     24 212.5  60.5  33436  277.42 0865.15
2015 04 09 07 57 11 .19     -11    -12     24     17     29 223.4  62.6  33430  277.34 0865.15
2015 04 09 07 57 11 .44      -8    -12     21     15     25 212.6  60.5  33414  277.06 0865.15
2015 04 09 07 57 11 .69      -8     -8     18     12     21 225.0  62.6  33388  276.64 0865.15
2015 04 09 07 57 11 .94      -4    -12     13     13     18 198.7  50.1  33368  276.30 0865.15
2015 04 09 07 57 12 .19     -11    -12     11     17     20 223.4  37.6  33352  276.03 0865.15
2015 04 09 07 57 12 .44      -8    -26      7     28     30 198.5  15.3  33344  275.90 0865.15
2015 04 09 07 57 12 .70      -6    -15     10     17     19 201.8  35.5  33360  276.18 0865.15
2015 04 09 07 57 12 .95      -6    -15     17     17     24 201.8  50.1  33372  276.36 0865.15
2015 04 09 07 57 13 .19      -6    -15     17     17     24 201.8  50.1  33350  276.01 0865.14
2015 04 09 07 57 13 .45      -7    -24     17     26     31 196.9  35.6  33350  276.01 0865.14
2015 04 09 07 57 13 .71      -7    -22     17     24     29 198.7  37.6  33352  276.05 0865.14
2015 04 09 07 57 13 .95      -3    -23     22     24     32 188.0  50.0  33362  276.20 0865.14
2015 04 09 07 57 14 .20      -1    -22     20     23     30 182.7  43.8  33360  276.18 0865.14
2015 04 09 07 57 14 .45       0    -22     19     23     29 179.1  43.7  33348  275.98 0865.14
2015 04 09 07 57 14 .70     -15    -24     22     29     36 212.6  41.7  33342  275.86 0865.14
2015 04 09 07 57 14 .95     -13    -38     26     41     48 198.7  35.5  33344  275.91 0865.14
2015 04 09 07 57 15 .20      -7    -36     18     37     41 191.5  27.2  33334  275.75 0865.14
2015 04 09 07 57 15 .45      -6    -30     10     31     33 191.6  19.4  33330  275.68 0865.14
2015 04 09 07 57 15 .70     -16    -39     16     43     45 202.7  20.0  33328  275.63 0865.14
2015 04 09 07 57 15 .95     -13    -41     10     44     46 198.5  13.2  33330  275.68 0865.14
2015 04 09 07 57 16 .20     -16    -40     13     44     47 202.7  17.3  33322  275.55 0865.14
2015 04 09 07 57 16 .45     -19    -54      8     58     59 199.2   8.0  33318  275.48 0865.14
2015 04 09 07 57 16 .70     -17    -50      4     53     54 199.2   4.9  33318  275.48 0865.14
2015 04 09 07 57 16 .95     -24    -53     11     59     61 204.5  11.1  33320  275.52 0865.14
2015 04 09 07 57 17 .21     -31    -48     11     58     60 212.5  11.1  33322  275.55 0865.14
2015 04 09 07 57 17 .45     -29    -39     22     49     53 217.0  25.1  33330  275.67 0865.14
2015 04 09 07 57 17 .70     -24    -38     19     46     49 212.5  23.0  33328  275.63 0865.14
2015 04 09 07 57 17 .97     -21    -40     15     46     49 208.1  18.4  33324  275.57 0865.14
2015 04 09 07 57 18 .22     -25    -40     16     48     51 212.5  19.2  33326  275.60 0865.14
2015 04 09 07 57 18 .47     -29    -46     22     55     59 212.5  23.0  33332  275.72 0865.14
2015 04 09 07 57 18 .72     -34    -47     20     59     63 216.1  18.9  33326  275.60 0865.14
2015 04 09 07 57 18 .97     -27    -51     24     58     62 208.1  23.1  33328  275.63 0865.14
2015 04 09 07 57 19 .22     -31    -55     18     64     67 209.0  16.3  33314  275.42 0865.14
2015 04 09 07 57 19 .47     -39    -57      8     70     71 214.3   7.1  33328  275.63 0865.14
2015 04 09 07 57 19 .72     -33    -53      3     63     64 211.6   2.8  33322  275.55 0865.14
2015 04 09 07 57 19 .97     -40    -49      9     64     65 218.7   8.0  33318  275.48 0865.14
2015 04 09 07 57 20 .22     -33    -53      3     63     64 211.6   2.8  33322  275.55 0865.14
2015 04 09 07 57 20 .47     -34    -53     -3     64     65 212.5  -3.1  33322  275.53 0865.14
2015 04 09 07 57 20 .72     -33    -53      3     63     64 211.6   2.8  33322  275.55 0865.14
2015 04 09 07 57 20 .97     -34    -53     -2     64     65 212.5  -2.2  33318  275.48 0865.14
2015 04 09 07 57 21 .23     -36    -50     -3     62     63 216.1  -3.1  33316  275.45 0865.14
2015 04 09 07 57 21 .47     -36    -50     -3     62     63 216.1  -3.1  33316  275.45 0865.14
2015 04 09 07 57 21 .73     -31    -49     -7     59     60 212.6  -7.3  33318  275.48 0865.14
2015 04 09 07 57 21 .98     -37    -44     -7     58     59 219.6  -7.3  33316  275.43 0865.14
2015 04 09 07 57 22 .22     -36    -50    -12     62     64 216.1 -11.3  33318  275.48 0865.14
2015 04 09 07 57 22 .48     -27    -51     -8     58     59 208.1  -8.2  33314  275.40 0865.14
2015 04 09 07 57 22 .73     -36    -50     -6     62     63 216.1  -6.2  33320  275.50 0865.14
2015 04 09 07 57 22 .98     -29    -53     -3     61     62 208.9  -3.2  33328  275.65 0865.14
2015 04 09 07 57 23 .23     -24    -45     -7     52     53 208.1  -8.2  33322  275.53 0865.14
2015 04 09 07 57 23 .49     -29    -45    -12     54     56 212.5 -13.4  33324  275.58 0865.14
2015 04 09 07 57 23 .73     -15    -53      0     56     57 196.0  -0.3  33324  275.58 0865.14
2015 04 09 07 57 23 .98     -13    -57      3     59     60 193.4   2.9  33326  275.60 0865.13
2015 04 09 07 57 24 .23     -19    -54     -2     58     59 199.2  -2.2  33336  275.78 0865.13
2015 04 09 07 57 24 .48     -21    -47     -9     52     53 204.5 -10.3  33332  275.72 0865.13
2015 04 09 07 57 24 .73     -14    -42     -2     45     46 198.5  -3.1  33330  275.67 0865.13
2015 04 09 07 57 24 .99     -25    -39     -6     47     48 212.6  -7.3  33334  275.73 0865.13
2015 04 09 07 57 25 .25     -35    -35     -3     50     51 225.0  -4.1  33340  275.85 0865.13
2015 04 09 07 57 25 .49     -26    -41     -1     49     50 212.5  -2.2  33342  275.88 0865.13
2015 04 09 07 57 25 .75     -31    -35     -6     47     48 221.4  -7.3  33340  275.83 0865.13
2015 04 09 07 57 26 .00     -30    -43    -14     53     56 215.2 -15.5  33340  275.85 0865.13
2015 04 09 07 57 26 .24     -36    -51    -12     63     65 215.2 -11.5  33348  275.98 0865.13
2015 04 09 07 57 26 .50     -33    -53     -3     63     64 211.6  -3.1  33352  276.03 0865.13
2015 04 09 07 57 26 .75     -27    -49    -10     57     58 209.0 -10.3  33360  276.16 0865.13
2015 04 09 07 57 27 .00     -27    -49    -10     57     58 209.0 -10.3  33360  276.16 0865.13
2015 04 09 07 57 27 .25     -21    -63    -11     67     68 198.3  -9.3  33346  275.95 0865.13
2015 04 09 07 57 27 .50     -13    -65     -8     67     68 191.6  -7.3  33340  275.85 0865.13
2015 04 09 07 57 27 .75      12    -84    -23     85     89 171.5 -15.4  33340  275.83 0865.13
2015 04 09 07 57 28 .00      23    -87    -19     91     94 164.9 -11.9  33336  275.78 0865.13
2015 04 09 07 57 28 .25       1    -81    -23     82     85 179.1 -20.7  33340  275.83 0865.13
2015 04 09 07 57 28 .50      10    -72    -19     73     76 172.0 -14.5  33352  276.03 0865.13
2015 04 09 07 57 28 .75       5    -67    -25     68     72 175.6 -24.4  33348  275.96 0865.13
2015 04 09 07 57 29 .00     -11    -55    -18     57     59 191.6 -22.8  33348  275.98 0865.13
2015 04 09 07 57 29 .25      -3    -54    -16     55     57 183.6 -21.7  33344  275.90 0865.13
2015 04 09 07 57 29 .50      -3    -54    -16     55     57 183.6 -21.7  33350  276.00 0865.13
2015 04 09 07 57 29 .76       1    -56    -11     57     59 178.2 -11.5  33366  276.28 0865.13
2015 04 09 07 57 30 .00       0    -41    -14     42     44 180.9 -23.6  33354  276.08 0865.13
2015 04 09 07 57 30 .26     -11    -43    -16     45     47 194.3 -23.3  33350  276.01 0865.13
2015 04 09 07 57 30 .51      -4    -57     12     58     60 184.5  12.2  33368  276.31 0865.13
2015 04 09 07 57 30 .76       0    -76     12     77     78 180.0   9.0  33384  276.56 0865.13
2015 04 09 07 57 31 .01       1    -71      7     72     73 179.1   5.9  33390  276.66 0865.13
2015 04 09 07 57 31 .26       0    -67     13     68     70 180.0  11.0  33386  276.61 0865.13
2015 04 09 07 57 31 .51       4    -57     11     58     60 175.5  11.1  33392  276.71 0865.13
2015 04 09 07 57 31 .76      14    -55     13     57     59 165.7  13.2  33392  276.71 0865.13
2015 04 09 07 57 32 .02      10    -49     24     51     56 168.4  27.1  33384  276.58 0865.13
2015 04 09 07 57 32 .27      10    -51     30     53     60 168.5  31.4  33368  276.30 0865.12
2015 04 09 07 57 32 .52      19    -44     32     49     58 156.4  35.6  33370  276.33 0865.12
2015 04 09 07 57 32 .77      22    -47     28     53     59 154.5  30.3  33372  276.38 0865.12
2015 04 09 07 57 33 .02      28    -43     22     52     56 146.6  24.1  33368  276.30 0865.12
2015 04 09 07 57 33 .27      39    -39     20     56     59 135.0  20.0  33362  276.21 0865.12
2015 04 09 07 57 33 .52      21    -43     13     48     50 153.7  15.3  33358  276.15 0865.12
2015 04 09 07 57 33 .77      31    -62      2     70     71 153.7   1.8  33316  275.45 0865.12
2015 04 09 07 57 34 .02      26    -66     -5     72     73 158.1  -4.1  33314  275.40 0865.13
2015 04 09 07 57 34 .27      31    -71     -3     78     79 156.4  -2.2  33312  275.39 0865.13
2015 04 09 07 57 34 .52      28    -74     -4     80     81 159.1  -3.1  33310  275.35 0865.13
2015 04 09 07 57 34 .77      21    -85    -11     88     89 165.7  -7.7  33312  275.39 0865.13
2015 04 09 07 57 35 .02      35    -77    -12     85     86 155.1  -8.2  33312  275.39 0865.13
2015 04 09 07 57 35 .27      43    -82     -6     93     94 152.4  -4.1  33310  275.35 0865.13
2015 04 09 07 57 35 .53      44    -86     -3     97     98 152.8  -2.2  33310  275.34 0865.13
2015 04 09 07 57 35 .78      34    -86    -12     93     94 158.2  -7.7  33310  275.34 0865.13
2015 04 09 07 57 36 .03      32    -89    -11     95     96 160.0  -6.7  33310  275.34 0865.13
2015 04 09 07 57 36 .28      26    -78     -3     83     84 161.3  -2.2  33308  275.32 0865.13
2015 04 09 07 57 36 .53      26    -78     -9     83     84 161.5  -6.2  33312  275.39 0865.13
2015 04 09 07 57 36 .78      20    -82     -3     85     86 165.7  -2.2  33314  275.40 0865.13
2015 04 09 07 57 37 .03      20    -82     -3     85     86 165.7  -2.2  33314  275.40 0865.13
2015 04 09 07 57 37 .28      18    -77     -3     80     81 166.6  -2.6  33312  275.39 0865.13
2015 04 09 07 57 37 .53      18    -78     -5     81     82 167.1  -3.7  33314  275.40 0865.13
2015 04 09 07 57 37 .78      19    -80    -14     83     85 166.2  -9.8  33314  275.40 0865.12
2015 04 09 07 57 38 .03      15    -75    -18     77     80 168.4 -13.4  33312  275.39 0865.12
2015 04 09 07 57 38 .28      19    -80    -14     83     85 166.2  -9.8  33310  275.35 0865.12
2015 04 09 07 57 38 .53      19    -80    -14     83     85 166.2  -9.8  33310  275.35 0865.12
2015 04 09 07 57 38 .78      14    -78    -20     80     83 169.3 -14.5  33310  275.35 0865.12
2015 04 09 07 57 39 .05      15    -75    -24     77     81 168.4 -17.6  33310  275.35 0865.12
2015 04 09 07 57 39 .29      21    -83    -24     86     89 165.7 -20.7  33312  275.37 0865.12
2015 04 09 07 57 39 .54      12    -81    -22     82     86 171.5 -15.5  33312  275.39 0865.12
2015 04 09 07 57 39 .80      12    -81    -22     82     86 171.5 -15.5  33312  275.39 0865.12
2015 04 09 07 57 40 .05       7    -81    -28     82     87 174.7 -19.1  33310  275.34 0865.12
2015 04 09 07 57 40 .30       7    -89    -27     90     95 175.5 -17.0  33312  275.39 0865.12
2015 04 09 07 57 40 .55       7    -89    -27     90     95 175.5 -17.0  33312  275.39 0865.13
2015 04 09 07 57 40 .80      -1    -85    -19     86     89 180.9 -12.4  33316  275.43 0865.13
2015 04 09 07 57 41 .05      -7    -90    -25     91     95 184.5 -15.5  33316  275.45 0865.13
2015 04 09 07 57 41 .30      -7    -91    -11     92     93 184.9  -7.2  33328  275.63 0865.13
2015 04 09 07 57 41 .55       7    -92     -6     93     94 175.5  -4.1  33316  275.45 0865.13
2015 04 09 07 57 41 .80      12    -92    -11     93     94 172.0  -7.2  33316  275.43 0865.13
2015 04 09 07 57 42 .05      16    -89     -5     91     92 169.3  -3.7  33314  275.40 0865.13
2015 04 09 07 57 42 .30      12    -92    -11     93     94 172.0  -7.2  33316  275.43 0865.13
2015 04 09 07 57 42 .55      19    -86    -11     89     90 167.1  -7.3  33312  275.37 0865.13
2015 04 09 07 57 42 .80      29    -90     -6     95     96 162.2  -4.1  33310  275.35 0865.13
2015 04 09 07 57 43 .05      26    -83    -15     88     90 162.2  -9.8  33314  275.40 0865.13
2015 04 09 07 57 43 .30      15    -81    -12     83     84 169.3  -8.2  33316  275.43 0865.13
2015 04 09 07 57 43 .55      15    -81    -12     83     84 169.3  -8.2  33316  275.43 0865.13
2015 04 09 07 57 43 .81      37    -74     -3     83     84 153.3  -2.6  33316  275.43 0865.13
2015 04 09 07 57 44 .06      47    -74      4     88     89 147.5   2.9  33316  275.43 0865.13
2015 04 09 07 57 44 .31      47    -74     -3     88     89 147.5  -2.2  33310  275.35 0865.13
2015 04 09 07 57 44 .56      44    -69    -10     83     84 147.5  -7.3  33314  275.40 0865.13
2015 04 09 07 57 44 .81      47    -59    -21     76     79 141.3 -15.5  33314  275.40 0865.13
2015 04 09 07 57 45 .06      48    -63     13     80     82 143.0   9.5  33312  275.39 0865.13
2015 04 09 07 57 45 .31      46    -68     11     83     84 145.7   8.0  33314  275.40 0865.13
2015 04 09 07 57 45 .56      38    -54     -1     67     68 144.8  -1.3  33310  275.35 0865.13
2015 04 09 07 57 45 .82      33    -60    -12     69     71 151.0 -10.3  33316  275.43 0865.13
2015 04 09 07 57 46 .07      39    -54     -8     67     68 144.0  -7.2  33316  275.43 0865.13
2015 04 09 07 57 46 .32      29    -46     -9     55     56 147.4  -9.3  33314  275.42 0865.13
2015 04 09 07 57 46 .57      35    -47    -23     59     63 143.0 -26.4  33316  275.43 0865.13
2015 04 09 07 57 46 .82      24    -59    -26     64     69 157.3 -27.4  33316  275.43 0865.13
2015 04 09 07 57 47 .08      30    -66    -22     73     76 155.5 -22.8  33316  275.43 0865.13
2015 04 09 07 57 47 .32      30    -64    -22     71     75 154.5 -17.6  33318  275.47 0865.13
2015 04 09 07 57 47 .57      41    -64    -20     77     80 147.5 -15.0  33316  275.45 0865.13
2015 04 09 07 57 47 .82      53    -69     -3     88     89 142.6  -2.2  33314  275.40 0865.13
2015 04 09 07 57 48 .08      43    -75     20     87     90 149.7  13.2  33314  275.40 0865.13
2015 04 09 07 57 48 .35      49    -78      4     93     94 147.5   2.9  33314  275.42 0865.13
2015 04 09 07 57 48 .58      54    -85     -9    101    102 147.5  -5.6  33318  275.48 0865.13
2015 04 09 07 57 48 .83      34    -93     -6    100    101 160.0  -3.7  33318  275.47 0865.13
2015 04 09 07 57 49 .08      19    -79    -22     82     86 166.2 -15.5  33316  275.43 0865.13
2015 04 09 07 57 49 .33      25    -82    -23     86     90 162.6 -15.4  33318  275.48 0865.13
2015 04 09 07 57 49 .58      23    -86    -25     90     94 164.9 -15.5  33320  275.50 0865.13
2015 04 09 07 57 49 .83      28    -80    -12     85     86 160.4  -8.2  33318  275.48 0865.13
2015 04 09 07 57 50 .08      36    -96    -13    103    104 159.1  -7.2  33320  275.52 0865.13
2015 04 09 07 57 50 .33      34    -93     -6    100    101 160.0  -3.7  33318  275.47 0865.13
2015 04 09 07 57 50 .58      34   -101     -5    107    108 161.3  -3.1  33318  275.47 0865.13
2015 04 09 07 57 50 .83      30    -89    -12     94     95 161.3  -7.3  33318  275.48 0865.13
2015 04 09 07 57 51 .08      30   -112     -6    117    118 164.9  -3.1  33322  275.55 0865.13
2015 04 09 07 57 51 .33      33   -101     -2    107    108 161.7  -1.3  33318  275.47 0865.13
2015 04 09 07 57 51 .58      42   -105     -2    114    115 158.2  -1.3  33316  275.43 0865.13
2015 04 09 07 57 51 .83      39    -93     -8    101    102 157.3  -4.6  33318  275.48 0865.13
2015 04 09 07 57 52 .09      43    -83     -2     94     95 152.4  -1.3  33318  275.48 0865.13
2015 04 09 07 57 52 .34      32    -78     -5     85     86 157.3  -3.7  33328  275.65 0865.13
2015 04 09 07 57 52 .59      32    -74     -7     81     82 156.4  -5.6  33342  275.86 0865.13
2015 04 09 07 57 52 .85      37    -69     -7     79     80 151.9  -5.2  33360  276.16 0865.13
2015 04 09 07 57 53 .10      31    -63     10     71     72 153.7   8.0  33360  276.18 0865.13
2015 04 09 07 57 53 .35      14    -62     12     64     66 166.6  11.1  33352  276.05 0865.13
2015 04 09 07 57 53 .60       8    -61      7     62     63 172.0   6.9  33352  276.05 0865.13
2015 04 09 07 57 53 .85      16    -67      7     69     70 166.6   5.9  33368  276.31 0865.13
2015 04 09 07 57 54 .10      26    -65     11     71     72 158.1   9.0  33380  276.51 0865.13
2015 04 09 07 57 54 .35      38    -60     18     72     75 147.5  14.3  33344  275.90 0865.13
2015 04 09 07 57 54 .60      14    -64    -12     66     68 167.5 -10.3  33340  275.83 0865.13
2015 04 09 07 57 54 .85      10    -72     -9     73     74 172.0  -7.3  33340  275.85 0865.13
2015 04 09 07 57 55 .10      18    -67    -19     70     73 164.9 -15.4  33318  275.48 0865.13
2015 04 09 07 57 55 .35      20    -72     -9     75     76 164.0  -7.2  33326  275.62 0865.13
2015 04 09 07 57 55 .60      13    -79    -21     81     84 170.2 -14.5  33332  275.70 0865.13
2015 04 09 07 57 55 .85      16    -71     -9     73     74 166.6  -7.3  33322  275.55 0865.13
2015 04 09 07 57 56 .11      13    -68    -15     70     72 168.5 -12.4  33326  275.62 0865.13
2015 04 09 07 57 56 .35      24    -73    -11     77     78 161.5  -8.2  33320  275.50 0865.13
2015 04 09 07 57 56 .61      14    -70     -9     72     73 168.5  -7.2  33322  275.53 0865.13
2015 04 09 07 57 56 .86      31    -62     -3     70     71 152.8  -3.1  33318  275.48 0865.13
2015 04 09 07 57 57 .11      23    -69    -12     73     74 161.3  -9.3  33322  275.53 0865.13
2015 04 09 07 57 57 .36       9    -65     -9     66     67 171.9  -8.2  33320  275.50 0865.13
2015 04 09 07 57 57 .61       4    -57    -15     58     60 175.5 -14.5  33320  275.50 0865.13
2015 04 09 07 57 57 .86       4    -57    -15     58     60 175.5 -14.5  33320  275.50 0865.13
2015 04 09 07 57 58 .11      10    -55    -16     56     58 169.3 -22.8  33320  275.50 0865.13
2015 04 09 07 57 58 .36      11    -58    -20     60     63 168.5 -23.6  33316  275.45 0865.13
2015 04 09 07 57 58 .61      14    -55    -24     57     61 165.7 -27.5  33316  275.45 0865.13
2015 04 09 07 57 58 .86      10    -55    -22     56     60 169.3 -27.4  33318  275.48 0865.13
2015 04 09 07 57 59 .11      14    -55    -24     57     61 165.7 -27.5  33316  275.45 0865.13
2015 04 09 07 57 59 .37       9    -68    -22     69     72 171.9 -23.8  33350  276.01 0865.13
2015 04 09 07 57 59 .61      13    -52    -15     54     57 165.7 -15.5  33380  276.51 0865.13
2015 04 09 07 57 59 .88      -3    -60    -12     61     63 183.6 -11.3  33370  276.33 0865.13
2015 04 09 07 58 00 .12     -10    -48     -5     50     51 191.6  -6.2  33366  276.26 0865.13
2015 04 09 07 58 00 .37     -23    -41     -5     48     49 209.0  -6.2  33362  276.21 0865.13
2015 04 09 07 58 00 .62     -10    -42      0     44     45 194.3   0.8  33370  276.33 0865.13
2015 04 09 07 58 00 .87      -9    -42      0     44     45 192.5   0.8  33372  276.38 0865.13
2015 04 09 07 58 01 .13      -6    -46     -2     47     48 188.0  -3.1  33372  276.38 0865.13
2015 04 09 07 58 01 .37      -2    -34      1     35     36 184.4   2.9  33380  276.51 0865.13
2015 04 09 07 58 01 .63       2    -34      1     35     36 175.5   2.8  33372  276.38 0865.13
2015 04 09 07 58 01 .88      -3    -38     -4     39     40 184.5  -6.2  33370  276.34 0865.13
2015 04 09 07 58 02 .13       9    -32    -10     34     35 163.1 -23.8  33376  276.44 0865.13
2015 04 09 07 58 02 .38       8    -36     -3     38     39 166.6  -5.2  33368  276.30 0865.13
2015 04 09 07 58 02 .63       1    -42     -3     43     44 178.2  -5.2  33372  276.36 0865.13
2015 04 09 07 58 02 .88       0    -61     -8     62     63 180.9  -7.3  33370  276.33 0865.13
2015 04 09 07 58 03 .13      -9    -48    -12     49     51 190.7 -14.5  33372  276.38 0865.13
2015 04 09 07 58 03 .38       2    -38    -10     39     41 176.4 -14.5  33372  276.36 0865.13
2015 04 09 07 58 03 .63      -1    -38     -1     39     40 182.6  -2.2  33370  276.34 0865.13
2015 04 09 07 58 03 .89      -7    -45     15     46     49 189.8  18.9  33378  276.46 0865.13
2015 04 09 07 58 04 .13      -4    -54     28     55     61 184.4  28.2  33388  276.64 0865.13
2015 04 09 07 58 04 .38       3    -54     30     55     62 176.4  31.3  33392  276.71 0865.13
2015 04 09 07 58 04 .63     -15    -49     43     52     67 196.9  43.8  33372  276.36 0865.13
2015 04 09 07 58 04 .88       0    -49     36     50     61 180.9  39.7  33360  276.18 0865.13
2015 04 09 07 58 05 .14       4    -46     24     47     52 174.7  28.2  33360  276.18 0865.13
2015 04 09 07 58 05 .39      -8    -26     22     28     35 198.5  43.7  33372  276.36 0865.13
2015 04 09 07 58 05 .63     -13    -36     30     39     49 200.0  41.7  33356  276.10 0865.13
2015 04 09 07 58 05 .89      -9    -41     22     43     48 192.5  29.3  33358  276.15 0865.13
2015 04 09 07 58 06 .14     -11    -43     22     45     50 194.3  27.3  33372  276.36 0865.13
2015 04 09 07 58 06 .39     -11    -34     22     36     42 198.7  34.4  33374  276.41 0865.13
2015 04 09 07 58 06 .65     -13    -36     17     39     42 200.0  25.1  33380  276.51 0865.14
2015 04 09 07 58 06 .90     -16    -23     28     29     40 214.3  50.0  33386  276.59 0865.14
2015 04 09 07 58 07 .15      -5    -41      6     42     43 188.0   9.0  33382  276.53 0865.14
2015 04 09 07 58 07 .40      -6    -52     10     53     55 187.1  11.1  33384  276.58 0865.14
2015 04 09 07 58 07 .65      -3    -45      8     46     47 184.5  10.1  33384  276.56 0865.14
2015 04 09 07 58 07 .90      -4    -34      5     35     36 188.0   9.0  33378  276.48 0865.14
2015 04 09 07 58 08 .15     -11    -31     11     33     36 200.0  19.4  33382  276.53 0865.14
2015 04 09 07 58 08 .40      -3    -30      9     31     33 186.2  17.3  33384  276.56 0865.14
2015 04 09 07 58 08 .66       0    -37      6     38     39 179.1   9.0  33372  276.38 0865.14
2015 04 09 07 58 08 .90      -7    -38     10     39     41 190.7  15.3  33384  276.58 0865.14
2015 04 09 07 58 09 .16       0    -37      6     38     39 180.9   9.0  33388  276.64 0865.14
2015 04 09 07 58 09 .40      -7    -37      4     38     39 191.5   5.9  33356  276.11 0865.14
2015 04 09 07 58 09 .65      -9    -49      0     50     51 190.7  -0.3  33326  275.62 0865.14
2015 04 09 07 58 09 .90       2    -50      0     51     52 177.3  -0.3  33328  275.63 0865.14
2015 04 09 07 58 10 .16      -1    -53     -7     54     55 181.8  -7.3  33318  275.48 0865.14
2015 04 09 07 58 10 .40      -1    -53     -2     54     55 181.8  -2.2  33322  275.55 0865.14
2015 04 09 07 58 10 .66      -4    -48     -1     49     50 185.3  -2.2  33318  275.47 0865.14
2015 04 09 07 58 10 .91      -6    -45     -9     46     47 188.0 -11.3  33320  275.50 0865.14
2015 04 09 07 58 11 .16     -12    -38     -7     40     41 197.8 -10.3  33322  275.53 0865.14
2015 04 09 07 58 11 .41      -6    -38     -8     39     40 189.8 -12.4  33328  275.65 0865.14
2015 04 09 07 58 11 .66      -9    -29     -1     31     32 198.3  -2.2  33356  276.11 0865.14
2015 04 09 07 58 11 .91      -2    -30      1     31     32 184.5   2.9  33360  276.18 0865.14
2015 04 09 07 58 12 .16      -1    -33      1     34     35 182.6   2.9  33368  276.31 0865.14
2015 04 09 07 58 12 .41       1    -12     16     13     20 175.5  56.4  33378  276.48 0865.14
2015 04 09 07 58 12 .66       6    -23     11     24     26 164.9  25.1  33372  276.38 0865.14
2015 04 09 07 58 12 .91      11    -18     11     22     24 149.3  27.2  33370  276.33 0865.14
2015 04 09 07 58 13 .16       6    -20     19     22     29 161.5  47.9  33360  276.18 0865.13
2015 04 09 07 58 13 .41       7    -36     26     37     45 168.4  37.6  33354  276.06 0865.13
2015 04 09 07 58 13 .68      13    -39     26     42     49 161.5  35.5  33354  276.06 0865.13
2015 04 09 07 58 13 .93      24    -36     17     44     47 145.7  21.0  33358  276.15 0865.13
2015 04 09 07 58 14 .17      14    -41      0     44     45 160.8   0.8  33360  276.18 0865.13
2015 04 09 07 58 14 .42      28    -43      0     52     53 146.6  -0.3  33342  275.88 0865.13
2015 04 09 07 58 14 .68      33    -42      4     54     55 141.3   4.9  33336  275.78 0865.13
2015 04 09 07 58 14 .93      16    -50     17     53     56 161.5  18.4  33348  275.98 0865.13
2015 04 09 07 58 15 .18      24    -51     19     57     61 154.7  18.4  33344  275.90 0865.13
2015 04 09 07 58 15 .43      37    -68     25     78     83 151.0  17.9  33352  276.03 0865.13
2015 04 09 07 58 15 .68      34    -62     28     72     77 151.0  22.0  33346  275.93 0865.13
2015 04 09 07 58 15 .93      32    -63     31     71     77 152.8  25.1  33344  275.91 0865.13
2015 04 09 07 58 16 .18      26    -56     25     62     66 154.7  23.0  33350  276.00 0865.13
2015 04 09 07 58 16 .44      31    -49     34     59     68 147.5  32.4  33370  276.34 0865.13
2015 04 09 07 58 16 .68      27    -40     26     49     55 145.7  30.3  33354  276.06 0865.13
2015 04 09 07 58 16 .94      22    -39     22     46     51 150.1  27.2  33342  275.86 0865.13
2015 04 09 07 58 17 .19      23    -46     10     52     53 152.8  11.0  33356  276.10 0865.13
2015 04 09 07 58 17 .43      12    -63      9     65     66 169.3   8.0  33358  276.13 0865.13
2015 04 09 07 58 17 .69      18    -63      2     66     67 164.0   1.8  33332  275.70 0865.13
2015 04 09 07 58 17 .94      20    -59     12     63     65 160.8  11.1  33338  275.82 0865.13
2015 04 09 07 58 18 .18      16    -62      9     65     66 164.9   8.0  33334  275.73 0865.13
2015 04 09 07 58 18 .43      29    -66      0     73     74 156.4  -0.3  33328  275.63 0865.13
2015 04 09 07 58 18 .69      20    -60     11     64     66 161.5  10.1  33320  275.50 0865.13
2015 04 09 07 58 18 .95      14    -65     -1     67     68 167.5  -1.2  33340  275.83 0865.13
2015 04 09 07 58 19 .19      18    -61     -3     64     65 163.1  -3.1  33348  275.98 0865.13
2015 04 09 07 58 19 .44      27    -62     -2     68     69 156.4  -2.2  33344  275.91 0865.13
2015 04 09 07 58 19 .69      23    -59     -2     64     65 158.1  -2.2  33336  275.78 0865.13
2015 04 09 07 58 19 .94      15    -57      7     60     61 164.9   7.1  33350  276.01 0865.13
2015 04 09 07 58 20 .19      19    -59     -2     63     64 161.7  -2.2  33332  275.70 0865.13
2015 04 09 07 58 20 .44      23    -59     -3     64     65 158.2  -3.1  33312  275.39 0865.13
2015 04 09 07 58 20 .70      25    -47     -7     54     55 151.9  -7.3  33312  275.39 0865.13
2015 04 09 07 58 20 .95      29    -46     -9     55     56 147.4  -9.3  33314  275.42 0865.13
2015 04 09 07 58 21 .20      22    -47     -4     53     54 154.6  -5.2  33314  275.40 0865.13
2015 04 09 07 58 21 .45      22    -47     -4     53     54 154.6  -5.2  33314  275.40 0865.13
2015 04 09 07 58 21 .70      29    -43     -4     53     54 145.7  -5.2  33314  275.40 0865.13
2015 04 09 07 58 21 .95      22    -47     -4     53     54 154.6  -5.2  33314  275.40 0865.13
2015 04 09 07 58 22 .20      21    -38    -13     44     46 150.1 -16.6  33316  275.43 0865.13
2015 04 09 07 58 22 .45      19    -43     -7     48     49 156.4  -8.2  33316  275.43 0865.13
2015 04 09 07 58 22 .70      22    -46      0     52     53 154.5  -0.3  33312  275.39 0865.13
2015 04 09 07 58 22 .95      25    -42      2     50     51 149.3   2.8  33314  275.40 0865.13
2015 04 09 07 58 23 .21      22    -46      0     52     53 154.5  -0.3  33312  275.39 0865.13
2015 04 09 07 58 23 .46      26    -45      3     53     54 150.1   3.8  33312  275.39 0865.13
2015 04 09 07 58 23 .71      19    -43      5     48     49 156.4   6.9  33316  275.43 0865.13
2015 04 09 07 58 23 .96      29    -44     15     53     56 146.6  16.3  33316  275.43 0865.13
2015 04 09 07 58 24 .21      22    -47      7     53     54 154.6   8.0  33316  275.45 0865.13
2015 04 09 07 58 24 .46      26    -43     10     51     53 149.3  11.1  33318  275.48 0865.13
2015 04 09 07 58 24 .71      26    -46     11     54     56 150.1  12.2  33318  275.47 0865.13
2015 04 09 07 58 24 .96      24    -50     -3     56     57 154.6  -3.1  33322  275.53 0865.13
2015 04 09 07 58 25 .21      29    -52     -1     60     61 150.1  -1.2  33318  275.48 0865.13
2015 04 09 07 58 25 .46      22    -47      7     53     54 154.6   8.0  33320  275.52 0865.13
2015 04 09 07 58 25 .71      18    -51      3     55     56 160.8   3.8  33318  275.48 0865.13
2015 04 09 07 58 25 .96      34    -42     14     55     57 141.3  14.3  33322  275.55 0865.13
2015 04 09 07 58 26 .21      33    -42      4     54     55 141.3   4.9  33324  275.58 0865.13
2015 04 09 07 58 26 .46      32    -36      4     49     50 138.6   4.9  33326  275.60 0865.13
2015 04 09 07 58 26 .71      31    -31     11     45     47 135.0  14.3  33324  275.58 0865.13
2015 04 09 07 58 26 .96      33    -33      5     48     49 135.0   6.9  33324  275.58 0865.13
2015 04 09 07 58 27 .21      26    -29      6     40     41 138.6   9.0  33324  275.58 0865.13
2015 04 09 07 58 27 .47      23    -32      8     40     41 143.9  12.2  33322  275.55 0865.13
2015 04 09 07 58 27 .72      18    -30      3     36     37 149.3   4.9  33322  275.55 0865.13
2015 04 09 07 58 27 .98      14    -36      0     39     40 158.2   0.8  33324  275.58 0865.13
2015 04 09 07 58 28 .23      20    -35     -1     41     42 150.1  -2.2  33326  275.60 0865.13
2015 04 09 07 58 28 .48      25    -42      2     50     51 149.3   2.8  33326  275.62 0865.13
2015 04 09 07 58 28 .73      23    -42     -1     49     50 151.0  -2.2  33322  275.53 0865.13
2015 04 09 07 58 28 .98      25    -47     -2     54     55 151.9  -2.2  33320  275.50 0865.13
2015 04 09 07 58 29 .23      15    -58     -4     61     62 164.8  -4.1  33314  275.40 0865.13
2015 04 09 07 58 29 .48      10    -54     -6     55     56 169.3  -6.2  33314  275.40 0865.13
2015 04 09 07 58 29 .73      14    -54     -7     56     57 164.9  -7.3  33312  275.39 0865.13
2015 04 09 07 58 29 .98      22    -55     -1     60     61 158.2  -1.2  33312  275.39 0865.13
2015 04 09 07 58 30 .23      22    -55     -1     60     61 158.2  -1.2  33312  275.39 0865.13
2015 04 09 07 58 30 .48      22    -55     -1     60     61 158.2  -1.2  33312  275.39 0865.13
2015 04 09 07 58 30 .73      23    -70     -1     74     75 161.3  -1.2  33312  275.39 0865.13
2015 04 09 07 58 30 .98      23    -70     -1     74     75 161.3  -1.2  33312  275.39 0865.13
2015 04 09 07 58 31 .23      16    -65     -6     68     69 165.7  -5.2  33310  275.35 0865.13
2015 04 09 07 58 31 .49      18    -52    -11     56     58 160.8 -11.3  33314  275.42 0865.13
2015 04 09 07 58 31 .73      18    -53     -8     57     58 161.3  -8.2  33314  275.40 0865.13
2015 04 09 07 58 31 .98      25    -54    -15     60     62 154.6 -14.5  33314  275.40 0865.13
2015 04 09 07 58 32 .24      17    -61    -17     64     67 164.0 -15.4  33312  275.39 0865.12
2015 04 09 07 58 32 .49      23    -67    -26     72     76 160.8 -23.3  33312  275.37 0865.12
2015 04 09 07 58 32 .74      27    -63    -31     69     75 156.4 -31.5  33316  275.43 0865.12
2015 04 09 07 58 32 .99      26    -56    -24     62     66 154.7 -26.4  33314  275.40 0865.12
2015 04 09 07 58 33 .24      22    -56    -28     61     67 158.2 -30.6  33314  275.40 0865.12
2015 04 09 07 58 33 .49      20    -51    -30     55     62 158.2 -35.7  33316  275.43 0865.12
2015 04 09 07 58 33 .74      20    -51    -30     55     62 158.2 -35.7  33316  275.43 0865.12
2015 04 09 07 58 33 .99      16    -48    -32     51     60 160.8 -39.9  33314  275.40 0865.12
2015 04 09 07 58 34 .24      14    -43    -28     46     53 161.7 -39.9  33318  275.47 0865.12
2015 04 09 07 58 34 .50      15    -45    -22     48     52 161.7 -31.5  33316  275.43 0865.12
2015 04 09 07 58 34 .75      15    -45    -22     48     52 161.7 -31.5  33316  275.43 0865.12
2015 04 09 07 58 35 .00      10    -51    -26     53     59 168.4 -31.6  33316  275.43 0865.12
2015 04 09 07 58 35 .25      16    -49    -20     52     55 161.7 -25.4  33316  275.45 0865.12
2015 04 09 07 58 35 .50      16    -49    -20     52     55 161.7 -25.4  33316  275.45 0865.12
2015 04 09 07 58 35 .75      16    -49    -20     52     55 161.7 -25.4  33316  275.45 0865.12
2015 04 09 07 58 36 .00      16    -49    -20     52     55 161.7 -25.4  33316  275.45 0865.12
2015 04 09 07 58 36 .25      17    -40    -20     44     48 156.4 -29.5  33314  275.40 0865.12
2015 04 09 07 58 36 .51      15    -45    -22     48     52 161.7 -31.5  33316  275.43 0865.12
2015 04 09 07 58 36 .75      17    -40    -20     44     48 156.4 -29.5  33314  275.40 0865.12
2015 04 09 07 58 37 .01      17    -40    -20     44     48 156.4 -29.5  33314  275.40 0865.12
2015 04 09 07 58 37 .26      16    -49    -20     52     55 161.7 -25.4  33314  275.42 0865.12
2015 04 09 07 58 37 .51       7    -44    -18     45     48 170.2 -25.4  33316  275.43 0865.12
2015 04 09 07 58 37 .76      14    -43    -16     46     48 161.7 -23.3  33314  275.40 0865.12
2015 04 09 07 58 38 .01       8    -47    -16     48     50 170.2 -23.6  33316  275.45 0865.12
2015 04 09 07 58 38 .26       7    -50    -18     51     54 172.0 -23.3  33316  275.43 0865.12
2015 04 09 07 58 38 .51       6    -49     -6     50     51 172.0  -7.3  33316  275.43 0865.12
2015 04 09 07 58 38 .77       8    -59    -12     60     62 172.0 -11.3  33326  275.60 0865.12
2015 04 09 07 58 39 .01       4    -53     -8     54     55 175.5  -9.3  33344  275.90 0865.12
2015 04 09 07 58 39 .26       2    -41     -4     42     43 176.4  -6.2  33342  275.86 0865.12
2015 04 09 07 58 39 .51       7    -45    -12     46     48 170.2 -14.5  33318  275.48 0865.12
2015 04 09 07 58 39 .76      10    -50     -9     52     53 168.5 -10.3  33316  275.45 0865.12
2015 04 09 07 58 40 .01       6    -44    -11     45     47 172.0 -14.5  33330  275.67 0865.12
2015 04 09 07 58 40 .26       0    -43    -14     44     47 180.9 -17.6  33326  275.60 0865.12
2015 04 09 07 58 40 .52       4    -52    -17     53     56 175.5 -18.7  33334  275.73 0865.12
2015 04 09 07 58 40 .77       0    -44     -8     45     46 180.9 -10.3  33342  275.88 0865.12
2015 04 09 07 58 41 .02       2    -34      1     35     36 175.5   2.8  33360  276.18 0865.12
2015 04 09 07 58 41 .27       2    -37     -2     38     39 175.5  -3.1  33348  275.98 0865.12
2015 04 09 07 58 41 .53      -1    -34     -1     35     36 182.7  -3.1  33346  275.93 0865.12
2015 04 09 07 58 41 .78      -1    -34     -1     35     36 182.7  -3.1  33346  275.93 0865.12
2015 04 09 07 58 42 .03      -7    -22     -2     24     25 198.7  -5.2  33346  275.93 0865.12
2015 04 09 07 58 42 .28      -6    -25     -1     26     27 193.4  -2.2  33344  275.91 0865.12
2015 04 09 07 58 42 .53       6    -19     -5     21     22 161.5 -15.5  33340  275.83 0865.12
2015 04 09 07 58 42 .78      -1    -18     -7     19     20 184.4 -25.4  33332  275.72 0865.12
2015 04 09 07 58 43 .03      -1    -15     -9     16     18 184.5 -35.8  33328  275.63 0865.12
2015 04 09 07 58 43 .28       2    -11     -9     12     15 168.4 -48.1  33336  275.78 0865.12
2015 04 09 07 58 43 .53      -2    -15     -9     16     18 188.0 -35.8  33348  275.98 0865.12
2015 04 09 07 58 43 .78      -2     -7     -9      8     12 198.7 -56.6  33358  276.13 0865.12
2015 04 09 07 58 44 .03      -4     -3     -5      6      7 230.5 -56.4  33360  276.18 0865.12
2015 04 09 07 58 44 .28      -3    -11      0     12     13 198.7  -2.2  33358  276.15 0865.12
2015 04 09 07 58 44 .54       0    -15      5     16     17 179.1  18.9  33358  276.13 0865.12
2015 04 09 07 58 44 .79       2    -11      8     12     14 168.4  39.7  33366  276.26 0865.11
2015 04 09 07 58 45 .04      11    -20     11     23     25 151.0  27.2  33366  276.28 0865.11
2015 04 09 07 58 45 .29       0    -16     20     17     26 182.7  54.3  33388  276.63 0865.11
2015 04 09 07 58 45 .54       2    -19     16     20     25 173.8  43.7  33400  276.84 0865.11
2015 04 09 07 58 45 .79      -1    -15     15     16     21 184.5  50.0  33410  276.99 0865.11
2015 04 09 07 58 46 .04       0    -15     13     16     20 179.1  43.7  33402  276.86 0865.11
2015 04 09 07 58 46 .29       0    -15     13     16     20 179.1  43.7  33398  276.81 0865.11
2015 04 09 07 58 46 .54      -7    -15     18     17     24 205.4  48.2  33402  276.86 0865.11
2015 04 09 07 58 46 .79      -6    -18     26     20     32 198.7  56.4  33414  277.06 0865.11
2015 04 09 07 58 47 .04      -7    -23     24     25     34 198.5  52.0  33404  276.89 0865.11
2015 04 09 07 58 47 .29      -7    -23     24     25     34 198.5  52.0  33408  276.97 0865.11
2015 04 09 07 58 47 .54     -21    -23     31     32     44 223.2  51.1  33380  276.51 0865.11
2015 04 09 07 58 47 .79     -24    -44     23     51     55 209.0  26.2  33370  276.34 0865.11
2015 04 09 07 58 48 .04     -15    -43     19     46     49 200.0  23.0  33368  276.30 0865.11
2015 04 09 07 58 48 .29      -5    -40      5     41     42 187.1   8.0  33354  276.08 0865.11
2015 04 09 07 58 48 .56       1    -41      0     42     43 177.3  -0.3  33340  275.83 0865.11
2015 04 09 07 58 48 .81       2    -37     11     38     40 175.5  17.3  33364  276.23 0865.11
2015 04 09 07 58 49 .06      -9    -35     15     37     39 195.1  24.1  33370  276.33 0865.11
2015 04 09 07 58 49 .31     -21    -32     17     39     42 212.6  25.1  33362  276.21 0865.11
2015 04 09 07 58 49 .55     -16    -39     16     43     45 202.7  20.0  33370  276.34 0865.11
2015 04 09 07 58 49 .81     -10    -42     16     44     46 193.4  20.0  33372  276.38 0865.11
2015 04 09 07 58 50 .06      -5    -40      5     41     42 187.1   8.0  33352  276.03 0865.11
2015 04 09 07 58 50 .31      -2    -43      8     44     45 182.7  11.1  33356  276.11 0865.11
2015 04 09 07 58 50 .56       0    -40     -1     41     42 180.9  -2.2  33360  276.18 0865.11
2015 04 09 07 58 50 .81       0    -31     19     32     37 179.1  35.5  33364  276.23 0865.11
2015 04 09 07 58 51 .06      -1    -23     15     24     28 184.5  35.5  33366  276.28 0865.11
2015 04 09 07 58 51 .31      -1    -15     15     16     21 184.5  50.0  33366  276.28 0865.11
2015 04 09 07 58 51 .56     -11    -23     19     26     32 205.4  39.7  33360  276.18 0865.11
2015 04 09 07 58 51 .81      -9    -27     21     29     35 198.5  39.7  33356  276.11 0865.11
2015 04 09 07 58 52 .06      -6    -18     19     20     27 198.7  52.0  33366  276.28 0865.11
2015 04 09 07 58 52 .31      -4    -20     25     21     32 193.4  56.3  33362  276.20 0865.11
2015 04 09 07 58 52 .57      -7    -23     24     25     34 198.5  52.0  33372  276.38 0865.11
2015 04 09 07 58 52 .81      -7    -23     24     25     34 198.5  52.0  33366  276.28 0865.11
2015 04 09 07 58 53 .07     -10    -30     26     32     41 198.3  43.7  33374  276.41 0865.11
2015 04 09 07 58 53 .31      -4    -42     19     43     47 186.2  25.1  33372  276.38 0865.11
2015 04 09 07 58 53 .57      -4    -42     19     43     47 186.2  25.1  33370  276.33 0865.11
2015 04 09 07 58 53 .82      -9    -26      8     28     30 200.0  17.3  33370  276.34 0865.11
2015 04 09 07 58 54 .07     -10    -33     12     35     38 198.3  19.4  33370  276.33 0865.11
2015 04 09 07 58 54 .32      -9    -34     10     36     38 195.1  15.3  33372  276.36 0865.11
2015 04 09 07 58 54 .57      -4    -33      6     34     35 188.0  11.1  33364  276.23 0865.11
2015 04 09 07 58 54 .82     -12    -30      6     33     34 201.8  11.1  33364  276.23 0865.11
2015 04 09 07 58 55 .07     -15    -29      9     33     35 207.2  15.3  33362  276.21 0865.11
2015 04 09 07 58 55 .33     -13    -32     12     35     38 201.8  19.4  33364  276.23 0865.11
2015 04 09 07 58 55 .58      -8    -26     15     28     31 198.5  29.3  33366  276.28 0865.11
2015 04 09 07 58 55 .83      -9    -27     22     29     36 198.3  41.7  33368  276.30 0865.11
2015 04 09 07 58 56 .08      -8    -26     28     28     39 198.3  50.1  33376  276.43 0865.11
2015 04 09 07 58 56 .33      -3    -35     20     36     41 186.2  31.4  33364  276.23 0865.11
2015 04 09 07 58 56 .58     -11    -32      5     35     36 200.0   9.0  33368  276.30 0865.11
2015 04 09 07 58 56 .83     -13    -25     10     29     31 207.2  18.9  33370  276.33 0865.11
2015 04 09 07 58 57 .08      -8    -23     11     25     27 198.7  25.1  33364  276.23 0865.11
2015 04 09 07 58 57 .33      -8    -26      7     28     30 198.5  15.3  33360  276.16 0865.11
2015 04 09 07 58 57 .59     -11    -23     19     26     32 207.2  39.7  33366  276.28 0865.12
2015 04 09 07 58 57 .84      -7    -23     31     25     39 198.5  56.4  33372  276.36 0865.12
2015 04 09 07 58 58 .08      -7    -24     30     26     39 196.9  54.3  33366  276.26 0865.12
2015 04 09 07 58 58 .34      -5    -23     23     24     33 193.4  52.0  33374  276.39 0865.12
2015 04 09 07 58 58 .59     -11    -23     26     26     36 207.2  50.1  33378  276.46 0865.12
2015 04 09 07 58 58 .84      -5    -11     20     13     23 205.4  64.7  33378  276.48 0865.12
2015 04 09 07 58 59 .09      -6    -20     26     21     33 196.9  56.4  33372  276.36 0865.12
2015 04 09 07 58 59 .34      -7    -23     17     25     30 198.5  37.6  33362  276.20 0865.11
2015 04 09 07 58 59 .59      -6    -30     10     31     33 191.5  19.2  33354  276.08 0865.11
2015 04 09 07 58 59 .84      -8    -26      7     28     30 198.5  15.3  33356  276.10 0865.11
2015 04 09 07 59 00 .09      -3    -22      1     23     24 189.8   2.9  33358  276.13 0865.11
2015 04 09 07 59 00 .34       0    -18      4     19     20 180.9  13.2  33362  276.21 0865.11
2015 04 09 07 59 00 .59      -3    -11      0     12     13 198.3   2.9  33360  276.16 0865.11
2015 04 09 07 59 00 .84      -7    -11      2     14     15 212.6  11.1  33364  276.23 0865.11
2015 04 09 07 59 01 .09     -12    -16     14     21     25 217.8  35.6  33372  276.36 0865.11
2015 04 09 07 59 01 .34      -4    -12     14     13     19 198.3  48.2  33374  276.41 0865.11
2015 04 09 07 59 01 .59      -7     -7     11     11     15 225.0  50.1  33380  276.49 0865.11
2015 04 09 07 59 01 .84      -4     -5     13      7     14 223.4  64.7  33386  276.61 0865.11
2015 04 09 07 59 02 .09      -2     -7      9      8     12 198.5  52.2  33370  276.34 0865.12
2015 04 09 07 59 02 .35      -5    -14      5     16     17 201.8  19.4  33356  276.11 0865.12
2015 04 09 07 59 02 .61      -2    -14     -3     15     16 188.0 -11.3  33362  276.21 0865.12
2015 04 09 07 59 02 .86      -8    -10     -1     14     15 219.6  -7.3  33356  276.11 0865.12
2015 04 09 07 59 03 .11     -10    -13      0     17     18 216.1  -2.2  33356  276.11 0865.12
2015 04 09 07 59 03 .36     -10    -16      6     19     21 212.6  19.2  33358  276.13 0865.12
2015 04 09 07 59 03 .61     -10    -16      6     19     21 212.6  19.2  33358  276.13 0865.12
2015 04 09 07 59 03 .86     -12    -15      7     20     22 217.8  19.2  33352  276.03 0865.11
2015 04 09 07 59 04 .11     -11    -17      4     21     22 214.3  11.1  33352  276.05 0865.11
2015 04 09 07 59 04 .36     -14    -18     -1     23     24 217.8  -3.1  33360  276.18 0865.11
2015 04 09 07 59 04 .61      -6    -15     -7     17     18 201.8 -23.3  33366  276.26 0865.11
2015 04 09 07 59 04 .86      -6    -15     -7     17     18 201.8 -23.3  33370  276.34 0865.11
2015 04 09 07 59 05 .11      -1    -12     -7     13     14 188.0 -39.9  33370  276.34 0865.11
2015 04 09 07 59 05 .36      -6    -13     -2     15     16 205.4  -7.2  33366  276.28 0865.11
2015 04 09 07 59 05 .61       0    -14     -5     15     15 182.7 -23.6  33366  276.28 0865.11
2015 04 09 07 59 05 .86       2    -26     -9     27     28 175.5 -23.6  33360  276.18 0865.11
2015 04 09 07 59 06 .11      -1    -32     -9     33     35 182.6 -15.5  33356  276.10 0865.11
2015 04 09 07 59 06 .37       2    -26    -16     27     31 175.5 -37.9  33348  275.96 0865.11
2015 04 09 07 59 06 .62      -1    -30     -1     31     32 182.6  -2.2  33374  276.39 0865.11
2015 04 09 07 59 06 .86      -4    -24      8     25     27 189.8  17.3  33370  276.33 0865.11
2015 04 09 07 59 07 .12      -1    -30      1     31     32 182.7   2.8  33370  276.33 0865.11
2015 04 09 07 59 07 .37      -1    -21      7     22     24 182.7  19.4  33360  276.18 0865.11
2015 04 09 07 59 07 .62       9    -25     -9     27     29 160.0 -19.7  33326  275.60 0865.11
2015 04 09 07 59 07 .87      13    -32    -11     35     36 158.2 -23.8  33318  275.47 0865.11
2015 04 09 07 59 08 .12      20    -30    -12     37     40 145.7 -18.7  33318  275.48 0865.11
2015 04 09 07 59 08 .37      10    -32     -5     34     35 161.7  -9.3  33318  275.48 0865.11
2015 04 09 07 59 08 .62      10    -34    -10     36     38 163.1 -15.4  33322  275.55 0865.11
2015 04 09 07 59 08 .87      -1    -38     -7     39     40 182.6 -11.3  33324  275.58 0865.11
2015 04 09 07 59 09 .12       8    -45    -12     46     48 169.3 -14.5  33336  275.78 0865.11
2015 04 09 07 59 09 .38       2    -46    -12     47     49 177.3 -14.5  33328  275.63 0865.11
2015 04 09 07 59 09 .63       4    -57    -15     58     60 175.5 -14.5  33322  275.55 0865.11
2015 04 09 07 59 09 .88       4    -46    -14     47     49 174.7 -22.8  33328  275.63 0865.11
2015 04 09 07 59 10 .13      19    -43     -7     48     49 156.4  -8.2  33324  275.58 0865.11
2015 04 09 07 59 10 .38      25    -39     -1     47     48 147.4  -2.2  33324  275.57 0865.11
2015 04 09 07 59 10 .63      19    -34     -7     40     41 151.0 -10.3  33322  275.53 0865.11
2015 04 09 07 59 10 .88      25    -39    -13     47     49 146.6 -15.5  33322  275.55 0865.11
2015 04 09 07 59 11 .13      24    -36    -14     44     46 145.7 -23.8  33324  275.58 0865.11
2015 04 09 07 59 11 .39      26    -27    -11     38     40 136.6 -16.6  33324  275.58 0865.11
2015 04 09 07 59 11 .64      26    -28     -3     39     40 136.6  -5.2  33322  275.55 0865.11
2015 04 09 07 59 11 .89      21    -32     -4     39     40 145.7  -6.2  33324  275.57 0865.11
2015 04 09 07 59 12 .14      20    -35     -1     41     42 150.1  -2.2  33326  275.60 0865.11
2015 04 09 07 59 12 .40      16    -36    -10     40     42 156.4 -14.5  33328  275.65 0865.11
2015 04 09 07 59 12 .64      12    -37      6     40     41 161.7   9.0  33352  276.03 0865.11
2015 04 09 07 59 12 .89       6    -48     -1     49     50 172.9  -2.2  33360  276.16 0865.11
2015 04 09 07 59 13 .14       2    -47      0     48     49 177.3  -0.3  33354  276.08 0865.11
2015 04 09 07 59 13 .39     -10    -48      8     50     51 191.6  10.1  33352  276.05 0865.11
2015 04 09 07 59 13 .64      -8    -42      0     43     44 191.6   0.8  33358  276.13 0865.11
2015 04 09 07 59 13 .89     -21    -38     -3     44     45 209.0  -4.1  33354  276.08 0865.12
2015 04 09 07 59 14 .14     -14    -38     -3     41     42 200.9  -5.2  33346  275.95 0865.12
2015 04 09 07 59 14 .40     -10    -31     -1     33     34 198.3  -2.2  33344  275.90 0865.12
2015 04 09 07 59 14 .64      -8    -34      1     35     36 193.4   2.8  33340  275.83 0865.12
2015 04 09 07 59 14 .89      -3    -22     -3     23     24 188.0  -9.3  33326  275.60 0865.12
2015 04 09 07 59 15 .14      11    -20     -8     23     24 151.0 -23.6  33326  275.60 0865.12
2015 04 09 07 59 15 .40      18    -19     -1     27     28 136.6  -2.2  33328  275.65 0865.12
2015 04 09 07 59 15 .65      21    -12     -6     25     26 120.7 -13.4  33330  275.68 0865.12
2015 04 09 07 59 15 .90      14    -12     -2     19     20 129.5  -7.3  33332  275.72 0865.12
2015 04 09 07 59 16 .15      10    -11      5     16     18 136.8  19.4  33328  275.65 0865.12
2015 04 09 07 59 16 .41       7    -22      1     24     25 161.5   2.9  33334  275.73 0865.12
2015 04 09 07 59 16 .66      14    -20      1     25     26 143.9   2.9  33334  275.73 0865.12
2015 04 09 07 59 16 .91      13    -22     -1     26     27 149.3  -2.2  33332  275.72 0865.12
2015 04 09 07 59 17 .16      14    -15      0     21     22 136.8  -1.3  33330  275.67 0865.12
2015 04 09 07 59 17 .41      14    -15      0     21     22 136.8  -1.3  33330  275.67 0865.12
2015 04 09 07 59 17 .66      14    -12      1     19     20 129.5   2.9  33336  275.78 0865.12
2015 04 09 07 59 17 .91      11    -12      0     17     18 136.8  -3.1  33342  275.88 0865.12
2015 04 09 07 59 18 .16      11    -10      3     16     17 133.3  11.1  33344  275.91 0865.12
2015 04 09 07 59 18 .42      12    -15      7     20     22 140.4  19.2  33352  276.03 0865.12
2015 04 09 07 59 18 .66       1    -11      9     12     15 172.0  43.7  33358  276.15 0865.12
2015 04 09 07 59 18 .91       1    -12     15     13     19 172.0  54.3  33348  275.98 0865.12
2015 04 09 07 59 19 .16      -5    -16     11     17     20 198.3  37.6  33342  275.88 0865.12
2015 04 09 07 59 19 .92     -15    -29      9     33     35 207.2  15.3  33352  276.05 0865.12
2015 04 09 07 59 20 .17     -15    -29      9     33     35 207.2  15.3  33352  276.05 0865.12
2015 04 09 07 59 20 .42     -10    -30      6     32     33 198.3  11.1  33358  276.13 0865.12
2015 04 09 07 59 20 .67      -8    -26      7     28     30 198.5  15.3  33360  276.16 0865.12
2015 04 09 07 59 20 .92     -17    -36      6     40     41 205.5   9.0  33364  276.23 0865.12
2015 04 09 07 59 21 .17     -20    -37      3     43     44 208.1   4.9  33362  276.21 0865.12
2015 04 09 07 59 21 .42     -17    -42      5     46     47 201.8   6.9  33354  276.08 0865.12
2015 04 09 07 59 21 .67     -17    -36     -7     40     41 205.5 -10.3  33358  276.15 0865.12
2015 04 09 07 59 21 .92     -14    -30    -12     34     37 205.4 -19.7  33354  276.08 0865.12
2015 04 09 07 59 22 .17     -15    -31    -16     35     38 207.2 -29.5  33332  275.70 0865.12
2015 04 09 07 59 22 .42      -9    -35    -22     37     43 195.1 -37.9  33318  275.48 0865.12
2015 04 09 07 59 22 .67      -7    -38    -20     39     43 191.6 -32.6  33314  275.42 0865.12
2015 04 09 07 59 22 .92      -7    -38    -26     39     46 191.5 -40.9  33316  275.43 0865.12
2015 04 09 07 59 23 .18      -2    -38    -28     39     48 184.4 -43.0  33316  275.45 0865.12
2015 04 09 07 59 23 .43      -6    -39    -20     40     44 189.8 -33.7  33320  275.50 0865.12
2015 04 09 07 59 23 .68      -3    -39    -16     40     43 184.5 -26.4  33320  275.50 0865.12
2015 04 09 07 59 23 .93      -1    -35    -20     36     41 182.7 -35.8  33320  275.50 0865.12
2015 04 09 07 59 24 .19      -4    -27    -18     28     33 189.8 -40.0  33328  275.63 0865.12
2015 04 09 07 59 24 .43       2    -27     -9     28     29 175.6 -23.8  33330  275.68 0865.12
2015 04 09 07 59 24 .69       6    -20    -18     22     28 161.5 -50.2  33328  275.63 0865.12
2015 04 09 07 59 24 .94       2    -18    -16     19     24 172.0 -50.2  33340  275.85 0865.12
2015 04 09 07 59 25 .19       8    -20    -11     22     24 158.2 -31.6  33342  275.86 0865.12
2015 04 09 07 59 25 .44       7    -11     -5     14     14 147.5 -23.6  33340  275.83 0865.12
2015 04 09 07 59 25 .69       6    -11     -5     13     13 151.0 -23.3  33334  275.73 0865.12
2015 04 09 07 59 25 .94       1    -16     -5     17     17 175.6 -23.8  33340  275.83 0865.12
2015 04 09 07 59 26 .19      -1    -14     -2     15     16 184.5  -7.3  33334  275.75 0865.12
2015 04 09 07 59 26 .44      -1    -16      6     17     19 184.4  19.4  33330  275.67 0865.12
2015 04 09 07 59 26 .69      -3    -22      2     23     24 188.0   4.9  33328  275.63 0865.12
2015 04 09 07 59 26 .94      -3    -22      2     23     24 188.0   4.9  33328  275.63 0865.12
2015 04 09 07 59 27 .19     -10    -13      0     17     18 216.1  -2.2  33328  275.65 0865.12
2015 04 09 07 59 27 .44      -5    -14      5     16     17 201.8  19.4  33330  275.67 0865.13
2015 04 09 07 59 27 .69      -3    -11      0     12     13 198.7  -2.2  33332  275.72 0865.13
2015 04 09 07 59 27 .94      -5    -14      5     16     17 201.8  19.4  33338  275.82 0865.13
2015 04 09 07 59 28 .19      -6     -7     11     10     14 223.2  48.2  33342  275.88 0865.13
2015 04 09 07 59 28 .45      -3     -9      8     10     12 201.8  47.9  33356  276.11 0865.13
2015 04 09 07 59 28 .73      -7    -15     18     17     24 205.4  48.2  33404  276.91 0865.13
2015 04 09 07 59 28 .95      -7    -15     18     17     24 205.4  48.2  33450  277.67 0865.13
2015 04 09 07 59 29 .20      -9     -5     22     11     24 241.1  72.9  33446  277.61 0865.13
2015 04 09 07 59 29 .45      -6      0     17      7     18 265.6  81.2  33458  277.80 0865.13
2015 04 09 07 59 29 .70     -17      4     21     18     27 285.1  54.3  33442  277.52 0865.13
2015 04 09 07 59 29 .95     -21     -7     18     23     29 250.0  43.7  33426  277.26 0865.13
2015 04 09 07 59 30 .21     -37    -12      8     39     40 251.8  12.2  33402  276.86 0865.13
2015 04 09 07 59 30 .46     -32    -20     13     39     42 237.6  18.4  33384  276.56 0865.13
2015 04 09 07 59 30 .71     -24    -38     -1     46     47 212.5  -2.2  33384  276.56 0865.13
2015 04 09 07 59 30 .96     -26    -35     -3     44     45 217.0  -4.1  33378  276.48 0865.13
2015 04 09 07 59 31 .21     -20    -32      4     38     39 212.6   5.9  33390  276.66 0865.14
2015 04 09 07 59 31 .47     -18    -28     -1     34     35 212.6  -2.2  33396  276.78 0865.14
2015 04 09 07 59 31 .71      -9    -31     25     33     41 196.9  41.7  33402  276.88 0865.14
2015 04 09 07 59 31 .96      -9    -27     28     29     40 198.5  50.0  33410  276.99 0865.14
2015 04 09 07 59 32 .22     -21    -23     24     32     40 223.2  40.7  33412  277.02 0865.14
2015 04 09 07 59 32 .47     -11    -37     13     39     42 196.9  18.4  33434  277.41 0865.14
2015 04 09 07 59 32 .71     -13    -41     10     44     46 198.5  13.2  33440  277.49 0865.14
2015 04 09 07 59 32 .96     -28    -41     17     50     53 214.3  19.2  33422  277.21 0865.13
2015 04 09 07 59 33 .22     -29    -46      0     55     56 212.5   0.8  33358  276.13 0865.13
2015 04 09 07 59 33 .47     -31    -42     -6     53     54 217.0  -7.3  33354  276.08 0865.13
2015 04 09 07 59 33 .72     -24    -45     -7     52     53 208.1  -8.2  33358  276.13 0865.13
2015 04 09 07 59 33 .97     -26    -42     -2     50     51 212.5  -3.1  33360  276.18 0865.13
2015 04 09 07 59 34 .22     -22    -41      8     47     48 208.1  10.1  33360  276.16 0865.13
2015 04 09 07 59 34 .47     -31    -49     -2     59     60 212.5  -2.2  33356  276.11 0865.13
2015 04 09 07 59 34 .72     -26    -42     -2     50     51 212.5  -3.1  33358  276.13 0865.12
2015 04 09 07 59 34 .97     -22    -42     -6     48     49 208.1  -7.2  33360  276.16 0865.12
2015 04 09 07 59 35 .22     -17    -34     -1     39     40 207.2  -2.2  33362  276.21 0865.12
2015 04 09 07 59 35 .47     -23    -35     -4     42     43 213.4  -6.2  33366  276.26 0865.12
2015 04 09 07 59 35 .72     -24    -37      5     45     46 212.5   6.9  33360  276.18 0865.12
2015 04 09 07 59 35 .97     -33    -39      9     52     53 220.5  10.1  33356  276.10 0865.12
2015 04 09 07 59 36 .22     -33    -38     10     51     52 220.5  11.1  33352  276.03 0865.12
2015 04 09 07 59 36 .47     -34    -48     24     59     63 215.2  23.0  33348  275.98 0865.12
2015 04 09 07 59 36 .72     -34    -35     22     50     54 224.2  26.2  33354  276.06 0865.12
2015 04 09 07 59 36 .97     -36    -36     22     51     55 225.0  25.1  33356  276.11 0865.12
2015 04 09 07 59 37 .24     -26    -31     26     41     48 219.6  35.5  33356  276.11 0865.12
2015 04 09 07 59 37 .49     -29    -39     34     49     59 217.0  38.6  33380  276.51 0865.12
2015 04 09 07 59 37 .74     -26    -31     33     41     52 219.6  43.7  33418  277.12 0865.12
2015 04 09 07 59 37 .99     -12    -39     39     41     56 197.8  50.0  33408  276.96 0865.12
2015 04 09 07 59 38 .24      -1    -35     31     36     47 182.7  45.8  33408  276.96 0865.12
2015 04 09 07 59 38 .49      -3    -23     29     24     37 188.0  56.3  33412  277.04 0865.12
2015 04 09 07 59 38 .74       8     -8     28     12     30 133.1  75.0  33422  277.19 0865.12
2015 04 09 07 59 38 .99       0    -11     18     12     21 180.9  62.6  33402  276.86 0865.12
2015 04 09 07 59 39 .25      -2    -27     38     28     47 184.4  59.4  33412  277.02 0865.12
2015 04 09 07 59 39 .49     -33    -60     44     69     81 209.0  35.5  33394  276.73 0865.12
2015 04 09 07 59 39 .74     -37    -59     28     70     75 212.5  23.0  33364  276.23 0865.12
2015 04 09 07 59 39 .99     -37    -55     23     67     72 214.3  19.2  33358  276.13 0865.12
2015 04 09 07 59 40 .24     -41    -52     21     67     71 217.8  17.3  33356  276.11 0865.12
2015 04 09 07 59 40 .50     -44    -55     25     71     76 218.7  19.4  33360  276.16 0865.12
2015 04 09 07 59 40 .75     -53    -53     27     75     79 225.0  20.4  33362  276.20 0865.12
2015 04 09 07 59 41 .00     -43    -54     28     70     75 218.7  23.0  33390  276.68 0865.12
2015 04 09 07 59 41 .25     -49    -50     28     71     76 224.2  22.0  33358  276.13 0865.12
2015 04 09 07 59 41 .49     -47    -61     37     78     86 217.8  27.2  33374  276.39 0865.12
2015 04 09 07 59 41 .75     -41    -58     37     72     80 215.2  29.3  33374  276.39 0865.12
2015 04 09 07 59 41 .99     -40    -66     26     78     83 211.6  18.9  33370  276.33 0865.12
2015 04 09 07 59 42 .25     -43    -68     32     81     87 212.6  22.0  33364  276.23 0865.12
2015 04 09 07 59 42 .50     -24    -73     26     78     83 198.7  18.9  33368  276.31 0865.12
2015 04 09 07 59 42 .75     -25    -84     18     88     90 196.5  11.6  33362  276.20 0865.12
2015 04 09 07 59 43 .00     -29    -84     21     89     92 199.2  13.2  33356  276.11 0865.12
2015 04 09 07 59 43 .25     -26    -80     16     85     87 198.3  11.0  33354  276.06 0865.12
2015 04 09 07 59 43 .50     -17    -81     18     83     86 192.5  12.6  33358  276.15 0865.12
2015 04 09 07 59 43 .75     -17    -81     18     83     86 192.5  12.6  33348  275.98 0865.12
2015 04 09 07 59 44 .01     -17    -81     18     83     86 192.5  12.6  33348  275.98 0865.12
2015 04 09 07 59 44 .26     -14    -67     13     69     71 192.5  11.1  33354  276.08 0865.12
2015 04 09 07 59 44 .52     -19    -64     13     67     69 196.9  11.0  33362  276.21 0865.12
2015 04 09 07 59 44 .76     -26    -64     16     70     72 201.9  13.2  33362  276.21 0865.12
2015 04 09 07 59 45 .02     -31    -66     24     74     78 205.5  17.9  33342  275.88 0865.12
2015 04 09 07 59 45 .26     -32    -76     16     83     85 202.7  11.1  33334  275.75 0865.12
2015 04 09 07 59 45 .52     -29    -74     11     80     81 201.9   8.5  33338  275.80 0865.12
2015 04 09 07 59 45 .76     -22    -67     19     71     74 198.3  15.3  33336  275.78 0865.12
2015 04 09 07 59 46 .02     -25    -63     23     68     73 201.8  19.2  33340  275.83 0865.12
2015 04 09 07 59 46 .27     -18    -53     20     57     61 198.7  19.4  33348  275.98 0865.12
2015 04 09 07 59 46 .51     -21    -63     13     67     69 198.3  11.1  33346  275.93 0865.12
2015 04 09 07 59 46 .77     -26    -64     16     70     72 201.8  13.2  33344  275.90 0865.12
2015 04 09 07 59 47 .02     -30    -64     12     71     73 205.4  10.1  33340  275.85 0865.12
2015 04 09 07 59 47 .27     -30    -63     19     70     73 205.5  15.2  33346  275.93 0865.12
2015 04 09 07 59 47 .52     -15    -75     22     77     81 191.6  15.8  33346  275.95 0865.12
2015 04 09 07 59 47 .77     -27    -67     22     73     77 201.9  16.8  33348  275.96 0865.12
2015 04 09 07 59 48 .02     -24    -72     28     77     81 198.7  20.4  33358  276.13 0865.12
2015 04 09 07 59 48 .27     -24    -71     22     75     79 198.7  16.3  33366  276.26 0865.12
2015 04 09 07 59 48 .52     -22    -66     27     70     75 198.7  21.0  33362  276.20 0865.12
2015 04 09 07 59 48 .77     -19    -59     17     63     66 198.5  15.3  33344  275.91 0865.12
2015 04 09 07 59 49 .02     -18    -58      5     61     62 197.8   4.9  33328  275.63 0865.12
2015 04 09 07 59 49 .27     -13    -49      2     51     52 195.1   2.9  33326  275.60 0865.12
2015 04 09 07 59 49 .53     -17    -53      1     56     57 198.5   1.8  33336  275.77 0865.12
2015 04 09 07 59 49 .77     -11    -53      3     55     56 191.6   3.8  33328  275.63 0865.12
2015 04 09 07 59 50 .03     -11    -53      3     55     56 192.5   3.8  33334  275.73 0865.12
2015 04 09 07 59 50 .28     -16    -51      7     54     55 197.8   8.0  33338  275.80 0865.12
2015 04 09 07 59 50 .52     -12    -60     12     62     64 191.6  11.1  33340  275.85 0865.12
2015 04 09 07 59 50 .78     -14    -48     10     51     53 196.9  11.1  33334  275.73 0865.12
2015 04 09 07 59 51 .04     -14    -48     10     51     53 196.9  11.1  33334  275.73 0865.12
2015 04 09 07 59 51 .29     -18    -53     16     57     60 199.2  16.3  33332  275.70 0865.12
2015 04 09 07 59 51 .54     -18    -57     11     60     62 197.8  11.1  33342  275.86 0865.12
2015 04 09 07 59 51 .79     -17    -63     12     66     68 195.2  11.0  33344  275.90 0865.12
2015 04 09 07 59 52 .04     -14    -63     17     65     68 192.5  15.3  33344  275.90 0865.12
2015 04 09 07 59 52 .29     -14    -58     -3     60     61 194.3  -3.1  33334  275.73 0865.12
2015 04 09 07 59 52 .54     -17    -53      7     56     57 197.8   8.0  33340  275.85 0865.12
2015 04 09 07 59 52 .79     -11    -44     12     46     48 195.1  15.3  33350  276.01 0865.12
2015 04 09 07 59 53 .04     -13    -49     10     51     53 195.1  11.1  33342  275.88 0865.12
2015 04 09 07 59 53 .30     -22    -58    -12     63     65 200.9 -11.3  33358  276.13 0865.12
2015 04 09 07 59 53 .54     -31    -49     -2     59     60 212.5  -2.2  33372  276.36 0865.12
2015 04 09 07 59 53 .80     -35    -28     16     46     49 231.4  19.4  33378  276.48 0865.12
2015 04 09 07 59 54 .04     -22    -34      8     41     42 213.4  12.2  33374  276.41 0865.12
2015 04 09 07 59 54 .29     -16    -23     16     29     33 214.3  31.4  33384  276.58 0865.12
2015 04 09 07 59 54 .54     -15    -19     24     25     34 219.6  52.0  33384  276.58 0865.12
2015 04 09 07 59 54 .80     -29    -45     22     54     58 212.5  22.0  33426  277.26 0865.12
2015 04 09 07 59 55 .04     -19    -46      9     50     51 202.7  11.1  33400  276.83 0865.12
2015 04 09 07 59 55 .30     -18    -43     26     47     53 202.7  31.4  33396  276.76 0865.12
2015 04 09 07 59 55 .54     -17    -39     22     43     48 203.6  29.3  33372  276.36 0865.12
2015 04 09 07 59 55 .80     -17    -42     -1     46     47 202.7  -2.2  33332  275.70 0865.12
2015 04 09 07 59 56 .05     -24    -38     -1     46     47 212.5  -2.2  33328  275.65 0865.12
2015 04 09 07 59 56 .30     -14    -42     -2     45     46 198.5  -3.1  33340  275.83 0865.12
2015 04 09 07 59 56 .55     -26    -43     -2     51     52 211.6  -2.2  33330  275.68 0865.12
2015 04 09 07 59 56 .80     -33    -47    -11     58     60 215.2 -11.3  33326  275.60 0865.12
2015 04 09 07 59 57 .05     -31    -42     -6     53     54 217.0  -7.3  33328  275.63 0865.12
2015 04 09 07 59 57 .30     -38    -38     -7     54     55 225.0  -7.3  33324  275.58 0865.12
2015 04 09 07 59 57 .55     -33    -40     -9     52     53 219.6 -10.3  33326  275.62 0865.12
2015 04 09 07 59 57 .80     -35    -35    -13     50     52 225.0 -14.5  33328  275.63 0865.12
2015 04 09 07 59 58 .06     -32    -34    -18     48     51 223.2 -25.4  33328  275.63 0865.12
2015 04 09 07 59 58 .31     -33    -32    -14     47     49 226.0 -22.8  33328  275.63 0865.12
2015 04 09 07 59 58 .57     -35    -35    -13     50     52 225.0 -14.5  33328  275.63 0865.12
2015 04 09 07 59 58 .81     -28    -35     -9     46     47 218.7 -11.3  33328  275.65 0865.12
2015 04 09 07 59 59 .07     -26    -26     -9     37     39 225.0 -13.4  33328  275.65 0865.12
2015 04 09 07 59 59 .32     -26    -25      1     37     38 226.7   2.9  33328  275.65 0865.12
2015 04 09 07 59 59 .56     -25    -33      4     42     43 217.8   5.9  33334  275.75 0865.12
2015 04 09 07 59 59 .82     -28    -31      9     42     43 222.3  12.2  33332  275.72 0865.12
2015 04 09 08 00 00 .07     -28    -31      9     42     43 222.3  12.2  33336  275.77 0865.12
2015 04 09 08 00 00 .32     -17    -26     -1     32     33 212.6  -2.2  33332  275.72 0865.12
2015 04 09 08 00 00 .57     -20    -37      3     43     44 208.1   4.9  33332  275.70 0865.12
2015 04 09 08 00 00 .83     -31    -48     11     58     60 212.5  11.1  33340  275.85 0865.12
2015 04 09 08 00 01 .07     -23    -49     15     55     58 205.4  15.3  33344  275.91 0865.12
2015 04 09 08 00 01 .32     -32    -50      5     60     61 212.5   4.9  33336  275.78 0865.12
2015 04 09 08 00 01 .57     -25    -48     15     55     58 207.2  15.3  33344  275.91 0865.12
2015 04 09 08 00 01 .82     -34    -47     20     59     63 216.1  18.9  33354  276.06 0865.12
2015 04 09 08 00 02 .07     -34    -47     20     59     63 216.1  18.9  33354  276.06 0865.12
2015 04 09 08 00 02 .32     -32    -51     17     61     64 211.6  16.3  33348  275.96 0865.12
2015 04 09 08 00 02 .57     -34    -54     24     65     69 212.5  20.0  33346  275.93 0865.12
2015 04 09 08 00 02 .82     -34    -53     31     64     71 212.5  27.3  33350  276.01 0865.12
2015 04 09 08 00 03 .07     -36    -50     34     62     70 216.1  31.4  33350  276.01 0865.12
2015 04 09 08 00 03 .32     -34    -54     30     65     71 212.5  27.1  33348  275.96 0865.12
2015 04 09 08 00 03 .57     -28    -50     30     58     65 209.9  30.3  33350  276.00 0865.12
2015 04 09 08 00 03 .83     -32    -58     23     67     71 209.0  18.9  33346  275.93 0865.12
2015 04 09 08 00 04 .08     -32    -50     26     60     65 212.6  25.1  33354  276.06 0865.12
2015 04 09 08 00 04 .32     -34    -54     37     65     74 212.5  32.4  33348  275.98 0865.12
2015 04 09 08 00 04 .58     -35    -63     22     73     77 209.0  16.8  33326  275.60 0865.12
2015 04 09 08 00 04 .83     -29    -62     28     69     74 205.4  23.0  33328  275.63 0865.12
2015 04 09 08 00 05 .09     -30    -64     25     71     76 205.5  19.4  33326  275.60 0865.12
2015 04 09 08 00 05 .34     -35    -71     21     80     83 206.3  14.7  33322  275.55 0865.12
2015 04 09 08 00 05 .59     -27    -76     22     81     84 200.0  15.3  33322  275.55 0865.12
2015 04 09 08 00 05 .84     -29    -78     26     84     88 200.9  17.3  33322  275.55 0865.12
2015 04 09 08 00 06 .09     -26    -79     23     84     88 198.3  15.3  33322  275.53 0865.12
2015 04 09 08 00 06 .34     -29    -75     20     81     84 201.4  14.3  33320  275.50 0865.12
2015 04 09 08 00 06 .59     -24    -73     26     78     83 198.7  18.9  33322  275.55 0865.12
2015 04 09 08 00 06 .84     -39    -70     23     81     85 209.0  16.3  33322  275.53 0865.12
2015 04 09 08 00 07 .09     -41    -68     21     80     83 211.2  14.7  33320  275.50 0865.12
2015 04 09 08 00 07 .34     -37    -76     11     85     86 206.3   8.0  33320  275.50 0865.12
2015 04 09 08 00 07 .59     -34    -72     15     80     82 205.4  10.6  33318  275.48 0865.12
2015 04 09 08 00 07 .85     -34    -72     15     80     82 205.4  10.6  33318  275.48 0865.12
2015 04 09 08 00 08 .10     -48    -74     30     89     95 213.4  18.9  33324  275.58 0865.12
2015 04 09 08 00 08 .35     -42    -71     24     83     87 211.2  16.3  33322  275.55 0865.12
2015 04 09 08 00 08 .60     -40    -72      8     83     84 209.0   5.9  33322  275.53 0865.12
2015 04 09 08 00 08 .85     -39    -61      3     73     74 212.5   2.9  33324  275.58 0865.12
2015 04 09 08 00 09 .10     -43    -67      4     80     81 212.6   3.3  33328  275.63 0865.12
2015 04 09 08 00 09 .35     -41    -61     -1     74     75 214.3  -1.2  33328  275.63 0865.12
2015 04 09 08 00 09 .60     -30    -77      4     83     84 201.4   3.3  33328  275.65 0865.12
2015 04 09 08 00 09 .85     -30    -77      4     83     84 201.4   3.3  33326  275.60 0865.12
2015 04 09 08 00 10 .11     -31    -82      4     88     89 200.9   2.9  33340  275.83 0865.12
2015 04 09 08 00 10 .36     -36    -66     -1     76     77 209.0  -1.2  33352  276.03 0865.12
2015 04 09 08 00 10 .60     -22    -84     22     87     90 195.1  14.3  33378  276.48 0865.12
2015 04 09 08 00 10 .85     -16    -69     28     71     76 193.4  22.0  33384  276.58 0865.12
2015 04 09 08 00 11 .10     -17    -66      8     69     70 194.3   6.9  33406  276.94 0865.11
2015 04 09 08 00 11 .36     -14    -72      3     74     75 191.5   2.8  33398  276.81 0865.11
2015 04 09 08 00 11 .61     -15    -69      7     71     72 192.5   5.9  33392  276.71 0865.11
2015 04 09 08 00 11 .86       5    -67     24     68     73 175.6  19.4  33372  276.38 0865.11
2015 04 09 08 00 12 .12      -9    -72      3     73     74 187.1   2.9  33360  276.16 0865.11
2015 04 09 08 00 12 .36     -22    -76      9     80     81 196.0   6.5  33340  275.83 0865.11
2015 04 09 08 00 12 .62     -10    -84      4     85     86 187.1   2.9  33330  275.68 0865.11
2015 04 09 08 00 12 .86      -5    -73      3     74     75 184.5   2.8  33360  276.16 0865.11
2015 04 09 08 00 13 .12      -8    -94    -12     95     96 184.9  -7.3  33342  275.88 0865.11
2015 04 09 08 00 13 .37     -12    -61      3     63     64 191.5   2.9  33376  276.43 0865.11
2015 04 09 08 00 13 .62     -23    -50     15     56     59 205.3  15.3  33396  276.78 0865.11
2015 04 09 08 00 13 .87      -6    -60     16     61     64 186.2  15.3  33378  276.46 0865.11
2015 04 09 08 00 14 .12     -10    -77     10     78     79 188.0   8.0  33322  275.55 0865.11
2015 04 09 08 00 14 .37      -8    -80     13     81     83 186.2   9.5  33330  275.68 0865.11
2015 04 09 08 00 14 .62      -5    -75     17     76     78 184.5  12.6  33326  275.60 0865.11
2015 04 09 08 00 14 .87      -9    -77     22     78     82 187.1  15.8  33326  275.60 0865.12
2015 04 09 08 00 15 .12      -9    -72     14     73     75 187.1  11.1  33324  275.58 0865.12
2015 04 09 08 00 15 .37      -1    -68     13     69     71 181.0  11.1  33328  275.63 0865.12
2015 04 09 08 00 15 .62      -3    -75      6     76     77 182.7   4.9  33322  275.55 0865.12
2015 04 09 08 00 15 .87      -1    -71      8     72     73 180.9   6.9  33324  275.58 0865.12
2015 04 09 08 00 16 .12      -5    -71      3     72     73 184.4   2.9  33322  275.53 0865.12
2015 04 09 08 00 16 .37      -7    -70      7     71     72 186.2   5.9  33328  275.65 0865.12
2015 04 09 08 00 16 .62     -11    -60     12     62     64 190.7  11.1  33332  275.70 0865.12
2015 04 09 08 00 16 .87      -9    -64     14     65     67 188.0  12.2  33330  275.68 0865.12
2015 04 09 08 00 17 .13     -14    -71     14     73     75 191.5  11.1  33334  275.75 0865.12
2015 04 09 08 00 17 .38     -17    -63     12     66     68 195.2  11.0  33326  275.60 0865.11
2015 04 09 08 00 17 .63     -14    -64      9     66     67 192.5   8.0  33328  275.63 0865.11
2015 04 09 08 00 17 .88     -14    -64      9     66     67 192.5   8.0  33328  275.63 0865.11
2015 04 09 08 00 18 .13     -13    -69      3     71     72 190.7   2.9  33334  275.73 0865.11
2015 04 09 08 00 18 .39       0    -60     -2     61     62 180.0  -2.2  33356  276.11 0865.11
2015 04 09 08 00 18 .63       0    -61      5     62     63 180.9   4.9  33366  276.28 0865.11
2015 04 09 08 00 18 .90      -4    -57      6     58     59 184.5   5.9  33372  276.38 0865.11
2015 04 09 08 00 19 .14      -9    -49      8     50     51 190.7  10.1  33380  276.51 0865.11
2015 04 09 08 00 19 .40     -10    -76      3     77     78 188.0   2.9  33336  275.78 0865.12
2015 04 09 08 00 19 .65      -5    -71     -1     72     73 184.4  -1.3  33384  276.56 0865.12
2015 04 09 08 00 19 .90     -16    -60     22     63     67 195.1  19.4  33414  277.06 0865.12
2015 04 09 08 00 20 .14      -9    -49     28     50     57 190.7  32.4  33412  277.02 0865.12
2015 04 09 08 00 20 .40     -10    -58     22     59     62 189.8  21.0  33398  276.81 0865.12
2015 04 09 08 00 20 .64      -6    -52     18     53     57 187.1  19.4  33362  276.20 0865.12
2015 04 09 08 00 20 .89      -2    -44     15     45     48 182.7  19.4  33354  276.08 0865.12
2015 04 09 08 00 21 .15      -9    -48      6     49     50 190.7   8.0  33332  275.70 0865.11
2015 04 09 08 00 21 .39      -6    -46     10     47     49 188.0  12.2  33334  275.73 0865.11
2015 04 09 08 00 21 .65       0    -49      2     50     51 180.0   2.9  33326  275.60 0865.11
2015 04 09 08 00 21 .90       0    -49      2     50     51 180.0   2.9  33326  275.60 0865.11
2015 04 09 08 00 22 .15      -5    -40      5     41     42 187.1   8.0  33342  275.88 0865.11
2015 04 09 08 00 22 .41      -9    -35     15     37     39 195.1  24.1  33390  276.68 0865.11
2015 04 09 08 00 22 .65      -6    -31     17     32     36 191.6  29.3  33408  276.96 0865.11
2015 04 09 08 00 22 .90      -6    -28     13     29     31 193.4  27.1  33398  276.81 0865.12
2015 04 09 08 00 23 .15      13    -32     20     35     40 158.2  32.4  33376  276.43 0865.12
2015 04 09 08 00 23 .40      15    -21     15     26     30 143.9  33.5  33382  276.53 0865.12
2015 04 09 08 00 23 .65      -1    -27     12     28     30 182.7  25.1  33384  276.58 0865.12
2015 04 09 08 00 23 .90       0    -28     11     29     31 180.9  21.0  33384  276.58 0865.12
2015 04 09 08 00 24 .15      -3    -22      8     23     25 188.0  18.9  33362  276.21 0865.12
2015 04 09 08 00 24 .41      -4    -20     13     21     24 193.4  35.5  33368  276.31 0865.12
2015 04 09 08 00 24 .65      -8    -26     15     28     31 198.5  29.3  33364  276.23 0865.12
2015 04 09 08 00 24 .91     -19    -23      4     30     31 219.7   9.0  33350  276.01 0865.12
2015 04 09 08 00 25 .16     -15    -21     11     26     28 216.1  21.0  33378  276.48 0865.12
2015 04 09 08 00 25 .41     -14    -20     12     25     27 216.1  27.2  33376  276.43 0865.12
2015 04 09 08 00 25 .66      -1    -12     23     13     26 186.2  66.8  33394  276.74 0865.12
2015 04 09 08 00 25 .92       2     -4     21      5     21 147.5  86.9  33410  277.01 0865.12
2015 04 09 08 00 26 .17       7     -3     20      8     21 115.3  77.1  33412  277.04 0865.12
2015 04 09 08 00 26 .42       0      0     19      1     19 189.7  90.0  33428  277.29 0865.12
2015 04 09 08 00 26 .67       4    -16     11     17     20 164.9  37.6  33404  276.89 0865.12
2015 04 09 08 00 26 .92      -2     -7      9      8     12 198.5  52.2  33392  276.71 0865.12
2015 04 09 08 00 27 .17       8    -20     13     22     25 158.2  35.5  33390  276.66 0865.12
2015 04 09 08 00 27 .42      13    -14     13     20     23 138.6  35.5  33398  276.81 0865.12
2015 04 09 08 00 27 .67      21    -27     12     35     38 142.2  18.9  33378  276.46 0865.13
2015 04 09 08 00 27 .93      19    -23     10     30     32 140.4  18.9  33400  276.84 0865.13
2015 04 09 08 00 28 .17      13     -8     26     16     30 122.4  64.7  33420  277.17 0865.13
2015 04 09 08 00 28 .42       0    -18     17     19     25 182.7  47.9  33414  277.06 0865.13
2015 04 09 08 00 28 .67       0    -19     24     20     31 180.9  56.3  33418  277.14 0865.13
2015 04 09 08 00 28 .93       9    -11     31     15     34 140.4  72.9  33422  277.21 0865.13
2015 04 09 08 00 29 .17       1    -18     28     19     33 175.5  62.6  33424  277.24 0865.13
2015 04 09 08 00 29 .42       6    -23     24     24     33 164.9  50.1  33430  277.34 0865.13
2015 04 09 08 00 29 .67      -2    -31     16     32     35 184.5  27.3  33428  277.29 0865.13
2015 04 09 08 00 29 .93       0    -22     19     23     29 179.1  43.7  33434  277.39 0865.13
2015 04 09 08 00 30 .18      14    -31     21     35     40 154.7  34.4  33450  277.67 0865.13
2015 04 09 08 00 30 .43      14    -17     32     23     39 140.4  60.5  33446  277.59 0865.13
2015 04 09 08 00 30 .68       2    -28     28     29     40 175.5  50.0  33454  277.74 0865.13
2015 04 09 08 00 30 .93       2    -34     22     35     41 175.5  35.5  33426  277.26 0865.13
2015 04 09 08 00 31 .18       5    -23     37     24     44 166.6  63.6  33446  277.59 0865.13
2015 04 09 08 00 31 .43      12    -11     30     17     34 133.3  68.8  33438  277.46 0865.13
2015 04 09 08 00 31 .68      17     -7     24     19     30 111.7  56.4  33424  277.24 0865.13
2015 04 09 08 00 31 .93      25    -28     24     38     44 138.6  35.5  33396  276.78 0865.13
2015 04 09 08 00 32 .18      22    -31     22     39     44 143.9  32.4  33362  276.20 0865.12
2015 04 09 08 00 32 .44      31    -39     24     51     56 141.3  27.1  33400  276.83 0865.12
2015 04 09 08 00 32 .69      23    -40     28     47     54 150.1  34.4  33412  277.04 0865.12
2015 04 09 08 00 32 .94      26    -43     18     51     55 149.3  19.2  33402  276.86 0865.12
2015 04 09 08 00 33 .20      19    -34     19     40     44 151.0  26.2  33406  276.94 0865.12
2015 04 09 08 00 33 .44      11    -15     40     19     44 143.9  74.0  33408  276.96 0865.12
2015 04 09 08 00 33 .70       2      2     34      3     34  45.0  90.0  33420  277.16 0865.12
2015 04 09 08 00 33 .94      13     -8     26     16     30 122.4  64.7  33414  277.06 0865.12
2015 04 09 08 00 34 .24      17    -53     19     56     60 161.7  19.4  33350  276.00 0865.12
2015 04 09 08 00 34 .45      16    -59     17     62     65 164.8  15.3  33348  275.98 0865.12
2015 04 09 08 00 34 .70      16    -49     10     52     53 161.5  11.0  33344  275.91 0865.12
2015 04 09 08 00 34 .95      18    -39     10     44     46 154.6  13.2  33348  275.98 0865.12
2015 04 09 08 00 35 .20       5    -23     30     24     38 166.6  56.4  33368  276.30 0865.12
2015 04 09 08 00 35 .45      13    -39     26     42     49 161.5  35.5  33342  275.86 0865.12
2015 04 09 08 00 35 .70      11    -49     24     51     56 167.5  27.1  33352  276.03 0865.12
2015 04 09 08 00 35 .95      14    -46     20     49     52 163.1  23.0  33386  276.59 0865.12
2015 04 09 08 00 36 .20      17    -22     24     29     37 142.2  43.8  33424  277.24 0865.12
2015 04 09 08 00 36 .46      17    -26     22     32     38 147.5  37.6  33416  277.11 0865.12
2015 04 09 08 00 36 .70      13    -23     20     27     33 149.3  41.7  33436  277.44 0865.12
2015 04 09 08 00 36 .95      36    -12     24     39     45 108.6  35.5  33400  276.83 0865.12
2015 04 09 08 00 37 .21      27    -43     29     52     59 147.5  31.4  33332  275.72 0865.12
2015 04 09 08 00 37 .45      30    -34     34     46     57 138.6  40.7  33374  276.41 0865.12
2015 04 09 08 00 37 .70      27    -31     26     42     49 139.5  35.5  33338  275.82 0865.12
2015 04 09 08 00 37 .95      24    -35     17     43     46 145.7  22.0  33320  275.52 0865.12
2015 04 09 08 00 38 .20      30    -44     22     54     58 145.7  22.0  33324  275.57 0865.12
2015 04 09 08 00 38 .45      27    -40     19     49     52 145.7  22.0  33322  275.53 0865.12
2015 04 09 08 00 38 .71      30    -34     22     46     51 138.6  27.2  33320  275.50 0865.12
2015 04 09 08 00 38 .95      22    -33     15     40     42 145.7  21.0  33322  275.53 0865.12
2015 04 09 08 00 39 .20      20    -32      6     38     39 147.4  10.1  33318  275.47 0865.12
2015 04 09 08 00 39 .46      25    -30      6     40     41 140.4   9.0  33318  275.48 0865.12
2015 04 09 08 00 39 .72      30    -23      3     39     40 127.8   4.9  33326  275.60 0865.12
2015 04 09 08 00 39 .98      22    -22     -4     32     33 135.0  -7.3  33366  276.26 0865.12
2015 04 09 08 00 40 .22      13    -23     20     27     33 149.3  41.7  33390  276.68 0865.12
2015 04 09 08 00 40 .47     -10    -32     20     34     39 198.3  33.5  33384  276.58 0865.12
2015 04 09 08 00 40 .72      -6    -26     20     27     33 193.4  41.7  33378  276.48 0865.12
2015 04 09 08 00 40 .98       5    -23     17     24     29 166.6  37.6  33374  276.41 0865.12
2015 04 09 08 00 41 .22      15    -12     22     20     29 129.5  50.1  33396  276.76 0865.12
2015 04 09 08 00 41 .47      13      0     32     14     34  90.0  73.1  33402  276.88 0865.12
2015 04 09 08 00 41 .72      24      8     31     26     40  71.6  55.4  33378  276.46 0865.12
2015 04 09 08 00 41 .98       2      2     22      3     22  45.0  90.0  33380  276.51 0865.13
2015 04 09 08 00 42 .23       0    -11     18     12     21 180.9  62.6  33398  276.81 0865.13
2015 04 09 08 00 42 .47      18    -31     11     37     39 149.3  17.3  33366  276.28 0865.13
2015 04 09 08 00 42 .73      16    -16     10     24     26 135.0  23.0  33374  276.39 0865.13
2015 04 09 08 00 42 .98      22    -13     32     26     41 120.7  56.4  33412  277.04 0865.13
2015 04 09 08 00 43 .23      29    -27     16     40     43 133.1  22.0  33370  276.33 0865.13
2015 04 09 08 00 43 .48      37    -28     18     47     50 126.9  21.0  33344  275.90 0865.13
2015 04 09 08 00 43 .73      34    -34     13     49     51 135.0  15.3  33360  276.16 0865.12
2015 04 09 08 00 43 .98      22    -39      8     46     47 150.1  10.1  33376  276.44 0865.12
2015 04 09 08 00 44 .23      18    -58     -1     61     62 162.2  -1.3  33370  276.34 0865.12
2015 04 09 08 00 44 .48      22    -53      0     58     59 157.3  -0.3  33340  275.83 0865.12
2015 04 09 08 00 44 .73      10    -48      2     50     51 167.5   2.9  33346  275.95 0865.12
2015 04 09 08 00 44 .98      19    -50     -2     54     55 159.1  -2.2  33322  275.55 0865.12
2015 04 09 08 00 45 .23      16    -47     -2     50     51 160.8  -3.1  33334  275.73 0865.12
2015 04 09 08 00 45 .48       6    -57     -7     58     59 173.8  -7.3  33346  275.93 0865.12
2015 04 09 08 00 45 .74       7    -53      2     54     55 172.0   2.8  33352  276.03 0865.12
2015 04 09 08 00 45 .98       9    -49      2     50     51 169.3   2.9  33350  276.00 0865.12
2015 04 09 08 00 46 .23      12    -49      2     51     52 165.7   2.9  33342  275.86 0865.12
2015 04 09 08 00 46 .49      17    -54     -2     57     58 162.2  -2.2  33346  275.93 0865.12
2015 04 09 08 00 46 .74      14    -46     -1     49     50 162.2  -2.2  33342  275.86 0865.12
2015 04 09 08 00 46 .99      16    -50      0     53     54 162.2   0.8  33334  275.73 0865.12
2015 04 09 08 00 47 .24      10    -48     -2     50     51 167.5  -3.1  33318  275.48 0865.12
2015 04 09 08 00 47 .49      13    -54     -2     56     57 165.7  -2.2  33320  275.52 0865.12
2015 04 09 08 00 47 .75      10    -54      0     55     56 169.3   0.8  33324  275.58 0865.12
2015 04 09 08 00 48 .01      19    -59     -1     63     64 161.5  -1.3  33354  276.06 0865.12
2015 04 09 08 00 48 .26      10    -52     -3     54     55 168.5  -4.1  33344  275.90 0865.12
2015 04 09 08 00 48 .50      13    -45      5     48     49 163.1   6.9  33358  276.13 0865.12
2015 04 09 08 00 48 .75       8    -40      8     41     42 167.5  11.1  33346  275.95 0865.12
2015 04 09 08 00 49 .01       7    -46      1     47     48 170.2   1.8  33360  276.18 0865.12
2015 04 09 08 00 49 .25      15    -33     16     37     40 154.5  25.1  33376  276.44 0865.12
2015 04 09 08 00 49 .50      14    -42     15     45     48 160.8  19.2  33324  275.58 0865.12
2015 04 09 08 00 49 .75       7    -45     16     46     49 171.1  19.4  33324  275.58 0865.12
2015 04 09 08 00 50 .00      10    -50     18     52     56 168.5  19.4  33326  275.62 0865.12
2015 04 09 08 00 50 .25       7    -45     16     46     49 171.1  19.4  33324  275.58 0865.12
2015 04 09 08 00 50 .50       5    -41     13     42     45 172.0  17.3  33326  275.60 0865.12
2015 04 09 08 00 50 .75      18    -39     10     44     46 154.6  13.2  33324  275.58 0865.12
2015 04 09 08 00 51 .00      23    -33      8     41     42 145.7  12.2  33326  275.60 0865.12
2015 04 09 08 00 51 .25      23    -33      8     41     42 145.7  12.2  33326  275.60 0865.12
2015 04 09 08 00 51 .50      20    -35     14     41     44 149.3  19.4  33326  275.60 0865.12
2015 04 09 08 00 51 .75      18    -31     17     37     40 149.3  26.2  33328  275.65 0865.12
2015 04 09 08 00 52 .01      16    -24     17     30     34 145.7  31.4  33326  275.62 0865.11
2015 04 09 08 00 52 .25      16    -28     16     33     36 149.3  27.2  33328  275.63 0865.11
2015 04 09 08 00 52 .51      13    -23     13     27     29 149.3  27.3  33330  275.67 0865.11
2015 04 09 08 00 52 .76       7    -26     19     27     33 164.9  39.7  33330  275.68 0865.11
2015 04 09 08 00 53 .01      17    -26     22     32     38 147.5  37.6  33332  275.70 0865.11
2015 04 09 08 00 53 .26      10    -32     21     34     39 161.7  34.4  33332  275.72 0865.11
2015 04 09 08 00 53 .51       8    -35     12     36     39 166.6  19.4  33330  275.68 0865.11
2015 04 09 08 00 53 .77       5    -42     -1     43     44 172.0  -2.2  33332  275.72 0865.11
2015 04 09 08 00 54 .02      21    -46      0     51     52 154.6   0.8  33340  275.83 0865.11
2015 04 09 08 00 54 .27      19    -50     -2     54     55 159.1  -2.2  33338  275.82 0865.11
2015 04 09 08 00 54 .52      13    -39      6     42     43 160.8   9.0  33342  275.88 0865.11
2015 04 09 08 00 54 .78      24    -38     -1     46     47 147.5  -2.2  33350  276.00 0865.11
2015 04 09 08 00 55 .02      16    -38     -1     42     43 156.4  -2.2  33358  276.13 0865.11
2015 04 09 08 00 55 .27       9    -32      8     34     35 163.1  13.2  33358  276.15 0865.11
2015 04 09 08 00 55 .52       9    -27     17     29     33 160.0  33.5  33354  276.06 0865.12
2015 04 09 08 00 55 .77       9    -27     17     29     33 160.0  33.5  33350  276.00 0865.12
2015 04 09 08 00 56 .02       3    -31     24     32     40 173.8  40.7  33340  275.83 0865.12
2015 04 09 08 00 56 .28       3    -38     23     39     45 175.5  34.4  33352  276.03 0865.12
2015 04 09 08 00 56 .53      -1    -37     46     38     59 182.6  56.4  33384  276.58 0865.12
2015 04 09 08 00 56 .78       0    -49     24     50     55 180.9  27.3  33360  276.18 0865.12
2015 04 09 08 00 57 .03      -3    -39     28     40     48 184.5  38.6  33376  276.43 0865.12
2015 04 09 08 00 57 .28      -6    -31     30     32     43 191.6  50.0  33380  276.51 0865.12
2015 04 09 08 00 57 .53      -5    -34     32     35     47 189.8  47.9  33382  276.54 0865.12
2015 04 09 08 00 57 .78      -2    -38     34     39     51 184.4  45.8  33380  276.51 0865.12
2015 04 09 08 00 58 .03      -5    -42     20     43     47 188.0  26.2  33390  276.68 0865.12
2015 04 09 08 00 58 .28      -6    -51     18     52     56 187.1  19.4  33416  277.11 0865.12
2015 04 09 08 00 58 .53      -1    -53     18     54     58 181.8  18.9  33372  276.38 0865.12
2015 04 09 08 00 58 .78       5    -56     13     57     59 174.7  13.2  33358  276.15 0865.12
2015 04 09 08 00 59 .03      14    -46     -1     49     50 162.2  -2.2  33342  275.86 0865.13
2015 04 09 08 00 59 .29      -8    -42      0     43     44 191.6   0.8  33352  276.03 0865.13
2015 04 09 08 00 59 .54     -17    -42      3     46     47 202.7   4.9  33372  276.38 0865.13
2015 04 09 08 00 59 .79      -7    -46     10     47     49 189.8  12.2  33398  276.79 0865.13
2015 04 09 08 01 00 .03      -3    -53     15     54     57 183.6  16.3  33358  276.13 0865.13
2015 04 09 08 01 00 .29      10    -54     15     55     58 169.3  15.3  33346  275.93 0865.13
2015 04 09 08 01 00 .55       4    -45     11     46     48 174.7  14.3  33346  275.93 0865.13
2015 04 09 08 01 00 .80      -7    -37     11     38     40 191.6  16.3  33364  276.23 0865.13
2015 04 09 08 01 01 .05      -1    -30     -1     31     32 182.6  -2.2  33344  275.91 0865.13
2015 04 09 08 01 01 .31       9    -31      1     33     34 163.1   2.9  33340  275.83 0865.13
2015 04 09 08 01 01 .55       3    -34     12     35     38 173.8  18.9  33386  276.59 0865.13
2015 04 09 08 01 01 .80      -1    -31     15     32     35 182.7  27.2  33410  276.99 0865.13
2015 04 09 08 01 02 .05     -19    -14     20     24     31 234.0  43.8  33402  276.88 0865.13
2015 04 09 08 01 02 .30      -6    -20     13     21     24 196.9  35.5  33398  276.81 0865.13
2015 04 09 08 01 02 .55      -4    -26     20     27     33 189.8  41.7  33404  276.89 0865.13
2015 04 09 08 01 02 .80       2    -18     22     19     29 172.0  52.2  33402  276.86 0865.13
2015 04 09 08 01 03 .06      -4    -12     26     13     29 198.3  72.9  33402  276.86 0865.13
2015 04 09 08 01 03 .30     -19    -19     32     27     41 225.0  55.4  33400  276.83 0865.13
2015 04 09 08 01 03 .55      -6    -18     39     20     43 198.7  71.9  33388  276.64 0865.13
2015 04 09 08 01 03 .80      16    -35     28     39     48 154.6  38.6  33360  276.18 0865.13
2015 04 09 08 01 04 .05      13    -39     26     42     49 161.5  35.5  33332  275.70 0865.13
2015 04 09 08 01 04 .30      13    -44     26     47     53 163.1  31.4  33328  275.65 0865.13
2015 04 09 08 01 04 .56      12    -41     18     43     46 163.1  23.0  33338  275.80 0865.13
2015 04 09 08 01 04 .81       0    -38     33     39     51 180.9  44.8  33386  276.61 0865.13
2015 04 09 08 01 05 .05       0    -34     30     35     46 179.1  45.8  33386  276.61 0865.13
2015 04 09 08 01 05 .31      -2    -31     28     32     42 184.5  46.9  33388  276.63 0865.13
2015 04 09 08 01 05 .56      -2    -31     28     32     42 184.5  46.9  33386  276.59 0865.13
2015 04 09 08 01 05 .81       1    -29     14     30     33 177.3  27.1  33340  275.85 0865.13
2015 04 09 08 01 06 .06      13    -32     12     35     38 158.2  18.9  33332  275.72 0865.13
2015 04 09 08 01 06 .31      11    -34     12     36     39 161.3  19.4  33330  275.68 0865.13
2015 04 09 08 01 06 .56       9    -32      8     34     35 163.1  13.2  33330  275.67 0865.13
2015 04 09 08 01 06 .81       9    -32      8     34     35 163.1  13.2  33332  275.72 0865.13
2015 04 09 08 01 07 .06       8    -22      8     24     26 160.0  18.9  33330  275.67 0865.13
2015 04 09 08 01 07 .31      13    -23     13     27     29 149.3  27.3  33332  275.70 0865.13
2015 04 09 08 01 07 .57       7    -23     16     25     29 161.5  35.5  33330  275.68 0865.13
2015 04 09 08 01 07 .82       7    -26     14     27     30 164.9  29.3  33328  275.65 0865.13
2015 04 09 08 01 08 .07       5    -27     13     28     30 168.4  27.1  33332  275.70 0865.13
2015 04 09 08 01 08 .33       6    -20     19     22     29 161.5  47.9  33340  275.83 0865.13
2015 04 09 08 01 08 .58       0    -23     13     24     27 180.9  31.4  33332  275.70 0865.13
2015 04 09 08 01 08 .82       5    -23     23     24     33 166.6  52.0  33328  275.63 0865.13
2015 04 09 08 01 09 .07      -1    -31     19     32     37 182.6  35.5  33330  275.68 0865.13
2015 04 09 08 01 09 .33       0    -31     19     32     37 179.1  35.5  33334  275.73 0865.13
2015 04 09 08 01 09 .58      -1    -31     19     32     37 182.6  35.5  33342  275.88 0865.13
2015 04 09 08 01 09 .83      -3    -23     22     24     32 188.0  50.0  33354  276.06 0865.13
2015 04 09 08 01 10 .08      -8    -26     28     28     39 198.5  50.1  33336  275.78 0865.13
2015 04 09 08 01 10 .33       0    -11     24     12     26 180.9  70.8  33360  276.18 0865.13
2015 04 09 08 01 10 .58      17     -7     30     19     35 111.7  64.7  33358  276.15 0865.13
2015 04 09 08 01 10 .83      27    -17      7     32     33 122.4  13.2  33336  275.78 0865.13
2015 04 09 08 01 11 .08      32    -17      1     37     38 118.9   2.9  33336  275.77 0865.13
2015 04 09 08 01 11 .33      28    -13      0     32     33 115.2   0.8  33328  275.63 0865.13
2015 04 09 08 01 11 .58      33    -21     -1     40     41 122.4  -2.2  33328  275.65 0865.13
2015 04 09 08 01 11 .83      27    -17     -1     32     33 122.4  -2.2  33332  275.70 0865.13
2015 04 09 08 01 12 .08      23    -19      4     30     31 129.5   9.0  33332  275.70 0865.13
2015 04 09 08 01 12 .33      23    -24     -4     34     35 136.6  -7.3  33332  275.72 0865.13
2015 04 09 08 01 12 .58      25    -29    -14     39     42 139.5 -19.7  33332  275.70 0865.13
2015 04 09 08 01 12 .83      26    -27    -11     38     40 136.6 -16.6  33336  275.78 0865.13
2015 04 09 08 01 13 .08      30    -25    -13     40     42 129.5 -22.8  33330  275.68 0865.13
2015 04 09 08 01 13 .33      26    -27    -11     38     40 136.6 -16.6  33330  275.68 0865.13
2015 04 09 08 01 13 .59      33    -21     -7     40     41 122.4 -10.3  33330  275.68 0865.13
2015 04 09 08 01 13 .84      30    -20      1     37     38 124.2   2.8  33334  275.73 0865.13
2015 04 09 08 01 14 .09      28    -19     -4     35     36 124.2  -7.2  33328  275.65 0865.13
2015 04 09 08 01 14 .34      33    -27     -1     43     44 129.5  -2.2  33330  275.67 0865.13
2015 04 09 08 01 14 .60      26    -28      1     39     40 136.6   1.8  33330  275.68 0865.13
2015 04 09 08 01 14 .85      35    -32      1     48     49 133.1   1.8  33328  275.63 0865.13
2015 04 09 08 01 15 .10      26    -28      1     39     40 136.6   1.8  33330  275.68 0865.13
2015 04 09 08 01 15 .35      25    -25      3     36     37 135.0   4.9  33326  275.62 0865.13
2015 04 09 08 01 15 .60      25    -34     11     43     45 143.9  15.3  33324  275.58 0865.13
2015 04 09 08 01 15 .85      25    -34     11     43     45 143.9  15.3  33328  275.63 0865.13
2015 04 09 08 01 16 .10      26    -28      1     39     40 136.6   1.8  33330  275.68 0865.13
2015 04 09 08 01 16 .35      25    -23      6     35     36 133.1  11.0  33328  275.63 0865.12
2015 04 09 08 01 16 .60      25    -25      3     36     37 135.0   4.9  33326  275.60 0865.12
2015 04 09 08 01 16 .85      26    -23     -1     35     36 131.3  -2.2  33328  275.65 0865.12
2015 04 09 08 01 17 .10      26    -28      1     39     40 136.6   1.8  33330  275.68 0865.12
2015 04 09 08 01 17 .35      26    -17      6     32     33 124.2  11.1  33334  275.73 0865.12
2015 04 09 08 01 17 .60      22    -22     10     32     34 135.0  17.3  33332  275.72 0865.12
2015 04 09 08 01 17 .85      21    -25      6     33     34 140.4  11.1  33328  275.63 0865.12
2015 04 09 08 01 18 .11      31    -24     17     40     43 127.8  23.0  33332  275.72 0865.12
2015 04 09 08 01 18 .36      26    -23     12     35     38 131.3  18.9  33336  275.77 0865.12
2015 04 09 08 01 18 .61      23    -23     15     33     36 135.0  27.1  33336  275.78 0865.12
2015 04 09 08 01 18 .86      17    -27     20     33     38 147.5  35.5  33330  275.67 0865.12
2015 04 09 08 01 19 .11      17    -22     24     29     37 142.2  43.8  33336  275.78 0865.12
2015 04 09 08 01 19 .36      20    -20     20     29     35 135.0  35.6  33336  275.78 0865.12
2015 04 09 08 01 19 .61      16    -16     17     24     29 134.9  37.6  33338  275.82 0865.12
2015 04 09 08 01 19 .86      23    -17     15     29     32 126.0  29.3  33336  275.78 0865.12
2015 04 09 08 01 20 .11      17    -18     11     25     27 136.6  25.1  33334  275.73 0865.12
2015 04 09 08 01 20 .36      17    -18     11     25     27 136.6  25.1  33334  275.73 0865.12
2015 04 09 08 01 20 .61      13    -13     10     19     21 135.0  29.3  33332  275.70 0865.12
2015 04 09 08 01 20 .86       7     -7      8     11     13 135.0  39.7  33342  275.86 0865.12
2015 04 09 08 01 21 .12       5     -4     12      7     13 133.3  68.8  33360  276.16 0865.12
2015 04 09 08 01 21 .37       3     -8     11      9     14 154.6  52.2  33358  276.13 0865.12
2015 04 09 08 01 21 .62       8     -8      9     12     15 133.1  43.7  33334  275.75 0865.12
2015 04 09 08 01 21 .93       3    -12      9     13     15 164.9  35.6  33334  275.75 0865.12
2015 04 09 08 01 22 .12       9    -16      9     19     21 151.0  27.2  33334  275.75 0865.12
2015 04 09 08 01 22 .37      15    -16     12     23     25 136.8  29.3  33330  275.67 0865.12
2015 04 09 08 01 22 .62      11    -18     11     22     24 149.3  27.2  33328  275.63 0865.12
2015 04 09 08 01 22 .87       6    -18     13     20     23 161.3  35.5  33324  275.57 0865.12
2015 04 09 08 01 23 .13      22    -22     10     32     34 135.0  17.3  33330  275.67 0865.12
2015 04 09 08 01 23 .38      15    -17      8     24     26 138.6  19.4  33326  275.60 0865.12
2015 04 09 08 01 23 .63      16    -21      4     27     28 142.2   9.0  33326  275.60 0865.13
2015 04 09 08 01 23 .88      15    -21      9     26     28 143.9  19.2  33332  275.70 0865.13
2015 04 09 08 01 24 .13      15    -17      8     24     26 138.6  19.4  33324  275.57 0865.13
2015 04 09 08 01 24 .38      16    -21      4     27     28 142.2   9.0  33326  275.60 0865.13
2015 04 09 08 01 24 .63      13    -21      6     25     26 147.5  15.3  33328  275.63 0865.13
2015 04 09 08 01 24 .88      15    -17      1     24     25 138.6   2.9  33328  275.63 0865.13
2015 04 09 08 01 25 .13      11    -18      5     22     23 147.5  13.2  33326  275.60 0865.13
2015 04 09 08 01 25 .38      16    -21      4     27     28 142.2   9.0  33326  275.60 0865.13
2015 04 09 08 01 25 .63      10    -18      4     21     22 149.3  11.1  33326  275.62 0865.13
2015 04 09 08 01 25 .88      10    -19      0     22     23 151.0  -2.2  33330  275.68 0865.13
2015 04 09 08 01 26 .13      13    -23     -6     27     28 151.0 -13.4  33324  275.58 0865.13
2015 04 09 08 01 26 .39      10    -28     -1     30     31 160.0  -3.1  33328  275.63 0865.13
2015 04 09 08 01 26 .63      13    -22     -1     26     27 149.3  -2.2  33326  275.60 0865.13
2015 04 09 08 01 26 .88      16    -27     -4     32     33 149.3  -7.3  33328  275.65 0865.13
2015 04 09 08 01 27 .13      15    -17      1     24     25 138.6   2.9  33328  275.63 0865.13
2015 04 09 08 01 27 .38       8    -22      1     24     25 160.0   2.8  33324  275.58 0865.13
2015 04 09 08 01 27 .64       8    -22      1     24     25 160.0   2.8  33324  275.58 0865.13
2015 04 09 08 01 27 .89      16    -21      4     27     28 142.2   9.0  33326  275.60 0865.13
2015 04 09 08 01 28 .14      16    -21      4     27     28 142.2   9.0  33326  275.60 0865.13
2015 04 09 08 01 28 .40      16    -21      4     27     28 142.2   9.0  33326  275.60 0865.14
2015 04 09 08 01 28 .65      10    -19      0     22     23 151.0  -2.2  33328  275.63 0865.14
2015 04 09 08 01 28 .90      10    -19      0     22     23 151.0  -2.2  33328  275.63 0865.14
2015 04 09 08 01 29 .15       8    -23     -9     25     26 160.0 -23.3  33328  275.63 0865.14
2015 04 09 08 01 29 .40       8    -23     -9     25     26 160.0 -23.3  33328  275.63 0865.14
2015 04 09 08 01 29 .65       6    -18    -11     20     22 161.3 -35.8  33332  275.70 0865.14
2015 04 09 08 01 29 .90      13    -23    -11     27     29 149.3 -25.4  33328  275.65 0865.14
2015 04 09 08 01 30 .15      13    -23    -11     27     29 149.3 -25.4  33328  275.65 0865.13
2015 04 09 08 01 30 .40      16    -18     -9     25     26 138.6 -23.3  33330  275.68 0865.13
2015 04 09 08 01 30 .65       6    -18    -11     20     22 161.3 -35.8  33332  275.70 0865.13
2015 04 09 08 01 30 .90      13    -23    -11     27     29 149.3 -25.4  33328  275.65 0865.13
2015 04 09 08 01 31 .15       8    -15     -9     18     20 151.0 -33.7  33334  275.73 0865.13
2015 04 09 08 01 31 .41       8    -20    -11     22     24 158.2 -31.6  33330  275.67 0865.13
2015 04 09 08 01 31 .65       1    -18     -9     19     21 175.5 -31.6  33330  275.68 0865.13
2015 04 09 08 01 31 .91       5    -23     -7     24     25 166.6 -21.7  33328  275.65 0865.13
2015 04 09 08 01 32 .16       6    -18    -11     20     22 161.3 -35.8  33332  275.70 0865.13
2015 04 09 08 01 32 .41       5    -23     -7     24     25 166.6 -21.7  33328  275.65 0865.13
2015 04 09 08 01 32 .66       0    -20     -6     21     23 179.1 -17.6  33330  275.68 0865.13
2015 04 09 08 01 32 .91       0    -20     -6     21     23 182.7 -17.6  33328  275.63 0865.13
2015 04 09 08 01 33 .16       5    -23     -7     24     25 166.6 -21.7  33326  275.60 0865.13
2015 04 09 08 01 33 .41       8    -11    -11     14     17 143.9 -48.1  33330  275.67 0865.13
2015 04 09 08 01 33 .66       7    -19    -12     21     24 160.0 -35.8  33332  275.72 0865.12
2015 04 09 08 01 33 .91      11    -20     -8     23     24 151.0 -23.6  33326  275.60 0865.12
2015 04 09 08 01 34 .17      15    -34     -4     38     39 156.4  -7.3  33368  276.30 0865.12
2015 04 09 08 01 34 .41      10    -22      0     25     26 154.6  -1.3  33410  277.01 0865.12
2015 04 09 08 01 34 .66       0    -22      7     23     25 180.9  17.3  33392  276.69 0865.12
2015 04 09 08 01 34 .92      -2    -24     16     25     29 186.2  35.5  33388  276.63 0865.12
2015 04 09 08 01 35 .17     -14    -27     18     31     35 207.2  35.5  33408  276.96 0865.12
2015 04 09 08 01 35 .43     -14    -35     18     38     42 201.8  27.2  33422  277.21 0865.12
2015 04 09 08 01 35 .68     -11    -34     22     36     42 198.7  34.4  33426  277.26 0865.12
2015 04 09 08 01 35 .93     -32    -35     26     48     54 222.3  31.4  33440  277.51 0865.12
2015 04 09 08 01 36 .18     -32    -27     20     43     47 229.6  26.2  33448  277.64 0865.12
2015 04 09 08 01 36 .43     -25     -8     26     27     37 251.8  52.0  33460  277.82 0865.12
2015 04 09 08 01 36 .68      -7     -7     24     11     26 225.0  75.0  33460  277.84 0865.12
2015 04 09 08 01 36 .93     -11      0     25     12     27 269.2  72.9  33444  277.56 0865.12
2015 04 09 08 01 37 .18      -4    -12     27     13     29 198.3  72.8  33450  277.67 0865.12
2015 04 09 08 01 37 .43     -14    -19     30     24     38 216.1  56.4  33422  277.21 0865.13
2015 04 09 08 01 37 .68     -23    -24     32     34     46 223.4  50.0  33424  277.24 0865.13
2015 04 09 08 01 37 .93     -40    -48     21     63     67 219.6  18.9  33434  277.39 0865.13
2015 04 09 08 01 38 .18     -41    -35     49     55     73 229.6  47.9  33442  277.54 0865.13
2015 04 09 08 01 38 .44     -43    -46     35     64     72 223.2  31.3  33436  277.42 0865.13
2015 04 09 08 01 38 .68     -41    -36     30     55     62 228.7  31.3  33438  277.46 0865.13
2015 04 09 08 01 38 .93     -37    -50     28     63     68 216.1  25.1  33428  277.29 0865.13
2015 04 09 08 01 39 .18     -27    -52     20     59     63 208.1  18.9  33422  277.21 0865.13
2015 04 09 08 01 39 .44     -30    -54     28     62     68 209.0  26.2  33422  277.19 0865.13
2015 04 09 08 01 39 .68     -30    -55     28     63     68 209.0  25.1  33434  277.39 0865.13
2015 04 09 08 01 39 .93     -18    -46     24     50     55 201.8  27.3  33422  277.19 0865.13
2015 04 09 08 01 40 .18     -26    -31     20     41     45 219.6  28.2  33428  277.29 0865.13
2015 04 09 08 01 40 .44     -27    -26     24     38     44 226.7  35.5  33430  277.34 0865.13
2015 04 09 08 01 40 .69     -17    -27     26     33     42 212.6  42.7  33440  277.51 0865.13
2015 04 09 08 01 40 .94     -16    -23     28     29     40 214.3  50.0  33436  277.42 0865.13
2015 04 09 08 01 41 .19     -13    -38     26     41     48 198.7  35.5  33434  277.41 0865.13
2015 04 09 08 01 41 .44     -16    -38     22     42     47 203.6  30.3  33414  277.06 0865.13
2015 04 09 08 01 41 .69     -16    -39     16     43     45 202.7  20.0  33366  276.28 0865.13
2015 04 09 08 01 41 .94      -3    -44      1     45     46 184.4   1.8  33342  275.88 0865.13
2015 04 09 08 01 42 .19      -7    -53      2     54     55 188.0   2.8  33332  275.70 0865.13
2015 04 09 08 01 42 .45      -6    -46     -2     47     48 188.0  -3.1  33336  275.78 0865.13
2015 04 09 08 01 42 .70     -13    -34     -2     37     38 201.8  -3.1  33336  275.78 0865.13
2015 04 09 08 01 42 .95      -7    -36      1     37     38 191.5   2.9  33342  275.86 0865.13
2015 04 09 08 01 43 .20     -10    -42     -5     44     45 194.3  -7.2  33342  275.86 0865.13
2015 04 09 08 01 43 .45      -3    -41     -1     42     43 185.3  -2.2  33334  275.75 0865.13
2015 04 09 08 01 43 .70     -12    -37     -1     40     41 198.7  -2.2  33332  275.70 0865.13
2015 04 09 08 01 43 .95     -10    -42     -5     44     45 194.3  -7.2  33328  275.65 0865.13
2015 04 09 08 01 44 .20     -10    -42      0     44     45 194.3   0.8  33328  275.63 0865.13
2015 04 09 08 01 44 .45      -5    -41     -1     42     43 188.0  -2.2  33326  275.60 0865.13
2015 04 09 08 01 44 .70       0    -41      3     42     43 180.0   4.9  33330  275.67 0865.13
2015 04 09 08 01 44 .97      -4    -34     -1     35     36 188.0  -2.2  33328  275.65 0865.13
2015 04 09 08 01 45 .21     -11    -39     -6     41     42 196.9  -9.3  33328  275.63 0865.13
2015 04 09 08 01 45 .46      -8    -42      0     43     44 191.6   0.8  33334  275.73 0865.13
2015 04 09 08 01 45 .71     -14    -42      2     45     46 198.5   2.9  33334  275.75 0865.13
2015 04 09 08 01 45 .97      -5    -40     -1     41     42 187.1  -2.2  33338  275.80 0865.13
2015 04 09 08 01 46 .21      -2    -44      0     45     46 182.7   0.8  33366  276.28 0865.13
2015 04 09 08 01 46 .47      -7    -46     -1     47     48 189.8  -2.2  33366  276.28 0865.13
2015 04 09 08 01 46 .71       0    -43     14     44     47 180.0  18.4  33374  276.41 0865.13
2015 04 09 08 01 46 .96       0    -46     20     47     51 180.0  24.1  33382  276.53 0865.13
2015 04 09 08 01 47 .21      -7    -31     11     32     34 193.4  19.2  33370  276.33 0865.13
2015 04 09 08 01 47 .47      -2    -30      1     31     32 184.5   2.9  33364  276.23 0865.13
2015 04 09 08 01 47 .72      -7    -32     18     33     37 193.4  31.4  33378  276.46 0865.13
2015 04 09 08 01 47 .96      -8    -26     22     28     35 198.5  43.7  33404  276.91 0865.13
2015 04 09 08 01 48 .21     -13    -36     17     39     42 200.0  25.1  33396  276.76 0865.13
2015 04 09 08 01 48 .46     -11    -35      1     37     38 198.3   2.9  33356  276.11 0865.13
2015 04 09 08 01 48 .72     -10    -23     -6     26     27 203.6 -13.4  33340  275.83 0865.13
2015 04 09 08 01 48 .97      -8    -26      1     28     29 198.5   2.9  33346  275.93 0865.13
2015 04 09 08 01 49 .23      -9    -28     -5     30     31 198.5  -9.3  33336  275.78 0865.13
2015 04 09 08 01 49 .48     -10    -30     -7     32     33 198.3 -13.4  33330  275.68 0865.13
2015 04 09 08 01 49 .73     -17    -25     -6     31     32 214.3 -11.3  33336  275.78 0865.13
2015 04 09 08 01 49 .98     -18    -22     -1     29     30 219.6  -2.2  33340  275.83 0865.13
2015 04 09 08 01 50 .23     -12    -27    -10     30     32 205.4 -19.7  33332  275.70 0865.13
2015 04 09 08 01 50 .48     -15    -23     -3     28     29 214.3  -7.3  33328  275.65 0865.13
2015 04 09 08 01 50 .73      -6    -29     -8     30     32 191.6 -15.5  33332  275.72 0865.13
2015 04 09 08 01 50 .98     -10    -30     -1     32     33 198.3  -2.2  33346  275.95 0865.13
2015 04 09 08 01 51 .23      -8    -26      1     28     29 198.5   2.9  33346  275.93 0865.13
2015 04 09 08 01 51 .48     -10    -22     -1     25     26 205.4  -2.2  33344  275.90 0865.13
2015 04 09 08 01 51 .73     -12    -19      0     23     24 212.5  -2.2  33340  275.83 0865.13
2015 04 09 08 01 51 .98     -10    -13      0     17     18 216.1  -2.2  33328  275.65 0865.13
2015 04 09 08 01 52 .23     -16    -12      0     21     22 232.2  -2.2  33338  275.80 0865.13
2015 04 09 08 01 52 .48     -12    -19      0     23     24 212.5  -2.2  33340  275.83 0865.13
2015 04 09 08 01 52 .73     -14    -18     -7     24     25 217.8 -21.7  33330  275.67 0865.13
2015 04 09 08 01 52 .99      -9    -27    -10     29     31 200.0 -19.7  33330  275.67 0865.14
2015 04 09 08 01 53 .23     -13    -26     -1     30     31 207.2  -3.1  33330  275.68 0865.14
2015 04 09 08 01 53 .49     -10    -22     -1     25     26 205.4  -2.2  33332  275.72 0865.14
2015 04 09 08 01 53 .73     -14    -18     -1     23     24 217.8  -3.1  33330  275.68 0865.14
2015 04 09 08 01 53 .99     -11    -24     -1     27     28 205.4  -2.2  33332  275.72 0865.14
2015 04 09 08 01 54 .24      -8    -26     -3     28     29 198.5  -7.3  33332  275.72 0865.14
2015 04 09 08 01 54 .49      -9    -18      1     21     22 205.4   4.9  33330  275.68 0865.14
2015 04 09 08 01 54 .74     -20    -24      0     32     33 219.6   0.8  33334  275.75 0865.14
2015 04 09 08 01 54 .99     -10    -31      6     33     34 198.3  11.1  33352  276.03 0865.14
2015 04 09 08 01 55 .24     -16    -26     -1     31     32 212.6  -2.2  33340  275.85 0865.14
2015 04 09 08 01 55 .49     -17    -25      6     31     32 214.3  11.1  33340  275.83 0865.14
2015 04 09 08 01 55 .74     -22    -23      6     33     34 223.4  11.1  33342  275.88 0865.14
2015 04 09 08 01 55 .99     -14    -22      1     27     28 212.6   2.8  33336  275.78 0865.14
2015 04 09 08 01 56 .25     -20    -20     -1     29     30 225.0  -2.2  33334  275.73 0865.14
2015 04 09 08 01 56 .51     -20    -20      1     29     30 225.1   2.9  33346  275.93 0865.14
2015 04 09 08 01 56 .75     -17    -18      6     25     26 223.2  15.3  33346  275.93 0865.14
2015 04 09 08 01 57 .01     -25    -20      4     33     34 230.5   6.9  33344  275.91 0865.14
2015 04 09 08 01 57 .25     -25    -16     -1     30     31 237.5  -2.2  33340  275.85 0865.14
2015 04 09 08 01 57 .50     -25    -16     -1     30     31 237.5  -2.2  33334  275.75 0865.13
2015 04 09 08 01 57 .76     -19    -17      4     26     27 228.7   9.0  33342  275.86 0865.13
2015 04 09 08 01 58 .01     -18    -12      7     22     24 235.8  19.4  33346  275.93 0865.13
2015 04 09 08 01 58 .26     -10    -16      6     19     21 212.6  19.2  33342  275.88 0865.14
2015 04 09 08 01 58 .51     -12    -15      7     20     22 217.8  19.2  33342  275.88 0865.14
2015 04 09 08 01 58 .76     -11     -8      7     14     15 234.0  27.2  33354  276.08 0865.14
2015 04 09 08 01 59 .01     -11     -8      7     14     15 234.0  27.2  33354  276.08 0865.14
2015 04 09 08 01 59 .26      -4    -12      7     13     14 198.3  35.5  33354  276.08 0865.14
2015 04 09 08 01 59 .51       1    -12      9     13     15 172.0  35.6  33362  276.20 0865.14
2015 04 09 08 01 59 .76      -2    -16      9     17     19 188.0  31.4  33380  276.51 0865.14
2015 04 09 08 02 00 .01      -1    -12     11     13     17 186.2  47.9  33388  276.63 0865.14
2015 04 09 08 02 00 .27       0     -7     13      8     15 182.7  64.7  33386  276.61 0865.13
2015 04 09 08 02 00 .51       0     -3     11      4     11 189.7  81.0  33392  276.69 0865.13
2015 04 09 08 02 00 .76      -2     -7      9      8     12 198.5  52.2  33386  276.61 0865.13
2015 04 09 08 02 01 .02       0     -3     11      4     11 189.7  81.0  33388  276.63 0865.13
2015 04 09 08 02 01 .26      -4     -3     14      6     15 230.5  77.1  33390  276.66 0865.13
2015 04 09 08 02 01 .51      -5    -11     13     13     18 205.4  50.1  33386  276.61 0865.13
2015 04 09 08 02 01 .76      -2    -15     16     16     22 188.0  50.1  33384  276.58 0865.13
2015 04 09 08 02 02 .02      -7    -15     18     17     24 205.4  48.2  33392  276.71 0865.13
2015 04 09 08 02 02 .27      -2    -21     16     22     27 186.2  39.7  33400  276.83 0865.13
2015 04 09 08 02 02 .52      -7    -23     11     25     27 198.5  25.1  33410  276.99 0865.13
2015 04 09 08 02 02 .77      -2    -16      9     17     19 188.0  31.4  33414  277.06 0865.13
2015 04 09 08 02 03 .02       2     -7      6      8     10 161.5  43.7  33424  277.24 0865.13
2015 04 09 08 02 03 .28      -1    -12     17     13     21 184.5  58.5  33440  277.51 0865.13
2015 04 09 08 02 03 .53       0    -15     13     16     20 179.1  43.7  33424  277.22 0865.13
2015 04 09 08 02 03 .78       0    -18     17     19     25 182.7  47.9  33420  277.16 0865.13
2015 04 09 08 02 04 .03      -7    -23     24     25     34 198.5  52.0  33408  276.97 0865.13
2015 04 09 08 02 04 .28     -10    -19     22     22     31 207.2  50.1  33420  277.16 0865.13
2015 04 09 08 02 04 .53       2    -26     28     27     38 175.5  48.2  33410  276.99 0865.13
2015 04 09 08 02 04 .78       0    -34     17     35     38 179.1  27.2  33404  276.91 0865.13
2015 04 09 08 02 05 .03      -6    -31     17     32     36 191.6  29.3  33408  276.96 0865.13
2015 04 09 08 02 05 .29      -1    -32     11     33     36 182.6  19.4  33404  276.89 0865.13
2015 04 09 08 02 05 .53     -10    -42      8     44     45 194.3  11.1  33366  276.26 0865.13
2015 04 09 08 02 05 .78     -21    -38      2     44     45 209.0   3.8  33360  276.16 0865.13
2015 04 09 08 02 06 .04     -12    -37     -1     40     41 198.7  -2.2  33342  275.86 0865.13
2015 04 09 08 02 06 .29     -14    -42     -2     45     46 198.5  -3.1  33340  275.83 0865.13
2015 04 09 08 02 06 .54     -14    -45     -1     48     49 197.8  -1.3  33346  275.95 0865.13
2015 04 09 08 02 06 .79     -15    -39      0     43     44 201.8  -0.3  33352  276.03 0865.13
2015 04 09 08 02 07 .04     -16    -38     -2     42     43 203.6  -3.1  33346  275.95 0865.13
2015 04 09 08 02 07 .29     -14    -38      0     41     42 200.9   0.8  33340  275.83 0865.13
2015 04 09 08 02 07 .54     -14    -38      0     41     42 200.9   0.8  33342  275.88 0865.13
2015 04 09 08 02 07 .79     -14    -42     -2     45     46 198.5  -3.1  33340  275.83 0865.13
2015 04 09 08 02 08 .04      -9    -41      0     42     43 192.5  -0.3  33340  275.83 0865.13
2015 04 09 08 02 08 .29      -5    -40     -1     41     42 188.0  -2.2  33344  275.91 0865.14
2015 04 09 08 02 08 .54      -7    -37      1     38     39 191.6   2.9  33346  275.95 0865.14
2015 04 09 08 02 08 .80      -6    -45      3     46     47 188.0   3.8  33354  276.06 0865.14
2015 04 09 08 02 09 .04     -11    -39      5     41     42 196.0   8.0  33366  276.28 0865.14
2015 04 09 08 02 09 .30       0    -41      2     42     43 180.9   2.9  33378  276.46 0865.14
2015 04 09 08 02 09 .54      -6    -26     13     27     29 193.4  27.3  33380  276.51 0865.14
2015 04 09 08 02 09 .79      -1    -43      8     44     45 181.8  11.1  33368  276.30 0865.14
2015 04 09 08 02 10 .05      -2    -38      8     39     40 184.4  12.2  33356  276.11 0865.14
2015 04 09 08 02 10 .31      -7    -35      8     36     37 191.6  13.2  33356  276.11 0865.14
2015 04 09 08 02 10 .56      -6    -30      3     31     32 191.6   6.9  33372  276.36 0865.14
2015 04 09 08 02 10 .81      -9    -34     10     36     38 195.1  15.3  33390  276.66 0865.14
2015 04 09 08 02 11 .06      -7    -31     11     32     34 193.4  19.2  33390  276.68 0865.14
2015 04 09 08 02 11 .31     -14    -25     10     29     31 209.0  18.9  33392  276.69 0865.14
2015 04 09 08 02 11 .56     -14    -35     10     38     40 201.8  15.3  33396  276.78 0865.14
2015 04 09 08 02 11 .81     -17    -27     13     33     35 212.6  21.0  33386  276.61 0865.14
2015 04 09 08 02 12 .06     -13    -25     10     29     31 207.2  18.9  33390  276.68 0865.14
2015 04 09 08 02 12 .31     -10    -31     11     33     35 198.3  18.9  33380  276.51 0865.14
2015 04 09 08 02 12 .56     -15    -39      7     43     44 201.8  10.1  33372  276.36 0865.14
2015 04 09 08 02 12 .82     -13    -52     11     54     56 194.3  12.2  33374  276.41 0865.14
2015 04 09 08 02 13 .07     -19    -60      9     64     65 197.8   8.0  33412  277.04 0865.14
2015 04 09 08 02 13 .31     -18    -53     16     57     60 199.2  16.3  33408  276.96 0865.14
2015 04 09 08 02 13 .56     -27    -56     17     63     66 205.4  15.2  33398  276.81 0865.14
2015 04 09 08 02 13 .82     -30    -45      7     55     56 213.4   8.0  33404  276.91 0865.14
2015 04 09 08 02 14 .06     -15    -45      0     48     49 198.3  -0.3  33414  277.07 0865.14
2015 04 09 08 02 14 .31     -14    -49     10     52     54 196.0  11.1  33414  277.07 0865.14
2015 04 09 08 02 14 .57     -14    -44     15     47     50 198.3  18.4  33408  276.97 0865.14
2015 04 09 08 02 14 .81     -17    -43     20     47     51 201.8  24.1  33422  277.19 0865.14
2015 04 09 08 02 15 .07     -24    -38     32     46     56 212.5  37.6  33414  277.07 0865.14
2015 04 09 08 02 15 .31     -10    -31     26     33     42 198.3  42.7  33416  277.11 0865.14
2015 04 09 08 02 15 .57     -15    -31     28     35     44 207.2  42.7  33416  277.09 0865.14
2015 04 09 08 02 15 .82     -14    -18     18     24     30 217.8  41.7  33414  277.06 0865.14
2015 04 09 08 02 16 .07      17    -26     22     32     38 147.5  37.6  33404  276.91 0865.14
2015 04 09 08 02 16 .32       7    -36     26     37     45 168.4  37.6  33398  276.81 0865.14
2015 04 09 08 02 16 .57       5    -27     26     28     38 168.4  52.0  33386  276.61 0865.14
2015 04 09 08 02 16 .83       0    -24     24     25     34 180.9  52.0  33406  276.92 0865.14
2015 04 09 08 02 17 .08      -2    -15     28     16     32 188.0  66.8  33418  277.12 0865.14
2015 04 09 08 02 17 .33     -11    -23     26     26     36 205.4  50.1  33416  277.11 0865.14
2015 04 09 08 02 17 .58     -23    -36     16     43     45 212.5  20.0  33396  276.78 0865.14
2015 04 09 08 02 17 .83     -15    -39      7     43     44 201.8  10.1  33398  276.81 0865.14
2015 04 09 08 02 18 .09      -4    -23     15     24     28 189.8  35.5  33398  276.79 0865.14
2015 04 09 08 02 18 .33       0    -17     24     18     30 182.7  58.5  33406  276.92 0865.14
2015 04 09 08 02 18 .59     -16    -22     22     28     35 216.1  43.7  33410  277.01 0865.14
2015 04 09 08 02 18 .83     -33    -21     32     40     51 237.5  43.7  33412  277.04 0865.14
2015 04 09 08 02 19 .08     -53    -33     12     63     65 237.6  11.0  33396  276.76 0865.13
2015 04 09 08 02 19 .34     -36    -32     -1     49     50 228.7  -2.2  33386  276.61 0865.13
2015 04 09 08 02 19 .59     -28    -59     24     66     70 205.4  20.0  33406  276.92 0865.13
2015 04 09 08 02 19 .84      -6    -46     17     47     49 188.0  20.0  33422  277.21 0865.13
2015 04 09 08 02 20 .09       0    -30     32     31     44 179.1  49.1  33434  277.39 0865.13
2015 04 09 08 02 20 .34     -28    -20     37     35     50 234.0  51.2  33418  277.12 0865.13
2015 04 09 08 02 20 .59     -33    -21     26     40     47 237.6  35.6  33404  276.91 0865.13
2015 04 09 08 02 20 .84     -21    -20     22     30     37 226.9  39.7  33410  277.01 0865.13
2015 04 09 08 02 21 .09       0    -28     21     29     35 179.1  39.7  33406  276.92 0865.13
2015 04 09 08 02 21 .34      -4    -57     11     58     60 184.4  11.1  33366  276.26 0865.13
2015 04 09 08 02 21 .59      -5    -71      3     72     73 184.4   2.9  33324  275.58 0865.13
2015 04 09 08 02 21 .84     -16    -85      5     87     88 190.7   3.8  33326  275.62 0865.13
2015 04 09 08 02 22 .10     -11    -84     10     85     86 187.6   6.9  33326  275.62 0865.13
2015 04 09 08 02 22 .35     -26    -80     16     85     87 198.3  11.0  33398  276.81 0865.13
2015 04 09 08 02 22 .59     -20    -77      9     80     81 195.1   6.5  33334  275.73 0865.13
2015 04 09 08 02 22 .85     -15    -76      6     78     79 191.6   4.9  33334  275.75 0865.13
2015 04 09 08 02 23 .09      -5    -75      9     76     77 184.5   6.9  33346  275.93 0865.13
2015 04 09 08 02 23 .35     -24    -83     11     87     88 196.5   7.5  33332  275.70 0865.13
2015 04 09 08 02 23 .60     -33    -86      7     93     94 201.4   4.4  33346  275.93 0865.13
2015 04 09 08 02 23 .85     -32    -58     23     67     72 208.9  19.2  33370  276.34 0865.13
2015 04 09 08 02 24 .11     -31    -74     11     81     82 202.7   8.0  33356  276.11 0865.13
2015 04 09 08 02 24 .36     -24    -71     14     75     77 198.7  10.6  33358  276.13 0865.13
2015 04 09 08 02 24 .61     -22    -79     13     83     85 196.0   9.0  33336  275.78 0865.13
2015 04 09 08 02 24 .86     -17    -72      3     75     76 193.4   2.9  33334  275.73 0865.13
2015 04 09 08 02 25 .11     -10    -77     10     78     79 188.1   8.0  33332  275.72 0865.13
2015 04 09 08 02 25 .36     -14    -88      8     90     91 189.3   5.4  33330  275.68 0865.13
2015 04 09 08 02 25 .61      -8    -88      4     89     90 185.8   2.9  33350  276.00 0865.14
2015 04 09 08 02 25 .86      -1    -71      3     72     73 180.9   2.8  33360  276.16 0865.14
2015 04 09 08 02 26 .11       5    -69      2     70     71 175.6   1.8  33362  276.21 0865.14
2015 04 09 08 02 26 .37       1    -64      3     65     66 179.1   2.8  33354  276.06 0865.14
2015 04 09 08 02 26 .61       1    -71      7     72     73 179.1   5.9  33360  276.16 0865.14
2015 04 09 08 02 26 .87       5    -72     -2     73     74 175.5  -2.2  33354  276.06 0865.14
2015 04 09 08 02 27 .11      13    -77      4     79     80 170.2   2.9  33396  276.78 0865.14
2015 04 09 08 02 27 .37      17    -77      1     79     80 167.5   1.2  33374  276.41 0865.14
2015 04 09 08 02 27 .62      23    -69      1     73     74 161.3   0.8  33358  276.13 0865.14
2015 04 09 08 02 27 .86      22    -66     -2     70     71 161.3  -2.2  33332  275.70 0865.14
2015 04 09 08 02 28 .12      21    -62     -1     66     67 160.8  -1.2  33340  275.83 0865.14
2015 04 09 08 02 28 .36      21    -62     -1     66     67 160.8  -1.2  33334  275.73 0865.14
2015 04 09 08 02 28 .62       4    -57     -2     58     59 175.5  -2.2  33332  275.70 0865.14
2015 04 09 08 02 28 .87      10    -48     -2     50     51 167.5  -3.1  33334  275.73 0865.14
2015 04 09 08 02 29 .12      11    -58      3     60     61 168.5   2.9  33334  275.75 0865.14
2015 04 09 08 02 29 .37       9    -45      8     46     47 168.4  10.1  33332  275.72 0865.14
2015 04 09 08 02 29 .62       3    -49      7     50     51 176.4   8.0  33332  275.70 0865.14
2015 04 09 08 02 29 .87     -17    -53      7     56     57 197.8   8.0  33328  275.65 0865.14
2015 04 09 08 02 30 .12      -7    -61     11     62     63 187.1  10.1  33334  275.73 0865.14
2015 04 09 08 02 30 .37     -10    -61      5     62     63 189.8   4.9  33324  275.58 0865.14
2015 04 09 08 02 30 .62     -22    -58      0     63     64 200.9  -0.3  33330  275.68 0865.14
2015 04 09 08 02 30 .87     -22    -58      0     63     64 200.9  -0.3  33330  275.68 0865.15
2015 04 09 08 02 31 .13     -18    -65      3     68     69 196.0   2.9  33322  275.53 0865.15
2015 04 09 08 02 31 .38     -17    -58      5     61     62 196.9   4.9  33328  275.63 0865.15
2015 04 09 08 02 31 .63      -6    -60      8     61     62 186.2   8.0  33342  275.88 0865.15
2015 04 09 08 02 31 .88      -5    -65      4     66     67 184.5   3.8  33334  275.73 0865.15
2015 04 09 08 02 32 .14      -8    -63      5     64     65 188.0   4.9  33338  275.80 0865.15
2015 04 09 08 02 32 .38      -5    -71      3     72     73 184.4   2.9  33334  275.73 0865.15
2015 04 09 08 02 32 .63      -4    -67     -1     68     69 183.6  -1.2  33328  275.63 0865.14
2015 04 09 08 02 32 .89      -1    -64     -3     65     66 180.9  -3.1  33330  275.68 0865.14
2015 04 09 08 02 33 .14       7    -64     -2     65     66 173.8  -2.2  33326  275.60 0865.14
2015 04 09 08 02 33 .39       0    -61     -8     62     63 179.1  -7.3  33328  275.63 0865.14
2015 04 09 08 02 33 .64      -1    -60     -4     61     62 181.8  -4.1  33332  275.72 0865.14
2015 04 09 08 02 33 .89       1    -64    -13     65     67 179.0 -11.3  33328  275.63 0865.14
2015 04 09 08 02 34 .14       5    -68    -19     69     72 175.6 -15.4  33324  275.58 0865.14
2015 04 09 08 02 34 .39       0    -63    -17     64     67 180.9 -15.5  33330  275.68 0865.14
2015 04 09 08 02 34 .64      -7    -61     -2     62     63 187.1  -2.2  33342  275.88 0865.14
2015 04 09 08 02 34 .89     -26    -57      8     63     64 204.5   8.0  33346  275.93 0865.14
2015 04 09 08 02 35 .14     -24    -51     12     57     59 205.3  12.2  33356  276.10 0865.14
2015 04 09 08 02 35 .39     -33    -61      8     70     71 208.9   7.1  33348  275.98 0865.15
2015 04 09 08 02 35 .64     -14    -71      3     73     74 191.6   2.8  33332  275.70 0865.15
2015 04 09 08 02 35 .89     -18    -65     -8     68     69 196.0  -7.2  33336  275.78 0865.15
2015 04 09 08 02 36 .15     -15    -69    -14     71     73 192.5 -11.3  33334  275.73 0865.15
2015 04 09 08 02 36 .39     -20    -62    -10     66     67 198.5  -9.3  33328  275.65 0865.15
2015 04 09 08 02 36 .65     -11    -53     -7     55     56 191.6  -7.3  33334  275.73 0865.15
2015 04 09 08 02 36 .90     -16    -48      4     51     52 198.5   4.9  33350  276.00 0865.15
2015 04 09 08 02 37 .15     -17    -49     14     52     54 199.2  15.3  33346  275.95 0865.15
2015 04 09 08 02 37 .40     -35    -49      7     61     62 216.1   6.9  33346  275.95 0865.15
2015 04 09 08 02 37 .65     -32    -58      3     67     68 209.0   2.9  33364  276.23 0865.15
2015 04 09 08 02 37 .91     -38    -59     12     71     73 212.5  10.1  33360  276.16 0865.15
2015 04 09 08 02 38 .16     -27    -48     11     56     58 209.9  11.0  33364  276.23 0865.15
2015 04 09 08 02 38 .42     -24    -50      2     56     57 206.3   2.9  33370  276.34 0865.15
2015 04 09 08 02 38 .66     -25    -53     12     59     61 205.3  12.2  33384  276.56 0865.15
2015 04 09 08 02 38 .91     -43    -68     13     81     83 212.1   9.5  33352  276.03 0865.15
2015 04 09 08 02 39 .17     -40    -84     11     94     95 205.3   6.9  33372  276.36 0865.14
2015 04 09 08 02 39 .41     -34    -63     30     72     78 208.9  23.1  33408  276.96 0865.14
2015 04 09 08 02 39 .66     -37    -58     35     69     77 212.5  28.2  33416  277.11 0865.14
2015 04 09 08 02 39 .91     -32    -70     19     78     81 204.5  13.7  33392  276.69 0865.14
2015 04 09 08 02 40 .17     -32    -68     15     76     78 205.5  11.6  33402  276.86 0865.14
2015 04 09 08 02 40 .41     -38    -70      4     80     81 208.9   3.3  33354  276.08 0865.14
2015 04 09 08 02 40 .67     -23    -70     11     74     75 198.3   9.0  33374  276.41 0865.14
2015 04 09 08 02 40 .91     -21    -63     23     67     72 198.3  19.4  33372  276.36 0865.14
2015 04 09 08 02 41 .16     -24    -60     12     65     67 201.8  11.0  33374  276.41 0865.14
2015 04 09 08 02 41 .42     -19    -58     18     62     65 198.7  16.3  33370  276.34 0865.14
2015 04 09 08 02 41 .67     -27    -49     25     57     62 209.0  25.1  33394  276.73 0865.14
2015 04 09 08 02 41 .92     -24    -51     22     57     61 205.3  22.0  33392  276.69 0865.14
2015 04 09 08 02 42 .17     -29    -61     13     68     70 205.4  11.1  33382  276.53 0865.14
2015 04 09 08 02 42 .42     -44    -48     18     66     69 222.3  15.3  33370  276.34 0865.14
2015 04 09 08 02 42 .67     -35    -56     13     67     69 212.5  11.1  33340  275.83 0865.15
2015 04 09 08 02 42 .92     -29    -61      4     68     69 205.4   3.8  33338  275.80 0865.15
2015 04 09 08 02 43 .17     -39    -61     11     73     74 212.5   9.0  33340  275.85 0865.15
2015 04 09 08 02 43 .42     -41    -64      9     77     78 212.5   6.9  33348  275.98 0865.15
2015 04 09 08 02 43 .68     -33    -70      7     78     79 205.4   5.4  33346  275.93 0865.15
2015 04 09 08 02 43 .92     -33    -60     16     69     71 208.9  13.2  33348  275.96 0865.15
2015 04 09 08 02 44 .17     -33    -60      9     69     70 209.0   8.0  33336  275.78 0865.15
2015 04 09 08 02 44 .42     -41    -65      7     78     79 212.5   5.4  33352  276.03 0865.14
2015 04 09 08 02 44 .68     -41    -63      3     76     77 213.4   2.9  33344  275.90 0865.14
2015 04 09 08 02 44 .94     -39    -61      3     73     74 212.5   2.9  33356  276.10 0865.14
2015 04 09 08 02 45 .18     -36    -51      7     63     64 215.2   6.9  33360  276.16 0865.14
2015 04 09 08 02 45 .43     -36    -50     -6     62     63 216.1  -6.2  33344  275.90 0865.14
2015 04 09 08 02 45 .68     -32    -45     -3     56     57 215.2  -3.1  33336  275.78 0865.14
2015 04 09 08 02 45 .94     -29    -45     -6     54     55 212.6  -7.2  33338  275.80 0865.14
2015 04 09 08 02 46 .18     -29    -46      0     55     56 212.5   0.8  33336  275.78 0865.14
2015 04 09 08 02 46 .44     -26    -42    -11     50     52 212.5 -12.4  33326  275.60 0865.14
2015 04 09 08 02 46 .69     -32    -36      2     49     50 222.3   2.9  33344  275.90 0865.14
2015 04 09 08 02 46 .94     -35    -42      0     55     56 219.7   0.8  33340  275.83 0865.14
2015 04 09 08 02 47 .19     -35    -41     15     54     57 220.5  15.3  33370  276.33 0865.14
2015 04 09 08 02 47 .44     -38    -53      4     66     67 215.2   3.8  33352  276.03 0865.14
2015 04 09 08 02 47 .69     -42    -53     13     68     70 218.7  11.1  33364  276.23 0865.14
2015 04 09 08 02 47 .94     -40    -48     17     63     66 219.6  15.2  33364  276.25 0865.14
2015 04 09 08 02 48 .19     -31    -49      5     59     60 212.6   4.9  33346  275.93 0865.15
2015 04 09 08 02 48 .45     -25    -45      5     52     53 209.0   5.9  33342  275.88 0865.15
2015 04 09 08 02 48 .70     -17    -50      4     53     54 199.2   4.9  33368  276.30 0865.15
2015 04 09 08 02 48 .95     -12    -47     26     49     55 195.1  30.3  33386  276.61 0865.15
2015 04 09 08 02 49 .20     -25    -39     26     47     53 212.5  31.4  33402  276.86 0865.15
2015 04 09 08 02 49 .44     -23    -40      8     47     48 209.9  10.1  33390  276.66 0865.15
2015 04 09 08 02 49 .70     -17    -42      5     46     47 201.8   6.9  33402  276.88 0865.15
2015 04 09 08 02 49 .95     -11    -36     17     38     41 198.3  25.1  33410  277.01 0865.15
2015 04 09 08 02 50 .20     -10    -31     14     33     35 198.3  23.0  33416  277.11 0865.15
2015 04 09 08 02 50 .44     -22    -26     28     35     44 219.7  42.7  33406  276.94 0865.15
2015 04 09 08 02 50 .70     -22    -26     22     35     41 219.7  35.5  33392  276.71 0865.15
2015 04 09 08 02 50 .95     -15    -39      7     43     44 201.8  10.1  33390  276.66 0865.15
2015 04 09 08 02 51 .20     -14    -41     25     44     50 199.2  32.4  33398  276.81 0865.15
2015 04 09 08 02 51 .45     -28    -43     24     52     57 213.4  27.1  33394  276.73 0865.15
2015 04 09 08 02 51 .70     -29    -52     20     60     64 209.0  18.9  33378  276.46 0865.14
2015 04 09 08 02 51 .96     -17    -44     19     48     51 201.8  22.0  33390  276.68 0865.14
2015 04 09 08 02 52 .21     -15    -31     15     35     38 207.2  23.0  33384  276.58 0865.14
2015 04 09 08 02 52 .46     -18    -35     26     40     47 207.2  35.6  33396  276.76 0865.14
2015 04 09 08 02 52 .72     -20    -48     13     53     55 202.7  14.3  33364  276.25 0865.14
2015 04 09 08 02 52 .96     -13    -49     10     51     52 195.1  11.1  33348  275.96 0865.14
2015 04 09 08 02 53 .22     -12    -36      5     39     40 198.7   8.0  33364  276.23 0865.14
2015 04 09 08 02 53 .47     -21    -32     18     39     42 212.6  26.2  33386  276.61 0865.14
2015 04 09 08 02 53 .71     -21    -39     18     45     48 209.0  21.0  33384  276.56 0865.14
2015 04 09 08 02 53 .97     -35    -42     -6     55     56 219.6  -6.2  33358  276.15 0865.14
2015 04 09 08 02 54 .21     -22    -33     13     40     43 213.4  18.9  33366  276.28 0865.14
2015 04 09 08 02 54 .46     -27    -35     24     45     51 217.0  30.3  33364  276.23 0865.15
2015 04 09 08 02 54 .72     -24    -49     10     55     57 206.3  11.1  33348  275.98 0865.15
2015 04 09 08 02 54 .97     -28    -37     15     47     50 217.8  18.4  33366  276.28 0865.15
2015 04 09 08 02 55 .22     -32    -34      4     47     48 223.2   5.9  33348  275.98 0865.15
2015 04 09 08 02 55 .47     -25    -35      2     44     45 216.1   3.8  33350  276.00 0865.15
2015 04 09 08 02 55 .72     -33    -47      1     58     59 215.2   1.8  33334  275.75 0865.15
2015 04 09 08 02 55 .97     -33    -47      1     58     59 215.2   1.8  33334  275.75 0865.15
2015 04 09 08 02 56 .22     -26    -50     -2     57     58 208.1  -2.2  33336  275.77 0865.15
2015 04 09 08 02 56 .47     -30    -43     -2     53     54 215.2  -2.2  33332  275.70 0865.15
2015 04 09 08 02 56 .73     -29    -39     -5     49     50 217.0  -6.2  33334  275.75 0865.15
2015 04 09 08 02 56 .97     -26    -35     -3     44     45 217.0  -4.1  33336  275.78 0865.15
2015 04 09 08 02 57 .22     -24    -37     -1     45     46 212.5  -2.2  33338  275.80 0865.15
2015 04 09 08 02 57 .47     -23    -43     -5     49     50 208.1  -6.2  33332  275.70 0865.15
2015 04 09 08 02 57 .72     -35    -42     -6     55     56 219.7  -6.2  33326  275.60 0865.15
2015 04 09 08 02 57 .98     -35    -42     -6     55     56 219.7  -6.2  33326  275.60 0865.15
2015 04 09 08 02 58 .23     -26    -50     -2     57     58 208.1  -2.2  33336  275.77 0865.15
2015 04 09 08 02 58 .48     -35    -49     -4     61     62 215.2  -4.1  33332  275.70 0865.15
2015 04 09 08 02 58 .74     -32    -47     -2     57     58 214.3  -2.2  33330  275.68 0865.15
2015 04 09 08 02 58 .99     -42    -46     -5     63     64 222.3  -5.2  33326  275.60 0865.15
2015 04 09 08 02 59 .24     -38    -46     -2     60     61 219.7  -2.2  33326  275.60 0865.15
2015 04 09 08 02 59 .49     -36    -50     -1     62     63 216.1  -1.3  33334  275.73 0865.15
2015 04 09 08 02 59 .74     -23    -50      0     56     57 204.5  -0.3  33336  275.78 0865.15
2015 04 09 08 02 59 .99     -28    -53     -1     61     62 208.1  -1.2  33336  275.78 0865.14
2015 04 09 08 03 00 .24     -28    -53     -1     61     62 208.1  -1.2  33334  275.73 0865.14
2015 04 09 08 03 00 .49     -35    -40      0     54     55 221.4  -0.3  33340  275.83 0865.14
2015 04 09 08 03 00 .74     -31    -49     -2     59     60 212.5  -2.2  33340  275.85 0865.14
2015 04 09 08 03 00 .99     -33    -53     -3     63     64 211.6  -3.1  33348  275.98 0865.14
2015 04 09 08 03 01 .25     -31    -49     -7     59     60 212.5  -7.3  33364  276.23 0865.14
2015 04 09 08 03 01 .49     -24    -44     17     51     54 209.0  18.9  33388  276.63 0865.14
2015 04 09 08 03 01 .74     -35    -47     30     59     66 217.0  29.3  33384  276.56 0865.14
2015 04 09 08 03 02 .00     -40    -48     17     63     66 219.6  15.2  33356  276.11 0865.14
2015 04 09 08 03 02 .24     -39    -61     11     73     74 212.5   9.0  33340  275.85 0865.14
2015 04 09 08 03 02 .50     -39    -57      8     70     71 214.3   7.1  33334  275.73 0865.14
2015 04 09 08 03 02 .75     -33    -60     16     69     71 209.0  13.2  33378  276.46 0865.14
2015 04 09 08 03 02 .99     -34    -48     24     59     63 215.2  23.0  33396  276.78 0865.14
2015 04 09 08 03 03 .25     -34    -54     22     65     69 212.5  19.4  33386  276.61 0865.14
2015 04 09 08 03 03 .50     -14    -51     15     54     57 196.0  15.3  33354  276.08 0865.14
2015 04 09 08 03 03 .75     -19    -46      9     50     51 202.7  11.1  33378  276.48 0865.14
2015 04 09 08 03 04 .00     -32    -35     26     48     54 222.3  31.4  33394  276.74 0865.14
2015 04 09 08 03 04 .25     -37    -37     20     53     56 225.1  20.0  33354  276.08 0865.14
2015 04 09 08 03 04 .50     -41    -53     14     68     70 217.8  12.2  33346  275.93 0865.14
2015 04 09 08 03 04 .75     -39    -61     11     73     74 212.5   9.0  33332  275.70 0865.14
2015 04 09 08 03 05 .00     -24    -81      5     85     86 196.5   3.8  33328  275.65 0865.14
2015 04 09 08 03 05 .25     -14    -72      8     74     75 191.5   6.9  33330  275.68 0865.14
2015 04 09 08 03 05 .50     -15    -69     -1     71     72 192.5  -1.2  33328  275.63 0865.14
2015 04 09 08 03 05 .76     -21    -62     -3     66     67 198.7  -3.1  33328  275.63 0865.14
2015 04 09 08 03 06 .01     -16    -52      1     55     56 196.9   1.8  33330  275.67 0865.14
2015 04 09 08 03 06 .26     -22    -58      0     63     64 200.9  -0.3  33336  275.78 0865.13
2015 04 09 08 03 06 .51     -15    -62     -1     64     65 194.3  -1.2  33328  275.63 0865.13
2015 04 09 08 03 06 .76      -9    -64      0     65     66 188.0  -0.3  33330  275.68 0865.13
2015 04 09 08 03 07 .01     -10    -69      3     70     71 188.9   2.9  33330  275.68 0865.14
2015 04 09 08 03 07 .26     -10    -68      3     69     70 188.9   2.9  33328  275.63 0865.14
2015 04 09 08 03 07 .52     -15    -62     -1     64     65 194.3  -1.2  33328  275.63 0865.14
2015 04 09 08 03 07 .77     -23    -50     -6     56     57 205.3  -6.2  33334  275.75 0865.14
2015 04 09 08 03 08 .02     -22    -58    -12     63     65 200.9 -11.3  33336  275.78 0865.14
2015 04 09 08 03 08 .27      -6    -59    -19     60     63 186.2 -17.6  33328  275.63 0865.14
2015 04 09 08 03 08 .52     -10    -61    -22     62     66 189.8 -19.7  33324  275.58 0865.14
2015 04 09 08 03 08 .77     -10    -72     -6     73     74 188.0  -5.2  33328  275.65 0865.14
2015 04 09 08 03 09 .02     -13    -69     -9     71     72 190.7  -7.2  33328  275.63 0865.14
2015 04 09 08 03 09 .27     -10    -68     -2     69     70 188.9  -2.2  33332  275.70 0865.14
2015 04 09 08 03 09 .52     -13    -65      3     67     68 191.6   2.8  33338  275.80 0865.14
2015 04 09 08 03 09 .77     -14    -72      3     74     75 191.5   2.8  33334  275.75 0865.14
2015 04 09 08 03 10 .02     -18    -65      3     68     69 196.0   2.9  33330  275.68 0865.14
2015 04 09 08 03 10 .27     -17    -58      5     61     62 196.9   4.9  33328  275.63 0865.14
2015 04 09 08 03 10 .52     -21    -58      7     62     63 200.0   6.9  33328  275.65 0865.14
2015 04 09 08 03 10 .77     -22    -58      7     63     64 200.9   6.9  33326  275.60 0865.14
2015 04 09 08 03 11 .03     -24    -54      3     60     61 204.5   2.9  33334  275.73 0865.14
2015 04 09 08 03 11 .28     -25    -40     16     48     51 212.5  19.2  33364  276.25 0865.14
2015 04 09 08 03 11 .52     -35    -43     22     56     60 219.7  23.0  33378  276.46 0865.14
2015 04 09 08 03 11 .77     -30    -47     18     56     60 212.5  18.4  33370  276.33 0865.14
2015 04 09 08 03 12 .02     -29    -46     21     55     58 212.6  22.0  33380  276.51 0865.14
2015 04 09 08 03 12 .28     -42    -50     30     66     72 219.6  27.1  33384  276.56 0865.14
2015 04 09 08 03 12 .53     -34    -54     24     65     69 212.5  20.0  33366  276.28 0865.14
2015 04 09 08 03 12 .80     -27    -48     11     56     58 209.9  11.0  33372  276.38 0865.14
2015 04 09 08 03 13 .04     -27    -51     24     58     62 208.1  23.1  33406  276.92 0865.14
2015 04 09 08 03 13 .29     -42    -41     30     59     66 225.9  29.3  33408  276.96 0865.14
2015 04 09 08 03 13 .54     -39    -61     11     73     74 212.5   9.0  33378  276.46 0865.14
2015 04 09 08 03 13 .79     -33    -70      7     78     79 205.4   5.4  33342  275.88 0865.14
2015 04 09 08 03 14 .05     -22    -69      3     73     74 198.3   2.9  33336  275.78 0865.14
2015 04 09 08 03 14 .29     -25    -76     11     81     82 198.7   8.0  33356  276.11 0865.14
2015 04 09 08 03 14 .55     -10    -85     18     86     88 187.1  12.2  33352  276.03 0865.14
2015 04 09 08 03 14 .79     -26    -86     10     90     91 196.9   6.5  33342  275.88 0865.14
2015 04 09 08 03 15 .04     -22    -80     13     84     86 195.6   9.0  33346  275.93 0865.14
2015 04 09 08 03 15 .30     -20    -62     23     66     70 198.3  19.4  33350  276.01 0865.14
2015 04 09 08 03 15 .55     -27    -56     17     63     66 205.4  15.2  33374  276.41 0865.14
2015 04 09 08 03 15 .79     -38    -52     17     65     68 216.0  15.3  33388  276.64 0865.14
2015 04 09 08 03 16 .04     -24    -75      9     79     80 198.3   6.5  33390  276.68 0865.14
2015 04 09 08 03 16 .30     -42    -61     19     75     78 214.3  14.7  33384  276.56 0865.14
2015 04 09 08 03 16 .55     -35    -71     21     80     83 206.3  14.7  33384  276.56 0865.14
2015 04 09 08 03 16 .80     -36    -98     11    105    106 200.5   6.5  33368  276.30 0865.14
2015 04 09 08 03 17 .05     -42    -89     37     99    105 205.3  21.5  33394  276.73 0865.13
2015 04 09 08 03 17 .30     -13    -65     23     67     71 191.5  18.9  33378  276.48 0865.13
2015 04 09 08 03 17 .55     -28    -84      5     89     90 198.7   3.3  33368  276.31 0865.13
2015 04 09 08 03 17 .80     -19    -94     11     97     98 191.6   6.5  33344  275.91 0865.13
2015 04 09 08 03 18 .05     -15   -100      5    102    103 188.9   2.8  33338  275.80 0865.13
2015 04 09 08 03 18 .30     -15    -99      5    101    102 188.9   2.9  33338  275.80 0865.13
2015 04 09 08 03 18 .55     -10    -99     11    100    101 186.2   6.5  33344  275.91 0865.13
2015 04 09 08 03 18 .80     -14    -96      8     98     99 188.5   4.9  33352  276.03 0865.13
2015 04 09 08 03 19 .05     -10    -99      2    100    101 186.2   1.2  33342  275.88 0865.14
2015 04 09 08 03 19 .31      -6    -94      3     95     96 183.6   2.3  33360  276.18 0865.14
2015 04 09 08 03 19 .56       0    -87      2     88     89 180.5   1.8  33384  276.56 0865.14
2015 04 09 08 03 19 .81       0    -87      2     88     89 180.5   1.8  33386  276.61 0865.14
2015 04 09 08 03 20 .06     -13    -80      1     82     83 189.8   1.2  33378  276.46 0865.14
2015 04 09 08 03 20 .32      10    -87      0     88     89 172.9   0.2  33380  276.51 0865.14
2015 04 09 08 03 20 .57       7    -84     30     85     91 174.7  19.4  33394  276.74 0865.14
2015 04 09 08 03 20 .81      -9   -118      4    119    120 184.5   2.3  33350  276.00 0865.13
2015 04 09 08 03 21 .07      -8   -122      0    123    124 184.0   0.2  33364  276.25 0865.13
2015 04 09 08 03 21 .32     -24   -109      5    112    113 192.9   2.8  33370  276.33 0865.13
2015 04 09 08 03 21 .57     -27   -111     13    115    116 193.8   6.9  33372  276.36 0865.13
2015 04 09 08 03 21 .82     -17   -119      1    121    122 188.5   0.8  33342  275.88 0865.13
2015 04 09 08 03 22 .08      -5   -118     10    119    120 182.7   4.9  33340  275.85 0865.13
2015 04 09 08 03 22 .32       0   -114      4    115    116 180.0   2.3  33346  275.93 0865.13
2015 04 09 08 03 22 .57       7    -95    -10     96     97 175.6  -6.2  33334  275.73 0865.13
2015 04 09 08 03 22 .82      10    -88    -11     89     90 173.3  -7.3  33334  275.75 0865.13
2015 04 09 08 03 23 .08      11    -95     -3     96     97 173.3  -2.2  33350  276.01 0865.13
2015 04 09 08 03 23 .32      13   -108     -4    109    110 172.9  -2.2  33322  275.55 0865.13
2015 04 09 08 03 23 .57      13    -99     -3    100    101 172.0  -2.2  33320  275.50 0865.13
2015 04 09 08 03 23 .83       8    -95      3     96     97 174.7   1.8  33320  275.50 0865.13
2015 04 09 08 03 24 .07       1   -102     -2    103    104 179.1  -1.2  33320  275.52 0865.13
2015 04 09 08 03 24 .32       3    -98     -3     99    100 177.8  -2.2  33318  275.48 0865.13
2015 04 09 08 03 24 .57       0    -90     -8     91     92 180.4  -5.6  33318  275.48 0865.13
2015 04 09 08 03 24 .82       0    -90     -8     91     92 180.4  -5.6  33318  275.48 0865.13
2015 04 09 08 03 25 .07       0    -90     -8     91     92 180.4  -5.6  33318  275.48 0865.13
2015 04 09 08 03 25 .32      -5    -94     -3     95     96 183.1  -2.2  33320  275.50 0865.13
2015 04 09 08 03 25 .57       0    -94     -4     95     96 180.5  -2.6  33322  275.53 0865.13
2015 04 09 08 03 25 .83      10    -88     -3     89     90 173.3  -2.2  33322  275.53 0865.13
2015 04 09 08 03 26 .08       8    -91     -6     92     93 174.7  -4.1  33324  275.57 0865.13
2015 04 09 08 03 26 .33       0    -90     -3     91     92 180.4  -2.2  33322  275.55 0865.13
2015 04 09 08 03 26 .59       0    -87     -3     88     89 180.0  -2.2  33324  275.58 0865.13
2015 04 09 08 03 26 .84      -5    -94     -3     95     96 183.1  -2.2  33320  275.50 0865.13
2015 04 09 08 03 27 .09      -4    -87     -9     88     89 183.1  -6.2  33320  275.52 0865.14
2015 04 09 08 03 27 .34       0    -80    -10     81     82 180.4  -7.3  33328  275.65 0865.14
2015 04 09 08 03 27 .59       0    -94     -4     95     96 180.5  -2.6  33330  275.68 0865.14
2015 04 09 08 03 27 .84       0    -90      4     91     92 180.4   2.8  33328  275.63 0865.14
2015 04 09 08 03 28 .09      -7    -91     -3     92     93 184.5  -2.2  33324  275.58 0865.14
2015 04 09 08 03 28 .34       2    -87     -6     88     89 178.2  -4.1  33326  275.60 0865.14
2015 04 09 08 03 28 .59       5    -91      1     92     93 176.9   1.2  33332  275.70 0865.14
2015 04 09 08 03 28 .84      -8    -94     -1     95     96 184.9  -0.7  33330  275.68 0865.14
2015 04 09 08 03 29 .09      -3    -98     -5     99    100 181.8  -3.2  33328  275.65 0865.14
2015 04 09 08 03 29 .35       0    -91     -3     92     93 180.4  -2.2  33332  275.70 0865.14
2015 04 09 08 03 29 .59       0    -91     -9     92     93 180.0  -5.6  33328  275.63 0865.14
2015 04 09 08 03 29 .85      -7    -91     -3     92     93 184.5  -2.2  33328  275.63 0865.14
2015 04 09 08 03 30 .10      -4    -87     -9     88     89 183.1  -6.2  33330  275.68 0865.14
2015 04 09 08 03 30 .35     -10   -107      2    108    109 185.3   1.2  33324  275.58 0865.14
2015 04 09 08 03 30 .60      -5   -111      5    112    113 182.7   2.8  33324  275.58 0865.14
2015 04 09 08 03 30 .85       0   -115     -4    116    117 180.4  -2.2  33348  275.96 0865.14
2015 04 09 08 03 31 .10      -2   -115     -2    116    117 181.4  -1.3  33346  275.93 0865.14
2015 04 09 08 03 31 .35      -8   -107      0    108    109 184.4  -0.3  33340  275.85 0865.14
2015 04 09 08 03 31 .60      -1   -111      2    112    113 180.9   1.2  33344  275.90 0865.14
2015 04 09 08 03 31 .86       6   -111      9    112    113 176.9   4.9  33384  276.56 0865.14
2015 04 09 08 03 32 .10      21   -111      2    114    115 168.9   1.2  33382  276.53 0865.14
2015 04 09 08 03 32 .36      19   -124     -6    126    127 171.1  -3.1  33350  276.00 0865.14
2015 04 09 08 03 32 .60      26   -124      1    127    128 168.0   0.8  33376  276.44 0865.14
2015 04 09 08 03 32 .85      37   -113     -1    120    121 161.7  -0.7  33374  276.41 0865.14
2015 04 09 08 03 33 .11      34   -104    -10    110    111 161.7  -5.6  33354  276.08 0865.14
2015 04 09 08 03 33 .36      11   -103     -5    104    105 173.8  -3.1  33352  276.03 0865.14
2015 04 09 08 03 33 .62      15   -112     -2    114    115 172.0  -1.3  33340  275.83 0865.14
2015 04 09 08 03 33 .87      39    -93      4    101    102 157.3   2.3  33354  276.08 0865.14
2015 04 09 08 03 34 .12      31   -101     -5    106    107 162.6  -3.1  33340  275.83 0865.14
2015 04 09 08 03 34 .36      34   -101     -5    107    108 161.3  -3.1  33328  275.65 0865.14
2015 04 09 08 03 34 .62      42    -98     -2    107    108 156.4  -1.3  33324  275.58 0865.14
2015 04 09 08 03 34 .87      32    -90     -3     96     97 160.0  -2.2  33322  275.55 0865.14
2015 04 09 08 03 35 .12      22    -93     -6     96     97 166.2  -4.1  33320  275.50 0865.14
2015 04 09 08 03 35 .37      19    -89     -9     92     93 167.5  -5.6  33322  275.53 0865.14
2015 04 09 08 03 35 .62      22    -93     -6     96     97 166.2  -4.1  33320  275.50 0865.14
2015 04 09 08 03 35 .87      31   -101     -5    106    107 162.6  -3.1  33322  275.53 0865.14
2015 04 09 08 03 36 .12      34   -101     -5    107    108 161.3  -3.1  33320  275.52 0865.14
2015 04 09 08 03 36 .37      31   -101     -5    106    107 162.6  -3.1  33322  275.53 0865.14
2015 04 09 08 03 36 .62      34   -104    -10    110    111 161.7  -5.6  33318  275.48 0865.14
2015 04 09 08 03 36 .87      18   -100    -12    102    103 169.8  -7.2  33320  275.50 0865.14
2015 04 09 08 03 37 .12      28    -93     -8     98     99 163.1  -5.2  33322  275.53 0865.14
2015 04 09 08 03 37 .37      29    -97    -13    102    103 163.5  -7.3  33318  275.48 0865.14
2015 04 09 08 03 37 .62      29    -97    -13    102    103 163.5  -7.3  33318  275.48 0865.14
2015 04 09 08 03 37 .87      34    -93    -12    100    101 160.0  -7.3  33322  275.53 0865.14
2015 04 09 08 03 38 .12      34    -93    -12    100    101 160.0  -7.3  33322  275.53 0865.14
2015 04 09 08 03 38 .38      25   -108     -4    112    113 166.6  -2.2  33362  276.20 0865.14
2015 04 09 08 03 38 .62      27    -97     -2    101    102 164.0  -1.2  33332  275.72 0865.14
2015 04 09 08 03 38 .88      17    -93     -3     95     96 169.3  -2.2  33322  275.53 0865.14
2015 04 09 08 03 39 .13      17    -84    -11     86     87 168.4  -7.3  33320  275.50 0865.14
2015 04 09 08 03 39 .38      22    -83    -13     86     88 164.9  -8.8  33322  275.53 0865.14
2015 04 09 08 03 39 .63      19    -95     -8     98     99 168.4  -5.2  33328  275.63 0865.14
2015 04 09 08 03 39 .88      22    -92     -6     95     96 166.6  -4.1  33328  275.65 0865.14
2015 04 09 08 03 40 .13      19    -95     -8     98     99 168.4  -5.2  33328  275.63 0865.14
2015 04 09 08 03 40 .38      24    -89     -4     93     94 164.9  -2.6  33352  276.03 0865.14
2015 04 09 08 03 40 .64      15    -96     -6     98     99 170.7  -3.7  33374  276.41 0865.14
2015 04 09 08 03 40 .89      27    -85     -3     90     91 162.2  -2.2  33356  276.11 0865.14
2015 04 09 08 03 41 .15      22    -77      0     81     82 164.0  -0.3  33364  276.23 0865.14
2015 04 09 08 03 41 .39      24    -73      7     78     79 161.3   5.4  33382  276.53 0865.14
2015 04 09 08 03 41 .65       0    -83     11     84     85 180.4   7.5  33384  276.56 0865.14
2015 04 09 08 03 41 .89       6    -68      2     69     70 174.7   1.8  33394  276.73 0865.14
2015 04 09 08 03 42 .14      19    -84     -3     87     88 167.1  -2.6  33366  276.28 0865.14
2015 04 09 08 03 42 .40      31    -70     -4     77     78 155.5  -3.1  33346  275.93 0865.14
2015 04 09 08 03 42 .65      31    -70      8     77     78 155.5   5.9  33394  276.73 0865.14
2015 04 09 08 03 42 .90      23    -69      1     73     74 161.3   0.8  33346  275.93 0865.14
2015 04 09 08 03 43 .15      22    -68     -1     72     73 161.5  -1.3  33340  275.83 0865.14
2015 04 09 08 03 43 .39      17    -64      0     67     68 164.9  -0.3  33330  275.67 0865.14
2015 04 09 08 03 43 .66      12    -61     -2     63     64 168.4  -2.2  33326  275.60 0865.14
2015 04 09 08 03 43 .91       6    -70      6     71     72 174.7   4.9  33392  276.69 0865.14
2015 04 09 08 03 44 .15       8    -69      7     70     71 172.9   5.9  33398  276.81 0865.14
2015 04 09 08 03 44 .40      15    -81      5     83     84 168.9   3.8  33408  276.96 0865.14
2015 04 09 08 03 44 .65      36    -71      5     80     81 152.8   3.8  33390  276.66 0865.14
2015 04 09 08 03 44 .90      21    -63     15     67     69 161.7  13.2  33394  276.74 0865.14
2015 04 09 08 03 45 .15      18    -53      2     57     58 161.3   2.9  33378  276.46 0865.14
2015 04 09 08 03 45 .40      23    -48      2     54     55 154.7   2.9  33364  276.25 0865.14
2015 04 09 08 03 45 .65      14    -46      5     49     50 162.2   5.9  33364  276.23 0865.14
2015 04 09 08 03 45 .90      16    -48     -2     51     52 161.7  -2.2  33328  275.63 0865.14
2015 04 09 08 03 46 .15      13    -54     -2     56     57 165.7  -2.2  33324  275.57 0865.15
2015 04 09 08 03 46 .40      12    -61     -8     63     64 168.4  -7.2  33324  275.58 0865.15
2015 04 09 08 03 46 .65      12    -61     -8     63     64 168.4  -7.2  33324  275.58 0865.15
2015 04 09 08 03 46 .90      15    -57     -5     60     61 164.9  -5.2  33324  275.57 0865.15
2015 04 09 08 03 47 .16      12    -61     -8     63     64 168.4  -7.2  33324  275.58 0865.15
2015 04 09 08 03 47 .41       7    -52    -11     53     55 172.0 -12.4  33324  275.58 0865.15
2015 04 09 08 03 47 .67       0    -53     -7     54     55 179.1  -7.3  33324  275.58 0865.15
2015 04 09 08 03 47 .92       0    -48     -8     49     50 180.9 -10.3  33322  275.55 0865.15
2015 04 09 08 03 48 .17      -1    -54    -18     55     57 181.8 -23.8  33324  275.58 0865.15
2015 04 09 08 03 48 .42       0    -43    -14     44     47 180.9 -17.6  33326  275.60 0865.15
2015 04 09 08 03 48 .67       0    -43    -14     44     47 180.9 -17.6  33326  275.60 0865.15
2015 04 09 08 03 48 .92       0    -43    -14     44     47 180.9 -17.6  33326  275.60 0865.15
2015 04 09 08 03 49 .17       0    -43    -14     44     47 180.9 -17.6  33326  275.60 0865.15
2015 04 09 08 03 49 .42       0    -43    -14     44     47 180.9 -17.6  33326  275.60 0865.15
2015 04 09 08 03 49 .67       0    -43    -14     44     47 180.9 -17.6  33326  275.60 0865.16
2015 04 09 08 03 49 .92       6    -49     -6     50     51 172.0  -7.3  33326  275.62 0865.16
2015 04 09 08 03 50 .18       1    -48     -5     49     50 178.2  -6.2  33336  275.77 0865.16
2015 04 09 08 03 50 .43     -14    -58     -3     60     61 194.3  -3.1  33370  276.33 0865.16
2015 04 09 08 03 50 .67     -15    -46      6     49     50 198.3   8.0  33404  276.91 0865.16
2015 04 09 08 03 50 .92     -17    -47     13     51     53 200.0  15.3  33388  276.64 0865.16
2015 04 09 08 03 51 .17      -1    -48     17     49     52 181.8  19.2  33380  276.51 0865.16
2015 04 09 08 03 51 .43      -5    -50     19     51     54 186.2  20.0  33382  276.53 0865.16
2015 04 09 08 03 51 .68      -5    -42     25     43     49 188.0  33.5  33384  276.56 0865.16
2015 04 09 08 03 51 .93       6    -43     33     44     55 172.0  40.7  33404  276.89 0865.16
2015 04 09 08 03 52 .17       0    -38     26     39     46 179.1  36.5  33410  276.99 0865.16
2015 04 09 08 03 52 .43      -1    -34     24     35     42 182.6  37.6  33406  276.94 0865.15
2015 04 09 08 03 52 .68     -12    -46     20     48     52 195.1  24.1  33386  276.59 0865.15
2015 04 09 08 03 52 .93     -10    -52      4     54     55 191.5   4.9  33346  275.93 0865.15
2015 04 09 08 03 53 .18     -19    -54      2     58     59 199.2   2.9  33348  275.96 0865.15
2015 04 09 08 03 53 .44     -12    -61     12     63     65 191.5  11.1  33374  276.41 0865.15
2015 04 09 08 03 53 .68      -5    -72     32     73     79 184.4  24.6  33388  276.63 0865.15
2015 04 09 08 03 53 .93       0    -57     17     58     61 180.9  16.3  33344  275.90 0865.15
2015 04 09 08 03 54 .18     -27    -81      8     86     87 198.3   5.9  33336  275.78 0865.15
2015 04 09 08 03 54 .45     -26    -80     15     85     87 198.3  10.1  33340  275.85 0865.15
2015 04 09 08 03 54 .69     -31    -89     17     95     97 199.2  10.6  33346  275.93 0865.15
2015 04 09 08 03 54 .94     -35    -86     14     93     95 202.3   8.5  33338  275.82 0865.15
2015 04 09 08 03 55 .20     -31    -85      7     91     92 200.5   4.4  33342  275.88 0865.15
2015 04 09 08 03 55 .45      -5    -75     17     76     78 184.5  12.6  33356  276.11 0865.15
2015 04 09 08 03 55 .70     -24    -81     -1     85     86 196.5  -0.7  33348  275.98 0865.15
2015 04 09 08 03 55 .94     -18    -82     -3     85     86 192.9  -2.2  33338  275.82 0865.15
2015 04 09 08 03 56 .20     -10    -76     -3     77     78 188.1  -2.2  33328  275.65 0865.15
2015 04 09 08 03 56 .46      -8    -80    -12     81     82 186.2  -8.8  33328  275.63 0865.15
2015 04 09 08 03 56 .70     -13    -80    -11     82     83 189.8  -7.7  33326  275.62 0865.15
2015 04 09 08 03 56 .95      -7    -83     -3     84     85 185.3  -2.2  33324  275.58 0865.15
2015 04 09 08 03 57 .20     -14    -79     -3     81     82 190.2  -2.2  33324  275.58 0865.15
2015 04 09 08 03 57 .45     -15    -83     -1     85     86 190.2  -0.7  33324  275.58 0865.15
2015 04 09 08 03 57 .70     -13    -80     -3     82     83 189.3  -2.2  33322  275.53 0865.15
2015 04 09 08 03 57 .95      -7    -83     -3     84     85 185.3  -2.2  33324  275.58 0865.15
2015 04 09 08 03 58 .20     -13    -80      0     82     83 189.3   0.2  33322  275.55 0865.15
2015 04 09 08 03 58 .45      -7    -84      7     85     86 184.9   4.9  33324  275.58 0865.15
2015 04 09 08 03 58 .70      -2    -84      4     85     86 181.8   3.3  33324  275.57 0865.15
2015 04 09 08 03 58 .95      -7    -84      7     85     86 184.9   4.9  33324  275.58 0865.15
2015 04 09 08 03 59 .20       0    -81      1     82     83 180.5   1.2  33326  275.60 0865.15
2015 04 09 08 03 59 .45      -7    -83     -3     84     85 185.3  -2.2  33324  275.58 0865.15
2015 04 09 08 03 59 .70      -2    -83     -6     84     85 181.8  -4.6  33322  275.55 0865.15
2015 04 09 08 03 59 .95      -7    -83     -3     84     85 185.3  -2.2  33324  275.58 0865.15
2015 04 09 08 04 00 .20      -4    -87     -2     88     89 183.1  -1.8  33326  275.60 0865.15
2015 04 09 08 04 00 .46       2    -87     -1     88     89 178.6  -1.3  33322  275.53 0865.15
2015 04 09 08 04 00 .70       1    -81     -1     82     83 178.6  -1.3  33324  275.58 0865.15
2015 04 09 08 04 00 .96       0    -75     -3     76     77 180.0  -2.2  33322  275.55 0865.15
2015 04 09 08 04 01 .21       5    -76     -4     77     78 175.6  -3.1  33324  275.58 0865.15
2015 04 09 08 04 01 .47       0    -75     -3     76     77 180.0  -2.2  33322  275.55 0865.15
2015 04 09 08 04 01 .72      -4    -75     -1     76     77 183.6  -1.2  33324  275.58 0865.15
2015 04 09 08 04 01 .97      -5    -75      2     76     77 184.5   1.8  33322  275.55 0865.15
2015 04 09 08 04 02 .22     -14    -81      7     83     84 189.8   5.4  33324  275.58 0865.15
2015 04 09 08 04 02 .47     -10    -84      4     85     86 187.1   2.9  33324  275.58 0865.15
2015 04 09 08 04 02 .72      -4    -87     -2     88     89 183.1  -1.8  33326  275.60 0865.15
2015 04 09 08 04 02 .97      -4    -87     -2     88     89 183.1  -1.8  33326  275.60 0865.15
2015 04 09 08 04 03 .22       5    -90     -3     91     92 176.4  -2.2  33324  275.58 0865.15
2015 04 09 08 04 03 .47       0    -94     -4     95     96 180.5  -2.6  33322  275.53 0865.15
2015 04 09 08 04 03 .72       0    -83     -7     84     85 180.4  -5.2  33324  275.57 0865.15
2015 04 09 08 04 03 .97      -9    -87     -6     88     89 186.2  -4.1  33326  275.60 0865.15
2015 04 09 08 04 04 .22     -16   -102     -4    104    105 189.3  -2.2  33326  275.60 0865.15
2015 04 09 08 04 04 .48     -18    -95     -9     97     98 191.1  -5.6  33322  275.53 0865.15
2015 04 09 08 04 04 .72     -16    -92     -7     94     95 190.2  -4.6  33322  275.55 0865.15
2015 04 09 08 04 04 .97      -6    -94     -3     95     96 183.6  -2.2  33322  275.55 0865.15
2015 04 09 08 04 05 .22     -11    -83     -3     84     85 187.6  -2.2  33322  275.55 0865.15
2015 04 09 08 04 05 .48      -7    -83     -3     84     85 185.3  -2.2  33324  275.58 0865.15
2015 04 09 08 04 05 .73      -5    -80     -3     81     82 184.0  -2.2  33322  275.55 0865.15
2015 04 09 08 04 05 .98      -5    -72     -2     73     74 184.5  -2.2  33322  275.55 0865.15
2015 04 09 08 04 06 .23      -5    -75     -9     76     77 184.5  -7.3  33322  275.55 0865.15
2015 04 09 08 04 06 .48      -9    -79     -5     80     81 187.1  -4.1  33326  275.60 0865.15
2015 04 09 08 04 06 .73     -14    -76     -7     78     79 190.7  -5.2  33324  275.57 0865.15
2015 04 09 08 04 06 .98     -15    -76     -6     78     79 191.6  -4.6  33324  275.57 0865.15
2015 04 09 08 04 07 .23     -10    -76     -9     77     78 188.1  -7.2  33324  275.58 0865.15
2015 04 09 08 04 07 .48      -5    -75     -9     76     77 184.5  -7.3  33322  275.55 0865.15
2015 04 09 08 04 07 .73      -9    -79     -5     80     81 187.1  -4.1  33326  275.60 0865.15
2015 04 09 08 04 07 .98     -11    -83     -3     84     85 187.6  -2.2  33322  275.55 0865.15
2015 04 09 08 04 08 .23     -10    -76     -9     77     78 188.1  -7.2  33324  275.58 0865.15
2015 04 09 08 04 08 .49      -6    -66    -18     67     70 185.3 -15.4  33324  275.58 0865.15
2015 04 09 08 04 08 .74      -6    -66    -18     67     70 185.3 -15.4  33324  275.58 0865.15
2015 04 09 08 04 08 .99      -6    -66    -18     67     70 185.3 -15.4  33324  275.58 0865.16
2015 04 09 08 04 09 .25     -10    -61    -22     62     66 189.8 -19.7  33324  275.58 0865.16
2015 04 09 08 04 09 .50     -16    -68    -12     70     72 193.4 -10.3  33324  275.58 0865.16
2015 04 09 08 04 09 .75     -13    -65     -8     67     68 191.6  -7.3  33326  275.60 0865.16
2015 04 09 08 04 10 .00     -12    -61     -8     63     64 191.5  -7.2  33324  275.58 0865.16
2015 04 09 08 04 10 .25     -13    -65     -8     67     68 191.6  -7.3  33326  275.60 0865.16
2015 04 09 08 04 10 .50     -15    -69    -14     71     73 192.5 -11.3  33334  275.73 0865.16
2015 04 09 08 04 10 .75     -15    -53    -12     56     58 196.0 -12.4  33334  275.73 0865.15
2015 04 09 08 04 11 .00      -8    -57    -20     58     62 188.9 -19.7  33326  275.60 0865.15
2015 04 09 08 04 11 .25      -6    -52    -17     53     56 187.1 -18.7  33324  275.58 0865.15
2015 04 09 08 04 11 .50      -6    -52    -17     53     56 187.1 -18.7  33324  275.58 0865.15
2015 04 09 08 04 11 .75     -17    -53    -12     56     58 197.8 -12.4  33324  275.58 0865.15
2015 04 09 08 04 12 .00     -17    -53     -6     56     57 197.8  -6.2  33332  275.70 0865.15
2015 04 09 08 04 12 .26     -18    -45     -1     49     50 201.8  -2.2  33340  275.83 0865.15
2015 04 09 08 04 12 .50     -16    -51     -2     54     55 198.3  -2.2  33334  275.75 0865.15
2015 04 09 08 04 12 .76     -14    -48     -2     51     52 196.9  -2.2  33328  275.63 0865.15
2015 04 09 08 04 13 .00     -14    -49     -9     51     52 196.0 -10.3  33326  275.62 0865.15
2015 04 09 08 04 13 .25     -17    -53    -12     56     58 197.8 -12.4  33324  275.58 0865.15
2015 04 09 08 04 13 .50      -9    -48    -12     49     51 190.7 -14.5  33328  275.63 0865.15
2015 04 09 08 04 13 .75      -5    -41    -12     42     43 187.1 -21.7  33322  275.55 0865.15
2015 04 09 08 04 14 .00      -8    -43    -16     44     46 191.6 -24.4  33326  275.60 0865.15
2015 04 09 08 04 14 .26     -11    -47    -18     49     52 193.4 -24.4  33324  275.58 0865.15
2015 04 09 08 04 14 .51      -9    -48    -12     49     51 190.7 -14.5  33328  275.63 0865.15
2015 04 09 08 04 14 .76     -15    -39     -3     43     44 201.8  -5.2  33328  275.65 0865.15
2015 04 09 08 04 15 .01      -6    -38     -8     39     40 189.8 -12.4  33328  275.65 0865.15
2015 04 09 08 04 15 .27      -9    -41      0     42     43 192.5  -0.3  33330  275.68 0865.15
2015 04 09 08 04 15 .52     -12    -37     -1     40     41 198.7  -2.2  33342  275.86 0865.15
2015 04 09 08 04 15 .77     -14    -38      0     41     42 200.9   0.8  33342  275.88 0865.15
2015 04 09 08 04 16 .02     -11    -35      1     37     38 198.3   2.9  33344  275.91 0865.15
2015 04 09 08 04 16 .27     -16    -35     -1     39     40 205.5  -2.2  33342  275.86 0865.15
2015 04 09 08 04 16 .52     -12    -37     -1     40     41 198.7  -2.2  33338  275.82 0865.15
2015 04 09 08 04 16 .77     -13    -42    -10     45     47 197.8 -13.4  33332  275.70 0865.15
2015 04 09 08 04 17 .02     -13    -34     -2     37     38 201.8  -3.1  33340  275.83 0865.15
2015 04 09 08 04 17 .28      -7    -37     -1     38     39 191.6  -2.2  33328  275.63 0865.15
2015 04 09 08 04 17 .53     -11    -35    -10     37     39 198.3 -15.5  33336  275.77 0865.15
2015 04 09 08 04 17 .77     -24    -45    -14     52     55 208.1 -15.5  33328  275.65 0865.15
2015 04 09 08 04 18 .02      -9    -48    -12     49     51 190.7 -14.5  33328  275.63 0865.15
2015 04 09 08 04 18 .28     -13    -49    -11     51     53 195.1 -12.4  33332  275.70 0865.15
2015 04 09 08 04 18 .53     -14    -58     -3     60     61 194.3  -3.1  33328  275.63 0865.15
2015 04 09 08 04 18 .78      -9    -57     -5     58     59 189.8  -5.2  33326  275.60 0865.15
2015 04 09 08 04 19 .03      -9    -57     -5     58     59 189.8  -5.2  33330  275.67 0865.15
2015 04 09 08 04 19 .28     -11    -53     -7     55     56 192.5  -7.3  33328  275.63 0865.15
2015 04 09 08 04 19 .53      -9    -57      0     58     59 189.8  -0.3  33334  275.73 0865.15
2015 04 09 08 04 19 .78      -5    -49     -1     50     51 186.2  -2.2  33328  275.65 0865.15
2015 04 09 08 04 20 .04     -10    -42     -5     44     45 194.3  -7.2  33342  275.86 0865.15
2015 04 09 08 04 20 .28     -12    -48      2     50     51 194.3   2.9  33346  275.95 0865.15
2015 04 09 08 04 20 .53     -14    -58     10     60     61 194.3  10.1  33340  275.83 0865.15
2015 04 09 08 04 20 .78     -19    -54     10     58     59 199.2  10.1  33328  275.63 0865.15
2015 04 09 08 04 21 .04     -23    -58      7     63     64 201.8   6.9  33328  275.65 0865.15
2015 04 09 08 04 21 .29     -27    -58      3     65     66 205.4   2.8  33372  276.36 0865.15
2015 04 09 08 04 21 .53     -24    -53     11     59     61 204.5  11.1  33386  276.61 0865.15
2015 04 09 08 04 21 .79     -30    -54      6     62     63 209.0   5.9  33396  276.76 0865.15
2015 04 09 08 04 22 .03     -37    -44     19     58     62 219.6  18.4  33396  276.78 0865.15
2015 04 09 08 04 22 .30     -31    -49      5     59     60 212.5   4.9  33372  276.38 0865.15
2015 04 09 08 04 22 .55     -22    -50      6     55     56 203.6   6.9  33360  276.16 0865.15
2015 04 09 08 04 23 .30     -10    -50     -1     52     53 191.5  -1.3  33344  275.90 0865.15
2015 04 09 08 04 23 .55     -18    -53     16     57     60 199.2  16.3  33374  276.41 0865.15
2015 04 09 08 04 23 .81     -21    -65     13     69     71 198.5  11.1  33394  276.73 0865.15
2015 04 09 08 04 24 .05     -38    -46     27     61     66 219.7  25.1  33420  277.16 0865.15
2015 04 09 08 04 24 .30     -31    -55     18     64     67 209.0  16.3  33376  276.43 0865.15
2015 04 09 08 04 24 .55     -31    -55     18     64     67 209.0  16.3  33384  276.58 0865.15
2015 04 09 08 04 24 .80     -26    -56      8     62     63 205.3   8.0  33354  276.08 0865.15
2015 04 09 08 04 25 .06     -27    -57      9     64     65 205.4   8.0  33364  276.23 0865.15
2015 04 09 08 04 25 .31     -25    -54      5     60     61 205.3   4.9  33360  276.18 0865.15
2015 04 09 08 04 25 .56     -22    -40     16     46     49 209.0  19.4  33378  276.48 0865.15
2015 04 09 08 04 25 .80     -23    -48      9     54     55 205.4  10.1  33350  276.00 0865.16
2015 04 09 08 04 26 .05     -17    -50      4     53     54 199.2   4.9  33334  275.73 0865.16
2015 04 09 08 04 26 .30     -17    -50      4     53     54 199.2   4.9  33330  275.68 0865.16
2015 04 09 08 04 26 .56     -23    -50      7     56     57 205.3   8.0  33328  275.65 0865.16
2015 04 09 08 04 26 .81     -18    -58      5     61     62 197.8   4.9  33330  275.68 0865.16
2015 04 09 08 04 27 .06     -17    -53      0     56     57 197.8  -0.3  33330  275.68 0865.16
2015 04 09 08 04 27 .31     -21    -46      2     51     52 204.5   2.9  33338  275.80 0865.16
2015 04 09 08 04 27 .56     -16    -49     -2     52     53 198.3  -2.2  33340  275.85 0865.16
2015 04 09 08 04 27 .81     -32    -50      5     60     61 212.5   4.9  33334  275.73 0865.15
2015 04 09 08 04 28 .06     -32    -57      4     66     67 209.0   3.8  33336  275.78 0865.15
2015 04 09 08 04 28 .31     -30    -54      6     62     63 209.0   5.9  33332  275.70 0865.15
2015 04 09 08 04 28 .56     -26    -58      2     64     65 204.5   1.8  33332  275.72 0865.15
2015 04 09 08 04 28 .81     -24    -62      3     67     68 201.8   2.9  33330  275.68 0865.15
2015 04 09 08 04 29 .07     -29    -61      4     68     69 205.4   3.8  33338  275.80 0865.15
2015 04 09 08 04 29 .32     -23    -65      3     70     71 200.0   2.8  33332  275.70 0865.15
2015 04 09 08 04 29 .57     -29    -61     -1     68     69 205.3  -1.2  33334  275.73 0865.15
2015 04 09 08 04 29 .82     -25    -76      3     81     82 198.7   2.3  33330  275.68 0865.15
2015 04 09 08 04 30 .07     -32    -73      4     80     81 203.6   3.3  33330  275.67 0865.15
2015 04 09 08 04 30 .32     -24    -71     -1     76     77 198.7  -1.2  33330  275.68 0865.15
2015 04 09 08 04 30 .58     -30    -77      4     83     84 201.4   3.3  33328  275.65 0865.15
2015 04 09 08 04 30 .82     -25    -77      4     82     83 198.5   3.3  33328  275.63 0865.15
2015 04 09 08 04 31 .07     -24    -71     -1     76     77 198.7  -1.2  33330  275.68 0865.15
2015 04 09 08 04 31 .33     -22    -66     -1     70     71 198.5  -1.3  33328  275.63 0865.15
2015 04 09 08 04 31 .58     -26    -58      2     64     65 204.5   1.8  33332  275.72 0865.15
2015 04 09 08 04 31 .83     -18    -65      3     68     69 196.0   2.9  33330  275.68 0865.15
2015 04 09 08 04 32 .08     -27    -58      3     65     66 205.4   2.8  33340  275.85 0865.15
2015 04 09 08 04 32 .33     -28    -53     -1     61     62 208.1  -1.2  33334  275.73 0865.15
2015 04 09 08 04 32 .58     -20    -67      3     71     72 196.9   2.8  33332  275.70 0865.15
2015 04 09 08 04 32 .83     -19    -54     -2     58     59 199.2  -2.2  33336  275.78 0865.15
2015 04 09 08 04 33 .08     -18    -72     -2     75     76 194.3  -2.2  33332  275.70 0865.15
2015 04 09 08 04 33 .33     -18    -72     -2     75     76 194.3  -2.2  33332  275.70 0865.15
2015 04 09 08 04 33 .58      -8    -63     -5     64     65 188.0  -5.2  33334  275.75 0865.15
2015 04 09 08 04 33 .83     -16    -61     -5     64     65 195.1  -5.2  33332  275.70 0865.15
2015 04 09 08 04 34 .08     -17    -53      0     56     57 197.8  -0.3  33334  275.73 0865.15
2015 04 09 08 04 34 .33     -16    -61     -1     64     65 195.1  -1.2  33340  275.83 0865.15
2015 04 09 08 04 34 .58     -17    -53      0     56     57 197.8  -0.3  33334  275.73 0865.15
2015 04 09 08 04 34 .83     -18    -58     -2     61     62 197.8  -2.2  33334  275.75 0865.15
2015 04 09 08 04 35 .09     -19    -54     -2     58     59 199.2  -2.2  33336  275.78 0865.15
2015 04 09 08 04 35 .33     -24    -54     -2     60     61 204.5  -2.2  33338  275.80 0865.15
2015 04 09 08 04 35 .59     -19    -54      2     58     59 199.2   2.9  33338  275.80 0865.15
2015 04 09 08 04 35 .84     -27    -58      3     65     66 205.4   2.8  33340  275.85 0865.14
2015 04 09 08 04 36 .10     -30    -54      6     62     63 209.0   5.9  33336  275.77 0865.14
2015 04 09 08 04 36 .35     -26    -57      8     63     64 204.5   8.0  33328  275.63 0865.14
2015 04 09 08 04 36 .60     -26    -57      8     63     64 204.5   8.0  33330  275.68 0865.14
2015 04 09 08 04 36 .85     -29    -61     13     68     70 205.4  11.1  33336  275.78 0865.14
2015 04 09 08 04 37 .10     -19    -60      9     64     65 197.8   8.0  33336  275.78 0865.14
2015 04 09 08 04 37 .35     -14    -58     10     60     61 194.3  10.1  33330  275.68 0865.14
2015 04 09 08 04 37 .61     -16    -60     14     63     65 195.1  13.2  33340  275.83 0865.14
2015 04 09 08 04 37 .85     -17    -64     13     67     69 195.1  11.0  33338  275.80 0865.14
2015 04 09 08 04 38 .10     -23    -72      6     76     77 197.8   4.9  33334  275.75 0865.14
2015 04 09 08 04 38 .35     -20    -77      0     80     81 195.1   0.2  33344  275.91 0865.14
2015 04 09 08 04 38 .60     -28    -62      7     69     70 204.5   5.9  33356  276.11 0865.15
2015 04 09 08 04 38 .86     -19    -67     11     70     71 196.0   9.0  33354  276.08 0865.15
2015 04 09 08 04 39 .10     -24    -71      3     76     77 198.7   2.9  33346  275.95 0865.15
2015 04 09 08 04 39 .35     -20    -68      1     72     73 196.9   0.8  33350  276.01 0865.15
2015 04 09 08 04 39 .62     -25    -77     -3     82     83 198.5  -2.2  33368  276.31 0865.15
2015 04 09 08 04 39 .86     -30    -48     20     57     61 212.5  19.2  33396  276.78 0865.15
2015 04 09 08 04 40 .11     -24    -35     16     43     45 214.3  20.0  33384  276.58 0865.15
2015 04 09 08 04 40 .35      -9    -34     10     36     38 195.1  15.3  33368  276.30 0865.15
2015 04 09 08 04 40 .61      -9    -34      1     36     37 195.1   2.8  33370  276.33 0865.15
2015 04 09 08 04 40 .86      24    -52     16     58     61 155.5  15.3  33388  276.63 0865.15
2015 04 09 08 04 41 .11       0    -53      4     54     55 179.1   4.9  33400  276.83 0865.15
2015 04 09 08 04 41 .36      -5    -71     12     72     74 184.5  10.1  33404  276.91 0865.14
2015 04 09 08 04 41 .61      -9    -87      5     88     89 186.2   3.8  33374  276.41 0865.14
2015 04 09 08 04 41 .86      -6    -86      0     87     88 184.5  -0.3  33348  275.96 0865.14
2015 04 09 08 04 42 .11      -7    -83     -3     84     85 185.3  -2.2  33328  275.63 0865.14
2015 04 09 08 04 42 .36      -4    -87     -2     88     89 183.1  -1.8  33326  275.60 0865.14
2015 04 09 08 04 42 .61      -4    -87     -2     88     89 183.1  -1.8  33326  275.60 0865.14
2015 04 09 08 04 42 .86      -4    -87     -2     88     89 183.1  -1.8  33326  275.60 0865.14
2015 04 09 08 04 43 .13      -2    -87      2     88     89 181.4   1.8  33334  275.75 0865.14
2015 04 09 08 04 43 .38      -4    -87      4     88     89 183.1   2.9  33340  275.83 0865.14
2015 04 09 08 04 43 .62     -10    -76      3     77     78 188.0   2.9  33358  276.13 0865.14
2015 04 09 08 04 43 .88      -7    -67     -2     68     69 186.2  -2.2  33378  276.48 0865.14
2015 04 09 08 04 44 .13       0    -91      4     92     93 180.4   2.8  33406  276.94 0865.14
2015 04 09 08 04 44 .38       9   -115     -2    116    117 175.5  -1.3  33366  276.28 0865.14
2015 04 09 08 04 44 .63      15   -105     -2    107    108 171.9  -1.3  33348  275.98 0865.14
2015 04 09 08 04 44 .88      16   -100     -4    102    103 170.7  -2.2  33330  275.67 0865.14
2015 04 09 08 04 45 .13      13    -90     -3     92     93 171.5  -2.2  33328  275.65 0865.14
2015 04 09 08 04 45 .38      12    -91    -14     92     94 172.0  -8.8  33330  275.67 0865.14
2015 04 09 08 04 45 .64       7    -93    -12     94     95 175.5  -7.3  33354  276.08 0865.14
2015 04 09 08 04 45 .89       3    -83     -4     84     85 177.3  -3.1  33398  276.79 0865.14
2015 04 09 08 04 46 .13      14    -66     13     68     70 167.5  11.1  33402  276.88 0865.14
2015 04 09 08 04 46 .38      17    -65     14     68     70 164.9  12.2  33420  277.17 0865.14
2015 04 09 08 04 46 .63       4    -57     11     58     60 175.5  11.1  33416  277.11 0865.14
2015 04 09 08 04 46 .88      24    -73     -3     78     79 161.3  -2.6  33406  276.94 0865.14
2015 04 09 08 04 47 .14      33    -67     -9     75     76 153.7  -7.2  33388  276.63 0865.14
2015 04 09 08 04 47 .38      31    -55     11     64     66 151.0  10.1  33412  277.04 0865.14
2015 04 09 08 04 47 .64       6    -55     -1     56     57 173.8  -1.3  33368  276.30 0865.14
2015 04 09 08 04 47 .88       1    -57      0     58     59 178.2  -0.3  33358  276.13 0865.14
2015 04 09 08 04 48 .14       0    -56     11     57     59 180.9  11.0  33360  276.18 0865.14
2015 04 09 08 04 48 .38      -1    -57      2     58     59 181.8   2.9  33358  276.15 0865.14
2015 04 09 08 04 48 .63       7    -68     -5     69     70 173.8  -4.1  33328  275.65 0865.14
2015 04 09 08 04 48 .88       5    -72     -9     73     74 175.5  -7.3  33328  275.63 0865.14
2015 04 09 08 04 49 .13       5    -72     -9     73     74 175.5  -7.3  33328  275.63 0865.14
2015 04 09 08 04 49 .39       4    -76     -9     77     78 176.4  -7.3  33328  275.65 0865.14
2015 04 09 08 04 49 .64      13    -75    -16     77     79 170.2 -11.9  33328  275.65 0865.14
2015 04 09 08 04 49 .89       6    -76    -11     77     78 175.5  -8.2  33328  275.63 0865.14
2015 04 09 08 04 50 .15       5    -68    -19     69     72 175.6 -15.4  33328  275.63 0865.14
2015 04 09 08 04 50 .40       2    -62    -21     63     67 177.3 -18.7  33332  275.70 0865.14
2015 04 09 08 04 50 .65       5    -71    -15     72     74 175.5 -12.4  33332  275.70 0865.14
2015 04 09 08 04 50 .90       5    -64     -8     65     66 175.5  -7.2  33340  275.83 0865.14
2015 04 09 08 04 51 .15       0    -68     -2     69     70 180.0  -2.2  33338  275.80 0865.14
2015 04 09 08 04 51 .40       5    -76     -9     77     78 175.6  -7.3  33338  275.82 0865.14
2015 04 09 08 04 51 .65      -2    -68     -5     69     70 181.8  -4.1  33340  275.85 0865.14
2015 04 09 08 04 51 .90      -4    -63     -8     64     65 184.5  -7.3  33336  275.78 0865.14
2015 04 09 08 04 52 .15      -7    -67     -9     68     69 186.2  -8.2  33338  275.80 0865.14
2015 04 09 08 04 52 .40       0    -65    -10     66     67 180.0  -9.3  33344  275.90 0865.14
2015 04 09 08 04 52 .66      -1    -71      1     72     73 180.9   0.8  33352  276.05 0865.14
2015 04 09 08 04 52 .91      -3    -75      3     76     77 182.7   2.9  33356  276.11 0865.14
2015 04 09 08 04 53 .15      15    -74      1     76     77 168.5   0.8  33382  276.53 0865.14
2015 04 09 08 04 53 .41       3    -80      0     81     82 177.8  -0.3  33364  276.23 0865.14
2015 04 09 08 04 53 .66      12    -92     -9     93     94 172.4  -5.6  33364  276.23 0865.14
2015 04 09 08 04 53 .91       7    -84     -7     85     86 174.7  -5.2  33344  275.90 0865.14
2015 04 09 08 04 54 .16       7    -83    -13     84     85 174.7  -8.8  33324  275.58 0865.14
2015 04 09 08 04 54 .41      10    -78    -19     79     82 172.0 -13.4  33328  275.63 0865.14
2015 04 09 08 04 54 .66      15    -75    -18     77     80 168.4 -13.4  33330  275.68 0865.14
2015 04 09 08 04 54 .91      15    -68    -19     70     73 167.5 -15.4  33328  275.63 0865.15
2015 04 09 08 04 55 .16      21    -67    -19     71     74 162.2 -15.5  33326  275.60 0865.15
2015 04 09 08 04 55 .41      20    -60    -19     64     67 161.7 -16.6  33332  275.72 0865.15
2015 04 09 08 04 55 .66      13    -52    -15     54     57 165.7 -15.5  33334  275.75 0865.15
2015 04 09 08 04 55 .91      10    -50     -9     52     53 168.5 -10.3  33340  275.85 0865.15
2015 04 09 08 04 56 .17       4    -60     -3     61     62 175.5  -3.1  33342  275.88 0865.15
2015 04 09 08 04 56 .42     -16    -61     -1     64     65 195.1  -1.2  33354  276.08 0865.15
2015 04 09 08 04 56 .67     -18    -57     11     60     62 197.8  11.1  33372  276.36 0865.15
2015 04 09 08 04 56 .92     -13    -65     15     67     69 191.6  13.2  33390  276.66 0865.15
2015 04 09 08 04 57 .17     -14    -57     17     59     62 194.3  16.3  33390  276.66 0865.15
2015 04 09 08 04 57 .43      -5    -50     20     51     54 186.2  21.0  33390  276.68 0865.14
2015 04 09 08 04 57 .68      -4    -54     22     55     59 184.4  23.0  33396  276.76 0865.14
2015 04 09 08 04 57 .93     -17    -53      7     56     57 198.7   8.0  33392  276.71 0865.14
2015 04 09 08 04 58 .18     -13    -41     10     44     46 198.3  13.2  33394  276.73 0865.14
2015 04 09 08 04 58 .43      -1    -31     13     32     34 182.6  21.0  33396  276.76 0865.14
2015 04 09 08 04 58 .68     -22    -69     11     73     74 198.3   9.0  33386  276.61 0865.14
2015 04 09 08 04 58 .93      -3    -53     -6     54     55 183.6  -7.2  33384  276.56 0865.14
2015 04 09 08 04 59 .18      -4    -53      7     54     55 184.4   8.0  33384  276.56 0865.14
2015 04 09 08 04 59 .43     -20    -60     17     64     67 198.3  15.2  33384  276.56 0865.14
2015 04 09 08 04 59 .68     -13    -69     -2     71     72 190.7  -2.2  33356  276.11 0865.14
2015 04 09 08 04 59 .94     -10    -53     10     54     56 190.7  11.1  33390  276.68 0865.14
2015 04 09 08 05 00 .18       1    -57      7     58     59 178.2   7.1  33390  276.66 0865.14
2015 04 09 08 05 00 .44      -9    -48     16     49     52 190.7  18.4  33406  276.92 0865.14
2015 04 09 08 05 00 .68     -13    -47     17     49     53 196.0  19.4  33400  276.84 0865.14
2015 04 09 08 05 00 .94     -10    -75     -1     76     77 188.0  -1.3  33356  276.10 0865.14
2015 04 09 08 05 01 .18     -22    -84     -3     87     88 194.7  -2.6  33366  276.28 0865.14
2015 04 09 08 05 01 .44      -7    -82     -3     83     84 184.9  -2.2  33378  276.46 0865.14
2015 04 09 08 05 01 .69      -9    -64      0     65     66 188.1   0.8  33388  276.63 0865.14
2015 04 09 08 05 01 .94     -14    -35     31     38     49 201.8  43.7  33404  276.91 0865.13
2015 04 09 08 05 02 .19       0    -34     30     35     46 179.1  45.8  33402  276.86 0865.13
2015 04 09 08 05 02 .44      -5    -42     20     43     47 188.0  26.2  33398  276.79 0865.13
2015 04 09 08 05 02 .69      -3    -34     26     35     43 186.2  40.7  33416  277.11 0865.13
2015 04 09 08 05 02 .94      -5    -57     33     58     66 185.3  32.4  33408  276.97 0865.13
2015 04 09 08 05 03 .19      -4    -60     21     61     65 184.4  18.9  33384  276.56 0865.13
2015 04 09 08 05 03 .44      -9    -64     14     65     67 188.0  12.2  33364  276.23 0865.13
2015 04 09 08 05 03 .69      -5    -68      8     69     70 184.5   6.9  33360  276.18 0865.13
2015 04 09 08 05 03 .95       1    -71     14     72     74 179.1  11.1  33358  276.13 0865.13
2015 04 09 08 05 04 .71       0    -79     18     80     83 180.5  12.6  33354  276.06 0865.13
2015 04 09 08 05 04 .96       0    -85     12     86     87 180.4   8.5  33368  276.30 0865.13
2015 04 09 08 05 05 .21      20    -82      4     85     86 165.7   2.9  33390  276.68 0865.13
2015 04 09 08 05 05 .45       4    -67      9     68     69 176.4   8.0  33388  276.64 0865.13
2015 04 09 08 05 05 .71       1    -79     -1     80     81 179.0  -1.3  33360  276.18 0865.13
2015 04 09 08 05 05 .96      -5    -71      3     72     73 184.4   2.9  33400  276.84 0865.13
2015 04 09 08 05 06 .21     -16    -60     14     63     65 195.1  13.2  33412  277.02 0865.13
2015 04 09 08 05 06 .46     -27    -51     36     58     68 208.1  35.5  33414  277.07 0865.13
2015 04 09 08 05 06 .71     -17    -54     35     57     66 197.8  35.5  33414  277.06 0865.13
2015 04 09 08 05 06 .96      -2    -42     31     43     53 182.7  39.7  33430  277.34 0865.13
2015 04 09 08 05 07 .21       0    -46      2     47     48 180.9   2.9  33434  277.41 0865.13
2015 04 09 08 05 07 .46       6    -18      7     20     22 160.0  19.2  33434  277.39 0865.13
2015 04 09 08 05 07 .71      17    -22     11     29     31 142.2  21.0  33430  277.32 0865.13
2015 04 09 08 05 07 .96       7    -19     20     21     29 160.0  52.0  33430  277.32 0865.13
2015 04 09 08 05 08 .21      17    -39     11     43     45 156.4  15.3  33436  277.42 0865.13
2015 04 09 08 05 08 .46      14    -38     -1     41     42 159.1  -2.2  33420  277.17 0865.14
2015 04 09 08 05 08 .71       0    -35     17     36     39 180.9  26.2  33434  277.41 0865.14
2015 04 09 08 05 08 .96       2    -36     20     37     42 175.6  30.3  33442  277.52 0865.14
2015 04 09 08 05 09 .21       6    -42     -1     43     44 171.1  -2.2  33442  277.52 0865.14
2015 04 09 08 05 09 .47      -3    -38      1     39     40 184.5   1.8  33442  277.54 0865.14
2015 04 09 08 05 09 .71       3    -30     10     31     33 173.8  19.2  33446  277.59 0865.14
2015 04 09 08 05 09 .97       0    -33     18     34     38 180.9  29.3  33450  277.65 0865.14
2015 04 09 08 05 10 .22       0    -22     14     23     26 179.1  35.5  33468  277.97 0865.14
2015 04 09 08 05 10 .47       7    -19     20     21     29 160.0  52.0  33498  278.45 0865.14
2015 04 09 08 05 10 .71      -1    -18     17     19     25 184.4  47.9  33490  278.32 0865.14
2015 04 09 08 05 10 .98      -6    -18     19     20     27 198.7  52.0  33482  278.20 0865.14
2015 04 09 08 05 11 .23      -6    -26     20     27     33 193.4  41.7  33482  278.20 0865.14
2015 04 09 08 05 11 .48      -7    -45     15     46     49 189.8  18.9  33460  277.82 0865.14
2015 04 09 08 05 11 .73      -3    -44      7     45     46 184.4   9.0  33444  277.56 0865.14
2015 04 09 08 05 11 .99      -7    -68     23     69     73 186.2  18.9  33420  277.17 0865.14
2015 04 09 08 05 12 .24      -7    -62     24     63     67 187.1  21.0  33436  277.44 0865.14
2015 04 09 08 05 12 .48       3    -46     37     47     59 175.5  42.7  33462  277.85 0865.14
2015 04 09 08 05 12 .73      14    -55     13     57     59 165.7  13.2  33426  277.26 0865.14
2015 04 09 08 05 12 .98      16    -51     15     54     57 162.2  16.3  33418  277.14 0865.14
2015 04 09 08 05 13 .23      -5    -49     12     50     52 186.2  14.3  33390  276.66 0865.14
2015 04 09 08 05 13 .49      18    -58     -7     61     62 162.2  -7.2  33384  276.58 0865.14
2015 04 09 08 05 13 .73       0    -49    -14     50     51 180.9 -20.7  33376  276.44 0865.14
2015 04 09 08 05 13 .98      -5    -64      3     65     66 184.5   2.9  33378  276.48 0865.14
2015 04 09 08 05 14 .23      -4    -63      4     64     65 184.5   3.8  33366  276.28 0865.14
2015 04 09 08 05 14 .49      -1    -65      3     66     67 180.9   2.8  33386  276.61 0865.14
2015 04 09 08 05 14 .73       0    -66      5     67     68 180.0   4.9  33370  276.33 0865.14
2015 04 09 08 05 14 .99      -2    -68      5     69     70 181.8   4.9  33378  276.46 0865.14
2015 04 09 08 05 15 .25       5    -72     -1     73     74 175.5  -1.3  33402  276.86 0865.14
2015 04 09 08 05 15 .49       0    -61     -2     62     63 180.9  -2.2  33414  277.06 0865.14
2015 04 09 08 05 15 .74      -2    -68     14     69     71 181.8  12.2  33418  277.14 0865.14
2015 04 09 08 05 15 .99      -1    -64      9     65     66 180.9   8.0  33434  277.39 0865.14
2015 04 09 08 05 16 .24      14    -54      4     56     57 164.9   4.9  33446  277.59 0865.14
2015 04 09 08 05 16 .49       4    -53      2     54     55 175.5   2.9  33448  277.62 0865.14
2015 04 09 08 05 16 .75      20    -43      4     48     49 154.6   4.9  33464  277.89 0865.14
2015 04 09 08 05 16 .99      22    -55     -1     60     61 158.2  -1.2  33476  278.09 0865.14
2015 04 09 08 05 17 .25      10    -65     -2     66     67 171.1  -2.2  33430  277.34 0865.14
2015 04 09 08 05 17 .49      16    -59     21     62     66 164.8  19.2  33504  278.57 0865.14
2015 04 09 08 05 17 .74      16    -51     22     54     58 162.2  22.0  33480  278.17 0865.14
2015 04 09 08 05 18 .00      12    -63     -3     65     66 169.3  -3.1  33342  275.88 0865.14
2015 04 09 08 05 18 .25      10    -66     -3     67     68 171.1  -3.1  33336  275.78 0865.14
2015 04 09 08 05 18 .50      10    -65    -10     66     67 171.1  -9.3  33332  275.70 0865.14
2015 04 09 08 05 18 .76       5    -72     -2     73     74 175.5  -2.2  33366  276.26 0865.14
2015 04 09 08 05 19 .00       7    -62     -5     63     64 172.9  -5.2  33334  275.75 0865.14
2015 04 09 08 05 19 .26       5    -69     -3     70     71 175.5  -3.1  33346  275.95 0865.14
2015 04 09 08 05 19 .51       7    -64     -2     65     66 173.8  -2.2  33384  276.56 0865.14
2015 04 09 08 05 19 .75       0    -57      2     58     59 180.9   2.9  33366  276.26 0865.14
2015 04 09 08 05 20 .01       0    -60     -2     61     62 180.0  -2.2  33346  275.95 0865.14
2015 04 09 08 05 20 .26      -7    -53     -2     54     55 188.0  -2.2  33342  275.88 0865.15
2015 04 09 08 05 20 .51       7    -56     12     57     59 172.0  12.2  33422  277.21 0865.15
2015 04 09 08 05 20 .76       9    -45      8     46     47 168.4  10.1  33416  277.11 0865.15
2015 04 09 08 05 21 .01       0    -58     10     59     60 180.9  10.1  33428  277.29 0865.15
2015 04 09 08 05 21 .26       0    -48      9     49     50 180.0  11.1  33424  277.22 0865.15
2015 04 09 08 05 21 .52       0    -61      6     62     63 180.9   5.9  33454  277.72 0865.15
2015 04 09 08 05 21 .76      20    -60     26     64     69 161.5  23.0  33512  278.69 0865.15
2015 04 09 08 05 22 .02       0    -62     26     63     68 180.9  23.0  33440  277.51 0865.15
2015 04 09 08 05 22 .26      10    -39     20     41     45 164.9  28.2  33420  277.16 0865.15
2015 04 09 08 05 22 .52       6    -46     16     47     50 172.0  19.2  33460  277.84 0865.15
2015 04 09 08 05 22 .76     -10    -49     10     51     52 191.6  11.1  33352  276.03 0865.15
2015 04 09 08 05 23 .02       0    -63      9     64     65 180.9   8.0  33354  276.08 0865.15
2015 04 09 08 05 23 .27      -9    -65      5     66     67 188.0   4.9  33448  277.62 0865.15
2015 04 09 08 05 23 .52     -12    -48     17     50     53 195.1  18.9  33430  277.34 0865.15
2015 04 09 08 05 23 .77      -4    -55     22     56     60 184.4  23.0  33462  277.87 0865.14
2015 04 09 08 05 24 .02      -6    -46     17     47     49 188.0  20.0  33420  277.16 0865.14
2015 04 09 08 05 24 .27     -12    -59     21     61     65 191.6  19.4  33406  276.92 0865.14
2015 04 09 08 05 24 .53      -6    -65      5     66     67 185.3   4.9  33396  276.78 0865.14
2015 04 09 08 05 24 .78     -11    -62     22     64     68 190.7  19.2  33406  276.94 0865.15
2015 04 09 08 05 25 .04      -7    -68     23     69     73 186.2  18.9  33418  277.14 0865.15
2015 04 09 08 05 25 .28       3    -41     29     42     51 175.5  37.6  33496  278.44 0865.15
2015 04 09 08 05 25 .53       4    -39     24     40     46 172.9  34.4  33482  278.19 0865.15
2015 04 09 08 05 25 .78       3    -46     16     47     50 175.5  18.9  33420  277.16 0865.15
2015 04 09 08 05 26 .03      -5    -39     13     40     43 188.0  18.4  33398  276.81 0865.15
2015 04 09 08 05 26 .28      -7    -37     11     38     40 191.6  16.3  33382  276.53 0865.15
2015 04 09 08 05 26 .54      -3    -40     13     41     44 185.3  18.4  33366  276.26 0865.15
2015 04 09 08 05 26 .78       1    -48      7     49     50 178.2   9.0  33350  276.01 0865.15
2015 04 09 08 05 27 .04      10    -50      2     52     53 168.5   2.9  33344  275.90 0865.15
2015 04 09 08 05 27 .29      12    -54      4     56     57 167.5   4.9  33376  276.43 0865.15
2015 04 09 08 05 27 .54       6    -49     13     50     52 172.0  15.3  33386  276.61 0865.15
2015 04 09 08 05 27 .79      11    -41      2     43     44 164.9   2.9  33422  277.21 0865.15
2015 04 09 08 05 28 .04       2    -35     16     36     39 175.5  25.1  33416  277.09 0865.15
2015 04 09 08 05 28 .29      21    -27     26     35     43 142.2  40.7  33438  277.46 0865.15
2015 04 09 08 05 28 .53      25    -28     24     38     44 138.6  35.5  33408  276.97 0865.15
2015 04 09 08 05 28 .79      21    -27     12     35     38 142.2  18.9  33384  276.56 0865.15
2015 04 09 08 05 29 .04       9    -16     16     19     24 151.0  45.8  33400  276.83 0865.15
2015 04 09 08 05 29 .29       2    -19     16     20     25 173.8  43.7  33402  276.88 0865.14
2015 04 09 08 05 29 .54       2    -18      9     19     21 172.0  27.2  33426  277.26 0865.14
2015 04 09 08 05 29 .79      15    -16     19     22     29 136.8  47.9  33420  277.17 0865.14
2015 04 09 08 05 30 .04       8    -26     20     28     34 163.1  37.6  33448  277.62 0865.14
2015 04 09 08 05 30 .31       2    -27     15     28     31 175.6  29.3  33464  277.89 0865.14
2015 04 09 08 05 30 .54       9    -32     16     34     37 163.1  27.2  33474  278.05 0865.14
2015 04 09 08 05 30 .80       7    -35      7     36     37 168.4  11.0  33518  278.80 0865.14
2015 04 09 08 05 31 .04       0    -18     24     19     30 182.7  56.4  33528  278.95 0865.15
2015 04 09 08 05 31 .29      -2     -7     22      8     23 198.7  81.2  33508  278.64 0865.15
2015 04 09 08 05 31 .54      -2    -15     28     16     32 188.0  66.8  33486  278.25 0865.15
2015 04 09 08 05 31 .81       5    -27     26     28     38 168.4  52.0  33492  278.37 0865.15
2015 04 09 08 05 32 .06      23    -23     34     33     47 135.0  49.1  33508  278.62 0865.15
2015 04 09 08 05 32 .33      15    -35     22     39     44 156.4  32.4  33512  278.69 0865.15
2015 04 09 08 05 32 .56       4    -30     17     31     35 172.0  33.5  33516  278.77 0865.15
2015 04 09 08 05 32 .80      -1    -21     15     22     26 184.5  35.6  33512  278.70 0865.15
2015 04 09 08 05 33 .06     -10    -32     20     34     39 198.3  33.5  33506  278.60 0865.15
2015 04 09 08 05 33 .32       2    -37      9     38     40 175.5  13.2  33504  278.55 0865.15
2015 04 09 08 05 33 .56       7    -36     19     37     41 168.4  29.3  33522  278.85 0865.15
2015 04 09 08 05 33 .81      -5    -41     20     42     46 188.0  27.2  33500  278.50 0865.15
2015 04 09 08 05 34 .06      -4    -41      6     42     43 186.2   9.0  33448  277.64 0865.15
2015 04 09 08 05 34 .31       5    -42      4     43     44 172.0   5.9  33446  277.59 0865.15
2015 04 09 08 05 34 .56      -4    -41     14     42     45 186.2  19.4  33468  277.97 0865.15
2015 04 09 08 05 34 .81      -9    -35     16     37     40 195.1  25.1  33464  277.89 0865.15
2015 04 09 08 05 35 .06      -2    -26     18     27     32 184.5  35.6  33474  278.07 0865.15
2015 04 09 08 05 35 .31       5    -31     18     32     36 170.2  33.5  33484  278.22 0865.15
2015 04 09 08 05 35 .57       8    -40      7     41     42 168.4  10.1  33482  278.19 0865.15
2015 04 09 08 05 35 .81       8    -40      8     41     42 167.5  11.1  33474  278.07 0865.15
2015 04 09 08 05 36 .06      12    -40      4     42     43 163.1   5.9  33412  277.04 0865.15
2015 04 09 08 05 36 .31       7    -41     -6     42     43 170.2  -9.3  33352  276.03 0865.15
2015 04 09 08 05 36 .57       6    -49      6     50     51 172.0   6.9  33382  276.53 0865.15
2015 04 09 08 05 36 .81       0    -47      3     48     49 180.9   3.8  33386  276.61 0865.15
2015 04 09 08 05 37 .07      13    -54     -2     56     57 165.7  -2.2  33344  275.91 0865.15
2015 04 09 08 05 37 .32      16    -47      2     50     51 160.8   2.9  33356  276.11 0865.14
2015 04 09 08 05 37 .57      24    -50     -3     56     57 154.6  -3.1  33352  276.03 0865.14
2015 04 09 08 05 37 .82      31    -49     -7     59     60 147.4  -7.3  33348  275.98 0865.14
2015 04 09 08 05 38 .07      25    -54    -15     60     62 154.6 -14.5  33344  275.90 0865.14
2015 04 09 08 05 38 .33      23    -58    -10     63     64 158.1  -9.3  33368  276.31 0865.14
2015 04 09 08 05 38 .57      25    -63     -8     68     69 158.1  -7.2  33360  276.18 0865.14
2015 04 09 08 05 38 .83      32    -58     -8     67     68 151.0  -7.3  33378  276.48 0865.14
2015 04 09 08 05 39 .09      28    -56    -18     63     66 152.8 -16.6  33368  276.30 0865.15
2015 04 09 08 05 39 .33      20    -42      4     47     48 153.7   5.9  33418  277.14 0865.15
2015 04 09 08 05 39 .58       7    -38      7     39     40 168.4  11.1  33422  277.21 0865.15
2015 04 09 08 05 39 .83       3    -38     17     39     42 175.5  25.1  33414  277.06 0865.15
2015 04 09 08 05 40 .09       2    -35     16     36     39 175.5  25.1  33430  277.34 0865.15
2015 04 09 08 05 40 .34      -1    -38      5     39     40 182.6   8.0  33446  277.59 0865.15
2015 04 09 08 05 40 .58      -2    -31     15     32     35 184.5  27.2  33448  277.64 0865.15
2015 04 09 08 05 40 .84      -3    -46     17     47     49 184.5  20.0  33476  278.09 0865.15
2015 04 09 08 05 41 .09       7    -41      6     42     43 170.2   9.0  33502  278.52 0865.15
2015 04 09 08 05 41 .34       5    -23     17     24     29 166.6  37.6  33496  278.42 0865.15
2015 04 09 08 05 41 .59      14    -37     15     40     42 158.2  21.0  33504  278.55 0865.15
2015 04 09 08 05 41 .84      16    -48     -3     51     52 161.5  -4.1  33432  277.36 0865.15
2015 04 09 08 05 42 .09      12    -51     -2     53     54 166.6  -2.2  33476  278.10 0865.15
2015 04 09 08 05 42 .35       7    -53     -6     54     55 172.0  -7.2  33438  277.47 0865.15
2015 04 09 08 05 42 .59       9    -33     21     35     40 164.9  34.4  33490  278.32 0865.15
2015 04 09 08 05 42 .84      -1    -31     20     32     37 182.6  35.5  33556  279.42 0865.14
2015 04 09 08 05 43 .09       5    -31     17     32     36 170.2  29.3  33474  278.07 0865.14
2015 04 09 08 05 43 .35      11    -34     12     36     39 161.3  19.4  33442  277.54 0865.14
2015 04 09 08 05 43 .59       0    -39      6     40     41 179.1   9.0  33470  277.99 0865.14
2015 04 09 08 05 43 .84      -2    -35      1     36     37 184.4   2.9  33476  278.09 0865.14
2015 04 09 08 05 44 .09      -6    -46     17     47     49 188.0  20.0  33490  278.34 0865.14
2015 04 09 08 05 44 .34       6    -57     20     58     62 173.8  19.2  33476  278.09 0865.14
2015 04 09 08 05 44 .60       6    -58     32     59     67 173.8  31.3  33510  278.65 0865.14
2015 04 09 08 05 44 .84      16    -51     28     54     60 162.2  30.3  33494  278.40 0865.14
2015 04 09 08 05 45 .10      23    -69      4     73     74 161.3   3.8  33356  276.11 0865.14
2015 04 09 08 05 45 .35      13    -65     -4     67     68 168.4  -4.1  33362  276.21 0865.14
2015 04 09 08 05 45 .60       9    -65      3     66     67 172.0   2.8  33364  276.25 0865.15
2015 04 09 08 05 45 .86       3    -46      2     47     48 175.5   2.9  33378  276.46 0865.15
2015 04 09 08 05 46 .11       7    -46      7     47     48 170.2   9.0  33392  276.71 0865.15
2015 04 09 08 05 46 .36       8    -44      0     45     46 169.3   0.8  33364  276.23 0865.15
2015 04 09 08 05 46 .61       3    -44    -10     45     47 175.5 -12.4  33362  276.20 0865.15
2015 04 09 08 05 46 .87      -7    -60    -11     61     63 187.1 -10.3  33380  276.49 0865.15
2015 04 09 08 05 47 .11     -20    -61     -2     65     66 198.3  -2.2  33402  276.88 0865.15
2015 04 09 08 05 47 .36     -26    -50     -2     57     58 208.1  -2.2  33406  276.94 0865.15
2015 04 09 08 05 47 .61     -15    -46      6     49     50 198.3   8.0  33410  277.01 0865.15
2015 04 09 08 05 47 .86      16    -48     18     51     55 161.7  19.4  33398  276.81 0865.15
2015 04 09 08 05 48 .11      31    -49      7     59     60 147.5   6.9  33382  276.53 0865.15
2015 04 09 08 05 48 .36      23    -67     -3     71     72 160.8  -3.1  33382  276.54 0865.15
2015 04 09 08 05 48 .62      21    -63     -4     67     68 161.7  -4.1  33360  276.16 0865.15
2015 04 09 08 05 48 .87       8    -61     14     62     64 172.0  13.2  33422  277.19 0865.15
2015 04 09 08 05 49 .11      -2    -61      7     62     63 182.7   6.9  33404  276.91 0865.15
2015 04 09 08 05 49 .37       0    -60     -7     61     62 180.0  -7.2  33402  276.88 0865.15
2015 04 09 08 05 49 .62       2    -47      0     48     49 177.3  -0.3  33402  276.88 0865.15
2015 04 09 08 05 49 .87      -3    -53      7     54     55 183.6   8.0  33416  277.11 0865.15
2015 04 09 08 05 50 .12     -14    -48     10     51     53 196.9  11.1  33428  277.29 0865.15
2015 04 09 08 05 50 .37      -3    -48     21     49     53 184.5  24.1  33442  277.52 0865.15
2015 04 09 08 05 50 .62     -19    -31     17     37     40 212.5  26.2  33420  277.16 0865.15
2015 04 09 08 05 50 .89     -20    -16     24     26     35 230.5  50.0  33418  277.14 0865.15
2015 04 09 08 05 51 .12     -23    -24     20     34     39 223.4  33.5  33416  277.09 0865.15
2015 04 09 08 05 51 .37     -13    -17     19     22     29 217.8  47.9  33410  276.99 0865.15
2015 04 09 08 05 51 .62       9    -32     22     34     40 163.1  36.5  33434  277.41 0865.15
2015 04 09 08 05 51 .87      -9    -58     20     59     63 188.9  19.4  33418  277.12 0865.14
2015 04 09 08 05 52 .13     -31    -66     17     74     77 205.5  13.2  33412  277.04 0865.14
2015 04 09 08 05 52 .38     -24    -52     20     58     62 204.5  19.4  33418  277.12 0865.14
2015 04 09 08 05 52 .64      -9    -35     22     37     43 195.1  33.5  33472  278.02 0865.14
2015 04 09 08 05 52 .89     -13    -38     26     41     48 198.7  35.5  33490  278.32 0865.14
2015 04 09 08 05 53 .13      -3    -50     26     51     57 184.5  28.2  33462  277.85 0865.14
2015 04 09 08 05 53 .38     -12    -61     12     63     65 191.5  11.1  33392  276.71 0865.14
2015 04 09 08 05 53 .64     -25    -77      4     82     83 198.5   3.3  33386  276.59 0865.15
2015 04 09 08 05 53 .89     -28    -68     30     74     79 202.7  23.6  33468  277.95 0865.15
2015 04 09 08 05 54 .14     -25    -64     32     69     76 201.8  27.1  33430  277.34 0865.15
2015 04 09 08 05 54 .39     -12    -61     26     63     68 191.6  23.0  33414  277.06 0865.15
2015 04 09 08 05 54 .64     -14    -57     18     59     62 194.3  17.3  33366  276.26 0865.15
2015 04 09 08 05 54 .89     -24    -60     17     65     68 201.8  15.3  33366  276.28 0865.15
2015 04 09 08 05 55 .14     -16    -61      7     64     65 195.1   6.9  33362  276.21 0865.15
2015 04 09 08 05 55 .39     -14    -58      3     60     61 194.3   2.9  33362  276.21 0865.15
2015 04 09 08 05 55 .64      -8    -63      5     64     65 188.0   4.9  33366  276.26 0865.15
2015 04 09 08 05 55 .89       0    -60     -1     61     62 180.0  -1.3  33356  276.10 0865.15
2015 04 09 08 05 56 .14       0    -57      2     58     59 180.9   2.9  33362  276.20 0865.15
2015 04 09 08 05 56 .39      -8    -57      0     58     59 188.9   0.8  33358  276.13 0865.15
2015 04 09 08 05 56 .65      -4    -48     -6     49     50 185.3  -7.3  33374  276.39 0865.15
2015 04 09 08 05 56 .89      -7    -61      1     62     63 187.1   1.8  33404  276.91 0865.15
2015 04 09 08 05 57 .15     -25    -53     12     59     61 205.3  12.2  33398  276.81 0865.15
2015 04 09 08 05 57 .40      -6    -61     11     62     63 186.2  10.1  33396  276.78 0865.15
2015 04 09 08 05 57 .64     -11    -56     16     58     61 191.5  15.3  33424  277.22 0865.15
2015 04 09 08 05 57 .90      -4    -44     10     45     47 186.2  13.2  33422  277.19 0865.15
2015 04 09 08 05 58 .15      -7    -32     24     33     40 193.4  39.7  33454  277.74 0865.15
2015 04 09 08 05 58 .40      -1    -39     26     40     47 182.6  35.6  33466  277.92 0865.15
2015 04 09 08 05 58 .65     -14    -43     24     46     51 198.3  29.3  33454  277.74 0865.15
2015 04 09 08 05 58 .90     -23    -50     -6     56     57 205.3  -6.2  33350  276.01 0865.15
2015 04 09 08 05 59 .15     -11    -53     -7     55     56 191.6  -7.3  33330  275.68 0865.15
2015 04 09 08 05 59 .40      -3    -53     -6     54     55 183.6  -7.2  33330  275.67 0865.15
2015 04 09 08 05 59 .66      -6    -53     -8     54     55 187.1  -9.3  33332  275.72 0865.15
2015 04 09 08 05 59 .91      -5    -49    -13     50     52 186.2 -15.5  33332  275.70 0865.15
2015 04 09 08 06 00 .16      -3    -48    -18     49     52 184.5 -24.4  33336  275.78 0865.15
2015 04 09 08 06 00 .41       0    -49    -14     50     51 180.9 -20.7  33340  275.83 0865.15
2015 04 09 08 06 00 .66      -4    -42    -18     43     46 186.2 -27.4  33342  275.86 0865.15
2015 04 09 08 06 00 .91      -4    -42    -18     43     46 186.2 -27.4  33340  275.83 0865.15
2015 04 09 08 06 01 .16      -4    -48      5     49     50 185.3   5.9  33340  275.83 0865.15
2015 04 09 08 06 01 .41     -11    -53     12     55     57 191.6  12.2  33338  275.80 0865.15
2015 04 09 08 06 01 .66      -7    -53     10     54     56 188.0  11.1  33336  275.78 0865.15
2015 04 09 08 06 01 .91     -10    -48      8     50     51 191.6  10.1  33334  275.75 0865.15
2015 04 09 08 06 02 .16      -7    -53      2     54     55 188.0   2.8  33332  275.70 0865.15
2015 04 09 08 06 02 .41      -3    -53      0     54     55 183.6  -0.3  33334  275.73 0865.15
2015 04 09 08 06 02 .66      -3    -53      0     54     55 183.6  -0.3  33334  275.73 0865.15
2015 04 09 08 06 02 .92      -9    -57      0     58     59 189.8  -0.3  33334  275.73 0865.15
2015 04 09 08 06 03 .17     -17    -64      3     67     68 195.1   2.9  33350  276.00 0865.15
2015 04 09 08 06 03 .42     -20    -65    -23     69     73 196.9 -18.7  33354  276.08 0865.15
2015 04 09 08 06 03 .67     -30    -54      0     62     63 209.0   0.8  33376  276.43 0865.15
2015 04 09 08 06 03 .92     -17    -58     -2     61     62 196.9  -2.2  33368  276.30 0865.15
2015 04 09 08 06 04 .17     -26    -73      2     78     79 200.0   1.8  33390  276.66 0865.15
2015 04 09 08 06 04 .43     -18    -66      3     69     70 195.2   2.9  33418  277.14 0865.15
2015 04 09 08 06 04 .67     -21    -66      7     70     71 198.3   5.9  33392  276.71 0865.15
2015 04 09 08 06 04 .92     -22    -69     -2     73     74 198.3  -2.2  33368  276.31 0865.15
2015 04 09 08 06 05 .18     -15    -76     -1     78     79 191.6  -1.3  33364  276.23 0865.15
2015 04 09 08 06 05 .43     -13    -68     20     70     73 190.7  16.3  33418  277.12 0865.15
2015 04 09 08 06 05 .67      -3    -75      6     76     77 182.7   4.9  33384  276.56 0865.15
2015 04 09 08 06 05 .92       0    -68      3     69     70 180.0   2.9  33358  276.13 0865.15
2015 04 09 08 06 06 .17      -3    -67      8     68     69 182.7   6.9  33350  276.01 0865.15
2015 04 09 08 06 06 .42      -2    -61      7     62     63 182.7   6.9  33352  276.05 0865.15
2015 04 09 08 06 06 .69       0    -47      2     48     49 180.0   2.8  33352  276.05 0865.15
2015 04 09 08 06 06 .94     -14    -42      2     45     46 198.5   2.9  33368  276.31 0865.15
2015 04 09 08 06 07 .19     -10    -45     12     47     49 193.4  15.3  33402  276.86 0865.15
2015 04 09 08 06 07 .44      -7    -37     17     38     41 191.5  25.1  33432  277.36 0865.15
2015 04 09 08 06 07 .69      -4    -27     26     28     38 189.8  52.0  33460  277.82 0865.15
2015 04 09 08 06 07 .95      -2    -38     27     39     47 184.4  37.6  33498  278.45 0865.15
2015 04 09 08 06 08 .18     -12    -54     32     56     64 192.5  32.4  33518  278.78 0865.14
2015 04 09 08 06 08 .44       7    -62     -5     63     64 172.9  -5.2  33444  277.56 0865.14
2015 04 09 08 06 08 .70      19    -59      3     63     64 161.7   2.9  33448  277.64 0865.14
2015 04 09 08 06 08 .94      28    -60      5     67     68 154.7   4.9  33408  276.97 0865.14
2015 04 09 08 06 09 .19       0    -83      4     84     85 180.4   2.9  33388  276.64 0865.14
2015 04 09 08 06 09 .44      -4    -81     18     82     85 183.1  12.6  33384  276.58 0865.14
2015 04 09 08 06 09 .69     -11    -82     -2     83     84 188.0  -1.8  33382  276.54 0865.14
2015 04 09 08 06 09 .94     -11    -68      3     70     71 189.8   2.9  33382  276.53 0865.14
2015 04 09 08 06 10 .19      -2    -84      4     85     86 181.8   3.3  33350  276.00 0865.14
2015 04 09 08 06 10 .45      -3    -75      6     76     77 182.7   4.9  33358  276.15 0865.14
2015 04 09 08 06 10 .70     -21    -66      7     70     71 198.3   5.9  33368  276.31 0865.15
2015 04 09 08 06 10 .94      -5    -71      3     72     73 184.4   2.9  33348  275.98 0865.15
2015 04 09 08 06 11 .20       0    -95      0     96     97 180.0   0.2  33334  275.75 0865.15
2015 04 09 08 06 11 .44      -6    -94     -3     95     96 183.6  -2.2  33328  275.65 0865.15
2015 04 09 08 06 11 .70       2    -95    -12     96     97 178.6  -7.3  33328  275.63 0865.15
2015 04 09 08 06 11 .95       3    -98    -12     99    100 177.8  -7.3  33328  275.65 0865.15
2015 04 09 08 06 12 .20      -3    -98     -5     99    100 181.8  -3.2  33328  275.65 0865.15
2015 04 09 08 06 12 .45       0   -103    -13    104    105 180.5  -7.2  33328  275.65 0865.15
2015 04 09 08 06 12 .70      -6   -103    -11    104    105 183.6  -6.2  33330  275.68 0865.15
2015 04 09 08 06 12 .95      -3    -97    -21     98    101 181.8 -12.4  33330  275.67 0865.15
2015 04 09 08 06 13 .20       0   -102    -19    103    105 180.5 -10.9  33328  275.63 0865.15
2015 04 09 08 06 13 .46       0    -98     -9     99    100 180.4  -5.2  33330  275.68 0865.15
2015 04 09 08 06 13 .71       3    -98    -12     99    100 177.8  -7.3  33328  275.65 0865.15
2015 04 09 08 06 13 .96      -7    -99    -12    100    101 184.5  -7.2  33330  275.67 0865.15
2015 04 09 08 06 14 .21      -4    -90    -20     91     94 182.7 -12.9  33328  275.65 0865.15
2015 04 09 08 06 14 .46       0    -86    -19     87     90 180.5 -12.4  33328  275.63 0865.15
2015 04 09 08 06 14 .71      -2    -83    -21     84     87 181.8 -14.5  33328  275.65 0865.15
2015 04 09 08 06 14 .96       0    -83     -9     84     85 180.4  -6.2  33330  275.68 0865.15
2015 04 09 08 06 15 .21       0    -83     -9     84     85 180.4  -6.2  33330  275.68 0865.15
2015 04 09 08 06 15 .46       1    -78    -13     79     81 179.0  -9.3  33328  275.63 0865.15
2015 04 09 08 06 15 .71      -6    -79     -8     80     81 184.4  -6.2  33328  275.63 0865.15
2015 04 09 08 06 15 .96      -5    -75     -9     76     77 184.5  -7.3  33328  275.65 0865.15
2015 04 09 08 06 16 .22      -5    -71     -9     72     73 184.4  -7.2  33330  275.68 0865.15
2015 04 09 08 06 16 .46      -5    -75     -9     76     77 184.5  -7.3  33328  275.65 0865.15
2015 04 09 08 06 16 .72      -5    -71     -9     72     73 184.4  -7.2  33330  275.68 0865.15
2015 04 09 08 06 16 .97     -15    -76     -6     78     79 191.6  -4.6  33328  275.65 0865.15
2015 04 09 08 06 17 .22      -5    -75     -9     76     77 184.5  -7.3  33328  275.65 0865.15
2015 04 09 08 06 17 .47     -13    -76     -7     78     79 189.8  -5.2  33330  275.67 0865.15
2015 04 09 08 06 17 .72      -6    -79     -8     80     81 184.4  -6.2  33328  275.63 0865.15
2015 04 09 08 06 17 .97      -7    -83     -3     84     85 185.3  -2.2  33328  275.63 0865.15
2015 04 09 08 06 18 .22      -9    -79     -5     80     81 187.1  -4.1  33326  275.60 0865.15
2015 04 09 08 06 18 .47      -4    -75     -1     76     77 183.6  -1.2  33328  275.63 0865.15
2015 04 09 08 06 18 .72      -5    -80     -3     81     82 184.0  -2.2  33328  275.65 0865.15
2015 04 09 08 06 18 .97      -9    -72     -6     73     74 187.1  -5.2  33332  275.70 0865.15
2015 04 09 08 06 19 .22      -5    -68      3     69     70 184.5   2.8  33332  275.70 0865.15
2015 04 09 08 06 19 .47      -4    -64      3     65     66 184.4   2.9  33330  275.68 0865.15
2015 04 09 08 06 19 .72      -2    -61      7     62     63 182.7   6.9  33332  275.70 0865.15
2015 04 09 08 06 19 .97      -2    -61      7     62     63 182.7   6.9  33332  275.70 0865.15
2015 04 09 08 06 20 .23      -5    -65      4     66     67 184.5   3.8  33334  275.73 0865.15
2015 04 09 08 06 20 .49       0    -62     16     63     66 179.1  14.3  33384  276.58 0865.15
2015 04 09 08 06 20 .74       0    -68      3     69     70 180.0   2.9  33370  276.33 0865.15
2015 04 09 08 06 20 .99       3    -58      3     59     60 176.4   3.8  33378  276.48 0865.15
2015 04 09 08 06 21 .24       4    -53     10     54     56 175.6  11.1  33376  276.43 0865.15
2015 04 09 08 06 21 .49       9    -45      8     46     47 168.4  10.1  33354  276.06 0865.15
2015 04 09 08 06 21 .74       4    -52     10     53     55 175.5  11.1  33366  276.26 0865.15
2015 04 09 08 06 21 .99      15    -52      3     55     56 164.0   3.8  33342  275.88 0865.15
2015 04 09 08 06 22 .24       0    -48     -1     49     50 180.9  -2.2  33342  275.88 0865.15
2015 04 09 08 06 22 .49       3    -45     -1     46     47 175.5  -2.2  33342  275.88 0865.15
2015 04 09 08 06 22 .74       0    -45     -6     46     47 179.1  -8.2  33358  276.13 0865.15
2015 04 09 08 06 23 .00      -3    -53     -6     54     55 183.6  -7.2  33370  276.34 0865.15
2015 04 09 08 06 23 .24     -11    -44     12     46     48 195.1  15.3  33390  276.66 0865.15
2015 04 09 08 06 23 .50      -7    -38     10     39     41 190.7  15.3  33384  276.58 0865.15
2015 04 09 08 06 23 .74     -10    -35     16     37     40 196.9  25.1  33378  276.48 0865.15
2015 04 09 08 06 24 .00      -1    -30      9     31     33 182.7  17.3  33368  276.30 0865.15
2015 04 09 08 06 24 .25      -4    -27     14     28     31 189.8  27.3  33386  276.61 0865.15
2015 04 09 08 06 24 .50      -9    -35     15     37     39 195.1  24.1  33400  276.83 0865.15
2015 04 09 08 06 24 .75      -4    -27     19     28     33 189.8  37.6  33418  277.14 0865.15
2015 04 09 08 06 25 .00      -9    -31     18     33     37 196.9  31.4  33428  277.31 0865.15
2015 04 09 08 06 25 .25      -9    -27     22     29     36 198.3  41.7  33446  277.61 0865.15
2015 04 09 08 06 25 .50     -10    -32     20     34     39 198.3  33.5  33448  277.64 0865.15
2015 04 09 08 06 25 .75     -14    -20     17     25     30 216.1  37.6  33464  277.90 0865.15
2015 04 09 08 06 26 .00      -6    -15     17     17     24 201.8  50.1  33468  277.97 0865.15
2015 04 09 08 06 26 .25      -1    -15     22     16     27 184.5  60.5  33468  277.97 0865.15
2015 04 09 08 06 26 .50     -14    -20     24     25     34 216.1  52.0  33464  277.89 0865.15
2015 04 09 08 06 26 .75     -20    -19     20     28     34 226.7  37.6  33454  277.74 0865.15
2015 04 09 08 06 27 .01     -19    -19     13     27     29 225.0  27.3  33454  277.72 0865.15
2015 04 09 08 06 27 .25     -18    -26     19     32     37 214.3  35.5  33452  277.69 0865.15
2015 04 09 08 06 27 .51     -20    -20      1     29     30 225.1   2.9  33422  277.19 0865.15
2015 04 09 08 06 27 .76     -25    -20      4     33     34 230.5   6.9  33428  277.31 0865.15
2015 04 09 08 06 28 .01     -26    -31     20     41     45 219.6  28.2  33430  277.34 0865.15
2015 04 09 08 06 28 .26     -19    -31     24     37     44 212.5  36.5  33424  277.24 0865.15
2015 04 09 08 06 28 .52      -6    -31     11     32     34 191.6  18.9  33424  277.24 0865.15
2015 04 09 08 06 28 .77      -4    -34     12     35     38 188.0  18.9  33420  277.16 0865.14
2015 04 09 08 06 29 .01       9    -32     22     34     40 163.1  36.5  33438  277.46 0865.14
2015 04 09 08 06 29 .27       7    -49    -13     50     52 171.1 -15.5  33390  276.66 0865.14
2015 04 09 08 06 29 .51       5    -64      3     65     66 175.5   2.9  33388  276.63 0865.14
2015 04 09 08 06 29 .78       3    -63    -13     64     66 177.3 -11.5  33388  276.63 0865.14
2015 04 09 08 06 30 .02      -5    -49     12     50     52 186.2  14.3  33408  276.96 0865.14
2015 04 09 08 06 30 .27     -23    -50      0     56     57 205.3  -0.3  33418  277.12 0865.14
2015 04 09 08 06 30 .52     -13    -41      2     44     45 198.5   3.8  33416  277.11 0865.14
2015 04 09 08 06 30 .77     -22    -34      0     41     42 213.4   0.8  33412  277.04 0865.14
2015 04 09 08 06 31 .02     -17    -36      6     40     41 205.5   9.0  33416  277.09 0865.14
2015 04 09 08 06 31 .27     -20    -37      3     43     44 208.1   4.9  33404  276.91 0865.14
2015 04 09 08 06 31 .53     -21    -56      0     60     61 200.9   0.8  33406  276.92 0865.15
2015 04 09 08 06 31 .77      -5    -75      2     76     77 184.5   1.8  33416  277.11 0865.15
2015 04 09 08 06 32 .03      -9    -65      5     66     67 188.0   4.9  33426  277.26 0865.15
2015 04 09 08 06 32 .27      -5    -64     12     65     67 184.5  11.0  33436  277.42 0865.15
2015 04 09 08 06 32 .53      -7    -42     15     43     46 189.8  19.4  33440  277.51 0865.15
2015 04 09 08 06 32 .78      -9    -57      7     58     59 189.8   7.1  33478  278.12 0865.15
2015 04 09 08 06 33 .02      -9    -65      8     66     67 188.0   6.9  33490  278.32 0865.15
2015 04 09 08 06 33 .28       1    -57      0     58     59 178.2  -0.3  33464  277.89 0865.15
2015 04 09 08 06 33 .53       4    -62     -3     63     64 175.6  -3.1  33470  277.99 0865.15
2015 04 09 08 06 33 .78      11    -49     10     51     52 167.5  11.1  33498  278.45 0865.15
2015 04 09 08 06 34 .03       7    -54     28     55     61 172.0  28.2  33494  278.39 0865.15
2015 04 09 08 06 34 .29       9    -64     21     65     69 172.0  18.4  33508  278.64 0865.15
2015 04 09 08 06 34 .53      30    -50     23     59     63 149.3  22.0  33518  278.78 0865.15
2015 04 09 08 06 34 .79      -4    -75     -1     76     77 183.6  -1.2  33352  276.03 0865.15
2015 04 09 08 06 35 .05     -14    -88     -4     90     91 189.3  -2.6  33348  275.98 0865.14
2015 04 09 08 06 35 .29     -11    -83      3     84     85 187.6   2.3  33346  275.93 0865.14
2015 04 09 08 06 35 .55      -9    -87     -1     88     89 186.2  -1.3  33348  275.98 0865.14
2015 04 09 08 06 35 .80      -8    -95      4     96     97 185.3   2.9  33368  276.31 0865.14
2015 04 09 08 06 36 .05      -8    -87      4     88     89 185.3   2.9  33360  276.16 0865.14
2015 04 09 08 06 36 .30      -3    -75      6     76     77 182.7   4.9  33398  276.81 0865.14
2015 04 09 08 06 36 .54     -14    -80     24     82     86 190.2  16.8  33402  276.88 0865.14
2015 04 09 08 06 36 .79      -6    -79     18     80     83 184.4  13.2  33390  276.68 0865.14
2015 04 09 08 06 37 .05      -1    -80     15     81     83 180.9  11.1  33398  276.81 0865.14
2015 04 09 08 06 37 .30       9    -69     28     70     75 172.0  23.0  33408  276.97 0865.14
2015 04 09 08 06 37 .54       7    -75      2     76     77 174.7   1.8  33364  276.25 0865.14
2015 04 09 08 06 37 .80       4    -60     16     61     64 175.6  15.3  33398  276.81 0865.14
2015 04 09 08 06 38 .05      -6    -60     16     61     64 186.2  15.3  33402  276.86 0865.14
2015 04 09 08 06 38 .29      18    -57     -5     60     61 162.2  -5.2  33342  275.86 0865.14
2015 04 09 08 06 38 .55      14    -61     -8     63     64 166.6  -7.2  33330  275.68 0865.14
2015 04 09 08 06 38 .80      10    -65    -10     66     67 171.1  -9.3  33332  275.70 0865.14
2015 04 09 08 06 39 .06      13    -67    -14     69     71 168.5 -11.5  33342  275.86 0865.14
2015 04 09 08 06 39 .30      12    -59    -16     61     64 168.4 -14.5  33340  275.85 0865.14
2015 04 09 08 06 39 .55       8    -68    -13     69     71 172.9 -11.3  33330  275.68 0865.14
2015 04 09 08 06 39 .81      14    -70     -9     72     73 168.4  -7.2  33354  276.08 0865.14
2015 04 09 08 06 40 .05      15    -68    -18     70     73 167.5 -14.5  33340  275.83 0865.14
2015 04 09 08 06 40 .30      13    -68    -15     70     72 168.5 -12.4  33328  275.65 0865.14
2015 04 09 08 06 40 .55       8    -68    -13     69     71 172.9 -11.3  33330  275.68 0865.13
2015 04 09 08 06 40 .80       5    -64     -8     65     66 175.5  -7.2  33330  275.68 0865.13
2015 04 09 08 06 41 .05       5    -64     -8     65     66 175.5  -7.2  33330  275.68 0865.13
2015 04 09 08 06 41 .31       4    -61    -10     62     63 175.5  -9.3  33328  275.65 0865.13
2015 04 09 08 06 41 .56       4    -61    -10     62     63 175.5  -9.3  33328  275.65 0865.13
2015 04 09 08 06 41 .81       1    -64    -13     65     67 179.0 -11.3  33328  275.63 0865.13
2015 04 09 08 06 42 .06       1    -64    -13     65     67 179.0 -11.3  33328  275.63 0865.13
2015 04 09 08 06 42 .31      -2    -68     -5     69     70 181.8  -4.1  33328  275.65 0865.14
2015 04 09 08 06 42 .57      -4    -63    -14     64     66 184.5 -12.4  33332  275.70 0865.14
2015 04 09 08 06 42 .81       0    -63    -17     64     67 180.9 -15.5  33330  275.68 0865.14
2015 04 09 08 06 43 .07       0    -63    -17     64     67 180.9 -15.5  33330  275.68 0865.14
2015 04 09 08 06 43 .32       2    -62    -21     63     67 177.3 -18.7  33332  275.70 0865.14
2015 04 09 08 06 43 .57       2    -62    -21     63     67 177.3 -18.7  33332  275.70 0865.14
2015 04 09 08 06 43 .82       2    -62    -21     63     67 177.3 -18.7  33332  275.70 0865.14
2015 04 09 08 06 44 .07      -4    -52    -11     53     55 184.4 -12.4  33330  275.68 0865.14
2015 04 09 08 06 44 .32      -3    -52    -11     53     55 183.6 -12.4  33334  275.73 0865.14
2015 04 09 08 06 44 .57       1    -48     -5     49     50 178.2  -6.2  33332  275.70 0865.14
2015 04 09 08 06 44 .82       0    -48     -1     49     50 180.9  -2.2  33330  275.68 0865.14
2015 04 09 08 06 45 .07       0    -48     -1     49     50 180.9  -2.2  33330  275.68 0865.14
2015 04 09 08 06 45 .32       0    -48     -1     49     50 180.9  -2.2  33330  275.68 0865.14
2015 04 09 08 06 45 .57       0    -48     -1     49     50 180.9  -2.2  33330  275.68 0865.14
2015 04 09 08 06 45 .82      -1    -53     -2     54     55 181.8  -2.2  33332  275.70 0865.14
2015 04 09 08 06 46 .07       0    -47      2     48     49 180.0   2.8  33334  275.75 0865.14
2015 04 09 08 06 46 .32      -3    -53      0     54     55 183.6  -0.3  33334  275.73 0865.14
2015 04 09 08 06 46 .57      -4    -57     -2     58     59 184.5  -2.2  33334  275.75 0865.14
2015 04 09 08 06 46 .83     -10    -53     -8     54     55 190.7  -9.3  33340  275.83 0865.14
2015 04 09 08 06 47 .08     -13    -65    -11     67     68 191.5  -9.3  33372  276.36 0865.14
2015 04 09 08 06 47 .33     -30    -48     20     57     61 212.6  19.4  33390  276.68 0865.14
2015 04 09 08 06 47 .58     -29    -62      7     69     70 205.4   5.9  33402  276.86 0865.14
2015 04 09 08 06 47 .83     -10    -68     -2     69     70 188.9  -2.2  33396  276.76 0865.13
2015 04 09 08 06 48 .08     -26    -64      2     70     71 201.8   1.8  33408  276.96 0865.13
2015 04 09 08 06 48 .35     -25    -54      5     60     61 205.3   4.9  33424  277.24 0865.13
2015 04 09 08 06 48 .59      -8    -49     23     50     55 189.8  27.1  33438  277.47 0865.13
2015 04 09 08 06 48 .84      -1    -31     26     32     41 182.6  43.7  33450  277.65 0865.13
2015 04 09 08 06 49 .09      -9    -11     29     15     32 219.6  70.8  33458  277.79 0865.13
2015 04 09 08 06 49 .34      -6    -31     30     32     43 191.6  50.0  33444  277.56 0865.13
2015 04 09 08 06 49 .59      -5    -41     26     42     49 188.0  35.5  33432  277.36 0865.13
2015 04 09 08 06 49 .84     -20    -61      3     65     66 198.5   2.8  33334  275.75 0865.13
2015 04 09 08 06 50 .09     -18    -65      3     68     69 196.0   2.9  33370  276.33 0865.13
2015 04 09 08 06 50 .35     -25    -63     10     68     69 201.8   9.0  33372  276.38 0865.13
2015 04 09 08 06 50 .60     -24    -72      5     77     78 198.7   3.8  33372  276.36 0865.13
2015 04 09 08 06 50 .84     -30    -54     -1     62     63 209.0  -1.3  33364  276.23 0865.13
2015 04 09 08 06 51 .10     -24    -62      3     67     68 201.8   2.9  33358  276.13 0865.13
2015 04 09 08 06 51 .35     -27    -58      3     65     66 205.4   2.8  33368  276.31 0865.13
2015 04 09 08 06 51 .60     -29    -45      0     54     55 212.5  -0.3  33346  275.93 0865.13
2015 04 09 08 06 51 .85     -24    -54     -2     60     61 204.5  -2.2  33348  275.96 0865.13
2015 04 09 08 06 52 .10     -14    -48      2     51     52 196.9   2.9  33352  276.05 0865.13
2015 04 09 08 06 52 .35     -28    -44      7     53     54 212.5   8.0  33386  276.59 0865.13
2015 04 09 08 06 52 .60     -24    -35     14     43     46 214.3  18.4  33380  276.49 0865.13
2015 04 09 08 06 52 .85     -20    -37     -1     43     44 208.1  -2.2  33340  275.83 0865.13
2015 04 09 08 06 53 .10     -19    -30     -3     36     37 212.5  -5.2  33342  275.88 0865.13
2015 04 09 08 06 53 .35     -12    -35     -9     38     40 200.0 -13.4  33338  275.82 0865.13
2015 04 09 08 06 53 .61     -20    -37     -1     43     44 208.1  -2.2  33358  276.13 0865.13
2015 04 09 08 06 53 .86     -15    -46      1     49     50 198.3   1.8  33370  276.33 0865.13
2015 04 09 08 06 54 .11     -13    -41     -8     44     45 197.8 -11.3  33368  276.31 0865.14
2015 04 09 08 06 54 .36     -12    -46     -1     48     49 195.1  -1.3  33390  276.66 0865.14
2015 04 09 08 06 54 .60     -16    -51     -2     54     55 198.3  -2.2  33396  276.76 0865.14
2015 04 09 08 06 54 .86     -27    -51      2     58     59 208.1   2.9  33404  276.91 0865.14
2015 04 09 08 06 55 .10     -18    -53     16     57     60 199.2  16.3  33410  277.01 0865.14
2015 04 09 08 06 55 .37     -20    -62      3     66     67 198.3   2.9  33352  276.05 0865.14
2015 04 09 08 06 55 .62     -11    -53      3     55     56 191.6   3.8  33348  275.98 0865.14
2015 04 09 08 06 55 .87     -15    -46     -5     49     50 198.3  -6.2  33360  276.16 0865.14
2015 04 09 08 06 56 .12     -21    -55      3     59     60 200.9   2.9  33374  276.41 0865.14
2015 04 09 08 06 56 .37     -19    -54      2     58     59 199.2   2.9  33348  275.96 0865.14
2015 04 09 08 06 56 .62     -15    -45     -5     48     49 198.3  -6.2  33342  275.86 0865.14
2015 04 09 08 06 56 .87     -12    -45     -6     47     48 195.1  -7.3  33342  275.88 0865.14
2015 04 09 08 06 57 .12     -15    -45      8     48     49 198.3  10.1  33334  275.75 0865.14
2015 04 09 08 06 57 .37     -10    -61     -8     62     63 189.8  -7.3  33334  275.73 0865.14
2015 04 09 08 06 57 .62     -21    -62    -18     66     69 198.7 -15.5  33334  275.73 0865.14
2015 04 09 08 06 57 .87     -19    -58    -17     62     65 198.5 -15.4  33344  275.91 0865.14
2015 04 09 08 06 58 .12     -24    -60     -8     65     66 201.8  -7.2  33348  275.96 0865.14
2015 04 09 08 06 58 .37     -24    -54     -7     60     61 204.5  -7.3  33354  276.08 0865.14
2015 04 09 08 06 58 .63     -22    -58     -8     63     64 200.9  -7.2  33348  275.96 0865.13
2015 04 09 08 06 58 .87     -18    -58     -2     61     62 197.8  -2.2  33354  276.06 0865.13
2015 04 09 08 06 59 .12     -19    -55    -10     59     60 199.2 -10.3  33360  276.16 0865.13
2015 04 09 08 06 59 .38     -18    -65     -8     68     69 196.0  -7.2  33370  276.33 0865.14
2015 04 09 08 06 59 .63     -23    -49      1     55     56 205.4   1.8  33388  276.63 0865.14
2015 04 09 08 06 59 .88     -14    -72      3     74     75 191.5   2.8  33360  276.16 0865.14
2015 04 09 08 07 00 .13     -11    -84     -3     85     86 187.6  -2.2  33350  276.00 0865.14
2015 04 09 08 07 00 .38     -10    -72      4     73     74 188.0   3.8  33380  276.51 0865.14
2015 04 09 08 07 00 .63     -17    -53     -4     56     57 197.8  -4.1  33380  276.51 0865.14
2015 04 09 08 07 00 .88     -12    -60     -2     62     63 191.6  -2.2  33374  276.41 0865.14
2015 04 09 08 07 01 .21      -4    -64     -2     65     66 184.4  -2.2  33368  276.30 0865.14
2015 04 09 08 07 01 .38     -26    -58     -3     64     65 204.5  -3.1  33370  276.33 0865.14
2015 04 09 08 07 01 .63      -5    -43      3     44     45 187.1   4.9  33374  276.39 0865.14
2015 04 09 08 07 01 .88      -9    -49      0     50     51 190.7  -0.3  33382  276.54 0865.14
2015 04 09 08 07 02 .14     -22    -69      3     73     74 198.3   2.9  33360  276.18 0865.14
2015 04 09 08 07 02 .40     -11    -53     -7     55     56 191.6  -7.3  33366  276.28 0865.14
2015 04 09 08 07 02 .64     -11    -45     -6     47     48 194.3  -7.3  33370  276.33 0865.14
2015 04 09 08 07 02 .90     -29    -45    -12     54     56 212.6 -12.4  33384  276.58 0865.14
2015 04 09 08 07 03 .15     -15    -39      0     43     44 201.8  -0.3  33412  277.04 0865.14
2015 04 09 08 07 03 .39     -16    -38      1     42     43 202.7   1.8  33392  276.69 0865.14
2015 04 09 08 07 03 .65       0    -61     -6     62     63 180.9  -6.2  33362  276.21 0865.14
2015 04 09 08 07 03 .90       0    -55      2     56     57 180.9   2.9  33390  276.68 0865.14
2015 04 09 08 07 04 .15       6    -50     13     51     53 172.9  14.3  33402  276.86 0865.14
2015 04 09 08 07 04 .40     -21    -48     17     53     56 203.6  18.4  33422  277.19 0865.14
2015 04 09 08 07 04 .65     -12    -46     20     48     52 195.1  24.1  33430  277.32 0865.14
2015 04 09 08 07 04 .90      -3    -48     21     49     53 184.5  24.1  33448  277.62 0865.14
2015 04 09 08 07 05 .16      -7    -38     31     39     49 191.6  43.7  33466  277.92 0865.14
2015 04 09 08 07 05 .40     -12    -46     20     48     52 195.1  24.1  33494  278.40 0865.14
2015 04 09 08 07 05 .65     -15    -47     28     50     57 198.3  32.4  33504  278.55 0865.14
2015 04 09 08 07 05 .90     -19    -43     32     48     57 203.6  35.6  33498  278.45 0865.14
2015 04 09 08 07 06 .15     -24    -51     22     57     61 205.3  22.0  33492  278.37 0865.14
2015 04 09 08 07 06 .40     -23    -45     40     51     64 207.2  41.7  33470  278.00 0865.14
2015 04 09 08 07 06 .66     -10    -68     12     69     71 188.9  10.1  33424  277.22 0865.14
2015 04 09 08 07 06 .90     -21    -71      7     75     76 196.9   5.9  33348  275.96 0865.14
2015 04 09 08 07 07 .15     -13    -66     -3     68     69 191.6  -3.1  33342  275.88 0865.14
2015 04 09 08 07 07 .41     -19    -73     -9     76     77 195.1  -7.2  33348  275.98 0865.14
2015 04 09 08 07 07 .65     -18    -77      0     80     81 193.4  -0.3  33350  276.01 0865.14
2015 04 09 08 07 07 .90     -16    -83     -6     85     86 191.1  -4.1  33328  275.65 0865.14
2015 04 09 08 07 08 .16     -11    -84     -8     85     86 187.6  -5.6  33330  275.68 0865.14
2015 04 09 08 07 08 .41      -8    -88     -8     89     90 185.3  -5.2  33360  276.16 0865.14
2015 04 09 08 07 08 .66     -11    -85     -9     86     87 188.0  -6.2  33352  276.03 0865.14
2015 04 09 08 07 08 .91     -14    -81    -19     83     86 189.8 -12.9  33342  275.88 0865.14
2015 04 09 08 07 09 .17     -22    -84     -3     87     88 194.7  -2.6  33380  276.49 0865.14
2015 04 09 08 07 09 .42     -34    -69      2     78     79 206.3   1.8  33390  276.66 0865.14
2015 04 09 08 07 09 .67     -36    -65     14     75     77 209.0  11.1  33402  276.88 0865.14
2015 04 09 08 07 09 .92     -22    -69     -2     73     74 198.3  -2.2  33338  275.80 0865.14
2015 04 09 08 07 10 .17     -15    -69     -5     71     72 192.5  -4.1  33328  275.65 0865.14
2015 04 09 08 07 10 .42     -17    -72     -9     75     76 193.4  -7.2  33328  275.63 0865.14
2015 04 09 08 07 10 .67      -8    -63    -11     64     66 188.0 -10.3  33330  275.68 0865.14
2015 04 09 08 07 10 .92     -20    -68     -2     72     73 196.9  -2.2  33330  275.68 0865.14
2015 04 09 08 07 11 .17     -16    -68    -19     70     73 193.4 -15.5  33330  275.67 0865.14
2015 04 09 08 07 11 .42     -16    -68    -19     70     73 193.4 -15.5  33330  275.67 0865.14
2015 04 09 08 07 11 .67     -14    -72    -19     74     77 191.5 -14.5  33330  275.68 0865.14
2015 04 09 08 07 11 .93     -15    -76    -20     78     81 191.6 -15.0  33338  275.80 0865.14
2015 04 09 08 07 12 .18      -7    -85    -12     86     87 185.3  -8.2  33414  277.07 0865.14
2015 04 09 08 07 12 .42      -5    -80     -3     81     82 183.6  -2.2  33380  276.51 0865.14
2015 04 09 08 07 12 .68      -9    -72     -6     73     74 187.1  -5.2  33362  276.21 0865.14
2015 04 09 08 07 12 .93     -22    -66     -7     70     71 198.5  -6.2  33360  276.16 0865.14
2015 04 09 08 07 13 .18      -9    -57      0     58     59 189.8  -0.3  33370  276.33 0865.14
2015 04 09 08 07 13 .44     -11    -57      0     59     60 191.6  -0.3  33364  276.23 0865.14
2015 04 09 08 07 13 .69     -16    -61     22     64     68 195.1  19.4  33444  277.57 0865.14
2015 04 09 08 07 13 .93     -26    -55     26     61     66 205.3  23.1  33472  278.02 0865.14
2015 04 09 08 07 14 .18     -33    -54     37     64     73 211.6  32.4  33470  277.99 0865.14
2015 04 09 08 07 14 .43     -27    -52     30     59     66 208.1  29.3  33462  277.85 0865.14
2015 04 09 08 07 14 .68     -29    -46     21     55     58 212.6  22.0  33446  277.61 0865.14
2015 04 09 08 07 14 .93     -17    -53      8     56     57 198.7   9.0  33422  277.21 0865.15
2015 04 09 08 07 15 .18     -20    -38     17     44     47 208.1  21.0  33368  276.31 0865.15
2015 04 09 08 07 15 .43     -31    -41     -2     52     53 217.8  -2.2  33380  276.51 0865.15
2015 04 09 08 07 15 .68     -33    -52     -2     62     63 212.5  -2.2  33378  276.48 0865.15
2015 04 09 08 07 15 .94     -17    -42    -16     46     49 201.8 -19.7  33374  276.41 0865.15
2015 04 09 08 07 16 .20     -26    -41     -1     49     50 212.5  -2.2  33388  276.63 0865.15
2015 04 09 08 07 16 .45     -10    -58     22     59     62 189.8  21.0  33410  277.01 0865.15
2015 04 09 08 07 16 .69     -22    -77     31     81     86 196.0  21.5  33420  277.16 0865.15
2015 04 09 08 07 16 .94     -24    -68     11     73     74 200.0   9.0  33366  276.26 0865.15
2015 04 09 08 07 17 .20     -29    -78      4     84     85 200.5   2.9  33354  276.06 0865.15
2015 04 09 08 07 17 .45     -23    -72      6     76     77 197.8   4.9  33356  276.11 0865.15
2015 04 09 08 07 17 .70     -18    -82     10     85     86 192.9   6.9  33344  275.90 0865.15
2015 04 09 08 07 17 .95     -15    -76      6     78     79 191.6   4.9  33338  275.80 0865.15
2015 04 09 08 07 18 .20     -12    -80     10     81     82 188.9   7.5  33342  275.86 0865.15
2015 04 09 08 07 18 .45     -22    -81     -1     85     86 195.6  -0.7  33348  275.98 0865.15
2015 04 09 08 07 18 .71     -14    -88      1     90     91 189.3   1.2  33374  276.41 0865.15
2015 04 09 08 07 18 .95     -39    -57      8     70     71 214.3   7.1  33434  277.39 0865.15
2015 04 09 08 07 19 .20     -31    -81      5     87     88 200.9   3.3  33388  276.63 0865.15
2015 04 09 08 07 19 .45     -24    -51     22     57     61 205.3  22.0  33414  277.06 0865.15
2015 04 09 08 07 19 .70     -26    -64      8     70     71 201.8   7.1  33416  277.09 0865.15
2015 04 09 08 07 19 .95     -26    -73      2     78     79 200.0   1.8  33396  276.76 0865.15
2015 04 09 08 07 20 .20     -32    -57     12     66     68 209.0  11.0  33384  276.56 0865.15
2015 04 09 08 07 20 .46     -20    -66      3     70     71 196.9   2.9  33368  276.30 0865.15
2015 04 09 08 07 20 .70     -16    -68      4     70     71 193.4   3.8  33398  276.81 0865.15
2015 04 09 08 07 20 .95     -31    -56     12     65     67 209.0  11.0  33390  276.66 0865.15
2015 04 09 08 07 21 .21     -23    -46      5     52     53 207.2   5.9  33388  276.64 0865.15
2015 04 09 08 07 21 .46     -26    -50      2     57     58 208.1   2.9  33368  276.31 0865.15
2015 04 09 08 07 21 .71     -32    -39      2     51     52 219.6   2.9  33372  276.36 0865.15
2015 04 09 08 07 21 .96     -19    -39     -1     44     45 206.3  -2.2  33370  276.34 0865.15
2015 04 09 08 07 22 .21     -19    -39     -1     44     45 206.3  -2.2  33382  276.53 0865.15
2015 04 09 08 07 22 .47     -16    -38     -4     42     43 202.7  -6.2  33416  277.11 0865.15
2015 04 09 08 07 22 .71      -4    -27     14     28     31 189.8  27.3  33450  277.65 0865.15
2015 04 09 08 07 22 .97      -5    -21     26     22     34 193.4  54.3  33468  277.97 0865.15
2015 04 09 08 07 23 .22      -9    -11     28     15     31 219.6  70.8  33488  278.30 0865.15
2015 04 09 08 07 23 .47     -19    -19     26     27     37 225.0  52.0  33474  278.07 0865.15
2015 04 09 08 07 23 .72     -25    -45      5     52     53 209.0   5.9  33400  276.83 0865.15
2015 04 09 08 07 23 .97     -32    -39      2     51     52 219.6   2.9  33422  277.21 0865.15
2015 04 09 08 07 24 .23     -18    -28     12     34     37 212.5  19.4  33428  277.29 0865.15
2015 04 09 08 07 24 .48     -15    -26      6     31     32 210.7  11.0  33430  277.34 0865.15
2015 04 09 08 07 24 .72      -7    -23     24     25     34 198.5  52.0  33480  278.15 0865.15
2015 04 09 08 07 24 .98      -2    -31     16     32     35 184.5  27.3  33482  278.20 0865.15
2015 04 09 08 07 25 .22     -11    -40     26     42     49 196.0  35.5  33560  279.48 0865.15
2015 04 09 08 07 25 .47      -7    -39     24     40     46 190.7  34.4  33546  279.25 0865.15
2015 04 09 08 07 25 .73      -5    -35     26     36     44 188.0  39.7  33542  279.18 0865.15
2015 04 09 08 07 25 .97     -15    -44     17     47     49 198.7  20.0  33520  278.83 0865.15
2015 04 09 08 07 26 .23     -11    -42      8     44     45 195.1  11.1  33434  277.39 0865.15
2015 04 09 08 07 26 .48     -16    -50     25     53     58 197.8  27.1  33430  277.32 0865.15
2015 04 09 08 07 26 .73     -13    -49     31     51     59 195.1  34.4  33440  277.51 0865.15
2015 04 09 08 07 26 .99     -22    -59     28     64     69 200.9  26.2  33436  277.44 0865.15
2015 04 09 08 07 27 .23      -6    -54     24     55     60 187.1  25.1  33486  278.25 0865.15
2015 04 09 08 07 27 .48      -1    -52     24     53     58 181.8  26.2  33464  277.90 0865.15
2015 04 09 08 07 27 .73      -4    -39      0     40     41 186.2  -1.3  33422  277.21 0865.15
2015 04 09 08 07 27 .99       8    -42     12     43     45 168.4  16.3  33426  277.27 0865.15
2015 04 09 08 07 28 .23      -1    -33     12     34     37 182.7  19.4  33450  277.67 0865.15
2015 04 09 08 07 28 .48      -1    -31     19     32     37 182.6  35.5  33446  277.59 0865.15
2015 04 09 08 07 28 .73      13    -23     13     27     29 149.3  27.3  33462  277.85 0865.15
2015 04 09 08 07 28 .98      13    -23      7     27     28 151.0  15.3  33454  277.74 0865.15
2015 04 09 08 07 29 .23      12    -15      7     20     22 140.4  19.2  33454  277.74 0865.15
2015 04 09 08 07 29 .49       0    -15      7     16     17 179.1  23.0  33464  277.89 0865.15
2015 04 09 08 07 29 .73       4    -16     11     17     20 164.9  37.6  33476  278.09 0865.15
2015 04 09 08 07 30 .00       7    -25      7     27     28 163.1  15.3  33470  277.99 0865.15
2015 04 09 08 07 30 .24      -3    -22      8     23     25 189.8  18.9  33480  278.17 0865.15
2015 04 09 08 07 30 .49      -6    -20     13     21     24 196.9  35.5  33456  277.75 0865.15
2015 04 09 08 07 30 .75     -10    -31     13     33     35 198.3  21.0  33466  277.92 0865.15
2015 04 09 08 07 31 .00     -15    -31     22     35     41 207.2  35.5  33490  278.32 0865.15
2015 04 09 08 07 31 .25      -4    -34     19     35     39 188.0  31.4  33488  278.30 0865.15
2015 04 09 08 07 31 .50      -2    -38     22     39     44 184.4  32.4  33494  278.39 0865.15
2015 04 09 08 07 31 .75     -11    -37     13     39     42 196.9  18.4  33478  278.12 0865.15
2015 04 09 08 07 32 .00      -4    -34     12     35     38 188.0  18.9  33474  278.07 0865.15
2015 04 09 08 07 32 .25     -14    -35     11     38     40 201.8  17.3  33448  277.62 0865.15
2015 04 09 08 07 32 .50     -18    -38     -3     43     44 205.4  -4.1  33400  276.84 0865.15
2015 04 09 08 07 32 .75      -1    -30      1     31     32 182.7   2.8  33424  277.24 0865.15
2015 04 09 08 07 33 .00     -19    -31     24     37     44 212.6  36.5  33402  276.86 0865.15
2015 04 09 08 07 33 .26       1    -31     18     32     36 177.3  33.5  33422  277.19 0865.15
2015 04 09 08 07 33 .50       6    -49     20     50     53 172.9  22.0  33434  277.39 0865.15
2015 04 09 08 07 33 .75       3    -45      2     46     47 175.5   2.9  33404  276.91 0865.15
2015 04 09 08 07 34 .01      -6    -46     -2     47     48 188.0  -3.1  33422  277.19 0865.15
2015 04 09 08 07 34 .26      -8    -35     16     36     39 193.4  25.1  33436  277.44 0865.15
2015 04 09 08 07 34 .51     -10    -35     28     37     46 196.9  40.7  33458  277.79 0865.15
2015 04 09 08 07 34 .75      -6    -40     13     41     44 188.9  18.4  33444  277.56 0865.15
2015 04 09 08 07 35 .02      -1    -68      5     69     70 180.9   4.9  33436  277.42 0865.15
2015 04 09 08 07 35 .26       0    -70     24     71     76 180.0  18.9  33450  277.65 0865.15
2015 04 09 08 07 35 .51      -1    -61     28     62     68 181.8  26.2  33460  277.84 0865.15
2015 04 09 08 07 35 .76      -2    -62     34     63     71 182.7  31.3  33458  277.80 0865.15
2015 04 09 08 07 36 .01     -19    -56     21     60     64 198.5  19.4  33400  276.83 0865.15
2015 04 09 08 07 36 .26       1    -67     34     68     76 179.1  28.2  33424  277.22 0865.15
2015 04 09 08 07 36 .51       4    -61     24     62     66 175.6  22.0  33412  277.04 0865.15
2015 04 09 08 07 36 .76       5    -70     16     71     73 175.6  13.2  33368  276.31 0865.15
2015 04 09 08 07 37 .02      17    -63     18     66     69 164.8  15.2  33374  276.41 0865.15
2015 04 09 08 07 37 .28      26    -46     11     54     56 150.1  12.2  33392  276.71 0865.15
2015 04 09 08 07 37 .52       9    -58     18     59     62 171.1  17.3  33392  276.69 0865.15
2015 04 09 08 07 37 .77      15    -58     15     61     63 164.9  14.3  33400  276.84 0865.14
2015 04 09 08 07 38 .02      25    -42      2     50     51 149.3   2.8  33394  276.74 0865.14
2015 04 09 08 07 38 .28      30    -30      3     43     44 135.0   4.9  33426  277.26 0865.14
2015 04 09 08 07 38 .52      16    -28     16     33     36 149.3  27.2  33414  277.07 0865.14
2015 04 09 08 07 38 .78      17    -40      9     44     46 156.4  12.2  33400  276.83 0865.14
2015 04 09 08 07 39 .03      11    -23     14     26     29 154.6  31.4  33426  277.26 0865.14
2015 04 09 08 07 39 .28      16    -27     22     32     38 149.3  37.6  33460  277.84 0865.14
2015 04 09 08 07 39 .53      11    -35     13     37     40 161.3  19.4  33454  277.74 0865.14
2015 04 09 08 07 39 .78      16    -16     30     24     38 134.9  56.4  33504  278.57 0865.14
2015 04 09 08 07 40 .03      -9    -19     28     22     35 205.4  56.4  33480  278.15 0865.14
2015 04 09 08 07 40 .28     -22    -17     17     28     32 232.2  35.5  33462  277.87 0865.14
2015 04 09 08 07 40 .53     -18      1      7     19     20 274.4  21.0  33464  277.89 0865.14
2015 04 09 08 07 40 .78      -8    -10      0     14     15 219.6   2.9  33460  277.84 0865.14
2015 04 09 08 07 41 .03     -16    -16     15     23     27 225.0  35.6  33474  278.05 0865.14
2015 04 09 08 07 41 .28     -16    -23     16     29     33 214.3  31.4  33470  278.00 0865.14
2015 04 09 08 07 41 .53     -30    -25     13     40     43 229.6  18.4  33430  277.32 0865.14
2015 04 09 08 07 41 .79     -17    -27      6     33     34 212.6  11.1  33440  277.49 0865.14
2015 04 09 08 07 42 .03      -7    -23      4     25     26 198.5   9.0  33462  277.87 0865.14
2015 04 09 08 07 42 .29      -6    -26     13     27     29 193.4  27.3  33484  278.22 0865.15
2015 04 09 08 07 42 .53     -10    -32     14     34     36 198.3  23.0  33478  278.12 0865.15
2015 04 09 08 07 42 .78     -14    -35     18     38     42 201.8  27.2  33478  278.12 0865.15
2015 04 09 08 07 43 .03     -16    -35     13     39     42 205.5  19.2  33464  277.90 0865.15
2015 04 09 08 07 43 .28     -34    -35      1     49     50 224.2   1.8  33358  276.13 0865.15
2015 04 09 08 07 43 .55     -33    -39      2     52     53 220.5   2.9  33362  276.21 0865.15
2015 04 09 08 07 43 .79     -38    -46      5     60     61 219.7   4.9  33390  276.68 0865.15
2015 04 09 08 07 44 .05     -17    -53      2     56     57 198.3   2.9  33428  277.31 0865.14
2015 04 09 08 07 44 .30     -31    -58     -2     66     67 208.1  -2.2  33410  277.01 0865.14
2015 04 09 08 07 44 .55     -18    -62     -4     65     66 196.9  -4.1  33434  277.41 0865.14
2015 04 09 08 07 44 .80     -24    -62     -2     67     68 201.8  -2.2  33432  277.36 0865.14
2015 04 09 08 07 45 .06      -5    -49      7     50     51 186.2   8.0  33466  277.94 0865.14
2015 04 09 08 07 45 .30      -4    -57     20     58     62 184.5  19.2  33464  277.89 0865.14
2015 04 09 08 07 45 .55      -4    -57      6     58     59 184.5   5.9  33400  276.83 0865.14
2015 04 09 08 07 45 .81     -26    -50     -2     57     58 208.1  -2.2  33404  276.89 0865.14
2015 04 09 08 07 46 .06     -11    -40     19     42     46 196.0  25.1  33448  277.64 0865.14
2015 04 09 08 07 46 .30     -24    -38     32     46     56 212.5  37.6  33436  277.44 0865.14
2015 04 09 08 07 46 .56     -27    -44     24     52     57 211.6  27.1  33442  277.54 0865.14
2015 04 09 08 07 46 .80     -30    -46     22     56     60 213.4  23.0  33438  277.46 0865.14
2015 04 09 08 07 47 .05     -25    -40     16     48     51 212.5  19.2  33440  277.51 0865.14
2015 04 09 08 07 47 .30     -39    -34     -2     52     53 228.7  -3.1  33388  276.63 0865.14
2015 04 09 08 07 47 .56     -35    -35     -3     50     51 225.0  -4.1  33378  276.46 0865.14
2015 04 09 08 07 47 .81     -22    -35      1     42     43 212.5   1.8  33382  276.53 0865.14
2015 04 09 08 07 48 .06     -19    -39     -1     44     45 206.3  -2.2  33388  276.64 0865.14
2015 04 09 08 07 48 .31      -6    -38     -8     39     40 189.8 -12.4  33392  276.71 0865.14
2015 04 09 08 07 48 .56     -12    -46     -7     48     49 195.1  -8.2  33428  277.29 0865.14
2015 04 09 08 07 48 .81     -24    -51     20     57     61 205.3  19.4  33440  277.49 0865.14
2015 04 09 08 07 49 .06     -30    -64     28     71     76 205.3  22.0  33486  278.25 0865.14
2015 04 09 08 07 49 .31     -13    -65     23     67     71 191.5  18.9  33494  278.40 0865.14
2015 04 09 08 07 49 .56     -13    -52     14     54     56 194.3  15.3  33446  277.61 0865.15
2015 04 09 08 07 49 .81     -20    -44      2     49     50 204.5   2.9  33394  276.74 0865.15
2015 04 09 08 07 50 .06      -7    -46     -1     47     48 189.8  -2.2  33366  276.26 0865.15
2015 04 09 08 07 50 .31     -29    -37      0     48     49 217.8  -0.3  33370  276.34 0865.15
2015 04 09 08 07 50 .56     -34    -37      2     51     52 222.3   2.9  33368  276.31 0865.15
2015 04 09 08 07 50 .83     -21    -26     -4     34     35 219.7  -7.2  33374  276.41 0865.15
2015 04 09 08 07 51 .07     -39    -25     12     47     49 237.6  15.3  33420  277.16 0865.15
2015 04 09 08 07 51 .32     -39    -22     22     45     50 240.2  27.3  33416  277.11 0865.14
2015 04 09 08 07 51 .58     -23    -41      1     48     49 209.0   1.8  33390  276.68 0865.14
2015 04 09 08 07 51 .82     -24    -54      3     60     61 204.5   2.9  33418  277.14 0865.14
2015 04 09 08 07 52 .08     -26    -31     19     41     45 219.6  27.2  33422  277.19 0865.14
2015 04 09 08 07 52 .32     -20    -35     27     41     49 210.7  36.5  33440  277.51 0865.14
2015 04 09 08 07 52 .58     -17    -44     26     48     54 201.8  31.4  33454  277.72 0865.14
2015 04 09 08 07 52 .83      -6    -46     37     47     59 188.0  42.7  33466  277.94 0865.14
2015 04 09 08 07 53 .08     -12    -54     26     56     61 192.5  27.1  33472  278.02 0865.15
2015 04 09 08 07 53 .33     -30    -63     28     70     75 205.4  23.0  33458  277.79 0865.15
2015 04 09 08 07 53 .58     -27    -52     30     59     66 208.1  29.3  33462  277.85 0865.15
2015 04 09 08 07 53 .83     -14    -43     18     46     49 198.5  22.0  33438  277.46 0865.15
2015 04 09 08 07 54 .08     -20    -38     17     44     47 208.1  21.0  33422  277.21 0865.15
2015 04 09 08 07 54 .33     -23    -35     -4     42     43 213.4  -6.2  33396  276.76 0865.15
2015 04 09 08 07 54 .59     -30    -39    -16     50     52 217.0 -23.8  33362  276.21 0865.15
2015 04 09 08 07 54 .83     -21    -39      2     45     46 209.0   2.9  33374  276.41 0865.15
2015 04 09 08 07 55 .09     -41    -43     20     60     64 223.2  18.9  33378  276.46 0865.15
2015 04 09 08 07 55 .33     -38    -46      5     61     62 219.6   4.9  33380  276.49 0865.15
2015 04 09 08 07 55 .59     -31    -49      7     59     60 212.5   6.9  33388  276.63 0865.15
2015 04 09 08 07 55 .83     -41    -63     -6     76     77 213.4  -5.2  33342  275.86 0865.15
2015 04 09 08 07 56 .08     -47    -55    -10     73     74 220.5  -8.2  33332  275.70 0865.15
2015 04 09 08 07 56 .33     -50    -53    -15     74     76 223.3 -11.5  33328  275.65 0865.15
2015 04 09 08 07 56 .59     -45    -55    -19     72     75 219.7 -15.4  33330  275.68 0865.14
2015 04 09 08 07 56 .83     -49    -49    -21     70     74 225.0 -16.6  33334  275.75 0865.14
2015 04 09 08 07 57 .09     -48    -48    -24     69     74 225.1 -19.6  33334  275.73 0865.14
2015 04 09 08 07 57 .34     -48    -48    -21     68     71 225.0 -22.8  33338  275.80 0865.14
2015 04 09 08 07 57 .59     -45    -53     -9     70     71 220.5  -7.3  33344  275.90 0865.14
2015 04 09 08 07 57 .85     -58    -58     -9     83     84 225.0  -6.2  33348  275.98 0865.14
2015 04 09 08 07 58 .10     -57    -62     -5     85     86 222.8  -3.7  33350  276.01 0865.14
2015 04 09 08 07 58 .35     -48    -53      3     72     73 222.3   2.8  33354  276.06 0865.14
2015 04 09 08 07 58 .61     -51    -69     -2     86     87 216.5  -1.8  33358  276.15 0865.14
2015 04 09 08 07 58 .85     -48    -69      1     85     86 214.7   1.2  33354  276.06 0865.14
2015 04 09 08 07 59 .10     -48    -69      1     85     86 214.7   1.2  33354  276.06 0865.14
2015 04 09 08 07 59 .36     -38    -73      7     83     84 207.6   4.9  33386  276.59 0865.15
2015 04 09 08 07 59 .60     -48    -65     13     82     84 216.5   9.0  33376  276.43 0865.15
2015 04 09 08 07 59 .86     -45    -54     19     71     74 219.6  15.3  33394  276.73 0865.15
2015 04 09 08 08 00 .11     -30    -48     20     57     61 212.5  19.2  33388  276.63 0865.15
2015 04 09 08 08 00 .36     -23    -58      6     63     64 201.8   5.9  33392  276.71 0865.15
2015 04 09 08 08 00 .61     -22    -50      6     55     56 203.6   6.9  33422  277.21 0865.15
2015 04 09 08 08 00 .86     -37    -53     12     65     67 215.2  11.0  33422  277.21 0865.15
2015 04 09 08 08 01 .11     -17    -53      7     56     57 197.8   8.0  33454  277.72 0865.15
2015 04 09 08 08 01 .36      -1    -54     27     55     61 181.8  27.3  33482  278.20 0865.14
2015 04 09 08 08 01 .61      -7    -37     31     38     49 191.6  43.7  33490  278.32 0865.14
2015 04 09 08 08 01 .86      -9    -50     28     51     58 190.7  31.4  33478  278.14 0865.14
2015 04 09 08 08 02 .11      -9    -49     28     50     57 190.7  32.4  33476  278.09 0865.14
2015 04 09 08 08 02 .36     -21    -62     22     66     70 198.7  18.9  33460  277.84 0865.14
2015 04 09 08 08 02 .62     -12    -47     26     49     55 195.1  30.3  33462  277.85 0865.14
2015 04 09 08 08 02 .86     -10    -35     29     37     47 196.9  42.7  33472  278.04 0865.14
2015 04 09 08 08 03 .12       0    -49     31     50     58 180.9  35.5  33482  278.20 0865.14
2015 04 09 08 08 03 .36      -2    -34     38     35     51 184.4  52.2  33506  278.59 0865.14
2015 04 09 08 08 03 .61       1    -49     29     50     57 178.2  33.5  33460  277.84 0865.14
2015 04 09 08 08 03 .86      12    -35     24     38     44 161.3  35.5  33436  277.44 0865.14
2015 04 09 08 08 04 .11       3    -39     24     40     46 175.5  34.4  33406  276.94 0865.14
2015 04 09 08 08 04 .37       3    -38     24     39     45 175.5  35.5  33382  276.53 0865.14
2015 04 09 08 08 04 .62      -3    -39     29     40     49 184.5  39.7  33400  276.83 0865.14
2015 04 09 08 08 04 .88     -13    -38     33     41     52 198.7  43.7  33418  277.12 0865.14
2015 04 09 08 08 05 .13     -47    -52     15     71     73 222.3  12.2  33420  277.16 0865.14
2015 04 09 08 08 05 .38     -38    -46     11     60     62 219.6  11.1  33450  277.65 0865.14
2015 04 09 08 08 05 .63     -23    -24     25     34     42 223.4  40.7  33460  277.82 0865.14
2015 04 09 08 08 05 .88     -26    -31     32     41     52 219.6  42.7  33482  278.19 0865.14
2015 04 09 08 08 06 .13     -23    -26     28     35     44 221.4  42.7  33486  278.25 0865.14
2015 04 09 08 08 06 .38     -14    -18     31     24     39 217.8  56.4  33492  278.37 0865.14
2015 04 09 08 08 06 .63     -14    -18     31     24     39 217.8  56.4  33498  278.47 0865.15
2015 04 09 08 08 06 .88     -14    -20     30     25     39 216.1  56.3  33484  278.22 0865.15
2015 04 09 08 08 07 .13     -13    -16     26     21     33 219.6  56.4  33490  278.32 0865.15
2015 04 09 08 08 07 .38      -4    -20     25     21     32 193.4  56.3  33496  278.42 0865.15
2015 04 09 08 08 07 .63       7    -19     20     21     29 160.0  52.0  33510  278.65 0865.15
2015 04 09 08 08 07 .88       1    -24     25     25     35 175.5  50.1  33494  278.39 0865.15
2015 04 09 08 08 08 .14       2    -35     22     36     42 175.6  34.4  33468  277.97 0865.15
2015 04 09 08 08 08 .38      -1    -35     31     36     47 182.7  45.8  33478  278.12 0865.15
2015 04 09 08 08 08 .63       7    -36     26     37     45 168.4  37.6  33452  277.70 0865.15
2015 04 09 08 08 08 .88      -3    -42     33     43     54 185.3  41.7  33440  277.49 0865.15
2015 04 09 08 08 09 .14      12    -62     12     64     66 168.4  11.1  33398  276.81 0865.15
2015 04 09 08 08 09 .38       6    -49     -1     50     51 172.0  -2.2  33408  276.96 0865.14
2015 04 09 08 08 09 .64      -1    -38     -1     39     40 182.6  -2.2  33408  276.96 0865.14
2015 04 09 08 08 09 .88     -23    -58      6     63     64 201.8   5.9  33402  276.86 0865.14
2015 04 09 08 08 10 .14     -22    -34      8     41     42 213.4  12.2  33402  276.86 0865.14
2015 04 09 08 08 10 .39     -28    -43     16     52     55 212.6  17.3  33402  276.88 0865.14
2015 04 09 08 08 10 .64     -35    -56      8     67     68 212.5   6.9  33386  276.61 0865.14
2015 04 09 08 08 10 .89     -16    -62      5     65     66 195.1   4.9  33362  276.20 0865.14
2015 04 09 08 08 11 .14     -16    -68      4     70     71 193.4   3.8  33362  276.20 0865.14
2015 04 09 08 08 11 .39     -33    -52      3     62     63 212.6   2.9  33380  276.49 0865.15
2015 04 09 08 08 11 .64     -30    -45      2     55     56 214.3   2.8  33388  276.63 0865.15
2015 04 09 08 08 11 .90     -26    -64      8     70     71 201.9   7.1  33366  276.28 0865.15
2015 04 09 08 08 12 .16     -25    -83      5     87     88 196.9   3.3  33360  276.16 0865.14
2015 04 09 08 08 12 .40     -10    -69      3     70     71 188.9   2.9  33366  276.28 0865.14
2015 04 09 08 08 12 .65     -13    -66     -3     68     69 191.6  -3.1  33346  275.93 0865.14
2015 04 09 08 08 12 .90     -13    -65      3     67     68 191.5   2.8  33340  275.85 0865.14
2015 04 09 08 08 13 .16     -24    -62      3     67     68 201.8   2.9  33358  276.13 0865.14
2015 04 09 08 08 13 .40     -24    -54     -2     60     61 204.5  -2.2  33356  276.11 0865.14
2015 04 09 08 08 13 .66     -26    -50     -2     57     58 208.1  -2.2  33366  276.28 0865.14
2015 04 09 08 08 13 .91     -15    -69    -13     71     73 192.5 -10.3  33382  276.53 0865.15
2015 04 09 08 08 14 .16     -34    -62      2     71     72 208.9   1.8  33416  277.11 0865.15
2015 04 09 08 08 14 .41     -39    -56     16     69     71 215.2  13.2  33430  277.32 0865.15
2015 04 09 08 08 14 .66     -29    -45     14     54     56 212.5  15.3  33436  277.44 0865.15
2015 04 09 08 08 14 .91     -37    -50     28     63     68 216.1  25.1  33442  277.54 0865.15
2015 04 09 08 08 15 .16     -32    -51     32     61     68 212.5  29.3  33458  277.79 0865.15
2015 04 09 08 08 15 .41     -38    -38     38     55     66 225.0  37.6  33446  277.61 0865.15
2015 04 09 08 08 15 .66     -17    -44     19     48     51 201.8  22.0  33440  277.49 0865.15
2015 04 09 08 08 15 .91     -14    -57     16     59     62 194.3  15.2  33434  277.41 0865.15
2015 04 09 08 08 16 .17     -21    -63     13     67     69 198.3  11.1  33418  277.12 0865.15
2015 04 09 08 08 16 .41     -30    -54      6     62     63 209.0   5.9  33416  277.11 0865.15
2015 04 09 08 08 16 .66     -24    -38     19     46     49 212.5  23.0  33426  277.27 0865.15
2015 04 09 08 08 16 .91     -17    -42     19     46     49 202.7  23.0  33420  277.17 0865.15
2015 04 09 08 08 17 .16     -25    -44     13     51     53 209.9  15.3  33386  276.59 0865.15
2015 04 09 08 08 17 .42     -17    -41      5     45     46 202.7   6.9  33400  276.83 0865.15
2015 04 09 08 08 17 .67     -14    -44     16     47     50 198.3  19.4  33422  277.19 0865.15
2015 04 09 08 08 17 .91     -14    -42     17     45     48 198.7  20.0  33434  277.41 0865.15
2015 04 09 08 08 18 .17     -15    -31     28     35     44 207.2  42.7  33436  277.44 0865.15
2015 04 09 08 08 18 .42     -15    -31     23     35     41 207.2  36.5  33452  277.70 0865.15
2015 04 09 08 08 18 .67     -15    -31     22     35     41 207.2  35.5  33474  278.07 0865.15
2015 04 09 08 08 18 .92      -8    -26     22     28     35 198.5  43.7  33472  278.02 0865.15
2015 04 09 08 08 19 .18      -6    -18     26     20     32 198.7  56.4  33478  278.12 0865.15
2015 04 09 08 08 19 .43       3    -14     18     15     23 164.9  54.3  33468  277.97 0865.15
2015 04 09 08 08 19 .68      15    -16     14     22     26 136.8  35.5  33472  278.02 0865.15
2015 04 09 08 08 19 .93       7    -18     15     20     25 158.2  39.7  33476  278.10 0865.15
2015 04 09 08 08 20 .18       4     -7     17      9     19 147.5  68.8  33490  278.32 0865.14
2015 04 09 08 08 20 .44       7     -3     13      8     15 115.3  64.7  33530  278.98 0865.14
2015 04 09 08 08 20 .68       6    -11     14     13     19 151.0  48.2  33560  279.50 0865.14
2015 04 09 08 08 20 .93       0     -7     20      8     21 182.7  77.1  33518  278.80 0865.14
2015 04 09 08 08 21 .18       2     -4     16      5     16 147.5  80.7  33510  278.65 0865.14
2015 04 09 08 08 21 .43      -4    -12      7     13     14 198.3  35.5  33480  278.15 0865.14
2015 04 09 08 08 21 .68      -2    -13     -4     14     15 191.6 -15.5  33434  277.41 0865.14
2015 04 09 08 08 21 .93       0    -18     -1     19     20 180.9  -3.1  33434  277.39 0865.14
2015 04 09 08 08 22 .18       9    -26      2     28     29 160.0   4.9  33428  277.31 0865.15
2015 04 09 08 08 22 .43       2    -47      0     48     49 177.3  -0.3  33394  276.74 0865.15
2015 04 09 08 08 22 .69      -3    -47     -6     48     49 184.5  -7.2  33394  276.73 0865.15
2015 04 09 08 08 22 .94     -11    -39     -6     41     42 196.9  -9.3  33398  276.79 0865.15
2015 04 09 08 08 23 .18     -15    -46     22     49     53 198.3  25.1  33426  277.26 0865.15
2015 04 09 08 08 23 .44     -12    -45     -1     47     48 195.1  -2.2  33362  276.20 0865.15
2015 04 09 08 08 23 .69     -10    -42     -5     44     45 194.3  -7.2  33362  276.20 0865.15
2015 04 09 08 08 23 .94       3    -49      7     50     51 176.4   8.0  33372  276.36 0865.15
2015 04 09 08 08 24 .19       0    -44     13     45     47 180.9  16.3  33362  276.20 0865.15
2015 04 09 08 08 24 .44      -3    -53     -6     54     55 183.6  -7.2  33334  275.75 0865.15
2015 04 09 08 08 24 .69     -10    -61     -8     62     63 189.8  -7.3  33334  275.73 0865.15
2015 04 09 08 08 24 .95     -19    -54    -11     58     60 199.2 -11.3  33344  275.90 0865.15
2015 04 09 08 08 25 .19     -29    -39     -5     49     50 217.0  -6.2  33356  276.11 0865.15
2015 04 09 08 08 25 .44     -16    -62      5     65     66 195.1   4.9  33384  276.56 0865.15
2015 04 09 08 08 25 .70      -4    -53      7     54     55 184.4   8.0  33390  276.66 0865.15
2015 04 09 08 08 25 .95      -4    -57      6     58     59 184.5   5.9  33396  276.78 0865.15
2015 04 09 08 08 26 .21       0    -80      9     81     82 180.5   6.5  33396  276.78 0865.15
2015 04 09 08 08 26 .45       5    -73     11     74     75 175.5   9.0  33402  276.86 0865.15
2015 04 09 08 08 26 .70       2    -64     -5     65     66 178.2  -5.2  33374  276.39 0865.15
2015 04 09 08 08 26 .96      -9    -72     -6     73     74 187.1  -5.2  33372  276.36 0865.15
2015 04 09 08 08 27 .20      -1    -67    -12     68     70 181.0 -10.3  33378  276.48 0865.15
2015 04 09 08 08 27 .46      -9    -48    -12     49     51 190.7 -14.5  33384  276.58 0865.15
2015 04 09 08 08 27 .71     -12    -46      5     48     49 195.1   6.9  33390  276.68 0865.15
2015 04 09 08 08 27 .96      -3    -39     16     40     43 184.5  22.0  33394  276.73 0865.15
2015 04 09 08 08 28 .21       3    -46     24     47     52 175.5  28.2  33406  276.94 0865.15
2015 04 09 08 08 28 .46      11    -42     24     44     50 164.9  31.4  33428  277.29 0865.14
2015 04 09 08 08 28 .71      -3    -39     28     40     48 184.5  38.6  33428  277.29 0865.14
2015 04 09 08 08 28 .96      -8    -60      3     61     62 188.0   2.8  33390  276.66 0865.14
2015 04 09 08 08 29 .22       0    -56     -2     57     58 180.9  -2.2  33370  276.33 0865.14
2015 04 09 08 08 29 .46      -1    -71      1     72     73 180.9   0.8  33378  276.46 0865.14
2015 04 09 08 08 29 .71      -2    -83      6     84     85 181.8   4.4  33374  276.41 0865.14
2015 04 09 08 08 29 .96     -14    -72      8     74     75 191.5   6.9  33384  276.58 0865.14
2015 04 09 08 08 30 .21     -16    -62      0     65     66 195.1   0.8  33380  276.49 0865.14
2015 04 09 08 08 30 .46     -17    -53     -6     56     57 197.8  -6.2  33364  276.25 0865.14
2015 04 09 08 08 30 .72      -7    -56    -12     57     59 187.1 -12.4  33392  276.69 0865.14
2015 04 09 08 08 30 .96     -11    -39     -1     41     42 196.9  -2.2  33392  276.71 0865.14
2015 04 09 08 08 31 .22     -18    -57     11     60     62 197.8  11.1  33390  276.66 0865.14
2015 04 09 08 08 31 .47     -24    -53     11     59     61 204.5  11.1  33396  276.76 0865.14
2015 04 09 08 08 31 .71     -11    -36     24     38     44 198.3  35.5  33400  276.84 0865.14
2015 04 09 08 08 31 .97     -33    -41      4     53     54 218.7   4.9  33396  276.78 0865.14
2015 04 09 08 08 32 .22     -33    -45      2     56     57 216.1   2.9  33402  276.86 0865.14
2015 04 09 08 08 32 .47     -24    -52     20     58     62 205.3  19.4  33400  276.83 0865.14
2015 04 09 08 08 32 .73     -48    -46     15     67     69 226.0  13.2  33384  276.56 0865.14
2015 04 09 08 08 32 .98     -31    -42     12     53     55 216.1  13.2  33408  276.96 0865.14
2015 04 09 08 08 33 .23     -31    -41     14     52     54 217.0  15.3  33392  276.71 0865.14
2015 04 09 08 08 33 .48     -11    -44     12     46     48 195.1  15.3  33402  276.86 0865.14
2015 04 09 08 08 33 .73       0    -38     14     39     41 180.9  20.0  33398  276.81 0865.14
2015 04 09 08 08 33 .98       2    -31     24     32     40 175.5  40.7  33414  277.07 0865.14
2015 04 09 08 08 34 .23       4    -30     17     31     35 172.0  33.5  33414  277.06 0865.14
2015 04 09 08 08 34 .48      -4    -49     20     50     53 185.3  22.0  33422  277.19 0865.14
2015 04 09 08 08 34 .73     -11    -60     12     62     64 190.7  11.1  33350  276.00 0865.15
2015 04 09 08 08 34 .98      -9    -57      0     58     59 189.8  -0.3  33334  275.73 0865.15
2015 04 09 08 08 35 .23     -15    -57      1     60     61 195.1   1.8  33334  275.75 0865.15
2015 04 09 08 08 35 .49      -9    -64      0     65     66 188.0  -0.3  33336  275.78 0865.15
2015 04 09 08 08 35 .73     -14    -61     -1     63     64 193.4  -1.3  33352  276.05 0865.15
2015 04 09 08 08 35 .98     -14    -64     -3     66     67 192.5  -3.1  33334  275.73 0865.15
2015 04 09 08 08 36 .23     -16    -68     -6     70     71 193.4  -5.2  33332  275.70 0865.15
2015 04 09 08 08 36 .49     -10    -68     -8     69     70 188.9  -7.3  33334  275.73 0865.15
2015 04 09 08 08 36 .74     -14    -72     -4     74     75 191.5  -3.1  33330  275.67 0865.15
2015 04 09 08 08 36 .99     -18    -72     -9     75     76 194.3  -7.3  33334  275.73 0865.15
2015 04 09 08 08 37 .24     -14    -72     -9     74     75 191.5  -7.3  33334  275.75 0865.15
2015 04 09 08 08 37 .49     -15    -80    -11     82     83 190.7  -7.7  33332  275.70 0865.15
2015 04 09 08 08 37 .74     -14    -72     -9     74     75 191.5  -7.3  33334  275.75 0865.15
2015 04 09 08 08 37 .99     -14    -72     -9     74     75 191.5  -7.3  33334  275.75 0865.15
2015 04 09 08 08 38 .24     -11    -72     -5     73     74 188.9  -4.1  33368  276.30 0865.15
2015 04 09 08 08 38 .49     -14    -72     -4     74     75 191.5  -3.1  33364  276.23 0865.15
2015 04 09 08 08 38 .74      -5    -71     -2     72     73 184.4  -2.2  33374  276.41 0865.15
2015 04 09 08 08 38 .99      -5    -68      3     69     70 184.5   2.8  33372  276.36 0865.15
2015 04 09 08 08 39 .24     -10    -72     -6     73     74 188.0  -5.2  33338  275.80 0865.15
2015 04 09 08 08 39 .51      -6    -67     -3     68     69 185.3  -3.1  33336  275.78 0865.15
2015 04 09 08 08 39 .75      -5    -71     -9     72     73 184.4  -7.2  33354  276.08 0865.15
2015 04 09 08 08 40 .00      -2    -68     -5     69     70 181.8  -4.1  33344  275.91 0865.15
2015 04 09 08 08 40 .26     -15    -74     -9     76     77 191.6  -7.3  33376  276.43 0865.15
2015 04 09 08 08 40 .51     -21    -65      0     69     70 198.3  -0.3  33400  276.83 0865.15
2015 04 09 08 08 40 .77     -18    -82    -14     85     87 192.9  -9.8  33384  276.56 0865.15
2015 04 09 08 08 41 .01      -9    -57      0     58     59 189.8  -0.3  33422  277.19 0865.15
2015 04 09 08 08 41 .26     -10    -52     19     54     58 191.6  19.2  33416  277.09 0865.15
2015 04 09 08 08 41 .51      -6    -52     18     53     57 187.1  19.4  33420  277.16 0865.15
2015 04 09 08 08 41 .76      -9    -55     -3     56     57 189.8  -3.1  33352  276.05 0865.15
2015 04 09 08 08 42 .01      -5    -49     -1     50     51 186.2  -2.2  33344  275.91 0865.15
2015 04 09 08 08 42 .27      -7    -56      6     57     58 188.0   6.9  33350  276.01 0865.15
2015 04 09 08 08 42 .51       5    -64      3     65     66 175.5   2.9  33376  276.43 0865.15
2015 04 09 08 08 42 .76       1    -75      3     76     77 179.1   2.9  33376  276.43 0865.15
2015 04 09 08 08 43 .01      -2    -64      3     65     66 181.8   2.9  33368  276.30 0865.15
2015 04 09 08 08 43 .27       8    -48      6     49     50 170.2   8.0  33388  276.63 0865.15
2015 04 09 08 08 43 .51       1    -40      8     41     42 178.2  11.1  33396  276.76 0865.15
2015 04 09 08 08 43 .77       7    -38      1     39     40 168.4   1.8  33400  276.83 0865.15
2015 04 09 08 08 44 .01       2    -35     21     36     41 175.5  32.4  33420  277.16 0865.15
2015 04 09 08 08 44 .27      26    -46      4     54     55 150.1   4.9  33384  276.58 0865.15
2015 04 09 08 08 44 .52       2    -35     16     36     39 175.5  25.1  33410  276.99 0865.15
2015 04 09 08 08 44 .76       1    -41     34     42     54 178.2  43.7  33402  276.86 0865.15
2015 04 09 08 08 45 .02      -1    -53     18     54     58 181.8  18.9  33386  276.59 0865.15
2015 04 09 08 08 45 .27      -4    -57      6     58     59 184.5   5.9  33376  276.43 0865.15
2015 04 09 08 08 45 .52      -6    -60     -3     61     62 186.2  -3.1  33336  275.78 0865.15
2015 04 09 08 08 45 .77       0    -63     -9     64     65 180.9  -8.2  33334  275.75 0865.15
2015 04 09 08 08 46 .02      -1    -59    -12     60     62 181.8 -11.3  33336  275.78 0865.15
2015 04 09 08 08 46 .27       0    -67     -8     68     69 180.0  -7.2  33336  275.78 0865.15
2015 04 09 08 08 46 .53      -3    -67     -6     68     69 182.7  -5.2  33338  275.80 0865.15
2015 04 09 08 08 46 .78      -4    -64     -2     65     66 184.4  -2.2  33338  275.80 0865.15
2015 04 09 08 08 47 .03     -16    -61     -5     64     65 195.1  -5.2  33332  275.70 0865.15
2015 04 09 08 08 47 .28      -6    -60     -3     61     62 186.2  -3.1  33334  275.73 0865.15
2015 04 09 08 08 47 .53      -8    -63     -5     64     65 188.0  -5.2  33334  275.75 0865.15
2015 04 09 08 08 47 .78      -8    -63     -5     64     65 188.0  -5.2  33334  275.75 0865.15
2015 04 09 08 08 48 .03      -7    -67    -18     68     71 186.2 -15.5  33336  275.78 0865.15
2015 04 09 08 08 48 .28      -4    -66    -13     67     69 183.6 -11.3  33334  275.73 0865.15
2015 04 09 08 08 48 .53      -5    -70    -15     71     73 184.5 -12.4  33334  275.75 0865.15
2015 04 09 08 08 48 .78      -1    -70    -19     71     74 180.9 -15.4  33336  275.78 0865.15
2015 04 09 08 08 49 .03      -5    -70    -15     71     73 184.5 -12.4  33334  275.75 0865.15
2015 04 09 08 08 49 .28      -5    -70    -15     71     73 184.5 -12.4  33334  275.75 0865.15
2015 04 09 08 08 49 .53      -5    -70    -15     71     73 184.5 -12.4  33334  275.75 0865.15
2015 04 09 08 08 49 .78      -5    -70    -15     71     73 184.5 -12.4  33334  275.75 0865.15
2015 04 09 08 08 50 .04      -4    -74    -12     75     77 183.6  -9.3  33336  275.78 0865.15
2015 04 09 08 08 50 .29      -5    -70    -15     71     73 184.5 -12.4  33334  275.75 0865.15
2015 04 09 08 08 50 .54     -10    -71    -14     72     74 188.0 -11.3  33334  275.73 0865.15
2015 04 09 08 08 50 .79     -10    -71    -14     72     74 188.0 -11.3  33334  275.73 0865.15
2015 04 09 08 08 51 .04      -5    -70    -15     71     73 184.5 -12.4  33334  275.75 0865.15
2015 04 09 08 08 51 .29      -9    -64    -20     65     69 188.0 -17.6  33334  275.75 0865.16
2015 04 09 08 08 51 .54      -4    -63    -23     64     69 184.5 -19.7  33336  275.78 0865.16
2015 04 09 08 08 51 .79      -9    -64    -20     65     69 188.0 -17.6  33334  275.75 0865.16
2015 04 09 08 08 52 .04       0    -63     -9     64     65 180.9  -8.2  33334  275.75 0865.16
2015 04 09 08 08 52 .29      -2    -64    -10     65     66 181.8  -9.3  33354  276.06 0865.16
2015 04 09 08 08 52 .54      -9    -65     -6     66     67 188.0  -5.2  33344  275.90 0865.16
2015 04 09 08 08 52 .79     -13    -57     -9     59     60 193.4  -9.3  33334  275.75 0865.16
2015 04 09 08 08 53 .04     -10    -61     -8     62     63 189.8  -7.3  33334  275.73 0865.16
2015 04 09 08 08 53 .29      -6    -60    -10     61     62 186.2  -9.3  33332  275.72 0865.16
2015 04 09 08 08 53 .56     -11    -53    -15     55     58 191.6 -15.4  33332  275.70 0865.16
2015 04 09 08 08 53 .80      -9    -57    -20     58     62 189.8 -19.7  33334  275.75 0865.16
2015 04 09 08 08 54 .06      -9    -64    -20     65     69 188.0 -17.6  33334  275.75 0865.16
2015 04 09 08 08 54 .31      -7    -62    -20     63     66 187.1 -23.8  33334  275.75 0865.16
2015 04 09 08 08 54 .56       0    -56    -16     57     60 180.9 -15.5  33336  275.78 0865.16
2015 04 09 08 08 54 .81      -4    -57    -15     58     60 184.5 -14.5  33334  275.75 0865.16
2015 04 09 08 08 55 .06     -11    -59    -16     61     64 190.7 -14.5  33338  275.80 0865.16
2015 04 09 08 08 55 .31      -8    -63    -11     64     66 188.0 -10.3  33340  275.83 0865.16
2015 04 09 08 08 55 .56      -4    -58    -18     59     61 184.5 -21.7  33340  275.83 0865.16
2015 04 09 08 08 55 .83     -11    -54    -18     56     58 191.6 -23.8  33342  275.88 0865.16
2015 04 09 08 08 56 .06      -4    -58    -18     59     61 184.5 -21.7  33340  275.83 0865.16
2015 04 09 08 08 56 .31       0    -57    -10     58     59 180.9 -10.3  33350  276.01 0865.16
2015 04 09 08 08 56 .56      -8    -57     -5     58     59 188.9  -5.2  33350  276.01 0865.16
2015 04 09 08 08 56 .81      -6    -53     -3     54     55 187.1  -3.1  33354  276.08 0865.16
2015 04 09 08 08 57 .07     -21    -58     -5     62     63 200.0  -5.2  33360  276.16 0865.16
2015 04 09 08 08 57 .32     -23    -50     -6     56     57 205.3  -6.2  33366  276.26 0865.16
2015 04 09 08 08 57 .57     -17    -50     -6     53     54 199.2  -7.3  33364  276.23 0865.16
2015 04 09 08 08 57 .82     -14    -41     -9     44     46 198.7 -12.4  33372  276.36 0865.16
2015 04 09 08 08 58 .07      -6    -39    -14     40     42 189.8 -24.4  33364  276.23 0865.16
2015 04 09 08 08 58 .32      -8    -26      1     28     29 198.5   2.9  33376  276.43 0865.16
2015 04 09 08 08 58 .57      -4    -26      7     27     28 189.8  15.3  33382  276.53 0865.16
2015 04 09 08 08 58 .82       3    -30     10     31     33 173.8  19.2  33382  276.53 0865.16
2015 04 09 08 08 59 .07       2    -27     15     28     31 175.6  29.3  33388  276.63 0865.16
2015 04 09 08 08 59 .32       0    -27     17     28     32 180.9  35.5  33378  276.46 0865.16
2015 04 09 08 08 59 .58      -7    -31     11     32     34 193.4  19.2  33390  276.68 0865.16
2015 04 09 08 08 59 .82      -8    -24     11     26     28 198.5  21.0  33384  276.58 0865.16
2015 04 09 08 09 00 .07     -13    -25     10     29     31 207.2  18.9  33388  276.64 0865.16
2015 04 09 08 09 00 .32      -9    -19     16     22     27 205.4  39.7  33402  276.88 0865.16
2015 04 09 08 09 00 .58     -16     -7     22     18     28 244.7  54.3  33414  277.06 0865.16
2015 04 09 08 09 00 .83     -18    -28     12     34     37 212.5  19.4  33406  276.92 0865.16
2015 04 09 08 09 01 .09      -2    -37     15     38     40 184.4  22.0  33410  276.99 0865.16
2015 04 09 08 09 01 .33     -10    -41     15     43     46 194.3  19.2  33442  277.54 0865.16
2015 04 09 08 09 01 .58     -19    -46      9     50     51 202.7  11.1  33446  277.59 0865.16
2015 04 09 08 09 01 .83      -8    -26     15     28     31 198.5  29.3  33440  277.49 0865.16
2015 04 09 08 09 02 .08     -14    -35     24     38     44 201.8  35.5  33424  277.24 0865.16
2015 04 09 08 09 02 .33      -4    -27     19     28     33 189.8  37.6  33424  277.24 0865.16
2015 04 09 08 09 02 .59       0    -19     11     20     22 180.9  31.4  33426  277.27 0865.16
2015 04 09 08 09 02 .84       2    -19     16     20     25 173.8  43.7  33436  277.44 0865.16
2015 04 09 08 09 03 .10       7    -35     12     36     39 168.4  18.9  33474  278.07 0865.16
2015 04 09 08 09 03 .34      -1    -38     13     39     42 182.6  18.4  33544  279.23 0865.16
2015 04 09 08 09 03 .59       6    -18     20     20     28 161.3  50.1  33530  279.00 0865.16
2015 04 09 08 09 03 .85      14    -37     22     40     45 158.2  32.4  33538  279.13 0865.16
2015 04 09 08 09 04 .09      10    -51     30     53     60 168.5  31.4  33502  278.52 0865.16
2015 04 09 08 09 04 .34       2    -51     35     52     62 177.3  37.6  33524  278.88 0865.16
2015 04 09 08 09 04 .60       0    -42     24     43     49 180.9  31.4  33424  277.24 0865.16
2015 04 09 08 09 04 .84      -7    -43     19     44     47 189.8  24.1  33382  276.53 0865.16
2015 04 09 08 09 05 .09      -3    -47     13     48     50 184.5  15.3  33350  276.00 0865.16
2015 04 09 08 09 05 .34       0    -57      1     58     59 180.9   1.8  33338  275.82 0865.16
2015 04 09 08 09 05 .59      -4    -64     -2     65     66 184.4  -2.2  33338  275.80 0865.16
2015 04 09 08 09 05 .84      -1    -64     -3     65     66 180.9  -3.1  33340  275.83 0865.16
2015 04 09 08 09 06 .09      -3    -53      0     54     55 183.6  -0.3  33336  275.78 0865.16
2015 04 09 08 09 06 .34      -4    -56     -7     57     58 184.5  -7.3  33338  275.82 0865.16
2015 04 09 08 09 06 .60       1    -57     -5     58     59 178.2  -5.2  33338  275.80 0865.16
2015 04 09 08 09 06 .85      -1    -71     -3     72     73 180.9  -3.1  33342  275.88 0865.16
2015 04 09 08 09 07 .09     -15    -69     -1     71     72 192.5  -1.2  33342  275.88 0865.16
2015 04 09 08 09 07 .37     -18    -65      3     68     69 196.0   2.9  33358  276.13 0865.16
2015 04 09 08 09 07 .61     -21    -65      5     69     70 198.3   4.9  33356  276.11 0865.16
2015 04 09 08 09 07 .86     -15    -69     -1     71     72 192.5  -1.2  33352  276.03 0865.16
2015 04 09 08 09 08 .11     -24    -70     -9     75     76 199.2  -7.2  33352  276.03 0865.16
2015 04 09 08 09 08 .36     -24    -71    -12     76     78 198.7  -9.3  33346  275.93 0865.16
2015 04 09 08 09 08 .61     -14    -70     -5     72     73 191.6  -4.1  33346  275.95 0865.16
2015 04 09 08 09 08 .86     -10    -72     -6     73     74 188.0  -5.2  33342  275.86 0865.16
2015 04 09 08 09 09 .11     -15    -76    -12     78     80 191.6  -9.3  33342  275.88 0865.16
2015 04 09 08 09 09 .36      -5    -75     -9     76     77 184.5  -7.3  33338  275.80 0865.16
2015 04 09 08 09 09 .61      -9    -80     -5     81     82 186.7  -4.1  33344  275.91 0865.16
2015 04 09 08 09 09 .86     -18    -82     -9     84     85 192.5  -6.2  33348  275.98 0865.16
2015 04 09 08 09 10 .11     -22    -76     -3     80     81 196.0  -2.6  33352  276.03 0865.16
2015 04 09 08 09 10 .36     -24    -71     -6     76     77 198.7  -5.2  33352  276.05 0865.16
2015 04 09 08 09 10 .61     -22    -81     -1     85     86 195.6  -0.7  33352  276.03 0865.16
2015 04 09 08 09 10 .87     -19    -93      0     96     97 192.0   0.2  33358  276.15 0865.16
2015 04 09 08 09 11 .12     -31    -90      3     96     97 199.2   2.3  33360  276.18 0865.16
2015 04 09 08 09 11 .37     -32    -70     19     78     81 204.5  13.7  33360  276.18 0865.16
2015 04 09 08 09 11 .62     -12    -60     -8     62     63 191.6  -7.3  33360  276.18 0865.16
2015 04 09 08 09 11 .87     -20    -62    -10     66     67 198.5  -9.3  33366  276.26 0865.15
2015 04 09 08 09 12 .12     -23    -82     -6     86     87 196.0  -4.6  33356  276.11 0865.15
2015 04 09 08 09 12 .37     -24    -72     -5     77     78 198.7  -4.1  33362  276.21 0865.15
2015 04 09 08 09 12 .62     -36    -66      1     76     77 209.0   0.8  33364  276.23 0865.15
2015 04 09 08 09 12 .88     -23    -88      0     92     93 195.1  -0.3  33376  276.43 0865.15
2015 04 09 08 09 13 .12     -26    -78     -9     83     84 198.3  -6.2  33400  276.84 0865.15
2015 04 09 08 09 13 .38      -8    -88     -1     89     90 185.3  -0.7  33414  277.07 0865.15
2015 04 09 08 09 13 .62       0    -81      7     82     83 180.5   5.4  33418  277.14 0865.15
2015 04 09 08 09 13 .87      -9    -87     -6     88     89 186.2  -4.1  33390  276.66 0865.16
2015 04 09 08 09 14 .12       2    -87     -1     88     89 178.6  -1.3  33396  276.78 0865.16
2015 04 09 08 09 14 .38     -15    -76      0     78     79 191.6   0.2  33390  276.68 0865.16
2015 04 09 08 09 14 .63      -5    -71     -9     72     73 184.4  -7.2  33394  276.74 0865.16
2015 04 09 08 09 14 .89      -4    -66    -13     67     69 183.6 -11.3  33394  276.73 0865.16
2015 04 09 08 09 15 .14      17    -66     -5     69     70 165.7  -4.1  33402  276.86 0865.16
2015 04 09 08 09 15 .39      34    -46     -5     58     59 143.0  -5.2  33420  277.16 0865.16
2015 04 09 08 09 15 .64      33    -40     24     52     57 140.4  27.1  33466  277.94 0865.15
2015 04 09 08 09 15 .89      31    -39     24     51     56 141.3  27.1  33556  279.42 0865.15
2015 04 09 08 09 16 .14      26    -43     24     51     56 149.3  27.1  33552  279.37 0865.15
2015 04 09 08 09 16 .39       4    -76     24     77     81 176.4  17.9  33388  276.63 0865.15
2015 04 09 08 09 16 .64      -4    -81      4     82     83 183.1   3.3  33342  275.88 0865.15
2015 04 09 08 09 16 .89      -3    -75      6     76     77 182.7   4.9  33340  275.85 0865.15
2015 04 09 08 09 17 .14      -9    -72      0     73     74 187.1  -0.3  33340  275.83 0865.15
2015 04 09 08 09 17 .39     -10    -72      0     73     74 188.0  -0.3  33342  275.88 0865.15
2015 04 09 08 09 17 .64     -16    -92      4     94     95 190.2   2.9  33354  276.06 0865.15
2015 04 09 08 09 17 .89     -16    -92      4     94     95 190.2   2.9  33344  275.90 0865.15
2015 04 09 08 09 18 .14      -4   -102     -9    103    104 182.7  -5.2  33340  275.83 0865.15
2015 04 09 08 09 18 .39      -8    -94     -8     95     96 184.9  -5.2  33336  275.77 0865.16
2015 04 09 08 09 18 .64      -5    -93    -14     94     96 183.6  -8.8  33338  275.80 0865.16
2015 04 09 08 09 18 .89      -3    -98    -12     99    100 182.2  -7.3  33336  275.78 0865.16
2015 04 09 08 09 19 .14      -3    -98    -12     99    100 182.2  -7.3  33336  275.78 0865.16
2015 04 09 08 09 19 .39      -8    -94    -12     95     96 184.9  -7.3  33340  275.83 0865.16
2015 04 09 08 09 19 .64      -7    -91    -11     92     93 184.5  -7.3  33338  275.80 0865.16
2015 04 09 08 09 19 .90      -5    -93    -14     94     96 183.6  -8.8  33338  275.80 0865.16
2015 04 09 08 09 20 .14      -4    -91    -12     92     93 182.7  -7.7  33336  275.78 0865.16
2015 04 09 08 09 20 .40      -4    -91    -12     92     93 182.7  -7.7  33336  275.78 0865.16
2015 04 09 08 09 20 .65      -7    -90    -11     91     92 184.5  -7.2  33344  275.90 0865.16
2015 04 09 08 09 20 .90       0    -91     -3     92     93 180.4  -2.2  33356  276.10 0865.16
2015 04 09 08 09 21 .15       0    -91     -3     92     93 180.4  -2.2  33356  276.10 0865.16
2015 04 09 08 09 21 .41      -7    -90     -3     91     92 184.5  -2.2  33352  276.03 0865.16
2015 04 09 08 09 21 .66       0    -83    -14     84     86 180.4  -9.8  33350  276.00 0865.16
2015 04 09 08 09 21 .91       0    -84    -16     85     87 180.0 -10.9  33338  275.82 0865.15
2015 04 09 08 09 22 .17     -13    -96     -3     97     98 188.0  -2.2  33354  276.08 0865.15
2015 04 09 08 09 22 .41      -1   -102     -5    103    104 180.9  -3.1  33360  276.18 0865.15
2015 04 09 08 09 22 .67     -10    -99      2    100    101 186.2   1.2  33360  276.18 0865.15
2015 04 09 08 09 22 .91       0    -91      4     92     93 180.4   2.9  33370  276.33 0865.16
2015 04 09 08 09 23 .16     -22    -81     -1     85     86 195.6  -0.7  33366  276.28 0865.16
2015 04 09 08 09 23 .41      -6    -94    -11     95     96 183.6  -6.7  33354  276.08 0865.16
2015 04 09 08 09 23 .67     -13   -111     -5    112    113 187.1  -2.6  33354  276.08 0865.16
2015 04 09 08 09 23 .92     -14   -110    -12    111    112 187.6  -6.2  33374  276.41 0865.16
2015 04 09 08 09 24 .17      -2   -105     -6    106    107 181.4  -3.7  33340  275.85 0865.16
2015 04 09 08 09 24 .42      -5   -101    -16    102    104 183.1  -9.3  33334  275.75 0865.16
2015 04 09 08 09 24 .67      -1    -94    -12     95     96 180.9  -7.3  33336  275.77 0865.16
2015 04 09 08 09 24 .91      -4    -91     -7     92     93 182.7  -4.6  33338  275.80 0865.16
2015 04 09 08 09 25 .17       1    -81    -12     82     83 178.6  -8.8  33336  275.78 0865.16
2015 04 09 08 09 25 .42       0    -84    -16     85     87 180.0 -10.9  33338  275.82 0865.16
2015 04 09 08 09 25 .68      -1    -71      3     72     73 180.9   2.8  33386  276.61 0865.16
2015 04 09 08 09 25 .92       7    -64     -2     65     66 173.8  -2.2  33390  276.66 0865.16
2015 04 09 08 09 26 .17      -3    -75     22     76     80 182.7  16.3  33404  276.91 0865.16
2015 04 09 08 09 26 .42      -5    -75      9     76     77 184.5   6.9  33416  277.09 0865.16
2015 04 09 08 09 26 .67       1    -71     -1     72     73 179.1  -1.3  33366  276.28 0865.16
2015 04 09 08 09 26 .92       7    -69     -1     70     71 173.8  -1.3  33336  275.78 0865.16
2015 04 09 08 09 27 .18      -4    -55     19     56     60 184.4  18.9  33372  276.38 0865.16
2015 04 09 08 09 27 .43     -11    -67     18     69     72 189.8  15.3  33394  276.74 0865.16
2015 04 09 08 09 27 .68     -16    -86     -2     88     89 190.7  -1.8  33346  275.95 0865.16
2015 04 09 08 09 27 .92     -19    -89     -3     92     93 192.5  -2.2  33338  275.80 0865.16
2015 04 09 08 09 28 .19     -11    -84     -3     85     86 187.6  -2.2  33366  276.26 0865.16
2015 04 09 08 09 28 .44     -25    -85     -3     89     90 196.5  -2.2  33386  276.61 0865.16
2015 04 09 08 09 28 .69     -17    -63     12     66     68 195.2  11.0  33392  276.71 0865.16
2015 04 09 08 09 28 .93      -8    -63     -5     64     65 188.0  -5.2  33356  276.11 0865.16
2015 04 09 08 09 29 .19       0    -75     -9     76     77 180.0  -7.2  33370  276.33 0865.16
2015 04 09 08 09 29 .44      -9    -80     -5     81     82 186.7  -4.1  33380  276.51 0865.16
2015 04 09 08 09 29 .70      -9    -86    -13     87     89 186.2  -8.8  33360  276.18 0865.16
2015 04 09 08 09 29 .94      -5    -71    -14     72     74 184.5 -11.3  33350  276.00 0865.16
2015 04 09 08 09 30 .19      -3    -67     -6     68     69 182.7  -5.2  33338  275.80 0865.16
2015 04 09 08 09 30 .44       0    -67     -8     68     69 180.0  -7.2  33336  275.78 0865.16
2015 04 09 08 09 30 .69       0    -67     -8     68     69 180.0  -7.2  33336  275.78 0865.16
2015 04 09 08 09 30 .94       1    -67      3     68     69 179.1   2.9  33340  275.83 0865.16
2015 04 09 08 09 31 .19       4    -72      4     73     74 176.4   3.8  33340  275.85 0865.16
2015 04 09 08 09 31 .44      -1    -68     -1     69     70 181.0  -1.2  33336  275.78 0865.16
2015 04 09 08 09 31 .69      -6    -67     -3     68     69 185.3  -3.1  33336  275.78 0865.16
2015 04 09 08 09 31 .94      -6    -67     -3     68     69 185.3  -3.1  33336  275.78 0865.16
2015 04 09 08 09 32 .19     -10    -68     -8     69     70 188.9  -7.3  33336  275.78 0865.16
2015 04 09 08 09 32 .44      -1    -59    -12     60     62 181.8 -11.3  33336  275.78 0865.16
2015 04 09 08 09 32 .69      -9    -64    -20     65     69 188.0 -17.6  33334  275.75 0865.16
2015 04 09 08 09 32 .95      -9    -64    -20     65     69 188.0 -17.6  33338  275.80 0865.16
2015 04 09 08 09 33 .19      -9    -64    -20     65     69 188.0 -17.6  33334  275.75 0865.16
2015 04 09 08 09 33 .46      -5    -74    -18     75     78 184.5 -13.4  33378  276.48 0865.16
2015 04 09 08 09 33 .70     -27    -58      3     65     66 205.4   2.8  33396  276.76 0865.16
2015 04 09 08 09 33 .95     -21    -55      9     59     60 200.9   9.0  33402  276.88 0865.16
2015 04 09 08 09 34 .20     -16    -61     -5     64     65 195.1  -5.2  33356  276.10 0865.16
2015 04 09 08 09 34 .46     -24    -73     -9     77     78 198.5  -7.3  33348  275.96 0865.16
2015 04 09 08 09 34 .71     -35    -56      8     67     68 212.5   6.9  33410  277.01 0865.16
2015 04 09 08 09 34 .95     -16    -38     22     42     47 203.6  30.3  33428  277.31 0865.16
2015 04 09 08 09 35 .21     -24    -38     32     46     56 212.5  37.6  33442  277.54 0865.16
2015 04 09 08 09 35 .46     -18    -43     26     47     53 202.7  31.4  33420  277.16 0865.16
2015 04 09 08 09 35 .72     -19    -31     30     37     47 212.5  43.7  33426  277.26 0865.16
2015 04 09 08 09 35 .96     -13    -38     39     41     56 198.7  50.0  33438  277.46 0865.16
2015 04 09 08 09 36 .21     -13    -50     24     52     57 195.1  27.1  33434  277.39 0865.16
2015 04 09 08 09 36 .46     -11    -44     14     46     49 194.3  17.3  33422  277.21 0865.16
2015 04 09 08 09 36 .71     -10    -49     -4     51     52 191.5  -5.2  33356  276.11 0865.16
2015 04 09 08 09 36 .96      -8    -56      0     57     58 188.9   0.8  33354  276.08 0865.16
2015 04 09 08 09 37 .21     -13    -65    -11     67     68 191.5  -9.3  33338  275.80 0865.16
2015 04 09 08 09 37 .47     -22    -76     -3     80     81 196.0  -2.6  33370  276.33 0865.16
2015 04 09 08 09 37 .72       2    -72      3     73     74 178.2   2.9  33432  277.36 0865.16
2015 04 09 08 09 37 .97      10    -51     24     53     58 168.4  26.2  33440  277.49 0865.16
2015 04 09 08 09 38 .21      -3    -67     -6     68     69 182.7  -5.2  33342  275.86 0865.16
2015 04 09 08 09 38 .47       0    -67     -8     68     69 180.0  -7.2  33336  275.78 0865.16
2015 04 09 08 09 38 .72       1    -71     -3     72     73 179.1  -3.1  33334  275.75 0865.16
2015 04 09 08 09 38 .97      -5    -70    -15     71     73 184.5 -12.4  33334  275.75 0865.16
2015 04 09 08 09 39 .22       0    -81    -18     82     84 180.5 -12.4  33340  275.83 0865.16
2015 04 09 08 09 39 .48      -5    -74    -18     75     78 184.5 -13.4  33366  276.28 0865.16
2015 04 09 08 09 39 .72      -5    -78    -24     79     83 184.0 -17.0  33390  276.68 0865.16
2015 04 09 08 09 39 .98     -20    -81     -3     84     85 193.8  -2.2  33414  277.06 0865.16
2015 04 09 08 09 40 .22     -26    -73     -3     78     79 200.0  -2.6  33424  277.24 0865.16
2015 04 09 08 09 40 .48     -36    -66     -6     76     77 209.0  -5.2  33428  277.31 0865.16
2015 04 09 08 09 40 .73     -18    -89     -8     91     92 191.6  -5.6  33408  276.97 0865.16
2015 04 09 08 09 40 .98     -23    -88     14     92     94 195.1   9.0  33414  277.07 0865.16
2015 04 09 08 09 41 .23     -29    -80     10     86     87 200.0   6.9  33422  277.21 0865.16
2015 04 09 08 09 41 .48     -15    -69     -1     71     72 192.5  -1.2  33390  276.68 0865.16
2015 04 09 08 09 41 .72     -24    -71      3     75     76 198.7   2.8  33378  276.48 0865.16
2015 04 09 08 09 41 .98     -13    -65      3     67     68 191.6   2.8  33380  276.51 0865.16
2015 04 09 08 09 42 .24     -25    -75     -2     80     81 198.7  -1.8  33376  276.44 0865.16
2015 04 09 08 09 42 .49     -33    -86      1     93     94 201.4   0.8  33342  275.86 0865.16
2015 04 09 08 09 42 .74     -28    -85      4     90     91 198.7   2.9  33348  275.96 0865.16
2015 04 09 08 09 42 .99     -31    -85      7     91     92 200.5   4.4  33346  275.93 0865.16
2015 04 09 08 09 43 .24     -29    -89      9     94     95 198.3   5.9  33344  275.91 0865.16
2015 04 09 08 09 43 .49     -26    -84     -8     89     90 197.4  -5.6  33352  276.03 0865.16
2015 04 09 08 09 43 .74     -28    -68     -4     74     75 202.7  -3.2  33350  276.00 0865.16
2015 04 09 08 09 43 .99     -30    -65     -2     72     73 205.4  -2.2  33354  276.06 0865.16
2015 04 09 08 09 44 .24     -24    -62     -8     67     68 201.8  -7.3  33346  275.93 0865.16
2015 04 09 08 09 44 .49     -28    -59    -18     66     69 205.4 -15.5  33340  275.83 0865.16
2015 04 09 08 09 44 .74     -18    -58    -14     61     63 197.8 -13.4  33342  275.86 0865.16
2015 04 09 08 09 44 .99     -26    -59    -21     65     68 204.5 -23.8  33336  275.77 0865.16
2015 04 09 08 09 45 .24     -38    -70    -23     80     84 208.9 -16.0  33334  275.73 0865.16
2015 04 09 08 09 45 .50     -24    -73    -26     77     82 198.3 -18.7  33334  275.75 0865.16
2015 04 09 08 09 45 .74     -26    -59    -10     65     66 204.5  -9.3  33344  275.91 0865.16
2015 04 09 08 09 45 .99     -41    -58    -19     72     75 215.2 -15.4  33336  275.78 0865.16
2015 04 09 08 09 46 .24     -37    -58    -20     69     73 212.5 -16.6  33336  275.77 0865.16
2015 04 09 08 09 46 .49     -32    -58    -24     67     72 209.0 -19.7  33336  275.78 0865.16
2015 04 09 08 09 46 .74     -38    -54    -24     67     71 215.2 -23.3  33338  275.80 0865.16
2015 04 09 08 09 47 .00     -46    -54    -25     72     77 220.5 -19.7  33338  275.80 0865.16
2015 04 09 08 09 47 .25     -42    -50    -18     66     69 219.6 -15.5  33336  275.78 0865.16
2015 04 09 08 09 47 .50     -43    -53    -12     69     71 218.7 -10.3  33340  275.83 0865.16
2015 04 09 08 09 47 .75     -44    -57    -16     73     75 217.8 -12.4  33336  275.77 0865.16
2015 04 09 08 09 48 .00     -36    -52    -23     64     68 215.2 -23.3  33336  275.78 0865.16
2015 04 09 08 09 48 .25     -29    -63    -23     70     73 204.5 -23.8  33336  275.78 0865.16
2015 04 09 08 09 48 .50     -31    -48    -29     58     64 212.5 -32.6  33334  275.75 0865.16
2015 04 09 08 09 48 .75     -30    -39    -29     50     57 217.0 -37.9  33338  275.82 0865.16
2015 04 09 08 09 49 .05     -27    -52    -27     59     64 208.1 -31.5  33336  275.78 0865.16
2015 04 09 08 09 49 .26     -24    -62    -31     67     73 201.8 -31.5  33336  275.78 0865.16
2015 04 09 08 09 49 .51     -23    -59    -23     64     68 201.8 -23.3  33336  275.78 0865.16
2015 04 09 08 09 49 .76     -17    -54    -20     57     61 197.8 -19.7  33338  275.80 0865.16
2015 04 09 08 09 50 .01      -7    -45    -11     46     48 189.8 -13.4  33338  275.80 0865.16
2015 04 09 08 09 50 .26     -14    -42     -2     45     46 198.5  -3.1  33340  275.83 0865.17
2015 04 09 08 09 50 .52     -15    -45     -5     48     49 198.3  -6.2  33342  275.86 0865.17
2015 04 09 08 09 50 .76     -13    -65     -3     67     68 191.6  -3.1  33340  275.83 0865.17
2015 04 09 08 09 51 .02      -5    -75      3     76     77 184.5   2.8  33338  275.80 0865.17
2015 04 09 08 09 51 .27     -19    -73     -3     76     77 195.1  -2.2  33344  275.91 0865.17
2015 04 09 08 09 51 .52     -28    -62    -20     69     73 204.5 -16.6  33346  275.95 0865.17
2015 04 09 08 09 51 .77     -30    -47    -22     56     60 212.5 -27.4  33346  275.93 0865.17
2015 04 09 08 09 52 .02     -17    -51    -24     54     59 198.5 -29.5  33342  275.86 0865.16
2015 04 09 08 09 52 .27     -27    -52    -20     59     62 208.1 -23.6  33342  275.86 0865.16
2015 04 09 08 09 52 .52     -23    -44    -23     50     55 208.1 -31.5  33346  275.93 0865.16
2015 04 09 08 09 52 .77     -26    -49    -18     56     58 208.1 -23.8  33342  275.88 0865.16
2015 04 09 08 09 53 .02     -17    -53    -12     56     58 197.8 -12.4  33342  275.88 0865.16
2015 04 09 08 09 53 .27     -14    -58     -9     60     61 194.3  -9.3  33340  275.85 0865.16
2015 04 09 08 09 53 .52     -15    -45    -12     48     50 198.3 -14.5  33342  275.88 0865.16
2015 04 09 08 09 53 .78     -17    -48     -2     52     53 200.0  -2.2  33350  276.01 0865.16
2015 04 09 08 09 54 .02     -17    -54     -2     57     58 198.3  -2.2  33358  276.13 0865.16
2015 04 09 08 09 54 .27     -22    -47      0     53     54 205.3   0.8  33348  275.98 0865.16
2015 04 09 08 09 54 .52     -23    -58      0     63     64 201.9   0.8  33350  276.01 0865.16
2015 04 09 08 09 54 .77     -30    -56     -1     64     65 208.9  -1.2  33358  276.15 0865.16
2015 04 09 08 09 55 .03     -22    -42      0     48     49 208.1  -0.3  33358  276.13 0865.16
2015 04 09 08 09 55 .28     -24    -37      5     45     46 212.5   6.9  33360  276.18 0865.16
2015 04 09 08 09 55 .53     -34    -53     -2     64     65 212.5  -2.2  33360  276.18 0865.16
2015 04 09 08 09 55 .78     -32    -57     -1     66     67 209.0  -1.3  33360  276.16 0865.16
2015 04 09 08 09 56 .07     -39    -69      4     80     81 209.9   3.3  33358  276.13 0865.16
2015 04 09 08 09 56 .29     -33    -76      1     84     85 203.6   0.8  33350  276.00 0865.16
2015 04 09 08 09 56 .54     -28    -84     -1     89     90 198.7  -0.7  33346  275.93 0865.16
2015 04 09 08 09 56 .81     -33    -71      1     79     80 205.4   0.8  33346  275.95 0865.16
2015 04 09 08 09 57 .04     -33    -76      7     84     85 203.6   4.9  33346  275.93 0865.16
2015 04 09 08 09 57 .29     -35    -89      4     96     97 201.4   2.9  33344  275.90 0865.16
2015 04 09 08 09 57 .54     -31    -85      7     91     92 200.5   4.4  33346  275.93 0865.16
2015 04 09 08 09 57 .79     -35    -89      4     96     97 201.4   2.9  33348  275.96 0865.16
2015 04 09 08 09 58 .04     -28    -85     13     90     92 198.5   8.5  33346  275.93 0865.16
2015 04 09 08 09 58 .30     -30    -79      4     85     86 200.9   2.9  33348  275.96 0865.16
2015 04 09 08 09 58 .55     -48    -69      1     85     86 214.7   1.2  33356  276.11 0865.16
2015 04 09 08 09 58 .79     -28    -62     -1     69     70 204.5  -1.2  33352  276.03 0865.16
2015 04 09 08 09 59 .04     -38    -69     -9     80     81 209.0  -6.7  33348  275.98 0865.16
2015 04 09 08 09 59 .30     -28    -67     -4     73     74 202.7  -3.1  33348  275.98 0865.16
2015 04 09 08 09 59 .55     -21    -66     -1     70     71 198.3  -1.3  33352  276.03 0865.16
2015 04 09 08 09 59 .80     -26    -73      7     78     79 200.0   5.4  33348  275.98 0865.16
2015 04 09 08 10 00 .04     -27    -81      1     86     87 198.3   0.8  33344  275.91 0865.16
2015 04 09 08 10 00 .30     -24    -81      5     85     86 196.5   3.8  33340  275.85 0865.15
2015 04 09 08 10 00 .55     -20    -72     -9     75     76 196.0  -7.2  33350  276.01 0865.15
2015 04 09 08 10 00 .80     -24    -72     -5     77     78 198.7  -4.1  33344  275.91 0865.15
2015 04 09 08 10 01 .05     -16    -68    -19     70     73 193.4 -15.5  33348  275.96 0865.15
2015 04 09 08 10 01 .30     -23    -89     -6     92     93 194.7  -4.1  33354  276.06 0865.15
2015 04 09 08 10 01 .55     -16    -92      0     94     95 190.2   0.2  33348  275.98 0865.15
2015 04 09 08 10 01 .80     -12    -94      1     95     96 187.6   0.8  33346  275.95 0865.15
2015 04 09 08 10 02 .05     -22    -81     -1     85     86 195.6  -0.7  33352  276.03 0865.15
2015 04 09 08 10 02 .30     -31    -82     -3     88     89 200.9  -2.2  33356  276.11 0865.15
2015 04 09 08 10 02 .55     -28    -86     -2     91     92 198.5  -1.3  33354  276.08 0865.15
2015 04 09 08 10 02 .80     -18    -82      4     84     85 192.5   2.9  33358  276.13 0865.15
2015 04 09 08 10 03 .06     -25    -76      4     81     82 198.7   2.9  33354  276.08 0865.15
2015 04 09 08 10 03 .31     -28    -78     -1     83     84 200.0  -0.7  33354  276.08 0865.15
2015 04 09 08 10 03 .56     -33    -76      1     84     85 203.6   0.8  33352  276.05 0865.15
2015 04 09 08 10 03 .83     -15    -76     -6     78     79 191.6  -4.6  33372  276.36 0865.16
2015 04 09 08 10 04 .06     -20    -82     18     85     87 194.3  12.2  33382  276.54 0865.16
2015 04 09 08 10 04 .32     -18    -82     11     85     86 192.5   8.0  33380  276.51 0865.16
2015 04 09 08 10 04 .57     -15    -75     13     77     79 191.6  10.1  33384  276.58 0865.16
2015 04 09 08 10 04 .82     -29    -76     14     82     84 201.4  10.1  33360  276.18 0865.16
2015 04 09 08 10 05 .07     -22    -87     13     90     92 194.7   8.5  33382  276.53 0865.16
2015 04 09 08 10 05 .32     -43    -92     31    102    107 205.3  17.3  33376  276.43 0865.16
2015 04 09 08 10 05 .57     -45    -72     24     85     89 212.1  16.3  33356  276.11 0865.16
2015 04 09 08 10 05 .82     -19    -80     19     83     86 193.8  13.2  33388  276.63 0865.16
2015 04 09 08 10 06 .07     -32    -67     23     75     79 205.5  17.3  33378  276.48 0865.16
2015 04 09 08 10 06 .32     -33    -72     11     80     81 204.5   8.5  33350  276.01 0865.16
2015 04 09 08 10 06 .57     -47    -75     15     89     91 212.5  10.1  33348  275.96 0865.16
2015 04 09 08 10 06 .82     -40    -84     11     94     95 205.3   6.9  33374  276.41 0865.16
2015 04 09 08 10 07 .08     -39    -69      4     80     81 209.9   3.3  33394  276.73 0865.16
2015 04 09 08 10 07 .33     -10    -76      3     77     78 188.1   2.9  33412  277.02 0865.16
2015 04 09 08 10 07 .57      -7    -52     18     53     57 188.0  19.4  33408  276.96 0865.16
2015 04 09 08 10 07 .82       5    -65     32     66     73 175.5  27.3  33404  276.89 0865.16
2015 04 09 08 10 08 .07      17    -66     23     69     73 165.7  18.4  33396  276.76 0865.16
2015 04 09 08 10 08 .33      32    -70     16     78     80 155.5  11.6  33398  276.81 0865.16
2015 04 09 08 10 08 .58      33    -61     20     70     73 151.0  16.3  33404  276.89 0865.16
2015 04 09 08 10 08 .83      27    -47     19     55     59 150.1  18.9  33404  276.89 0865.16
2015 04 09 08 10 09 .08      19    -51     19     55     59 159.1  18.9  33402  276.88 0865.16
2015 04 09 08 10 09 .33      12    -62     22     64     68 168.4  19.4  33410  276.99 0865.16
2015 04 09 08 10 09 .58     -13    -69     -2     71     72 190.7  -2.2  33342  275.86 0865.16
2015 04 09 08 10 09 .83     -10    -76      3     77     78 188.1   2.9  33336  275.78 0865.16
2015 04 09 08 10 10 .09     -10    -72      4     73     74 188.0   3.8  33338  275.80 0865.16
2015 04 09 08 10 10 .34      -5    -71      3     72     73 184.4   2.9  33340  275.83 0865.17
2015 04 09 08 10 10 .59      -4    -81      4     82     83 183.1   3.3  33342  275.88 0865.17
2015 04 09 08 10 10 .84     -11    -84     -3     85     86 187.6  -2.2  33342  275.86 0865.17
2015 04 09 08 10 11 .09     -22    -96     -2     99    100 193.4  -1.3  33342  275.88 0865.16
2015 04 09 08 10 11 .35     -23   -105     -2    108    109 192.5  -1.3  33348  275.98 0865.16
2015 04 09 08 10 11 .59     -10    -99     -3    100    101 186.2  -2.2  33362  276.20 0865.16
2015 04 09 08 10 11 .84     -23   -104     -5    107    108 192.9  -3.1  33352  276.05 0865.16
2015 04 09 08 10 12 .09     -23    -96     -5     99    100 193.8  -3.2  33350  276.01 0865.16
2015 04 09 08 10 12 .34     -16    -93     -1     95     96 190.2  -0.7  33342  275.88 0865.16
2015 04 09 08 10 12 .59     -16    -99     -2    101    102 189.3  -1.3  33336  275.78 0865.16
2015 04 09 08 10 12 .85     -12    -91      4     92     93 187.6   2.8  33336  275.78 0865.16
2015 04 09 08 10 13 .10      -6    -86     10     87     88 184.0   6.9  33338  275.80 0865.16
2015 04 09 08 10 13 .35      -7    -90      7     91     92 184.5   4.4  33342  275.88 0865.16
2015 04 09 08 10 13 .60     -16    -92      4     94     95 190.2   2.9  33338  275.80 0865.16
2015 04 09 08 10 13 .85     -26    -89      7     93     94 196.5   4.4  33346  275.93 0865.16
2015 04 09 08 10 14 .10     -13    -97    -19     98    100 188.0 -11.3  33342  275.88 0865.16
2015 04 09 08 10 14 .36     -20   -101      0    104    105 191.5  -0.3  33438  277.47 0865.16
2015 04 09 08 10 14 .60     -32    -96      2    102    103 198.5   1.2  33418  277.14 0865.16
2015 04 09 08 10 14 .85     -22   -108     -5    111    112 191.6  -2.6  33366  276.28 0865.16
2015 04 09 08 10 15 .11     -19   -108    -14    110    111 190.2  -7.3  33344  275.91 0865.16
2015 04 09 08 10 15 .36     -24    -95     13     99    100 194.3   8.0  33396  276.78 0865.16
2015 04 09 08 10 15 .61      -7    -84     15     85     87 185.3  10.1  33414  277.06 0865.16
2015 04 09 08 10 15 .85      -7    -84      8     85     86 185.3   5.4  33402  276.88 0865.16
2015 04 09 08 10 16 .11      -7    -84      1     85     86 184.9   1.2  33342  275.86 0865.16
2015 04 09 08 10 16 .36       5    -76      3     77     78 175.6   2.8  33366  276.26 0865.16
2015 04 09 08 10 16 .61      -5    -71      3     72     73 184.4   2.9  33364  276.23 0865.16
2015 04 09 08 10 16 .87      -1    -71      3     72     73 180.9   2.8  33348  275.96 0865.16
2015 04 09 08 10 17 .11      -1    -71      1     72     73 180.9   0.8  33338  275.80 0865.16
2015 04 09 08 10 17 .37       0    -68     -2     69     70 180.0  -2.2  33350  276.01 0865.16
2015 04 09 08 10 17 .62       0    -68     -2     69     70 180.0  -2.2  33350  276.01 0865.16
2015 04 09 08 10 17 .87       0    -65    -10     66     67 180.0  -9.3  33344  275.90 0865.16
2015 04 09 08 10 18 .12       3    -62    -21     63     66 176.4 -23.6  33348  275.96 0865.16
2015 04 09 08 10 18 .37       3    -56    -20     57     61 176.4 -19.7  33350  276.00 0865.16
2015 04 09 08 10 18 .62      -8    -83    -16     84     86 185.8 -11.3  33342  275.86 0865.16
2015 04 09 08 10 18 .87     -32    -73      4     80     81 203.6   3.3  33342  275.88 0865.16
2015 04 09 08 10 19 .12     -25    -76      4     81     82 198.7   2.9  33340  275.83 0865.16
2015 04 09 08 10 19 .37      -7    -67      2     68     69 186.2   1.8  33340  275.85 0865.16
2015 04 09 08 10 19 .63      -5    -67      0     68     69 184.4   0.8  33352  276.03 0865.16
2015 04 09 08 10 19 .88     -18    -65     -1     68     69 196.0  -1.3  33380  276.51 0865.16
2015 04 09 08 10 20 .13      -7    -61     11     62     63 187.1  10.1  33388  276.63 0865.16
2015 04 09 08 10 20 .38     -15    -57     10     60     61 195.1  10.1  33394  276.73 0865.16
2015 04 09 08 10 20 .62     -25    -40     16     48     51 212.5  19.2  33396  276.76 0865.16
2015 04 09 08 10 20 .88     -23    -42     21     49     53 209.0  24.1  33386  276.61 0865.16
2015 04 09 08 10 21 .13     -24    -52     20     58     62 204.5  19.4  33412  277.02 0865.16
2015 04 09 08 10 21 .37     -22    -56     16     61     64 201.8  15.2  33388  276.63 0865.16
2015 04 09 08 10 21 .63     -32    -57     -2     66     67 209.0  -2.2  33398  276.81 0865.16
2015 04 09 08 10 21 .88     -30    -51     16     60     63 210.7  15.2  33408  276.97 0865.16
2015 04 09 08 10 22 .13     -25    -54     26     60     65 205.3  25.1  33420  277.16 0865.16
2015 04 09 08 10 22 .38     -26    -47     18     54     57 209.0  18.4  33416  277.11 0865.16
2015 04 09 08 10 22 .63     -10    -31     26     33     42 198.3  42.7  33414  277.06 0865.16
2015 04 09 08 10 22 .88      -6    -31     30     32     43 191.6  50.0  33418  277.12 0865.16
2015 04 09 08 10 23 .13     -15    -31     35     35     49 207.2  50.1  33416  277.11 0865.16
2015 04 09 08 10 23 .38      -2    -38     27     39     47 184.4  37.6  33422  277.19 0865.16
2015 04 09 08 10 23 .63      -1    -34     24     35     42 182.6  37.6  33406  276.94 0865.16
2015 04 09 08 10 23 .90      10    -50      2     52     53 168.4   2.8  33386  276.61 0865.16
2015 04 09 08 10 24 .14      -3    -53      0     54     55 183.6  -0.3  33404  276.89 0865.16
2015 04 09 08 10 24 .40     -13    -41     10     44     46 198.5  13.2  33402  276.88 0865.16
2015 04 09 08 10 24 .65     -17    -49     17     52     55 199.2  18.9  33418  277.14 0865.16
2015 04 09 08 10 24 .89     -29    -46     28     55     61 212.6  28.2  33416  277.09 0865.16
2015 04 09 08 10 25 .14     -30    -38     22     49     53 217.8  25.1  33416  277.11 0865.16
2015 04 09 08 10 25 .39     -41    -40      2     58     59 225.9   2.9  33392  276.71 0865.16
2015 04 09 08 10 25 .65     -34    -53      3     64     65 212.5   2.9  33384  276.56 0865.16
2015 04 09 08 10 25 .90     -28    -53      7     61     62 208.1   6.9  33390  276.66 0865.16
2015 04 09 08 10 26 .15     -29    -61     13     68     70 205.4  11.1  33402  276.88 0865.16
2015 04 09 08 10 26 .40     -16    -67     13     69     71 193.4  11.1  33408  276.97 0865.16
2015 04 09 08 10 26 .65     -12    -55     16     57     60 192.5  16.3  33416  277.11 0865.16
2015 04 09 08 10 26 .90     -22    -67     19     71     74 198.3  15.3  33414  277.07 0865.16
2015 04 09 08 10 27 .15     -56    -80     19     98    100 215.2  11.0  33388  276.63 0865.16
2015 04 09 08 10 27 .40     -58    -79     18     99    101 216.1  10.6  33372  276.38 0865.16
2015 04 09 08 10 27 .65     -62    -65     20     91     94 223.7  12.6  33366  276.26 0865.16
2015 04 09 08 10 27 .91     -47    -57     14     75     77 219.7  10.6  33378  276.48 0865.16
2015 04 09 08 10 28 .15     -32    -57      4     66     67 209.0   3.8  33394  276.73 0865.16
2015 04 09 08 10 28 .41     -23    -43     22     49     53 208.1  25.1  33404  276.91 0865.16
2015 04 09 08 10 28 .65       1    -29     40     30     50 177.3  58.5  33426  277.26 0865.16
2015 04 09 08 10 28 .91      -2    -21     41     22     46 186.2  69.8  33414  277.07 0865.16
2015 04 09 08 10 29 .16     -15    -31     34     35     48 207.2  51.1  33428  277.31 0865.16
2015 04 09 08 10 29 .41      -7    -38     24     39     45 191.6  35.5  33430  277.34 0865.16
2015 04 09 08 10 29 .66      -7    -45     15     46     49 189.8  18.9  33440  277.51 0865.16
2015 04 09 08 10 29 .91       0    -45     15     46     49 179.1  18.4  33456  277.77 0865.16
2015 04 09 08 10 30 .15      -1    -71      3     72     73 180.9   2.8  33348  275.96 0865.16
2015 04 09 08 10 30 .41      -5    -75     -4     76     77 184.5  -3.1  33346  275.93 0865.16
2015 04 09 08 10 30 .66     -18    -80     -3     83     84 192.9  -2.2  33368  276.31 0865.16
2015 04 09 08 10 30 .92     -21    -66      7     70     71 198.3   5.9  33380  276.51 0865.16
2015 04 09 08 10 31 .17     -21    -84     16     87     89 194.3  10.6  33368  276.31 0865.16
2015 04 09 08 10 31 .42     -22    -77    -11     81     82 196.0  -8.2  33356  276.11 0865.16
2015 04 09 08 10 31 .67     -26    -73     -3     78     79 200.0  -2.6  33354  276.08 0865.16
2015 04 09 08 10 31 .93     -17    -77      5     80     81 192.9   3.8  33378  276.46 0865.16
2015 04 09 08 10 32 .17     -16    -85    -13     87     89 191.1  -8.8  33342  275.88 0865.16
2015 04 09 08 10 32 .42     -17    -88    -16     90     92 191.1 -10.3  33338  275.82 0865.16
2015 04 09 08 10 32 .67     -15    -84    -14     86     88 190.7  -9.3  33336  275.78 0865.16
2015 04 09 08 10 32 .92     -17    -88    -16     90     92 191.1 -10.3  33338  275.82 0865.16
2015 04 09 08 10 33 .17     -20    -86    -25     89     93 193.4 -16.0  33340  275.85 0865.16
2015 04 09 08 10 33 .42     -29    -90    -26     95     99 197.8 -15.5  33340  275.85 0865.16
2015 04 09 08 10 33 .67     -27    -96    -35    100    107 196.0 -19.6  33340  275.83 0865.16
2015 04 09 08 10 33 .92     -33   -101    -33    107    111 198.3 -22.8  33348  275.96 0865.16
2015 04 09 08 10 34 .17     -34   -101    -40    107    114 198.7 -24.8  33342  275.88 0865.16
2015 04 09 08 10 34 .43     -22   -104    -38    107    114 192.0 -19.7  33344  275.91 0865.16
2015 04 09 08 10 34 .68     -22   -104    -29    107    112 192.0 -15.5  33340  275.83 0865.16
2015 04 09 08 10 34 .93     -26    -84    -24     89     93 197.4 -15.5  33342  275.88 0865.16
2015 04 09 08 10 35 .17     -26    -84    -24     89     93 197.4 -15.5  33342  275.88 0865.16
2015 04 09 08 10 35 .43     -24    -83    -22     87     90 196.0 -14.5  33344  275.90 0865.16
2015 04 09 08 10 35 .68     -23    -72    -24     76     79 198.3 -22.8  33348  275.96 0865.16
2015 04 09 08 10 35 .93     -22    -71    -26     75     79 197.8 -23.8  33348  275.98 0865.16
2015 04 09 08 10 36 .18     -18    -67    -24     70     74 195.2 -23.3  33350  276.01 0865.16
2015 04 09 08 10 36 .43     -22    -69    -16     73     75 198.3 -12.4  33346  275.95 0865.16
2015 04 09 08 10 36 .68     -26    -75    -12     80     81 199.2  -8.8  33354  276.06 0865.16
2015 04 09 08 10 36 .93     -48    -78    -26     92     96 211.6 -16.0  33348  275.96 0865.16
2015 04 09 08 10 37 .18     -48    -77    -26     91     94 212.1 -21.2  33348  275.98 0865.16
2015 04 09 08 10 37 .43     -41    -74    -26     85     88 209.0 -22.3  33346  275.93 0865.16
2015 04 09 08 10 37 .68     -39    -70    -24     81     84 208.9 -21.7  33346  275.95 0865.16
2015 04 09 08 10 37 .94     -49    -73    -29     89     94 213.8 -18.1  33346  275.93 0865.16
2015 04 09 08 10 38 .20     -45    -74    -24     87     91 211.2 -15.5  33348  275.98 0865.16
2015 04 09 08 10 38 .44     -41    -73     -3     84     85 209.4  -2.2  33364  276.23 0865.16
2015 04 09 08 10 38 .70     -53    -83      1     99    100 212.6   0.8  33362  276.20 0865.16
2015 04 09 08 10 38 .94     -53    -84    -20    100    102 212.6 -11.3  33354  276.08 0865.16
2015 04 09 08 10 39 .20     -33    -76     -4     84     85 203.6  -3.1  33360  276.18 0865.16
2015 04 09 08 10 39 .45     -43    -76     -1     88     89 209.4  -1.3  33358  276.13 0865.16
2015 04 09 08 10 39 .70     -64    -76     -9    100    101 220.1  -5.2  33352  276.03 0865.16
2015 04 09 08 10 39 .95     -68    -83    -13    108    109 219.6  -7.2  33354  276.06 0865.16
2015 04 09 08 10 40 .20     -64    -86    -16    108    110 217.0  -8.8  33350  276.01 0865.16
2015 04 09 08 10 40 .45     -50    -63    -18     81     84 218.7 -12.9  33348  275.96 0865.16
2015 04 09 08 10 40 .70     -43    -47    -29     64     70 222.3 -31.5  33356  276.11 0865.16
2015 04 09 08 10 40 .95     -64    -65    -12     92     93 224.5  -7.7  33354  276.08 0865.16
2015 04 09 08 10 41 .20     -42    -66    -10     79     80 212.5  -7.7  33362  276.21 0865.16
2015 04 09 08 10 41 .45     -30    -65    -15     72     74 205.4 -12.4  33362  276.21 0865.16
2015 04 09 08 10 41 .70     -34    -62     -9     71     72 208.9  -7.3  33366  276.26 0865.16
2015 04 09 08 10 41 .95     -44    -55     -5     71     72 218.7  -4.1  33366  276.28 0865.16
2015 04 09 08 10 42 .20     -39    -58      3     71     72 214.3   2.8  33378  276.46 0865.16
2015 04 09 08 10 42 .45     -47    -60      2     77     78 217.8   1.8  33384  276.56 0865.16
2015 04 09 08 10 42 .70     -37    -58     -1     69     70 212.5  -1.2  33366  276.28 0865.16
2015 04 09 08 10 42 .96     -41    -63      1     76     77 213.4   0.8  33376  276.43 0865.16
2015 04 09 08 10 43 .21     -55    -65      8     86     87 220.1   5.9  33378  276.48 0865.16
2015 04 09 08 10 43 .45     -51    -69     16     86     88 216.5  11.1  33370  276.33 0865.16
2015 04 09 08 10 43 .72     -44    -71     18     84     87 211.6  12.6  33360  276.18 0865.16
2015 04 09 08 10 43 .96     -51    -47     24     70     75 226.8  19.4  33396  276.78 0865.16
2015 04 09 08 10 44 .21     -53    -73      7     91     92 216.1   4.4  33410  276.99 0865.16
2015 04 09 08 10 44 .46     -55    -65      8     86     87 220.1   5.9  33404  276.89 0865.16
2015 04 09 08 10 44 .72     -57    -60     28     83     88 223.7  19.2  33406  276.92 0865.16
2015 04 09 08 10 44 .97     -62    -59      5     86     87 226.4   3.8  33374  276.41 0865.16
2015 04 09 08 10 45 .23     -78    -69     -4    105    106 228.2  -2.2  33356  276.11 0865.16
2015 04 09 08 10 45 .47     -70    -85     39    111    118 219.6  19.4  33408  276.96 0865.16
2015 04 09 08 10 45 .72     -57    -92     31    109    114 212.1  15.8  33400  276.83 0865.16
2015 04 09 08 10 45 .97     -66    -70     23     97    100 223.2  13.7  33354  276.08 0865.16
2015 04 09 08 10 46 .22     -50    -90     18    104    106 209.0  10.1  33346  275.93 0865.16
2015 04 09 08 10 46 .48     -55    -97     13    112    113 209.9   7.1  33354  276.06 0865.16
2015 04 09 08 10 46 .73     -55    -91     20    107    109 211.2  10.6  33350  276.01 0865.16
2015 04 09 08 10 46 .97     -70    -92     -7    116    117 217.4  -3.7  33350  276.01 0865.16
2015 04 09 08 10 47 .23     -67    -98     -5    119    120 214.3  -2.6  33360  276.18 0865.16
2015 04 09 08 10 47 .47     -56    -86      5    103    104 213.0   2.9  33360  276.16 0865.16
2015 04 09 08 10 47 .73     -58    -67     -9     89     90 221.0  -6.2  33348  275.98 0865.16
2015 04 09 08 10 47 .98     -57    -66    -16     88     90 221.0 -10.3  33344  275.90 0865.16
2015 04 09 08 10 48 .23     -55    -69    -14     89     91 218.7  -9.3  33342  275.88 0865.16
2015 04 09 08 10 48 .48     -54    -74    -11     92     93 216.1  -7.3  33344  275.91 0865.16
2015 04 09 08 10 48 .73     -49    -66    -13     83     85 217.0  -9.3  33340  275.83 0865.16
2015 04 09 08 10 48 .98     -51    -68    -16     86     88 217.0 -10.9  33338  275.82 0865.16
2015 04 09 08 10 49 .23     -45    -63    -10     78     79 216.1  -7.3  33344  275.91 0865.16
2015 04 09 08 10 49 .48     -51    -68    -16     86     88 217.0 -10.9  33338  275.82 0865.16
2015 04 09 08 10 49 .73     -51    -62    -24     81     85 219.6 -17.0  33336  275.78 0865.16
2015 04 09 08 10 49 .98     -51    -68    -16     86     88 217.0 -10.9  33338  275.82 0865.16
2015 04 09 08 10 50 .23     -48    -71    -11     86     87 214.3  -7.7  33348  275.96 0865.16
2015 04 09 08 10 50 .48     -54    -66    -19     86     89 219.6 -12.9  33340  275.83 0865.16
2015 04 09 08 10 50 .73     -54    -66    -19     86     89 219.6 -12.9  33336  275.78 0865.16
2015 04 09 08 10 50 .98     -54    -57    -19     79     82 223.2 -13.4  33340  275.83 0865.16
2015 04 09 08 10 51 .23     -58    -58    -14     83     85 225.0  -9.8  33340  275.85 0865.16
2015 04 09 08 10 51 .48     -66    -59    -11     89     90 228.2  -7.2  33340  275.85 0865.16
2015 04 09 08 10 51 .74     -48    -58    -12     76     78 219.7  -9.3  33342  275.88 0865.16
2015 04 09 08 10 51 .99     -49    -66    -13     83     85 217.0  -9.3  33340  275.83 0865.16
2015 04 09 08 10 52 .25     -50    -53     -9     74     75 223.2  -7.2  33342  275.88 0865.17
2015 04 09 08 10 52 .50     -46    -57    -14     74     76 218.7 -11.3  33344  275.90 0865.17
2015 04 09 08 10 52 .75     -35    -52    -21     63     67 214.3 -18.7  33342  275.86 0865.17
2015 04 09 08 10 53 .00     -44    -43    -22     62     66 226.0 -19.7  33340  275.83 0865.17
2015 04 09 08 10 53 .25     -51    -41    -15     66     68 231.4 -13.4  33344  275.90 0865.17
2015 04 09 08 10 53 .50     -50    -36    -19     62     66 234.0 -17.6  33350  276.00 0865.17
2015 04 09 08 10 53 .75     -48    -36    -21     60     64 233.1 -19.7  33350  276.00 0865.17
2015 04 09 08 10 54 .00     -48    -36    -21     60     64 233.1 -19.7  33350  276.00 0865.17
2015 04 09 08 10 54 .25     -50    -36    -12     62     64 234.0 -11.5  33346  275.93 0865.17
2015 04 09 08 10 54 .50     -50    -36    -12     62     64 234.0 -11.5  33346  275.93 0865.17
2015 04 09 08 10 54 .75     -40    -35     -8     54     55 228.7  -9.3  33344  275.91 0865.17
2015 04 09 08 10 55 .00     -43    -43    -10     61     62 225.0  -9.3  33344  275.90 0865.17
2015 04 09 08 10 55 .25     -48    -43     -8     65     66 227.8  -7.2  33344  275.90 0865.17
2015 04 09 08 10 55 .50     -43    -36     -7     57     58 230.5  -7.3  33346  275.93 0865.17
2015 04 09 08 10 55 .75     -41    -42     -9     59     60 224.1  -9.3  33340  275.85 0865.16
2015 04 09 08 10 56 .03     -44    -43     -8     62     63 226.0  -7.3  33342  275.88 0865.16
2015 04 09 08 10 56 .26     -43    -43     -8     62     63 225.0  -7.3  33340  275.83 0865.16
2015 04 09 08 10 56 .51     -48    -45    -13     66     68 226.9 -11.3  33346  275.93 0865.16
2015 04 09 08 10 56 .76     -24    -45     -2     52     53 208.1  -2.2  33348  275.96 0865.16
2015 04 09 08 10 57 .01     -24    -62     -8     67     68 201.8  -7.2  33354  276.08 0865.16
2015 04 09 08 10 57 .26     -26    -73      2     78     79 200.0   1.8  33374  276.41 0865.16
2015 04 09 08 10 57 .51     -20    -61     22     65     69 198.3  18.9  33372  276.38 0865.16
2015 04 09 08 10 57 .76     -27    -64      3     70     71 202.7   2.8  33374  276.41 0865.16
2015 04 09 08 10 58 .01     -41    -65      2     78     79 212.5   1.8  33372  276.36 0865.16
2015 04 09 08 10 58 .26     -34    -85      7     92     93 201.8   4.9  33370  276.33 0865.16
2015 04 09 08 10 58 .51     -47    -60     -3     77     78 217.8  -2.2  33384  276.58 0865.16
2015 04 09 08 10 58 .77     -40    -72      8     83     84 209.4   5.9  33376  276.43 0865.16
2015 04 09 08 10 59 .02     -40    -87      8     96     97 204.9   4.9  33354  276.06 0865.16
2015 04 09 08 10 59 .28     -47    -91     14    103    105 207.2   8.0  33398  276.81 0865.16
2015 04 09 08 10 59 .52     -45    -66     24     80     84 214.3  16.8  33420  277.17 0865.16
2015 04 09 08 10 59 .78     -42    -76      4     88     89 209.0   2.9  33354  276.06 0865.16
2015 04 09 08 11 00 .02     -36    -65     -1     75     76 208.9  -1.2  33340  275.83 0865.16
2015 04 09 08 11 00 .27     -22    -69     -2     73     74 198.3  -2.2  33338  275.80 0865.16
2015 04 09 08 11 00 .53     -21    -66     -1     70     71 198.3  -1.3  33340  275.83 0865.16
2015 04 09 08 11 00 .78     -30    -54     -5     62     63 209.0  -5.2  33340  275.85 0865.16
2015 04 09 08 11 01 .02     -22    -58     -8     63     64 200.9  -7.2  33344  275.90 0865.16
2015 04 09 08 11 01 .28      -8    -63     -5     64     65 188.0  -5.2  33334  275.75 0865.17
2015 04 09 08 11 01 .53     -20    -62     -3     66     67 198.3  -3.1  33340  275.83 0865.17
2015 04 09 08 11 01 .78     -26    -65     -3     71     72 201.8  -3.1  33340  275.83 0865.17
2015 04 09 08 11 02 .03     -35    -72     13     81     83 206.3   9.5  33342  275.88 0865.17
2015 04 09 08 11 02 .28     -27    -77     13     82     84 200.0   9.0  33342  275.88 0865.17
2015 04 09 08 11 02 .53     -25    -76     11     81     82 198.7   8.0  33340  275.85 0865.17
2015 04 09 08 11 02 .78     -25    -76      4     81     82 198.7   2.9  33336  275.78 0865.17
2015 04 09 08 11 03 .03     -23    -82      4     86     87 196.0   2.9  33348  275.96 0865.17
2015 04 09 08 11 03 .28     -18    -82      4     85     86 192.9   2.8  33348  275.98 0865.17
2015 04 09 08 11 03 .54      -6    -94      9     95     96 183.6   5.9  33368  276.31 0865.17
2015 04 09 08 11 03 .78       2    -84     15     85     87 178.2  10.6  33380  276.51 0865.17
2015 04 09 08 11 04 .03       0    -58     21     59     62 179.1  20.0  33386  276.61 0865.17
2015 04 09 08 11 04 .28      -7    -52     18     53     57 188.0  19.4  33372  276.36 0865.17
2015 04 09 08 11 04 .53      -5    -64     12     65     67 184.5  11.0  33338  275.80 0865.17
2015 04 09 08 11 04 .78      -7    -68      8     69     70 186.2   7.1  33336  275.78 0865.17
2015 04 09 08 11 05 .04      -2    -84      4     85     86 181.8   3.3  33350  276.00 0865.17
2015 04 09 08 11 05 .29     -10    -77     10     78     79 188.1   8.0  33350  276.01 0865.17
2015 04 09 08 11 05 .55     -15    -75     13     77     79 191.6  10.1  33374  276.39 0865.17
2015 04 09 08 11 05 .80      -7    -90     17     91     93 184.5  11.0  33380  276.51 0865.17
2015 04 09 08 11 06 .05     -21    -67     32     71     77 197.8  26.2  33388  276.64 0865.17
2015 04 09 08 11 06 .30      -1    -22     39     23     45 182.7  65.7  33410  277.01 0865.17
2015 04 09 08 11 06 .55      -1    -29     33     30     44 182.7  52.2  33426  277.27 0865.17
2015 04 09 08 11 06 .80     -12    -37     32     40     51 198.7  43.7  33414  277.07 0865.17
2015 04 09 08 11 07 .05     -17    -34     40     39     55 207.2  49.1  33410  277.01 0865.17
2015 04 09 08 11 07 .30     -15    -35     44     39     58 203.6  53.3  33422  277.21 0865.17
2015 04 09 08 11 07 .55     -28    -50     43     58     72 209.9  39.7  33392  276.71 0865.17
2015 04 09 08 11 07 .80     -45    -43     32     63     70 226.8  28.2  33390  276.68 0865.17
2015 04 09 08 11 08 .05     -49    -38     21     63     67 232.2  18.4  33390  276.68 0865.17
2015 04 09 08 11 08 .30     -38    -54     32     67     74 215.2  27.1  33396  276.78 0865.17
2015 04 09 08 11 08 .55     -36    -37     21     52     56 224.2  22.0  33398  276.81 0865.17
2015 04 09 08 11 08 .80     -14    -27     43     31     53 207.2  60.5  33410  277.01 0865.17
2015 04 09 08 11 09 .05     -39    -38     39     55     67 225.9  39.5  33408  276.96 0865.17
2015 04 09 08 11 09 .31     -34    -85      7     92     93 201.8   4.9  33388  276.63 0865.17
2015 04 09 08 11 09 .56     -54    -66      2     86     87 219.2   1.8  33396  276.76 0865.17
2015 04 09 08 11 09 .81     -74    -76     -4    107    108 224.1  -2.2  33360  276.18 0865.17
2015 04 09 08 11 10 .06     -72    -74    -10    104    105 224.5  -5.6  33366  276.28 0865.17
2015 04 09 08 11 10 .31     -29    -46     28     55     61 212.6  28.2  33396  276.78 0865.17
2015 04 09 08 11 10 .56     -31    -55     20     64     68 209.0  17.3  33412  277.02 0865.17
2015 04 09 08 11 10 .81     -17    -67     35     70     78 194.3  27.3  33416  277.11 0865.17
2015 04 09 08 11 11 .06     -46    -65     13     80     82 215.2   9.5  33380  276.49 0865.16
2015 04 09 08 11 11 .31     -50    -74     -2     90     91 213.8  -1.3  33354  276.08 0865.16
2015 04 09 08 11 11 .56     -61    -84     -4    105    106 216.0  -2.6  33364  276.23 0865.16
2015 04 09 08 11 11 .81     -71    -82     -4    109    110 221.0  -2.2  33360  276.16 0865.16
2015 04 09 08 11 12 .06     -70    -86     -6    111    112 219.2  -3.2  33356  276.11 0865.16
2015 04 09 08 11 12 .32     -75    -84     -5    113    114 221.9  -2.6  33366  276.28 0865.16
2015 04 09 08 11 12 .58     -76    -77     -8    109    110 224.7  -4.6  33360  276.18 0865.16
2015 04 09 08 11 12 .82     -66    -66      2     94     95 225.1   1.8  33374  276.41 0865.16
2015 04 09 08 11 13 .08     -51    -62     11     81     82 219.6   8.0  33390  276.66 0865.17
2015 04 09 08 11 13 .32     -57    -57     11     82     83 225.0   8.0  33396  276.76 0865.17
2015 04 09 08 11 13 .58     -50    -53     11     74     75 223.3   9.0  33398  276.81 0865.17
2015 04 09 08 11 13 .83     -41    -44     21     61     65 223.2  18.9  33402  276.86 0865.17
2015 04 09 08 11 14 .08     -32    -58     52     67     84 209.0  41.7  33410  277.01 0865.17
2015 04 09 08 11 14 .33     -42    -64     34     77     84 213.4  24.6  33404  276.91 0865.17
2015 04 09 08 11 14 .58     -84    -61     22    105    108 234.0  12.2  33404  276.89 0865.17
2015 04 09 08 11 14 .83     -67    -62     14     92     94 227.3   9.0  33396  276.78 0865.17
2015 04 09 08 11 15 .08     -44    -33      0     55     56 233.1   0.8  33434  277.39 0865.17
2015 04 09 08 11 15 .33     -39    -21      1     45     46 241.1   1.8  33442  277.54 0865.17
2015 04 09 08 11 15 .58     -43    -46     35     64     72 223.2  31.3  33436  277.42 0865.17
2015 04 09 08 11 15 .83     -51    -37     22     64     68 234.0  19.2  33426  277.26 0865.17
2015 04 09 08 11 16 .08     -76    -36      4     85     86 244.6   2.9  33376  276.43 0865.17
2015 04 09 08 11 16 .33     -53    -43      3     69     70 230.5   2.8  33386  276.61 0865.17
2015 04 09 08 11 16 .59     -59    -48      2     77     78 230.5   1.8  33372  276.36 0865.18
2015 04 09 08 11 16 .84     -44    -55      6     71     72 218.7   4.9  33376  276.44 0865.18
2015 04 09 08 11 17 .08     -47    -47     -3     67     68 225.0  -3.1  33370  276.33 0865.18
2015 04 09 08 11 17 .34     -56    -37      2     68     69 236.7   1.8  33380  276.51 0865.18
2015 04 09 08 11 17 .59     -47    -45      3     66     67 225.9   2.8  33398  276.81 0865.18
2015 04 09 08 11 17 .84     -36    -50     15     62     64 216.1  14.3  33414  277.07 0865.18
2015 04 09 08 11 18 .08     -34    -53      2     64     65 212.5   1.8  33380  276.51 0865.18
2015 04 09 08 11 18 .33     -40    -58      3     71     72 215.2   2.8  33372  276.36 0865.18
2015 04 09 08 11 18 .59     -42    -54      0     69     70 217.8  -0.3  33362  276.20 0865.18
2015 04 09 08 11 18 .84     -39    -58     -3     71     72 214.3  -3.1  33354  276.08 0865.18
2015 04 09 08 11 19 .09     -40    -72      8     83     84 209.0   5.9  33352  276.03 0865.18
2015 04 09 08 11 19 .34     -43    -69     -1     82     83 212.1  -1.3  33348  275.98 0865.17
2015 04 09 08 11 19 .60     -33    -72     -3     80     81 204.5  -2.2  33352  276.05 0865.17
2015 04 09 08 11 19 .85     -48    -58     -1     76     77 219.7  -1.2  33366  276.28 0865.17
2015 04 09 08 11 20 .10     -47    -69     15     84     86 214.7  10.6  33368  276.31 0865.17
2015 04 09 08 11 20 .35     -42    -65     18     78     81 212.6  13.2  33376  276.44 0865.17
2015 04 09 08 11 20 .60     -40    -64     15     76     78 212.5  11.6  33390  276.66 0865.17
2015 04 09 08 11 20 .86     -34    -62     31     71     77 209.0  25.1  33390  276.66 0865.17
2015 04 09 08 11 21 .11     -28    -59     22     66     70 205.4  18.4  33404  276.91 0865.17
2015 04 09 08 11 21 .36     -40    -71     24     82     86 209.4  16.3  33422  277.19 0865.17
2015 04 09 08 11 21 .60     -45    -66     11     80     81 214.3   8.5  33426  277.26 0865.17
2015 04 09 08 11 21 .85     -52    -56     24     77     81 223.2  17.9  33406  276.92 0865.17
2015 04 09 08 11 22 .11     -72    -49      4     88     89 235.4   2.9  33402  276.86 0865.17
2015 04 09 08 11 22 .36     -49    -46     19     68     71 226.8  16.3  33430  277.34 0865.17
2015 04 09 08 11 22 .60     -45    -60     23     76     80 217.0  17.3  33390  276.68 0865.17
2015 04 09 08 11 22 .86     -50    -59     18     78     81 220.5  13.2  33388  276.63 0865.17
2015 04 09 08 11 23 .11     -39    -56     16     69     71 215.2  13.2  33380  276.51 0865.18
2015 04 09 08 11 23 .36     -45    -48     12     66     68 223.2  11.0  33402  276.86 0865.18
2015 04 09 08 11 23 .61     -60    -57     13     84     86 226.4   9.0  33400  276.83 0865.18
2015 04 09 08 11 23 .86     -73    -50      5     89     90 235.8   3.3  33416  277.11 0865.17
2015 04 09 08 11 24 .12     -62    -61      9     88     89 225.4   5.9  33408  276.97 0865.17
2015 04 09 08 11 24 .36     -64    -55      4     85     86 229.6   2.9  33400  276.84 0865.17
2015 04 09 08 11 24 .61     -68    -48     -3     84     85 234.9  -2.2  33392  276.71 0865.17
2015 04 09 08 11 24 .86     -48    -58    -12     76     78 219.7  -9.3  33346  275.93 0865.17
2015 04 09 08 11 25 .11     -47    -55    -20     73     76 220.5 -15.4  33346  275.93 0865.17
2015 04 09 08 11 25 .37     -50    -53     -9     74     75 223.2  -7.2  33342  275.88 0865.17
2015 04 09 08 11 25 .61     -45    -50     -8     68     69 222.3  -7.3  33348  275.98 0865.17
2015 04 09 08 11 25 .86     -34    -51     -5     62     63 214.3  -5.2  33350  276.01 0865.17
2015 04 09 08 11 26 .12     -26    -50     -2     57     58 208.1  -2.2  33354  276.08 0865.17
2015 04 09 08 11 26 .36     -33    -54     -8     64     65 211.6  -7.3  33352  276.05 0865.17
2015 04 09 08 11 26 .63     -26    -58     -2     64     65 204.5  -2.2  33358  276.13 0865.17
2015 04 09 08 11 26 .87     -36    -58    -19     69     72 211.6 -15.5  33344  275.90 0865.17
2015 04 09 08 11 27 .13     -36    -51     -5     63     64 215.2  -5.2  33368  276.31 0865.17
2015 04 09 08 11 27 .38     -31    -49     -2     59     60 212.5  -2.2  33362  276.21 0865.17
2015 04 09 08 11 27 .62     -29    -37      0     48     49 217.8  -0.3  33360  276.18 0865.17
2015 04 09 08 11 27 .88     -23    -50    -12     56     58 204.5 -12.4  33348  275.98 0865.17
2015 04 09 08 11 28 .14     -30    -54      6     62     63 209.0   5.9  33374  276.41 0865.17
2015 04 09 08 11 28 .39     -38    -38      4     54     55 225.0   4.9  33394  276.73 0865.17
2015 04 09 08 11 28 .63     -31    -27      6     42     43 228.7   9.0  33418  277.14 0865.17
2015 04 09 08 11 28 .89     -41    -42     10     59     60 224.1  10.1  33430  277.34 0865.17
2015 04 09 08 11 29 .13     -31    -51     11     60     62 211.6  11.0  33428  277.31 0865.17
2015 04 09 08 11 29 .38     -38    -45     26     60     65 220.5  25.1  33446  277.61 0865.17
2015 04 09 08 11 29 .63     -34    -34     16     49     52 225.0  18.4  33446  277.59 0865.17
2015 04 09 08 11 29 .88     -50    -53     19     73     76 223.3  15.2  33394  276.73 0865.17
2015 04 09 08 11 30 .13     -47    -57     14     75     77 219.7  10.6  33394  276.73 0865.17
2015 04 09 08 11 30 .38     -47    -39     11     62     63 230.4  10.1  33404  276.89 0865.18
2015 04 09 08 11 30 .63     -45    -48     12     66     68 223.2  11.0  33384  276.56 0865.18
2015 04 09 08 11 30 .89     -57    -57     20     82     85 225.0  13.7  33392  276.69 0865.18
2015 04 09 08 11 31 .13     -53    -53     11     75     76 225.0   9.0  33384  276.56 0865.18
2015 04 09 08 11 31 .38     -45    -48     -2     67     68 223.2  -2.2  33372  276.36 0865.18
2015 04 09 08 11 31 .63     -42    -49      9     65     66 220.5   8.0  33360  276.18 0865.18
2015 04 09 08 11 31 .89     -50    -50     -1     71     72 225.0  -1.2  33372  276.38 0865.18
2015 04 09 08 11 32 .14     -50    -36      0     63     64 234.0  -0.3  33382  276.53 0865.18
2015 04 09 08 11 32 .39     -44    -43      3     62     63 226.0   2.9  33378  276.48 0865.18
2015 04 09 08 11 32 .64     -45    -50    -15     68     70 222.3 -12.4  33342  275.86 0865.18
2015 04 09 08 11 32 .89     -45    -50    -15     68     70 222.3 -12.4  33342  275.86 0865.18
2015 04 09 08 11 33 .14     -41    -51    -18     66     69 218.7 -15.5  33340  275.83 0865.18
2015 04 09 08 11 33 .40     -44    -47    -11     65     67 223.2 -10.3  33342  275.88 0865.18
2015 04 09 08 11 33 .65     -34    -51     -5     62     63 214.3  -5.2  33350  276.01 0865.18
2015 04 09 08 11 33 .90     -31    -49     -2     59     60 212.5  -2.2  33354  276.06 0865.18
2015 04 09 08 11 34 .16     -28    -49      2     57     58 209.9   2.8  33362  276.21 0865.18
2015 04 09 08 11 34 .40     -22    -50      1     55     56 203.6   1.8  33370  276.33 0865.18
2015 04 09 08 11 34 .66     -29    -46      7     55     56 212.5   8.0  33378  276.46 0865.18
2015 04 09 08 11 34 .90     -26    -42      2     50     51 212.5   2.9  33378  276.46 0865.18
2015 04 09 08 11 35 .16     -22    -40     16     46     49 209.0  19.4  33378  276.48 0865.18
2015 04 09 08 11 35 .41     -35    -32     18     48     51 227.8  21.0  33382  276.54 0865.18
2015 04 09 08 11 35 .65     -35    -28      0     46     47 231.4  -0.3  33406  276.92 0865.18
2015 04 09 08 11 35 .90     -42    -21     -9     48     49 242.9 -11.3  33390  276.66 0865.18
2015 04 09 08 11 36 .16     -38    -21    -11     44     46 241.1 -14.5  33370  276.33 0865.18
2015 04 09 08 11 36 .41     -37    -23     -5     44     45 238.5  -7.2  33378  276.46 0865.18
2015 04 09 08 11 36 .66     -41    -29     -9     51     52 234.9 -10.3  33356  276.11 0865.18
2015 04 09 08 11 36 .91     -39    -26    -17     48     52 235.8 -19.7  33352  276.03 0865.18
2015 04 09 08 11 37 .16     -39    -17    -12     43     44 246.5 -20.7  33352  276.05 0865.18
2015 04 09 08 11 37 .42     -47    -30     -7     56     57 237.6  -7.3  33364  276.23 0865.18
2015 04 09 08 11 37 .66     -40    -25     -6     48     49 237.6  -7.2  33376  276.43 0865.18
2015 04 09 08 11 37 .91     -52    -29     -5     60     61 240.2  -5.2  33378  276.46 0865.18
2015 04 09 08 11 38 .16     -47    -30     -2     56     57 237.6  -2.2  33380  276.51 0865.18
2015 04 09 08 11 38 .41     -56    -29     -2     64     65 242.9  -2.2  33370  276.33 0865.18
2015 04 09 08 11 38 .66     -56    -29     -9     64     65 242.9  -8.2  33364  276.25 0865.17
2015 04 09 08 11 38 .92     -31    -32     -2     45     46 224.2  -3.1  33416  277.09 0865.17
2015 04 09 08 11 39 .16     -41    -36     24     55     60 228.7  25.1  33424  277.24 0865.17
2015 04 09 08 11 39 .41     -54    -17      2     57     58 251.8   2.9  33414  277.06 0865.17
2015 04 09 08 11 39 .66     -31    -38     17     50     53 219.7  18.9  33422  277.21 0865.17
2015 04 09 08 11 39 .92     -30    -31     16     44     46 224.1  20.0  33420  277.17 0865.17
2015 04 09 08 11 40 .17     -25    -45     27     52     58 209.0  29.3  33416  277.11 0865.17
2015 04 09 08 11 40 .43     -10    -39     20     41     45 195.1  28.2  33422  277.19 0865.17
2015 04 09 08 11 40 .68     -44     -4      5     45     46 263.9   6.9  33434  277.39 0865.17
2015 04 09 08 11 40 .93     -55      0      1     56     57 270.0   1.8  33412  277.04 0865.17
2015 04 09 08 11 41 .19     -42      1     12     43     45 271.7  16.3  33438  277.47 0865.17
2015 04 09 08 11 41 .43     -50     -7      5     51     52 261.2   5.9  33428  277.29 0865.17
2015 04 09 08 11 41 .68     -40      1     11     41     43 272.6  15.3  33428  277.29 0865.17
2015 04 09 08 11 41 .94     -16     -3      5     17     18 258.5  18.9  33436  277.44 0865.17
2015 04 09 08 11 42 .18      -9     -5      9     11     14 241.1  47.9  33450  277.65 0865.17
2015 04 09 08 11 42 .43     -42    -21     -2     48     49 242.9  -3.1  33384  276.58 0865.17
2015 04 09 08 11 42 .69     -41    -28     -2     50     51 235.8  -3.1  33370  276.33 0865.17
2015 04 09 08 11 42 .93     -50    -32     -3     60     61 237.5  -3.1  33376  276.43 0865.17
2015 04 09 08 11 43 .18     -50    -36     -5     63     64 234.0  -5.2  33368  276.31 0865.17
2015 04 09 08 11 43 .43     -47    -32    -10     58     59 235.8 -10.3  33372  276.36 0865.17
2015 04 09 08 11 43 .69     -51    -29    -12     59     61 240.2 -11.5  33374  276.39 0865.17
2015 04 09 08 11 43 .94     -42    -35     -2     55     56 230.4  -2.2  33396  276.78 0865.17
2015 04 09 08 11 44 .19     -23    -26     16     35     38 221.4  25.1  33420  277.17 0865.17
2015 04 09 08 11 44 .44     -19    -23     30     31     43 219.7  50.0  33428  277.31 0865.17
2015 04 09 08 11 44 .69      -3    -27     26     28     38 186.2  52.0  33440  277.51 0865.17
2015 04 09 08 11 44 .94      -9    -11     22     15     26 219.6  64.6  33456  277.77 0865.17
2015 04 09 08 11 45 .19     -12    -13     24     18     30 223.4  58.5  33464  277.89 0865.17
2015 04 09 08 11 45 .43     -22    -27     28     36     45 219.7  41.7  33442  277.54 0865.17
2015 04 09 08 11 45 .69     -30    -24     28     39     48 230.4  38.6  33436  277.44 0865.17
2015 04 09 08 11 45 .94     -26    -34     24     44     50 217.8  31.4  33426  277.27 0865.17
2015 04 09 08 11 46 .19     -10    -30     13     32     34 198.3  21.0  33420  277.16 0865.17
2015 04 09 08 11 46 .44     -20    -44     17     49     52 204.5  19.4  33386  276.61 0865.17
2015 04 09 08 11 46 .70     -27    -58      3     65     66 205.4   2.8  33392  276.71 0865.17
2015 04 09 08 11 46 .94     -46    -57     -2     74     75 218.7  -2.2  33398  276.81 0865.17
2015 04 09 08 11 47 .19     -43    -46     -5     64     65 223.2  -5.2  33404  276.91 0865.17
2015 04 09 08 11 47 .46     -28    -38      0     48     49 217.0  -0.3  33430  277.34 0865.17
2015 04 09 08 11 47 .70     -58    -12     14     60     62 257.6  13.2  33420  277.16 0865.17
2015 04 09 08 11 47 .96     -53    -33     -8     63     64 237.6  -7.2  33382  276.53 0865.17
2015 04 09 08 11 48 .21     -44    -35     -2     57     58 231.4  -2.2  33404  276.91 0865.17
2015 04 09 08 11 48 .45     -43    -41      9     60     61 225.9   9.0  33408  276.97 0865.17
2015 04 09 08 11 48 .71     -31    -41     17     52     55 217.0  18.9  33414  277.07 0865.17
2015 04 09 08 11 48 .96     -43    -34     19     56     60 231.4  18.9  33422  277.19 0865.17
2015 04 09 08 11 49 .21     -40    -37     15     55     58 226.9  15.3  33424  277.24 0865.17
2015 04 09 08 11 49 .46     -45    -43     33     63     71 226.0  30.3  33418  277.14 0865.17
2015 04 09 08 11 49 .71     -37    -44     20     58     62 219.7  19.4  33400  276.83 0865.17
2015 04 09 08 11 49 .96     -41    -42     10     59     60 224.1  10.1  33418  277.14 0865.17
2015 04 09 08 11 50 .21     -25    -40     16     48     51 212.5  19.2  33406  276.94 0865.17
2015 04 09 08 11 50 .46     -26    -31     26     41     48 219.6  35.5  33414  277.06 0865.17
2015 04 09 08 11 50 .71     -37    -16     -6     41     42 246.5  -9.3  33416  277.09 0865.17
2015 04 09 08 11 50 .96     -25    -24     12     35     38 226.7  19.4  33424  277.22 0865.17
2015 04 09 08 11 51 .21     -25    -32     12     41     43 217.8  16.3  33426  277.27 0865.17
2015 04 09 08 11 51 .47     -41    -42      3     59     60 224.1   2.9  33416  277.11 0865.17
2015 04 09 08 11 51 .72     -26    -42      9     50     51 212.5  11.1  33428  277.29 0865.17
2015 04 09 08 11 51 .96     -31    -35     20     48     52 221.4  24.1  33428  277.29 0865.17
2015 04 09 08 11 52 .21     -32    -28     19     43     47 228.7  25.1  33434  277.39 0865.17
2015 04 09 08 11 52 .46     -23    -23     11     33     35 225.0  18.9  33438  277.46 0865.17
2015 04 09 08 11 52 .71     -16    -47     42     50     65 199.2  43.8  33420  277.17 0865.17
2015 04 09 08 11 52 .97     -30    -38     35     49     60 217.8  39.7  33432  277.36 0865.18
2015 04 09 08 11 53 .21     -23    -24     20     34     39 223.4  33.5  33436  277.44 0865.18
2015 04 09 08 11 53 .47     -24    -50     28     56     62 205.4  28.2  33416  277.09 0865.18
2015 04 09 08 11 53 .72     -30    -54      6     62     63 209.0   5.9  33414  277.06 0865.18
2015 04 09 08 11 53 .96     -35    -56      8     67     68 212.5   6.9  33404  276.91 0865.18
2015 04 09 08 11 54 .23     -23    -57      7     62     63 201.9   6.9  33378  276.46 0865.18
2015 04 09 08 11 54 .50     -27    -58      3     65     66 205.4   2.8  33368  276.31 0865.18
2015 04 09 08 11 54 .73     -24    -54      5     60     61 204.5   4.9  33348  275.98 0865.18
2015 04 09 08 11 54 .98     -32    -57      4     66     67 209.0   3.8  33348  275.98 0865.18
2015 04 09 08 11 55 .23     -35    -57      0     68     69 211.6   0.8  33358  276.13 0865.18
2015 04 09 08 11 55 .48     -28    -59      2     66     67 205.5   1.8  33360  276.16 0865.18
2015 04 09 08 11 55 .74     -31    -66     -2     74     75 205.5  -2.2  33358  276.15 0865.18
2015 04 09 08 11 55 .98     -33    -60     16     69     71 208.9  13.2  33372  276.36 0865.18
2015 04 09 08 11 56 .24     -38    -67     18     78     81 209.9  13.2  33382  276.53 0865.18
2015 04 09 08 11 56 .48     -45    -56     19     72     75 218.7  15.3  33384  276.58 0865.18
2015 04 09 08 11 56 .73     -27    -58      3     65     66 205.4   2.8  33378  276.46 0865.17
2015 04 09 08 11 56 .99     -29    -53     15     61     63 209.0  14.3  33382  276.54 0865.17
2015 04 09 08 11 57 .24     -42    -59     22     73     77 216.0  16.8  33386  276.61 0865.17
2015 04 09 08 11 57 .49     -36    -51     19     63     67 215.2  17.3  33382  276.53 0865.17
2015 04 09 08 11 57 .74     -45    -66     11     80     81 214.3   8.5  33390  276.66 0865.17
2015 04 09 08 11 57 .99     -31    -43     18     54     57 216.1  18.4  33396  276.76 0865.17
2015 04 09 08 11 58 .24     -31    -34     -1     47     48 222.3  -2.2  33386  276.61 0865.17
2015 04 09 08 11 58 .49     -23    -50      7     56     57 205.3   8.0  33386  276.61 0865.17
2015 04 09 08 11 58 .74     -17    -65     12     68     70 195.2  10.1  33360  276.16 0865.17
2015 04 09 08 11 59 .00     -36    -57      8     68     69 212.6   6.9  33394  276.74 0865.17
2015 04 09 08 11 59 .24     -43    -46     20     64     68 223.2  17.3  33422  277.19 0865.17
2015 04 09 08 11 59 .49     -43    -42     12     61     63 226.0  11.1  33404  276.91 0865.17
2015 04 09 08 11 59 .74     -28    -60     13     67     69 205.4  11.1  33390  276.68 0865.17
2015 04 09 08 12 00 .00     -27    -57     36     64     73 205.3  31.4  33402  276.88 0865.17
2015 04 09 08 12 00 .25     -33    -76      8     83     84 203.6   5.9  33384  276.58 0865.17
2015 04 09 08 12 00 .49     -29    -62     21     69     73 205.5  17.3  33394  276.73 0865.17
2015 04 09 08 12 00 .74     -14    -70     25     72     77 191.5  19.4  33394  276.73 0865.17
2015 04 09 08 12 00 .99     -24    -60     17     65     68 201.8  15.3  33396  276.78 0865.17
2015 04 09 08 12 01 .25     -40    -35      2     54     55 228.7   2.9  33386  276.61 0865.18
2015 04 09 08 12 01 .50     -44    -48     13     66     68 222.3  11.1  33390  276.66 0865.18
2015 04 09 08 12 01 .75     -41    -62     14     75     77 213.4  11.1  33378  276.48 0865.18
2015 04 09 08 12 02 .01     -42    -67     21     80     83 212.1  14.7  33384  276.56 0865.18
2015 04 09 08 12 02 .26     -61    -70     20     94     97 221.0  12.2  33404  276.91 0865.18
2015 04 09 08 12 02 .67     -54    -65      8     85     86 219.6   5.4  33394  276.73 0865.18
2015 04 09 08 12 02 .76     -46    -54      3     72     73 220.5   2.8  33374  276.41 0865.18
2015 04 09 08 12 03 .01     -19    -54    -11     58     60 199.2 -11.3  33368  276.30 0865.18
2015 04 09 08 12 03 .26     -28    -49      2     57     58 209.9   2.9  33386  276.61 0865.18
2015 04 09 08 12 03 .51     -51    -51     25     73     78 225.0  19.4  33410  277.01 0865.18
2015 04 09 08 12 03 .76     -54    -65      8     85     86 219.6   5.4  33394  276.73 0865.18
2015 04 09 08 12 04 .01     -58    -64     11     87     88 221.9   7.5  33392  276.71 0865.18
2015 04 09 08 12 04 .26     -62    -71     14     95     97 221.0   8.5  33390  276.68 0865.18
2015 04 09 08 12 04 .51     -56    -46      3     73     74 230.4   2.9  33392  276.71 0865.18
2015 04 09 08 12 04 .76     -53    -43      8     69     70 230.5   6.9  33394  276.73 0865.18
2015 04 09 08 12 05 .02     -45    -48     12     66     68 223.2  11.0  33402  276.86 0865.18
2015 04 09 08 12 05 .26     -35    -64     14     74     76 208.9  11.0  33400  276.83 0865.18
2015 04 09 08 12 05 .51     -36    -74     24     83     87 206.3  16.3  33392  276.71 0865.18
2015 04 09 08 12 05 .76     -34    -86     37     93    100 201.8  23.0  33388  276.63 0865.18
2015 04 09 08 12 06 .01     -49    -73     34     89     95 213.8  21.0  33390  276.66 0865.18
2015 04 09 08 12 06 .26     -44    -55     25     71     76 218.7  19.4  33380  276.51 0865.18
2015 04 09 08 12 06 .52     -40    -48     17     63     66 219.6  15.2  33394  276.74 0865.18
2015 04 09 08 12 06 .77     -40    -48     -3     63     64 219.6  -3.1  33394  276.73 0865.18
2015 04 09 08 12 07 .02     -24    -53     11     59     61 204.5  11.1  33396  276.76 0865.18
2015 04 09 08 12 07 .27     -50    -50     -1     71     72 225.0  -1.2  33384  276.58 0865.18
2015 04 09 08 12 07 .52     -56    -46     -6     73     74 230.4  -5.2  33360  276.16 0865.18
2015 04 09 08 12 07 .77     -31    -64      4     72     73 206.3   3.8  33384  276.56 0865.18
2015 04 09 08 12 08 .02     -36    -87      4     95     96 202.3   2.9  33394  276.74 0865.18
2015 04 09 08 12 08 .28     -30    -69     -1     76     77 203.6  -1.2  33372  276.38 0865.18
2015 04 09 08 12 08 .53     -28    -67     -4     73     74 202.7  -3.1  33348  275.98 0865.18
2015 04 09 08 12 08 .78     -27    -58     -3     65     66 205.4  -3.1  33348  275.98 0865.18
2015 04 09 08 12 09 .03     -24    -54     -2     60     61 204.5  -2.2  33356  276.11 0865.18
2015 04 09 08 12 09 .28     -29    -61      4     68     69 205.4   3.8  33356  276.11 0865.18
2015 04 09 08 12 09 .53     -32    -58     -8     67     68 209.0  -7.2  33354  276.08 0865.18
2015 04 09 08 12 09 .79     -41    -63     -6     76     77 213.4  -5.2  33356  276.11 0865.18
2015 04 09 08 12 10 .04     -61    -61     -3     87     88 225.0  -2.6  33358  276.13 0865.18
2015 04 09 08 12 10 .28     -51    -67    -13     85     86 217.4  -8.8  33366  276.28 0865.18
2015 04 09 08 12 10 .54     -45    -48     -8     67     68 223.2  -7.2  33364  276.23 0865.17
2015 04 09 08 12 10 .79     -56    -47     -1     74     75 230.4  -1.2  33370  276.34 0865.17
2015 04 09 08 12 11 .04     -43    -59     14     74     76 216.0  11.0  33388  276.63 0865.17
2015 04 09 08 12 11 .29     -51    -68      4     86     87 217.0   2.9  33370  276.34 0865.17
2015 04 09 08 12 11 .54     -45    -66     -8     81     82 214.3  -6.2  33370  276.33 0865.17
2015 04 09 08 12 11 .79     -57    -77    -12     97     98 216.5  -7.3  33364  276.23 0865.17
2015 04 09 08 12 12 .04     -64    -76     -9    100    101 220.1  -5.2  33370  276.33 0865.17
2015 04 09 08 12 12 .29     -54    -65    -10     85     86 219.6  -7.3  33378  276.46 0865.17
2015 04 09 08 12 12 .54     -27    -57      9     64     65 205.4   8.0  33382  276.53 0865.17
2015 04 09 08 12 12 .80     -50    -60     24     79     83 219.6  17.3  33384  276.56 0865.17
2015 04 09 08 12 13 .04     -49    -59     34     77     84 219.7  24.6  33408  276.96 0865.17
2015 04 09 08 12 13 .29     -57    -47     34     75     82 230.5  25.7  33410  277.01 0865.17
2015 04 09 08 12 13 .54     -74    -41      5     85     86 241.1   3.8  33390  276.66 0865.17
2015 04 09 08 12 13 .80     -60    -55      8     82     83 227.3   5.9  33402  276.88 0865.17
2015 04 09 08 12 14 .04     -70    -62      4     94     95 228.2   2.9  33408  276.96 0865.17
2015 04 09 08 12 14 .29     -67    -48      4     83     84 234.1   2.9  33394  276.74 0865.17
2015 04 09 08 12 14 .55     -76    -81      5    112    113 223.2   2.8  33384  276.56 0865.17
2015 04 09 08 12 14 .80     -99    -54    -14    114    115 241.2  -7.2  33402  276.86 0865.17
2015 04 09 08 12 15 .05     -54    -66      2     86     87 219.2   1.8  33408  276.96 0865.17
2015 04 09 08 12 15 .31     -65    -41     17     78     80 237.5  12.6  33420  277.16 0865.17
2015 04 09 08 12 15 .56     -46    -48     31     67     73 224.2  27.1  33420  277.16 0865.17
2015 04 09 08 12 15 .80     -41    -41     31     59     66 225.0  30.3  33426  277.26 0865.17
2015 04 09 08 12 16 .06     -27    -43     24     51     56 212.5  27.1  33420  277.17 0865.17
2015 04 09 08 12 16 .31     -44    -43     -2     62     63 226.0  -2.2  33408  276.96 0865.17
2015 04 09 08 12 16 .56     -72    -21     -9     76     77 253.2  -7.2  33424  277.24 0865.17
2015 04 09 08 12 16 .81     -63    -34      1     72     73 241.2   0.8  33438  277.47 0865.17
2015 04 09 08 12 17 .06     -41    -45     21     61     65 222.3  19.4  33438  277.47 0865.17
2015 04 09 08 12 17 .31     -26    -34     37     44     57 217.8  43.8  33440  277.49 0865.17
2015 04 09 08 12 17 .56     -21    -21     28     30     41 225.1  49.0  33448  277.64 0865.17
2015 04 09 08 12 17 .81     -24     -8     20     26     32 251.6  43.7  33454  277.74 0865.18
2015 04 09 08 12 18 .06     -26    -16     39     31     49 237.6  56.4  33452  277.70 0865.18
2015 04 09 08 12 18 .31     -34    -40     36     53     64 220.5  37.6  33446  277.59 0865.18
2015 04 09 08 12 18 .56     -27    -26     -2     38     39 226.7  -3.1  33412  277.02 0865.18
2015 04 09 08 12 18 .81     -39    -16     -1     43     44 247.4  -2.2  33398  276.81 0865.18
2015 04 09 08 12 19 .06     -50    -50     -1     71     72 225.0  -1.2  33390  276.68 0865.18
2015 04 09 08 12 19 .32     -48    -31      2     58     59 237.5   2.9  33388  276.64 0865.18
2015 04 09 08 12 19 .57     -28    -35     -2     45     46 218.7  -3.1  33408  276.97 0865.18
2015 04 09 08 12 19 .82     -33    -32     38     47     60 226.0  43.7  33422  277.19 0865.18
2015 04 09 08 12 20 .07     -24    -38     40     46     60 212.5  45.8  33432  277.36 0865.18
2015 04 09 08 12 20 .32     -30    -38     28     49     56 217.8  33.5  33430  277.34 0865.18
2015 04 09 08 12 20 .57     -33    -34     16     48     51 224.2  19.4  33416  277.09 0865.18
2015 04 09 08 12 20 .82     -60    -55      1     82     83 227.3   1.2  33398  276.81 0865.18
2015 04 09 08 12 21 .07     -53    -56     16     78     80 223.2  11.6  33404  276.91 0865.18
2015 04 09 08 12 21 .32     -47    -47      9     67     68 225.0   8.0  33396  276.78 0865.18
2015 04 09 08 12 21 .58     -48    -45     13     67     69 226.9  11.0  33408  276.96 0865.18
2015 04 09 08 12 21 .82     -48    -58      6     76     77 219.7   4.9  33396  276.76 0865.18
2015 04 09 08 12 22 .08     -55    -65      8     86     87 220.1   5.9  33400  276.83 0865.18
2015 04 09 08 12 22 .33     -46    -60      9     76     77 217.8   6.9  33378  276.48 0865.17
2015 04 09 08 12 22 .59     -55    -64     18     85     87 221.0  12.2  33382  276.54 0865.17
2015 04 09 08 12 22 .83     -58    -65     17     88     90 221.9  11.1  33388  276.63 0865.17
2015 04 09 08 12 23 .09     -46    -74     16     88     90 211.6  10.6  33392  276.71 0865.17
2015 04 09 08 12 23 .34     -62    -34     15     71     73 241.1  12.2  33428  277.29 0865.17
2015 04 09 08 12 23 .59     -59    -40     28     72     77 235.8  22.0  33440  277.49 0865.17
2015 04 09 08 12 23 .84     -32    -12     39     35     52 248.3  53.3  33446  277.61 0865.17
2015 04 09 08 12 24 .08     -44    -12     26     46     52 254.1  32.4  33438  277.46 0865.17
2015 04 09 08 12 24 .34     -63     -3    -17     64     67 266.5 -15.4  33352  276.03 0865.17
2015 04 09 08 12 24 .59     -69    -26    -13     74     76 249.2 -10.3  33358  276.15 0865.17
2015 04 09 08 12 24 .84     -42    -25     26     49     55 239.3  30.3  33378  276.46 0865.17
2015 04 09 08 12 25 .09     -52      8     -8     53     54 278.8  -9.3  33362  276.21 0865.17
2015 04 09 08 12 25 .35     -45    -25    -22     52     56 240.2 -28.5  33364  276.23 0865.17
2015 04 09 08 12 25 .59      -7    -32     24     33     40 193.4  39.7  33388  276.63 0865.17
2015 04 09 08 12 25 .84     -83      3     -6     84     85 272.1  -4.6  33360  276.16 0865.17
2015 04 09 08 12 26 .09     -99    -26    -21    103    106 254.9 -11.9  33350  276.01 0865.17
2015 04 09 08 12 26 .34     -76    -31      7     83     84 247.4   5.4  33384  276.58 0865.17
2015 04 09 08 12 26 .59     -88     -6      1     89     90 265.6   1.2  33380  276.51 0865.17
2015 04 09 08 12 26 .84     -78    -24      4     82     83 252.3   3.3  33352  276.03 0865.17
2015 04 09 08 12 27 .09     -79    -36      0     88     89 245.2  -0.3  33352  276.03 0865.17
2015 04 09 08 12 27 .34     -81    -47     -7     94     95 239.8  -4.6  33350  276.00 0865.17
2015 04 09 08 12 27 .59     -86    -47     -3     99    100 241.1  -2.2  33352  276.03 0865.16
2015 04 09 08 12 27 .84     -93    -45     -6    104    105 244.2  -3.7  33348  275.96 0865.16
2015 04 09 08 12 28 .10     -98    -45    -13    109    110 245.2  -7.2  33350  276.01 0865.16
2015 04 09 08 12 28 .34     -84    -53      8    100    101 237.6   4.9  33360  276.18 0865.16
2015 04 09 08 12 28 .60     -88    -52     -6    103    104 239.3  -3.7  33354  276.06 0865.16
2015 04 09 08 12 28 .85     -95    -39      4    103    104 247.4   2.3  33358  276.13 0865.16
2015 04 09 08 12 29 .11     -69    -51     18     86     89 233.6  12.2  33372  276.38 0865.16
2015 04 09 08 12 29 .36     -78    -43      8     90     91 241.1   5.4  33360  276.18 0865.16
2015 04 09 08 12 29 .61     -79    -36     -6     88     89 245.2  -4.1  33356  276.11 0865.16
2015 04 09 08 12 29 .86     -77    -28    -12     83     84 249.6  -8.2  33346  275.93 0865.16
2015 04 09 08 12 30 .11     -76     -5     -5     77     78 265.7  -4.1  33378  276.46 0865.16
2015 04 09 08 12 30 .36     -41    -42     24     59     63 224.1  23.0  33382  276.53 0865.17
2015 04 09 08 12 30 .62     -16    -37     30     41     50 203.6  39.7  33408  276.97 0865.17
2015 04 09 08 12 30 .86     -58    -19     12     62     64 251.8  11.1  33398  276.81 0865.17
2015 04 09 08 12 31 .11     -87    -31     -4     93     94 250.5  -2.6  33354  276.08 0865.17
2015 04 09 08 12 31 .36     -95    -39     -9    103    104 247.4  -5.2  33366  276.28 0865.17
2015 04 09 08 12 31 .61     -86    -47    -12     99    100 241.1  -7.3  33356  276.11 0865.17
2015 04 09 08 12 31 .87    -104    -38    -15    111    113 250.0  -7.7  33356  276.11 0865.17
2015 04 09 08 12 32 .11    -111    -41    -15    119    120 249.6  -7.2  33348  275.98 0865.17
2015 04 09 08 12 32 .37     -84    -21     -3     87     88 255.8  -2.2  33366  276.26 0865.17
2015 04 09 08 12 32 .61     -99    -36     -4    106    107 250.0  -2.2  33342  275.86 0865.17
2015 04 09 08 12 32 .87     -91    -36     -6     98     99 248.3  -3.7  33342  275.86 0865.17
2015 04 09 08 12 33 .11     -87    -36     -9     95     96 247.4  -5.6  33342  275.88 0865.17
2015 04 09 08 12 33 .37     -98    -46    -12    109    110 244.7  -6.7  33340  275.85 0865.17
2015 04 09 08 12 33 .62     -93    -41    -16    102    104 246.0  -9.3  33344  275.91 0865.17
2015 04 09 08 12 33 .87     -91    -36    -13     98     99 248.3  -7.7  33346  275.93 0865.17
2015 04 09 08 12 34 .12     -91    -36    -13     98     99 248.3  -7.7  33346  275.93 0865.17
2015 04 09 08 12 34 .37     -83    -31    -12     89     90 249.2  -7.7  33344  275.90 0865.17
2015 04 09 08 12 34 .62     -86    -36    -16     94     96 247.4  -9.8  33342  275.86 0865.17
2015 04 09 08 12 34 .87     -82    -20    -14     85     87 255.8  -9.8  33342  275.86 0865.18
2015 04 09 08 12 35 .12     -83    -24    -20     87     90 253.6 -12.9  33344  275.90 0865.18
2015 04 09 08 12 35 .37     -88    -25    -24     92     96 254.1 -14.5  33340  275.83 0865.18
2015 04 09 08 12 35 .62     -85    -25    -19     89     92 253.6 -12.4  33342  275.88 0865.18
2015 04 09 08 12 35 .87     -85    -20    -21     88     91 256.7 -13.9  33342  275.86 0865.18
2015 04 09 08 12 36 .13     -84    -16    -18     86     88 259.0 -11.9  33340  275.83 0865.18
2015 04 09 08 12 36 .38     -88    -29    -22     93     96 251.8 -13.4  33342  275.86 0865.18
2015 04 09 08 12 36 .63     -85    -23    -24     89     93 254.9 -15.5  33348  275.96 0865.18
2015 04 09 08 12 36 .88     -85    -25    -19     89     92 253.6 -12.4  33342  275.88 0865.17
2015 04 09 08 12 37 .14     -93    -29    -12     98     99 252.7  -7.3  33342  275.86 0865.17
2015 04 09 08 12 37 .38     -90    -26    -18     94     96 253.6 -11.3  33344  275.91 0865.17
2015 04 09 08 12 37 .64     -96    -32    -13    102    103 251.6  -7.7  33340  275.83 0865.17
2015 04 09 08 12 37 .89     -97    -35    -16    104    106 250.0  -8.8  33340  275.85 0865.17
2015 04 09 08 12 38 .14     -99    -27     -9    103    104 254.5  -5.2  33342  275.88 0865.17
2015 04 09 08 12 38 .39     -98    -32    -20    104    106 251.8 -10.9  33342  275.88 0865.17
2015 04 09 08 12 38 .64     -97    -35    -16    104    106 250.0  -8.8  33340  275.85 0865.17
2015 04 09 08 12 38 .89     -99    -43    -24    109    112 246.5 -12.4  33342  275.88 0865.17
2015 04 09 08 12 39 .14     -97    -46    -20    108    110 244.7 -10.9  33346  275.93 0865.17
2015 04 09 08 12 39 .39     -97    -44    -27    107    111 245.2 -14.5  33344  275.91 0865.17
2015 04 09 08 12 39 .64     -92    -51    -20    106    108 240.7 -10.9  33346  275.93 0865.17
2015 04 09 08 12 39 .89     -80    -46    -21     93     96 239.8 -12.9  33348  275.96 0865.17
2015 04 09 08 12 40 .14     -80    -46    -21     93     96 239.8 -12.9  33344  275.91 0865.17
2015 04 09 08 12 40 .39     -81    -46    -12     94     95 240.2  -7.3  33346  275.93 0865.17
2015 04 09 08 12 40 .64     -77    -42    -17     89     91 241.1 -11.3  33346  275.93 0865.17
2015 04 09 08 12 40 .89     -87    -36     -9     95     96 247.4  -5.6  33342  275.88 0865.17
2015 04 09 08 12 41 .14     -87    -31    -11     93     94 250.5  -7.3  33344  275.91 0865.17
2015 04 09 08 12 41 .39     -83    -25     -6     87     88 252.7  -4.1  33344  275.91 0865.17
2015 04 09 08 12 41 .65     -83    -25     -6     87     88 252.7  -4.1  33344  275.91 0865.17
2015 04 09 08 12 41 .90     -78    -24     -8     82     83 252.3  -5.6  33342  275.88 0865.17
2015 04 09 08 12 42 .15     -80    -33     -8     87     88 247.4  -5.6  33342  275.88 0865.17
2015 04 09 08 12 42 .40     -78    -24     -8     82     83 252.3  -5.6  33342  275.88 0865.17
2015 04 09 08 12 42 .65     -79    -20    -11     82     83 255.8  -7.7  33342  275.86 0865.17
2015 04 09 08 12 42 .91     -78    -24     -8     82     83 252.3  -5.6  33342  275.88 0865.17
2015 04 09 08 12 43 .16     -85    -28     -8     90     91 251.4  -5.6  33342  275.88 0865.18
2015 04 09 08 12 43 .41     -93    -30     -8     98     99 251.8  -5.2  33342  275.88 0865.18
2015 04 09 08 12 43 .66     -93    -30     -8     98     99 251.8  -5.2  33342  275.88 0865.18
2015 04 09 08 12 43 .91     -83    -25     -6     87     88 252.7  -4.1  33344  275.91 0865.18
2015 04 09 08 12 44 .16     -84    -21    -10     87     88 255.8  -6.7  33342  275.88 0865.18
2015 04 09 08 12 44 .41     -87    -26    -11     91     92 253.2  -7.3  33348  275.96 0865.18
2015 04 09 08 12 44 .66     -83    -25     -6     87     88 252.7  -4.1  33344  275.91 0865.18
2015 04 09 08 12 44 .92     -83    -36     -3     91     92 246.0  -2.2  33354  276.08 0865.18
2015 04 09 08 12 45 .16     -80    -32    -10     87     88 248.3  -6.7  33348  275.98 0865.18
2015 04 09 08 12 45 .42     -72    -34    -21     80     83 244.8 -15.0  33352  276.05 0865.18
2015 04 09 08 12 45 .67     -66    -22    -14     70     72 250.9 -11.5  33372  276.36 0865.18
2015 04 09 08 12 45 .91     -78    -30    -13     84     86 248.7  -9.3  33364  276.25 0865.18
2015 04 09 08 12 46 .17     -69    -22    -10     73     74 251.8  -8.2  33354  276.08 0865.18
2015 04 09 08 12 46 .42     -64    -22    -13     68     70 250.9 -11.5  33362  276.21 0865.18
2015 04 09 08 12 46 .67     -69    -22    -14     73     75 252.3 -11.3  33368  276.31 0865.18
2015 04 09 08 12 46 .92     -44    -33      0     55     56 233.1   0.8  33382  276.54 0865.18
2015 04 09 08 12 47 .17     -35    -16     10     39     41 244.7  15.3  33388  276.64 0865.18
2015 04 09 08 12 47 .42     -67     -8     -6     68     69 263.0  -5.2  33372  276.36 0865.18
2015 04 09 08 12 47 .67     -84    -21     -8     87     88 255.4  -5.6  33352  276.03 0865.18
2015 04 09 08 12 47 .92     -84    -17    -19     86     89 258.5 -12.4  33348  275.98 0865.18
2015 04 09 08 12 48 .17     -76    -15    -15     78     80 258.5 -10.9  33344  275.90 0865.18
2015 04 09 08 12 48 .42     -92    -17    -20     94     97 259.4 -12.4  33344  275.91 0865.18
2015 04 09 08 12 48 .67     -83     -7    -18     84     87 264.8 -12.4  33342  275.88 0865.18
2015 04 09 08 12 48 .92     -80     -8    -20     81     84 263.9 -13.9  33344  275.91 0865.18
2015 04 09 08 12 49 .17     -80     -8    -20     81     84 263.9 -13.9  33344  275.91 0865.18
2015 04 09 08 12 49 .42     -81     -8    -11     82     83 263.9  -8.2  33358  276.15 0865.18
2015 04 09 08 12 49 .67     -73      6    -12     74     76 275.2  -9.3  33352  276.03 0865.18
2015 04 09 08 12 49 .93     -98    -19     -9    100    101 258.5  -5.2  33354  276.08 0865.18
2015 04 09 08 12 50 .19     -85    -16    -11     87     88 259.0  -7.3  33350  276.01 0865.18
2015 04 09 08 12 50 .44     -78    -15     -8     80     81 258.5  -6.2  33358  276.15 0865.18
2015 04 09 08 12 50 .69     -66    -17    -12     69     71 255.0 -10.3  33370  276.33 0865.18
2015 04 09 08 12 50 .94     -55     -8      1     56     57 261.2   1.8  33376  276.43 0865.18
2015 04 09 08 12 51 .19     -69    -22    -12     73     75 251.8  -9.3  33368  276.30 0865.18
2015 04 09 08 12 51 .44     -72    -16    -19     74     77 256.7 -14.5  33352  276.05 0865.18
2015 04 09 08 12 51 .69     -78     -5    -17     79     81 265.7 -12.4  33346  275.93 0865.18
2015 04 09 08 12 51 .94     -76     -6    -14     77     79 264.8 -10.9  33344  275.91 0865.18
2015 04 09 08 12 52 .19     -73    -12    -20     75     78 260.3 -15.0  33340  275.85 0865.18
2015 04 09 08 12 52 .44     -75     -6    -23     76     80 264.8 -17.0  33346  275.93 0865.18
2015 04 09 08 12 52 .69     -80     -8    -20     81     84 263.9 -13.9  33344  275.91 0865.18
2015 04 09 08 12 52 .94     -83    -12    -16     84     86 261.2 -10.9  33350  276.01 0865.18
2015 04 09 08 12 53 .19     -88    -20    -12     91     92 257.2  -7.7  33354  276.08 0865.18
2015 04 09 08 12 53 .44     -83    -15    -18     85     88 259.4 -12.4  33352  276.03 0865.18
2015 04 09 08 12 53 .69     -68    -13    -14     70     72 258.6 -11.3  33348  275.96 0865.18
2015 04 09 08 12 53 .95     -66    -17    -12     69     71 255.0 -10.3  33348  275.98 0865.18
2015 04 09 08 12 54 .19     -73    -24    -18     77     80 251.8 -13.4  33348  275.98 0865.18
2015 04 09 08 12 54 .44     -67    -13    -20     69     71 258.5 -20.7  33350  276.01 0865.18
2015 04 09 08 12 54 .69     -57    -15    -16     60     63 254.9 -15.5  33348  275.98 0865.18
2015 04 09 08 12 54 .95     -67    -21     -9     71     72 252.3  -7.3  33348  275.96 0865.18
2015 04 09 08 12 55 .20     -71    -20     -9     74     75 254.1  -7.2  33348  275.98 0865.18
2015 04 09 08 12 55 .45     -70     -9    -10     71     72 262.1  -8.2  33358  276.13 0865.18
2015 04 09 08 12 55 .70     -65      4     -2     66     67 274.3  -2.2  33378  276.46 0865.18
2015 04 09 08 12 55 .95     -72     -1     -9     73     74 269.2  -7.3  33356  276.11 0865.18
2015 04 09 08 12 56 .20     -74    -19    -12     77     79 255.0  -9.3  33360  276.18 0865.18
2015 04 09 08 12 56 .45     -82    -23     -4     86     87 254.1  -3.1  33356  276.11 0865.18
2015 04 09 08 12 56 .70     -73    -24     -3     78     79 251.4  -2.6  33352  276.03 0865.18
2015 04 09 08 12 56 .96     -89    -28     -7     94     95 252.3  -4.6  33356  276.10 0865.18
2015 04 09 08 12 57 .21     -87    -31    -11     93     94 250.5  -7.3  33348  275.96 0865.18
2015 04 09 08 12 57 .46     -87    -31    -11     93     94 250.5  -7.3  33344  275.91 0865.18
2015 04 09 08 12 57 .71     -91    -36    -13     98     99 248.3  -7.7  33346  275.93 0865.18
2015 04 09 08 12 57 .96     -91    -36    -13     98     99 248.3  -7.7  33346  275.93 0865.18
2015 04 09 08 12 58 .21     -82    -36    -18     90     92 246.0 -11.3  33346  275.93 0865.18
2015 04 09 08 12 58 .46     -81    -30    -20     87     90 249.2 -12.9  33348  275.96 0865.18
2015 04 09 08 12 58 .71     -82    -36    -18     90     92 246.0 -11.3  33346  275.93 0865.18
2015 04 09 08 12 58 .96     -79    -26    -25     84     88 251.4 -17.0  33348  275.96 0865.18
2015 04 09 08 12 59 .21     -82    -30    -21     88     91 249.6 -13.9  33344  275.91 0865.18
2015 04 09 08 12 59 .47     -82    -27    -23     87     91 251.4 -15.0  33346  275.93 0865.18
2015 04 09 08 12 59 .72     -82    -36    -18     90     92 246.0 -11.3  33346  275.93 0865.18
2015 04 09 08 12 59 .96     -79    -26    -25     84     88 251.4 -17.0  33344  275.90 0865.18
2015 04 09 08 13 00 .22     -82    -27    -23     87     91 251.4 -15.0  33346  275.93 0865.18
2015 04 09 08 13 00 .47     -79    -26    -25     84     88 251.4 -17.0  33344  275.90 0865.17
2015 04 09 08 13 00 .72     -73    -25    -27     78     83 250.9 -19.7  33346  275.93 0865.17
2015 04 09 08 13 00 .97     -73    -25    -27     78     83 250.9 -19.7  33346  275.93 0865.17
2015 04 09 08 13 01 .22     -82    -27    -23     87     91 251.4 -15.0  33346  275.93 0865.17
2015 04 09 08 13 01 .47     -91    -36    -13     98     99 248.3  -7.7  33346  275.93 0865.17
2015 04 09 08 13 01 .72     -82    -36    -18     90     92 246.0 -11.3  33346  275.93 0865.17
2015 04 09 08 13 01 .97     -85    -28     -9     90     91 251.8  -6.2  33346  275.93 0865.17
2015 04 09 08 13 02 .22     -93    -30     -8     98     99 251.8  -5.2  33348  275.98 0865.17
2015 04 09 08 13 02 .47     -91    -36    -13     98     99 248.3  -7.7  33346  275.93 0865.17
2015 04 09 08 13 02 .72     -91    -36    -13     98     99 248.3  -7.7  33346  275.93 0865.17
2015 04 09 08 13 02 .97     -88    -42    -13     98     99 244.6  -7.7  33346  275.93 0865.17
2015 04 09 08 13 03 .23     -90    -30    -15     95     97 251.4  -9.3  33348  275.96 0865.17
2015 04 09 08 13 03 .47     -82    -24    -21     86     89 253.2 -13.9  33344  275.91 0865.17
2015 04 09 08 13 03 .73     -85    -19    -27     88     93 257.2 -17.0  33346  275.93 0865.17
2015 04 09 08 13 03 .99     -92    -12    -16     93     95 262.1 -10.3  33354  276.08 0865.17
2015 04 09 08 13 04 .24     -79     -8    -20     80     83 263.9 -14.5  33354  276.06 0865.18
2015 04 09 08 13 04 .49     -65     -6    -19     66     69 263.9 -16.6  33348  275.96 0865.18
2015 04 09 08 13 04 .74     -66      0    -21     67     71 270.8 -17.6  33346  275.93 0865.18
2015 04 09 08 13 04 .99     -60      0    -21     61     65 269.2 -19.7  33342  275.88 0865.18
2015 04 09 08 13 05 .24     -57      1    -20     58     62 271.7 -19.7  33344  275.91 0865.18
2015 04 09 08 13 05 .49     -67      5    -12     68     70 274.3 -10.3  33352  276.03 0865.18
2015 04 09 08 13 05 .74     -59      0    -12     60     62 270.9 -11.3  33364  276.23 0865.18
2015 04 09 08 13 05 .99     -63      4     -7     64     65 274.3  -6.2  33358  276.13 0865.17
2015 04 09 08 13 06 .24     -65     16     -8     68     69 284.2  -7.3  33366  276.26 0865.17
2015 04 09 08 13 06 .49     -66      9     -8     67     68 277.9  -7.3  33360  276.16 0865.17
2015 04 09 08 13 06 .75     -72      5     -9     73     74 274.3  -7.3  33360  276.16 0865.17
2015 04 09 08 13 07 .00     -50     12     -6     52     53 284.2  -7.3  33370  276.33 0865.17
2015 04 09 08 13 07 .25     -44      8     -1     45     46 280.6  -2.2  33374  276.41 0865.17
2015 04 09 08 13 07 .49     -57      8     -1     58     59 278.8  -1.3  33372  276.36 0865.17
2015 04 09 08 13 07 .74     -59     13      3     61     62 282.4   2.8  33356  276.10 0865.18
2015 04 09 08 13 07 .99     -59     -2     -2     60     61 267.4  -2.2  33348  275.98 0865.18
2015 04 09 08 13 08 .25     -62    -26     -9     68     69 247.4  -8.2  33364  276.23 0865.18
2015 04 09 08 13 08 .50     -72    -34      0     80     81 244.8  -0.3  33388  276.63 0865.18
2015 04 09 08 13 08 .75     -62    -29     12     69     71 244.7  10.1  33386  276.61 0865.18
2015 04 09 08 13 09 .00     -64    -21     -1     68     69 251.8  -1.2  33386  276.59 0865.18
2015 04 09 08 13 09 .25     -74    -15    -22     76     80 258.5 -16.6  33348  275.98 0865.18
2015 04 09 08 13 09 .50     -80     -4    -22     81     85 267.0 -15.5  33354  276.08 0865.18
2015 04 09 08 13 09 .75     -99     -4    -20    100    102 267.4 -11.3  33356  276.10 0865.18
2015 04 09 08 13 10 .01     -56     -1      0     57     58 268.3   0.8  33378  276.48 0865.18
2015 04 09 08 13 10 .25     -60     12      9     62     63 281.5   9.0  33382  276.53 0865.18
2015 04 09 08 13 10 .50     -81     -8    -11     82     83 263.9  -8.2  33358  276.15 0865.17
2015 04 09 08 13 10 .76     -69     -5    -14     70     72 265.6 -11.3  33360  276.16 0865.17
2015 04 09 08 13 11 .01     -87     12     -4     88     89 278.4  -2.6  33358  276.13 0865.17
2015 04 09 08 13 11 .26     -84      5    -17     85     87 273.5 -11.9  33352  276.03 0865.17
2015 04 09 08 13 11 .52     -73     -1     -2     74     75 269.2  -2.2  33360  276.18 0865.17
2015 04 09 08 13 11 .77     -55     -8      1     56     57 261.2   1.8  33374  276.39 0865.17
2015 04 09 08 13 12 .01     -54      7     -2     55     56 277.9  -2.2  33372  276.38 0865.17
2015 04 09 08 13 12 .26     -83      8     -8     84     85 275.7  -5.6  33358  276.13 0865.17
2015 04 09 08 13 12 .51     -78     -5    -17     79     81 265.7 -12.4  33348  275.98 0865.17
2015 04 09 08 13 12 .77     -63     -3    -17     64     67 266.5 -15.5  33348  275.98 0865.17
2015 04 09 08 13 13 .02     -62      0      0     63     64 270.8   0.8  33364  276.23 0865.17
2015 04 09 08 13 13 .26     -83    -16     -6     85     86 259.0  -4.1  33354  276.06 0865.17
2015 04 09 08 13 13 .52     -74    -12    -12     76     78 260.3  -9.3  33346  275.93 0865.17
2015 04 09 08 13 13 .77     -81      0    -11     82     83 269.6  -8.2  33346  275.93 0865.17
2015 04 09 08 13 14 .02     -94    -17    -14     96     98 259.4  -8.2  33348  275.98 0865.17
2015 04 09 08 13 14 .28     -92    -15    -12     94     95 260.8  -7.3  33366  276.28 0865.17
2015 04 09 08 13 14 .52     -81    -16    -12     83     84 258.5  -8.8  33360  276.18 0865.17
2015 04 09 08 13 14 .77     -84    -15    -10     86     87 259.4  -7.2  33362  276.21 0865.17
2015 04 09 08 13 15 .02     -84     -8    -10     85     86 264.3  -7.3  33362  276.21 0865.17
2015 04 09 08 13 15 .27     -75      1     -1     76     77 270.8  -1.2  33366  276.28 0865.17
2015 04 09 08 13 15 .52     -76     -1     -8     77     78 269.1  -6.2  33362  276.20 0865.17
2015 04 09 08 13 15 .78     -75      5    -11     76     77 274.4  -8.2  33376  276.43 0865.17
2015 04 09 08 13 16 .02     -53      0      2     54     55 270.0   2.9  33380  276.51 0865.18
2015 04 09 08 13 16 .28     -58    -13     -7     60     61 256.7  -7.3  33374  276.39 0865.18
2015 04 09 08 13 16 .52     -44      0      7     45     46 270.0   9.0  33378  276.48 0865.18
2015 04 09 08 13 16 .78     -60     -4    -12     61     63 265.6 -11.3  33358  276.13 0865.18
2015 04 09 08 13 17 .03     -63      0     -8     64     65 269.2  -7.2  33370  276.34 0865.18
2015 04 09 08 13 17 .28     -65      6     -8     66     67 276.1  -7.3  33374  276.41 0865.18
2015 04 09 08 13 17 .53     -54     17    -11     57     59 288.2 -11.5  33388  276.63 0865.18
2015 04 09 08 13 17 .79     -42     13     -4     45     46 287.7  -5.2  33402  276.86 0865.18
2015 04 09 08 13 18 .04     -12      8     17     15     22 302.5  52.2  33416  277.11 0865.18
2015 04 09 08 13 18 .29      -4      0     14      5     14 281.5  81.0  33416  277.11 0865.18
2015 04 09 08 13 18 .54      -1     12      1     13     14 352.0   6.9  33418  277.14 0865.18
2015 04 09 08 13 18 .79       4      4      5      7      8  45.0  43.7  33418  277.12 0865.18
2015 04 09 08 13 19 .04       0      0      6      1      6 189.7  90.0  33418  277.14 0865.18
2015 04 09 08 13 19 .29       0    -11      4     12     13 182.7  18.9  33416  277.11 0865.18
2015 04 09 08 13 19 .56     -42      0    -13     43     46 270.0 -17.6  33378  276.46 0865.18
2015 04 09 08 13 19 .81     -52      4    -24     53     58 274.4 -30.6  33380  276.51 0865.18
2015 04 09 08 13 20 .04     -27    -11     10     30     32 248.3  18.9  33400  276.83 0865.18
2015 04 09 08 13 20 .29     -14     12      1     19     20 309.5   4.9  33394  276.74 0865.18
2015 04 09 08 13 20 .55     -73      7    -24     74     77 276.1 -23.8  33372  276.36 0865.18
2015 04 09 08 13 20 .80     -56     31     -8     65     66 298.9  -7.2  33390  276.68 0865.18
2015 04 09 08 13 21 .05     -35      7      1     36     37 281.5   2.9  33404  276.89 0865.18
2015 04 09 08 13 21 .30     -30     17     12     35     38 300.7  18.9  33402  276.86 0865.18
2015 04 09 08 13 21 .55     -24     -2     -9     25     27 263.9 -19.7  33390  276.66 0865.18
2015 04 09 08 13 21 .80     -49      5     -1     50     51 276.1  -2.2  33368  276.31 0865.18
2015 04 09 08 13 22 .05     -68      5     -5     69     70 274.3  -4.1  33354  276.06 0865.18
2015 04 09 08 13 22 .30     -70      5    -17     71     74 274.3 -13.4  33348  275.98 0865.18
2015 04 09 08 13 22 .55     -69      6    -14     70     72 275.2 -11.3  33348  275.96 0865.18
2015 04 09 08 13 22 .80     -69      6    -14     70     72 275.2 -11.3  33348  275.96 0865.18
2015 04 09 08 13 23 .05     -69      6    -14     70     72 275.2 -11.3  33348  275.96 0865.18
2015 04 09 08 13 23 .30     -80      4    -11     81     82 273.5  -8.2  33348  275.98 0865.18
2015 04 09 08 13 23 .58     -89      1     -4     90     91 271.3  -3.1  33350  276.01 0865.18
2015 04 09 08 13 23 .80     -82      8    -14     83     85 275.7  -9.8  33346  275.95 0865.18
2015 04 09 08 13 24 .05     -69      6    -14     70     72 275.2 -11.3  33348  275.96 0865.18
2015 04 09 08 13 24 .30     -69      6    -14     70     72 275.2 -11.3  33348  275.96 0865.18
2015 04 09 08 13 24 .55     -69      1    -14     70     72 270.9 -11.3  33348  275.96 0865.18
2015 04 09 08 13 24 .82     -80      0    -11     81     82 270.0  -8.2  33348  275.98 0865.18
2015 04 09 08 13 25 .06     -70      5    -17     71     74 274.3 -13.4  33348  275.98 0865.18
2015 04 09 08 13 25 .32     -63      6    -17     64     67 276.1 -15.4  33352  276.03 0865.18
2015 04 09 08 13 25 .57     -71      5    -19     72     75 274.3 -15.4  33358  276.13 0865.18
2015 04 09 08 13 25 .82     -71      6    -13     72     74 275.2 -10.3  33370  276.34 0865.18
2015 04 09 08 13 26 .07     -64      4      3     65     66 274.4   2.9  33380  276.49 0865.18
2015 04 09 08 13 26 .32     -68     -7     -5     69     70 263.9  -4.1  33372  276.36 0865.18
2015 04 09 08 13 26 .57     -78     13     -2     80     81 279.7  -1.8  33356  276.10 0865.18
2015 04 09 08 13 26 .82     -72      5     -9     73     74 274.3  -7.3  33352  276.05 0865.18
2015 04 09 08 13 27 .07     -81      0    -11     82     83 269.6  -8.2  33352  276.03 0865.18
2015 04 09 08 13 27 .32     -80      4    -11     81     82 273.5  -8.2  33348  275.98 0865.18
2015 04 09 08 13 27 .57     -78      1    -10     79     80 270.9  -7.7  33348  275.96 0865.18
2015 04 09 08 13 27 .82     -82     -4    -14     83     85 267.0  -9.8  33348  275.96 0865.18
2015 04 09 08 13 28 .07     -81      0    -11     82     83 269.6  -8.2  33346  275.93 0865.18
2015 04 09 08 13 28 .33     -82     -4    -14     83     85 267.0  -9.8  33354  276.06 0865.18
2015 04 09 08 13 28 .57     -75      1     -4     76     77 270.8  -3.2  33352  276.05 0865.18
2015 04 09 08 13 28 .82     -76      0     -8     77     78 270.0  -6.2  33348  275.98 0865.18
2015 04 09 08 13 29 .07     -73      0     -9     74     75 270.0  -7.3  33348  275.96 0865.18
2015 04 09 08 13 29 .32     -67      5    -12     68     70 274.3 -10.3  33346  275.95 0865.18
2015 04 09 08 13 29 .58     -75      5    -13     76     78 274.3  -9.8  33348  275.96 0865.17
2015 04 09 08 13 29 .83     -76     -5     -5     77     78 265.7  -4.1  33356  276.11 0865.17
2015 04 09 08 13 30 .08     -73      1    -12     74     76 270.8  -9.3  33352  276.03 0865.17
2015 04 09 08 13 30 .32     -63      4     -8     64     65 274.4  -7.2  33348  275.98 0865.17
2015 04 09 08 13 30 .58     -70      1     -9     71     72 270.9  -7.2  33348  275.98 0865.17
2015 04 09 08 13 30 .83     -65     -4     -8     66     67 266.5  -7.3  33348  275.96 0865.17
2015 04 09 08 13 31 .08     -71      1     -9     72     73 270.9  -7.2  33346  275.93 0865.17
2015 04 09 08 13 31 .33     -67     13     -5     69     70 281.4  -4.1  33354  276.06 0865.17
2015 04 09 08 13 31 .59     -66      9      3     67     68 277.9   2.8  33372  276.36 0865.17
2015 04 09 08 13 31 .85     -68     -7      0     69     70 263.9  -0.3  33382  276.53 0865.17
2015 04 09 08 13 32 .10     -72    -14     -2     74     75 258.5  -2.2  33384  276.58 0865.17
2015 04 09 08 13 32 .34     -78    -15     -8     80     81 258.5  -6.2  33370  276.33 0865.17
2015 04 09 08 13 32 .60     -41     -4     10     42     44 263.9  14.3  33382  276.53 0865.17
2015 04 09 08 13 32 .84     -66     -5      3     67     68 265.6   2.8  33366  276.26 0865.17
2015 04 09 08 13 33 .09     -91      8    -16     92     94 275.2 -10.3  33352  276.03 0865.16
2015 04 09 08 13 33 .34     -88      8    -11     89     90 275.2  -7.3  33352  276.03 0865.16
2015 04 09 08 13 33 .59     -91     17    -16     93     95 280.6 -10.3  33352  276.03 0865.16
2015 04 09 08 13 33 .85     -94     19    -13     97     98 281.9  -7.7  33354  276.08 0865.16
2015 04 09 08 13 34 .10     -89     11    -14     90     92 277.5  -9.3  33360  276.16 0865.16
2015 04 09 08 13 34 .35     -81      0    -15     82     84 270.0 -10.9  33362  276.21 0865.16
2015 04 09 08 13 34 .60     -73     20     -4     76     77 285.9  -3.1  33376  276.43 0865.16
2015 04 09 08 13 34 .85     -79     16    -10     81     82 281.5  -7.7  33384  276.56 0865.17
2015 04 09 08 13 35 .10     -48     14     17     51     54 286.8  18.9  33388  276.64 0865.17
2015 04 09 08 13 35 .35     -60     -8     -3     61     62 262.0  -3.1  33376  276.43 0865.17
2015 04 09 08 13 35 .60     -75      1     -4     76     77 270.8  -3.2  33356  276.11 0865.17
2015 04 09 08 13 35 .85     -79    -16    -19     81     84 258.1 -13.4  33362  276.21 0865.17
2015 04 09 08 13 36 .10     -79     -6     -3     80     81 265.7  -2.6  33370  276.33 0865.17
2015 04 09 08 13 36 .35     -66    -22     -8     70     71 250.9  -7.2  33364  276.23 0865.17
2015 04 09 08 13 36 .60     -34      4    -13     35     37 277.9 -23.3  33370  276.33 0865.17
2015 04 09 08 13 36 .85     -66      0     -2     67     68 270.8  -2.2  33376  276.44 0865.17
2015 04 09 08 13 37 .10     -69     13     -5     71     72 280.6  -4.1  33380  276.51 0865.17
2015 04 09 08 13 37 .36     -79     -7    -19     80     83 264.3 -13.4  33382  276.54 0865.17
2015 04 09 08 13 37 .60     -78     -5    -17     79     81 265.7 -12.4  33380  276.49 0865.17
2015 04 09 08 13 37 .85     -73     -3    -12     74     76 267.4  -9.3  33370  276.33 0865.17
2015 04 09 08 13 38 .11     -68    -12    -23     70     74 259.4 -18.7  33352  276.03 0865.17
2015 04 09 08 13 38 .35     -69      0    -14     70     72 270.8 -11.3  33366  276.26 0865.17
2015 04 09 08 13 38 .62     -67     -5    -20     68     70 265.6 -21.7  33368  276.31 0865.17
2015 04 09 08 13 38 .87     -52     17      2     55     56 288.6   2.9  33398  276.81 0865.17
2015 04 09 08 13 39 .12     -70      7    -15     71     73 276.1 -12.4  33372  276.36 0865.17
2015 04 09 08 13 39 .37     -61      0    -22     62     66 269.2 -19.6  33364  276.25 0865.17
2015 04 09 08 13 39 .62     -53     -4    -20     54     57 265.7 -24.4  33350  276.01 0865.17
2015 04 09 08 13 39 .86     -52    -13    -20     54     57 255.8 -24.4  33350  276.01 0865.17
2015 04 09 08 13 40 .12     -56     -7    -23     57     61 262.1 -27.4  33348  275.98 0865.17
2015 04 09 08 13 40 .37     -58     -3    -21     59     63 266.5 -19.6  33350  276.01 0865.17
2015 04 09 08 13 40 .62     -52    -12     -8     54     55 256.7  -9.3  33350  276.00 0865.17
2015 04 09 08 13 40 .87     -57     -7    -16     58     61 263.0 -15.5  33356  276.10 0865.17
2015 04 09 08 13 41 .12     -59     -8     -9     60     61 262.0  -9.3  33354  276.06 0865.17
2015 04 09 08 13 41 .37     -55      0     -4     56     57 270.0  -4.1  33354  276.06 0865.17
2015 04 09 08 13 41 .62     -61    -12    -10     63     64 258.5  -9.3  33352  276.03 0865.17
2015 04 09 08 13 41 .88     -57     -4    -13     58     60 265.6 -13.4  33360  276.16 0865.17
2015 04 09 08 13 42 .13     -60      0     -3     61     62 269.2  -3.1  33372  276.38 0865.17
2015 04 09 08 13 42 .37     -59      4     -2     60     61 274.4  -2.2  33358  276.13 0865.17
2015 04 09 08 13 42 .62     -50     -2     -6     51     52 267.4  -7.3  33348  275.98 0865.17
2015 04 09 08 13 42 .87     -54     -7     -9     55     56 262.1 -10.3  33348  275.98 0865.17
2015 04 09 08 13 43 .12     -62     -7    -13     63     65 263.0 -12.4  33354  276.06 0865.17
2015 04 09 08 13 43 .37     -70     -1    -17     71     74 269.2 -13.4  33354  276.08 0865.17
2015 04 09 08 13 43 .63     -73     -5    -20     74     77 265.7 -15.5  33356  276.11 0865.17
2015 04 09 08 13 43 .88     -65     -9    -18     66     69 262.1 -15.5  33356  276.11 0865.17
2015 04 09 08 13 44 .13     -61     -8    -22     62     66 262.1 -19.6  33358  276.15 0865.17
2015 04 09 08 13 44 .38     -69     -4    -14     70     72 266.5 -11.3  33350  276.01 0865.17
2015 04 09 08 13 44 .63     -62     -7    -13     63     65 263.0 -12.4  33354  276.06 0865.17
2015 04 09 08 13 44 .88     -65     -8    -18     66     68 263.0 -20.7  33348  275.98 0865.17
2015 04 09 08 13 45 .13     -66      9    -21     67     71 277.9 -17.6  33352  276.03 0865.17
2015 04 09 08 13 45 .38     -64      4    -24     65     69 274.3 -24.4  33354  276.06 0865.17
2015 04 09 08 13 45 .64     -65      4    -18     66     69 274.3 -15.5  33348  275.96 0865.17
2015 04 09 08 13 45 .89     -62      1    -17     63     66 271.7 -15.4  33346  275.93 0865.17
2015 04 09 08 13 46 .14     -58      8    -18     59     62 277.9 -17.6  33348  275.96 0865.17
2015 04 09 08 13 46 .39     -65      1     -8     66     67 270.9  -7.3  33348  275.96 0865.17
2015 04 09 08 13 46 .64     -65      6     -8     66     67 276.1  -7.3  33348  275.96 0865.17
2015 04 09 08 13 46 .89     -61      4    -13     62     64 274.3 -12.4  33344  275.91 0865.17
2015 04 09 08 13 47 .14     -67      5    -12     68     70 274.3 -10.3  33346  275.95 0865.17
2015 04 09 08 13 47 .39     -65      1     -8     66     67 270.9  -7.3  33348  275.96 0865.17
2015 04 09 08 13 47 .65     -69      6    -14     70     72 275.2 -11.3  33348  275.96 0865.17
2015 04 09 08 13 47 .90     -65     16     -8     68     69 284.2  -7.3  33348  275.96 0865.17
2015 04 09 08 13 48 .15     -61     20    -14     65     67 288.6 -12.4  33344  275.90 0865.17
2015 04 09 08 13 48 .40     -65     22    -19     69     72 289.1 -15.4  33346  275.93 0865.17
2015 04 09 08 13 48 .65     -59     16    -12     62     64 285.1 -11.3  33346  275.93 0865.17
2015 04 09 08 13 48 .90     -60     13    -20     62     65 282.4 -23.8  33344  275.90 0865.17
2015 04 09 08 13 49 .15     -58      2    -17     59     61 272.6 -20.7  33346  275.93 0865.17
2015 04 09 08 13 49 .40     -50      1    -17     51     54 271.7 -18.7  33346  275.93 0865.17
2015 04 09 08 13 49 .65     -52      0    -19     53     57 270.0 -19.7  33346  275.95 0865.17
2015 04 09 08 13 49 .90     -58     -4    -18     59     61 265.7 -21.7  33346  275.93 0865.17
2015 04 09 08 13 50 .15     -52      0    -19     53     57 270.0 -19.7  33346  275.95 0865.17
2015 04 09 08 13 50 .40     -59      4    -19     60     62 274.4 -22.8  33346  275.95 0865.17
2015 04 09 08 13 50 .65     -50      1    -17     51     54 271.7 -18.7  33346  275.93 0865.17
2015 04 09 08 13 50 .90     -54      4    -11     55     57 274.4 -11.3  33348  275.98 0865.17
2015 04 09 08 13 51 .15     -52      8     -8     53     54 279.7  -9.3  33346  275.95 0865.17
2015 04 09 08 13 51 .40     -45     13     -8     47     48 286.8 -10.3  33350  276.01 0865.17
2015 04 09 08 13 51 .66     -50     12     -6     52     53 284.2  -7.3  33352  276.03 0865.17
2015 04 09 08 13 51 .90     -46     13     -1     48     49 285.9  -2.2  33354  276.08 0865.17
2015 04 09 08 13 52 .16     -41     14     -5     44     45 288.6  -7.2  33354  276.06 0865.17
2015 04 09 08 13 52 .41     -36      3     -4     37     38 276.1  -7.3  33348  275.98 0865.17
2015 04 09 08 13 52 .67     -33      6     -4     34     35 281.5  -7.3  33350  276.00 0865.17
2015 04 09 08 13 52 .92     -34      9     -4     36     37 285.1  -7.3  33356  276.10 0865.17
2015 04 09 08 13 53 .17     -37     16     -1     41     42 293.5  -2.2  33376  276.43 0865.17
2015 04 09 08 13 53 .42     -34     23      1     42     43 304.2   1.8  33384  276.58 0865.17
2015 04 09 08 13 53 .67     -30     17     -1     35     36 300.7  -2.2  33392  276.71 0865.17
2015 04 09 08 13 53 .92     -30     15      0     34     35 297.1   0.8  33408  276.96 0865.17
2015 04 09 08 13 54 .17     -27     12      9     30     32 295.2  17.3  33408  276.96 0865.17
2015 04 09 08 13 54 .42     -18     11      5     22     23 302.4  13.2  33408  276.96 0865.17
2015 04 09 08 13 54 .67     -31      7     -1     32     33 283.3  -2.2  33392  276.71 0865.17
2015 04 09 08 13 54 .93     -23     15      1     28     29 304.2   2.9  33398  276.79 0865.17
2015 04 09 08 13 55 .18     -15     25      9     30     32 329.3  17.3  33398  276.81 0865.17
2015 04 09 08 13 55 .43     -15     19      8     25     27 322.2  19.2  33410  277.01 0865.17
2015 04 09 08 13 55 .68      -8      7      1     11     12 313.1   6.9  33418  277.14 0865.17
2015 04 09 08 13 55 .93      -6     13     12     15     19 334.6  43.7  33436  277.42 0865.17
2015 04 09 08 13 56 .18     -19     12     24     23     33 302.4  48.2  33448  277.64 0865.17
2015 04 09 08 13 56 .43     -12     11     19     17     25 313.3  52.2  33472  278.04 0865.17
2015 04 09 08 13 56 .68     -15     12      9     20     21 309.5  25.1  33460  277.82 0865.17
2015 04 09 08 13 56 .93      -9      0      0     10     11 270.0  -2.2  33446  277.61 0865.17
2015 04 09 08 13 57 .18     -12     -8      7     15     16 234.0  27.2  33454  277.74 0865.17
2015 04 09 08 13 57 .43      -5      1     13      6     14 288.4  77.1  33466  277.92 0865.17
2015 04 09 08 13 57 .68      -2      0     16      3     16 251.6  90.0  33470  277.99 0865.18
2015 04 09 08 13 57 .93      -6      4      2      8      9 302.4  18.9  33462  277.87 0865.18
2015 04 09 08 13 58 .18      -4      0     10      5     11 270.0  72.9  33446  277.61 0865.18
2015 04 09 08 13 58 .43      -9      2      9     10     13 285.1  52.0  33458  277.80 0865.18
2015 04 09 08 13 58 .68     -13      8      5     16     18 302.5  19.4  33470  278.00 0865.18
2015 04 09 08 13 58 .93     -12      1      4     13     14 277.9  19.2  33466  277.92 0865.18
2015 04 09 08 13 59 .18      -5     -4     13      7     14 230.5  64.7  33474  278.07 0865.18
2015 04 09 08 13 59 .45       0      0     26      1     26  90.0  90.0  33496  278.42 0865.18
2015 04 09 08 13 59 .69     -15     12     29     20     35 309.5  64.6  33482  278.20 0865.18
2015 04 09 08 13 59 .94     -31     19     16     37     40 302.4  25.1  33476  278.09 0865.18
2015 04 09 08 14 00 .19     -25      5     26     26     36 283.3  50.1  33456  277.75 0865.18
2015 04 09 08 14 00 .44     -28      4     10     29     31 279.7  19.4  33444  277.57 0865.18
2015 04 09 08 14 00 .70     -59     19     -2     63     64 288.2  -2.2  33418  277.14 0865.18
2015 04 09 08 14 00 .95     -52     22     -2     57     58 293.5  -2.2  33398  276.79 0865.18
2015 04 09 08 14 01 .20     -56     31     -8     65     66 298.9  -7.2  33384  276.58 0865.18
2015 04 09 08 14 01 .45     -61     30    -11     69     70 296.2  -9.3  33370  276.33 0865.18
2015 04 09 08 14 01 .70     -67     23     -3     71     72 289.1  -3.1  33372  276.38 0865.18
2015 04 09 08 14 01 .95     -57     22     -2     62     63 291.7  -2.2  33376  276.44 0865.18
2015 04 09 08 14 02 .20     -74     16     -4     76     77 282.4  -3.2  33376  276.44 0865.17
2015 04 09 08 14 02 .45     -67     13     -5     69     70 281.4  -4.1  33372  276.36 0865.17
2015 04 09 08 14 02 .70     -65     17     -2     68     69 285.1  -2.2  33370  276.33 0865.17
2015 04 09 08 14 02 .95     -70     17     -9     73     74 284.2  -7.2  33372  276.38 0865.17
2015 04 09 08 14 03 .20     -77     20     -3     80     81 285.1  -2.2  33396  276.76 0865.17
2015 04 09 08 14 03 .45     -61      8     -1     62     63 277.9  -1.3  33390  276.68 0865.17
2015 04 09 08 14 03 .70     -49     13     -2     51     52 285.1  -2.2  33380  276.51 0865.17
2015 04 09 08 14 03 .96     -54     11    -11     56     58 281.5 -11.5  33384  276.58 0865.17
2015 04 09 08 14 04 .20     -52      8     -8     53     54 278.8  -9.3  33390  276.66 0865.17
2015 04 09 08 14 04 .46     -47      0    -12     48     50 270.8 -14.5  33394  276.73 0865.17
2015 04 09 08 14 04 .71     -47      7      1     48     49 278.8   1.8  33422  277.19 0865.17
2015 04 09 08 14 04 .96     -41      8     13     42     44 281.5  17.3  33434  277.39 0865.17
2015 04 09 08 14 05 .21     -29      8     -1     31     32 286.8  -2.2  33434  277.41 0865.17
2015 04 09 08 14 05 .46     -31     11      2     34     35 290.0   4.9  33434  277.41 0865.17
2015 04 09 08 14 05 .71     -36     11      6     38     39 288.2   9.0  33424  277.24 0865.17
2015 04 09 08 14 05 .96     -51      3      5     52     53 274.4   5.9  33402  276.88 0865.17
2015 04 09 08 14 06 .21     -63      0     -8     64     65 269.2  -7.2  33388  276.64 0865.17
2015 04 09 08 14 06 .47     -57      7     -7     58     59 277.9  -7.3  33396  276.78 0865.17
2015 04 09 08 14 06 .72     -62      0     -5     63     64 270.8  -5.2  33392  276.71 0865.17
2015 04 09 08 14 06 .97     -52      0     -2     53     54 270.8  -2.2  33384  276.58 0865.17
2015 04 09 08 14 07 .22     -51      3     -6     52     53 274.4  -7.3  33382  276.53 0865.17
2015 04 09 08 14 07 .47     -47     -3      1     48     49 265.6   1.8  33388  276.63 0865.17
2015 04 09 08 14 07 .72     -53      1     -3     54     55 271.7  -3.1  33376  276.43 0865.18
2015 04 09 08 14 07 .97     -56      0    -14     57     59 270.8 -14.5  33378  276.46 0865.18
2015 04 09 08 14 08 .23     -53      0    -12     54     56 270.0 -12.4  33412  277.04 0865.18
2015 04 09 08 14 08 .48     -47    -16    -10     50     51 250.9 -11.3  33428  277.31 0865.18
2015 04 09 08 14 08 .73     -32     -7      2     33     34 256.7   4.9  33456  277.77 0865.18
2015 04 09 08 14 08 .98     -38      5     13     39     42 277.9  19.2  33466  277.92 0865.18
2015 04 09 08 14 09 .22     -49      3     11     50     52 274.4  13.2  33390  276.68 0865.18
2015 04 09 08 14 09 .48     -52     11    -12     54     56 282.4 -12.4  33354  276.08 0865.18
2015 04 09 08 14 09 .72     -62     21    -14     66     68 288.6 -12.4  33354  276.06 0865.18
2015 04 09 08 14 09 .98     -77     20     -8     80     81 285.1  -6.2  33356  276.10 0865.18
2015 04 09 08 14 10 .23     -70     23     -9     74     75 288.2  -7.2  33352  276.03 0865.18
2015 04 09 08 14 10 .48     -72     27    -10     78     79 290.8  -7.7  33350  276.01 0865.18
2015 04 09 08 14 10 .73     -73     24    -20     78     81 288.6 -15.0  33350  276.01 0865.18
2015 04 09 08 14 10 .98     -70     14    -17     72     75 281.4 -13.4  33354  276.08 0865.18
2015 04 09 08 14 11 .23     -66     19    -19     69     72 286.8 -15.5  33356  276.11 0865.18
2015 04 09 08 14 11 .48     -72     24    -12     77     79 288.6  -9.3  33354  276.08 0865.18
2015 04 09 08 14 11 .73     -79     16    -10     81     82 281.5  -7.7  33356  276.11 0865.18
2015 04 09 08 14 11 .98     -80     20    -10     83     84 284.2  -7.3  33358  276.13 0865.18
2015 04 09 08 14 12 .24     -75     25     -5     80     81 288.6  -4.1  33374  276.41 0865.18
2015 04 09 08 14 12 .49     -56     23     -1     61     62 292.6  -1.3  33402  276.86 0865.18
2015 04 09 08 14 12 .73     -66      9     -2     67     68 277.9  -2.2  33378  276.48 0865.18
2015 04 09 08 14 12 .98     -56     17    -14     59     61 286.8 -13.4  33350  276.00 0865.18
2015 04 09 08 14 13 .23     -55     17    -15     58     60 287.7 -14.5  33346  275.95 0865.18
2015 04 09 08 14 13 .50     -67     11    -12     68     70 279.7 -10.3  33348  275.98 0865.18
2015 04 09 08 14 13 .74     -60      7    -12     61     63 277.0 -11.3  33352  276.03 0865.18
2015 04 09 08 14 14 .00     -59      0    -12     60     62 270.8 -11.3  33358  276.13 0865.18
2015 04 09 08 14 14 .25     -64    -17     -8     67     68 254.9  -7.2  33358  276.13 0865.18
2015 04 09 08 14 14 .50     -61    -14    -13     63     65 256.7 -12.4  33362  276.20 0865.18
2015 04 09 08 14 14 .75     -52     -8    -19     53     57 261.2 -19.7  33360  276.16 0865.18
2015 04 09 08 14 15 .00     -50     -7     -6     51     52 261.2  -7.3  33364  276.23 0865.18
2015 04 09 08 14 15 .25     -38    -12     -9     41     43 251.6 -13.4  33378  276.46 0865.18
2015 04 09 08 14 15 .50     -28    -20      3     35     36 234.0   4.9  33390  276.66 0865.18
2015 04 09 08 14 15 .75     -17     -5      0     18     19 251.4   2.8  33398  276.81 0865.18
2015 04 09 08 14 16 .00     -23      6      0     24     25 285.1  -2.2  33402  276.86 0865.18
2015 04 09 08 14 16 .25     -35     20     18     41     44 299.8  24.1  33408  276.96 0865.18
2015 04 09 08 14 16 .50     -46     19     -1     50     51 292.6  -2.2  33354  276.08 0865.18
2015 04 09 08 14 16 .76     -48     23     -6     54     55 295.3  -7.2  33356  276.10 0865.17
2015 04 09 08 14 17 .00     -48     23     -6     54     55 295.3  -7.2  33366  276.26 0865.17
2015 04 09 08 14 17 .26     -39     15      3     42     43 291.7   4.9  33368  276.31 0865.17
2015 04 09 08 14 17 .51     -52      4     -2     53     54 274.4  -2.2  33390  276.66 0865.17
2015 04 09 08 14 17 .76     -50    -21      7     55     56 247.4   8.0  33410  277.01 0865.17
2015 04 09 08 14 18 .01     -37     -1      6     38     39 267.4   9.0  33410  276.99 0865.17
2015 04 09 08 14 18 .26     -12     -8     26     15     30 234.0  66.8  33444  277.56 0865.17
2015 04 09 08 14 18 .50     -12    -13     17     18     24 223.4  52.0  33450  277.67 0865.17
2015 04 09 08 14 18 .76      -6    -17      6     19     21 198.7  19.2  33424  277.22 0865.17
2015 04 09 08 14 19 .01     -13    -13     11     19     21 223.4  33.5  33408  276.97 0865.17
2015 04 09 08 14 19 .26     -45    -27      0     53     54 239.3   0.8  33412  277.04 0865.17
2015 04 09 08 14 19 .51     -20      0     11     21     23 269.2  29.3  33428  277.29 0865.18
2015 04 09 08 14 19 .76     -11    -17     13     21     24 214.3  35.5  33444  277.56 0865.18
2015 04 09 08 14 20 .01      -9    -10     23     14     26 223.2  64.7  33432  277.36 0865.18
2015 04 09 08 14 20 .27     -21      7      8     23     25 290.0  18.9  33416  277.11 0865.18
2015 04 09 08 14 20 .52     -32     11    -20     35     40 290.0 -36.8  33396  276.76 0865.18
2015 04 09 08 14 20 .77     -24    -12     -3     27     28 242.9  -7.3  33398  276.81 0865.18
2015 04 09 08 14 21 .03     -38    -21      0     44     45 240.2   0.8  33422  277.19 0865.18
2015 04 09 08 14 21 .27     -34     -3     -4     35     36 263.9  -7.2  33410  277.01 0865.19
2015 04 09 08 14 21 .53     -21    -10      1     24     25 242.9   2.9  33420  277.17 0865.19
2015 04 09 08 14 21 .78     -23    -15     15     28     31 237.6  29.3  33430  277.32 0865.19
2015 04 09 08 14 22 .03     -33      0    -10     34     36 269.1 -17.6  33412  277.04 0865.19
2015 04 09 08 14 22 .28     -16      1      0     17     18 274.4  -2.2  33434  277.41 0865.19
2015 04 09 08 14 22 .53     -16      5      9     17     19 288.2  31.4  33444  277.56 0865.19
2015 04 09 08 14 22 .78     -42    -16      2     46     47 248.3   2.8  33394  276.73 0865.19
2015 04 09 08 14 23 .03     -34    -24     -1     42     43 234.9  -2.2  33370  276.34 0865.19
2015 04 09 08 14 23 .28     -46    -20     -6     51     52 246.5  -7.3  33382  276.53 0865.19
2015 04 09 08 14 23 .54     -44     -8    -16     45     48 259.4 -19.7  33400  276.83 0865.19
2015 04 09 08 14 23 .78     -55      0      1     56     57 270.0   1.8  33416  277.09 0865.19
2015 04 09 08 14 24 .03     -58     -8     16     59     62 262.1  15.3  33418  277.14 0865.19
2015 04 09 08 14 24 .28     -51    -17     13     54     56 251.4  14.3  33422  277.21 0865.19
2015 04 09 08 14 24 .53     -61    -33     13     70     72 241.1  11.1  33422  277.19 0865.19
2015 04 09 08 14 24 .78     -72    -46     -3     86     87 237.5  -2.6  33412  277.02 0865.19
2015 04 09 08 14 25 .04     -81    -50    -10     96     97 238.0  -6.2  33384  276.58 0865.18
2015 04 09 08 14 25 .29     -59    -48      2     77     78 230.5   1.8  33404  276.91 0865.18
2015 04 09 08 14 25 .53     -48    -48     10     69     70 225.1   9.0  33384  276.58 0865.18
2015 04 09 08 14 25 .78     -54    -57      1     79     80 223.2   1.2  33354  276.06 0865.18
2015 04 09 08 14 26 .03     -55    -56      0     79     80 224.2  -0.7  33348  275.98 0865.18
2015 04 09 08 14 26 .29     -54    -50      8     74     75 226.9   6.9  33364  276.23 0865.18
2015 04 09 08 14 26 .53     -59    -38     -9     71     72 237.6  -7.2  33378  276.48 0865.18
2015 04 09 08 14 26 .79     -83    -12    -15     84     86 261.2 -10.3  33392  276.71 0865.19
2015 04 09 08 14 27 .04     -78    -12    -25     79     83 261.2 -17.6  33368  276.31 0865.19
2015 04 09 08 14 27 .30     -65    -17    -20     68     72 255.0 -16.6  33366  276.26 0865.19
2015 04 09 08 14 27 .55     -76    -26     -5     81     82 250.9  -3.7  33360  276.16 0865.19
2015 04 09 08 14 27 .81     -72    -34      6     80     81 244.8   4.9  33390  276.66 0865.19
2015 04 09 08 14 28 .05     -74    -35     -2     82     83 244.7  -1.8  33394  276.73 0865.19
2015 04 09 08 14 28 .30     -48     -3     -5     49     50 265.6  -6.2  33398  276.81 0865.19
2015 04 09 08 14 28 .55     -33    -24     11     42     44 234.0  15.3  33402  276.88 0865.19
2015 04 09 08 14 28 .80     -25    -20     11     33     35 230.5  19.4  33394  276.73 0865.19
2015 04 09 08 14 29 .05     -27    -17     14     32     34 237.6  27.1  33396  276.76 0865.19
2015 04 09 08 14 29 .30     -28    -13     -1     31     32 244.6  -3.1  33396  276.78 0865.19
2015 04 09 08 14 29 .55     -63     -8     -2     64     65 262.1  -2.2  33386  276.61 0865.18
2015 04 09 08 14 29 .80     -69      1    -14     70     72 270.9 -11.3  33348  275.96 0865.18
2015 04 09 08 14 30 .05     -73     -5    -20     74     77 265.7 -15.5  33348  275.96 0865.18
2015 04 09 08 14 30 .30     -82    -12    -23     83     87 261.6 -15.5  33346  275.93 0865.18
2015 04 09 08 14 30 .55     -82    -12    -23     83     87 261.6 -15.5  33346  275.93 0865.18
2015 04 09 08 14 30 .80     -89     -8    -15     90     92 264.8  -9.8  33344  275.91 0865.18
2015 04 09 08 14 31 .05     -89    -24    -16     93     95 254.5  -9.8  33344  275.91 0865.18
2015 04 09 08 14 31 .31     -86    -20    -13     89     91 256.7  -8.8  33346  275.93 0865.18
2015 04 09 08 14 31 .56     -89    -24    -16     93     95 254.5  -9.8  33344  275.91 0865.18
2015 04 09 08 14 31 .81     -89    -24    -16     93     95 254.5  -9.8  33344  275.91 0865.18
2015 04 09 08 14 32 .06     -89    -17    -15     91     93 259.0  -9.8  33348  275.96 0865.18
2015 04 09 08 14 32 .31     -92    -17    -20     94     97 259.4 -12.4  33344  275.91 0865.18
2015 04 09 08 14 32 .56     -92    -17    -20     94     97 259.4 -12.4  33344  275.91 0865.18
2015 04 09 08 14 32 .81     -91    -12    -18     92     94 262.1 -11.3  33346  275.93 0865.18
2015 04 09 08 14 33 .06     -91    -12    -18     92     94 262.1 -11.3  33346  275.93 0865.18
2015 04 09 08 14 33 .31     -83     -1    -16     84     86 268.7 -11.3  33348  275.98 0865.18
2015 04 09 08 14 33 .56    -100      0    -12    101    102 270.0  -7.3  33352  276.03 0865.18
2015 04 09 08 14 33 .81     -98     -2    -11     99    100 268.7  -6.7  33350  276.01 0865.18
2015 04 09 08 14 34 .07     -90      0    -20     91     94 270.0 -12.9  33358  276.13 0865.18
2015 04 09 08 14 34 .33     -71     12    -19     73     76 279.7 -14.5  33394  276.73 0865.18
2015 04 09 08 14 34 .58     -65     23      3     70     71 290.0   2.9  33406  276.94 0865.18
2015 04 09 08 14 34 .82     -26     17     31     32     44 302.5  51.1  33404  276.91 0865.18
2015 04 09 08 14 35 .07     -36      0     -4     37     38 270.8  -7.2  33400  276.84 0865.18
2015 04 09 08 14 35 .32     -73     -8     -2     74     75 263.0  -2.2  33364  276.25 0865.18
2015 04 09 08 14 35 .58     -82    -12    -23     83     87 261.6 -15.5  33346  275.93 0865.18
2015 04 09 08 14 35 .82     -83     -1    -16     84     86 268.7 -11.3  33348  275.98 0865.17
2015 04 09 08 14 36 .08     -83     -1    -16     84     86 268.7 -11.3  33348  275.98 0865.17
2015 04 09 08 14 36 .33     -92     -4    -18     93     95 267.0 -11.3  33354  276.08 0865.17
2015 04 09 08 14 36 .58     -85    -11    -21     86     89 262.1 -13.9  33360  276.16 0865.17
2015 04 09 08 14 36 .83     -76    -25     -5     81     82 251.8  -4.1  33384  276.56 0865.17
2015 04 09 08 14 37 .08     -81    -16    -12     83     84 258.5  -8.8  33382  276.53 0865.17
2015 04 09 08 14 37 .33     -80    -12    -10     81     82 261.2  -7.7  33354  276.06 0865.17
2015 04 09 08 14 37 .58     -74    -12    -12     76     78 260.3  -9.3  33346  275.93 0865.17
2015 04 09 08 14 37 .83     -65     -6    -19     66     69 263.9 -16.6  33348  275.96 0865.17
2015 04 09 08 14 38 .09     -46    -12    -12     48     50 254.9 -14.5  33358  276.13 0865.17
2015 04 09 08 14 38 .34     -58    -25     -5     64     65 246.5  -5.2  33374  276.41 0865.17
2015 04 09 08 14 38 .59     -39    -32      5     51     52 230.5   5.9  33388  276.63 0865.17
2015 04 09 08 14 38 .83     -68    -23     -6     73     74 250.9  -5.2  33392  276.71 0865.17
2015 04 09 08 14 39 .09     -46    -12    -12     48     50 254.9 -14.5  33390  276.68 0865.17
2015 04 09 08 14 39 .33     -35      7      0     36     37 281.4   0.8  33392  276.69 0865.17
2015 04 09 08 14 39 .58     -82     -4    -14     83     85 267.0  -9.8  33348  275.96 0865.17
2015 04 09 08 14 39 .83     -91    -12    -18     92     94 262.1 -11.3  33346  275.93 0865.17
2015 04 09 08 14 40 .09     -91    -12    -18     92     94 262.1 -11.3  33346  275.93 0865.17
2015 04 09 08 14 40 .34     -95    -12    -17     96     98 262.5 -10.3  33348  275.96 0865.17
2015 04 09 08 14 40 .58     -91    -12    -18     92     94 262.1 -11.3  33346  275.93 0865.17
2015 04 09 08 14 40 .84     -92     -9    -21     93     96 264.3 -12.9  33348  275.96 0865.17
2015 04 09 08 14 41 .09     -92     -1    -21     93     96 269.2 -12.9  33344  275.90 0865.17
2015 04 09 08 14 41 .35     -91     -6    -18     92     94 266.1 -11.3  33346  275.93 0865.17
2015 04 09 08 14 41 .60    -103      3    -15    104    106 271.7  -8.2  33360  276.16 0865.17
2015 04 09 08 14 41 .85     -95      5     -6     96     97 273.0  -4.1  33356  276.11 0865.17
2015 04 09 08 14 42 .10     -85      5    -10     86     87 273.5  -7.2  33350  276.01 0865.17
2015 04 09 08 14 42 .35     -91      7    -19     92     95 274.4 -11.9  33346  275.95 0865.17
2015 04 09 08 14 42 .61     -73     -1    -21     74     78 269.1 -16.0  33352  276.05 0865.17
2015 04 09 08 14 42 .85     -69     14    -15     71     73 281.5 -12.4  33366  276.28 0865.17
2015 04 09 08 14 43 .11     -67      7     12     68     70 276.1  10.1  33390  276.68 0865.17
2015 04 09 08 14 43 .36     -59      4     -2     60     61 274.4  -2.2  33384  276.58 0865.17
2015 04 09 08 14 43 .61     -34    -22      5     41     42 237.5   8.0  33402  276.88 0865.17
2015 04 09 08 14 43 .85     -28     -7      0     30     31 254.9   0.8  33396  276.78 0865.17
2015 04 09 08 14 44 .10     -63      4     -8     64     65 274.4  -7.2  33370  276.34 0865.17
2015 04 09 08 14 44 .36     -93      0    -12     94     95 270.4  -7.3  33360  276.16 0865.17
2015 04 09 08 14 44 .61     -99      0    -20    100    102 270.0 -11.3  33360  276.16 0865.17
2015 04 09 08 14 44 .86     -96     -5     -8     97     98 267.0  -5.2  33358  276.15 0865.17
2015 04 09 08 14 45 .11     -79      1    -10     80     81 270.8  -7.3  33366  276.26 0865.17
2015 04 09 08 14 45 .36     -70     18     -9     73     74 285.1  -7.3  33376  276.43 0865.17
2015 04 09 08 14 45 .61     -64      4     -1     65     66 274.4  -1.3  33372  276.36 0865.17
2015 04 09 08 14 45 .87     -78     15    -18     80     83 281.0 -12.9  33366  276.28 0865.17
2015 04 09 08 14 46 .12     -50     25     11     57     59 297.1  11.1  33396  276.76 0865.17
2015 04 09 08 14 46 .36     -60      3      3     61     62 273.5   2.8  33380  276.51 0865.17
2015 04 09 08 14 46 .61     -77     13     -7     79     80 279.7  -5.2  33346  275.93 0865.17
2015 04 09 08 14 46 .86     -80     20    -19     83     86 284.2 -13.4  33344  275.91 0865.17
2015 04 09 08 14 47 .11     -81     23    -22     85     88 285.9 -15.0  33346  275.93 0865.17
2015 04 09 08 14 47 .36     -80     20    -19     83     86 284.2 -13.4  33344  275.91 0865.17
2015 04 09 08 14 47 .61     -80     20    -19     83     86 284.2 -13.4  33344  275.91 0865.17
2015 04 09 08 14 47 .86     -85     16    -20     87     90 281.0 -13.4  33348  275.96 0865.17
2015 04 09 08 14 48 .12     -88     19    -14     91     93 282.4  -8.8  33344  275.91 0865.17
2015 04 09 08 14 48 .37     -88     19    -14     91     93 282.4  -8.8  33344  275.91 0865.17
2015 04 09 08 14 48 .62     -84     20    -17     87     89 283.7 -11.3  33346  275.93 0865.17
2015 04 09 08 14 48 .87     -88     19    -14     91     93 282.4  -8.8  33344  275.91 0865.17
2015 04 09 08 14 49 .13     -84     20    -17     87     89 283.7 -11.3  33346  275.93 0865.17
2015 04 09 08 14 49 .37     -90     22    -16     93     95 284.2 -10.3  33346  275.93 0865.17
2015 04 09 08 14 49 .63     -88     19    -14     91     93 282.4  -8.8  33344  275.91 0865.17
2015 04 09 08 14 49 .88     -85     28    -11     90     91 288.6  -7.3  33344  275.91 0865.17
2015 04 09 08 14 50 .13     -80     24    -10     84     85 287.3  -7.3  33346  275.95 0865.17
2015 04 09 08 14 50 .38     -82     23    -14     86     88 285.9  -9.8  33348  275.96 0865.17
2015 04 09 08 14 50 .63     -87     16    -12     89     90 281.0  -8.2  33346  275.93 0865.17
2015 04 09 08 14 50 .88     -87     16    -12     89     90 281.0  -8.2  33346  275.93 0865.17
2015 04 09 08 14 51 .13     -85     12    -10     86     87 278.4  -7.2  33344  275.91 0865.17
2015 04 09 08 14 51 .38     -82     12    -12     83     84 278.8  -8.8  33346  275.93 0865.17
2015 04 09 08 14 51 .63     -82     12    -12     83     84 278.8  -8.8  33346  275.93 0865.17
2015 04 09 08 14 51 .88     -79     16    -17     81     83 281.9 -11.9  33346  275.93 0865.17
2015 04 09 08 14 52 .13     -82     16    -15     84     86 281.5 -10.3  33348  275.96 0865.17
2015 04 09 08 14 52 .38     -76     13    -15     78     80 279.7 -10.9  33344  275.91 0865.17
2015 04 09 08 14 52 .63     -82     16    -15     84     86 281.5 -10.3  33348  275.96 0865.17
2015 04 09 08 14 52 .88     -74     15    -12     76     78 281.5  -9.3  33346  275.93 0865.17
2015 04 09 08 14 53 .13     -79     16    -17     81     83 281.9 -11.9  33346  275.93 0865.17
2015 04 09 08 14 53 .38     -74     15    -12     76     78 281.5  -9.3  33346  275.93 0865.17
2015 04 09 08 14 53 .63     -74     15    -12     76     78 281.5  -9.3  33346  275.93 0865.17
2015 04 09 08 14 53 .89     -71     20    -19     74     77 285.9 -14.5  33348  275.98 0865.18
2015 04 09 08 14 54 .14     -68     13    -14     70     72 281.5 -11.3  33348  275.96 0865.18
2015 04 09 08 14 54 .39     -65     19    -20     68     72 286.8 -16.6  33348  275.96 0865.18
2015 04 09 08 14 54 .64     -64     16    -18     66     69 284.2 -15.4  33346  275.93 0865.18
2015 04 09 08 14 54 .89     -61     12    -13     63     65 281.4 -12.4  33348  275.96 0865.18
2015 04 09 08 14 55 .15     -55     17    -15     58     60 287.7 -14.5  33346  275.95 0865.18
2015 04 09 08 14 55 .40     -55     17    -15     58     60 287.7 -14.5  33346  275.95 0865.18
2015 04 09 08 14 55 .65     -59     16    -12     62     64 285.1 -11.3  33346  275.93 0865.18
2015 04 09 08 14 55 .90     -59     16    -12     62     64 285.1 -11.3  33346  275.93 0865.17
2015 04 09 08 14 56 .15     -59     16    -12     62     64 285.1 -11.3  33346  275.93 0865.17
2015 04 09 08 14 56 .40     -65     16     -8     68     69 284.2  -7.3  33348  275.96 0865.17
2015 04 09 08 14 56 .65     -59     16    -12     62     64 285.1 -11.3  33346  275.93 0865.17
2015 04 09 08 14 56 .90     -59     16    -12     62     64 285.1 -11.3  33346  275.93 0865.17
2015 04 09 08 14 57 .15     -59     16    -12     62     64 285.1 -11.3  33346  275.93 0865.17
2015 04 09 08 14 57 .40     -52     11    -12     54     56 282.4 -12.4  33346  275.93 0865.17
2015 04 09 08 14 57 .65     -55     17    -15     58     60 287.7 -14.5  33346  275.95 0865.18
2015 04 09 08 14 57 .91     -57      8     -7     58     59 278.8  -7.3  33346  275.93 0865.18
2015 04 09 08 14 58 .16     -54     12     -6     56     57 282.4  -6.2  33348  275.96 0865.18
2015 04 09 08 14 58 .41     -54     12     -6     56     57 282.4  -6.2  33350  276.01 0865.18
2015 04 09 08 14 58 .66     -45     13     -8     47     48 286.8 -10.3  33346  275.95 0865.18
2015 04 09 08 14 58 .91     -50     12     -6     52     53 284.2  -7.3  33348  275.98 0865.18
2015 04 09 08 14 59 .16     -45     13     -8     47     48 286.8 -10.3  33346  275.95 0865.18
2015 04 09 08 14 59 .41     -48     12    -13     50     52 285.1 -15.5  33346  275.95 0865.18
2015 04 09 08 14 59 .66     -41     16    -15     45     48 291.7 -18.7  33350  276.00 0865.18
2015 04 09 08 14 59 .91     -41     16    -15     45     48 291.7 -18.7  33350  276.00 0865.18
2015 04 09 08 15 00 .16     -41     16    -15     45     48 291.7 -18.7  33350  276.00 0865.18
2015 04 09 08 15 00 .42     -39     19    -11     44     46 296.2 -14.5  33352  276.03 0865.18
2015 04 09 08 15 00 .66     -46     19    -10     50     51 292.6 -11.3  33352  276.05 0865.18
2015 04 09 08 15 00 .91     -42     23    -15     48     51 298.9 -17.6  33352  276.05 0865.18
2015 04 09 08 15 01 .16     -42     22     -7     48     49 298.0  -8.2  33352  276.03 0865.17
2015 04 09 08 15 01 .41     -42     22     -7     48     49 298.0  -8.2  33352  276.03 0865.17
2015 04 09 08 15 01 .66     -42     22     -7     48     49 298.0  -8.2  33352  276.03 0865.17
2015 04 09 08 15 01 .91     -37     23    -10     44     46 301.5 -13.4  33350  276.00 0865.17
2015 04 09 08 15 02 .18     -44     21     -8     49     50 295.4  -9.3  33352  276.05 0865.17
2015 04 09 08 15 02 .43     -46     19    -10     50     51 292.6 -11.3  33352  276.05 0865.17
2015 04 09 08 15 02 .68     -46     16    -12     49     51 289.1 -14.5  33352  276.03 0865.17
2015 04 09 08 15 02 .93     -40     19     -4     45     46 296.2  -5.2  33356  276.11 0865.18
2015 04 09 08 15 03 .18     -46     21     -9     51     52 294.4 -10.3  33362  276.21 0865.18
2015 04 09 08 15 03 .44     -48     23      2     54     55 295.3   2.8  33394  276.74 0865.18
2015 04 09 08 15 03 .69     -46     13     -1     48     49 285.9  -2.2  33412  277.04 0865.18
2015 04 09 08 15 03 .93     -17     18     26     25     36 316.6  48.2  33438  277.47 0865.18
2015 04 09 08 15 04 .18     -25     21     14     33     35 309.6  23.0  33448  277.62 0865.18
2015 04 09 08 15 04 .44     -24      9     29     26     38 291.7  52.2  33466  277.94 0865.18
2015 04 09 08 15 04 .68     -16      5     15     17     22 288.2  47.9  33478  278.14 0865.18
2015 04 09 08 15 04 .93       0     -3     17      4     17 184.5  89.0  33478  278.12 0865.18
2015 04 09 08 15 05 .18       4      5     24      7     25  39.6  82.8  33470  277.99 0865.18
2015 04 09 08 15 05 .43      -2      2      4      3      5 315.0  48.2  33462  277.87 0865.18
2015 04 09 08 15 05 .68       4     -3      0      6      7 129.5  -2.2  33456  277.77 0865.18
2015 04 09 08 15 05 .94      -2     -7      9      8     12 198.5  52.2  33456  277.77 0865.18
2015 04 09 08 15 06 .18       2      1     -3      3      4  57.6 -54.5  33460  277.82 0865.18
2015 04 09 08 15 06 .47       6      5      1      9     10  50.5  11.1  33458  277.79 0865.18
2015 04 09 08 15 06 .69      11      9     17     15     22  50.5  52.2  33456  277.75 0865.17
2015 04 09 08 15 06 .94      -8      1     15      9     17 281.5  64.7  33464  277.89 0865.17
2015 04 09 08 15 07 .18     -15     12    -10     20     22 309.5 -33.7  33446  277.59 0865.17
2015 04 09 08 15 07 .44     -34      2    -19     35     39 274.4 -35.8  33396  276.76 0865.17
2015 04 09 08 15 07 .69      -9     27     -1     29     30 341.3  -2.2  33430  277.34 0865.17
2015 04 09 08 15 07 .94       1      8     22      9     23  11.6  79.2  33438  277.46 0865.17
2015 04 09 08 15 08 .19      -4      1     20      5     20 288.4  86.9  33452  277.69 0865.17
2015 04 09 08 15 08 .44       0     -3     24      4     24 184.5  90.0  33458  277.79 0865.17
2015 04 09 08 15 08 .69     -21    -39     43     45     62 209.0  49.0  33420  277.16 0865.17
2015 04 09 08 15 08 .95     -23    -37     13     44     47 212.5  17.3  33432  277.36 0865.17
2015 04 09 08 15 09 .20     -31      0     -1     32     33 269.2  -2.2  33430  277.34 0865.17
2015 04 09 08 15 09 .48     -50    -39    -16     64     67 232.2 -14.5  33420  277.16 0865.17
2015 04 09 08 15 09 .71     -68    -43     -3     81     82 237.6  -2.2  33426  277.26 0865.17
2015 04 09 08 15 09 .95     -56    -47      3     74     75 230.4   2.9  33414  277.06 0865.17
2015 04 09 08 15 10 .21     -62    -51      5     81     82 230.5   3.8  33432  277.36 0865.17
2015 04 09 08 15 10 .46     -58    -39     14     71     73 235.8  11.1  33436  277.44 0865.17
2015 04 09 08 15 10 .71     -46    -46     18     66     69 225.0  15.2  33432  277.36 0865.17
2015 04 09 08 15 10 .96     -42    -28     10     51     52 235.8  11.1  33448  277.64 0865.17
2015 04 09 08 15 11 .21     -35    -11      1     37     38 251.8   2.8  33436  277.44 0865.17
2015 04 09 08 15 11 .46     -28     13     16     32     35 295.4  27.3  33430  277.32 0865.17
2015 04 09 08 15 11 .71     -44     -1     -9     45     46 268.3 -11.3  33410  277.01 0865.17
2015 04 09 08 15 11 .96     -53      0      2     54     55 270.0   2.9  33420  277.16 0865.17
2015 04 09 08 15 12 .21     -34     -3      6     35     36 263.9  11.1  33432  277.36 0865.17
2015 04 09 08 15 12 .46     -57    -23     -1     62     63 248.2  -1.3  33412  277.02 0865.17
2015 04 09 08 15 12 .71     -63      0    -14     64     66 269.2 -12.4  33410  277.01 0865.17
2015 04 09 08 15 12 .96     -53    -13     -3     55     56 255.8  -3.1  33400  276.83 0865.16
2015 04 09 08 15 13 .21     -57      1    -13     58     60 271.7 -13.4  33384  276.56 0865.16
2015 04 09 08 15 13 .46     -85      0    -10     86     87 269.6  -7.2  33356  276.11 0865.16
2015 04 09 08 15 13 .71     -97     -8    -19     98    100 265.2 -11.3  33348  275.98 0865.16
2015 04 09 08 15 13 .96     -99     -5    -21    100    103 267.0 -11.9  33348  275.96 0865.16
2015 04 09 08 15 14 .21     -94     -6    -23     95     98 266.1 -13.9  33346  275.93 0865.16
2015 04 09 08 15 14 .46     -86      0    -21     87     90 270.4 -13.9  33346  275.95 0865.16
2015 04 09 08 15 14 .71     -89     12    -14     90     92 277.9  -9.3  33348  275.96 0865.16
2015 04 09 08 15 14 .97    -104      4     -9    105    106 272.6  -5.2  33348  275.98 0865.16
2015 04 09 08 15 15 .22     -96     -6    -15     97     99 266.1  -8.8  33348  275.96 0865.16
2015 04 09 08 15 15 .47     -87      8    -11     88     89 275.7  -7.7  33346  275.93 0865.16
2015 04 09 08 15 15 .72     -92      7    -11     93     94 274.8  -7.2  33350  276.01 0865.16
2015 04 09 08 15 15 .98     -91      4     -7     92     93 273.0  -4.6  33348  275.98 0865.16
2015 04 09 08 15 16 .23     -96     -1     -5     97     98 269.2  -3.2  33362  276.21 0865.16
2015 04 09 08 15 16 .48     -75    -14     -1     77     78 259.4  -1.2  33364  276.25 0865.16
2015 04 09 08 15 16 .73     -44     -4      5     45     46 263.9   6.9  33376  276.43 0865.16
2015 04 09 08 15 16 .98     -52      4     -2     53     54 274.4  -2.2  33378  276.46 0865.16
2015 04 09 08 15 17 .23     -52     -1     -2     53     54 268.3  -2.2  33380  276.51 0865.16
2015 04 09 08 15 17 .48     -49      0      1     50     51 270.8   1.8  33376  276.43 0865.17
2015 04 09 08 15 17 .74     -64      0    -14     65     67 269.2 -12.4  33386  276.61 0865.17
2015 04 09 08 15 17 .99     -55     13      6     57     58 283.3   6.9  33398  276.81 0865.17
2015 04 09 08 15 18 .24     -53     13      7     55     56 284.2   8.0  33392  276.71 0865.17
2015 04 09 08 15 18 .48     -81    -22     -5     85     86 254.5  -3.7  33396  276.76 0865.17
2015 04 09 08 15 18 .73     -73    -17     -9     76     77 256.7  -7.3  33396  276.76 0865.17
2015 04 09 08 15 18 .99     -48    -17     10     52     53 250.0  11.0  33398  276.79 0865.17
2015 04 09 08 15 19 .23     -73    -24     -9     77     78 251.6  -7.3  33372  276.36 0865.17
2015 04 09 08 15 19 .49     -70    -33    -21     78     81 244.7 -15.5  33368  276.31 0865.17
2015 04 09 08 15 19 .73     -66    -15    -12     68     70 256.7 -10.3  33382  276.53 0865.17
2015 04 09 08 15 19 .99     -72    -16    -19     74     77 256.7 -14.5  33352  276.05 0865.17
2015 04 09 08 15 20 .24     -74    -15    -22     76     80 258.5 -16.6  33348  275.98 0865.17
2015 04 09 08 15 20 .49     -83     -7    -16     84     86 265.2 -11.3  33362  276.20 0865.17
2015 04 09 08 15 20 .74     -88    -29    -22     93     96 251.8 -13.4  33356  276.11 0865.17
2015 04 09 08 15 20 .99     -90    -29    -12     95     96 251.8  -7.3  33352  276.03 0865.17
2015 04 09 08 15 21 .24     -92    -35    -12     99    100 248.7  -7.3  33354  276.08 0865.17
2015 04 09 08 15 21 .50     -92    -34    -19     99    101 249.6 -11.3  33364  276.23 0865.17
2015 04 09 08 15 21 .74     -89    -28     -7     94     95 252.3  -4.6  33378  276.46 0865.17
2015 04 09 08 15 21 .99     -83    -31     -5     89     90 249.2  -3.7  33374  276.41 0865.17
2015 04 09 08 15 22 .24     -88    -42    -13     98     99 244.6  -7.7  33376  276.44 0865.17
2015 04 09 08 15 22 .49     -83    -36    -11     91     92 246.0  -7.2  33378  276.46 0865.17
2015 04 09 08 15 22 .75     -72    -34      5     80     81 244.8   3.8  33398  276.81 0865.17
2015 04 09 08 15 23 .01     -43    -46     20     64     68 223.2  17.3  33414  277.07 0865.16
2015 04 09 08 15 23 .26     -64    -41     -4     77     78 237.5  -3.1  33410  276.99 0865.16
2015 04 09 08 15 23 .51     -59    -38      6     71     72 237.6   4.9  33414  277.07 0865.16
2015 04 09 08 15 23 .76     -47    -30     13     56     58 237.6  13.2  33414  277.06 0865.16
2015 04 09 08 15 24 .01     -84     -3      4     85     86 267.4   2.9  33390  276.68 0865.17
2015 04 09 08 15 24 .26     -88     -4    -19     89     92 267.4 -12.4  33362  276.20 0865.17
2015 04 09 08 15 24 .51     -83     -8    -11     84     85 264.3  -7.7  33376  276.43 0865.17
2015 04 09 08 15 24 .76     -75    -15    -14     77     79 258.5 -10.9  33392  276.71 0865.17
2015 04 09 08 15 25 .01     -70     -5     -9     71     72 265.7  -7.2  33390  276.68 0865.17
2015 04 09 08 15 25 .26     -66      0    -12     67     69 269.2 -10.3  33380  276.49 0865.17
2015 04 09 08 15 25 .51     -57     -4    -13     58     60 265.6 -13.4  33380  276.51 0865.17
2015 04 09 08 15 25 .77     -45     -2     -8     46     47 267.4 -10.3  33384  276.56 0865.17
2015 04 09 08 15 26 .01     -58      4     -9     59     60 274.3  -9.3  33384  276.56 0865.17
2015 04 09 08 15 26 .26     -56     -1      0     57     58 268.3   0.8  33384  276.58 0865.17
2015 04 09 08 15 26 .51     -56      4    -16     57     60 274.4 -15.5  33398  276.79 0865.17
2015 04 09 08 15 26 .76     -35      0     16     36     39 269.1  25.1  33402  276.88 0865.17
2015 04 09 08 15 27 .02     -48     -3     -5     49     50 265.6  -6.2  33402  276.86 0865.17
2015 04 09 08 15 27 .26     -65      0     -8     66     67 270.0  -7.3  33398  276.81 0865.17
2015 04 09 08 15 27 .51     -71     -5     -9     72     73 265.7  -7.2  33382  276.53 0865.17
2015 04 09 08 15 27 .77     -58      8    -21     59     63 278.0 -19.6  33360  276.16 0865.17
2015 04 09 08 15 28 .02     -68      4    -24     69     74 273.5 -19.7  33362  276.21 0865.17
2015 04 09 08 15 28 .27     -62     16    -10     65     66 285.0  -9.3  33366  276.28 0865.17
2015 04 09 08 15 28 .53     -59      8    -12     60     62 277.9 -11.3  33360  276.18 0865.17
2015 04 09 08 15 28 .77     -71     -5     -9     72     73 265.7  -7.2  33364  276.23 0865.17
2015 04 09 08 15 29 .02     -70     -5     -9     71     72 265.7  -7.2  33384  276.58 0865.17
2015 04 09 08 15 29 .27     -46      3     -1     47     48 274.4  -2.2  33396  276.78 0865.17
2015 04 09 08 15 29 .52     -41      0      1     42     43 269.2   1.8  33400  276.84 0865.17
2015 04 09 08 15 29 .77     -44     -5     -1     45     46 263.0  -2.2  33396  276.76 0865.17
2015 04 09 08 15 30 .03     -40    -12    -10     42     44 252.3 -13.4  33386  276.61 0865.17
2015 04 09 08 15 30 .28     -40     -5     -1     41     42 262.1  -2.2  33378  276.48 0865.17
2015 04 09 08 15 30 .53     -39     -4     -8     40     41 263.9 -12.4  33380  276.51 0865.17
2015 04 09 08 15 30 .79     -59     16    -12     62     64 285.1 -11.3  33376  276.43 0865.17
2015 04 09 08 15 31 .03     -58     17     -2     61     62 286.8  -2.2  33356  276.11 0865.17
2015 04 09 08 15 31 .28     -65      6     -8     66     67 276.1  -7.3  33350  276.01 0865.17
2015 04 09 08 15 31 .54     -65      6     -8     66     67 276.1  -7.3  33350  276.01 0865.17
2015 04 09 08 15 31 .78     -74      4    -26     75     79 273.5 -23.8  33358  276.15 0865.17
2015 04 09 08 15 32 .03     -56      4    -16     57     60 274.4 -15.5  33354  276.08 0865.17
2015 04 09 08 15 32 .28     -58      0     -7     59     60 270.8  -7.3  33352  276.03 0865.17
2015 04 09 08 15 32 .53     -58      0     -7     59     60 270.8  -7.3  33352  276.03 0865.17
2015 04 09 08 15 32 .79     -51      3     -6     52     53 274.4  -7.3  33356  276.10 0865.17
2015 04 09 08 15 33 .04     -54      4     -9     55     56 274.4 -10.3  33358  276.13 0865.17
2015 04 09 08 15 33 .29     -55      4     -6     56     57 274.4  -6.2  33360  276.16 0865.17
2015 04 09 08 15 33 .54     -49      5     -1     50     51 276.1  -2.2  33362  276.21 0865.17
2015 04 09 08 15 33 .79     -46      0     -1     47     48 269.2  -2.2  33354  276.08 0865.17
2015 04 09 08 15 34 .04     -52     -4     -2     53     54 265.7  -2.2  33358  276.13 0865.17
2015 04 09 08 15 34 .29     -59     -7     -2     60     61 263.0  -2.2  33358  276.13 0865.17
2015 04 09 08 15 34 .54     -58     -7    -10     59     60 263.0 -10.3  33360  276.16 0865.17
2015 04 09 08 15 34 .79     -70     -5    -17     71     74 265.6 -13.4  33368  276.31 0865.17
2015 04 09 08 15 35 .04     -59     20     -8     63     64 288.6  -7.3  33372  276.36 0865.17
2015 04 09 08 15 35 .29     -61      8     -3     62     63 277.9  -3.1  33380  276.51 0865.17
2015 04 09 08 15 35 .54     -64      3      3     65     66 273.5   2.9  33382  276.54 0865.17
2015 04 09 08 15 35 .79     -84      0     -2     85     86 270.0  -1.8  33378  276.46 0865.17
2015 04 09 08 15 36 .05     -84     -4    -27     85     90 267.0 -17.6  33376  276.43 0865.17
2015 04 09 08 15 36 .30     -97    -17    -19     99    101 259.9 -10.9  33382  276.54 0865.17
2015 04 09 08 15 36 .54     -90    -16     -9     92     93 259.4  -5.6  33368  276.30 0865.17
2015 04 09 08 15 36 .81     -72    -24     -9     77     78 251.4  -7.3  33392  276.71 0865.17
2015 04 09 08 15 37 .06     -67    -21     -9     71     72 252.3  -7.3  33390  276.66 0865.17
2015 04 09 08 15 37 .31     -65     -5     -8     66     67 265.6  -7.3  33388  276.64 0865.17
2015 04 09 08 15 37 .56     -69     -4    -14     70     72 266.5 -11.3  33350  276.01 0865.17
2015 04 09 08 15 37 .81     -76     -5    -18     77     80 265.7 -13.4  33354  276.08 0865.17
2015 04 09 08 15 38 .06     -79     -7    -19     80     83 264.3 -13.4  33362  276.21 0865.17
2015 04 09 08 15 38 .31     -78     -1    -20     79     82 269.2 -14.5  33350  276.01 0865.17
2015 04 09 08 15 38 .56     -79     -1    -19     80     83 268.7 -13.4  33348  275.96 0865.17
2015 04 09 08 15 38 .81     -73     -1    -21     74     78 269.1 -16.0  33348  275.98 0865.17
2015 04 09 08 15 39 .06     -73     -5    -20     74     77 265.7 -15.5  33348  275.96 0865.17
2015 04 09 08 15 39 .31     -71     -7    -19     72     75 263.9 -15.4  33348  275.98 0865.17
2015 04 09 08 15 39 .56     -71     -7    -19     72     75 263.9 -15.4  33348  275.98 0865.17
2015 04 09 08 15 39 .81     -68     -5    -22     69     73 265.7 -17.6  33346  275.93 0865.17
2015 04 09 08 15 40 .06     -61      0    -22     62     66 269.2 -19.6  33352  276.03 0865.17
2015 04 09 08 15 40 .32     -61     -1    -20     62     65 268.3 -23.8  33362  276.21 0865.17
2015 04 09 08 15 40 .56     -55      4      1     56     57 274.3   1.8  33382  276.53 0865.17
2015 04 09 08 15 40 .82     -53      0     -3     54     55 270.0  -3.1  33396  276.78 0865.17
2015 04 09 08 15 41 .07     -38    -16      6     42     43 246.5   9.0  33416  277.09 0865.17
2015 04 09 08 15 41 .32     -41     -4     13     42     44 263.9  17.3  33434  277.39 0865.17
2015 04 09 08 15 41 .56     -43    -13     20     46     50 252.3  26.2  33410  276.99 0865.17
2015 04 09 08 15 41 .82     -58     -2    -10     59     60 267.4 -10.3  33380  276.51 0865.17
2015 04 09 08 15 42 .07     -42      0    -13     43     46 270.0 -17.6  33380  276.51 0865.18
2015 04 09 08 15 42 .32     -41      7    -14     42     45 280.6 -18.7  33384  276.56 0865.18
2015 04 09 08 15 42 .57     -58      0      5     59     60 270.8   4.9  33388  276.63 0865.18
2015 04 09 08 15 42 .82     -53      0    -12     54     56 270.0 -12.4  33388  276.63 0865.18
2015 04 09 08 15 43 .07     -59     -2      1     60     61 267.4   1.8  33404  276.91 0865.18
2015 04 09 08 15 43 .32     -42      0      9     43     44 269.2  12.2  33402  276.86 0865.18
2015 04 09 08 15 43 .58     -21      1      7     22     24 274.4  19.2  33410  277.01 0865.18
2015 04 09 08 15 43 .84     -34     -3      1     35     36 263.9   2.8  33434  277.39 0865.17
2015 04 09 08 15 44 .09     -28    -18     -4     34     35 237.6  -7.3  33440  277.51 0865.17
2015 04 09 08 15 44 .34     -38    -16      6     42     43 246.5   9.0  33458  277.79 0865.17
2015 04 09 08 15 44 .58     -28    -11     17     31     35 248.3  33.5  33474  278.07 0865.17
2015 04 09 08 15 44 .83     -23    -24      6     34     35 223.4  11.1  33460  277.84 0865.17
2015 04 09 08 15 45 .09     -26    -26      9     38     40 225.0  13.2  33460  277.84 0865.17
2015 04 09 08 15 45 .33     -31    -27     20     42     46 229.6  27.2  33472  278.04 0865.17
2015 04 09 08 15 45 .58     -23    -25     22     35     41 223.2  35.5  33460  277.82 0865.17
2015 04 09 08 15 45 .84     -16    -23     16     29     33 214.3  31.4  33466  277.94 0865.17
2015 04 09 08 15 46 .09     -14    -20     30     25     39 216.1  56.3  33462  277.85 0865.17
2015 04 09 08 15 46 .34     -20    -16     24     26     35 230.5  50.0  33446  277.59 0865.17
2015 04 09 08 15 46 .59      -8    -20     22     22     31 203.6  50.1  33472  278.02 0865.17
2015 04 09 08 15 46 .84      -1     -8     26      9     27 189.7  81.0  33472  278.02 0865.17
2015 04 09 08 15 47 .09       0    -11     18     12     21 180.9  62.6  33460  277.82 0865.17
2015 04 09 08 15 47 .34     -10    -19     16     22     27 207.2  39.7  33472  278.04 0865.17
2015 04 09 08 15 47 .59     -26    -20     -1     34     35 232.2  -2.2  33448  277.64 0865.17
2015 04 09 08 15 47 .84     -31     -8      0     33     34 254.9  -1.2  33418  277.14 0865.17
2015 04 09 08 15 48 .09     -56    -22     -4     61     62 248.3  -4.1  33408  276.96 0865.17
2015 04 09 08 15 48 .34     -73    -17     -4     76     77 256.7  -3.1  33380  276.49 0865.16
2015 04 09 08 15 48 .60     -83     -5     -8     84     85 266.1  -5.6  33384  276.58 0865.16
2015 04 09 08 15 48 .85     -79     -6    -10     80     81 265.6  -7.3  33378  276.46 0865.16
2015 04 09 08 15 49 .10     -79      1    -10     80     81 270.8  -7.3  33384  276.56 0865.16
2015 04 09 08 15 49 .34     -66    -17    -12     69     71 255.0 -10.3  33390  276.68 0865.16
2015 04 09 08 15 49 .59     -78    -12    -25     79     83 261.2 -17.6  33350  276.01 0865.16
2015 04 09 08 15 49 .85     -78    -12    -25     79     83 261.2 -17.6  33348  275.96 0865.16
2015 04 09 08 15 50 .10     -74    -13    -11     76     77 259.4  -8.2  33352  276.03 0865.16
2015 04 09 08 15 50 .35     -73    -17     -9     76     77 256.7  -7.3  33360  276.16 0865.16
2015 04 09 08 15 50 .60     -64    -17     -8     67     68 254.9  -7.2  33372  276.38 0865.16
2015 04 09 08 15 50 .86     -59    -11    -11     61     63 259.4 -10.3  33358  276.13 0865.16
2015 04 09 08 15 51 .11     -61    -12    -10     63     64 258.5  -9.3  33352  276.03 0865.15
2015 04 09 08 15 51 .36     -56     -4    -14     57     59 265.7 -14.5  33350  276.01 0865.15
2015 04 09 08 15 51 .61     -66    -17    -12     69     71 255.0 -10.3  33348  275.98 0865.15
2015 04 09 08 15 51 .86     -71     -7    -19     72     75 263.9 -15.4  33348  275.98 0865.15
2015 04 09 08 15 52 .11     -74     -5    -15     75     77 265.6 -11.9  33350  276.01 0865.15
2015 04 09 08 15 52 .36     -69     -8    -25     70     75 263.0 -19.7  33354  276.06 0865.15
2015 04 09 08 15 52 .61     -72      5     -9     73     74 274.3  -7.3  33352  276.05 0865.15
2015 04 09 08 15 52 .86     -90      5    -14     91     93 273.5  -8.8  33354  276.06 0865.16
2015 04 09 08 15 53 .11     -85      0    -10     86     87 269.6  -7.2  33354  276.06 0865.16
2015 04 09 08 15 53 .36     -83     -1    -16     84     86 268.7 -11.3  33348  275.98 0865.16
2015 04 09 08 15 53 .61     -85      0    -10     86     87 269.6  -7.2  33354  276.06 0865.16
2015 04 09 08 15 53 .87     -76     -1     -8     77     78 269.1  -6.2  33358  276.13 0865.16
2015 04 09 08 15 54 .12     -85      0     -7     86     87 270.4  -5.2  33356  276.11 0865.16
2015 04 09 08 15 54 .37     -92     -7    -11     93     94 265.6  -7.3  33368  276.30 0865.16
2015 04 09 08 15 54 .62     -95     -8    -12     96     97 265.2  -7.3  33352  276.03 0865.16
2015 04 09 08 15 54 .87     -93     -8    -20     94     97 264.8 -12.4  33350  276.01 0865.16
2015 04 09 08 15 55 .12     -91    -17    -16     93     95 259.4  -9.8  33350  276.01 0865.16
2015 04 09 08 15 55 .37     -82    -21    -16     85     87 255.4 -10.9  33350  276.01 0865.16
2015 04 09 08 15 55 .62     -88     -4    -12     89     90 267.0  -8.2  33364  276.23 0865.16
2015 04 09 08 15 55 .87     -90      0    -14     91     93 269.6  -8.8  33356  276.11 0865.16
2015 04 09 08 15 56 .12     -84    -13     -9     85     86 261.2  -6.2  33366  276.28 0865.16
2015 04 09 08 15 56 .37     -96      2     -8     97     98 271.3  -5.2  33354  276.08 0865.16
2015 04 09 08 15 56 .62     -92      7    -11     93     94 274.4  -7.2  33354  276.06 0865.16
2015 04 09 08 15 56 .87     -82      4     -5     83     84 273.0  -3.7  33360  276.16 0865.16
2015 04 09 08 15 57 .12     -80      4    -11     81     82 273.5  -8.2  33348  275.98 0865.16
2015 04 09 08 15 57 .37     -82      8    -14     83     85 275.7  -9.8  33350  276.01 0865.16
2015 04 09 08 15 57 .63     -76      8    -17     77     80 276.1 -12.9  33352  276.03 0865.16
2015 04 09 08 15 57 .88     -78      4    -20     79     82 273.5 -14.5  33354  276.06 0865.16
2015 04 09 08 15 58 .13     -86      7    -21     87     90 275.2 -13.9  33350  276.01 0865.16
2015 04 09 08 15 58 .38     -79     -1    -24     80     83 269.1 -22.3  33354  276.06 0865.16
2015 04 09 08 15 58 .63     -77     -1    -27     78     83 268.7 -19.7  33352  276.05 0865.16
2015 04 09 08 15 58 .89     -93     -1    -20     94     97 269.2 -12.4  33354  276.06 0865.16
2015 04 09 08 15 59 .13     -89     -1    -32     90     95 268.7 -23.8  33352  276.05 0865.16
2015 04 09 08 15 59 .39     -82     -1    -24     83     87 268.7 -16.6  33354  276.06 0865.15
2015 04 09 08 15 59 .64     -80      0    -22     81     85 270.0 -15.5  33352  276.03 0865.15
2015 04 09 08 15 59 .89     -75      9    -23     76     80 277.0 -17.0  33352  276.05 0865.15
2015 04 09 08 16 00 .14     -88      8    -11     89     90 275.2  -7.3  33352  276.03 0865.15
2015 04 09 08 16 00 .39     -72      8    -19     73     76 277.0 -15.0  33350  276.01 0865.15
2015 04 09 08 16 00 .64     -79     20    -20     82     85 284.2 -13.9  33352  276.05 0865.15
2015 04 09 08 16 00 .89     -77     22    -18     81     84 286.4 -12.9  33352  276.03 0865.15
2015 04 09 08 16 01 .14     -78     31    -10     85     86 291.7  -7.3  33350  276.00 0865.15
2015 04 09 08 16 01 .39     -80     16    -22     82     85 281.9 -15.0  33352  276.03 0865.15
2015 04 09 08 16 01 .64     -73     19    -22     76     80 285.1 -16.0  33352  276.03 0865.15
2015 04 09 08 16 01 .89     -81     17    -26     83     86 281.9 -22.8  33354  276.08 0865.15
2015 04 09 08 16 02 .14     -72     14    -26     74     79 281.5 -19.7  33352  276.03 0865.15
2015 04 09 08 16 02 .39     -76     25    -22     81     83 288.6 -20.2  33354  276.08 0865.15
2015 04 09 08 16 02 .64     -85      7    -24     86     89 275.2 -20.7  33350  276.01 0865.15
2015 04 09 08 16 02 .89     -85      7    -24     86     89 275.2 -20.7  33350  276.01 0865.15
2015 04 09 08 16 03 .14     -85      7    -24     86     89 275.2 -20.7  33350  276.01 0865.15
2015 04 09 08 16 03 .39     -79     21    -24     82     85 285.5 -21.2  33354  276.06 0865.15
2015 04 09 08 16 03 .64     -71     18    -24     74     77 284.2 -23.8  33350  276.00 0865.15
2015 04 09 08 16 03 .89     -71     18    -24     74     77 284.2 -23.8  33350  276.00 0865.15
2015 04 09 08 16 04 .15     -71     18    -31     74     80 284.2 -28.5  33354  276.08 0865.15
2015 04 09 08 16 04 .40     -71     18    -24     74     77 284.2 -23.8  33350  276.00 0865.15
2015 04 09 08 16 04 .66     -71     18    -24     74     77 284.2 -23.8  33350  276.00 0865.15
2015 04 09 08 16 04 .91     -71     18    -24     74     77 284.2 -23.8  33350  276.00 0865.15
2015 04 09 08 16 05 .16     -71     18    -24     74     77 284.2 -23.8  33350  276.00 0865.15
2015 04 09 08 16 05 .41     -68     20    -22     72     75 286.8 -23.8  33352  276.03 0865.15
2015 04 09 08 16 05 .66     -68     23    -26     72     76 289.1 -23.3  33354  276.08 0865.15
2015 04 09 08 16 05 .91     -61     12    -22     63     67 281.5 -19.6  33352  276.03 0865.15
2015 04 09 08 16 06 .16     -62      4    -13     63     65 274.4 -12.4  33352  276.05 0865.15
2015 04 09 08 16 06 .41     -60      7    -12     61     63 277.0 -11.3  33352  276.03 0865.15
2015 04 09 08 16 06 .66     -64     13     -8     66     67 281.5  -7.2  33352  276.03 0865.15
2015 04 09 08 16 06 .91     -58      7     -7     59     60 277.0  -7.2  33354  276.08 0865.15
2015 04 09 08 16 07 .16     -49     13     -6     51     52 285.1  -7.3  33354  276.08 0865.15
2015 04 09 08 16 07 .42     -51      3     -6     52     53 274.4  -7.3  33356  276.10 0865.15
2015 04 09 08 16 07 .67     -40      8     -1     41     42 282.4  -2.2  33422  277.19 0865.15
2015 04 09 08 16 07 .92     -36      2     10     37     39 274.3  15.3  33414  277.06 0865.15
2015 04 09 08 16 08 .17     -41      5      0     42     43 277.0  -0.3  33406  276.94 0865.15
2015 04 09 08 16 08 .41     -24      2      0     25     26 276.1  -1.3  33378  276.46 0865.15
2015 04 09 08 16 08 .67     -41     -1      1     42     43 268.3   1.8  33376  276.43 0865.15
2015 04 09 08 16 08 .92     -36    -11      0     38     39 251.8   0.8  33372  276.38 0865.15
2015 04 09 08 16 09 .17     -21    -19      1     29     30 226.9   2.8  33390  276.68 0865.15
2015 04 09 08 16 09 .43     -12    -12     17     18     24 225.0  52.0  33416  277.11 0865.16
2015 04 09 08 16 09 .67     -21      0      9     22     23 272.6  21.0  33416  277.11 0865.16
2015 04 09 08 16 09 .92     -48      0     -4     49     50 270.8  -5.2  33356  276.11 0865.16
2015 04 09 08 16 10 .17     -61    -12     -4     63     64 258.5  -4.1  33348  275.96 0865.16
2015 04 09 08 16 10 .42     -76    -20      0     79     80 255.0  -0.3  33352  276.03 0865.16
2015 04 09 08 16 10 .67     -76    -25      0     81     82 251.8  -0.3  33352  276.03 0865.16
2015 04 09 08 16 10 .92     -60    -27    -14     66     68 245.6 -12.4  33356  276.11 0865.16
2015 04 09 08 16 11 .17     -50    -28    -20     58     62 241.1 -19.7  33356  276.11 0865.16
2015 04 09 08 16 11 .42     -49    -13    -22     51     55 254.9 -29.5  33354  276.08 0865.16
2015 04 09 08 16 11 .69     -56    -17    -29     59     65 252.3 -32.6  33352  276.05 0865.16
2015 04 09 08 16 11 .93     -58    -12    -25     60     65 257.6 -27.4  33350  276.01 0865.16
2015 04 09 08 16 12 .19     -62    -24    -33     67     74 248.3 -31.7  33352  276.05 0865.16
2015 04 09 08 16 12 .44     -67    -30    -29     74     79 245.6 -26.4  33356  276.11 0865.16
2015 04 09 08 16 12 .69     -65    -37    -27     76     80 240.2 -24.4  33356  276.10 0865.16
2015 04 09 08 16 12 .94     -59    -28    -23     66     71 244.7 -19.6  33354  276.08 0865.16
2015 04 09 08 16 13 .19     -54    -23    -21     59     63 246.5 -19.6  33356  276.11 0865.16
2015 04 09 08 16 13 .44     -57    -29    -20     65     68 242.9 -22.8  33356  276.10 0865.16
2015 04 09 08 16 13 .69     -61    -24    -20     66     68 248.2 -22.8  33354  276.06 0865.16
2015 04 09 08 16 13 .94     -69    -22    -12     73     75 251.8  -9.3  33354  276.08 0865.15
2015 04 09 08 16 14 .19     -68    -16    -19     70     73 256.7 -15.5  33354  276.06 0865.15
2015 04 09 08 16 14 .44     -69     -9    -22     70     73 262.1 -23.8  33352  276.03 0865.15
2015 04 09 08 16 14 .69     -61      0    -22     62     66 269.2 -19.6  33352  276.03 0865.15
2015 04 09 08 16 14 .94     -60     -7    -20     61     64 263.0 -23.8  33354  276.06 0865.15
2015 04 09 08 16 15 .20     -69    -14     -9     71     72 258.6  -7.2  33352  276.03 0865.15
2015 04 09 08 16 15 .45     -73    -24      2     78     79 251.4   1.8  33350  276.01 0865.15
2015 04 09 08 16 15 .69     -74    -25    -15     79     81 251.4 -10.9  33354  276.06 0865.16
2015 04 09 08 16 15 .94     -68    -22    -20     72     75 251.8 -15.5  33354  276.06 0865.16
2015 04 09 08 16 16 .19     -70    -20    -20     73     76 254.1 -15.5  33354  276.08 0865.16
2015 04 09 08 16 16 .45     -57    -29    -20     65     68 242.9 -22.8  33356  276.10 0865.16
2015 04 09 08 16 16 .70     -51    -18    -17     55     58 250.0 -17.6  33370  276.33 0865.16
2015 04 09 08 16 16 .95     -53    -33     -2     63     64 237.6  -2.2  33380  276.51 0865.16
2015 04 09 08 16 17 .21     -72    -27     -3     78     79 249.2  -2.2  33384  276.56 0865.16
2015 04 09 08 16 17 .45     -64    -17     13     67     69 254.9  11.0  33392  276.71 0865.16
2015 04 09 08 16 17 .70     -70    -23     -1     74     75 251.8  -1.2  33382  276.54 0865.16
2015 04 09 08 16 17 .95     -55      4      1     56     57 274.4   1.8  33406  276.94 0865.16
2015 04 09 08 16 18 .20     -37     -7     -1     38     39 258.5  -2.2  33416  277.11 0865.16
2015 04 09 08 16 18 .45     -32    -20     -1     38     39 237.6  -2.2  33420  277.16 0865.15
2015 04 09 08 16 18 .71     -32    -20     13     39     42 237.5  18.4  33420  277.16 0865.15
2015 04 09 08 16 18 .97      -9     -5     22     11     24 241.1  72.9  33440  277.51 0865.15
2015 04 09 08 16 19 .21     -12    -16     20     21     29 217.8  52.0  33442  277.54 0865.15
2015 04 09 08 16 19 .46      -6    -15     17     17     24 201.8  50.1  33434  277.41 0865.15
2015 04 09 08 16 19 .71     -11    -23     13     26     29 205.4  27.2  33424  277.22 0865.15
2015 04 09 08 16 19 .96      -8    -11      9     14     16 216.1  35.5  33426  277.26 0865.15
2015 04 09 08 16 20 .22     -13      0      8     14     16 269.2  35.5  33430  277.32 0865.15
2015 04 09 08 16 20 .47     -27      0      1     28     29 269.2   2.8  33436  277.44 0865.15
2015 04 09 08 16 20 .71     -38    -12     -9     41     43 251.6 -13.4  33392  276.71 0865.15
2015 04 09 08 16 20 .97     -41    -24     -7     48     49 239.3  -8.2  33394  276.74 0865.15
2015 04 09 08 16 21 .22     -38    -21      0     44     45 240.2   0.8  33388  276.63 0865.15
2015 04 09 08 16 21 .47     -28     -7      0     30     31 254.9   0.8  33390  276.68 0865.15
2015 04 09 08 16 21 .72     -29      2     -1     30     31 274.3  -2.2  33408  276.96 0865.15
2015 04 09 08 16 21 .97     -43     -8      8     44     45 259.4  11.1  33392  276.69 0865.16
2015 04 09 08 16 22 .22     -54    -18     -2     58     59 250.9  -2.2  33354  276.08 0865.16
2015 04 09 08 16 22 .47     -49    -25     -2     56     57 242.9  -2.2  33354  276.08 0865.16
2015 04 09 08 16 22 .72     -51    -31     -5     60     61 238.5  -5.2  33356  276.11 0865.16
2015 04 09 08 16 22 .97     -57    -23     -3     62     63 248.2  -3.1  33354  276.06 0865.16
2015 04 09 08 16 23 .22     -58    -19     -8     62     63 251.8  -7.3  33354  276.08 0865.16
2015 04 09 08 16 23 .47     -63    -21     -4     67     68 251.4  -4.1  33356  276.11 0865.16
2015 04 09 08 16 23 .72     -60    -16     -3     63     64 254.9  -3.1  33354  276.08 0865.16
2015 04 09 08 16 23 .97     -60    -16     -8     63     64 254.9  -7.3  33354  276.06 0865.15
2015 04 09 08 16 24 .22     -56    -17     -4     59     60 253.2  -4.1  33354  276.06 0865.15
2015 04 09 08 16 24 .47     -58    -13     -7     60     61 256.7  -7.3  33354  276.08 0865.15
2015 04 09 08 16 24 .72     -53    -13     -8     55     56 255.8  -8.2  33356  276.11 0865.15
2015 04 09 08 16 24 .97     -49    -16    -14     52     54 251.4 -15.4  33354  276.06 0865.15
2015 04 09 08 16 25 .22     -52     -7    -19     53     57 262.1 -19.7  33354  276.06 0865.15
2015 04 09 08 16 25 .49     -62     -7    -13     63     65 263.0 -12.4  33354  276.06 0865.15
2015 04 09 08 16 25 .73     -59      0     -9     60     61 269.2  -9.3  33354  276.06 0865.15
2015 04 09 08 16 25 .99     -52      1     -8     53     54 271.7  -9.3  33356  276.11 0865.15
2015 04 09 08 16 26 .24     -56      4     -5     57     58 274.4  -5.2  33354  276.06 0865.15
2015 04 09 08 16 26 .49     -54      4     -9     55     56 274.4 -10.3  33358  276.13 0865.15
2015 04 09 08 16 26 .74     -52     -2    -19     53     57 267.4 -19.7  33356  276.11 0865.15
2015 04 09 08 16 26 .99     -56     -2    -16     57     60 267.4 -15.5  33358  276.13 0865.15
2015 04 09 08 16 27 .24     -57     12    -16     59     62 282.4 -15.5  33358  276.13 0865.15
2015 04 09 08 16 27 .49     -57     12    -16     59     62 282.4 -15.5  33358  276.13 0865.15
2015 04 09 08 16 27 .74     -54     17    -19     57     61 288.2 -18.7  33362  276.20 0865.15
2015 04 09 08 16 27 .99     -59     16    -12     62     64 285.1 -11.3  33358  276.13 0865.15
2015 04 09 08 16 28 .24     -55     22    -21     60     64 291.7 -19.7  33358  276.13 0865.15
2015 04 09 08 16 28 .49     -52     18    -20     56     60 289.1 -19.7  33356  276.11 0865.16
2015 04 09 08 16 28 .74     -48     23    -12     54     56 295.3 -12.4  33358  276.13 0865.16
2015 04 09 08 16 28 .99     -48      2     -5     49     50 272.6  -6.2  33356  276.11 0865.16
2015 04 09 08 16 29 .24     -43     -3     -6     44     45 265.6  -8.2  33354  276.08 0865.16
2015 04 09 08 16 29 .50     -45     -7     -1     46     47 261.2  -2.2  33358  276.13 0865.16
2015 04 09 08 16 29 .75     -43    -12     -5     45     46 254.1  -7.3  33366  276.28 0865.16
2015 04 09 08 16 30 .00     -31     -9      4     33     34 253.2   6.9  33396  276.76 0865.16
2015 04 09 08 16 30 .25     -22    -14      9     27     29 237.6  19.4  33398  276.81 0865.16
2015 04 09 08 16 30 .50     -31     -8      5     33     34 254.9   9.0  33388  276.64 0865.16
2015 04 09 08 16 30 .75     -31    -12     -1     34     35 248.3  -2.2  33374  276.41 0865.16
2015 04 09 08 16 31 .00     -23     -7     -1     25     26 251.8  -2.2  33384  276.56 0865.16
2015 04 09 08 16 31 .25     -32     -7     -1     33     34 256.7  -2.2  33390  276.68 0865.16
2015 04 09 08 16 31 .51     -23     -7     -6     25     26 251.6 -13.4  33394  276.73 0865.16
2015 04 09 08 16 31 .75     -22    -14      1     27     28 237.6   2.8  33410  276.99 0865.16
2015 04 09 08 16 32 .01     -23     -7      0     25     26 251.6  -1.3  33416  277.11 0865.15
2015 04 09 08 16 32 .25     -16     -3     13     17     21 258.5  41.7  33432  277.36 0865.15
2015 04 09 08 16 32 .52     -11     -9     20     15     25 230.5  60.5  33454  277.74 0865.15
2015 04 09 08 16 32 .77     -15      5     16     16     22 288.6  50.1  33482  278.20 0865.15
2015 04 09 08 16 33 .02     -13     17     11     22     24 322.2  27.2  33470  277.99 0865.15
2015 04 09 08 16 33 .26      -7     11      4     14     15 327.5  19.2  33462  277.87 0865.15
2015 04 09 08 16 33 .52     -16     17      0     24     25 316.6   0.8  33436  277.42 0865.15
2015 04 09 08 16 33 .76     -21     16      1     27     28 307.8   2.9  33418  277.12 0865.16
2015 04 09 08 16 34 .01     -16     16      0     24     25 315.0  -2.2  33402  276.86 0865.16
2015 04 09 08 16 34 .27     -14     12     -3     19     20 309.5  -9.3  33378  276.46 0865.16
2015 04 09 08 16 34 .52     -21     19     -1     29     30 313.3  -2.2  33378  276.48 0865.16
2015 04 09 08 16 34 .77     -26     15     -1     31     32 300.7  -2.2  33392  276.69 0865.16
2015 04 09 08 16 35 .02     -28     19     -4     34     35 304.2  -7.3  33420  277.16 0865.16
2015 04 09 08 16 35 .27     -29     16     -1     34     35 298.9  -2.2  33416  277.11 0865.16
2015 04 09 08 16 35 .52     -24      8     -1     26     27 290.0  -2.2  33412  277.02 0865.16
2015 04 09 08 16 35 .78     -31      7     -1     32     33 283.3  -2.2  33426  277.26 0865.16
2015 04 09 08 16 36 .02     -31     15      6     35     36 295.4  11.0  33446  277.59 0865.16
2015 04 09 08 16 36 .27     -13     17     11     22     24 322.2  27.2  33442  277.54 0865.16
2015 04 09 08 16 36 .52     -26     16      3     31     32 302.5   6.9  33408  276.96 0865.16
2015 04 09 08 16 36 .78     -21     21      1     31     32 315.0   2.9  33416  277.09 0865.16
2015 04 09 08 16 37 .02     -10     16     21     19     28 327.4  50.1  33442  277.52 0865.16
2015 04 09 08 16 37 .28      -1      0     22      2     22 251.6  90.0  33456  277.77 0865.16
2015 04 09 08 16 37 .53     -10      0     26     11     28 270.0  79.2  33472  278.02 0865.16
2015 04 09 08 16 37 .77     -10      5     26     12     28 295.3  75.0  33478  278.12 0865.16
2015 04 09 08 16 38 .02     -16      5     22     17     27 288.2  58.5  33472  278.02 0865.16
2015 04 09 08 16 38 .28     -15     -1     22     16     27 265.7  60.5  33484  278.22 0865.16
2015 04 09 08 16 38 .53     -18      1     19     19     26 274.4  50.1  33482  278.19 0865.15
2015 04 09 08 16 38 .78     -30     24     -1     39     40 309.6  -2.2  33438  277.46 0865.15
2015 04 09 08 16 39 .03     -40     26     -5     49     50 303.3  -6.2  33454  277.72 0865.15
2015 04 09 08 16 39 .28     -56      4      0     57     58 274.4   0.8  33460  277.84 0865.16
2015 04 09 08 16 39 .54     -52      0     -8     53     54 270.0  -9.3  33408  276.96 0865.16
2015 04 09 08 16 39 .80     -46     -7     -2     47     48 260.3  -3.1  33452  277.69 0865.16
2015 04 09 08 16 40 .04     -22      8     22     24     32 290.0  50.0  33462  277.87 0865.16
2015 04 09 08 16 40 .29      -9      1     16     10     18 281.5  64.7  33466  277.94 0865.16
2015 04 09 08 16 40 .54     -13     -8      0     16     17 237.6   2.8  33472  278.02 0865.16
2015 04 09 08 16 40 .79     -15      0    -16     16     22 270.0 -54.5  33442  277.52 0865.16
2015 04 09 08 16 41 .04     -13      0      2     14     15 270.0  11.1  33436  277.42 0865.16
2015 04 09 08 16 41 .29     -69     -5    -14     70     72 265.6 -11.3  33362  276.21 0865.16
2015 04 09 08 16 41 .55     -73     -5    -20     74     77 265.7 -15.5  33366  276.26 0865.16
2015 04 09 08 16 41 .80     -75    -14     -1     77     78 259.4  -1.2  33396  276.78 0865.16
2015 04 09 08 16 42 .05     -75    -15    -14     77     79 258.5 -10.9  33386  276.61 0865.16
2015 04 09 08 16 42 .29     -67    -28    -19     73     76 247.4 -14.5  33390  276.68 0865.16
2015 04 09 08 16 42 .55     -65    -33      8     74     75 242.9   6.9  33418  277.12 0865.16
2015 04 09 08 16 42 .79     -48    -12     17     50     54 255.8  19.4  33422  277.19 0865.15
2015 04 09 08 16 43 .05     -75     -1    -15     76     78 269.2 -11.3  33368  276.31 0865.15
2015 04 09 08 16 43 .30     -84      0    -10     85     86 269.6  -7.3  33366  276.26 0865.15
2015 04 09 08 16 43 .55     -70    -14     -2     72     73 258.6  -2.2  33374  276.41 0865.15
2015 04 09 08 16 43 .80     -80    -12    -10     81     82 261.2  -7.7  33382  276.54 0865.15
2015 04 09 08 16 44 .05     -90     -8    -14     91     93 264.8  -8.8  33372  276.36 0865.15
2015 04 09 08 16 44 .30     -69    -22    -10     73     74 251.8  -8.2  33384  276.58 0865.15
2015 04 09 08 16 44 .55     -52    -29     -5     60     61 240.2  -5.2  33396  276.76 0865.15
2015 04 09 08 16 44 .80     -47    -38     -3     61     62 230.5  -3.1  33400  276.83 0865.16
2015 04 09 08 16 45 .05     -78    -15     -6     80     81 258.5  -4.6  33418  277.14 0865.16
2015 04 09 08 16 45 .30     -52     -4      3     53     54 265.7   3.8  33416  277.11 0865.16
2015 04 09 08 16 45 .55     -58    -13     -7     60     61 256.7  -7.3  33390  276.68 0865.16
2015 04 09 08 16 45 .80     -47    -32    -10     58     59 235.8 -10.3  33390  276.66 0865.16
2015 04 09 08 16 46 .06     -55    -37     -8     67     68 235.8  -7.3  33392  276.71 0865.16
2015 04 09 08 16 46 .31     -76    -26    -12     81     82 250.9  -8.8  33390  276.68 0865.16
2015 04 09 08 16 46 .57     -82    -42     -3     93     94 242.5  -2.2  33398  276.81 0865.16
2015 04 09 08 16 46 .82     -49    -13      0     51     52 254.9   0.8  33406  276.92 0865.16
2015 04 09 08 16 47 .07     -29    -24      0     38     39 230.5   0.8  33384  276.58 0865.16
2015 04 09 08 16 47 .32     -36    -18      1     41     42 242.9   1.8  33394  276.73 0865.16
2015 04 09 08 16 47 .57     -20      8      3     22     23 293.5   9.0  33414  277.07 0865.16
2015 04 09 08 16 47 .82     -33      0     11     34     36 270.0  18.9  33406  276.92 0865.16
2015 04 09 08 16 48 .07     -28    -13    -13     32     34 244.7 -25.4  33412  277.02 0865.16
2015 04 09 08 16 48 .32     -22    -14      1     27     28 237.6   2.8  33424  277.24 0865.16
2015 04 09 08 16 48 .57     -43    -12     -1     45     46 254.1  -1.3  33422  277.21 0865.16
2015 04 09 08 16 48 .82     -33     -4     -4     34     35 262.1  -7.3  33416  277.11 0865.16
2015 04 09 08 16 49 .07     -51     10     -2     53     54 281.4  -2.2  33390  276.68 0865.16
2015 04 09 08 16 49 .33     -55      8     -7     56     57 278.8  -7.3  33370  276.34 0865.16
2015 04 09 08 16 49 .57     -62      4    -13     63     65 274.4 -12.4  33384  276.56 0865.16
2015 04 09 08 16 49 .83     -69      6    -14     70     72 275.2 -11.3  33392  276.71 0865.16
2015 04 09 08 16 50 .08     -46     19      2     50     51 292.6   2.9  33398  276.81 0865.16
2015 04 09 08 16 50 .32     -62      0      0     63     64 270.9   0.8  33366  276.28 0865.16
2015 04 09 08 16 50 .58     -69      0    -14     70     72 270.8 -11.3  33360  276.16 0865.16
2015 04 09 08 16 50 .83     -70      1     -9     71     72 270.9  -7.2  33366  276.28 0865.16
2015 04 09 08 16 51 .07     -66     -1    -12     67     69 269.1 -10.3  33358  276.13 0865.16
2015 04 09 08 16 51 .32     -69     -5    -14     70     72 265.6 -11.3  33360  276.16 0865.16
2015 04 09 08 16 51 .58     -68      9    -14     69     71 277.9 -11.5  33356  276.10 0865.16
2015 04 09 08 16 51 .83     -78     17     -9     81     82 282.8  -6.7  33358  276.15 0865.16
2015 04 09 08 16 52 .08     -76     15    -18     78     81 281.5 -12.9  33354  276.08 0865.16
2015 04 09 08 16 52 .33     -82     27    -12     87     88 288.4  -8.2  33354  276.08 0865.16
2015 04 09 08 16 52 .58     -83     20     -4     86     87 283.7  -3.1  33358  276.15 0865.16
2015 04 09 08 16 52 .83     -71     14    -19     73     76 281.5 -15.0  33356  276.10 0865.16
2015 04 09 08 16 53 .08     -71      5    -19     72     75 274.3 -15.4  33358  276.13 0865.16
2015 04 09 08 16 53 .34     -82     -4    -14     83     85 267.0  -9.8  33356  276.11 0865.16
2015 04 09 08 16 53 .59     -96     -8     -5     97     98 265.2  -3.1  33360  276.16 0865.16
2015 04 09 08 16 53 .84     -87    -16    -24     89     93 259.0 -15.0  33354  276.08 0865.16
2015 04 09 08 16 54 .09     -87     -5    -21     88     91 266.5 -13.9  33356  276.11 0865.16
2015 04 09 08 16 54 .34     -89     -7    -14     90     92 265.2  -9.3  33360  276.16 0865.16
2015 04 09 08 16 54 .59     -87     -6    -23     88     92 265.6 -15.0  33358  276.13 0865.16
2015 04 09 08 16 54 .85     -88    -17    -14     90     92 259.0  -9.3  33360  276.16 0865.16
2015 04 09 08 16 55 .10     -88    -20    -12     91     92 257.2  -7.7  33376  276.43 0865.16
2015 04 09 08 16 55 .35     -74    -13    -11     76     77 259.4  -8.2  33382  276.53 0865.16
2015 04 09 08 16 55 .59     -76    -20     -5     79     80 254.9  -4.1  33384  276.56 0865.16
2015 04 09 08 16 55 .85     -76    -20     -5     79     80 254.9  -4.1  33380  276.51 0865.16
2015 04 09 08 16 56 .09     -73    -24    -10     78     79 251.4  -7.7  33378  276.46 0865.16
2015 04 09 08 16 56 .35     -66    -17    -12     69     71 255.0 -10.3  33366  276.28 0865.16
2015 04 09 08 16 56 .60     -77    -10    -15     78     80 262.0 -11.3  33370  276.33 0865.16
2015 04 09 08 16 56 .85     -66    -22     -2     70     71 251.4  -2.2  33408  276.97 0865.16
2015 04 09 08 16 57 .10     -64     -8      3     65     66 262.1   2.9  33400  276.83 0865.16
2015 04 09 08 16 57 .35     -48    -13      0     50     51 254.9  -0.3  33394  276.74 0865.17
2015 04 09 08 16 57 .60     -40    -12      3     42     43 253.2   4.9  33398  276.81 0865.17
2015 04 09 08 16 57 .85     -40    -12      3     42     43 253.2   4.9  33390  276.66 0865.17
2015 04 09 08 16 58 .10     -46     -7     -2     47     48 260.3  -3.1  33370  276.33 0865.17
2015 04 09 08 16 58 .35     -46     -7     -2     47     48 260.3  -3.1  33366  276.28 0865.17
2015 04 09 08 16 58 .60     -46     -7     -8     47     48 260.3 -10.3  33356  276.10 0865.17
2015 04 09 08 16 58 .85     -48     -3     -4     49     50 265.6  -5.2  33356  276.11 0865.17
2015 04 09 08 16 59 .10     -57      2     -7     58     59 272.6  -7.3  33358  276.13 0865.17
2015 04 09 08 16 59 .36     -57      2     -7     58     59 272.6  -7.3  33358  276.13 0865.16
2015 04 09 08 16 59 .61     -56     -1    -11     57     59 268.3 -11.3  33372  276.38 0865.16
2015 04 09 08 16 59 .86     -47     -1     -7     48     49 268.3  -9.3  33386  276.59 0865.16
2015 04 09 08 17 00 .10     -43     -4      0     44     45 263.9  -0.3  33374  276.41 0865.16
2015 04 09 08 17 00 .36     -49    -13      0     51     52 254.9   0.8  33374  276.39 0865.16
2015 04 09 08 17 00 .62     -35    -18     -1     40     41 242.9  -2.2  33378  276.48 0865.16
2015 04 09 08 17 00 .87     -43    -23     -1     49     50 242.0  -2.2  33384  276.58 0865.16
2015 04 09 08 17 01 .13     -32    -15    -10     36     38 244.6 -15.4  33420  277.16 0865.17
2015 04 09 08 17 01 .37     -28    -13      2     31     32 244.7   4.9  33426  277.26 0865.17
2015 04 09 08 17 01 .62     -46      0      2     47     48 269.2   2.9  33420  277.16 0865.17
2015 04 09 08 17 01 .87     -35     -2     -4     36     37 265.6  -7.3  33422  277.21 0865.17
2015 04 09 08 17 02 .13     -31     -8      0     33     34 254.9  -1.2  33428  277.29 0865.17
2015 04 09 08 17 02 .37     -27      4     -3     28     29 279.7  -7.3  33416  277.11 0865.17
2015 04 09 08 17 02 .62     -29      8     -1     31     32 285.1  -2.2  33416  277.11 0865.17
2015 04 09 08 17 02 .87     -32      5     -1     33     34 279.7  -2.2  33412  277.04 0865.16
2015 04 09 08 17 03 .12     -21      7     -3     23     24 288.2  -9.3  33408  276.96 0865.16
2015 04 09 08 17 03 .38     -19     28      3     35     36 325.7   4.9  33410  277.01 0865.16
2015 04 09 08 17 03 .63     -15     17      8     24     26 318.6  18.9  33434  277.41 0865.16
2015 04 09 08 17 03 .87     -18     -4     13     19     23 254.9  39.7  33446  277.61 0865.16
2015 04 09 08 17 04 .12     -15     -1     16     16     22 265.7  50.1  33454  277.74 0865.16
2015 04 09 08 17 04 .38     -28     -1      1     29     30 267.4   2.9  33434  277.39 0865.16
2015 04 09 08 17 04 .63     -12     -8      0     15     16 237.6   2.8  33452  277.70 0865.16
2015 04 09 08 17 04 .88      -2     -7     16      8     17 198.5  72.9  33466  277.94 0865.16
2015 04 09 08 17 05 .12     -11     -8     20     14     24 234.0  60.5  33464  277.89 0865.16
2015 04 09 08 17 05 .37     -12     -4     11     13     17 251.8  47.9  33442  277.54 0865.16
2015 04 09 08 17 05 .63      -8     -2      8      9     12 251.8  47.9  33438  277.46 0865.16
2015 04 09 08 17 05 .88     -10      5      0     12     13 295.3  -2.2  33454  277.72 0865.16
2015 04 09 08 17 06 .13      -6      6      5      9     10 316.6  31.4  33460  277.82 0865.16
2015 04 09 08 17 06 .38     -26     -3     11     27     29 262.1  21.0  33440  277.49 0865.16
2015 04 09 08 17 06 .63     -48     -9    -13     49     51 259.4 -15.5  33404  276.91 0865.16
2015 04 09 08 17 06 .88     -59     12    -10     61     62 281.4  -9.3  33392  276.71 0865.16
2015 04 09 08 17 07 .13     -52      7    -16     53     56 277.9 -17.6  33378  276.48 0865.16
2015 04 09 08 17 07 .39     -57      7    -13     58     60 277.0 -13.4  33378  276.46 0865.16
2015 04 09 08 17 07 .64     -58     11    -18     60     63 281.5 -16.6  33376  276.44 0865.16
2015 04 09 08 17 07 .89     -61      4    -13     62     64 274.3 -12.4  33380  276.51 0865.16
2015 04 09 08 17 08 .15     -70      4    -17     71     74 273.5 -13.4  33386  276.59 0865.16
2015 04 09 08 17 08 .40     -81     -1    -11     82     83 268.7  -8.2  33396  276.78 0865.16
2015 04 09 08 17 08 .64     -62     -4     -5     63     64 265.6  -5.2  33384  276.56 0865.16
2015 04 09 08 17 08 .90     -65      0     -8     66     67 270.8  -7.3  33380  276.51 0865.16
2015 04 09 08 17 09 .15     -66      9     -3     67     68 277.9  -3.1  33388  276.63 0865.16
2015 04 09 08 17 09 .40     -59      0    -12     60     62 270.0 -11.3  33382  276.53 0865.16
2015 04 09 08 17 09 .65     -82     27      0     87     88 288.4  -0.3  33388  276.63 0865.16
2015 04 09 08 17 09 .90     -92     17    -11     94     95 280.6  -7.2  33384  276.56 0865.16
2015 04 09 08 17 10 .15     -95     35     -2    102    103 290.4  -1.3  33410  276.99 0865.16
2015 04 09 08 17 10 .40     -66     27     14     72     74 292.6  11.1  33414  277.06 0865.16
2015 04 09 08 17 10 .65     -85     22    -21     88     91 284.6 -13.9  33378  276.46 0865.16
2015 04 09 08 17 10 .90     -92     12    -21     93     96 277.9 -12.9  33378  276.46 0865.16
2015 04 09 08 17 11 .15     -77     15    -25     79     83 281.5 -17.6  33380  276.51 0865.16
2015 04 09 08 17 11 .40     -68     13    -14     70     72 281.5 -11.3  33378  276.46 0865.16
2015 04 09 08 17 11 .65     -66     19    -12     69     71 286.8 -10.3  33376  276.43 0865.16
2015 04 09 08 17 11 .90     -84     18    -19     87     90 282.4 -12.4  33372  276.38 0865.16
2015 04 09 08 17 12 .16     -76     25    -14     81     83 288.6  -9.8  33380  276.51 0865.16
2015 04 09 08 17 12 .40     -73     25      2     78     79 289.1   1.8  33372  276.36 0865.16
2015 04 09 08 17 12 .66     -58     37     -7     69     70 302.5  -6.2  33370  276.33 0865.16
2015 04 09 08 17 12 .90     -56     30    -22     64     68 298.9 -19.6  33370  276.33 0865.16
2015 04 09 08 17 13 .16     -41     28    -22     50     54 304.2 -30.6  33366  276.28 0865.16
2015 04 09 08 17 13 .40     -29     21    -22     36     42 306.0 -38.8  33370  276.33 0865.16
2015 04 09 08 17 13 .65     -37     20    -17     43     46 298.0 -26.4  33366  276.28 0865.16
2015 04 09 08 17 13 .91     -41      9    -14     42     44 282.4 -23.6  33364  276.23 0865.16
2015 04 09 08 17 14 .17     -32     20    -13     39     41 302.4 -23.6  33366  276.28 0865.16
2015 04 09 08 17 14 .42     -34     15     -4     38     39 293.5  -7.3  33368  276.31 0865.16
2015 04 09 08 17 14 .67     -19     19     -7     27     29 315.0 -15.5  33364  276.25 0865.16
2015 04 09 08 17 14 .92     -28     20    -11     35     37 306.0 -17.6  33364  276.23 0865.16
2015 04 09 08 17 15 .17     -29     16     -5     34     35 298.9  -9.3  33360  276.18 0865.16
2015 04 09 08 17 15 .42     -39     19    -11     44     46 296.2 -14.5  33360  276.18 0865.16
2015 04 09 08 17 15 .67     -53     17    -19     56     59 288.6 -23.6  33358  276.15 0865.16
2015 04 09 08 17 15 .92     -36     19    -14     41     44 298.0 -19.7  33362  276.20 0865.16
2015 04 09 08 17 16 .17     -35     15    -16     39     42 293.5 -27.4  33362  276.21 0865.16
2015 04 09 08 17 16 .42     -49      9    -15     50     52 280.6 -21.7  33360  276.16 0865.16
2015 04 09 08 17 16 .67     -43     15    -14     46     49 289.1 -16.6  33360  276.16 0865.16
2015 04 09 08 17 16 .92     -42     22    -13     48     50 298.0 -15.5  33358  276.15 0865.16
2015 04 09 08 17 17 .17     -48     16    -13     51     53 288.6 -14.5  33360  276.18 0865.16
2015 04 09 08 17 17 .43     -45     13    -16     47     50 286.8 -18.7  33372  276.38 0865.16
2015 04 09 08 17 17 .69     -47      0    -12     48     50 270.8 -14.5  33394  276.73 0865.16
2015 04 09 08 17 17 .93     -58      7      7     59     60 277.0   6.9  33416  277.09 0865.16
2015 04 09 08 17 18 .18     -48     16      8     51     52 288.4   9.0  33404  276.91 0865.16
2015 04 09 08 17 18 .43     -28     13     15     31     34 295.2  27.2  33418  277.12 0865.16
2015 04 09 08 17 18 .68     -36      1     22     37     43 272.6  33.5  33430  277.32 0865.16
2015 04 09 08 17 18 .93     -38      2      5     39     40 274.4   8.0  33410  276.99 0865.16
2015 04 09 08 17 19 .18     -49     13     -2     51     52 285.1  -2.2  33358  276.15 0865.16
2015 04 09 08 17 19 .43     -48     16     -3     51     52 288.4  -4.1  33356  276.11 0865.16
2015 04 09 08 17 19 .68     -54     18     -5     58     59 289.1  -5.2  33360  276.16 0865.16
2015 04 09 08 17 19 .93     -46     21     -9     51     52 294.4 -10.3  33360  276.16 0865.16
2015 04 09 08 17 20 .18     -48     16     -3     51     52 288.4  -4.1  33356  276.11 0865.17
2015 04 09 08 17 20 .43     -48     16     -3     51     52 288.4  -4.1  33356  276.11 0865.17
2015 04 09 08 17 20 .68     -48      8     -5     49     50 279.7  -6.2  33356  276.11 0865.17
2015 04 09 08 17 20 .93     -41      9     -1     42     43 282.4  -2.2  33360  276.18 0865.17
2015 04 09 08 17 21 .19     -38     12     -1     41     42 288.4  -2.2  33360  276.16 0865.17
2015 04 09 08 17 21 .45     -40      8     -9     41     42 281.5 -12.4  33386  276.61 0865.17
2015 04 09 08 17 21 .70     -23     23     11     33     36 314.9  19.4  33422  277.19 0865.17
2015 04 09 08 17 21 .95     -17     17     13     25     28 315.0  29.3  33428  277.31 0865.17
2015 04 09 08 17 22 .20     -28      4     10     29     31 279.7  19.4  33432  277.36 0865.17
2015 04 09 08 17 22 .45     -34      6      1     35     36 281.5   2.8  33426  277.27 0865.17
2015 04 09 08 17 22 .69     -18     11      5     22     23 300.7  13.2  33434  277.41 0865.17
2015 04 09 08 17 22 .95     -22      4      7     23     25 281.5  17.3  33414  277.07 0865.17
2015 04 09 08 17 23 .19     -31      3      5     32     33 276.1   9.0  33384  276.56 0865.17
2015 04 09 08 17 23 .45     -32      5     -1     33     34 279.7  -2.2  33358  276.13 0865.17
2015 04 09 08 17 23 .70     -34     16     -3     38     39 295.3  -5.2  33358  276.15 0865.17
2015 04 09 08 17 23 .96     -42     13     -4     45     46 287.7  -5.2  33368  276.30 0865.17
2015 04 09 08 17 24 .21     -39      7     -1     40     41 280.6  -2.2  33412  277.04 0865.17
2015 04 09 08 17 24 .45     -42      0    -13     43     46 270.0 -17.6  33402  276.86 0865.17
2015 04 09 08 17 24 .70     -39      0      4     40     41 270.8   5.9  33432  277.37 0865.17
2015 04 09 08 17 24 .95     -36      1     10     37     39 272.6  15.3  33434  277.41 0865.17
2015 04 09 08 17 25 .20     -26      2     11     27     29 274.4  21.0  33434  277.39 0865.17
2015 04 09 08 17 25 .45     -38      0     13     39     42 270.0  19.2  33432  277.36 0865.17
2015 04 09 08 17 25 .70     -29     -3     -1     30     31 263.9  -2.2  33434  277.41 0865.17
2015 04 09 08 17 25 .95     -16    -12      7     21     23 232.2  19.4  33438  277.47 0865.17
2015 04 09 08 17 26 .20      -8     -7      0     11     12 226.9  -2.2  33430  277.32 0865.17
2015 04 09 08 17 26 .46      -6     -2      2      7      8 244.7  19.4  33416  277.09 0865.17
2015 04 09 08 17 26 .71       0    -15     13     16     20 179.1  43.7  33444  277.56 0865.17
2015 04 09 08 17 26 .95      -8      9     22     13     25 316.6  64.7  33466  277.92 0865.17
2015 04 09 08 17 27 .21     -11     12     14     17     22 316.8  43.7  33444  277.57 0865.17
2015 04 09 08 17 27 .46      -8      8      8     12     14 315.0  39.7  33444  277.56 0865.17
2015 04 09 08 17 27 .71      -9      0      9     10     13 270.8  52.0  33438  277.46 0865.17
2015 04 09 08 17 27 .96      -4      0      7      5      8 281.5  56.4  33440  277.49 0865.17
2015 04 09 08 17 28 .22     -11    -12     11     17     20 223.4  37.6  33436  277.42 0865.17
2015 04 09 08 17 28 .47     -41    -19      3     46     47 244.7   3.8  33404  276.91 0865.16
2015 04 09 08 17 28 .72     -38    -12     -9     41     42 251.6 -12.4  33426  277.26 0865.16
2015 04 09 08 17 28 .98     -23      4     -6     24     25 281.5 -15.5  33440  277.49 0865.16
2015 04 09 08 17 29 .22     -17     18     13     25     28 316.6  29.3  33450  277.67 0865.16
2015 04 09 08 17 29 .48       1      4     26      5     26  11.6  90.0  33468  277.97 0865.16
2015 04 09 08 17 29 .72      -2     -7     22      8     23 198.5  81.2  33472  278.02 0865.16
2015 04 09 08 17 29 .97      -2     -7     28      8     29 198.5  80.7  33448  277.64 0865.16
2015 04 09 08 17 30 .22     -16     -7     22     18     28 244.7  54.3  33426  277.26 0865.16
2015 04 09 08 17 30 .48      -7    -11      2     14     15 212.6  11.1  33428  277.29 0865.16
2015 04 09 08 17 30 .73      -6    -15     17     17     24 201.8  50.1  33438  277.46 0865.16
2015 04 09 08 17 30 .98     -16     -7     21     18     27 244.7  54.3  33456  277.77 0865.16
2015 04 09 08 17 31 .23     -12     -8     26     15     30 234.0  66.8  33466  277.92 0865.17
2015 04 09 08 17 31 .48      -4      1     20      5     20 288.4  86.9  33482  278.19 0865.17
2015 04 09 08 17 31 .73      -5    -12     20     14     24 201.8  60.5  33470  277.99 0865.17
2015 04 09 08 17 31 .98     -13      1     17     14     22 277.9  56.4  33468  277.97 0865.17
2015 04 09 08 17 32 .23     -39      5     -5     40     41 277.9  -7.3  33436  277.42 0865.17
2015 04 09 08 17 32 .48     -44     -4     -5     45     46 263.9  -7.3  33400  276.83 0865.17
2015 04 09 08 17 32 .74     -61      0     -3     62     63 270.9  -3.1  33422  277.21 0865.17
2015 04 09 08 17 32 .98     -43     -4     -6     44     45 263.9  -8.2  33416  277.09 0865.16
2015 04 09 08 17 33 .23     -27    -35    -21     45     49 217.0 -31.6  33438  277.46 0865.16
2015 04 09 08 17 33 .49       2    -26      9     27     29 175.6  19.4  33444  277.56 0865.16
2015 04 09 08 17 33 .73     -11    -17     13     21     24 214.3  35.5  33460  277.82 0865.16
2015 04 09 08 17 33 .98     -24    -12      1     27     28 242.9   2.9  33436  277.44 0865.16
2015 04 09 08 17 34 .23     -23     -7    -13     25     28 251.6 -33.7  33406  276.92 0865.16
2015 04 09 08 17 34 .49     -53      0    -19     54     58 269.2 -19.7  33398  276.81 0865.16
2015 04 09 08 17 34 .73     -61     20    -19     65     68 288.2 -16.6  33386  276.59 0865.16
2015 04 09 08 17 35 .00     -78     -7     -7     79     80 264.8  -5.6  33396  276.78 0865.16
2015 04 09 08 17 35 .25     -53     31     11     62     63 300.7  10.1  33430  277.34 0865.16
2015 04 09 08 17 35 .50     -66     13    -12     68     70 281.4 -10.3  33376  276.43 0865.16
2015 04 09 08 17 35 .77     -67     11    -12     68     70 279.7 -10.3  33384  276.58 0865.16
2015 04 09 08 17 36 .00     -64     -7     -8     65     66 263.0  -7.2  33414  277.07 0865.16
2015 04 09 08 17 36 .25     -48      0     -4     49     50 270.8  -5.2  33408  276.96 0865.16
2015 04 09 08 17 36 .50     -47    -12     -4     49     50 254.9  -5.2  33426  277.26 0865.16
2015 04 09 08 17 36 .75     -41    -42     24     59     63 224.1  23.0  33446  277.59 0865.16
2015 04 09 08 17 37 .00     -68    -43     -7     81     82 237.6  -5.6  33408  276.97 0865.16
2015 04 09 08 17 37 .25     -51    -18    -17     55     58 250.0 -17.6  33408  276.97 0865.16
2015 04 09 08 17 37 .50     -74    -15    -22     76     80 258.5 -16.6  33418  277.14 0865.16
2015 04 09 08 17 37 .75     -59     19     -2     63     64 288.2  -2.2  33414  277.07 0865.16
2015 04 09 08 17 38 .01     -72      1    -19     73     76 270.8 -15.0  33372  276.36 0865.16
2015 04 09 08 17 38 .26     -78    -15     -2     80     81 258.5  -1.8  33404  276.91 0865.16
2015 04 09 08 17 38 .51     -73      4      2     74     75 273.5   1.8  33398  276.81 0865.16
2015 04 09 08 17 38 .75     -83      0    -11     84     85 270.0  -7.7  33376  276.43 0865.16
2015 04 09 08 17 39 .01     -86    -11    -25     87     91 262.5 -16.0  33392  276.71 0865.16
2015 04 09 08 17 39 .26     -76     -1     -8     77     78 269.1  -6.2  33400  276.83 0865.16
2015 04 09 08 17 39 .51     -47      7      1     48     49 278.8   1.8  33428  277.29 0865.15
2015 04 09 08 17 39 .76     -13      1     30     14     33 277.9  73.1  33450  277.65 0865.15
2015 04 09 08 17 40 .01       6      5     16      8     17  50.5  72.9  33448  277.62 0865.15
2015 04 09 08 17 40 .25      11     17     11     21     23  34.3  29.3  33440  277.49 0865.15
2015 04 09 08 17 40 .51      -5     16     13     17     21 341.3  41.7  33438  277.46 0865.15
2015 04 09 08 17 40 .76     -15      0     16     16     22 270.0  50.1  33446  277.59 0865.15
2015 04 09 08 17 41 .01     -48     -5      0     49     50 263.9   0.8  33396  276.78 0865.15
2015 04 09 08 17 41 .26     -65      6     -8     66     67 276.1  -7.3  33380  276.51 0865.16
2015 04 09 08 17 41 .52     -56     -8     -6     57     58 261.2  -6.2  33402  276.86 0865.16
2015 04 09 08 17 41 .76     -47    -30     19     56     60 237.6  18.9  33412  277.04 0865.16
2015 04 09 08 17 42 .02     -76    -31     -3     83     84 247.4  -2.6  33384  276.58 0865.16
2015 04 09 08 17 42 .27     -85    -28     -8     90     91 251.4  -5.6  33370  276.33 0865.16
2015 04 09 08 17 42 .52     -70    -14    -17     72     75 258.5 -13.4  33364  276.23 0865.16
2015 04 09 08 17 42 .77     -74    -20    -21     77     80 254.9 -15.5  33358  276.15 0865.16
2015 04 09 08 17 43 .02     -69    -18    -22     72     75 255.0 -23.8  33358  276.13 0865.16
2015 04 09 08 17 43 .27     -77    -13    -22     79     82 260.3 -20.2  33354  276.08 0865.16
2015 04 09 08 17 43 .52     -83    -23    -35     87     93 254.1 -26.9  33358  276.13 0865.16
2015 04 09 08 17 43 .77     -83    -23    -35     87     93 254.1 -26.9  33358  276.13 0865.16
2015 04 09 08 17 44 .02     -85    -17    -34     87     93 258.5 -26.4  33354  276.08 0865.16
2015 04 09 08 17 44 .27     -79    -25    -31     83     88 252.3 -25.4  33354  276.08 0865.16
2015 04 09 08 17 44 .53     -67    -38    -29     78     83 240.2 -25.4  33362  276.21 0865.16
2015 04 09 08 17 44 .78     -67    -32    -15     75     77 244.6 -11.3  33366  276.26 0865.16
2015 04 09 08 17 45 .03     -86    -46    -12     98     99 241.6  -7.2  33374  276.41 0865.15
2015 04 09 08 17 45 .29     -81    -47    -12     94     95 239.8  -7.7  33400  276.84 0865.15
2015 04 09 08 17 45 .53     -70    -39      1     81     82 241.1   1.2  33410  277.01 0865.15
2015 04 09 08 17 45 .78     -76    -15    -15     78     80 258.5 -10.9  33374  276.41 0865.15
2015 04 09 08 17 46 .03     -81    -21    -27     84     88 255.4 -23.3  33358  276.13 0865.15
2015 04 09 08 17 46 .28     -79    -16    -24     81     84 258.5 -21.7  33352  276.05 0865.15
2015 04 09 08 17 46 .53     -74    -29    -24     80     83 248.3 -22.3  33356  276.11 0865.15
2015 04 09 08 17 46 .78     -67    -38    -22     78     81 240.2 -20.7  33360  276.18 0865.16
2015 04 09 08 17 47 .03     -67    -38    -22     78     81 240.2 -20.7  33360  276.18 0865.16
2015 04 09 08 17 47 .28     -69    -33    -31     77     83 244.6 -27.4  33358  276.13 0865.16
2015 04 09 08 17 47 .53     -71    -33    -24     79     82 244.6 -21.7  33360  276.16 0865.16
2015 04 09 08 17 47 .78     -61    -29    -21     68     72 244.7 -17.6  33358  276.13 0865.16
2015 04 09 08 17 48 .03     -62    -27    -12     68     70 246.5 -10.3  33358  276.13 0865.16
2015 04 09 08 17 48 .28     -69    -38    -26     79     84 241.1 -18.7  33360  276.16 0865.16
2015 04 09 08 17 48 .54     -77    -37    -24     86     89 243.8 -20.7  33356  276.11 0865.16
2015 04 09 08 17 48 .79     -77    -32    -26     84     87 247.4 -22.8  33358  276.13 0865.16
2015 04 09 08 17 49 .05     -67    -28    -19     73     76 247.4 -14.5  33358  276.13 0865.16
2015 04 09 08 17 49 .30     -79    -36     -6     88     89 245.2  -4.1  33356  276.11 0865.16
2015 04 09 08 17 49 .55     -75    -31    -18     82     85 247.4 -12.9  33358  276.13 0865.16
2015 04 09 08 17 49 .80     -71    -33    -21     79     82 244.8 -15.0  33360  276.16 0865.16
2015 04 09 08 17 50 .05     -79    -31    -14     86     88 248.3  -9.8  33360  276.16 0865.16
2015 04 09 08 17 50 .30     -73    -38    -17     83     85 242.0 -11.9  33358  276.13 0865.16
2015 04 09 08 17 50 .55     -67    -42    -16     80     82 237.6 -11.9  33360  276.16 0865.16
2015 04 09 08 17 50 .80     -67    -42    -16     80     82 237.6 -11.9  33360  276.16 0865.16
2015 04 09 08 17 51 .05     -67    -42    -16     80     82 237.6 -11.9  33360  276.16 0865.16
2015 04 09 08 17 51 .30     -70    -39    -10     81     82 241.1  -7.3  33356  276.11 0865.16
2015 04 09 08 17 51 .55     -71    -33    -21     79     82 244.8 -15.0  33360  276.16 0865.16
2015 04 09 08 17 51 .80     -71    -33    -21     79     82 244.8 -15.0  33360  276.16 0865.16
2015 04 09 08 17 52 .05     -75    -31    -18     82     85 247.4 -12.9  33358  276.13 0865.16
2015 04 09 08 17 52 .30     -71    -27    -15     77     79 249.2 -11.3  33356  276.10 0865.16
2015 04 09 08 17 52 .55     -68    -27    -17     74     77 248.3 -13.4  33356  276.11 0865.16
2015 04 09 08 17 52 .80     -62    -28    -12     69     71 245.6 -10.3  33360  276.18 0865.16
2015 04 09 08 17 53 .05     -71    -33    -13     79     81 244.8  -9.3  33358  276.13 0865.16
2015 04 09 08 17 53 .31     -71    -27    -15     77     79 249.2 -11.3  33356  276.10 0865.16
2015 04 09 08 17 53 .56     -71    -27    -15     77     79 249.2 -11.3  33356  276.10 0865.16
2015 04 09 08 17 53 .81     -64    -22    -23     68     72 250.9 -18.7  33358  276.13 0865.16
2015 04 09 08 17 54 .06     -68    -23    -24     72     75 250.9 -23.6  33362  276.21 0865.16
2015 04 09 08 17 54 .31     -64    -22    -23     68     72 250.9 -18.7  33358  276.13 0865.16
2015 04 09 08 17 54 .56     -62    -33    -25     71     76 242.0 -19.7  33360  276.16 0865.16
2015 04 09 08 17 54 .81     -64    -22    -23     68     72 250.9 -18.7  33358  276.13 0865.16
2015 04 09 08 17 55 .06     -59    -23    -17     64     67 248.3 -15.4  33358  276.13 0865.16
2015 04 09 08 17 55 .31     -59    -23    -17     64     67 248.3 -15.4  33358  276.13 0865.16
2015 04 09 08 17 55 .56     -57    -18    -15     60     62 251.8 -14.5  33356  276.11 0865.16
2015 04 09 08 17 55 .81     -59    -23    -17     64     67 248.3 -15.4  33358  276.13 0865.16
2015 04 09 08 17 56 .07     -52    -18    -15     56     59 250.9 -15.5  33358  276.13 0865.16
2015 04 09 08 17 56 .32     -59    -23    -17     64     67 248.3 -15.4  33358  276.13 0865.16
2015 04 09 08 17 56 .57     -58    -15    -17     61     64 254.9 -15.5  33358  276.15 0865.16
2015 04 09 08 17 56 .82     -65    -19    -18     68     71 253.2 -15.4  33360  276.18 0865.16
2015 04 09 08 17 57 .08     -58    -15    -17     61     64 254.9 -15.5  33358  276.15 0865.16
2015 04 09 08 17 57 .33     -59    -23    -17     64     67 248.3 -15.4  33362  276.20 0865.16
2015 04 09 08 17 57 .58     -56    -24    -12     62     64 246.5 -11.3  33358  276.15 0865.16
2015 04 09 08 17 57 .83     -56    -24    -12     62     64 246.5 -11.3  33358  276.15 0865.16
2015 04 09 08 17 58 .08     -54    -20    -10     58     59 249.2 -10.3  33360  276.16 0865.16
2015 04 09 08 17 58 .33     -54    -18    -11     58     60 251.4 -11.3  33358  276.13 0865.16
2015 04 09 08 17 58 .58     -54    -20    -10     58     59 249.2 -10.3  33360  276.16 0865.15
2015 04 09 08 17 58 .83     -50    -21    -12     55     57 247.4 -12.4  33360  276.18 0865.15
2015 04 09 08 17 59 .08     -51    -25     -8     57     58 243.8  -8.2  33360  276.16 0865.15
2015 04 09 08 17 59 .33     -50    -21    -12     55     57 247.4 -12.4  33360  276.18 0865.15
2015 04 09 08 17 59 .58     -47    -21    -14     52     54 245.6 -15.5  33360  276.16 0865.15
2015 04 09 08 17 59 .83     -51    -18    -17     55     58 250.0 -17.6  33354  276.08 0865.15
2015 04 09 08 18 00 .08     -49    -16    -14     52     55 251.6 -15.5  33356  276.11 0865.15
2015 04 09 08 18 00 .33     -47    -16    -10     50     51 250.9 -11.3  33356  276.11 0865.15
2015 04 09 08 18 00 .58     -48     -7    -15     49     52 261.2 -17.6  33356  276.11 0865.15
2015 04 09 08 18 00 .83     -46    -12    -12     48     50 254.9 -14.5  33354  276.08 0865.15
2015 04 09 08 18 01 .08     -46    -12    -12     48     50 254.9 -14.5  33354  276.08 0865.15
2015 04 09 08 18 01 .33     -46    -12    -12     48     50 254.9 -14.5  33354  276.08 0865.15
2015 04 09 08 18 01 .58     -47     -8    -14     48     50 260.3 -21.7  33358  276.13 0865.15
2015 04 09 08 18 01 .83     -47     -8    -14     48     50 260.3 -21.7  33358  276.13 0865.15
2015 04 09 08 18 02 .08     -42     -3    -13     43     46 265.6 -17.6  33356  276.10 0865.15
2015 04 09 08 18 02 .34     -43      0    -15     44     47 269.2 -19.7  33360  276.18 0865.15
2015 04 09 08 18 02 .59     -46      4    -13     47     48 275.2 -21.7  33358  276.13 0865.15
2015 04 09 08 18 02 .85     -40      1    -13     41     43 272.6 -23.8  33360  276.18 0865.15
2015 04 09 08 18 03 .10     -44      1     -5     45     46 271.7  -7.3  33358  276.13 0865.15
2015 04 09 08 18 03 .35     -46     13     -7     48     49 285.9  -9.3  33356  276.11 0865.15
2015 04 09 08 18 03 .60     -50     11     -6     52     53 283.3  -7.3  33358  276.13 0865.15
2015 04 09 08 18 03 .85     -46      9    -16     47     49 281.5 -23.6  33360  276.18 0865.15
2015 04 09 08 18 04 .10     -35      9    -16     37     40 285.1 -29.5  33362  276.21 0865.15
2015 04 09 08 18 04 .35     -30      9     -7     32     33 286.8 -13.4  33358  276.13 0865.15
2015 04 09 08 18 04 .60     -38     12     -7     40     41 288.2 -10.3  33358  276.13 0865.15
2015 04 09 08 18 04 .85     -28     19     -4     34     35 304.2  -7.3  33360  276.16 0865.15
2015 04 09 08 18 05 .10     -29     16     -5     34     35 298.9  -9.3  33360  276.18 0865.15
2015 04 09 08 18 05 .35     -25      8     -1     27     28 288.4  -2.2  33360  276.18 0865.15
2015 04 09 08 18 05 .60     -16     16      0     23     24 314.9  -2.2  33360  276.16 0865.15
2015 04 09 08 18 05 .85     -22     12     -1     26     27 298.9  -2.2  33358  276.15 0865.15
2015 04 09 08 18 06 .11     -21      7      1     23     24 290.0   2.9  33360  276.18 0865.15
2015 04 09 08 18 06 .36     -26     15      3     31     32 300.7   6.9  33366  276.26 0865.15
2015 04 09 08 18 06 .60     -21     16      1     27     28 307.8   2.9  33366  276.28 0865.15
2015 04 09 08 18 06 .86     -28     13      1     31     32 295.2   2.9  33358  276.13 0865.15
2015 04 09 08 18 07 .11     -32     11     -1     35     36 290.0  -2.2  33358  276.13 0865.15
2015 04 09 08 18 07 .36     -31     11     -9     34     36 290.0 -15.4  33362  276.20 0865.15
2015 04 09 08 18 07 .61     -34      6     -4     35     36 281.5  -7.2  33384  276.56 0865.15
2015 04 09 08 18 07 .86     -34      6      1     35     36 281.5   2.8  33390  276.68 0865.15
2015 04 09 08 18 08 .11     -32      5      2     33     34 279.7   4.9  33386  276.61 0865.15
2015 04 09 08 18 08 .36     -37      4     -1     38     39 276.1  -2.2  33376  276.44 0865.15
2015 04 09 08 18 08 .62     -25     16     -1     30     31 302.4  -2.2  33396  276.78 0865.15
2015 04 09 08 18 08 .86     -54     12      5     56     57 282.4   5.9  33410  277.01 0865.15
2015 04 09 08 18 09 .11     -52     17      2     55     56 288.6   2.9  33378  276.46 0865.15
2015 04 09 08 18 09 .37     -49     16      1     52     53 288.6   1.8  33370  276.33 0865.15
2015 04 09 08 18 09 .62     -50     12     -6     52     53 284.2  -7.3  33390  276.68 0865.15
2015 04 09 08 18 09 .87     -49      5     -1     50     51 276.1  -2.2  33420  277.16 0865.15
2015 04 09 08 18 10 .12     -40     -4      3     41     42 263.9   4.9  33386  276.61 0865.15
2015 04 09 08 18 10 .38     -42      0     -3     43     44 270.0  -4.1  33366  276.26 0865.15
2015 04 09 08 18 10 .64     -39      0    -12     40     42 270.0 -16.6  33358  276.13 0865.15
2015 04 09 08 18 10 .87     -39      0    -12     40     42 270.0 -16.6  33358  276.13 0865.15
2015 04 09 08 18 11 .13     -36     -3    -22     37     43 263.9 -37.9  33360  276.18 0865.15
2015 04 09 08 18 11 .38     -40     -5    -26     41     48 262.1 -39.9  33360  276.18 0865.15
2015 04 09 08 18 11 .63     -41     -4    -20     42     46 263.9 -31.6  33362  276.20 0865.15
2015 04 09 08 18 11 .88     -36     -3    -22     37     43 263.9 -37.9  33360  276.18 0865.15
2015 04 09 08 18 12 .13     -45      0    -24     46     51 270.0 -33.7  33362  276.21 0865.15
2015 04 09 08 18 12 .38     -42      3    -28     43     51 274.4 -40.0  33362  276.20 0865.15
2015 04 09 08 18 12 .63     -31      0    -31     32     44 270.8 -55.5  33366  276.28 0865.15
2015 04 09 08 18 12 .88     -40      7    -26     41     48 280.6 -39.9  33360  276.18 0865.15
2015 04 09 08 18 13 .13     -30      9    -24     32     40 286.8 -45.1  33364  276.25 0865.15
2015 04 09 08 18 13 .38     -32     11    -26     35     43 290.0 -45.1  33364  276.23 0865.15
2015 04 09 08 18 13 .63     -35      8    -22     36     42 283.3 -38.8  33364  276.23 0865.15
2015 04 09 08 18 13 .88     -32      6    -20     33     38 281.4 -39.9  33366  276.26 0865.15
2015 04 09 08 18 14 .13     -32      6    -20     33     38 281.4 -39.9  33366  276.26 0865.15
2015 04 09 08 18 14 .38     -31      9    -24     33     40 286.8 -44.1  33368  276.30 0865.15
2015 04 09 08 18 14 .63     -32     11    -20     35     40 290.0 -36.8  33366  276.26 0865.15
2015 04 09 08 18 14 .89     -35      8    -22     36     42 283.3 -38.8  33366  276.28 0865.15
2015 04 09 08 18 15 .13     -31      9    -18     33     37 286.8 -35.8  33364  276.23 0865.15
2015 04 09 08 18 15 .39     -33     12    -14     36     38 290.0 -23.3  33364  276.23 0865.15
2015 04 09 08 18 15 .63     -33     12    -14     36     38 290.0 -23.3  33364  276.23 0865.15
2015 04 09 08 18 15 .89     -38     12    -12     41     42 288.2 -20.7  33362  276.21 0865.15
2015 04 09 08 18 16 .14     -38      5    -17     39     42 277.9 -29.5  33364  276.23 0865.15
2015 04 09 08 18 16 .39     -35      9    -16     37     40 285.1 -29.5  33362  276.21 0865.15
2015 04 09 08 18 16 .64     -30     18    -11     36     37 300.7 -23.8  33362  276.20 0865.15
2015 04 09 08 18 16 .90     -35     15    -16     39     42 293.5 -27.4  33364  276.25 0865.15
2015 04 09 08 18 17 .15     -31     15    -18     35     39 297.1 -31.7  33366  276.28 0865.15
2015 04 09 08 18 17 .40     -28     12    -16     31     34 293.5 -33.7  33368  276.31 0865.15
2015 04 09 08 18 17 .65     -28     12    -16     31     34 293.5 -33.7  33368  276.31 0865.15
2015 04 09 08 18 17 .90     -26      8    -14     28     31 288.6 -31.7  33364  276.23 0865.15
2015 04 09 08 18 18 .15     -18     13     -7     23     24 306.0 -23.8  33362  276.20 0865.15
2015 04 09 08 18 18 .40     -22      7     -9     24     25 288.2 -23.3  33364  276.23 0865.15
2015 04 09 08 18 18 .65     -29      3     -9     30     31 276.1 -21.7  33364  276.23 0865.15
2015 04 09 08 18 18 .90     -33      6    -10     34     36 281.5 -17.6  33360  276.18 0865.15
2015 04 09 08 18 19 .15     -34      9     -4     36     37 285.1  -7.3  33360  276.16 0865.15
2015 04 09 08 18 19 .41     -38      2     -6     39     40 274.4  -9.3  33358  276.13 0865.16
2015 04 09 08 18 19 .66     -38     12     -7     40     41 288.2 -10.3  33360  276.18 0865.16
2015 04 09 08 18 19 .91     -27     12     -3     30     31 295.2  -7.3  33356  276.10 0865.16
2015 04 09 08 18 20 .16     -29     16     -5     34     35 298.9  -9.3  33360  276.18 0865.16
2015 04 09 08 18 20 .41     -27     11     -3     30     31 293.5  -7.3  33372  276.36 0865.16
2015 04 09 08 18 20 .66     -31      7     -1     32     33 283.3  -2.2  33396  276.76 0865.16
2015 04 09 08 18 20 .91     -25      8     -1     27     28 288.4  -2.2  33370  276.33 0865.16
2015 04 09 08 18 21 .16     -25      8     -1     27     28 288.4  -2.2  33360  276.18 0865.15
2015 04 09 08 18 21 .41     -25      8     -1     27     28 288.4  -2.2  33360  276.18 0865.15
2015 04 09 08 18 21 .66     -23      4      0     24     25 281.5   0.8  33360  276.16 0865.15
2015 04 09 08 18 21 .91     -30     17     -1     35     36 300.7  -2.2  33356  276.11 0865.15
2015 04 09 08 18 22 .17     -28     13     -4     31     32 295.2  -7.2  33362  276.21 0865.15
2015 04 09 08 18 22 .42     -27     12     -2     30     31 295.2  -5.2  33380  276.51 0865.15
2015 04 09 08 18 22 .67     -32     20     -1     38     39 302.4  -2.2  33378  276.48 0865.15
2015 04 09 08 18 22 .92     -28     27      1     40     41 314.0   1.8  33394  276.74 0865.15
2015 04 09 08 18 23 .17     -23     16      2     29     30 304.2   4.9  33394  276.73 0865.15
2015 04 09 08 18 23 .42     -37     19      0     42     43 298.0  -1.3  33374  276.39 0865.15
2015 04 09 08 18 23 .67     -30     17     -1     35     36 300.7  -2.2  33370  276.34 0865.15
2015 04 09 08 18 23 .92     -21     21     -4     31     32 315.0  -7.3  33368  276.31 0865.15
2015 04 09 08 18 24 .18     -25     25      0     36     37 315.0   0.8  33390  276.66 0865.15
2015 04 09 08 18 24 .43     -22     22     10     32     34 315.0  17.3  33396  276.76 0865.15
2015 04 09 08 18 24 .68     -29     12     10     32     34 293.5  17.3  33402  276.86 0865.15
2015 04 09 08 18 24 .93     -23     23     11     33     36 314.9  19.4  33394  276.73 0865.15
2015 04 09 08 18 25 .18     -32     11      3     35     36 290.0   4.9  33380  276.51 0865.15
2015 04 09 08 18 25 .43     -21     21     -4     31     32 315.0  -7.3  33402  276.86 0865.15
2015 04 09 08 18 25 .68     -28     19      1     34     35 304.2   2.9  33390  276.68 0865.15
2015 04 09 08 18 25 .93     -15     19      1     25     26 320.4   2.9  33398  276.79 0865.15
2015 04 09 08 18 26 .18     -22     17      1     28     29 307.8   2.9  33390  276.68 0865.15
2015 04 09 08 18 26 .43     -24     20      0     32     33 309.6  -1.3  33390  276.66 0865.15
2015 04 09 08 18 26 .68     -30     23     -1     38     39 307.8  -2.2  33374  276.41 0865.15
2015 04 09 08 18 26 .94     -36     26     -5     45     46 306.0  -7.3  33360  276.18 0865.15
2015 04 09 08 18 27 .18     -36     20     -6     42     43 299.8  -9.3  33360  276.18 0865.15
2015 04 09 08 18 27 .44     -39     24     -1     46     47 301.5  -2.2  33366  276.28 0865.15
2015 04 09 08 18 27 .69     -24     27     -4     37     38 318.6  -7.3  33378  276.48 0865.15
2015 04 09 08 18 27 .93     -16     24     14     30     33 325.7  27.1  33396  276.76 0865.15
2015 04 09 08 18 28 .19     -13     23      4     27     28 331.0   9.0  33398  276.81 0865.15
2015 04 09 08 18 28 .43     -19     24      7     31     32 322.2  13.2  33390  276.68 0865.15
2015 04 09 08 18 28 .69     -24     23     -3     34     35 313.1  -5.2  33400  276.83 0865.15
2015 04 09 08 18 28 .94     -30     24      0     39     40 309.5  -1.3  33386  276.61 0865.15
2015 04 09 08 18 29 .19     -38     31     -1     50     51 309.5  -2.2  33370  276.33 0865.15
2015 04 09 08 18 29 .44     -38     24      2     45     46 302.4   2.9  33386  276.61 0865.15
2015 04 09 08 18 29 .69     -39     15     -2     42     43 291.7  -3.1  33390  276.68 0865.15
2015 04 09 08 18 29 .94     -41     13      0     44     45 287.7   0.8  33390  276.68 0865.15
2015 04 09 08 18 30 .19     -45     21     -1     50     51 295.2  -2.2  33382  276.53 0865.15
2015 04 09 08 18 30 .44     -48     15     -4     51     52 288.2  -5.2  33362  276.20 0865.15
2015 04 09 08 18 30 .70     -46     21     -9     51     52 294.4 -10.3  33360  276.16 0865.15
2015 04 09 08 18 30 .95     -39     19    -11     44     46 296.2 -14.5  33360  276.18 0865.15
2015 04 09 08 18 31 .20     -36     20     -6     42     43 299.8  -9.3  33364  276.23 0865.15
2015 04 09 08 18 31 .45     -39     15     -8     43     44 291.7 -11.3  33366  276.26 0865.15
2015 04 09 08 18 31 .71     -43      8     -6     44     45 280.6  -8.2  33360  276.18 0865.15
2015 04 09 08 18 31 .96     -52      0     -8     53     54 270.0  -9.3  33378  276.46 0865.15
2015 04 09 08 18 32 .21     -48      8     -5     49     50 279.7  -6.2  33398  276.79 0865.15
2015 04 09 08 18 32 .46     -43      8     -6     44     45 280.6  -8.2  33394  276.74 0865.15
2015 04 09 08 18 32 .71     -38     12     -1     40     41 288.2  -2.2  33434  277.41 0865.15
2015 04 09 08 18 32 .96     -30      0      6     31     32 270.8  11.1  33436  277.44 0865.15
2015 04 09 08 18 33 .21     -27      6      2     28     29 283.3   4.9  33438  277.47 0865.15
2015 04 09 08 18 33 .46     -12     -8     20     15     25 234.0  60.5  33466  277.94 0865.15
2015 04 09 08 18 33 .71      -9     17     15     20     25 331.0  39.7  33454  277.74 0865.15
2015 04 09 08 18 33 .96     -10     11      0     16     17 316.8  -2.2  33452  277.70 0865.15
2015 04 09 08 18 34 .21      -6     10      0     13     14 327.5  -3.1  33446  277.59 0865.15
2015 04 09 08 18 34 .46      -7      7      0     10     11 315.0   2.9  33440  277.51 0865.15
2015 04 09 08 18 34 .71      -8      7     -2     11     12 313.1 -11.3  33434  277.41 0865.15
2015 04 09 08 18 34 .97     -27     12     -3     30     31 295.2  -7.3  33438  277.46 0865.15
2015 04 09 08 18 35 .22     -73      8    -12     74     76 277.0  -9.3  33406  276.92 0865.15
2015 04 09 08 18 35 .47     -95     19    -13     97     98 281.5  -7.7  33376  276.43 0865.15
2015 04 09 08 18 35 .71     -77     13     -7     79     80 279.7  -5.2  33364  276.23 0865.15
2015 04 09 08 18 35 .97     -78      1    -17     79     81 270.9 -12.4  33358  276.13 0865.15
2015 04 09 08 18 36 .22     -82      0    -14     83     85 270.0  -9.8  33386  276.61 0865.15
2015 04 09 08 18 36 .47     -91     24    -18     95     97 285.1 -10.9  33370  276.33 0865.15
2015 04 09 08 18 36 .71     -84     19    -11     87     88 283.3  -7.3  33360  276.16 0865.15
2015 04 09 08 18 36 .96     -82     16    -15     84     86 281.0 -10.3  33356  276.11 0865.15
2015 04 09 08 18 37 .21     -88     19    -14     91     93 282.4  -8.8  33356  276.10 0865.15
2015 04 09 08 18 37 .47     -94     19    -13     97     98 281.9  -7.7  33354  276.08 0865.15
2015 04 09 08 18 37 .73     -92     16    -11     94     95 280.1  -7.2  33356  276.10 0865.15
2015 04 09 08 18 37 .98     -88     23     -5     92     93 285.1  -3.1  33356  276.11 0865.15
2015 04 09 08 18 38 .23     -86     28     -3     91     92 288.4  -2.2  33366  276.28 0865.15
2015 04 09 08 18 38 .48     -83     24     -8     87     88 286.4  -5.6  33358  276.13 0865.15
2015 04 09 08 18 38 .73     -76     35     -9     84     85 294.8  -6.2  33370  276.33 0865.15
2015 04 09 08 18 38 .98     -69     24     -8     74     75 289.1  -6.2  33392  276.71 0865.15
2015 04 09 08 18 39 .23     -90      4     -8     91     92 272.6  -5.6  33382  276.53 0865.15
2015 04 09 08 18 39 .48     -95     12    -12     96     97 277.5  -7.3  33364  276.23 0865.15
2015 04 09 08 18 39 .73     -81     16    -21     83     86 281.5 -14.5  33360  276.18 0865.15
2015 04 09 08 18 39 .98     -83     27    -24     88     92 288.2 -15.5  33358  276.15 0865.15
2015 04 09 08 18 40 .23     -90     29    -25     95     99 288.2 -15.0  33356  276.11 0865.15
2015 04 09 08 18 40 .48     -95     25    -26     99    103 285.1 -15.0  33360  276.16 0865.15
2015 04 09 08 18 40 .74     -93     34    -20    100    103 290.4 -11.5  33368  276.31 0865.15
2015 04 09 08 18 40 .98     -86     30    -28     92     97 289.1 -17.0  33364  276.23 0865.15
2015 04 09 08 18 41 .24     -79     26    -25     84     87 288.2 -21.7  33370  276.33 0865.15
2015 04 09 08 18 41 .49     -74     38    -21     84     87 297.1 -14.5  33384  276.56 0865.15
2015 04 09 08 18 41 .74     -92     34     -9     99    100 290.4  -5.2  33404  276.89 0865.15
2015 04 09 08 18 41 .99     -94     30    -12     99    100 288.2  -7.3  33402  276.86 0865.15
2015 04 09 08 18 42 .24     -97     10    -19     98    100 276.1 -11.3  33382  276.54 0865.15
2015 04 09 08 18 42 .49     -95      7    -17     96     98 274.4 -10.3  33384  276.56 0865.15
2015 04 09 08 18 42 .74     -89     27    -14     94     96 287.3  -8.8  33390  276.66 0865.15
2015 04 09 08 18 42 .99    -119     28     -4    123    124 283.3  -2.2  33390  276.66 0865.15
2015 04 09 08 18 43 .24    -101     32    -13    107    108 287.7  -7.2  33388  276.63 0865.15
2015 04 09 08 18 43 .49    -105     23    -12    108    109 282.4  -6.7  33384  276.56 0865.15
2015 04 09 08 18 43 .74    -104     41    -10    113    114 291.7  -5.2  33380  276.49 0865.15
2015 04 09 08 18 43 .99     -99     19    -12    101    102 281.0  -7.2  33372  276.36 0865.15
2015 04 09 08 18 44 .24     -99     16    -12    101    102 279.2  -7.3  33370  276.34 0865.15
2015 04 09 08 18 44 .49     -96     23    -17     99    101 283.7  -9.8  33374  276.41 0865.15
2015 04 09 08 18 44 .75     -84     20    -17     87     89 283.7 -11.3  33364  276.23 0865.15
2015 04 09 08 18 45 .01     -86     28    -11     91     92 288.2  -7.2  33368  276.30 0865.15
2015 04 09 08 18 45 .26     -99     26    -13    103    104 285.1  -7.2  33374  276.41 0865.15
2015 04 09 08 18 45 .51     -85     27    -11     90     91 287.7  -7.3  33380  276.51 0865.15
2015 04 09 08 18 45 .75     -82     29    -11     87     88 289.5  -7.7  33376  276.43 0865.15
2015 04 09 08 18 46 .01     -81     19    -12     84     85 283.3  -8.2  33376  276.44 0865.15
2015 04 09 08 18 46 .26     -78     21     -3     81     82 285.1  -2.2  33390  276.66 0865.15
2015 04 09 08 18 46 .51     -70     14     -2     72     73 281.5  -2.2  33390  276.66 0865.15
2015 04 09 08 18 46 .76     -38     16      2     42     43 293.5   2.9  33420  277.16 0865.15
2015 04 09 08 18 47 .01     -15     -1     22     16     27 265.7  60.5  33438  277.46 0865.15
2015 04 09 08 18 47 .26     -14    -18     11     24     26 217.8  25.1  33430  277.34 0865.15
2015 04 09 08 18 47 .51     -36    -50     -1     62     63 216.1  -1.3  33440  277.49 0865.15
2015 04 09 08 18 47 .77     -56    -29      3     64     65 242.9   2.9  33422  277.21 0865.15
2015 04 09 08 18 48 .01     -23    -19     16     31     34 230.4  29.3  33442  277.54 0865.15
2015 04 09 08 18 48 .26     -32    -32     37     46     59 224.2  43.7  33448  277.64 0865.15
2015 04 09 08 18 48 .51     -23    -19     41     31     51 230.5  58.5  33458  277.79 0865.15
2015 04 09 08 18 48 .77     -26    -16     26     31     40 237.5  44.8  33468  277.97 0865.15
2015 04 09 08 18 49 .01     -24      2     16     25     29 276.1  35.5  33472  278.04 0865.15
2015 04 09 08 18 49 .26     -12      0     13     13     18 265.6  50.1  33472  278.02 0865.15
2015 04 09 08 18 49 .51     -32     -7     11     33     36 256.7  19.4  33464  277.89 0865.15
2015 04 09 08 18 49 .77     -54    -25    -18     60     62 244.7 -21.7  33430  277.34 0865.15
2015 04 09 08 18 50 .02     -15     -8      0     18     19 241.1   2.9  33442  277.54 0865.15
2015 04 09 08 18 50 .27     -23    -37     12     44     46 212.5  16.3  33444  277.57 0865.15
2015 04 09 08 18 50 .52     -28    -35     17     45     48 218.7  20.0  33444  277.57 0865.15
2015 04 09 08 18 50 .77     -26     17     31     32     44 302.5  51.1  33462  277.87 0865.15
2015 04 09 08 18 51 .02     -75     -8    -15     76     78 263.9 -11.3  33402  276.86 0865.15
2015 04 09 08 18 51 .27     -66     -9    -18     67     70 262.1 -15.5  33414  277.06 0865.15
2015 04 09 08 18 51 .53     -76    -36     10     85     86 244.6   6.9  33392  276.71 0865.15
2015 04 09 08 18 51 .78     -96    -48     -4    108    109 243.4  -2.2  33366  276.26 0865.15
2015 04 09 08 18 52 .03    -113    -53    -14    125    126 244.8  -6.7  33372  276.36 0865.15
2015 04 09 08 18 52 .28     -90    -45     -3    101    102 243.4  -2.2  33378  276.46 0865.15
2015 04 09 08 18 52 .53     -92    -28    -11     97     98 252.7  -6.7  33372  276.36 0865.15
2015 04 09 08 18 52 .78    -111    -41    -15    119    120 249.6  -7.2  33366  276.28 0865.15
2015 04 09 08 18 53 .03    -113    -45    -15    122    123 248.3  -7.3  33366  276.26 0865.15
2015 04 09 08 18 53 .29     -86    -36    -14     94     96 247.4  -8.8  33384  276.56 0865.15
2015 04 09 08 18 53 .54    -104    -35    -13    110    111 251.4  -7.2  33382  276.53 0865.15
2015 04 09 08 18 53 .79     -92      4    -21     93     96 272.6 -12.9  33396  276.76 0865.15
2015 04 09 08 18 54 .03    -108      1     -4    109    110 270.8  -2.6  33404  276.89 0865.15
2015 04 09 08 18 54 .29     -92     -4    -11     93     94 267.0  -7.2  33362  276.21 0865.15
2015 04 09 08 18 54 .54    -115    -20    -14    117    118 259.9  -7.2  33366  276.28 0865.15
2015 04 09 08 18 54 .79    -103    -20    -19    105    107 259.0 -10.3  33366  276.28 0865.15
2015 04 09 08 18 55 .04     -95      0    -11     96     97 270.4  -6.7  33380  276.49 0865.15
2015 04 09 08 18 55 .29     -58      0     -2     59     60 270.0  -2.2  33392  276.71 0865.15
2015 04 09 08 18 55 .54     -94    -13     -3     95     96 262.1  -2.2  33364  276.23 0865.15
2015 04 09 08 18 55 .79     -96    -32    -13    102    103 251.6  -7.7  33358  276.13 0865.15
2015 04 09 08 18 56 .04     -97    -35    -16    104    106 250.0  -8.8  33358  276.15 0865.15
2015 04 09 08 18 56 .30    -105    -42    -18    114    116 248.3  -9.3  33372  276.38 0865.15
2015 04 09 08 18 56 .54    -118    -45     -7    127    128 249.2  -3.2  33392  276.71 0865.15
2015 04 09 08 18 56 .79    -116    -48    -20    126    128 247.4  -9.3  33384  276.58 0865.15
2015 04 09 08 18 57 .04    -119    -50     -5    130    131 246.9  -2.2  33388  276.64 0865.15
2015 04 09 08 18 57 .29     -80    -52     -6     96     97 236.7  -4.1  33390  276.66 0865.15
2015 04 09 08 18 57 .54    -113    -32     -4    118    119 254.1  -2.2  33372  276.38 0865.15
2015 04 09 08 18 57 .79     -95    -55     -7    110    111 239.8  -3.7  33396  276.76 0865.15
2015 04 09 08 18 58 .05    -105    -23    -21    108    111 257.6 -11.3  33390  276.66 0865.15
2015 04 09 08 18 58 .30     -86    -55      1    103    104 237.6   0.8  33410  277.01 0865.15
2015 04 09 08 18 58 .55     -89    -28     -7     94     95 252.3  -4.6  33392  276.69 0865.15
2015 04 09 08 18 58 .81     -79    -32     -9     86     87 247.8  -6.2  33376  276.43 0865.15
2015 04 09 08 18 59 .06     -92    -20    -12     95     96 257.6  -7.2  33384  276.56 0865.15
2015 04 09 08 18 59 .31    -105     -8    -14    106    107 265.6  -7.7  33378  276.46 0865.15
2015 04 09 08 18 59 .56    -101     -3    -13    102    103 268.3  -7.3  33378  276.48 0865.15
2015 04 09 08 18 59 .81    -111     -8    -19    112    114 265.6  -9.8  33382  276.53 0865.15
2015 04 09 08 19 00 .06     -91     -4    -15     92     94 267.0  -9.8  33388  276.63 0865.15
2015 04 09 08 19 00 .31     -55      0     19     56     60 270.8  19.4  33416  277.11 0865.15
2015 04 09 08 19 00 .56     -42    -20     -1     47     48 243.8  -2.2  33418  277.14 0865.15
2015 04 09 08 19 00 .81     -16    -23     16     29     33 214.3  31.4  33424  277.24 0865.15
2015 04 09 08 19 01 .06     -21    -20     15     30     33 226.9  27.2  33430  277.34 0865.15
2015 04 09 08 19 01 .31     -58      0    -16     59     62 269.1 -15.4  33406  276.92 0865.15
2015 04 09 08 19 01 .56     -61    -12    -11     63     65 258.5 -10.3  33406  276.92 0865.15
2015 04 09 08 19 01 .82     -89    -41    -19     99    101 245.2 -11.3  33400  276.84 0865.15
2015 04 09 08 19 02 .07     -70    -14    -14     72     74 258.6 -11.3  33410  276.99 0865.15
2015 04 09 08 19 02 .32     -63      0     -8     64     65 269.2  -7.2  33424  277.24 0865.15
2015 04 09 08 19 02 .57     -14    -44     15     47     50 198.3  18.4  33430  277.34 0865.15
2015 04 09 08 19 02 .82     -26    -31     26     41     48 219.6  35.5  33444  277.57 0865.15
2015 04 09 08 19 03 .07     -19    -19     20     27     33 225.0  41.7  33442  277.54 0865.15
2015 04 09 08 19 03 .32      -9     -3     22     10     24 248.3  75.0  33466  277.92 0865.15
2015 04 09 08 19 03 .57       7      2     20      8     21  71.4  77.1  33486  278.25 0865.15
2015 04 09 08 19 03 .82     -12      8     -2     15     16 302.4  -7.2  33476  278.10 0865.15
2015 04 09 08 19 04 .07      -1     18     -7     19     20 355.6 -25.4  33444  277.57 0865.15
2015 04 09 08 19 04 .32      -1    -11      0     12     13 186.2  -2.2  33436  277.44 0865.15
2015 04 09 08 19 04 .57     -24      8     -1     26     27 290.0  -2.2  33436  277.42 0865.15
2015 04 09 08 19 04 .82     -33    -24      3     41     42 234.0   4.9  33420  277.16 0865.15
2015 04 09 08 19 05 .07     -51    -21     15     56     59 247.4  15.3  33418  277.14 0865.15
2015 04 09 08 19 05 .32     -61    -18    -10     64     65 253.2  -9.3  33408  276.97 0865.15
2015 04 09 08 19 05 .58     -73     -5    -20     74     77 265.6 -15.5  33420  277.16 0865.15
2015 04 09 08 19 05 .83     -58      0     -9     59     60 270.0  -9.3  33420  277.16 0865.15
2015 04 09 08 19 06 .09     -45     -1      3     46     47 268.3   3.8  33428  277.31 0865.15
2015 04 09 08 19 06 .33     -29     -8     15     31     34 254.9  27.2  33442  277.54 0865.15
2015 04 09 08 19 06 .58     -48      0    -13     49     51 269.2 -15.5  33420  277.16 0865.15
2015 04 09 08 19 06 .84     -33    -24      3     42     43 234.0   4.9  33434  277.41 0865.15
2015 04 09 08 19 07 .08     -59     -7      1     60     61 263.0   1.8  33414  277.06 0865.15
2015 04 09 08 19 07 .34     -33      6    -10     34     36 281.5 -17.6  33418  277.12 0865.15
2015 04 09 08 19 07 .59     -62     -4      7     63     64 265.6   7.1  33406  276.94 0865.15
2015 04 09 08 19 07 .84     -77     20      4     80     81 285.1   3.3  33396  276.78 0865.15
2015 04 09 08 19 08 .09    -101      0    -14    102    104 269.6  -8.2  33384  276.56 0865.15
2015 04 09 08 19 08 .34    -111      3    -19    112    114 271.7  -9.8  33390  276.68 0865.15
2015 04 09 08 19 08 .59     -95     -1    -25     96    100 269.2 -14.5  33384  276.56 0865.15
2015 04 09 08 19 08 .84     -77      0    -27     78     83 269.6 -19.7  33382  276.53 0865.15
2015 04 09 08 19 09 .09     -79     -4    -10     80     81 266.5  -7.3  33408  276.96 0865.15
2015 04 09 08 19 09 .34     -76     -1    -14     77     79 269.1 -10.9  33420  277.16 0865.15
2015 04 09 08 19 09 .60     -68     -1      0     69     70 269.1  -0.3  33428  277.29 0865.15
2015 04 09 08 19 09 .84     -47    -39     11     62     63 230.4  10.1  33442  277.54 0865.15
2015 04 09 08 19 10 .09     -58    -19     -2     62     63 251.8  -2.2  33402  276.86 0865.15
2015 04 09 08 19 10 .34     -77      4     -3     78     79 273.5  -2.2  33398  276.81 0865.15
2015 04 09 08 19 10 .59     -70     -5     -9     71     72 265.7  -7.2  33406  276.92 0865.15
2015 04 09 08 19 10 .85     -70      1     -9     71     72 270.8  -7.3  33406  276.92 0865.15
2015 04 09 08 19 11 .10     -87    -25    -11     91     92 253.6  -7.2  33422  277.21 0865.15
2015 04 09 08 19 11 .34     -94      0     -3     95     96 270.4  -2.2  33412  277.02 0865.15
2015 04 09 08 19 11 .60     -90    -16     -9     92     93 259.4  -5.6  33400  276.83 0865.15
2015 04 09 08 19 11 .84     -79    -20     -3     82     83 255.4  -2.6  33394  276.73 0865.15
2015 04 09 08 19 12 .09     -81    -12     -3     82     83 261.2  -2.6  33366  276.28 0865.15
2015 04 09 08 19 12 .36     -81     -8    -11     82     83 263.9  -8.2  33360  276.18 0865.15
2015 04 09 08 19 12 .61     -85    -11    -21     86     89 262.1 -13.9  33366  276.26 0865.15
2015 04 09 08 19 12 .85     -90     -6    -13     91     92 265.7  -8.2  33368  276.31 0865.15
2015 04 09 08 19 13 .11     -84    -13     -9     85     86 261.2  -6.2  33364  276.25 0865.15
2015 04 09 08 19 13 .36     -82     -4    -14     83     85 267.0  -9.8  33362  276.21 0865.15
2015 04 09 08 19 13 .61     -91     -1     -9     92     93 269.2  -5.6  33364  276.25 0865.15
2015 04 09 08 19 13 .86     -79      1    -10     80     81 270.8  -7.3  33366  276.26 0865.15
2015 04 09 08 19 14 .11     -81      3    -11     82     83 272.6  -8.2  33370  276.34 0865.15
2015 04 09 08 19 14 .36     -78      5     -2     79     80 274.3  -1.8  33374  276.41 0865.15
2015 04 09 08 19 14 .61     -67      5    -12     68     70 274.3 -10.3  33364  276.25 0865.15
2015 04 09 08 19 14 .86     -77     20     -8     80     81 285.1  -6.2  33376  276.43 0865.15
2015 04 09 08 19 15 .12     -73      5     -9     74     75 274.3  -7.3  33390  276.66 0865.15
2015 04 09 08 19 15 .37     -82     -1     -1     83     84 268.7  -0.7  33390  276.68 0865.15
2015 04 09 08 19 15 .62     -68     20     -5     72     73 286.8  -4.1  33410  277.01 0865.15
2015 04 09 08 19 15 .86     -88     17     -4     90     91 281.0  -3.1  33366  276.26 0865.15
2015 04 09 08 19 16 .12     -84     21    -11     87     88 284.6  -7.3  33364  276.25 0865.15
2015 04 09 08 19 16 .37     -91     24    -12     95     96 285.1  -7.2  33362  276.21 0865.15
2015 04 09 08 19 16 .62     -97     24     -7    101    102 284.2  -4.1  33360  276.18 0865.14
2015 04 09 08 19 16 .87    -100      3     -3    101    102 272.1  -2.2  33376  276.44 0865.14
2015 04 09 08 19 17 .12     -99     20    -12    101    102 281.5  -7.2  33384  276.56 0865.14
2015 04 09 08 19 17 .37     -98     16     -3    100    101 279.2  -2.2  33370  276.34 0865.14
2015 04 09 08 19 17 .62     -96     23     -9     99    100 283.7  -5.2  33372  276.38 0865.14
2015 04 09 08 19 17 .87     -80     35     -6     88     89 293.5  -4.1  33368  276.31 0865.14
2015 04 09 08 19 18 .12     -88     17     -4     90     91 281.0  -3.1  33362  276.21 0865.14
2015 04 09 08 19 18 .37     -86     24    -12     90     91 285.9  -7.7  33360  276.18 0865.14
2015 04 09 08 19 18 .62     -91     24    -12     95     96 285.1  -7.2  33362  276.21 0865.14
2015 04 09 08 19 18 .87     -90     20     -9     93     94 282.8  -5.6  33364  276.23 0865.14
2015 04 09 08 19 19 .12     -93     27    -12     97     98 286.4  -7.3  33364  276.23 0865.14
2015 04 09 08 19 19 .38     -82     24    -14     86     88 286.4  -9.8  33362  276.21 0865.15
2015 04 09 08 19 19 .64    -100     33    -13    106    107 288.2  -7.3  33376  276.43 0865.15
2015 04 09 08 19 19 .88     -97     24     -3    101    102 284.2  -2.2  33364  276.25 0865.15
2015 04 09 08 19 20 .13     -87     31    -11     93     94 290.0  -7.3  33364  276.23 0865.15
2015 04 09 08 19 20 .39     -93     30    -12     98     99 288.2  -7.2  33366  276.26 0865.15
2015 04 09 08 19 20 .64     -94     35    -12    101    102 290.8  -7.3  33360  276.18 0865.15
2015 04 09 08 19 20 .89     -92     39    -11    101    102 293.1  -6.7  33372  276.36 0865.15
2015 04 09 08 19 21 .14     -91     40     -3    100    101 294.0  -2.2  33382  276.53 0865.15
2015 04 09 08 19 21 .39     -93     22     -3     96     97 283.3  -2.2  33396  276.78 0865.15
2015 04 09 08 19 21 .64     -90     20     -2     93     94 282.8  -1.8  33426  277.26 0865.15
2015 04 09 08 19 21 .89     -57     35      9     68     69 301.5   8.0  33410  276.99 0865.15
2015 04 09 08 19 22 .14     -73     28     -3     79     80 290.8  -2.6  33412  277.04 0865.15
2015 04 09 08 19 22 .39     -63     40    -10     75     76 302.4  -8.2  33400  276.83 0865.15
2015 04 09 08 19 22 .65     -50     34     -1     61     62 304.2  -1.3  33410  277.01 0865.15
2015 04 09 08 19 22 .89     -47     39     -1     62     63 309.5  -1.3  33424  277.24 0865.15
2015 04 09 08 19 23 .14     -62     46     14     78     80 306.9  10.6  33408  276.97 0865.15
2015 04 09 08 19 23 .39     -72     35    -10     81     82 296.2  -7.3  33370  276.34 0865.15
2015 04 09 08 19 23 .65     -72     26     -9     77     78 290.0  -7.3  33374  276.41 0865.15
2015 04 09 08 19 23 .90     -82      7    -14     83     85 275.2  -9.8  33410  277.01 0865.15
2015 04 09 08 19 24 .15     -78     -5    -10     79     80 265.7  -7.7  33410  277.01 0865.15
2015 04 09 08 19 24 .39     -41      5      0     42     43 277.0  -0.3  33422  277.19 0865.15
2015 04 09 08 19 24 .65     -58     27     -3     65     66 295.2  -3.1  33394  276.73 0865.15
2015 04 09 08 19 24 .90     -70     17     -1     73     74 284.2  -1.3  33374  276.41 0865.15
2015 04 09 08 19 25 .15     -58     -4     -2     59     60 265.6  -2.2  33384  276.56 0865.15
2015 04 09 08 19 25 .40     -62      0     -5     63     64 270.8  -5.2  33396  276.76 0865.15
2015 04 09 08 19 25 .65     -57     18     -1     60     61 288.2  -1.2  33412  277.04 0865.15
2015 04 09 08 19 25 .90     -66      0     -2     67     68 270.8  -2.2  33400  276.83 0865.15
2015 04 09 08 19 26 .15     -76      5    -14     77     79 274.3 -10.9  33380  276.51 0865.15
2015 04 09 08 19 26 .41     -82     12    -24     83     87 278.4 -16.6  33372  276.36 0865.15
2015 04 09 08 19 26 .66     -80     15    -22     82     86 281.0 -15.5  33370  276.33 0865.15
2015 04 09 08 19 26 .91     -87     12    -29     88     93 278.4 -18.7  33360  276.16 0865.15
2015 04 09 08 19 27 .16     -99      7    -30    100    104 274.4 -22.3  33360  276.18 0865.15
2015 04 09 08 19 27 .41     -89     15    -32     91     97 280.1 -19.6  33360  276.18 0865.15
2015 04 09 08 19 27 .66     -93     18    -27     95     99 281.5 -16.0  33364  276.23 0865.15
2015 04 09 08 19 27 .91    -101     19    -24    103    106 281.0 -13.4  33364  276.23 0865.15
2015 04 09 08 19 28 .16    -105     31    -18    110    112 286.4  -9.3  33364  276.23 0865.15
2015 04 09 08 19 28 .41     -98     39    -21    106    109 291.7 -11.3  33362  276.21 0865.15
2015 04 09 08 19 28 .66     -99     48    -15    111    113 295.8  -7.7  33364  276.23 0865.15
2015 04 09 08 19 28 .92     -97     22    -18    100    102 282.8 -10.3  33392  276.71 0865.15
2015 04 09 08 19 29 .16     -93     28    -12     98     99 286.8  -7.3  33394  276.73 0865.15
2015 04 09 08 19 29 .42     -88     27    -23     93     96 287.3 -13.9  33366  276.28 0865.15
2015 04 09 08 19 29 .67     -92     27    -31     96    100 286.4 -23.3  33382  276.54 0865.15
2015 04 09 08 19 29 .92     -87     25    -24     91     95 286.4 -15.0  33392  276.69 0865.15
2015 04 09 08 19 30 .17     -88     12    -23     89     92 277.9 -14.5  33388  276.63 0865.15
2015 04 09 08 19 30 .42     -81     17    -26     83     86 281.9 -22.8  33390  276.68 0865.15
2015 04 09 08 19 30 .68     -67     26     -6     73     74 291.7  -5.2  33408  276.96 0865.15
2015 04 09 08 19 30 .92     -43     43      7     61     62 315.0   6.9  33436  277.42 0865.15
2015 04 09 08 19 31 .17     -15     23     18     28     33 327.5  35.6  33426  277.26 0865.15
2015 04 09 08 19 31 .42     -31     26      3     41     42 310.4   4.9  33416  277.11 0865.15
2015 04 09 08 19 31 .68     -27     31    -10     42     44 318.6 -13.4  33420  277.16 0865.15
2015 04 09 08 19 31 .92     -20      6     24     21     31 286.8  54.3  33448  277.64 0865.15
2015 04 09 08 19 32 .17     -21      0     26     22     34 270.0  54.3  33450  277.67 0865.15
2015 04 09 08 19 32 .43      -6    -18     20     20     28 198.7  50.1  33464  277.89 0865.15
2015 04 09 08 19 32 .67       1    -18     22     19     29 175.5  52.2  33464  277.90 0865.15
2015 04 09 08 19 32 .93      -7      0      5      8      9 265.6  35.5  33462  277.87 0865.15
2015 04 09 08 19 33 .17      -7      0     11      8     13 265.6  60.5  33478  278.14 0865.15
2015 04 09 08 19 33 .44     -23    -25     22     35     41 223.2  35.5  33442  277.52 0865.15
2015 04 09 08 19 33 .69      -9     -3     16     10     18 248.3  64.7  33454  277.74 0865.15
2015 04 09 08 19 33 .94      -5      0      7      6      9 274.4  48.2  33472  278.04 0865.16
2015 04 09 08 19 34 .19     -14     32     30     35     46 336.4  45.8  33490  278.32 0865.16
2015 04 09 08 19 34 .44     -17     29     28     34     44 329.3  44.8  33494  278.40 0865.16
2015 04 09 08 19 34 .69     -22     17     29     29     41 307.8  50.1  33490  278.34 0865.16
2015 04 09 08 19 34 .94     -33     17     47     38     60 297.1  56.4  33488  278.29 0865.16
2015 04 09 08 19 35 .19     -24     20     52     32     61 309.6  64.7  33498  278.47 0865.16
2015 04 09 08 19 35 .43     -25      5     26     26     36 283.3  50.1  33472  278.02 0865.16
2015 04 09 08 19 35 .69     -18      1      7     19     20 274.4  21.0  33458  277.79 0865.16
2015 04 09 08 19 35 .94     -18     -6     19     19     26 251.4  50.1  33478  278.14 0865.16
2015 04 09 08 19 36 .19       0     -3     24      4     24 189.7  90.0  33492  278.35 0865.16
2015 04 09 08 19 36 .44     -28      1     -8     29     31 272.6 -15.4  33488  278.30 0865.16
2015 04 09 08 19 36 .69     -77     13     -3     79     80 279.7  -2.2  33398  276.81 0865.16
2015 04 09 08 19 36 .95     -87     -1    -11     88     89 268.7  -7.2  33368  276.31 0865.16
2015 04 09 08 19 37 .20     -89      4    -14     90     92 273.0  -9.3  33378  276.46 0865.16
2015 04 09 08 19 37 .44     -95     12    -12     96     97 277.5  -7.3  33364  276.23 0865.16
2015 04 09 08 19 37 .70     -94     12    -12     95     96 277.5  -7.3  33378  276.48 0865.16
2015 04 09 08 19 37 .95    -105     18    -21    107    110 280.1 -11.3  33386  276.61 0865.16
2015 04 09 08 19 38 .20     -94     16      0     96     97 280.1   0.2  33396  276.76 0865.16
2015 04 09 08 19 38 .45     -76     24     -4     80     81 288.2  -3.1  33416  277.11 0865.16
2015 04 09 08 19 38 .70     -26     23     12     35     38 311.3  19.4  33440  277.49 0865.16
2015 04 09 08 19 38 .95     -18     11     -1     22     23 302.4  -3.1  33442  277.54 0865.16
2015 04 09 08 19 39 .21     -41      1     13     42     44 272.6  17.3  33454  277.74 0865.16
2015 04 09 08 19 39 .45     -35      9     22     37     43 285.1  33.5  33480  278.15 0865.16
2015 04 09 08 19 39 .70     -46     21     10     51     52 295.2  11.1  33446  277.59 0865.16
2015 04 09 08 19 39 .95     -77     39    -11     87     88 297.1  -7.7  33374  276.41 0865.16
2015 04 09 08 19 40 .21     -88     23    -11     92     93 285.1  -7.3  33404  276.89 0865.15
2015 04 09 08 19 40 .46     -84     30     -3     90     91 289.5  -2.2  33390  276.66 0865.15
2015 04 09 08 19 40 .72     -84     30     -8     90     91 290.0  -5.6  33396  276.78 0865.15
2015 04 09 08 19 40 .97     -46      0    -11     47     49 270.8 -13.4  33428  277.29 0865.15
2015 04 09 08 19 41 .21     -34    -17    -10     39     41 242.9 -14.5  33434  277.41 0865.15
2015 04 09 08 19 41 .46     -21      5     11     22     24 283.3  27.2  33446  277.59 0865.15
2015 04 09 08 19 41 .72     -17     17     20     25     32 315.0  43.7  33446  277.59 0865.15
2015 04 09 08 19 41 .97     -40     28     46     50     67 305.1  48.0  33460  277.84 0865.15
2015 04 09 08 19 42 .21     -30      9      6     32     33 286.8  11.1  33462  277.85 0865.15
2015 04 09 08 19 42 .47     -35     31     16     47     50 311.3  19.4  33454  277.74 0865.15
2015 04 09 08 19 42 .71     -49     21     -1     54     55 293.5  -1.3  33426  277.26 0865.15
2015 04 09 08 19 42 .97     -66     35    -12     75     77 298.0  -9.3  33364  276.25 0865.15
2015 04 09 08 19 43 .22     -78     45    -25     91     95 300.2 -15.5  33362  276.21 0865.15
2015 04 09 08 19 43 .47     -96     35    -13    103    104 290.0  -7.3  33378  276.48 0865.15
2015 04 09 08 19 43 .72     -91     57      5    108    109 302.4   2.8  33388  276.63 0865.15
2015 04 09 08 19 43 .98     -84     35     -5     92     93 292.6  -3.1  33404  276.91 0865.15
2015 04 09 08 19 44 .22     -43     31      4     54     55 306.0   4.9  33414  277.07 0865.15
2015 04 09 08 19 44 .48     -79     30     -3     85     86 290.8  -2.6  33394  276.73 0865.15
2015 04 09 08 19 44 .72    -100     20     -5    103    104 281.5  -3.1  33376  276.43 0865.15
2015 04 09 08 19 44 .97     -94     35    -12    101    102 290.8  -7.3  33364  276.23 0865.15
2015 04 09 08 19 45 .22    -105     33    -12    111    112 287.3  -6.2  33362  276.20 0865.15
2015 04 09 08 19 45 .47    -108     30    -23    113    116 285.9 -11.5  33360  276.18 0865.15
2015 04 09 08 19 45 .72    -107     35    -31    113    118 288.6 -15.5  33368  276.31 0865.15
2015 04 09 08 19 45 .98    -112     37    -37    119    125 288.6 -17.6  33366  276.26 0865.15
2015 04 09 08 19 46 .22    -109     41    -33    117    122 290.8 -16.0  33368  276.30 0865.15
2015 04 09 08 19 46 .47    -104     39    -17    112    114 290.4  -8.8  33360  276.18 0865.15
2015 04 09 08 19 46 .73    -102     31    -26    107    111 287.3 -13.9  33360  276.16 0865.15
2015 04 09 08 19 46 .97     -99     24    -30    102    106 283.7 -21.7  33362  276.20 0865.15
2015 04 09 08 19 47 .23     -86     27    -33     91     96 287.7 -24.4  33362  276.21 0865.15
2015 04 09 08 19 47 .49     -97     15    -27     99    103 278.8 -15.5  33360  276.18 0865.15
2015 04 09 08 19 47 .74     -98     31    -28    103    107 287.7 -15.4  33360  276.18 0865.15
2015 04 09 08 19 47 .99     -88     38    -12     97     98 293.5  -7.3  33360  276.18 0865.15
2015 04 09 08 19 48 .24     -86     24    -12     90     91 285.9  -7.7  33360  276.18 0865.15
2015 04 09 08 19 48 .49     -91     16    -18     93     95 280.1 -11.3  33360  276.18 0865.15
2015 04 09 08 19 48 .74     -85     22    -27     88     93 284.6 -17.0  33360  276.18 0865.15
2015 04 09 08 19 48 .99     -87     19    -26     90     93 282.4 -21.7  33364  276.23 0865.15
2015 04 09 08 19 49 .24     -72      6    -36     73     81 275.2 -32.6  33366  276.26 0865.15
2015 04 09 08 19 49 .49     -73      7    -50     74     89 276.1 -41.4  33366  276.26 0865.15
2015 04 09 08 19 49 .74     -75     -1    -52     76     92 269.1 -42.0  33364  276.23 0865.15
2015 04 09 08 19 49 .99     -75     -1    -52     76     92 269.1 -42.0  33364  276.23 0865.15
2015 04 09 08 19 50 .24     -76      0    -37     77     85 270.0 -32.2  33362  276.21 0865.15
2015 04 09 08 19 50 .49     -77      5    -31     78     83 274.3 -26.4  33362  276.20 0865.15
2015 04 09 08 19 50 .74     -69      0    -35     70     78 269.2 -31.7  33368  276.30 0865.15
2015 04 09 08 19 50 .99     -75     -1    -39     76     85 269.1 -33.7  33364  276.25 0865.15
2015 04 09 08 19 51 .25     -62      0    -35     63     72 270.9 -35.8  33364  276.23 0865.15
2015 04 09 08 19 51 .50     -61      0    -39     62     73 269.2 -39.9  33366  276.28 0865.15
2015 04 09 08 19 51 .75     -73     -5    -43     74     85 265.7 -37.3  33370  276.33 0865.15
2015 04 09 08 19 52 .00     -74     -6    -38     75     84 264.8 -33.1  33378  276.48 0865.15
2015 04 09 08 19 52 .25     -63    -12    -41     65     76 258.5 -39.9  33386  276.61 0865.15
2015 04 09 08 19 52 .50     -59    -14    -30     61     67 256.7 -31.7  33390  276.68 0865.15
2015 04 09 08 19 52 .75     -77    -13    -22     79     82 260.3 -20.2  33390  276.68 0865.15
2015 04 09 08 19 53 .00     -70    -16    -25     72     77 256.7 -19.1  33396  276.76 0865.15
2015 04 09 08 19 53 .25     -71    -14    -24     73     76 258.6 -23.8  33384  276.56 0865.15
2015 04 09 08 19 53 .51     -68    -13    -25     70     74 258.6 -23.3  33388  276.63 0865.15
2015 04 09 08 19 53 .75     -65      0    -18     66     68 269.2 -20.7  33382  276.53 0865.15
2015 04 09 08 19 54 .00     -62      0    -22     63     66 270.9 -23.3  33390  276.68 0865.16
2015 04 09 08 19 54 .26     -60      0    -20     61     64 270.0 -23.8  33390  276.66 0865.16
2015 04 09 08 19 54 .51     -57      0    -13     58     60 270.0 -13.4  33392  276.71 0865.16
2015 04 09 08 19 54 .76     -59     -1     -9     60     61 268.3  -9.3  33390  276.66 0865.16
2015 04 09 08 19 55 .01     -52     -5     -8     53     54 263.9  -9.3  33390  276.66 0865.16
2015 04 09 08 19 55 .26     -46    -12    -12     48     50 254.9 -14.5  33390  276.68 0865.16
2015 04 09 08 19 55 .51     -52     -8     -6     53     54 260.3  -7.2  33390  276.68 0865.16
2015 04 09 08 19 55 .76     -61      0    -12     62     64 270.8 -11.3  33388  276.63 0865.16
2015 04 09 08 19 56 .01     -58      0     -9     59     60 270.0  -9.3  33380  276.51 0865.16
2015 04 09 08 19 56 .27     -60     -5    -19     61     64 264.8 -17.6  33380  276.49 0865.16
2015 04 09 08 19 56 .52     -58      0     -9     59     60 270.0  -9.3  33380  276.51 0865.16
2015 04 09 08 19 56 .77     -58      0     -9     59     60 270.0  -9.3  33380  276.51 0865.16
2015 04 09 08 19 57 .02     -58     -4    -18     59     61 265.6 -21.7  33376  276.43 0865.16
2015 04 09 08 19 57 .27     -52      4    -19     53     57 274.4 -19.6  33380  276.51 0865.16
2015 04 09 08 19 57 .52     -50     11    -14     52     54 282.4 -15.4  33380  276.51 0865.15
2015 04 09 08 19 57 .77     -52      4    -17     53     55 274.4 -23.8  33378  276.48 0865.15
2015 04 09 08 19 58 .02     -50     11    -14     52     54 282.4 -15.4  33380  276.51 0865.15
2015 04 09 08 19 58 .27     -42      7    -13     43     46 279.7 -17.6  33378  276.46 0865.15
2015 04 09 08 19 58 .52     -39      4    -12     40     42 277.0 -16.6  33376  276.43 0865.15
2015 04 09 08 19 58 .77     -36      0    -13     37     40 269.2 -19.7  33374  276.41 0865.15
2015 04 09 08 19 59 .02     -30      3    -16     31     34 276.1 -33.7  33380  276.51 0865.15
2015 04 09 08 19 59 .27     -29      3    -16     30     34 276.1 -33.7  33384  276.56 0865.15
2015 04 09 08 19 59 .52     -23      3    -20     24     31 277.9 -48.2  33380  276.51 0865.16
2015 04 09 08 19 59 .78     -28      0    -14     29     32 270.8 -31.6  33378  276.48 0865.16
2015 04 09 08 20 00 .03     -32      0    -20     33     38 269.2 -39.9  33374  276.41 0865.16
2015 04 09 08 20 00 .27     -31      1    -11     32     33 272.6 -23.6  33372  276.36 0865.16
2015 04 09 08 20 00 .53     -25     16     -8     30     32 302.5 -15.5  33378  276.46 0865.16
2015 04 09 08 20 00 .78     -28     19    -16     35     38 304.2 -29.5  33378  276.46 0865.16
2015 04 09 08 20 01 .04     -27     39    -17     48     52 325.7 -19.7  33390  276.68 0865.16
2015 04 09 08 20 01 .29     -11     42     -6     44     45 344.9  -8.2  33402  276.88 0865.16
2015 04 09 08 20 01 .54     -16     50    -10     53     55 341.3 -11.3  33394  276.73 0865.16
2015 04 09 08 20 01 .79     -13     46    -17     48     51 344.0 -19.7  33388  276.64 0865.16
2015 04 09 08 20 02 .04     -18     54    -20     58     62 341.3 -19.7  33390  276.68 0865.16
2015 04 09 08 20 02 .30     -13     54     -9     56     57 345.7  -9.3  33398  276.81 0865.16
2015 04 09 08 20 02 .54     -18     53     -2     57     58 341.3  -2.2  33402  276.86 0865.16
2015 04 09 08 20 02 .79      -3     49      6     50     51 355.5   6.9  33406  276.94 0865.16
2015 04 09 08 20 03 .05      -6     43     11     44     46 352.0  14.3  33410  276.99 0865.15
2015 04 09 08 20 03 .29      -9     32     28     34     44 343.1  44.8  33436  277.44 0865.15
2015 04 09 08 20 03 .54      -4     33     26     34     42 352.0  41.7  33410  277.01 0865.15
2015 04 09 08 20 03 .80      -7     36     31     37     48 348.4  45.8  33402  276.86 0865.15
2015 04 09 08 20 04 .04     -12     51     45     53     69 346.6  43.8  33410  276.99 0865.15
2015 04 09 08 20 04 .30     -23     59     46     64     78 338.1  39.7  33406  276.94 0865.15
2015 04 09 08 20 04 .54     -22     55     48     60     76 338.2  43.7  33404  276.91 0865.15
2015 04 09 08 20 04 .79     -30     50     41     59     71 329.3  38.6  33390  276.68 0865.15
2015 04 09 08 20 05 .05     -27     47     43     55     69 330.1  42.7  33386  276.61 0865.15
2015 04 09 08 20 05 .29     -26     40     57     48     74 326.6  56.3  33392  276.71 0865.15
2015 04 09 08 20 05 .55     -33     35     43     49     65 316.8  46.9  33392  276.71 0865.15
2015 04 09 08 20 05 .80     -41     27     41     50     64 303.3  43.7  33394  276.73 0865.15
2015 04 09 08 20 06 .05     -39     44     39     59     70 318.6  35.6  33396  276.76 0865.15
2015 04 09 08 20 06 .30     -26     40     49     48     68 326.6  49.1  33394  276.74 0865.15
2015 04 09 08 20 06 .55     -44     17     39     48     61 290.8  43.7  33396  276.76 0865.15
2015 04 09 08 20 06 .80     -39     17     37     43     56 293.5  45.8  33398  276.79 0865.15
2015 04 09 08 20 07 .05     -26      8     31     28     41 288.2  53.3  33404  276.91 0865.15
2015 04 09 08 20 07 .30     -19      4      4     20     21 283.3  13.2  33410  277.01 0865.15
2015 04 09 08 20 07 .55     -10     18      7     21     23 331.0  19.2  33416  277.09 0865.15
2015 04 09 08 20 07 .80     -30     23      6     38     39 307.8  10.1  33400  276.83 0865.15
2015 04 09 08 20 08 .06     -34     22     -3     41     42 303.3  -5.2  33386  276.61 0865.15
2015 04 09 08 20 08 .32     -28     27     -4     40     41 314.0  -6.2  33380  276.51 0865.15
2015 04 09 08 20 08 .57     -45     27     -2     53     54 300.7  -2.2  33384  276.58 0865.15
2015 04 09 08 20 08 .82     -35     20     -6     41     42 299.8  -8.2  33388  276.63 0865.15
2015 04 09 08 20 09 .06     -27     23      3     36     37 311.3   4.9  33396  276.76 0865.15
2015 04 09 08 20 09 .32     -27     23      3     36     37 311.3   4.9  33390  276.66 0865.15
2015 04 09 08 20 09 .57     -34     23      1     42     43 304.2   1.8  33382  276.53 0865.15
2015 04 09 08 20 09 .82     -23     20      8     31     33 311.3  15.3  33394  276.73 0865.15
2015 04 09 08 20 10 .07     -30     16     20     35     40 298.9  32.4  33412  277.02 0865.15
2015 04 09 08 20 10 .32     -23     13     13     27     29 298.9  27.3  33410  277.01 0865.15
2015 04 09 08 20 10 .57     -16     16      7     23     25 314.9  17.3  33410  276.99 0865.15
2015 04 09 08 20 10 .82     -15     19      8     25     27 322.2  19.2  33416  277.11 0865.15
2015 04 09 08 20 11 .07     -19     31      7     37     38 327.5  11.1  33406  276.92 0865.15
2015 04 09 08 20 11 .32     -22     22     10     32     34 315.0  17.3  33408  276.96 0865.15
2015 04 09 08 20 11 .57     -31     31      5     44     45 315.0   6.9  33400  276.83 0865.15
2015 04 09 08 20 11 .82     -27     39      3     48     49 325.7   3.8  33368  276.31 0865.15
2015 04 09 08 20 12 .07     -25     42     -7     50     51 329.3  -8.2  33366  276.28 0865.15
2015 04 09 08 20 12 .32     -17     40    -17     44     47 336.4 -25.4  33366  276.28 0865.15
2015 04 09 08 20 12 .57      -9     44    -11     45     47 348.4 -14.5  33364  276.23 0865.15
2015 04 09 08 20 12 .82     -14     45     -9     48     49 342.2 -11.3  33366  276.26 0865.15
2015 04 09 08 20 13 .07      -9     48      1     49     50 349.3   1.8  33366  276.28 0865.16
2015 04 09 08 20 13 .32     -13     46     -1     48     49 344.0  -2.2  33364  276.23 0865.16
2015 04 09 08 20 13 .58     -10     50     -6     52     53 348.5  -7.3  33370  276.33 0865.16
2015 04 09 08 20 13 .83     -11     43     -1     45     46 344.9  -2.2  33368  276.31 0865.16
2015 04 09 08 20 14 .08     -11     43     -1     45     46 344.9  -2.2  33368  276.31 0865.16
2015 04 09 08 20 14 .33     -11     43     -1     45     46 344.9  -2.2  33368  276.31 0865.16
2015 04 09 08 20 14 .58      -9     39      8     41     42 346.6  11.1  33374  276.41 0865.16
2015 04 09 08 20 14 .83      -7     34     12     35     38 348.4  19.4  33376  276.43 0865.15
2015 04 09 08 20 15 .09      -8     26     12     28     30 343.1  25.1  33376  276.43 0865.15
2015 04 09 08 20 15 .34      -8     26      9     28     30 341.3  18.9  33372  276.38 0865.15
2015 04 09 08 20 15 .59     -10     32     16     34     37 341.3  27.2  33376  276.43 0865.15
2015 04 09 08 20 15 .84     -12     31     24     34     41 338.2  39.7  33376  276.44 0865.15
2015 04 09 08 20 16 .09     -12     31     24     34     41 338.2  39.7  33384  276.58 0865.15
2015 04 09 08 20 16 .34     -12     27     19     30     35 334.6  35.5  33392  276.69 0865.15
2015 04 09 08 20 16 .60     -25     23     18     35     39 313.1  27.3  33408  276.96 0865.15
2015 04 09 08 20 16 .84     -31     11     12     34     37 290.0  19.4  33406  276.94 0865.15
2015 04 09 08 20 17 .09     -22     12      9     26     28 298.9  19.4  33394  276.73 0865.15
2015 04 09 08 20 17 .34     -26     15      3     31     32 300.7   6.9  33398  276.81 0865.15
2015 04 09 08 20 17 .59     -34     15     -4     38     39 293.5  -7.3  33380  276.49 0865.15
2015 04 09 08 20 17 .84     -31     11     -9     33     35 290.0 -15.5  33376  276.44 0865.15
2015 04 09 08 20 18 .09     -30      9     -7     32     33 286.8 -13.4  33376  276.43 0865.15
2015 04 09 08 20 18 .35     -31      9     -5     33     34 286.8  -9.3  33378  276.48 0865.15
2015 04 09 08 20 18 .60     -30      5     -8     31     33 279.7 -15.5  33378  276.46 0865.15
2015 04 09 08 20 18 .85     -30      0     -6     31     32 270.8 -11.3  33378  276.48 0865.15
2015 04 09 08 20 19 .10     -30      0     -6     31     32 270.8 -11.3  33378  276.48 0865.15
2015 04 09 08 20 19 .35     -30      0     -6     31     32 270.8 -11.3  33378  276.48 0865.15
2015 04 09 08 20 19 .60     -30      0     -6     31     32 270.8 -11.3  33378  276.48 0865.15
2015 04 09 08 20 19 .85     -24     -1     -6     25     26 267.4 -13.4  33378  276.48 0865.15
2015 04 09 08 20 20 .10     -24      1     -9     25     27 272.6 -19.7  33380  276.51 0865.15
2015 04 09 08 20 20 .35     -24      1     -9     25     27 272.6 -19.7  33382  276.54 0865.15
2015 04 09 08 20 20 .60     -27      4     -3     28     29 279.7  -7.3  33396  276.76 0865.15
2015 04 09 08 20 20 .85     -24      4    -12     25     27 281.5 -31.6  33378  276.46 0865.15
2015 04 09 08 20 21 .10     -24      1     -9     25     27 272.6 -19.7  33390  276.66 0865.15
2015 04 09 08 20 21 .35     -23      4     -6     24     25 281.5 -15.5  33380  276.49 0865.15
2015 04 09 08 20 21 .61     -22      0     -3     23     24 270.0  -9.3  33378  276.46 0865.15
2015 04 09 08 20 21 .86     -14      3     -2     15     16 285.1  -7.3  33390  276.66 0865.15
2015 04 09 08 20 22 .12     -23     -1     -6     24     25 265.6 -15.5  33404  276.89 0865.15
2015 04 09 08 20 22 .36     -17      0     -5     18     19 270.8 -15.5  33378  276.48 0865.15
2015 04 09 08 20 22 .62     -14     -1     -3     15     16 265.7 -11.3  33372  276.36 0865.15
2015 04 09 08 20 22 .87     -13      1      0     14     15 274.3  -2.2  33382  276.53 0865.15
2015 04 09 08 20 23 .12      -6      4      0      8      9 302.4  -2.2  33384  276.58 0865.15
2015 04 09 08 20 23 .37      -4      8      7     10     12 331.0  39.7  33404  276.89 0865.15
2015 04 09 08 20 23 .62      -6     16      9     18     20 338.2  29.3  33410  277.01 0865.15
2015 04 09 08 20 23 .87     -12     15      4     20     21 320.4  13.2  33404  276.91 0865.15
2015 04 09 08 20 24 .14     -12     11     13     17     21 313.3  41.7  33402  276.86 0865.15
2015 04 09 08 20 24 .37      -9     17     15     20     25 331.0  39.7  33406  276.92 0865.15
2015 04 09 08 20 24 .63     -11     12     14     17     22 316.8  43.7  33408  276.96 0865.15
2015 04 09 08 20 24 .87      -9     17     15     20     25 331.0  39.7  33406  276.92 0865.15
2015 04 09 08 20 25 .13     -18     16     21     25     32 311.3  43.8  33408  276.97 0865.15
2015 04 09 08 20 25 .37     -12     11     13     17     21 313.3  41.7  33414  277.06 0865.15
2015 04 09 08 20 25 .63     -14     12     16     19     24 311.3  45.8  33418  277.14 0865.15
2015 04 09 08 20 25 .88     -16      6     13     18     22 291.7  39.7  33434  277.41 0865.15
2015 04 09 08 20 26 .13     -12      1     11     13     17 277.9  47.9  33436  277.44 0865.15
2015 04 09 08 20 26 .37      -8      8     16     12     20 313.1  58.5  33412  277.04 0865.15
2015 04 09 08 20 26 .63     -12     12     13     18     22 315.0  39.7  33398  276.81 0865.15
2015 04 09 08 20 26 .88      -4      7      7      9     11 327.5  43.7  33394  276.74 0865.15
2015 04 09 08 20 27 .13      -3      4      9      6     10 320.4  64.7  33404  276.91 0865.15
2015 04 09 08 20 27 .38      -8      3      5      9     10 295.3  31.4  33414  277.06 0865.15
2015 04 09 08 20 27 .63      -4      1      0      5      6 288.4  -2.2  33414  277.06 0865.16
2015 04 09 08 20 27 .88      -2      0      0      3      4 274.4  -2.2  33410  277.01 0865.16
2015 04 09 08 20 28 .13      -2      0      0      3      4 274.4  -2.2  33422  277.21 0865.16
2015 04 09 08 20 28 .38      -7     -2      2      8      9 251.8  19.2  33436  277.44 0865.16
2015 04 09 08 20 28 .63      -6      0      5      7      8 265.6  43.7  33432  277.36 0865.16
2015 04 09 08 20 28 .89     -11      0      7     12     13 269.2  31.4  33420  277.17 0865.16
2015 04 09 08 20 29 .14     -13      8     11     16     19 302.4  35.6  33418  277.14 0865.16
2015 04 09 08 20 29 .40     -16     -3      5     17     18 258.5  18.9  33418  277.14 0865.16
2015 04 09 08 20 29 .64     -20      0     -3     21     22 272.6  -9.3  33432  277.36 0865.16
2015 04 09 08 20 29 .89     -26      8     -1     28     29 288.6  -2.2  33400  276.84 0865.16
2015 04 09 08 20 30 .14     -31     11     -1     34     35 290.0  -2.2  33382  276.53 0865.16
2015 04 09 08 20 30 .40     -38     -7     -6     39     40 258.5  -9.3  33394  276.73 0865.15
2015 04 09 08 20 30 .65     -37      0    -13     38     41 269.2 -19.7  33388  276.64 0865.15
2015 04 09 08 20 30 .90     -27      4     -3     28     29 279.7  -7.3  33412  277.02 0865.15
2015 04 09 08 20 31 .15     -25      7      1     27     28 286.8   2.9  33420  277.17 0865.15
2015 04 09 08 20 31 .40     -28      3      1     29     30 276.1   2.9  33434  277.39 0865.15
2015 04 09 08 20 31 .65      -9      8     22     13     25 313.3  64.7  33450  277.67 0865.15
2015 04 09 08 20 31 .90      -2    -15     23     16     28 188.0  62.6  33454  277.72 0865.15
2015 04 09 08 20 32 .15      -7     -7     18     11     21 225.0  66.8  33460  277.82 0865.16
2015 04 09 08 20 32 .40     -10      5     13     12     17 295.3  48.2  33474  278.07 0865.16
2015 04 09 08 20 32 .65      -2      0     22      3     22 270.0  90.0  33478  278.12 0865.16
2015 04 09 08 20 32 .91      -1    -12     30     13     32 184.5  75.0  33480  278.17 0865.16
2015 04 09 08 20 33 .15      -4      0     26      5     26 281.5  90.0  33472  278.02 0865.16
2015 04 09 08 20 33 .40     -11     -8     20     14     24 234.0  60.5  33460  277.84 0865.16
2015 04 09 08 20 33 .65      -8    -12     28     15     31 212.6  70.8  33460  277.84 0865.16
2015 04 09 08 20 33 .90     -25    -16     20     30     36 237.6  35.6  33444  277.57 0865.15
2015 04 09 08 20 34 .16      -5      1     20      6     20 288.4  82.8  33452  277.69 0865.15
2015 04 09 08 20 34 .41      -9     -5     22     11     24 241.1  72.9  33446  277.61 0865.15
2015 04 09 08 20 34 .66     -14     -3     24     15     28 254.9  64.7  33464  277.89 0865.15
2015 04 09 08 20 34 .91      -5    -17     31     18     35 198.3  64.7  33468  277.97 0865.15
2015 04 09 08 20 35 .16      -8     -2     28      9     29 251.8  80.7  33464  277.89 0865.15
2015 04 09 08 20 35 .41     -13      0     24     14     27 270.8  64.7  33424  277.22 0865.15
2015 04 09 08 20 35 .66     -10      5     26     12     28 295.3  75.0  33420  277.17 0865.15
2015 04 09 08 20 35 .92     -20      4     30     21     36 283.3  62.6  33432  277.36 0865.15
2015 04 09 08 20 36 .17     -10      5     26     12     28 295.3  75.0  33452  277.70 0865.15
2015 04 09 08 20 36 .43      -3     -8     22      9     23 205.4  79.2  33472  278.02 0865.15
2015 04 09 08 20 36 .67      -2     -7     22      8     23 198.5  81.2  33478  278.12 0865.15
2015 04 09 08 20 36 .92      -3      8     23      9     24 334.6  79.2  33466  277.94 0865.15
2015 04 09 08 20 37 .17     -21      5     31     22     38 283.3  62.6  33444  277.57 0865.15
2015 04 09 08 20 37 .42     -25     13     32     29     43 297.1  52.2  33412  277.02 0865.15
2015 04 09 08 20 37 .67      -7     11     30     14     33 327.5  73.1  33422  277.21 0865.15
2015 04 09 08 20 37 .93      -4      0     26      5     26 281.5  90.0  33450  277.65 0865.15
2015 04 09 08 20 38 .18       0     -3     24      4     24 189.7  90.0  33464  277.89 0865.15
2015 04 09 08 20 38 .42      -2      4     29      5     29 327.5  90.0  33478  278.14 0865.15
2015 04 09 08 20 38 .67     -21    -23     43     32     53 223.2  59.4  33468  277.97 0865.15
2015 04 09 08 20 38 .93     -13    -28     37     31     48 205.3  54.3  33464  277.89 0865.15
2015 04 09 08 20 39 .18     -15     -1     28     16     32 265.6  66.8  33486  278.25 0865.15
2015 04 09 08 20 39 .42     -24      4     32     25     40 281.5  58.5  33476  278.09 0865.15
2015 04 09 08 20 39 .68     -17      1     33     18     37 274.4  68.8  33486  278.25 0865.15
2015 04 09 08 20 39 .93      -8      8     28     12     30 315.0  75.0  33498  278.45 0865.15
2015 04 09 08 20 40 .18      -4      1     25      5     25 288.4  89.0  33502  278.52 0865.15
2015 04 09 08 20 40 .43      -8      8     35     12     37 313.1  81.0  33498  278.47 0865.15
2015 04 09 08 20 40 .68     -27     14     42     31     52 298.9  59.4  33488  278.29 0865.15
2015 04 09 08 20 40 .93     -25     13     39     29     48 297.1  59.4  33484  278.22 0865.15
2015 04 09 08 20 41 .18     -19     12     37     23     43 302.4  64.7  33488  278.30 0865.15
2015 04 09 08 20 41 .44     -15     14     30     21     36 313.1  62.6  33496  278.44 0865.15
2015 04 09 08 20 41 .68      -7     -2     29      8     30 251.6  84.9  33536  279.10 0865.15
2015 04 09 08 20 41 .93       0      5     33      6     33 357.3  89.1  33528  278.95 0865.15
2015 04 09 08 20 42 .18     -14      4     35     15     38 288.4  77.1  33512  278.69 0865.15
2015 04 09 08 20 42 .43     -13      8     31     16     34 302.4  70.8  33512  278.69 0865.15
2015 04 09 08 20 42 .68     -11     12     20     17     26 316.8  54.3  33512  278.70 0865.15
2015 04 09 08 20 42 .94     -10      0      8     11     13 270.0  39.7  33500  278.49 0865.15
2015 04 09 08 20 43 .19     -49     13     -6     51     52 285.1  -7.3  33416  277.09 0865.15
2015 04 09 08 20 43 .45     -49      4     -6     50     51 275.2  -7.3  33418  277.14 0865.15
2015 04 09 08 20 43 .70     -51      0     -6     52     53 270.0  -7.3  33416  277.09 0865.15
2015 04 09 08 20 43 .94     -62      7     -5     63     64 277.0  -5.2  33440  277.51 0865.15
2015 04 09 08 20 44 .20     -44      1     -5     45     46 271.7  -7.3  33446  277.59 0865.15
2015 04 09 08 20 44 .45     -47     -2    -15     48     51 267.4 -17.6  33462  277.87 0865.15
2015 04 09 08 20 44 .70     -43     16      4     47     48 290.8   5.9  33446  277.59 0865.15
2015 04 09 08 20 44 .95     -32     11     -1     35     36 290.0  -3.1  33436  277.44 0865.15
2015 04 09 08 20 45 .20     -20     -7     -1     22     23 250.0  -3.1  33454  277.74 0865.15
2015 04 09 08 20 45 .45      -7     -7      5     11     12 225.0  27.2  33468  277.97 0865.15
2015 04 09 08 20 45 .71     -27    -11     10     30     32 248.3  18.9  33476  278.09 0865.15
2015 04 09 08 20 45 .95     -19    -19     19     27     33 225.0  39.7  33500  278.50 0865.15
2015 04 09 08 20 46 .20     -34    -11      0     36     37 251.8   0.8  33458  277.80 0865.15
2015 04 09 08 20 46 .45     -13    -36     17     39     42 200.0  25.1  33452  277.70 0865.15
2015 04 09 08 20 46 .70     -68    -43      4     81     82 237.6   2.9  33446  277.59 0865.15
2015 04 09 08 20 46 .95     -76    -25    -12     81     82 251.8  -8.8  33418  277.14 0865.15
2015 04 09 08 20 47 .20     -75    -37    -14     84     86 243.8  -9.8  33414  277.06 0865.15
2015 04 09 08 20 47 .46     -49    -23     -3     55     56 244.6  -3.1  33416  277.09 0865.15
2015 04 09 08 20 47 .71     -50    -16      6     53     54 251.4   6.9  33422  277.19 0865.15
2015 04 09 08 20 47 .96     -33    -31      2     46     47 226.0   2.9  33434  277.41 0865.15
2015 04 09 08 20 48 .21     -42    -25    -13     50     52 239.3 -15.4  33428  277.29 0865.15
2015 04 09 08 20 48 .45     -31    -27      6     42     43 228.7   9.0  33434  277.39 0865.15
2015 04 09 08 20 48 .71     -40    -28      2     49     50 234.9   2.9  33426  277.26 0865.15
2015 04 09 08 20 48 .96     -61    -29      3     68     69 244.7   2.9  33436  277.44 0865.15
2015 04 09 08 20 49 .21     -56    -11    -15     58     60 258.5 -14.5  33436  277.42 0865.16
2015 04 09 08 20 49 .46     -58     -8     -9     59     60 262.1  -9.3  33404  276.91 0865.16
2015 04 09 08 20 49 .72     -67     -8     -6     68     69 263.0  -5.2  33404  276.91 0865.16
2015 04 09 08 20 49 .97     -70    -33     -3     78     79 244.6  -2.2  33416  277.11 0865.16
2015 04 09 08 20 50 .22     -68    -32     -9     76     77 244.6  -7.2  33406  276.94 0865.16
2015 04 09 08 20 50 .48     -56    -29     -3     64     65 242.9  -3.1  33414  277.07 0865.16
2015 04 09 08 20 50 .72     -44    -36     11     58     60 230.5  11.1  33432  277.37 0865.16
2015 04 09 08 20 50 .97     -60    -38     -2     72     73 237.6  -2.2  33414  277.06 0865.16
2015 04 09 08 20 51 .22     -63    -28      1     70     71 245.6   0.8  33406  276.92 0865.15
2015 04 09 08 20 51 .48     -61    -50     -1     80     81 230.5  -1.3  33448  277.64 0865.15
2015 04 09 08 20 51 .72     -70    -62      4     94     95 228.2   2.9  33422  277.21 0865.15
2015 04 09 08 20 51 .97     -83    -56     -3    101    102 235.8  -2.2  33420  277.16 0865.15
2015 04 09 08 20 52 .23     -76    -15    -15     78     80 258.5 -10.9  33416  277.11 0865.15
2015 04 09 08 20 52 .48     -79    -20    -11     82     83 255.8  -7.7  33428  277.31 0865.15
2015 04 09 08 20 52 .73     -54      0      8     55     56 270.0   9.0  33452  277.69 0865.15
2015 04 09 08 20 52 .98     -46      3     -2     47     48 274.4  -3.1  33440  277.49 0865.15
2015 04 09 08 20 53 .23     -51      0     -6     52     53 270.0  -7.3  33442  277.54 0865.15
2015 04 09 08 20 53 .48     -42      3      0     43     44 275.2  -0.3  33442  277.54 0865.15
2015 04 09 08 20 53 .73     -23     -7     -1     25     26 251.6  -2.2  33466  277.92 0865.15
2015 04 09 08 20 53 .98     -22     -5      8     23     25 256.7  18.9  33484  278.22 0865.15
2015 04 09 08 20 54 .23     -39      6     13     40     43 279.7  18.4  33492  278.37 0865.15
2015 04 09 08 20 54 .48     -57      1     -8     58     59 271.7  -8.2  33454  277.74 0865.15
2015 04 09 08 20 54 .73     -50    -19    -12     54     56 248.3 -12.4  33460  277.84 0865.15
2015 04 09 08 20 54 .98     -32    -11     -1     35     36 250.0  -2.2  33462  277.85 0865.15
2015 04 09 08 20 55 .23     -43     17     -1     47     48 291.7  -1.3  33470  278.00 0865.15
2015 04 09 08 20 55 .48     -32      5     -1     33     34 279.7  -2.2  33472  278.04 0865.15
2015 04 09 08 20 55 .74      -4      1     13      5     13 288.4  81.2  33492  278.37 0865.15
2015 04 09 08 20 55 .98     -20     -8     11     22     24 248.3  27.2  33506  278.60 0865.15
2015 04 09 08 20 56 .23     -43     12     -4     45     46 285.9  -5.2  33444  277.56 0865.15
2015 04 09 08 20 56 .49     -78     13     -8     80     81 279.7  -6.2  33442  277.54 0865.15
2015 04 09 08 20 56 .74     -93     -4      2     94     95 267.0   1.8  33390  276.66 0865.15
2015 04 09 08 20 56 .99    -101     -1    -21    102    105 269.2 -11.9  33376  276.43 0865.15
2015 04 09 08 20 57 .25    -102     -5    -25    103    107 267.0 -13.9  33392  276.71 0865.15
2015 04 09 08 20 57 .50    -108     -1    -14    109    110 269.2  -7.3  33396  276.78 0865.15
2015 04 09 08 20 57 .75    -119     16    -13    121    122 277.9  -6.2  33404  276.91 0865.15
2015 04 09 08 20 58 .00    -106      7    -12    107    108 274.3  -6.7  33390  276.66 0865.15
2015 04 09 08 20 58 .25    -123      9    -16    124    126 274.4  -7.3  33404  276.91 0865.15
2015 04 09 08 20 58 .50    -120      0     -4    121    122 270.4  -2.2  33392  276.69 0865.15
2015 04 09 08 20 58 .76    -114      6    -16    115    117 273.0  -8.2  33380  276.51 0865.15
2015 04 09 08 20 59 .00    -112     -1    -14    113    114 269.2  -7.2  33384  276.56 0865.15
2015 04 09 08 20 59 .26    -127     -1    -11    128    129 269.2  -5.2  33390  276.66 0865.16
2015 04 09 08 20 59 .51    -105     -8     -8    106    107 265.6  -4.6  33400  276.84 0865.16
2015 04 09 08 20 59 .76    -114     -8    -14    115    116 265.6  -7.2  33410  277.01 0865.16
2015 04 09 08 21 00 .01     -63    -30     13     70     72 244.6  11.0  33444  277.56 0865.16
2015 04 09 08 21 00 .25     -46    -18      6     50     51 248.3   6.9  33454  277.74 0865.16
2015 04 09 08 21 00 .50     -76    -31      2     83     84 247.4   1.8  33432  277.36 0865.16
2015 04 09 08 21 00 .76    -119    -32     -4    124    125 254.9  -2.2  33434  277.41 0865.16
2015 04 09 08 21 01 .01     -80     47      3     94     95 300.7   2.3  33450  277.65 0865.16
2015 04 09 08 21 01 .26     -60     44     -2     75     76 306.0  -2.2  33452  277.69 0865.16
2015 04 09 08 21 01 .51    -109     46     -8    119    120 293.1  -4.1  33412  277.04 0865.16
2015 04 09 08 21 01 .76    -115     47     -6    125    126 292.2  -3.2  33404  276.91 0865.16
2015 04 09 08 21 02 .01    -117     35    -23    123    126 286.9 -10.9  33404  276.89 0865.16
2015 04 09 08 21 02 .26    -103     25    -25    106    109 283.7 -13.4  33404  276.91 0865.16
2015 04 09 08 21 02 .51    -105     19    -28    107    111 280.6 -15.0  33402  276.88 0865.16
2015 04 09 08 21 02 .76    -101     32    -13    107    108 287.7  -7.3  33398  276.79 0865.16
2015 04 09 08 21 03 .01     -94     39     -4    102    103 292.6  -2.2  33410  276.99 0865.16
2015 04 09 08 21 03 .26     -72     42      2     84     85 300.2   1.8  33416  277.11 0865.16
2015 04 09 08 21 03 .51     -66     46      1     81     82 305.1   1.2  33434  277.41 0865.16
2015 04 09 08 21 03 .77     -70     63     -8     95     96 312.2  -5.2  33448  277.64 0865.16
2015 04 09 08 21 04 .02     -75     31    -12     82     83 292.6  -8.8  33452  277.69 0865.16
2015 04 09 08 21 04 .27     -56     31     12     65     67 298.9  11.0  33462  277.87 0865.16
2015 04 09 08 21 04 .52     -67     22      0     71     72 288.6  -0.3  33450  277.67 0865.16
2015 04 09 08 21 04 .77     -49     16      0     52     53 288.2  -0.3  33452  277.69 0865.15
2015 04 09 08 21 05 .03     -66     -5     -3     67     68 265.6  -3.1  33452  277.69 0865.15
2015 04 09 08 21 05 .28    -120    -35      1    126    127 253.6   0.8  33426  277.26 0865.15
2015 04 09 08 21 05 .53    -137    -32     -7    141    142 256.8  -3.1  33432  277.37 0865.15
2015 04 09 08 21 05 .78    -104    -67      3    124    125 237.1   1.8  33446  277.61 0865.15
2015 04 09 08 21 06 .03    -103    -77    -11    129    130 233.1  -5.2  33440  277.49 0865.15
2015 04 09 08 21 06 .28     -90    -57     20    107    109 237.5  11.0  33462  277.87 0865.15
2015 04 09 08 21 06 .53     -74    -64      1     99    100 229.1   0.8  33460  277.82 0865.15
2015 04 09 08 21 06 .78     -65    -55     32     86     91 229.6  21.0  33452  277.69 0865.15
2015 04 09 08 21 07 .03    -102    -39     15    110    112 249.2   8.0  33438  277.46 0865.15
2015 04 09 08 21 07 .29    -129    -65    -14    145    146 243.0  -5.6  33402  276.88 0865.15
2015 04 09 08 21 07 .53     -94    -79      2    124    125 230.0   1.2  33432  277.37 0865.16
2015 04 09 08 21 07 .79     -57    -92     13    109    110 212.1   6.9  33416  277.09 0865.16
2015 04 09 08 21 08 .03     -77    -82     41    113    120 223.3  20.9  33446  277.59 0865.16
2015 04 09 08 21 08 .28     -88    -42     -1     98     99 244.6  -0.7  33442  277.54 0865.16
2015 04 09 08 21 08 .54     -98    -45      0    109    110 245.2  -0.3  33378  276.46 0865.16
2015 04 09 08 21 08 .78    -103    -68      2    124    125 236.3   1.2  33382  276.53 0865.16
2015 04 09 08 21 09 .04    -116    -59     -2    131    132 243.0  -1.3  33392  276.69 0865.16
2015 04 09 08 21 09 .28    -105    -62    -10    123    124 239.3  -5.1  33382  276.54 0865.15
2015 04 09 08 21 09 .54    -106    -58    -20    122    124 241.2  -9.3  33388  276.64 0865.15
2015 04 09 08 21 09 .78    -140    -66    -18    156    158 244.6  -6.9  33390  276.66 0865.15
2015 04 09 08 21 10 .04    -126    -67    -18    143    145 242.0  -7.3  33390  276.66 0865.15
2015 04 09 08 21 10 .28    -119    -72    -10    140    141 238.9  -4.1  33392  276.69 0865.15
2015 04 09 08 21 10 .54    -119    -62    -17    135    137 242.5  -7.3  33374  276.41 0865.15
2015 04 09 08 21 10 .80    -115    -63    -14    132    133 241.2  -6.2  33374  276.41 0865.15
2015 04 09 08 21 11 .05    -124    -68    -13    142    143 241.1  -5.6  33374  276.41 0865.15
2015 04 09 08 21 11 .30    -111    -59    -17    126    128 242.0  -7.7  33372  276.36 0865.15
2015 04 09 08 21 11 .55    -111    -59    -17    126    128 242.0  -7.7  33372  276.36 0865.15
2015 04 09 08 21 11 .80    -102    -66    -15    122    124 237.1  -7.3  33378  276.48 0865.15
2015 04 09 08 21 12 .05     -99    -63    -12    118    119 237.6  -6.2  33384  276.56 0865.15
2015 04 09 08 21 12 .30    -103    -59    -15    119    120 240.2  -7.2  33386  276.59 0865.15
2015 04 09 08 21 12 .56     -97    -61    -27    115    119 237.6 -13.3  33384  276.56 0865.15
2015 04 09 08 21 12 .81     -98    -60     -4    116    117 238.5  -2.2  33438  277.46 0865.15
2015 04 09 08 21 13 .05     -62    -97     22    116    119 212.5  11.0  33452  277.69 0865.15
2015 04 09 08 21 13 .31     -59    -64     19     88     91 222.8  12.6  33454  277.72 0865.15
2015 04 09 08 21 13 .55     -47    -65     37     81     89 216.1  26.2  33470  277.99 0865.15
2015 04 09 08 21 13 .80     -58    -63     48     86     98 222.8  31.4  33466  277.92 0865.16
2015 04 09 08 21 14 .05     -73    -74     52    105    117 224.5  27.8  33462  277.87 0865.16
2015 04 09 08 21 14 .30     -59    -82     30    102    107 216.0  16.8  33438  277.46 0865.16
2015 04 09 08 21 14 .56     -54    -64     23     84     88 220.1  15.3  33430  277.34 0865.16
2015 04 09 08 21 14 .80     -84    -58     -4    103    104 235.4  -2.2  33396  276.78 0865.16
2015 04 09 08 21 15 .06     -88    -56     -1    105    106 237.1  -0.7  33378  276.48 0865.16
2015 04 09 08 21 15 .31     -86    -73    -10    114    115 229.6  -5.2  33372  276.38 0865.16
2015 04 09 08 21 15 .56     -76    -81     -7    112    113 223.2  -3.7  33370  276.34 0865.16
2015 04 09 08 21 15 .81     -72    -74    -10    104    105 224.5  -5.6  33366  276.28 0865.15
2015 04 09 08 21 16 .06     -64    -67    -28     93     97 223.7 -22.3  33366  276.26 0865.15
2015 04 09 08 21 16 .31     -93    -70    -35    117    122 233.1 -21.7  33380  276.49 0865.15
2015 04 09 08 21 16 .56     -97    -62    -36    116    121 237.1 -22.3  33382  276.53 0865.15
2015 04 09 08 21 16 .81     -82    -58    -49    101    112 234.5 -31.7  33378  276.46 0865.15
2015 04 09 08 21 17 .06     -99    -70    -52    122    132 234.5 -29.0  33366  276.28 0865.15
2015 04 09 08 21 17 .31     -90    -57    -48    107    117 237.5 -30.1  33370  276.33 0865.15
2015 04 09 08 21 17 .57     -82    -58    -44    101    110 234.5 -29.5  33364  276.23 0865.15
2015 04 09 08 21 17 .82     -91    -57    -37    108    114 238.0 -23.3  33368  276.31 0865.15
2015 04 09 08 21 18 .08    -101    -47    -39    112    118 244.8 -24.4  33378  276.46 0865.15
2015 04 09 08 21 18 .32    -100    -50    -36    112    117 243.4 -23.3  33370  276.34 0865.15
2015 04 09 08 21 18 .58     -95    -57    -31    112    117 238.9 -15.5  33366  276.26 0865.15
2015 04 09 08 21 18 .83     -95    -57    -31    112    117 238.9 -15.5  33366  276.26 0865.15
2015 04 09 08 21 19 .08     -93    -51    -33    107    111 241.1 -22.8  33366  276.26 0865.15
2015 04 09 08 21 19 .33     -97    -49    -39    109    116 242.9 -19.7  33366  276.28 0865.15
2015 04 09 08 21 19 .58     -89    -45    -30    100    105 242.9 -17.0  33368  276.31 0865.15
2015 04 09 08 21 19 .83     -87    -50    -28    101    105 239.8 -15.5  33366  276.28 0865.15
2015 04 09 08 21 20 .08     -83    -60    -26    103    107 234.0 -14.5  33368  276.31 0865.15
2015 04 09 08 21 20 .33     -89    -65    -26    111    115 234.1 -13.4  33366  276.26 0865.15
2015 04 09 08 21 20 .58     -97    -61    -27    115    119 237.6 -13.3  33366  276.26 0865.15
2015 04 09 08 21 20 .83    -102    -58    -29    118    122 240.2 -13.9  33366  276.28 0865.15
2015 04 09 08 21 21 .08    -103    -54    -32    117    122 242.0 -15.5  33368  276.31 0865.15
2015 04 09 08 21 21 .33     -94    -45    -35    105    110 244.2 -23.6  33366  276.28 0865.15
2015 04 09 08 21 21 .58     -97    -43    -37    107    113 246.0 -23.3  33374  276.41 0865.15
2015 04 09 08 21 21 .83     -95    -31    -37    100    106 251.8 -24.8  33374  276.41 0865.15
2015 04 09 08 21 22 .08     -97    -43    -37    107    113 246.0 -23.3  33374  276.41 0865.15
2015 04 09 08 21 22 .33     -72    -50    -35     88     94 234.9 -26.4  33370  276.33 0865.15
2015 04 09 08 21 22 .58     -76    -55    -37     94    101 234.0 -27.4  33372  276.36 0865.15
2015 04 09 08 21 22 .83     -79    -51    -32     95    100 237.1 -23.6  33368  276.31 0865.15
2015 04 09 08 21 23 .08     -77    -56    -32     96    101 233.6 -23.6  33366  276.26 0865.15
2015 04 09 08 21 23 .34     -83    -53    -35     99    106 237.5 -19.7  33366  276.28 0865.15
2015 04 09 08 21 23 .58     -81    -54    -29     98    102 236.3 -21.2  33368  276.31 0865.15
2015 04 09 08 21 23 .84     -83    -53    -35     99    106 237.5 -19.7  33366  276.28 0865.15
2015 04 09 08 21 24 .09     -81    -50    -31     96    101 238.5 -18.1  33374  276.41 0865.15
2015 04 09 08 21 24 .34     -91    -57    -20    108    110 237.6 -10.9  33376  276.44 0865.15
2015 04 09 08 21 24 .60     -92    -58    -34    109    115 237.6 -17.6  33376  276.43 0865.15
2015 04 09 08 21 24 .85     -88    -56    -22    105    108 237.5 -11.9  33364  276.25 0865.15
2015 04 09 08 21 25 .10     -83    -49    -24     97    100 239.3 -13.9  33370  276.33 0865.15
2015 04 09 08 21 25 .35     -77    -49    -25     92     96 237.6 -15.5  33372  276.36 0865.15
2015 04 09 08 21 25 .60     -80    -45    -22     92     95 240.7 -13.4  33372  276.36 0865.15
2015 04 09 08 21 25 .85     -72    -50    -24     88     92 234.9 -15.4  33366  276.28 0865.15
2015 04 09 08 21 26 .10     -82    -50    -16     97     99 238.5  -9.3  33366  276.26 0865.15
2015 04 09 08 21 26 .36     -70    -59     -9     92     93 230.0  -5.6  33376  276.43 0865.15
2015 04 09 08 21 26 .60     -79    -56     -8     98     99 234.5  -5.2  33370  276.33 0865.15
2015 04 09 08 21 26 .85     -76    -56    -12     95     96 233.6  -7.2  33366  276.26 0865.15
2015 04 09 08 21 27 .10     -82    -56     -9    100    101 235.4  -5.2  33366  276.28 0865.15
2015 04 09 08 21 27 .36     -66    -59      1     89     90 228.2   1.2  33372  276.36 0865.15
2015 04 09 08 21 27 .60     -73    -63      2     97     98 229.1   1.2  33368  276.31 0865.15
2015 04 09 08 21 27 .85     -69    -55      0     89     90 231.4  -0.3  33366  276.28 0865.15
2015 04 09 08 21 28 .11     -74    -51     -3     91     92 235.4  -2.2  33368  276.31 0865.15
2015 04 09 08 21 28 .36     -73    -51     -2     90     91 234.9  -1.8  33366  276.26 0865.15
2015 04 09 08 21 28 .61     -67    -48     -9     83     84 234.1  -6.2  33368  276.30 0865.15
2015 04 09 08 21 28 .86     -72    -59    -10     94     95 230.5  -6.2  33364  276.23 0865.15
2015 04 09 08 21 29 .11     -68    -63    -22     93     96 227.3 -13.4  33366  276.26 0865.15
2015 04 09 08 21 29 .36     -67    -67    -19     95     97 225.0 -11.3  33364  276.23 0865.15
2015 04 09 08 21 29 .61     -76    -56    -12     95     96 233.6  -7.2  33366  276.26 0865.15
2015 04 09 08 21 29 .86     -67    -51    -18     85     88 232.7 -12.4  33364  276.23 0865.15
2015 04 09 08 21 30 .11     -71    -49    -21     87     90 235.4 -13.9  33366  276.26 0865.15
2015 04 09 08 21 30 .36     -75    -45    -15     88     90 238.9  -9.8  33368  276.31 0865.15
2015 04 09 08 21 30 .61     -75    -45    -15     88     90 238.9  -9.8  33368  276.31 0865.15
2015 04 09 08 21 30 .86     -77    -41    -19     88     91 242.0 -12.4  33370  276.34 0865.15
2015 04 09 08 21 31 .11     -80    -45    -22     92     95 240.7 -13.4  33372  276.36 0865.15
2015 04 09 08 21 31 .36     -85    -54    -18    101    103 237.6 -10.3  33368  276.31 0865.15
2015 04 09 08 21 31 .62     -82    -56     -9    100    101 235.4  -5.2  33366  276.28 0865.15
2015 04 09 08 21 31 .87     -84    -64    -13    106    107 232.7  -7.3  33366  276.28 0865.15
2015 04 09 08 21 32 .12     -79    -74     -4    109    110 226.8  -2.6  33366  276.28 0865.15
2015 04 09 08 21 32 .38     -72    -81     -4    109    110 221.9  -2.2  33368  276.30 0865.15
2015 04 09 08 21 32 .63     -59    -81     -8    101    102 216.1  -4.6  33382  276.54 0865.15
2015 04 09 08 21 32 .88     -72    -74    -10    104    105 224.5  -5.6  33366  276.28 0865.15
2015 04 09 08 21 33 .13     -75    -78    -12    109    110 224.1  -6.7  33368  276.31 0865.15
2015 04 09 08 21 33 .38     -65    -78    -16    102    104 219.7  -9.3  33368  276.31 0865.15
2015 04 09 08 21 33 .63     -51    -68    -16     86     88 217.0 -10.9  33378  276.46 0865.16
2015 04 09 08 21 33 .88     -63    -74    -21     98    101 220.5 -12.4  33372  276.36 0865.16
2015 04 09 08 21 34 .13     -62    -74    -12     97     98 220.1  -7.3  33366  276.28 0865.16
2015 04 09 08 21 34 .38     -74    -61    -11     97     98 230.5  -6.7  33368  276.30 0865.16
2015 04 09 08 21 34 .63     -78    -63     -8    101    102 231.4  -4.6  33370  276.33 0865.16
2015 04 09 08 21 34 .88     -76    -60     -6     98     99 231.8  -3.7  33368  276.31 0865.16
2015 04 09 08 21 35 .13     -80    -52     -6     96     97 236.7  -4.1  33368  276.31 0865.16
2015 04 09 08 21 35 .38     -70    -45    -16     84     86 237.5 -11.3  33370  276.33 0865.16
2015 04 09 08 21 35 .63     -72    -49    -12     88     89 235.4  -8.2  33370  276.34 0865.16
2015 04 09 08 21 35 .88     -71    -45    -10     85     86 237.5  -7.3  33374  276.41 0865.16
2015 04 09 08 21 36 .13     -72    -49    -12     88     89 235.4  -8.2  33370  276.34 0865.16
2015 04 09 08 21 36 .39     -72    -51    -15     89     91 234.9  -9.8  33372  276.36 0865.15
2015 04 09 08 21 36 .64     -77    -49    -16     92     94 237.6 -10.3  33370  276.33 0865.15
2015 04 09 08 21 36 .89     -83    -53    -19     99    101 237.6 -11.3  33370  276.33 0865.15
2015 04 09 08 21 37 .14     -72    -51    -15     89     91 234.9  -9.8  33372  276.36 0865.15
2015 04 09 08 21 37 .39     -72    -51    -15     89     91 234.9  -9.8  33372  276.36 0865.15
2015 04 09 08 21 37 .64     -79    -52    -21     95     98 236.7 -12.9  33368  276.31 0865.15
2015 04 09 08 21 37 .89     -77    -49    -16     92     94 237.6 -10.3  33370  276.33 0865.15
2015 04 09 08 21 38 .14     -72    -49    -12     88     89 235.4  -8.2  33370  276.34 0865.15
2015 04 09 08 21 38 .40     -79    -52    -21     95     98 236.7 -12.9  33368  276.31 0865.15
2015 04 09 08 21 38 .65     -79    -52    -21     95     98 236.7 -12.9  33368  276.31 0865.15
2015 04 09 08 21 38 .90     -78    -63    -15    101    103 230.9  -8.8  33366  276.26 0865.15
2015 04 09 08 21 39 .15     -74    -55    -17     93     95 233.1 -10.9  33370  276.33 0865.15
2015 04 09 08 21 39 .40     -74    -55    -17     93     95 233.1 -10.9  33370  276.33 0865.15
2015 04 09 08 21 39 .65     -74    -55    -17     93     95 233.1 -10.9  33370  276.33 0865.15
2015 04 09 08 21 39 .90     -74    -55    -17     93     95 233.1 -10.9  33370  276.33 0865.15
2015 04 09 08 21 40 .15     -76    -60    -21     98    101 231.8 -12.4  33368  276.31 0865.15
2015 04 09 08 21 40 .40     -66    -59    -19     89     92 228.2 -12.4  33366  276.28 0865.15
2015 04 09 08 21 40 .65     -62    -62    -26     88     92 225.0 -16.6  33366  276.26 0865.15
2015 04 09 08 21 40 .90     -61    -58    -20     85     88 226.4 -13.4  33366  276.26 0865.16
2015 04 09 08 21 41 .16     -61    -63    -11     88     89 224.1  -7.7  33366  276.26 0865.16
2015 04 09 08 21 41 .41     -57    -49     -9     76     77 229.6  -7.2  33366  276.28 0865.16
2015 04 09 08 21 41 .66     -62    -59    -13     86     88 226.4  -8.8  33366  276.28 0865.16
2015 04 09 08 21 41 .91     -69    -55    -12     89     90 231.4  -7.7  33368  276.30 0865.16
2015 04 09 08 21 42 .16     -64    -55    -16     85     87 229.6 -10.9  33366  276.26 0865.16
2015 04 09 08 21 42 .41     -61    -56    -18     83     85 227.3 -12.4  33364  276.25 0865.16
2015 04 09 08 21 42 .66     -67    -56    -24     88     91 230.0 -20.2  33364  276.25 0865.16
2015 04 09 08 21 42 .91     -59    -59    -24     84     87 225.0 -21.2  33362  276.20 0865.16
2015 04 09 08 21 43 .16     -66    -79    -31    104    108 220.1 -21.2  33364  276.23 0865.16
2015 04 09 08 21 43 .41     -59    -74    -38     95    102 218.7 -27.4  33362  276.21 0865.16
2015 04 09 08 21 43 .66     -52    -70    -38     88     95 216.5 -29.5  33360  276.16 0865.16
2015 04 09 08 21 43 .91     -59    -74    -38     95    102 218.7 -27.4  33362  276.21 0865.16
2015 04 09 08 21 44 .16     -61    -70    -26     94     97 221.0 -20.7  33364  276.23 0865.16
2015 04 09 08 21 44 .41     -57    -62    -29     85     90 222.8 -19.1  33364  276.23 0865.16
2015 04 09 08 21 44 .67     -56    -70    -29     90     94 218.7 -23.8  33362  276.21 0865.15
2015 04 09 08 21 44 .91     -45    -63    -27     78     82 216.1 -23.8  33364  276.23 0865.15
2015 04 09 08 21 45 .16     -45    -63    -27     78     82 216.1 -23.8  33364  276.23 0865.15
2015 04 09 08 21 45 .42     -49    -59    -29     77     82 219.7 -25.9  33362  276.20 0865.15
2015 04 09 08 21 45 .67     -45    -63    -27     78     82 216.1 -23.8  33364  276.23 0865.15
2015 04 09 08 21 45 .93     -49    -66    -29     83     87 216.5 -23.8  33362  276.21 0865.15
2015 04 09 08 21 46 .17     -45    -63    -27     78     82 216.1 -23.8  33364  276.23 0865.15
2015 04 09 08 21 46 .43     -42    -65    -28     78     82 213.4 -24.8  33364  276.25 0865.15
2015 04 09 08 21 46 .68     -44    -70    -35     83     90 212.1 -29.0  33364  276.23 0865.15
2015 04 09 08 21 46 .93     -44    -70    -35     83     90 212.1 -29.0  33364  276.23 0865.15
2015 04 09 08 21 47 .18     -39    -72    -31     82     87 208.5 -25.4  33364  276.23 0865.15
2015 04 09 08 21 47 .43     -43    -68    -24     81     84 212.6 -21.7  33362  276.20 0865.15
2015 04 09 08 21 47 .68     -48    -71    -26     87     91 214.3 -17.0  33364  276.25 0865.15
2015 04 09 08 21 47 .93     -48    -71    -17     86     88 214.3 -11.3  33366  276.28 0865.15
2015 04 09 08 21 48 .18     -47    -63    -19     79     82 217.0 -13.4  33364  276.23 0865.15
2015 04 09 08 21 48 .43     -42    -64    -21     77     80 213.4 -15.5  33366  276.26 0865.15
2015 04 09 08 21 48 .68     -45    -58    -24     74     77 217.8 -23.8  33366  276.26 0865.15
2015 04 09 08 21 48 .93     -45    -63    -27     78     82 216.1 -23.8  33364  276.23 0865.15
2015 04 09 08 21 49 .18     -54    -58    -26     80     84 223.2 -23.8  33366  276.28 0865.14
2015 04 09 08 21 49 .43     -52    -63    -24     82     85 219.6 -21.2  33366  276.26 0865.14
2015 04 09 08 21 49 .68     -55    -55    -20     78     81 225.1 -15.0  33366  276.26 0865.14
2015 04 09 08 21 49 .94     -62    -51    -21     81     84 230.5 -15.0  33366  276.26 0865.14
2015 04 09 08 21 50 .19     -61    -50    -28     80     85 230.5 -19.7  33366  276.28 0865.14
2015 04 09 08 21 50 .44     -49    -49    -29     70     75 225.0 -27.5  33364  276.25 0865.14
2015 04 09 08 21 50 .69     -51    -47    -24     70     74 226.8 -23.3  33366  276.26 0865.14
2015 04 09 08 21 50 .93     -49    -49    -29     70     75 225.0 -27.5  33364  276.25 0865.14
2015 04 09 08 21 51 .19     -51    -47    -24     70     74 226.8 -23.3  33366  276.26 0865.14
2015 04 09 08 21 51 .44     -56    -47    -29     74     79 230.4 -26.4  33368  276.31 0865.14
2015 04 09 08 21 51 .69     -60    -45    -31     76     82 233.1 -27.4  33366  276.28 0865.14
2015 04 09 08 21 51 .94     -56    -47    -29     74     79 230.4 -26.4  33368  276.31 0865.14
2015 04 09 08 21 52 .19     -50    -47    -22     69     73 226.8 -17.6  33370  276.34 0865.14
2015 04 09 08 21 52 .45     -52    -40    -24     66     70 232.2 -24.4  33368  276.31 0865.14
2015 04 09 08 21 52 .70     -54    -44    -20     70     72 230.5 -20.7  33372  276.36 0865.14
2015 04 09 08 21 52 .95     -50    -47    -22     69     73 226.8 -17.6  33370  276.34 0865.14
2015 04 09 08 21 53 .20     -52    -40    -24     66     70 232.2 -24.4  33368  276.31 0865.14
2015 04 09 08 21 53 .45     -48    -46    -20     67     69 225.9 -21.7  33368  276.31 0865.14
2015 04 09 08 21 53 .70     -41    -51    -26     66     70 218.7 -27.4  33366  276.28 0865.14
2015 04 09 08 21 53 .95     -40    -59    -26     72     76 214.3 -23.3  33366  276.28 0865.14
2015 04 09 08 21 54 .20     -40    -59    -26     72     76 214.3 -23.3  33366  276.28 0865.14
2015 04 09 08 21 54 .45     -34    -54    -20     65     68 212.5 -22.8  33368  276.31 0865.14
2015 04 09 08 21 54 .70     -28    -62    -20     69     73 204.5 -16.6  33368  276.31 0865.14
2015 04 09 08 21 54 .96     -34    -54    -20     65     68 212.5 -22.8  33368  276.31 0865.14
2015 04 09 08 21 55 .21     -29    -46    -16     55     57 212.5 -21.7  33370  276.34 0865.14
2015 04 09 08 21 55 .46     -18    -43    -18     47     50 202.7 -25.4  33382  276.53 0865.14
2015 04 09 08 21 55 .71     -24    -46     -2     53     54 208.1  -2.2  33392  276.71 0865.14
2015 04 09 08 21 55 .96     -21    -45    -10     50     52 205.4 -11.3  33390  276.66 0865.14
2015 04 09 08 21 56 .21     -17    -50    -18     54     56 199.2 -23.6  33388  276.63 0865.14
2015 04 09 08 21 56 .46     -17    -50     -2     53     54 199.2  -2.2  33390  276.66 0865.14
2015 04 09 08 21 56 .71     -28    -49     -2     57     58 209.9  -2.2  33390  276.68 0865.14
2015 04 09 08 21 56 .96     -33    -40    -20     52     55 219.6 -25.4  33368  276.30 0865.14
2015 04 09 08 21 57 .21     -25    -46    -18     53     55 209.0 -23.6  33366  276.28 0865.14
2015 04 09 08 21 57 .46     -27    -43    -20     51     54 212.5 -25.4  33366  276.26 0865.15
2015 04 09 08 21 57 .71     -28    -50    -20     58     61 209.9 -23.3  33366  276.26 0865.15
2015 04 09 08 21 57 .96     -18    -59    -22     62     66 196.9 -19.7  33366  276.28 0865.15
2015 04 09 08 21 58 .21     -22    -50    -12     55     57 203.6 -12.4  33370  276.33 0865.15
2015 04 09 08 21 58 .46     -29    -46    -12     55     57 212.6 -12.4  33366  276.28 0865.15
2015 04 09 08 21 58 .72     -29    -37      0     48     49 217.8  -0.3  33378  276.48 0865.15
2015 04 09 08 21 58 .97     -38    -46     -2     60     61 219.7  -2.2  33378  276.46 0865.15
2015 04 09 08 21 59 .22     -38    -46     -2     60     61 219.7  -2.2  33378  276.46 0865.15
2015 04 09 08 21 59 .48     -38    -46     -1     61     62 219.6  -1.3  33386  276.61 0865.15
2015 04 09 08 21 59 .73     -45    -49      3     67     68 222.3   2.9  33400  276.83 0865.15
2015 04 09 08 21 59 .98     -41    -50      8     65     66 219.6   7.1  33400  276.83 0865.15
2015 04 09 08 22 00 .23     -56    -47     -1     74     75 230.4  -1.2  33388  276.64 0865.15
2015 04 09 08 22 00 .48     -50    -47     -2     69     70 226.8  -2.2  33386  276.61 0865.15
2015 04 09 08 22 00 .73     -44    -40      0     60     61 227.8   0.8  33394  276.73 0865.15
2015 04 09 08 22 00 .98     -49    -43      0     66     67 228.7   0.8  33392  276.69 0865.15
2015 04 09 08 22 01 .23     -35    -42      1     55     56 219.6   1.8  33382  276.53 0865.15
2015 04 09 08 22 01 .48     -47    -39     -2     62     63 230.4  -2.2  33372  276.38 0865.15
2015 04 09 08 22 01 .73     -54    -43     -3     70     71 231.4  -3.1  33370  276.33 0865.15
2015 04 09 08 22 01 .98     -50    -47     -8     69     70 226.9  -7.2  33370  276.33 0865.15
2015 04 09 08 22 02 .23     -60    -44     -9     75     76 234.0  -7.2  33370  276.33 0865.15
2015 04 09 08 22 02 .48     -40    -37    -12     55     57 226.9 -12.4  33370  276.34 0865.15
2015 04 09 08 22 02 .73     -43    -42    -16     61     64 226.0 -14.5  33368  276.31 0865.15
2015 04 09 08 22 02 .98     -43    -35    -15     56     59 230.5 -15.4  33372  276.36 0865.15
2015 04 09 08 22 03 .23     -41    -31    -11     52     54 232.2 -12.4  33370  276.34 0865.15
2015 04 09 08 22 03 .49     -35    -42    -14     55     57 219.7 -14.5  33366  276.28 0865.15
2015 04 09 08 22 03 .74     -40    -41    -17     58     61 224.1 -16.6  33366  276.28 0865.16
2015 04 09 08 22 03 .99     -40    -41    -17     58     61 224.1 -16.6  33366  276.28 0865.16
2015 04 09 08 22 04 .24     -38    -37    -15     54     57 225.9 -15.5  33368  276.31 0865.16
2015 04 09 08 22 04 .49     -36    -36    -15     51     53 225.0 -22.8  33372  276.36 0865.16
2015 04 09 08 22 04 .74     -31    -35    -17     48     50 221.4 -23.3  33370  276.33 0865.16
2015 04 09 08 22 04 .99     -28    -31    -16     43     45 222.3 -24.4  33370  276.34 0865.16
2015 04 09 08 22 05 .24     -30    -31    -16     44     46 224.1 -24.4  33378  276.46 0865.16
2015 04 09 08 22 05 .49     -19    -30    -10     36     38 212.5 -15.4  33378  276.46 0865.16
2015 04 09 08 22 05 .74     -22    -26      1     35     36 219.7   2.8  33374  276.39 0865.16
2015 04 09 08 22 05 .99     -31    -32      2     45     46 224.2   2.9  33374  276.41 0865.16
2015 04 09 08 22 06 .26     -39    -39     -2     56     57 225.0  -2.2  33378  276.46 0865.16
2015 04 09 08 22 06 .51     -45    -45     -2     64     65 225.1  -2.2  33408  276.97 0865.16
2015 04 09 08 22 06 .75     -51    -47     -2     70     71 226.9  -2.2  33414  277.06 0865.16
2015 04 09 08 22 07 .01     -45    -49     -8     67     68 222.3  -7.2  33390  276.68 0865.16
2015 04 09 08 22 07 .26     -49    -43     -6     66     67 228.7  -5.2  33426  277.26 0865.16
2015 04 09 08 22 07 .50     -50    -36    -12     62     64 234.0 -11.5  33430  277.34 0865.16
2015 04 09 08 22 07 .76     -41    -33    -12     53     55 231.4 -13.4  33412  277.04 0865.16
2015 04 09 08 22 08 .01     -47    -30     -2     56     57 237.6  -2.2  33438  277.47 0865.16
2015 04 09 08 22 08 .26     -49    -34     -3     60     61 234.9  -3.2  33422  277.21 0865.15
2015 04 09 08 22 08 .51     -45    -20     -6     50     51 245.6  -7.3  33434  277.39 0865.15
2015 04 09 08 22 08 .76     -39    -25     -1     47     48 236.7  -2.2  33428  277.31 0865.15
2015 04 09 08 22 09 .51     -43    -12     -5     45     46 254.1  -7.3  33424  277.24 0865.15
2015 04 09 08 22 09 .76     -41    -19     -1     46     47 244.7  -2.2  33444  277.57 0865.15
2015 04 09 08 22 10 .01     -47    -30     -2     56     57 237.6  -2.2  33450  277.67 0865.15
2015 04 09 08 22 10 .26     -38    -37     11     54     56 225.9  12.2  33450  277.65 0865.15
2015 04 09 08 22 10 .51     -33    -35     20     49     52 223.2  23.0  33454  277.74 0865.15
2015 04 09 08 22 10 .76     -37    -44     11     58     60 220.5  11.1  33438  277.46 0865.15
2015 04 09 08 22 11 .01     -46    -47      9     66     67 224.2   8.0  33434  277.39 0865.15
2015 04 09 08 22 11 .27     -46    -38     16     61     64 230.4  15.3  33436  277.42 0865.15
2015 04 09 08 22 11 .51     -52    -29     15     60     62 240.2  14.3  33436  277.44 0865.15
2015 04 09 08 22 11 .76     -52    -33     -2     62     63 237.6  -2.2  33402  276.86 0865.15
2015 04 09 08 22 12 .02     -50    -32     -2     60     61 237.5  -2.2  33406  276.94 0865.15
2015 04 09 08 22 12 .26     -54    -25     -7     60     61 244.8  -7.3  33402  276.88 0865.15
2015 04 09 08 22 12 .53     -44    -26    -11     52     54 239.3 -12.4  33418  277.12 0865.15
2015 04 09 08 22 12 .77     -42    -21     -1     48     49 242.9  -2.2  33442  277.54 0865.15
2015 04 09 08 22 13 .02     -50    -32      1     60     61 237.5   1.8  33444  277.57 0865.15
2015 04 09 08 22 13 .28     -52    -29     -1     60     61 240.2  -1.2  33446  277.59 0865.15
2015 04 09 08 22 13 .54     -55    -20     -8     59     60 250.0  -8.2  33422  277.21 0865.15
2015 04 09 08 22 13 .78     -57     -4     -7     58     59 265.6  -7.3  33428  277.29 0865.15
2015 04 09 08 22 14 .03     -53     -8    -12     54     56 261.2 -12.4  33402  276.88 0865.15
2015 04 09 08 22 14 .28     -53    -13     -8     55     56 255.8  -8.2  33396  276.76 0865.15
2015 04 09 08 22 14 .54     -48     -3     -5     49     50 265.6  -6.2  33414  277.06 0865.15
2015 04 09 08 22 14 .78     -48    -10     -3     50     51 257.6  -4.1  33398  276.81 0865.15
2015 04 09 08 22 15 .04     -44    -28     -6     53     54 237.6  -7.2  33426  277.27 0865.15
2015 04 09 08 22 15 .29     -35    -28     -4     45     46 231.4  -6.2  33434  277.41 0865.15
2015 04 09 08 22 15 .53     -35    -35      0     50     51 225.0  -0.3  33436  277.44 0865.15
2015 04 09 08 22 15 .78     -27    -26     -2     38     39 226.7  -3.1  33430  277.34 0865.15
2015 04 09 08 22 16 .03     -41    -32     -4     53     54 232.2  -5.2  33426  277.26 0865.15
2015 04 09 08 22 16 .28     -34    -34      6     49     50 225.0   8.0  33420  277.16 0865.15
2015 04 09 08 22 16 .54     -38    -38      4     54     55 225.0   4.9  33412  277.04 0865.15
2015 04 09 08 22 16 .79     -44    -33     -6     55     56 233.1  -6.2  33396  276.76 0865.15
2015 04 09 08 22 17 .04     -43    -36     -7     57     58 230.5  -7.3  33384  276.58 0865.15
2015 04 09 08 22 17 .29     -40    -35     -8     54     55 228.7  -9.3  33380  276.51 0865.15
2015 04 09 08 22 17 .54     -33    -31     -2     46     47 226.0  -3.1  33388  276.63 0865.15
2015 04 09 08 22 17 .79     -44    -36     -7     58     59 230.5  -7.3  33382  276.53 0865.15
2015 04 09 08 22 18 .04     -50    -36     -5     63     64 234.0  -5.2  33372  276.36 0865.15
2015 04 09 08 22 18 .29     -41    -29     -9     51     52 234.9 -10.3  33374  276.41 0865.15
2015 04 09 08 22 18 .54     -47    -32    -10     58     59 235.8 -10.3  33372  276.36 0865.15
2015 04 09 08 22 18 .79     -47    -32    -10     58     59 235.8 -10.3  33372  276.36 0865.15
2015 04 09 08 22 19 .04     -43    -36     -7     57     58 230.5  -7.3  33372  276.38 0865.15
2015 04 09 08 22 19 .29     -41    -32     -4     53     54 232.2  -5.2  33374  276.41 0865.15
2015 04 09 08 22 19 .54     -45    -38     -9     60     61 229.6  -9.3  33374  276.41 0865.15
2015 04 09 08 22 19 .79     -40    -40     -6     57     58 225.1  -6.2  33374  276.41 0865.15
2015 04 09 08 22 20 .04     -38    -38     -2     54     55 225.0  -2.2  33374  276.41 0865.15
2015 04 09 08 22 20 .30     -40    -41    -10     58     59 224.1 -10.3  33374  276.41 0865.15
2015 04 09 08 22 20 .56     -34    -40     -9     53     54 220.5 -10.3  33378  276.46 0865.15
2015 04 09 08 22 20 .80     -35    -36    -12     51     53 224.2 -13.4  33376  276.43 0865.15
2015 04 09 08 22 21 .06     -45    -43     -8     63     64 226.9  -7.2  33384  276.58 0865.15
2015 04 09 08 22 21 .31     -45    -38     -9     60     61 229.6  -9.3  33374  276.41 0865.15
2015 04 09 08 22 21 .56     -46    -48    -11     67     68 224.2  -9.3  33372  276.36 0865.15
2015 04 09 08 22 21 .81     -46    -47    -18     66     69 224.2 -15.4  33386  276.59 0865.15
2015 04 09 08 22 22 .06     -44    -36     -7     58     59 230.5  -7.3  33382  276.53 0865.15
2015 04 09 08 22 22 .31     -41    -31    -11     52     54 232.2 -12.4  33388  276.64 0865.15
2015 04 09 08 22 22 .56     -39    -32    -14     51     53 230.5 -15.5  33392  276.71 0865.15
2015 04 09 08 22 22 .82     -32    -24     -9     41     43 233.1 -13.4  33404  276.91 0865.15
2015 04 09 08 22 23 .06     -36    -32     -1     49     50 228.7  -2.2  33416  277.11 0865.15
2015 04 09 08 22 23 .31     -32    -20     -1     39     40 237.6  -2.2  33422  277.21 0865.15
2015 04 09 08 22 23 .56     -30    -13     -1     33     34 246.5  -2.2  33428  277.31 0865.15
2015 04 09 08 22 23 .81     -28    -13     -1     31     32 244.7  -2.2  33424  277.24 0865.15
2015 04 09 08 22 24 .06     -35    -11      1     37     38 251.8   2.8  33424  277.22 0865.15
2015 04 09 08 22 24 .31     -38    -21      0     44     45 240.2   0.8  33426  277.27 0865.15
2015 04 09 08 22 24 .56     -39    -11     -9     41     43 253.2 -13.4  33422  277.21 0865.15
2015 04 09 08 22 24 .82     -54    -13     -2     56     57 255.8  -2.2  33434  277.39 0865.15
2015 04 09 08 22 25 .06     -51    -12     -2     53     54 255.8  -2.2  33414  277.07 0865.15
2015 04 09 08 22 25 .32     -58    -25     -5     64     65 246.5  -5.2  33392  276.71 0865.15
2015 04 09 08 22 25 .56     -61    -29     -8     68     69 244.7  -7.2  33382  276.53 0865.15
2015 04 09 08 22 25 .82     -65    -28     -5     71     72 246.5  -4.1  33378  276.46 0865.15
2015 04 09 08 22 26 .07     -58    -32    -13     67     69 241.1 -11.3  33394  276.74 0865.15
2015 04 09 08 22 26 .32     -44    -36     -7     58     59 230.5  -7.3  33396  276.78 0865.15
2015 04 09 08 22 26 .57     -53    -43     -2     69     70 230.5  -2.2  33396  276.78 0865.15
2015 04 09 08 22 26 .82     -49    -40     -2     64     65 230.5  -2.2  33398  276.81 0865.15
2015 04 09 08 22 27 .08     -44    -36     -2     58     59 230.5  -2.2  33392  276.71 0865.15
2015 04 09 08 22 27 .33     -50    -36      0     63     64 234.0  -0.3  33396  276.78 0865.15
2015 04 09 08 22 27 .58     -50    -36      7     63     64 234.0   6.9  33398  276.81 0865.15
2015 04 09 08 22 27 .84     -39    -34     18     52     56 228.7  19.4  33410  277.01 0865.15
2015 04 09 08 22 28 .08     -34    -35      7     49     50 224.2   9.0  33410  277.01 0865.15
2015 04 09 08 22 28 .33     -31    -27      6     42     43 229.6   9.0  33408  276.97 0865.15
2015 04 09 08 22 28 .58     -44    -25      0     51     52 240.2   0.8  33394  276.73 0865.15
2015 04 09 08 22 28 .84     -43    -21     -1     49     50 243.8  -2.2  33400  276.83 0865.15
2015 04 09 08 22 29 .08     -38    -21      0     44     45 240.2   0.8  33412  277.04 0865.15
2015 04 09 08 22 29 .33     -51    -17      4     54     55 251.6   4.9  33390  276.68 0865.15
2015 04 09 08 22 29 .59     -48    -15     -2     51     52 251.8  -2.2  33380  276.49 0865.15
2015 04 09 08 22 29 .84     -49    -25    -10     56     57 242.9 -10.3  33374  276.41 0865.15
2015 04 09 08 22 30 .09     -51    -25     -8     57     58 243.8  -8.2  33378  276.46 0865.15
2015 04 09 08 22 30 .33     -51    -31     -5     60     61 238.5  -5.2  33374  276.41 0865.15
2015 04 09 08 22 30 .59     -61    -20     -5     65     66 251.4  -5.2  33368  276.31 0865.15
2015 04 09 08 22 30 .84     -64    -34     -9     73     74 242.0  -7.3  33368  276.31 0865.15
2015 04 09 08 22 31 .09     -61    -20     -5     65     66 251.4  -5.2  33368  276.31 0865.15
2015 04 09 08 22 31 .34     -58    -19     -8     62     63 251.6  -7.3  33370  276.33 0865.15
2015 04 09 08 22 31 .59     -56    -22    -12     61     63 248.2 -11.3  33370  276.33 0865.15
2015 04 09 08 22 31 .84     -62    -29    -16     69     71 244.7 -13.4  33368  276.31 0865.15
2015 04 09 08 22 32 .09     -67    -21     -9     71     72 252.3  -7.3  33366  276.26 0865.15
2015 04 09 08 22 32 .34     -59    -16    -10     62     63 254.9  -9.3  33366  276.26 0865.15
2015 04 09 08 22 32 .59     -56    -22    -12     61     63 248.2 -11.3  33370  276.33 0865.15
2015 04 09 08 22 32 .84     -61    -23     -9     66     67 249.2  -8.2  33372  276.36 0865.15
2015 04 09 08 22 33 .09     -66    -22     -8     70     71 250.9  -7.2  33370  276.34 0865.15
2015 04 09 08 22 33 .34     -64    -26    -12     70     72 247.4 -10.3  33370  276.33 0865.15
2015 04 09 08 22 33 .59     -63    -33    -19     72     75 242.0 -15.4  33370  276.33 0865.15
2015 04 09 08 22 33 .85     -53    -25    -16     59     62 244.8 -15.4  33372  276.36 0865.15
2015 04 09 08 22 34 .11     -53    -25    -16     59     62 244.8 -15.4  33372  276.36 0865.15
2015 04 09 08 22 34 .36     -53    -25    -16     59     62 244.8 -15.4  33372  276.36 0865.15
2015 04 09 08 22 34 .61     -53    -25    -16     59     62 244.8 -15.4  33372  276.36 0865.15
2015 04 09 08 22 34 .86     -54    -17     -8     57     58 251.8  -8.2  33368  276.31 0865.15
2015 04 09 08 22 35 .11     -56    -12    -13     58     60 257.6 -13.4  33368  276.31 0865.15
2015 04 09 08 22 35 .36     -57    -15    -16     60     63 254.9 -15.5  33366  276.28 0865.15
2015 04 09 08 22 35 .61     -56    -12    -13     58     60 257.6 -13.4  33368  276.31 0865.15
2015 04 09 08 22 35 .86     -57     -7    -16     58     61 263.0 -15.5  33366  276.28 0865.15
2015 04 09 08 22 36 .11     -65     -8    -18     66     68 263.0 -20.7  33366  276.28 0865.15
2015 04 09 08 22 36 .36     -74    -15    -22     76     80 258.5 -16.6  33368  276.30 0865.15
2015 04 09 08 22 36 .61     -72    -16    -19     74     77 256.7 -14.5  33366  276.28 0865.15
2015 04 09 08 22 36 .86     -62    -16    -14     65     67 254.9 -12.4  33372  276.36 0865.14
2015 04 09 08 22 37 .11     -55    -26    -24     61     65 244.6 -27.4  33372  276.36 0865.14
2015 04 09 08 22 37 .36     -55    -20    -20     59     62 249.2 -23.6  33368  276.31 0865.14
2015 04 09 08 22 37 .61     -61     -8    -20     62     65 262.1 -23.8  33366  276.26 0865.14
2015 04 09 08 22 37 .87     -52     -6    -19     53     57 263.0 -19.6  33368  276.31 0865.14
2015 04 09 08 22 38 .12     -56    -19    -22     60     63 251.4 -24.4  33370  276.34 0865.14
2015 04 09 08 22 38 .36     -51     -7    -24     52     57 261.2 -31.5  33366  276.26 0865.14
2015 04 09 08 22 38 .62     -69     -9    -28     70     75 262.1 -27.4  33366  276.26 0865.15
2015 04 09 08 22 38 .87     -77     -5    -28     78     82 265.7 -24.8  33368  276.31 0865.15
2015 04 09 08 22 39 .12     -81     -5    -32     82     88 266.5 -26.4  33368  276.31 0865.15
2015 04 09 08 22 39 .36     -75     -1    -26     76     80 269.1 -23.8  33370  276.33 0865.15
2015 04 09 08 22 39 .62     -65      0    -31     66     72 269.2 -31.5  33370  276.34 0865.15
2015 04 09 08 22 39 .87     -63     -4    -29     64     70 265.6 -31.5  33372  276.36 0865.15
2015 04 09 08 22 40 .12     -61     -8    -26     62     67 262.0 -27.5  33370  276.33 0865.15
2015 04 09 08 22 40 .37     -59     -7    -19     60     62 263.0 -22.8  33374  276.39 0865.15
2015 04 09 08 22 40 .62     -52      0    -31     53     61 270.0 -37.9  33372  276.38 0865.15
2015 04 09 08 22 40 .87     -45    -13    -24     47     52 253.2 -32.6  33372  276.36 0865.15
2015 04 09 08 22 41 .13     -42     -7    -22     43     48 259.4 -33.7  33374  276.39 0865.15
2015 04 09 08 22 41 .38     -41     -4    -20     42     46 263.9 -31.6  33372  276.36 0865.15
2015 04 09 08 22 41 .63     -33     -1    -13     34     36 267.4 -23.3  33370  276.33 0865.15
2015 04 09 08 22 41 .89     -31     -5    -11     32     33 260.3 -23.6  33378  276.46 0865.15
2015 04 09 08 22 42 .13     -29     -8     -4     31     32 253.2  -7.3  33374  276.41 0865.15
2015 04 09 08 22 42 .38     -22     -5     -3     23     24 256.7  -9.3  33374  276.41 0865.15
2015 04 09 08 22 42 .64     -20     -8     -8     22     23 246.5 -23.3  33374  276.41 0865.15
2015 04 09 08 22 42 .89     -24      1      4     25     26 274.3   9.0  33414  277.06 0865.15
2015 04 09 08 22 43 .14     -23      1      8     24     26 272.6  18.9  33426  277.26 0865.15
2015 04 09 08 22 43 .39     -22      4      7     23     25 281.5  17.3  33422  277.19 0865.15
2015 04 09 08 22 43 .64     -53    -13      9     55     56 255.8  10.1  33382  276.53 0865.15
2015 04 09 08 22 43 .89     -58     -4     -7     59     60 265.6  -7.3  33370  276.33 0865.15
2015 04 09 08 22 44 .14     -58    -13     -7     60     61 256.7  -7.3  33372  276.38 0865.15
2015 04 09 08 22 44 .39     -59     -8     -9     60     61 262.1  -9.3  33374  276.41 0865.15
2015 04 09 08 22 44 .64     -61      0    -22     62     66 269.2 -19.6  33370  276.33 0865.15
2015 04 09 08 22 44 .89     -58      0    -21     59     63 270.8 -19.6  33368  276.31 0865.15
2015 04 09 08 22 45 .14     -62      8    -22     63     66 277.9 -23.3  33376  276.43 0865.15
2015 04 09 08 22 45 .39     -62      0    -22     63     66 270.9 -23.3  33372  276.38 0865.15
2015 04 09 08 22 45 .64     -57      4    -22     58     62 274.4 -26.4  33370  276.34 0865.15
2015 04 09 08 22 45 .89     -50      0    -22     51     55 270.8 -29.5  33370  276.33 0865.15
2015 04 09 08 22 46 .14     -55     -4    -26     56     61 265.6 -31.5  33370  276.33 0865.15
2015 04 09 08 22 46 .39     -56      0    -22     57     61 270.0 -26.4  33370  276.33 0865.15
2015 04 09 08 22 46 .64     -60      0    -20     61     64 270.0 -23.8  33372  276.36 0865.15
2015 04 09 08 22 46 .89     -58     -4    -17     59     61 265.6 -20.7  33372  276.38 0865.15
2015 04 09 08 22 47 .14     -58     -4    -17     59     61 265.6 -20.7  33372  276.38 0865.15
2015 04 09 08 22 47 .40     -47     -2    -15     48     51 267.4 -17.6  33372  276.36 0865.15
2015 04 09 08 22 47 .65     -60     -4    -12     61     63 265.6 -11.3  33372  276.38 0865.15
2015 04 09 08 22 47 .90     -58     -3    -21     59     63 266.5 -19.6  33368  276.31 0865.15
2015 04 09 08 22 48 .16     -69      0    -14     70     72 270.8 -11.3  33372  276.36 0865.15
2015 04 09 08 22 48 .41     -66     -7    -12     67     69 263.9 -10.3  33372  276.38 0865.15
2015 04 09 08 22 48 .66     -72    -21    -12     76     78 253.2  -9.3  33370  276.33 0865.16
2015 04 09 08 22 48 .91     -73    -17     -9     76     77 256.7  -7.3  33372  276.36 0865.16
2015 04 09 08 22 49 .16     -68    -18     -5     71     72 255.0  -4.1  33374  276.41 0865.16
2015 04 09 08 22 49 .41     -62    -21    -12     66     68 251.4 -10.3  33372  276.38 0865.16
2015 04 09 08 22 49 .66     -62    -21    -12     66     68 251.4 -10.3  33372  276.38 0865.16
2015 04 09 08 22 49 .91     -55    -18     -3     59     60 251.4  -3.2  33374  276.41 0865.16
2015 04 09 08 22 50 .16     -55    -18     -3     59     60 251.4  -3.2  33374  276.41 0865.16
2015 04 09 08 22 50 .42     -53    -13     -8     55     56 255.8  -8.2  33374  276.41 0865.16
2015 04 09 08 22 50 .66     -48     -7    -15     49     52 261.2 -17.6  33374  276.41 0865.16
2015 04 09 08 22 50 .91     -40     -8    -10     41     43 258.5 -14.5  33370  276.33 0865.16
2015 04 09 08 22 51 .17     -50     -8     -6     51     52 260.3  -7.3  33370  276.33 0865.16
2015 04 09 08 22 51 .41     -54     -1    -11     55     57 268.3 -11.3  33370  276.33 0865.15
2015 04 09 08 22 51 .67     -53      4    -12     54     56 274.3 -12.4  33376  276.44 0865.15
2015 04 09 08 22 51 .92     -56      0    -14     57     59 270.8 -14.5  33378  276.46 0865.15
2015 04 09 08 22 52 .17     -55      0      1     56     57 270.0   1.8  33394  276.73 0865.15
2015 04 09 08 22 52 .42     -41      5      1     42     43 277.0   1.8  33400  276.84 0865.15
2015 04 09 08 22 52 .67     -38     -7      5     39     40 258.5   8.0  33398  276.79 0865.15
2015 04 09 08 22 52 .92     -41    -14     -8     44     45 251.4 -11.3  33382  276.54 0865.15
2015 04 09 08 22 53 .17     -46     -4    -11     47     49 263.9 -13.4  33388  276.63 0865.15
2015 04 09 08 22 53 .42     -47      3      3     48     49 274.4   3.8  33384  276.56 0865.15
2015 04 09 08 22 53 .67     -51      3     -6     52     53 274.4  -7.3  33372  276.38 0865.15
2015 04 09 08 22 53 .93     -47     -2    -14     48     50 267.4 -21.7  33370  276.34 0865.15
2015 04 09 08 22 54 .17     -43      3    -22     44     49 275.2 -31.7  33376  276.44 0865.15
2015 04 09 08 22 54 .42     -43      3    -22     44     49 275.2 -31.7  33372  276.38 0865.15
2015 04 09 08 22 54 .67     -50      0    -16     51     53 270.8 -23.8  33368  276.31 0865.15
2015 04 09 08 22 54 .93     -50      0    -16     51     53 270.8 -23.8  33368  276.31 0865.15
2015 04 09 08 22 55 .18     -50      0    -16     51     53 270.8 -23.8  33368  276.31 0865.15
2015 04 09 08 22 55 .43     -50      0    -16     51     53 270.8 -23.8  33368  276.31 0865.15
2015 04 09 08 22 55 .68     -47     -2    -14     48     50 267.4 -21.7  33370  276.34 0865.15
2015 04 09 08 22 55 .93     -50      0    -16     51     53 270.8 -23.8  33368  276.31 0865.15
2015 04 09 08 22 56 .19     -52      0     -8     53     54 270.0  -9.3  33368  276.31 0865.15
2015 04 09 08 22 56 .44     -46      0    -11     47     49 270.8 -13.4  33370  276.33 0865.15
2015 04 09 08 22 56 .69     -51      0    -17     52     55 270.8 -18.7  33366  276.28 0865.15
2015 04 09 08 22 56 .94     -53      0    -19     54     58 269.2 -19.7  33366  276.26 0865.15
2015 04 09 08 22 57 .19     -53      0     -2     54     55 270.0  -2.2  33366  276.28 0865.15
2015 04 09 08 22 57 .44     -64     -8     -8     65     66 262.1  -7.2  33382  276.53 0865.15
2015 04 09 08 22 57 .69     -53    -13     -8     55     56 255.8  -8.2  33366  276.26 0865.15
2015 04 09 08 22 57 .94     -57      0    -18     58     61 269.2 -17.6  33366  276.28 0865.15
2015 04 09 08 22 58 .19     -57      0    -18     58     61 269.2 -17.6  33366  276.28 0865.15
2015 04 09 08 22 58 .44     -55      0    -20     56     60 270.8 -19.7  33366  276.28 0865.15
2015 04 09 08 22 58 .69     -57      0    -18     58     61 269.2 -17.6  33366  276.28 0865.15
2015 04 09 08 22 58 .94     -61      0    -22     62     66 269.2 -19.6  33370  276.33 0865.15
2015 04 09 08 22 59 .19     -63      0    -21     64     67 270.8 -23.8  33366  276.28 0865.15
2015 04 09 08 22 59 .44     -61      0    -22     62     66 269.2 -19.6  33370  276.33 0865.15
2015 04 09 08 22 59 .69     -60      0    -20     61     64 270.0 -23.8  33372  276.36 0865.16
2015 04 09 08 22 59 .94     -62      8    -22     63     66 277.9 -23.3  33370  276.34 0865.16
2015 04 09 08 23 00 .19     -60      4    -26     61     66 274.4 -27.5  33370  276.34 0865.16
2015 04 09 08 23 00 .44     -54      0    -20     55     58 270.0 -23.3  33368  276.31 0865.16
2015 04 09 08 23 00 .71     -54      0    -20     55     58 270.0 -23.3  33368  276.31 0865.16
2015 04 09 08 23 00 .95     -53      4    -19     54     58 274.3 -19.7  33368  276.31 0865.16
2015 04 09 08 23 01 .20     -52      3    -19     53     57 274.3 -19.7  33372  276.36 0865.16
2015 04 09 08 23 01 .45     -52      3    -19     53     57 274.3 -19.7  33372  276.36 0865.16
2015 04 09 08 23 01 .70     -49      8    -16     50     52 279.7 -23.8  33368  276.31 0865.16
2015 04 09 08 23 01 .96     -50      7    -22     51     55 278.8 -29.5  33372  276.38 0865.16
2015 04 09 08 23 02 .21     -50      7    -22     51     55 278.8 -29.5  33372  276.38 0865.16
2015 04 09 08 23 02 .46     -47     14    -20     50     53 286.8 -26.4  33372  276.36 0865.16
2015 04 09 08 23 02 .71     -47     14    -20     50     53 286.8 -26.4  33372  276.36 0865.16
2015 04 09 08 23 02 .96     -47     14    -20     50     53 286.8 -26.4  33372  276.36 0865.16
2015 04 09 08 23 03 .21     -47     14    -20     50     53 286.8 -26.4  33372  276.36 0865.16
2015 04 09 08 23 03 .46     -47     14    -20     50     53 286.8 -26.4  33372  276.36 0865.16
2015 04 09 08 23 03 .71     -49      3    -19     50     53 274.4 -24.4  33370  276.34 0865.16
2015 04 09 08 23 03 .96     -48      3    -20     49     52 274.4 -27.4  33372  276.36 0865.16
2015 04 09 08 23 04 .21     -49      8    -16     50     52 279.7 -23.8  33368  276.31 0865.16
2015 04 09 08 23 04 .47     -44     12    -16     46     49 285.9 -19.7  33370  276.33 0865.16
2015 04 09 08 23 04 .71     -49      8    -16     50     52 279.7 -23.8  33368  276.31 0865.16
2015 04 09 08 23 04 .97     -48     12    -13     50     52 285.1 -15.5  33372  276.36 0865.16
2015 04 09 08 23 05 .22     -50      0    -16     51     53 270.8 -23.8  33368  276.31 0865.16
2015 04 09 08 23 05 .47     -42      7    -13     43     46 280.6 -17.6  33368  276.31 0865.16
2015 04 09 08 23 05 .72     -42      0    -13     43     46 270.0 -17.6  33368  276.31 0865.16
2015 04 09 08 23 05 .97     -42      0    -13     43     46 270.0 -17.6  33368  276.31 0865.16
2015 04 09 08 23 06 .22     -47      3    -14     48     50 274.4 -21.7  33366  276.28 0865.16
2015 04 09 08 23 06 .47     -50      0    -16     51     53 270.8 -23.8  33368  276.31 0865.16
2015 04 09 08 23 06 .72     -50      0    -16     51     53 270.8 -23.8  33368  276.31 0865.16
2015 04 09 08 23 06 .97     -47      3    -14     48     50 274.4 -21.7  33372  276.38 0865.16
2015 04 09 08 23 07 .22     -39      4    -12     40     42 277.0 -16.6  33370  276.34 0865.16
2015 04 09 08 23 07 .47     -39      4    -12     40     42 277.0 -16.6  33370  276.34 0865.16
2015 04 09 08 23 07 .72     -40      8     -9     41     42 282.4 -12.4  33368  276.31 0865.16
2015 04 09 08 23 07 .97     -44      4     -9     45     46 275.2 -11.3  33372  276.36 0865.16
2015 04 09 08 23 08 .22     -39      4    -12     40     42 277.0 -16.6  33370  276.34 0865.16
2015 04 09 08 23 08 .47     -37      0     -9     38     40 270.8 -13.4  33368  276.31 0865.16
2015 04 09 08 23 08 .73     -41      5     -4     42     43 277.9  -6.2  33372  276.36 0865.16
2015 04 09 08 23 08 .98     -39      1     -1     40     41 272.6  -2.2  33370  276.33 0865.16
2015 04 09 08 23 09 .24     -35      1     -4     36     37 272.6  -7.3  33374  276.39 0865.16
2015 04 09 08 23 09 .49     -34      6     -4     35     36 281.5  -7.2  33380  276.51 0865.16
2015 04 09 08 23 09 .74     -32      5     -1     33     34 279.7  -2.2  33376  276.43 0865.16
2015 04 09 08 23 09 .99     -39     -4     -1     40     41 263.0  -2.2  33396  276.78 0865.16
2015 04 09 08 23 10 .24     -40     -4      3     41     42 263.9   4.9  33390  276.66 0865.16
2015 04 09 08 23 10 .49     -35      1     -4     36     37 272.6  -7.3  33374  276.41 0865.15
2015 04 09 08 23 10 .74     -35     -2     -4     36     37 265.6  -7.3  33374  276.41 0865.15
2015 04 09 08 23 10 .99     -32     -7     -1     33     34 256.7  -2.2  33372  276.38 0865.15
2015 04 09 08 23 11 .24     -38     -7     -6     39     40 258.5  -9.3  33366  276.28 0865.15
2015 04 09 08 23 11 .49     -42      0     -3     43     44 270.0  -4.1  33374  276.41 0865.15
2015 04 09 08 23 11 .74     -35     -3     -4     36     37 263.9  -7.2  33372  276.36 0865.15
2015 04 09 08 23 11 .99     -31      2     -9     32     34 274.4 -15.5  33374  276.39 0865.15
2015 04 09 08 23 12 .24     -38     -2     -6     39     40 265.7  -9.3  33378  276.48 0865.15
2015 04 09 08 23 12 .49     -40     -4      3     41     42 263.9   4.9  33386  276.61 0865.15
2015 04 09 08 23 12 .74     -36      0      0     37     38 270.0  -1.3  33374  276.39 0865.15
2015 04 09 08 23 12 .99     -35     -2     -4     36     37 265.6  -7.3  33368  276.31 0865.15
2015 04 09 08 23 13 .24     -37     -1     -6     38     39 267.4 -10.3  33372  276.38 0865.15
2015 04 09 08 23 13 .52     -35      1     -4     36     37 272.6  -7.3  33392  276.69 0865.15
2015 04 09 08 23 13 .76     -28     -1     -3     29     30 267.4  -7.3  33408  276.96 0865.15
2015 04 09 08 23 14 .00     -25     -4      4     26     27 260.3   9.0  33410  277.01 0865.15
2015 04 09 08 23 14 .25     -24     -1      6     25     26 267.4  15.3  33422  277.19 0865.15
2015 04 09 08 23 14 .50     -20      0     11     21     23 269.2  29.3  33442  277.54 0865.15
2015 04 09 08 23 14 .75     -31      0      6     32     33 270.8  11.1  33414  277.07 0865.15
2015 04 09 08 23 15 .00     -33      2     -3     34     35 274.4  -5.2  33376  276.43 0865.15
2015 04 09 08 23 15 .25     -30      1     -5     31     32 272.6  -9.3  33370  276.33 0865.15
2015 04 09 08 23 15 .50     -30      0     -8     31     33 269.2 -15.5  33372  276.36 0865.15
2015 04 09 08 23 15 .76     -35      2    -11     36     38 274.3 -17.6  33372  276.38 0865.15
2015 04 09 08 23 16 .01     -31      1    -11     32     33 272.6 -23.6  33372  276.36 0865.15
2015 04 09 08 23 16 .26     -29     -1    -16     30     34 267.4 -33.7  33374  276.41 0865.15
2015 04 09 08 23 16 .51     -33      0    -14     34     36 269.2 -27.4  33376  276.44 0865.15
2015 04 09 08 23 16 .76     -43     -1    -16     44     46 267.4 -24.4  33372  276.36 0865.15
2015 04 09 08 44 50 .57     -24   -101     10    104    105 193.8   5.9  33422  277.21 0865.03
2015 04 09 08 44 50 .82     -31    -91      4     97     98 198.7   2.9  33422  277.21 0865.03
2015 04 09 08 44 51 .07     -24    -91     11     95     96 195.1   6.9  33422  277.21 0865.02
2015 04 09 08 44 51 .32     -24   -101     10    104    105 193.8   5.9  33422  277.21 0865.02
2015 04 09 08 44 51 .57     -23    -96      5     99    100 193.8   2.9  33426  277.26 0865.02
2015 04 09 08 44 51 .83     -31    -91      4     97     98 198.7   2.9  33422  277.21 0865.02
2015 04 09 08 44 52 .07     -31    -91      4     97     98 198.7   2.9  33422  277.21 0865.02
2015 04 09 08 44 52 .33     -28    -89      1     94     95 197.8   0.8  33422  277.21 0865.02
2015 04 09 08 44 52 .58     -32    -96      2    102    103 198.5   1.2  33426  277.27 0865.02
2015 04 09 08 44 52 .83     -32    -95     11    101    102 198.7   6.5  33434  277.41 0865.02
2015 04 09 08 44 53 .08     -33   -101      6    107    108 198.5   3.3  33436  277.44 0865.02
2015 04 09 08 44 53 .33     -18   -104      5    106    107 189.8   2.8  33430  277.34 0865.02
2015 04 09 08 44 53 .58     -22   -112      5    115    116 191.5   2.8  33434  277.41 0865.02
2015 04 09 08 44 53 .83     -27   -113      6    117    118 193.4   3.3  33442  277.54 0865.02
2015 04 09 08 44 54 .08     -24   -115     16    118    120 192.0   8.0  33446  277.59 0865.02
2015 04 09 08 44 54 .33     -29   -106     12    111    112 195.6   6.5  33436  277.44 0865.02
2015 04 09 08 44 54 .59     -31   -115     11    120    121 195.1   5.4  33434  277.39 0865.02
2015 04 09 08 44 54 .83     -33   -117      6    122    123 196.0   2.9  33428  277.29 0865.02
2015 04 09 08 44 55 .08     -34   -104      5    110    111 198.5   2.8  33426  277.26 0865.02
2015 04 09 08 44 55 .33     -33   -100      5    106    107 198.7   2.9  33428  277.29 0865.02
2015 04 09 08 44 55 .58     -33    -93     -3     99    100 199.6  -2.2  33424  277.24 0865.02
2015 04 09 08 44 55 .84     -41    -75    -19     86     89 209.0 -12.9  33454  277.74 0865.02
2015 04 09 08 44 56 .08       0    -81     24     82     86 180.0  16.8  33448  277.64 0865.02
2015 04 09 08 44 56 .35     -28    -99     20    104    107 196.0  11.1  33438  277.46 0865.02
2015 04 09 08 44 56 .59     -36    -96     13    103    104 200.9   7.5  33434  277.39 0865.02
2015 04 09 08 44 56 .84      -7   -108      0    109    110 184.0   0.2  33426  277.26 0865.02
2015 04 09 08 44 57 .10     -20   -108      1    110    111 190.7   0.8  33422  277.21 0865.02
2015 04 09 08 44 57 .35     -24    -99     -4    102    103 193.8  -2.2  33422  277.21 0865.02
2015 04 09 08 44 57 .60     -28    -85     -6     90     91 198.7  -4.1  33428  277.31 0865.02
2015 04 09 08 44 57 .85     -26    -84      4     89     90 197.4   2.8  33428  277.29 0865.02
2015 04 09 08 44 58 .10     -28    -86     -2     91     92 198.3  -1.3  33424  277.24 0865.02
2015 04 09 08 44 58 .35     -28    -85      4     90     91 198.7   2.9  33420  277.16 0865.02
2015 04 09 08 44 58 .60     -22    -81     -1     85     86 195.6  -0.7  33424  277.24 0865.02
2015 04 09 08 44 58 .85     -23    -89     -2     92     93 194.7  -1.3  33422  277.19 0865.02
2015 04 09 08 44 59 .10     -22    -81     -6     85     86 195.6  -4.1  33428  277.31 0865.02
2015 04 09 08 44 59 .35     -16    -76    -13     78     80 192.5  -9.8  33424  277.24 0865.02
2015 04 09 08 44 59 .60     -26    -73     -3     78     79 200.0  -2.6  33424  277.24 0865.02
2015 04 09 08 44 59 .86     -38    -85     -3     94     95 204.5  -2.2  33436  277.42 0865.02
2015 04 09 08 45 00 .10     -27    -84     -1     89     90 198.3  -0.7  33434  277.39 0865.02
2015 04 09 08 45 00 .36     -18    -88     -3     90     91 191.6  -2.2  33434  277.41 0865.02
2015 04 09 08 45 00 .60     -15    -76      5     78     79 191.6   3.8  33428  277.31 0865.02
2015 04 09 08 45 00 .85     -18    -82     10     85     86 192.9   6.9  33428  277.31 0865.02
2015 04 09 08 45 01 .11     -18    -88     17     90     92 191.6  11.1  33430  277.34 0865.02
2015 04 09 08 45 01 .36     -12    -81     15     83     85 188.9  10.6  33434  277.41 0865.02
2015 04 09 08 45 01 .60     -17    -82     11     84     85 192.0   7.5  33438  277.47 0865.02
2015 04 09 08 45 01 .86     -22    -81      4     85     86 195.6   3.3  33434  277.41 0865.02
2015 04 09 08 45 02 .11      -7    -84     -3     85     86 184.9  -2.6  33436  277.44 0865.02
2015 04 09 08 45 02 .36     -20    -92     -4     95     96 192.5  -2.6  33426  277.27 0865.02
2015 04 09 08 45 02 .61     -24    -71    -12     76     78 198.7  -9.3  33430  277.32 0865.02
2015 04 09 08 45 02 .86     -34    -85      0     92     93 201.8   0.2  33432  277.36 0865.01
2015 04 09 08 45 03 .11     -41    -83      1     93     94 206.3   0.8  33438  277.46 0865.01
2015 04 09 08 45 03 .37     -52    -82      0     98     99 212.5  -0.3  33436  277.42 0865.01
2015 04 09 08 45 03 .62     -43    -76     -1     88     89 209.4  -1.3  33446  277.59 0865.01
2015 04 09 08 45 03 .87     -25    -76    -17     81     83 198.7 -11.9  33450  277.65 0865.01
2015 04 09 08 45 04 .12     -22    -90     -8     93     94 193.8  -5.2  33444  277.56 0865.01
2015 04 09 08 45 04 .37     -25    -86     -3     90     91 196.5  -2.2  33440  277.51 0865.01
2015 04 09 08 45 04 .62     -24   -101     10    104    105 193.8   5.9  33440  277.51 0865.02
2015 04 09 08 45 04 .87     -17   -123     10    125    126 188.0   5.0  33442  277.54 0865.02
2015 04 09 08 45 05 .13     -24    -99    -10    102    103 193.8  -5.6  33442  277.54 0865.02
2015 04 09 08 45 05 .37     -36    -90      5     98     99 201.8   2.9  33442  277.52 0865.02
2015 04 09 08 45 05 .63     -29    -81     -3     87     88 200.0  -2.2  33432  277.36 0865.02
2015 04 09 08 45 05 .88     -41    -74     -3     85     86 209.0  -2.6  33436  277.44 0865.02
2015 04 09 08 45 06 .13     -36    -74     -1     83     84 205.9  -0.7  33430  277.34 0865.02
2015 04 09 08 45 06 .38     -31    -83     -9     89     90 200.9  -6.2  33436  277.44 0865.02
2015 04 09 08 45 06 .63     -25    -85      3     89     90 196.5   2.3  33436  277.44 0865.02
2015 04 09 08 45 06 .88     -31    -91     -3     97     98 199.2  -2.2  33444  277.56 0865.02
2015 04 09 08 45 07 .13     -39    -77      4     87     88 206.7   2.8  33446  277.59 0865.02
2015 04 09 08 45 07 .38     -30    -86     -6     92     93 199.6  -4.1  33446  277.61 0865.02
2015 04 09 08 45 07 .63     -28    -90      2     95     96 197.4   1.2  33448  277.62 0865.02
2015 04 09 08 45 07 .88     -26    -84     -8     89     90 197.4  -5.6  33452  277.69 0865.02
2015 04 09 08 45 08 .13     -23    -82    -12     86     87 195.6  -8.2  33436  277.44 0865.02
2015 04 09 08 45 08 .39     -28    -90     -4     95     96 197.4  -2.6  33442  277.54 0865.02
2015 04 09 08 45 08 .64     -28    -86     -8     91     92 198.3  -5.2  33440  277.51 0865.02
2015 04 09 08 45 08 .88     -25    -76     -9     81     82 198.7  -6.7  33442  277.54 0865.02
2015 04 09 08 45 09 .13     -25    -76     -3     81     82 198.7  -2.2  33438  277.46 0865.02
2015 04 09 08 45 09 .38     -21    -84     -3     87     88 194.3  -2.6  33430  277.34 0865.02
2015 04 09 08 45 09 .64     -16    -86     -6     88     89 190.7  -4.1  33422  277.21 0865.02
2015 04 09 08 45 09 .88     -16    -86     -6     88     89 190.7  -4.1  33422  277.21 0865.02
2015 04 09 08 45 10 .15     -10    -90    -15     91     93 186.7  -9.3  33422  277.21 0865.02
2015 04 09 08 45 10 .40     -16    -92     -7     94     95 190.2  -4.6  33420  277.17 0865.02
2015 04 09 08 45 10 .65     -18    -95     -9     97     98 191.1  -5.6  33422  277.19 0865.02
2015 04 09 08 45 10 .90     -16    -92     -7     94     95 190.2  -4.6  33422  277.21 0865.02
2015 04 09 08 45 11 .15     -12    -91     -3     92     93 187.6  -2.2  33422  277.21 0865.02
2015 04 09 08 45 11 .40     -12    -91     -3     92     93 187.6  -2.2  33422  277.21 0865.02
2015 04 09 08 45 11 .65     -13    -88     -4     90     91 188.9  -2.6  33422  277.19 0865.02
2015 04 09 08 45 11 .90     -12    -91     -3     92     93 187.6  -2.2  33422  277.21 0865.01
2015 04 09 08 45 12 .16     -18    -87     -8     89     90 192.0  -5.6  33430  277.32 0865.01
2015 04 09 08 45 12 .40     -21    -92      7     95     96 192.9   4.4  33446  277.59 0865.01
2015 04 09 08 45 12 .65     -17   -103     17    105    107 189.8   9.5  33460  277.84 0865.01
2015 04 09 08 45 12 .90     -31   -101      5    106    107 197.4   2.8  33448  277.62 0865.01
2015 04 09 08 45 13 .15     -21    -98     14    101    103 192.0   8.0  33454  277.72 0865.01
2015 04 09 08 45 13 .40     -23    -96     19     99    101 193.8  11.1  33456  277.77 0865.01
2015 04 09 08 45 13 .65     -31    -89     11     95     96 199.2   6.9  33444  277.57 0865.01
2015 04 09 08 45 13 .90     -27    -81      9     86     87 198.5   6.5  33448  277.64 0865.01
2015 04 09 08 45 14 .16     -24    -73      9     77     78 198.3   6.9  33442  277.54 0865.01
2015 04 09 08 45 14 .41     -25    -86      4     90     91 196.5   2.9  33446  277.59 0865.01
2015 04 09 08 45 14 .66     -14    -85     -1     87     88 189.8  -1.3  33446  277.59 0865.01
2015 04 09 08 45 14 .91     -16    -85     -1     87     88 190.7  -1.3  33436  277.44 0865.01
2015 04 09 08 45 15 .16     -19    -89     -3     92     93 192.5  -2.2  33420  277.16 0865.01
2015 04 09 08 45 15 .41     -18    -82     -9     84     85 192.5  -6.2  33430  277.34 0865.01
2015 04 09 08 45 15 .66     -16    -86     -6     88     89 190.7  -4.1  33422  277.21 0865.01
2015 04 09 08 45 15 .91     -11    -83    -16     84     86 187.6 -10.9  33426  277.26 0865.01
2015 04 09 08 45 16 .16     -20    -85    -11     88     89 193.4  -7.3  33420  277.16 0865.01
2015 04 09 08 45 16 .41     -20    -85    -11     88     89 193.4  -7.3  33420  277.16 0865.01
2015 04 09 08 45 16 .66     -14    -81    -11     83     84 189.8  -7.7  33420  277.16 0865.01
2015 04 09 08 45 16 .91     -15    -84    -14     86     88 190.7  -9.3  33420  277.17 0865.01
2015 04 09 08 45 17 .17     -17    -81    -24     83     87 192.5 -16.0  33422  277.19 0865.01
2015 04 09 08 45 17 .42     -10    -76    -23     77     81 188.0 -17.0  33424  277.24 0865.01
2015 04 09 08 45 17 .68      -5    -73    -25     74     79 184.5 -19.1  33428  277.31 0865.01
2015 04 09 08 45 17 .92     -11    -68     -8     70     71 189.8  -7.2  33442  277.54 0865.01
2015 04 09 08 45 18 .18     -18    -82      4     85     86 192.9   2.8  33434  277.39 0865.01
2015 04 09 08 45 18 .43      -7    -84      1     85     86 184.9   1.2  33442  277.52 0865.01
2015 04 09 08 45 18 .68      -8    -88     -1     89     90 185.3  -0.7  33446  277.59 0865.01
2015 04 09 08 45 18 .93      -5    -75      2     76     77 184.5   1.8  33452  277.70 0865.01
2015 04 09 08 45 19 .17      -8    -81     14     82     84 186.2  10.1  33452  277.69 0865.01
2015 04 09 08 45 19 .43     -19    -93      7     96     97 192.0   4.4  33456  277.75 0865.01
2015 04 09 08 45 19 .68     -15   -100      5    102    103 188.9   2.8  33454  277.72 0865.01
2015 04 09 08 45 19 .93     -10   -107     11    108    109 185.8   5.9  33460  277.82 0865.01
2015 04 09 08 45 20 .18     -11   -108      9    109    110 186.2   4.9  33450  277.67 0865.01
2015 04 09 08 45 20 .43     -20   -100      1    103    104 191.6   0.8  33436  277.42 0865.01
2015 04 09 08 45 20 .68     -14   -103      1    105    106 188.0   0.8  33438  277.46 0865.01
2015 04 09 08 45 20 .93     -20   -100      5    103    104 191.6   3.3  33440  277.49 0865.01
2015 04 09 08 45 21 .18     -15   -100     -6    102    103 188.9  -3.7  33438  277.47 0865.01
2015 04 09 08 45 21 .43      -9    -95     -5     96     97 185.8  -3.1  33434  277.41 0865.01
2015 04 09 08 45 21 .68     -14   -103    -13    105    106 188.1  -7.2  33426  277.26 0865.01
2015 04 09 08 45 21 .93      -8   -107     -4    108    109 184.4  -2.2  33424  277.24 0865.01
2015 04 09 08 45 22 .18       0    -95     -4     96     97 180.5  -2.6  33424  277.24 0865.01
2015 04 09 08 45 22 .43      -7    -98    -12     99    100 184.5  -7.3  33422  277.21 0865.01
2015 04 09 08 45 22 .68      -7    -98    -12     99    100 184.5  -7.3  33422  277.21 0865.01
2015 04 09 08 45 22 .93     -16    -92    -12     94     95 190.2  -7.3  33424  277.24 0865.01
2015 04 09 08 45 23 .18      -6    -88    -10     89     90 184.0  -6.7  33424  277.22 0865.01
2015 04 09 08 45 23 .44       0    -87     -4     88     89 180.5  -2.6  33424  277.24 0865.01
2015 04 09 08 45 23 .69       0    -83     -3     84     85 180.4  -2.2  33422  277.21 0865.01
2015 04 09 08 45 23 .94      -7    -91     -5     92     93 184.5  -3.1  33422  277.19 0865.01
2015 04 09 08 45 24 .20      -4    -91     -7     92     93 182.7  -4.6  33422  277.21 0865.01
2015 04 09 08 45 24 .45      -7    -98    -12     99    100 184.5  -7.3  33422  277.21 0865.01
2015 04 09 08 45 24 .70      -8    -94    -12     95     96 184.9  -7.3  33424  277.22 0865.01
2015 04 09 08 45 24 .95      -8    -88    -12     89     90 185.3  -7.7  33424  277.22 0865.01
2015 04 09 08 45 25 .20      -8    -88    -12     89     90 185.3  -7.7  33424  277.22 0865.01
2015 04 09 08 45 25 .45      -8    -88     -6     89     90 185.8  -4.1  33426  277.26 0865.01
2015 04 09 08 45 25 .70      -7    -85    -11     86     87 184.9  -7.3  33422  277.21 0865.01
2015 04 09 08 45 25 .95      -8    -88    -12     89     90 185.3  -7.7  33424  277.22 0865.01
2015 04 09 08 45 26 .20      -4    -87     -9     88     89 183.1  -6.2  33426  277.27 0865.01
2015 04 09 08 45 26 .45      -6    -88    -10     89     90 184.0  -6.7  33424  277.22 0865.01
2015 04 09 08 45 26 .70     -13    -96     -3     97     98 188.0  -2.2  33424  277.24 0865.01
2015 04 09 08 45 26 .95      -4    -91     -7     92     93 182.7  -4.6  33422  277.21 0865.01
2015 04 09 08 45 27 .20       0    -95     -4     96     97 180.5  -2.6  33424  277.24 0865.01
2015 04 09 08 45 27 .45      -4    -91     -7     92     93 182.7  -4.6  33422  277.21 0865.01
2015 04 09 08 45 27 .71       1    -94    -13     95     96 179.1  -8.2  33424  277.24 0865.01
2015 04 09 08 45 27 .96       5    -93    -16     94     96 176.4  -9.8  33426  277.26 0865.01
2015 04 09 08 45 28 .21       0    -98    -10     99    100 180.4  -6.2  33428  277.29 0865.01
2015 04 09 08 45 28 .46       6    -86    -15     87     89 175.6  -9.8  33428  277.31 0865.01
2015 04 09 08 45 28 .71       7    -99    -13    100    101 175.5  -7.7  33428  277.29 0865.01
2015 04 09 08 45 28 .96      15   -102    -22    104    107 171.5 -11.9  33426  277.26 0865.01
2015 04 09 08 45 29 .22      19    -97     -9     99    100 168.5  -5.2  33428  277.29 0865.01
2015 04 09 08 45 29 .46      22    -92    -12     95     96 166.2  -7.7  33428  277.29 0865.01
2015 04 09 08 45 29 .71      16    -80    -20     82     85 168.4 -13.9  33426  277.26 0865.01
2015 04 09 08 45 29 .96      -5    -81     -3     82     83 184.0  -2.2  33428  277.31 0865.01
2015 04 09 08 45 30 .21     -10    -76      3     77     78 188.0   2.9  33426  277.27 0865.01
2015 04 09 08 45 30 .46      -7    -84     -3     85     86 185.3  -2.6  33428  277.29 0865.01
2015 04 09 08 45 30 .72      -2    -92      0     93     94 181.8  -0.3  33430  277.34 0865.01
2015 04 09 08 45 30 .97      -7    -91     -3     92     93 184.5  -2.2  33430  277.34 0865.01
2015 04 09 08 45 31 .22      -5    -95    -10     96     97 183.1  -6.2  33434  277.39 0865.01
2015 04 09 08 45 31 .47     -13    -96    -11     97     98 188.0  -6.7  33426  277.26 0865.01
2015 04 09 08 45 31 .73      -8    -94    -12     95     96 184.9  -7.3  33430  277.32 0865.01
2015 04 09 08 45 31 .98      24    -90     -4     94     95 164.9  -2.6  33504  278.55 0865.01
2015 04 09 08 45 32 .23      14    -70     -2     72     73 168.5  -2.2  33492  278.37 0865.01
2015 04 09 08 45 32 .49       5    -76     -9     77     78 175.6  -7.3  33460  277.82 0865.01
2015 04 09 08 45 32 .73       8    -76     -1     77     78 173.8  -1.2  33488  278.30 0865.01
2015 04 09 08 45 32 .98       0    -75     -9     76     77 180.0  -7.2  33430  277.34 0865.01
2015 04 09 08 45 33 .23      -3    -75     -1     76     77 182.7  -1.2  33436  277.44 0865.01
2015 04 09 08 45 33 .49      -6    -89      4     90     91 184.4   2.9  33458  277.79 0865.01
2015 04 09 08 45 33 .74     -13    -93     10     94     95 188.0   6.5  33478  278.12 0865.01
2015 04 09 08 45 33 .98       5    -69      9     70     71 175.6   8.0  33512  278.70 0865.01
2015 04 09 08 45 34 .23       5    -64      3     65     66 175.5   2.9  33512  278.70 0865.01
2015 04 09 08 45 34 .49       7    -85      4     86     87 175.1   2.9  33514  278.74 0865.01
2015 04 09 08 45 34 .73       0    -77     10     78     79 180.0   8.0  33518  278.78 0865.01
2015 04 09 08 45 34 .98       0    -81     24     82     86 180.0  16.8  33504  278.55 0865.01
2015 04 09 08 45 35 .23      -7    -84     15     85     87 184.9  10.6  33440  277.51 0865.01
2015 04 09 08 45 35 .48     -10    -85      3     86     87 186.7   2.3  33430  277.34 0865.01
2015 04 09 08 45 35 .73      -4    -81      4     82     83 183.1   3.3  33428  277.29 0865.01
2015 04 09 08 45 35 .98      -8    -81      5     82     83 186.2   3.8  33428  277.31 0865.01
2015 04 09 08 45 36 .24      -7    -84     -3     85     86 184.9  -2.6  33436  277.44 0865.01
2015 04 09 08 45 36 .49      -3    -75      6     76     77 182.7   4.9  33444  277.57 0865.01
2015 04 09 08 45 36 .74      -5    -73     11     74     75 184.4   9.0  33446  277.61 0865.01
2015 04 09 08 45 36 .99     -15    -76      5     78     79 191.6   3.8  33454  277.72 0865.01
2015 04 09 08 45 37 .24      -7    -85     16     86     88 185.3  11.1  33472  278.02 0865.01
2015 04 09 08 45 37 .49     -18    -96     11     98     99 191.1   6.5  33466  277.92 0865.01
2015 04 09 08 45 37 .74     -10    -91      2     92     93 186.7   1.8  33446  277.59 0865.01
2015 04 09 08 45 38 .00     -16    -82     15     84     86 191.1  10.1  33446  277.59 0865.01
2015 04 09 08 45 38 .25     -15    -75     14     77     79 191.6  10.6  33448  277.64 0865.01
2015 04 09 08 45 38 .50     -10    -75     19     76     79 188.0  14.3  33452  277.69 0865.01
2015 04 09 08 45 38 .75      -1    -72      8     73     74 181.0   6.9  33466  277.94 0865.01
2015 04 09 08 45 39 .00     -10    -73     14     74     76 188.0  11.1  33454  277.74 0865.01
2015 04 09 08 45 39 .25      -3    -75     15     76     78 182.7  11.1  33454  277.74 0865.01
2015 04 09 08 45 39 .51     -10    -80     21     81     84 187.1  14.7  33486  278.27 0865.01
2015 04 09 08 45 39 .76     -17    -93     34     95    100 190.7  20.0  33544  279.23 0865.01
2015 04 09 08 45 40 .01      -1    -74     50     75     90 180.9  36.5  33574  279.72 0865.01
2015 04 09 08 45 40 .26      -2    -73     44     74     86 181.8  34.0  33580  279.83 0865.01
2015 04 09 08 45 40 .51      -3    -70     47     71     85 182.7  36.5  33578  279.80 0865.01
2015 04 09 08 45 40 .75     -17    -54     54     57     78 197.8  48.5  33528  278.97 0865.01
2015 04 09 08 45 41 .01     -20    -67     15     71     73 196.9  12.2  33502  278.52 0865.00
2015 04 09 08 45 41 .26      -8    -81     13     82     84 186.2   9.5  33516  278.75 0865.00
2015 04 09 08 45 41 .52     -16    -67     37     69     78 193.4  30.3  33558  279.45 0865.00
2015 04 09 08 45 41 .76      -9    -67     47     68     82 188.1  38.0  33530  278.98 0865.00
2015 04 09 08 45 42 .01     -16    -68      4     70     71 193.4   3.8  33492  278.37 0865.00
2015 04 09 08 45 42 .27     -13    -88     16     90     92 188.9  10.6  33530  278.98 0865.00
2015 04 09 08 45 42 .51     -24    -83     35     87     93 196.0  22.5  33544  279.23 0865.00
2015 04 09 08 45 42 .76      -1    -53     12     54     56 181.8  13.2  33542  279.18 0865.00
2015 04 09 08 45 43 .01       8    -53     15     54     57 171.1  15.3  33544  279.22 0865.00
2015 04 09 08 45 43 .26      11    -43     24     45     51 164.9  30.3  33518  278.80 0865.00
2015 04 09 08 45 43 .52      13    -32     12     35     38 158.2  18.9  33504  278.57 0865.00
2015 04 09 08 45 43 .77       2    -34      6     35     36 175.5  11.1  33518  278.78 0865.00
2015 04 09 08 45 44 .02       1    -65     -1     66     67 179.0  -1.2  33544  279.22 0865.00
2015 04 09 08 45 44 .26      -5    -75      2     76     77 184.5   1.8  33530  278.98 0865.00
2015 04 09 08 45 44 .52       0    -61      5     62     63 180.9   4.9  33536  279.10 0865.00
2015 04 09 08 45 44 .77      -5    -65     13     66     68 184.5  11.1  33532  279.03 0865.00
2015 04 09 08 45 45 .03     -20    -89     31     92     98 192.9  18.9  33498  278.47 0865.00
2015 04 09 08 45 45 .28       0    -84      4     85     86 180.4   2.8  33478  278.14 0865.00
2015 04 09 08 45 45 .54       0    -81     16     82     84 180.5  11.1  33498  278.47 0865.00
2015 04 09 08 45 45 .78      -4    -76     28     77     81 183.6  20.4  33484  278.24 0865.00
2015 04 09 08 45 46 .03      14    -78     39     80     89 169.3  27.3  33530  278.98 0865.00
2015 04 09 08 45 46 .28      13    -78     20     80     83 170.2  14.3  33492  278.35 0865.00
2015 04 09 08 45 46 .53      27    -80     11     85     86 161.3   7.5  33478  278.12 0865.00
2015 04 09 08 45 46 .78      35    -79      5     87     88 155.9   3.8  33480  278.17 0865.00
2015 04 09 08 45 47 .04      50    -75     29     91     96 146.6  17.9  33498  278.47 0865.00
2015 04 09 08 45 47 .28      57    -74     41     94    102 142.6  24.6  33510  278.65 0865.00
2015 04 09 08 45 47 .54      54    -71     46     90    101 143.0  29.3  33522  278.85 0865.00
2015 04 09 08 45 47 .78      55    -86     45    103    112 147.5  25.1  33488  278.29 0865.00
2015 04 09 08 45 48 .03      49    -93     35    106    112 152.4  18.4  33466  277.94 0865.00
2015 04 09 08 45 48 .28      60   -104     33    121    126 150.1  15.2  33440  277.51 0865.00
2015 04 09 08 45 48 .54      62    -88     38    108    115 144.8  19.4  33448  277.64 0865.00
2015 04 09 08 45 48 .79      38   -111     11    118    119 160.8   5.4  33434  277.41 0865.00
2015 04 09 08 45 49 .04      40    -93      5    102    103 156.4   2.8  33442  277.54 0865.00
2015 04 09 08 45 49 .29      33    -70      2     78     79 154.7   1.8  33450  277.67 0865.00
2015 04 09 08 45 49 .54      24    -73      2     78     79 161.3   1.8  33442  277.52 0865.00
2015 04 09 08 45 49 .79      17    -67     15     70     72 165.7  12.2  33436  277.44 0865.00
2015 04 09 08 45 50 .04       6    -57      6     58     59 173.8   5.9  33442  277.54 0865.00
2015 04 09 08 45 50 .30       4    -61    -11     62     64 175.6 -10.3  33468  277.97 0865.00
2015 04 09 08 45 50 .54      -2    -61     -5     62     63 182.7  -5.2  33478  278.12 0865.00
2015 04 09 08 45 50 .80     -10    -76     -3     77     78 188.1  -2.2  33496  278.42 0865.00
2015 04 09 08 45 51 .04       1    -88     -6     89     90 179.1  -4.1  33520  278.83 0865.00
2015 04 09 08 45 51 .29     -29    -85      5     91     92 199.2   3.3  33510  278.67 0865.00
2015 04 09 08 45 51 .54     -56    -88     44    105    113 212.5  23.6  33492  278.37 0865.00
2015 04 09 08 45 51 .80       7   -104     20    105    107 176.0  11.0  33500  278.50 0865.00
2015 04 09 08 45 52 .05      12    -92    -11     93     94 172.0  -7.2  33516  278.75 0865.00
2015 04 09 08 45 52 .31      -4    -88    -16     89     91 183.1 -10.3  33524  278.88 0865.00
2015 04 09 08 45 52 .55      -9    -90    -42     91    100 186.2 -31.0  33472  278.02 0865.00
2015 04 09 08 45 52 .80       0    -62    -38     63     73 179.1 -38.8  33462  277.87 0865.00
2015 04 09 08 45 53 .05       0    -62    -37     63     73 180.9 -37.9  33438  277.47 0865.00
2015 04 09 08 45 53 .31      -5    -69    -27     70     75 184.5 -25.4  33452  277.69 0865.00
2015 04 09 08 45 53 .55     -13    -66    -27     68     73 191.6 -27.4  33448  277.64 0865.00
2015 04 09 08 45 53 .81      45    -49    -13     67     69 137.7 -11.3  33456  277.75 0865.00
2015 04 09 08 45 54 .07      46    -66    -14     81     83 144.8  -9.8  33462  277.87 0865.00
2015 04 09 08 45 54 .31      42    -67     -5     80     81 147.5  -4.1  33478  278.12 0865.00
2015 04 09 08 45 54 .56      47    -83      4     96     97 150.6   2.8  33488  278.29 0865.00
2015 04 09 08 45 54 .81      39    -82      3     91     92 154.6   2.3  33498  278.47 0865.00
2015 04 09 08 45 55 .06      37    -68     26     78     83 151.1  18.9  33494  278.39 0865.00
2015 04 09 08 45 55 .31      16    -91     41     93    101 169.8  25.1  33498  278.45 0865.00
2015 04 09 08 45 55 .56      65    -89      6    111    112 144.0   3.3  33466  277.94 0865.00
2015 04 09 08 45 55 .81      35   -106     18    112    114 161.7   9.5  33458  277.79 0865.00
2015 04 09 08 45 56 .06      37   -106      1    113    114 160.4   0.8  33444  277.56 0865.00
2015 04 09 08 45 56 .32      32    -96    -15    102    104 161.7  -8.8  33440  277.51 0865.00
2015 04 09 08 45 56 .57      32    -97     -9    103    104 161.7  -5.2  33454  277.74 0865.00
2015 04 09 08 45 56 .81      61    -80     24    101    104 142.6  13.7  33478  278.14 0865.00
2015 04 09 08 45 57 .07      34    -85     39     92     99 158.2  24.1  33484  278.22 0865.00
2015 04 09 08 45 57 .31      38    -75     37     85     92 152.8  25.1  33510  278.65 0865.01
2015 04 09 08 45 57 .56      44    -93     21    103    106 154.6  11.6  33490  278.34 0865.01
2015 04 09 08 45 57 .81      46    -87     37     99    105 151.9  21.5  33488  278.29 0865.01
2015 04 09 08 45 58 .07      40    -85     42     95    103 154.5  25.1  33484  278.24 0865.01
2015 04 09 08 45 58 .31      29    -76     41     82     91 159.1  28.2  33486  278.25 0865.01
2015 04 09 08 45 58 .56      26    -79     32     84     89 161.5  21.5  33470  278.00 0865.01
2015 04 09 08 45 58 .83      21    -74     12     78     79 164.0   9.0  33454  277.72 0865.01
2015 04 09 08 45 59 .08      37    -72     22     81     85 152.8  15.3  33472  278.02 0865.01
2015 04 09 08 45 59 .33      37    -74      7     83     84 153.3   5.4  33466  277.94 0865.01
2015 04 09 08 45 59 .58      47    -75     11     89     90 147.5   7.5  33464  277.90 0865.01
2015 04 09 08 45 59 .83      38    -67     -3     78     79 150.1  -2.6  33442  277.54 0865.01
2015 04 09 08 46 00 .08      24    -60      9     65     66 158.1   8.0  33452  277.69 0865.01
2015 04 09 08 46 00 .33      17    -71     14     74     76 166.6  11.1  33450  277.67 0865.01
2015 04 09 08 46 00 .58      15    -74     -1     76     77 168.4  -1.2  33448  277.64 0865.01
2015 04 09 08 46 00 .83      16    -71     -4     73     74 166.6  -3.1  33452  277.69 0865.01
2015 04 09 08 46 01 .08      10    -66     -3     67     68 171.1  -3.1  33448  277.64 0865.01
2015 04 09 08 46 01 .33      18    -53      2     57     58 161.3   2.9  33448  277.62 0865.01
2015 04 09 08 46 01 .58      19    -59      3     63     64 161.7   2.9  33446  277.59 0865.01
2015 04 09 08 46 01 .83      14    -54      4     56     57 164.9   4.9  33446  277.59 0865.01
2015 04 09 08 46 02 .08      18    -55     11     58     60 161.5  11.0  33442  277.54 0865.01
2015 04 09 08 46 02 .33      21    -55     -4     59     60 159.1  -4.1  33440  277.51 0865.01
2015 04 09 08 46 02 .59      15    -63      3     65     66 166.6   2.9  33442  277.54 0865.01
2015 04 09 08 46 02 .84      16    -71      3     73     74 166.6   2.8  33444  277.56 0865.01
2015 04 09 08 46 03 .10      18    -82     -1     84     85 167.5  -1.3  33462  277.85 0865.01
2015 04 09 08 46 03 .34      16    -78      9     80     81 168.4   6.5  33482  278.20 0865.01
2015 04 09 08 46 03 .60      21    -78      0     81     82 164.9  -0.3  33478  278.14 0865.01
2015 04 09 08 46 03 .84      21    -74     -3     77     78 164.0  -2.2  33480  278.17 0865.01
2015 04 09 08 46 04 .09      23    -78     -5     82     83 163.1  -4.1  33450  277.65 0865.01
2015 04 09 08 46 04 .35      25    -72      3     77     78 160.8   2.9  33472  278.04 0865.01
2015 04 09 08 46 04 .59      33    -76     21     83     86 156.4  14.7  33478  278.14 0865.01
2015 04 09 08 46 04 .84      34    -75     21     83     86 155.5  14.3  33476  278.09 0865.01
2015 04 09 08 46 05 .09      27    -63     13     69     71 156.4  11.0  33480  278.17 0865.01
2015 04 09 08 46 05 .34      22    -66      3     70     71 161.3   2.9  33494  278.40 0865.01
2015 04 09 08 46 05 .60       8    -69      7     70     71 172.9   5.9  33520  278.83 0865.01
2015 04 09 08 46 05 .85       7    -77      6     78     79 174.7   4.9  33520  278.83 0865.01
2015 04 09 08 46 06 .10      11    -58     10     60     61 168.5  10.1  33506  278.60 0865.01
2015 04 09 08 46 06 .35      26    -56     -8     62     63 154.6  -7.3  33472  278.04 0865.01
2015 04 09 08 46 06 .62      23    -59     -2     64     65 158.1  -2.2  33458  277.79 0865.01
2015 04 09 08 46 06 .86      35    -62    -10     72     73 150.1  -8.2  33448  277.64 0865.01
2015 04 09 08 46 07 .11      10    -50      2     52     53 168.4   2.8  33462  277.87 0865.01
2015 04 09 08 46 07 .36      17    -40     17     44     47 156.4  21.0  33452  277.70 0865.01
2015 04 09 08 46 07 .61      16    -44     16     47     50 160.0  19.2  33448  277.64 0865.01
2015 04 09 08 46 07 .86      10    -54      7     55     56 169.3   8.0  33444  277.56 0865.01
2015 04 09 08 46 08 .11      10    -56    -10     58     59 169.3 -10.3  33440  277.51 0865.01
2015 04 09 08 46 08 .36      14    -49     -5     52     53 164.0  -6.2  33440  277.51 0865.01
2015 04 09 08 46 08 .61      17    -53    -10     56     57 161.3 -10.3  33444  277.56 0865.01
2015 04 09 08 46 08 .86       3    -57     -5     58     59 176.4  -5.2  33468  277.97 0865.01
2015 04 09 08 46 09 .11      -7    -53      2     54     55 188.0   2.9  33472  278.02 0865.01
2015 04 09 08 46 09 .36       4    -53      2     54     55 175.6   2.8  33480  278.17 0865.01
2015 04 09 08 46 09 .61       5    -42     -7     43     44 172.0 -10.3  33476  278.09 0865.01
2015 04 09 08 46 09 .86       8    -43     -1     44     45 169.3  -2.2  33462  277.87 0865.01
2015 04 09 08 46 10 .12       8    -38    -13     39     42 167.5 -18.7  33472  278.04 0865.02
2015 04 09 08 46 10 .36      -1    -37    -13     38     41 182.6 -19.7  33454  277.72 0865.02
2015 04 09 08 46 10 .62       7    -36    -11     37     38 168.4 -23.8  33446  277.61 0865.02
2015 04 09 08 46 10 .87      12    -35    -13     38     40 161.3 -23.6  33448  277.64 0865.02
2015 04 09 08 46 11 .11      11    -35    -14     37     39 161.3 -23.3  33446  277.59 0865.02
2015 04 09 08 46 11 .37      13    -32    -12     35     37 158.2 -23.6  33440  277.51 0865.02
2015 04 09 08 46 11 .61      -2    -31    -10     32     33 184.5 -23.8  33440  277.49 0865.02
2015 04 09 08 46 11 .87      -2    -30     -4     31     32 184.5  -7.3  33444  277.57 0865.02
2015 04 09 08 46 12 .12       5    -35    -11     36     37 172.0 -23.8  33438  277.46 0865.02
2015 04 09 08 46 12 .37       7    -32    -10     33     35 166.6 -17.6  33442  277.54 0865.02
2015 04 09 08 46 12 .62       4    -23    -14     24     27 170.2 -39.9  33440  277.49 0865.02
2015 04 09 08 46 12 .88       1    -19    -16     20     25 175.5 -48.1  33444  277.57 0865.02
2015 04 09 08 46 13 .15       7    -16    -16     18     24 154.6 -54.4  33450  277.67 0865.02
2015 04 09 08 46 13 .38       4    -16    -15     17     22 164.9 -52.3  33452  277.69 0865.02
2015 04 09 08 46 13 .63       2    -11    -10     12     15 168.4 -52.3  33458  277.79 0865.02
2015 04 09 08 46 13 .88       1    -11    -10     12     15 172.0 -52.3  33454  277.74 0865.02
2015 04 09 08 46 14 .13      -1    -12     -8     13     15 186.2 -39.9  33454  277.72 0865.02
2015 04 09 08 46 14 .38      -6    -17     -6     19     20 198.7 -17.6  33454  277.74 0865.02
2015 04 09 08 46 14 .63      -9    -18     -3     21     22 205.4  -9.3  33456  277.77 0865.02
2015 04 09 08 46 14 .89     -12    -15      0     20     21 217.8  -2.2  33456  277.75 0865.02
2015 04 09 08 46 15 .13     -14    -20     -1     25     26 216.1  -3.1  33464  277.89 0865.02
2015 04 09 08 46 15 .39     -10    -16     -6     19     20 212.6 -17.6  33452  277.69 0865.02
2015 04 09 08 46 15 .63     -15    -13     -8     20     21 228.7 -27.4  33460  277.82 0865.02
2015 04 09 08 46 15 .88      -2     -7     -3      8      8 198.5 -23.6  33458  277.80 0865.02
2015 04 09 08 46 16 .14      -8    -12     -9     15     17 212.6 -39.9  33458  277.79 0865.02
2015 04 09 08 46 16 .39     -13     -4     -7     14     15 251.4 -31.6  33462  277.87 0865.02
2015 04 09 08 46 16 .64      -9    -12    -10     16     18 216.1 -39.9  33474  278.05 0865.02
2015 04 09 08 46 16 .89     -11     -8     -6     14     15 234.0 -27.4  33474  278.05 0865.02
2015 04 09 08 46 17 .14      -6    -11     -4     13     13 209.0 -23.8  33470  277.99 0865.02
2015 04 09 08 46 17 .39      -1     -4     -7      5      8 191.6 -60.8  33450  277.65 0865.02
2015 04 09 08 46 17 .64      -4     -3     -5      6      7 230.5 -56.4  33454  277.74 0865.02
2015 04 09 08 46 17 .89       0     -3     -1      4      5 191.6 -15.5  33448  277.64 0865.02
2015 04 09 08 46 18 .14       0     -3     -1      4      5 191.6 -15.5  33452  277.69 0865.02
2015 04 09 08 46 18 .39       2     -4     -3      5      5 147.5 -39.9  33452  277.70 0865.02
2015 04 09 08 46 18 .64       8     -7     -3     11     12 133.1 -15.5  33450  277.65 0865.02
2015 04 09 08 46 18 .89      12     -8      0     15     16 122.4  -2.2  33452  277.70 0865.02
2015 04 09 08 46 19 .14       7      0      2      8      9  94.4  19.2  33448  277.64 0865.02
2015 04 09 08 46 19 .39       7      4      2      9     10  57.6  15.3  33448  277.64 0865.02
2015 04 09 08 46 19 .65       7      3      1      8      9  64.7  11.1  33450  277.65 0865.02
2015 04 09 08 46 19 .90      15      5      3     16     17  71.4  11.1  33456  277.77 0865.02
2015 04 09 08 46 20 .16       9      1      3     10     11  82.1  19.2  33456  277.77 0865.01
2015 04 09 08 46 20 .41       6     -2      0      7      8 115.3  -2.2  33450  277.65 0865.01
2015 04 09 08 46 20 .65       3      0     -1      4      5 101.5 -15.5  33448  277.62 0865.01
2015 04 09 08 46 20 .91       0      0     -5      1      5 135.0 -90.0  33446  277.59 0865.01
2015 04 09 08 46 21 .16       6      1     -5      7      8  78.5 -48.1  33442  277.54 0865.01
2015 04 09 08 46 21 .41       6      1     -5      7      8  78.5 -48.1  33448  277.64 0865.01
2015 04 09 08 46 21 .66       4      5     -8      7     10  39.6 -56.6  33456  277.75 0865.01
2015 04 09 08 46 21 .91       0      5     -6      6      8 357.3 -54.5  33466  277.94 0865.02
2015 04 09 08 46 22 .16       4      4     -7      7      9  45.0 -54.5  33450  277.67 0865.02
2015 04 09 08 46 22 .41       4      4    -14      7     15  45.0 -77.3  33452  277.69 0865.02
2015 04 09 08 46 22 .66       4      4    -14      7     15  45.0 -77.3  33452  277.69 0865.02
2015 04 09 08 46 22 .91      12      0    -12     13     17  94.4 -56.4  33466  277.92 0865.02
2015 04 09 08 46 23 .16       4      5    -20      7     21  39.6 -85.4  33462  277.87 0865.02
2015 04 09 08 46 23 .41      17      5    -27     18     32  71.6 -69.0  33464  277.89 0865.02
2015 04 09 08 46 23 .66      17     13    -20     22     29  52.2 -54.4  33462  277.87 0865.02
2015 04 09 08 46 23 .92      19      8    -18     21     27  66.5 -50.2  33470  278.00 0865.02
2015 04 09 08 46 24 .16      17      5     -8     18     19  71.4 -27.4  33472  278.02 0865.02
2015 04 09 08 46 24 .42      -1      0     -9      2      9 251.6 -90.0  33476  278.09 0865.02
2015 04 09 08 46 24 .67      -8      0    -16      9     18 274.4 -73.2  33478  278.12 0865.02
2015 04 09 08 46 24 .92      -8      1     -9      9     12 281.5 -54.5  33476  278.10 0865.02
2015 04 09 08 46 25 .17     -11      5     -5     13     13 295.3 -23.3  33472  278.04 0865.02
2015 04 09 08 46 25 .42      -7      0     -8      8     11 270.0 -54.5  33480  278.17 0865.02
2015 04 09 08 46 25 .67      -8     -3     -3      9     10 248.3 -19.7  33478  278.12 0865.02
2015 04 09 08 46 25 .92      -7    -11     -4     14     15 212.6 -15.5  33478  278.12 0865.02
2015 04 09 08 46 26 .17     -12    -13     -2     18     19 223.4  -7.2  33464  277.89 0865.02
2015 04 09 08 46 26 .42     -16    -16     -9     23     24 225.0 -25.4  33470  277.99 0865.02
2015 04 09 08 46 26 .69     -16     -3      5     17     18 258.5  18.9  33470  278.00 0865.02
2015 04 09 08 46 26 .93     -28      0      1     29     30 270.0   2.8  33490  278.34 0865.02
2015 04 09 08 46 27 .18     -20      0     -8     21     22 269.2 -25.4  33466  277.92 0865.02
2015 04 09 08 46 27 .43     -10      1     -8     11     13 277.9 -44.1  33476  278.09 0865.02
2015 04 09 08 46 27 .69     -11      5    -12     13     17 295.3 -56.4  33474  278.07 0865.02
2015 04 09 08 46 27 .93     -15     -1     -9     16     18 265.7 -35.8  33486  278.25 0865.02
2015 04 09 08 46 28 .19     -10      0    -11     11     15 270.0 -54.5  33478  278.12 0865.02
2015 04 09 08 46 28 .43      -1     -6     -9      7     11 191.6 -60.8  33488  278.29 0865.02
2015 04 09 08 46 28 .69      -4     -3     -5      6      7 230.5 -56.4  33494  278.40 0865.02
2015 04 09 08 46 28 .94      -1     -4     -7      5      8 191.6 -60.8  33502  278.52 0865.02
2015 04 09 08 46 29 .19      -4     -4     -5      7      8 225.0 -48.1  33500  278.50 0865.02
2015 04 09 08 46 29 .43       2      1     -9      3      9  57.6 -85.4  33492  278.35 0865.02
2015 04 09 08 46 29 .69       4      4     -7      7      9  45.0 -54.5  33490  278.32 0865.02
2015 04 09 08 46 29 .94       0      1     -8      2      8 341.5 -85.1  33484  278.22 0865.02
2015 04 09 08 46 30 .19      -2      2     -8      3      8 315.0 -85.4  33486  278.27 0865.02
2015 04 09 08 46 30 .44       4      0     -7      5      8  90.0 -60.8  33474  278.07 0865.02
2015 04 09 08 46 30 .69       0      5     -6      6      8 357.3 -54.5  33454  277.74 0865.02
2015 04 09 08 46 30 .94      10      1     -8     11     13  82.1 -44.1  33450  277.65 0865.02
2015 04 09 08 46 31 .19       8      4     -9     10     13  61.1 -56.4  33454  277.74 0865.02
2015 04 09 08 46 31 .44      12     16    -14     21     25  36.1 -40.0  33452  277.69 0865.02
2015 04 09 08 46 31 .69       8     13     -9     16     18  32.6 -35.8  33458  277.79 0865.02
2015 04 09 08 46 31 .94      10      9    -14     14     19  46.9 -54.5  33460  277.84 0865.02
2015 04 09 08 46 32 .19       8      5    -10     10     14  57.6 -54.5  33460  277.84 0865.02
2015 04 09 08 46 32 .44      10      9     -8     14     16  46.9 -39.9  33462  277.87 0865.02
2015 04 09 08 46 32 .70      14      8     -3     17     18  61.1 -11.3  33464  277.90 0865.02
2015 04 09 08 46 32 .94      10      8     -1     14     15  50.5  -7.2  33460  277.84 0865.02
2015 04 09 08 46 33 .19       9      8      0     13     14  46.9  -3.1  33458  277.79 0865.02
2015 04 09 08 46 33 .45      15     16      0     22     23  43.2   0.8  33458  277.79 0865.02
2015 04 09 08 46 33 .71      11     16      3     20     21  34.3   9.0  33462  277.87 0865.02
2015 04 09 08 46 33 .96      11     16      3     20     21  34.3   9.0  33468  277.97 0865.02
2015 04 09 08 46 34 .21       8      9      0     13     14  43.4  -2.2  33454  277.74 0865.02
2015 04 09 08 46 34 .46       7      4      1      9     10  57.6  11.1  33466  277.94 0865.02
2015 04 09 08 46 34 .71      13      5      7     15     16  68.3  27.2  33470  277.99 0865.02
2015 04 09 08 46 34 .96       8      5      2     10     11  57.6  15.3  33474  278.05 0865.02
2015 04 09 08 46 35 .21       8      8      4     12     13  46.9  18.9  33468  277.97 0865.02
2015 04 09 08 46 35 .46       8      2      9      9     12  71.8  50.1  33466  277.92 0865.02
2015 04 09 08 46 35 .71      15      1      9     16     18  85.6  31.4  33464  277.90 0865.02
2015 04 09 08 46 35 .96      23     -4     -2     24     25 101.5  -5.2  33454  277.74 0865.02
2015 04 09 08 46 36 .21      15      1    -10     16     18  85.6 -39.9  33454  277.74 0865.02
2015 04 09 08 46 36 .46      15      0      3     16     17  90.0  11.1  33466  277.92 0865.03
2015 04 09 08 46 36 .71      11      0      7     12     13  90.0  31.4  33474  278.05 0865.03
2015 04 09 08 46 36 .96      10     -3      5     11     12 108.4  27.2  33466  277.92 0865.03
2015 04 09 08 46 37 .21       7      0      2      8      9  94.4  19.2  33458  277.79 0865.03
2015 04 09 08 46 37 .46       8      0     -3      9      9  94.4 -23.6  33450  277.65 0865.03
2015 04 09 08 46 37 .71      11     -3     -1     12     13 108.2  -7.3  33448  277.64 0865.03
2015 04 09 08 46 37 .96       8      0     -3      9      9  94.4 -23.6  33444  277.56 0865.03
2015 04 09 08 46 38 .21      13      0     -5     14     14  90.8 -23.6  33442  277.54 0865.03
2015 04 09 08 46 38 .46      13      0     -5     14     14  90.8 -23.6  33442  277.54 0865.03
2015 04 09 08 46 38 .72      14     -3     -3     15     16 105.1 -11.3  33440  277.51 0865.03
2015 04 09 08 46 38 .97      13    -12     -7     18     19 133.3 -23.3  33444  277.56 0865.03
2015 04 09 08 46 39 .22      13    -12    -14     18     22 133.3 -48.1  33448  277.64 0865.02
2015 04 09 08 46 39 .47      13    -12     -7     18     19 133.3 -23.3  33446  277.61 0865.02
2015 04 09 08 46 39 .72      15     -9     -5     18     18 122.4 -23.8  33452  277.69 0865.02
2015 04 09 08 46 39 .97       6     -7     -8     10     12 140.4 -52.3  33450  277.65 0865.02
2015 04 09 08 46 40 .22      13    -12     -7     18     19 133.3 -23.3  33446  277.61 0865.02
2015 04 09 08 46 40 .47      15      1     -9     16     18  85.7 -35.8  33442  277.54 0865.02
2015 04 09 08 46 40 .73      17      0     -8     18     19  90.8 -27.4  33444  277.56 0865.02
2015 04 09 08 46 40 .98      11     -5     -8     13     15 115.3 -39.9  33440  277.51 0865.02
2015 04 09 08 46 41 .23      17     -1    -14     18     22  94.4 -48.1  33440  277.49 0865.02
2015 04 09 08 46 41 .49      18      6     -7     19     20  71.4 -25.4  33440  277.51 0865.02
2015 04 09 08 46 41 .73      15      1    -16     16     22  85.7 -54.5  33454  277.72 0865.02
2015 04 09 08 46 41 .98      15      8    -16     18     24  61.1 -54.4  33450  277.65 0865.02
2015 04 09 08 46 42 .24      19      8    -11     21     23  66.5 -33.7  33450  277.65 0865.02
2015 04 09 08 46 42 .49      15      8    -16     18     24  61.1 -54.4  33450  277.67 0865.02
2015 04 09 08 46 42 .74      13     13    -11     19     21  45.0 -37.9  33448  277.62 0865.02
2015 04 09 08 46 42 .99      17     13     -7     22     23  52.2 -23.8  33454  277.72 0865.02
2015 04 09 08 46 43 .24       9      8      4     13     14  46.9  19.4  33468  277.97 0865.02
2015 04 09 08 46 43 .49       7      9      7     12     13  36.1  31.4  33476  278.10 0865.02
2015 04 09 08 46 43 .74       7      8     13     11     17  39.6  52.2  33484  278.22 0865.02
2015 04 09 08 46 43 .99       5      8     13     10     16  32.5  60.5  33496  278.42 0865.02
2015 04 09 08 46 44 .24       4     12     18     13     22  18.3  60.5  33506  278.59 0865.02
2015 04 09 08 46 44 .50       0      5     20      6     20 357.3  82.8  33488  278.30 0865.02
2015 04 09 08 46 44 .74      -4      8     19     10     21 331.0  70.8  33488  278.30 0865.02
2015 04 09 08 46 45 .00       4      4     17      7     18  45.0  81.2  33490  278.34 0865.02
2015 04 09 08 46 45 .25       4      8     14     10     17  29.0  60.5  33502  278.52 0865.02
2015 04 09 08 46 45 .49       5      4     18      7     19  46.7  81.2  33480  278.17 0865.02
2015 04 09 08 46 45 .74      10      1     17     11     20  82.1  62.6  33484  278.22 0865.02
2015 04 09 08 46 46 .00       6      0     20      7     21  85.6  81.0  33488  278.30 0865.02
2015 04 09 08 46 46 .30       6      2     20      7     21  71.8  81.0  33498  278.45 0865.02
2015 04 09 08 46 46 .50       5      0     24      6     24  90.0  84.9  33488  278.30 0865.01
2015 04 09 08 46 46 .76      -4     -2     21      5     21 237.6  86.9  33510  278.65 0865.01
2015 04 09 08 46 47 .00      -1      0     15      2     15 251.6  90.0  33524  278.90 0865.01
2015 04 09 08 46 47 .24       0    -14     20     15     25 182.7  60.5  33480  278.15 0865.01
2015 04 09 08 46 47 .51       7    -35     12     36     39 168.4  18.9  33446  277.61 0865.01
2015 04 09 08 46 47 .76      14    -32     19     36     40 156.4  30.3  33432  277.37 0865.01
2015 04 09 08 46 48 .01      16    -34     23     38     44 154.6  33.5  33440  277.51 0865.01
2015 04 09 08 46 48 .26      28    -35     28     46     53 141.3  35.5  33448  277.64 0865.01
2015 04 09 08 46 48 .51      33    -35     41     49     63 136.8  44.8  33468  277.95 0865.01
2015 04 09 08 46 48 .76      27    -40     39     49     62 145.7  43.7  33444  277.56 0865.01
2015 04 09 08 46 49 .01      22    -39     34     46     57 150.1  40.7  33450  277.67 0865.01
2015 04 09 08 46 49 .27      28    -35     35     46     57 141.3  41.7  33452  277.70 0865.01
2015 04 09 08 46 49 .52      19    -20     33     28     43 136.6  54.3  33476  278.09 0865.01
2015 04 09 08 46 49 .76      13     -4     29     14     32 108.6  72.9  33478  278.14 0865.01
2015 04 09 08 46 50 .02       4     -7     23      9     24 147.5  79.2  33488  278.30 0865.01
2015 04 09 08 46 50 .27       8     -3     26      9     27 115.3  81.0  33484  278.22 0865.01
2015 04 09 08 46 50 .51      20    -20     32     29     43 135.0  52.2  33460  277.84 0865.01
2015 04 09 08 46 50 .77      31    -21     23     38     44 124.2  33.5  33450  277.65 0865.01
2015 04 09 08 46 51 .02      22    -17     28     28     39 127.8  50.1  33454  277.74 0865.01
2015 04 09 08 46 51 .27      13     -8     46     16     48 122.4  81.2  33470  277.99 0865.01
2015 04 09 08 46 51 .52      10    -13     25     17     30 143.9  62.6  33464  277.89 0865.01
2015 04 09 08 46 51 .77       6    -10      0     13     14 147.5  -2.2  33460  277.82 0865.01
2015 04 09 08 46 52 .02      16    -20    -10     26     27 140.4 -23.3  33446  277.59 0865.01
2015 04 09 08 46 52 .27       5    -16    -14     17     22 161.3 -48.1  33452  277.69 0865.01
2015 04 09 08 46 52 .52       4    -15     -2     16     17 164.9  -7.3  33454  277.74 0865.01
2015 04 09 08 46 52 .77      -4    -12     -5     13     13 198.3 -23.3  33454  277.74 0865.01
2015 04 09 08 46 53 .02      -4    -12    -12     13     17 198.3 -56.4  33462  277.87 0865.01
2015 04 09 08 46 53 .27     -16    -16    -16     23     28 225.0 -42.0  33456  277.77 0865.01
2015 04 09 08 46 53 .53     -19    -12    -25     23     33 235.8 -54.5  33462  277.87 0865.01
2015 04 09 08 46 53 .77     -11     -8    -25     14     28 234.0 -73.2  33472  278.02 0865.01
2015 04 09 08 46 54 .03     -25     -8    -31     27     41 251.8 -58.7  33470  278.00 0865.01
2015 04 09 08 46 54 .28     -23    -11    -35     26     43 244.7 -63.8  33488  278.29 0865.01
2015 04 09 08 46 54 .53     -29     -8    -29     31     42 254.9 -53.4  33498  278.47 0865.01
2015 04 09 08 46 54 .79     -21    -17    -33     28     43 230.5 -58.7  33486  278.27 0865.01
2015 04 09 08 46 55 .04     -22    -11    -28     25     37 242.9 -56.6  33508  278.62 0865.01
2015 04 09 08 46 55 .29     -41     -4    -20     42     46 263.9 -31.6  33514  278.72 0865.01
2015 04 09 08 46 55 .54     -42      1    -14     43     45 271.7 -23.8  33512  278.70 0865.01
2015 04 09 08 46 55 .79     -39      3    -18     40     43 274.4 -29.5  33492  278.35 0865.00
2015 04 09 08 46 56 .04     -32      0    -17     33     37 270.8 -33.7  33478  278.12 0865.00
2015 04 09 08 46 56 .29     -33      0    -19     34     38 269.2 -35.8  33456  277.77 0865.00
2015 04 09 08 46 56 .54     -23      7    -23     25     33 288.4 -54.4  33454  277.74 0865.00
2015 04 09 08 46 56 .79     -39      6    -24     40     46 279.7 -38.8  33456  277.77 0865.00
2015 04 09 08 46 57 .04     -33      5    -26     34     42 279.7 -46.1  33452  277.69 0865.00
2015 04 09 08 46 57 .29     -37      2    -22     38     43 274.3 -36.8  33452  277.69 0865.00
2015 04 09 08 46 57 .54     -20      0    -20     21     29 269.2 -56.4  33452  277.70 0865.01
2015 04 09 08 46 57 .80      -9     -3    -23     10     25 248.3 -81.5  33466  277.94 0865.01
2015 04 09 08 46 58 .04     -16     -5    -15     17     22 251.8 -52.3  33484  278.24 0865.01
2015 04 09 08 46 58 .29      -2     -8     -9      9     12 198.5 -54.5  33492  278.35 0865.01
2015 04 09 08 46 58 .54     -13     -4     -7     14     15 251.6 -31.6  33480  278.17 0865.01
2015 04 09 08 46 58 .80     -13     -4     -7     14     15 251.6 -31.6  33484  278.22 0865.01
2015 04 09 08 46 59 .04     -13    -13    -14     19     23 223.4 -46.1  33470  278.00 0865.01
2015 04 09 08 46 59 .29      -7    -15    -14     17     22 205.4 -48.1  33458  277.79 0865.01
2015 04 09 08 46 59 .55      -3    -31     -9     32     33 186.2 -21.7  33442  277.54 0865.01
2015 04 09 08 46 59 .80      -6    -26    -11     27     29 193.4 -25.4  33444  277.56 0865.01
2015 04 09 08 47 00 .05       0    -25      4     26     27 180.9   9.0  33438  277.46 0865.01
2015 04 09 08 47 00 .30       0    -21      0     22     23 179.1  -1.3  33434  277.41 0865.01
2015 04 09 08 47 00 .55       7    -25      7     27     28 163.1  15.3  33436  277.44 0865.01
2015 04 09 08 47 00 .80      12    -31     -1     34     35 158.2  -2.2  33434  277.41 0865.01
2015 04 09 08 47 01 .05      15    -38      8     41     42 158.2  12.2  33438  277.46 0865.01
2015 04 09 08 47 01 .30      18    -38      3     43     44 154.6   4.9  33434  277.41 0865.01
2015 04 09 08 47 01 .56      21    -38    -13     44     46 150.1 -16.6  33436  277.44 0865.01
2015 04 09 08 47 01 .81      26    -46    -18     54     56 150.1 -23.6  33436  277.44 0865.01
2015 04 09 08 47 02 .06      32    -57    -15     66     68 151.0 -13.4  33434  277.41 0865.00
2015 04 09 08 47 02 .31      30    -61    -10     69     70 153.7  -8.2  33436  277.42 0865.00
2015 04 09 08 47 02 .56      24    -58     -3     63     64 157.3  -3.1  33434  277.39 0865.00
2015 04 09 08 47 02 .82      15    -59    -22     61     64 165.7 -23.3  33438  277.47 0865.00
2015 04 09 08 47 03 .06      10    -53    -12     54     56 169.3 -12.4  33436  277.44 0865.00
2015 04 09 08 47 03 .31       5    -49     -1     50     51 173.8  -2.2  33438  277.46 0865.00
2015 04 09 08 47 03 .56      10    -50      2     52     53 168.5   2.9  33434  277.41 0865.00
2015 04 09 08 47 03 .82       0    -41      2     42     43 180.9   2.9  33440  277.51 0865.00
2015 04 09 08 47 04 .07      -4    -26     -6     27     28 189.8 -13.4  33446  277.59 0865.00
2015 04 09 08 47 04 .32     -11    -12    -20     17     26 223.4 -58.7  33466  277.92 0865.00
2015 04 09 08 47 04 .56       1      0    -22      2     22  71.6 -90.0  33454  277.74 0865.00
2015 04 09 08 47 04 .82      32     -7    -26     33     42 103.3 -47.1  33434  277.39 0865.00
2015 04 09 08 47 05 .07      44    -12    -29     46     54 105.9 -39.9  33432  277.37 0865.00
2015 04 09 08 47 05 .32      49    -22    -31     54     62 114.4 -35.8  33430  277.34 0865.00
2015 04 09 08 47 05 .57      51    -24    -22     57     61 115.2 -26.4  33434  277.39 0865.00
2015 04 09 08 47 05 .82      51    -24    -22     57     61 115.2 -26.4  33434  277.39 0865.01
2015 04 09 08 47 06 .07      47    -33    -20     58     61 125.1 -23.3  33434  277.41 0865.01
2015 04 09 08 47 06 .32      41    -41    -25     58     63 135.0 -28.5  33438  277.47 0865.01
2015 04 09 08 47 06 .57      35    -33    -35     49     60 133.1 -44.1  33436  277.44 0865.01
2015 04 09 08 47 06 .82      29    -28    -35     41     53 134.0 -50.2  33440  277.49 0865.01
2015 04 09 08 47 07 .08      26    -26    -24     37     44 134.9 -40.9  33440  277.51 0865.01
2015 04 09 08 47 07 .32      20    -20    -24     29     37 135.0 -48.2  33440  277.51 0865.01
2015 04 09 08 47 07 .57      34    -23    -14     42     44 124.2 -23.6  33440  277.49 0865.01
2015 04 09 08 47 07 .83      39    -26    -16     48     51 124.2 -18.7  33440  277.49 0865.01
2015 04 09 08 47 08 .07      41    -25    -13     49     51 121.5 -15.5  33438  277.46 0865.01
2015 04 09 08 47 08 .33      44    -29    -11     53     55 123.3 -12.4  33440  277.49 0865.01
2015 04 09 08 47 08 .59      43    -35     -6     56     57 129.6  -6.2  33438  277.47 0865.01
2015 04 09 08 47 08 .84      38    -34     -9     52     53 132.2 -10.3  33440  277.51 0865.01
2015 04 09 08 47 09 .09      35    -33    -16     49     51 133.1 -23.8  33440  277.51 0865.01
2015 04 09 08 47 09 .34      34    -29    -18     45     48 130.4 -25.4  33442  277.54 0865.01
2015 04 09 08 47 09 .59      30    -23    -10     39     41 127.8 -14.5  33440  277.51 0865.01
2015 04 09 08 47 09 .84      26    -31     -6     41     42 139.5  -9.3  33442  277.54 0865.01
2015 04 09 08 47 10 .09      13    -23    -11     27     29 149.3 -25.4  33442  277.52 0865.01
2015 04 09 08 47 10 .34       7    -32    -10     33     35 166.6 -17.6  33436  277.44 0865.01
2015 04 09 08 47 10 .59      17    -21     -8     28     30 140.4 -15.5  33444  277.56 0865.01
2015 04 09 08 47 10 .84      11     -8     -5     14     14 126.0 -23.6  33448  277.62 0865.01
2015 04 09 08 47 11 .09       8    -15     -3     18     19 151.0 -11.3  33444  277.56 0865.01
2015 04 09 08 47 11 .34       1    -18     -9     19     21 175.5 -31.6  33440  277.49 0865.01
2015 04 09 08 47 11 .59       2    -19    -16     20     25 173.8 -48.1  33450  277.67 0865.01
2015 04 09 08 47 11 .84       9    -16    -23     19     29 151.0 -60.8  33452  277.69 0865.01
2015 04 09 08 47 12 .10      15    -16    -25     22     33 136.8 -58.7  33454  277.72 0865.00
2015 04 09 08 47 12 .34      13    -16    -19     21     28 140.4 -54.4  33454  277.74 0865.00
2015 04 09 08 47 12 .59       9    -16    -23     19     29 151.0 -60.8  33452  277.69 0865.00
2015 04 09 08 47 12 .85      12    -13    -21     18     27 136.8 -58.7  33456  277.75 0865.00
2015 04 09 08 47 13 .10      12      0    -24     13     27  94.4 -73.2  33454  277.72 0865.00
2015 04 09 08 47 13 .35       1      0    -22      2     22  71.6 -90.0  33452  277.69 0865.00
2015 04 09 08 47 13 .60      15     -4    -29     16     33 105.1 -73.2  33448  277.62 0865.00
2015 04 09 08 47 13 .85      17     -7    -20     19     27 111.7 -52.6  33446  277.61 0865.00
2015 04 09 08 47 14 .10      16    -12    -16     21     26 127.8 -46.1  33440  277.51 0865.00
2015 04 09 08 47 14 .35      25    -20    -14     33     35 129.5 -27.4  33440  277.49 0865.00
2015 04 09 08 47 14 .60      36    -17    -16     40     43 115.3 -26.4  33438  277.47 0865.00
2015 04 09 08 47 14 .85      38    -25    -15     46     48 123.3 -23.8  33438  277.46 0865.00
2015 04 09 08 47 15 .10      36    -17    -16     40     43 115.3 -26.4  33440  277.51 0865.00
2015 04 09 08 47 15 .36      27    -14    -14     31     34 117.1 -29.5  33436  277.44 0865.00
2015 04 09 08 47 15 .61      25    -13    -14     29     32 117.1 -31.6  33436  277.44 0865.00
2015 04 09 08 47 15 .86      32    -16    -10     36     38 117.1 -15.5  33440  277.51 0865.00
2015 04 09 08 47 16 .11      30    -14    -10     34     35 115.2 -23.8  33436  277.44 0865.00
2015 04 09 08 47 16 .36      31    -18     -9     37     39 120.7 -14.5  33438  277.46 0865.00
2015 04 09 08 47 16 .61      30     -7     -9     31     33 103.3 -17.6  33434  277.41 0864.99
2015 04 09 08 47 16 .86      24     -4     -7     25     25 101.5 -21.7  33432  277.36 0864.99
2015 04 09 08 47 17 .11      30     -9     -1     32     33 106.8  -3.1  33434  277.39 0864.99
2015 04 09 08 47 17 .37      32    -16     -2     37     38 117.1  -3.1  33436  277.42 0864.99
2015 04 09 08 47 17 .62      39    -17     13     43     46 113.5  17.3  33438  277.46 0864.99
2015 04 09 08 47 17 .87      48    -15      7     51     52 108.2   8.0  33438  277.46 0864.99
2015 04 09 08 47 18 .12      40    -27      2     49     50 124.2   2.9  33440  277.51 0864.99
2015 04 09 08 47 18 .37      40    -21     -2     46     47 118.0  -3.1  33440  277.49 0864.99
2015 04 09 08 47 18 .62      35    -25     -5     44     45 126.0  -7.2  33444  277.56 0864.99
2015 04 09 08 47 18 .87      33    -21    -14     40     43 122.4 -19.7  33438  277.46 0864.99
2015 04 09 08 47 19 .12      45    -23    -18     51     55 118.0 -19.7  33440  277.49 0864.99
2015 04 09 08 47 19 .37      44    -22    -16     50     52 116.2 -23.8  33434  277.41 0864.99
2015 04 09 08 47 19 .62      37    -14    -22     40     45 111.7 -36.8  33436  277.44 0864.99
2015 04 09 08 47 19 .87      32    -15    -20     36     41 115.3 -35.8  33438  277.46 0864.99
2015 04 09 08 47 20 .12      32    -15    -20     36     41 115.3 -35.8  33438  277.46 0864.99
2015 04 09 08 47 20 .37      34    -11    -24     36     43 108.2 -42.0  33434  277.41 0864.99
2015 04 09 08 47 20 .62      32     -7    -26     33     42 103.3 -47.1  33434  277.39 0864.99
2015 04 09 08 47 20 .87      34    -11    -24     36     43 108.2 -42.0  33434  277.41 0864.99
2015 04 09 08 47 21 .12      32     -7    -26     33     42 103.3 -47.1  33434  277.39 0864.99
2015 04 09 08 47 21 .37      32     -7    -26     33     42 103.3 -47.1  33434  277.39 0864.99
2015 04 09 08 47 21 .62      34    -11    -24     36     43 108.2 -42.0  33434  277.41 0864.99
2015 04 09 08 47 21 .87      34    -11    -24     36     43 108.2 -42.0  33434  277.41 0864.99
2015 04 09 08 47 22 .13      32    -15    -20     36     41 115.3 -35.8  33438  277.46 0864.99
2015 04 09 08 47 22 .38      32    -15    -20     36     41 115.3 -35.8  33438  277.46 0864.99
2015 04 09 08 47 22 .64      37    -12    -14     39     41 108.2 -24.4  33436  277.44 0864.99
2015 04 09 08 47 22 .89      34    -11    -17     36     39 108.2 -30.6  33436  277.42 0864.99
2015 04 09 08 47 23 .14      30    -17    -12     35     37 120.7 -23.6  33440  277.51 0864.99
2015 04 09 08 47 23 .39      23    -19    -11     31     33 129.5 -19.7  33444  277.56 0864.99
2015 04 09 08 47 23 .64      27    -23    -11     36     37 131.3 -23.8  33444  277.56 0864.99
2015 04 09 08 47 23 .89      32    -16    -10     36     38 117.1 -15.5  33446  277.61 0864.99
2015 04 09 08 47 24 .14      28    -19    -11     35     37 124.2 -17.6  33442  277.54 0864.99
2015 04 09 08 47 24 .39      33    -21     -7     40     41 122.4 -10.3  33446  277.59 0864.99
2015 04 09 08 47 24 .64      27    -23    -11     36     37 131.3 -23.8  33444  277.56 0864.99
2015 04 09 08 47 24 .89      31    -31    -14     45     47 135.0 -22.8  33442  277.54 0864.99
2015 04 09 08 47 25 .14      33    -27    -18     44     47 129.5 -27.4  33442  277.54 0864.99
2015 04 09 08 47 25 .39      31    -31    -20     45     49 135.0 -28.5  33444  277.57 0864.99
2015 04 09 08 47 25 .64      29    -28    -16     41     44 134.0 -25.4  33440  277.51 0864.99
2015 04 09 08 47 25 .89      25    -28    -20     38     42 138.6 -34.7  33444  277.57 0864.99
2015 04 09 08 47 26 .14      27    -29    -22     40     45 136.6 -36.8  33442  277.54 0864.99
2015 04 09 08 47 26 .40      33    -27    -18     44     47 129.5 -27.4  33442  277.54 0864.99
2015 04 09 08 47 26 .65      31    -24    -14     40     42 127.8 -24.4  33446  277.59 0864.99
2015 04 09 08 47 26 .90      28    -26    -11     39     41 133.1 -16.6  33440  277.49 0864.99
2015 04 09 08 47 27 .15      30    -23     -8     39     40 127.8 -12.4  33446  277.61 0864.99
2015 04 09 08 47 27 .40      33    -26    -14     43     46 128.6 -18.7  33448  277.62 0864.99
2015 04 09 08 47 27 .65      33    -26    -14     43     46 128.6 -18.7  33444  277.56 0864.99
2015 04 09 08 47 27 .90      38    -28     -9     48     49 126.0 -11.3  33440  277.51 0864.99
2015 04 09 08 47 28 .15      36    -24    -11     44     46 123.3 -14.5  33442  277.54 0864.99
2015 04 09 08 47 28 .40      38    -28     -9     48     49 126.0 -11.3  33440  277.51 0864.99
2015 04 09 08 47 28 .65      45    -29     -6     54     55 123.3  -7.2  33444  277.56 0864.99
2015 04 09 08 47 28 .90      46    -24     -2     53     54 118.0  -2.2  33442  277.52 0864.99
2015 04 09 08 47 29 .15      41    -26     -6     49     50 122.4  -7.3  33442  277.54 0864.99
2015 04 09 08 47 29 .41      41    -26     -6     49     50 122.4  -7.3  33442  277.54 0864.99
2015 04 09 08 47 29 .66      39    -21    -10     45     47 118.0 -12.4  33440  277.51 0864.99
2015 04 09 08 47 29 .91      44    -24    -10     51     53 118.9 -11.3  33438  277.46 0864.99
2015 04 09 08 47 30 .16      41    -25     -8     49     50 121.5  -9.3  33440  277.49 0864.99
2015 04 09 08 47 30 .42      31    -26     -1     41     42 129.5  -2.2  33442  277.54 0864.99
2015 04 09 08 47 30 .67      30    -20     -4     37     38 124.2  -7.2  33446  277.61 0864.99
2015 04 09 08 47 30 .92      24    -24    -12     35     37 134.9 -23.6  33446  277.61 0864.99
2015 04 09 08 47 31 .17      29    -32    -13     44     46 138.6 -16.6  33440  277.49 0864.99
2015 04 09 08 47 31 .42      26    -24    -18     36     40 133.1 -33.7  33442  277.54 0864.99
2015 04 09 08 47 31 .67      24    -20    -20     32     37 129.5 -39.9  33440  277.51 0864.99
2015 04 09 08 47 31 .92      25    -13    -20     29     35 117.1 -40.0  33438  277.46 0864.99
2015 04 09 08 47 32 .17      30     -8    -20     32     37 105.1 -39.9  33436  277.42 0864.99
2015 04 09 08 47 32 .42      26     -8    -24     28     36 108.6 -50.2  33438  277.46 0864.99
2015 04 09 08 47 32 .67      24     -4    -20     25     32  99.7 -48.1  33434  277.41 0864.99
2015 04 09 08 47 32 .92      30      0    -20     31     36  90.8 -39.9  33434  277.41 0864.99
2015 04 09 08 47 33 .17      26      0    -18     27     32  90.8 -40.0  33434  277.39 0865.00
2015 04 09 08 47 33 .42      30     -8    -20     32     37 105.1 -39.9  33436  277.42 0865.00
2015 04 09 08 47 33 .67      33    -12    -17     36     39 110.0 -30.6  33434  277.39 0865.00
2015 04 09 08 47 33 .93      25    -16    -16     30     34 122.5 -33.7  33438  277.46 0865.00
2015 04 09 08 47 34 .17      29    -12    -16     32     35 113.5 -31.7  33440  277.51 0865.00
2015 04 09 08 47 34 .42      30    -17    -12     35     37 120.7 -23.6  33438  277.47 0865.00
2015 04 09 08 47 34 .68      36    -24    -11     44     46 123.3 -14.5  33440  277.49 0865.00
2015 04 09 08 47 34 .93      23    -23     -9     33     34 135.0 -21.7  33446  277.59 0864.99
2015 04 09 08 47 35 .18      30    -23     -8     39     40 127.8 -12.4  33444  277.56 0864.99
2015 04 09 08 47 35 .43      33    -28     -6     44     45 130.4  -8.2  33442  277.54 0864.99
2015 04 09 08 47 35 .68      34    -21    -17     41     44 122.4 -27.4  33436  277.44 0864.99
2015 04 09 08 47 35 .93      32     -3    -24     33     40  96.1 -44.1  33434  277.41 0864.99
2015 04 09 08 47 36 .19      29     -3    -28     30     41  96.1 -53.4  33434  277.41 0864.99
2015 04 09 08 47 36 .44      27    -17    -24     33     40 122.4 -44.1  33438  277.47 0864.99
2015 04 09 08 47 36 .69      32    -20    -16     38     41 122.5 -28.5  33438  277.46 0864.99
2015 04 09 08 47 36 .94      32    -25    -13     41     43 127.8 -23.8  33440  277.49 0864.99
2015 04 09 08 47 37 .19      34    -23    -14     42     44 124.2 -23.6  33442  277.54 0864.99
2015 04 09 08 47 37 .44      31    -24    -27     40     48 127.8 -40.9  33440  277.49 0864.99
2015 04 09 08 47 37 .69      31    -24    -27     40     48 127.8 -40.9  33440  277.49 0865.00
2015 04 09 08 47 37 .94      32    -20    -22     39     44 122.5 -36.8  33446  277.59 0865.00
2015 04 09 08 47 38 .19      20    -20    -17     29     33 135.0 -37.9  33446  277.59 0865.00
2015 04 09 08 47 38 .45      16    -16    -20     24     31 134.9 -48.2  33448  277.62 0865.00
2015 04 09 08 47 38 .70      16    -20    -23     26     34 140.4 -52.3  33452  277.69 0865.00
2015 04 09 08 47 38 .94       7    -16    -16     18     24 154.6 -54.4  33456  277.77 0865.00
2015 04 09 08 47 39 .19       9    -16    -23     19     29 151.0 -60.8  33452  277.69 0865.00
2015 04 09 08 47 39 .45      11    -20    -20     23     30 151.0 -48.2  33450  277.67 0865.00
2015 04 09 08 47 39 .70       8    -23     -9     25     26 160.0 -23.3  33442  277.54 0865.00
2015 04 09 08 47 39 .95      10    -16    -16     19     24 147.5 -50.2  33448  277.62 0865.00
2015 04 09 08 47 40 .20      15    -12     -9     20     21 129.5 -29.5  33446  277.59 0865.00
2015 04 09 08 47 40 .45      17    -22     -1     28     29 142.2  -2.2  33442  277.54 0865.00
2015 04 09 08 47 40 .70      13    -22     -1     26     27 149.3  -2.2  33440  277.51 0865.00
2015 04 09 08 47 40 .95      16    -23      3     29     30 145.7   6.9  33438  277.46 0865.00
2015 04 09 08 47 41 .20      13    -22     -1     26     27 149.3  -2.2  33438  277.47 0865.00
2015 04 09 08 47 41 .45      16    -16      4     23     24 134.9  11.1  33446  277.61 0865.00
2015 04 09 08 47 41 .70      23    -19     10     31     33 129.5  19.2  33448  277.64 0865.00
2015 04 09 08 47 41 .95      19    -20     13     28     30 136.6  27.1  33444  277.56 0865.00
2015 04 09 08 47 42 .20      20    -20     14     29     32 135.0  27.2  33450  277.65 0865.00
2015 04 09 08 47 42 .45      16    -23     19     29     34 145.7  35.6  33452  277.70 0865.00
2015 04 09 08 47 42 .70      20    -20     20     29     35 135.0  35.6  33446  277.59 0865.00
2015 04 09 08 47 42 .95      20    -20     20     29     35 135.0  35.6  33454  277.74 0865.00
2015 04 09 08 47 43 .22      26    -24     19     36     40 133.1  30.3  33454  277.74 0865.00
2015 04 09 08 47 43 .46      32    -20     22     38     43 122.5  32.4  33460  277.82 0865.00
2015 04 09 08 47 43 .72      33    -10     26     35     43 108.2  40.7  33466  277.92 0865.00
2015 04 09 08 47 43 .96      39    -25     29     47     55 122.4  35.5  33460  277.84 0865.00
2015 04 09 08 47 44 .22      50    -47     28     69     74 133.1  23.0  33466  277.94 0865.00
2015 04 09 08 47 44 .47      55    -41     32     69     76 126.9  27.1  33484  278.24 0865.00
2015 04 09 08 47 44 .72      41    -41     32     58     66 135.0  31.4  33488  278.29 0865.00
2015 04 09 08 47 44 .98      36    -36     31     52     60 134.9  33.5  33504  278.57 0865.00
2015 04 09 08 47 45 .22      49    -30     33     58     66 121.5  32.4  33514  278.74 0865.00
2015 04 09 08 47 45 .47      56    -28     50     63     80 117.1  42.7  33494  278.39 0865.00
2015 04 09 08 47 45 .72      58    -43     28     73     78 126.9  21.0  33454  277.74 0864.99
2015 04 09 08 47 45 .97      66    -32     14     74     76 116.2  11.1  33458  277.80 0864.99
2015 04 09 08 47 46 .22      74    -24      4     78     79 108.2   3.3  33458  277.79 0864.99
2015 04 09 08 47 46 .47      70    -33     -3     78     79 115.3  -2.2  33440  277.51 0864.99
2015 04 09 08 47 46 .72      69    -38      1     79     80 118.9   0.8  33434  277.41 0864.99
2015 04 09 08 47 46 .97      61    -41      3     74     75 124.2   2.8  33438  277.46 0864.99
2015 04 09 08 47 47 .22      74    -46     -1     88     89 122.0  -1.3  33440  277.49 0864.99
2015 04 09 08 47 47 .47      72    -42     -3     84     85 120.7  -2.2  33438  277.46 0864.99
2015 04 09 08 47 47 .73      66    -42      6     79     80 122.5   4.9  33438  277.47 0864.99
2015 04 09 08 47 47 .98      61    -41      3     74     75 124.2   2.8  33438  277.46 0864.99
2015 04 09 08 47 48 .23      59    -38      7     71     72 122.5   5.9  33438  277.47 0864.99
2015 04 09 08 47 48 .48      62    -42     17     76     78 124.2  12.6  33438  277.47 0864.99
2015 04 09 08 47 48 .73      63    -39     11     75     76 121.5   9.0  33442  277.52 0864.99
2015 04 09 08 47 48 .98      76    -41     -3     87     88 118.4  -2.6  33440  277.49 0864.99
2015 04 09 08 47 49 .23      74    -46     -1     88     89 122.0  -1.3  33440  277.49 0864.99
2015 04 09 08 47 49 .48      88    -41      1     98     99 115.3   0.8  33438  277.47 0864.99
2015 04 09 08 47 49 .73      92    -47     -4    104    105 117.1  -2.2  33434  277.41 0864.99
2015 04 09 08 47 49 .98      92    -47     -4    104    105 117.1  -2.2  33434  277.41 0864.99
2015 04 09 08 47 50 .24      96    -45    -13    107    108 115.2  -7.2  33434  277.41 0864.99
2015 04 09 08 47 50 .49      96    -40    -11    105    106 112.6  -6.2  33434  277.39 0864.99
2015 04 09 08 47 50 .74      85    -31     -3     91     92 110.0  -2.2  33434  277.39 0864.99
2015 04 09 08 47 50 .99      84    -43     -3     95     96 117.1  -2.2  33434  277.41 0864.99
2015 04 09 08 47 51 .24      81    -32    -10     88     89 111.7  -6.7  33434  277.39 0864.99
2015 04 09 08 47 51 .49      81    -36    -11     89     90 114.0  -7.3  33434  277.41 0864.99
2015 04 09 08 47 51 .75      75    -36     -9     84     85 115.4  -6.2  33436  277.44 0864.99
2015 04 09 08 47 51 .99      77    -32    -13     84     85 112.6  -8.8  33436  277.42 0864.99
2015 04 09 08 47 52 .25      75    -36     -9     84     85 115.4  -6.2  33436  277.44 0864.99
2015 04 09 08 47 52 .50      85    -27     -9     90     91 107.7  -6.2  33434  277.39 0864.99
2015 04 09 08 47 52 .75      77    -49      1     92     93 122.9   1.2  33438  277.46 0864.99
2015 04 09 08 47 53 .02      88    -41      1     98     99 115.3   0.8  33438  277.47 0864.99
2015 04 09 08 47 53 .25      85    -39      4     94     95 114.8   2.9  33436  277.44 0864.99
2015 04 09 08 47 53 .50      80    -37      1     89     90 114.8   1.2  33436  277.42 0864.99
2015 04 09 08 47 53 .75      89    -37     -3     97     98 112.6  -2.2  33434  277.41 0864.99
2015 04 09 08 47 54 .00      81    -19     -6     84     85 103.3  -4.6  33432  277.36 0864.98
2015 04 09 08 47 54 .25      77    -32     -1     84     85 112.6  -0.7  33436  277.44 0864.98
2015 04 09 08 47 54 .50      73    -38      5     83     84 118.0   3.8  33442  277.52 0864.98
2015 04 09 08 47 54 .75      81    -42      5     92     93 117.5   3.3  33438  277.47 0864.98
2015 04 09 08 47 55 .00      81    -37      8     90     91 114.4   5.4  33436  277.44 0864.98
2015 04 09 08 47 55 .25      70    -45     12     84     85 122.4   8.5  33438  277.47 0864.98
2015 04 09 08 47 55 .50      83    -41     18     93     95 116.2  11.0  33436  277.44 0864.98
2015 04 09 08 47 55 .75      88    -44     13     99    100 116.6   7.5  33436  277.44 0864.99
2015 04 09 08 47 56 .00      87    -50     10    101    102 120.2   5.9  33438  277.47 0864.99
2015 04 09 08 47 56 .26      74    -46     -1     88     89 122.0  -1.3  33440  277.49 0864.99
2015 04 09 08 47 56 .51      63    -38     -2     74     75 121.5  -2.2  33440  277.51 0864.99
2015 04 09 08 47 56 .76      69    -27     -5     75     76 111.7  -4.1  33432  277.37 0864.99
2015 04 09 08 47 57 .01      72    -34     -3     80     81 115.2  -2.6  33434  277.39 0864.99
2015 04 09 08 47 57 .27      65    -27     -3     71     72 112.6  -3.1  33430  277.34 0864.99
2015 04 09 08 47 57 .52      62    -24     -4     67     68 111.7  -4.1  33432  277.36 0864.99
2015 04 09 08 47 57 .77      61    -28     -8     68     69 114.4  -7.2  33434  277.39 0864.99
2015 04 09 08 47 58 .02      61    -28     -8     68     69 114.4  -7.2  33434  277.39 0864.99
2015 04 09 08 47 58 .27      58    -28     -5     65     66 116.2  -5.2  33434  277.41 0864.99
2015 04 09 08 47 58 .52      58    -28     -5     65     66 116.2  -5.2  33434  277.41 0864.99
2015 04 09 08 47 58 .77      66    -27     -9     72     73 112.6  -7.3  33434  277.41 0864.99
2015 04 09 08 47 59 .02      61    -28     -8     68     69 114.4  -7.2  33434  277.39 0864.99
2015 04 09 08 47 59 .27      67    -23     -9     71     72 109.1  -7.2  33434  277.39 0864.99
2015 04 09 08 47 59 .52      63    -21    -11     67     68 108.6  -9.3  33432  277.36 0864.99
2015 04 09 08 47 59 .77      69    -27     -5     75     76 111.7  -4.1  33432  277.37 0864.99
2015 04 09 08 48 00 .02      65    -16     -8     68     69 104.2  -7.2  33434  277.39 0864.99
2015 04 09 08 48 00 .27      65    -16     -8     68     69 104.2  -7.2  33434  277.39 0864.99
2015 04 09 08 48 00 .52      58    -19     -8     62     63 108.2  -7.3  33430  277.34 0864.99
2015 04 09 08 48 00 .77      58    -19     -8     62     63 108.2  -7.3  33430  277.34 0864.99
2015 04 09 08 48 01 .02      62    -22    -12     66     68 110.0 -10.3  33434  277.39 0864.99
2015 04 09 08 48 01 .28      56    -27    -12     63     65 115.4 -11.3  33430  277.34 0864.99
2015 04 09 08 48 01 .53      58    -23    -17     63     66 111.7 -15.5  33430  277.34 0864.99
2015 04 09 08 48 01 .78      55    -18    -20     58     62 108.2 -19.7  33432  277.37 0864.99
2015 04 09 08 48 02 .03      50    -19    -17     54     57 110.8 -17.6  33430  277.34 0864.99
2015 04 09 08 48 02 .28      55    -18    -20     58     62 108.2 -19.7  33432  277.37 0864.99
2015 04 09 08 48 02 .53      49    -16    -22     52     56 108.4 -28.5  33434  277.39 0864.99
2015 04 09 08 48 02 .78      51    -19    -20     55     58 110.8 -23.3  33432  277.37 0864.99
2015 04 09 08 48 03 .03      51    -12    -20     53     56 103.3 -24.4  33430  277.32 0864.99
2015 04 09 08 48 03 .28      51    -12    -20     53     56 103.3 -24.4  33430  277.32 0864.99
2015 04 09 08 48 03 .53      51    -12    -20     53     56 103.3 -24.4  33430  277.32 0864.99
2015 04 09 08 48 03 .78      49    -16    -22     52     56 108.4 -28.5  33430  277.34 0864.99
2015 04 09 08 48 04 .04      41    -22    -20     47     51 118.0 -28.5  33432  277.36 0864.99
2015 04 09 08 48 04 .29      42    -26    -18     50     53 122.4 -23.3  33434  277.39 0864.99
2015 04 09 08 48 04 .54      41    -22    -13     47     48 118.0 -21.7  33436  277.44 0864.99
2015 04 09 08 48 04 .79      41    -22    -13     47     48 118.0 -21.7  33436  277.44 0864.99
2015 04 09 08 48 05 .05      41    -25    -13     49     51 121.5 -15.5  33438  277.46 0864.99
2015 04 09 08 48 05 .30      38    -28     -9     48     49 126.0 -11.3  33440  277.51 0864.99
2015 04 09 08 48 05 .55      41    -26     -6     49     50 122.4  -7.3  33442  277.54 0864.99
2015 04 09 08 48 05 .79      46    -24     -2     53     54 118.0  -2.2  33436  277.44 0864.99
2015 04 09 08 48 06 .05      46    -24     -2     53     54 118.0  -2.2  33436  277.44 0864.99
2015 04 09 08 48 06 .30      47    -19     -2     51     52 112.6  -2.2  33436  277.42 0864.99
2015 04 09 08 48 06 .56      48    -16      0     51     52 108.4  -0.3  33436  277.44 0864.99
2015 04 09 08 48 06 .80      43    -26     -2     51     52 120.7  -2.2  33438  277.46 0865.00
2015 04 09 08 48 07 .05      40    -14     -1     43     44 110.0  -2.2  33438  277.46 0865.00
2015 04 09 08 48 07 .30      48    -16      0     51     52 108.4  -0.3  33436  277.44 0865.00
2015 04 09 08 48 07 .55      47    -18     -2     51     52 111.7  -2.2  33438  277.47 0865.00
2015 04 09 08 48 07 .80      51    -17      2     54     55 108.6   2.9  33440  277.49 0865.00
2015 04 09 08 48 08 .05      51    -24      5     57     58 115.3   5.9  33444  277.56 0865.00
2015 04 09 08 48 08 .31      56    -15     17     59     62 105.1  16.3  33474  278.07 0865.00
2015 04 09 08 48 08 .55      55    -12     22     57     61 102.4  22.0  33466  277.92 0865.00
2015 04 09 08 48 08 .80      56     -4     22     57     61  94.4  22.0  33458  277.80 0865.00
2015 04 09 08 48 09 .05      59    -12     26     61     66 101.5  23.1  33462  277.87 0865.00
2015 04 09 08 48 09 .31      56    -11     19     58     62 101.5  18.4  33464  277.89 0865.00
2015 04 09 08 48 09 .55      63     -6     20     64     68  96.1  17.3  33464  277.89 0865.00
2015 04 09 08 48 09 .81      66     -7      3     67     68  96.1   2.9  33464  277.90 0865.00
2015 04 09 08 48 10 .06      54    -11      1     56     57 101.5   1.8  33460  277.84 0865.00
2015 04 09 08 48 10 .31      44      0      2     45     46  90.0   2.9  33462  277.85 0865.00
2015 04 09 08 48 10 .56      52    -17      3     55     56 108.6   3.8  33464  277.89 0865.00
2015 04 09 08 48 10 .81      50    -12      2     52     53 104.2   2.9  33464  277.90 0865.00
2015 04 09 08 48 11 .07      51    -24     15     57     60 115.3  15.3  33470  277.99 0865.00
2015 04 09 08 48 11 .32      48    -26     10     55     57 118.9  11.0  33472  278.04 0864.99
2015 04 09 08 48 11 .57      32    -27      5     43     44 130.4   6.9  33476  278.10 0864.99
2015 04 09 08 48 11 .82      45    -28      0     54     55 122.4  -0.3  33458  277.79 0864.99
2015 04 09 08 48 12 .07      57    -27     -5     64     65 115.4  -5.2  33440  277.51 0864.99
2015 04 09 08 48 12 .33      60    -38     -1     72     73 122.4  -1.3  33448  277.64 0864.99
2015 04 09 08 48 12 .57      53    -33      0     63     64 122.5   0.8  33452  277.69 0864.99
2015 04 09 08 48 12 .82      53    -33      0     63     64 122.5   0.8  33452  277.69 0864.99
2015 04 09 08 48 13 .07      58    -27      0     65     66 115.3  -0.3  33446  277.59 0864.99
2015 04 09 08 48 13 .32      50    -23      0     56     57 115.2  -0.3  33442  277.54 0864.99
2015 04 09 08 48 13 .57      55    -23     -1     60     61 113.5  -1.3  33438  277.46 0864.99
2015 04 09 08 48 13 .82      54    -17    -12     57     59 108.2 -12.4  33436  277.44 0864.99
2015 04 09 08 48 14 .07      49    -13    -11     51     53 105.1 -12.4  33432  277.36 0864.99
2015 04 09 08 48 14 .32      49    -13    -11     51     53 105.1 -12.4  33432  277.36 0864.99
2015 04 09 08 48 14 .58      49    -13    -11     51     53 105.1 -12.4  33432  277.36 0864.99
2015 04 09 08 48 14 .83      45    -12    -16     47     50 105.1 -18.7  33432  277.36 0864.99
2015 04 09 08 48 15 .08      40    -11    -11     42     44 105.9 -14.5  33434  277.39 0864.99
2015 04 09 08 48 15 .33      39    -21    -14     45     47 118.0 -22.8  33434  277.39 0864.99
2015 04 09 08 48 15 .58      37    -12    -14     39     41 108.2 -24.4  33436  277.44 0864.99
2015 04 09 08 48 15 .83      44    -14    -16     47     50 108.4 -19.7  33438  277.47 0864.99
2015 04 09 08 48 16 .08      34    -16    -13     38     41 115.3 -18.7  33442  277.54 0864.99
2015 04 09 08 48 16 .33      33    -10    -18     35     39 108.2 -31.7  33436  277.44 0864.99
2015 04 09 08 48 16 .58      28     -4    -16     29     33  99.7 -35.8  33438  277.46 0864.99
2015 04 09 08 48 16 .84      37     -1    -17     38     41  92.6 -29.5  33436  277.42 0864.99
2015 04 09 08 48 17 .09      30     -8    -14     32     34 105.1 -31.5  33458  277.79 0864.99
2015 04 09 08 48 17 .34      31    -24    -14     40     42 127.8 -24.4  33470  277.99 0864.99
2015 04 09 08 48 17 .59      44    -24    -10     51     53 118.9 -11.3  33474  278.07 0864.99
2015 04 09 08 48 17 .84      38    -34     -2     52     53 132.2  -3.1  33482  278.20 0864.99
2015 04 09 08 48 18 .10      50    -24      0     56     57 115.4  -0.3  33482  278.19 0864.99
2015 04 09 08 48 18 .35      47    -18     13     51     53 111.7  14.3  33480  278.17 0864.99
2015 04 09 08 48 18 .60      51    -24     15     57     60 115.3  15.3  33478  278.14 0864.99
2015 04 09 08 48 18 .85      41    -25     12     49     51 121.5  14.3  33484  278.22 0864.99
2015 04 09 08 48 19 .10      47    -30     14     56     58 122.4  14.3  33480  278.15 0864.99
2015 04 09 08 48 19 .35      38    -20     11     44     46 118.0  14.3  33486  278.25 0864.99
2015 04 09 08 48 19 .60      40    -20     15     46     49 117.1  18.9  33478  278.12 0864.99
2015 04 09 08 48 19 .85      38    -28      3     48     49 126.0   3.8  33478  278.12 0864.99
2015 04 09 08 48 20 .10      31    -48     -4     58     59 147.5  -4.1  33470  278.00 0864.99
2015 04 09 08 48 20 .35      45    -43    -13     63     65 133.1 -12.4  33462  277.87 0864.99
2015 04 09 08 48 20 .60      46    -49    -15     68     70 136.7 -12.4  33460  277.82 0864.99
2015 04 09 08 48 20 .85      51    -37    -17     64     67 126.0 -15.4  33466  277.94 0864.99
2015 04 09 08 48 21 .10      50    -41    -22     65     68 129.5 -23.6  33470  278.00 0864.99
2015 04 09 08 48 21 .35      42    -38    -16     58     61 132.2 -15.5  33464  277.89 0864.99
2015 04 09 08 48 21 .61      53    -38    -20     66     68 126.0 -22.8  33472  278.02 0864.99
2015 04 09 08 48 21 .85      51    -44    -20     68     70 131.3 -21.7  33472  278.02 0864.99
2015 04 09 08 48 22 .11      65    -33    -12     73     75 117.1  -9.3  33474  278.05 0864.99
2015 04 09 08 48 22 .35      58    -22     11     63     65 110.8  10.1  33470  277.99 0864.99
2015 04 09 08 48 22 .61      60    -20      4     64     65 108.4   3.8  33464  277.89 0864.99
2015 04 09 08 48 22 .85      51    -17     -1     54     55 108.4  -1.3  33468  277.95 0864.99
2015 04 09 08 48 23 .11      52    -17     -7     55     56 108.6  -7.3  33464  277.89 0864.99
2015 04 09 08 48 23 .36      52     -8      4     53     54  98.8   4.9  33476  278.09 0864.99
2015 04 09 08 48 23 .61      54     -4      7     55     56  94.3   8.0  33480  278.17 0864.99
2015 04 09 08 48 23 .86      48      0      8     49     50  90.8  10.1  33478  278.12 0864.99
2015 04 09 08 48 24 .11      46      0      8     47     48  90.0  10.1  33486  278.27 0864.99
2015 04 09 08 48 24 .36      52      2     17     53     56  87.4  18.4  33500  278.50 0864.99
2015 04 09 08 48 24 .61      49     -3      9     50     51  94.3  11.1  33488  278.30 0864.99
2015 04 09 08 48 24 .87      43    -20      1     48     49 115.3   1.8  33486  278.25 0864.99
2015 04 09 08 48 25 .12      37    -24      0     45     46 123.3   0.8  33494  278.40 0864.99
2015 04 09 08 48 25 .37      59    -20     12     63     65 108.6  11.0  33492  278.37 0864.99
2015 04 09 08 48 25 .62      72    -15     14     74     76 102.4  11.1  33482  278.19 0864.99
2015 04 09 08 48 25 .88      76    -25     12     81     82 108.2   8.5  33492  278.37 0865.00
2015 04 09 08 48 26 .12      79    -10     21     80     83  97.5  14.7  33508  278.62 0865.00
2015 04 09 08 48 26 .37      72    -14     30     74     79 101.5  23.6  33508  278.62 0865.00
2015 04 09 08 48 26 .63      63    -17     28     66     71 105.0  24.1  33518  278.80 0865.00
2015 04 09 08 48 26 .87      73    -11     33     74     81  98.8  25.7  33516  278.75 0865.00
2015 04 09 08 48 27 .13      76    -14     26     78     83 100.6  18.9  33518  278.78 0865.00
2015 04 09 08 48 27 .38      77     -5     19     78     81  94.4  13.7  33512  278.70 0865.00
2015 04 09 08 48 27 .64      82     -7     16     83     85  95.2  11.1  33550  279.33 0865.00
2015 04 09 08 48 27 .88      67    -13     24     69     74 101.5  19.4  33558  279.47 0865.00
2015 04 09 08 48 28 .13      71    -10     19     72     75  98.0  15.3  33528  278.95 0865.00
2015 04 09 08 48 28 .38      76    -25     15     81     83 108.6  11.1  33530  278.98 0865.00
2015 04 09 08 48 28 .63      85    -24      8     89     90 105.9   5.4  33504  278.55 0865.00
2015 04 09 08 48 28 .88      77     -1     19     78     81  90.8  13.7  33510  278.65 0865.00
2015 04 09 08 48 29 .13      71    -14     31     73     79 101.5  24.1  33520  278.83 0865.00
2015 04 09 08 48 29 .38      64    -13     31     66     72 101.4  27.1  33504  278.57 0865.00
2015 04 09 08 48 29 .63      53     -8     26     54     59  98.8  27.3  33494  278.39 0864.99
2015 04 09 08 48 29 .89      61    -20     22     65     69 108.2  19.4  33508  278.64 0864.99
2015 04 09 08 48 30 .13      66    -16     26     69     73 104.2  20.0  33536  279.08 0864.99
2015 04 09 08 48 30 .38      61    -28     19     68     71 114.4  16.3  33534  279.05 0864.99
2015 04 09 08 48 30 .63      59    -19     21     63     67 108.4  18.4  33524  278.90 0864.99
2015 04 09 08 48 30 .89      73    -14     22     75     79 101.4  16.8  33480  278.17 0864.99
2015 04 09 08 48 31 .13      64    -13     23     66     71 101.4  19.4  33486  278.27 0864.99
2015 04 09 08 48 31 .39      74      5     14     75     77  85.7  11.1  33478  278.14 0864.99
2015 04 09 08 48 31 .64      86      9     17     87     89  83.9  11.6  33506  278.60 0864.99
2015 04 09 08 48 31 .90      83      7     26     84     88  84.8  17.3  33512  278.69 0864.99
2015 04 09 08 48 32 .15      85     14     37     87     94  80.3  24.6  33510  278.65 0864.99
2015 04 09 08 48 32 .40      69      9     41     70     81  82.1  32.9  33522  278.85 0865.00
2015 04 09 08 48 32 .65      56      1     55     57     79  88.3  49.4  33534  279.05 0865.00
2015 04 09 08 48 32 .90      55      2     41     56     69  87.4  39.7  33512  278.70 0865.00
2015 04 09 08 48 33 .15      49     -3     45     50     67  94.4  47.9  33528  278.97 0865.00
2015 04 09 08 48 33 .40      53     -8     52     54     74  98.8  51.1  33532  279.03 0865.00
2015 04 09 08 48 33 .66      60     -8     53     61     80  98.0  45.8  33544  279.23 0865.00
2015 04 09 08 48 33 .90      72     -7     50     73     88  96.1  37.6  33568  279.62 0865.00
2015 04 09 08 48 34 .15      63    -12     57     65     86 101.4  46.4  33560  279.48 0864.99
2015 04 09 08 48 34 .40      89      0     41     90     98  90.4  26.2  33466  277.94 0864.99
2015 04 09 08 48 34 .65      99      6     38    100    106  86.1  21.5  33446  277.59 0864.99
2015 04 09 08 48 34 .90      96      8     26     97    101  85.2  15.2  33444  277.56 0864.99
2015 04 09 08 48 35 .15      95     12     23     96     99  82.5  13.7  33442  277.54 0864.99
2015 04 09 08 48 35 .40      90      8      1     91     92  84.8   1.2  33442  277.52 0864.99
2015 04 09 08 48 35 .66      99      1      4    100    101  89.2   2.3  33448  277.64 0864.99
2015 04 09 08 48 35 .91      87      0     29     88     93  90.0  18.4  33498  278.45 0864.99
2015 04 09 08 48 36 .15      79     -1     45     80     91  90.9  31.9  33496  278.44 0864.99
2015 04 09 08 48 36 .41      78      1     37     79     87  89.1  26.6  33482  278.19 0864.99
2015 04 09 08 48 36 .65      74     13      6     76     77  79.4   4.9  33450  277.65 0864.99
2015 04 09 08 48 36 .91      76      8      2     77     78  83.9   1.8  33438  277.47 0864.99
2015 04 09 08 48 37 .16      66     13     -2     68     69  78.5  -2.2  33440  277.51 0864.99
2015 04 09 08 48 37 .41      68      9     -1     69     70  82.1  -1.2  33440  277.49 0864.99
2015 04 09 08 48 37 .66      66      5     -2     67     68  85.6  -2.2  33438  277.47 0864.99
2015 04 09 08 48 37 .91      70      5     -2     71     72  85.6  -2.2  33436  277.44 0864.99
2015 04 09 08 48 38 .16      66      5      3     67     68  85.6   2.9  33440  277.49 0864.99
2015 04 09 08 48 38 .41      62     12     -5     64     65  78.5  -5.2  33438  277.46 0864.99
2015 04 09 08 48 38 .66      59      0     -7     60     61  89.2  -7.3  33440  277.49 0864.99
2015 04 09 08 48 38 .92      61      0     -5     62     63  90.8  -5.2  33438  277.47 0864.99
2015 04 09 08 48 39 .17      56      0      2     57     58  90.0   2.9  33442  277.52 0864.99
2015 04 09 08 48 39 .42      52      4     12     53     55  85.6  13.2  33444  277.56 0864.99
2015 04 09 08 48 39 .68      56      0      2     57     58  90.8   2.9  33444  277.57 0864.99
2015 04 09 08 48 39 .92      54     -4      1     55     56  94.4   1.8  33442  277.54 0864.99
2015 04 09 08 48 40 .17      61      0      8     62     63  89.1   8.0  33442  277.54 0864.99
2015 04 09 08 48 40 .42      58     -4      5     59     60  94.3   4.9  33442  277.54 0865.00
2015 04 09 08 48 40 .68      60      0     -1     61     62  90.0  -1.2  33442  277.54 0865.00
2015 04 09 08 48 40 .93      58     -4      5     59     60  94.3   4.9  33442  277.54 0865.00
2015 04 09 08 48 41 .18      54     -4      1     55     56  94.4   1.8  33442  277.54 0865.00
2015 04 09 08 48 41 .43      56    -15      2     58     59 105.1   2.9  33444  277.56 0865.00
2015 04 09 08 48 41 .68      56    -17      3     59     60 107.7   2.9  33446  277.61 0865.00
2015 04 09 08 48 41 .93      64     -3      3     65     66  93.5   2.8  33448  277.62 0865.00
2015 04 09 08 48 42 .18      64     -8     12     65     67  97.9  11.0  33454  277.72 0865.00
2015 04 09 08 48 42 .43      67     -5      4     68     69  94.3   3.8  33448  277.62 0865.00
2015 04 09 08 48 42 .68      66     -7      3     67     68  96.1   2.9  33446  277.59 0865.00
2015 04 09 08 48 42 .94      72      1      3     73     74  89.2   2.9  33452  277.69 0865.00
2015 04 09 08 48 43 .19      81     -3      6     82     83  92.6   4.4  33468  277.97 0865.00
2015 04 09 08 48 43 .43      71     -4     19     72     75  93.5  15.3  33474  278.05 0865.00
2015 04 09 08 48 43 .69      67      5     24     68     73  85.7  19.4  33480  278.15 0865.00
2015 04 09 08 48 43 .94      73      3     33     74     81  87.4  25.7  33504  278.55 0865.00
2015 04 09 08 48 44 .19      69      3     35     70     78  87.4  27.3  33498  278.47 0865.00
2015 04 09 08 48 44 .43      83     -3     35     84     91  92.1  24.1  33478  278.12 0865.00
2015 04 09 08 48 44 .69      71      5     37     72     80  85.6  29.3  33482  278.19 0865.00
2015 04 09 08 48 44 .94      76     -5     41     77     87  94.4  30.3  33464  277.89 0865.00
2015 04 09 08 48 45 .19      88    -30     15     94     96 109.1   9.0  33452  277.69 0865.00
2015 04 09 08 48 45 .44      85    -27     10     90     91 107.7   6.9  33450  277.65 0865.00
2015 04 09 08 48 45 .69      77    -17     12     79     81 102.8   9.0  33450  277.67 0865.00
2015 04 09 08 48 45 .95      74    -28     -8     80     81 110.8  -6.2  33452  277.69 0865.00
2015 04 09 08 48 46 .20      77    -53    -16     94     96 124.6  -9.8  33452  277.70 0865.00
2015 04 09 08 48 46 .45      74    -49    -19     90     93 123.7 -12.4  33452  277.69 0865.00
2015 04 09 08 48 46 .70      81    -41     -5     91     92 117.1  -3.7  33456  277.75 0865.00
2015 04 09 08 48 46 .95      89    -36      3     97     98 112.2   2.3  33452  277.69 0865.00
2015 04 09 08 48 47 .20      78    -38      4     87     88 116.2   2.8  33448  277.64 0865.00
2015 04 09 08 48 47 .45      81    -41      0     92     93 117.1  -0.3  33442  277.54 0865.00
2015 04 09 08 48 47 .70      87    -36     -2     95     96 112.6  -1.8  33444  277.56 0865.00
2015 04 09 08 48 47 .95      79    -49     -2     94     95 122.0  -1.3  33446  277.59 0865.00
2015 04 09 08 48 48 .21      80    -37     -3     89     90 114.8  -2.2  33442  277.54 0865.00
2015 04 09 08 48 48 .45      73    -38     -6     83     84 118.0  -4.1  33444  277.56 0865.00
2015 04 09 08 48 48 .70      61    -41     -9     74     75 124.2  -7.3  33446  277.61 0865.00
2015 04 09 08 48 48 .96      69    -44      2     83     84 122.5   1.8  33448  277.62 0865.00
2015 04 09 08 48 49 .21      60    -38     -1     72     73 122.4  -1.3  33448  277.64 0865.00
2015 04 09 08 48 49 .46      62    -45     -9     77     78 126.0  -7.2  33448  277.64 0865.00
2015 04 09 08 48 49 .71      62    -45     -9     77     78 126.0  -7.2  33448  277.64 0865.00
2015 04 09 08 48 49 .96      60    -49    -15     78     80 129.6 -10.9  33448  277.62 0865.00
2015 04 09 08 48 50 .21      70    -59     -6     92     93 130.4  -4.1  33454  277.72 0865.00
2015 04 09 08 48 50 .46      83    -46      7     96     97 119.3   4.4  33458  277.79 0865.00
2015 04 09 08 48 50 .71      81    -41     13     92     94 117.1   8.5  33454  277.74 0864.99
2015 04 09 08 48 50 .96      74    -57     15     94     96 127.8   9.5  33450  277.65 0864.99
2015 04 09 08 48 51 .21      70    -70     19    100    102 135.0  11.0  33448  277.64 0864.99
2015 04 09 08 48 51 .47      80    -53     12     97     98 123.7   7.1  33462  277.87 0864.99
2015 04 09 08 48 51 .72      76    -43     24     88     92 119.8  15.3  33482  278.19 0864.99
2015 04 09 08 48 51 .96      73    -34     30     81     86 115.2  20.4  33492  278.37 0864.99
2015 04 09 08 48 52 .21      69    -45     31     83     88 123.3  21.0  33490  278.32 0864.99
2015 04 09 08 48 52 .46      74    -46     14     88     90 122.0   9.0  33498  278.45 0865.00
2015 04 09 08 48 52 .72      70    -26     29     75     80 110.8  22.5  33488  278.30 0865.00
2015 04 09 08 48 52 .97      68    -15     26     70     74 102.4  20.0  33480  278.17 0865.00
2015 04 09 08 48 53 .22      61    -12     18     63     66 101.4  16.3  33478  278.12 0865.00
2015 04 09 08 48 53 .48      49    -18     18     53     57 110.8  19.4  33486  278.27 0865.00
2015 04 09 08 48 53 .72      48    -18     18     52     56 110.8  19.4  33492  278.37 0865.00
2015 04 09 08 48 53 .98      61    -20     15     65     67 108.2  13.2  33494  278.40 0865.00
2015 04 09 08 48 54 .23      73    -24     22     78     82 108.6  15.8  33492  278.37 0865.00
2015 04 09 08 48 54 .48      86    -27     11     91     92 107.3   6.9  33502  278.52 0865.00
2015 04 09 08 48 54 .73      85    -28     26     90     94 108.2  16.3  33504  278.57 0865.00
2015 04 09 08 48 54 .98      74    -12     32     76     82  99.7  24.1  33506  278.60 0865.00
2015 04 09 08 48 55 .23      67    -20     28     71     76 106.8  22.0  33516  278.75 0865.00
2015 04 09 08 48 55 .49      65    -21     23     69     74 108.2  18.9  33504  278.57 0865.00
2015 04 09 08 48 55 .73      69     -4     35     70     78  93.5  27.3  33520  278.82 0865.00
2015 04 09 08 48 55 .98      56     -4     41     57     70  94.3  39.7  33522  278.85 0865.00
2015 04 09 08 48 56 .23      58      4     43     59     73  85.6  39.7  33520  278.83 0865.00
2015 04 09 08 48 56 .48      81    -15     47     83     95 100.6  32.4  33514  278.74 0865.00
2015 04 09 08 48 56 .73      93     -9     20     94     97  96.1  12.2  33468  277.97 0865.00
2015 04 09 08 48 56 .98      93    -12     20     94     97  97.5  12.2  33460  277.82 0865.00
2015 04 09 08 48 57 .24      93    -26     20     97    100 105.9  11.6  33460  277.82 0865.00
2015 04 09 08 48 57 .49      93    -12     20     94     97  97.5  12.2  33446  277.61 0865.00
2015 04 09 08 48 57 .74      92    -23     18     95     97 104.2  11.1  33446  277.59 0865.00
2015 04 09 08 48 57 .99      89    -27     15     94     96 107.3   9.5  33450  277.67 0865.00
2015 04 09 08 48 58 .23      84    -30     16     90     92 110.0  10.1  33444  277.57 0865.00
2015 04 09 08 48 58 .49      88    -30     15     94     96 109.1   9.0  33446  277.59 0865.00
2015 04 09 08 48 58 .74      82    -31     33     88     93 110.8  20.4  33506  278.60 0865.00
2015 04 09 08 48 58 .99      90    -30     35     95    101 108.6  21.0  33480  278.17 0865.00
2015 04 09 08 48 59 .24      78    -19     31     81     86 104.2  21.5  33464  277.90 0865.00
2015 04 09 08 48 59 .49      72    -15     31     74     80 102.4  24.1  33462  277.87 0865.00
2015 04 09 08 48 59 .75      86    -11     33     87     93  97.9  21.5  33482  278.19 0865.00
2015 04 09 08 49 00 .00      79    -18     21     82     85 103.3  14.7  33466  277.92 0865.00
2015 04 09 08 49 00 .25      82    -23     23     86     90 105.9  15.3  33448  277.64 0865.00
2015 04 09 08 49 00 .50      81    -30     12     87     88 110.8   8.0  33450  277.67 0865.00
2015 04 09 08 49 00 .75      77    -32      6     84     85 112.6   4.4  33450  277.65 0865.00
2015 04 09 08 49 01 .00      69    -33     -3     77     78 115.4  -2.2  33450  277.67 0865.00
2015 04 09 08 49 01 .25      54    -37      3     66     67 125.1   2.8  33450  277.67 0865.00
2015 04 09 08 49 01 .51      59    -42      3     73     74 125.9   2.9  33446  277.61 0865.00
2015 04 09 08 49 01 .76      70    -38      9     80     81 118.9   6.5  33448  277.64 0865.00
2015 04 09 08 49 02 .00      81    -41      0     92     93 117.1  -0.3  33442  277.54 0865.00
2015 04 09 08 49 02 .26      83    -41     -2     93     94 116.2  -1.8  33442  277.52 0865.00
2015 04 09 08 49 02 .51      80    -37    -11     89     90 114.8  -7.2  33444  277.57 0865.00
2015 04 09 08 49 02 .76      85    -31    -11     91     92 110.0  -7.2  33440  277.51 0865.00
2015 04 09 08 49 03 .01      80    -37    -11     89     90 114.8  -7.2  33444  277.57 0865.00
2015 04 09 08 49 03 .26      80    -42    -12     91     92 118.0  -7.7  33442  277.54 0865.00
2015 04 09 08 49 03 .51      80    -32    -15     87     89 111.7  -9.8  33448  277.62 0865.00
2015 04 09 08 49 03 .76      71    -42    -16     83     85 120.7 -10.9  33446  277.61 0865.00
2015 04 09 08 49 04 .01      62    -38    -14     73     75 121.5 -11.3  33450  277.65 0865.00
2015 04 09 08 49 04 .26      69    -38    -19     79     82 118.9 -13.4  33448  277.64 0864.99
2015 04 09 08 49 04 .51      78    -27    -19     83     86 109.1 -12.9  33460  277.84 0864.99
2015 04 09 08 49 04 .76      72    -46      0     86     87 122.4   0.2  33448  277.64 0864.99
2015 04 09 08 49 05 .01      83    -46     -4     96     97 119.3  -2.6  33448  277.64 0864.99
2015 04 09 08 49 05 .26      83    -45      2     95     96 118.9   1.2  33444  277.56 0864.99
2015 04 09 08 49 05 .52      74    -46     -1     88     89 122.0  -1.3  33458  277.79 0864.99
2015 04 09 08 49 05 .76      83    -46      3     96     97 119.3   1.8  33472  278.02 0864.99
2015 04 09 08 49 06 .01      84    -40      4     94     95 115.3   2.8  33464  277.89 0865.00
2015 04 09 08 49 06 .26      62    -45      3     77     78 126.0   2.9  33458  277.79 0865.00
2015 04 09 08 49 06 .52      65    -52      1     84     85 128.6   0.8  33462  277.87 0865.00
2015 04 09 08 49 06 .78      64    -49     -1     81     82 127.8  -0.7  33472  278.04 0865.00
2015 04 09 08 49 07 .03      70    -38     -3     80     81 118.9  -2.6  33476  278.09 0865.00
2015 04 09 08 49 07 .28      74    -46      5     88     89 122.0   3.8  33472  278.02 0865.00
2015 04 09 08 49 07 .53      70    -33      5     78     79 115.3   3.8  33464  277.89 0865.00
2015 04 09 08 49 07 .78      66    -32      3     74     75 116.2   2.9  33472  278.02 0865.00
2015 04 09 08 49 08 .03      63    -39     11     75     76 121.5   9.0  33474  278.07 0865.00
2015 04 09 08 49 08 .28      69    -38      9     79     80 118.9   6.5  33476  278.09 0865.00
2015 04 09 08 49 08 .53      72    -41     10     83     84 119.8   7.5  33466  277.92 0865.00
2015 04 09 08 49 08 .78      65    -33     -1     74     75 117.1  -1.2  33452  277.69 0865.00
2015 04 09 08 49 09 .03      61    -39     -1     73     74 122.4  -1.3  33452  277.70 0865.00
2015 04 09 08 49 09 .29      54    -31      3     63     64 119.8   2.8  33454  277.72 0865.00
2015 04 09 08 49 09 .53      59    -38      0     71     72 122.5  -0.3  33458  277.79 0865.00
2015 04 09 08 49 09 .78      70    -37      9     80     81 118.0   6.5  33466  277.94 0865.00
2015 04 09 08 49 10 .03      59    -19     12     63     65 108.2  11.0  33466  277.92 0865.00
2015 04 09 08 49 10 .28      54    -22      5     59     60 112.6   4.9  33464  277.89 0865.00
2015 04 09 08 49 10 .54      50    -23      7     56     57 115.2   8.0  33466  277.92 0865.00
2015 04 09 08 49 10 .79      57    -18     -1     60     61 108.2  -1.2  33470  277.99 0865.00
2015 04 09 08 49 11 .04      45    -28      0     54     55 122.4  -0.3  33476  278.10 0865.00
2015 04 09 08 49 11 .28      35    -32      0     48     49 132.2  -0.3  33472  278.04 0865.00
2015 04 09 08 49 11 .54      37    -36      2     52     53 134.0   2.8  33462  277.87 0865.01
2015 04 09 08 49 11 .79      45    -29     16     54     57 123.3  17.3  33488  278.30 0865.01
2015 04 09 08 49 12 .04      36    -24     15     44     47 124.2  18.9  33500  278.50 0865.01
2015 04 09 08 49 12 .29      46    -25     18     53     57 118.9  19.4  33486  278.27 0865.01
2015 04 09 08 49 12 .54      41    -22     17     47     49 118.0  20.0  33492  278.37 0865.01
2015 04 09 08 49 12 .79      46    -25     18     53     57 118.9  19.4  33490  278.32 0865.01
2015 04 09 08 49 13 .04      50    -24     15     56     59 115.4  15.2  33480  278.15 0865.01
2015 04 09 08 49 13 .29      56    -11     19     58     62 101.5  18.4  33464  277.89 0865.01
2015 04 09 08 49 13 .55      63    -20     12     67     69 107.7  10.1  33464  277.89 0865.01
2015 04 09 08 49 13 .81      77    -19      9     80     81 104.2   6.5  33510  278.65 0865.01
2015 04 09 08 49 14 .05      73     -5     20     74     77  94.4  15.8  33496  278.42 0865.01
2015 04 09 08 49 14 .30      53    -28      9     61     62 118.0   9.0  33498  278.45 0865.00
2015 04 09 08 49 14 .56      56    -41     26     70     74 126.0  20.0  33512  278.69 0865.00
2015 04 09 08 49 14 .80      54    -29     31     62     69 118.0  27.3  33502  278.52 0865.00
2015 04 09 08 49 15 .06      55    -23     32     60     68 112.6  31.3  33506  278.60 0865.00
2015 04 09 08 49 15 .30      40    -15     33     43     54 110.8  41.7  33506  278.60 0865.00
2015 04 09 08 49 15 .56      34    -21     32     41     52 122.4  42.7  33516  278.75 0865.00
2015 04 09 08 49 15 .81      27    -23     33     36     48 131.3  49.0  33522  278.85 0865.00
2015 04 09 08 49 16 .06      38    -25     35     46     57 123.3  41.7  33524  278.88 0864.99
2015 04 09 08 49 16 .31      44    -15     37     47     59 109.1  42.7  33536  279.10 0864.99
2015 04 09 08 49 16 .56      56    -28     30     63     69 117.1  27.2  33512  278.69 0864.99
2015 04 09 08 49 16 .81      49    -40     29     64     70 129.5  27.1  33496  278.44 0864.99
2015 04 09 08 49 17 .06      41    -40     12     58     60 134.9  12.2  33472  278.02 0864.99
2015 04 09 08 49 17 .31      41    -43     10     60     61 136.8  10.1  33448  277.64 0864.99
2015 04 09 08 49 17 .56      48    -37     12     61     63 127.8  11.1  33450  277.65 0864.99
2015 04 09 08 49 17 .81      54    -31      3     63     64 119.8   2.8  33454  277.72 0864.99
2015 04 09 08 49 18 .06      46    -32     -2     57     58 125.1  -2.2  33452  277.69 0864.99
2015 04 09 08 49 18 .31      41    -36     -6     55     56 131.3  -6.2  33454  277.72 0864.99
2015 04 09 08 49 18 .56      48    -37     -1     61     62 127.8  -1.3  33454  277.72 0864.99
2015 04 09 08 49 18 .81      40    -27     -1     49     50 124.2  -2.2  33452  277.69 0864.99
2015 04 09 08 49 19 .07      38    -28     -2     48     49 126.0  -3.1  33458  277.79 0864.99
2015 04 09 08 49 19 .31      50    -41     23     66     70 129.5  19.2  33472  278.02 0864.99
2015 04 09 08 49 19 .57      60    -38     14     72     74 122.4  11.1  33476  278.09 0864.99
2015 04 09 08 49 19 .82      52    -33     17     62     65 122.5  15.2  33482  278.20 0864.99
2015 04 09 08 49 20 .06      52    -33     17     62     65 122.5  15.2  33482  278.20 0864.99
2015 04 09 08 49 20 .32      52    -38     19     65     68 126.0  16.3  33490  278.32 0864.99
2015 04 09 08 49 20 .58      70    -33     26     78     83 115.3  18.9  33476  278.10 0864.99
2015 04 09 08 49 20 .83      75    -35     27     84     89 115.3  17.9  33474  278.07 0864.99
2015 04 09 08 49 21 .08      74    -34     16     82     84 115.2  11.1  33448  277.62 0864.99
2015 04 09 08 49 21 .33      74    -34      1     82     83 115.2   1.2  33446  277.61 0864.99
2015 04 09 08 49 21 .58      70    -38     17     80     82 118.9  12.2  33454  277.72 0864.99
2015 04 09 08 49 21 .83      72    -38     22     82     86 118.0  15.3  33462  277.85 0864.99
2015 04 09 08 49 22 .08      70    -46      8     84     85 123.3   5.9  33452  277.69 0864.99
2015 04 09 08 49 22 .34      73    -37     14     82     84 117.1  10.1  33458  277.79 0864.99
2015 04 09 08 49 22 .58      73    -38      5     83     84 118.0   3.8  33450  277.65 0864.99
2015 04 09 08 49 22 .83      63    -39     11     75     76 121.5   9.0  33450  277.65 0864.99
2015 04 09 08 49 23 .08      70    -38      9     80     81 118.9   6.5  33448  277.64 0864.99
2015 04 09 08 49 23 .33      63    -24      8     68     69 110.8   6.9  33450  277.67 0864.99
2015 04 09 08 49 23 .59      70    -26     14     75     77 110.8  11.1  33452  277.69 0864.99
2015 04 09 08 49 23 .83      72    -20     13     75     77 105.9  10.1  33448  277.62 0864.99
2015 04 09 08 49 24 .09      74    -25     14     79     81 108.6  10.6  33446  277.61 0864.99
2015 04 09 08 49 24 .34      74    -32     15     81     83 113.5  11.1  33474  278.07 0864.99
2015 04 09 08 49 24 .59      69    -27     22     75     79 111.7  16.3  33496  278.42 0864.99
2015 04 09 08 49 24 .84      67    -33     28     75     80 116.2  21.0  33500  278.49 0864.99
2015 04 09 08 49 25 .09      64    -20     30     68     74 107.7  25.1  33502  278.52 0864.99
2015 04 09 08 49 25 .34      66    -26     31     72     78 111.7  24.1  33502  278.52 0864.99
2015 04 09 08 49 25 .59      66    -16     32     69     76 104.2  27.1  33504  278.55 0864.99
2015 04 09 08 49 25 .84      62    -39     39     74     83 122.4  29.8  33498  278.47 0864.99
2015 04 09 08 49 26 .09      65    -26      8     71     72 111.7   7.1  33470  277.99 0864.99
2015 04 09 08 49 26 .34      65    -33     -1     74     75 117.1  -1.2  33452  277.69 0864.99
2015 04 09 08 49 26 .59      63    -24      8     68     69 110.8   6.9  33450  277.67 0864.99
2015 04 09 08 49 26 .84      62    -29      3     69     70 115.2   2.9  33452  277.69 0864.99
2015 04 09 08 49 27 .09      57    -34      3     67     68 120.7   2.9  33452  277.69 0864.99
2015 04 09 08 49 27 .34      54    -31      3     63     64 119.8   2.8  33454  277.72 0864.99
2015 04 09 08 49 27 .61      62    -29     18     69     72 115.2  15.3  33460  277.84 0864.99
2015 04 09 08 49 27 .86      65    -21     13     69     71 108.2  11.0  33460  277.82 0864.99
2015 04 09 08 49 28 .10      55    -24     12     61     63 113.5  11.1  33460  277.82 0864.99
2015 04 09 08 49 28 .36      46    -33     11     57     59 126.0  11.0  33458  277.79 0864.99
2015 04 09 08 49 28 .60      46    -33     11     57     59 126.0  11.0  33454  277.74 0864.99
2015 04 09 08 49 28 .86      53    -33      6     63     64 122.5   5.9  33456  277.75 0864.99
2015 04 09 08 49 29 .11      48    -31      6     58     59 122.4   5.9  33454  277.74 0864.99
2015 04 09 08 49 29 .36      50    -30     -2     59     60 120.7  -2.2  33450  277.67 0864.99
2015 04 09 08 49 29 .61      46    -32     -2     57     58 125.1  -2.2  33452  277.69 0864.99
2015 04 09 08 49 29 .86      46    -32     -2     57     58 125.1  -2.2  33452  277.69 0864.99
2015 04 09 08 49 30 .11      48    -37     -1     61     62 127.8  -1.3  33454  277.72 0864.99
2015 04 09 08 49 30 .36      57    -22     18     62     65 111.7  16.3  33472  278.02 0864.99
2015 04 09 08 49 30 .61      53    -33      7     63     64 122.5   6.9  33466  277.92 0864.99
2015 04 09 08 49 30 .86      54    -37     18     66     69 125.1  15.2  33484  278.22 0864.99
2015 04 09 08 49 31 .11      57    -34     13     67     69 120.7  11.0  33478  278.12 0864.99
2015 04 09 08 49 31 .36      45    -28      7     54     55 122.4   8.0  33472  278.02 0864.99
2015 04 09 08 49 31 .61      37    -24      0     45     46 123.3   0.8  33458  277.79 0864.99
2015 04 09 08 49 31 .86      31    -24     -1     40     41 127.8  -2.2  33454  277.74 0864.99
2015 04 09 08 49 32 .11      25    -23      0     35     36 133.1  -1.3  33456  277.75 0864.99
2015 04 09 08 49 32 .36      34    -27     -1     44     45 128.6  -2.2  33452  277.70 0864.99
2015 04 09 08 49 32 .61      31    -24     -1     40     41 127.8  -2.2  33454  277.74 0864.99
2015 04 09 08 49 32 .87      34    -27     -1     44     45 128.6  -2.2  33452  277.70 0864.99
2015 04 09 08 49 33 .11      31    -24     -1     40     41 127.8  -2.2  33454  277.74 0864.99
2015 04 09 08 49 33 .37      37    -36     -2     52     53 134.0  -3.1  33460  277.84 0864.99
2015 04 09 08 49 33 .62      40    -30     -2     50     51 126.9  -3.1  33460  277.84 0864.99
2015 04 09 08 49 33 .87      33    -29     -1     45     46 131.3  -2.2  33462  277.87 0864.99
2015 04 09 08 49 34 .12      36    -32     -5     49     50 131.3  -6.2  33460  277.82 0864.99
2015 04 09 08 49 34 .37      39    -32     -6     51     52 129.5  -7.3  33454  277.74 0864.99
2015 04 09 08 49 34 .63      31    -31     -1     44     45 135.0  -2.2  33458  277.79 0864.99
2015 04 09 08 49 34 .88      33    -42     -2     54     55 141.3  -2.2  33462  277.87 0864.99
2015 04 09 08 49 35 .13      37    -42     -2     57     58 138.6  -2.2  33460  277.84 0864.99
2015 04 09 08 49 35 .38      33    -35     -1     49     50 136.8  -2.2  33460  277.82 0864.99
2015 04 09 08 49 35 .63      32    -27      5     43     44 130.4   6.9  33460  277.84 0864.99
2015 04 09 08 49 35 .88      42    -26     -1     50     51 121.5  -2.2  33462  277.87 0864.99
2015 04 09 08 49 36 .13      33    -28      5     44     45 130.4   6.9  33466  277.94 0864.99
2015 04 09 08 49 36 .38      38    -28      3     48     49 126.0   3.8  33460  277.82 0864.99
2015 04 09 08 49 36 .63      38    -25      2     46     47 124.2   2.8  33460  277.84 0864.99
2015 04 09 08 49 36 .88      34    -22      5     41     42 122.5   8.0  33458  277.79 0864.98
2015 04 09 08 49 37 .13      31    -26     11     41     43 129.5  15.3  33454  277.74 0864.98
2015 04 09 08 49 37 .39      43    -29      7     53     54 124.2   8.0  33452  277.70 0864.98
2015 04 09 08 49 37 .64      50    -30     11     59     61 120.7  11.1  33456  277.75 0864.98
2015 04 09 08 49 37 .89      53    -33     13     63     65 122.5  12.2  33454  277.74 0864.98
2015 04 09 08 49 38 .14      44    -44     14     63     65 135.0  13.2  33452  277.69 0864.98
2015 04 09 08 49 38 .39      43    -47     12     64     66 137.7  11.0  33450  277.65 0864.98
2015 04 09 08 49 38 .64      43    -39      3     59     60 132.2   2.9  33450  277.67 0864.98
2015 04 09 08 49 38 .89      45    -45      9     65     66 135.0   8.0  33448  277.64 0864.99
2015 04 09 08 49 39 .14      43    -43      7     62     63 135.0   6.9  33448  277.62 0864.99
2015 04 09 08 49 39 .40      48    -45     12     66     68 133.1  11.0  33450  277.65 0864.99
2015 04 09 08 49 39 .64      50    -44      9     67     68 131.3   8.0  33452  277.69 0864.99
2015 04 09 08 49 39 .89      45    -42      5     62     63 133.1   4.9  33452  277.69 0864.99
2015 04 09 08 49 40 .14      40    -40      3     57     58 134.9   3.8  33448  277.64 0864.99
2015 04 09 08 49 40 .39      43    -41      6     60     61 133.3   5.9  33454  277.72 0864.99
2015 04 09 08 49 40 .64      38    -43     10     58     59 138.6  10.1  33454  277.74 0864.98
2015 04 09 08 49 40 .90      37    -50      3     63     64 143.0   2.8  33468  277.97 0864.98
2015 04 09 08 49 41 .14      33    -52     14     62     64 147.4  13.2  33484  278.22 0864.98
2015 04 09 08 49 41 .40      33    -52     14     62     64 147.4  13.2  33484  278.22 0864.99
2015 04 09 08 49 41 .66      39    -44     10     60     61 138.6  10.1  33482  278.19 0864.99
2015 04 09 08 49 41 .91      33    -52     14     62     64 147.4  13.2  33484  278.22 0864.99
2015 04 09 08 49 42 .15      31    -53     21     62     66 149.3  18.9  33486  278.27 0864.99
2015 04 09 08 49 42 .41      29    -44     22     53     57 146.6  23.0  33480  278.17 0864.99
2015 04 09 08 49 42 .66      29    -44     15     53     56 146.6  16.3  33486  278.25 0864.99
2015 04 09 08 49 42 .91      31    -41     24     52     57 142.2  27.1  33494  278.40 0864.99
2015 04 09 08 49 43 .16      21    -32     21     39     44 147.4  31.4  33492  278.37 0864.99
2015 04 09 08 49 43 .41      31    -39     18     51     55 141.3  19.2  33502  278.52 0864.99
2015 04 09 08 49 43 .66      31    -31     18     45     48 135.0  21.0  33496  278.42 0864.99
2015 04 09 08 49 43 .91      26    -31     -1     41     42 139.5  -2.2  33456  277.77 0864.99
2015 04 09 08 49 44 .16      28    -35     -4     45     46 141.3  -6.2  33450  277.67 0864.98
2015 04 09 08 49 44 .41      22    -39     -5     46     47 150.1  -7.3  33450  277.65 0864.98
2015 04 09 08 49 44 .66      20    -43     -7     48     49 154.6  -9.3  33448  277.64 0864.98
2015 04 09 08 49 44 .91      26    -33    -11     43     45 141.3 -14.5  33446  277.59 0864.98
2015 04 09 08 49 45 .16      28    -35    -16     46     48 141.3 -23.3  33448  277.62 0864.98
2015 04 09 08 49 45 .41      22    -33    -16     40     43 145.7 -26.4  33450  277.67 0864.98
2015 04 09 09 34 00 .29     -31     95     11    101    102 341.7   6.5  33650  280.99 0864.86
2015 04 09 09 34 00 .54     -59    124    -13    138    139 334.7  -5.6  33650  281.00 0864.87
2015 04 09 09 34 00 .79     -55    116     -2    129    130 334.5  -1.2  33650  281.00 0864.87
2015 04 09 09 34 01 .04     -47    125     13    134    135 339.1   5.9  33630  280.67 0864.87
2015 04 09 09 34 01 .29     -57    144     18    156    158 338.2   6.7  33612  280.37 0864.87
2015 04 09 09 34 01 .54     -59    116     55    131    142 332.9  23.6  33632  280.70 0864.87
2015 04 09 09 34 01 .79     -53     75     12     93     94 324.8   7.5  33622  280.52 0864.87
2015 04 09 09 34 02 .04     -84     84    -15    119    120 315.0  -7.2  33592  280.03 0864.87
2015 04 09 09 34 02 .29     -89     86    -15    125    127 314.0  -7.2  33586  279.93 0864.87
2015 04 09 09 34 02 .54     -70     74     -6    103    104 316.7  -3.7  33590  280.00 0864.86
2015 04 09 09 34 02 .79     -65     67     11     94     95 315.9   6.9  33596  280.10 0864.86
2015 04 09 09 34 03 .04     -45     71      4     85     86 327.5   2.9  33604  280.23 0864.86
2015 04 09 09 34 03 .30     -58     85     11    104    105 325.7   6.5  33600  280.15 0864.87
2015 04 09 09 34 03 .55     -78     66     -4    103    104 310.0  -2.2  33598  280.12 0864.87
2015 04 09 09 34 03 .80     -72     58     11     93     94 308.6   6.9  33606  280.27 0864.87
2015 04 09 09 34 04 .05     -57     58     -5     82     83 315.9  -4.1  33600  280.15 0864.87
2015 04 09 09 34 04 .30     -25     60     33     66     73 337.3  27.3  33616  280.43 0864.87
2015 04 09 09 34 04 .55     -27     56     31     63     70 333.7  27.3  33624  280.57 0864.87
2015 04 09 09 34 04 .80     -33     61     44     70     82 331.0  35.5  33616  280.42 0864.87
2015 04 09 09 34 05 .06     -25     45     40     52     65 331.0  41.7  33622  280.52 0864.87
2015 04 09 09 34 05 .31     -43     74     21     86     89 329.7  13.7  33628  280.62 0864.87
2015 04 09 09 34 05 .56     -50     60     31     79     84 320.4  22.0  33630  280.67 0864.87
2015 04 09 09 34 05 .81     -57     68     49     89    101 319.9  31.4  33628  280.62 0864.87
2015 04 09 09 34 06 .06     -53     52     40     75     85 314.1  30.3  33640  280.82 0864.87
2015 04 09 09 34 06 .31     -37     63      6     74     75 329.3   4.9  33634  280.72 0864.87
2015 04 09 09 34 06 .57     -48     48     14     68     70 314.9  12.2  33644  280.90 0864.87
2015 04 09 09 34 06 .81     -44     65     23     79     83 325.7  16.8  33638  280.80 0864.87
2015 04 09 09 34 07 .06     -74     69     51    102    114 312.7  28.2  33648  280.95 0864.87
2015 04 09 09 34 07 .31     -64     57     28     86     91 311.8  17.9  33634  280.72 0864.87
2015 04 09 09 34 07 .56     -49     69     44     85     95 324.4  29.3  33630  280.67 0864.87
2015 04 09 09 34 07 .81     -16     48     32     51     60 341.5  35.5  33624  280.55 0864.86
2015 04 09 09 34 08 .06     -35     53     22     64     68 326.6  18.9  33612  280.37 0864.86
2015 04 09 09 34 08 .32     -32     59     53     68     86 331.0  41.7  33624  280.57 0864.86
2015 04 09 09 34 08 .57     -47     56     33     74     81 320.4  25.7  33636  280.75 0864.86
2015 04 09 09 34 08 .82     -59     48     53     77     93 309.5  37.6  33652  281.02 0864.86
2015 04 09 09 34 09 .07     -35     24     -3     43     44 305.1  -5.2  33658  281.14 0864.86
2015 04 09 09 34 09 .32     -20      0     -1     21     22 270.0  -3.1  33660  281.15 0864.86
2015 04 09 09 34 09 .57     -54     10     -8     55     56 280.6  -8.2  33648  280.97 0864.86
2015 04 09 09 34 09 .82     -33     64     -9     73     74 332.8  -7.2  33662  281.20 0864.86
2015 04 09 09 34 10 .07     -56     13    -42     58     71 283.3 -44.1  33646  280.92 0864.86
2015 04 09 09 34 10 .32     -37    -12      0     39     40 251.8   0.8  33654  281.05 0864.86
2015 04 09 09 34 10 .57      -1     18     17     19     25 355.6  47.9  33668  281.29 0864.86
2015 04 09 09 34 10 .82      -7     27    -14     29     32 344.9 -31.6  33648  280.95 0864.86
2015 04 09 09 34 11 .07    -121     48    -21    131    133 291.7  -9.4  33554  279.40 0864.86
2015 04 09 09 34 11 .33    -134     63    -30    149    153 295.4 -11.5  33556  279.42 0864.86
2015 04 09 09 34 11 .58    -156     77    -23    175    177 296.4  -7.7  33588  279.95 0864.86
2015 04 09 09 34 11 .84    -175     63    -14    187    188 290.0  -4.4  33582  279.85 0864.86
2015 04 09 09 34 12 .08    -159     69    -28    174    177 293.5  -9.3  33576  279.75 0864.86
2015 04 09 09 34 12 .34    -131     73    -19    151    153 299.3  -7.2  33578  279.80 0864.86
2015 04 09 09 34 12 .58    -152     86    -11    175    176 299.5  -3.7  33570  279.67 0864.86
2015 04 09 09 34 12 .83    -132     72    -34    151    155 298.8 -12.9  33576  279.77 0864.86
2015 04 09 09 34 13 .09    -127     81    -19    151    153 302.5  -7.3  33580  279.83 0864.86
2015 04 09 09 34 13 .34    -138    101    -12    172    173 306.2  -4.1  33562  279.52 0864.87
2015 04 09 09 34 13 .58    -126    101    -25    162    165 308.6  -9.0  33558  279.47 0864.87
2015 04 09 09 34 13 .84    -138     90    -46    165    172 303.1 -15.8  33544  279.23 0864.87
2015 04 09 09 34 14 .09    -130     87    -49    157    165 304.1 -17.6  33540  279.15 0864.87
2015 04 09 09 34 14 .34    -150     85    -34    173    177 299.5 -11.3  33544  279.23 0864.87
2015 04 09 09 34 14 .59    -144     85    -29    168    171 300.4  -9.8  33550  279.33 0864.87
2015 04 09 09 34 14 .84    -128     65    -47    144    152 297.1 -18.1  33538  279.13 0864.87
2015 04 09 09 34 15 .16    -132     68    -35    149    154 297.5 -13.4  33550  279.32 0864.86
2015 04 09 09 34 15 .35    -110     71    -36    132    137 302.9 -15.5  33552  279.37 0864.86
2015 04 09 09 34 15 .59     -91     71     -2    116    117 308.2  -1.3  33596  280.08 0864.86
2015 04 09 09 34 15 .84    -122     72    -23    142    144 300.7  -9.3  33570  279.65 0864.86
2015 04 09 09 34 16 .09    -126     91    -21    156    158 305.9  -8.0  33568  279.62 0864.86
2015 04 09 09 34 16 .34    -136     58    -18    148    150 293.1  -7.2  33564  279.57 0864.86
2015 04 09 09 34 16 .59    -139     30    -18    143    145 282.4  -7.2  33546  279.25 0864.86
2015 04 09 09 34 16 .85    -132     24    -27    135    138 280.6 -11.5  33544  279.23 0864.86
2015 04 09 09 34 17 .10    -136     48     -5    145    146 289.5  -2.2  33548  279.30 0864.86
2015 04 09 09 34 17 .35     -98     65    -42    118    126 303.7 -19.7  33556  279.43 0864.86
2015 04 09 09 34 17 .60     -92     59    -43    110    118 302.5 -26.9  33554  279.40 0864.86
2015 04 09 09 34 17 .85     -94     62    -33    113    117 303.7 -21.7  33554  279.38 0864.86
2015 04 09 09 34 18 .10    -100     38    -30    108    113 290.8 -15.4  33552  279.37 0864.87
2015 04 09 09 34 18 .34    -104     34    -14    110    111 288.2  -7.7  33538  279.13 0864.87
2015 04 09 09 34 18 .60    -110     39    -24    117    120 289.5 -11.9  33538  279.12 0864.87
2015 04 09 09 34 18 .86     -89     56    -29    106    111 302.4 -15.5  33570  279.65 0864.87
2015 04 09 09 34 19 .11    -102     78     -7    129    130 307.3  -3.2  33572  279.70 0864.87
2015 04 09 09 34 19 .36    -139     55    -10    150    151 291.7  -4.1  33564  279.57 0864.87
2015 04 09 09 34 19 .61    -114     53    -16    126    128 295.2  -7.2  33574  279.72 0864.87
2015 04 09 09 34 19 .86     -66     75    -15    101    103 318.6  -8.8  33606  280.25 0864.86
2015 04 09 09 34 20 .12    -141     96    -28    171    174 304.4  -9.3  33594  280.07 0864.86
2015 04 09 09 34 20 .36    -111     92    -17    145    146 309.5  -6.7  33590  279.98 0864.86
2015 04 09 09 34 20 .62    -123    106     -3    163    164 310.7  -1.3  33596  280.08 0864.86
2015 04 09 09 34 20 .87    -111     91     -2    144    145 309.5  -1.2  33604  280.23 0864.86
2015 04 09 09 34 21 .12     -86    110      9    140    141 322.1   3.8  33600  280.17 0864.86
2015 04 09 09 34 21 .37    -125    103     -6    163    164 309.5  -2.2  33560  279.50 0864.86
2015 04 09 09 34 21 .62    -121    100    -23    158    160 309.5  -8.6  33542  279.18 0864.86
2015 04 09 09 34 21 .87    -130     94     -7    161    162 306.0  -2.8  33544  279.23 0864.86
2015 04 09 09 34 22 .12    -125     65    -50    141    150 297.5 -19.7  33544  279.22 0864.86
2015 04 09 09 34 22 .37    -119     64    -46    136    144 298.4 -18.7  33546  279.27 0864.86
2015 04 09 09 34 22 .61    -129     69    -41    147    152 298.0 -20.2  33526  278.93 0864.86
2015 04 09 09 34 22 .87    -128     65    -40    144    149 297.1 -20.2  33526  278.92 0864.86
2015 04 09 09 34 23 .12    -121     67    -48    139    148 298.9 -19.1  33526  278.93 0864.86
2015 04 09 09 34 23 .37    -113     71    -48    134    143 302.4 -19.7  33524  278.88 0864.86
2015 04 09 09 34 23 .62    -117     81    -39    143    149 304.6 -15.5  33526  278.92 0864.86
2015 04 09 09 34 23 .87    -124     79    -35    148    153 302.5 -13.3  33524  278.90 0864.86
2015 04 09 09 34 24 .12    -114     76    -29    138    142 303.7 -11.9  33528  278.95 0864.86
2015 04 09 09 34 24 .37    -107     71    -30    129    133 303.7 -13.3  33528  278.95 0864.86
2015 04 09 09 34 24 .62     -88     71    -38    114    121 309.1 -18.7  33526  278.93 0864.86
2015 04 09 09 34 24 .87     -95     60    -40    113    121 302.5 -19.6  33526  278.92 0864.86
2015 04 09 09 34 25 .12    -101     64    -41    120    126 302.4 -23.3  33526  278.92 0864.86
2015 04 09 09 34 25 .37    -101     56    -40    116    123 298.9 -19.1  33526  278.92 0864.86
2015 04 09 09 34 25 .62     -99     54    -37    114    120 298.8 -18.1  33526  278.93 0864.86
2015 04 09 09 34 25 .89    -103     50    -32    115    119 296.2 -20.2  33528  278.97 0864.86
2015 04 09 09 34 26 .13     -97     66    -49    118    127 304.2 -28.0  33546  279.27 0864.87
2015 04 09 09 34 26 .39    -106     65    -44    125    133 301.5 -19.7  33552  279.37 0864.87
2015 04 09 09 34 26 .64    -108     70    -40    129    135 302.9 -22.8  33556  279.42 0864.87
2015 04 09 09 34 26 .89     -97     66    -34    118    122 304.2 -21.2  33546  279.27 0864.87
2015 04 09 09 34 27 .14     -98     62    -37    117    123 302.4 -17.6  33544  279.23 0864.87
2015 04 09 09 34 27 .38    -112     54    -44    125    132 295.8 -23.8  33528  278.95 0864.87
2015 04 09 09 34 27 .64    -119     51    -50    130    139 293.5 -26.4  33530  278.98 0864.87
2015 04 09 09 34 27 .89    -118     45    -41    127    134 290.8 -18.1  33526  278.93 0864.87
2015 04 09 09 34 28 .15    -108     47    -40    118    124 293.5 -23.3  33530  279.00 0864.87
2015 04 09 09 34 28 .39    -105     58    -38    121    126 298.9 -22.8  33558  279.45 0864.87
2015 04 09 09 34 28 .64    -109     58    -35    124    128 298.4 -20.2  33546  279.27 0864.87
2015 04 09 09 34 28 .89    -119     55    -26    132    135 294.8 -11.5  33532  279.03 0864.87
2015 04 09 09 34 29 .14    -124     67    -18    142    144 298.4  -7.3  33526  278.92 0864.87
2015 04 09 09 34 29 .39    -107     78    -15    133    134 306.0  -6.7  33530  278.98 0864.87
2015 04 09 09 34 29 .64    -106     71    -21    128    130 304.1  -9.3  33530  279.00 0864.87
2015 04 09 09 34 29 .90    -103     86    -17    135    137 309.6  -7.2  33534  279.05 0864.87
2015 04 09 09 34 30 .15     -99     82     -5    129    130 309.5  -2.2  33546  279.25 0864.87
2015 04 09 09 34 30 .40     -95     75     -2    122    123 308.2  -1.3  33550  279.32 0864.87
2015 04 09 09 34 30 .65    -101     54     -6    115    116 298.4  -3.2  33542  279.18 0864.87
2015 04 09 09 34 30 .89     -83     53    -24     99    102 302.5 -13.9  33544  279.22 0864.87
2015 04 09 09 34 31 .15     -90     49    -23    103    106 298.9 -12.9  33544  279.22 0864.87
2015 04 09 09 34 31 .40     -92     66    -10    114    115 306.0  -5.2  33544  279.22 0864.87
2015 04 09 09 34 31 .65     -82     87    -14    120    121 316.7  -6.7  33544  279.23 0864.87
2015 04 09 09 34 31 .90     -77    105    -39    131    137 323.5 -16.6  33530  278.98 0864.87
2015 04 09 09 34 32 .15     -83     94    -35    126    131 318.6 -15.5  33524  278.90 0864.87
2015 04 09 09 34 32 .40     -75     91    -33    119    123 320.4 -20.2  33524  278.88 0864.87
2015 04 09 09 34 32 .66     -79     85    -48    117    126 317.2 -27.5  33544  279.22 0864.87
2015 04 09 09 34 32 .91     -62     98    -52    117    128 327.5 -29.6  33556  279.42 0864.87
2015 04 09 09 34 33 .16     -36     79    -48     87     99 335.5 -35.8  33562  279.52 0864.87
2015 04 09 09 34 33 .41     -33     71    -44     79     90 334.7 -35.8  33560  279.50 0864.87
2015 04 09 09 34 33 .66     -56     67    -41     88     97 320.4 -31.0  33554  279.38 0864.87
2015 04 09 09 34 33 .91     -63     76    -33     99    104 320.4 -23.6  33526  278.93 0864.87
2015 04 09 09 34 34 .16     -48     76    -33     91     96 327.5 -24.4  33524  278.88 0864.87
2015 04 09 09 34 34 .42     -32     92    -33     98    103 340.4 -23.6  33526  278.93 0864.87
2015 04 09 09 34 34 .67     -17    108    -14    110    111 351.1  -7.3  33552  279.37 0864.87
2015 04 09 09 34 34 .92      -1    106     -2    107    108 359.1  -1.3  33570  279.67 0864.87
2015 04 09 09 34 35 .16      12    107     -4    108    109   6.7  -2.2  33556  279.42 0864.87
2015 04 09 09 34 35 .42       0     90     -3     91     92   0.5  -2.2  33562  279.53 0864.87
2015 04 09 09 34 35 .66     -12    124     -4    125    126 354.2  -2.2  33574  279.72 0864.87
2015 04 09 09 34 35 .92     -25    105    -30    108    113 346.6 -15.5  33542  279.20 0864.87
2015 04 09 09 34 36 .17       8    116    -32    117    122   4.4 -15.5  33560  279.48 0864.87
2015 04 09 09 34 36 .43       7     99    -34    100    105   4.5 -23.3  33546  279.25 0864.87
2015 04 09 09 34 36 .67      -7     98    -33     99    104 355.5 -23.6  33538  279.13 0864.87
2015 04 09 09 34 36 .92    -219      2    -39    110    116 360.0 -23.3  33542  279.20 0864.87
2015 04 09 09 34 37 .17       7     93    -44     94    103   4.5 -31.5  33540  279.15 0864.87
2015 04 09 09 34 37 .43       9     97     -5     98     99   5.3  -3.1  33566  279.60 0864.87
2015 04 09 09 34 37 .67      -6     80      6     81     82 355.6   4.4  33582  279.85 0864.87
2015 04 09 09 34 37 .92      -2    106     29    107    111 358.6  15.3  33568  279.62 0864.87
2015 04 09 09 34 38 .17     -25     92     11     96     97 344.9   7.1  33570  279.65 0864.87
2015 04 09 09 34 38 .43     -36     93     21    100    103 338.6  12.2  33570  279.65 0864.87
2015 04 09 09 34 38 .68     -41     83     14     93     95 333.3   8.5  33580  279.82 0864.88
2015 04 09 09 34 38 .93     -32     64      3     72     73 332.8   2.9  33582  279.87 0864.88
2015 04 09 09 34 39 .18     -21     56     49     61     78 339.1  43.7  33590  280.00 0864.88
2015 04 09 09 34 39 .43     -53     71     23     89     93 323.0  14.7  33602  280.18 0864.88
2015 04 09 09 34 39 .67     -38     81     19     90     93 334.6  12.2  33592  280.02 0864.88
2015 04 09 09 34 39 .94     -58     54     -8     80     81 313.2  -6.2  33590  279.98 0864.88
2015 04 09 09 34 40 .19     -42     67     15     80     82 327.5  10.6  33592  280.03 0864.88
2015 04 09 09 34 40 .44     -31     91      4     97     98 341.3   2.9  33610  280.32 0864.87
2015 04 09 09 34 40 .69     -26     79     -4     84     85 341.5  -3.1  33608  280.28 0864.87
2015 04 09 09 34 40 .94     -24     70     17     75     78 340.8  13.2  33618  280.47 0864.87
2015 04 09 09 34 41 .19     -34     75     -3     83     84 335.5  -2.6  33604  280.23 0864.87
2015 04 09 09 34 41 .44     -42     96    -13    105    106 336.4  -7.2  33560  279.50 0864.87
2015 04 09 09 34 41 .70     -38     83     -7     92     93 335.5  -4.6  33564  279.57 0864.87
2015 04 09 09 34 41 .94     -36     79     -1     87     88 335.5  -1.3  33616  280.43 0864.87
2015 04 09 09 34 42 .19     -33     82      1     89     90 338.2   0.8  33618  280.47 0864.87
2015 04 09 09 34 42 .44     -28     57     22     64     68 333.7  19.4  33640  280.83 0864.87
2015 04 09 09 34 42 .69     -17     52     15     55     58 341.3  15.3  33638  280.80 0864.87
2015 04 09 09 34 42 .95     -22     55     16     60     63 338.1  15.3  33636  280.75 0864.87
2015 04 09 09 34 43 .20     -15     74     15     76     78 348.4  11.1  33610  280.33 0864.87
2015 04 09 09 34 43 .44     -16     60     23     63     67 344.9  20.0  33602  280.20 0864.87
2015 04 09 09 34 43 .69     -33     75      8     83     84 335.9   5.9  33586  279.92 0864.87
2015 04 09 09 34 43 .95     -38     60     -9     72     73 327.4  -7.2  33586  279.93 0864.87
2015 04 09 09 34 44 .19     -50     57     -9     77     78 318.6  -7.3  33564  279.57 0864.87
2015 04 09 09 34 44 .45     -49     92    -27    105    109 331.9 -14.5  33578  279.80 0864.87
2015 04 09 09 34 44 .70     -44     94     -3    105    106 334.7  -1.8  33576  279.75 0864.87
2015 04 09 09 34 44 .95     -48     68    -17     84     86 324.8 -11.9  33558  279.47 0864.87
2015 04 09 09 34 45 .20     -24     71      0     75     76 341.3  -0.3  33564  279.57 0864.87
2015 04 09 09 34 45 .45     -26     73      2     78     79 340.0   1.8  33572  279.70 0864.87
2015 04 09 09 34 45 .70     -40     64     -3     76     77 327.4  -2.2  33594  280.07 0864.87
2015 04 09 09 34 45 .95     -50     50     -9     72     73 315.0  -7.2  33588  279.97 0864.87
2015 04 09 09 34 46 .20     -73     72    -15    103    105 314.4  -8.2  33564  279.55 0864.87
2015 04 09 09 34 46 .45     -77     58    -16     97     99 306.9  -9.3  33558  279.45 0864.87
2015 04 09 09 34 46 .71     -60     60    -10     85     86 314.9  -7.3  33566  279.58 0864.87
2015 04 09 09 34 46 .96     -75     47    -12     89     90 302.4  -7.7  33558  279.47 0864.87
2015 04 09 09 34 47 .21     -60     50    -25     79     83 309.6 -17.6  33560  279.50 0864.87
2015 04 09 09 34 47 .46     -63     45    -21     78     81 306.0 -15.5  33554  279.40 0864.87
2015 04 09 09 34 47 .71     -66     46    -10     81     82 305.1  -7.3  33554  279.40 0864.87
2015 04 09 09 34 47 .97     -67     48    -10     83     84 305.5  -7.3  33566  279.60 0864.87
2015 04 09 09 34 48 .22     -73     58     -4     94     95 308.6  -2.6  33566  279.60 0864.87
2015 04 09 09 34 48 .46     -60     50    -10     79     80 309.6  -7.3  33570  279.65 0864.87
2015 04 09 09 34 48 .72     -28     48    -16     56     59 329.3 -16.6  33580  279.82 0864.87
2015 04 09 09 34 48 .97      -7     54     25     55     60 352.0  27.1  33598  280.13 0864.87
2015 04 09 09 34 49 .22     -19     82     16     85     87 346.6  11.1  33594  280.05 0864.87
2015 04 09 09 34 49 .47     -27     86     17     91     93 342.6  10.6  33588  279.95 0864.87
2015 04 09 09 34 49 .72     -41     95     -5    104    105 336.4  -3.1  33592  280.03 0864.87
2015 04 09 09 34 49 .97     -46    104     -9    114    115 335.9  -4.6  33610  280.33 0864.87
2015 04 09 09 34 50 .22     -48     82     -4     96     97 329.7  -2.6  33614  280.38 0864.87
2015 04 09 09 34 50 .48     -40     95      2    104    105 337.3   1.2  33636  280.77 0864.87
2015 04 09 09 34 50 .72     -54     72      1     91     92 323.0   1.2  33646  280.92 0864.87
2015 04 09 09 34 50 .97     -58    110     17    125    127 331.9   8.0  33642  280.85 0864.87
2015 04 09 09 34 51 .23     -62     88    -14    108    109 324.8  -7.7  33646  280.92 0864.87
2015 04 09 09 34 51 .47     -37     97     18    104    106 339.1  10.1  33648  280.95 0864.87
2015 04 09 09 34 51 .72     -51    100     -3    113    114 332.8  -1.8  33662  281.19 0864.87
2015 04 09 09 34 51 .97     -57    106    -11    121    122 331.9  -5.6  33646  280.92 0864.87
2015 04 09 09 34 52 .22     -53    124    -12    135    136 336.8  -5.1  33580  279.82 0864.87
2015 04 09 09 34 52 .48     -50    131    -11    141    142 339.1  -4.6  33578  279.78 0864.87
2015 04 09 09 34 52 .73     -69    110    -12    131    132 327.9  -5.6  33582  279.85 0864.87
2015 04 09 09 34 52 .98     -75     82    -20    112    114 317.7 -10.3  33570  279.67 0864.86
2015 04 09 09 34 53 .23     -75    104    -16    129    131 324.4  -7.3  33570  279.65 0864.86
2015 04 09 09 34 53 .48     -61     74    -26     97    101 320.4 -15.0  33576  279.75 0864.86
2015 04 09 09 34 53 .74     -66     63     -3     92     93 314.0  -2.2  33580  279.82 0864.86
2015 04 09 09 34 53 .99     -55     59      5     81     82 316.8   3.8  33588  279.97 0864.87
2015 04 09 09 34 54 .24     -62     55      4     84     85 311.8   2.9  33590  280.00 0864.87
2015 04 09 09 34 54 .49     -57     66      0     88     89 319.5  -0.3  33588  279.97 0864.87
2015 04 09 09 34 54 .74     -58     55      4     81     82 313.6   2.9  33590  279.98 0864.87
2015 04 09 09 34 54 .99     -52     59      4     80     81 318.6   3.3  33592  280.03 0864.87
2015 04 09 09 34 55 .24     -38     60     -9     72     73 327.4  -7.2  33586  279.93 0864.87
2015 04 09 09 34 55 .50     -18     61     22     64     68 343.1  19.4  33602  280.18 0864.87
2015 04 09 09 34 55 .74     -22     87     21     90     93 345.3  13.7  33594  280.05 0864.86
2015 04 09 09 34 56 .00     -27    101     16    105    107 344.9   9.0  33576  279.75 0864.86
2015 04 09 09 34 56 .24     -18     86     19     88     91 348.0  12.2  33598  280.13 0864.86
2015 04 09 09 34 56 .49     -17     99     29    101    106 350.2  16.3  33586  279.92 0864.86
2015 04 09 09 34 56 .74     -25     92      4     96     97 344.9   2.8  33536  279.10 0864.86
2015 04 09 09 34 57 .00     -19    101      8    103    104 348.9   4.9  33608  280.28 0864.86
2015 04 09 09 34 57 .25     -31     99      5    104    105 342.2   2.9  33606  280.27 0864.86
2015 04 09 09 34 57 .50     -30     69     26     76     81 336.4  19.4  33604  280.22 0864.86
2015 04 09 09 34 57 .75     -58     79    -15     99    101 323.5  -8.8  33610  280.32 0864.86
2015 04 09 09 34 58 .00     -76     82    -12    113    114 317.2  -6.2  33612  280.37 0864.86
2015 04 09 09 34 58 .25     -69     56     -3     89     90 309.1  -2.2  33614  280.38 0864.86
2015 04 09 09 34 58 .50     -40     78     -8     88     89 332.8  -5.6  33620  280.48 0864.86
2015 04 09 09 34 58 .75     -52     76     -9     93     94 325.7  -5.6  33620  280.50 0864.86
2015 04 09 09 34 59 .00     -41     87     -3     97     98 334.6  -2.2  33626  280.58 0864.86
2015 04 09 09 34 59 .25     -56     52     -5     77     78 313.2  -4.1  33616  280.42 0864.86
2015 04 09 09 34 59 .51     -54     58    -15     80     82 316.8 -10.9  33594  280.05 0864.86
2015 04 09 09 34 59 .75     -43     76      0     88     89 330.6  -0.3  33620  280.48 0864.86
2015 04 09 09 35 00 .00     -36     55    -13     66     68 326.6 -11.3  33616  280.43 0864.86
2015 04 09 09 35 00 .26     -60     50    -19     79     82 309.6 -13.4  33610  280.33 0864.86
2015 04 09 09 35 00 .51     -28     73     23     79     83 338.6  16.3  33628  280.62 0864.86
2015 04 09 09 35 00 .76     -32     68     -4     76     77 334.5  -3.1  33610  280.33 0864.86
2015 04 09 09 35 01 .02     -40     71     16     82     84 330.1  11.6  33616  280.42 0864.86
2015 04 09 09 35 01 .27     -26     79      9     84     85 341.3   6.5  33608  280.28 0864.87
2015 04 09 09 35 01 .52     -19     64     26     67     71 343.1  22.0  33618  280.47 0864.87
2015 04 09 09 35 01 .76     -28     71     43     77     88 338.2  31.4  33610  280.33 0864.87
2015 04 09 09 35 02 .02     -30     89     33     95    101 341.3  19.4  33584  279.90 0864.87
2015 04 09 09 35 02 .27     -31     85     17     91     93 339.5  11.1  33596  280.08 0864.87
2015 04 09 09 35 02 .52     -32     84     51     91    104 339.1  31.9  33604  280.23 0864.87
2015 04 09 09 35 02 .77     -20     24      7     32     33 320.4  13.2  33610  280.32 0864.87
2015 04 09 09 35 03 .02     -15     26      1     31     32 329.3   2.8  33596  280.08 0864.87
2015 04 09 09 35 03 .27     -18     49     59     53     79 339.1  52.7  33626  280.58 0864.87
2015 04 09 09 35 03 .52     -37     40     68     55     87 316.8  56.9  33632  280.68 0864.87
2015 04 09 09 35 03 .77     -34     46     63     58     85 323.0  52.2  33618  280.45 0864.87
2015 04 09 09 35 04 .02     -61     40     27     73     77 303.3  20.0  33612  280.35 0864.87
2015 04 09 09 35 04 .27     -55     25     57     61     83 294.4  48.5  33606  280.25 0864.87
2015 04 09 09 35 04 .52     -55     20     -4     59     60 290.8  -4.1  33606  280.25 0864.87
2015 04 09 09 35 04 .78     -32     11     24     35     42 290.0  37.6  33604  280.23 0864.87
2015 04 09 09 35 05 .03     -26     26     44     37     57 314.9  56.3  33618  280.47 0864.87
2015 04 09 09 35 05 .27     -34     27      3     44     45 308.6   4.9  33624  280.55 0864.87
2015 04 09 09 35 05 .53     -59     19    -17     63     66 288.2 -15.4  33598  280.13 0864.87
2015 04 09 09 35 05 .78     -58     17     -7     61     62 286.8  -7.2  33596  280.08 0864.87
2015 04 09 09 35 06 .03     -69     27    -12     75     77 291.7  -9.3  33608  280.28 0864.87
2015 04 09 09 35 06 .28     -67     23     -2     71     72 289.1  -2.2  33604  280.23 0864.87
2015 04 09 09 35 06 .53     -67     23    -11     71     72 289.1  -9.3  33602  280.20 0864.87
2015 04 09 09 35 06 .77     -59     28     -9     66     67 295.3  -8.2  33602  280.20 0864.87
2015 04 09 09 35 07 .03     -61     30    -12     68     70 296.2 -10.3  33598  280.13 0864.87
2015 04 09 09 35 07 .28     -37     35     -2     52     53 313.1  -2.2  33606  280.27 0864.87
2015 04 09 09 35 07 .54     -37     34     13     51     53 313.1  14.3  33616  280.42 0864.87
2015 04 09 09 35 07 .79     -57     39     -8     70     71 304.2  -7.2  33598  280.13 0864.87
2015 04 09 09 35 08 .04     -61     30    -12     68     70 296.2 -10.3  33598  280.13 0864.87
2015 04 09 09 35 08 .29     -73     35    -18     82     84 295.8 -12.4  33616  280.43 0864.87
2015 04 09 09 35 08 .54     -62     17     -5     65     66 285.9  -5.2  33628  280.62 0864.87
2015 04 09 09 35 08 .79     -24     24     12     34     37 314.9  19.4  33644  280.90 0864.87
2015 04 09 09 35 09 .04     -16     21     29     27     39 322.2  51.2  33640  280.83 0864.87
2015 04 09 09 35 09 .30     -25      5     20     26     32 281.5  43.7  33654  281.05 0864.87
2015 04 09 09 35 09 .54     -12    -13     24     18     30 223.4  58.5  33660  281.15 0864.87
2015 04 09 09 35 09 .79      -8    -20     15     22     26 203.6  35.6  33654  281.05 0864.87
2015 04 09 09 35 10 .05     -15    -15      0     22     23 225.0   0.8  33654  281.05 0864.87
2015 04 09 09 35 10 .29     -29     -8     -4     31     32 253.2  -7.3  33640  280.82 0864.87
2015 04 09 09 35 10 .54     -30     17     -4     35     36 300.7  -7.3  33622  280.53 0864.87
2015 04 09 09 35 10 .80     -30     17     -4     35     36 300.7  -7.3  33614  280.38 0864.87
2015 04 09 09 35 11 .05     -16     21     16     27     31 322.2  33.5  33626  280.58 0864.87
2015 04 09 09 35 11 .30     -16     24     20     30     36 325.7  35.6  33620  280.48 0864.87
2015 04 09 09 35 11 .55      -8     24     -3     26     27 341.3  -7.3  33616  280.42 0864.87
2015 04 09 09 35 11 .80      -9     39     -4     41     42 346.6  -6.2  33610  280.32 0864.87
2015 04 09 09 35 12 .05     -15     47     17     50     53 342.2  18.9  33606  280.25 0864.87
2015 04 09 09 35 12 .30      -5     40     -6     41     42 352.9  -9.3  33596  280.08 0864.87
2015 04 09 09 35 12 .55      -7     35     -3     36     37 348.4  -5.2  33590  279.98 0864.87
2015 04 09 09 35 12 .80      -4     23     -6     24     25 348.4 -15.5  33586  279.93 0864.87
2015 04 09 09 35 13 .05     -24     40     -5     47     48 329.3  -6.2  33584  279.90 0864.87
2015 04 09 09 35 13 .30     -46     43     -9     64     65 313.2  -8.2  33578  279.80 0864.87
2015 04 09 09 35 13 .55     -40     64     -4     76     77 327.5  -3.1  33586  279.92 0864.87
2015 04 09 09 35 13 .81     -43     91      5    101    102 334.6   2.9  33570  279.65 0864.88
2015 04 09 09 35 14 .05     -27    102     -4    106    107 344.9  -2.2  33580  279.82 0864.88
2015 04 09 09 35 14 .30     -40     87     -4     96     97 335.1  -2.6  33590  279.98 0864.88
2015 04 09 09 35 14 .57     -37     99     -4    106    107 339.1  -2.2  33594  280.05 0864.88
2015 04 09 09 35 14 .82     -43     67      6     80     81 327.4   4.9  33602  280.20 0864.88
2015 04 09 09 35 15 .07     -46     48     23     67     72 315.9  19.2  33614  280.38 0864.88
2015 04 09 09 35 15 .32     -33     58     18     67     70 330.1  15.2  33602  280.20 0864.88
2015 04 09 09 35 15 .57     -32     68      3     76     77 334.5   2.8  33594  280.05 0864.88
2015 04 09 09 35 15 .82     -25     67     -1     72     73 339.1  -1.3  33590  280.00 0864.88
2015 04 09 09 35 16 .07     -35     54     15     65     67 326.6  13.2  33604  280.23 0864.88
2015 04 09 09 35 16 .32     -36     38     16     53     56 316.8  17.3  33614  280.38 0864.88
2015 04 09 09 35 16 .57     -31     52     55     61     82 329.3  47.5  33610  280.33 0864.88
2015 04 09 09 35 16 .82     -30     49     51     58     77 328.4  45.8  33626  280.58 0864.88
2015 04 09 09 35 17 .07     -15     45     22     48     52 340.8  27.1  33624  280.57 0864.88
2015 04 09 09 35 17 .32     -15     44     23     47     52 340.8  27.3  33612  280.37 0864.88
2015 04 09 09 35 17 .57     -33     41     33     53     62 321.3  35.5  33618  280.45 0864.88
2015 04 09 09 35 17 .82     -21     37     18     43     46 330.1  23.0  33624  280.57 0864.88
2015 04 09 09 35 18 .07     -18     41     33     45     55 336.4  39.7  33614  280.38 0864.88
2015 04 09 09 35 18 .32     -24     50     12     56     58 334.5  12.2  33578  279.80 0864.87
2015 04 09 09 35 18 .57     -20     62     14     66     68 341.7  12.2  33558  279.47 0864.87
2015 04 09 09 35 18 .83     -17     63      4     66     67 344.8   3.8  33552  279.37 0864.87
2015 04 09 09 35 19 .08      -8     56      6     57     58 351.1   6.9  33566  279.58 0864.87
2015 04 09 09 35 19 .33     -12     62     18     64     67 348.4  16.3  33572  279.70 0864.87
2015 04 09 09 35 19 .58     -13     36     33     39     51 340.0  44.8  33598  280.12 0864.87
2015 04 09 09 35 19 .83     -22     33     29     40     49 325.7  39.7  33598  280.13 0864.87
2015 04 09 09 35 20 .08     -29     28     48     41     63 314.0  55.4  33600  280.15 0864.87
2015 04 09 09 35 20 .33     -26     27     33     38     50 316.8  44.8  33614  280.38 0864.88
2015 04 09 09 35 20 .58     -17      9     46     20     50 297.1  74.0  33656  281.10 0864.88
2015 04 09 09 35 20 .83     -43     -8     29     44     52 259.4  35.6  33628  280.63 0864.88
2015 04 09 09 35 21 .08     -30     20     29     37     47 304.2  42.7  33616  280.43 0864.88
2015 04 09 09 35 21 .33     -32     24     40     41     57 306.9  51.1  33616  280.42 0864.88
2015 04 09 09 35 21 .59     -31      9      6     33     34 286.8  11.1  33592  280.03 0864.88
2015 04 09 09 35 21 .85     -13      8     12     16     20 302.4  41.7  33582  279.87 0864.88
2015 04 09 09 35 22 .09     -30     18     26     36     44 300.7  39.7  33594  280.05 0864.88
2015 04 09 09 35 22 .35     -17      9     33     20     38 297.1  64.7  33608  280.28 0864.88
2015 04 09 09 35 22 .59     -25     -8     14     27     30 251.4  29.3  33612  280.37 0864.88
2015 04 09 09 35 22 .84     -22     17     16     29     33 307.8  31.4  33608  280.28 0864.88
2015 04 09 09 35 23 .10     -24     20     40     32     51 309.6  56.4  33588  279.95 0864.87
2015 04 09 09 35 23 .35     -39     29     26     49     55 306.9  30.3  33622  280.52 0864.87
2015 04 09 09 35 23 .60     -27     17     24     32     40 302.4  40.7  33620  280.50 0864.87
2015 04 09 09 35 23 .85     -16     21     29     27     39 322.2  51.2  33642  280.85 0864.87
2015 04 09 09 35 24 .09     -17     18     34     26     42 316.8  58.5  33658  281.14 0864.87
2015 04 09 09 35 24 .35     -23     13     32     27     41 298.9  55.4  33628  280.63 0864.87
2015 04 09 09 35 24 .60     -28     13     22     32     38 295.2  37.6  33646  280.92 0864.87
2015 04 09 09 35 24 .85     -23      1     22     24     32 272.6  50.0  33664  281.24 0864.87
2015 04 09 09 35 25 .10     -18      2     20     19     27 277.9  48.2  33672  281.37 0864.87
2015 04 09 09 35 25 .35      -6      6     32      9     33 316.6  82.8  33668  281.29 0864.87
2015 04 09 09 35 25 .60      -7      0     31      8     32 265.6  86.9  33674  281.39 0864.87
2015 04 09 09 35 25 .85     -18      1     26     19     32 274.4  60.5  33648  280.97 0864.87
2015 04 09 09 35 26 .10     -23      8     28     25     37 290.0  52.2  33630  280.65 0864.87
2015 04 09 09 35 26 .35     -33     12     43     36     56 290.0  56.3  33616  280.42 0864.87
2015 04 09 09 35 26 .61     -29     17     38     34     50 300.7  53.3  33610  280.33 0864.88
2015 04 09 09 35 26 .85     -32     11     -1     35     36 290.0  -3.1  33622  280.53 0864.88
2015 04 09 09 35 27 .10     -28     13      1     31     32 295.2   2.9  33626  280.58 0864.88
2015 04 09 09 35 27 .35     -14     25     12     29     31 331.0  23.0  33614  280.38 0864.88
2015 04 09 09 35 27 .61     -19     12     17     23     28 302.4  41.7  33620  280.50 0864.88
2015 04 09 09 35 27 .86     -15     12     22     20     29 309.5  50.1  33624  280.57 0864.88
2015 04 09 09 35 28 .11     -23     24     12     34     37 316.6  19.4  33614  280.38 0864.88
2015 04 09 09 35 28 .37     -24     24     22     34     40 314.9  36.5  33610  280.32 0864.87
2015 04 09 09 35 28 .62     -33     21     18     40     43 302.4  25.1  33622  280.52 0864.87
2015 04 09 09 35 28 .87     -20     12     38     24     44 302.4  64.7  33630  280.65 0864.87
2015 04 09 09 35 29 .12     -24      9     22     26     34 291.7  45.8  33618  280.45 0864.87
2015 04 09 09 35 29 .37     -16     22     16     28     32 323.9  33.5  33622  280.53 0864.87
2015 04 09 09 35 29 .62     -10     21     26     24     35 332.8  50.1  33610  280.32 0864.87
2015 04 09 09 35 29 .87     -42     10     31     44     53 283.3  38.6  33612  280.37 0864.87
2015 04 09 09 35 30 .12     -30     18     33     36     48 300.7  49.0  33608  280.28 0864.87
2015 04 09 09 35 30 .37     -27     17     37     32     48 302.4  53.3  33602  280.18 0864.87
2015 04 09 09 35 30 .62     -30     18     26     36     44 300.7  39.7  33606  280.25 0864.87
2015 04 09 09 35 30 .87     -25     21     33     33     46 309.6  50.1  33594  280.07 0864.87
2015 04 09 09 35 31 .12     -22     17     41     29     50 307.8  61.5  33586  279.92 0864.88
2015 04 09 09 35 31 .37     -30     18     33     36     48 300.7  49.0  33588  279.97 0864.88
2015 04 09 09 35 31 .62     -27     17     37     32     48 302.4  53.3  33586  279.92 0864.88
2015 04 09 09 35 31 .88     -27     24     57     37     67 311.3  64.6  33600  280.15 0864.88
2015 04 09 09 35 32 .14     -25     26     43     37     56 316.6  54.3  33600  280.15 0864.88
2015 04 09 09 35 32 .38     -13      1     37     14     39 277.9  81.2  33620  280.48 0864.88
2015 04 09 09 35 32 .63     -28     13     42     32     52 295.2  57.5  33616  280.43 0864.88
2015 04 09 09 35 32 .88     -13     22     46     26     52 329.3  67.7  33608  280.28 0864.87
2015 04 09 09 35 33 .13     -30     25     53     40     66 309.5  59.4  33612  280.37 0864.87
2015 04 09 09 35 33 .38     -14     17     44     23     49 320.4  70.8  33640  280.82 0864.87
2015 04 09 09 35 33 .63     -35      9     36     37     51 285.1  50.0  33656  281.09 0864.87
2015 04 09 09 35 33 .88     -18      6     18     19     26 288.6  50.0  33656  281.09 0864.87
2015 04 09 09 35 34 .13     -14    -20     17     25     30 216.1  37.6  33652  281.04 0864.87
2015 04 09 09 35 34 .38     -34    -25     18     43     46 234.0  23.0  33646  280.92 0864.87
2015 04 09 09 35 34 .63     -20      4     -1     21     22 283.3  -3.1  33638  280.78 0864.87
2015 04 09 09 35 34 .88     -42      3      0     43     44 275.2  -0.3  33622  280.53 0864.87
2015 04 09 09 35 35 .13     -61     31    -11     69     70 297.1  -9.3  33598  280.12 0864.87
2015 04 09 09 35 35 .40     -30     24     -1     39     40 309.5  -2.2  33608  280.30 0864.87
2015 04 09 09 35 35 .65     -28    -13     24     32     40 244.6  40.7  33648  280.95 0864.87
2015 04 09 09 35 35 .90     -52     10     38     54     66 281.5  38.6  33628  280.63 0864.87
2015 04 09 09 35 36 .15     -45    -12     20     47     51 254.1  24.1  33630  280.65 0864.87
2015 04 09 09 35 36 .40     -45    -27      0     53     54 239.3   0.8  33622  280.53 0864.87
2015 04 09 09 35 36 .65     -43      4    -16     44     46 276.1 -24.4  33618  280.47 0864.88
2015 04 09 09 35 36 .89     -56     31    -19     65     67 298.9 -21.7  33606  280.25 0864.88
2015 04 09 09 35 37 .15    -100     62    -29    118    122 302.0 -13.9  33608  280.28 0864.88
2015 04 09 09 35 37 .40    -149     42    -30    155    158 285.9 -11.1  33610  280.33 0864.88
2015 04 09 09 35 37 .65    -151     -6     -5    152    153 267.5  -2.2  33626  280.60 0864.88
2015 04 09 09 35 37 .90    -104     32     -2    109    110 287.3  -1.2  33626  280.58 0864.88
2015 04 09 09 35 38 .15     -55      1     24     56     60 271.7  24.1  33632  280.70 0864.88
2015 04 09 09 35 38 .40     -44    -22      2     50     51 242.9   2.9  33646  280.92 0864.87
2015 04 09 09 35 38 .65      -6      0     24      7     25 265.6  82.8  33654  281.05 0864.87
2015 04 09 09 35 38 .91     -36     55    -13     66     68 326.6 -11.3  33628  280.63 0864.87
2015 04 09 09 35 39 .16     -16     84      5     86     87 348.9   3.8  33636  280.77 0864.87
2015 04 09 09 35 39 .41     -70     82      5    109    110 319.5   2.9  33634  280.72 0864.87
2015 04 09 09 35 39 .66     -51     97     -1    110    111 331.9  -0.7  33656  281.10 0864.87
2015 04 09 09 35 39 .90     -47    125      1    134    135 339.1   0.7  33622  280.52 0864.87
2015 04 09 09 35 40 .16     -58    123     -6    137    138 334.5  -2.6  33634  280.72 0864.87
2015 04 09 09 35 40 .41     -50     74     27     90     94 326.2  16.8  33640  280.83 0864.87
2015 04 09 09 35 40 .66     -81     67     21    106    109 309.5  11.1  33634  280.72 0864.87
2015 04 09 09 35 40 .91     -75     77     29    108    112 315.9  15.2  33604  280.23 0864.87
2015 04 09 09 35 41 .16     -94     80     14    124    125 310.4   6.9  33598  280.12 0864.87
2015 04 09 09 35 41 .41     -82     80     44    115    123 314.4  21.5  33612  280.35 0864.87
2015 04 09 09 35 41 .66     -64     88     38    110    117 323.9  19.4  33614  280.40 0864.87
2015 04 09 09 35 41 .91    -110    103    -12    152    153 313.1  -4.6  33556  279.42 0864.87
2015 04 09 09 35 42 .16     -81     52      8     97     98 302.9   4.9  33598  280.13 0864.87
2015 04 09 09 35 42 .42     -60     64     53     88    102 316.8  34.0  33602  280.20 0864.87
2015 04 09 09 35 42 .67     -84     80      4    117    118 313.6   2.3  33632  280.68 0864.87
2015 04 09 09 35 42 .92     -80     90      1    121    122 318.6   0.8  33632  280.70 0864.87
2015 04 09 09 35 43 .17     -69     63     18     94     96 312.7  11.0  33640  280.82 0864.87
2015 04 09 09 35 43 .42     -45     54     20     71     74 320.3  16.3  33626  280.58 0864.87
2015 04 09 09 35 43 .68     -61     55     14     83     85 311.8   9.5  33614  280.38 0864.88
2015 04 09 09 35 43 .92    -124     68    -18    142    144 298.9  -7.3  33556  279.43 0864.88
2015 04 09 09 35 44 .17    -120     56    -31    133    137 295.2 -13.3  33556  279.42 0864.88
2015 04 09 09 35 44 .42    -113     61    -35    129    134 298.4 -15.5  33526  278.93 0864.88
2015 04 09 09 35 44 .67    -108     60    -39    124    131 299.3 -17.6  33528  278.97 0864.88
2015 04 09 09 35 44 .92    -111     69    -30    132    136 302.0 -12.9  33528  278.95 0864.88
2015 04 09 09 35 45 .17    -117     69    -27    137    140 300.7 -11.3  33526  278.93 0864.88
2015 04 09 09 35 45 .42    -116     65    -32    134    138 299.3 -13.4  33530  278.98 0864.88
2015 04 09 09 35 45 .67    -104     68    -34    125    130 303.3 -15.5  33528  278.97 0864.88
2015 04 09 09 35 45 .92    -102     64    -35    121    125 302.0 -21.2  33528  278.95 0864.88
2015 04 09 09 35 46 .17    -102     64    -35    121    125 302.0 -21.2  33528  278.95 0864.88
2015 04 09 09 35 46 .43     -98     65    -42    118    126 303.7 -19.6  33530  278.98 0864.88
2015 04 09 09 35 46 .68     -95     65    -36    116    122 304.2 -17.6  33532  279.03 0864.88
2015 04 09 09 35 46 .93     -91     61    -32    110    115 303.7 -16.6  33538  279.12 0864.88
2015 04 09 09 35 47 .18     -95     64    -31    115    120 304.2 -15.0  33546  279.27 0864.88
2015 04 09 09 35 47 .43     -97     70    -23    120    123 306.0 -10.9  33536  279.10 0864.87
2015 04 09 09 35 47 .68     -98     66    -19    119    121 303.7  -9.4  33534  279.07 0864.87
2015 04 09 09 35 47 .93     -95     67    -15    117    118 305.1  -7.3  33536  279.10 0864.87
2015 04 09 09 35 48 .18     -78     68    -23    104    107 311.3 -12.9  33536  279.10 0864.87
2015 04 09 09 35 48 .43     -77     76    -30    109    114 314.6 -15.5  33536  279.10 0864.87
2015 04 09 09 35 48 .68     -74     82    -27    111    115 317.7 -13.9  33538  279.13 0864.87
2015 04 09 09 35 48 .94     -74     74    -29    106    110 315.0 -15.4  33532  279.03 0864.87
2015 04 09 09 35 49 .19     -62     76    -27     99    103 320.8 -15.5  33544  279.23 0864.87
2015 04 09 09 35 49 .45     -63     63    -12     90     91 315.0  -7.7  33558  279.47 0864.87
2015 04 09 09 35 49 .70     -64     79    -22    102    105 320.8 -12.4  33544  279.23 0864.87
2015 04 09 09 35 49 .94     -57     80    -26     99    103 324.4 -15.0  33534  279.07 0864.87
2015 04 09 09 35 50 .20     -67     76    -24    102    105 318.6 -13.4  33536  279.10 0864.87
2015 04 09 09 35 50 .45     -48     76    -18     91     93 327.5 -11.3  33556  279.42 0864.87
2015 04 09 09 35 50 .70     -50     73     -5     89     90 325.3  -3.7  33558  279.45 0864.87
2015 04 09 09 35 50 .95     -36     86     -5     94     95 337.3  -3.1  33536  279.08 0864.87
2015 04 09 09 35 51 .20     -45     95     -9    106    107 334.7  -5.2  33544  279.22 0864.87
2015 04 09 09 35 51 .45     -43     92    -13    102    103 334.6  -7.3  33556  279.42 0864.87
2015 04 09 09 35 51 .70     -36     86      0     94     95 337.3   0.2  33556  279.42 0864.87
2015 04 09 09 35 51 .95     -39     83     -2     92     93 334.6  -1.8  33558  279.45 0864.87
2015 04 09 09 35 52 .20     -38     66     -1     77     78 330.1  -1.3  33554  279.38 0864.87
2015 04 09 09 35 52 .46     -37     51      4     64     65 323.9   3.8  33574  279.73 0864.87
2015 04 09 09 35 52 .71     -34     53     22     64     68 327.4  19.4  33574  279.73 0864.87
2015 04 09 09 35 52 .96     -34     46     38     58     69 323.0  35.6  33574  279.72 0864.87
2015 04 09 09 35 53 .20     -21     43      9     48     49 333.7  11.1  33574  279.72 0864.87
2015 04 09 09 35 53 .46     -25     38     15     46     49 325.7  18.9  33584  279.90 0864.87
2015 04 09 09 35 53 .71     -37     40     23     55     59 316.8  23.1  33590  280.00 0864.87
2015 04 09 09 35 53 .95     -30     67      1     74     75 335.5   0.8  33576  279.77 0864.87
2015 04 09 09 35 54 .21     -41     70      1     82     83 329.7   1.2  33572  279.70 0864.87
2015 04 09 09 35 54 .46     -36     47      7     60     61 323.0   7.1  33584  279.90 0864.87
2015 04 09 09 35 54 .71     -25     64      8     69     70 338.1   7.1  33590  279.98 0864.87
2015 04 09 09 35 54 .96     -39     61     33     73     80 327.4  26.2  33602  280.18 0864.87
2015 04 09 09 35 55 .21     -40     45     40     61     72 318.6  35.6  33602  280.20 0864.87
2015 04 09 09 35 55 .46     -32     39     26     51     57 320.4  28.2  33606  280.25 0864.87
2015 04 09 09 35 55 .71     -15     23     18     28     33 327.5  35.6  33600  280.15 0864.87
2015 04 09 09 35 55 .96     -35     24     -3     43     44 305.1  -5.2  33590  280.00 0864.87
2015 04 09 09 35 56 .22     -24     41     29     48     56 329.3  35.5  33598  280.13 0864.87
2015 04 09 09 35 56 .47     -30     37     42     48     63 321.3  46.9  33614  280.38 0864.87
2015 04 09 09 35 56 .73     -38     21     33     44     55 298.9  40.7  33598  280.13 0864.87
2015 04 09 09 35 56 .97     -40     33     38     52     64 309.5  39.7  33598  280.13 0864.87
2015 04 09 09 35 57 .22     -42     26     42     50     65 302.4  43.8  33598  280.13 0864.87
2015 04 09 09 35 57 .47     -24     25     29     35     45 316.6  44.8  33610  280.32 0864.87
2015 04 09 09 35 57 .73     -41     43     38     60     71 315.8  35.5  33608  280.28 0864.87
2015 04 09 09 35 57 .97     -33     33     20     47     51 315.0  24.1  33616  280.43 0864.87
2015 04 09 09 35 58 .22     -26     36     26     45     51 323.9  32.4  33618  280.47 0864.87
2015 04 09 09 35 58 .48     -31     36     35     48     59 319.5  39.7  33612  280.37 0864.87
2015 04 09 09 35 58 .73     -43     36     35     57     66 309.5  35.5  33618  280.47 0864.87
2015 04 09 09 35 58 .98     -36     36     32     51     60 315.0  35.5  33618  280.47 0864.87
2015 04 09 09 35 59 .23     -31     52     29     61     67 329.3  27.2  33626  280.58 0864.87
2015 04 09 09 35 59 .48     -35     47     16     59     62 323.0  15.2  33624  280.55 0864.87
2015 04 09 09 35 59 .73     -18     41     40     45     60 336.4  46.9  33614  280.40 0864.87
2015 04 09 09 35 59 .98     -34     46     31     58     65 323.0  31.3  33622  280.52 0864.86
2015 04 09 09 36 00 .23     -37     40     35     55     65 316.8  35.5  33624  280.57 0864.86
2015 04 09 09 36 00 .48     -23     25     23     35     41 316.8  36.5  33630  280.67 0864.86
2015 04 09 09 36 00 .73     -33     72     24     80     84 335.5  17.3  33614  280.38 0864.86
2015 04 09 09 36 00 .98     -21     65     17     69     72 342.2  14.3  33602  280.20 0864.86
2015 04 09 09 36 01 .23     -11     58     21     60     64 348.5  19.2  33604  280.23 0864.86
2015 04 09 09 36 01 .48     -31     93     11     99    100 341.3   6.9  33588  279.95 0864.86
2015 04 09 09 36 01 .73     -23     95     -1     98     99 346.2  -0.7  33588  279.97 0864.86
2015 04 09 09 36 01 .98     -31     94     -9    100    101 341.7  -5.2  33564  279.57 0864.86
2015 04 09 09 36 02 .23     -31     87     -2     93     94 340.4  -1.8  33558  279.45 0864.86
2015 04 09 09 36 02 .48     -36     86     -5     94     95 337.3  -3.1  33560  279.50 0864.86
2015 04 09 09 36 02 .74     -34     99      3    105    106 340.8   1.8  33572  279.68 0864.86
2015 04 09 09 36 02 .99     -37     78      5     87     88 334.6   3.8  33564  279.55 0864.86
2015 04 09 09 36 03 .25     -48     68    -17     84     86 324.8 -11.9  33566  279.58 0864.86
2015 04 09 09 36 03 .50     -51     51     -9     73     74 315.0  -7.2  33574  279.72 0864.86
2015 04 09 09 36 03 .75     -45     48     -2     66     67 316.7  -2.2  33576  279.75 0864.85
2015 04 09 09 36 04 .00     -37     49      0     62     63 323.0   0.8  33580  279.82 0864.85
2015 04 09 09 36 04 .25     -37     49      0     62     63 323.0   0.8  33580  279.82 0864.85
2015 04 09 09 36 04 .50     -39     39     -3     56     57 315.0  -3.1  33586  279.92 0864.85
2015 04 09 09 36 04 .75     -31     35      8     47     48 318.6  10.1  33596  280.10 0864.85
2015 04 09 09 36 05 .01     -60     26     -3     66     67 293.5  -3.2  33606  280.25 0864.85
2015 04 09 09 36 05 .25     -50     64     41     82     91 321.7  28.2  33620  280.48 0864.85
2015 04 09 09 36 05 .50     -43     45     42     63     75 315.9  35.6  33638  280.80 0864.85
2015 04 09 09 36 05 .75     -33     30     31     45     54 312.2  37.6  33636  280.77 0864.85
2015 04 09 09 36 06 .00     -30     46     19     56     60 326.6  19.2  33624  280.55 0864.85
2015 04 09 09 36 06 .26     -43     52      0     68     69 320.4   0.8  33632  280.70 0864.85
2015 04 09 09 36 06 .51     -37     58     23     69     73 327.4  18.9  33676  281.44 0864.85
2015 04 09 09 36 06 .76     -51     63      0     82     83 321.3  -0.3  33632  280.70 0864.85
2015 04 09 09 36 07 .01     -94     30     -4     99    100 288.2  -2.6  33576  279.77 0864.85
2015 04 09 09 36 07 .26     -91     50    -10    104    105 298.9  -5.6  33586  279.93 0864.85
2015 04 09 09 36 07 .51     -97     53    -15    111    113 298.8  -7.7  33578  279.80 0864.85
2015 04 09 09 36 07 .76     -86     55    -30    103    107 302.4 -21.2  33560  279.50 0864.85
2015 04 09 09 36 08 .01     -48     45     -9     66     67 313.2  -8.2  33642  280.87 0864.85
2015 04 09 09 36 08 .26     -58     58     41     83     92 315.0  27.8  33650  280.99 0864.85
2015 04 09 09 36 08 .51     -35     33     41     49     63 313.1  44.8  33666  281.25 0864.85
2015 04 09 09 36 08 .76     -84     39    -15     93     95 294.8  -9.3  33556  279.43 0864.85
2015 04 09 09 36 09 .01     -75     31    -12     82     83 292.6  -8.8  33630  280.65 0864.85
2015 04 09 09 36 09 .26     -50     41     28     65     70 309.5  25.1  33642  280.85 0864.85
2015 04 09 09 36 09 .51     -43     35     35     56     66 309.6  35.5  33634  280.72 0864.85
2015 04 09 09 36 09 .76     -48     36     44     60     74 306.9  39.7  33646  280.92 0864.85
2015 04 09 09 36 10 .01     -31     49     39     59     70 327.4  35.6  33640  280.82 0864.85
2015 04 09 09 36 10 .27     -31     49     46     59     74 327.4  42.7  33638  280.80 0864.85
2015 04 09 09 36 10 .52     -49     13     25     51     56 285.1  27.3  33638  280.78 0864.85
2015 04 09 09 36 10 .77     -36      8      1     37     38 283.3   2.8  33640  280.83 0864.85
2015 04 09 09 36 11 .03     -24     -2     -9     25     27 263.9 -19.7  33640  280.82 0864.85
2015 04 09 09 36 11 .27     -32    -16      8     37     39 242.9  13.2  33646  280.93 0864.85
2015 04 09 09 36 11 .52     -87     22     -3     90     91 284.2  -2.2  33568  279.62 0864.85
2015 04 09 09 36 11 .78     -99     26    -19    103    105 285.1 -10.9  33552  279.37 0864.85
2015 04 09 09 36 12 .03     -91     43     -8    101    102 295.3  -4.6  33564  279.57 0864.85
2015 04 09 09 36 12 .28     -94     39    -12    102    103 292.6  -7.2  33562  279.53 0864.85
2015 04 09 09 36 12 .53     -86     43    -11     97     98 296.6  -6.7  33562  279.53 0864.85
2015 04 09 09 36 12 .78     -80     39    -11     90     91 296.2  -7.3  33572  279.70 0864.85
2015 04 09 09 36 13 .03     -76     39     -6     86     87 297.5  -4.6  33576  279.75 0864.85
2015 04 09 09 36 13 .28     -75     47     -5     89     90 302.4  -3.7  33572  279.70 0864.85
2015 04 09 09 36 13 .53     -64     26    -14     70     72 291.8 -11.5  33582  279.85 0864.85
2015 04 09 09 36 13 .78     -33     10     12     35     38 288.2  19.4  33598  280.13 0864.85
2015 04 09 09 36 14 .03     -17     39      5     43     44 336.4   6.9  33604  280.23 0864.85
2015 04 09 09 36 14 .29     -51     39    -18     65     68 307.8 -15.5  33588  279.97 0864.85
2015 04 09 09 36 14 .53     -34     51    -11     62     64 325.7 -10.3  33590  280.00 0864.85
2015 04 09 09 36 14 .78     -38     60     -9     72     73 327.4  -7.2  33588  279.97 0864.85
2015 04 09 09 36 15 .04     -27     56      3     63     64 334.5   2.8  33596  280.10 0864.85
2015 04 09 09 36 15 .29     -39     50     -8     64     65 322.2  -7.3  33590  279.98 0864.85
2015 04 09 09 36 15 .54     -44     32     -7     55     56 306.0  -7.3  33596  280.08 0864.85
2015 04 09 09 36 15 .79     -30     50      0     59     60 329.3  -0.3  33604  280.23 0864.85
2015 04 09 09 36 16 .04     -22     47      0     53     54 334.7   0.8  33608  280.28 0864.85
2015 04 09 09 36 16 .29     -18     47     26     51     57 339.1  28.2  33618  280.47 0864.85
2015 04 09 09 36 16 .54     -41     70     -3     82     83 329.7  -2.2  33632  280.70 0864.85
2015 04 09 09 36 16 .79     -19     88     32     91     97 347.5  19.4  33618  280.47 0864.85
2015 04 09 09 36 17 .05     -29     98     28    103    107 343.1  15.3  33614  280.38 0864.85
2015 04 09 09 36 17 .30     -21     98      7    101    102 347.5   4.4  33626  280.58 0864.85
2015 04 09 09 36 17 .55     -37    100      5    107    108 339.5   2.8  33602  280.18 0864.85
2015 04 09 09 36 17 .80     -63     63      6     90     91 315.0   3.8  33606  280.27 0864.85
2015 04 09 09 36 18 .06     -65     44      6     79     80 304.2   4.4  33614  280.38 0864.85
2015 04 09 09 36 18 .30     -40     78     -8     88     89 332.8  -5.6  33622  280.53 0864.85
2015 04 09 09 36 18 .56     -30     69     26     76     81 336.4  19.4  33650  280.99 0864.85
2015 04 09 09 36 18 .80     -48     68     51     84     98 324.8  34.4  33618  280.45 0864.85
2015 04 09 09 36 19 .05     -35     53     24     64     68 326.6  20.0  33618  280.45 0864.86
2015 04 09 09 36 19 .30     -46     63     11     79     80 324.0   8.0  33588  279.95 0864.86
2015 04 09 09 36 19 .55     -74     55     -6     93     94 306.4  -3.7  33562  279.53 0864.86
2015 04 09 09 36 19 .81     -64     79    -22    102    105 320.8 -12.4  33566  279.60 0864.86
2015 04 09 09 36 20 .05     -55     75      0     94     95 323.5   0.2  33570  279.67 0864.86
2015 04 09 09 36 20 .31     -73     74    -18    105    107 315.5  -9.8  33550  279.32 0864.86
2015 04 09 09 36 20 .56     -73     78    -16    108    110 316.8  -8.8  33556  279.43 0864.86
2015 04 09 09 36 20 .81     -76     72     -1    105    106 313.6  -0.7  33568  279.62 0864.86
2015 04 09 09 36 21 .06     -91     75    -16    118    120 309.5  -7.7  33548  279.28 0864.86
2015 04 09 09 36 21 .31     -86     68    -12    110    111 308.2  -6.7  33544  279.23 0864.86
2015 04 09 09 36 21 .56     -86     68    -19    110    112 308.2 -10.3  33540  279.15 0864.86
2015 04 09 09 36 21 .81     -74     59    -19     95     97 308.6 -11.3  33536  279.10 0864.86
2015 04 09 09 36 22 .06     -71     62    -16     95     97 311.3  -9.8  33536  279.08 0864.86
2015 04 09 09 36 22 .31     -77     77    -22    110    113 315.0 -11.3  33532  279.03 0864.86
2015 04 09 09 36 22 .56     -72     78    -25    107    110 317.2 -13.4  33530  279.00 0864.86
2015 04 09 09 36 22 .81     -74     82    -28    111    115 317.7 -14.5  33530  278.98 0864.86
2015 04 09 09 36 23 .06     -72     78    -25    107    110 317.2 -13.4  33530  279.00 0864.86
2015 04 09 09 36 23 .31     -72     78    -25    107    110 317.2 -13.4  33530  279.00 0864.86
2015 04 09 09 36 23 .56     -72     78    -25    107    110 317.2 -13.4  33530  279.00 0864.86
2015 04 09 09 36 23 .81     -65     74    -24     99    103 318.6 -13.9  33528  278.95 0864.86
2015 04 09 09 36 24 .07     -70     75    -21    103    106 316.8 -11.5  33530  278.98 0864.86
2015 04 09 09 36 24 .32     -70     75    -21    103    106 316.8 -11.5  33530  278.98 0864.86
2015 04 09 09 36 24 .58     -72     67    -27     99    103 313.1 -15.5  33530  278.98 0864.87
2015 04 09 09 36 24 .82     -70     75    -21    103    106 316.8 -11.5  33530  278.98 0864.87
2015 04 09 09 36 25 .07     -69     63    -25     94     98 312.2 -15.0  33530  279.00 0864.87
2015 04 09 09 36 25 .33     -68     58    -22     90     93 310.4 -13.9  33530  278.98 0864.87
2015 04 09 09 36 25 .58     -68     58    -13     90     91 310.4  -8.2  33534  279.05 0864.87
2015 04 09 09 36 25 .83     -74     59    -19     95     97 308.6 -11.3  33530  279.00 0864.87
2015 04 09 09 36 26 .08     -60     60    -10     85     86 314.9  -7.3  33542  279.18 0864.87
2015 04 09 09 36 26 .33     -62     62    -22     89     92 315.0 -13.9  33536  279.08 0864.87
2015 04 09 09 36 26 .58     -59     62    -15     86     88 316.3 -10.3  33532  279.02 0864.87
2015 04 09 09 36 26 .83     -55     62    -17     84     86 318.6 -11.9  33530  279.00 0864.87
2015 04 09 09 36 27 .08     -57     67    -22     89     92 319.5 -13.9  33528  278.97 0864.87
2015 04 09 09 36 27 .33     -56     59    -22     82     85 316.3 -15.0  33536  279.08 0864.87
2015 04 09 09 36 27 .58     -55     62    -17     84     86 318.6 -11.9  33530  279.00 0864.87
2015 04 09 09 36 27 .84     -62     54    -21     83     86 311.3 -14.5  33532  279.03 0864.87
2015 04 09 09 36 28 .08     -57     54    -22     79     83 313.2 -16.0  33530  279.00 0864.87
2015 04 09 09 36 28 .33     -57     54    -22     79     83 313.2 -16.0  33530  279.00 0864.87
2015 04 09 09 36 28 .58     -57     54    -22     79     83 313.2 -16.0  33530  279.00 0864.87
2015 04 09 09 36 28 .83     -57     54    -22     79     83 313.2 -16.0  33530  279.00 0864.87
2015 04 09 09 36 29 .09     -49     59    -20     77     80 320.4 -14.5  33542  279.20 0864.86
2015 04 09 09 36 29 .34     -54     63    -10     84     85 319.5  -7.3  33548  279.28 0864.86
2015 04 09 09 36 29 .58     -61     66    -19     91     93 317.2 -11.9  33534  279.05 0864.86
2015 04 09 09 36 29 .83     -55     62    -17     84     86 318.6 -11.9  33530  279.00 0864.86
2015 04 09 09 36 30 .08     -45     63    -22     78     82 324.0 -16.0  33534  279.05 0864.86
2015 04 09 09 36 30 .34     -49     59    -20     77     80 320.4 -14.5  33534  279.05 0864.86
2015 04 09 09 36 30 .59     -51     62    -21     81     84 320.4 -15.0  33532  279.03 0864.86
2015 04 09 09 36 30 .84     -45     54    -14     71     73 320.3 -11.5  33542  279.18 0864.86
2015 04 09 09 36 31 .10     -45     54    -14     71     73 320.3 -11.5  33542  279.18 0864.86
2015 04 09 09 36 31 .35     -42     51    -11     67     68 320.4  -9.3  33550  279.32 0864.86
2015 04 09 09 36 31 .60     -42     51    -12     67     69 320.3 -10.3  33580  279.82 0864.86
2015 04 09 09 36 31 .85     -33     60    -19     69     72 331.0 -15.4  33558  279.47 0864.86
2015 04 09 09 36 32 .12     -38     60    -14     72     74 327.4 -11.3  33576  279.75 0864.86
2015 04 09 09 36 32 .35     -38     60     -9     72     73 327.4  -7.2  33594  280.07 0864.86
2015 04 09 09 36 32 .60     -41     64    -20     77     80 327.5 -14.5  33556  279.42 0864.86
2015 04 09 09 36 32 .85     -33     70     -3     78     79 334.7  -2.2  33574  279.73 0864.86
2015 04 09 09 36 33 .10     -35     71     -4     80     81 333.7  -3.1  33572  279.70 0864.86
2015 04 09 09 36 33 .36     -24     71     -4     76     77 340.8  -3.1  33580  279.82 0864.86
2015 04 09 09 36 33 .60     -31     65     -9     73     74 334.5  -7.2  33576  279.77 0864.86
2015 04 09 09 36 33 .85     -35     64    -10     74     75 331.0  -8.2  33564  279.57 0864.86
2015 04 09 09 36 34 .11     -32     67     -2     75     76 334.5  -2.2  33550  279.32 0864.86
2015 04 09 09 36 34 .35     -31     63      6     71     72 333.7   4.9  33556  279.42 0864.86
2015 04 09 09 36 34 .61     -32     67     -2     75     76 334.5  -2.2  33550  279.32 0864.86
2015 04 09 09 36 34 .86     -25     64     -8     69     70 338.1  -7.3  33548  279.28 0864.86
2015 04 09 09 36 35 .11     -41     56     -9     70     71 323.9  -7.3  33538  279.13 0864.86
2015 04 09 09 36 35 .36     -51     58    -16     78     80 318.6 -11.9  33538  279.13 0864.86
2015 04 09 09 36 35 .61     -47     50    -19     69     72 316.7 -15.5  33540  279.15 0864.86
2015 04 09 09 36 35 .86     -57     54    -22     79     83 313.2 -16.0  33530  279.00 0864.86
2015 04 09 09 36 36 .11     -51     51    -16     73     75 314.9 -12.4  33532  279.03 0864.86
2015 04 09 09 36 36 .36     -54     52    -26     76     81 314.1 -19.1  33532  279.03 0864.86
2015 04 09 09 36 36 .61     -50     55    -20     75     78 317.7 -15.5  33528  278.97 0864.86
2015 04 09 09 36 36 .87     -50     53    -12     74     76 316.8  -9.3  33530  279.00 0864.86
2015 04 09 09 36 37 .11     -50     53    -12     74     76 316.8  -9.3  33534  279.05 0864.86
2015 04 09 09 36 37 .36     -50     53    -12     74     76 316.8  -9.3  33530  279.00 0864.86
2015 04 09 09 36 37 .61     -54     57    -15     79     81 316.8 -10.9  33532  279.02 0864.86
2015 04 09 09 36 37 .87     -42     66    -22     79     83 327.5 -15.5  33532  279.03 0864.86
2015 04 09 09 36 38 .13     -33     68     -9     76     77 333.7  -7.3  33542  279.18 0864.86
2015 04 09 09 36 38 .38     -25     72    -20     77     80 340.8 -14.5  33542  279.20 0864.86
2015 04 09 09 36 38 .63     -31     72     -8     79     80 336.4  -6.2  33556  279.42 0864.86
2015 04 09 09 36 38 .88     -24     87     -5     91     92 344.4  -3.7  33566  279.58 0864.86
2015 04 09 09 36 39 .13     -18     78    -15     81     83 346.6 -10.9  33538  279.13 0864.86
2015 04 09 09 36 39 .38     -19     71    -14     74     76 344.9 -11.3  33542  279.18 0864.86
2015 04 09 09 36 39 .63     -15     75     -4     77     78 348.4  -3.2  33538  279.13 0864.86
2015 04 09 09 36 39 .88      -6     74     -5     75     76 354.7  -4.1  33554  279.38 0864.86
2015 04 09 09 36 40 .13     -21     66     -2     70     71 342.2  -2.2  33552  279.37 0864.86
2015 04 09 09 36 40 .38      -8     71      0     72     73 352.9  -0.3  33562  279.52 0864.86
2015 04 09 09 36 40 .63       1     68     21     69     73   0.9  17.3  33586  279.92 0864.86
2015 04 09 09 36 40 .88      -1     94     25     95     99 359.1  15.2  33594  280.07 0864.86
2015 04 09 09 36 41 .14       0     71     25     72     77   0.0  19.4  33594  280.07 0864.86
2015 04 09 09 36 41 .39     -10     77     19     78     81 352.0  14.3  33610  280.33 0864.86
2015 04 09 09 36 41 .63      -1     86     32     87     92 359.0  20.4  33624  280.55 0864.86
2015 04 09 09 36 41 .88     -19     80     46     83     94 346.6  31.9  33638  280.80 0864.86
2015 04 09 09 36 42 .13     -17     84     35     86     92 348.4  23.0  33596  280.10 0864.86
2015 04 09 09 36 42 .38     -28     75     14     81     83 339.5  10.1  33578  279.78 0864.86
2015 04 09 09 36 42 .64     -23     58     -8     63     64 338.1  -7.2  33550  279.32 0864.86
2015 04 09 09 36 42 .89     -19     63     -7     66     67 343.1  -6.2  33540  279.17 0864.86
2015 04 09 09 36 43 .13     -27     58     -5     65     66 334.5  -5.2  33536  279.08 0864.86
2015 04 09 09 36 43 .39     -27     58     -5     65     66 334.5  -5.2  33536  279.08 0864.86
2015 04 09 09 36 43 .64     -24     52     -7     58     59 334.7  -7.3  33532  279.02 0864.86
2015 04 09 09 36 43 .89     -22     52     -9     57     58 337.3  -9.3  33532  279.03 0864.86
2015 04 09 09 36 44 .14     -16     59     -3     62     63 344.9  -3.1  33536  279.08 0864.86
2015 04 09 09 36 44 .39     -18     55     -1     58     59 341.5  -1.3  33536  279.08 0864.86
2015 04 09 09 36 44 .64     -19     63     -2     66     67 343.1  -2.2  33532  279.03 0864.86
2015 04 09 09 36 44 .90     -16     62     -2     65     66 345.7  -2.2  33534  279.07 0864.86
2015 04 09 09 36 45 .16     -12     59     -1     61     62 348.4  -1.3  33538  279.13 0864.86
2015 04 09 09 36 45 .40     -11     49     13     51     53 346.6  15.3  33576  279.75 0864.87
2015 04 09 09 36 45 .66      -6     52     10     53     55 352.9  11.1  33580  279.83 0864.87
2015 04 09 09 36 45 .91     -11     58     21     60     64 348.5  19.2  33604  280.23 0864.87
2015 04 09 09 36 46 .15     -12     58     21     60     64 348.4  19.4  33614  280.38 0864.87
2015 04 09 09 36 46 .40     -21     54     20     59     63 338.2  18.9  33612  280.37 0864.87
2015 04 09 09 36 46 .66     -14     57     10     59     60 345.7  10.1  33594  280.07 0864.87
2015 04 09 09 36 46 .90     -12     39     10     42     44 342.2  13.2  33598  280.13 0864.87
2015 04 09 09 36 47 .16     -12     36      6     38     39 341.5   9.0  33576  279.77 0864.87
2015 04 09 09 36 47 .40     -13     39      3     42     43 340.8   4.9  33578  279.80 0864.87
2015 04 09 09 36 47 .66     -19     30      0     36     37 327.5   0.8  33572  279.68 0864.87
2015 04 09 09 36 47 .91     -16     43      1     47     48 339.1   1.8  33560  279.50 0864.87
2015 04 09 09 36 48 .16     -14     36      1     39     40 338.2   1.8  33558  279.47 0864.87
2015 04 09 09 36 48 .41     -22     39     -4     45     46 330.1  -5.2  33550  279.33 0864.87
2015 04 09 09 36 48 .66     -22     39     -4     45     46 330.1  -5.2  33548  279.28 0864.87
2015 04 09 09 36 48 .91     -28     44     -4     53     54 327.4  -5.2  33544  279.23 0864.87
2015 04 09 09 36 49 .16     -24     40     -5     47     48 329.3  -6.2  33538  279.13 0864.87
2015 04 09 09 36 49 .42     -22     47     -4     53     54 334.5  -5.2  33542  279.18 0864.87
2015 04 09 09 36 49 .66     -27     47     -9     55     56 330.1  -9.3  33542  279.18 0864.87
2015 04 09 09 36 49 .92     -28     43    -13     52     54 326.6 -14.5  33556  279.42 0864.86
2015 04 09 09 36 50 .16     -26     48    -11     55     57 331.0 -11.3  33560  279.48 0864.86
2015 04 09 09 36 50 .42     -30     64     -2     72     73 334.5  -2.2  33570  279.65 0864.86
2015 04 09 09 36 50 .67     -24     52     -2     58     59 334.5  -2.2  33576  279.75 0864.86
2015 04 09 09 36 50 .92     -23     59     -2     64     65 338.1  -2.2  33584  279.90 0864.86
2015 04 09 09 36 51 .17     -32     40     -2     52     53 321.3  -2.2  33590  280.00 0864.86
2015 04 09 09 36 51 .42     -27     58     -5     65     66 334.5  -5.2  33604  280.22 0864.86
2015 04 09 09 36 51 .67     -31     55     -2     64     65 331.0  -2.2  33614  280.40 0864.86
2015 04 09 09 36 51 .93     -28     38     12     48     50 323.0  14.3  33622  280.53 0864.86
2015 04 09 09 36 52 .18     -40     44     39     60     71 317.7  35.6  33622  280.52 0864.86
2015 04 09 09 36 52 .43     -42     28     41     51     65 303.3  43.7  33618  280.45 0864.86
2015 04 09 09 36 52 .68     -52     41     26     67     71 307.8  22.0  33622  280.53 0864.86
2015 04 09 09 36 52 .93     -32     49     27     59     64 326.6  27.1  33622  280.52 0864.86
2015 04 09 09 36 53 .18     -33     60      3     69     70 331.0   2.8  33616  280.42 0864.86
2015 04 09 09 36 53 .43     -45     55     -2     72     73 320.4  -2.2  33618  280.47 0864.86
2015 04 09 09 36 53 .68     -39     51     40     65     76 322.2  35.5  33628  280.62 0864.86
2015 04 09 09 36 53 .93     -44     65     46     79     91 325.7  32.9  33626  280.58 0864.86
2015 04 09 09 36 54 .18     -34     32     16     47     50 313.1  19.4  33632  280.68 0864.86
2015 04 09 09 36 54 .44     -37     51     -8     64     65 323.9  -7.3  33626  280.58 0864.86
2015 04 09 09 36 54 .69     -30     45      7     55     56 325.7   8.0  33640  280.82 0864.86
2015 04 09 09 36 54 .93     -34     41     20     54     57 320.4  20.0  33650  281.00 0864.86
2015 04 09 09 36 55 .18     -40     45     40     61     72 318.6  35.6  33652  281.04 0864.86
2015 04 09 09 36 55 .44     -39     61     53     73     90 327.4  39.7  33642  280.87 0864.86
2015 04 09 09 36 55 .69     -25     53     40     59     71 334.7  36.5  33658  281.12 0864.86
2015 04 09 09 36 55 .94     -31     48     53     58     78 327.4  47.9  33640  280.82 0864.86
2015 04 09 09 36 56 .19     -32     51     17     61     64 327.5  16.3  33650  280.99 0864.86
2015 04 09 09 36 56 .44     -20     47      9     52     53 336.4  10.1  33646  280.92 0864.86
2015 04 09 09 36 56 .69     -36     39      2     54     55 316.8   2.8  33642  280.85 0864.86
2015 04 09 09 36 56 .94     -27     48     -3     56     57 331.0  -3.1  33626  280.58 0864.86
2015 04 09 09 36 57 .19     -21     43    -10     48     50 333.7 -12.4  33596  280.10 0864.86
2015 04 09 09 36 57 .44     -23     58     -2     63     64 338.1  -2.2  33604  280.22 0864.86
2015 04 09 09 36 57 .69     -31     65     -9     73     74 334.5  -7.2  33564  279.57 0864.86
2015 04 09 09 36 57 .94     -41     72    -17     84     86 330.1 -11.9  33562  279.52 0864.86
2015 04 09 09 36 58 .19     -43     76    -11     88     89 330.1  -7.7  33558  279.47 0864.86
2015 04 09 09 36 58 .44     -41     72    -17     84     86 330.1 -11.9  33558  279.47 0864.86
2015 04 09 09 36 58 .69     -16     61     20     64     68 344.8  17.3  33570  279.67 0864.86
2015 04 09 09 36 58 .96     -24     72     26     76     81 341.5  18.9  33562  279.53 0864.86
2015 04 09 09 36 59 .20     -35     64    -13     74     76 331.0 -10.3  33576  279.77 0864.86
2015 04 09 09 36 59 .46     -40     73    -17     84     86 331.5 -11.9  33582  279.87 0864.86
2015 04 09 09 36 59 .70     -64     72    -12     97     98 318.1  -7.3  33564  279.57 0864.86
2015 04 09 09 36 59 .96     -62     55    -20     84     87 311.8 -13.9  33570  279.65 0864.86
2015 04 09 09 37 00 .21     -72     55      4     91     92 307.3   2.9  33580  279.82 0864.86
2015 04 09 09 37 00 .46     -50     63      6     81     82 321.7   4.4  33594  280.05 0864.86
2015 04 09 09 37 00 .71     -63     62    -22     89     92 314.6 -13.9  33550  279.33 0864.86
2015 04 09 09 37 00 .96     -72     63    -32     96    101 311.3 -23.6  33542  279.20 0864.86
2015 04 09 09 37 01 .21     -79     35    -32     87     92 294.4 -24.8  33546  279.27 0864.86
2015 04 09 09 37 01 .46     -76     42    -35     87     93 298.9 -26.9  33536  279.10 0864.86
2015 04 09 09 37 01 .71     -76     31    -35     83     90 292.6 -29.0  33536  279.10 0864.86
2015 04 09 09 37 01 .96     -78     35    -31     86     91 294.4 -24.4  33534  279.05 0864.86
2015 04 09 09 37 02 .21     -76     31    -35     83     90 292.6 -29.0  33536  279.10 0864.86
2015 04 09 09 37 02 .46     -78     35    -38     86     94 294.4 -29.5  33538  279.13 0864.86
2015 04 09 09 37 02 .71     -74     36    -40     83     92 295.8 -31.6  33552  279.37 0864.86
2015 04 09 09 37 02 .96     -70     28    -49     76     90 291.7 -40.0  33540  279.17 0864.86
2015 04 09 09 37 03 .21     -61     20    -54     65     84 288.4 -48.1  33544  279.22 0864.86
2015 04 09 09 37 03 .47     -55     27    -49     62     79 296.2 -47.1  33562  279.52 0864.86
2015 04 09 09 37 03 .71     -52     43    -38     68     77 309.6 -35.8  33570  279.65 0864.86
2015 04 09 09 37 03 .96     -40     40    -26     57     62 315.0 -30.6  33568  279.62 0864.86
2015 04 09 09 37 04 .22     -25     40     -2     48     49 327.4  -3.1  33574  279.72 0864.86
2015 04 09 09 37 04 .47     -18     29     12     35     38 327.5  18.9  33588  279.95 0864.87
2015 04 09 09 37 04 .72     -30     51     55     60     81 329.3  47.5  33574  279.72 0864.87
2015 04 09 09 37 04 .97     -14     57     43     59     73 345.7  39.7  33606  280.25 0864.87
2015 04 09 09 37 05 .22     -33     42     18     54     57 322.2  18.4  33600  280.17 0864.87
2015 04 09 09 37 05 .47     -43     42     53     61     80 314.0  45.8  33588  279.95 0864.87
2015 04 09 09 37 05 .73     -20     43     31     48     57 334.6  35.6  33590  280.00 0864.87
2015 04 09 09 37 05 .98     -31     31     53     45     69 315.0  56.3  33624  280.57 0864.87
2015 04 09 09 37 06 .24     -25     33     50     42     65 323.0  56.3  33652  281.02 0864.86
2015 04 09 09 37 06 .48     -20     14     24     25     34 306.0  52.0  33666  281.27 0864.86
2015 04 09 09 37 06 .73     -42     22     49     48     68 298.0  49.1  33624  280.55 0864.86
2015 04 09 09 37 06 .99     -32     24     47     41     62 306.9  53.3  33632  280.70 0864.86
2015 04 09 09 37 07 .23     -22      8     29     24     37 290.0  56.3  33630  280.65 0864.86
2015 04 09 09 37 07 .48     -11      5     27     13     29 295.3  72.8  33640  280.82 0864.86
2015 04 09 09 37 07 .73     -16      5     22     17     27 288.2  58.5  33662  281.19 0864.86
2015 04 09 09 37 07 .98     -14      8     25     17     30 298.9  62.6  33652  281.04 0864.86
2015 04 09 09 37 08 .23     -30      0      9     31     33 269.2  17.3  33630  280.67 0864.86
2015 04 09 09 37 08 .48     -31      9     26     33     42 286.8  42.7  33608  280.30 0864.86
2015 04 09 09 37 08 .74     -36     16     28     40     48 294.4  38.6  33604  280.23 0864.86
2015 04 09 09 37 08 .98     -36     16     23     40     46 294.4  33.5  33616  280.42 0864.86
2015 04 09 09 37 09 .24     -36     25     16     44     46 305.1  20.0  33628  280.63 0864.86
2015 04 09 09 37 09 .49     -41     15     -1     44     45 290.8  -2.2  33614  280.38 0864.86
2015 04 09 09 37 09 .74     -34     16     -3     38     39 295.3  -5.2  33606  280.27 0864.86
2015 04 09 09 37 09 .99     -36      2      1     37     38 274.3   2.8  33614  280.38 0864.86
2015 04 09 09 37 10 .24     -29      5     23     30     37 281.5  41.7  33624  280.57 0864.86
2015 04 09 09 37 10 .49     -21     10     24     24     33 295.3  50.1  33636  280.75 0864.86
2015 04 09 09 37 10 .74     -17      9     20     20     28 297.1  50.1  33632  280.70 0864.86
2015 04 09 09 37 10 .99     -13     25     24     29     37 332.8  43.8  33622  280.53 0864.85
2015 04 09 09 37 11 .24     -20     29     17     36     39 325.7  26.2  33612  280.37 0864.85
2015 04 09 09 37 11 .49     -24     33     16     41     44 323.9  21.0  33632  280.70 0864.85
2015 04 09 09 37 11 .75     -34     41     46     54     70 320.4  43.8  33626  280.58 0864.85
2015 04 09 09 37 11 .99     -19     56     33     60     68 341.3  31.4  33630  280.65 0864.85
2015 04 09 09 37 12 .24     -26     44     27     52     58 329.3  29.3  33606  280.25 0864.85
2015 04 09 09 37 12 .49     -20     35      5     41     42 330.1   6.9  33616  280.42 0864.85
2015 04 09 09 37 12 .76     -21     47     -5     52     53 335.5  -6.2  33606  280.25 0864.86
2015 04 09 09 37 13 .01     -27     30     11     41     43 318.6  15.3  33610  280.33 0864.86
2015 04 09 09 37 13 .26     -37     24     14     45     48 303.3  17.3  33614  280.40 0864.86
2015 04 09 09 37 13 .50     -42     35      0     55     56 309.6   0.8  33582  279.87 0864.86
2015 04 09 09 37 13 .76     -37     58     -2     70     71 327.4  -2.2  33576  279.75 0864.86
2015 04 09 09 37 14 .01     -70     23    -23     74     78 288.6 -17.6  33564  279.57 0864.86
2015 04 09 09 37 14 .25     -77     31    -36     84     91 292.2 -29.0  33550  279.32 0864.86
2015 04 09 09 37 14 .51     -84     17    -46     86     97 281.9 -34.7  33546  279.27 0864.86
2015 04 09 09 37 14 .76     -69     16    -39     71     81 283.3 -35.8  33546  279.25 0864.86
2015 04 09 09 37 15 .01     -61     20    -47     65     80 288.4 -44.1  33548  279.30 0864.86
2015 04 09 09 37 15 .26     -59     28    -33     66     73 295.4 -31.7  33544  279.23 0864.86
2015 04 09 09 37 15 .51     -57     27    -17     64     67 295.2 -15.5  33544  279.22 0864.86
2015 04 09 09 37 15 .76     -47     38    -12     61     63 309.5 -11.3  33540  279.15 0864.86
2015 04 09 09 37 16 .01     -46     44     -9     64     65 314.0  -8.2  33542  279.18 0864.86
2015 04 09 09 37 16 .27     -36     35     -2     51     52 314.0  -2.2  33560  279.48 0864.86
2015 04 09 09 37 16 .52     -43     41     14     60     62 313.1  13.2  33584  279.90 0864.86
2015 04 09 09 37 16 .76     -48     40      0     63     64 309.5   0.8  33564  279.57 0864.86
2015 04 09 09 37 17 .02     -32     29      2     44     45 312.2   3.8  33578  279.80 0864.86
2015 04 09 09 37 17 .27     -32     20      3     39     40 302.4   4.9  33572  279.70 0864.86
2015 04 09 09 37 17 .52     -35     16      8     39     40 295.3  12.2  33566  279.58 0864.86
2015 04 09 09 37 17 .77     -38     24     -2     45     46 302.4  -3.1  33574  279.72 0864.86
2015 04 09 09 37 18 .02     -20     45     24     50     55 336.4  27.3  33608  280.28 0864.86
2015 04 09 09 37 18 .27     -39     35     -7     53     54 312.2  -8.2  33600  280.17 0864.86
2015 04 09 09 37 18 .52     -52     36    -19     64     67 305.1 -16.6  33588  279.95 0864.86
2015 04 09 09 37 18 .77     -59     16     -8     62     63 285.1  -7.3  33582  279.87 0864.86
2015 04 09 09 37 19 .02     -31     31     -1     44     45 315.0  -2.2  33582  279.85 0864.86
2015 04 09 09 37 19 .27     -81     35    -13     89     91 293.5  -8.8  33564  279.57 0864.86
2015 04 09 09 37 19 .52     -73     13     -9     75     76 280.6  -7.3  33554  279.40 0864.86
2015 04 09 09 37 19 .79     -74     12    -22     76     80 279.7 -16.6  33564  279.57 0864.86
2015 04 09 09 37 20 .03     -97      5     -2     98     99 273.0  -1.3  33556  279.42 0864.86
2015 04 09 09 37 20 .28     -94      4    -14     95     97 273.0  -8.8  33552  279.37 0864.86
2015 04 09 09 37 20 .53     -87      6    -21     88     91 274.4 -13.9  33546  279.25 0864.86
2015 04 09 09 37 20 .78     -80     13    -11     82     83 279.2  -7.7  33542  279.20 0864.86
2015 04 09 09 37 21 .03     -86     17    -21     88     91 281.4 -13.9  33542  279.18 0864.86
2015 04 09 09 37 21 .28     -80     13    -21     82     85 279.2 -14.5  33538  279.13 0864.86
2015 04 09 09 37 21 .53     -83     16    -14     85     87 281.5  -9.8  33536  279.08 0864.86
2015 04 09 09 37 21 .78     -84     12    -17     85     87 278.4 -11.9  33534  279.05 0864.86
2015 04 09 09 37 22 .04     -90      3    -14     91     93 272.1  -8.8  33538  279.13 0864.86
2015 04 09 09 37 22 .28     -89      0    -12     90     91 270.4  -7.7  33538  279.12 0864.86
2015 04 09 09 37 22 .54     -81      7    -22     82     86 275.2 -15.5  33538  279.12 0864.86
2015 04 09 09 37 22 .79     -81      0    -15     82     84 270.0 -10.9  33542  279.18 0864.86
2015 04 09 09 37 23 .04     -90     -7    -15     91     93 265.2  -9.8  33538  279.13 0864.86
2015 04 09 09 37 23 .29     -88    -12    -20     89     92 262.1 -12.9  33538  279.13 0864.86
2015 04 09 09 37 23 .54     -93    -12    -19     94     96 262.1 -11.5  33540  279.15 0864.86
2015 04 09 09 37 23 .79     -85    -13    -21     87     90 261.2 -13.9  33542  279.18 0864.86
2015 04 09 09 37 24 .04     -80     -4    -29     81     87 266.5 -19.7  33542  279.18 0864.86
2015 04 09 09 37 24 .29     -77      0    -24     78     82 270.0 -17.6  33542  279.18 0864.86
2015 04 09 09 37 24 .54     -82      7    -27     83     87 275.2 -23.8  33540  279.17 0864.86
2015 04 09 09 37 24 .79     -81     16    -23     83     87 281.5 -15.5  33540  279.17 0864.86
2015 04 09 09 37 25 .04     -84     12    -17     85     87 278.4 -11.9  33538  279.12 0864.86
2015 04 09 09 37 25 .29     -89     21    -15     92     94 283.3  -9.3  33538  279.13 0864.86
2015 04 09 09 37 25 .54    -100      4    -12    101    102 272.6  -7.2  33538  279.13 0864.86
2015 04 09 09 37 25 .79     -89      6    -12     90     91 274.4  -7.7  33540  279.17 0864.86
2015 04 09 09 37 26 .04     -86     17    -21     88     91 281.4 -13.9  33542  279.18 0864.86
2015 04 09 09 37 26 .29     -84     12    -18     85     88 278.4 -12.4  33544  279.22 0864.86
2015 04 09 09 37 26 .54     -86     20    -11     89     90 283.3  -7.3  33542  279.18 0864.86
2015 04 09 09 37 26 .81     -84     11    -18     85     88 277.5 -12.4  33546  279.27 0864.86
2015 04 09 09 37 27 .06     -82      7    -14     83     85 275.2  -9.8  33542  279.18 0864.86
2015 04 09 09 37 27 .31     -81      4    -11     82     83 273.0  -8.2  33544  279.22 0864.86
2015 04 09 09 37 27 .56     -82      7    -16     83     85 275.2 -10.9  33548  279.28 0864.86
2015 04 09 09 37 27 .81     -77     13    -16     79     81 279.7 -11.9  33548  279.28 0864.86
2015 04 09 09 37 28 .06     -75      0    -11     76     77 270.0  -8.2  33550  279.32 0864.86
2015 04 09 09 37 28 .31     -79      7    -17     80     82 275.2 -12.4  33550  279.32 0864.86
2015 04 09 09 37 28 .56     -76     -5     -4     77     78 265.7  -3.2  33556  279.43 0864.86
2015 04 09 09 37 28 .81     -76     -5     -5     77     78 265.6  -4.1  33544  279.23 0864.86
2015 04 09 09 37 29 .06     -77     -8    -15     78     80 263.9 -11.3  33538  279.13 0864.86
2015 04 09 09 37 29 .31     -75     -5    -11     76     77 265.7  -8.2  33546  279.27 0864.86
2015 04 09 09 37 29 .56     -74      1    -20     75     78 270.8 -15.0  33544  279.23 0864.86
2015 04 09 09 37 29 .81     -72     -1    -19     73     76 269.2 -14.5  33544  279.22 0864.86
2015 04 09 09 37 30 .06     -74      1    -20     75     78 270.8 -15.0  33544  279.23 0864.87
2015 04 09 09 37 30 .31     -74      1    -20     75     78 270.8 -15.0  33544  279.23 0864.87
2015 04 09 09 37 30 .56     -64      1    -18     65     68 271.7 -15.4  33540  279.17 0864.87
2015 04 09 09 37 30 .81     -63      0    -14     64     66 269.2 -12.4  33542  279.18 0864.87
2015 04 09 09 37 31 .06     -64      1    -18     65     68 271.7 -15.4  33540  279.17 0864.87
2015 04 09 09 37 31 .32     -63      0    -14     64     66 269.2 -12.4  33542  279.18 0864.87
2015 04 09 09 37 31 .56     -55      0    -15     56     59 270.8 -15.5  33544  279.23 0864.87
2015 04 09 09 37 31 .81     -54      4    -11     55     57 274.4 -11.3  33544  279.22 0864.86
2015 04 09 09 37 32 .07     -52      0     -8     53     54 270.0  -9.3  33542  279.18 0864.86
2015 04 09 09 37 32 .32     -55      0    -15     56     59 270.8 -15.5  33544  279.23 0864.86
2015 04 09 09 37 32 .57     -62      0     -5     63     64 270.8  -5.2  33578  279.80 0864.86
2015 04 09 09 37 32 .82     -52     -4     -8     53     54 265.6  -9.3  33578  279.80 0864.86
2015 04 09 09 37 33 .07     -28     -2     10     29     31 265.7  19.4  33588  279.95 0864.86
2015 04 09 09 37 33 .32     -39     10     -9     41     43 284.2 -13.4  33588  279.95 0864.86
2015 04 09 09 37 33 .58     -32     11     -1     35     36 290.0  -2.2  33598  280.13 0864.86
2015 04 09 09 37 33 .83     -11      0      4     12     13 274.4  18.9  33602  280.20 0864.86
2015 04 09 09 37 34 .08     -22    -14     -3     27     28 237.6  -7.2  33594  280.05 0864.86
2015 04 09 09 37 34 .33     -16      1      0     17     18 274.4  -2.2  33590  280.00 0864.86
2015 04 09 09 37 34 .58     -51      7     -6     52     53 277.9  -7.2  33554  279.40 0864.86
2015 04 09 09 37 34 .84     -53     12    -14     55     57 283.3 -14.5  33564  279.57 0864.86
2015 04 09 09 37 35 .08     -65    -17     -2     68     69 254.9  -2.2  33568  279.63 0864.86
2015 04 09 09 37 35 .34     -57      4      0     58     59 274.4   0.8  33562  279.52 0864.86
2015 04 09 09 37 35 .59     -49      9     -5     50     51 280.6  -6.2  33548  279.28 0864.86
2015 04 09 09 37 35 .84     -52      1    -10     53     55 271.7 -11.3  33566  279.58 0864.86
2015 04 09 09 37 36 .09     -50     -8     -6     51     52 260.3  -7.3  33570  279.67 0864.86
2015 04 09 09 37 36 .34     -58    -13     -7     60     61 256.7  -7.3  33568  279.62 0864.86
2015 04 09 09 37 36 .59     -64      4     -8     65     66 274.3  -7.3  33556  279.42 0864.86
2015 04 09 09 37 36 .84     -64      0     -5     65     66 270.8  -5.2  33562  279.53 0864.86
2015 04 09 09 37 37 .09     -65     -8      4     66     67 263.0   3.8  33570  279.67 0864.86
2015 04 09 09 37 37 .34     -62     -4     -5     63     64 265.6  -5.2  33554  279.40 0864.86
2015 04 09 09 37 37 .59     -56      0     -6     57     58 269.2  -6.2  33556  279.43 0864.86
2015 04 09 09 37 37 .84     -52     -1     -7     53     54 268.3  -8.2  33564  279.57 0864.86
2015 04 09 09 37 38 .09     -46     -7     -2     47     48 260.3  -3.1  33574  279.72 0864.86
2015 04 09 09 37 38 .34     -48     -3     -5     49     50 265.6  -6.2  33566  279.58 0864.86
2015 04 09 09 37 38 .59     -36      2     -4     37     38 274.3  -7.2  33564  279.55 0864.86
2015 04 09 09 37 38 .84     -49     -4     -6     50     51 264.8  -7.2  33560  279.48 0864.86
2015 04 09 09 37 39 .09     -54     -1     -7     55     56 268.3  -7.3  33558  279.45 0864.86
2015 04 09 09 37 39 .34     -59     -4     -2     60     61 265.7  -2.2  33562  279.53 0864.86
2015 04 09 09 37 39 .60     -62    -24     -2     67     68 248.3  -2.2  33564  279.57 0864.86
2015 04 09 09 37 39 .85     -70    -13     -9     72     73 259.4  -7.2  33566  279.60 0864.86
2015 04 09 09 37 40 .10     -60    -13     -2     62     63 257.6  -2.2  33604  280.22 0864.86
2015 04 09 09 37 40 .35     -54     -4     -2     55     56 265.6  -2.2  33596  280.08 0864.86
2015 04 09 09 37 40 .61     -43    -10     -5     45     46 256.7  -7.3  33604  280.22 0864.86
2015 04 09 09 37 40 .86     -38    -24     -1     46     47 237.6  -2.2  33622  280.53 0864.86
2015 04 09 09 37 41 .11     -40     -8    -10     41     43 258.5 -14.5  33620  280.48 0864.86
2015 04 09 09 37 41 .36     -52     24     -2     58     59 295.2  -2.2  33620  280.48 0864.86
2015 04 09 09 37 41 .61     -58      9    -18     59     62 278.8 -17.6  33620  280.50 0864.85
2015 04 09 09 37 41 .86      -8     12     11     15     18 327.5  39.7  33644  280.90 0864.85
2015 04 09 09 37 42 .11      -6      0      5      7      8 265.6  43.7  33652  281.04 0864.85
2015 04 09 09 37 42 .37     -12     -4      4     13     14 251.6  19.2  33650  280.99 0864.85
2015 04 09 09 37 42 .61       0     -3      4      4      5 189.7  50.1  33642  280.87 0864.85
2015 04 09 09 37 42 .86     -12    -13     -2     18     19 223.4  -7.2  33636  280.75 0864.85
2015 04 09 09 37 43 .11      -2     20      1     21     22 352.0   4.9  33642  280.85 0864.85
2015 04 09 09 37 43 .36     -31     -3     -7     32     33 263.9 -13.4  33620  280.48 0864.85
2015 04 09 09 37 43 .62      -6      6      5      9     10 316.6  31.4  33622  280.52 0864.85
2015 04 09 09 37 43 .87       3     -8     11      9     14 154.6  52.2  33644  280.90 0864.85
2015 04 09 09 37 44 .12      13    -12     17     18     24 133.3  52.0  33668  281.29 0864.85
2015 04 09 09 37 44 .37      -4    -20     32     21     38 193.4  64.6  33660  281.17 0864.85
2015 04 09 09 37 44 .62     -23    -15     22     28     35 237.6  43.7  33664  281.24 0864.85
2015 04 09 09 37 44 .87     -17     -1     30     18     35 265.7  64.7  33662  281.20 0864.85
2015 04 09 09 37 45 .12       0     35     -3     36     37 359.1  -5.2  33650  281.00 0864.85
2015 04 09 09 37 45 .37       2     26     -3     27     28   4.5  -7.3  33646  280.92 0864.85
2015 04 09 09 37 45 .63     -35     16     49     39     62 295.3  56.4  33656  281.09 0864.85
2015 04 09 09 37 45 .87     -18     -6     33     19     38 251.4  64.7  33666  281.27 0864.85
2015 04 09 09 37 46 .13      -4      0     30      5     30 270.0  90.0  33680  281.50 0864.85
2015 04 09 09 37 46 .37       0    -16     40     17     43 182.7  77.1  33674  281.39 0864.85
2015 04 09 09 37 46 .62     -24    -14      1     28     29 239.3   2.9  33660  281.15 0864.85
2015 04 09 09 37 46 .87     -20     -7     -1     22     23 250.0  -3.1  33616  280.43 0864.85
2015 04 09 09 37 47 .12       8    -26     20     28     34 163.1  37.6  33612  280.35 0864.85
2015 04 09 09 37 47 .38     -11    -23     20     26     32 205.4  43.7  33628  280.63 0864.85
2015 04 09 09 37 47 .63     -12     -4      4     13     14 251.6  19.2  33642  280.87 0864.85
2015 04 09 09 37 47 .89     -12     27      5     30     31 336.4  11.1  33644  280.90 0864.85
2015 04 09 09 37 48 .14     -87    -12    -24     88     91 261.6 -20.2  33612  280.37 0864.85
2015 04 09 09 37 48 .39      -9    -12     16     16     22 216.1  50.1  33632  280.68 0864.85
2015 04 09 09 37 48 .64     -16    -25     16     30     34 212.5  29.3  33654  281.05 0864.85
2015 04 09 09 37 48 .89     -52    -10      2     54     55 258.5   2.9  33642  280.87 0864.85
2015 04 09 09 37 49 .14     -42    -12    -15     44     47 253.2 -18.7  33630  280.67 0864.85
2015 04 09 09 37 49 .39      10    -16      0     19     20 147.4  -1.3  33640  280.82 0864.85
2015 04 09 09 37 49 .64       6    -16     -3     18     19 158.2 -11.3  33642  280.87 0864.85
2015 04 09 09 37 49 .89     -23      8    -36     25     43 290.0 -65.9  33632  280.68 0864.85
2015 04 09 09 37 50 .14     -33     70    -10     78     79 334.5  -7.3  33620  280.50 0864.85
2015 04 09 09 37 50 .39       1     42      7     43     44   1.8  10.1  33622  280.52 0864.85
2015 04 09 09 37 50 .64      16     26      9     31     33  32.5  17.3  33628  280.62 0864.85
2015 04 09 09 37 50 .89      13     -8     20     16     25 122.4  56.4  33628  280.63 0864.84
2015 04 09 09 37 51 .14       3    -21    -10     22     24 172.0 -29.5  33628  280.63 0864.84
2015 04 09 09 37 51 .40     -11    -58     22     60     63 190.7  20.0  33634  280.72 0864.84
2015 04 09 09 37 51 .64     -65    -37      7     75     76 240.2   5.9  33632  280.70 0864.84
2015 04 09 09 37 51 .90     -86    -11    -28     87     92 262.1 -18.1  33622  280.53 0864.84
2015 04 09 09 37 52 .15     -96    -69     -6    119    120 234.0  -3.2  33624  280.55 0864.84
2015 04 09 09 37 52 .40    -118    -30    -15    122    123 255.4  -7.3  33620  280.50 0864.84
2015 04 09 09 37 52 .64    -131     -9    -17    132    134 265.7  -7.3  33560  279.50 0864.84
2015 04 09 09 37 52 .90    -150      0    -35    151    156 269.6 -13.2  33556  279.42 0864.84
2015 04 09 09 37 53 .15    -140      0    -33    141    145 270.0 -13.4  33558  279.45 0864.84
2015 04 09 09 37 53 .40    -125    -13    -16    126    128 263.9  -7.3  33566  279.60 0864.84
2015 04 09 09 37 53 .65    -124      5     -6    125    126 272.5  -3.2  33560  279.48 0864.84
2015 04 09 09 37 53 .90    -120    -25    -32    123    128 258.1 -14.5  33542  279.18 0864.84
2015 04 09 09 37 54 .15    -114    -16    -31    116    121 262.0 -15.0  33538  279.13 0864.84
2015 04 09 09 37 54 .41    -125     -1    -34    126    131 269.2 -15.4  33552  279.35 0864.84
2015 04 09 09 37 54 .66    -134      1    -38    135    141 270.8 -16.0  33550  279.32 0864.84
2015 04 09 09 37 54 .92    -137     -1    -48    138    147 269.2 -19.1  33548  279.30 0864.84
2015 04 09 09 37 55 .16    -150    -15    -35    151    156 263.9 -13.2  33556  279.42 0864.84
2015 04 09 09 37 55 .41    -166     -4    -38    167    172 268.5 -12.9  33554  279.38 0864.84
2015 04 09 09 37 55 .66    -152      0    -37    153    158 270.4 -13.9  33554  279.38 0864.84
2015 04 09 09 37 55 .91    -137    -15    -41    138    145 263.4 -16.6  33532  279.03 0864.84
2015 04 09 09 37 56 .16    -132     -1    -30    133    137 269.2 -12.9  33534  279.05 0864.84
2015 04 09 09 37 56 .41    -132    -12    -27    133    136 264.8 -11.5  33532  279.03 0864.84
2015 04 09 09 37 56 .66    -138    -10    -27    139    142 265.7 -11.3  33530  278.98 0864.84
2015 04 09 09 37 56 .91    -133    -14    -28    134    137 263.8 -11.9  33534  279.05 0864.84
2015 04 09 09 37 57 .16    -133    -14    -28    134    137 263.8 -11.9  33534  279.05 0864.84
2015 04 09 09 37 57 .42    -133    -14    -28    134    137 263.8 -11.9  33534  279.05 0864.84
2015 04 09 09 37 57 .67    -136    -19    -31    138    142 262.0 -12.9  33532  279.02 0864.84
2015 04 09 09 37 57 .91    -133    -14    -28    134    137 263.9 -11.9  33534  279.05 0864.84
2015 04 09 09 37 58 .17    -135     -5    -32    136    140 267.5 -13.3  33532  279.03 0864.84
2015 04 09 09 37 58 .42    -130    -15    -31    131    135 263.4 -13.4  33532  279.03 0864.84
2015 04 09 09 37 58 .67    -147     -7    -29    148    151 267.0 -11.3  33534  279.05 0864.84
2015 04 09 09 37 58 .92    -135    -10    -26    136    139 265.6 -10.9  33530  279.00 0864.84
2015 04 09 09 37 59 .17    -140     -7    -32    141    145 267.0 -12.9  33532  279.03 0864.84
2015 04 09 09 37 59 .42    -143      2    -35    144    149 270.8 -13.9  33530  279.00 0864.84
2015 04 09 09 37 59 .67    -146     -3    -40    147    153 268.7 -15.5  33530  279.00 0864.84
2015 04 09 09 37 59 .92    -143      2    -35    144    149 270.8 -13.9  33530  279.00 0864.84
2015 04 09 09 38 00 .17    -139     -4    -30    140    144 268.3 -12.4  33532  279.02 0864.84
2015 04 09 09 38 00 .42    -143      2    -35    144    149 270.8 -13.9  33530  279.00 0864.84
2015 04 09 09 38 00 .68    -151      4    -43    152    158 271.7 -15.8  33542  279.18 0864.84
2015 04 09 09 38 00 .93    -100    -33     13    106    107 251.8   7.1  33574  279.72 0864.84
2015 04 09 09 38 01 .18    -110    -21      4    113    114 259.0   2.3  33562  279.52 0864.84
2015 04 09 09 38 01 .44    -112    -16    -19    114    116 261.6  -9.8  33556  279.42 0864.84
2015 04 09 09 38 01 .68    -138    -23    -28    140    143 260.3 -11.3  33536  279.08 0864.84
2015 04 09 09 38 01 .94    -142    -37    -29    147    150 255.4 -11.5  33530  279.00 0864.84
2015 04 09 09 38 02 .19    -136    -27    -24    139    142 258.6  -9.8  33530  279.00 0864.84
2015 04 09 09 38 02 .44    -136    -27    -24    139    142 258.6  -9.8  33530  279.00 0864.84
2015 04 09 09 38 02 .69    -140    -19    -30    142    146 262.1 -11.9  33530  279.00 0864.85
2015 04 09 09 38 02 .94    -136    -27    -24    139    142 258.6  -9.8  33530  279.00 0864.85
2015 04 09 09 38 03 .22    -133    -27    -27    136    139 258.5 -11.5  33532  279.02 0864.85
2015 04 09 09 38 03 .44    -127    -25    -29    130    134 258.5 -12.9  33530  279.00 0864.85
2015 04 09 09 38 03 .69    -125    -19    -25    127    130 261.2 -11.3  33532  279.02 0864.85
2015 04 09 09 38 03 .94    -131    -22    -25    133    136 260.3 -10.9  33534  279.05 0864.85
2015 04 09 09 38 04 .19    -133    -27    -27    136    139 258.5 -11.5  33532  279.03 0864.85
2015 04 09 09 38 04 .44    -140    -19    -30    142    146 262.1 -11.9  33530  279.00 0864.84
2015 04 09 09 38 04 .69    -136    -27    -24    139    142 258.6  -9.8  33530  279.00 0864.84
2015 04 09 09 38 04 .94    -136    -27    -24    139    142 258.6  -9.8  33530  279.00 0864.84
2015 04 09 09 38 05 .19    -140    -19    -30    142    146 262.1 -11.9  33530  279.00 0864.84
2015 04 09 09 38 05 .44    -131    -20    -27    133    136 261.2 -11.5  33536  279.08 0864.84
2015 04 09 09 38 05 .69    -134    -22    -22    136    138 260.3  -9.4  33532  279.03 0864.84
2015 04 09 09 38 05 .94    -129    -30    -24    133    136 256.8 -10.3  33536  279.10 0864.84
2015 04 09 09 38 06 .20    -126    -23    -25    129    132 259.4 -11.3  33538  279.12 0864.85
2015 04 09 09 38 06 .45    -128    -20    -29    130    134 260.8 -12.9  33542  279.20 0864.85
2015 04 09 09 38 06 .70    -114    -12    -34    115    121 263.9 -16.6  33540  279.17 0864.85
2015 04 09 09 38 06 .95    -111    -22    -27    114    118 258.5 -13.3  33544  279.23 0864.85
2015 04 09 09 38 07 .20    -124    -36    -16    130    132 253.6  -7.3  33544  279.23 0864.85
2015 04 09 09 38 07 .45    -111    -37    -16    118    120 251.4  -7.7  33538  279.13 0864.85
2015 04 09 09 38 07 .70    -119    -48    -11    129    130 247.8  -5.2  33532  279.03 0864.85
2015 04 09 09 38 07 .95    -115    -49     -6    125    126 246.9  -3.2  33538  279.13 0864.85
2015 04 09 09 38 08 .20    -106    -65    -10    125    126 238.5  -4.6  33540  279.17 0864.85
2015 04 09 09 38 08 .46    -114    -48    -16    124    126 246.9  -7.3  33544  279.22 0864.85
2015 04 09 09 38 08 .71    -117    -53    -18    129    131 245.6  -8.2  33544  279.23 0864.85
2015 04 09 09 38 08 .96    -109    -43    -19    118    120 248.2  -9.4  33544  279.22 0864.85
2015 04 09 09 38 09 .21    -113    -48    -22    123    126 246.9 -10.3  33540  279.15 0864.85
2015 04 09 09 38 09 .46    -108    -43    -19    117    119 248.3  -9.4  33534  279.07 0864.85
2015 04 09 09 38 09 .71    -116    -47    -29    126    130 247.8 -12.9  33532  279.03 0864.85
2015 04 09 09 38 09 .96    -108    -53    -21    121    123 243.8 -10.3  33536  279.08 0864.85
2015 04 09 09 38 10 .22    -115    -49    -15    125    126 246.9  -7.2  33534  279.07 0864.85
2015 04 09 09 38 10 .47    -112    -53    -20    125    127 244.6  -9.3  33534  279.07 0864.85
2015 04 09 09 38 10 .72    -116    -47    -29    126    130 247.8 -12.9  33532  279.03 0864.85
2015 04 09 09 38 10 .97    -112    -58    -34    127    132 242.5 -15.0  33538  279.13 0864.84
2015 04 09 09 38 11 .22    -128    -60    -19    142    144 244.6  -7.7  33544  279.22 0864.84
2015 04 09 09 38 11 .47    -137    -45    -23    145    147 251.8  -9.3  33544  279.23 0864.84
2015 04 09 09 38 11 .72    -127    -42    -20    135    137 251.4  -8.8  33546  279.27 0864.84
2015 04 09 09 38 11 .97    -116    -44    -29    125    129 249.2 -13.4  33544  279.22 0864.84
2015 04 09 09 38 12 .22    -115    -38    -38    122    129 251.8 -17.6  33546  279.27 0864.84
2015 04 09 09 38 12 .47    -115    -38    -38    122    129 251.8 -17.6  33546  279.27 0864.84
2015 04 09 09 38 12 .72    -110    -41    -38    118    125 249.6 -18.1  33546  279.27 0864.84
2015 04 09 09 38 12 .97    -112    -39    -35    119    124 250.5 -21.7  33546  279.27 0864.84
2015 04 09 09 38 13 .22    -110    -41    -38    118    125 249.6 -18.1  33544  279.22 0864.84
2015 04 09 09 38 13 .47    -108    -37    -36    115    121 250.9 -17.6  33542  279.18 0864.84
2015 04 09 09 38 13 .72    -108    -36    -39    115    122 251.4 -19.1  33544  279.22 0864.84
2015 04 09 09 38 13 .97    -116    -38    -33    123    128 251.8 -15.4  33542  279.20 0864.84
2015 04 09 09 38 14 .22    -126    -42    -25    134    137 251.4 -10.9  33544  279.22 0864.84
2015 04 09 09 38 14 .47    -116    -44    -29    125    129 249.2 -13.4  33544  279.22 0864.84
2015 04 09 09 38 14 .72    -118    -39    -25    125    128 251.8 -11.3  33538  279.12 0864.84
2015 04 09 09 38 14 .98    -117    -50    -26    128    131 246.9 -11.9  33542  279.20 0864.84
2015 04 09 09 38 15 .23    -114    -57    -23    128    131 243.4 -10.3  33542  279.20 0864.84
2015 04 09 09 38 15 .49    -107    -50    -19    119    121 244.8  -9.4  33544  279.22 0864.84
2015 04 09 09 38 15 .74    -109    -53    -15    122    123 243.8  -7.3  33542  279.20 0864.84
2015 04 09 09 38 15 .99    -102    -49    -14    114    115 244.2  -7.3  33544  279.22 0864.84
2015 04 09 09 38 16 .24    -119    -48    -14    129    130 247.8  -6.2  33542  279.18 0864.84
2015 04 09 09 38 16 .49    -126    -54    -13    138    139 246.9  -5.6  33544  279.23 0864.84
2015 04 09 09 38 16 .74    -117    -53    -18    129    131 245.6  -8.2  33544  279.23 0864.84
2015 04 09 09 38 16 .99    -100    -60     -8    117    118 238.9  -4.1  33542  279.20 0864.84
2015 04 09 09 38 17 .24    -119    -48      0    129    130 247.8   0.2  33542  279.18 0864.84
2015 04 09 09 38 17 .49    -106    -65    -10    125    126 238.5  -4.6  33540  279.17 0864.84
2015 04 09 09 38 17 .74    -109    -64     -7    127    128 239.3  -3.2  33542  279.18 0864.84
2015 04 09 09 38 17 .99    -103    -59     -2    119    120 240.2  -1.3  33542  279.20 0864.84
2015 04 09 09 38 18 .25    -113    -60     -5    128    129 242.0  -2.2  33542  279.18 0864.84
2015 04 09 09 38 18 .50    -109    -64     -7    127    128 239.3  -3.2  33542  279.18 0864.84
2015 04 09 09 38 18 .74    -118    -53     -5    130    131 245.6  -2.2  33534  279.07 0864.84
2015 04 09 09 38 18 .99    -108    -53     -2    121    122 243.8  -1.2  33540  279.15 0864.84
2015 04 09 09 38 19 .25    -100    -55     -4    115    116 241.1  -2.2  33540  279.17 0864.84
2015 04 09 09 38 19 .50    -100    -55     -4    115    116 241.1  -2.2  33540  279.17 0864.84
2015 04 09 09 38 19 .75    -100    -55     -4    115    116 241.1  -2.2  33540  279.17 0864.84
2015 04 09 09 38 20 .00    -101    -49     -7    113    114 244.2  -3.7  33538  279.13 0864.84
2015 04 09 09 38 20 .25    -107    -50    -13    119    120 244.8  -6.7  33538  279.13 0864.84
2015 04 09 09 38 20 .50     -94    -50     -4    107    108 241.6  -2.2  33552  279.37 0864.84
2015 04 09 09 38 20 .75     -96    -61    -14    115    116 237.5  -7.3  33558  279.47 0864.84
2015 04 09 09 38 21 .00    -107    -55     -4    121    122 242.9  -2.2  33560  279.50 0864.84
2015 04 09 09 38 21 .25    -115    -45    -16    124    126 248.7  -7.7  33550  279.33 0864.84
2015 04 09 09 38 21 .51    -105    -39    -16    113    115 249.6  -8.2  33548  279.28 0864.84
2015 04 09 09 38 21 .76     -99    -47     -5    110    111 244.7  -2.6  33562  279.52 0864.84
2015 04 09 09 38 22 .00     -51     -7     -2     52     53 261.2  -2.2  33584  279.90 0864.84
2015 04 09 09 38 22 .27     -38     -1     20     39     43 267.4  28.2  33602  280.18 0864.84
2015 04 09 09 38 22 .51     -18     -4     33     19     38 254.9  64.7  33616  280.43 0864.84
2015 04 09 09 38 22 .77      -9     17     35     20     40 331.0  67.7  33612  280.35 0864.84
2015 04 09 09 38 23 .01     -14     16     -1     22     23 320.4  -3.1  33602  280.18 0864.84
2015 04 09 09 38 23 .27     -13    -26     -1     30     31 207.2  -3.1  33602  280.18 0864.84
2015 04 09 09 38 23 .52     -45    -36     46     58     74 231.4  43.7  33608  280.28 0864.84
2015 04 09 09 38 23 .77     -33    -38     10     51     53 220.5  11.1  33588  279.97 0864.84
2015 04 09 09 38 24 .02     -89    -56    -13    106    107 237.5  -7.3  33592  280.03 0864.84
2015 04 09 09 38 24 .27     -62    -33     19     71     74 242.0  15.2  33586  279.93 0864.84
2015 04 09 09 38 24 .52     -58    -19      6     62     63 251.8   5.9  33580  279.82 0864.84
2015 04 09 09 38 24 .77     -51    -20      0     55     56 248.3   0.8  33588  279.97 0864.84
2015 04 09 09 38 25 .02     -87    -28     -9     92     93 251.8  -5.6  33580  279.82 0864.84
2015 04 09 09 38 25 .27     -87    -55    -13    104    105 237.6  -7.2  33572  279.68 0864.84
2015 04 09 09 38 25 .52     -88    -46    -12    100    101 242.5  -7.2  33554  279.38 0864.83
2015 04 09 09 38 25 .78     -89    -50     -6    103    104 240.7  -3.7  33566  279.60 0864.83
2015 04 09 09 38 26 .02     -81    -47     -8     94     95 239.8  -5.2  33564  279.55 0864.83
2015 04 09 09 38 26 .28     -68    -52    -19     86     89 232.7 -12.4  33552  279.37 0864.83
2015 04 09 09 38 26 .52     -71    -52    -11     89     90 233.6  -7.3  33564  279.55 0864.83
2015 04 09 09 38 26 .78     -57    -47      0     75     76 230.4  -0.3  33564  279.57 0864.83
2015 04 09 09 38 27 .02     -62    -49      0     80     81 231.4   0.2  33578  279.80 0864.83
2015 04 09 09 38 27 .27     -62    -49      0     80     81 231.4   0.2  33572  279.70 0864.84
2015 04 09 09 38 27 .52     -57    -47     -5     75     76 230.4  -4.1  33570  279.65 0864.84
2015 04 09 09 38 27 .77     -64    -51    -29     83     89 231.4 -19.7  33552  279.37 0864.84
2015 04 09 09 38 28 .03     -60    -51    -24     79     83 229.6 -17.0  33556  279.42 0864.84
2015 04 09 09 38 28 .28     -61    -55    -28     83     88 227.8 -18.7  33554  279.38 0864.84
2015 04 09 09 38 28 .53     -55    -56    -13     79     81 224.2  -9.3  33552  279.37 0864.84
2015 04 09 09 38 28 .78     -64    -52    -12     83     84 230.9  -8.2  33552  279.37 0864.84
2015 04 09 09 38 29 .03     -56    -54    -13     79     81 226.0  -9.3  33556  279.42 0864.84
2015 04 09 09 38 29 .29     -56    -37     -2     68     69 236.7  -2.2  33558  279.47 0864.84
2015 04 09 09 38 29 .54     -55    -25     -7     61     62 244.8  -7.2  33558  279.47 0864.84
2015 04 09 09 38 29 .79     -52    -29     -5     60     61 240.2  -5.2  33558  279.45 0864.84
2015 04 09 09 38 30 .04     -37    -20      0     43     44 242.0  -0.3  33562  279.52 0864.84
2015 04 09 09 38 30 .29     -39    -16     -1     43     44 247.4  -2.2  33560  279.50 0864.84
2015 04 09 09 38 30 .54     -42    -15      0     45     46 250.0   0.8  33562  279.52 0864.84
2015 04 09 09 38 30 .79     -56    -17     -4     59     60 253.2  -4.1  33556  279.43 0864.84
2015 04 09 09 38 31 .04     -52    -17     -7     55     56 251.6  -7.3  33564  279.57 0864.84
2015 04 09 09 38 31 .30     -47     -3    -13     48     50 265.6 -15.5  33570  279.67 0864.84
2015 04 09 09 38 31 .54     -47     -3    -12     48     50 265.7 -14.5  33576  279.77 0864.84
2015 04 09 09 38 31 .79     -44     -3    -17     45     48 265.6 -24.4  33576  279.77 0864.84
2015 04 09 09 38 32 .05     -44    -12     -6     46     47 254.1  -8.2  33576  279.77 0864.84
2015 04 09 09 38 32 .30     -31      0     -1     32     33 270.8  -2.2  33572  279.68 0864.84
2015 04 09 09 38 32 .55     -28      3     -3     29     30 276.1  -7.3  33582  279.85 0864.84
2015 04 09 09 38 32 .80     -14     12     -3     19     20 309.5  -9.3  33606  280.27 0864.84
2015 04 09 09 38 33 .05     -23     13     20     27     33 298.9  41.7  33624  280.55 0864.84
2015 04 09 09 38 33 .30     -31     31     -6     44     45 315.0  -8.2  33608  280.28 0864.84
2015 04 09 09 38 33 .55     -32     31     -5     45     46 314.1  -7.3  33608  280.28 0864.84
2015 04 09 09 38 33 .80     -22     39    -11     45     47 330.1 -14.5  33608  280.28 0864.84
2015 04 09 09 38 34 .05     -48     40     -5     63     64 309.5  -5.2  33600  280.15 0864.84
2015 04 09 09 38 34 .30     -41     33      3     53     54 308.6   3.8  33614  280.40 0864.84
2015 04 09 09 38 34 .55     -19     49      2     53     54 338.2   2.9  33610  280.32 0864.84
2015 04 09 09 38 34 .80     -29     34    -12     46     48 319.5 -14.5  33614  280.38 0864.84
2015 04 09 09 38 35 .06     -36     36     24     51     56 315.0  27.1  33636  280.75 0864.84
2015 04 09 09 38 35 .30     -29     21     35     36     50 306.0  51.1  33642  280.87 0864.84
2015 04 09 09 38 35 .55     -31     32     -5     45     46 315.8  -7.3  33632  280.70 0864.84
2015 04 09 09 38 35 .81     -48     35     18     60     63 306.0  17.3  33616  280.42 0864.84
2015 04 09 09 38 36 .06     -34     42     22     55     59 321.3  23.0  33628  280.62 0864.84
2015 04 09 09 38 36 .31     -18     30     -1     36     37 329.3  -2.2  33612  280.37 0864.83
2015 04 09 09 38 36 .57      -9     17     -9     20     21 331.0 -29.5  33616  280.43 0864.83
2015 04 09 09 38 36 .82      -1     22     20     23     30 357.3  43.8  33638  280.80 0864.83
2015 04 09 09 38 37 .07      -1     18     31     19     36 355.6  64.7  33652  281.04 0864.83
2015 04 09 09 38 37 .32     -23     13     59     27     64 298.9  73.1  33636  280.75 0864.83
2015 04 09 09 38 37 .57     -41     22     61     47     77 298.0  57.5  33628  280.62 0864.83
2015 04 09 09 38 37 .82      -8      2     48      9     48 288.4  90.0  33646  280.92 0864.83
2015 04 09 09 38 38 .07     -25     -1     33     26     42 267.4  57.5  33644  280.90 0864.83
2015 04 09 09 38 38 .32     -23    -24     40     34     52 223.4  55.4  33640  280.82 0864.83
2015 04 09 09 38 38 .57     -41    -24     40     48     62 239.3  43.8  33642  280.87 0864.83
2015 04 09 09 38 38 .82     -16     -7     42     18     45 244.7  76.1  33642  280.85 0864.83
2015 04 09 09 38 39 .07     -29    -34     31     46     55 220.5  35.6  33606  280.27 0864.84
2015 04 09 09 38 39 .32     -26    -28     31     39     49 223.4  43.7  33600  280.15 0864.84
2015 04 09 09 38 39 .58     -13    -28     37     32     48 205.5  53.3  33614  280.38 0864.84
2015 04 09 09 38 39 .82     -12    -16     40     21     45 217.8  69.8  33632  280.68 0864.84
2015 04 09 09 38 40 .08      -4    -12     40     13     42 198.3  81.8  33642  280.87 0864.84
2015 04 09 09 38 40 .32     -27    -21     31     35     46 232.2  46.9  33624  280.57 0864.84
2015 04 09 09 38 40 .58     -15    -13     31     20     36 228.7  64.7  33636  280.77 0864.84
2015 04 09 09 38 40 .83     -23    -19     29     31     42 230.4  49.0  33628  280.63 0864.84
2015 04 09 09 38 41 .08     -12    -13     37     18     41 223.4  72.9  33608  280.28 0864.84
2015 04 09 09 38 41 .33      -9    -12     29     16     33 216.1  68.8  33638  280.80 0864.84
2015 04 09 09 38 41 .58      -4      1     40      5     40 288.4  90.0  33662  281.19 0864.84
2015 04 09 09 38 41 .83      -7      2     36      8     36 288.6  89.0  33662  281.19 0864.84
2015 04 09 09 38 42 .08      -8     12     31     15     34 327.5  72.9  33674  281.39 0864.84
2015 04 09 09 38 42 .33      -2      0     29      3     29 270.0  90.0  33668  281.30 0864.84
2015 04 09 09 38 42 .58       2     -3     29      4     29 147.5  90.0  33664  281.22 0864.84
2015 04 09 09 38 42 .83     -16      5     29     17     33 288.2  66.8  33660  281.15 0864.84
2015 04 09 09 38 43 .09     -23      1      2     24     25 274.4   4.9  33660  281.15 0864.84
2015 04 09 09 38 43 .34     -14      4      1     15     16 288.6   6.9  33664  281.22 0864.84
2015 04 09 09 38 43 .60     -27      9     31     29     42 288.6  51.2  33680  281.49 0864.84
2015 04 09 09 38 43 .85     -39     13      6     42     43 288.4   9.0  33682  281.52 0864.84
2015 04 09 09 38 44 .09     -54      0     -3     55     56 270.8  -3.1  33666  281.25 0864.84
2015 04 09 09 38 44 .34     -20     12     37     24     44 302.4  63.6  33684  281.57 0864.84
2015 04 09 09 38 44 .60     -32     24     59     41     71 306.9  61.5  33712  282.02 0864.84
2015 04 09 09 38 44 .84     -36     25     75     44     86 305.1  66.8  33710  282.00 0864.84
2015 04 09 09 38 45 .10     -54     39     70     67     96 306.0  50.7  33680  281.50 0864.84
2015 04 09 09 38 45 .35     -54     40     50     68     84 306.9  40.1  33696  281.77 0864.84
2015 04 09 09 38 45 .60     -37     40     55     55     77 316.8  50.1  33706  281.94 0864.84
2015 04 09 09 38 45 .84     -35     34     44     50     66 314.1  46.9  33702  281.85 0864.84
2015 04 09 09 38 46 .10     -32      9     27     34     43 286.8  42.7  33696  281.75 0864.84
2015 04 09 09 38 46 .35     -26     36     46     45     64 323.9  49.1  33690  281.67 0864.84
2015 04 09 09 38 46 .60     -16      5     35     17     38 288.2  72.9  33704  281.90 0864.84
2015 04 09 09 38 46 .85     -19      1     27     20     33 274.4  58.5  33716  282.11 0864.84
2015 04 09 09 38 47 .10     -25     21     41     33     52 309.6  56.4  33724  282.22 0864.84
2015 04 09 09 38 47 .35     -15     41     44     44     62 340.0  50.1  33716  282.11 0864.84
2015 04 09 09 38 47 .60       4     56     32     57     65   4.5  31.4  33696  281.75 0864.84
2015 04 09 09 38 47 .85     -25     52     46     58     74 333.7  43.7  33688  281.62 0864.84
2015 04 09 09 38 48 .10     -20     45     24     50     55 336.4  27.3  33690  281.67 0864.84
2015 04 09 09 38 48 .35      -8     26      9     28     30 341.3  18.9  33676  281.42 0864.84
2015 04 09 09 38 48 .60     -19     32     33     38     50 329.3  44.8  33664  281.22 0864.84
2015 04 09 09 38 48 .86     -25     28     52     38     64 318.6  60.5  33696  281.75 0864.84
2015 04 09 09 38 49 .11     -35     24     49     43     65 304.2  53.3  33708  281.95 0864.84
2015 04 09 09 38 49 .35     -27     32     24     43     49 319.5  31.4  33690  281.67 0864.84
2015 04 09 09 38 49 .61      -9     28     24     30     38 341.3  43.7  33684  281.57 0864.84
2015 04 09 09 38 49 .86      -9     31     22     33     39 343.1  36.5  33682  281.54 0864.84
2015 04 09 09 38 50 .12     -15     12     15     20     25 309.5  39.7  33690  281.67 0864.84
2015 04 09 09 38 50 .36     -28      9      5     30     31 288.6  11.0  33676  281.42 0864.84
2015 04 09 09 38 50 .62     -47      0    -14     48     50 270.0 -21.7  33608  280.28 0864.84
2015 04 09 09 38 50 .88     -20     21     18     30     35 316.6  35.5  33640  280.82 0864.84
2015 04 09 09 38 51 .12     -13     25     11     29     31 332.8  21.0  33666  281.25 0864.84
2015 04 09 09 38 51 .37     -21     20     31     30     43 313.3  50.1  33676  281.44 0864.84
2015 04 09 09 38 51 .62     -17     18     19     25     31 316.6  43.7  33688  281.62 0864.84
2015 04 09 09 38 51 .87     -16      9      7     19     20 298.9  21.0  33684  281.57 0864.84
2015 04 09 09 38 52 .12     -18     11      5     22     23 302.4  13.2  33674  281.39 0864.84
2015 04 09 09 38 52 .37     -20      4     -1     21     22 283.3  -3.1  33644  280.90 0864.84
2015 04 09 09 38 52 .62      -8     12     19     15     24 327.5  56.4  33636  280.75 0864.84
2015 04 09 09 38 52 .88     -25     26     31     37     48 316.6  45.8  33648  280.97 0864.84
2015 04 09 09 38 53 .12     -23     23     42     33     53 315.0  56.4  33684  281.57 0864.84
2015 04 09 09 38 53 .38     -19     12     44     23     49 302.4  70.8  33714  282.07 0864.84
2015 04 09 09 38 53 .63     -15      8     32     18     36 298.9  66.8  33750  282.66 0864.84
2015 04 09 09 38 53 .87      -9     -3     29     10     30 248.3  81.0  33740  282.51 0864.84
2015 04 09 09 38 54 .13      -4     -3     26      6     26 230.5  86.9  33736  282.42 0864.84
2015 04 09 09 38 54 .38      -9     -3     29     10     30 248.3  81.0  33720  282.17 0864.84
2015 04 09 09 38 54 .62      -5     -4     27      7     27 230.5  82.8  33704  281.90 0864.84
2015 04 09 09 38 54 .87     -19    -19     26     27     37 225.0  52.0  33658  281.14 0864.84
2015 04 09 09 38 55 .13     -19    -19     14     27     30 225.0  29.3  33640  280.83 0864.84
2015 04 09 09 38 55 .38     -29    -30      0     43     44 224.1  -0.3  33634  280.73 0864.84
2015 04 09 09 38 55 .63     -23    -24      6     34     35 223.4  11.1  33632  280.70 0864.84
2015 04 09 09 38 55 .88     -32    -11     -1     35     36 250.0  -2.2  33630  280.67 0864.84
2015 04 09 09 38 56 .13     -26     -2      4     27     28 263.9   9.0  33630  280.67 0864.84
2015 04 09 09 38 56 .38     -23     -4      1     24     25 258.5   2.8  33638  280.80 0864.84
2015 04 09 09 38 56 .63     -14      9     31     17     35 302.4  66.8  33634  280.72 0864.84
2015 04 09 09 38 56 .89     -21     21     31     31     43 315.0  50.1  33652  281.02 0864.84
2015 04 09 09 38 57 .14     -25      5     46     26     52 281.5  67.7  33690  281.67 0864.84
2015 04 09 09 38 57 .39     -23      8     35     25     43 290.0  60.5  33692  281.70 0864.84
2015 04 09 09 38 57 .65     -17      9     33     20     38 297.1  64.7  33704  281.89 0864.84
2015 04 09 09 38 57 .90     -23      3     23     24     33 277.9  52.0  33714  282.05 0864.84
2015 04 09 09 38 58 .14      -4     -5     26      7     26 223.4  84.9  33698  281.80 0864.84
2015 04 09 09 38 58 .40       0    -11     31     12     33 180.9  81.2  33682  281.54 0864.84
2015 04 09 09 38 58 .64     -21    -15     38     27     46 234.0  61.5  33660  281.15 0864.84
2015 04 09 09 38 58 .90     -22    -27     28     36     45 219.7  41.7  33630  280.65 0864.84
2015 04 09 09 38 59 .14     -23    -19     29     31     42 230.4  49.0  33620  280.50 0864.84
2015 04 09 09 38 59 .40     -26    -16     26     31     40 237.5  44.8  33584  279.90 0864.84
2015 04 09 09 38 59 .65     -19    -12     33     23     40 235.8  61.5  33586  279.93 0864.84
2015 04 09 09 38 59 .91     -20    -16     24     26     35 230.5  50.0  33598  280.13 0864.84
2015 04 09 09 39 00 .15     -15     -1     22     16     27 265.7  60.5  33618  280.45 0864.84
2015 04 09 09 39 00 .41     -19     12     24     23     33 302.4  48.2  33654  281.05 0864.84
2015 04 09 09 39 00 .65     -12     11     32     17     36 313.1  70.8  33710  282.00 0864.84
2015 04 09 09 39 00 .91      -7      4     24      9     25 302.4  81.2  33702  281.87 0864.84
2015 04 09 09 39 01 .15      -3     -8     22      9     23 205.4  79.2  33716  282.11 0864.84
2015 04 09 09 39 01 .40      -4     -4     32      7     32 225.0  89.0  33684  281.57 0864.84
2015 04 09 09 39 01 .65      -5      1     26      6     26 288.4  86.9  33682  281.54 0864.84
2015 04 09 09 39 01 .90      -9     17     29     20     35 331.0  64.6  33654  281.05 0864.84
2015 04 09 09 39 02 .16     -13     17     24     22     32 322.2  50.1  33672  281.37 0864.84
2015 04 09 09 39 02 .40     -12     21     32     25     40 331.0  58.5  33660  281.15 0864.84
2015 04 09 09 39 02 .66     -15     12     35     20     40 309.5  67.7  33658  281.14 0864.84
2015 04 09 09 39 02 .91     -17      9     33     20     38 297.1  64.7  33662  281.20 0864.84
2015 04 09 09 39 03 .15     -20     14     31     25     39 306.0  56.4  33662  281.19 0864.84
2015 04 09 09 39 03 .41     -20     14     31     25     39 306.0  56.4  33658  281.14 0864.84
2015 04 09 09 39 03 .66     -19     12     32     23     39 302.4  60.5  33664  281.24 0864.83
2015 04 09 09 39 03 .91     -11     12     33     17     37 316.8  70.8  33698  281.79 0864.83
2015 04 09 09 39 04 .17     -15      8     32     18     36 298.9  66.8  33708  281.95 0864.83
2015 04 09 09 39 04 .42     -14     17     44     23     49 320.4  70.8  33724  282.22 0864.83
2015 04 09 09 39 04 .67     -24     24     49     34     59 315.0  61.5  33708  281.95 0864.83
2015 04 09 09 39 04 .92     -22     33     42     40     58 325.7  49.1  33680  281.50 0864.83
2015 04 09 09 39 05 .17     -24     23     48     34     58 313.3  61.5  33692  281.70 0864.83
2015 04 09 09 39 05 .42      -9     28     31     30     43 341.3  50.1  33680  281.49 0864.84
2015 04 09 09 39 05 .67     -22     17     29     29     41 307.8  50.1  33682  281.52 0864.84
2015 04 09 09 39 05 .93      -3     10     27     11     29 341.5  79.2  33694  281.74 0864.84
2015 04 09 09 39 06 .17      -2      5     28      6     28 334.6  86.9  33684  281.55 0864.84
2015 04 09 09 39 06 .42     -15     12     29     20     35 309.5  64.6  33656  281.10 0864.84
2015 04 09 09 39 06 .68     -24      9     22     26     34 291.7  45.8  33656  281.09 0864.84
2015 04 09 09 39 06 .92     -15     16      7     23     25 316.6  17.3  33670  281.32 0864.84
2015 04 09 09 39 07 .18     -17      9     14     20     24 298.9  39.7  33670  281.34 0864.84
2015 04 09 09 39 07 .43     -23     20      8     31     33 311.3  15.3  33676  281.42 0864.84
2015 04 09 09 39 07 .68     -15     21     22     26     34 323.9  45.8  33692  281.70 0864.84
2015 04 09 09 39 07 .93     -24     24     23     34     41 315.0  37.6  33684  281.57 0864.84
2015 04 09 09 39 08 .18     -20     32     14     39     41 327.5  20.0  33682  281.54 0864.84
2015 04 09 09 39 08 .43     -21     20     31     30     43 313.3  50.1  33708  281.95 0864.84
2015 04 09 09 39 08 .69     -17     18     40     25     47 316.6  64.7  33742  282.52 0864.84
2015 04 09 09 39 08 .93     -23      8     35     25     43 290.0  60.5  33730  282.32 0864.84
2015 04 09 09 39 09 .18     -16     20     28     26     38 320.4  48.2  33704  281.89 0864.84
2015 04 09 09 39 09 .43      -1     13     22     14     26 352.0  64.7  33688  281.64 0864.84
2015 04 09 09 39 09 .68     -15     12     16     20     25 309.5  43.7  33664  281.22 0864.84
2015 04 09 09 39 09 .93     -13     21     13     25     28 327.5  29.3  33636  280.77 0864.84
2015 04 09 09 39 10 .19      -8     12     11     15     18 327.5  39.7  33650  281.00 0864.84
2015 04 09 09 39 10 .43     -15     12      8     20     21 309.5  23.0  33658  281.14 0864.84
2015 04 09 09 39 10 .69     -18     25     14     31     34 323.9  25.1  33662  281.19 0864.84
2015 04 09 09 39 10 .95     -24     33     16     41     44 323.9  21.0  33628  280.63 0864.84
2015 04 09 09 39 11 .20     -27     32     17     43     46 319.5  22.0  33656  281.09 0864.84
2015 04 09 09 39 11 .45     -13      8     31     16     34 302.4  70.8  33704  281.90 0864.84
2015 04 09 09 39 11 .70     -24     16     22     30     37 304.2  39.7  33646  280.93 0864.85
2015 04 09 09 39 11 .95     -13     24      4     28     29 331.0   9.0  33618  280.45 0864.85
2015 04 09 09 39 12 .20     -10     33     22     35     41 343.1  35.5  33616  280.42 0864.85
2015 04 09 09 39 12 .44     -22     46     16     52     55 334.5  17.3  33598  280.13 0864.85
2015 04 09 09 39 12 .70      -7     50     18     51     55 351.1  19.2  33596  280.10 0864.85
2015 04 09 09 39 12 .95       3     51     23     52     56   3.6  25.1  33590  280.00 0864.85
2015 04 09 09 39 13 .20       5     46     18     47     50   7.1  21.0  33594  280.05 0864.85
2015 04 09 09 39 13 .45       5     46     18     47     50   7.1  21.0  33594  280.05 0864.84
2015 04 09 09 39 13 .70      -6     46     24     47     52 352.0  28.2  33602  280.18 0864.84
2015 04 09 09 39 13 .95      -5     40     13     41     44 352.0  18.4  33604  280.22 0864.84
2015 04 09 09 39 14 .21       3     38     24     39     45   4.5  35.5  33608  280.28 0864.84
2015 04 09 09 39 14 .46       0     49     33     50     59 359.1  36.5  33656  281.10 0864.84
2015 04 09 09 39 14 .70       8     46     29     47     55  10.7  35.5  33660  281.17 0864.84
2015 04 09 09 39 14 .95       1     43     29     44     52   1.8  35.6  33654  281.05 0864.84
2015 04 09 09 39 15 .21       7     24     26     26     36  16.9  50.1  33652  281.02 0864.84
2015 04 09 09 39 15 .46       0     30     27     31     41 359.1  45.8  33654  281.07 0864.84
2015 04 09 09 39 15 .70       6     25     21     26     33  13.4  43.7  33646  280.93 0864.84
2015 04 09 09 39 15 .96       2     17     23     18     29   8.0  56.4  33648  280.97 0864.84
2015 04 09 09 39 16 .21      -2     13     23     14     26 348.4  64.7  33658  281.14 0864.84
2015 04 09 09 39 16 .46      -8     12     18     15     23 327.5  54.3  33654  281.07 0864.84
2015 04 09 09 39 16 .70     -16     21     22     27     34 322.2  43.8  33640  280.82 0864.84
2015 04 09 09 39 16 .96      -8      8     22     12     25 313.1  66.8  33642  280.87 0864.84
2015 04 09 09 39 17 .21     -10     16     21     19     28 327.4  50.1  33640  280.83 0864.84
2015 04 09 09 39 17 .46     -12     12     27     18     32 315.0  64.6  33652  281.02 0864.84
2015 04 09 09 39 17 .71     -15     16     31     23     38 316.8  58.5  33650  280.99 0864.84
2015 04 09 09 39 17 .97       0     27     32     28     42 359.1  53.3  33640  280.82 0864.84
2015 04 09 09 39 18 .22       4      4     24      7     25  45.0  82.8  33672  281.37 0864.84
2015 04 09 09 39 18 .47       0     18     24     19     30 357.3  56.4  33626  280.60 0864.84
2015 04 09 09 39 18 .72       4     20     17     21     27  13.4  43.7  33596  280.10 0864.84
2015 04 09 09 39 18 .98      -1     18     11     19     21 355.5  33.5  33630  280.65 0864.84
2015 04 09 09 39 19 .23      -2      5     23      6     23 334.6  84.9  33650  280.99 0864.84
2015 04 09 09 39 19 .48     -14      9     31     17     35 302.4  66.8  33680  281.49 0864.84
2015 04 09 09 39 19 .73       6      6     18      9     20  46.7  70.8  33712  282.04 0864.84
2015 04 09 09 39 19 .98       6     -5     21      8     22 129.5  79.2  33710  281.99 0864.84
2015 04 09 09 39 20 .23       0     -4     24      5     24 189.7  89.0  33724  282.24 0864.84
2015 04 09 09 39 20 .48     -16     -7     22     18     28 244.7  54.3  33738  282.47 0864.84
2015 04 09 09 39 20 .73      -2     -6     23      7     24 198.3  80.7  33726  282.26 0864.84
2015 04 09 09 39 20 .98       1      2     29      3     29  32.5  90.0  33718  282.14 0864.84
2015 04 09 09 39 21 .23      -1      6     27      7     27 350.3  82.8  33722  282.21 0864.84
2015 04 09 09 39 21 .48       6      1     26      7     26  78.5  84.9  33722  282.21 0864.84
2015 04 09 09 39 21 .73      10     -3     31     11     32 108.4  81.2  33726  282.26 0864.84
2015 04 09 09 39 21 .98       0      1     31      2     31 341.5  90.0  33708  281.95 0864.84
2015 04 09 09 39 22 .23      -5     -4     20      7     21 230.5  81.0  33728  282.29 0864.84
2015 04 09 09 39 22 .48      -7     -7     24     11     26 225.0  75.0  33730  282.34 0864.84
2015 04 09 09 39 22 .73      -4     -4     27      7     27 225.0  82.8  33720  282.16 0864.84
2015 04 09 09 39 22 .98      -4     -3     26      6     26 230.5  86.9  33730  282.32 0864.84
2015 04 09 09 39 23 .23       0     -2     25      3     25 189.7  90.0  33718  282.12 0864.84
2015 04 09 09 39 23 .49       0      4     27      5     27 350.3  90.0  33716  282.11 0864.83
2015 04 09 09 39 23 .74      -2      2     24      3     24 315.0  90.0  33728  282.29 0864.83
2015 04 09 09 39 23 .99      -6      0     24      7     25 265.6  82.8  33744  282.56 0864.83
2015 04 09 09 39 24 .23       0     -3     24      4     24 184.5  90.0  33738  282.46 0864.83
2015 04 09 09 39 24 .49      -5    -11     20     13     23 205.4  64.7  33734  282.39 0864.83
2015 04 09 09 39 24 .74      -6     -6     18      9     20 225.0  70.8  33734  282.41 0864.83
2015 04 09 09 39 24 .99      -9    -12     22     16     27 216.1  60.5  33742  282.52 0864.83
2015 04 09 09 39 25 .28       1    -12     15     13     19 172.0  54.3  33722  282.19 0864.83
2015 04 09 09 39 25 .49      -2     -8     16      9     18 198.5  68.8  33696  281.77 0864.83
2015 04 09 09 39 25 .75       0    -15     20     16     25 179.1  56.4  33694  281.74 0864.83
2015 04 09 09 39 26 .00     -12    -13     17     18     24 223.4  52.0  33704  281.90 0864.83
2015 04 09 09 39 26 .25     -15    -19     11     25     27 219.6  25.1  33710  281.99 0864.83
2015 04 09 09 39 26 .50      -7    -11      0     14     15 212.5   2.8  33692  281.69 0864.83
2015 04 09 09 39 26 .75     -12    -13     -2     18     19 223.4  -7.2  33676  281.42 0864.83
2015 04 09 09 39 27 .00      -8    -12      0     15     16 216.1   2.9  33682  281.52 0864.83
2015 04 09 09 39 27 .25     -17     -7      9     19     21 248.3  27.2  33686  281.60 0864.83
2015 04 09 09 39 27 .50     -16     -7      9     18     20 244.7  29.3  33690  281.65 0864.83
2015 04 09 09 39 27 .75     -20    -17      4     27     28 230.5   9.0  33682  281.54 0864.83
2015 04 09 09 39 28 .00     -39    -16     -1     43     44 247.4  -2.2  33634  280.72 0864.83
2015 04 09 09 39 28 .25     -31    -27      6     42     43 229.6   9.0  33608  280.28 0864.83
2015 04 09 09 39 28 .50     -24    -30     13     39     42 219.6  19.2  33596  280.10 0864.83
2015 04 09 09 39 28 .76     -18    -28     12     34     37 212.5  19.4  33608  280.28 0864.83
2015 04 09 09 39 29 .01     -19    -38     11     43     45 206.3  14.3  33620  280.48 0864.83
2015 04 09 09 39 29 .26     -29    -37     16     48     51 217.8  19.4  33650  281.00 0864.83
2015 04 09 09 39 29 .51     -48    -30     12     57     59 237.6  12.2  33664  281.24 0864.83
2015 04 09 09 39 29 .76     -39    -21      9     45     47 241.1  12.2  33676  281.44 0864.83
2015 04 09 09 39 30 .01     -21     -4      2     22     23 258.5   6.9  33682  281.52 0864.83
2015 04 09 09 39 30 .26      -8     -8      7     12     13 226.9  31.4  33682  281.52 0864.83
2015 04 09 09 39 30 .51     -11      0      7     12     13 269.2  31.4  33694  281.72 0864.83
2015 04 09 09 39 30 .76     -11      0     20     12     23 269.2  66.8  33728  282.29 0864.84
2015 04 09 09 39 31 .01     -22     17     22     28     35 307.8  43.7  33742  282.52 0864.84
2015 04 09 09 39 31 .26     -36      8      1     37     38 283.3   2.8  33684  281.57 0864.84
2015 04 09 09 39 31 .52     -45     16     -1     48     49 290.0  -2.2  33686  281.60 0864.84
2015 04 09 09 39 31 .78     -44      0     -1     45     46 270.0  -2.2  33716  282.11 0864.84
2015 04 09 09 39 32 .02     -27      9    -14     29     32 288.4 -31.6  33700  281.82 0864.84
2015 04 09 09 39 32 .27     -18     13     -7     23     25 306.0 -17.6  33726  282.26 0864.84
2015 04 09 09 39 32 .52      -4      7      0      9     10 327.5  -2.2  33720  282.16 0864.84
2015 04 09 09 39 32 .77       0      1     11      2     11 341.5  90.0  33714  282.07 0864.84
2015 04 09 09 39 33 .02      -8      9      9     13     15 316.6  35.6  33704  281.90 0864.84
2015 04 09 09 39 33 .27     -28     13      1     31     32 295.2   2.8  33678  281.47 0864.84
2015 04 09 09 39 33 .52     -56     17    -16     59     62 286.8 -15.4  33622  280.52 0864.84
2015 04 09 09 39 33 .78     -39     40     -2     56     57 315.8  -2.2  33638  280.80 0864.84
2015 04 09 09 39 34 .03     -19     32     33     38     50 329.3  44.8  33660  281.15 0864.84
2015 04 09 09 39 34 .28     -19     31     24     37     44 327.4  36.5  33656  281.10 0864.84
2015 04 09 09 39 34 .53     -21     19    -10     29     31 313.3 -19.7  33640  280.82 0864.84
2015 04 09 09 39 34 .78      -6     25     27     26     37 346.6  48.2  33650  280.99 0864.84
2015 04 09 09 39 35 .03     -16     20     16     26     30 320.4  35.5  33642  280.85 0864.84
2015 04 09 09 39 35 .28     -39     15      3     43     44 291.7   4.9  33616  280.42 0864.84
2015 04 09 09 39 35 .53     -35     15      8     39     40 293.5  12.2  33612  280.37 0864.84
2015 04 09 09 39 35 .78     -32      6      0     33     34 281.4  -1.2  33614  280.38 0864.84
2015 04 09 09 39 36 .03     -34      9     -4     36     37 285.1  -7.3  33606  280.25 0864.84
2015 04 09 09 39 36 .29     -22     17     -3     28     29 307.8  -7.3  33616  280.42 0864.83
2015 04 09 09 39 36 .54     -21      7      1     23     24 290.0   2.9  33632  280.70 0864.83
2015 04 09 09 39 36 .78     -25     21     21     33     39 309.6  35.5  33666  281.25 0864.83
2015 04 09 09 39 37 .03     -27     24     17     37     40 311.3  26.2  33670  281.34 0864.83
2015 04 09 09 39 37 .29     -14     17     17     23     28 320.4  41.7  33668  281.29 0864.83
2015 04 09 09 39 37 .54     -13      9     17     17     24 306.0  50.1  33668  281.29 0864.83
2015 04 09 09 39 37 .79     -12     21     20     25     32 331.0  43.7  33678  281.47 0864.83
2015 04 09 09 39 38 .04     -20     10     30     23     37 297.1  58.5  33714  282.05 0864.83
2015 04 09 09 39 38 .28     -25      8     -1     27     28 288.4  -2.2  33696  281.77 0864.83
2015 04 09 09 39 38 .53     -41     20     -3     46     47 296.2  -4.1  33658  281.14 0864.83
2015 04 09 09 39 38 .80     -61     16    -12     64     66 285.1 -11.3  33602  280.18 0864.83
2015 04 09 09 39 39 .05     -70     23    -23     74     78 288.2 -17.6  33584  279.88 0864.84
2015 04 09 09 39 39 .30     -50     35      5     62     63 305.1   4.9  33630  280.65 0864.84
2015 04 09 09 39 39 .55     -42     36      7     56     57 310.4   8.0  33628  280.62 0864.84
2015 04 09 09 39 39 .80     -55     27     -1     62     63 296.2  -1.3  33604  280.23 0864.84
2015 04 09 09 39 40 .05     -36     35      5     51     52 314.0   5.9  33622  280.53 0864.84
2015 04 09 09 39 40 .30     -34     23    -11     42     44 304.2 -14.5  33644  280.90 0864.84
2015 04 09 09 39 40 .55     -19     30     -1     36     37 327.4  -2.2  33642  280.85 0864.84
2015 04 09 09 39 40 .81     -10     25     22     27     34 338.2  43.8  33674  281.39 0864.83
2015 04 09 09 39 41 .05     -17      9     20     20     28 297.1  50.1  33696  281.77 0864.83
2015 04 09 09 39 41 .30     -25      5     20     26     32 281.5  43.7  33694  281.72 0864.83
2015 04 09 09 39 41 .56     -26     16     -1     31     32 302.5  -3.1  33678  281.47 0864.83
2015 04 09 09 39 41 .81     -29     16      6     34     35 298.9  11.1  33656  281.10 0864.83
2015 04 09 09 39 42 .05     -63      8     -5     64     65 277.9  -5.2  33594  280.05 0864.83
2015 04 09 09 39 42 .31     -66     13    -12     68     70 281.4 -10.3  33592  280.02 0864.83
2015 04 09 09 39 42 .56     -65     21     -7     69     70 288.6  -6.2  33604  280.23 0864.83
2015 04 09 09 39 42 .81     -61     20    -10     65     66 288.2  -9.3  33618  280.47 0864.83
2015 04 09 09 39 43 .06     -43     39     -2     59     60 312.2  -2.2  33628  280.62 0864.83
2015 04 09 09 39 43 .31     -51     28     -2     59     60 298.9  -2.2  33654  281.07 0864.83
2015 04 09 09 39 43 .56     -33     21     18     40     43 302.4  25.1  33658  281.14 0864.83
2015 04 09 09 39 43 .81     -49     37     21     62     66 307.8  19.4  33652  281.04 0864.83
2015 04 09 09 39 44 .06     -53     42     25     68     72 308.6  20.0  33644  280.88 0864.83
2015 04 09 09 39 44 .31     -84     31    -14     90     92 290.4  -9.3  33606  280.27 0864.83
2015 04 09 09 39 44 .56     -39     30     -5     50     51 307.8  -6.2  33622  280.52 0864.83
2015 04 09 09 39 44 .81     -16     36     29     40     49 336.4  39.7  33644  280.90 0864.83
2015 04 09 09 39 45 .06     -15     41     18     44     47 340.0  23.0  33640  280.82 0864.83
2015 04 09 09 39 45 .31     -25     45     -1     52     53 330.1  -1.3  33640  280.82 0864.83
2015 04 09 09 39 45 .57     -27     34     45     44     62 322.2  50.1  33658  281.12 0864.83
2015 04 09 09 39 45 .82     -35     24     49     43     65 304.2  53.3  33674  281.39 0864.83
2015 04 09 09 39 46 .08     -27     32     17     43     46 319.5  22.0  33668  281.29 0864.83
2015 04 09 09 39 46 .33     -32      0     20     33     38 270.8  35.5  33672  281.37 0864.84
2015 04 09 09 39 46 .57     -57      4     -5     58     59 274.4  -5.2  33622  280.52 0864.84
2015 04 09 09 39 46 .82     -30      8    -12     32     34 285.1 -23.3  33608  280.30 0864.84
2015 04 09 09 39 47 .08     -28     13      1     31     32 295.2   2.8  33622  280.53 0864.84
2015 04 09 09 39 47 .33     -15     -1     16     16     22 265.6  50.1  33632  280.70 0864.84
2015 04 09 09 39 47 .58     -14    -21     18     26     31 212.6  37.6  33658  281.14 0864.84
2015 04 09 09 39 47 .83      -4    -12     27     13     29 198.3  72.8  33676  281.44 0864.84
2015 04 09 09 39 48 .08     -13      0     18     14     22 270.8  56.4  33702  281.85 0864.84
2015 04 09 09 39 48 .33     -20     12     31     24     39 302.4  56.4  33708  281.95 0864.84
2015 04 09 09 39 48 .58     -20     37     24     43     49 331.0  31.4  33666  281.25 0864.84
2015 04 09 09 39 48 .84     -34     35     16     49     52 315.9  18.9  33658  281.14 0864.84
2015 04 09 09 39 49 .08     -57     40     -8     70     71 305.1  -7.2  33634  280.73 0864.84
2015 04 09 09 39 49 .33     -84     63      5    106    107 306.9   2.8  33622  280.53 0864.84
2015 04 09 09 39 49 .59     -88     56    -14    105    106 302.4  -7.7  33642  280.85 0864.84
2015 04 09 09 39 49 .83     -33     33    -10     48     50 315.0 -12.4  33656  281.09 0864.84
2015 04 09 09 39 50 .09     -32     50     40     60     72 327.4  36.5  33658  281.14 0864.84
2015 04 09 09 39 50 .34     -30     18     53     36     64 300.7  62.6  33680  281.49 0864.84
2015 04 09 09 39 50 .58     -50     23     41     56     69 294.4  39.7  33682  281.52 0864.84
2015 04 09 09 39 50 .84     -22     17      9     28     30 307.8  19.4  33676  281.44 0864.84
2015 04 09 09 39 51 .08     -51     45      3     69     70 311.3   2.9  33650  281.00 0864.84
2015 04 09 09 39 51 .34     -40     48     17     63     66 320.3  15.3  33648  280.97 0864.84
2015 04 09 09 39 51 .59     -41      1     24     42     48 272.6  33.5  33678  281.47 0864.83
2015 04 09 09 39 51 .84     -52      0    -10     53     55 270.8 -11.3  33668  281.29 0864.83
2015 04 09 09 39 52 .09     -58     48     -3     76     77 309.5  -2.2  33682  281.54 0864.83
2015 04 09 09 39 52 .34     -39     43      5     59     60 317.7   4.9  33694  281.72 0864.83
2015 04 09 09 39 52 .59     -34     34     -1     49     50 315.0  -2.2  33684  281.57 0864.83
2015 04 09 09 39 52 .85     -66     48    -11     82     83 306.0  -8.2  33652  281.04 0864.83
2015 04 09 09 39 53 .10     -63     35     -2     73     74 298.8  -2.2  33652  281.04 0864.83
2015 04 09 09 39 53 .35     -71     21      3     75     76 286.8   2.8  33634  280.73 0864.83
2015 04 09 09 39 53 .60     -82     68     -2    107    108 309.5  -1.3  33648  280.95 0864.84
2015 04 09 09 39 53 .85     -67     56      9     88     89 310.0   5.9  33656  281.10 0864.84
2015 04 09 09 39 54 .10     -41     41     10     59     60 315.0  10.1  33654  281.05 0864.84
2015 04 09 09 39 54 .35     -24     24      8     34     35 315.0  13.2  33648  280.97 0864.84
2015 04 09 09 39 54 .61     -22     33     22     40     45 325.7  32.4  33658  281.14 0864.84
2015 04 09 09 39 54 .86     -26     40     16     48     51 326.6  18.9  33654  281.07 0864.84
2015 04 09 09 39 55 .10     -51     20      3     55     56 291.7   3.8  33642  280.85 0864.84
2015 04 09 09 39 55 .36     -36     36     14     52     54 314.9  15.3  33642  280.87 0864.83
2015 04 09 09 39 55 .60     -38     38     21     54     57 315.0  21.0  33644  280.88 0864.83
2015 04 09 09 39 55 .85     -75      5    -11     76     77 274.4  -8.2  33608  280.28 0864.83
2015 04 09 09 39 56 .11     -44     16    -14     47     50 290.0 -16.6  33602  280.20 0864.83
2015 04 09 09 39 56 .36     -30     30     29     43     51 314.9  37.6  33648  280.95 0864.83
2015 04 09 09 39 56 .61     -55     13     -6     57     58 283.3  -6.2  33622  280.52 0864.83
2015 04 09 09 39 56 .86     -73      7     -9     74     75 276.1  -7.3  33614  280.38 0864.83
2015 04 09 09 39 57 .12     -75     27      9     80     81 290.0   6.5  33610  280.33 0864.83
2015 04 09 09 39 57 .36     -56     31      5     65     66 298.9   4.9  33604  280.23 0864.83
2015 04 09 09 39 57 .62     -55     20     -4     59     60 290.8  -4.1  33584  279.90 0864.83
2015 04 09 09 39 57 .87     -33      5     -1     34     35 279.7  -2.2  33606  280.27 0864.83
2015 04 09 09 39 58 .12     -32      6      4     33     34 281.4   6.9  33634  280.72 0864.82
2015 04 09 09 39 58 .36     -32     20      3     39     40 302.4   4.9  33652  281.04 0864.82
2015 04 09 09 39 58 .61     -30     48     12     57     59 327.4  12.2  33654  281.07 0864.82
2015 04 09 09 39 58 .86     -24     20      6     32     33 309.6  11.1  33644  280.90 0864.82
2015 04 09 09 39 59 .43     -18     17     -6     25     26 313.1 -13.4  33642  280.85 0864.82
2015 04 09 09 39 59 .43     -17     18     33     25     41 316.6  58.5  33684  281.57 0864.82
2015 04 09 09 39 59 .64     -26     26     51     37     63 314.9  60.5  33682  281.52 0864.82
2015 04 09 09 39 59 .87     -27     24     37     37     52 311.3  50.1  33688  281.62 0864.82
2015 04 09 09 40 00 .62     -23     13     27     27     38 298.9  50.1  33696  281.75 0864.82
2015 04 09 09 40 00 .88     -29     36      8     47     48 321.3  10.1  33684  281.55 0864.82
2015 04 09 09 40 01 .13     -30     51      7     60     61 329.3   7.1  33652  281.04 0864.82
2015 04 09 09 40 01 .38     -20     45     24     50     55 336.4  27.3  33666  281.27 0864.82
2015 04 09 09 40 01 .63     -15     43     16     46     49 340.8  19.2  33670  281.32 0864.83
2015 04 09 09 40 01 .88     -16     48     20     51     54 340.8  21.0  33664  281.22 0864.83
2015 04 09 09 40 02 .13     -18     54     11     58     60 341.3  11.1  33652  281.02 0864.83
2015 04 09 09 40 02 .39     -20     49     18     54     57 337.3  18.4  33652  281.02 0864.83
2015 04 09 09 40 02 .63      -3     39     22     40     45 355.6  32.4  33662  281.19 0864.83
2015 04 09 09 40 02 .88       0     26     24     27     36 359.1  45.8  33672  281.37 0864.83
2015 04 09 09 40 03 .13      -1     22     20     23     30 357.3  43.8  33670  281.32 0864.83
2015 04 09 09 40 03 .38      -1     13     20     14     24 353.8  60.5  33662  281.20 0864.82
2015 04 09 09 40 03 .64      -3     12     16     13     20 344.9  56.4  33666  281.25 0864.82
2015 04 09 09 40 03 .89      -4      8     14     10     17 331.0  60.5  33676  281.44 0864.82
2015 04 09 09 40 04 .13       0      1     18      2     18 341.5  90.0  33676  281.44 0864.82
2015 04 09 09 40 04 .38      -7      4     18      9     20 302.4  70.8  33676  281.44 0864.82
2015 04 09 09 40 04 .64      -8      1      9      9     12 281.5  50.1  33680  281.49 0864.82
2015 04 09 09 40 04 .88       0     -3      5      4      6 184.5  56.4  33698  281.80 0864.82
2015 04 09 09 40 05 .13      -7     -8      5     11     12 219.6  27.2  33684  281.55 0864.82
2015 04 09 09 40 05 .38     -24     -1      0     25     26 267.4  -1.3  33640  280.82 0864.83
2015 04 09 09 40 05 .64     -39      1     -1     40     41 272.6  -2.2  33604  280.23 0864.83
2015 04 09 09 40 05 .89     -50      1     22     51     55 271.7  25.1  33624  280.57 0864.83
2015 04 09 09 40 06 .14     -27     17     37     32     48 302.4  53.3  33650  281.00 0864.83
2015 04 09 09 40 06 .39     -22     17     23     29     37 307.8  43.7  33674  281.39 0864.83
2015 04 09 09 40 06 .65     -30     25     14     40     42 309.5  20.0  33658  281.14 0864.83
2015 04 09 09 40 06 .90     -26     16     10     31     33 302.5  19.2  33656  281.10 0864.83
2015 04 09 09 40 07 .15     -35     16    -11     39     41 294.4 -16.6  33602  280.18 0864.83
2015 04 09 09 40 07 .41     -22      3    -22     23     31 279.7 -54.4  33632  280.68 0864.83
2015 04 09 09 40 07 .65     -13      8     -8     16     17 302.4 -31.6  33640  280.82 0864.83
2015 04 09 09 40 07 .91       6      1      7      7      9  78.5  50.1  33654  281.05 0864.84
2015 04 09 09 40 08 .16      15      1      2     16     17  85.6   6.9  33660  281.15 0864.84
2015 04 09 09 40 08 .41      12     16     17     21     27  36.1  43.7  33682  281.54 0864.84
2015 04 09 09 40 08 .65      -2     10     34     11     35 344.9  80.7  33696  281.75 0864.84
2015 04 09 09 40 08 .91     -35     16     27     39     47 295.4  37.6  33694  281.74 0864.84
2015 04 09 09 40 09 .16     -18     34     26     39     46 331.0  36.5  33668  281.29 0864.84
2015 04 09 09 40 09 .41     -20      0     18     21     27 270.0  45.8  33660  281.17 0864.84
2015 04 09 09 40 09 .66       8      3     28      9     29  64.7  80.7  33660  281.17 0864.84
2015 04 09 09 40 09 .91     -17     -4      0     18     19 254.9  -2.2  33630  280.67 0864.83
2015 04 09 09 40 10 .16     -49     -3    -21     50     54 265.6 -27.4  33622  280.53 0864.83
2015 04 09 09 40 10 .41     -21    -38     15     44     47 209.0  18.9  33630  280.67 0864.83
2015 04 09 09 40 10 .66     -16    -16     29     23     37 225.0  56.4  33632  280.68 0864.83
2015 04 09 09 40 10 .91     -24      0     33     25     41 269.2  58.5  33644  280.90 0864.83
2015 04 09 09 40 11 .16     -30     20     -9     37     39 304.2 -13.4  33602  280.18 0864.83
2015 04 09 09 40 11 .41     -49      0     -5     50     51 270.8  -6.2  33590  280.00 0864.83
2015 04 09 09 40 11 .66     -70      7    -15     71     73 276.1 -12.4  33556  279.43 0864.83
2015 04 09 09 40 11 .92     -81     16    -23     83     87 281.5 -15.5  33558  279.47 0864.83
2015 04 09 09 40 12 .16     -40     28     17     50     54 305.1  19.4  33598  280.12 0864.83
2015 04 09 09 40 12 .42     -39     32     -2     51     52 309.5  -2.2  33592  280.02 0864.83
2015 04 09 09 40 12 .67     -15     12     -2     20     21 307.8  -7.3  33600  280.15 0864.82
2015 04 09 09 40 12 .92     -15     12     16     20     25 309.5  43.7  33598  280.13 0864.82
2015 04 09 09 40 13 .16     -16     28      1     33     34 329.3   2.9  33602  280.18 0864.82
2015 04 09 09 40 13 .42     -27      9    -27     29     39 288.4 -53.4  33582  279.87 0864.82
2015 04 09 09 40 13 .68     -10     18     -7     21     23 331.0 -19.7  33596  280.08 0864.82
2015 04 09 09 40 13 .93     -23      0      0     24     25 269.2  -2.2  33590  280.00 0864.82
2015 04 09 09 40 14 .17     -53      9     -3     54     55 280.6  -3.1  33552  279.35 0864.82
2015 04 09 09 40 14 .43     -71      7     -9     72     73 276.1  -7.2  33552  279.37 0864.83
2015 04 09 09 40 14 .68     -69     14     -5     71     72 281.4  -4.1  33562  279.53 0864.83
2015 04 09 09 40 14 .93     -66      0     -8     67     68 270.8  -7.3  33560  279.48 0864.83
2015 04 09 09 40 15 .18     -58    -21     -2     62     63 250.0  -2.2  33572  279.68 0864.83
2015 04 09 09 40 15 .43     -55    -33     -8     65     66 238.5  -7.3  33574  279.72 0864.83
2015 04 09 09 40 15 .68     -56    -19     -5     60     61 251.4  -5.2  33566  279.60 0864.83
2015 04 09 09 40 15 .93     -58    -19     -8     62     63 251.8  -7.3  33564  279.57 0864.83
2015 04 09 09 40 16 .18     -58    -25     -5     64     65 246.5  -5.2  33564  279.55 0864.83
2015 04 09 09 40 16 .43     -62    -34     -1     71     72 241.1  -1.2  33562  279.52 0864.83
2015 04 09 09 40 16 .68     -61    -28     -8     68     69 245.6  -7.3  33556  279.42 0864.83
2015 04 09 09 40 16 .94     -64    -12    -18     66     69 259.4 -15.5  33550  279.32 0864.83
2015 04 09 09 40 17 .18     -64    -12    -18     66     69 259.4 -15.5  33550  279.32 0864.83
2015 04 09 09 40 17 .43     -64      0     -8     65     66 269.2  -7.3  33550  279.32 0864.83
2015 04 09 09 40 17 .69     -65      0    -10     66     67 270.8  -9.3  33548  279.28 0864.83
2015 04 09 09 40 17 .94     -56    -19     -5     60     61 251.4  -5.2  33548  279.30 0864.83
2015 04 09 09 40 18 .19     -53    -17     -7     56     57 251.4  -7.3  33552  279.37 0864.83
2015 04 09 09 40 18 .43     -55    -12     -8     57     58 257.6  -8.2  33550  279.33 0864.83
2015 04 09 09 40 18 .69     -49      1     -3     50     51 271.7  -4.1  33548  279.28 0864.83
2015 04 09 09 40 18 .94     -57      7    -13     58     60 277.0 -13.4  33550  279.33 0864.83
2015 04 09 09 40 19 .19     -59      1     11     60     62 271.7  11.1  33566  279.58 0864.83
2015 04 09 09 40 19 .44     -54     -4      2     55     56 265.6   2.8  33554  279.38 0864.83
2015 04 09 09 40 19 .69     -51     12     -2     53     54 284.2  -2.2  33548  279.28 0864.83
2015 04 09 09 40 19 .94     -49      9     -5     50     51 280.6  -6.2  33548  279.28 0864.83
2015 04 09 09 40 20 .20     -44     -5     -8     45     46 263.0 -10.3  33558  279.47 0864.83
2015 04 09 09 40 20 .46     -57    -25     -5     63     64 246.5  -5.2  33574  279.73 0864.83
2015 04 09 09 40 20 .71     -36    -27     22     46     51 233.1  27.2  33600  280.15 0864.82
2015 04 09 09 40 20 .95     -62     -8     -2     63     64 262.0  -2.2  33560  279.50 0864.82
2015 04 09 09 40 21 .21     -66      4    -24     67     71 274.3 -23.3  33560  279.50 0864.82
2015 04 09 09 40 21 .45     -73     24      3     77     78 288.2   2.9  33584  279.88 0864.82
2015 04 09 09 40 21 .71     -61     12    -22     63     67 281.5 -19.7  33574  279.72 0864.82
2015 04 09 09 40 21 .96     -16     20      9     26     28 320.4  18.9  33612  280.35 0864.82
2015 04 09 09 40 22 .21      -7      4     -8      9     12 302.4 -52.3  33610  280.32 0864.82
2015 04 09 09 40 22 .46     -17    -18     20     26     32 223.2  43.7  33630  280.65 0864.82
2015 04 09 09 40 22 .71     -73    -26     -2     78     79 250.0  -1.8  33566  279.58 0864.82
2015 04 09 09 40 22 .96     -86    -34     -8     93     94 248.3  -5.2  33558  279.45 0864.82
2015 04 09 09 40 23 .21     -89    -38     -9     97     98 246.9  -5.6  33552  279.37 0864.82
2015 04 09 09 40 23 .46    -100    -40    -13    108    109 248.2  -7.3  33562  279.52 0864.82
2015 04 09 09 40 23 .71     -84    -51     -9     99    100 238.9  -5.2  33568  279.62 0864.82
2015 04 09 09 40 23 .96     -72    -46     -3     86     87 237.5  -2.6  33574  279.72 0864.82
2015 04 09 09 40 24 .21     -33    -44     16     56     59 217.0  16.3  33578  279.80 0864.82
2015 04 09 09 40 24 .46     -34    -40     31     53     61 220.5  33.5  33578  279.80 0864.82
2015 04 09 09 40 24 .72     -44    -28     43     53     68 237.6  43.7  33604  280.22 0864.82
2015 04 09 09 40 24 .96     -52     13     20     54     57 284.2  20.0  33604  280.23 0864.82
2015 04 09 09 40 25 .22     -46     -4     20     47     51 264.8  24.1  33608  280.28 0864.82
2015 04 09 09 40 25 .46     -55    -19     11     59     61 250.9  11.1  33580  279.82 0864.82
2015 04 09 09 40 25 .72     -74    -35    -23     83     87 244.6 -15.5  33556  279.42 0864.82
2015 04 09 09 40 25 .96     -84    -37    -27     93     96 246.0 -21.7  33558  279.47 0864.82
2015 04 09 09 40 26 .22     -92    -35     -5     99    100 249.2  -3.2  33560  279.48 0864.82
2015 04 09 09 40 26 .47     -76    -31     17     83     85 247.4  11.6  33576  279.75 0864.82
2015 04 09 09 40 26 .71     -85    -25     -1     89     90 253.6  -0.7  33564  279.57 0864.82
2015 04 09 09 40 26 .97     -70    -52     -4     88     89 233.1  -2.6  33558  279.47 0864.82
2015 04 09 09 40 27 .22     -68    -43     -3     81     82 237.6  -2.2  33560  279.48 0864.82
2015 04 09 09 40 27 .48     -48    -53      3     72     73 222.3   2.8  33570  279.65 0864.82
2015 04 09 09 40 27 .73     -62    -59      4     86     87 226.4   2.9  33596  280.10 0864.82
2015 04 09 09 40 27 .98     -58    -51     -3     78     79 228.7  -2.2  33604  280.22 0864.82
2015 04 09 09 40 28 .23     -50    -59     18     78     81 220.5  13.2  33592  280.03 0864.82
2015 04 09 09 40 28 .48     -46    -66     11     81     82 215.2   8.0  33590  280.00 0864.82
2015 04 09 09 40 28 .73     -46    -54      8     72     73 220.5   6.9  33590  279.98 0864.83
2015 04 09 09 40 28 .98     -32    -58      3     67     68 209.0   2.9  33584  279.88 0864.83
2015 04 09 09 40 29 .23     -34    -53     -3     64     65 212.5  -3.1  33574  279.72 0864.83
2015 04 09 09 40 29 .49     -32    -51     -2     61     62 212.6  -2.2  33578  279.78 0864.83
2015 04 09 09 40 29 .74     -34    -48     -3     59     60 215.2  -3.1  33584  279.88 0864.83
2015 04 09 09 40 29 .99     -41    -57     15     71     73 216.1  12.2  33590  280.00 0864.83
2015 04 09 09 40 30 .23     -43    -46     28     64     69 223.2  26.2  33596  280.08 0864.83
2015 04 09 09 40 30 .48     -47    -52     15     71     73 222.3  12.2  33590  280.00 0864.83
2015 04 09 09 40 30 .74     -55    -57      7     80     81 223.7   5.4  33580  279.82 0864.82
2015 04 09 09 40 30 .99     -51    -48     40     71     81 226.9  31.9  33598  280.12 0864.82
2015 04 09 09 40 31 .24     -62    -34      0     71     72 241.1  -0.3  33584  279.88 0864.82
2015 04 09 09 40 31 .49     -69    -28      3     75     76 247.4   2.8  33582  279.85 0864.82
2015 04 09 09 40 31 .74     -59    -46      3     75     76 232.2   2.9  33586  279.93 0864.82
2015 04 09 09 40 31 .99     -62    -45     12     77     78 234.0   9.0  33572  279.68 0864.82
2015 04 09 09 40 32 .24     -57    -47      3     75     76 230.4   2.9  33572  279.68 0864.82
2015 04 09 09 40 32 .49     -54    -43      3     70     71 231.4   2.8  33566  279.60 0864.83
2015 04 09 09 40 32 .74     -47    -47      9     67     68 225.1   8.0  33564  279.57 0864.83
2015 04 09 09 40 33 .00     -59    -46      3     75     76 232.2   2.9  33574  279.72 0864.83
2015 04 09 09 40 33 .24     -48    -45      8     66     67 226.9   6.9  33582  279.85 0864.83
2015 04 09 09 40 33 .50     -43    -42     12     61     63 226.0  11.1  33584  279.90 0864.83
2015 04 09 09 40 33 .74     -61    -54     24     82     86 228.7  16.8  33592  280.03 0864.83
2015 04 09 09 40 33 .99     -45    -42     19     62     65 226.9  17.3  33586  279.93 0864.83
2015 04 09 09 40 34 .24     -47    -38      9     61     62 230.5   9.0  33574  279.72 0864.82
2015 04 09 09 40 34 .50     -40    -41     16     58     61 224.1  15.3  33572  279.70 0864.82
2015 04 09 09 40 34 .75     -46    -61      9     77     78 217.0   6.9  33574  279.72 0864.82
2015 04 09 09 40 35 .00     -46    -61      9     77     78 217.0   6.9  33574  279.72 0864.82
2015 04 09 09 40 35 .26     -41    -65      8     78     79 212.5   6.5  33574  279.72 0864.82
2015 04 09 09 40 35 .51     -33    -61      8     70     71 208.9   7.1  33568  279.62 0864.82
2015 04 09 09 40 35 .76     -25    -54      5     60     61 205.3   4.9  33570  279.67 0864.82
2015 04 09 09 40 36 .01     -25    -54      5     60     61 205.3   4.9  33574  279.72 0864.82
2015 04 09 09 40 36 .26     -26    -42      2     50     51 212.5   2.9  33576  279.75 0864.82
2015 04 09 09 40 36 .52     -44    -44     -2     63     64 225.1  -2.2  33584  279.90 0864.82
2015 04 09 09 40 36 .76     -51    -37      7     64     65 234.0   6.9  33588  279.95 0864.82
2015 04 09 09 40 37 .01     -41    -38      6     57     58 226.9   6.9  33572  279.70 0864.82
2015 04 09 09 40 37 .26     -40    -38     15     56     59 226.0  15.2  33574  279.72 0864.82
2015 04 09 09 40 37 .51     -41    -36     24     55     60 228.7  25.1  33570  279.67 0864.82
2015 04 09 09 40 37 .77     -35    -38     10     52     54 222.3  11.1  33574  279.72 0864.82
2015 04 09 09 40 38 .01     -50    -36     17     62     65 234.0  15.2  33580  279.82 0864.82
2015 04 09 09 40 38 .27     -46    -46     22     66     70 225.1  18.9  33602  280.18 0864.82
2015 04 09 09 40 38 .51     -54    -61     28     82     87 221.9  19.2  33604  280.23 0864.82
2015 04 09 09 40 38 .76     -54    -65     16     85     87 219.6  11.1  33604  280.22 0864.82
2015 04 09 09 40 39 .02     -54    -67      8     87     88 218.7   5.4  33608  280.28 0864.82
2015 04 09 09 40 39 .27     -42    -67     21     80     83 212.1  14.7  33628  280.62 0864.82
2015 04 09 09 40 39 .52     -50    -59     35     78     85 220.5  25.7  33624  280.57 0864.82
2015 04 09 09 40 39 .77     -44    -47     29     65     71 223.2  26.2  33632  280.70 0864.82
2015 04 09 09 40 40 .02     -43    -43     12     62     64 225.1  11.1  33630  280.67 0864.82
2015 04 09 09 40 40 .27     -54    -40     -2     68     69 233.1  -2.2  33602  280.20 0864.82
2015 04 09 09 40 40 .53     -67    -49     -3     84     85 234.0  -2.2  33622  280.52 0864.82
2015 04 09 09 40 40 .77     -61    -61     24     87     91 225.0  15.3  33638  280.80 0864.82
2015 04 09 09 40 41 .02     -62    -51     22     81     85 230.9  15.3  33636  280.77 0864.82
2015 04 09 09 40 41 .27     -53    -50      8     74     75 226.8   6.9  33642  280.85 0864.82
2015 04 09 09 40 41 .53     -40    -38     15     56     59 226.0  15.2  33644  280.90 0864.82
2015 04 09 09 40 41 .78     -41    -24      5     48     49 239.3   6.9  33642  280.85 0864.82
2015 04 09 09 40 42 .03     -51    -37     -1     64     65 234.0  -1.2  33644  280.90 0864.82
2015 04 09 09 40 42 .28     -32    -34     13     47     49 223.2  16.3  33648  280.97 0864.82
2015 04 09 09 40 42 .54     -37    -51     20     64     68 216.0  17.3  33660  281.15 0864.82
2015 04 09 09 40 42 .78     -40    -48     26     63     68 219.6  23.0  33640  280.82 0864.82
2015 04 09 09 40 43 .04     -24    -56     32     62     69 203.6  29.3  33636  280.75 0864.82
2015 04 09 09 40 43 .29     -31    -44     40     54     67 215.2  39.7  33646  280.92 0864.82
2015 04 09 09 40 43 .53     -33    -52     32     62     69 212.6  29.3  33638  280.80 0864.81
2015 04 09 09 40 43 .79     -34    -54     38     65     75 212.5  33.5  33656  281.10 0864.81
2015 04 09 09 40 44 .04     -37    -44     41     58     71 219.6  39.5  33654  281.05 0864.81
2015 04 09 09 40 44 .28     -42    -51     31     67     73 219.6  27.1  33622  280.52 0864.81
2015 04 09 09 40 44 .54     -49    -48     24     69     74 225.9  19.4  33612  280.37 0864.81
2015 04 09 09 40 44 .79     -54    -65     32     85     90 219.6  21.5  33618  280.45 0864.81
2015 04 09 09 40 45 .04     -63    -55     31     84     89 228.7  20.4  33604  280.22 0864.81
2015 04 09 09 40 45 .29     -66    -67     26     95     99 224.5  15.3  33588  279.95 0864.81
2015 04 09 09 40 45 .54     -57    -69     20     90     93 219.6  12.6  33582  279.85 0864.81
2015 04 09 09 40 45 .79     -66    -66     22     94     97 225.0  13.7  33608  280.28 0864.81
2015 04 09 09 40 46 .04     -65    -64     17     92     94 225.6  10.6  33592  280.03 0864.81
2015 04 09 09 40 46 .29     -77    -67      5    103    104 229.1   2.9  33584  279.90 0864.81
2015 04 09 09 40 46 .55     -78    -68     13    104    105 229.1   7.5  33614  280.38 0864.81
2015 04 09 09 40 46 .79     -67    -67     17     95     97 225.0  10.1  33610  280.32 0864.81
2015 04 09 09 40 47 .05     -72    -72     26    103    107 225.0  14.3  33612  280.37 0864.81
2015 04 09 09 40 47 .30     -67    -67     33     96    102 225.0  18.9  33628  280.62 0864.81
2015 04 09 09 40 47 .55     -51    -54     46     75     87 223.3  35.0  33650  281.00 0864.81
2015 04 09 09 40 47 .80     -49    -60     41     78     88 219.7  29.8  33656  281.10 0864.81
2015 04 09 09 40 48 .04     -67    -68     44     96    105 224.7  26.6  33624  280.57 0864.81
2015 04 09 09 40 48 .31     -66    -70     39     97    104 223.2  23.0  33612  280.37 0864.81
2015 04 09 09 40 48 .56     -53    -71     45     89     99 217.0  28.7  33620  280.48 0864.81
2015 04 09 09 40 48 .80     -52    -70     39     88     96 216.5  25.7  33618  280.47 0864.81
2015 04 09 09 40 49 .06     -57    -65     37     87     94 221.0  24.6  33602  280.18 0864.81
2015 04 09 09 40 49 .31     -49    -64     28     81     86 217.4  19.4  33598  280.12 0864.81
2015 04 09 09 40 49 .56     -42    -67     31     80     85 212.5  22.0  33610  280.32 0864.81
2015 04 09 09 40 49 .82     -46    -43     46     64     78 226.9  39.7  33654  281.05 0864.81
2015 04 09 09 40 50 .06     -43    -43     21     61     65 225.1  19.4  33626  280.58 0864.81
2015 04 09 09 40 50 .32     -41    -50     22     65     69 219.6  18.9  33648  280.95 0864.81
2015 04 09 09 40 50 .56     -51    -48     33     71     78 226.9  26.6  33642  280.85 0864.81
2015 04 09 09 40 50 .82     -43    -47     28     64     69 222.3  26.2  33644  280.90 0864.81
2015 04 09 09 40 51 .06     -48    -48     24     68     73 225.0  19.4  33634  280.72 0864.81
2015 04 09 09 40 51 .32     -47    -51     39     70     80 223.2  31.4  33630  280.67 0864.81
2015 04 09 09 40 51 .56     -46    -58     40     75     85 218.7  30.3  33588  279.95 0864.81
2015 04 09 09 40 51 .82     -37    -58     34     69     76 212.5  27.3  33600  280.17 0864.81
2015 04 09 09 40 52 .06     -40    -38     33     56     65 225.9  33.5  33610  280.33 0864.81
2015 04 09 09 40 52 .32     -28    -37     36     47     59 217.8  41.7  33612  280.35 0864.81
2015 04 09 09 40 52 .57     -17    -44     46     48     66 201.8  50.0  33632  280.68 0864.81
2015 04 09 09 40 52 .82     -27    -27     44     39     58 225.0  53.3  33658  281.14 0864.81
2015 04 09 09 40 53 .07     -32    -41     46     53     70 217.8  44.8  33662  281.20 0864.81
2015 04 09 09 40 53 .32     -31    -48     41     58     71 212.5  39.5  33636  280.75 0864.81
2015 04 09 09 40 53 .57     -34    -54     31     65     72 212.5  27.2  33618  280.47 0864.81
2015 04 09 09 40 53 .82     -39    -55     26     68     72 216.0  22.0  33562  279.53 0864.81
2015 04 09 09 40 54 .07     -42    -51     23     67     72 219.6  19.4  33566  279.58 0864.81
2015 04 09 09 40 54 .32     -38    -59     19     71     74 212.5  15.2  33564  279.57 0864.81
2015 04 09 09 40 54 .57     -33    -52     17     62     65 212.5  15.3  33558  279.45 0864.81
2015 04 09 09 40 54 .82     -29    -53     15     61     63 209.0  14.3  33558  279.47 0864.81
2015 04 09 09 40 55 .07     -32    -46     17     57     60 215.2  17.3  33560  279.48 0864.81
2015 04 09 09 40 55 .33     -34    -49     16     60     63 215.2  15.2  33558  279.47 0864.82
2015 04 09 09 40 55 .58     -39    -38      2     55     56 225.9   2.9  33570  279.67 0864.82
2015 04 09 09 40 55 .83     -34    -48      9     59     60 215.2   9.0  33568  279.62 0864.82
2015 04 09 09 40 56 .08     -43    -46      7     64     65 223.2   6.9  33572  279.70 0864.82
2015 04 09 09 40 56 .33     -37    -50      7     63     64 216.1   6.9  33564  279.55 0864.82
2015 04 09 09 40 56 .59     -29    -46      6     55     56 212.6   6.9  33570  279.65 0864.82
2015 04 09 09 40 56 .83     -32    -51     -2     61     62 212.6  -2.2  33578  279.78 0864.82
2015 04 09 09 40 57 .09     -39    -39     -7     56     57 225.0  -7.3  33574  279.72 0864.82
2015 04 09 09 40 57 .33     -41    -38    -14     57     59 226.9 -14.5  33558  279.47 0864.82
2015 04 09 09 40 57 .59     -48    -53     -9     72     73 222.3  -7.3  33564  279.55 0864.82
2015 04 09 09 40 57 .84     -50    -50    -13     71     73 225.0 -10.3  33562  279.52 0864.82
2015 04 09 09 40 58 .09     -54    -50     -9     74     75 226.9  -7.3  33564  279.55 0864.82
2015 04 09 09 40 58 .34     -32    -51     -7     61     62 212.6  -7.2  33574  279.72 0864.82
2015 04 09 09 40 58 .59     -45    -48     -2     67     68 223.2  -2.2  33572  279.70 0864.82
2015 04 09 09 40 58 .84     -47    -47    -11     67     68 225.0  -9.3  33570  279.65 0864.82
2015 04 09 09 40 59 .09     -42    -50    -18     66     69 219.6 -15.5  33562  279.52 0864.82
2015 04 09 09 40 59 .34     -33    -42    -24     54     59 218.7 -29.5  33560  279.48 0864.82
2015 04 09 09 40 59 .59     -35    -43    -23     56     60 219.7 -27.5  33562  279.52 0864.82
2015 04 09 09 40 59 .85     -37    -44    -20     58     62 219.7 -19.7  33566  279.58 0864.82
2015 04 09 09 41 00 .09     -24    -35    -10     43     45 214.3 -13.4  33570  279.65 0864.82
2015 04 09 09 41 00 .34     -24    -25    -12     35     37 223.4 -23.6  33570  279.65 0864.82
2015 04 09 09 41 00 .59     -26    -26     -2     38     39 225.0  -3.1  33576  279.77 0864.82
2015 04 09 09 41 00 .84     -29    -24     -3     38     39 230.5  -5.2  33576  279.75 0864.82
2015 04 09 09 41 01 .09     -26    -31    -12     41     42 219.6 -20.7  33576  279.75 0864.82
2015 04 09 09 41 01 .34     -28    -35     -1     45     46 218.7  -2.2  33588  279.97 0864.82
2015 04 09 09 41 01 .60     -28    -35      2     45     46 218.7   2.9  33588  279.95 0864.82
2015 04 09 09 41 01 .84     -31    -28     -1     42     43 227.8  -2.2  33590  280.00 0864.82
2015 04 09 09 41 02 .09     -25    -30     -1     40     41 219.6  -2.2  33582  279.85 0864.82
2015 04 09 09 41 02 .36     -25    -30     -1     40     41 219.6  -2.2  33582  279.85 0864.82
2015 04 09 09 41 02 .61     -23    -35      1     42     43 213.4   1.8  33592  280.02 0864.82
2015 04 09 09 41 02 .86     -21    -38     -3     44     45 209.0  -4.1  33586  279.92 0864.82
2015 04 09 09 41 03 .11     -22    -40     -9     46     47 209.0 -11.3  33582  279.85 0864.82
2015 04 09 09 41 03 .36      -9    -34     -4     36     37 195.1  -7.2  33578  279.80 0864.82
2015 04 09 09 41 03 .61     -13    -39     -1     42     43 198.5  -2.2  33578  279.80 0864.82
2015 04 09 09 41 03 .86     -11    -35     -1     37     38 198.3  -2.2  33576  279.77 0864.82
2015 04 09 09 41 04 .11     -17    -36    -12     40     41 205.4 -21.7  33568  279.63 0864.82
2015 04 09 09 41 04 .37     -15    -30    -12     34     37 207.2 -19.7  33576  279.77 0864.83
2015 04 09 09 41 04 .61     -12    -35     -9     38     40 200.0 -13.4  33574  279.73 0864.83
2015 04 09 09 41 04 .86     -18    -25     -7     32     33 216.1 -13.4  33580  279.82 0864.83
2015 04 09 09 41 05 .11     -13    -27     -8     31     33 205.5 -15.5  33588  279.95 0864.83
2015 04 09 09 41 05 .36     -13    -26     -1     30     31 207.2  -3.1  33592  280.02 0864.83
2015 04 09 09 41 05 .61     -17    -26     -1     32     33 212.6  -2.2  33594  280.05 0864.83
2015 04 09 09 41 05 .86     -19    -30      1     36     37 212.5   2.9  33584  279.90 0864.83
2015 04 09 09 41 06 .12     -22    -35      0     42     43 212.5  -0.3  33598  280.13 0864.83
2015 04 09 09 41 06 .37     -23    -43      0     49     50 208.1   0.8  33598  280.12 0864.83
2015 04 09 09 41 06 .62     -25    -63      3     68     69 201.8   2.9  33608  280.28 0864.83
2015 04 09 09 41 06 .87     -23    -71     -2     75     76 198.3  -2.2  33606  280.25 0864.82
2015 04 09 09 41 07 .12     -21    -78      1     81     82 195.6   1.2  33618  280.45 0864.82
2015 04 09 09 41 07 .37     -21    -63     23     67     72 198.5  19.4  33618  280.47 0864.82
2015 04 09 09 41 07 .62     -16    -60     21     63     67 195.1  18.9  33616  280.42 0864.82
2015 04 09 09 41 07 .87     -15    -47     28     50     57 198.3  32.4  33620  280.48 0864.82
2015 04 09 09 41 08 .12      -7    -54     31     55     63 188.0  31.4  33618  280.47 0864.82
2015 04 09 09 41 08 .37     -12    -45      4     47     48 195.1   5.9  33594  280.07 0864.82
2015 04 09 09 41 08 .62     -11    -46     -1     48     49 193.4  -2.2  33578  279.80 0864.82
2015 04 09 09 41 08 .88     -20    -43     16     48     51 205.4  19.2  33582  279.85 0864.81
2015 04 09 09 41 09 .12     -18    -48     11     52     54 200.9  12.2  33588  279.95 0864.81
2015 04 09 09 41 09 .38     -21    -46     10     51     52 205.3  11.1  33588  279.97 0864.81
2015 04 09 09 41 09 .63     -19    -43      5     48     49 203.6   6.9  33576  279.77 0864.81
2015 04 09 09 41 09 .88     -10    -50      0     52     53 191.6  -0.3  33568  279.62 0864.81
2015 04 09 09 41 10 .13     -16    -50     12     53     55 198.3  13.2  33566  279.58 0864.81
2015 04 09 09 41 10 .39     -24    -51      5     57     58 205.3   5.9  33570  279.65 0864.81
2015 04 09 09 41 10 .64     -20    -55      9     59     60 200.0   9.0  33570  279.67 0864.82
2015 04 09 09 41 10 .88     -24    -54     11     60     62 203.6  11.1  33572  279.70 0864.82
2015 04 09 09 41 11 .14     -23    -45     13     51     53 207.2  14.3  33572  279.70 0864.82
2015 04 09 09 41 11 .39     -23    -46     -2     52     53 207.2  -2.2  33582  279.85 0864.82
2015 04 09 09 41 11 .64     -24    -46     -2     53     54 208.1  -2.2  33594  280.05 0864.82
2015 04 09 09 41 11 .89     -21    -46      2     51     52 205.3   2.9  33588  279.95 0864.82
2015 04 09 09 41 12 .14     -23    -50      0     56     57 204.5  -0.3  33586  279.93 0864.82
2015 04 09 09 41 12 .39     -26    -42      2     50     51 212.5   2.9  33588  279.95 0864.82
2015 04 09 09 41 12 .64     -18    -53     16     57     60 199.2  16.3  33578  279.80 0864.82
2015 04 09 09 41 12 .89     -16    -51     15     54     57 197.8  15.3  33574  279.72 0864.82
2015 04 09 09 41 13 .14     -22    -49     15     54     57 204.5  15.3  33574  279.72 0864.82
2015 04 09 09 41 13 .40     -10    -50      0     52     53 191.6  -0.3  33570  279.67 0864.82
2015 04 09 09 41 13 .65     -14    -42     -1     45     46 198.3  -2.2  33582  279.87 0864.82
2015 04 09 09 41 13 .89     -28    -35     -2     45     46 218.7  -3.1  33592  280.02 0864.82
2015 04 09 09 41 14 .15     -25    -39     -6     47     48 212.6  -7.3  33588  279.97 0864.82
2015 04 09 09 41 14 .39     -29    -46      0     55     56 212.5   0.8  33592  280.03 0864.82
2015 04 09 09 41 14 .65     -34    -46     -3     58     59 217.0  -3.1  33586  279.93 0864.82
2015 04 09 09 41 14 .90     -38    -46     -1     61     62 219.6  -1.3  33596  280.10 0864.82
2015 04 09 09 41 15 .15     -36    -43      1     57     58 219.7   1.8  33598  280.12 0864.82
2015 04 09 09 41 15 .40     -46    -33      0     57     58 234.0   0.8  33598  280.13 0864.82
2015 04 09 09 41 15 .65     -33    -39      2     52     53 220.5   2.9  33600  280.15 0864.82
2015 04 09 09 41 15 .90     -24    -44      5     51     52 209.0   5.9  33592  280.02 0864.82
2015 04 09 09 41 16 .16     -24    -53     11     59     61 204.5  11.1  33578  279.80 0864.82
2015 04 09 09 41 16 .41     -21    -64      8     68     69 198.3   6.9  33588  279.95 0864.82
2015 04 09 09 41 16 .67     -20    -68      8     72     73 196.9   6.9  33598  280.12 0864.82
2015 04 09 09 41 16 .91     -26    -58      3     64     65 204.5   2.9  33606  280.25 0864.82
2015 04 09 09 41 17 .16     -23    -71      3     75     76 198.3   2.9  33598  280.13 0864.82
2015 04 09 09 41 17 .42     -41    -65      8     78     79 212.5   6.5  33608  280.28 0864.82
2015 04 09 09 41 17 .66     -31    -56     12     65     67 209.0  11.0  33616  280.42 0864.82
2015 04 09 09 41 17 .91     -33    -52     17     62     65 212.5  15.3  33618  280.47 0864.82
2015 04 09 09 41 18 .16     -41    -50     22     65     69 219.6  18.9  33620  280.48 0864.82
2015 04 09 09 41 18 .41     -24    -52     20     58     62 204.5  19.4  33610  280.33 0864.82
2015 04 09 09 41 18 .67     -31    -55     20     64     68 209.0  17.3  33608  280.28 0864.82
2015 04 09 09 41 18 .92     -31    -48     11     58     60 212.5  11.1  33616  280.42 0864.83
2015 04 09 09 41 19 .17     -21    -64     24     68     73 198.3  19.4  33628  280.62 0864.83
2015 04 09 09 41 19 .42     -29    -62     21     69     73 205.4  17.3  33638  280.78 0864.83
2015 04 09 09 41 19 .67     -49    -64     28     81     86 217.4  19.4  33622  280.53 0864.83
2015 04 09 09 41 19 .92     -32    -68     24     76     80 205.5  17.9  33626  280.58 0864.83
2015 04 09 09 41 20 .17     -27    -81     16     86     88 198.7  11.1  33624  280.57 0864.83
2015 04 09 09 41 20 .42     -24    -56     40     62     73 203.6  35.6  33636  280.77 0864.83
2015 04 09 09 41 20 .67     -23    -59     29     64     70 201.8  27.1  33620  280.48 0864.82
2015 04 09 09 41 20 .92     -32    -68     33     76     82 205.5  24.6  33620  280.48 0864.82
2015 04 09 09 41 21 .17     -23    -67     25     72     77 199.2  19.4  33612  280.35 0864.82
2015 04 09 09 41 21 .43     -22    -96     36     99    105 192.9  20.0  33624  280.57 0864.82
2015 04 09 09 41 21 .67     -31    -99     27    104    108 197.4  14.7  33620  280.48 0864.82
2015 04 09 09 41 21 .93     -37    -76     25     85     89 206.3  16.8  33630  280.67 0864.82
2015 04 09 09 41 22 .18     -46    -68     32     83     88 213.8  21.5  33644  280.90 0864.82
2015 04 09 09 41 22 .42     -45    -56     25     72     77 218.7  19.4  33642  280.87 0864.82
2015 04 09 09 41 22 .67     -64    -61     27     89     94 226.4  17.3  33626  280.60 0864.82
2015 04 09 09 41 22 .93     -52    -81     16     97     99 213.0   9.5  33616  280.42 0864.82
2015 04 09 09 41 23 .18     -48    -73     20     88     91 213.8  13.2  33610  280.32 0864.82
2015 04 09 09 41 23 .44     -44    -71     15     84     86 211.6  10.1  33614  280.38 0864.82
2015 04 09 09 41 23 .69     -39    -62     11     74     75 212.5   9.0  33610  280.32 0864.82
2015 04 09 09 41 23 .94     -38    -57     16     69     71 214.3  13.2  33642  280.85 0864.82
2015 04 09 09 41 24 .19     -34    -48     24     59     63 215.2  23.0  33678  281.47 0864.82
2015 04 09 09 41 24 .44     -43    -54     29     70     75 218.7  23.1  33682  281.52 0864.82
2015 04 09 09 41 24 .69     -47    -50     60     69     91 223.2  45.4  33696  281.77 0864.82
2015 04 09 09 41 24 .94     -55    -41     59     69     90 233.1  44.8  33694  281.72 0864.82
2015 04 09 09 41 25 .19     -44    -50     19     67     70 221.4  16.3  33660  281.15 0864.82
2015 04 09 09 41 25 .44     -48    -60     24     78     82 218.7  17.3  33620  280.50 0864.82
2015 04 09 09 41 25 .69     -40    -69     13     81     83 210.3   9.5  33568  279.63 0864.82
2015 04 09 09 41 25 .94     -42    -67     21     80     83 212.1  14.7  33554  279.38 0864.82
2015 04 09 09 41 26 .19     -43    -65     20     79     82 213.4  14.3  33552  279.37 0864.82
2015 04 09 09 41 26 .44     -46    -61     16     77     79 217.0  12.2  33554  279.38 0864.82
2015 04 09 09 41 26 .70     -50    -65     14     83     85 217.4   9.5  33556  279.42 0864.82
2015 04 09 09 41 26 .94     -52    -70     30     88     94 217.0  19.2  33568  279.63 0864.82
2015 04 09 09 41 27 .19     -50    -75     31     91     97 213.8  19.2  33570  279.67 0864.82
2015 04 09 09 41 27 .44     -43    -77     34     89     95 209.4  21.0  33566  279.58 0864.82
2015 04 09 09 41 27 .70     -43    -71     41     84     93 211.2  27.3  33584  279.88 0864.82
2015 04 09 09 41 27 .95     -36    -91     41     99    107 201.8  23.1  33634  280.73 0864.82
2015 04 09 09 41 28 .19     -40    -88     39     97    104 204.5  23.0  33646  280.92 0864.82
2015 04 09 09 41 28 .45     -39    -78     46     88     99 206.7  30.3  33632  280.70 0864.82
2015 04 09 09 41 28 .70     -57    -79     41     98    106 215.6  23.6  33576  279.77 0864.82
2015 04 09 09 41 28 .95     -40    -87     40     97    104 204.9  23.0  33578  279.80 0864.82
2015 04 09 09 41 29 .20     -53    -86     35    102    108 211.6  18.9  33568  279.62 0864.82
2015 04 09 09 41 29 .45     -45    -91     35    102    108 206.7  18.9  33558  279.47 0864.82
2015 04 09 09 41 29 .70     -42    -90     34    100    106 204.9  19.2  33558  279.45 0864.82
2015 04 09 09 41 29 .95     -30    -89     17     95     97 198.7  10.6  33562  279.52 0864.82
2015 04 09 09 41 30 .21     -38    -85     17     94     96 204.5  10.6  33556  279.42 0864.82
2015 04 09 09 41 30 .46     -31    -78     25     85     89 201.8  16.8  33554  279.38 0864.82
2015 04 09 09 41 30 .71     -37    -68     26     78     83 208.5  18.9  33556  279.43 0864.82
2015 04 09 09 41 30 .96     -33    -73     32     81     87 204.5  22.0  33558  279.47 0864.82
2015 04 09 09 41 31 .21     -32    -68     32     76     82 205.5  24.1  33558  279.47 0864.82
2015 04 09 09 41 31 .46     -39    -70     39     81     89 209.0  27.3  33560  279.48 0864.82
2015 04 09 09 41 31 .71     -37    -67     41     77     87 209.0  30.3  33562  279.52 0864.81
2015 04 09 09 41 31 .96     -34    -62     43     71     83 209.0  34.0  33564  279.55 0864.81
2015 04 09 09 41 32 .22     -45    -68     39     82     90 213.4  27.2  33564  279.55 0864.81
2015 04 09 09 41 32 .47     -44    -70     35     83     90 212.1  24.6  33558  279.45 0864.81
2015 04 09 09 41 32 .72     -32    -68     39     76     85 205.5  29.3  33560  279.48 0864.81
2015 04 09 09 41 32 .97     -39    -70     39     81     89 209.0  27.3  33566  279.58 0864.81
2015 04 09 09 41 33 .22     -40    -63     33     75     81 212.5  25.1  33564  279.57 0864.81
2015 04 09 09 41 33 .47     -40    -63     33     75     81 212.5  25.1  33564  279.57 0864.82
2015 04 09 09 41 33 .72     -42    -65     29     78     83 213.4  21.0  33558  279.47 0864.82
2015 04 09 09 41 33 .97     -50    -65     14     83     85 217.4   9.5  33564  279.57 0864.82
2015 04 09 09 41 34 .22     -41    -51     23     66     71 218.7  19.4  33562  279.53 0864.82
2015 04 09 09 41 34 .47     -50    -58      5     77     78 220.5   3.8  33566  279.58 0864.82
2015 04 09 09 41 34 .72     -40    -58      8     71     72 215.2   6.9  33562  279.52 0864.82
2015 04 09 09 41 34 .97     -23    -43      7     49     50 208.1   9.0  33560  279.50 0864.82
2015 04 09 09 41 35 .22     -11    -39      5     41     42 196.0   8.0  33558  279.47 0864.82
2015 04 09 09 41 35 .48      -6    -30     10     31     33 191.6  19.2  33562  279.52 0864.82
2015 04 09 09 41 35 .73     -17    -30      1     35     36 210.7   2.8  33564  279.57 0864.82
2015 04 09 09 41 35 .97     -23    -35     16     43     45 213.4  20.0  33564  279.57 0864.82
2015 04 09 09 41 36 .23     -15    -41      6     44     45 200.9   8.0  33564  279.55 0864.82
2015 04 09 09 41 36 .47     -23    -35      1     42     43 213.4   1.8  33574  279.72 0864.82
2015 04 09 09 41 36 .72     -19    -39      2     44     45 206.3   2.9  33566  279.60 0864.82
2015 04 09 09 41 36 .99     -28    -35     -1     45     46 218.7  -2.2  33576  279.77 0864.82
2015 04 09 09 41 37 .24     -39    -32     -2     51     52 230.5  -2.2  33578  279.80 0864.82
2015 04 09 09 41 37 .49     -39    -38     -2     55     56 225.9  -2.2  33578  279.80 0864.82
2015 04 09 09 41 37 .74     -33    -47      1     58     59 215.2   1.8  33588  279.95 0864.82
2015 04 09 09 41 37 .99     -23    -41      1     48     49 209.0   1.8  33590  279.98 0864.82
2015 04 09 09 41 38 .24     -26    -48    -15     55     58 209.0 -15.5  33582  279.85 0864.82
2015 04 09 09 41 38 .49     -27    -44    -14     52     53 211.6 -20.7  33588  279.97 0864.82
2015 04 09 09 41 38 .74     -25    -54      5     60     61 205.3   4.9  33590  279.98 0864.82
2015 04 09 09 41 38 .99     -19    -54      1     58     59 199.2   1.8  33578  279.80 0864.82
2015 04 09 09 41 39 .24      -6    -47     -2     48     49 188.0  -3.1  33574  279.72 0864.82
2015 04 09 09 41 39 .49       0    -44      4     45     46 180.9   5.9  33574  279.72 0864.82
2015 04 09 09 41 39 .74      -2    -38      8     39     40 184.4  12.2  33576  279.75 0864.82
2015 04 09 09 41 39 .99      -4    -34     -1     35     36 188.0  -2.2  33578  279.80 0864.82
2015 04 09 09 41 40 .24      -6    -38      3     39     40 189.8   4.9  33578  279.80 0864.82
2015 04 09 09 41 40 .49     -19    -34      6     40     41 209.0   9.0  33574  279.72 0864.82
2015 04 09 09 41 40 .75      -3    -45      0     46     47 184.5  -0.3  33580  279.82 0864.82
2015 04 09 09 41 41 .25     -23    -35      1     42     43 213.4   1.8  33592  280.02 0864.82
2015 04 09 09 41 41 .50     -26    -27     -2     38     39 223.4  -3.1  33592  280.02 0864.82
2015 04 09 09 41 41 .75     -29    -30      0     43     44 224.1   0.8  33586  279.92 0864.82
2015 04 09 09 41 42 .00     -17    -26     -1     32     33 212.6  -2.2  33594  280.05 0864.82
2015 04 09 09 41 42 .25      -4    -34     -1     35     36 188.0  -2.2  33590  280.00 0864.82
2015 04 09 09 41 42 .50     -12    -35      4     38     39 200.0   5.9  33582  279.85 0864.82
2015 04 09 09 41 42 .75     -12    -45      4     47     48 195.1   5.9  33588  279.97 0864.82
2015 04 09 09 41 43 .00     -17    -50      4     53     54 199.2   4.9  33582  279.87 0864.82
2015 04 09 09 41 43 .25     -18    -70      0     73     74 194.3  -0.3  33584  279.88 0864.82
2015 04 09 09 41 43 .50     -15    -74      9     76     77 191.5   6.9  33582  279.87 0864.82
2015 04 09 09 41 43 .75      -8    -81     13     82     84 186.2   9.5  33582  279.87 0864.82
2015 04 09 09 41 44 .02      -6    -76     24     77     81 184.5  17.9  33596  280.08 0864.82
2015 04 09 09 41 44 .26      -5    -65     26     66     70 184.5  23.0  33596  280.10 0864.82
2015 04 09 09 41 44 .51       1    -58     22     59     62 178.2  21.0  33584  279.90 0864.82
2015 04 09 09 41 44 .77       4    -58     27     59     64 175.5  27.1  33594  280.05 0864.82
2015 04 09 09 41 45 .02      16    -59     28     62     68 164.8  26.2  33602  280.18 0864.82
2015 04 09 09 41 45 .27       7    -50     33     51     60 171.1  35.6  33616  280.43 0864.82
2015 04 09 09 41 45 .52      -4    -49     40     50     64 185.3  43.7  33630  280.67 0864.82
2015 04 09 09 41 45 .77     -13    -64     32     66     73 191.5  27.3  33628  280.63 0864.82
2015 04 09 09 41 46 .02      -4    -70     35     71     79 183.6  28.2  33634  280.72 0864.82
2015 04 09 09 41 46 .26      -5    -74     39     75     84 184.4  29.8  33628  280.62 0864.82
2015 04 09 09 41 46 .52     -15    -84     28     86     91 190.7  18.4  33624  280.55 0864.82
2015 04 09 09 41 46 .77      -5    -66     26     67     71 184.5  22.0  33624  280.57 0864.82
2015 04 09 09 41 47 .02     -22    -47     31     52     60 205.3  33.5  33620  280.50 0864.82
2015 04 09 09 41 47 .27     -30    -47     35     56     66 212.5  35.5  33622  280.52 0864.82
2015 04 09 09 41 47 .52     -46    -49     13     68     70 223.2  11.1  33612  280.37 0864.82
2015 04 09 09 41 47 .77     -38    -46     14     60     62 219.6  13.2  33616  280.42 0864.82
2015 04 09 09 41 48 .02     -41    -50      9     65     66 219.6   8.0  33614  280.38 0864.83
2015 04 09 09 41 48 .27     -41    -50      9     65     66 219.6   8.0  33614  280.38 0864.83
2015 04 09 09 41 48 .52     -33    -53     11     63     64 212.5  10.1  33612  280.37 0864.83
2015 04 09 09 41 48 .77     -24    -54     11     60     62 203.6  11.1  33594  280.05 0864.83
2015 04 09 09 41 49 .03     -18    -53     17     57     60 199.2  17.3  33612  280.37 0864.83
2015 04 09 09 41 49 .27     -17    -52     26     55     60 198.3  27.2  33628  280.62 0864.83
2015 04 09 09 41 49 .52     -17    -52     26     55     60 198.3  27.2  33628  280.62 0864.83
2015 04 09 09 41 49 .78     -20    -56     24     60     64 200.0  23.0  33630  280.65 0864.82
2015 04 09 09 41 50 .03     -21    -62     22     66     70 198.7  18.9  33640  280.83 0864.82
2015 04 09 09 41 50 .28     -28    -50     44     58     72 209.9  41.7  33636  280.77 0864.82
2015 04 09 09 41 50 .53     -33    -52     52     62     80 212.6  44.8  33640  280.82 0864.82
2015 04 09 09 41 50 .78     -33    -32     44     47     64 226.0  48.0  33640  280.82 0864.82
2015 04 09 09 41 51 .04     -42    -25     39     49     62 239.3  43.7  33642  280.87 0864.82
2015 04 09 09 41 51 .29     -41    -26     46     49     67 237.6  48.0  33648  280.95 0864.82
2015 04 09 09 41 51 .54     -58    -48     48     76     89 230.4  35.5  33666  281.25 0864.81
2015 04 09 09 41 51 .79     -35    -79     44     87     97 204.1  28.2  33670  281.34 0864.81
2015 04 09 09 41 52 .05     -26    -75     64     80    102 199.2  43.3  33682  281.52 0864.81
2015 04 09 09 41 52 .29     -39    -70     73     81    109 209.0  47.5  33684  281.57 0864.81
2015 04 09 09 41 52 .55     -32    -68     65     76    100 205.5  44.8  33634  280.72 0864.82
2015 04 09 09 41 52 .80     -24    -47     59     53     79 207.2  52.7  33660  281.15 0864.82
2015 04 09 09 41 53 .05     -25    -56     73     62     95 204.5  55.8  33676  281.42 0864.82
2015 04 09 09 41 53 .29     -39    -55     65     68     94 216.0  49.4  33646  280.93 0864.82
2015 04 09 09 41 53 .54     -45    -71     62     85    105 212.5  39.7  33594  280.05 0864.82
2015 04 09 09 41 53 .80     -46    -75     46     89    100 211.6  29.3  33582  279.87 0864.82
2015 04 09 09 41 54 .04     -51    -62     53     81     96 219.6  35.6  33620  280.50 0864.82
2015 04 09 09 41 54 .30     -54    -58     57     80     98 223.3  39.5  33618  280.45 0864.81
2015 04 09 09 41 54 .55     -48    -48     57     68     88 225.0  44.3  33634  280.72 0864.81
2015 04 09 09 41 54 .80     -51    -67     48     85     97 217.4  32.4  33650  280.99 0864.81
2015 04 09 09 41 55 .05     -22    -67     61     71     93 198.3  45.4  33686  281.60 0864.81
2015 04 09 09 41 55 .30       0    -62     59     63     86 179.1  48.5  33678  281.47 0864.81
2015 04 09 09 41 55 .55      -5    -66     46     67     81 184.5  38.0  33608  280.28 0864.81
2015 04 09 09 41 55 .80     -11    -61     53     63     82 190.7  44.8  33582  279.85 0864.81
2015 04 09 09 41 56 .05     -13    -64     40     66     77 191.5  35.5  33572  279.68 0864.81
2015 04 09 09 41 56 .30     -21    -56     21     61     65 200.9  18.9  33574  279.73 0864.82
2015 04 09 09 41 56 .56       0    -61     21     62     66 180.9  19.2  33600  280.17 0864.82
2015 04 09 09 41 56 .80      -2    -61     21     62     66 182.7  18.9  33602  280.20 0864.82
2015 04 09 09 41 57 .05      -4    -34     12     35     38 188.0  18.9  33582  279.85 0864.82
2015 04 09 09 41 57 .30     -21    -23     31     32     44 223.2  51.1  33584  279.90 0864.82
2015 04 09 09 41 57 .55     -27    -34     32     44     54 218.7  39.7  33584  279.88 0864.82
2015 04 09 09 41 57 .80     -24    -47     27     53     59 207.2  29.3  33568  279.63 0864.82
2015 04 09 09 41 58 .07     -33    -53     17     63     66 212.5  15.2  33572  279.70 0864.82
2015 04 09 09 41 58 .32     -37    -44     19     58     62 219.6  18.4  33574  279.72 0864.82
2015 04 09 09 41 58 .57     -38    -67     30     78     83 209.9  21.5  33578  279.80 0864.82
2015 04 09 09 41 58 .81     -43    -54     35     70     78 218.7  27.3  33576  279.75 0864.82
2015 04 09 09 41 59 .07     -39    -47     26     62     67 219.6  23.1  33576  279.75 0864.82
2015 04 09 09 41 59 .32     -32    -50     26     60     65 212.5  25.1  33578  279.80 0864.82
2015 04 09 09 41 59 .57     -35    -48     20     60     64 216.1  18.9  33578  279.80 0864.82
2015 04 09 09 41 59 .82     -28    -43     16     52     55 212.6  17.3  33580  279.83 0864.82
2015 04 09 09 42 00 .07     -22    -40     16     46     49 209.0  19.4  33580  279.83 0864.82
2015 04 09 09 42 00 .32     -25    -40     19     48     51 212.6  22.0  33580  279.83 0864.82
2015 04 09 09 42 00 .57     -25    -40     19     48     51 212.6  22.0  33580  279.83 0864.82
2015 04 09 09 42 00 .82     -23    -40      8     47     48 209.9  10.1  33576  279.75 0864.82
2015 04 09 09 42 01 .07     -22    -42     15     48     51 208.1  17.3  33568  279.62 0864.82
2015 04 09 09 42 01 .32     -27    -48     11     56     58 209.9  11.0  33580  279.82 0864.82
2015 04 09 09 42 01 .57     -30    -54      6     62     63 209.0   5.9  33588  279.95 0864.82
2015 04 09 09 42 01 .82     -26    -41      9     49     50 212.5  11.1  33588  279.97 0864.82
2015 04 09 09 42 02 .08     -42    -39     16     58     61 226.7  15.3  33596  280.10 0864.82
2015 04 09 09 42 02 .33     -40    -47     18     63     66 220.5  16.3  33594  280.05 0864.82
2015 04 09 09 42 02 .57     -34    -35     17     49     53 224.2  19.4  33592  280.03 0864.81
2015 04 09 09 42 02 .83     -38    -37     11     54     56 225.9  12.2  33594  280.05 0864.81
2015 04 09 09 42 03 .08     -34    -35     17     49     53 224.2  19.4  33598  280.13 0864.81
2015 04 09 09 42 03 .33     -30    -31     22     44     49 224.1  27.3  33602  280.20 0864.81
2015 04 09 09 42 03 .58     -30    -27     14     41     44 228.7  19.4  33602  280.20 0864.81
2015 04 09 09 42 03 .83     -31    -27      6     42     43 229.6   9.0  33608  280.28 0864.81
2015 04 09 09 42 04 .08     -25    -20      4     33     34 230.5   6.9  33606  280.27 0864.81
2015 04 09 09 42 04 .33     -22    -23      6     33     34 223.4  11.1  33604  280.23 0864.81
2015 04 09 09 42 04 .58     -23    -23     11     33     35 225.1  18.9  33596  280.10 0864.81
2015 04 09 09 42 04 .84     -24    -20     22     32     38 230.4  37.6  33608  280.30 0864.81
2015 04 09 09 42 05 .09     -16    -23     21     29     35 214.3  39.7  33594  280.05 0864.81
2015 04 09 09 42 05 .34     -27    -17     26     32     41 237.6  43.7  33604  280.22 0864.81
2015 04 09 09 42 05 .59     -27    -21     24     35     42 232.2  37.6  33604  280.23 0864.81
2015 04 09 09 42 05 .84     -37    -17     24     41     47 244.7  33.5  33604  280.23 0864.81
2015 04 09 09 42 06 .09     -23    -24     27     34     43 223.4  42.7  33600  280.15 0864.81
2015 04 09 09 42 06 .35     -39    -29     29     49     56 233.1  34.4  33616  280.43 0864.81
2015 04 09 09 42 06 .60     -31    -31     29     45     53 225.0  35.6  33648  280.95 0864.81
2015 04 09 09 42 06 .84     -25    -25     20     36     41 225.1  31.4  33642  280.85 0864.81
2015 04 09 09 42 07 .10     -28    -26     31     39     49 226.7  43.7  33652  281.04 0864.81
2015 04 09 09 42 07 .35     -28    -26     31     39     49 226.7  43.7  33652  281.04 0864.81
2015 04 09 09 42 07 .59     -17    -43     20     47     51 201.8  24.1  33638  280.80 0864.81
2015 04 09 09 42 07 .86     -24    -43      0     50     51 209.0  -0.3  33636  280.75 0864.81
2015 04 09 09 42 08 .10      -7    -48     18     49     52 188.9  20.0  33646  280.92 0864.81
2015 04 09 09 42 08 .35      -7    -39     18     40     43 190.7  25.1  33656  281.09 0864.81
2015 04 09 09 42 08 .60      -8    -32     18     34     38 195.1  29.3  33646  280.92 0864.81
2015 04 09 09 42 08 .85      -2    -31     23     32     39 184.5  39.7  33652  281.02 0864.81
2015 04 09 09 42 09 .10      -3    -31     22     32     38 186.2  37.6  33646  280.92 0864.82
2015 04 09 09 42 09 .35      -9    -21     29     24     37 203.6  56.3  33654  281.05 0864.82
2015 04 09 09 42 09 .60      13    -23     20     27     33 149.3  41.7  33650  281.00 0864.82
2015 04 09 09 42 09 .86      19    -19     14     27     30 135.0  29.3  33660  281.17 0864.82
2015 04 09 09 42 10 .11      -1    -22     27     23     35 182.7  56.3  33710  282.00 0864.82
2015 04 09 09 42 10 .35      -2    -31     34     32     46 184.5  50.1  33696  281.75 0864.82
2015 04 09 09 42 10 .60      -4    -23     42     24     48 189.8  66.8  33736  282.44 0864.82
2015 04 09 09 42 10 .85      -2    -15     41     16     44 188.0  79.2  33728  282.29 0864.82
2015 04 09 09 42 11 .10      -9    -12     36     16     39 216.1  75.0  33710  282.00 0864.82
2015 04 09 09 42 11 .35       0    -27     44     28     52 180.9  64.7  33680  281.49 0864.82
2015 04 09 09 42 11 .60      -2    -28     39     29     48 184.5  59.4  33668  281.30 0864.82
2015 04 09 09 42 11 .87      -9    -27     41     29     50 198.3  61.5  33676  281.42 0864.82
2015 04 09 09 42 12 .12       0    -27     44     28     52 180.9  64.7  33674  281.39 0864.82
2015 04 09 09 42 12 .37      -7    -32     37     33     49 193.4  53.3  33678  281.47 0864.82
2015 04 09 09 42 12 .62      -6    -15     37     17     40 201.8  74.0  33682  281.52 0864.82
2015 04 09 09 42 12 .87      -5    -17     31     18     35 198.3  64.7  33696  281.75 0864.82
2015 04 09 09 42 13 .12     -11     -8     33     14     35 234.0  77.1  33696  281.77 0864.82
2015 04 09 09 42 13 .37      -7     -2     24      8     25 251.4  81.0  33696  281.77 0864.82
2015 04 09 09 42 13 .62       0     -3     24      4     24 189.7  90.0  33702  281.87 0864.82
2015 04 09 09 42 13 .87       3    -12     29     13     31 164.9  73.1  33702  281.87 0864.82
2015 04 09 09 42 14 .13       1    -11     29     12     31 172.0  77.1  33714  282.07 0864.82
2015 04 09 09 42 14 .37      -2    -15     35     16     38 188.0  75.0  33722  282.21 0864.82
2015 04 09 09 42 14 .62     -10    -28     35     30     46 200.0  54.3  33690  281.65 0864.82
2015 04 09 09 42 14 .88       6    -39     44     40     59 170.2  52.2  33714  282.05 0864.82
2015 04 09 09 42 15 .12      12    -36     37     39     53 161.5  50.0  33708  281.97 0864.82
2015 04 09 09 42 15 .37       4    -39     38     40     55 172.9  50.0  33688  281.62 0864.82
2015 04 09 09 42 15 .62      16    -28     28     33     43 149.3  45.8  33676  281.42 0864.82
2015 04 09 09 42 15 .87      11    -39      7     41     42 163.1  10.1  33650  280.99 0864.82
2015 04 09 09 42 16 .12      11    -35     13     37     40 161.3  19.4  33630  280.65 0864.82
2015 04 09 09 42 16 .37       7    -43     14     44     47 170.2  18.4  33590  280.00 0864.81
2015 04 09 09 42 16 .63      16    -34      6     38     39 154.6  10.1  33582  279.85 0864.81
2015 04 09 09 42 16 .88       9    -41      3     43     44 166.6   4.9  33576  279.75 0864.81
2015 04 09 09 42 17 .13     -10    -41     15     43     46 194.3  19.2  33570  279.67 0864.82
2015 04 09 09 42 17 .38      -8    -51     28     52     59 189.8  31.3  33574  279.72 0864.82
2015 04 09 09 42 17 .63     -13    -58     24     60     64 193.4  23.0  33580  279.83 0864.82
2015 04 09 09 42 17 .88      -5    -50     33     51     60 186.2  35.6  33592  280.02 0864.82
2015 04 09 09 42 18 .13      -2    -46     34     47     58 183.6  39.7  33606  280.27 0864.82
2015 04 09 09 42 18 .38      -8    -47     37     48     60 189.8  41.7  33608  280.28 0864.82
2015 04 09 09 42 18 .63     -17    -54     48     57     74 197.8  43.8  33608  280.30 0864.82
2015 04 09 09 42 18 .89     -14    -49     37     52     63 196.0  39.5  33598  280.13 0864.82
2015 04 09 09 42 19 .14     -24    -52     28     58     64 205.3  27.3  33570  279.67 0864.82
2015 04 09 09 42 19 .39     -25    -53     20     59     63 205.4  19.4  33562  279.52 0864.82
2015 04 09 09 42 19 .64     -25    -53     20     59     63 205.4  19.4  33562  279.52 0864.82
2015 04 09 09 42 19 .90     -18    -49     13     53     55 200.9  14.3  33584  279.88 0864.82
2015 04 09 09 42 20 .15     -19    -66     23     69     74 196.0  18.9  33626  280.58 0864.82
2015 04 09 09 42 20 .40     -21    -65     13     69     71 197.8  11.0  33612  280.35 0864.82
2015 04 09 09 42 20 .65       6    -56     20     57     61 173.8  19.4  33610  280.33 0864.82
2015 04 09 09 42 20 .90      -8    -55     25     56     61 188.9  25.1  33612  280.37 0864.82
2015 04 09 09 42 21 .15     -27    -52     24     59     63 208.1  23.0  33574  279.72 0864.82
2015 04 09 09 42 21 .40     -32    -50     11     60     62 212.6  11.1  33568  279.63 0864.82
2015 04 09 09 42 21 .65     -24    -46     -2     53     54 208.1  -2.2  33574  279.73 0864.82
2015 04 09 09 42 21 .90     -21    -65      0     69     70 198.3  -0.3  33564  279.55 0864.82
2015 04 09 09 42 22 .15     -21    -78      1     81     82 195.6   1.2  33590  280.00 0864.82
2015 04 09 09 42 22 .41     -14    -69     14     71     73 191.6  11.1  33620  280.50 0864.82
2015 04 09 09 42 22 .65      -5    -75     24     76     80 184.5  17.9  33604  280.23 0864.82
2015 04 09 09 42 22 .90      -2    -61     21     62     66 182.7  18.9  33572  279.70 0864.82
2015 04 09 09 42 23 .15      -9    -64     22     65     69 188.0  19.4  33570  279.65 0864.82
2015 04 09 09 42 23 .40     -12    -61     21     63     67 191.5  18.4  33574  279.72 0864.82
2015 04 09 09 42 23 .65     -15    -61     22     63     67 194.3  19.2  33578  279.80 0864.82
2015 04 09 09 42 23 .91     -23    -59     29     64     70 201.8  27.1  33574  279.72 0864.82
2015 04 09 09 42 24 .15      -9    -72     22     73     77 187.1  17.3  33582  279.85 0864.82
2015 04 09 09 42 24 .40     -18    -70     31     73     79 195.1  24.1  33584  279.90 0864.82
2015 04 09 09 42 24 .66     -17    -65     12     68     70 195.2  10.1  33572  279.68 0864.82
2015 04 09 09 42 24 .90     -23    -71     11     75     76 198.3   9.0  33566  279.58 0864.82
2015 04 09 09 42 25 .16     -19    -58      5     62     63 198.5   4.9  33574  279.72 0864.82
2015 04 09 09 42 25 .41     -16    -51      2     54     55 198.3   2.9  33568  279.62 0864.82
2015 04 09 09 42 25 .67     -18    -58      5     61     62 197.8   4.9  33564  279.57 0864.82
2015 04 09 09 42 25 .92     -25    -48      3     55     56 208.1   3.8  33576  279.77 0864.82
2015 04 09 09 42 26 .17     -25    -54      5     60     61 205.3   4.9  33572  279.68 0864.82
2015 04 09 09 42 26 .42     -31    -72     18     79     82 203.6  13.2  33564  279.57 0864.82
2015 04 09 09 42 26 .67     -39    -85      9     94     95 204.9   5.9  33570  279.65 0864.82
2015 04 09 09 42 26 .92     -34    -89     19     96     99 200.9  11.6  33576  279.75 0864.82
2015 04 09 09 42 27 .18     -31    -75     33     82     88 202.7  23.0  33586  279.92 0864.82
2015 04 09 09 42 27 .42     -35    -80     29     88     93 204.1  18.4  33580  279.82 0864.82
2015 04 09 09 42 27 .67     -31    -80     18     87     90 201.4  12.2  33562  279.52 0864.82
2015 04 09 09 42 27 .92     -29    -76     21     82     85 201.4  14.7  33562  279.53 0864.82
2015 04 09 09 42 28 .18     -20    -76     23     79     83 195.1  16.8  33588  279.97 0864.82
2015 04 09 09 42 28 .42     -30    -68     22     75     79 203.6  16.3  33568  279.63 0864.82
2015 04 09 09 42 28 .67     -21    -66     24     70     75 197.8  19.4  33562  279.52 0864.82
2015 04 09 09 42 28 .92     -19    -74     27     77     81 195.1  20.0  33562  279.53 0864.82
2015 04 09 09 42 29 .17     -21    -83     23     86     90 194.3  15.3  33558  279.47 0864.82
2015 04 09 09 42 29 .43     -14    -90     23     92     95 189.3  14.3  33564  279.57 0864.82
2015 04 09 09 42 29 .68     -12    -92     32     93     99 188.0  19.4  33564  279.57 0864.82
2015 04 09 09 42 29 .93     -16    -85     14     87     89 190.7   9.5  33564  279.57 0864.82
2015 04 09 09 42 30 .18     -15    -76      5     78     79 191.6   3.8  33564  279.55 0864.82
2015 04 09 09 42 30 .43     -32    -67      3     75     76 205.4   2.9  33574  279.72 0864.82
2015 04 09 09 42 30 .68     -39    -47     -2     62     63 219.6  -2.2  33560  279.50 0864.82
2015 04 09 09 42 30 .93     -21    -55      3     59     60 200.9   2.9  33572  279.70 0864.82
2015 04 09 09 42 31 .18     -17    -63      8     66     67 195.1   6.9  33562  279.53 0864.82
2015 04 09 09 42 31 .43     -13    -65     15     67     69 191.6  13.2  33562  279.53 0864.82
2015 04 09 09 42 31 .69     -12    -61     21     63     67 191.5  18.4  33580  279.82 0864.82
2015 04 09 09 42 31 .93     -23    -59     42     64     76 201.9  35.6  33620  280.48 0864.82
2015 04 09 09 42 32 .19     -23    -59     42     64     76 201.9  35.6  33614  280.38 0864.82
2015 04 09 09 42 32 .43     -28    -59     57     66     87 205.4  45.8  33624  280.57 0864.82
2015 04 09 09 42 32 .69     -16    -50     50     53     72 197.8  48.0  33626  280.60 0864.82
2015 04 09 09 42 32 .94     -21    -64     30     68     74 198.5  25.1  33562  279.53 0864.82
2015 04 09 09 42 33 .19     -28    -59     24     66     70 205.4  20.0  33564  279.57 0864.82
2015 04 09 09 42 33 .45     -35    -71     27     80     85 206.7  19.2  33564  279.57 0864.82
2015 04 09 09 42 33 .70     -45    -72     25     85     89 212.1  16.8  33560  279.48 0864.82
2015 04 09 09 42 33 .94     -32    -75     24     82     86 203.2  16.3  33562  279.52 0864.82
2015 04 09 09 42 34 .20     -32    -68     24     76     80 205.4  17.9  33558  279.47 0864.82
2015 04 09 09 42 34 .45     -35    -72     22     81     84 205.9  15.3  33560  279.48 0864.82
2015 04 09 09 42 34 .70     -32    -74     23     81     85 203.6  16.3  33558  279.47 0864.82
2015 04 09 09 42 34 .95     -37    -68     26     78     83 208.5  18.9  33556  279.43 0864.82
2015 04 09 09 42 35 .20     -31    -66     24     74     78 205.3  18.4  33560  279.50 0864.82
2015 04 09 09 42 35 .45     -39    -71     24     82     86 209.0  16.3  33556  279.42 0864.82
2015 04 09 09 42 35 .70     -30    -71     26     78     83 202.7  18.9  33560  279.48 0864.82
2015 04 09 09 42 35 .95     -37    -75     26     84     88 206.7  17.3  33562  279.53 0864.82
2015 04 09 09 42 36 .21     -31    -83     33     89     94 200.9  20.4  33570  279.67 0864.82
2015 04 09 09 42 36 .46     -28    -83     43     88     97 198.7  27.3  33600  280.15 0864.82
2015 04 09 09 42 36 .71     -29    -92     44     97    106 197.4  26.2  33602  280.20 0864.82
2015 04 09 09 42 36 .95     -27    -83     37     88     95 198.5  24.1  33580  279.82 0864.82
2015 04 09 09 42 37 .20     -26    -79     39     84     92 198.3  26.6  33574  279.73 0864.82
2015 04 09 09 42 37 .46     -29    -63     41     70     81 204.5  32.9  33574  279.72 0864.82
2015 04 09 09 42 37 .71     -38    -54     40     67     78 215.2  34.4  33594  280.05 0864.82
2015 04 09 09 42 37 .96      -8    -43     35     44     56 191.6  43.7  33630  280.67 0864.82
2015 04 09 09 42 38 .21      -4    -43     40     44     59 186.2  47.9  33642  280.87 0864.82
2015 04 09 09 42 38 .46       3    -58     28     59     65 176.4  27.2  33622  280.53 0864.82
2015 04 09 09 42 38 .71       2    -42     42     43     60 177.3  50.0  33632  280.70 0864.82
2015 04 09 09 42 38 .96     -33    -42     52     54     74 218.7  51.1  33610  280.32 0864.82
2015 04 09 09 42 39 .21     -27    -51     63     58     85 208.1  52.2  33590  279.98 0864.82
2015 04 09 09 42 39 .46     -30    -55     55     63     83 209.0  46.4  33574  279.72 0864.82
2015 04 09 09 42 39 .75     -45    -59     39     75     84 217.8  29.8  33560  279.48 0864.82
2015 04 09 09 42 39 .97     -44    -70     41     83     92 212.1  27.8  33562  279.52 0864.82
2015 04 09 09 42 40 .22     -31    -75     46     82     94 202.7  32.4  33576  279.77 0864.82
2015 04 09 09 42 40 .47     -34    -62     50     71     86 209.0  38.6  33588  279.97 0864.82
2015 04 09 09 42 40 .73     -34    -54     57     65     86 212.5  46.4  33584  279.90 0864.82
2015 04 09 09 42 40 .97     -18    -59     46     62     77 197.8  39.7  33632  280.68 0864.82
2015 04 09 09 42 41 .22     -25    -47     46     54     70 208.1  43.8  33610  280.33 0864.82
2015 04 09 09 42 41 .47     -27    -43     37     52     63 212.5  39.5  33608  280.28 0864.82
2015 04 09 09 42 41 .72     -42    -43     31     61     68 224.1  28.2  33578  279.80 0864.82
2015 04 09 09 42 41 .98     -43    -58     38     73     82 216.1  29.3  33576  279.77 0864.82
2015 04 09 09 42 42 .23     -32    -59     26     68     72 209.0  22.0  33570  279.65 0864.82
2015 04 09 09 42 42 .48     -33    -52     27     62     67 212.6  24.1  33568  279.63 0864.82
2015 04 09 09 42 42 .73     -20    -44     17     49     52 204.5  19.4  33578  279.80 0864.82
2015 04 09 09 42 42 .98     -15    -47     28     50     57 198.3  32.4  33570  279.67 0864.82
2015 04 09 09 42 43 .23     -10    -50     28     52     59 191.5  31.3  33574  279.72 0864.82
2015 04 09 09 42 43 .48     -13    -48     17     50     54 196.0  19.2  33572  279.70 0864.82
2015 04 09 09 42 43 .73     -16    -51     15     54     57 197.8  15.3  33570  279.67 0864.82
2015 04 09 09 42 43 .98     -12    -54     20     56     59 192.5  20.0  33568  279.62 0864.82
2015 04 09 09 42 44 .24     -12    -63     12     65     67 191.5  11.0  33568  279.63 0864.82
2015 04 09 09 42 44 .48     -19    -55     24     59     63 199.2  23.0  33580  279.83 0864.82
2015 04 09 09 42 44 .74     -18    -79     26     82     87 192.9  17.9  33618  280.47 0864.82
2015 04 09 09 42 44 .99     -31    -81     48     87     99 200.9  31.4  33648  280.97 0864.82
2015 04 09 09 42 45 .23       9    -89     31     90     96 174.2  19.4  33630  280.67 0864.82
2015 04 09 09 42 45 .48     -13    -98     14     99    101 188.0   8.5  33590  280.00 0864.82
2015 04 09 09 42 45 .73     -16    -85     -1     87     88 190.7  -1.3  33564  279.57 0864.82
2015 04 09 09 42 45 .99     -14    -79      1     81     82 190.2   1.2  33590  280.00 0864.82
2015 04 09 09 42 46 .23     -31    -94     27    100    104 198.3  15.3  33654  281.07 0864.82
2015 04 09 09 42 46 .50     -16    -85     22     87     90 190.7  14.7  33630  280.67 0864.82
2015 04 09 09 42 46 .75       0    -89     24     90     94 180.5  15.3  33638  280.78 0864.82
2015 04 09 09 42 47 .00     -19    -96     32     99    105 191.6  17.9  33612  280.35 0864.82
2015 04 09 09 42 47 .24     -13    -98      1     99    100 188.0   0.8  33622  280.52 0864.82
2015 04 09 09 42 47 .49     -12    -77     -3     78     79 188.9  -2.2  33600  280.15 0864.82
2015 04 09 09 42 47 .75     -12    -77      4     78     79 188.9   3.3  33570  279.67 0864.82
2015 04 09 09 42 48 .00     -12    -78     12     79     80 188.9   9.0  33576  279.75 0864.82
2015 04 09 09 42 48 .25     -18    -89     26     91     95 191.6  16.3  33584  279.90 0864.82
2015 04 09 09 42 48 .50     -24    -77     19     81     84 197.4  13.7  33580  279.82 0864.82
2015 04 09 09 42 48 .75     -18    -66     -8     69     70 195.2  -7.3  33574  279.72 0864.82
2015 04 09 09 42 49 .00     -26    -55    -16     61     64 205.3 -15.4  33570  279.65 0864.82
2015 04 09 09 42 49 .25     -37    -50    -21     63     67 216.1 -18.7  33564  279.55 0864.82
2015 04 09 09 42 49 .50     -31    -49     -2     59     60 212.5  -2.2  33572  279.70 0864.82
2015 04 09 09 42 49 .75     -21    -55     -3     59     60 200.9  -3.1  33574  279.72 0864.82
2015 04 09 09 42 50 .00     -16    -62    -11     65     67 195.1 -10.3  33562  279.52 0864.82
2015 04 09 09 42 50 .25     -16    -62    -11     65     67 195.1 -10.3  33558  279.47 0864.82
2015 04 09 09 42 50 .50     -14    -58    -18     60     63 194.3 -16.6  33562  279.52 0864.82
2015 04 09 09 42 50 .75     -19    -55    -20     59     62 199.2 -23.6  33564  279.55 0864.82
2015 04 09 09 42 51 .01     -29    -46    -12     55     57 212.5 -12.4  33574  279.72 0864.82
2015 04 09 09 42 51 .25     -25    -45     -6     52     53 209.0  -7.3  33568  279.62 0864.82
2015 04 09 09 42 51 .51     -32    -50     -7     60     61 212.5  -7.3  33576  279.77 0864.82
2015 04 09 09 42 51 .76     -32    -51     -7     61     62 212.6  -7.2  33574  279.72 0864.82
2015 04 09 09 42 52 .01     -37    -58    -20     69     73 212.5 -16.6  33564  279.55 0864.82
2015 04 09 09 42 52 .26     -23    -50    -13     56     58 205.3 -13.4  33570  279.67 0864.82
2015 04 09 09 42 52 .51     -27    -52    -10     59     60 208.1 -10.3  33572  279.70 0864.82
2015 04 09 09 42 52 .76     -15    -46    -13     49     51 198.3 -15.4  33568  279.62 0864.82
2015 04 09 09 42 53 .01     -17    -53      0     56     57 197.8  -0.3  33574  279.72 0864.82
2015 04 09 09 42 53 .26     -17    -53    -12     56     58 197.8 -12.4  33568  279.62 0864.82
2015 04 09 09 42 53 .52     -19    -54    -11     58     60 199.2 -11.3  33562  279.53 0864.82
2015 04 09 09 42 53 .77     -24    -51    -20     57     61 205.3 -19.7  33556  279.43 0864.82
2015 04 09 09 42 54 .02     -19    -54    -16     58     61 199.2 -15.5  33558  279.47 0864.82
2015 04 09 09 42 54 .28     -18    -59    -18     62     64 197.8 -21.7  33564  279.57 0864.82
2015 04 09 09 42 54 .52     -18    -58     -8     61     62 197.8  -8.2  33568  279.62 0864.82
2015 04 09 09 42 54 .78     -23    -58     -5     63     64 201.8  -5.2  33576  279.75 0864.82
2015 04 09 09 42 55 .02     -24    -62     -2     67     68 201.8  -2.2  33588  279.95 0864.82
2015 04 09 09 42 55 .27     -32    -67     -9     75     76 205.5  -7.2  33580  279.82 0864.82
2015 04 09 09 42 55 .52     -24    -56    -17     62     65 203.6 -15.4  33576  279.75 0864.82
2015 04 09 09 42 55 .78     -18    -58    -16     61     64 197.8 -15.4  33570  279.65 0864.82
2015 04 09 09 42 56 .03     -19    -54    -16     58     61 199.2 -15.5  33558  279.47 0864.82
2015 04 09 09 42 56 .28     -23    -58     -5     63     64 201.8  -5.2  33566  279.58 0864.82
2015 04 09 09 42 56 .53     -24    -51      1     57     58 205.3   1.8  33590  279.98 0864.82
2015 04 09 09 42 56 .78     -26    -42      2     50     51 212.5   2.9  33590  280.00 0864.82
2015 04 09 09 42 57 .03     -19    -37    -10     42     44 207.2 -13.4  33590  279.98 0864.82
2015 04 09 09 42 57 .28     -19    -39     -9     44     46 206.3 -12.4  33570  279.65 0864.82
2015 04 09 09 42 57 .53     -19    -39     -9     44     46 206.3 -12.4  33572  279.68 0864.82
2015 04 09 09 42 57 .78     -24    -43     -3     50     51 209.0  -4.1  33580  279.83 0864.82
2015 04 09 09 42 58 .05     -37    -50      0     63     64 216.1  -0.3  33602  280.18 0864.82
2015 04 09 09 42 58 .29     -31    -43     -2     54     55 216.1  -2.2  33616  280.42 0864.82
2015 04 09 09 42 58 .54     -36    -43     -6     57     58 219.7  -6.2  33600  280.15 0864.82
2015 04 09 09 42 58 .79     -34    -47     10     59     60 216.1  10.1  33630  280.65 0864.82
2015 04 09 09 42 59 .03     -29    -46     15     55     58 212.5  15.3  33620  280.48 0864.82
2015 04 09 09 42 59 .28     -31    -41     14     52     54 217.0  15.3  33614  280.40 0864.82
2015 04 09 09 42 59 .53     -24    -52     23     58     62 205.3  23.0  33600  280.15 0864.82
2015 04 09 09 42 59 .79     -29    -53     15     61     63 209.0  14.3  33592  280.03 0864.82
2015 04 09 09 43 00 .03     -20    -54     16     58     61 200.9  15.3  33588  279.95 0864.82
2015 04 09 09 43 00 .29     -12    -45     13     47     49 195.1  16.3  33584  279.90 0864.82
2015 04 09 09 43 00 .55     -13    -41     10     44     46 198.3  13.2  33582  279.87 0864.82
2015 04 09 09 43 00 .80     -14    -42      2     45     46 198.5   2.9  33582  279.85 0864.82
2015 04 09 09 43 01 .05     -14    -49      2     51     52 196.0   2.9  33576  279.75 0864.82
2015 04 09 09 43 01 .30      -2    -45      0     46     47 183.6  -0.3  33574  279.72 0864.82
2015 04 09 09 43 01 .55     -15    -47      0     50     51 198.3  -0.3  33570  279.67 0864.82
2015 04 09 09 43 01 .80     -15    -47      0     50     51 198.3  -0.3  33570  279.67 0864.82
2015 04 09 09 43 02 .05     -26    -41      9     49     50 212.5  11.0  33574  279.72 0864.82
2015 04 09 09 43 02 .30     -28    -31      9     42     43 222.3  12.2  33576  279.75 0864.82
2015 04 09 09 43 02 .55     -28    -35      2     45     46 218.7   2.9  33572  279.70 0864.82
2015 04 09 09 43 02 .80     -25    -39      4     47     48 212.6   5.9  33576  279.77 0864.82
2015 04 09 09 43 03 .05     -25    -39      4     47     48 212.6   5.9  33568  279.62 0864.82
2015 04 09 09 43 03 .30     -28    -35      2     45     46 218.7   2.9  33576  279.75 0864.82
2015 04 09 09 43 03 .56     -28    -35     24     46     51 218.7  29.3  33610  280.33 0864.82
2015 04 09 09 43 03 .81     -36    -37     23     52     56 224.2  25.1  33618  280.45 0864.82
2015 04 09 09 43 04 .05     -33    -42     32     54     62 218.7  33.5  33614  280.38 0864.82
2015 04 09 09 43 04 .30     -25    -37     21     45     49 214.3  27.2  33600  280.17 0864.82
2015 04 09 09 43 04 .56     -22    -34      8     41     42 213.4  12.2  33590  280.00 0864.82
2015 04 09 09 43 04 .81     -19    -31     17     37     40 212.5  26.2  33608  280.30 0864.82
2015 04 09 09 43 05 .06     -15    -24     29     29     41 212.6  50.1  33632  280.70 0864.82
2015 04 09 09 43 05 .31     -21    -21     22     31     38 225.1  37.6  33634  280.72 0864.82
2015 04 09 09 43 05 .56     -20    -16     31     26     40 230.5  55.4  33630  280.67 0864.82
2015 04 09 09 43 05 .81     -19    -35     40     41     57 209.0  51.1  33616  280.42 0864.82
2015 04 09 09 43 06 .06     -43    -41     37     60     70 225.9  35.5  33610  280.33 0864.82
2015 04 09 09 43 06 .31     -25    -40     40     48     62 211.6  43.8  33650  280.99 0864.82
2015 04 09 09 43 06 .56     -33    -33     40     48     62 225.0  43.8  33618  280.47 0864.82
2015 04 09 09 43 06 .81     -30    -31     42     44     60 224.1  49.0  33622  280.53 0864.82
2015 04 09 09 43 07 .06     -20    -19     40     28     48 226.7  61.5  33634  280.72 0864.82
2015 04 09 09 43 07 .31     -28    -11     37     31     48 248.3  54.3  33650  281.00 0864.82
2015 04 09 09 43 07 .58     -12    -13     32     18     36 223.4  66.8  33676  281.44 0864.82
2015 04 09 09 43 07 .83       2     17     41     18     44   8.0  76.1  33694  281.72 0864.82
2015 04 09 09 43 08 .07       5    -12     33     14     35 158.2  77.1  33718  282.14 0864.82
2015 04 09 09 43 08 .32       8      4     22     10     24  61.1  75.0  33692  281.70 0864.82
2015 04 09 09 43 08 .57      -3     12     29     13     31 344.9  73.1  33676  281.42 0864.82
2015 04 09 09 43 08 .82      -1      8     24      9     25 350.3  81.2  33672  281.37 0864.82
2015 04 09 09 43 09 .08       4     12     18     13     22  18.3  60.5  33658  281.14 0864.82
2015 04 09 09 43 09 .33       5     -4     33      7     33 129.5  89.0  33690  281.67 0864.82
2015 04 09 09 43 09 .58      -6     -7     23     10     25 219.6  77.1  33738  282.46 0864.82
2015 04 09 09 43 09 .83       4     -7     50      9     50 147.5  90.0  33682  281.52 0864.82
2015 04 09 09 43 10 .08     -16    -23     55     29     62 214.3  69.8  33688  281.62 0864.82
2015 04 09 09 43 10 .33     -15    -31     62     35     71 207.2  68.8  33674  281.39 0864.82
2015 04 09 09 43 10 .58      -4      1     40      5     40 288.4  90.0  33692  281.69 0864.82
2015 04 09 09 43 10 .83      23    -13     46     27     53 118.9  66.8  33700  281.82 0864.82
2015 04 09 09 43 11 .09       1    -12     35     13     37 175.5  81.2  33720  282.16 0864.82
2015 04 09 09 43 11 .34      -1      0     36      2     36 270.0  90.0  33740  282.51 0864.82
2015 04 09 09 43 11 .58      -9      2     36     10     37 285.1  82.8  33760  282.83 0864.82
2015 04 09 09 43 11 .84      -1      5     29      6     29 341.5  89.0  33762  282.86 0864.82
2015 04 09 09 43 12 .08       9     10     38     14     40  43.4  79.2  33768  282.98 0864.82
2015 04 09 09 43 12 .33      28     -9     45     30     54 108.6  63.6  33740  282.51 0864.82
2015 04 09 09 43 12 .58      30     13     44     33     55  66.5  59.4  33754  282.72 0864.82
2015 04 09 09 43 12 .83      21     17     46     28     53  50.5  64.7  33752  282.71 0864.82
2015 04 09 09 43 13 .09      37     16     64     41     76  65.6  64.7  33740  282.51 0864.82
2015 04 09 09 43 13 .34      43     44     42     62     74  44.2  36.5  33716  282.09 0864.82
2015 04 09 09 43 13 .59      33     26     40     43     58  52.2  49.0  33730  282.32 0864.82
2015 04 09 09 43 13 .84      32     20     57     39     69  57.5  62.6  33748  282.64 0864.82
2015 04 09 09 43 14 .09      42     13     38     45     58  72.3  44.8  33702  281.87 0864.82
2015 04 09 09 43 14 .35      73     29     57     79     97  68.3  39.7  33698  281.80 0864.82
2015 04 09 09 43 14 .60      81      5     59     82    101  86.1  39.5  33656  281.10 0864.82
2015 04 09 09 43 14 .85      71      5     76     72    104  85.6  51.2  33670  281.32 0864.82
2015 04 09 09 43 15 .11      48      9     59     49     76  79.4  56.3  33678  281.45 0864.82
2015 04 09 09 43 15 .35      53    -17     40     56     68 108.6  39.5  33676  281.44 0864.82
2015 04 09 09 43 15 .61      29    -14     22     33     39 115.2  36.5  33682  281.54 0864.82
2015 04 09 09 43 15 .86      14     -3     29     15     32 105.1  70.8  33702  281.87 0864.82
2015 04 09 09 43 16 .11       9    -16     22     19     29 151.0  52.2  33716  282.11 0864.82
2015 04 09 09 43 16 .36       2    -11     35     12     37 168.4  81.0  33738  282.47 0864.82
2015 04 09 09 43 16 .61     -26    -31     59     41     71 219.6  61.5  33750  282.66 0864.82
2015 04 09 09 43 16 .85     -48    -33     56     59     81 235.8  48.5  33724  282.24 0864.82
2015 04 09 09 43 17 .11     -17    -51     40     54     67 198.5  39.7  33690  281.65 0864.82
2015 04 09 09 43 17 .36     -23    -35     49     43     65 213.4  53.3  33724  282.22 0864.82
2015 04 09 09 43 17 .60     -22    -27     48     36     60 219.7  59.4  33730  282.32 0864.82
2015 04 09 09 43 17 .86     -34    -21     59     41     71 237.6  61.5  33696  281.77 0864.82
2015 04 09 09 43 18 .11     -47    -50     65     69     94 223.2  49.0  33654  281.07 0864.82
2015 04 09 09 43 18 .36     -34    -40     63     53     82 220.5  55.4  33626  280.58 0864.82
2015 04 09 09 43 18 .62     -34    -21     46     41     61 237.6  53.3  33632  280.68 0864.82
2015 04 09 09 43 18 .86      -4      9     40     11     41 334.6  84.9  33678  281.47 0864.82
2015 04 09 09 43 19 .11      55     18     55     59     80  71.4  47.9  33614  280.38 0864.82
2015 04 09 09 43 19 .36      76      0     48     77     90  90.0  35.5  33606  280.25 0864.82
2015 04 09 09 43 19 .61      68    -10     42     69     80  98.8  34.0  33610  280.33 0864.82
2015 04 09 09 43 19 .86      58    -11     41     60     72 101.5  37.6  33614  280.40 0864.82
2015 04 09 09 43 20 .11      47     -8     16     48     51  99.7  19.4  33614  280.38 0864.82
2015 04 09 09 43 20 .36      57     -8      2     58     59  98.8   2.9  33606  280.25 0864.82
2015 04 09 09 43 20 .61      53     -9      4     54     55 100.6   4.9  33604  280.23 0864.82
2015 04 09 09 43 20 .86      52     -8     -2     53     54  99.7  -2.2  33606  280.25 0864.82
2015 04 09 09 43 21 .12      16    -47      6     50     51 161.3   6.9  33608  280.28 0864.82
2015 04 09 09 43 21 .38       3    -49      1     50     51 176.4   1.8  33614  280.38 0864.82
2015 04 09 09 43 21 .63       1    -65     -6     66     67 179.1  -5.2  33618  280.47 0864.80
2015 04 09 09 43 21 .88       1    -73     -6     74     75 179.1  -5.2  33614  280.40 0864.80
2015 04 09 09 43 22 .13       1    -81      6     82     83 178.6   4.4  33608  280.30 0864.80
2015 04 09 09 43 22 .38       1    -73     -6     74     75 179.1  -5.2  33612  280.37 0864.80
2015 04 09 09 43 22 .63      -4    -85    -12     86     87 183.1  -8.2  33616  280.43 0864.80
2015 04 09 09 43 22 .88      27    -86     -8     91     92 162.2  -5.6  33592  280.03 0864.80
2015 04 09 09 43 23 .13      24    -87      4     91     92 164.4   2.9  33582  279.85 0864.80
2015 04 09 09 43 23 .38      72    -77    -12    106    107 136.7  -6.7  33588  279.95 0864.80
2015 04 09 09 43 23 .63      42    -90    -35    100    107 154.7 -19.6  33602  280.18 0864.81
2015 04 09 09 43 23 .88      30    -91    -28     96    100 161.5 -21.2  33608  280.30 0864.81
2015 04 09 09 43 24 .13      16    -69    -19     71     74 166.6 -15.4  33622  280.53 0864.81
2015 04 09 09 43 24 .38      21    -63    -22     67     71 161.3 -18.7  33606  280.27 0864.81
2015 04 09 09 43 24 .63      23    -58    -10     63     64 158.1  -9.3  33606  280.25 0864.81
2015 04 09 09 43 24 .88      18    -51      3     55     56 160.8   3.8  33584  279.88 0864.81
2015 04 09 09 43 25 .14      15    -58     -4     61     62 164.8  -4.1  33604  280.22 0864.81
2015 04 09 09 43 25 .38      14    -52    -15     54     57 164.9 -15.5  33640  280.82 0864.82
2015 04 09 09 43 25 .63       0    -61    -16     62     65 180.0 -14.5  33640  280.82 0864.82
2015 04 09 09 43 25 .88      -8    -55    -11     56     58 188.9 -11.3  33634  280.73 0864.82
2015 04 09 09 43 26 .13     -23    -58    -12     63     65 201.9 -11.3  33632  280.70 0864.82
2015 04 09 09 43 26 .39       6    -58    -18     59     61 173.8 -21.7  33630  280.65 0864.82
2015 04 09 09 43 26 .64       5    -51    -18     52     55 173.8 -23.3  33632  280.70 0864.82
2015 04 09 09 43 26 .89       7    -42    -15     43     46 170.2 -19.7  33630  280.67 0864.82
2015 04 09 09 43 27 .14      -7    -36     -9     37     39 191.6 -14.5  33630  280.67 0864.82
2015 04 09 09 43 27 .39      -1    -31    -16     32     35 182.7 -31.7  33630  280.67 0864.82
2015 04 09 09 43 27 .64       0    -40    -24     41     47 180.0 -37.9  33630  280.67 0864.82
2015 04 09 09 43 27 .89      -9    -35    -29     37     47 195.1 -47.1  33628  280.62 0864.82
2015 04 09 09 43 28 .14      -9    -27    -23     29     37 198.3 -48.1  33620  280.48 0864.81
2015 04 09 09 43 28 .40      -2    -31    -23     32     39 184.5 -44.1  33616  280.43 0864.81
2015 04 09 09 43 28 .65      -1    -27    -20     28     34 182.7 -42.0  33606  280.25 0864.81
2015 04 09 09 43 28 .90     -15    -32    -10     36     37 205.5 -21.7  33592  280.03 0864.81
2015 04 09 09 43 29 .15     -19    -31    -20     37     42 212.5 -34.7  33590  280.00 0864.81
2015 04 09 09 43 29 .41     -13    -36    -20     39     43 200.0 -32.6  33596  280.10 0864.81
2015 04 09 09 43 29 .66       0    -45    -14     46     49 180.9 -16.6  33612  280.35 0864.81
2015 04 09 09 43 29 .90       0    -43    -14     44     46 180.9 -23.8  33604  280.23 0864.80
2015 04 09 09 43 30 .15      -1    -39    -18     40     43 182.6 -29.5  33592  280.03 0864.80
2015 04 09 09 43 30 .40       0    -49    -21     50     54 180.9 -27.4  33570  279.65 0864.80
2015 04 09 09 43 30 .65       0    -63    -38     64     74 180.0 -39.9  33566  279.60 0864.80
2015 04 09 09 43 30 .90       6    -58    -18     59     61 173.8 -21.7  33564  279.57 0864.80
2015 04 09 09 43 31 .16      11    -59    -21     61     65 169.3 -19.7  33564  279.55 0864.80
2015 04 09 09 43 31 .41      -1    -65      3     66     67 180.9   2.8  33566  279.58 0864.80
2015 04 09 09 43 31 .66     -10    -82     -2     83     84 187.6  -1.8  33566  279.58 0864.81
2015 04 09 09 43 31 .91      -4    -85     -1     86     87 183.1  -1.3  33564  279.57 0864.81
2015 04 09 09 43 32 .16      -5    -73     -9     74     75 184.4  -7.2  33568  279.62 0864.81
2015 04 09 09 43 32 .41      -3    -69     -6     70     71 182.7  -5.2  33566  279.58 0864.81
2015 04 09 09 43 32 .66       8    -63     -5     64     65 172.0  -5.2  33566  279.58 0864.81
2015 04 09 09 43 32 .91       5    -73     -9     74     75 175.5  -7.2  33570  279.67 0864.81
2015 04 09 09 43 33 .16      -4    -81     -8     82     83 183.1  -5.6  33564  279.57 0864.81
2015 04 09 09 43 33 .41      -2    -76     -5     77     78 181.8  -4.1  33566  279.60 0864.81
2015 04 09 09 43 33 .66       0    -68     -2     69     70 180.0  -2.2  33572  279.68 0864.81
2015 04 09 09 43 33 .91      21    -67     -9     71     72 162.2  -7.3  33576  279.77 0864.81
2015 04 09 09 43 34 .17      20    -60     12     64     66 161.7  11.0  33588  279.95 0864.81
2015 04 09 09 43 34 .41      14    -70      3     72     73 168.4   2.9  33590  279.98 0864.81
2015 04 09 09 43 34 .66      -1    -66     10     67     68 180.9   9.0  33586  279.93 0864.81
2015 04 09 09 43 34 .91      -5    -65     -2     66     67 184.5  -2.2  33578  279.78 0864.81
2015 04 09 09 43 35 .18       6    -81     -8     82     83 175.5  -5.6  33576  279.77 0864.81
2015 04 09 09 43 35 .43      15    -75     -5     77     78 168.4  -4.1  33584  279.90 0864.81
2015 04 09 09 43 35 .68      28    -71     -3     77     78 158.2  -2.2  33590  280.00 0864.81
2015 04 09 09 43 35 .93      31    -66      3     74     75 154.5   2.9  33602  280.18 0864.81
2015 04 09 09 43 36 .18      39    -75     32     85     90 152.4  21.5  33600  280.15 0864.81
2015 04 09 09 43 36 .43      51    -80     35     95    101 147.5  21.0  33608  280.30 0864.81
2015 04 09 09 43 36 .68      42    -72     40     84     93 149.7  27.2  33612  280.35 0864.81
2015 04 09 09 43 36 .93      34    -76     33     84     90 155.9  22.0  33604  280.22 0864.81
2015 04 09 09 43 37 .18      53    -89     20    104    107 149.3  11.1  33594  280.05 0864.81
2015 04 09 09 43 37 .43      60    -79     15    100    102 142.6   8.5  33582  279.85 0864.81
2015 04 09 09 43 37 .69      57    -74     -2     94     95 142.2  -1.3  33604  280.23 0864.81
2015 04 09 09 43 37 .93      28    -77     14     83     85 160.0   9.5  33638  280.78 0864.81
2015 04 09 09 43 38 .18     -14    -66     18     68     71 192.5  15.2  33642  280.87 0864.81
2015 04 09 09 43 38 .44     -10    -82     41     83     92 187.1  27.8  33642  280.85 0864.81
2015 04 09 09 43 38 .68      -7    -62     49     63     79 187.1  42.2  33642  280.85 0864.81
2015 04 09 09 43 38 .94     -19    -74     27     77     81 195.1  20.0  33636  280.77 0864.81
2015 04 09 09 43 39 .19     -18    -57     14     60     62 197.8  13.2  33630  280.67 0864.81
2015 04 09 09 43 39 .43      14    -55     46     57     73 164.9  43.7  33642  280.85 0864.81
2015 04 09 09 43 39 .68     -10    -86     33     87     93 186.7  21.5  33592  280.02 0864.81
2015 04 09 09 43 39 .94       4    -81     20     82     85 176.9  14.3  33626  280.58 0864.81
2015 04 09 09 43 40 .19      28    -41     12     50     52 145.7  14.3  33640  280.82 0864.81
2015 04 09 09 43 40 .44      34    -34     27     49     55 135.0  32.4  33652  281.04 0864.81
2015 04 09 09 43 40 .69      16    -36     23     40     46 156.4  33.5  33634  280.72 0864.81
2015 04 09 09 43 40 .94      11    -18     31     22     38 149.3  62.6  33652  281.04 0864.80
2015 04 09 09 43 41 .19      -7    -17     31     19     36 201.8  64.7  33662  281.19 0864.80
2015 04 09 09 43 41 .44      -1    -22     27     23     35 182.7  56.3  33652  281.04 0864.80
2015 04 09 09 43 41 .69      -8    -40     24     41     47 191.6  33.5  33634  280.73 0864.80
2015 04 09 09 43 41 .94       0    -43     17     44     47 180.9  21.0  33612  280.37 0864.80
2015 04 09 09 43 42 .21      16    -50     17     53     56 161.5  18.4  33618  280.47 0864.80
2015 04 09 09 43 42 .45      40    -48     26     63     68 140.3  23.0  33596  280.10 0864.80
2015 04 09 09 43 42 .71      51    -54     26     75     80 136.7  19.4  33602  280.20 0864.81
2015 04 09 09 43 42 .95      36    -36     31     52     60 134.9  33.5  33608  280.30 0864.81
2015 04 09 09 43 43 .21      50    -41     35     65     73 129.5  31.4  33616  280.42 0864.81
2015 04 09 09 43 43 .46      51    -53     37     74     82 135.8  28.2  33650  281.00 0864.81
2015 04 09 09 43 43 .70      50    -68     52     85     99 143.9  34.4  33630  280.67 0864.81
2015 04 09 09 43 43 .96      49    -59     32     77     83 140.3  23.6  33628  280.63 0864.81
2015 04 09 09 43 44 .21      44    -63     31     78     83 144.8  22.0  33608  280.30 0864.81
2015 04 09 09 43 44 .46      48    -75     27     90     95 147.4  16.8  33618  280.47 0864.81
2015 04 09 09 43 44 .71      46    -74     25     88     92 147.9  16.3  33584  279.88 0864.81
2015 04 09 09 43 44 .96      49    -60     20     78     81 140.3  14.7  33570  279.67 0864.81
2015 04 09 09 43 45 .21      48    -69     29     85     91 145.3  19.2  33600  280.15 0864.81
2015 04 09 09 43 45 .47      43    -76     30     88     94 150.6  19.2  33608  280.28 0864.81
2015 04 09 09 43 45 .72      38    -59     31     71     77 147.4  25.1  33618  280.45 0864.81
2015 04 09 09 43 45 .96      46    -73     16     87     89 147.5  10.6  33646  280.93 0864.81
2015 04 09 09 43 46 .21      21    -65     35     69     77 161.7  28.2  33642  280.87 0864.81
2015 04 09 09 43 46 .47       9    -39     42     41     58 166.6  48.2  33654  281.05 0864.81
2015 04 09 09 43 46 .71      22    -31     29     39     48 143.9  40.7  33656  281.10 0864.81
2015 04 09 09 43 46 .96      19    -52     53     56     77 159.1  49.0  33652  281.02 0864.81
2015 04 09 09 43 47 .21      43    -45     29     63     69 135.9  27.1  33642  280.85 0864.81
2015 04 09 09 43 47 .47      61    -43     31     75     81 125.1  23.6  33628  280.62 0864.81
2015 04 09 09 43 47 .72      57    -36     45     68     81 122.4  36.5  33648  280.97 0864.81
2015 04 09 09 43 47 .97      52    -63     61     82    102 140.4  40.1  33662  281.19 0864.81
2015 04 09 09 43 48 .22      30    -50     55     59     80 148.4  47.9  33672  281.35 0864.81
2015 04 09 09 43 48 .47      27    -43     49     52     71 147.5  48.0  33692  281.69 0864.81
2015 04 09 09 43 48 .72      31    -28     48     42     63 132.2  53.3  33676  281.44 0864.81
2015 04 09 09 43 48 .97      39    -28     57     49     75 126.0  55.4  33676  281.44 0864.81
2015 04 09 09 43 49 .23      45    -19     42     50     65 113.5  43.8  33676  281.42 0864.81
2015 04 09 09 43 49 .48      32    -20     35     39     52 122.5  46.9  33684  281.55 0864.81
2015 04 09 09 43 49 .73      24     -4     24     25     34  99.7  52.0  33680  281.50 0864.81
2015 04 09 09 43 49 .98      24     -4     31     25     39  99.7  56.4  33698  281.80 0864.81
2015 04 09 09 43 50 .23      12    -11     44     17     47 133.3  79.2  33702  281.85 0864.81
2015 04 09 09 43 50 .48      24    -15     29     29     41 122.5  50.1  33694  281.72 0864.81
2015 04 09 09 43 50 .73      49    -27     15     57     60 118.9  15.2  33632  280.70 0864.81
2015 04 09 09 43 50 .99      38    -25     55     46     71 123.3  56.3  33642  280.85 0864.81
2015 04 09 09 43 51 .23      27    -17     53     33     62 122.4  64.7  33664  281.24 0864.81
2015 04 09 09 43 51 .48      26    -26     38     37     53 135.0  49.1  33650  281.00 0864.81
2015 04 09 09 43 51 .74      26    -26     13     37     40 135.0  19.4  33638  280.80 0864.81
2015 04 09 09 43 51 .99      43    -52     -1     68     69 140.3  -1.2  33678  281.47 0864.81
2015 04 09 09 43 52 .23      43    -52     -7     68     69 140.3  -6.2  33646  280.92 0864.81
2015 04 09 09 43 52 .49      55    -53      3     77     78 134.1   2.9  33620  280.50 0864.81
2015 04 09 09 43 52 .74      50    -41     22     65     69 129.6  18.9  33640  280.82 0864.81
2015 04 09 09 43 52 .98      24    -36     18     44     47 145.7  23.0  33642  280.87 0864.81
2015 04 09 09 43 53 .24      28    -48      4     56     57 149.3   4.9  33632  280.68 0864.81
2015 04 09 09 43 53 .49      36    -55      0     66     67 146.6   0.8  33626  280.58 0864.81
2015 04 09 09 43 53 .75      40    -63     -2     75     76 147.4  -2.2  33612  280.37 0864.81
2015 04 09 09 43 53 .99      28    -57    -12     64     66 153.7 -11.3  33632  280.68 0864.81
2015 04 09 09 43 54 .25      15    -57     -1     60     61 164.9  -1.2  33644  280.90 0864.81
2015 04 09 09 43 54 .49      38    -53     18     66     69 143.9  15.3  33634  280.72 0864.81
2015 04 09 09 43 54 .74      41    -40     20     58     62 134.9  18.9  33608  280.28 0864.81
2015 04 09 09 43 55 .00      43    -41      3     60     61 133.1   2.9  33618  280.45 0864.81
2015 04 09 09 43 55 .24      10    -29     18     31     35 160.0  35.5  33630  280.67 0864.81
2015 04 09 09 43 55 .50       5    -31     30     32     43 170.2  50.0  33636  280.77 0864.81
2015 04 09 09 43 55 .75       8    -47     35     48     59 170.2  39.7  33674  281.39 0864.81
2015 04 09 09 43 56 .00      -1    -35     50     36     61 182.7  60.5  33722  282.19 0864.81
2015 04 09 09 43 56 .26      -1    -39     54     40     67 182.6  60.5  33728  282.31 0864.81
2015 04 09 09 43 56 .50      -7    -24     50     26     56 196.9  70.8  33718  282.14 0864.81
2015 04 09 09 43 56 .76      -1     -4     51      5     51 198.5  90.0  33730  282.34 0864.81
2015 04 09 09 43 57 .00      11     -3     44     12     45 108.4  83.9  33704  281.90 0864.81
2015 04 09 09 43 57 .26      13     -8     46     16     48 122.4  81.2  33684  281.57 0864.81
2015 04 09 09 43 57 .51      -4      1     40      5     40 288.4  90.0  33664  281.24 0864.81
2015 04 09 09 43 57 .76       0    -18     44     19     47 182.7  76.1  33658  281.14 0864.81
2015 04 09 09 43 58 .01      21    -13     33     25     41 122.4  58.5  33650  281.00 0864.81
2015 04 09 09 43 58 .26      31    -31     37     45     58 135.0  43.8  33656  281.10 0864.81
2015 04 09 09 43 58 .51      12    -44     24     46     51 164.9  29.3  33640  280.83 0864.81
2015 04 09 09 43 58 .77       7    -27     26     29     38 164.9  47.9  33670  281.34 0864.81
2015 04 09 09 43 59 .01      -2    -27     25     28     37 184.5  47.9  33690  281.67 0864.81
2015 04 09 09 43 59 .27       0      1     25      2     25 341.5  90.0  33672  281.37 0864.81
2015 04 09 09 43 59 .52     -14    -18     38     24     44 217.8  64.7  33718  282.12 0864.81
2015 04 09 09 43 59 .76       7      0     36      8     36  94.4  89.0  33716  282.11 0864.81
2015 04 09 09 44 00 .01      -5      1     33      6     33 288.4  89.1  33724  282.24 0864.81
2015 04 09 09 44 00 .26      -6     -7     31     10     32 223.2  80.7  33692  281.70 0864.81
2015 04 09 09 44 00 .51       0    -10     24     11     26 184.5  75.0  33676  281.42 0864.81
2015 04 09 09 44 00 .77      -4    -12     26     13     29 198.3  72.9  33686  281.59 0864.81
2015 04 09 09 44 01 .02      -6      0     24      7     25 265.6  82.8  33724  282.24 0864.81
2015 04 09 09 44 01 .26      -9    -21     29     24     37 203.6  56.3  33712  282.04 0864.81
2015 04 09 09 44 01 .52     -26    -40     40     48     62 213.4  43.8  33720  282.16 0864.81
2015 04 09 09 44 01 .77     -18    -43     53     47     70 202.7  53.3  33702  281.85 0864.82
2015 04 09 09 44 02 .02     -34    -25     49     43     65 233.1  53.3  33716  282.11 0864.82
2015 04 09 09 44 02 .27     -10    -32     46     34     57 198.3  59.4  33724  282.24 0864.82
2015 04 09 09 44 02 .52     -18    -39     29     44     52 205.4  35.6  33702  281.87 0864.82
2015 04 09 09 44 02 .77      -4    -27     19     28     33 189.8  37.6  33696  281.77 0864.82
2015 04 09 09 44 03 .03       8     -8     22     12     25 133.1  66.8  33708  281.95 0864.82
2015 04 09 09 44 03 .28      15      1     28     16     32  85.7  66.8  33716  282.09 0864.82
2015 04 09 09 44 03 .54       7     -7     35     11     36 135.0  80.7  33714  282.05 0864.82
2015 04 09 09 44 03 .78      -4    -23     35     24     42 189.8  62.6  33714  282.05 0864.82
2015 04 09 09 44 04 .03     -16     -7     42     18     45 244.7  76.1  33722  282.19 0864.82
2015 04 09 09 44 04 .28       2      4     38      5     38  32.5  90.0  33718  282.12 0864.82
2015 04 09 09 44 04 .54       8     -5     46     10     47 122.4  88.0  33694  281.72 0864.82
2015 04 09 09 44 04 .79      -5    -24     42     25     48 191.6  65.7  33702  281.87 0864.82
2015 04 09 09 44 05 .04      -2    -16     54     17     56 188.0  80.7  33684  281.57 0864.82
2015 04 09 09 44 05 .29      -7    -23     51     25     56 198.5  72.8  33676  281.42 0864.82
2015 04 09 09 44 05 .53      23    -13     46     27     53 118.9  66.8  33672  281.37 0864.82
2015 04 09 09 44 05 .78      35    -25     36     44     56 126.0  43.7  33648  280.97 0864.82
2015 04 09 09 44 06 .04      29    -28     29     41     50 134.0  38.6  33638  280.78 0864.82
2015 04 09 09 44 06 .29      32    -20     29     38     47 122.5  41.7  33648  280.95 0864.82
2015 04 09 09 44 06 .54      31    -13     35     34     48 113.5  49.1  33636  280.77 0864.82
2015 04 09 09 44 06 .79      22    -13     20     26     32 120.7  43.7  33632  280.68 0864.82
2015 04 09 09 44 07 .05       0      4     27      5     27 350.3  90.0  33652  281.04 0864.82
2015 04 09 09 44 07 .29      -1    -27     37     28     46 182.7  59.4  33672  281.37 0864.81
2015 04 09 09 44 07 .54       5    -31     37     32     48 170.2  53.3  33682  281.52 0864.81
2015 04 09 09 44 07 .79      21    -27     20     35     40 142.2  32.4  33666  281.27 0864.81
2015 04 09 09 44 08 .05      30    -35     35     47     58 139.5  40.7  33686  281.59 0864.81
2015 04 09 09 44 08 .29      15     -9     26     18     31 122.4  62.6  33708  281.95 0864.81
2015 04 09 09 44 08 .55      19    -20     26     28     38 136.6  52.0  33686  281.60 0864.81
2015 04 09 09 44 08 .79      20    -36     32     42     52 150.1  42.7  33690  281.67 0864.81
2015 04 09 09 44 09 .05       7    -44     39     45     59 170.2  45.8  33692  281.70 0864.81
2015 04 09 09 44 09 .29      21    -44     33     49     59 154.6  37.6  33682  281.52 0864.81
2015 04 09 09 44 09 .55      33    -70     46     78     90 154.5  33.5  33668  281.30 0864.81
2015 04 09 09 44 09 .80      22    -50     33     55     64 156.4  35.5  33684  281.55 0864.81
2015 04 09 09 44 10 .06      23    -41     41     48     63 150.1  44.8  33696  281.77 0864.81
2015 04 09 09 44 10 .31       0    -43     25     44     50 180.9  32.4  33668  281.30 0864.81
2015 04 09 09 44 10 .56      -3    -34     -5     35     36 186.2  -9.3  33610  280.33 0864.81
2015 04 09 09 44 10 .81       3    -31     -1     32     33 173.8  -2.2  33614  280.38 0864.81
2015 04 09 09 44 11 .06      -1    -30      6     31     32 182.6  11.1  33628  280.63 0864.81
2015 04 09 09 44 11 .32      -3    -39     16     40     43 184.5  22.0  33660  281.17 0864.81
2015 04 09 09 44 11 .57      -6    -54     45     55     71 187.1  43.7  33738  282.47 0864.81
2015 04 09 09 44 11 .81       3     -3     42      5     42 133.3  90.0  33778  283.13 0864.82
2015 04 09 09 44 12 .06       6      1     26      7     26  78.5  84.9  33760  282.83 0864.82
2015 04 09 09 44 12 .31      22      0     42     23     47  90.8  68.8  33724  282.24 0864.82
2015 04 09 09 44 12 .56       2    -19     35     20     40 173.8  67.7  33686  281.60 0864.82
2015 04 09 09 44 12 .81      39    -40     33     57     65 135.8  33.5  33642  280.85 0864.82
2015 04 09 09 44 13 .07      13    -32     46     35     57 158.2  58.5  33684  281.57 0864.82
2015 04 09 09 44 13 .31      13    -12     37     18     41 133.3  72.9  33702  281.87 0864.82
2015 04 09 09 44 13 .57       7      2     33      8     33  71.4  86.9  33734  282.39 0864.82
2015 04 09 09 44 13 .82      -1      8     31      9     32 350.3  82.8  33758  282.79 0864.81
2015 04 09 09 44 14 .07      -1      6     34      7     34 350.3  89.0  33772  283.03 0864.81
2015 04 09 09 44 14 .31       0     -3     32      4     32 184.5  90.0  33748  282.62 0864.81
2015 04 09 09 44 14 .57      24    -60     37     65     74 158.1  32.4  33670  281.32 0864.81
2015 04 09 09 44 14 .82      44    -53     24     69     74 140.3  19.4  33658  281.14 0864.81
2015 04 09 09 44 15 .07      19    -30     12     36     39 147.5  19.4  33656  281.10 0864.81
2015 04 09 09 44 15 .32      14    -37     42     40     58 158.2  49.1  33672  281.37 0864.81
2015 04 09 09 44 15 .57      35    -64     41     74     84 151.0  31.9  33664  281.22 0864.82
2015 04 09 09 44 15 .82      24    -64     35     69     77 159.1  28.2  33664  281.24 0864.82
2015 04 09 09 44 16 .08      30    -50     48     59     76 149.3  43.7  33674  281.39 0864.82
2015 04 09 09 44 16 .32      18    -55     45     58     73 161.7  42.7  33684  281.57 0864.82
2015 04 09 09 44 16 .57       0    -46     20     47     51 180.0  24.1  33632  280.70 0864.82
2015 04 09 09 44 16 .82      19    -51     -2     55     56 159.1  -2.2  33590  280.00 0864.82
2015 04 09 09 44 17 .08      36    -65      0     75     76 151.0  -0.3  33580  279.82 0864.82
2015 04 09 09 44 17 .33      33    -70    -12     78     79 154.7  -8.8  33578  279.78 0864.82
2015 04 09 09 44 17 .58      31    -62    -11     70     71 153.7  -9.3  33582  279.85 0864.82
2015 04 09 09 44 17 .83      27    -86     -8     91     92 162.2  -5.6  33576  279.77 0864.82
2015 04 09 09 44 18 .08       8    -93     -2     94     95 174.7  -1.3  33580  279.82 0864.82
2015 04 09 09 44 18 .33      13    -94      3     95     96 172.0   2.3  33582  279.87 0864.82
2015 04 09 09 44 18 .59       3    -92      1     93     94 177.8   0.8  33582  279.85 0864.82
2015 04 09 09 44 18 .84      25    -98     -4    102    103 165.7  -2.6  33614  280.38 0864.82
2015 04 09 09 44 19 .09      41    -72     18     84     87 150.1  12.6  33634  280.73 0864.82
2015 04 09 09 44 19 .34      39    -69     16     80     82 150.1  11.6  33630  280.67 0864.82
2015 04 09 09 44 19 .58      15    -71     31     73     79 167.5  24.1  33630  280.67 0864.82
2015 04 09 09 44 19 .84      17    -87      8     89     90 168.9   5.4  33604  280.23 0864.82
2015 04 09 09 44 20 .10      19    -92     -3     95     96 168.0  -2.2  33636  280.77 0864.81
2015 04 09 09 44 20 .34      19    -98     39    100    107 168.5  22.0  33656  281.09 0864.81
2015 04 09 09 44 20 .59       3    -80     24     81     85 177.3  16.8  33658  281.12 0864.81
2015 04 09 09 44 20 .84       1    -73     14     74     76 179.1  11.1  33650  281.00 0864.82
2015 04 09 09 44 21 .09       6    -70     -5     71     72 174.7  -4.1  33594  280.07 0864.82
2015 04 09 09 44 21 .35       5    -73      3     74     75 175.5   2.9  33620  280.48 0864.82
2015 04 09 09 44 21 .59      13    -63     26     65     70 168.4  23.0  33640  280.82 0864.82
2015 04 09 09 44 21 .84      19    -51     13     55     57 159.1  13.2  33616  280.42 0864.82
2015 04 09 09 44 22 .09      18    -77      2     80     81 166.6   1.8  33574  279.73 0864.82
2015 04 09 09 44 22 .34      11    -75      3     76     77 171.1   2.8  33578  279.78 0864.82
2015 04 09 09 44 22 .59      28    -75      0     81     82 159.1  -0.3  33582  279.87 0864.82
2015 04 09 09 44 22 .84      34    -72      8     80     81 154.6   5.9  33580  279.83 0864.81
2015 04 09 09 44 23 .10      40    -63      3     75     76 147.4   2.9  33576  279.77 0864.81
2015 04 09 09 44 23 .35      25    -75     -3     80     81 161.3  -2.2  33582  279.87 0864.81
2015 04 09 09 44 23 .62      21    -59      3     63     64 160.0   2.9  33628  280.63 0864.81
2015 04 09 09 44 23 .84      12    -49      2     51     52 165.7   2.9  33618  280.45 0864.81
2015 04 09 09 44 24 .11      16    -48     -2     51     52 161.7  -2.2  33598  280.13 0864.81
2015 04 09 09 44 24 .37      19    -51     -2     55     56 159.1  -2.2  33628  280.62 0864.81
2015 04 09 09 44 24 .61       5    -66     -8     67     68 175.5  -7.2  33678  281.47 0864.81
2015 04 09 09 44 24 .86       0    -57      1     58     59 179.1   1.8  33662  281.20 0864.81
2015 04 09 09 44 25 .11       2    -50     -3     51     52 177.3  -4.1  33642  280.87 0864.81
2015 04 09 09 44 25 .36      13    -47     -1     49     50 164.0  -2.2  33612  280.37 0864.81
2015 04 09 09 44 25 .61      31    -31     -1     44     45 135.0  -2.2  33598  280.13 0864.81
2015 04 09 09 44 25 .86      21    -32     -5     39     40 145.7  -8.2  33590  280.00 0864.81
2015 04 09 09 44 26 .12      17    -22     11     29     31 142.2  21.0  33610  280.33 0864.81
2015 04 09 09 44 26 .37       3    -30      2     31     32 173.8   4.9  33634  280.72 0864.81
2015 04 09 09 44 26 .62      11    -35     13     37     40 161.3  19.4  33670  281.32 0864.81
2015 04 09 09 44 26 .87       8    -41     16     42     44 168.4  21.0  33682  281.52 0864.81
2015 04 09 09 44 27 .11       4    -38     10     39     41 172.9  15.3  33676  281.42 0864.81
2015 04 09 09 44 27 .36       6    -42      5     43     44 171.1   6.9  33654  281.05 0864.81
2015 04 09 09 44 27 .62      -3    -53      5     54     55 183.6   5.9  33668  281.29 0864.81
2015 04 09 09 44 27 .87      -3    -39     28     40     48 184.5  38.6  33684  281.57 0864.81
2015 04 09 09 44 28 .12      20    -36     32     42     52 150.1  42.7  33666  281.27 0864.81
2015 04 09 09 44 28 .37      11    -35     13     37     40 161.3  19.4  33656  281.10 0864.81
2015 04 09 09 44 28 .62      14    -47     -1     50     51 163.1  -2.2  33636  280.77 0864.81
2015 04 09 09 44 28 .87      20    -44      5     49     50 155.5   5.9  33610  280.33 0864.81
2015 04 09 09 44 29 .12      18    -38      3     43     44 154.6   4.9  33594  280.05 0864.81
2015 04 09 09 44 29 .37      14    -32     12     36     39 156.4  18.9  33608  280.30 0864.81
2015 04 09 09 44 29 .62      23    -40     22     47     51 150.1  27.1  33600  280.15 0864.81
2015 04 09 09 44 29 .87      27    -48     19     56     60 150.1  18.9  33608  280.28 0864.81
2015 04 09 09 44 30 .12      30    -48     24     57     61 147.4  23.1  33602  280.18 0864.81
2015 04 09 09 44 30 .37      34    -56     18     66     69 148.4  15.3  33588  279.95 0864.81
2015 04 09 09 44 30 .63      32    -55      2     64     65 149.3   1.8  33590  280.00 0864.81
2015 04 09 09 44 30 .88      24    -52     11     58     60 154.5  11.0  33610  280.33 0864.81
2015 04 09 09 44 31 .14      24    -27     13     37     40 138.6  19.4  33622  280.53 0864.81
2015 04 09 09 44 31 .39      36    -32     42     49     64 132.2  45.8  33656  281.10 0864.81
2015 04 09 09 44 31 .64      35    -34     46     50     67 134.1  48.0  33670  281.32 0864.81
2015 04 09 09 44 31 .88      30    -44     49     54     72 145.7  47.9  33662  281.19 0864.81
2015 04 09 09 44 32 .13      25    -64     32     69     76 158.2  27.1  33586  279.93 0864.81
2015 04 09 09 44 32 .39      30    -64     30     71     77 154.5  23.1  33584  279.90 0864.81
2015 04 09 09 44 32 .64      28    -60     14     67     69 154.5  12.2  33596  280.08 0864.81
2015 04 09 09 44 32 .89      20    -51     13     55     57 158.2  13.2  33584  279.90 0864.80
2015 04 09 09 44 33 .14      30    -55     17     63     66 151.0  15.3  33576  279.77 0864.80
2015 04 09 09 44 33 .39      36    -48     16     61     64 143.0  15.2  33576  279.77 0864.80
2015 04 09 09 44 33 .64      40    -48      3     63     64 140.3   2.9  33580  279.82 0864.80
2015 04 09 09 44 33 .89      33    -43      3     55     56 143.0   3.8  33580  279.82 0864.80
2015 04 09 09 44 34 .14      40    -40      3     57     58 135.0   3.8  33576  279.77 0864.80
2015 04 09 09 44 34 .39      40    -40      3     57     58 135.0   3.8  33574  279.72 0864.80
2015 04 09 09 44 34 .64      38    -31     14     50     53 129.5  16.3  33582  279.85 0864.81
2015 04 09 09 44 34 .89      26    -26     13     37     40 135.0  19.4  33582  279.87 0864.81
2015 04 09 09 44 35 .14      11    -34     12     36     39 161.3  19.4  33574  279.72 0864.81
2015 04 09 09 44 35 .39      27    -29     16     40     43 136.6  22.0  33576  279.77 0864.81
2015 04 09 09 44 35 .64      34    -23     17     42     45 124.2  23.0  33582  279.85 0864.81
2015 04 09 09 44 35 .89      46    -29     35     55     65 122.4  35.5  33584  279.90 0864.81
2015 04 09 09 44 36 .14      43    -42     23     61     65 134.1  22.0  33574  279.73 0864.81
2015 04 09 09 44 36 .39      33    -40     25     52     57 140.4  27.2  33574  279.72 0864.82
2015 04 09 09 44 36 .65      28    -41     27     50     56 145.7  30.3  33574  279.73 0864.82
2015 04 09 09 44 36 .90      39    -36     24     54     59 133.1  25.1  33576  279.77 0864.82
2015 04 09 09 44 37 .14      41    -43     10     60     61 136.8  10.1  33570  279.67 0864.82
2015 04 09 09 44 37 .40      38    -43     11     58     60 138.6  11.1  33568  279.62 0864.82
2015 04 09 09 44 37 .65      41    -41     20     58     62 135.0  19.4  33568  279.62 0864.82
2015 04 09 09 44 37 .91      41    -40     12     58     60 134.9  12.2  33568  279.63 0864.82
2015 04 09 09 44 38 .16      41    -36      7     55     56 131.3   8.0  33568  279.63 0864.81
2015 04 09 09 44 38 .41      38    -36      2     53     54 133.1   2.9  33566  279.60 0864.81
2015 04 09 09 44 38 .66      31    -32      2     45     46 135.8   2.9  33570  279.65 0864.81
2015 04 09 09 44 38 .91      35    -35      6     50     51 135.0   6.9  33570  279.67 0864.81
2015 04 09 09 44 39 .16      33    -40     10     52     54 140.4  11.1  33568  279.62 0864.81
2015 04 09 09 44 39 .41      26    -46     20     54     57 150.1  20.0  33568  279.62 0864.81
2015 04 09 09 44 39 .66      24    -51      2     57     58 154.5   2.8  33568  279.63 0864.81
2015 04 09 09 44 39 .91      22    -47      0     53     54 154.7   0.8  33568  279.62 0864.81
2015 04 09 09 44 40 .16      32    -39     -2     51     52 140.4  -2.2  33564  279.57 0864.81
2015 04 09 09 44 40 .41      36    -39      2     54     55 137.7   2.8  33568  279.62 0864.81
2015 04 09 09 44 40 .67      39    -40     -2     57     58 135.8  -2.2  33566  279.60 0864.81
2015 04 09 09 44 40 .91      35    -35     -1     50     51 135.0  -2.2  33566  279.60 0864.82
2015 04 09 09 44 41 .17      35    -35     -1     50     51 135.0  -2.2  33566  279.60 0864.82
2015 04 09 09 44 41 .42      28    -35     -4     45     46 141.3  -6.2  33566  279.60 0864.82
2015 04 09 09 44 41 .67      35    -32     -5     48     49 133.1  -6.2  33570  279.65 0864.82
2015 04 09 09 44 41 .92      28    -35     -4     45     46 141.3  -6.2  33572  279.70 0864.82
2015 04 09 09 44 42 .17      32    -27     -7     43     44 130.4 -10.3  33576  279.77 0864.82
2015 04 09 09 44 42 .42      33    -28    -12     44     45 130.4 -20.7  33576  279.75 0864.82
2015 04 09 09 44 42 .67      30    -30     -9     43     45 135.0 -12.4  33572  279.70 0864.82
2015 04 09 09 44 42 .92      26    -27    -11     38     40 136.6 -16.6  33572  279.68 0864.81
2015 04 09 09 44 43 .17      42    -26    -18     50     53 122.4 -23.3  33574  279.72 0864.81
2015 04 09 09 44 43 .43      41    -22    -14     47     49 118.0 -22.8  33586  279.93 0864.81
2015 04 09 09 44 43 .68      22    -16      1     28     29 126.0   2.8  33628  280.63 0864.82
2015 04 09 09 44 43 .93       8    -20     13     22     25 158.2  35.5  33640  280.82 0864.82
2015 04 09 09 44 44 .17      -1    -30      6     31     32 182.6  11.0  33638  280.80 0864.82
2015 04 09 09 44 44 .43      -2    -30      9     31     33 184.5  17.3  33642  280.87 0864.82
2015 04 09 09 44 44 .68      -6    -30      3     31     32 191.6   6.9  33646  280.92 0864.82
2015 04 09 09 44 44 .93     -15    -39      0     43     44 201.8  -0.3  33654  281.07 0864.82
2015 04 09 09 44 45 .18     -11    -23     14     26     29 207.2  31.4  33652  281.04 0864.82
2015 04 09 09 44 45 .44     -15    -31     16     35     38 207.2  25.1  33636  280.75 0864.81
2015 04 09 09 44 45 .69     -10    -42     15     44     47 193.4  18.9  33662  281.20 0864.81
2015 04 09 09 44 45 .94      -7    -46      2     47     48 189.8   2.9  33676  281.44 0864.81
2015 04 09 09 44 46 .19      -6    -38     -2     39     40 189.8  -3.1  33672  281.37 0864.81
2015 04 09 09 44 46 .44      -3    -38     -4     39     40 184.5  -6.2  33670  281.34 0864.81
2015 04 09 09 44 46 .69     -21    -32    -14     39     41 212.6 -24.4  33660  281.17 0864.81
2015 04 09 09 44 46 .94      -3    -39    -16     40     43 184.5 -26.4  33664  281.24 0864.81
2015 04 09 09 44 47 .19      -5    -42     -7     43     44 187.1 -10.3  33644  280.88 0864.82
2015 04 09 09 44 47 .44      12    -44    -13     46     47 164.9 -20.7  33610  280.33 0864.82
2015 04 09 09 44 47 .70       5    -37    -13     38     40 172.0 -23.6  33618  280.47 0864.82
2015 04 09 09 44 47 .94      -4    -27    -12     28     30 189.8 -29.5  33636  280.77 0864.82
2015 04 09 09 44 48 .19     -19    -37    -12     42     43 207.2 -21.7  33646  280.92 0864.82
2015 04 09 09 44 48 .44     -13    -13    -28     19     33 223.4 -67.0  33622  280.53 0864.82
2015 04 09 09 44 48 .69       2    -26    -23     27     35 175.5 -48.2  33616  280.43 0864.82
2015 04 09 09 44 48 .94       6    -20    -25     22     33 161.5 -58.7  33594  280.05 0864.82
2015 04 09 09 44 49 .20      15    -23    -18     28     33 147.5 -40.0  33608  280.28 0864.82
2015 04 09 09 44 49 .45       6    -20    -18     22     28 161.5 -50.2  33626  280.58 0864.82
2015 04 09 09 44 49 .70       2    -10      2     11     12 168.4  11.1  33660  281.15 0864.82
2015 04 09 09 44 49 .95       0    -19     17     20     26 180.9  45.8  33662  281.19 0864.82
2015 04 09 09 44 50 .20      -4     -3     26      6     26 230.5  86.9  33690  281.65 0864.82
2015 04 09 09 44 50 .45     -11    -23     19     26     32 207.2  39.7  33706  281.94 0864.82
2015 04 09 09 44 50 .70      -2     -7      9      8     12 198.5  52.2  33698  281.80 0864.82
2015 04 09 09 44 50 .96      -1    -11     18     12     21 188.0  62.6  33714  282.05 0864.82
2015 04 09 09 44 51 .20       0     -3     16      4     16 175.5  84.9  33728  282.29 0864.82
2015 04 09 09 44 51 .45       0     -3     17      4     17 184.5  89.0  33720  282.16 0864.82
2015 04 09 09 44 51 .71       7     -3     14      8     16 115.3  64.7  33696  281.75 0864.82
2015 04 09 09 44 51 .96       4     -7     12      9     15 147.5  56.4  33678  281.47 0864.82
2015 04 09 09 44 52 .21       7     -7     16     11     19 135.0  64.6  33662  281.20 0864.82
2015 04 09 09 44 52 .46       8      0      9      9     12  94.4  50.1  33670  281.34 0864.82
2015 04 09 09 44 52 .71       6      4      2      8      9  57.6  19.2  33672  281.37 0864.82
2015 04 09 09 44 52 .96       9      8      4     13     14  46.9  19.2  33668  281.29 0864.82
2015 04 09 09 44 53 .22       8      8     10     12     15  46.9  47.9  33682  281.54 0864.82
2015 04 09 09 44 53 .46      11      9     17     15     22  50.5  52.2  33680  281.49 0864.82
2015 04 09 09 44 53 .72       4     12     18     13     22  18.3  60.5  33686  281.59 0864.81
2015 04 09 09 44 53 .97       2      8      9      9     12  18.5  50.1  33680  281.49 0864.81
2015 04 09 09 44 54 .21       5     18     -5     19     19  18.3 -23.8  33672  281.37 0864.81
2015 04 09 09 44 54 .47      11     17     -8     21     22  34.3 -25.4  33642  280.87 0864.81
2015 04 09 09 44 54 .72       4     28      3     29     30   9.8   6.9  33636  280.77 0864.81
2015 04 09 09 44 54 .97       2     35      8     36     37   4.4  13.2  33634  280.72 0864.81
2015 04 09 09 44 55 .22       6     32      6     33     34  11.6  11.1  33620  280.48 0864.81
2015 04 09 09 44 55 .47       6     32      6     33     34  11.6  11.1  33616  280.43 0864.81
2015 04 09 09 44 55 .72       8     24      9     26     28  18.7  19.4  33622  280.53 0864.81
2015 04 09 09 44 55 .97      -5     16     14     17     22 341.3  43.7  33624  280.57 0864.81
2015 04 09 09 44 56 .22      -5     31      6     32     33 350.2  11.1  33622  280.53 0864.81
2015 04 09 09 44 56 .47       2     43     -3     44     45   2.7  -4.1  33624  280.55 0864.81
2015 04 09 09 44 56 .72      -1     42     -1     43     44 357.4  -2.2  33620  280.48 0864.81
2015 04 09 09 44 56 .97       0     36      1     37     38   0.0   2.9  33622  280.52 0864.81
2015 04 09 09 44 57 .22       1     42     -3     43     44   1.8  -4.1  33612  280.37 0864.81
2015 04 09 09 44 57 .48       6     41      0     42     43   8.9  -1.3  33622  280.52 0864.81
2015 04 09 09 44 57 .73       6     32      6     33     34  11.6  11.1  33622  280.53 0864.81
2015 04 09 09 44 57 .97       4     37     11     38     40   6.2  17.3  33626  280.58 0864.81
2015 04 09 09 44 58 .22       4     38     17     39     42   6.2  25.1  33622  280.52 0864.81
2015 04 09 09 44 58 .47      11     41     11     43     45  15.1  15.3  33604  280.23 0864.81
2015 04 09 09 44 58 .73      21     32     14     39     41  32.6  20.0  33606  280.27 0864.81
2015 04 09 09 44 58 .99      28     26     20     39     43  46.7  28.2  33614  280.38 0864.81
2015 04 09 09 44 59 .24      26     29     21     40     45  41.4  30.3  33622  280.52 0864.82
2015 04 09 09 44 59 .49      12     37     33     40     51  18.3  43.7  33638  280.78 0864.82
2015 04 09 09 44 59 .74      11     33     31     35     46  18.5  46.9  33640  280.82 0864.82
2015 04 09 09 44 59 .99       3     21     31     22     38   9.8  62.6  33652  281.02 0864.82
2015 04 09 09 45 00 .24      18     17     26     26     36  46.9  50.1  33664  281.24 0864.82
2015 04 09 09 45 00 .49      27     22     27     36     45  50.5  40.7  33648  280.97 0864.82
2015 04 09 09 45 00 .74      45     37     17     59     62  50.5  16.3  33634  280.72 0864.82
2015 04 09 09 45 01 .00      40     38     23     56     60  45.9  23.1  33630  280.65 0864.82
2015 04 09 09 45 01 .24      23     53     29     58     64  23.6  28.2  33670  281.32 0864.82
2015 04 09 09 45 01 .57       0     59     38     60     71   0.9  35.5  33690  281.65 0864.82
2015 04 09 09 45 01 .74      36     43     22     57     61  39.6  22.0  33652  281.02 0864.82
2015 04 09 09 45 02 .05      28     29     32     41     52  44.1  42.7  33644  280.90 0864.81
2015 04 09 09 45 02 .24      14     44     33     47     57  17.8  38.6  33644  280.90 0864.81
2015 04 09 09 45 02 .51      13     46     40     48     62  16.0  43.8  33710  282.00 0864.81
2015 04 09 09 45 02 .75      22     50     46     55     71  23.6  43.8  33734  282.39 0864.81
2015 04 09 09 45 02 .99      30     75     62     81    102  21.8  41.2  33720  282.17 0864.81
2015 04 09 09 45 03 .24      44     82     49     94    106  28.5  29.8  33692  281.69 0864.81
2015 04 09 09 45 03 .51      44     83     32     95    101  28.1  18.9  33672  281.37 0864.81
2015 04 09 09 45 03 .75      29     74     36     80     87  21.9  25.7  33670  281.34 0864.81
2015 04 09 09 45 04 .01      33     53     38     63     73  31.6  34.4  33702  281.87 0864.81
2015 04 09 09 45 04 .25      20     64     27     68     73  17.8  23.0  33714  282.05 0864.81
2015 04 09 09 45 04 .50       0     83     12     84     85   0.5   8.5  33652  281.04 0864.81
2015 04 09 09 45 04 .75      22     92     -1     95     96  13.8  -0.7  33568  279.62 0864.81
2015 04 09 09 45 05 .00      32     92      1     98     99  19.2   0.8  33572  279.70 0864.81
2015 04 09 09 45 05 .25      34    104     -3    110    111  18.5  -1.8  33556  279.43 0864.81
2015 04 09 09 45 05 .50      38     87      3     96     97  23.6   1.8  33560  279.48 0864.82
2015 04 09 09 45 05 .77      31     94      3     99    100  18.3   1.8  33596  280.10 0864.82
2015 04 09 09 45 06 .02      46     86      8     98     99  28.5   4.9  33636  280.75 0864.82
2015 04 09 09 45 06 .27      25     91     32     95    101  15.6  18.9  33642  280.87 0864.82
2015 04 09 09 45 06 .51      -1    103     32    104    109 359.1  17.3  33692  281.69 0864.82
2015 04 09 09 45 06 .77       8    110     18    111    113   4.5   9.5  33696  281.77 0864.82
2015 04 09 09 45 07 .02       9    117     -4    118    119   4.4  -2.2  33588  279.95 0864.82
2015 04 09 09 45 07 .26      25    122      0    125    126  11.6   0.2  33560  279.50 0864.82
2015 04 09 09 45 07 .52      20    122     -2    124    125   9.3  -1.3  33558  279.45 0864.82
2015 04 09 09 45 07 .77      20    113     -3    115    116  10.2  -1.8  33560  279.48 0864.82
2015 04 09 09 45 08 .02      24    111      1    114    115  12.5   0.8  33556  279.43 0864.82
2015 04 09 09 45 08 .27      30    104     -2    109    110  16.5  -1.2  33558  279.47 0864.81
2015 04 09 09 45 08 .52      42    106    -10    115    116  21.8  -5.2  33558  279.47 0864.81
2015 04 09 09 45 08 .77      41    109    -21    117    119  20.9 -10.3  33558  279.45 0864.81
2015 04 09 09 45 09 .03      51     91    -32    105    110  29.4 -17.0  33598  280.13 0864.81
2015 04 09 09 45 09 .27      84     80      5    117    118  46.4   2.8  33610  280.32 0864.81
2015 04 09 09 45 09 .52      40     79      8     89     90  26.7   5.4  33570  279.67 0864.81
2015 04 09 09 45 09 .78      27    104      7    108    109  14.7   3.8  33580  279.83 0864.81
2015 04 09 09 45 10 .02       9     98     30     99    104   5.3  16.8  33576  279.77 0864.81
2015 04 09 09 45 10 .27      33     88     -2     95     96  20.9  -1.8  33558  279.45 0864.81
2015 04 09 09 45 10 .52      42    100     -3    109    110  23.2  -1.8  33560  279.48 0864.81
2015 04 09 09 45 10 .77      38     96     -4    104    105  21.8  -2.2  33568  279.62 0864.81
2015 04 09 09 45 11 .03      33    100      1    106    107  18.3   0.8  33578  279.80 0864.82
2015 04 09 09 45 11 .28      32     96     -1    102    103  18.7  -0.7  33588  279.97 0864.82
2015 04 09 09 45 11 .53      29     81      5     87     88  20.0   3.8  33594  280.05 0864.82
2015 04 09 09 45 11 .78      37     83     -6     92     93  24.1  -4.1  33564  279.55 0864.82
2015 04 09 09 45 12 .02      40     87    -11     96     97  24.9  -6.7  33556  279.43 0864.82
2015 04 09 09 45 12 .28      46     83    -12     95     96  29.0  -7.2  33556  279.43 0864.82
2015 04 09 09 45 12 .54      39     77    -11     87     88  26.7  -7.3  33560  279.48 0864.82
2015 04 09 09 45 12 .80      36     83    -12     91     92  23.6  -7.7  33568  279.62 0864.81
2015 04 09 09 45 13 .04      32     87    -10     93     94  20.5  -6.2  33574  279.72 0864.81
2015 04 09 09 45 13 .29      28     80      0     85     86  19.6  -0.3  33576  279.77 0864.81
2015 04 09 09 45 13 .54      39     77    -11     87     88  26.7  -7.3  33560  279.48 0864.81
2015 04 09 09 45 13 .79      29     70    -12     76     78  22.7  -9.3  33562  279.52 0864.81
2015 04 09 09 45 14 .04      31     79      0     85     86  21.4  -0.3  33570  279.67 0864.81
2015 04 09 09 45 14 .29      36     75      0     84     85  25.9   0.2  33566  279.58 0864.81
2015 04 09 09 45 14 .54      36     75      6     84     85  25.9   4.4  33564  279.55 0864.81
2015 04 09 09 45 14 .80      29     73      6     79     80  21.9   4.9  33576  279.75 0864.81
2015 04 09 09 45 15 .05      26     64     24     70     75  21.8  18.9  33614  280.40 0864.81
2015 04 09 09 45 15 .30      33     70     37     78     86  25.5  27.2  33638  280.80 0864.81
2015 04 09 09 45 15 .54      21     74     59     78     97  16.0  41.2  33648  280.95 0864.81
2015 04 09 09 45 15 .80      47     60     44     77     88  37.8  32.4  33656  281.09 0864.81
2015 04 09 09 45 16 .05      60     74     23     96     99  38.7  13.7  33602  280.20 0864.81
2015 04 09 09 45 16 .30      54     87     31    103    108  32.1  16.8  33620  280.48 0864.81
2015 04 09 09 45 16 .55      36     88     40     96    104  22.3  23.1  33602  280.20 0864.81
2015 04 09 09 45 16 .80      18     93     25     95     99  11.1  14.7  33630  280.65 0864.81
2015 04 09 09 45 17 .05       9     78     -5     79     80   7.1  -4.1  33602  280.20 0864.81
2015 04 09 09 45 17 .30       0     56     -5     57     58   1.0  -5.2  33616  280.42 0864.81
2015 04 09 09 45 17 .55      30     73      0     80     81  22.7  -0.3  33620  280.48 0864.81
2015 04 09 09 45 17 .80      14    104     20    106    108   8.0  11.0  33666  281.27 0864.81
2015 04 09 09 45 18 .06       0    103     11    104    105   0.5   6.5  33668  281.29 0864.81
2015 04 09 09 45 18 .30      -1    110      8    111    112 359.1   4.4  33586  279.93 0864.82
2015 04 09 09 45 18 .56       7    110     11    111    112   4.0   5.9  33646  280.93 0864.82
2015 04 09 09 45 18 .80      16    107     -6    109    110   8.9  -3.2  33582  279.85 0864.82
2015 04 09 09 45 19 .05      22    112     -3    115    116  11.5  -1.8  33588  279.95 0864.82
2015 04 09 09 45 19 .30      23    100     -1    103    104  13.4  -0.7  33582  279.87 0864.82
2015 04 09 09 45 19 .56       7    101     -4    102    103   4.5  -2.2  33584  279.90 0864.82
2015 04 09 09 45 19 .81      15    103     -4    105    106   8.5  -2.2  33582  279.85 0864.82
2015 04 09 09 45 20 .06      15     92    -14     94     96   9.3  -8.8  33570  279.65 0864.81
2015 04 09 09 45 20 .32      14     95     -9     97     98   8.9  -5.6  33568  279.62 0864.81
2015 04 09 09 45 20 .56      33    107     -4    113    114  17.4  -2.2  33562  279.52 0864.81
2015 04 09 09 45 20 .82      34    105     -8    111    112  18.3  -4.6  33558  279.47 0864.81
2015 04 09 09 45 21 .07      48    102    -10    114    115  25.4  -5.2  33552  279.37 0864.81
2015 04 09 09 45 21 .32      45     97     -7    108    109  24.9  -3.7  33554  279.38 0864.81
2015 04 09 09 45 21 .57      51     92    -26    106    110  29.0 -13.9  33556  279.43 0864.81
2015 04 09 09 45 21 .82      53     92     -2    107    108  29.9  -1.3  33568  279.63 0864.81
2015 04 09 09 45 22 .07      47     93     -4    105    106  26.7  -2.2  33556  279.42 0864.81
2015 04 09 09 45 22 .32      43    111     -2    120    121  21.4  -1.2  33552  279.35 0864.81
2015 04 09 09 45 22 .57      47    106     -4    117    118  24.1  -2.2  33556  279.42 0864.81
2015 04 09 09 45 22 .82      39    104    -13    112    113  20.9  -6.7  33556  279.43 0864.80
2015 04 09 09 45 23 .07      39    104    -13    112    113  20.9  -6.7  33556  279.43 0864.80
2015 04 09 09 45 23 .32      42    106    -10    115    116  21.8  -5.2  33556  279.42 0864.80
2015 04 09 09 45 23 .57      47    100    -14    111    112  25.3  -7.2  33556  279.43 0864.80
2015 04 09 09 45 23 .82      35     94    -16    101    103  20.5  -9.3  33556  279.43 0864.80
2015 04 09 09 45 24 .07      35     94    -16    101    103  20.5  -9.3  33556  279.43 0864.80
2015 04 09 09 45 24 .32      40    100    -15    108    110  21.9  -8.2  33560  279.48 0864.80
2015 04 09 09 45 24 .57      40    100    -15    108    110  21.9  -8.2  33556  279.43 0864.80
2015 04 09 09 45 24 .82      41     93    -20    102    105  24.1 -11.5  33556  279.43 0864.80
2015 04 09 09 45 25 .08      44     93    -22    104    107  25.4 -11.9  33558  279.45 0864.80
2015 04 09 09 45 25 .33      37     93    -19    101    103  21.9 -10.9  33558  279.47 0864.80
2015 04 09 09 45 25 .57      41     93    -20    102    105  24.1 -11.5  33556  279.43 0864.80
2015 04 09 09 45 25 .83      46     95    -15    106    108  26.3  -8.2  33554  279.38 0864.80
2015 04 09 09 45 26 .08      48    102    -10    114    115  25.4  -5.2  33552  279.37 0864.80
2015 04 09 09 45 26 .33      48    102    -10    114    115  25.4  -5.2  33552  279.37 0864.80
2015 04 09 09 45 26 .59      51    108     -6    120    121  25.5  -3.1  33550  279.33 0864.80
2015 04 09 09 45 26 .84      50    103    -11    115    116  26.3  -5.6  33554  279.38 0864.80
2015 04 09 09 45 27 .09      45    103     -7    113    114  23.6  -3.7  33554  279.38 0864.80
2015 04 09 09 45 27 .34      47    105    -11    116    117  24.1  -5.6  33552  279.35 0864.80
2015 04 09 09 45 27 .60      42    111     -6    119    120  20.9  -3.2  33590  280.00 0864.80
2015 04 09 09 45 27 .84      42    105      5    114    115  21.8   2.9  33630  280.67 0864.80
2015 04 09 09 45 28 .09      44    122     12    130    131  20.0   5.4  33592  280.03 0864.80
2015 04 09 09 45 28 .34      46    116      0    126    127  21.9   0.2  33582  279.85 0864.80
2015 04 09 09 45 28 .59      49    110     -4    121    122  24.1  -2.2  33554  279.38 0864.80
2015 04 09 09 45 28 .84      46    116     -4    125    126  21.8  -2.2  33550  279.32 0864.80
2015 04 09 09 45 29 .10      36    120      2    126    127  16.9   1.2  33588  279.97 0864.80
2015 04 09 09 45 29 .36      42    117     -3    125    126  20.1  -1.8  33596  280.10 0864.79
2015 04 09 09 45 29 .60      37    113      9    119    120  18.3   4.4  33610  280.33 0864.79
2015 04 09 09 45 29 .85      36    107     -6    114    115  18.7  -3.1  33554  279.40 0864.79
2015 04 09 09 45 30 .10      39    104     -4    112    113  20.9  -2.2  33552  279.37 0864.79
2015 04 09 09 45 30 .35      47     95     -9    107    108  26.3  -5.2  33550  279.32 0864.79
2015 04 09 09 45 30 .60      39    104     -4    112    113  20.9  -2.2  33552  279.37 0864.79
2015 04 09 09 45 30 .85      44     95    -13    105    106  24.9  -7.3  33552  279.37 0864.79
2015 04 09 09 45 31 .10      39    104     -4    112    113  20.9  -2.2  33552  279.37 0864.79
2015 04 09 09 45 31 .35      43    103     -1    112    113  22.7  -0.7  33556  279.42 0864.79
2015 04 09 09 45 31 .60      53     97      0    111    112  29.0  -0.3  33556  279.43 0864.79
2015 04 09 09 45 31 .85      53     97      0    111    112  29.0  -0.3  33556  279.43 0864.79
2015 04 09 09 45 32 .10      36    100      5    107    108  20.0   2.9  33554  279.38 0864.79
2015 04 09 09 45 32 .35      30    104     -2    109    110  16.5  -1.2  33552  279.37 0864.79
2015 04 09 09 45 32 .60      30     89      5     94     95  18.7   3.3  33556  279.43 0864.79
2015 04 09 09 45 32 .85      32     86     10     92     93  20.5   6.5  33556  279.42 0864.79
2015 04 09 09 45 33 .11      32     96      5    102    103  18.7   2.8  33552  279.37 0864.79
2015 04 09 09 45 33 .35      20     96     -9     99    100  12.0  -5.2  33558  279.47 0864.79
2015 04 09 09 45 33 .61      36     96     -2    103    104  20.5  -1.3  33556  279.43 0864.79
2015 04 09 09 45 33 .87      36    101     -1    108    109  19.6  -0.7  33564  279.57 0864.80
2015 04 09 09 45 34 .12      29    109      4    113    114  15.1   2.3  33574  279.73 0864.80
2015 04 09 09 45 34 .37       7    110     24    111    114   4.0  12.6  33578  279.80 0864.80
2015 04 09 09 45 34 .62      17    113     22    115    118   8.9  11.1  33584  279.88 0864.80
2015 04 09 09 45 34 .87      25    105     21    109    112  13.8  11.1  33580  279.82 0864.80
2015 04 09 09 45 35 .12      23    103     36    106    113  12.9  18.9  33578  279.80 0864.80
2015 04 09 09 45 35 .37      27    102     36    106    113  15.2  18.9  33570  279.67 0864.80
2015 04 09 09 45 35 .63      34    104     38    110    117  18.3  19.4  33586  279.92 0864.80
2015 04 09 09 45 35 .87      22     97     46    100    110  12.9  27.1  33598  280.13 0864.80
2015 04 09 09 45 36 .12      25    123     57    126    138  11.6  25.7  33594  280.05 0864.80
2015 04 09 09 45 36 .37      44    106     55    115    127  22.7  27.2  33600  280.17 0864.80
2015 04 09 09 45 36 .63      78     94     55    123    134  39.7  25.7  33620  280.48 0864.80
2015 04 09 09 45 36 .87      90     90     52    128    138  45.1  23.1  33636  280.77 0864.80
2015 04 09 09 45 37 .12      74     94     44    120    127  38.3  21.0  33628  280.62 0864.80
2015 04 09 09 45 37 .37      85    103     41    134    141  39.7  17.3  33594  280.05 0864.80
2015 04 09 09 45 37 .63      74    116     28    138    141  32.5  11.6  33586  279.92 0864.80
2015 04 09 09 45 37 .88      57    104     25    119    122  29.0  12.2  33590  280.00 0864.80
2015 04 09 09 45 38 .13      83    107     24    136    139  37.8  10.1  33570  279.67 0864.80
2015 04 09 09 45 38 .38     103    110     23    151    153  43.2   9.0  33570  279.65 0864.80
2015 04 09 09 45 38 .63     108     89     22    141    143  50.4   9.0  33558  279.47 0864.80
2015 04 09 09 45 38 .88     100     95     32    139    143  46.4  13.2  33580  279.83 0864.80
2015 04 09 09 45 39 .13      99     99     27    141    144  45.1  11.1  33568  279.62 0864.80
2015 04 09 09 45 39 .38      90    102     40    137    143  41.4  16.3  33578  279.78 0864.80
2015 04 09 09 45 39 .64      83    114     39    142    148  36.1  15.3  33644  280.90 0864.80
2015 04 09 09 45 39 .88      96    124     31    157    161  37.8  11.1  33640  280.82 0864.80
2015 04 09 09 45 40 .14      96    116     22    151    153  39.7   8.5  33570  279.67 0864.80
2015 04 09 09 45 40 .39      91    110     22    143    145  39.6   9.0  33570  279.67 0864.80
2015 04 09 09 45 40 .64      95     94      8    134    135  45.2   3.8  33556  279.43 0864.80
2015 04 09 09 45 40 .89     105    101      7    146    147  46.0   2.8  33554  279.40 0864.80
2015 04 09 09 45 41 .14     101    101     -7    143    144  45.0  -3.1  33552  279.37 0864.80
2015 04 09 09 45 41 .39     101    107     -5    148    149  43.2  -2.2  33552  279.37 0864.80
2015 04 09 09 45 41 .64     102     97     -5    141    142  46.4  -2.2  33554  279.40 0864.80
2015 04 09 09 45 41 .90     101    101     -7    143    144  45.0  -3.1  33552  279.37 0864.80
2015 04 09 09 45 42 .15      86     97     -7    130    131  41.5  -3.1  33562  279.53 0864.80
2015 04 09 09 45 42 .39      89     95    -11    131    132  43.2  -5.1  33556  279.42 0864.80
2015 04 09 09 45 42 .65      82     99    -10    129    130  39.6  -4.6  33556  279.42 0864.80
2015 04 09 09 45 42 .90      84     95     -7    128    129  41.4  -3.1  33554  279.38 0864.80
2015 04 09 09 45 43 .15      80     97     -4    126    127  39.6  -2.2  33552  279.37 0864.80
2015 04 09 09 45 43 .40      77     93     -2    122    123  39.7  -1.3  33552  279.37 0864.80
2015 04 09 09 45 43 .65      77     93     -2    122    123  39.7  -1.3  33552  279.37 0864.80
2015 04 09 09 45 43 .90      67     88     -4    111    112  37.4  -2.2  33552  279.37 0864.81
2015 04 09 09 45 44 .15      58     91    -12    109    110  32.6  -6.7  33550  279.33 0864.81
2015 04 09 09 45 44 .40      65     85    -17    108    110  37.4  -9.3  33552  279.37 0864.81
2015 04 09 09 45 44 .65      65     90    -14    112    113  36.0  -7.2  33552  279.37 0864.81
2015 04 09 09 45 44 .90      66     87    -12    110    111  37.4  -6.2  33550  279.33 0864.81
2015 04 09 09 45 45 .15      72     87    -14    113    114  39.6  -7.3  33550  279.32 0864.81
2015 04 09 09 45 45 .40      75     91    -21    119    121  39.7 -10.3  33550  279.33 0864.81
2015 04 09 09 45 45 .65      72     87    -14    113    114  39.6  -7.3  33550  279.32 0864.81
2015 04 09 09 45 45 .90      72     87    -14    113    114  39.6  -7.3  33550  279.32 0864.81
2015 04 09 09 45 46 .15      72     87    -14    113    114  39.6  -7.3  33550  279.32 0864.81
2015 04 09 09 45 46 .40      76     80     -8    111    112  43.3  -4.6  33550  279.32 0864.81
2015 04 09 09 45 46 .65      76     80     -8    111    112  43.3  -4.6  33550  279.32 0864.81
2015 04 09 09 45 46 .92      75     89     -4    117    118  40.1  -2.2  33548  279.28 0864.81
2015 04 09 09 45 47 .16      74     82    -14    111    112  41.9  -7.2  33550  279.33 0864.81
2015 04 09 09 45 47 .42      74     79    -14    109    110  43.2  -7.3  33554  279.38 0864.81
2015 04 09 09 45 47 .67      79     78    -17    112    114  45.4  -8.8  33556  279.42 0864.81
2015 04 09 09 45 47 .92      76     69    -13    103    104  47.8  -7.3  33552  279.37 0864.81
2015 04 09 09 45 48 .17      69     69     -8     98     99  45.0  -5.2  33552  279.37 0864.81
2015 04 09 09 45 48 .42      77     80     -4    112    113  43.7  -2.2  33554  279.40 0864.81
2015 04 09 09 45 48 .67      84     86     -4    121    122  44.2  -2.2  33552  279.37 0864.81
2015 04 09 09 45 48 .92      94     96     -6    135    136  44.5  -2.6  33550  279.32 0864.81
2015 04 09 09 45 49 .17      94     93    -11    133    134  45.2  -5.1  33552  279.37 0864.80
2015 04 09 09 45 49 .42      91     86      0    126    127  46.9  -0.3  33552  279.35 0864.80
2015 04 09 09 45 49 .67      97     88     -1    132    133  47.8  -0.7  33550  279.32 0864.80
2015 04 09 09 45 49 .92      89     84    -15    123    124  46.8  -7.2  33552  279.37 0864.80
2015 04 09 09 45 50 .17      88     79    -24    119    122  47.8 -11.5  33556  279.42 0864.80
2015 04 09 09 45 50 .43      91     72    -19    117    119  51.8  -9.4  33556  279.42 0864.80
2015 04 09 09 45 50 .67      98     72    -22    122    124  53.6 -10.3  33554  279.40 0864.80
2015 04 09 09 45 50 .92      92     76    -16    120    122  50.5  -7.7  33554  279.38 0864.80
2015 04 09 09 45 51 .17      93     81    -12    124    125  49.1  -5.6  33554  279.40 0864.81
2015 04 09 09 45 51 .42      88     73    -14    115    116  50.5  -7.3  33554  279.38 0864.81
2015 04 09 09 45 51 .68      89     67    -22    112    115  53.1 -11.3  33554  279.38 0864.81
2015 04 09 09 45 51 .93      77     63    -19    100    102  50.5 -10.9  33556  279.42 0864.81
2015 04 09 09 45 52 .18      70     58    -17     92     94  50.4 -10.9  33552  279.37 0864.81
2015 04 09 09 45 52 .43      69     55     -6     89     90  51.4  -4.1  33554  279.38 0864.81
2015 04 09 09 45 52 .68      69     55     -6     89     90  51.4  -4.1  33554  279.38 0864.81
2015 04 09 09 45 52 .93      74     64     -9     99    100  49.1  -5.2  33552  279.35 0864.81
2015 04 09 09 45 53 .18      70     65    -12     96     97  46.9  -7.3  33556  279.42 0864.81
2015 04 09 09 45 53 .43      77     69     -5    104    105  47.8  -3.1  33554  279.38 0864.81
2015 04 09 09 45 53 .68      78     64     -4    102    103  50.5  -2.2  33554  279.40 0864.81
2015 04 09 09 45 53 .93      88     64     -8    109    110  54.0  -4.6  33556  279.42 0864.81
2015 04 09 09 45 54 .18      77     63    -19    100    102  50.5 -10.9  33556  279.42 0864.81
2015 04 09 09 45 54 .44      66     66    -14     94     96  45.0  -8.8  33556  279.43 0864.81
2015 04 09 09 45 54 .69      66     66    -14     94     96  45.0  -8.8  33556  279.43 0864.81
2015 04 09 09 45 54 .94      70     65    -12     96     97  46.9  -7.3  33556  279.42 0864.81
2015 04 09 09 45 55 .19      78     73    -12    107    108  46.9  -6.7  33554  279.38 0864.81
2015 04 09 09 45 55 .45      78     73    -12    107    108  46.9  -6.7  33554  279.38 0864.81
2015 04 09 09 45 55 .69      76     71     -4    105    106  46.8  -2.2  33550  279.33 0864.81
2015 04 09 09 45 55 .95      72     55    -23     91     95  52.7 -14.5  33556  279.42 0864.81
2015 04 09 09 45 56 .20      73     62    -23     96     99  49.6 -13.9  33558  279.47 0864.81
2015 04 09 09 45 56 .45      66     58    -24     88     92  48.7 -15.4  33558  279.47 0864.81
2015 04 09 09 45 56 .70      67     62    -27     92     97  46.9 -16.6  33556  279.42 0864.81
2015 04 09 09 45 56 .95      75     67    -21    101    104  48.2 -11.9  33556  279.43 0864.81
2015 04 09 09 45 57 .20      87     68    -20    111    113  52.2 -10.3  33554  279.38 0864.81
2015 04 09 09 45 57 .45      84     67    -32    108    113  51.4 -17.0  33552  279.37 0864.81
2015 04 09 09 45 57 .70      78     64    -12    102    103  50.5  -7.2  33550  279.33 0864.81
2015 04 09 09 45 57 .95      76     55    -12     95     96  54.0  -7.2  33554  279.38 0864.81
2015 04 09 09 45 58 .20      76     60     -6     98     99  51.8  -3.7  33554  279.38 0864.81
2015 04 09 09 45 58 .45      83     55     -1    100    101  56.3  -0.7  33556  279.42 0864.81
2015 04 09 09 45 58 .70      90     60     -6    109    110  56.3  -3.2  33554  279.38 0864.81
2015 04 09 09 45 58 .95      88     60     -5    107    108  55.4  -3.1  33554  279.38 0864.81
2015 04 09 09 45 59 .20     100     76    -12    126    127  52.7  -5.6  33554  279.40 0864.81
2015 04 09 09 45 59 .46     109     69    -14    130    131  57.5  -6.2  33586  279.92 0864.81
2015 04 09 09 45 59 .71     117     51     11    128    129  66.4   5.0  33636  280.75 0864.81
2015 04 09 09 45 59 .96     114     48      9    124    125  66.9   4.4  33630  280.67 0864.81
2015 04 09 09 46 00 .21     111     52     23    123    126  64.7  10.6  33642  280.85 0864.80
2015 04 09 09 46 00 .46      99     47     28    110    114  64.6  14.3  33636  280.77 0864.80
2015 04 09 09 46 00 .71      98     52     39    112    119  62.0  19.2  33656  281.10 0864.80
2015 04 09 09 46 00 .96     109     56     29    123    127  62.9  13.2  33638  280.80 0864.80
2015 04 09 09 46 01 .22     103     56      1    118    119  61.6   0.7  33564  279.55 0864.80
2015 04 09 09 46 01 .47     100     55     16    115    117  61.1   8.0  33576  279.77 0864.80
2015 04 09 09 46 01 .72     100     63     18    119    121  57.6   8.9  33568  279.63 0864.80
2015 04 09 09 46 01 .97     101     73     18    125    127  54.1   8.5  33556  279.42 0864.80
2015 04 09 09 46 02 .22     104     63     15    122    123  58.5   7.1  33550  279.33 0864.80
2015 04 09 09 46 02 .47     100     55     10    115    116  61.1   5.4  33550  279.33 0864.80
2015 04 09 09 46 02 .72      89     69     -1    113    114  52.2  -0.7  33552  279.37 0864.80
2015 04 09 09 46 02 .97      87     63     -4    108    109  54.0  -2.2  33550  279.33 0864.80
2015 04 09 09 46 03 .22      82     56     -6    100    101  55.8  -3.7  33550  279.33 0864.80
2015 04 09 09 46 03 .47      93     64    -13    113    114  55.4  -6.7  33554  279.38 0864.80
2015 04 09 09 46 03 .72      87     64     -7    109    110  53.6  -4.1  33554  279.40 0864.80
2015 04 09 09 46 03 .98      93     64     -4    113    114  55.4  -2.2  33558  279.47 0864.80
2015 04 09 09 46 04 .22      93     64     -4    113    114  55.4  -2.2  33558  279.47 0864.80
2015 04 09 09 46 04 .47      90     69     -6    114    115  52.7  -3.1  33556  279.43 0864.80
2015 04 09 09 46 04 .73      88     58    -21    106    109  56.7 -11.5  33556  279.43 0864.80
2015 04 09 09 46 04 .98      93     59     -8    111    112  57.6  -4.6  33558  279.47 0864.80
2015 04 09 09 46 05 .23      95     55     -6    111    112  59.8  -3.2  33558  279.45 0864.80
2015 04 09 09 46 05 .48      91     55    -12    107    108  58.5  -6.7  33560  279.50 0864.80
2015 04 09 09 46 05 .73      92     51     -9    106    107  60.7  -5.2  33558  279.47 0864.80
2015 04 09 09 46 05 .98      88     51     -6    102    103  59.8  -3.7  33558  279.45 0864.80
2015 04 09 09 46 06 .23      88     51     -6    102    103  59.8  -3.7  33558  279.45 0864.80
2015 04 09 09 46 06 .48      90     57     -4    107    108  57.6  -2.2  33556  279.42 0864.80
2015 04 09 09 46 06 .73      92     52     -4    106    107  60.2  -2.2  33560  279.50 0864.80
2015 04 09 09 46 06 .98      88     52     -2    103    104  59.3  -1.2  33562  279.52 0864.80
2015 04 09 09 46 07 .24      84     60      2    104    105  54.5   1.2  33566  279.58 0864.80
2015 04 09 09 46 07 .48      95     46     -1    106    107  64.2  -0.7  33574  279.72 0864.80
2015 04 09 09 46 07 .73     100     59     -6    117    118  59.3  -3.1  33566  279.58 0864.80
2015 04 09 09 46 07 .98      93     59     -3    111    112  57.5  -1.8  33558  279.45 0864.80
2015 04 09 09 46 08 .24      93     59     -8    111    112  57.6  -4.6  33562  279.52 0864.80
2015 04 09 09 46 08 .49      92     58    -17    110    112  57.6  -8.8  33556  279.43 0864.80
2015 04 09 09 46 08 .75      97     49    -19    109    111  62.9 -10.3  33558  279.47 0864.80
2015 04 09 09 46 09 .00     107     54    -31    121    125  63.0 -14.5  33568  279.62 0864.80
2015 04 09 09 46 09 .25     116     55     -5    129    130  64.6  -2.2  33582  279.87 0864.80
2015 04 09 09 46 09 .50     108     52     -4    120    121  64.2  -2.2  33584  279.90 0864.80
2015 04 09 09 46 09 .75     121     36      5    127    128  73.1   2.3  33590  279.98 0864.80
2015 04 09 09 46 10 .00     109     34     13    115    116  72.3   6.9  33586  279.93 0864.80
2015 04 09 09 46 10 .25     109     17     26    111    115  81.2  13.2  33578  279.78 0864.81
2015 04 09 09 46 10 .50     105     33     -5    111    112  72.7  -2.6  33584  279.88 0864.81
2015 04 09 09 46 10 .75     111     59     -4    126    127  62.0  -2.2  33588  279.97 0864.81
2015 04 09 09 46 11 .00     110     79     -3    136    137  54.0  -1.3  33586  279.93 0864.81
2015 04 09 09 46 11 .25     123     78     -3    147    148  57.5  -1.3  33570  279.67 0864.81
2015 04 09 09 46 11 .50     118     72      0    139    140  58.5  -0.3  33576  279.75 0864.81
2015 04 09 09 46 11 .76     108     64      6    126    127  59.4   2.8  33578  279.80 0864.81
2015 04 09 09 46 12 .00     118     56     15    131    132  64.7   6.9  33578  279.80 0864.81
2015 04 09 09 46 12 .25     113     23     18    116    118  78.5   8.9  33576  279.77 0864.81
2015 04 09 09 46 12 .51     117     21     14    119    120  79.4   6.9  33580  279.82 0864.81
2015 04 09 09 46 12 .76     108      6     -4    109    110  86.5  -2.2  33578  279.80 0864.81
2015 04 09 09 46 13 .01      94     21    -17     97     99  77.2 -10.3  33574  279.73 0864.81
2015 04 09 09 46 13 .26      86     32    -14     92     94  69.6  -8.8  33578  279.80 0864.81
2015 04 09 09 46 13 .51      77     42    -24     89     93  61.1 -15.4  33570  279.67 0864.81
2015 04 09 09 46 13 .76      95     47    -21    107    110  63.4 -11.3  33562  279.53 0864.81
2015 04 09 09 46 14 .01      98     54    -14    113    114  61.1  -7.3  33560  279.48 0864.81
2015 04 09 09 46 14 .26      98     46    -24    109    112  64.8 -12.4  33558  279.47 0864.81
2015 04 09 09 46 14 .51      97     53    -31    111    116  61.1 -15.5  33560  279.50 0864.81
2015 04 09 09 46 14 .76      94     46    -29    105    110  63.8 -15.5  33564  279.57 0864.81
2015 04 09 09 46 15 .02      89     56    -33    106    112  58.0 -17.6  33578  279.78 0864.81
2015 04 09 09 46 15 .27     108     63    -23    126    129  59.8 -10.3  33590  280.00 0864.81
2015 04 09 09 46 15 .52     116     58     -7    130    131  63.4  -3.2  33590  280.00 0864.81
2015 04 09 09 46 15 .78     130     61    -40    144    150  64.6 -15.5  33572  279.68 0864.81
2015 04 09 09 46 16 .03     122     84     -5    149    150  55.4  -2.2  33658  281.14 0864.81
2015 04 09 09 46 16 .27     110     76    -11    134    135  55.4  -5.1  33650  281.00 0864.81
2015 04 09 09 46 16 .52     113     62     -4    130    131  61.1  -1.8  33616  280.42 0864.81
2015 04 09 09 46 16 .78     108     64     -8    126    127  59.4  -3.7  33618  280.47 0864.81
2015 04 09 09 46 17 .03     107     60     -4    123    124  60.7  -2.2  33622  280.52 0864.81
2015 04 09 09 46 17 .28     119     47     15    129    130  68.3   6.9  33628  280.62 0864.81
2015 04 09 09 46 17 .53     113     30     15    117    118  75.0   7.5  33634  280.72 0864.80
2015 04 09 09 46 17 .78      91     16     -3     93     94  79.9  -2.2  33622  280.53 0864.80
2015 04 09 09 46 18 .02      77     61    -28     99    102  51.8 -20.2  33564  279.55 0864.80
2015 04 09 09 46 18 .28      86     40    -37     96    102  64.8 -26.4  33560  279.50 0864.80
2015 04 09 09 46 18 .53      81     50    -34     96    102  58.0 -19.7  33568  279.62 0864.80
2015 04 09 09 46 18 .78     103     47    -19    114    116  65.2  -9.8  33564  279.57 0864.80
2015 04 09 09 46 19 .03     103     34    -12    109    110  71.8  -6.7  33570  279.65 0864.80
2015 04 09 09 46 19 .28     103     34    -12    109    110  71.8  -6.7  33570  279.65 0864.80
2015 04 09 09 46 19 .53     108     28    -15    112    114  75.0  -7.7  33566  279.60 0864.80
2015 04 09 09 46 19 .78     101     25    -24    105    108  75.8 -12.9  33564  279.57 0864.80
2015 04 09 09 46 20 .03     100     24    -17    103    105  76.3  -9.3  33570  279.65 0864.80
2015 04 09 09 46 20 .28      97     22    -36    100    107  77.2 -19.7  33558  279.47 0864.80
2015 04 09 09 46 20 .53     101     29    -29    106    111  73.6 -15.5  33558  279.47 0864.80
2015 04 09 09 46 20 .78     108     35    -24    114    117  71.8 -11.9  33562  279.52 0864.80
2015 04 09 09 46 21 .03     103     35    -22    109    112  70.9 -11.5  33562  279.53 0864.80
2015 04 09 09 46 21 .28     107     28    -32    111    116  74.9 -16.0  33564  279.55 0864.80
2015 04 09 09 46 21 .54     122     32    -16    127    129  75.4  -7.2  33566  279.58 0864.80
2015 04 09 09 46 21 .79     104     32     -4    109    110  72.7  -2.2  33564  279.57 0864.80
2015 04 09 09 46 22 .04      92     32    -19     98    100  70.5 -11.3  33562  279.52 0864.80
2015 04 09 09 46 22 .30      85     31    -24     91     95  69.6 -15.0  33564  279.57 0864.80
2015 04 09 09 46 22 .55      90     40    -19     99    101  66.0 -11.3  33564  279.57 0864.80
2015 04 09 09 46 22 .80      87     37    -21     95     98  66.9 -12.4  33566  279.58 0864.80
2015 04 09 09 46 23 .05      92     35    -18     99    101  68.7 -10.3  33562  279.53 0864.80
2015 04 09 09 46 23 .30      95     40    -13    104    105  66.9  -7.3  33568  279.62 0864.80
2015 04 09 09 46 23 .55      98     45    -12    108    109  65.2  -6.7  33570  279.65 0864.80
2015 04 09 09 46 23 .80      93     48    -22    105    108  62.5 -11.9  33570  279.65 0864.80
2015 04 09 09 46 24 .06      91     49    -13    104    105  61.6  -7.2  33568  279.63 0864.80
2015 04 09 09 46 24 .30      83     34    -19     90     93  67.4 -12.4  33568  279.62 0864.80
2015 04 09 09 46 24 .55      75     40    -19     86     89  62.0 -12.9  33568  279.62 0864.80
2015 04 09 09 46 24 .80      79     34    -15     87     89  66.5 -10.3  33566  279.58 0864.80
2015 04 09 09 46 25 .05      83     44    -12     95     96  62.0  -7.3  33566  279.58 0864.80
2015 04 09 09 46 25 .31      84     53    -11    100    101  57.6  -6.7  33572  279.70 0864.80
2015 04 09 09 46 25 .56      91     57      1    108    109  58.0   0.8  33584  279.90 0864.80
2015 04 09 09 46 25 .80      91     55      9    107    108  58.5   4.9  33614  280.38 0864.81
2015 04 09 09 46 26 .06     104     49     -6    116    117  64.8  -3.1  33586  279.93 0864.81
2015 04 09 09 46 26 .31      90     47    -12    102    103  62.0  -7.2  33578  279.80 0864.81
2015 04 09 09 46 26 .56      84     43     -4     95     96  62.9  -2.6  33580  279.82 0864.81
2015 04 09 09 46 26 .81      89     34     -2     96     97  68.7  -1.3  33580  279.82 0864.81
2015 04 09 09 46 27 .06      87     32     18     93     95  69.6  11.1  33590  279.98 0864.81
2015 04 09 09 46 27 .31      93     44     27    103    107  64.6  14.7  33604  280.22 0864.81
2015 04 09 09 46 27 .56      77     35      4     85     86  65.6   3.3  33586  279.92 0864.81
2015 04 09 09 46 27 .81      69     48      5     85     86  55.4   3.8  33588  279.95 0864.81
2015 04 09 09 46 28 .06      82     60    -10    102    103  53.6  -5.6  33568  279.63 0864.81
2015 04 09 09 46 28 .31      81     52     -9     97     98  57.5  -5.6  33570  279.67 0864.81
2015 04 09 09 46 28 .56      82     60    -10    102    103  53.6  -5.6  33568  279.63 0864.81
2015 04 09 09 46 28 .81      76     60     -6     98     99  51.8  -3.7  33566  279.60 0864.81
2015 04 09 09 46 29 .07      87     55    -10    104    105  57.6  -5.6  33564  279.57 0864.81
2015 04 09 09 46 29 .32      80     51    -17     96     98  57.5 -10.3  33566  279.60 0864.80
2015 04 09 09 46 29 .57      80     51    -17     96     98  57.5 -10.3  33566  279.60 0864.80
2015 04 09 09 46 29 .83      91     47      1    103    104  62.5   0.8  33590  280.00 0864.80
2015 04 09 09 46 30 .07      93     44     -4    103    104  64.7  -2.2  33582  279.85 0864.80
2015 04 09 09 46 30 .33      85     49      4     99    100  60.2   2.3  33582  279.87 0864.80
2015 04 09 09 46 30 .58      88     52      5    103    104  59.3   2.9  33584  279.90 0864.80
2015 04 09 09 46 30 .82      76     51      5     92     93  55.8   3.3  33582  279.85 0864.80
2015 04 09 09 46 31 .07      84     53     -5    100    101  57.6  -3.1  33568  279.62 0864.80
2015 04 09 09 46 31 .32      80     52     -3     96     97  57.1  -2.2  33566  279.60 0864.80
2015 04 09 09 46 31 .59      68     48     -1     84     85  54.9  -0.7  33576  279.77 0864.80
2015 04 09 09 46 31 .83      65     69     14     95     97  43.2   8.5  33592  280.02 0864.80
2015 04 09 09 46 32 .08      69     73      9    101    102  43.2   5.4  33586  279.92 0864.80
2015 04 09 09 46 32 .33      70     70     11     99    100  45.0   6.9  33582  279.85 0864.80
2015 04 09 09 46 32 .58      70     70     11     99    100  45.0   6.9  33572  279.70 0864.80
2015 04 09 09 46 32 .84      63     53     24     83     87  50.0  16.3  33612  280.37 0864.80
2015 04 09 09 46 33 .08      68     55     40     88     96  50.9  26.2  33602  280.20 0864.80
2015 04 09 09 46 33 .33      82     56     22    100    103  55.8  12.6  33614  280.40 0864.80
2015 04 09 09 46 33 .59      83     56     43    101    109  55.8  24.6  33622  280.53 0864.80
2015 04 09 09 46 33 .83     110     57     -2    125    126  62.5  -1.2  33584  279.90 0864.80
2015 04 09 09 46 34 .08      93     59     -8    111    112  57.6  -4.6  33562  279.52 0864.80
2015 04 09 09 46 34 .34      84     60     -5    104    105  54.5  -3.1  33574  279.72 0864.80
2015 04 09 09 46 34 .58      93     59      3    111    112  57.6   1.8  33598  280.13 0864.80
2015 04 09 09 46 34 .83     114     63     -5    131    132  61.1  -2.2  33578  279.80 0864.80
2015 04 09 09 46 35 .09     118     74     -5    140    141  58.0  -2.2  33568  279.62 0864.80
2015 04 09 09 46 35 .34     118     62      1    134    135  62.0   0.7  33578  279.80 0864.80
2015 04 09 09 46 35 .59     105     62      1    123    124  59.3   0.7  33578  279.80 0864.80
2015 04 09 09 46 35 .84     100     63      4    119    120  57.6   2.3  33578  279.78 0864.80
2015 04 09 09 46 36 .10     106     58      9    122    123  61.1   4.4  33594  280.05 0864.80
2015 04 09 09 46 36 .35      98     55     20    113    115  60.7  10.1  33586  279.92 0864.80
2015 04 09 09 46 36 .61     109     64     21    127    129  59.4   9.5  33584  279.90 0864.80
2015 04 09 09 46 36 .85      87     86     15    123    124  45.6   7.1  33596  280.10 0864.80
2015 04 09 09 46 37 .10      89     81     10    121    122  47.8   4.9  33606  280.27 0864.80
2015 04 09 09 46 37 .35      74     75      8    106    107  44.5   4.4  33592  280.03 0864.80
2015 04 09 09 46 37 .60      81     80     -4    114    115  45.4  -2.2  33564  279.57 0864.80
2015 04 09 09 46 37 .85      76     77     -6    109    110  44.7  -3.2  33566  279.58 0864.80
2015 04 09 09 46 38 .10      71     70    -12    100    101  45.4  -7.3  33562  279.52 0864.80
2015 04 09 09 46 38 .35      70     65    -12     96     97  46.9  -7.3  33564  279.57 0864.80
2015 04 09 09 46 38 .60      71     69     -3    100    101  46.0  -2.2  33562  279.52 0864.80
2015 04 09 09 46 38 .85      74     64     -3     99    100  49.1  -1.8  33564  279.55 0864.80
2015 04 09 09 46 39 .11      82     60     -3    102    103  53.6  -1.8  33564  279.55 0864.80
2015 04 09 09 46 39 .36      83     54     -6    100    101  57.1  -3.7  33578  279.78 0864.80
2015 04 09 09 46 39 .61      78     56    -11     97     98  54.5  -6.7  33574  279.73 0864.80
2015 04 09 09 46 39 .86      86     48    -10     99    100  60.7  -6.2  33564  279.57 0864.80
2015 04 09 09 46 40 .11     110     71    -15    131    132  57.1  -6.7  33574  279.72 0864.80
2015 04 09 09 46 40 .36     113     72     -4    135    136  57.5  -1.8  33572  279.70 0864.80
2015 04 09 09 46 40 .61      92     51     -9    106    107  61.1  -5.2  33584  279.88 0864.80
2015 04 09 09 46 40 .86      85     75    -18    114    116  48.7  -9.3  33580  279.82 0864.80
2015 04 09 09 46 41 .11      89     64    -10    110    111  54.1  -5.2  33582  279.87 0864.80
2015 04 09 09 46 41 .36     103     59    -15    119    120  60.2  -7.2  33580  279.82 0864.80
2015 04 09 09 46 41 .61      89     81    -44    121    128  47.8 -25.3  33576  279.77 0864.80
2015 04 09 09 46 41 .86      72     80    -35    108    113  41.9 -23.8  33564  279.57 0864.80
2015 04 09 09 46 42 .12      71     72    -42    102    110  44.5 -28.0  33572  279.70 0864.80
2015 04 09 09 46 42 .36      65     77    -42    101    109  40.1 -27.5  33584  279.90 0864.79
2015 04 09 09 46 42 .61      75     92    -31    120    124  39.2 -14.5  33582  279.85 0864.79
2015 04 09 09 46 42 .86      86     80    -17    118    120  47.3  -8.2  33568  279.63 0864.79
2015 04 09 09 46 43 .13      80     44     -9     92     93  61.1  -5.6  33570  279.67 0864.79
2015 04 09 09 46 43 .38      72     54     -4     90     91  53.1  -2.6  33570  279.67 0864.79
2015 04 09 09 46 43 .63      77     49      2     92     93  57.6   1.8  33586  279.93 0864.79
2015 04 09 09 46 43 .88      74     27     27     80     85  69.6  18.9  33636  280.75 0864.79
2015 04 09 09 46 44 .13     102     12     35    103    109  83.0  18.9  33638  280.78 0864.79
2015 04 09 09 46 44 .38     104     25     16    108    110  76.3   8.5  33604  280.22 0864.79
2015 04 09 09 46 44 .63     105     41      5    113    114  68.7   2.9  33596  280.08 0864.79
2015 04 09 09 46 44 .88     103     56      9    118    119  61.6   4.4  33604  280.23 0864.79
2015 04 09 09 46 45 .13      94     68      4    117    118  54.1   2.3  33602  280.18 0864.80
2015 04 09 09 46 45 .38      75     49     12     90     91  56.7   8.0  33600  280.15 0864.80
2015 04 09 09 46 45 .63      74     48      4     89     90  57.1   2.9  33600  280.17 0864.80
2015 04 09 09 46 45 .88      97     56     13    113    114  59.8   6.9  33602  280.18 0864.80
2015 04 09 09 46 46 .13      93     64     -4    113    114  55.4  -2.2  33604  280.23 0864.80
2015 04 09 09 46 46 .38      94     68      4    117    118  54.1   2.3  33602  280.18 0864.80
2015 04 09 09 46 46 .63     108     55      5    122    123  63.0   2.3  33588  279.95 0864.80
2015 04 09 09 46 46 .89     109     48     -2    120    121  66.0  -1.2  33586  279.93 0864.80
2015 04 09 09 46 47 .14     105     40     22    113    116  69.2  11.1  33610  280.33 0864.80
2015 04 09 09 46 47 .39      97     44     33    107    113  65.6  17.3  33618  280.47 0864.80
2015 04 09 09 46 47 .64      79     36     33     88     93  65.2  20.4  33656  281.10 0864.80
2015 04 09 09 46 47 .89      62     37     25     73     78  59.3  19.4  33632  280.70 0864.80
2015 04 09 09 46 48 .14      60     19     22     64     68  71.8  18.9  33652  281.02 0864.80
2015 04 09 09 46 48 .39      65     21     20     69     72  71.4  16.3  33644  280.90 0864.80
2015 04 09 09 46 48 .64      75     28     15     81     83  69.2  10.6  33630  280.65 0864.80
2015 04 09 09 46 48 .89     103     34     21    109    112  71.4  11.0  33604  280.22 0864.80
2015 04 09 09 46 49 .14     105     33      6    111    112  72.3   3.3  33592  280.03 0864.80
2015 04 09 09 46 49 .39      92     35     26     99    103  69.2  15.2  33600  280.15 0864.80
2015 04 09 09 46 49 .64     101     34     37    107    114  71.4  19.4  33622  280.52 0864.80
2015 04 09 09 46 49 .90     113     40     32    120    125  70.5  15.3  33622  280.53 0864.80
2015 04 09 09 46 50 .15     113     54     24    126    129  64.6  11.0  33618  280.47 0864.80
2015 04 09 09 46 50 .41     104     48     31    115    120  65.2  15.2  33628  280.62 0864.79
2015 04 09 09 46 50 .65     109     40     42    117    124  69.6  20.0  33622  280.52 0864.79
2015 04 09 09 46 50 .90     106     34     39    112    119  71.8  19.2  33608  280.30 0864.79
2015 04 09 09 46 51 .15     114     28     41    118    126  75.8  19.4  33606  280.25 0864.79
2015 04 09 09 46 51 .40     103     43     42    112    119  66.9  21.0  33602  280.18 0864.79
2015 04 09 09 46 51 .65      99     30     38    104    110  73.2  21.0  33598  280.13 0864.79
2015 04 09 09 46 51 .91      84     36      7     92     93  66.9   4.9  33602  280.18 0864.79
2015 04 09 09 46 52 .15      76     51     20     92     95  55.8  12.6  33600  280.15 0864.79
2015 04 09 09 46 52 .41      80     44      4     92     93  61.1   2.9  33592  280.03 0864.80
2015 04 09 09 46 52 .66      92     25     33     96    102  74.5  18.9  33584  279.90 0864.80
2015 04 09 09 46 52 .91     100     16     17    102    104  80.8   9.5  33582  279.87 0864.80
2015 04 09 09 46 53 .16      84     26     19     88     91  72.7  12.6  33586  279.92 0864.79
2015 04 09 09 46 53 .41      80      6     40     81     90  85.7  27.8  33584  279.90 0864.79
2015 04 09 09 46 53 .66      78     -5     44     79     90  94.3  31.4  33582  279.85 0864.79
2015 04 09 09 46 53 .92      67      3     38     68     77  87.4  31.4  33586  279.92 0864.79
2015 04 09 09 46 54 .16      38     25     31     46     55  56.7  35.6  33590  280.00 0864.79
2015 04 09 09 46 54 .41      54     21     26     59     64  68.3  24.1  33582  279.85 0864.79
2015 04 09 09 46 54 .66      65     32     10     73     74  63.8   8.0  33582  279.87 0864.79
2015 04 09 09 46 54 .93      78     32     15     85     87  67.8  10.6  33588  279.95 0864.79
2015 04 09 09 46 55 .16      76     24     17     80     82  72.3  12.6  33584  279.90 0864.79
2015 04 09 09 46 55 .41      85     12     16     86     88  81.6  11.1  33578  279.80 0864.79
2015 04 09 09 46 55 .66      81      5     24     82     86  86.1  16.3  33576  279.77 0864.79
2015 04 09 09 46 55 .91      96     26     12    100    101  74.9   7.1  33576  279.77 0864.79
2015 04 09 09 46 56 .16      97     40     12    106    107  67.4   6.9  33578  279.78 0864.79
2015 04 09 09 46 56 .41      92     30     15     97     99  71.8   9.0  33572  279.70 0864.79
2015 04 09 09 46 56 .67      93     35      4    100    101  69.2   2.3  33572  279.68 0864.79
2015 04 09 09 46 56 .93      89     44      5    100    101  63.8   3.3  33578  279.80 0864.79
2015 04 09 09 46 57 .18     105     41     16    113    115  68.7   8.0  33572  279.70 0864.79
2015 04 09 09 46 57 .43     122     33     25    127    130  74.9  11.1  33586  279.92 0864.79
2015 04 09 09 46 57 .68     134     58     26    147    150  66.5  10.1  33622  280.52 0864.78
2015 04 09 09 46 57 .93     134     74     17    154    155  61.1   6.5  33584  279.88 0864.78
2015 04 09 09 46 58 .19     119     67     17    137    139  60.7   7.1  33596  280.08 0864.78
2015 04 09 09 46 58 .43     118     48     30    128    132  67.8  13.2  33610  280.32 0864.78
2015 04 09 09 46 58 .68     122     56     35    135    140  65.2  14.7  33604  280.22 0864.78
2015 04 09 09 46 58 .93     114     63     30    131    135  61.1  13.2  33608  280.28 0864.78
2015 04 09 09 46 59 .18     116     39     42    123    131  71.4  18.9  33596  280.10 0864.78
2015 04 09 09 46 59 .43     114     43     43    123    131  69.2  19.4  33598  280.13 0864.78
2015 04 09 09 46 59 .68     126     75     21    147    149  59.3   8.5  33586  279.93 0864.78
2015 04 09 09 46 59 .94     132     62      7    147    148  64.7   2.9  33582  279.87 0864.78
2015 04 09 09 47 00 .18     153     37     13    158    159  76.3   4.9  33588  279.95 0864.78
2015 04 09 09 47 00 .44     152     36     35    157    161  76.7  12.6  33584  279.88 0864.78
2015 04 09 09 47 00 .69     142     46     44    150    157  71.8  16.6  33582  279.85 0864.78
2015 04 09 09 47 00 .94     132     26      6    135    136  78.6   2.9  33580  279.83 0864.78
2015 04 09 09 47 01 .19     123     27     11    126    127  77.6   5.4  33586  279.93 0864.78
2015 04 09 09 47 01 .44     130     34     29    135    139  75.4  12.2  33602  280.20 0864.79
2015 04 09 09 47 01 .69     149     15     51    150    159  83.9  18.9  33596  280.10 0864.79
2015 04 09 09 47 01 .94     130     41     44    137    144  72.3  17.9  33600  280.17 0864.79
2015 04 09 09 47 02 .19      98     32     26    104    108  71.8  14.3  33590  280.00 0864.79
2015 04 09 09 47 02 .44      93     29     11     98     99  72.3   6.9  33588  279.95 0864.79
2015 04 09 09 47 02 .69      78     15    -17     80     82  78.5 -12.4  33574  279.72 0864.79
2015 04 09 09 47 02 .94      95     54     -2    110    111  60.2  -1.3  33570  279.67 0864.79
2015 04 09 09 47 03 .19     114     31     10    119    120  74.5   5.0  33568  279.63 0864.79
2015 04 09 09 47 03 .44     103     28      5    107    108  74.5   2.9  33570  279.65 0864.79
2015 04 09 09 47 03 .69      89     34      4     96     97  68.7   2.9  33566  279.60 0864.79
2015 04 09 09 47 03 .95      80     39    -22     90     93  63.8 -13.9  33568  279.63 0864.79
2015 04 09 09 47 04 .21      82     39      0     92     93  64.2  -0.3  33588  279.97 0864.79
2015 04 09 09 47 04 .46      75     24      6     79     80  72.3   4.9  33610  280.32 0864.79
2015 04 09 09 47 04 .71     102     43     21    111    114  66.9  11.0  33662  281.19 0864.79
2015 04 09 09 47 04 .96     114     63      8    131    132  61.1   3.8  33634  280.72 0864.79
2015 04 09 09 47 05 .21     138     59      7    151    152  66.9   2.8  33574  279.73 0864.79
2015 04 09 09 47 05 .46     128     56      8    140    141  66.4   3.3  33610  280.32 0864.79
2015 04 09 09 47 05 .71     103     34      0    109    110  71.8   0.2  33578  279.80 0864.79
2015 04 09 09 47 05 .96      70     21     17     74     77  73.2  13.2  33606  280.25 0864.79
2015 04 09 09 47 06 .21      72     36     31     81     86  63.4  21.5  33610  280.32 0864.79
2015 04 09 09 47 06 .46      62     49     40     80     89  51.4  28.2  33624  280.57 0864.79
2015 04 09 09 47 06 .71      67     73     44    100    109  42.8  25.7  33646  280.93 0864.79
2015 04 09 09 47 06 .96      80     85     29    117    121  43.3  14.3  33648  280.95 0864.79
2015 04 09 09 47 07 .21      85     64     20    107    109  52.7  11.0  33654  281.07 0864.79
2015 04 09 09 47 07 .47      73     60     17     95     97  50.4  10.1  33658  281.12 0864.79
2015 04 09 09 47 07 .72      54     57     26     79     84  43.2  18.4  33678  281.47 0864.79
2015 04 09 09 47 07 .96      51     61      6     80     81  39.7   4.9  33668  281.29 0864.79
2015 04 09 09 47 08 .21      42     65      6     78     79  33.4   4.9  33676  281.44 0864.79
2015 04 09 09 47 08 .47      33     69      2     77     78  25.5   1.8  33674  281.40 0864.79
2015 04 09 09 47 08 .71      25     61      3     67     68  22.7   2.9  33648  280.95 0864.79
2015 04 09 09 47 08 .96      43     43    -17     62     65  45.1 -15.5  33580  279.82 0864.79
2015 04 09 09 47 09 .21      45     49    -17     67     70  42.3 -14.5  33574  279.72 0864.79
2015 04 09 09 47 09 .46      47     51    -20     70     72  42.3 -20.7  33578  279.80 0864.79
2015 04 09 09 47 09 .71      42     46    -11     63     65  42.3 -10.3  33580  279.82 0864.79
2015 04 09 09 47 09 .96      33     40    -19     53     57  39.6 -19.7  33578  279.80 0864.79
2015 04 09 09 47 10 .22      31     38    -15     50     53  39.6 -16.6  33580  279.83 0864.79
2015 04 09 09 47 10 .47      29     41    -17     51     54  35.2 -18.7  33582  279.87 0864.79
2015 04 09 09 47 10 .72      25     33    -14     42     44  37.8 -23.6  33580  279.82 0864.79
2015 04 09 09 47 10 .98      25     40    -15     48     51  32.5 -17.6  33578  279.80 0864.79
2015 04 09 09 47 11 .23      24     44    -16     51     53  28.1 -23.8  33578  279.80 0864.79
2015 04 09 09 47 11 .48      16     42    -16     46     48  20.9 -23.3  33578  279.80 0864.79
2015 04 09 09 47 11 .73      24     44    -16     51     53  28.1 -23.8  33578  279.80 0864.79
2015 04 09 09 47 11 .98      22     42    -18     48     51  28.1 -25.4  33580  279.82 0864.79
2015 04 09 09 47 12 .23      18     45    -14     49     50  21.8 -20.7  33576  279.77 0864.79
2015 04 09 09 47 12 .50      24     36    -16     44     46  33.4 -24.4  33576  279.75 0864.79
2015 04 09 09 47 12 .73      16     32    -16     36     39  27.2 -29.5  33574  279.73 0864.79
2015 04 09 09 47 12 .98      20     32    -11     39     40  32.5 -20.7  33578  279.78 0864.79
2015 04 09 09 47 13 .23      14     30    -12     34     37  25.5 -19.7  33580  279.82 0864.79
2015 04 09 09 47 13 .48       9     29     -9     31     32  18.7 -21.7  33576  279.77 0864.79
2015 04 09 09 47 13 .73      16     26     -9     31     32  32.5 -21.7  33576  279.77 0864.79
2015 04 09 09 47 13 .98      13     28    -11     32     33  25.3 -23.6  33578  279.78 0864.79
2015 04 09 09 47 14 .23      13     28    -11     32     33  25.3 -23.6  33578  279.78 0864.79
2015 04 09 09 47 14 .48       9     29     -9     31     32  18.7 -21.7  33576  279.77 0864.79
2015 04 09 09 47 14 .74       8     32     -5     34     35  15.1  -9.3  33580  279.82 0864.79
2015 04 09 09 47 14 .99       9     29     -9     31     32  18.7 -21.7  33582  279.87 0864.79
2015 04 09 09 47 15 .24       0     25    -12     26     28   0.9 -29.5  33582  279.85 0864.79
2015 04 09 09 47 15 .49       2     35    -10     36     37   4.5 -21.7  33582  279.87 0864.79
2015 04 09 09 47 15 .74       3     35    -10     36     38   6.2 -15.5  33584  279.90 0864.79
2015 04 09 09 47 15 .99       6     27    -10     28     30  13.4 -19.7  33582  279.85 0864.79
2015 04 09 09 47 16 .24       0     25     -1     26     27 359.1  -2.2  33582  279.87 0864.79
2015 04 09 09 47 16 .49       9     28      0     30     31  18.7   0.8  33576  279.77 0864.79
2015 04 09 09 47 16 .74      13     28     -1     31     32  25.3  -2.2  33574  279.73 0864.79
2015 04 09 09 47 16 .99      14     29     -6     33     34  25.4 -11.3  33576  279.77 0864.80
2015 04 09 09 47 17 .24      11     29     -4     32     33  21.8  -7.3  33576  279.77 0864.80
2015 04 09 09 47 17 .49      14     29     -6     33     34  25.4 -11.3  33576  279.77 0864.80
2015 04 09 09 47 17 .75      11     25     -8     28     29  23.6 -23.8  33578  279.80 0864.80
2015 04 09 09 47 18 .00      11     25     -8     28     29  23.6 -23.8  33576  279.75 0864.80
2015 04 09 09 47 18 .25       5     29     -1     30     31   9.8  -3.1  33576  279.77 0864.80
2015 04 09 09 47 18 .50       6     32     -1     33     34  11.6  -2.2  33576  279.75 0864.80
2015 04 09 09 47 18 .75      11     25     -8     28     29  23.6 -23.8  33576  279.75 0864.80
2015 04 09 09 47 19 .00      14     29     -6     33     34  25.4 -11.3  33576  279.77 0864.80
2015 04 09 09 47 19 .26      13     28    -11     32     33  25.3 -23.6  33578  279.78 0864.80
2015 04 09 09 47 19 .51      11     35    -13     37     40  18.3 -19.7  33582  279.85 0864.80
2015 04 09 09 47 19 .76      24     37    -10     45     47  32.5 -13.4  33582  279.85 0864.80
2015 04 09 09 47 20 .01      33     31     -1     46     47  46.0  -2.2  33582  279.85 0864.80
2015 04 09 09 47 20 .26      23     28     10     37     39  39.7  15.3  33582  279.85 0864.80
2015 04 09 09 47 20 .51      20     32      6     38     39  32.6   9.0  33580  279.82 0864.79
2015 04 09 09 47 20 .76      21     25     13     33     35  39.7  21.0  33582  279.85 0864.79
2015 04 09 09 47 21 .01      29     27     19     40     44  46.7  26.2  33586  279.93 0864.79
2015 04 09 09 47 21 .26      22     27      8     36     37  39.7  13.2  33588  279.95 0864.79
2015 04 09 09 47 21 .51      32     20     11     38     40  57.5  17.3  33586  279.93 0864.79
2015 04 09 09 47 21 .76      24      8     11     26     28  71.8  21.0  33592  280.02 0864.79
2015 04 09 09 47 22 .01      22      6     22     23     31  73.2  50.0  33600  280.15 0864.79
2015 04 09 09 47 22 .26      41      4     20     42     46  83.9  27.2  33586  279.92 0864.80
2015 04 09 09 47 22 .52      47     12     21     49     53  74.9  24.1  33604  280.22 0864.80
2015 04 09 09 47 22 .76      51      2     24     52     57  87.4  27.1  33598  280.12 0864.80
2015 04 09 09 47 23 .01      57     16     20     60     64  74.1  18.4  33598  280.13 0864.80
2015 04 09 09 47 23 .27      60     19     22     64     68  71.8  19.2  33596  280.10 0864.80
2015 04 09 09 47 23 .52      68     32      6     76     77  64.7   4.9  33594  280.05 0864.80
2015 04 09 09 47 23 .77      50     32     18     60     63  57.5  17.3  33596  280.10 0864.80
2015 04 09 09 47 24 .02      63     34     24     72     76  61.1  18.4  33602  280.20 0864.80
2015 04 09 09 47 24 .27      67     29     20     74     77  66.5  15.3  33602  280.18 0864.79
2015 04 09 09 47 24 .52      65     28      3     71     72  66.5   2.9  33570  279.67 0864.79
2015 04 09 09 47 24 .78      68     40      0     80     81  59.3  -0.3  33568  279.62 0864.79
2015 04 09 09 47 25 .04      73     31     -8     80     81  66.5  -6.2  33574  279.72 0864.79
2015 04 09 09 47 25 .28      61     36     14     72     74  59.3  11.1  33602  280.18 0864.79
2015 04 09 09 47 25 .53      59     32     -1     68     69  61.2  -1.3  33572  279.68 0864.79
2015 04 09 09 47 25 .79      51     26    -16     58     61  62.9 -15.5  33578  279.80 0864.79
2015 04 09 09 47 26 .03      68     32      1     76     77  64.6   0.8  33584  279.88 0864.79
2015 04 09 09 47 26 .28      75     28    -12     81     82  69.6  -8.8  33580  279.82 0864.79
2015 04 09 09 47 26 .53      78     15    -12     80     81  78.5  -8.8  33578  279.78 0864.79
2015 04 09 09 47 26 .78      65     17    -21     68     71  74.9 -22.8  33572  279.70 0864.79
2015 04 09 09 47 27 .03      58     22    -20     63     66  69.2 -23.8  33566  279.60 0864.79
2015 04 09 09 47 27 .28      66      0    -14     67     69  90.8 -12.4  33564  279.55 0864.79
2015 04 09 09 47 27 .54      72      0     -9     73     74  90.0  -7.3  33566  279.60 0864.79
2015 04 09 09 47 27 .78      69      9      1     70     71  82.1   0.8  33568  279.62 0864.79
2015 04 09 09 47 28 .04      68      1      8     69     70  89.1   6.9  33568  279.63 0864.79
2015 04 09 09 47 28 .29      74      2      9     75     76  88.3   7.1  33572  279.70 0864.79
2015 04 09 09 47 28 .54      76     10     -9     77     78  82.1  -7.3  33590  279.98 0864.79
2015 04 09 09 47 28 .79      82      1    -13     83     85  89.2  -9.3  33582  279.87 0864.79
2015 04 09 09 47 29 .04      83     17    -14     85     87  78.1  -9.3  33592  280.03 0864.79
2015 04 09 09 47 29 .29      78     42    -31     89     95  61.6 -19.1  33584  279.90 0864.79
2015 04 09 09 47 29 .54      89     54    -28    105    109  58.5 -15.0  33588  279.95 0864.79
2015 04 09 09 47 29 .79      80     55    -33     98    103  55.4 -23.6  33582  279.85 0864.79
2015 04 09 09 47 30 .04      66     48    -33     82     88  54.0 -27.4  33582  279.85 0864.79
2015 04 09 09 47 30 .29      54     45    -25     71     75  50.4 -23.3  33584  279.90 0864.79
2015 04 09 09 47 30 .54      62     20    -29     66     72  71.8 -29.5  33574  279.73 0864.80
2015 04 09 09 47 30 .79      54     13    -25     56     61  75.8 -29.5  33578  279.80 0864.80
2015 04 09 09 47 31 .04      52     -4    -20     53     56  94.4 -24.4  33568  279.63 0864.80
2015 04 09 09 47 31 .30      44      0    -27     45     52  90.8 -38.8  33586  279.93 0864.80
2015 04 09 09 47 31 .54      45      4    -27     46     53  83.9 -37.9  33576  279.77 0864.80
2015 04 09 09 47 31 .81      55     12    -24     57     61  77.6 -27.5  33576  279.75 0864.80
2015 04 09 09 47 32 .06      63     26    -29     69     74  67.4 -28.5  33594  280.05 0864.80
2015 04 09 09 47 32 .31      89      9    -17     90     92  83.9 -10.9  33590  280.00 0864.80
2015 04 09 09 47 32 .56      97     40     13    106    107  67.4   7.1  33632  280.68 0864.80
2015 04 09 09 47 32 .81      88     29     14     93     95  71.8   8.5  33632  280.68 0864.80
2015 04 09 09 47 33 .06      75     45     14     88     90  59.3   9.5  33636  280.75 0864.80
2015 04 09 09 47 33 .31      53     49     25     73     78  46.9  19.4  33636  280.75 0864.80
2015 04 09 09 47 33 .56      80     24     15     84     86  72.7  10.1  33638  280.78 0864.80
2015 04 09 09 47 33 .81      77     24     15     81     83  72.7  11.1  33636  280.77 0864.80
2015 04 09 09 47 34 .06      61     27     23     67     72  65.6  19.4  33634  280.72 0864.80
2015 04 09 09 47 34 .31      61     28      8     68     69  65.6   6.9  33622  280.52 0864.80
2015 04 09 09 47 34 .57      51     24     11     57     59  64.6  11.0  33632  280.70 0864.80
2015 04 09 09 47 34 .81      52     25     17     58     61  63.8  16.3  33636  280.77 0864.80
2015 04 09 09 47 35 .06      58     21     30     62     68  70.0  27.2  33640  280.82 0864.80
2015 04 09 09 47 35 .31      76     24     33     80     86  71.8  23.0  33638  280.78 0864.80
2015 04 09 09 47 35 .56      78     36     18     87     90  65.2  12.2  33604  280.23 0864.80
2015 04 09 09 47 35 .82      69     35     25     78     83  62.9  17.9  33618  280.45 0864.80
2015 04 09 09 47 36 .07      66     18     44     69     81  74.9  35.5  33630  280.67 0864.80
2015 04 09 09 47 36 .31      91     12     31     92     98  82.1  18.9  33610  280.33 0864.80
2015 04 09 09 47 36 .57      94     26     21     98    101  74.1  12.2  33590  280.00 0864.80
2015 04 09 09 47 36 .82      97     32     12    103    104  71.4   6.9  33580  279.82 0864.79
2015 04 09 09 47 37 .07      83     36     31     91     97  66.5  19.2  33588  279.95 0864.79
2015 04 09 09 47 37 .32     109     38     36    116    122  70.5  17.3  33630  280.67 0864.79
2015 04 09 09 47 37 .57     101     33     21    107    110  71.8  11.1  33616  280.42 0864.79
2015 04 09 09 47 37 .82      94     52     40    108    115  60.7  20.4  33636  280.77 0864.79
2015 04 09 09 47 38 .07      81     44     33     93     98  61.1  20.0  33614  280.38 0864.79
2015 04 09 09 47 38 .32      90     45      6    101    102  63.4   3.8  33606  280.25 0864.79
2015 04 09 09 47 38 .58      90     37     -1     98     99  67.8  -0.7  33572  279.68 0864.79
2015 04 09 09 47 38 .83      94     35      4    101    102  69.2   2.3  33582  279.87 0864.79
2015 04 09 09 47 39 .08      90     37     -1     98     99  67.8  -0.7  33572  279.68 0864.79
2015 04 09 09 47 39 .33      93     35      4    100    101  69.2   2.3  33574  279.72 0864.79
2015 04 09 09 47 39 .58      93     35      4    100    101  69.2   2.3  33574  279.72 0864.79
2015 04 09 09 47 39 .83      78     45      4     91     92  60.2   2.8  33564  279.57 0864.79
2015 04 09 09 47 40 .08      75     45      5     88     89  58.9   3.8  33566  279.60 0864.79
2015 04 09 09 47 40 .34      70     49      0     86     87  54.5   0.2  33568  279.62 0864.79
2015 04 09 09 47 40 .58      58     41     -9     72     73  54.9  -7.3  33568  279.62 0864.79
2015 04 09 09 47 40 .84      64     35     -2     74     75  61.1  -2.2  33568  279.63 0864.79
2015 04 09 09 47 41 .09      69     47    -21     84     87  55.8 -14.5  33570  279.65 0864.79
2015 04 09 09 47 41 .34      72     38    -23     82     86  61.6 -16.0  33564  279.57 0864.79
2015 04 09 09 47 41 .59      64     46    -19     80     83  54.0 -13.4  33568  279.62 0864.79
2015 04 09 09 47 41 .84      65     41    -16     78     80  57.5 -11.9  33566  279.60 0864.79
2015 04 09 09 47 42 .09      72     46    -16     86     88  57.1 -10.9  33562  279.53 0864.79
2015 04 09 09 47 42 .34      79     34    -15     87     89  66.5 -10.3  33566  279.58 0864.79
2015 04 09 09 47 42 .59      88     35    -22     95     98  68.3 -13.4  33566  279.58 0864.79
2015 04 09 09 47 42 .84      92     26    -19     96     98  74.1 -11.3  33564  279.57 0864.79
2015 04 09 09 47 43 .09      81     13    -16     83     85  80.8 -11.3  33566  279.60 0864.79
2015 04 09 09 47 43 .34      83     17     -6     85     86  78.1  -4.1  33572  279.70 0864.80
2015 04 09 09 47 43 .59      83     21      2     86     87  75.4   1.8  33570  279.65 0864.80
2015 04 09 09 47 43 .84      96     17     13     98     99  79.9   8.0  33570  279.67 0864.80
2015 04 09 09 47 44 .09      89     26     11     93     94  73.6   6.9  33572  279.70 0864.80
2015 04 09 09 47 44 .34      89     21      5     92     93  76.7   3.3  33570  279.65 0864.80
2015 04 09 09 47 44 .60      89     21     -2     92     93  76.7  -1.3  33574  279.73 0864.80
2015 04 09 09 47 44 .85      88     13     -2     90     91  81.2  -1.3  33570  279.67 0864.80
2015 04 09 09 47 45 .10     103     13      5    104    105  82.5   2.9  33578  279.80 0864.80
2015 04 09 09 47 45 .35     100     25      3    104    105  75.8   1.8  33582  279.87 0864.80
2015 04 09 09 47 45 .61     110     29      6    114    115  74.9   3.3  33580  279.82 0864.80
2015 04 09 09 47 45 .86     103     26     21    107    110  75.4  11.1  33590  279.98 0864.80
2015 04 09 09 47 46 .11      94     26     21     98    101  74.1  12.2  33590  280.00 0864.80
2015 04 09 09 47 46 .36      91     14     25     93     97  81.2  15.3  33596  280.10 0864.80
2015 04 09 09 47 46 .61      99     25     25    103    106  75.8  13.7  33582  279.85 0864.80
2015 04 09 09 47 46 .86      95     20     31     98    103  78.1  17.9  33568  279.63 0864.80
2015 04 09 09 47 47 .11     102     20     20    105    108  78.5  11.1  33578  279.80 0864.80
2015 04 09 09 47 47 .36      97     28      2    102    103  73.6   1.2  33578  279.80 0864.80
2015 04 09 09 47 47 .61     104     25     16    108    110  76.3   8.5  33582  279.85 0864.80
2015 04 09 09 47 47 .86     116     28     -2    120    121  76.3  -1.2  33568  279.62 0864.79
2015 04 09 09 47 48 .11     105      8     -4    106    107  85.6  -2.2  33568  279.62 0864.79
2015 04 09 09 47 48 .36      98     12     -4     99    100  83.0  -2.6  33570  279.67 0864.79
2015 04 09 09 47 48 .61      87      8     -3     88     89  84.3  -2.2  33572  279.70 0864.79
2015 04 09 09 47 48 .86      89      9     -8     90     91  83.9  -5.6  33568  279.62 0864.79
2015 04 09 09 47 49 .11      75     12     -4     77     78  80.3  -3.2  33566  279.60 0864.79
2015 04 09 09 47 49 .36      77     15     -3     79     80  78.5  -2.2  33564  279.57 0864.79
2015 04 09 09 47 49 .61      82     13     -9     84     85  80.8  -6.2  33562  279.52 0864.79
2015 04 09 09 47 49 .86      82     13     -9     84     85  80.8  -6.2  33562  279.52 0864.79
2015 04 09 09 47 50 .12      83     17     -6     85     86  78.1  -4.1  33564  279.55 0864.79
2015 04 09 09 47 50 .37      82     13     -9     84     85  80.8  -6.2  33562  279.52 0864.79
2015 04 09 09 47 50 .62      79      8    -10     80     81  83.9  -7.3  33562  279.53 0864.79
2015 04 09 09 47 50 .87      86      8     -9     87     88  84.3  -6.2  33564  279.55 0864.79
2015 04 09 09 47 51 .12      72     24     -3     76     77  71.6  -2.2  33566  279.60 0864.79
2015 04 09 09 47 51 .37      72     34      2     80     81  64.6   1.8  33568  279.63 0864.79
2015 04 09 09 47 51 .62      75     28     15     81     83  69.6  10.6  33580  279.83 0864.79
2015 04 09 09 47 51 .87      74     15     15     76     78  78.6  11.1  33584  279.88 0864.79
2015 04 09 09 47 52 .12      78     17      2     80     81  77.2   1.8  33576  279.75 0864.79
2015 04 09 09 47 52 .37      75     28     -5     81     82  69.6  -4.1  33566  279.60 0864.79
2015 04 09 09 47 52 .63      75     20      0     78     79  74.9   0.2  33564  279.57 0864.79
2015 04 09 09 47 52 .88      72     31    -15     79     81  66.5 -11.3  33562  279.53 0864.79
2015 04 09 09 47 53 .13      69     34    -11     78     79  63.8  -8.2  33566  279.58 0864.79
2015 04 09 09 47 53 .38      69     34    -11     78     79  63.8  -8.2  33566  279.58 0864.79
2015 04 09 09 47 53 .64      77     31    -19     84     87  67.8 -12.9  33564  279.57 0864.79
2015 04 09 09 47 53 .89      83     21     -3     86     87  75.4  -2.6  33570  279.67 0864.79
2015 04 09 09 47 54 .14      95     22    -10     98     99  76.7  -6.2  33590  279.98 0864.79
2015 04 09 09 47 54 .41      78     17      2     80     81  77.2   1.8  33584  279.90 0864.79
2015 04 09 09 47 54 .64      83     25      0     87     88  73.2  -0.3  33604  280.23 0864.79
2015 04 09 09 47 54 .89      85     28      8     90     91  71.6   5.4  33632  280.70 0864.79
2015 04 09 09 47 55 .14      78     27     19     83     86  70.5  13.2  33632  280.70 0864.79
2015 04 09 09 47 55 .39      89     20     14     92     94  77.2   9.0  33630  280.65 0864.79
2015 04 09 09 47 55 .64      88     25      4     92     93  74.1   2.8  33622  280.53 0864.79
2015 04 09 09 47 55 .90     102     16     -9    104    105  80.8  -5.2  33614  280.38 0864.80
2015 04 09 09 47 56 .15      92     18     18     94     96  78.5  11.0  33660  281.15 0864.80
2015 04 09 09 47 56 .39      78      8      1     79     80  83.9   1.2  33598  280.12 0864.80
2015 04 09 09 47 56 .64      89      4     15     90     92  87.0   9.5  33648  280.95 0864.80
2015 04 09 09 47 56 .89      83     17     -6     85     86  78.1  -4.1  33572  279.70 0864.80
2015 04 09 09 47 57 .14      93     29      4     98     99  72.3   2.8  33582  279.87 0864.80
2015 04 09 09 47 57 .40      94     30     11     99    100  71.8   6.5  33582  279.85 0864.80
2015 04 09 09 47 57 .65      88     21     22     91     94  76.3  13.7  33604  280.22 0864.80
2015 04 09 09 47 57 .89     102     21     20    105    108  78.1  11.1  33628  280.62 0864.80
2015 04 09 09 47 58 .14     100     33     19    106    108  71.4  10.6  33608  280.28 0864.80
2015 04 09 09 47 58 .39      96     28      9    101    102  73.6   5.4  33610  280.32 0864.80
2015 04 09 09 47 58 .65      85     23      1     89     90  74.9   1.2  33606  280.25 0864.80
2015 04 09 09 47 58 .90      80     27     -8     85     86  71.4  -5.6  33574  279.72 0864.80
2015 04 09 09 47 59 .15      77     25     -3     82     83  71.8  -2.6  33576  279.77 0864.80
2015 04 09 09 47 59 .40      83     27     -1     88     89  71.8  -1.3  33576  279.77 0864.80
2015 04 09 09 47 59 .66      83     27     -4     88     89  71.8  -3.1  33572  279.70 0864.80
2015 04 09 09 47 59 .91      77     24     -3     81     82  72.3  -2.2  33568  279.62 0864.80
2015 04 09 09 48 00 .17      68     32     -6     76     77  64.7  -5.2  33594  280.05 0864.80
2015 04 09 09 48 00 .41      72     27     16     78     80  69.2  12.2  33628  280.62 0864.80
2015 04 09 09 48 00 .67      73     24     26     77     82  71.8  19.2  33624  280.57 0864.80
2015 04 09 09 48 00 .92      49     30     36     58     68  58.5  35.5  33662  281.19 0864.80
2015 04 09 09 48 01 .16      56     38     27     68     73  55.8  23.0  33634  280.72 0864.80
2015 04 09 09 48 01 .41      62     34    -13     71     73  61.1 -10.3  33574  279.72 0864.79
2015 04 09 09 48 01 .66      57     36     -9     68     69  57.6  -8.2  33568  279.63 0864.79
2015 04 09 09 48 01 .92      61     28    -12     68     70  64.8 -10.3  33568  279.62 0864.79
2015 04 09 09 48 02 .16      60     35    -14     70     72  59.3 -11.3  33570  279.67 0864.80
2015 04 09 09 48 02 .42      63     40    -25     75     80  57.6 -18.7  33570  279.65 0864.80
2015 04 09 09 48 02 .67      61     40    -24     74     77  56.7 -23.8  33572  279.70 0864.80
2015 04 09 09 48 02 .92      75     34    -20     83     86  65.2 -13.9  33588  279.95 0864.80
2015 04 09 09 48 03 .17      72     34    -10     80     81  64.6  -7.7  33584  279.90 0864.80
2015 04 09 09 48 03 .42      81     28     -9     86     87  70.5  -6.2  33582  279.87 0864.80
2015 04 09 09 48 03 .67      71     40     -5     82     83  60.7  -4.1  33582  279.87 0864.80
2015 04 09 09 48 03 .92      90     47     -4    102    103  62.0  -2.2  33576  279.77 0864.80
2015 04 09 09 48 04 .17      87     55      5    104    105  57.6   2.8  33578  279.78 0864.80
2015 04 09 09 48 04 .42      93     51     10    107    108  61.1   5.4  33578  279.80 0864.80
2015 04 09 09 48 04 .67      81     44     11     93     94  61.1   6.9  33578  279.80 0864.80
2015 04 09 09 48 04 .92      95     40     20    104    107  66.9  11.1  33584  279.90 0864.80
2015 04 09 09 48 05 .17     103     34     13    109    110  71.8   6.9  33574  279.73 0864.80
2015 04 09 09 48 05 .42      96     40     20    105    108  67.4  11.1  33572  279.70 0864.80
2015 04 09 09 48 05 .67      84     43      7     95     96  62.9   4.4  33570  279.67 0864.80
2015 04 09 09 48 05 .92      84     43      7     95     96  62.9   4.4  33570  279.67 0864.80
2015 04 09 09 48 06 .17      87     36      4     95     96  67.4   2.9  33574  279.73 0864.80
2015 04 09 09 48 06 .43      92     43      5    102    103  64.7   2.8  33572  279.68 0864.80
2015 04 09 09 48 06 .68      95     40      5    104    105  66.9   2.8  33572  279.70 0864.80
2015 04 09 09 48 06 .93      89     43      5     99    100  64.2   2.9  33570  279.65 0864.79
2015 04 09 09 48 07 .18      89     43      5     99    100  64.2   2.9  33570  279.65 0864.79
2015 04 09 09 48 07 .44      89     43      5     99    100  64.2   2.9  33570  279.65 0864.79
2015 04 09 09 48 07 .68      92     41      0    101    102  66.0   0.2  33570  279.65 0864.79
2015 04 09 09 48 07 .94      90     37     -1     98     99  67.8  -0.7  33572  279.68 0864.79
2015 04 09 09 48 08 .19      94     36     -3    101    102  68.7  -2.2  33570  279.65 0864.79
2015 04 09 09 48 08 .44      97     36    -13    104    105  69.6  -7.2  33566  279.60 0864.79
2015 04 09 09 48 08 .70     104     30    -14    109    110  73.6  -7.3  33584  279.88 0864.79
2015 04 09 09 48 08 .94     114     25     -4    117    118  77.6  -2.2  33664  281.24 0864.79
2015 04 09 09 48 09 .19     100     33      5    106    107  71.4   2.8  33660  281.15 0864.79
2015 04 09 09 48 09 .44      98     20      0    101    102  78.1   0.2  33652  281.04 0864.79
2015 04 09 09 48 09 .69      92     25      3     96     97  74.9   1.8  33622  280.52 0864.79
2015 04 09 09 48 09 .95      83     40     -1     93     94  64.2  -0.7  33620  280.48 0864.79
2015 04 09 09 48 10 .19      90     35     -5     97     98  68.3  -3.2  33576  279.75 0864.79
2015 04 09 09 48 10 .45      95     31    -20    100    103  71.8 -11.5  33614  280.40 0864.79
2015 04 09 09 48 10 .69      85     40     -9     95     96  64.8  -5.6  33610  280.33 0864.79
2015 04 09 09 48 10 .94      81     48     -6     95     96  59.3  -4.1  33576  279.75 0864.79
2015 04 09 09 48 11 .19      82     49     -6     96     97  58.9  -4.1  33570  279.65 0864.79
2015 04 09 09 48 11 .44      74     44    -13     87     89  58.9  -8.8  33570  279.67 0864.79
2015 04 09 09 48 11 .70      89     34     -5     96     97  68.7  -3.1  33576  279.75 0864.79
2015 04 09 09 48 11 .95      90     29    -12     95     96  71.8  -7.3  33576  279.77 0864.79
2015 04 09 09 48 12 .20      83     27     -4     88     89  71.8  -3.1  33590  280.00 0864.79
2015 04 09 09 48 12 .45      85     28      1     90     91  71.6   1.2  33584  279.90 0864.78
2015 04 09 09 48 12 .70      90     37      5     98     99  67.8   2.9  33576  279.75 0864.78
2015 04 09 09 48 12 .95      92     25      5     96     97  74.5   3.3  33580  279.82 0864.78
2015 04 09 09 48 13 .20      92     25      7     96     97  74.5   4.4  33574  279.72 0864.78
2015 04 09 09 48 13 .47      84     21     -3     87     88  75.4  -2.2  33574  279.72 0864.78
2015 04 09 09 48 13 .71      92      2      1     93     94  88.7   1.2  33582  279.85 0864.78
2015 04 09 09 48 13 .96      85      5      1     86     87  86.5   0.8  33574  279.73 0864.78
2015 04 09 09 48 14 .21      90     14    -12     92     93  81.2  -7.7  33570  279.67 0864.78
2015 04 09 09 48 14 .46      85     14    -11     87     88  80.3  -7.3  33572  279.70 0864.78
2015 04 09 09 48 14 .71      85      8    -12     86     87  84.3  -8.2  33564  279.57 0864.78
2015 04 09 09 48 14 .96      78     17    -19     80     83  77.2 -13.4  33564  279.57 0864.78
2015 04 09 09 48 15 .22      69     22    -17     73     76  72.3 -13.4  33570  279.67 0864.78
2015 04 09 09 48 15 .47      78     17      2     80     81  77.2   1.8  33584  279.90 0864.78
2015 04 09 09 48 15 .72      79     20      4     82     83  75.4   3.3  33592  280.03 0864.78
2015 04 09 09 48 15 .97      70     23      6     74     75  71.8   4.9  33588  279.95 0864.78
2015 04 09 09 48 16 .22      71     16     20     73     76  76.7  15.3  33586  279.92 0864.78
2015 04 09 09 48 16 .47      78      5     18     79     82  86.1  13.2  33592  280.03 0864.78
2015 04 09 09 48 16 .72      82     17     15     84     86  78.1  10.1  33594  280.07 0864.78
2015 04 09 09 48 16 .97      91     17     15     93     95  79.4   9.5  33582  279.85 0864.78
2015 04 09 09 48 17 .22     104     13     -2    105    106  82.5  -1.2  33590  279.98 0864.78
2015 04 09 09 48 17 .47      98     22     -3    101    102  77.2  -2.2  33580  279.83 0864.78
2015 04 09 09 48 17 .72      83     19      0     86     87  77.2   0.2  33576  279.77 0864.78
2015 04 09 09 48 17 .98      94     33      2    100    101  70.5   1.2  33620  280.50 0864.78
2015 04 09 09 48 18 .22      73     31     27     80     85  66.9  18.9  33652  281.02 0864.78
2015 04 09 09 48 18 .48      77     24     24     81     85  72.7  16.8  33654  281.05 0864.78
2015 04 09 09 48 18 .72      77     30     35     83     90  68.7  24.6  33676  281.44 0864.78
2015 04 09 09 48 18 .97      70     24     35     75     82  70.9  26.6  33664  281.24 0864.78
2015 04 09 09 48 19 .22      71     22     37     75     83  72.3  28.2  33654  281.05 0864.78
2015 04 09 09 48 19 .48      73     17     46     76     88  76.7  34.4  33672  281.37 0864.78
2015 04 09 09 48 19 .72      82      1     35     83     90  88.7  24.6  33634  280.72 0864.78
2015 04 09 09 48 19 .97      74      1     11     75     76  89.2   9.0  33590  280.00 0864.78
2015 04 09 09 48 20 .22      64      0      3     65     66  89.2   2.8  33572  279.70 0864.78
2015 04 09 09 48 20 .49      64      0      3     65     66  89.2   2.8  33572  279.70 0864.78
2015 04 09 09 48 20 .73      75      5      6     76     77  85.7   4.9  33566  279.58 0864.78
2015 04 09 09 48 20 .99      84      5      8     85     86  86.5   5.9  33576  279.77 0864.78
2015 04 09 09 48 21 .24      87      6      4     88     89  85.6   2.9  33568  279.62 0864.78
2015 04 09 09 48 21 .49      76      6      9     77     78  84.8   6.9  33570  279.67 0864.78
2015 04 09 09 48 21 .74      62      9      8     63     64  81.2   8.0  33576  279.77 0864.78
2015 04 09 09 48 21 .99      80     21     12     83     84  74.9   8.5  33576  279.75 0864.78
2015 04 09 09 48 22 .25      83     28      3     88     89  70.9   2.3  33588  279.95 0864.78
2015 04 09 09 48 22 .49      87     29     37     92     99  71.6  23.0  33632  280.70 0864.79
2015 04 09 09 48 22 .74      76     40      8     87     88  62.0   5.4  33586  279.92 0864.79
2015 04 09 09 48 22 .99      69     22      0     73     74  71.8  -0.3  33568  279.62 0864.79
2015 04 09 09 48 23 .24      71     23     -9     75     76  71.4  -7.3  33566  279.60 0864.79
2015 04 09 09 48 23 .49      74     28    -14     80     82  69.2 -10.3  33562  279.52 0864.79
2015 04 09 09 48 23 .74      77     25    -20     82     85  71.8 -13.9  33562  279.52 0864.79
2015 04 09 09 48 23 .99      76     25    -25     81     86  71.8 -17.6  33562  279.53 0864.79
2015 04 09 09 48 24 .24      83     21    -19     86     89  75.4 -12.4  33562  279.52 0864.79
2015 04 09 09 48 24 .49      87     26    -17     91     93  73.2 -10.9  33564  279.55 0864.79
2015 04 09 09 48 24 .74      87     26    -17     91     93  73.2 -10.9  33564  279.55 0864.79
2015 04 09 09 48 25 .00      81     26    -13     86     88  72.3  -8.8  33564  279.57 0864.79
2015 04 09 09 48 25 .24      78     21    -15     81     83  74.5 -10.9  33562  279.53 0864.79
2015 04 09 09 48 25 .50      78     17    -19     80     83  77.2 -13.4  33564  279.57 0864.79
2015 04 09 09 48 25 .75      72     13     -9     74     75  79.4  -7.3  33566  279.60 0864.79
2015 04 09 09 48 26 .00      73     17    -16     75     77  76.7 -12.4  33562  279.53 0864.79
2015 04 09 09 48 26 .26      80     21    -14     83     85  74.9  -9.8  33572  279.70 0864.79
2015 04 09 09 48 26 .50      87     17    -17     89     91  78.5 -10.9  33578  279.80 0864.79
2015 04 09 09 48 26 .76      80     21     -9     83     84  74.9  -6.2  33570  279.67 0864.79
2015 04 09 09 48 27 .00      73     24     -9     77     78  71.6  -7.2  33570  279.67 0864.79
2015 04 09 09 48 27 .25      72     24     -3     76     77  71.6  -2.2  33566  279.60 0864.79
2015 04 09 09 48 27 .51      75     21      6     78     79  74.1   4.9  33568  279.63 0864.79
2015 04 09 09 48 27 .76      70     22      2     74     75  72.3   1.8  33568  279.63 0864.79
2015 04 09 09 48 28 .01      70     22      2     74     75  72.3   1.8  33568  279.63 0864.79
2015 04 09 09 48 28 .26      71     20      3     74     75  74.1   2.8  33566  279.58 0864.79
2015 04 09 09 48 28 .51      73     17     -2     75     76  76.7  -2.2  33572  279.68 0864.79
2015 04 09 09 48 28 .77      73     17      3     75     76  76.7   2.9  33576  279.77 0864.79
2015 04 09 09 48 29 .02      88      9      4     89     90  83.9   2.8  33576  279.77 0864.79
2015 04 09 09 48 29 .27      85     13      1     87     88  81.2   0.8  33578  279.80 0864.79
2015 04 09 09 48 29 .52      73      3     19     74     77  87.4  14.3  33580  279.83 0864.79
2015 04 09 09 48 29 .77      82      8     14     83     85  83.9   9.5  33576  279.77 0864.79
2015 04 09 09 48 30 .02      81     13     12     83     84  80.3   8.5  33582  279.85 0864.79
2015 04 09 09 48 30 .27      81      9     13     82     84  83.0   9.0  33590  279.98 0864.79
2015 04 09 09 48 30 .52      84      5     -3     85     86  86.1  -2.6  33580  279.82 0864.79
2015 04 09 09 48 30 .77      91      2      0     92     93  88.3   0.2  33584  279.90 0864.79
2015 04 09 09 48 31 .02      94      8     14     95     97  84.8   8.5  33586  279.92 0864.79
2015 04 09 09 48 31 .27      96      2     13     97     98  88.3   8.0  33586  279.92 0864.79
2015 04 09 09 48 31 .52      89      0      6     90     91  90.0   3.8  33588  279.95 0864.79
2015 04 09 09 48 31 .78      75     12     -5     77     78  80.3  -4.1  33584  279.90 0864.79
2015 04 09 09 48 32 .02      71      5    -11     72     73  85.6  -9.3  33588  279.95 0864.79
2015 04 09 09 48 32 .27      74     -4    -32     75     81  93.5 -28.5  33580  279.83 0864.79
2015 04 09 09 48 32 .52      85    -13    -29     86     90  98.8 -23.6  33578  279.80 0864.79
2015 04 09 09 48 32 .77      70     -5    -36     71     79  94.3 -33.1  33574  279.72 0864.79
2015 04 09 09 48 33 .02      76    -24    -35     80     87 107.7 -29.0  33570  279.67 0864.79
2015 04 09 09 48 33 .27      69    -19    -29     72     77 105.9 -27.4  33570  279.65 0864.80
2015 04 09 09 48 33 .53      69    -19    -29     72     77 105.9 -27.4  33570  279.65 0864.80
2015 04 09 09 48 33 .78      68     -4    -20     69     73  93.5 -16.6  33570  279.65 0864.80
2015 04 09 09 48 34 .02      76      0    -21     77     80  90.0 -15.5  33572  279.70 0864.80
2015 04 09 09 48 34 .29      66     -4    -20     67     70  94.3 -16.6  33570  279.67 0864.80
2015 04 09 09 48 34 .54      68     -4    -20     69     73  93.5 -16.6  33570  279.65 0864.80
2015 04 09 09 48 34 .79      73     -4    -25     74     79  93.5 -18.7  33570  279.67 0864.80
2015 04 09 09 48 35 .04      66     -7    -24     67     72  96.1 -19.6  33570  279.67 0864.80
2015 04 09 09 48 35 .29      75      0    -12     76     78  90.0  -9.3  33572  279.68 0864.80
2015 04 09 09 48 35 .54      75     -1    -13     76     78  90.8 -10.3  33576  279.77 0864.80
2015 04 09 09 48 35 .79      72    -14     -9     74     75 101.5  -7.3  33576  279.75 0864.80
2015 04 09 09 48 36 .04      65    -19     -9     68     69 106.8  -8.2  33578  279.80 0864.79
2015 04 09 09 48 36 .29      65    -13    -11     67     68 101.4  -9.3  33584  279.90 0864.79
2015 04 09 09 48 36 .55      71    -15     -4     73     74 102.4  -3.1  33596  280.08 0864.79
2015 04 09 09 48 36 .79      86    -28     -3     91     92 108.2  -2.2  33600  280.17 0864.79
2015 04 09 09 48 37 .04      81    -26    -12     86     87 108.2  -8.2  33592  280.02 0864.79
2015 04 09 09 48 37 .30      87    -19     -3     90     91 102.8  -2.2  33590  280.00 0864.79
2015 04 09 09 48 37 .55      78     -5    -11     79     80  94.3  -8.2  33578  279.80 0864.79
2015 04 09 09 48 37 .79      72    -14    -20     74     77 101.5 -15.4  33576  279.77 0864.79
2015 04 09 09 48 38 .05      67    -19    -21     70     74 105.9 -16.6  33578  279.80 0864.79
2015 04 09 09 48 38 .30      68    -25    -13     73     75 110.8 -10.3  33586  279.93 0864.79
2015 04 09 09 48 38 .55      77    -20      9     80     81 105.1   6.5  33650  281.00 0864.79
2015 04 09 09 48 38 .80      74    -19      3     77     78 105.1   2.9  33636  280.75 0864.79
2015 04 09 09 48 39 .06      66    -16     27     69     74 104.2  22.0  33664  281.24 0864.79
2015 04 09 09 48 39 .30      66     -7     23     67     71  96.1  19.2  33666  281.25 0864.79
2015 04 09 09 48 39 .55      55     -4     29     56     63  94.3  29.3  33666  281.27 0864.79
2015 04 09 09 48 39 .80      59    -12     26     61     66 101.5  23.1  33662  281.19 0864.79
2015 04 09 09 48 40 .05      50    -12     10     52     54 104.2  11.1  33626  280.60 0864.79
2015 04 09 09 48 40 .30      55     -7     20     56     59  97.9  20.0  33642  280.85 0864.79
2015 04 09 09 48 40 .55      50    -30     -8     59     60 120.7  -8.2  33586  279.92 0864.79
2015 04 09 09 48 40 .80      54    -23    -16     59     62 113.5 -15.4  33576  279.75 0864.79
2015 04 09 09 48 41 .05      51    -29    -20     59     63 119.8 -18.7  33576  279.77 0864.79
2015 04 09 09 48 41 .31      52    -15     -7     55     56 106.8  -7.3  33580  279.83 0864.79
2015 04 09 09 48 41 .57      48    -21     -6     53     54 114.4  -7.3  33586  279.93 0864.79
2015 04 09 09 48 41 .82      55    -11      0     57     58 101.5   0.8  33586  279.92 0864.79
2015 04 09 09 48 42 .07      57    -11     11     59     61 101.5  11.1  33588  279.95 0864.79
2015 04 09 09 48 42 .32      59    -20     -8     63     64 108.6  -7.2  33586  279.93 0864.79
2015 04 09 09 48 42 .57      58    -34     -8     68     69 120.7  -7.3  33590  279.98 0864.79
2015 04 09 09 48 42 .82      67    -27      3     73     74 111.8   2.8  33590  280.00 0864.79
2015 04 09 09 48 43 .07      66    -29     -4     73     74 113.5  -3.1  33596  280.08 0864.79
2015 04 09 09 48 43 .32      59     -3     -2     60     61  93.5  -2.2  33594  280.05 0864.80
2015 04 09 09 48 43 .57      48      0      6     49     50  90.0   8.0  33596  280.10 0864.80
2015 04 09 09 48 43 .82      46      2      4     47     48  87.4   5.9  33598  280.12 0864.80
2015 04 09 09 48 44 .07      45      0      3     46     47  90.0   3.8  33598  280.13 0864.80
2015 04 09 09 48 44 .32      44      0      2     45     46  90.0   2.9  33596  280.10 0864.80
2015 04 09 09 48 44 .57      44     -1     -2     45     46  91.7  -3.1  33598  280.13 0864.80
2015 04 09 09 48 44 .82      40     -4      0     41     42  97.0   0.8  33596  280.08 0864.80
2015 04 09 09 48 45 .07      40     16     15     44     47  68.3  18.9  33598  280.12 0864.80
2015 04 09 09 48 45 .32      69     16     14     71     73  76.7  11.1  33608  280.28 0864.80
2015 04 09 09 48 45 .57      69      5      8     70     71  85.6   7.1  33602  280.18 0864.80
2015 04 09 09 48 45 .82      66     13     13     68     70  78.6  11.1  33606  280.25 0864.79
2015 04 09 09 48 46 .08      80     21     12     83     84  74.9   8.5  33608  280.30 0864.79
2015 04 09 09 48 46 .33      68     13     33     70     77  78.6  27.1  33620  280.48 0864.79
2015 04 09 09 48 46 .57      82      8     14     83     85  83.9   9.5  33598  280.13 0864.79
2015 04 09 09 48 46 .83      87      1     -3     88     89  88.7  -2.2  33590  280.00 0864.79
2015 04 09 09 48 47 .08      75      5     -6     76     77  85.6  -5.2  33598  280.12 0864.79
2015 04 09 09 48 47 .33      60      0     15     61     63  90.8  14.3  33620  280.50 0864.79
2015 04 09 09 48 47 .58      64    -13     31     66     72 101.4  27.1  33616  280.42 0864.79
2015 04 09 09 48 47 .83      71      0     31     72     78  90.0  24.1  33618  280.47 0864.80
2015 04 09 09 48 48 .08      61     -4     33     62     70  94.3  30.3  33632  280.68 0864.80
2015 04 09 09 48 48 .34      60     -3     39     61     72  93.5  35.6  33630  280.67 0864.80
2015 04 09 09 48 48 .59      55    -11     28     57     63 101.5  27.3  33620  280.48 0864.80
2015 04 09 09 48 48 .84      46     -2     16     47     50  92.6  19.4  33610  280.33 0864.80
2015 04 09 09 48 49 .09      45      8     12     46     48  79.4  15.3  33602  280.20 0864.80
2015 04 09 09 48 49 .34      40     -8     -8     41     42 102.4 -11.3  33596  280.08 0864.80
2015 04 09 09 48 49 .59      63    -21    -11     67     68 108.6  -9.3  33590  280.00 0864.80
2015 04 09 09 48 49 .84      65    -16     -2     68     69 104.2  -2.2  33594  280.05 0864.80
2015 04 09 09 48 50 .10      61     -7     -1     62     63  97.0  -1.3  33596  280.08 0864.80
2015 04 09 09 48 50 .35      57     -8      2     58     59  98.8   2.9  33606  280.25 0864.80
2015 04 09 09 48 50 .59      53     -9      4     54     55 100.6   4.9  33604  280.23 0864.80
2015 04 09 09 48 50 .85      57     -7     10     58     59  97.0  10.1  33602  280.18 0864.80
2015 04 09 09 48 51 .10      53    -17     20     56     59 108.6  20.0  33604  280.23 0864.80
2015 04 09 09 48 51 .35      59    -19     -2     63     64 108.2  -2.2  33602  280.20 0864.79
2015 04 09 09 48 51 .60      72    -16     -4     74     75 103.3  -3.1  33602  280.18 0864.79
2015 04 09 09 48 51 .85      78    -13    -12     80     81  99.7  -8.8  33600  280.17 0864.79
2015 04 09 09 48 52 .10      68     -5     13     69     71  94.3  11.1  33616  280.43 0864.79
2015 04 09 09 48 52 .36      77     -1     19     78     81  90.8  13.7  33630  280.65 0864.79
2015 04 09 09 48 52 .60      77     -5     19     78     81  94.4  13.7  33632  280.70 0864.79
2015 04 09 09 48 52 .85      74     -4     27     75     79  93.5  20.4  33642  280.87 0864.79
2015 04 09 09 48 53 .10      65     -4     23     66     71  94.3  19.4  33630  280.67 0864.79
2015 04 09 09 48 53 .35      65     -6     12     66     68  96.1  11.0  33630  280.67 0864.79
2015 04 09 09 48 53 .60      76    -25     35     81     88 108.6  25.1  33630  280.67 0864.79
2015 04 09 09 48 53 .85      64    -25     28     69     74 111.7  23.0  33616  280.43 0864.79
2015 04 09 09 48 54 .10      72    -20     19     75     78 105.9  14.3  33608  280.28 0864.79
2015 04 09 09 48 54 .35      59    -23      3     64     65 111.8   2.9  33594  280.05 0864.79
2015 04 09 09 48 54 .61      62    -22     13     67     69 110.0  11.1  33596  280.08 0864.79
2015 04 09 09 48 54 .86      65    -19     23     68     72 106.8  18.9  33602  280.18 0864.78
2015 04 09 09 48 55 .12      65    -16     19     68     71 104.2  16.3  33604  280.23 0864.78
2015 04 09 09 48 55 .37      69    -21     28     73     78 106.8  21.0  33636  280.75 0864.78
2015 04 09 09 48 55 .61      66    -13     31     68     74 101.5  27.1  33634  280.72 0864.78
2015 04 09 09 48 55 .87      70     -7     16     71     73  96.1  13.2  33622  280.52 0864.78
2015 04 09 09 48 56 .12      81    -16     10     83     84 101.5   7.5  33622  280.52 0864.78
2015 04 09 09 48 56 .37      73     -5     21     74     78  94.4  16.3  33618  280.47 0864.78
2015 04 09 09 48 56 .62      61     -4     16     62     65  94.4  14.3  33614  280.38 0864.78
2015 04 09 09 48 56 .87      67    -18      3     70     71 105.0   2.9  33596  280.08 0864.78
2015 04 09 09 48 57 .12      57    -34     -2     67     68 120.7  -2.2  33602  280.20 0864.78
2015 04 09 09 48 57 .37      58    -34     -2     68     69 120.7  -2.2  33594  280.07 0864.78
2015 04 09 09 48 57 .62      63    -45     -3     78     79 126.0  -2.2  33584  279.90 0864.78
2015 04 09 09 48 57 .87      63    -38     -2     74     75 121.5  -2.2  33578  279.80 0864.78
2015 04 09 09 48 58 .13      75    -47     -6     89     90 122.4  -4.1  33582  279.85 0864.78
2015 04 09 09 48 58 .38      68    -49    -10     85     86 126.0  -7.2  33590  279.98 0864.78
2015 04 09 09 48 58 .63      73    -53      5     91     92 126.4   3.3  33618  280.47 0864.79
2015 04 09 09 48 58 .88      67    -55     11     88     89 129.5   7.5  33642  280.87 0864.79
2015 04 09 09 48 59 .12      70    -49     28     86     91 125.1  18.4  33658  281.14 0864.79
2015 04 09 09 48 59 .37      72    -38     28     82     87 118.0  19.4  33654  281.05 0864.79
2015 04 09 09 48 59 .62      80    -32     41     87     96 112.2  27.2  33642  280.85 0864.79
2015 04 09 09 48 59 .88      79    -65     35    103    109 129.5  18.9  33612  280.37 0864.79
2015 04 09 09 49 00 .13      69    -44     17     83     85 122.5  11.6  33624  280.57 0864.79
2015 04 09 09 49 00 .38      67    -42      0     80     81 122.5  -0.3  33584  279.88 0864.79
2015 04 09 09 49 00 .63      63    -38     -2     74     75 121.5  -2.2  33582  279.85 0864.79
2015 04 09 09 49 00 .88      63    -38     -2     74     75 121.5  -2.2  33582  279.85 0864.79
2015 04 09 09 49 01 .13      70    -38      2     80     81 118.9   1.8  33582  279.85 0864.79
2015 04 09 09 49 01 .38      63    -39     14     75     77 121.5  11.0  33582  279.85 0864.79
2015 04 09 09 49 01 .63      65    -26      3     71     72 111.7   2.8  33582  279.85 0864.79
2015 04 09 09 49 01 .88      67    -27      8     73     74 111.8   6.9  33586  279.92 0864.79
2015 04 09 09 49 02 .14      70    -26      3     75     76 110.8   2.9  33594  280.05 0864.79
2015 04 09 09 49 02 .39      70    -33      5     78     79 115.3   3.8  33584  279.88 0864.79
2015 04 09 09 49 02 .64      67    -32      5     75     76 115.4   3.8  33584  279.90 0864.79
2015 04 09 09 49 02 .89      55    -23      5     60     61 113.5   4.9  33590  279.98 0864.79
2015 04 09 09 49 03 .14      58    -28      6     65     66 116.2   5.9  33590  280.00 0864.79
2015 04 09 09 49 03 .39      58    -28      6     65     66 116.2   5.9  33590  280.00 0864.79
2015 04 09 09 49 03 .64      51    -19      2     55     56 110.8   2.9  33590  280.00 0864.79
2015 04 09 09 49 03 .89      51    -24      1     57     58 115.3   1.8  33590  279.98 0864.79
2015 04 09 09 49 04 .14      46    -24      2     53     54 118.0   2.9  33588  279.95 0864.79
2015 04 09 09 49 04 .40      47    -18     -2     51     52 111.7  -2.2  33584  279.90 0864.79
2015 04 09 09 49 04 .65      44    -28      0     53     54 122.4   0.8  33582  279.87 0864.79
2015 04 09 09 49 04 .90      48    -27     -2     56     57 119.8  -2.2  33582  279.85 0864.79
2015 04 09 09 49 05 .15      52    -17     -7     55     56 108.6  -7.3  33584  279.88 0864.79
2015 04 09 09 49 05 .40      59    -23    -10     64     65 111.7  -9.3  33584  279.90 0864.79
2015 04 09 09 49 05 .65      55    -23     -7     60     61 113.5  -7.3  33582  279.87 0864.79
2015 04 09 09 49 05 .90      57    -27     -5     64     65 115.4  -5.2  33582  279.85 0864.79
2015 04 09 09 49 06 .15      55    -23     -7     60     61 113.5  -7.3  33580  279.83 0864.79
2015 04 09 09 49 06 .40      48    -16     -3     51     52 108.4  -4.1  33582  279.85 0864.79
2015 04 09 09 49 06 .65      37    -24      0     45     46 123.3   0.8  33592  280.03 0864.79
2015 04 09 09 49 06 .90      39    -32     -2     51     52 129.5  -2.2  33588  279.95 0864.79
2015 04 09 09 49 07 .15      35    -39      0     53     54 138.6   0.8  33584  279.88 0864.79
2015 04 09 09 49 07 .40      38    -43      1     58     59 138.6   1.8  33582  279.85 0864.79
2015 04 09 09 49 07 .65      22    -47      6     53     54 154.5   6.9  33578  279.80 0864.79
2015 04 09 09 49 07 .90      31    -39      2     50     51 141.3   2.9  33576  279.75 0864.79
2015 04 09 09 49 08 .16      38    -43      1     58     59 138.6   1.8  33574  279.73 0864.79
2015 04 09 09 49 08 .41      40    -48      3     63     64 140.3   2.9  33580  279.82 0864.79
2015 04 09 09 49 08 .65      38    -47      7     61     62 141.3   6.9  33582  279.87 0864.80
2015 04 09 09 49 08 .91      45    -48      3     67     68 136.7   2.8  33582  279.85 0864.80
2015 04 09 09 49 09 .17      41    -56      3     70     71 143.9   2.9  33576  279.77 0864.80
2015 04 09 09 49 09 .42      39    -44     10     60     61 138.6  10.1  33576  279.77 0864.80
2015 04 09 09 49 09 .67      34    -45     13     57     59 142.2  13.2  33576  279.75 0864.80
2015 04 09 09 49 09 .92      26    -40     13     49     51 146.6  15.3  33576  279.75 0864.80
2015 04 09 09 49 10 .17      23    -41     16     48     51 150.1  19.4  33576  279.77 0864.80
2015 04 09 09 49 10 .42      37    -40     17     55     58 137.7  17.3  33576  279.77 0864.79
2015 04 09 09 49 10 .67      36    -45     20     58     62 141.3  18.9  33580  279.82 0864.79
2015 04 09 09 49 10 .92      33    -40     24     53     58 140.4  26.2  33576  279.77 0864.79
2015 04 09 09 49 11 .17      36    -35     27     51     57 134.1  30.3  33578  279.80 0864.79
2015 04 09 09 49 11 .42      30    -50     28     59     65 149.3  27.2  33580  279.82 0864.79
2015 04 09 09 49 11 .67      26    -43     31     51     59 149.3  34.4  33584  279.90 0864.79
2015 04 09 09 49 11 .92      25    -45     31     52     60 151.0  33.5  33588  279.95 0864.79
2015 04 09 09 49 12 .17      22    -39     29     46     54 150.1  35.5  33586  279.93 0864.80
2015 04 09 09 49 12 .42      35    -43     26     56     61 140.4  27.1  33588  279.95 0864.80
2015 04 09 09 49 12 .67      43    -41     25     60     65 134.0  23.0  33592  280.02 0864.80
2015 04 09 09 49 12 .93      50    -17     18     53     57 109.1  19.4  33590  280.00 0864.80
2015 04 09 09 49 13 .18      54    -29     17     62     65 118.0  15.3  33590  280.00 0864.80
2015 04 09 09 49 13 .43      58    -28      6     65     66 116.2   5.9  33590  280.00 0864.80
2015 04 09 09 49 13 .68      57    -34     13     67     69 120.7  11.0  33594  280.05 0864.80
2015 04 09 09 49 13 .93      60    -38     14     72     74 122.4  11.1  33592  280.02 0864.80
2015 04 09 09 49 14 .18      57    -34     13     67     69 120.7  11.0  33594  280.05 0864.80
2015 04 09 09 49 14 .43      48    -36     12     61     63 126.9  11.1  33590  280.00 0864.80
2015 04 09 09 49 14 .68      46    -40     17     62     65 131.3  15.3  33588  279.95 0864.80
2015 04 09 09 49 14 .93      46    -33     11     57     59 126.0  11.0  33592  280.03 0864.80
2015 04 09 09 49 15 .18      48    -21      4     53     54 114.4   4.9  33592  280.02 0864.80
2015 04 09 09 49 15 .43      40    -25     14     48     51 122.4  16.3  33596  280.10 0864.80
2015 04 09 09 49 15 .68      41    -26      5     49     50 122.4   5.9  33598  280.13 0864.80
2015 04 09 09 49 15 .93      38    -28      3     48     49 126.0   3.8  33598  280.12 0864.80
2015 04 09 09 49 16 .19      44    -33      2     56     57 126.9   2.9  33594  280.05 0864.80
2015 04 09 09 49 16 .45      39    -32     -2     51     52 129.5  -2.2  33590  280.00 0864.80
2015 04 09 09 49 16 .69      41    -33      4     53     54 128.6   4.9  33592  280.03 0864.80
2015 04 09 09 49 16 .94      35    -35     -1     50     51 135.0  -2.2  33590  280.00 0864.80
2015 04 09 09 49 17 .19      35    -39     -4     53     54 138.6  -5.2  33590  280.00 0864.80
2015 04 09 09 49 17 .45      20    -35      5     41     42 150.1   8.0  33588  279.97 0864.80
2015 04 09 09 49 17 .69      14    -44      0     47     48 161.7   0.8  33588  279.97 0864.80
2015 04 09 09 49 17 .95      11    -42     -3     44     45 164.9  -4.1  33592  280.02 0864.80
2015 04 09 09 49 18 .20      11    -42     -3     44     45 164.9  -4.1  33592  280.02 0864.80
2015 04 09 09 49 18 .45       8    -40      0     41     42 167.5   0.8  33590  279.98 0864.80
2015 04 09 09 49 18 .70      11    -37      1     39     40 163.1   1.8  33588  279.97 0864.80
2015 04 09 09 49 18 .95       1    -41      0     42     43 177.3  -0.3  33592  280.03 0864.80
2015 04 09 09 49 19 .20       6    -42     -1     43     44 171.1  -2.2  33590  280.00 0864.80
2015 04 09 09 49 19 .45       1    -41      0     42     43 177.3  -0.3  33592  280.03 0864.80
2015 04 09 09 49 19 .70      12    -58      3     60     61 168.4   2.9  33588  279.95 0864.80
2015 04 09 09 49 19 .95       8    -46      0     47     48 169.3   0.8  33588  279.97 0864.80
2015 04 09 09 49 20 .21      11    -58      1     60     61 168.5   1.8  33602  280.20 0864.80
2015 04 09 09 49 20 .45      10    -51     18     53     57 168.4  19.2  33618  280.45 0864.80
2015 04 09 09 49 20 .71      16    -48      2     51     52 161.7   2.9  33614  280.40 0864.80
2015 04 09 09 49 20 .96      10    -43      2     45     46 166.6   2.9  33618  280.45 0864.80
2015 04 09 09 49 21 .21       5    -50     13     51     53 173.8  14.3  33640  280.82 0864.80
2015 04 09 09 49 21 .45      12    -38     13     41     44 161.5  18.4  33644  280.88 0864.80
2015 04 09 09 49 21 .70      30    -35     22     47     51 139.5  27.1  33630  280.67 0864.80
2015 04 09 09 49 21 .96       3    -48      9     49     50 175.5  11.1  33610  280.33 0864.80
2015 04 09 09 49 22 .21       7    -42     15     43     46 169.3  19.4  33618  280.45 0864.80
2015 04 09 09 49 22 .46       0    -44     13     45     47 180.9  16.3  33604  280.22 0864.80
2015 04 09 09 49 22 .71       7    -35      7     36     37 168.4  11.0  33598  280.13 0864.80
2015 04 09 09 49 22 .97       8    -40      8     41     42 167.5  11.1  33614  280.40 0864.80
2015 04 09 09 49 23 .22      18    -30     12     36     39 149.3  19.4  33616  280.43 0864.80
2015 04 09 09 49 23 .48      22    -26     26     35     43 140.4  40.7  33630  280.67 0864.80
2015 04 09 09 49 23 .72      35    -22     26     42     49 122.4  35.5  33642  280.87 0864.80
2015 04 09 09 49 23 .97      17    -17     31     25     39 134.9  56.4  33680  281.49 0864.80
2015 04 09 09 49 24 .22       7    -26     26     27     37 164.9  52.0  33684  281.55 0864.80
2015 04 09 09 49 24 .47      16    -28     23     33     40 149.3  38.6  33670  281.34 0864.80
2015 04 09 09 49 24 .72       5    -35     20     36     41 172.0  31.4  33660  281.15 0864.80
2015 04 09 09 49 24 .97       2    -35     16     36     39 175.5  25.1  33642  280.85 0864.80
2015 04 09 09 49 25 .23       4    -38     10     39     41 172.9  15.3  33644  280.90 0864.80
2015 04 09 09 49 25 .48      -1    -39     20     40     44 182.6  29.3  33672  281.37 0864.80
2015 04 09 09 49 25 .73     -12    -40     32     42     52 196.9  42.7  33696  281.77 0864.80
2015 04 09 09 49 25 .98      -2    -31     29     32     43 184.5  47.9  33702  281.87 0864.80
2015 04 09 09 49 26 .22      -1    -31     20     32     37 182.6  35.5  33700  281.82 0864.80
2015 04 09 09 49 26 .48     -10    -32     20     34     39 198.3  33.5  33692  281.69 0864.80
2015 04 09 09 49 26 .73       4    -24     31     25     39 170.2  56.4  33738  282.47 0864.80
2015 04 09 09 49 26 .98       1    -16     33     17     37 175.6  70.8  33750  282.66 0864.80
2015 04 09 09 49 27 .26      -2    -16     41     17     44 188.0  77.1  33750  282.66 0864.80
2015 04 09 09 49 27 .48       0    -15     40     16     43 179.1  78.2  33764  282.89 0864.80
2015 04 09 09 49 27 .73      -2     -7     35      8     35 198.5  89.0  33770  282.99 0864.79
2015 04 09 09 49 27 .99       0     -7     34      8     34 182.7  89.0  33772  283.03 0864.79
2015 04 09 09 49 28 .23       0      0     33      1     33  90.0  90.0  33796  283.45 0864.79
2015 04 09 09 49 28 .49      11     -3     32     12     34 108.4  81.2  33788  283.31 0864.79
2015 04 09 09 49 28 .73       4      0     32      5     32  90.0  90.0  33794  283.41 0864.79
2015 04 09 09 49 28 .99       0      0     33      1     33 189.7  90.0  33796  283.43 0864.79
2015 04 09 09 49 29 .23       5      0     31      6     31  90.0  89.1  33798  283.46 0864.79
2015 04 09 09 49 29 .49       1    -18     29     19     34 175.5  64.6  33756  282.76 0864.79
2015 04 09 09 49 29 .74       8    -11     33     14     35 143.9  77.1  33756  282.76 0864.79
2015 04 09 09 49 30 .00     -13      1     32     14     34 277.9  73.1  33772  283.04 0864.79
2015 04 09 09 49 30 .24       3      0     31      4     31  94.4  90.0  33782  283.19 0864.79
2015 04 09 09 49 30 .50      -5    -11     33     13     35 205.4  79.2  33744  282.56 0864.79
2015 04 09 09 49 30 .75      -4     -3     33      6     33 230.5  89.1  33764  282.91 0864.79
2015 04 09 09 49 31 .00       0     -3     31      4     31 189.7  90.0  33732  282.36 0864.79
2015 04 09 09 49 31 .26      -4     -3     33      6     33 230.5  89.1  33740  282.49 0864.80
2015 04 09 09 49 31 .50       0     -3     31      4     31 189.7  90.0  33754  282.72 0864.80
2015 04 09 09 49 31 .75      -4      1     27      5     27 288.4  90.0  33714  282.05 0864.80
2015 04 09 09 49 32 .01       0     -3     24      4     24 184.5  90.0  33734  282.39 0864.80
2015 04 09 09 49 32 .25     -11      0     26     12     28 270.0  75.0  33736  282.42 0864.80
2015 04 09 09 49 32 .50      -1      6     27      7     27 350.3  82.8  33732  282.37 0864.80
2015 04 09 09 49 32 .75      -2      5     28      6     28 334.6  86.9  33744  282.56 0864.80
2015 04 09 09 49 33 .00       5      4     25      7     25  46.7  82.8  33756  282.76 0864.80
2015 04 09 09 49 33 .25      -8      1     22      9     23 281.5  79.2  33766  282.94 0864.79
2015 04 09 09 49 33 .51      -2     -7     24      8     25 198.7  81.0  33794  283.40 0864.79
2015 04 09 09 49 33 .75      -4     -3     26      6     26 230.5  86.9  33810  283.66 0864.79
2015 04 09 09 49 34 .01      -4     -3     26      6     26 230.5  86.9  33810  283.66 0864.79
2015 04 09 09 49 34 .25      -8      2     37      9     38 288.2  84.9  33806  283.61 0864.79
2015 04 09 09 49 34 .50      -9     -3     29     10     30 248.3  81.0  33804  283.58 0864.79
2015 04 09 09 49 34 .76      -9      2     29     10     30 285.1  81.0  33778  283.13 0864.79
2015 04 09 09 49 35 .01       1      4     33      5     33  11.6  90.0  33780  283.18 0864.79
2015 04 09 09 49 35 .25       4      0     31      5     31 101.5  90.0  33750  282.67 0864.79
2015 04 09 09 49 35 .51      12      0     20     13     23  94.4  64.7  33734  282.39 0864.79
2015 04 09 09 49 35 .76       2      2     16      3     16  45.0  90.0  33746  282.61 0864.79
2015 04 09 09 49 36 .01      -4      2     21      5     21 302.4  86.9  33750  282.66 0864.79
2015 04 09 09 49 36 .26      -1     13     20     14     24 353.8  60.5  33764  282.91 0864.79
2015 04 09 09 49 36 .51      -1     22     20     23     30 357.3  43.8  33762  282.86 0864.79
2015 04 09 09 49 36 .76      -2     23     29     24     37 353.8  56.3  33750  282.66 0864.79
2015 04 09 09 49 37 .03      -1     23     42     24     48 355.5  66.8  33778  283.13 0864.79
2015 04 09 09 49 37 .27      -1     40     33     41     52 357.4  43.7  33744  282.56 0864.79
2015 04 09 09 49 37 .54      -7     33     36     34     49 346.6  50.1  33748  282.62 0864.79
2015 04 09 09 49 37 .77     -12     37     47     40     61 341.3  55.4  33742  282.54 0864.79
2015 04 09 09 49 38 .02     -15     45     42     48     63 340.8  46.9  33718  282.14 0864.79
2015 04 09 09 49 38 .28     -10     41     35     43     55 345.7  43.7  33714  282.05 0864.79
2015 04 09 09 49 38 .53     -12     44     33     46     56 344.9  38.6  33690  281.67 0864.79
2015 04 09 09 49 38 .78      -7     36     31     37     48 348.4  45.8  33714  282.05 0864.79
2015 04 09 09 49 39 .02      -7     37     38     38     53 348.5  50.1  33706  281.92 0864.79
2015 04 09 09 49 39 .28     -18     41     33     45     55 336.4  39.7  33684  281.57 0864.79
2015 04 09 09 49 39 .52      -6     46     24     47     52 352.0  28.2  33616  280.43 0864.79
2015 04 09 09 49 39 .78      -3     40     16     41     44 355.6  21.0  33594  280.07 0864.79
2015 04 09 09 49 40 .04      -5     41     26     42     49 352.9  35.5  33618  280.47 0864.79
2015 04 09 09 49 40 .28       7     50     32     51     60   8.0  35.5  33626  280.60 0864.79
2015 04 09 09 49 40 .53       8     46     23     47     52  10.7  27.3  33628  280.62 0864.79
2015 04 09 09 49 40 .79      12     58     18     60     63  11.6  17.3  33652  281.02 0864.79
2015 04 09 09 49 41 .03      27     58     19     65     68  25.3  16.3  33652  281.02 0864.79
2015 04 09 09 49 41 .28      21     50     27     55     61  22.7  27.3  33662  281.19 0864.80
2015 04 09 09 49 41 .53      15     47     27     50     56  18.5  30.3  33670  281.32 0864.80
2015 04 09 09 49 41 .79      15     53     26     56     61  16.0  27.1  33676  281.44 0864.80
2015 04 09 09 49 42 .04       8     42     33     43     54  11.6  41.7  33688  281.62 0864.80
2015 04 09 09 49 42 .28      13     36     26     39     46  20.0  36.5  33698  281.80 0864.80
2015 04 09 09 49 42 .54       9     29     23     31     38  18.7  41.7  33698  281.79 0864.80
2015 04 09 09 49 42 .79      27     22     26     35     43  50.5  40.7  33714  282.05 0864.80
2015 04 09 09 49 43 .04      16     16     36     24     43  45.0  62.6  33730  282.32 0864.80
2015 04 09 09 49 43 .28      22     22     29     32     43  45.1  47.9  33724  282.24 0864.80
2015 04 09 09 49 43 .54      24     16     32     30     43  55.8  50.1  33726  282.27 0864.80
2015 04 09 09 49 43 .79      35     22     29     42     51  57.6  37.6  33706  281.92 0864.80
2015 04 09 09 49 44 .04      50     16     10     53     55  71.6  11.0  33682  281.52 0864.80
2015 04 09 09 49 44 .30      59     32      3     68     69  61.2   2.9  33644  280.90 0864.80
2015 04 09 09 49 44 .56      57     20      3     61     62  70.0   2.8  33634  280.72 0864.80
2015 04 09 09 49 44 .80      39     21     13     45     47  62.0  16.3  33658  281.14 0864.80
2015 04 09 09 49 45 .05      32     25     13     41     44  52.2  18.4  33668  281.29 0864.80
2015 04 09 09 49 45 .30      28     38     13     48     50  37.0  15.3  33638  280.78 0864.80
2015 04 09 09 49 45 .55      25     32      3     41     42  37.8   4.9  33634  280.72 0864.80
2015 04 09 09 49 45 .80      17     29      2     34     35  30.7   4.9  33640  280.82 0864.80
2015 04 09 09 49 46 .06      11     33     12     35     38  18.5  19.4  33670  281.32 0864.80
2015 04 09 09 49 46 .31       0     26     17     27     31 359.1  35.5  33698  281.80 0864.80
2015 04 09 09 49 46 .55       0     26     11     27     29 359.1  21.0  33694  281.72 0864.80
2015 04 09 09 49 46 .80       7     23      6     25     26  16.9  15.3  33688  281.62 0864.79
2015 04 09 09 49 47 .06       3     21     11     22     24   9.8  27.2  33684  281.57 0864.79
2015 04 09 09 49 47 .30       5     21     11     22     24  13.4  27.2  33696  281.77 0864.79
2015 04 09 09 49 47 .55       5     18     14     19     23  18.3  41.7  33686  281.59 0864.79
2015 04 09 09 49 47 .81      17     26     -2     32     33  32.6  -5.2  33648  280.97 0864.79
2015 04 09 09 49 48 .07      19     30     -1     36     37  32.5  -2.2  33680  281.50 0864.79
2015 04 09 09 49 48 .31       2     17     16     18     24   8.0  50.0  33700  281.82 0864.79
2015 04 09 09 49 48 .56      -1     18     24     19     30 355.6  56.4  33716  282.09 0864.79
2015 04 09 09 49 48 .81       0     30     20     31     36 359.1  35.5  33712  282.04 0864.79
2015 04 09 09 49 49 .07     -14     28     22     32     38 332.8  37.6  33702  281.85 0864.79
2015 04 09 09 49 49 .31     -16     37     35     41     53 336.4  45.8  33716  282.11 0864.79
2015 04 09 09 49 49 .56     -24     31     36     40     53 322.2  47.9  33726  282.27 0864.79
2015 04 09 09 49 49 .81     -16     36     42     40     58 336.4  49.1  33722  282.19 0864.79
2015 04 09 09 49 50 .06     -16     36     42     40     58 336.4  49.1  33722  282.19 0864.79
2015 04 09 09 49 50 .31      -2     31     28     32     42 355.5  46.9  33706  281.92 0864.79
2015 04 09 09 49 50 .57      -6     25     26     26     36 346.6  50.1  33702  281.85 0864.79
2015 04 09 09 49 50 .82     -10     28     26     30     39 340.0  45.8  33710  282.00 0864.79
2015 04 09 09 49 51 .07     -12     33     24     36     43 340.0  37.6  33696  281.77 0864.79
2015 04 09 09 49 51 .32     -27     31     18     42     45 319.5  24.1  33692  281.69 0864.79
2015 04 09 09 49 51 .57     -16     28      9     33     35 331.0  15.3  33682  281.54 0864.79
2015 04 09 09 49 51 .83      -5     21     11     22     24 344.9  27.2  33684  281.57 0864.79
2015 04 09 09 49 52 .07     -16     16     12     23     25 315.0  29.3  33690  281.67 0864.79
2015 04 09 09 49 52 .33      -6     20      5     22     23 341.5  13.2  33680  281.49 0864.79
2015 04 09 09 49 52 .58      -1      8     11      9     14 350.3  52.2  33696  281.77 0864.79
2015 04 09 09 49 52 .83      10     24     11     27     29  23.6  21.0  33708  281.97 0864.79
2015 04 09 09 49 53 .09      17      5     11     18     21  71.4  33.5  33736  282.44 0864.79
2015 04 09 09 49 53 .33       7    -11     20     14     24 147.5  60.5  33762  282.86 0864.79
2015 04 09 09 49 53 .58       4    -16     24     17     29 164.9  62.6  33724  282.24 0864.79
2015 04 09 09 49 53 .84       1    -19     29     20     35 175.5  64.6  33734  282.39 0864.79
2015 04 09 09 49 54 .09      -3     -8     29      9     30 205.4  80.7  33750  282.66 0864.79
2015 04 09 09 49 54 .33      -6      1     28      7     28 281.5  84.9  33766  282.93 0864.79
2015 04 09 09 49 54 .58      -3     -2     29      4     29 237.6  90.0  33800  283.50 0864.79
2015 04 09 09 49 54 .83       0      2     32      3     32 341.5  90.0  33794  283.41 0864.79
2015 04 09 09 49 55 .11       1      2     29      3     29  32.5  90.0  33778  283.13 0864.79
2015 04 09 09 49 55 .33     -17      9     33     20     38 297.1  64.7  33766  282.93 0864.79
2015 04 09 09 49 55 .59      -6      0     32      7     32 265.6  89.0  33784  283.24 0864.79
2015 04 09 09 49 55 .83      -8    -11     34     14     36 216.1  77.1  33796  283.43 0864.79
2015 04 09 09 49 56 .09       2    -15     39     16     42 172.0  77.1  33782  283.21 0864.79
2015 04 09 09 49 56 .34       0    -11     38     12     39 180.9  81.8  33816  283.76 0864.79
2015 04 09 09 49 56 .58      -7     -7     38     11     39 225.0  80.7  33824  283.90 0864.79
2015 04 09 09 49 56 .84      -1     -4     38      5     38 191.6  90.0  33812  283.70 0864.79
2015 04 09 09 49 57 .09      -6      0     37      7     37 265.6  89.1  33826  283.95 0864.79
2015 04 09 09 49 57 .33     -24     16     36     30     46 304.2  55.4  33756  282.77 0864.79
2015 04 09 09 49 57 .60     -23     -7     39     25     46 251.6  64.6  33748  282.64 0864.79
2015 04 09 09 49 57 .85     -16    -16     36     23     42 225.0  64.7  33772  283.04 0864.79
2015 04 09 09 49 58 .10     -19    -12     33     23     40 235.8  61.5  33780  283.18 0864.79
2015 04 09 09 49 58 .35     -13     -5     29     15     32 248.3  70.8  33780  283.18 0864.79
2015 04 09 09 49 58 .60      -2     -7     29      8     30 198.5  84.9  33798  283.48 0864.78
2015 04 09 09 49 58 .85      -2      0     29      3     29 270.0  90.0  33796  283.45 0864.78
2015 04 09 09 49 59 .10      -9     -3     36     10     37 248.3  82.8  33800  283.51 0864.78
2015 04 09 09 49 59 .35     -23    -19     35     30     46 230.5  54.3  33726  282.27 0864.78
2015 04 09 09 49 59 .60     -33    -21     33     40     51 237.6  43.7  33710  281.99 0864.78
2015 04 09 09 49 59 .85     -29    -18     29     35     45 237.6  44.8  33712  282.04 0864.78
2015 04 09 09 50 00 .10     -16    -16     35     23     41 225.0  63.6  33724  282.22 0864.78
2015 04 09 09 50 00 .35      -9    -27     35     29     45 198.5  55.4  33710  282.00 0864.79
2015 04 09 09 50 00 .60     -27    -43     37     51     63 212.5  39.7  33706  281.94 0864.79
2015 04 09 09 50 00 .85     -27    -52     37     59     69 208.1  35.5  33696  281.77 0864.79
2015 04 09 09 50 01 .11     -27    -52     37     59     69 208.1  35.5  33682  281.52 0864.79
2015 04 09 09 50 01 .35     -17    -52     40     55     68 198.3  39.7  33692  281.70 0864.79
2015 04 09 09 50 01 .61     -21    -51     41     56     69 202.7  39.7  33700  281.84 0864.79
2015 04 09 09 50 01 .85     -24    -52     41     58     71 205.3  39.5  33678  281.47 0864.79
2015 04 09 09 50 02 .12      -9    -64     22     65     69 188.0  19.4  33662  281.19 0864.78
2015 04 09 09 50 02 .37     -30    -55     29     63     69 209.0  27.1  33666  281.25 0864.78
2015 04 09 09 50 02 .61     -33    -52     40     62     73 212.6  35.6  33680  281.49 0864.78
2015 04 09 09 50 02 .86     -28    -59     44     66     79 205.4  37.0  33676  281.44 0864.78
2015 04 09 09 50 03 .11     -35    -55     37     66     75 212.5  31.4  33682  281.52 0864.78
2015 04 09 09 50 03 .36     -51    -67     48     85     97 217.4  32.4  33682  281.54 0864.78
2015 04 09 09 50 03 .61     -34    -71     43     79     89 205.5  30.8  33656  281.09 0864.78
2015 04 09 09 50 03 .86     -38    -75     30     85     91 207.2  19.4  33642  280.85 0864.78
2015 04 09 09 50 04 .11     -31    -83     33     89     94 200.9  20.4  33636  280.75 0864.78
2015 04 09 09 50 04 .36     -25    -90     32     94    100 196.0  19.2  33626  280.60 0864.78
2015 04 09 09 50 04 .61     -22    -86     30     89     95 194.7  18.9  33626  280.60 0864.78
2015 04 09 09 50 04 .88      -8    -88     29     89     94 185.3  18.4  33624  280.55 0864.78
2015 04 09 09 50 05 .13     -14    -81     37     83     90 189.8  26.2  33682  281.52 0864.78
2015 04 09 09 50 05 .37     -43    -77     36     89     96 209.0  23.0  33666  281.27 0864.78
2015 04 09 09 50 05 .63     -35    -86     15     93     95 202.3   9.5  33608  280.30 0864.78
2015 04 09 09 50 05 .88     -31    -80     18     87     90 201.4  12.2  33608  280.28 0864.78
2015 04 09 09 50 06 .13     -33    -69     15     77     79 205.5  11.6  33608  280.30 0864.78
2015 04 09 09 50 06 .38     -32    -73     12     80     82 203.6   9.0  33606  280.27 0864.78
2015 04 09 09 50 06 .63     -22    -69     17     73     76 197.8  13.2  33602  280.20 0864.78
2015 04 09 09 50 06 .88     -24    -71     22     75     79 198.7  16.3  33602  280.20 0864.78
2015 04 09 09 50 07 .13     -18    -67     26     70     74 195.2  20.0  33614  280.40 0864.78
2015 04 09 09 50 07 .38     -21    -74     24     78     82 196.0  17.3  33602  280.18 0864.78
2015 04 09 09 50 07 .63     -18    -82     10     85     86 192.9   6.9  33596  280.10 0864.78
2015 04 09 09 50 07 .88     -18    -82     10     85     86 192.9   6.9  33602  280.20 0864.78
2015 04 09 09 50 08 .13     -18    -79     26     82     87 192.9  17.9  33630  280.67 0864.78
2015 04 09 09 50 08 .38     -15    -91     37     93    100 189.3  23.0  33650  281.00 0864.78
2015 04 09 09 50 08 .63       0    -92      9     93     94 180.4   5.9  33604  280.22 0864.78
2015 04 09 09 50 08 .89      -6    -88     10     89     90 184.0   6.9  33600  280.15 0864.78
2015 04 09 09 50 09 .14       0    -92      9     93     94 180.4   5.9  33606  280.27 0864.78
2015 04 09 09 50 09 .39       7    -85     14     86     88 174.7   9.5  33620  280.48 0864.79
2015 04 09 09 50 09 .64      -5    -73     32     74     80 184.4  25.1  33626  280.60 0864.79
2015 04 09 09 50 09 .89       0    -89     16     90     92 180.4  10.6  33616  280.42 0864.79
2015 04 09 09 50 10 .14      -4    -82     11     83     84 183.1   8.0  33622  280.52 0864.79
2015 04 09 09 50 10 .39      -8    -81      5     82     83 186.2   3.8  33608  280.30 0864.79
2015 04 09 09 50 10 .64     -16    -86     -1     88     89 190.7  -1.3  33598  280.13 0864.79
2015 04 09 09 50 10 .89     -25    -77     10     82     83 198.5   7.5  33606  280.25 0864.79
2015 04 09 09 50 11 .14     -14    -69     14     71     73 191.6  11.1  33624  280.55 0864.78
2015 04 09 09 50 11 .39     -22    -70      8     74     75 197.8   6.9  33600  280.17 0864.78
2015 04 09 09 50 11 .65     -26    -86      2     90     91 196.9   1.8  33594  280.07 0864.78
2015 04 09 09 50 11 .90      -6    -90    -10     91     92 184.0  -6.7  33602  280.18 0864.78
2015 04 09 09 50 12 .15     -17    -94     -2     96     97 190.7  -1.3  33602  280.18 0864.78
2015 04 09 09 50 12 .40      -8    -81     -1     82     83 186.2  -1.3  33602  280.18 0864.78
2015 04 09 09 50 12 .65     -10    -90     -5     91     92 186.7  -3.7  33600  280.15 0864.78
2015 04 09 09 50 12 .90      -2    -92     -6     93     94 181.8  -4.1  33594  280.07 0864.78
2015 04 09 09 50 13 .15      -6    -96     -9     97     98 183.6  -5.6  33576  279.77 0864.78
2015 04 09 09 50 13 .40      -1    -99     -6    100    101 181.0  -3.7  33576  279.75 0864.78
2015 04 09 09 50 13 .66      -7    -91    -19     92     95 184.5 -11.9  33580  279.82 0864.78
2015 04 09 09 50 13 .91      -8   -105    -13    106    107 184.5  -7.3  33580  279.82 0864.79
2015 04 09 09 50 14 .16     -13    -98    -19     99    101 188.0 -11.3  33580  279.82 0864.79
2015 04 09 09 50 14 .41     -14    -89    -19     91     93 188.9 -11.9  33576  279.77 0864.79
2015 04 09 09 50 14 .66      -8    -87    -21     88     91 185.3 -13.9  33582  279.85 0864.79
2015 04 09 09 50 14 .91      -8    -89    -22     90     93 185.3 -13.9  33590  280.00 0864.79
2015 04 09 09 50 15 .16      -5    -72    -14     73     75 184.5 -11.5  33600  280.17 0864.79
2015 04 09 09 50 15 .41      -2    -84    -22     85     88 181.8 -14.5  33594  280.05 0864.79
2015 04 09 09 50 15 .66      -4    -82    -25     83     86 183.1 -22.3  33578  279.80 0864.79
2015 04 09 09 50 15 .91      -8    -87    -31     88     94 185.3 -19.7  33584  279.88 0864.79
2015 04 09 09 50 16 .16     -11    -84    -25     85     89 187.6 -16.6  33580  279.82 0864.79
2015 04 09 09 50 16 .41     -11    -84    -25     85     89 187.6 -16.6  33580  279.82 0864.79
2015 04 09 09 50 16 .66     -12    -78    -24     79     82 188.9 -21.7  33578  279.80 0864.79
2015 04 09 09 50 16 .91     -10    -78    -25     79     82 188.0 -22.8  33582  279.85 0864.79
2015 04 09 09 50 17 .16     -14    -90    -11     92     93 189.3  -7.3  33594  280.05 0864.79
2015 04 09 09 50 17 .41     -14    -70     -5     72     73 191.6  -4.1  33590  280.00 0864.79
2015 04 09 09 50 17 .66     -22    -70     -4     74     75 197.8  -3.1  33588  279.97 0864.79
2015 04 09 09 50 17 .91     -16    -65     -3     68     69 194.3  -3.1  33582  279.87 0864.79
2015 04 09 09 50 18 .16     -18    -66     -2     69     70 195.2  -2.2  33596  280.10 0864.79
2015 04 09 09 50 18 .42     -14    -58     -3     60     61 194.3  -3.1  33592  280.03 0864.79
2015 04 09 09 50 18 .68      -5    -66     -8     67     68 184.5  -7.3  33604  280.23 0864.79
2015 04 09 09 50 18 .93      -4    -76    -20     77     80 183.6 -15.0  33624  280.57 0864.79
2015 04 09 09 50 19 .18      -6    -84    -18     85     88 184.5 -12.4  33628  280.63 0864.79
2015 04 09 09 50 19 .43      -3    -98    -12     99    100 181.8  -7.3  33616  280.43 0864.79
2015 04 09 09 50 19 .68       3    -92      1     93     94 177.8   0.8  33620  280.50 0864.79
2015 04 09 09 50 19 .94       0    -88     -3     89     90 180.5  -2.2  33614  280.38 0864.79
2015 04 09 09 50 20 .18       6    -89     -3     90     91 175.6  -2.2  33662  281.19 0864.79
2015 04 09 09 50 20 .43       4    -85      1     86     87 176.9   0.8  33648  280.97 0864.79
2015 04 09 09 50 20 .69       0    -88    -22     89     92 179.5 -13.9  33606  280.25 0864.79
2015 04 09 09 50 20 .94      -2    -93     -2     94     95 181.4  -1.3  33620  280.48 0864.79
2015 04 09 09 50 21 .18      -4   -110     -2    111    112 182.2  -1.3  33652  281.04 0864.79
2015 04 09 09 50 21 .44       0   -108      4    109    110 179.5   2.3  33694  281.72 0864.79
2015 04 09 09 50 21 .68       8   -108     -2    109    110 175.6  -1.2  33690  281.67 0864.79
2015 04 09 09 50 21 .94       7   -104      4    105    106 176.0   2.3  33662  281.20 0864.79
2015 04 09 09 50 22 .18      -2    -93      4     94     95 181.4   2.9  33648  280.97 0864.79
2015 04 09 09 50 22 .43      -9    -89     30     90     95 185.8  18.4  33644  280.90 0864.79
2015 04 09 09 50 22 .69     -18    -82     12     85     86 192.9   8.5  33622  280.52 0864.79
2015 04 09 09 50 22 .94     -19    -81     18     84     87 193.4  12.6  33644  280.90 0864.79
2015 04 09 09 50 23 .18     -23    -80     29     84     89 196.0  19.2  33656  281.10 0864.79
2015 04 09 09 50 23 .44     -17    -92     33     94    100 190.7  19.4  33652  281.04 0864.79
2015 04 09 09 50 23 .69     -16    -87     35     89     95 190.7  22.5  33656  281.09 0864.79
2015 04 09 09 50 23 .94     -18    -83     33     86     92 192.5  21.5  33654  281.05 0864.79
2015 04 09 09 50 24 .19     -10    -75     29     76     81 188.0  21.5  33656  281.10 0864.79
2015 04 09 09 50 24 .45      -4    -75      7     76     77 183.6   5.9  33678  281.47 0864.79
2015 04 09 09 50 24 .69      -6    -77     31     78     83 184.5  22.0  33692  281.70 0864.79
2015 04 09 09 50 24 .94     -12    -71     39     73     82 189.8  30.3  33680  281.50 0864.79
2015 04 09 09 50 25 .19     -19    -74     32     77     83 195.1  23.6  33644  280.90 0864.79
2015 04 09 09 50 25 .45     -18    -75     33     78     84 193.4  23.6  33656  281.10 0864.79
2015 04 09 09 50 25 .71      -8    -63     31     64     71 188.0  27.3  33662  281.19 0864.80
2015 04 09 09 50 25 .96      19    -53     40     57     69 160.0  38.6  33698  281.80 0864.80
2015 04 09 09 50 26 .21      18    -55     31     59     66 161.5  30.3  33726  282.27 0864.80
2015 04 09 09 50 26 .45      18    -55     31     59     66 161.5  30.3  33736  282.42 0864.80
2015 04 09 09 50 26 .70      10    -51     18     53     57 168.4  19.2  33730  282.32 0864.80
2015 04 09 09 50 26 .95      11    -43     11     45     47 164.9  14.3  33730  282.34 0864.80
2015 04 09 09 50 27 .20      15    -43     -5     46     47 160.0  -7.2  33654  281.07 0864.80
2015 04 09 09 50 27 .45      10    -43     -9     45     46 166.6 -11.3  33622  280.52 0864.80
2015 04 09 09 50 27 .71      10    -52     -9     54     55 168.4 -10.3  33600  280.15 0864.80
2015 04 09 09 50 27 .96       7    -51     -6     52     53 172.0  -7.3  33602  280.18 0864.80
2015 04 09 09 50 28 .21       0    -62     -8     63     64 180.0  -7.2  33616  280.43 0864.80
2015 04 09 09 50 28 .46       5    -64     -8     65     66 175.5  -7.2  33602  280.18 0864.80
2015 04 09 09 50 28 .71       0    -65    -10     66     67 180.0  -9.3  33604  280.22 0864.80
2015 04 09 09 50 28 .96      -1    -62     -5     63     64 181.8  -5.2  33614  280.40 0864.80
2015 04 09 09 50 29 .21      -1    -53     -2     54     55 181.8  -2.2  33608  280.30 0864.80
2015 04 09 09 50 29 .46      -5    -49     -1     50     51 186.2  -2.2  33608  280.30 0864.80
2015 04 09 09 50 29 .71      -7    -52     18     53     57 188.0  19.4  33656  281.09 0864.80
2015 04 09 09 50 29 .97     -15    -50     10     53     54 196.9  11.0  33656  281.10 0864.80
2015 04 09 09 50 30 .21      -9    -44      8     46     47 192.5  10.1  33662  281.19 0864.80
2015 04 09 09 50 30 .46      10    -54     -6     55     56 169.3  -6.2  33618  280.45 0864.80
2015 04 09 09 50 30 .71      16    -48     -2     51     52 161.7  -2.2  33610  280.33 0864.80
2015 04 09 09 50 30 .96      18    -53     -8     57     58 161.3  -8.2  33612  280.37 0864.80
2015 04 09 09 50 31 .22       6    -57     -7     58     59 173.8  -7.3  33614  280.38 0864.79
2015 04 09 09 50 31 .46       2    -49    -12     50     52 177.3 -13.4  33614  280.38 0864.79
2015 04 09 09 50 31 .72      -2    -54     -6     55     56 182.7  -6.2  33616  280.42 0864.79
2015 04 09 09 50 31 .97      -3    -53      2     54     55 183.6   2.8  33614  280.38 0864.79
2015 04 09 09 50 32 .22      -3    -53     -6     54     55 183.6  -7.2  33612  280.37 0864.79
2015 04 09 09 50 32 .48      -6    -49     -1     50     51 188.0  -1.3  33614  280.40 0864.79
2015 04 09 09 50 32 .74      -7    -46      2     47     48 189.8   2.9  33640  280.82 0864.79
2015 04 09 09 50 32 .98       0    -31     20     32     37 179.1  35.5  33690  281.67 0864.80
2015 04 09 09 50 33 .23       7    -36     27     37     45 168.4  39.7  33676  281.44 0864.80
2015 04 09 09 50 33 .48      11    -35     13     37     40 161.3  19.4  33660  281.15 0864.80
2015 04 09 09 50 33 .73       9    -27     11     29     31 160.0  21.0  33616  280.43 0864.80
2015 04 09 09 50 33 .98      16    -36     16     40     43 156.4  22.0  33610  280.33 0864.80
2015 04 09 09 50 34 .23      18    -30     -1     36     37 149.3  -2.2  33608  280.28 0864.80
2015 04 09 09 50 34 .48      27    -39     -7     48     49 145.7  -8.2  33608  280.28 0864.80
2015 04 09 09 50 34 .73      32    -35     -1     48     49 137.7  -1.3  33608  280.30 0864.80
2015 04 09 09 50 34 .99      23    -26     -9     35     37 138.6 -15.4  33612  280.37 0864.80
2015 04 09 09 50 35 .23      33    -17    -14     38     40 117.1 -25.4  33614  280.38 0864.80
2015 04 09 09 50 35 .49      33    -21    -14     40     43 122.4 -19.7  33608  280.30 0864.80
2015 04 09 09 50 35 .74      24    -27     -1     37     38 138.6  -2.2  33610  280.33 0864.80
2015 04 09 09 50 35 .99       6    -19     -5     21     22 161.5 -15.5  33610  280.33 0864.80
2015 04 09 09 50 36 .24      12    -31     -1     34     35 158.2  -2.2  33612  280.35 0864.80
2015 04 09 09 50 36 .49      16    -27      1     32     33 149.3   2.9  33616  280.43 0864.80
2015 04 09 09 50 36 .74      26    -13     10     30     32 117.1  18.9  33634  280.73 0864.79
2015 04 09 09 50 36 .99       2    -19     23     20     30 173.8  56.3  33684  281.55 0864.79
2015 04 09 09 50 37 .24       6    -20     26     22     34 161.5  54.3  33730  282.32 0864.79
2015 04 09 09 50 37 .49       4      0     17      5     17  90.0  80.7  33722  282.21 0864.79
2015 04 09 09 50 37 .74      -4     -5     20      7     21 223.4  81.0  33724  282.24 0864.79
2015 04 09 09 50 37 .99     -14    -37     24     40     46 201.8  34.4  33682  281.52 0864.79
2015 04 09 09 50 38 .25     -15    -44     17     47     49 198.7  20.0  33682  281.54 0864.79
2015 04 09 09 50 38 .49     -23    -35     22     42     47 213.4  30.3  33688  281.64 0864.80
2015 04 09 09 50 38 .74     -24    -36     23     44     49 214.3  29.3  33666  281.27 0864.80
2015 04 09 09 50 38 .99     -25    -40     33     48     58 212.6  36.5  33662  281.20 0864.80
2015 04 09 09 50 39 .25     -25    -39     33     47     57 212.6  38.6  33676  281.42 0864.80
2015 04 09 09 50 39 .50     -36    -36     42     51     66 225.0  43.7  33672  281.37 0864.80
2015 04 09 09 50 39 .75     -27    -35     31     45     54 217.0  37.6  33662  281.19 0864.80
2015 04 09 09 50 40 .00     -23    -44     22     50     54 208.1  26.2  33624  280.57 0864.80
2015 04 09 09 50 40 .26     -31    -40     22     51     55 217.8  25.1  33624  280.57 0864.80
2015 04 09 09 50 40 .51     -31    -40     29     51     58 217.8  33.5  33630  280.65 0864.80
2015 04 09 09 50 40 .76     -29    -37     16     48     51 217.8  19.4  33636  280.75 0864.80
2015 04 09 09 50 41 .01     -28    -35     15     45     48 218.7  18.9  33642  280.87 0864.80
2015 04 09 09 50 41 .26     -23    -34     14     42     45 214.3  19.2  33638  280.80 0864.80
2015 04 09 09 50 41 .51     -26    -49     16     56     59 208.1  16.3  33642  280.87 0864.80
2015 04 09 09 50 41 .76     -19    -40     24     45     51 206.3  30.3  33650  281.00 0864.80
2015 04 09 09 50 42 .01     -32    -38     17     50     54 220.5  19.2  33646  280.92 0864.80
2015 04 09 09 50 42 .26     -24    -38     20     46     50 212.5  26.2  33644  280.90 0864.80
2015 04 09 09 50 42 .51     -22    -34      8     41     42 213.4  12.2  33654  281.07 0864.80
2015 04 09 09 50 42 .76     -22    -34      8     41     42 213.4  12.2  33648  280.97 0864.80
2015 04 09 09 50 43 .01     -16    -39     28     43     51 202.7  35.6  33644  280.90 0864.80
2015 04 09 09 50 43 .27     -25    -47     33     54     63 208.1  34.4  33650  281.00 0864.80
2015 04 09 09 50 43 .51     -32    -39     25     51     56 219.7  27.3  33666  281.25 0864.80
2015 04 09 09 50 43 .76     -23    -41     16     48     51 209.0  18.4  33638  280.80 0864.80
2015 04 09 09 50 44 .02     -38    -53     12     66     68 216.0  11.0  33640  280.82 0864.80
2015 04 09 09 50 44 .26     -37    -50      0     63     64 216.1  -0.3  33654  281.05 0864.80
2015 04 09 09 50 44 .51     -42    -45    -10     62     63 223.3  -9.3  33636  280.77 0864.80
2015 04 09 09 50 44 .77     -32    -43     -1     54     55 217.0  -1.3  33640  280.82 0864.80
2015 04 09 09 50 45 .02     -16    -50     12     53     55 198.3  13.2  33658  281.14 0864.80
2015 04 09 09 50 45 .27     -23    -54     20     59     63 203.6  19.4  33672  281.35 0864.80
2015 04 09 09 50 45 .52     -23    -44     29     50     57 208.1  33.5  33682  281.52 0864.80
2015 04 09 09 50 45 .77     -34    -48     24     59     63 215.2  23.0  33662  281.20 0864.80
2015 04 09 09 50 46 .02     -29    -53     21     61     65 208.9  18.9  33630  280.67 0864.80
2015 04 09 09 50 46 .27     -27    -52      9     59     60 208.1   9.0  33650  281.00 0864.80
2015 04 09 09 50 46 .53     -30    -42     18     52     56 216.1  18.9  33648  280.95 0864.80
2015 04 09 09 50 46 .78     -55    -25      5     61     62 244.8   4.9  33636  280.75 0864.80
2015 04 09 09 50 47 .03     -80     -3    -11     81     82 267.4  -8.2  33634  280.72 0864.80
2015 04 09 09 50 47 .28     -82    -27    -11     87     88 251.4  -7.2  33660  281.17 0864.80
2015 04 09 09 50 47 .54     -80    -27    -25     85     89 251.4 -17.0  33628  280.62 0864.80
2015 04 09 09 50 47 .78     -79    -32    -24     86     90 247.8 -15.5  33626  280.58 0864.80
2015 04 09 09 50 48 .04     -63    -59     -6     87     88 226.9  -4.1  33652  281.02 0864.80
2015 04 09 09 50 48 .29     -67    -79      5    104    105 220.5   2.8  33660  281.15 0864.79
2015 04 09 09 50 48 .54     -41    -64     39     77     86 212.5  29.3  33658  281.14 0864.79
2015 04 09 09 50 48 .79     -42    -50     43     66     78 220.5  35.6  33670  281.34 0864.79
2015 04 09 09 50 49 .04     -37    -58     34     70     77 212.6  27.3  33662  281.19 0864.79
2015 04 09 09 50 49 .29     -52    -41     66     67     94 231.4  50.5  33696  281.75 0864.79
2015 04 09 09 50 49 .54     -32    -27     40     43     58 229.6  49.0  33696  281.75 0864.79
2015 04 09 09 50 49 .79       6    -11     46     13     47 151.0  83.9  33740  282.49 0864.79
2015 04 09 09 50 50 .04      18     -3     26     19     32 101.5  60.5  33754  282.72 0864.79
2015 04 09 09 50 50 .29     -41      0    -13     42     43 270.8 -22.8  33710  281.99 0864.80
2015 04 09 09 50 50 .54     -25     -8     33     27     42 251.4  55.4  33736  282.44 0864.80
2015 04 09 09 50 50 .79     -47    -35     54     59     79 233.1  47.9  33710  282.00 0864.80
2015 04 09 09 50 51 .04     -42    -43     31     61     68 224.1  28.2  33716  282.11 0864.80
2015 04 09 09 50 51 .29     -44    -33     18     55     58 233.1  18.4  33718  282.14 0864.80
2015 04 09 09 50 51 .54     -42    -50     44     66     79 219.6  37.0  33698  281.80 0864.80
2015 04 09 09 50 51 .79     -59    -38     57     71     91 237.5  43.7  33704  281.90 0864.80
2015 04 09 09 50 52 .04     -27    -41     54     50     73 213.4  52.1  33700  281.84 0864.80
2015 04 09 09 50 52 .29     -19    -40     44     45     62 206.3  50.0  33682  281.54 0864.80
2015 04 09 09 50 52 .55     -41    -42     18     59     62 224.1  17.3  33698  281.80 0864.80
2015 04 09 09 50 52 .80     -43      6     15     44     47 277.9  19.2  33704  281.89 0864.79
2015 04 09 09 50 53 .04     -64      1    -18     65     68 271.7 -15.4  33650  281.00 0864.79
2015 04 09 09 50 53 .29     -94     -7    -21     95     98 265.6 -12.4  33628  280.62 0864.79
2015 04 09 09 50 53 .56    -100    -23    -19    103    105 256.7 -10.9  33642  280.85 0864.79
2015 04 09 09 50 53 .81     -92     -4    -18     93     95 267.0 -11.3  33632  280.70 0864.79
2015 04 09 09 50 54 .05     -86      7    -25     87     90 275.2 -20.7  33646  280.93 0864.79
2015 04 09 09 50 54 .30     -81      0    -29     82     88 270.0 -19.7  33640  280.82 0864.79
2015 04 09 09 50 54 .56     -92      0    -25     93     97 270.4 -15.0  33624  280.55 0864.79
2015 04 09 09 50 54 .81    -107     -8    -30    108    113 265.6 -15.4  33628  280.63 0864.79
2015 04 09 09 50 55 .06     -90     -6    -15     91     93 265.6  -9.8  33640  280.83 0864.79
2015 04 09 09 50 55 .31     -80     -6     12     81     83 265.6   9.0  33640  280.82 0864.79
2015 04 09 09 50 55 .56    -101     -7    -31    102    107 265.7 -17.0  33616  280.42 0864.79
2015 04 09 09 50 55 .81    -103     -1    -37    104    111 269.2 -19.6  33616  280.42 0864.79
2015 04 09 09 50 56 .06    -103      1    -35    104    110 270.8 -18.7  33614  280.38 0864.79
2015 04 09 09 50 56 .31    -101      0    -31    102    107 270.0 -17.0  33612  280.37 0864.79
2015 04 09 09 50 56 .56     -94     -2    -21     95     98 268.7 -12.4  33612  280.37 0864.79
2015 04 09 09 50 56 .82     -88     -6    -20     89     92 266.1 -12.9  33612  280.37 0864.79
2015 04 09 09 50 57 .07     -93      0    -19     94     96 270.0 -11.5  33636  280.75 0864.79
2015 04 09 09 50 57 .32    -113     -6    -10    114    115 266.5  -5.2  33636  280.75 0864.79
2015 04 09 09 50 57 .57    -108     -8    -22    109    112 265.6 -11.3  33622  280.52 0864.79
2015 04 09 09 50 57 .82    -104     -6    -27    105    109 266.5 -14.5  33622  280.52 0864.79
2015 04 09 09 50 58 .07     -96     -8    -34     97    103 264.8 -19.6  33622  280.53 0864.79
2015 04 09 09 50 58 .32    -110    -20    -24    112    115 259.4 -12.4  33624  280.55 0864.79
2015 04 09 09 50 58 .57    -105     -1    -22    106    109 269.1 -11.9  33626  280.58 0864.79
2015 04 09 09 50 58 .82    -103     20    -24    105    108 281.0 -12.9  33624  280.55 0864.79
2015 04 09 09 50 59 .08    -103     54    -14    117    118 298.0  -7.2  33656  281.10 0864.79
2015 04 09 09 50 59 .32     -75     46      5     89     90 301.5   3.3  33638  280.80 0864.79
2015 04 09 09 50 59 .57     -91     17    -18     93     95 281.0 -11.3  33616  280.43 0864.79
2015 04 09 09 50 59 .82    -104     32     -6    109    110 287.3  -3.2  33624  280.57 0864.79
2015 04 09 09 51 00 .07    -104      1    -13    105    106 270.8  -7.3  33642  280.85 0864.79
2015 04 09 09 51 00 .33     -92      4    -10     93     94 273.0  -6.7  33626  280.58 0864.79
2015 04 09 09 51 00 .58     -78     28     -3     83     84 290.0  -2.2  33634  280.72 0864.79
2015 04 09 09 51 00 .84     -93     22    -12     96     97 283.7  -7.3  33640  280.82 0864.79
2015 04 09 09 51 01 .08     -91     28    -10     96     97 287.3  -6.2  33632  280.68 0864.80
2015 04 09 09 51 01 .34     -82     25    -11     86     87 287.3  -7.3  33630  280.67 0864.80
2015 04 09 09 51 01 .59     -85     -5     -8     86     87 266.5  -5.6  33672  281.37 0864.80
2015 04 09 09 51 01 .84     -64      0     -8     65     66 269.2  -7.3  33656  281.10 0864.80
2015 04 09 09 51 02 .09     -61     20     -3     65     66 288.4  -3.1  33670  281.32 0864.80
2015 04 09 09 51 02 .34     -56      4      0     57     58 274.4   0.8  33650  281.00 0864.80
2015 04 09 09 51 02 .59     -88     35     -4     95     96 291.7  -2.6  33642  280.85 0864.80
2015 04 09 09 51 02 .84     -73     35     -3     82     83 295.8  -2.2  33644  280.90 0864.80
2015 04 09 09 51 03 .09     -65     31      8     73     74 295.4   6.9  33650  281.00 0864.80
2015 04 09 09 51 03 .34    -115      0    -11    116    117 269.6  -5.6  33630  280.67 0864.80
2015 04 09 09 51 03 .59     -96      0    -13     97     98 269.6  -7.7  33632  280.70 0864.80
2015 04 09 09 51 03 .84    -108      4     -4    109    110 272.6  -2.2  33642  280.87 0864.80
2015 04 09 09 51 04 .09     -77     21    -15     80     82 285.5 -10.9  33646  280.92 0864.80
2015 04 09 09 51 04 .34     -50     18    -15     54     57 290.0 -15.4  33646  280.92 0864.80
2015 04 09 09 51 04 .60     -33     -6      2     34     35 258.5   4.9  33664  281.24 0864.80
2015 04 09 09 51 04 .85     -16      5      9     17     19 288.2  31.4  33698  281.80 0864.80
2015 04 09 09 51 05 .09      -6    -20     33     21     39 196.9  64.7  33706  281.92 0864.80
2015 04 09 09 51 05 .35     -71    -56     -5     91     92 231.4  -3.7  33656  281.09 0864.80
2015 04 09 09 51 05 .59     -89    -61      4    109    110 235.4   2.3  33656  281.10 0864.80
2015 04 09 09 51 05 .84    -104    -70     -4    126    127 235.8  -2.2  33656  281.09 0864.80
2015 04 09 09 51 06 .10    -106    -74      0    130    131 234.9   0.2  33652  281.04 0864.80
2015 04 09 09 51 06 .35    -106    -49     -4    117    118 245.2  -2.2  33674  281.40 0864.80
2015 04 09 09 51 06 .60    -116    -41    -13    124    125 250.5  -6.2  33680  281.49 0864.80
2015 04 09 09 51 06 .85     -93     -7     -3     94     95 265.6  -2.2  33670  281.34 0864.80
2015 04 09 09 51 07 .10     -66    -55     -3     87     88 230.0  -2.2  33682  281.54 0864.80
2015 04 09 09 51 07 .36     -68    -83     34    108    114 219.6  17.4  33698  281.80 0864.80
2015 04 09 09 51 07 .61    -106    -33    -10    112    113 252.7  -5.6  33706  281.94 0864.80
2015 04 09 09 51 07 .86     -67    -55    -15     88     90 230.5  -9.8  33700  281.84 0864.80
2015 04 09 09 51 08 .11     -89    -59     -2    107    108 236.3  -1.3  33700  281.82 0864.80
2015 04 09 09 51 08 .36    -145    -68     -8    161    162 244.8  -3.1  33676  281.44 0864.80
2015 04 09 09 51 08 .61    -102   -116     29    155    158 221.4  10.6  33688  281.64 0864.80
2015 04 09 09 51 08 .86    -109   -116     32    160    164 223.4  11.4  33696  281.75 0864.80
2015 04 09 09 51 09 .11    -138    -93      3    167    168 235.8   1.2  33676  281.44 0864.80
2015 04 09 09 51 09 .37    -130    -87     -1    157    158 236.3  -0.5  33668  281.29 0864.79
2015 04 09 09 51 09 .61    -137    -81      2    160    161 239.3   0.8  33684  281.57 0864.79
2015 04 09 09 51 09 .87    -121    -82      0    147    148 235.9  -0.3  33662  281.19 0864.79
2015 04 09 09 51 10 .11    -137   -123      5    185    186 228.0   1.8  33664  281.22 0864.79
2015 04 09 09 51 10 .37    -161    -98      5    189    190 238.7   1.6  33652  281.02 0864.79
2015 04 09 09 51 10 .62    -156   -118     -2    196    197 232.9  -0.7  33630  280.67 0864.79
2015 04 09 09 51 10 .87    -133   -125      0    183    184 226.8   0.0  33620  280.48 0864.79
2015 04 09 09 51 11 .12    -132   -104    -15    169    170 231.6  -5.2  33616  280.42 0864.79
2015 04 09 09 51 11 .37    -142    -66    -46    157    164 244.8 -16.4  33610  280.33 0864.79
2015 04 09 09 51 11 .62    -128    -90    -23    157    159 234.9  -8.6  33612  280.37 0864.79
2015 04 09 09 51 11 .87    -140    -77    -34    160    164 241.2 -12.2  33612  280.37 0864.79
2015 04 09 09 51 12 .12    -129    -81    -29    153    156 238.0 -10.9  33622  280.52 0864.79
2015 04 09 09 51 12 .38    -138   -168     33    218    221 219.4   8.8  33700  281.84 0864.79
2015 04 09 09 51 12 .62    -128   -141     16    191    192 222.1   4.9  33686  281.60 0864.79
2015 04 09 09 51 12 .87    -114   -129     13    173    174 221.4   4.4  33656  281.10 0864.79
2015 04 09 09 51 13 .12    -110   -106      0    153    154 226.0  -0.3  33652  281.04 0864.79
2015 04 09 09 51 13 .37    -111    -96    -31    148    152 229.1 -11.9  33614  280.38 0864.79
2015 04 09 09 51 13 .62    -109   -114    -23    159    161 223.7  -8.2  33582  279.87 0864.79
2015 04 09 09 51 13 .87    -123   -107    -28    164    167 228.9  -9.8  33594  280.05 0864.78
2015 04 09 09 51 14 .12    -114   -122    -27    168    171 223.0  -9.3  33578  279.78 0864.78
2015 04 09 09 51 14 .38    -109   -127    -44    168    174 220.8 -14.7  33574  279.72 0864.78
2015 04 09 09 51 14 .64    -103   -119    -47    158    164 221.0 -21.7  33590  280.00 0864.78
2015 04 09 09 51 14 .89     -83   -116    -37    143    148 215.6 -14.5  33592  280.03 0864.78
2015 04 09 09 51 15 .14     -43    -94     -2    104    105 204.9  -1.3  33622  280.53 0864.78
2015 04 09 09 51 15 .39     -38   -130     67    136    151 196.5  27.3  33684  281.57 0864.78
2015 04 09 09 51 15 .64     -64   -101     77    120    142 212.5  35.6  33700  281.82 0864.78
2015 04 09 09 51 15 .88     -77    -67     -6    103    104 229.1  -3.7  33640  280.82 0864.78
2015 04 09 09 51 16 .14     -70   -114      6    134    135 211.6   2.9  33626  280.58 0864.78
2015 04 09 09 51 16 .39     -89   -101      6    135    136 221.4   2.9  33632  280.70 0864.78
2015 04 09 09 51 16 .64     -83   -129      3    154    155 213.0   1.2  33630  280.67 0864.78
2015 04 09 09 51 16 .89     -92   -130     -8    160    161 215.2  -3.1  33624  280.57 0864.78
2015 04 09 09 51 17 .14     -91   -138      3    166    167 213.6   1.2  33634  280.72 0864.78
2015 04 09 09 51 17 .40     -79   -139     37    160    165 209.6  13.2  33658  281.14 0864.79
2015 04 09 09 51 17 .64    -101   -122     16    159    160 219.6   5.9  33636  280.75 0864.79
2015 04 09 09 51 17 .89    -111   -118     -4    163    164 223.2  -1.6  33620  280.48 0864.79
2015 04 09 09 51 18 .14    -106   -115    -23    157    159 222.8  -8.6  33612  280.37 0864.79
2015 04 09 09 51 18 .39    -117    -96    -19    152    154 230.5  -7.3  33610  280.33 0864.79
2015 04 09 09 51 18 .64    -107   -103    -35    149    154 226.0 -13.4  33600  280.15 0864.79
2015 04 09 09 51 18 .89    -113    -99    -41    151    157 228.6 -15.4  33598  280.13 0864.79
2015 04 09 09 51 19 .15    -119    -97    -42    154    160 230.9 -15.5  33604  280.23 0864.79
2015 04 09 09 51 19 .40    -110    -85    -34    140    145 232.3 -13.9  33608  280.28 0864.79
2015 04 09 09 51 19 .65    -123   -101     -6    160    161 230.5  -2.3  33626  280.60 0864.79
2015 04 09 09 51 19 .89    -120   -108     -7    162    163 227.8  -2.8  33620  280.50 0864.79
2015 04 09 09 51 20 .15    -107   -126    -11    166    167 220.5  -3.9  33620  280.48 0864.79
2015 04 09 09 51 20 .40     -91    -98    -17    134    136 222.8  -7.2  33620  280.48 0864.79
2015 04 09 09 51 20 .65     -88    -98     -9    132    133 221.9  -4.1  33616  280.43 0864.79
2015 04 09 09 51 20 .90    -101   -122    -12    159    160 219.6  -4.4  33608  280.28 0864.79
2015 04 09 09 51 21 .16     -93   -128      3    159    160 216.0   1.2  33606  280.27 0864.79
2015 04 09 09 51 21 .41     -80   -125      2    149    150 212.5   0.8  33606  280.25 0864.79
2015 04 09 09 51 21 .66     -69   -108     18    129    131 212.6   8.0  33610  280.32 0864.79
2015 04 09 09 51 21 .91     -70    -95     12    119    120 216.5   5.9  33608  280.28 0864.79
2015 04 09 09 51 22 .16     -82   -115    -12    142    143 215.6  -5.2  33606  280.27 0864.79
2015 04 09 09 51 22 .41     -81   -119    -27    145    148 214.2 -10.9  33604  280.23 0864.79
2015 04 09 09 51 22 .66     -84    -95    -23    128    131 221.5 -10.3  33600  280.15 0864.79
2015 04 09 09 51 22 .91     -79    -95    -16    124    126 219.7  -7.7  33602  280.20 0864.79
2015 04 09 09 51 23 .16     -63    -98     -6    117    118 212.6  -3.1  33606  280.27 0864.79
2015 04 09 09 51 23 .42     -64   -101    -32    120    125 212.6 -15.0  33602  280.18 0864.79
2015 04 09 09 51 23 .67     -59   -111    -21    126    128 208.1  -9.8  33600  280.15 0864.79
2015 04 09 09 51 23 .92     -64   -108    -16    126    128 210.8  -7.3  33608  280.28 0864.79
2015 04 09 09 51 24 .17     -66   -103    -11    123    124 212.6  -5.2  33608  280.28 0864.79
2015 04 09 09 51 24 .42     -77    -95    -21    123    125 219.2  -9.8  33604  280.23 0864.79
2015 04 09 09 51 24 .67     -74    -99    -24    124    127 217.0 -11.3  33602  280.18 0864.79
2015 04 09 09 51 24 .92     -71    -97    -31    121    125 216.1 -14.5  33598  280.13 0864.78
2015 04 09 09 51 25 .17     -84    -74    -40    113    121 228.7 -19.7  33598  280.13 0864.78
2015 04 09 09 51 25 .42     -83    -79    -39    115    122 226.4 -18.7  33600  280.17 0864.78
2015 04 09 09 51 25 .67     -81    -76    -33    112    116 226.9 -21.7  33596  280.10 0864.78
2015 04 09 09 51 25 .92     -85    -62    -29    106    110 234.1 -15.4  33618  280.47 0864.78
2015 04 09 09 51 26 .17     -85    -75    -11    114    115 228.7  -5.6  33616  280.43 0864.78
2015 04 09 09 51 26 .42     -91    -71    -11    116    117 231.8  -5.6  33630  280.65 0864.78
2015 04 09 09 51 26 .67     -94    -73    -24    120    123 232.2 -11.5  33620  280.48 0864.78
2015 04 09 09 51 26 .93     -94    -70    -23    118    121 233.1 -11.3  33640  280.82 0864.78
2015 04 09 09 51 27 .17     -92    -76    -23    120    123 230.5 -10.9  33648  280.97 0864.78
2015 04 09 09 51 27 .42     -85    -75     -4    114    115 228.7  -2.2  33646  280.93 0864.78
2015 04 09 09 51 27 .68     -74    -71     -5    103    104 226.0  -3.1  33644  280.90 0864.78
2015 04 09 09 51 27 .92    -122    -23    -21    125    127 259.0  -9.8  33646  280.92 0864.78
2015 04 09 09 51 28 .19    -123    -16    -34    125    130 262.5 -15.4  33630  280.65 0864.78
2015 04 09 09 51 28 .44    -126     -1    -26    127    130 269.2 -11.9  33642  280.87 0864.78
2015 04 09 09 51 28 .69    -112     -4    -35    113    119 267.9 -17.6  33654  281.07 0864.78
2015 04 09 09 51 28 .93    -117     -1    -23    118    121 269.2 -11.3  33666  281.25 0864.78
2015 04 09 09 51 29 .19    -111      0    -16    112    114 270.4  -8.2  33656  281.09 0864.78
2015 04 09 09 51 29 .44     -96    -16    -33     98    104 260.3 -19.1  33654  281.05 0864.78
2015 04 09 09 51 29 .69    -108    -29    -18    112    114 254.9  -9.3  33662  281.20 0864.78
2015 04 09 09 51 29 .94    -113    -11    -37    114    120 264.3 -18.1  33658  281.14 0864.78
2015 04 09 09 51 30 .19    -120      5    -36    121    127 272.5 -16.6  33634  280.72 0864.78
2015 04 09 09 51 30 .45    -119      8    -49    120    129 274.3 -27.4  33648  280.95 0864.78
2015 04 09 09 51 30 .69    -114      0    -31    115    120 269.6 -15.0  33662  281.19 0864.78
2015 04 09 09 51 30 .94    -122     -5    -33    123    128 267.5 -15.0  33656  281.09 0864.78
2015 04 09 09 51 31 .20    -106    -35    -26    112    116 251.6 -13.4  33660  281.17 0864.78
2015 04 09 09 51 31 .44    -105      0    -42    106    114 270.4 -26.9  33634  280.72 0864.78
2015 04 09 09 51 31 .70    -119      0    -49    120    129 270.4 -27.4  33638  280.80 0864.78
2015 04 09 09 51 31 .95    -127      5    -49    128    137 272.5 -25.9  33640  280.83 0864.78
2015 04 09 09 51 32 .19    -129      5    -31    130    134 272.5 -13.4  33652  281.02 0864.78
2015 04 09 09 51 32 .44    -137      8    -46    138    145 273.5 -23.6  33650  280.99 0864.78
2015 04 09 09 51 33 .20    -107     30    -39    112    119 285.9 -19.6  33654  281.05 0864.78
2015 04 09 09 51 33 .45    -113     11    -31    114    119 275.7 -15.5  33652  281.04 0864.78
2015 04 09 09 51 33 .70    -127     -7    -19    128    130 266.5  -8.8  33650  281.00 0864.78
2015 04 09 09 51 33 .95    -112    -29    -16    116    118 255.4  -8.2  33664  281.24 0864.78
2015 04 09 09 51 34 .20     -98    -81      4    128    129 230.5   1.8  33680  281.49 0864.78
2015 04 09 09 51 34 .45    -104    -91     -3    139    140 228.7  -1.3  33674  281.40 0864.78
2015 04 09 09 51 34 .70     -95    -93      0    133    134 225.6  -0.3  33702  281.85 0864.78
2015 04 09 09 51 34 .95     -89    -73      1    116    117 230.5   0.8  33696  281.75 0864.78
2015 04 09 09 51 35 .21     -92    -98     49    135    143 223.2  20.9  33658  281.14 0864.78
2015 04 09 09 51 35 .46     -87    -87     43    124    132 225.0  19.4  33650  281.00 0864.78
2015 04 09 09 51 35 .72     -56    -68     57     89    105 219.6  35.6  33668  281.29 0864.78
2015 04 09 09 51 35 .96     -53    -55     53     77     93 224.1  37.6  33702  281.85 0864.78
2015 04 09 09 51 36 .22     -33    -42     32     54     62 218.7  33.5  33702  281.87 0864.78
2015 04 09 09 51 36 .47     -39    -51     63     65     90 217.8  49.4  33722  282.21 0864.78
2015 04 09 09 51 36 .72     -13      5     60     14     61 291.7  86.9  33740  282.51 0864.78
2015 04 09 09 51 36 .96      -6     13     37     15     39 334.6  76.1  33742  282.54 0864.78
2015 04 09 09 51 37 .21     -21     29     25     37     44 323.9  36.5  33734  282.39 0864.78
2015 04 09 09 51 37 .47       4      5     31      7     31  39.6  89.0  33752  282.69 0864.78
2015 04 09 09 51 37 .72       0     -7     40      8     40 182.7  89.0  33756  282.77 0864.78
2015 04 09 09 51 37 .97      -1    -18     44     19     47 184.4  76.1  33754  282.72 0864.78
2015 04 09 09 51 38 .22      -5     16     41     17     44 341.3  77.1  33758  282.79 0864.78
2015 04 09 09 51 38 .47     -25     13     40     29     49 297.1  60.5  33744  282.57 0864.78
2015 04 09 09 51 38 .72     -25     22     47     34     58 311.3  60.5  33750  282.66 0864.78
2015 04 09 09 51 38 .97      -8      2     42      9     42 288.4  89.0  33772  283.03 0864.78
2015 04 09 09 51 39 .22       1     -4      9      5     10 161.5  68.8  33764  282.89 0864.78
2015 04 09 09 51 39 .47     -46      1    -38     47     60 271.7 -48.1  33716  282.11 0864.78
2015 04 09 09 51 39 .72     -82     20    -13     85     86 283.7  -8.8  33642  280.85 0864.78
2015 04 09 09 51 39 .98     -89     33     -5     96     97 290.4  -3.1  33630  280.65 0864.78
2015 04 09 09 51 40 .23     -65     25    -10     70     71 291.7  -8.2  33684  281.55 0864.79
2015 04 09 09 51 40 .47     -48     17     30     52     60 290.0  32.4  33696  281.77 0864.79
2015 04 09 09 51 40 .73     -39      0     13     40     43 269.2  18.4  33686  281.59 0864.79
2015 04 09 09 51 40 .98     -11     16      2     20     21 325.7   6.9  33696  281.77 0864.79
2015 04 09 09 51 41 .23     -18      0     20     19     27 270.8  48.2  33700  281.82 0864.79
2015 04 09 09 51 41 .48       2      8     16      9     18  18.5  68.8  33706  281.92 0864.79
2015 04 09 09 51 41 .73     -16     24    -12     30     32 325.7 -27.4  33692  281.70 0864.79
2015 04 09 09 51 41 .99      -7      6     25     10     26 309.5  79.2  33734  282.39 0864.79
2015 04 09 09 51 42 .23     -17      9     14     20     24 298.9  39.7  33726  282.27 0864.79
2015 04 09 09 51 42 .49     -18      1      6     19     21 274.4  19.2  33700  281.84 0864.79
2015 04 09 09 51 42 .74     -11      0      7     12     13 269.2  31.4  33656  281.10 0864.79
2015 04 09 09 51 43 .00      -3      3     13      5     13 316.6  81.2  33674  281.39 0864.79
2015 04 09 09 51 43 .24       0    -23     33     24     40 180.9  60.5  33738  282.46 0864.79
2015 04 09 09 51 43 .49     -10     -5     42     12     43 244.7  82.8  33752  282.71 0864.79
2015 04 09 09 51 43 .74      -7     -3     27      8     28 244.7  80.7  33744  282.57 0864.79
2015 04 09 09 51 43 .99      -7    -15     25     17     30 205.4  62.6  33740  282.51 0864.79
2015 04 09 09 51 44 .24     -22    -27     35     36     50 219.7  51.1  33732  282.36 0864.79
2015 04 09 09 51 44 .49     -46    -45     46     65     79 225.1  38.6  33740  282.49 0864.79
2015 04 09 09 51 44 .75     -47    -59     39     76     85 218.7  29.3  33748  282.62 0864.79
2015 04 09 09 51 44 .99     -41    -50     22     65     69 219.6  18.9  33750  282.66 0864.79
2015 04 09 09 51 45 .24     -40    -38     20     56     59 225.9  20.0  33742  282.54 0864.79
2015 04 09 09 51 45 .49     -82    -41      2     92     93 243.4   1.8  33674  281.39 0864.79
2015 04 09 09 51 45 .75     -75    -43      5     87     88 240.2   3.8  33624  280.57 0864.79
2015 04 09 09 51 46 .00     -55    -33     -2     65     66 238.5  -2.2  33630  280.67 0864.79
2015 04 09 09 51 46 .25     -55    -33     -2     65     66 238.5  -2.2  33634  280.72 0864.79
2015 04 09 09 51 46 .50     -34    -25      2     43     44 234.0   2.9  33646  280.93 0864.79
2015 04 09 09 51 46 .75     -29    -21     17     36     39 234.0  26.2  33664  281.24 0864.79
2015 04 09 09 51 47 .00     -36    -36     42     51     66 225.0  43.7  33696  281.77 0864.79
2015 04 09 09 51 47 .25     -40    -33     40     52     65 230.5  41.7  33724  282.22 0864.79
2015 04 09 09 51 47 .50     -36    -21     34     43     54 239.3  42.7  33724  282.24 0864.79
2015 04 09 09 51 47 .75     -38    -20     22     44     49 242.0  27.3  33738  282.47 0864.79
2015 04 09 09 51 48 .00     -34    -21     21     41     46 237.6  29.3  33734  282.39 0864.79
2015 04 09 09 51 48 .25     -32     11     -1     35     36 290.0  -3.1  33732  282.36 0864.79
2015 04 09 09 51 48 .50     -47      5     -1     48     49 276.1  -2.2  33688  281.62 0864.79
2015 04 09 09 51 48 .76     -66     -9     -8     67     68 262.1  -7.2  33632  280.70 0864.79
2015 04 09 09 51 49 .01     -72    -24    -19     77     80 251.4 -13.9  33648  280.95 0864.79
2015 04 09 09 51 49 .27     -80    -36    -12     88     89 245.6  -8.2  33654  281.05 0864.79
2015 04 09 09 51 49 .51     -84    -36    -11     92     93 246.5  -7.2  33656  281.09 0864.79
2015 04 09 09 51 49 .77     -81    -47    -22     94     97 239.8 -13.4  33656  281.09 0864.79
2015 04 09 09 51 50 .02     -92    -35     -5     99    100 249.2  -3.2  33656  281.09 0864.79
2015 04 09 09 51 50 .26     -96    -32    -20    102    105 251.4 -11.5  33652  281.02 0864.79
2015 04 09 09 51 50 .52    -100    -24    -13    103    104 256.3  -7.2  33648  280.97 0864.79
2015 04 09 09 51 50 .77     -80    -20    -10     83     84 255.8  -7.3  33662  281.19 0864.79
2015 04 09 09 51 51 .01     -97      0    -16     98    100 270.4  -9.8  33680  281.49 0864.79
2015 04 09 09 51 51 .27    -101     -4    -20    102    105 267.4 -11.5  33670  281.34 0864.79
2015 04 09 09 51 51 .52     -55    -19     11     59     61 250.9  11.1  33690  281.67 0864.79
2015 04 09 09 51 51 .77     -62     17     -5     65     66 285.9  -5.2  33674  281.39 0864.79
2015 04 09 09 51 52 .02     -97     11     -2     98     99 277.0  -1.3  33654  281.05 0864.79
2015 04 09 09 51 52 .27    -113     15    -28    115    119 277.9 -13.9  33666  281.25 0864.79
2015 04 09 09 51 52 .53     -71      5      7     72     73 274.3   5.9  33680  281.49 0864.79
2015 04 09 09 51 52 .77      -7     21     31     23     38 340.0  58.5  33704  281.90 0864.79
2015 04 09 09 51 53 .02      -4    -12     14     13     19 198.3  48.2  33704  281.90 0864.79
2015 04 09 09 51 53 .27     -87      4    -18     88     90 273.0 -11.9  33638  280.80 0864.79
2015 04 09 09 51 53 .53    -152    -26    -16    155    156 260.3  -6.2  33690  281.67 0864.79
2015 04 09 09 51 53 .78     -87    -47     10     99    100 241.6   5.9  33694  281.72 0864.79
2015 04 09 09 51 54 .02    -115    -68      7    134    135 239.3   3.3  33692  281.70 0864.79
2015 04 09 09 51 54 .28     -86    -83     10    120    121 226.0   5.0  33674  281.39 0864.79
2015 04 09 09 51 54 .53     -83    -68     23    108    111 230.5  12.2  33702  281.87 0864.79
2015 04 09 09 51 54 .77    -144    -63     -6    158    159 246.5  -2.2  33638  280.78 0864.79
2015 04 09 09 51 55 .03    -131    -57     -7    143    144 246.4  -3.2  33616  280.42 0864.79
2015 04 09 09 51 55 .28    -121    -64     -9    138    139 242.0  -4.1  33592  280.03 0864.79
2015 04 09 09 51 55 .53    -128    -62    -19    143    145 244.2  -7.7  33586  279.93 0864.79
2015 04 09 09 51 55 .78    -129    -51    -25    139    142 248.3 -10.3  33586  279.93 0864.79
2015 04 09 09 51 56 .04    -135    -64    -10    150    151 244.6  -4.1  33596  280.08 0864.79
2015 04 09 09 51 56 .29    -144    -68    -23    160    162 244.8  -8.2  33600  280.17 0864.79
2015 04 09 09 51 56 .54    -145    -59    -18    157    159 247.8  -6.7  33594  280.05 0864.79
2015 04 09 09 51 56 .79    -141    -56    -22    152    154 248.3  -8.2  33588  279.95 0864.79
2015 04 09 09 51 57 .04    -135    -54    -34    146    151 248.2 -13.3  33590  280.00 0864.79
2015 04 09 09 51 57 .30    -136    -54    -19    147    149 248.3  -7.7  33604  280.23 0864.79
2015 04 09 09 51 57 .55    -127    -42    -20    135    137 251.4  -8.8  33618  280.45 0864.79
2015 04 09 09 51 57 .81    -105    -67     -2    125    126 237.5  -1.3  33630  280.65 0864.79
2015 04 09 09 51 58 .04    -143    -52    -13    153    154 250.0  -5.1  33610  280.33 0864.79
2015 04 09 09 51 58 .30    -134    -63     -9    149    150 244.8  -3.7  33608  280.28 0864.79
2015 04 09 09 51 58 .54    -126    -62     -7    141    142 243.8  -3.1  33630  280.67 0864.79
2015 04 09 09 51 58 .79    -109    -50    -16    121    123 245.2  -7.7  33628  280.62 0864.79
2015 04 09 09 51 59 .05     -81    -32      4     88     89 248.3   2.9  33628  280.63 0864.79
2015 04 09 09 51 59 .30     -77     -5    -21     78     81 265.6 -15.5  33646  280.93 0864.79
2015 04 09 09 51 59 .55     -70      8     -9     71     72 277.0  -7.2  33644  280.90 0864.79
2015 04 09 09 51 59 .80     -74     15    -12     76     78 281.5  -9.3  33648  280.95 0864.79
2015 04 09 09 52 00 .05     -46    -20     13     51     53 246.5  14.3  33664  281.24 0864.79
2015 04 09 09 52 00 .30    -117    -46    -10    126    127 248.3  -4.6  33604  280.23 0864.79
2015 04 09 09 52 00 .55    -127    -41    -25    134    137 251.8 -10.9  33590  279.98 0864.79
2015 04 09 09 52 00 .80    -118    -48    -26    128    131 247.8 -11.9  33590  280.00 0864.79
2015 04 09 09 52 01 .05    -122    -36    -19    128    130 253.2  -8.8  33590  279.98 0864.79
2015 04 09 09 52 01 .30    -119    -40    -25    126    129 251.4 -11.3  33586  279.93 0864.79
2015 04 09 09 52 01 .55    -112    -42    -33    120    125 249.2 -15.5  33590  280.00 0864.79
2015 04 09 09 52 01 .80    -115    -50    -21    126    128 246.5  -9.8  33594  280.05 0864.79
2015 04 09 09 52 02 .05    -116    -39    -20    123    125 251.4  -9.3  33596  280.08 0864.79
2015 04 09 09 52 02 .30    -124    -44    -14    132    133 250.5  -6.2  33594  280.05 0864.79
2015 04 09 09 52 02 .55    -118    -36    -15    124    125 253.1  -7.2  33590  279.98 0864.79
2015 04 09 09 52 02 .80    -122    -36    -19    128    130 253.2  -8.8  33590  279.98 0864.79
2015 04 09 09 52 03 .07    -117    -42    -30    125    129 250.1 -13.9  33590  279.98 0864.79
2015 04 09 09 52 03 .31    -126    -58    -26    139    142 245.2 -10.9  33592  280.03 0864.79
2015 04 09 09 52 03 .57    -121    -52    -24    132    135 246.5 -10.3  33590  280.00 0864.79
2015 04 09 09 52 03 .82    -132    -57    -18    145    147 246.5  -7.3  33592  280.03 0864.79
2015 04 09 09 52 04 .07    -122    -53    -17    134    136 246.4  -7.2  33594  280.07 0864.79
2015 04 09 09 52 04 .32    -121    -44    -28    129    133 250.0 -12.4  33618  280.45 0864.79
2015 04 09 09 52 04 .57    -121    -48    -16    131    133 248.3  -7.3  33618  280.47 0864.79
2015 04 09 09 52 04 .82    -132    -52    -23    143    145 248.3  -9.3  33602  280.20 0864.79
2015 04 09 09 52 05 .07    -127    -42    -20    135    137 251.4  -8.8  33610  280.33 0864.79
2015 04 09 09 52 05 .33    -128    -32    -26    132    135 255.8 -11.5  33622  280.52 0864.79
2015 04 09 09 52 05 .57    -126     -1    -26    127    130 269.2 -11.9  33628  280.62 0864.79
2015 04 09 09 52 05 .82     -62    -34      7     71     72 241.1   5.9  33662  281.19 0864.79
2015 04 09 09 52 06 .07    -102    -17     -5    104    105 260.3  -3.1  33654  281.05 0864.79
2015 04 09 09 52 06 .32     -77    -13      0     79     80 260.3  -0.3  33660  281.15 0864.79
2015 04 09 09 52 06 .57    -120    -24    -29    123    127 258.5 -13.4  33616  280.43 0864.79
2015 04 09 09 52 06 .82    -128    -20    -30    130    134 260.8 -13.3  33608  280.28 0864.79
2015 04 09 09 52 07 .08    -120      0    -36    121    127 270.0 -16.6  33646  280.93 0864.79
2015 04 09 09 52 07 .33    -122     -7    -34    123    128 266.5 -15.5  33646  280.93 0864.79
2015 04 09 09 52 07 .58    -137     10    -23    138    141 274.3  -9.8  33642  280.85 0864.79
2015 04 09 09 52 07 .83    -123     27    -16    126    128 282.4  -7.2  33654  281.05 0864.79
2015 04 09 09 52 08 .07    -105    -19    -19    107    109 259.4 -10.3  33624  280.55 0864.79
2015 04 09 09 52 08 .33     -96    -26    -12    100    101 254.9  -7.3  33620  280.48 0864.79
2015 04 09 09 52 08 .59     -92    -34    -20     99    102 249.6 -11.5  33624  280.55 0864.79
2015 04 09 09 52 08 .83     -98    -20    -16    101    103 258.1  -9.3  33612  280.37 0864.79
2015 04 09 09 52 09 .08     -84    -20    -16     87     89 256.3 -10.9  33624  280.57 0864.79
2015 04 09 09 52 09 .33     -84     -8     -7     85     86 264.3  -5.2  33640  280.82 0864.78
2015 04 09 09 52 09 .58     -92    -19    -26     95     99 258.1 -15.4  33630  280.67 0864.78
2015 04 09 09 52 09 .84     -84      0     -1     85     86 270.0  -0.7  33644  280.90 0864.78
2015 04 09 09 52 10 .09     -67      0      3     68     69 270.8   2.8  33656  281.09 0864.78
2015 04 09 09 52 10 .34     -44    -36     -2     58     59 230.5  -2.2  33654  281.07 0864.78
2015 04 09 09 52 10 .59     -36    -42      7     56     57 220.5   8.0  33656  281.09 0864.78
2015 04 09 09 52 10 .85     -32    -51     26     61     66 212.5  23.1  33674  281.39 0864.78
2015 04 09 09 52 11 .09     -21     -7     18     23     29 250.0  43.7  33690  281.65 0864.79
2015 04 09 09 52 11 .35       4     -7      5      9     10 147.5  31.4  33696  281.75 0864.79
2015 04 09 09 52 11 .59     -23     -7     -1     25     26 251.6  -2.2  33698  281.80 0864.79
2015 04 09 09 52 11 .85     -58    -23    -29     63     69 248.2 -31.5  33684  281.55 0864.79
2015 04 09 09 52 12 .10     -78     15    -37     80     88 281.5 -30.6  33666  281.27 0864.79
2015 04 09 09 52 12 .35     -17     29     35     34     48 329.3  49.1  33696  281.75 0864.79
2015 04 09 09 52 12 .60       6     22     -7     24     26  16.9 -17.6  33696  281.77 0864.79
2015 04 09 09 52 12 .85     -19      1    -32     20     37 274.4 -69.1  33682  281.52 0864.79
2015 04 09 09 52 13 .10      -3     12      9     13     15 344.9  35.6  33708  281.95 0864.78
2015 04 09 09 52 13 .35     -14     19     19     24     30 323.9  43.7  33724  282.22 0864.78
2015 04 09 09 52 13 .60     -20    -16     -8     26     27 230.5 -23.8  33696  281.75 0864.78
2015 04 09 09 52 13 .85     -82    -37    -35     91     97 245.6 -25.9  33646  280.93 0864.78
2015 04 09 09 52 14 .10    -113     37    -18    119    121 288.2  -8.8  33630  280.67 0864.78
2015 04 09 09 52 14 .35    -127     58    -28    140    143 294.8 -11.3  33618  280.47 0864.78
2015 04 09 09 52 14 .60    -127     84    -31    153    157 303.7 -11.6  33614  280.38 0864.78
2015 04 09 09 52 14 .85    -144    110    -55    182    190 307.3 -22.1  33590  280.00 0864.78
2015 04 09 09 52 15 .10    -111     99    -74    150    167 311.8 -32.4  33586  279.93 0864.78
2015 04 09 09 52 15 .35    -108     78    -65    134    148 306.0 -31.7  33576  279.77 0864.78
2015 04 09 09 52 15 .60     -97     66    -61    118    132 304.2 -33.7  33584  279.88 0864.78
2015 04 09 09 52 15 .86     -98     55    -57    113    126 299.3 -33.6  33602  280.18 0864.78
2015 04 09 09 52 16 .12    -115     73    -40    137    142 302.5 -21.2  33644  280.90 0864.78
2015 04 09 09 52 16 .36    -122     58    -22    136    138 295.3  -9.4  33640  280.82 0864.78
2015 04 09 09 52 16 .61     -69     52     -4     87     88 307.3  -3.1  33660  281.17 0864.78
2015 04 09 09 52 16 .87     -62     31     -1     70     71 297.1  -1.3  33660  281.15 0864.79
2015 04 09 09 52 17 .12     -87     29    -29     92     97 288.6 -17.6  33670  281.32 0864.79
2015 04 09 09 52 17 .37     -91      8      0     92     93 275.2  -0.3  33670  281.32 0864.79
2015 04 09 09 52 17 .62     -44     -3     -1     45     46 265.6  -2.2  33680  281.49 0864.79
2015 04 09 09 52 17 .87     -11    -23     14     26     29 207.2  31.4  33690  281.65 0864.79
2015 04 09 09 52 18 .12     -91     17      4     93     94 281.0   2.9  33646  280.92 0864.79
2015 04 09 09 52 18 .37    -106      1    -18    107    109 270.8  -9.8  33630  280.65 0864.79
2015 04 09 09 52 18 .62     -99     -7    -35    100    105 265.6 -23.3  33638  280.80 0864.79
2015 04 09 09 52 18 .87    -101     23    -38    104    110 283.3 -25.4  33640  280.82 0864.79
2015 04 09 09 52 19 .12     -97     35    -49    104    114 290.0 -31.5  33632  280.70 0864.79
2015 04 09 09 52 19 .37     -95     39    -59    103    118 292.6 -36.8  33628  280.62 0864.79
2015 04 09 09 52 19 .62     -92     50    -57    105    119 298.8 -35.7  33636  280.75 0864.79
2015 04 09 09 52 19 .87     -92     43    -37    102    108 295.3 -24.8  33636  280.77 0864.79
2015 04 09 09 52 20 .13    -102     48    -22    113    116 295.2 -11.3  33630  280.67 0864.79
2015 04 09 09 52 20 .38    -109     19    -14    111    112 280.1  -7.3  33644  280.90 0864.78
2015 04 09 09 52 20 .62     -61      0     24     62     66 270.0  22.0  33688  281.62 0864.78
2015 04 09 09 52 20 .87     -74    -25      9     79     80 251.4   6.5  33658  281.12 0864.78
2015 04 09 09 52 21 .13     -73    -24    -24     78     82 251.4 -17.6  33632  280.70 0864.78
2015 04 09 09 52 21 .38     -42      0      0     43     44 270.0  -0.3  33654  281.05 0864.78
2015 04 09 09 52 21 .63     -36      8     29     38     47 283.3  41.7  33688  281.62 0864.78
2015 04 09 09 52 21 .88     -21    -13     47     26     53 237.6  68.8  33718  282.12 0864.78
2015 04 09 09 52 22 .13     -15    -13     44     20     48 228.7  75.0  33702  281.85 0864.78
2015 04 09 09 52 22 .38     -18     -6     32     20     37 251.4  64.7  33696  281.77 0864.78
2015 04 09 09 52 22 .63      -3    -23     29     24     37 188.0  56.3  33722  282.19 0864.78
2015 04 09 09 52 22 .88       8    -11     20     14     24 143.9  60.5  33714  282.07 0864.78
2015 04 09 09 52 23 .13       4     -7     12      9     15 147.5  56.4  33730  282.34 0864.78
2015 04 09 09 52 23 .38      -1     -4      5      5      7 191.6  50.1  33730  282.32 0864.78
2015 04 09 09 52 23 .63       0      1     -7      2      7 341.5 -90.0  33704  281.90 0864.78
2015 04 09 09 52 23 .89     -15    -13     -8     20     21 228.7 -27.4  33680  281.49 0864.78
2015 04 09 09 52 24 .15     -46      3     -2     47     48 274.4  -3.1  33676  281.42 0864.78
2015 04 09 09 52 24 .40     -34     23     -4     42     43 304.2  -6.2  33696  281.75 0864.78
2015 04 09 09 52 24 .65     -36     20      6     42     43 299.8   9.0  33706  281.94 0864.78
2015 04 09 09 52 24 .90      -1     32     11     33     36 357.3  19.4  33710  281.99 0864.78
2015 04 09 09 52 25 .15     -15     35      8     39     40 336.4  12.2  33714  282.05 0864.78
2015 04 09 09 52 25 .40      -3     12     16     13     20 344.9  56.4  33722  282.19 0864.78
2015 04 09 09 52 25 .65      -1     22     26     23     34 357.3  52.2  33726  282.26 0864.78
2015 04 09 09 52 25 .90      -4      1     20      5     20 288.4  86.9  33728  282.29 0864.78
2015 04 09 09 52 26 .15     -15    -27     31     31     43 209.0  50.1  33732  282.36 0864.78
2015 04 09 09 52 26 .40     -25    -13     36     29     46 242.9  57.5  33734  282.41 0864.78
2015 04 09 09 52 26 .64     -15    -19     31     25     39 219.6  56.4  33742  282.52 0864.79
2015 04 09 09 52 26 .90     -18    -30     16     36     39 210.7  25.1  33722  282.19 0864.79
2015 04 09 09 52 27 .15     -24    -38     20     46     50 212.5  26.2  33716  282.09 0864.79
2015 04 09 09 52 27 .40     -34    -53     17     64     67 212.6  15.3  33730  282.32 0864.79
2015 04 09 09 52 27 .67     -41    -65     16     78     80 212.5  12.2  33734  282.41 0864.79
2015 04 09 09 52 27 .90     -46    -63      6     79     80 216.0   4.9  33732  282.37 0864.79
2015 04 09 09 52 28 .15     -36    -37     22     52     56 224.2  24.1  33750  282.67 0864.79
2015 04 09 09 52 28 .41      -2    -30      9     31     33 184.5  17.3  33754  282.74 0864.79
2015 04 09 09 52 28 .66       5    -15     32     16     35 161.5  72.8  33778  283.14 0864.78
2015 04 09 09 52 28 .91       2    -19     42     20     46 173.8  72.9  33780  283.18 0864.78
2015 04 09 09 52 29 .15       0      1     32      2     32 341.5  90.0  33764  282.89 0864.78
2015 04 09 09 52 29 .40     -43    -36     38     57     68 230.4  35.6  33746  282.59 0864.78
2015 04 09 09 52 29 .65     -28    -35     44     46     63 218.7  50.0  33722  282.21 0864.78
2015 04 09 09 52 29 .91     -10    -32     33     34     47 198.3  51.1  33736  282.44 0864.78
2015 04 09 09 52 30 .16     -12    -13     44     18     47 223.4  77.1  33782  283.19 0864.78
2015 04 09 09 52 30 .41     -50    -41     25     65     69 230.5  22.0  33714  282.07 0864.79
2015 04 09 09 52 30 .67     -35    -28     -5     46     47 231.4  -7.2  33704  281.90 0864.79
2015 04 09 09 52 30 .92     -19     -7      4     21     22 248.3  11.1  33710  282.00 0864.79
2015 04 09 09 52 31 .17      -8      1     22      9     23 281.5  79.2  33742  282.52 0864.79
2015 04 09 09 52 31 .42     -21    -21     38     30     48 225.0  57.5  33758  282.81 0864.79
2015 04 09 09 52 31 .67     -32    -32     49     46     67 224.2  52.1  33762  282.88 0864.79
2015 04 09 09 52 31 .92     -35    -39     31     53     61 221.4  33.5  33744  282.57 0864.79
2015 04 09 09 52 32 .17     -25    -26     10     37     39 223.4  16.3  33728  282.29 0864.79
2015 04 09 09 52 32 .42      -1    -27     17     28     32 182.7  35.5  33742  282.52 0864.79
2015 04 09 09 52 32 .68       8      0     22      9     23  90.0  79.2  33772  283.04 0864.79
2015 04 09 09 52 32 .92       6     10     27     13     29  32.5  72.8  33770  282.99 0864.79
2015 04 09 09 52 33 .17     -15    -24     35     29     45 212.6  55.4  33754  282.72 0864.79
2015 04 09 09 52 33 .43     -19    -19     54     27     60 225.1  71.9  33776  283.09 0864.79
2015 04 09 09 52 33 .68     -35    -38     37     52     63 222.3  39.5  33756  282.76 0864.79
2015 04 09 09 52 33 .93     -41    -36     51     55     75 228.7  47.9  33740  282.49 0864.79
2015 04 09 09 52 34 .18     -50    -44     55     67     86 228.7  43.7  33746  282.61 0864.79
2015 04 09 09 52 34 .43     -60    -51     73     80    108 229.6  47.5  33774  283.08 0864.79
2015 04 09 09 52 34 .68     -60    -53     33     81     87 228.7  23.0  33758  282.81 0864.79
2015 04 09 09 52 34 .93     -66    -68     10     96     97 224.1   6.5  33740  282.49 0864.79
2015 04 09 09 52 35 .18     -24    -62     19     67     70 201.9  16.3  33728  282.29 0864.79
2015 04 09 09 52 35 .43     -34    -72     64     80    102 205.5  43.3  33760  282.83 0864.79
2015 04 09 09 52 35 .68    -137     -6    -13    138    139 267.4  -5.6  33760  282.84 0864.79
2015 04 09 09 52 35 .93    -149    -30    -23    153    155 258.5  -8.6  33680  281.49 0864.79
2015 04 09 09 52 36 .19    -151    -57     -6    162    163 249.2  -2.2  33716  282.11 0864.79
2015 04 09 09 52 36 .43     -66    -13      8     68     69 258.5   6.9  33794  283.40 0864.79
2015 04 09 09 52 36 .68     -28     40     38     50     62 324.8  41.7  33828  283.97 0864.78
2015 04 09 09 52 36 .93     -49     69     32     85     90 324.4  21.5  33806  283.61 0864.78
2015 04 09 09 52 37 .18     -27     74    -19     79     82 340.0 -13.4  33780  283.18 0864.78
2015 04 09 09 52 37 .44     -52     81    -22     97    100 327.5 -12.9  33772  283.04 0864.78
2015 04 09 09 52 37 .69     -63     46    -15     79     81 306.0 -10.9  33796  283.45 0864.78
2015 04 09 09 52 37 .95     -63     76    -19     99    101 320.4 -10.9  33762  282.86 0864.78
2015 04 09 09 52 38 .19     -75     46    -26     88     91 301.5 -21.7  33750  282.66 0864.78
2015 04 09 09 52 38 .44     -65     36    -38     75     84 298.9 -33.1  33748  282.62 0864.78
2015 04 09 09 52 38 .70     -57     31    -31     66     72 298.9 -31.5  33746  282.61 0864.78
2015 04 09 09 52 38 .95     -49     31    -29     59     65 302.4 -32.6  33742  282.52 0864.78
2015 04 09 09 52 39 .20     -71     32    -16     78     80 294.4 -11.9  33722  282.21 0864.78
2015 04 09 09 52 39 .45     -42     26    -11     50     52 302.5 -12.4  33726  282.27 0864.78
2015 04 09 09 52 39 .70     -27     23     -3     36     37 311.3  -5.2  33736  282.44 0864.78
2015 04 09 09 52 39 .95     -37     20     -5     43     44 298.9  -7.3  33712  282.04 0864.78
2015 04 09 09 52 40 .20     -55     15     -4     58     59 285.9  -4.1  33698  281.80 0864.78
2015 04 09 09 52 40 .45     -77     21    -15     80     82 285.5 -10.9  33704  281.90 0864.78
2015 04 09 09 52 40 .71     -83     53     -2     99    100 302.4  -1.3  33724  282.24 0864.78
2015 04 09 09 52 40 .96     -81     55     -3     99    100 304.2  -2.2  33740  282.51 0864.78
2015 04 09 09 52 41 .21    -121     22    -20    124    126 280.6  -9.3  33750  282.66 0864.78
2015 04 09 09 52 41 .45    -101      0    -32    102    106 270.4 -23.3  33756  282.76 0864.78
2015 04 09 09 52 41 .71     -97      0    -16     98    100 270.0  -9.8  33748  282.62 0864.78
2015 04 09 09 52 41 .96     -34      5     18     35     39 279.7  27.3  33782  283.21 0864.78
2015 04 09 09 52 42 .20      20    -37     52     43     67 151.0  56.3  33756  282.77 0864.78
2015 04 09 09 52 42 .46      -2     33     -1     34     35 355.6  -2.2  33754  282.74 0864.78
2015 04 09 09 52 42 .71     -35     16      8     39     40 295.3  12.2  33744  282.57 0864.78
2015 04 09 09 52 42 .96       6     55     11     56     58   6.2  11.1  33746  282.61 0864.78
2015 04 09 09 52 43 .20     -31     19    -43     37     56 302.5 -58.7  33754  282.74 0864.78
2015 04 09 09 52 43 .46     -37      2    -36     38     52 274.3 -54.4  33738  282.46 0864.78
2015 04 09 09 52 43 .71      -8      9      9     13     15 316.6  35.6  33738  282.47 0864.78
2015 04 09 09 52 43 .96     -62     20    -66     66     93 288.4 -54.5  33688  281.62 0864.78
2015 04 09 09 52 44 .21      -1     79     17     80     82 359.1  12.6  33726  282.27 0864.78
2015 04 09 09 52 44 .46      16     49      9     52     53  18.5  10.1  33732  282.37 0864.78
2015 04 09 09 52 44 .72      15      1    -16     16     22  85.7 -54.5  33736  282.42 0864.78
2015 04 09 09 52 44 .97       8      0    -23      9     24  94.4 -83.6  33738  282.46 0864.78
2015 04 09 09 52 45 .22     -82     27    -36     87     94 288.2 -27.4  33670  281.32 0864.78
2015 04 09 09 52 45 .49     -66     16      3     69     70 284.2   2.8  33680  281.49 0864.78
2015 04 09 09 52 45 .72     -87     55     -2    104    105 302.4  -1.3  33672  281.37 0864.78
2015 04 09 09 52 45 .98    -125      4    -34    126    131 272.1 -15.4  33666  281.25 0864.78
2015 04 09 09 52 46 .23     -90    -20    -33     93     99 257.2 -19.7  33662  281.20 0864.78
2015 04 09 09 52 46 .48     -54     -4     -3     55     56 264.8  -3.1  33666  281.25 0864.78
2015 04 09 09 52 46 .72     -80      0     11     81     82 270.0   8.0  33664  281.24 0864.78
2015 04 09 09 52 46 .98    -159      0    -48    160    168 270.1 -16.6  33630  280.67 0864.78
2015 04 09 09 52 47 .23    -131      5    -36    132    138 272.6 -15.5  33642  280.87 0864.78
2015 04 09 09 52 47 .47    -129     -4    -21    130    132 267.9  -9.4  33634  280.72 0864.79
2015 04 09 09 52 47 .73    -153    -10    -48    154    162 266.1 -17.3  33624  280.57 0864.79
2015 04 09 09 52 47 .98    -164     -4    -45    165    172 268.5 -15.5  33620  280.48 0864.79
2015 04 09 09 52 48 .23    -147     -9    -50    148    157 266.5 -18.7  33626  280.58 0864.79
2015 04 09 09 52 48 .48    -156     -4    -43    157    163 268.3 -15.4  33628  280.62 0864.79
2015 04 09 09 52 48 .73    -143     -5    -42    144    151 267.9 -16.4  33628  280.62 0864.79
2015 04 09 09 52 48 .98    -135    -25    -28    138    141 259.4 -11.5  33626  280.60 0864.79
2015 04 09 09 52 49 .23    -134    -27    -27    137    140 258.5 -11.3  33628  280.62 0864.79
2015 04 09 09 52 49 .48    -126    -25    -34    129    134 258.6 -15.0  33626  280.58 0864.79
2015 04 09 09 52 49 .74    -129    -51    -25    139    142 248.3 -10.3  33650  281.00 0864.79
2015 04 09 09 52 49 .98    -147    -39    -19    153    155 254.9  -7.2  33668  281.29 0864.79
2015 04 09 09 52 50 .24    -160    -47    -20    167    169 253.6  -6.9  33642  280.87 0864.79
2015 04 09 09 52 50 .48    -158    -44    -23    165    167 254.5  -8.0  33664  281.24 0864.79
2015 04 09 09 52 50 .73    -153    -31    -28    157    160 258.5 -10.3  33652  281.02 0864.79
2015 04 09 09 52 50 .99    -142     -2    -49    143    152 269.1 -19.1  33638  280.80 0864.79
2015 04 09 09 52 51 .24    -155      0    -30    156    159 270.4 -10.9  33650  281.00 0864.79
2015 04 09 09 52 51 .48    -127      0    -30    128    132 270.4 -13.3  33636  280.75 0864.79
2015 04 09 09 52 51 .74    -121      3    -30    122    126 271.7 -13.9  33630  280.65 0864.79
2015 04 09 09 52 52 .00    -121     12    -30    122    126 276.1 -13.9  33626  280.58 0864.79
2015 04 09 09 52 52 .25    -115      8    -23    116    119 274.3 -11.3  33628  280.62 0864.79
2015 04 09 09 52 52 .50    -114      4    -31    115    120 272.1 -15.0  33630  280.67 0864.79
2015 04 09 09 52 52 .75    -117    -27    -21    121    123 256.7 -10.3  33636  280.77 0864.79
2015 04 09 09 52 53 .00    -116    -11    -22    117    120 264.3 -10.9  33636  280.77 0864.79
2015 04 09 09 52 53 .25    -109     -8    -22    110    113 265.6 -11.3  33630  280.67 0864.79
2015 04 09 09 52 53 .50    -118    -11    -15    119    120 264.3  -7.3  33644  280.90 0864.79
2015 04 09 09 52 53 .75    -121     -1    -29    122    126 269.2 -13.4  33636  280.75 0864.79
2015 04 09 09 52 54 .00    -128      0    -21    129    131 270.4  -9.3  33636  280.77 0864.80
2015 04 09 09 52 54 .25    -159     28    -18    162    164 280.1  -6.5  33650  280.99 0864.80
2015 04 09 09 52 54 .50    -145     78     -2    165    166 298.4  -0.7  33662  281.20 0864.80
2015 04 09 09 52 54 .76    -120     52    -44    131    138 293.5 -23.6  33662  281.20 0864.80
2015 04 09 09 52 55 .00    -122     58    -22    136    138 295.3  -9.4  33658  281.14 0864.80
2015 04 09 09 52 55 .25     -98     43     -7    108    109 294.0  -3.7  33648  280.97 0864.80
2015 04 09 09 52 55 .51     -75      2    -11     76     77 271.7  -8.2  33676  281.42 0864.80
2015 04 09 09 52 55 .76     -32      8     11     34     37 285.1  18.9  33694  281.74 0864.79
2015 04 09 09 52 56 .00     -12     21     20     25     32 331.0  43.7  33722  282.19 0864.79
2015 04 09 09 52 56 .26     -57      4    -23     58     62 274.4 -27.4  33672  281.35 0864.79
2015 04 09 09 52 56 .51     -36    -24     -8     44     45 235.8 -11.3  33696  281.75 0864.79
2015 04 09 09 52 56 .76      -5    -66      3     67     68 184.4   2.9  33688  281.62 0864.79
2015 04 09 09 52 57 .01       8    -47     22     48     52 169.3  27.1  33696  281.75 0864.79
2015 04 09 09 52 57 .26      10    -22     55     25     60 156.4  73.1  33712  282.02 0864.79
2015 04 09 09 52 57 .51     -23     -4     28     24     36 260.3  54.3  33734  282.39 0864.79
2015 04 09 09 52 57 .76     -60     -8      3     61     62 262.1   2.8  33686  281.59 0864.79
2015 04 09 09 52 58 .01     -74    -35     -5     82     83 244.7  -4.1  33652  281.04 0864.79
2015 04 09 09 52 58 .26     -69    -44     -6     83     84 237.5  -4.1  33622  280.52 0864.79
2015 04 09 09 52 58 .52     -44    -33     -6     55     56 233.1  -6.2  33638  280.78 0864.79
2015 04 09 09 52 58 .78     -16      1      6     17     19 274.3  18.9  33684  281.57 0864.79
2015 04 09 09 52 59 .03       2      9     35     10     36  15.1  82.8  33722  282.21 0864.79
2015 04 09 09 52 59 .27     -29     -8     48     31     57 254.9  64.6  33686  281.59 0864.78
2015 04 09 09 52 59 .52     -28    -35      2     45     46 218.7   2.9  33654  281.07 0864.78
2015 04 09 09 52 59 .78      -7    -23     11     25     27 198.5  25.1  33656  281.10 0864.78
2015 04 09 09 53 00 .03     -10    -10     68     15     69 223.2  89.0  33700  281.82 0864.78
2015 04 09 09 53 00 .28     -15    -12     70     20     72 230.5  83.9  33704  281.90 0864.78
2015 04 09 09 53 00 .52     -40     30     66     50     82 306.9  59.0  33718  282.12 0864.78
2015 04 09 09 53 00 .78      -1      8    -16      9     18 350.3 -73.2  33700  281.84 0864.78
2015 04 09 09 53 01 .03     -42     -5    -46     43     62 263.0 -56.5  33696  281.75 0864.79
2015 04 09 09 53 01 .28     -60    -20    -18     64     66 251.4 -20.7  33688  281.62 0864.79
2015 04 09 09 53 01 .53     -66     51     -9     84     85 307.8  -6.2  33684  281.57 0864.79
2015 04 09 09 53 01 .78     -16    -16     41     23     47 225.0  67.7  33712  282.02 0864.79
2015 04 09 09 53 02 .03     -17      0      9     18     20 270.0  29.3  33710  282.00 0864.79
2015 04 09 09 53 02 .28     -40     16    -14     44     46 291.7 -23.8  33708  281.97 0864.79
2015 04 09 09 53 02 .53     -23      1      8     24     26 272.6  18.9  33720  282.16 0864.79
2015 04 09 09 53 02 .78     -42      7    -15     43     46 279.7 -19.7  33676  281.44 0864.79
2015 04 09 09 53 03 .04     -69      5    -12     70     72 274.3 -10.3  33662  281.20 0864.79
2015 04 09 09 53 03 .28     -41     31     10     52     53 307.8  11.0  33688  281.62 0864.79
2015 04 09 09 53 03 .53     -19     32     20     38     42 329.3  30.3  33704  281.89 0864.79
2015 04 09 09 53 03 .78     -12     -8     14     15     20 234.0  47.9  33704  281.90 0864.79
2015 04 09 09 53 04 .03     -16    -18     -7     25     25 221.4 -21.7  33676  281.44 0864.79
2015 04 09 09 53 04 .28     -21    -17     -8     28     29 230.5 -23.8  33652  281.04 0864.79
2015 04 09 09 53 04 .54     -24    -30     13     39     42 219.6  19.4  33690  281.65 0864.79
2015 04 09 09 53 04 .78     -21      0     45     22     50 270.0  72.8  33738  282.47 0864.79
2015 04 09 09 53 05 .04     -11      5     32     13     34 295.3  79.2  33730  282.34 0864.79
2015 04 09 09 53 05 .29      -5     24     -1     25     26 346.6  -2.2  33722  282.21 0864.79
2015 04 09 09 53 05 .55     -39     25     -1     47     48 302.5  -2.2  33718  282.12 0864.79
2015 04 09 09 53 05 .80     -14     16     -1     22     23 320.4  -3.1  33728  282.29 0864.79
2015 04 09 09 53 06 .05      -1     18     12     19     22 355.6  35.5  33728  282.29 0864.79
2015 04 09 09 53 06 .30     -28     13     -9     32     33 295.2 -21.7  33734  282.39 0864.79
2015 04 09 09 53 06 .55     -24     21      6     33     34 311.3  11.1  33744  282.56 0864.79
2015 04 09 09 53 06 .80     -49     50     56     71     90 315.8  42.7  33772  283.03 0864.79
2015 04 09 09 53 07 .05     -56     66     58     87    104 319.9  36.5  33766  282.94 0864.79
2015 04 09 09 53 07 .30     -48    134      5    143    144 340.0   2.3  33656  281.09 0864.79
2015 04 09 09 53 07 .55     -84    101    -36    132    138 320.4 -15.5  33618  280.47 0864.79
2015 04 09 09 53 07 .80    -106    122    -33    163    167 319.0 -11.6  33616  280.42 0864.79
2015 04 09 09 53 08 .05    -112    123    -32    167    171 317.5 -11.1  33602  280.18 0864.79
2015 04 09 09 53 08 .30    -119    126    -39    174    179 316.8 -12.9  33590  280.00 0864.79
2015 04 09 09 53 08 .55    -113    126    -43    170    176 317.9 -14.3  33582  279.87 0864.79
2015 04 09 09 53 08 .80    -118    125    -48    173    180 316.6 -15.5  33586  279.93 0864.79
2015 04 09 09 53 09 .06    -106    119    -56    160    170 318.5 -19.4  33590  280.00 0864.79
2015 04 09 09 53 09 .31     -90    116    -35    148    153 322.2 -13.4  33610  280.33 0864.79
2015 04 09 09 53 09 .56    -114     99    -13    152    153 310.9  -5.2  33616  280.42 0864.79
2015 04 09 09 53 09 .81    -101    101    -37    144    149 314.9 -14.5  33630  280.65 0864.79
2015 04 09 09 53 10 .06     -86     91      0    126    127 316.7  -0.3  33648  280.95 0864.79
2015 04 09 09 53 10 .31     -58    142     -3    154    155 337.7  -1.3  33646  280.92 0864.78
2015 04 09 09 53 10 .56     -66    119    -22    137    139 331.1  -9.3  33634  280.72 0864.78
2015 04 09 09 53 10 .81     -71    140    -15    158    159 332.9  -5.6  33642  280.85 0864.78
2015 04 09 09 53 11 .06     -73    143    -25    161    164 332.8  -9.0  33616  280.43 0864.78
2015 04 09 09 53 11 .31     -74    159    -20    176    178 335.1  -6.7  33602  280.20 0864.78
2015 04 09 09 53 11 .56     -83    152    -28    174    177 331.3  -9.3  33602  280.20 0864.78
2015 04 09 09 53 11 .81     -92    145    -22    172    174 327.5  -7.3  33612  280.37 0864.78
2015 04 09 09 53 12 .07     -77    140    -12    160    161 331.1  -4.6  33610  280.32 0864.78
2015 04 09 09 53 12 .31     -67    142    -13    158    159 334.6  -4.9  33630  280.67 0864.78
2015 04 09 09 53 12 .58     -72    131    -30    150    154 331.1 -11.5  33632  280.70 0864.78
2015 04 09 09 53 12 .83     -75    104    -34    129    134 324.0 -15.0  33650  280.99 0864.79
2015 04 09 09 53 13 .08     -55     80    -12     98     99 325.7  -7.3  33656  281.09 0864.79
2015 04 09 09 53 13 .33     -47     74     16     88     90 327.4  10.6  33670  281.34 0864.79
2015 04 09 09 53 13 .58     -43     68     35     81     88 327.5  25.1  33688  281.64 0864.79
2015 04 09 09 53 13 .83     -32     74     33     81     87 336.4  23.0  33700  281.82 0864.79
2015 04 09 09 53 14 .08     -77     73     61    107    123 313.2  32.9  33684  281.55 0864.79
2015 04 09 09 53 14 .33     -44     69     42     82     92 327.4  28.7  33682  281.52 0864.79
2015 04 09 09 53 14 .58     -47     75     23     89     92 327.5  14.7  33668  281.30 0864.79
2015 04 09 09 53 14 .83     -41     86     14     96     98 334.7   8.5  33676  281.44 0864.79
2015 04 09 09 53 15 .08     -64    104    -29    123    127 328.4 -13.4  33662  281.20 0864.79
2015 04 09 09 53 15 .33     -49    104    -14    116    117 334.5  -7.2  33660  281.15 0864.79
2015 04 09 09 53 15 .58     -56    112    -12    126    127 333.3  -5.6  33648  280.97 0864.79
2015 04 09 09 53 15 .83     -42    106     -6    115    116 338.2  -3.1  33656  281.09 0864.79
2015 04 09 09 53 16 .08     -55    105    -12    119    120 332.4  -6.2  33616  280.42 0864.79
2015 04 09 09 53 16 .33     -65    110    -22    129    131 329.3  -9.8  33602  280.20 0864.79
2015 04 09 09 53 16 .58     -62    123    -21    138    140 333.3  -8.8  33596  280.08 0864.79
2015 04 09 09 53 16 .84     -56    130     -7    142    143 336.4  -3.1  33598  280.12 0864.79
2015 04 09 09 53 17 .08     -46    104    -10    115    116 335.9  -5.2  33602  280.18 0864.79
2015 04 09 09 53 17 .34     -64    111    -16    129    131 330.1  -7.2  33608  280.28 0864.79
2015 04 09 09 53 17 .58     -51    110    -13    122    123 335.1  -6.2  33602  280.18 0864.79
2015 04 09 09 53 17 .84     -53     99    -14    113    114 331.9  -7.3  33610  280.32 0864.79
2015 04 09 09 53 18 .09     -47    100    -13    111    112 334.5  -6.7  33610  280.32 0864.79
2015 04 09 09 53 18 .34     -49    104     -6    116    117 334.5  -3.1  33602  280.20 0864.79
2015 04 09 09 53 18 .58     -45    131     -5    139    140 340.8  -2.2  33590  279.98 0864.79
2015 04 09 09 53 18 .84     -66    139     -8    155    156 334.5  -3.2  33598  280.13 0864.79
2015 04 09 09 53 19 .09     -71    140    -15    158    159 332.9  -5.6  33614  280.38 0864.79
2015 04 09 09 53 19 .35     -73    129    -24    149    152 330.6  -9.4  33644  280.90 0864.79
2015 04 09 09 53 19 .60     -98     92    -17    135    137 313.2  -7.2  33676  281.42 0864.79
2015 04 09 09 53 19 .85     -87    105    -27    137    140 320.3 -11.3  33678  281.47 0864.79
2015 04 09 09 53 20 .10     -82     73    -14    111    112 311.8  -7.2  33684  281.55 0864.79
2015 04 09 09 53 20 .35     -46     63     12     79     80 323.9   9.0  33686  281.60 0864.79
2015 04 09 09 53 20 .60     -53     99      4    113    114 331.9   2.3  33660  281.15 0864.79
2015 04 09 09 53 20 .85     -59    112      1    127    128 331.9   0.8  33648  280.95 0864.79
2015 04 09 09 53 21 .11     -54     95      1    110    111 330.6   0.8  33648  280.97 0864.79
2015 04 09 09 53 21 .36     -40    102      7    110    111 338.2   3.8  33660  281.15 0864.79
2015 04 09 09 53 21 .61     -34    111      4    117    118 343.1   2.3  33690  281.67 0864.79
2015 04 09 09 53 21 .85     -57     76      4     96     97 323.0   2.9  33698  281.80 0864.79
2015 04 09 09 53 22 .11     -49     83      2     97     98 329.3   1.2  33682  281.54 0864.79
2015 04 09 09 53 22 .36     -76     92     14    120    121 320.4   7.1  33680  281.49 0864.79
2015 04 09 09 53 22 .61    -132     67     -5    149    150 297.0  -2.2  33670  281.34 0864.79
2015 04 09 09 53 22 .86     -65     88     13    110    111 323.5   6.9  33696  281.77 0864.80
2015 04 09 09 53 23 .11     -84     74     22    113    116 311.3  11.1  33692  281.70 0864.80
2015 04 09 09 53 23 .36    -119     92      4    151    152 307.7   1.8  33682  281.52 0864.80
2015 04 09 09 53 23 .61    -102     92    -18    138    140 312.2  -7.7  33676  281.42 0864.80
2015 04 09 09 53 23 .86     -47     67      2     83     84 324.8   1.8  33696  281.75 0864.80
2015 04 09 09 53 24 .11    -118     71    -12    139    140 301.1  -5.2  33664  281.24 0864.80
2015 04 09 09 53 24 .36    -100     61    -11    118    119 301.5  -5.6  33708  281.95 0864.80
2015 04 09 09 53 24 .61     -85     72     -4    112    113 310.0  -2.2  33714  282.07 0864.80
2015 04 09 09 53 24 .86    -142     70     -8    159    160 296.2  -3.1  33594  280.05 0864.80
2015 04 09 09 53 25 .11    -151     81     -9    172    173 298.2  -3.3  33610  280.32 0864.80
2015 04 09 09 53 25 .36    -145     52    -42    155    161 290.0 -15.2  33600  280.17 0864.80
2015 04 09 09 53 25 .62    -140     72    -28    158    161 297.5 -10.3  33612  280.37 0864.80
2015 04 09 09 53 25 .87    -141    102     -4    175    176 306.0  -1.6  33640  280.82 0864.80
2015 04 09 09 53 26 .12     -99     87     10    133    134 311.3   4.4  33658  281.14 0864.80
2015 04 09 09 53 26 .38    -115     90    -19    147    149 308.2  -7.7  33654  281.05 0864.79
2015 04 09 09 53 26 .63     -79     84     18    116    118 316.7   9.0  33684  281.55 0864.79
2015 04 09 09 53 26 .88     -33    125    -11    130    131 344.9  -5.2  33702  281.85 0864.79
2015 04 09 09 53 27 .12     -45    142      7    150    151 342.2   2.9  33682  281.54 0864.79
2015 04 09 09 53 27 .37     -54    127    -12    139    140 336.8  -5.2  33668  281.29 0864.79
2015 04 09 09 53 27 .63     -40    124    -10    131    132 342.2  -4.6  33660  281.15 0864.79
2015 04 09 09 53 27 .87     -34    123      1    128    129 344.4   0.8  33658  281.14 0864.79
2015 04 09 09 53 28 .13     -50    134     -8    144    145 339.5  -3.2  33658  281.14 0864.79
2015 04 09 09 53 28 .38     -73    176    -12    191    192 337.3  -3.7  33670  281.32 0864.79
2015 04 09 09 53 28 .64     -46    162     17    169    170 344.2   6.1  33700  281.82 0864.79
2015 04 09 09 53 28 .88     -76    172    -23    189    191 336.2  -7.2  33676  281.42 0864.79
2015 04 09 09 53 29 .13    -124    115    -31    170    173 312.9 -10.5  33614  280.40 0864.79
2015 04 09 09 53 29 .38    -124    128    -37    179    183 315.9 -11.9  33622  280.53 0864.79
2015 04 09 09 53 29 .63    -129    102    -32    165    169 308.2 -11.1  33620  280.48 0864.79
2015 04 09 09 53 29 .89    -118     85    -29    146    149 306.0 -11.5  33614  280.38 0864.79
2015 04 09 09 53 30 .14    -113     93    -19    147    149 309.5  -7.7  33622  280.53 0864.79
2015 04 09 09 53 30 .39    -111     86    -18    141    143 307.8  -7.3  33602  280.20 0864.79
2015 04 09 09 53 30 .64    -113    102    -25    153    156 312.2  -9.4  33590  279.98 0864.79
2015 04 09 09 53 30 .89     -95    107    -33    144    148 318.6 -12.9  33588  279.95 0864.79
2015 04 09 09 53 31 .14     -92    111    -30    145    149 320.4 -11.9  33586  279.93 0864.79
2015 04 09 09 53 31 .39     -82    105    -23    134    137 322.2  -9.8  33596  280.08 0864.79
2015 04 09 09 53 31 .64     -65    101    -25    121    124 327.0 -11.9  33596  280.08 0864.79
2015 04 09 09 53 31 .89     -68    104    -19    125    127 326.6  -8.8  33602  280.18 0864.79
2015 04 09 09 53 32 .14     -59    112    -24    127    130 331.9 -10.9  33592  280.03 0864.79
2015 04 09 09 53 32 .39     -62    116    -20    132    134 331.9  -8.8  33622  280.53 0864.79
2015 04 09 09 53 32 .64     -77    111    -17    136    138 325.3  -7.2  33620  280.48 0864.79
2015 04 09 09 53 32 .89     -61    107    -12    124    125 330.1  -5.6  33600  280.15 0864.79
2015 04 09 09 53 33 .14     -64     88     -6    109    110 323.9  -3.1  33618  280.47 0864.79
2015 04 09 09 53 33 .40     -61     87     -4    107    108 324.8  -2.2  33634  280.72 0864.79
2015 04 09 09 53 33 .65     -74     69      8    102    103 313.1   4.9  33628  280.63 0864.79
2015 04 09 09 53 33 .91     -48     62     21     79     82 321.7  15.3  33636  280.77 0864.78
2015 04 09 09 53 34 .15     -65     72     62     98    115 318.1  35.5  33636  280.77 0864.78
2015 04 09 09 53 34 .41     -52     68     33     86     92 322.6  21.5  33642  280.85 0864.78
2015 04 09 09 53 34 .65     -33     69     31     77     83 334.5  23.0  33630  280.67 0864.78
2015 04 09 09 53 34 .93     -89     89    -29    127    131 314.9 -12.9  33616  280.43 0864.78
2015 04 09 09 53 35 .16     -88     70    -31    113    118 308.6 -15.5  33626  280.58 0864.78
2015 04 09 09 53 35 .41     -87     83    -43    121    129 313.6 -19.6  33628  280.62 0864.78
2015 04 09 09 53 35 .66     -73     35    -18     82     84 295.8 -12.4  33644  280.90 0864.78
2015 04 09 09 53 35 .91     -31     46    -23     56     60 325.7 -27.5  33660  281.15 0864.78
2015 04 09 09 53 36 .16     -75     59    -33     96    101 308.6 -23.3  33652  281.02 0864.78
2015 04 09 09 53 36 .41     -82     77    -38    113    120 313.1 -18.7  33662  281.19 0864.78
2015 04 09 09 53 36 .66     -43     59    -48     74     88 323.9 -40.4  33666  281.27 0864.78
2015 04 09 09 53 36 .91     -42     13    -49     45     66 287.7 -56.6  33682  281.52 0864.78
2015 04 09 09 53 37 .16     -18     25    -18     31     35 323.9 -39.9  33682  281.52 0864.78
2015 04 09 09 53 37 .41       4     -7      5      9     10 147.5  31.4  33690  281.65 0864.78
2015 04 09 09 53 37 .66      15     -1      0     16     17  94.3  -2.2  33678  281.47 0864.78
2015 04 09 09 53 37 .91      -1     18    -33     19     38 355.6 -69.1  33676  281.44 0864.78
2015 04 09 09 53 38 .16      18     17    -22     25     33  46.7 -50.2  33674  281.40 0864.78
2015 04 09 09 53 38 .42       0     38     20     39     43 359.1  28.2  33694  281.72 0864.78
2015 04 09 09 53 38 .66     -17     29    -49     34     59 329.3 -65.9  33700  281.82 0864.78
2015 04 09 09 53 38 .92     -27     40     37     49     61 325.7  40.7  33700  281.84 0864.78
2015 04 09 09 53 39 .17     -45     66     73     80    108 325.7  47.5  33716  282.09 0864.78
2015 04 09 09 53 39 .42     -59     42    113     73    134 306.0  64.6  33700  281.82 0864.78
2015 04 09 09 53 39 .66     -24     41    -23     48     53 329.3 -31.6  33684  281.55 0864.78
2015 04 09 09 53 39 .91     -13    -36    -27     39     47 200.0 -42.0  33674  281.40 0864.78
2015 04 09 09 53 40 .17     -27    -17     -1     33     34 237.6  -3.2  33658  281.12 0864.78
2015 04 09 09 53 40 .43    -178     43    -36    184    188 283.7 -11.1  33614  280.38 0864.78
2015 04 09 09 53 40 .68    -186     61    -28    196    199 288.4  -8.2  33612  280.37 0864.78
2015 04 09 09 53 40 .93    -199     47    -35    205    209 283.3  -9.8  33612  280.35 0864.78
2015 04 09 09 53 41 .18    -150     48    -50    158    166 287.9 -17.6  33610  280.33 0864.78
2015 04 09 09 53 41 .43    -118     45    -44    127    135 290.8 -19.1  33640  280.82 0864.78
2015 04 09 09 53 41 .68    -137     23    -32    139    143 279.7 -13.3  33628  280.62 0864.78
2015 04 09 09 53 41 .93    -104     22    -26    107    111 282.4 -13.9  33608  280.30 0864.78
2015 04 09 09 53 42 .18    -129     26    -44    132    140 281.4 -18.7  33608  280.28 0864.78
2015 04 09 09 53 42 .43     -95      1    -31     96    101 270.8 -18.1  33614  280.40 0864.78
2015 04 09 09 53 42 .68     -83      0    -27     84     88 270.4 -23.3  33610  280.33 0864.78
2015 04 09 09 53 42 .93     -72     -1    -23     73     76 269.2 -23.8  33602  280.18 0864.78
2015 04 09 09 53 43 .18     -59     13     -2     61     62 282.4  -2.2  33598  280.13 0864.78
2015 04 09 09 53 43 .43     -74     31    -21     81     84 292.6 -14.5  33594  280.05 0864.78
2015 04 09 09 53 43 .68     -74     16    -21     76     79 282.4 -15.5  33590  280.00 0864.79
2015 04 09 09 53 43 .94     -72      8    -14     73     75 277.0 -11.3  33596  280.08 0864.79
2015 04 09 09 53 44 .19     -80     13     13     82     84 279.7   9.0  33594  280.07 0864.79
2015 04 09 09 53 44 .44     -85     -8    -27     86     91 264.3 -17.6  33600  280.17 0864.79
2015 04 09 09 53 44 .69     -63      0    -55     64     84 270.8 -50.2  33590  280.00 0864.79
2015 04 09 09 53 44 .94     -88     13    -39     90     98 278.8 -29.0  33598  280.12 0864.79
2015 04 09 09 53 45 .19     -62     18    -35     65     73 286.8 -35.8  33604  280.22 0864.79
2015 04 09 09 53 45 .45     -74     19     -3     77     78 285.1  -2.2  33610  280.33 0864.78
2015 04 09 09 53 45 .69     -46     16      6     49     50 289.1   8.0  33650  280.99 0864.78
2015 04 09 09 53 45 .94     -46     36     56     59     81 308.6  48.5  33700  281.82 0864.78
2015 04 09 09 53 46 .19     -68     66     77     95    122 314.0  43.7  33702  281.87 0864.78
2015 04 09 09 53 46 .44     -31     57     61     66     89 331.1  47.9  33730  282.34 0864.78
2015 04 09 09 53 46 .69     -26     68     33     73     80 339.1  26.2  33728  282.31 0864.78
2015 04 09 09 53 46 .94     -41     43     31     60     67 315.8  29.3  33708  281.95 0864.78
2015 04 09 09 53 47 .20     -29     29     29     42     51 314.9  37.6  33688  281.62 0864.78
2015 04 09 09 53 47 .46     -28     13     23     32     39 295.2  39.7  33692  281.70 0864.78
2015 04 09 09 53 47 .71     -39     25      2     47     48 302.4   2.9  33684  281.55 0864.78
2015 04 09 09 53 47 .96     -15     35      0     39     40 336.4   0.8  33696  281.77 0864.78
2015 04 09 09 53 48 .21     -21     54     16     59     62 338.2  15.2  33712  282.02 0864.78
2015 04 09 09 53 48 .45     -31     65     40     73     83 334.5  30.8  33686  281.60 0864.78
2015 04 09 09 53 48 .71     -35     62     44     72     84 330.1  35.0  33686  281.59 0864.78
2015 04 09 09 53 48 .96     -55     74     64     93    112 323.0  38.0  33678  281.47 0864.78
2015 04 09 09 53 49 .21     -41     64     64     77    100 327.4  43.8  33684  281.57 0864.78
2015 04 09 09 53 49 .46     -46     49     40     68     78 316.8  33.5  33686  281.59 0864.78
2015 04 09 09 53 49 .71     -68     41     51     80     94 301.5  35.5  33700  281.82 0864.78
2015 04 09 09 53 49 .96     -59     38     37     71     80 302.4  29.8  33690  281.67 0864.78
2015 04 09 09 53 50 .21     -25     21     32     33     45 309.6  50.0  33710  281.99 0864.78
2015 04 09 09 53 50 .46     -20     45     38     50     62 335.5  41.7  33710  281.99 0864.78
2015 04 09 09 53 50 .71     -46     28     31     55     63 301.5  31.4  33722  282.21 0864.78
2015 04 09 09 53 50 .97     -50     21     51     55     75 292.6  47.9  33708  281.97 0864.78
2015 04 09 09 53 51 .21     -38     36     46     53     70 313.1  44.8  33706  281.94 0864.78
2015 04 09 09 53 51 .46     -48      9    -17     49     51 280.6 -23.3  33690  281.65 0864.78
2015 04 09 09 53 51 .71     -52      0     14     53     55 270.0  15.3  33698  281.80 0864.78
2015 04 09 09 53 51 .96     -63     25     -6     68     69 291.7  -5.2  33692  281.70 0864.79
2015 04 09 09 53 52 .21     -24     20     20     32     37 309.6  35.5  33694  281.72 0864.79
2015 04 09 09 53 52 .46     -30     44     35     54     64 325.7  35.6  33690  281.65 0864.79
2015 04 09 09 53 52 .72     -25     42     12     50     52 329.3  14.3  33676  281.44 0864.78
2015 04 09 09 53 52 .96     -16     38     13     42     45 336.4  17.3  33690  281.65 0864.78
2015 04 09 09 53 53 .22     -23     34     13     42     44 325.7  17.3  33696  281.75 0864.78
2015 04 09 09 53 53 .47      -5     50     13     51     53 353.8  14.3  33690  281.65 0864.78
2015 04 09 09 53 53 .72     -14     40      9     43     44 340.8  12.2  33682  281.52 0864.78
2015 04 09 09 53 53 .97      -7     32     29     33     43 346.6  46.9  33674  281.40 0864.78
2015 04 09 09 53 54 .23      -7     35     12     36     39 348.4  19.4  33676  281.42 0864.78
2015 04 09 09 53 54 .48     -14     31     -1     35     36 334.7  -3.1  33650  281.00 0864.78
2015 04 09 09 53 54 .73     -24     24     29     34     44 315.0  45.8  33672  281.37 0864.78
2015 04 09 09 53 54 .98     -34     41     20     54     57 320.4  20.0  33690  281.67 0864.78
2015 04 09 09 53 55 .23     -33     53     31     63     70 327.4  27.3  33684  281.55 0864.78
2015 04 09 09 53 55 .48     -57     28     55     64     84 296.2  45.8  33712  282.04 0864.78
2015 04 09 09 53 55 .73     -30     12     14     33     35 291.7  23.0  33720  282.16 0864.78
2015 04 09 09 53 55 .98     -31     12     16     34     37 291.7  27.2  33708  281.97 0864.78
2015 04 09 09 53 56 .23     -39     36      4     54     55 313.1   4.9  33702  281.87 0864.78
2015 04 09 09 53 56 .48     -75     41    -12     86     87 298.9  -8.2  33660  281.15 0864.78
2015 04 09 09 53 56 .73     -75     34    -29     83     89 294.4 -19.7  33648  280.97 0864.78
2015 04 09 09 53 56 .99     -85     54    -22    101    104 302.4 -12.4  33646  280.93 0864.78
2015 04 09 09 53 57 .23     -75     47    -12     89     90 302.0  -7.7  33668  281.30 0864.78
2015 04 09 09 53 57 .49     -68     35      0     77     78 297.1  -0.3  33688  281.62 0864.78
2015 04 09 09 53 57 .74     -86     59     -4    105    106 304.2  -2.2  33696  281.77 0864.78
2015 04 09 09 53 57 .99    -107    -16     -8    109    110 261.2  -4.6  33642  280.85 0864.78
2015 04 09 09 53 58 .24    -111     -1    -26    112    116 269.2 -13.3  33630  280.67 0864.78
2015 04 09 09 53 58 .49     -95    -21     -5     98     99 257.2  -3.1  33656  281.10 0864.78
2015 04 09 09 53 58 .74     -30     17     -1     35     36 300.7  -2.2  33682  281.54 0864.78
2015 04 09 09 53 58 .99     -23     -4    -23     24     33 260.3 -56.4  33682  281.52 0864.78
2015 04 09 09 53 59 .24       3     51     36     52     63   4.4  38.6  33696  281.75 0864.78
2015 04 09 09 53 59 .49     -17     48     33     52     61 340.0  35.5  33700  281.84 0864.78
2015 04 09 09 53 59 .75     -15     58     -4     61     62 344.8  -4.1  33698  281.80 0864.78
2015 04 09 09 54 00 .00     -25     30     54     40     67 320.4  60.5  33732  282.36 0864.78
2015 04 09 09 54 00 .24     -22     44      3     50     51 332.8   3.8  33720  282.16 0864.78
2015 04 09 09 54 00 .49     -42     73     51     85     99 330.1  34.0  33688  281.62 0864.78
2015 04 09 09 54 00 .75     -33     73     16     81     83 335.5  11.6  33692  281.69 0864.78
2015 04 09 09 54 01 .00     -44     47     12     65     67 316.7  11.0  33698  281.80 0864.78
2015 04 09 09 54 01 .26     -59     67     75     90    117 319.0  43.8  33676  281.44 0864.78
2015 04 09 09 54 01 .50    -107     43    -27    116    120 291.8 -13.4  33668  281.30 0864.78
2015 04 09 09 54 01 .75    -119     28    -15    123    125 283.2  -7.3  33612  280.35 0864.78
2015 04 09 09 54 02 .01     -97     80    -34    126    131 309.6 -15.4  33652  281.04 0864.78
2015 04 09 09 54 02 .26    -128     46    -29    137    141 289.9 -11.9  33670  281.32 0864.78
2015 04 09 09 54 02 .51    -134     51    -30    144    148 290.8 -11.9  33618  280.45 0864.78
2015 04 09 09 54 02 .76    -134     57    -29    146    149 293.1 -11.5  33590  279.98 0864.78
2015 04 09 09 54 03 .01    -151     49    -23    159    161 288.2  -8.2  33588  279.95 0864.78
2015 04 09 09 54 03 .27    -155     62    -30    168    171 292.0 -10.1  33582  279.87 0864.78
2015 04 09 09 54 03 .51    -141     49    -13    150    151 289.1  -5.2  33638  280.78 0864.78
2015 04 09 09 54 03 .76    -143     36    -24    148    151 284.2  -9.4  33586  279.93 0864.78
2015 04 09 09 54 04 .01    -157     51    -25    166    168 288.2  -8.8  33576  279.77 0864.78
2015 04 09 09 54 04 .26    -156     34    -32    160    164 282.6 -11.6  33578  279.80 0864.78
2015 04 09 09 54 04 .51    -167     43    -30    173    176 284.4 -10.1  33584  279.90 0864.77
2015 04 09 09 54 04 .76    -152     45    -27    159    162 286.8  -9.6  33578  279.78 0864.77
2015 04 09 09 54 05 .01    -146     43    -31    153    157 286.4 -11.6  33580  279.82 0864.77
2015 04 09 09 54 05 .26    -155     41    -41    161    167 285.1 -14.3  33592  280.03 0864.77
2015 04 09 09 54 05 .51    -148     39    -33    154    158 285.0 -12.2  33590  280.00 0864.77
2015 04 09 09 54 05 .77    -149     38    -33    154    158 284.6 -12.2  33610  280.32 0864.77
2015 04 09 09 54 06 .01    -147     29    -19    150    152 281.5  -7.3  33604  280.23 0864.77
2015 04 09 09 54 06 .27    -163     58    -23    174    176 289.7  -7.7  33610  280.32 0864.77
2015 04 09 09 54 06 .52    -147     39    -27    153    156 285.1 -10.3  33616  280.42 0864.77
2015 04 09 09 54 06 .77    -132     15    -27    133    136 276.6 -11.5  33664  281.24 0864.77
2015 04 09 09 54 07 .02    -119     23     -8    122    123 281.0  -4.1  33688  281.62 0864.77
2015 04 09 09 54 07 .27    -113     57    -35    127    132 297.1 -15.5  33696  281.77 0864.77
2015 04 09 09 54 07 .52     -60     35     -2     70     71 300.7  -2.2  33688  281.62 0864.77
2015 04 09 09 54 07 .77    -140     47    -19    148    150 288.6  -7.3  33650  281.00 0864.77
2015 04 09 09 54 08 .03    -164     23    -25    166    168 278.1  -8.8  33614  280.38 0864.78
2015 04 09 09 54 08 .28    -153     11    -27    154    157 274.4 -10.3  33578  279.80 0864.78
2015 04 09 09 54 08 .53    -147     29    -19    150    152 281.5  -7.3  33586  279.93 0864.78
2015 04 09 09 54 08 .78    -151      3    -36    152    157 271.3 -13.4  33580  279.83 0864.78
2015 04 09 09 54 09 .03    -144     15    -34    145    150 276.1 -13.4  33578  279.78 0864.78
2015 04 09 09 54 09 .28    -142     10    -32    143    147 274.4 -12.9  33578  279.80 0864.78
2015 04 09 09 54 09 .53    -148      7    -40    149    155 273.0 -15.0  33578  279.78 0864.78
2015 04 09 09 54 09 .78    -134     10    -29    135    139 274.4 -12.4  33574  279.72 0864.78
2015 04 09 09 54 10 .04    -152     16    -18    153    155 276.2  -6.9  33602  280.20 0864.78
2015 04 09 09 54 10 .28    -144     15    -34    145    150 276.1 -13.4  33578  279.78 0864.78
2015 04 09 09 54 10 .54    -135     15    -40    136    142 276.6 -16.6  33616  280.43 0864.78
2015 04 09 09 54 10 .79    -110    -19    -23    112    115 259.9 -11.9  33654  281.05 0864.78
2015 04 09 09 54 11 .04     -53    -24     -8     59     60 245.6  -8.2  33670  281.32 0864.78
2015 04 09 09 54 11 .29     -56    -11    -13     58     60 258.6 -13.4  33672  281.37 0864.78
2015 04 09 09 54 11 .54     -67     21    -19     71     74 287.7 -15.5  33690  281.65 0864.78
2015 04 09 09 54 11 .79    -102      6    -33    103    108 273.5 -23.3  33648  280.97 0864.78
2015 04 09 09 54 12 .04    -116     -5    -22    117    120 267.4 -10.9  33590  280.00 0864.78
2015 04 09 09 54 12 .29     -96     -7    -34     97    103 265.6 -19.6  33608  280.28 0864.78
2015 04 09 09 54 12 .54     -74      0    -21     75     79 270.0 -16.0  33640  280.83 0864.77
2015 04 09 09 54 12 .79     -98     -3    -28     99    104 267.9 -16.0  33636  280.75 0864.77
2015 04 09 09 54 13 .04     -44     31     13     54     56 305.1  14.3  33664  281.24 0864.77
2015 04 09 09 54 13 .29     -74      9     25     75     80 277.0  18.9  33646  280.92 0864.77
2015 04 09 09 54 13 .54    -112     15    -36    114    120 277.9 -17.6  33576  279.75 0864.77
2015 04 09 09 54 13 .80    -114     26    -40    118    125 283.2 -18.7  33582  279.87 0864.77
2015 04 09 09 54 14 .04    -125     35    -26    131    134 285.9 -11.5  33622  280.52 0864.77
2015 04 09 09 54 14 .29    -110     43     -6    119    120 291.7  -3.2  33618  280.47 0864.77
2015 04 09 09 54 14 .54    -104     22    -26    107    111 282.4 -13.9  33594  280.07 0864.77
2015 04 09 09 54 14 .79    -111     20    -35    113    118 280.6 -21.8  33576  279.77 0864.77
2015 04 09 09 54 15 .05    -112     15    -36    114    120 277.9 -17.6  33582  279.85 0864.77
2015 04 09 09 54 15 .30    -103      7    -35    104    110 274.3 -18.7  33586  279.92 0864.77
2015 04 09 09 54 15 .56    -110      3    -34    111    117 271.7 -17.0  33574  279.73 0864.77
2015 04 09 09 54 15 .80    -121      4    -37    122    127 272.1 -21.8  33582  279.85 0864.77
2015 04 09 09 54 16 .06    -119      0    -41    120    126 270.4 -23.3  33582  279.85 0864.77
2015 04 09 09 54 16 .30    -107      3    -44    108    116 271.7 -27.4  33584  279.88 0864.77
2015 04 09 09 54 16 .56    -109      1    -46    110    119 270.8 -28.0  33582  279.85 0864.77
2015 04 09 09 54 16 .81    -109     -6    -46    110    119 266.5 -28.0  33582  279.85 0864.77
2015 04 09 09 54 17 .06    -107     -8    -44    108    116 265.6 -27.4  33584  279.88 0864.77
2015 04 09 09 54 17 .31     -99    -11    -30    100    104 263.4 -22.3  33580  279.82 0864.77
2015 04 09 09 54 17 .56     -97    -12    -35     98    105 262.5 -19.7  33582  279.85 0864.77
2015 04 09 09 54 17 .81     -94     -4    -30     95    100 267.0 -17.6  33582  279.85 0864.77
2015 04 09 09 54 18 .06     -95     -5    -23     96     99 267.0 -13.9  33586  279.92 0864.77
2015 04 09 09 54 18 .31     -97     -9    -16     98    100 264.3  -9.3  33590  280.00 0864.77
2015 04 09 09 54 18 .56     -90      0    -27     91     94 269.6 -22.3  33592  280.03 0864.77
2015 04 09 09 54 18 .81     -89     -8    -27     90     93 264.3 -22.3  33586  279.92 0864.77
2015 04 09 09 54 19 .06     -98     -8    -42     99    107 264.8 -28.0  33588  279.95 0864.77
2015 04 09 09 54 19 .31     -87     -5    -21     88     91 266.5 -13.9  33590  280.00 0864.77
2015 04 09 09 54 19 .57     -91    -16    -16     93     95 259.9  -9.8  33588  279.95 0864.77
2015 04 09 09 54 19 .81     -88     -7    -11     89     90 265.2  -7.3  33588  279.95 0864.78
2015 04 09 09 54 20 .06     -87     -5    -21     88     91 266.5 -13.9  33590  280.00 0864.78
2015 04 09 09 54 20 .32    -100     -4    -28    101    105 267.4 -15.5  33588  279.97 0864.78
2015 04 09 09 54 20 .57     -96     -1    -26     97    101 269.2 -15.0  33596  280.10 0864.78
2015 04 09 09 54 20 .82     -95      7    -23     96     99 274.4 -13.9  33596  280.08 0864.78
2015 04 09 09 54 21 .06     -91     11    -15     92     94 277.5  -9.8  33596  280.10 0864.78
2015 04 09 09 54 21 .32     -80     11    -20     81     84 277.9 -13.9  33596  280.10 0864.78
2015 04 09 09 54 21 .57     -80     16    -10     82     83 281.9  -7.3  33600  280.15 0864.78
2015 04 09 09 54 21 .82     -76     20    -15     79     81 285.1 -10.9  33596  280.10 0864.78
2015 04 09 09 54 22 .08     -72     16     -9     74     75 283.3  -7.2  33594  280.07 0864.78
2015 04 09 09 54 22 .34     -66     31     -9     74     75 295.4  -7.3  33612  280.37 0864.78
2015 04 09 09 54 22 .58     -34     27     -1     44     45 308.6  -2.2  33634  280.73 0864.78
2015 04 09 09 54 22 .83     -21     29     -3     36     37 323.9  -5.2  33632  280.70 0864.78
2015 04 09 09 54 23 .08     -14     31      3     35     36 334.7   4.9  33628  280.62 0864.78
2015 04 09 09 54 23 .34      -5     24      6     25     26 348.4  15.3  33634  280.73 0864.78
2015 04 09 09 54 23 .59      -8     24      1     26     27 341.7   2.8  33656  281.10 0864.77
2015 04 09 09 54 23 .84       2     43      2     44     45   3.6   2.8  33656  281.10 0864.77
2015 04 09 09 54 24 .09      -2     31     23     32     39 355.5  39.7  33676  281.44 0864.77
2015 04 09 09 54 24 .34     -19     12     11     23     25 302.4  27.2  33690  281.67 0864.77
2015 04 09 09 54 24 .59     -24     12     -6     28     29 297.1 -13.4  33672  281.37 0864.77
2015 04 09 09 54 24 .84     -23      4      0     24     25 281.5  -2.2  33664  281.24 0864.77
2015 04 09 09 54 25 .09     -15      5     10     16     18 288.6  35.5  33682  281.54 0864.77
2015 04 09 09 54 25 .34     -26     20     -1     33     34 307.8  -3.2  33664  281.22 0864.77
2015 04 09 09 54 25 .59     -45      7    -24     46     51 279.7 -33.7  33630  280.67 0864.77
2015 04 09 09 54 25 .84     -52     13     11     54     56 284.2  12.2  33650  280.99 0864.77
2015 04 09 09 54 26 .09     -32     30      4     45     46 313.1   5.9  33652  281.02 0864.77
2015 04 09 09 54 26 .35     -34     29     -9     45     46 310.4 -11.3  33640  280.82 0864.77
2015 04 09 09 54 26 .59     -28     13      1     31     32 295.2   2.8  33648  280.95 0864.77
2015 04 09 09 54 26 .84     -15     32    -14     36     38 334.7 -23.3  33638  280.80 0864.77
2015 04 09 09 54 27 .09     -27     25      1     37     38 313.1   2.9  33646  280.92 0864.77
2015 04 09 09 54 27 .34     -45     24    -18     52     55 298.0 -23.3  33626  280.58 0864.77
2015 04 09 09 54 27 .60     -32     40    -14     52     55 321.3 -15.5  33636  280.77 0864.77
2015 04 09 09 54 27 .84     -19     31     -1     37     38 327.5  -2.2  33640  280.83 0864.77
2015 04 09 09 54 28 .10     -24     22      1     33     34 313.3   2.9  33654  281.05 0864.77
2015 04 09 09 54 28 .35     -34     45    -10     57     58 322.2 -10.3  33652  281.02 0864.77
2015 04 09 09 54 28 .60     -15     20     -3     26     27 322.2  -7.3  33652  281.04 0864.77
2015 04 09 09 54 28 .85     -26     26     31     37     48 314.9  45.8  33662  281.19 0864.77
2015 04 09 09 54 29 .11     -46     16     40     49     63 290.0  43.7  33668  281.29 0864.77
2015 04 09 09 54 29 .36     -42     14     49     45     66 289.1  52.2  33664  281.22 0864.77
2015 04 09 09 54 29 .60     -48     21     44     53     68 294.4  43.8  33664  281.24 0864.77
2015 04 09 09 54 29 .87     -23     26     55     35     65 318.6  64.7  33684  281.57 0864.77
2015 04 09 09 54 30 .11     -36     24     55     44     70 304.2  56.4  33694  281.72 0864.78
2015 04 09 09 54 30 .36     -36     36     57     51     76 315.0  52.2  33688  281.64 0864.78
2015 04 09 09 54 30 .62     -29     21     48     36     60 306.0  59.4  33692  281.70 0864.78
2015 04 09 09 54 30 .86     -50     13     65     52     83 285.1  56.9  33714  282.07 0864.78
2015 04 09 09 54 31 .11     -36     25     28     44     52 305.1  35.5  33688  281.62 0864.78
2015 04 09 09 54 31 .37     -45     23     -6     51     52 298.0  -7.3  33684  281.57 0864.78
2015 04 09 09 54 31 .61     -36     38     16     53     56 316.8  17.3  33700  281.84 0864.78
2015 04 09 09 54 31 .86     -23     50     19     56     60 334.7  19.2  33670  281.32 0864.77
2015 04 09 09 54 32 .12     -39     50     -2     64     65 322.2  -2.2  33622  280.52 0864.77
2015 04 09 09 54 32 .37     -46     48     -8     67     68 315.9  -7.2  33632  280.70 0864.77
2015 04 09 09 54 32 .62     -39     43     -7     59     60 317.7  -7.3  33626  280.58 0864.77
2015 04 09 09 54 32 .87     -31     55      5     64     65 331.0   4.9  33636  280.75 0864.77
2015 04 09 09 54 33 .12     -34     45     -8     57     58 323.0  -8.2  33646  280.92 0864.77
2015 04 09 09 54 33 .37     -16     60      7     63     64 344.9   7.1  33648  280.97 0864.77
2015 04 09 09 54 33 .62     -40     32     24     52     57 308.6  27.1  33654  281.05 0864.77
2015 04 09 09 54 33 .87     -41     35     15     55     58 310.4  15.3  33666  281.25 0864.77
2015 04 09 09 54 34 .12     -44     60      5     75     76 324.0   3.8  33664  281.24 0864.77
2015 04 09 09 54 34 .37     -29     49     20     58     62 329.3  18.9  33682  281.54 0864.77
2015 04 09 09 54 34 .62     -34     52      3     63     64 326.6   2.8  33670  281.34 0864.77
2015 04 09 09 54 34 .87     -17     66      5     69     70 345.7   4.9  33664  281.24 0864.77
2015 04 09 09 54 35 .12     -42     38     20     58     62 312.2  19.2  33676  281.42 0864.77
2015 04 09 09 54 35 .38     -30     60     42     68     79 333.7  35.0  33696  281.77 0864.77
2015 04 09 09 54 35 .62     -37     50     55     63     83 323.0  46.4  33690  281.67 0864.77
2015 04 09 09 54 35 .88     -19     56     40     60     72 341.3  36.5  33688  281.64 0864.77
2015 04 09 09 54 36 .14     -35     64     54     74     91 331.0  40.1  33704  281.89 0864.77
2015 04 09 09 54 36 .39     -15     57    -12     60     62 344.9 -11.5  33688  281.62 0864.77
2015 04 09 09 54 36 .64     -45     39     -1     60     61 311.3  -1.3  33698  281.80 0864.77
2015 04 09 09 54 36 .89     -53     68     60     87    105 322.2  37.6  33660  281.17 0864.77
2015 04 09 09 54 37 .13     -74     74     73    105    127 315.0  38.0  33638  280.80 0864.77
2015 04 09 09 54 37 .39     -55     80     96     98    137 325.7  50.0  33624  280.57 0864.77
2015 04 09 09 54 37 .64     -67     57    109     89    140 310.4  56.4  33634  280.72 0864.77
2015 04 09 09 54 37 .89     -73     58    105     94    140 308.6  53.7  33622  280.52 0864.77
2015 04 09 09 54 38 .14     -63     40     62     75     97 302.5  43.8  33662  281.19 0864.77
2015 04 09 09 54 38 .39     -32     11     -1     35     36 290.0  -3.1  33666  281.25 0864.77
2015 04 09 09 54 38 .64     -63    -25    -27     68     73 248.3 -27.4  33660  281.15 0864.77
2015 04 09 09 54 38 .89     -47      4     -1     48     49 275.2  -2.2  33654  281.05 0864.77
2015 04 09 09 54 39 .14     -26     16      2     31     32 302.4   4.9  33664  281.24 0864.77
2015 04 09 09 54 39 .39     -47     16    -31     50     58 289.1 -39.9  33654  281.05 0864.77
2015 04 09 09 54 39 .64     -89      6    -11     90     91 273.9  -7.2  33636  280.75 0864.77
2015 04 09 09 54 39 .90     -46     42     33     63     71 312.2  30.3  33650  281.00 0864.77
2015 04 09 09 54 40 .14     -36     93     21    100    103 338.6  12.2  33646  280.92 0864.77
2015 04 09 09 54 40 .39     -49    129    -22    139    141 339.1  -9.4  33606  280.27 0864.77
2015 04 09 09 54 40 .64     -43    108      5    117    118 338.2   2.8  33612  280.35 0864.77
2015 04 09 09 54 40 .90     -56     88    -13    105    106 327.4  -7.2  33606  280.27 0864.77
2015 04 09 09 54 41 .15     -61     84    -33    105    110 323.9 -23.3  33612  280.37 0864.77
2015 04 09 09 54 41 .39     -52     67    -38     86     94 322.2 -29.5  33612  280.35 0864.77
2015 04 09 09 54 41 .65     -33    102     -1    108    109 341.7  -0.7  33620  280.48 0864.77
2015 04 09 09 54 41 .90     -36     97    -22    104    107 339.5 -11.9  33636  280.77 0864.77
2015 04 09 09 54 42 .15     -48     94    -12    106    107 332.8  -6.7  33642  280.87 0864.77
2015 04 09 09 54 42 .40     -51     96    -22    109    112 331.9 -11.3  33630  280.67 0864.77
2015 04 09 09 54 42 .65     -51    108    -24    120    123 334.5 -11.3  33622  280.53 0864.77
2015 04 09 09 54 42 .91     -51    123     -4    134    135 337.3  -1.8  33626  280.58 0864.77
2015 04 09 09 54 43 .16     -39    122      9    129    130 342.2   4.4  33636  280.77 0864.77
2015 04 09 09 54 43 .41     -32    119      9    124    125 344.8   4.4  33624  280.57 0864.77
2015 04 09 09 54 43 .67     -38    142      7    148    149 344.8   2.8  33640  280.82 0864.77
2015 04 09 09 54 43 .91     -57    143     -4    155    156 338.1  -1.8  33634  280.72 0864.77
2015 04 09 09 54 44 .16     -58    142      2    154    155 337.7   0.8  33638  280.80 0864.77
2015 04 09 09 54 44 .41     -68    125    -18    143    145 331.5  -7.3  33640  280.82 0864.77
2015 04 09 09 54 44 .66     -72    117    -22    138    140 328.4  -9.4  33642  280.87 0864.77
2015 04 09 09 54 44 .91     -87    138    -31    164    168 327.9 -10.9  33638  280.80 0864.77
2015 04 09 09 54 45 .16     -90    133    -36    161    165 325.7 -12.6  33638  280.80 0864.77
2015 04 09 09 54 45 .42     -95    129    -29    161    164 323.5 -10.3  33640  280.82 0864.77
2015 04 09 09 54 45 .67    -107    107    -25    152    155 315.0  -9.4  33646  280.92 0864.77
2015 04 09 09 54 45 .92    -108    103    -19    150    152 313.6  -7.3  33660  281.15 0864.77
2015 04 09 09 54 46 .17     -84    100     -1    132    133 319.9  -0.7  33670  281.32 0864.78
2015 04 09 09 54 46 .42     -91    119    -30    151    155 322.6 -11.5  33648  280.95 0864.78
2015 04 09 09 54 46 .67     -88    113    -33    144    148 322.1 -12.9  33640  280.83 0864.78
2015 04 09 09 54 46 .92     -80    118    -23    143    145 325.7  -9.4  33638  280.80 0864.78
2015 04 09 09 54 47 .17     -41    124    -22    131    133 341.7  -9.8  33628  280.62 0864.78
2015 04 09 09 54 47 .42     -51    108     -7    120    121 334.5  -3.7  33650  280.99 0864.78
2015 04 09 09 54 47 .67     -63     99    -10    118    119 327.4  -5.2  33660  281.17 0864.78
2015 04 09 09 54 47 .93     -66     87     -5    110    111 322.6  -2.6  33664  281.22 0864.78
2015 04 09 09 54 48 .17     -48    106     16    117    119 335.5   8.0  33664  281.24 0864.77
2015 04 09 09 54 48 .42     -41    125     24    132    135 341.5  10.6  33644  280.88 0864.77
2015 04 09 09 54 48 .67     -58    142      2    154    155 337.7   0.8  33638  280.80 0864.77
2015 04 09 09 54 48 .93     -29     90     14     95     97 341.7   8.5  33650  281.00 0864.77
2015 04 09 09 54 49 .18     -30    121     35    125    130 345.7  15.8  33662  281.19 0864.77
2015 04 09 09 54 49 .43     -42    108     14    117    118 338.6   6.9  33666  281.25 0864.77
2015 04 09 09 54 49 .68     -40     88     16     97     99 335.5   9.5  33672  281.37 0864.77
2015 04 09 09 54 49 .94     -51     97     26    110    114 331.9  13.2  33674  281.39 0864.77
2015 04 09 09 54 50 .19     -43     91     19    101    103 334.7  11.1  33680  281.49 0864.77
2015 04 09 09 54 50 .44     -51    123     -4    134    135 337.3  -1.8  33668  281.29 0864.77
2015 04 09 09 54 50 .69     -56    130     -2    142    143 336.4  -1.2  33650  281.00 0864.77
2015 04 09 09 54 50 .94     -48     89     33    102    108 331.5  17.9  33678  281.47 0864.77
2015 04 09 09 54 51 .19     -59     92     54    110    122 327.0  27.8  33680  281.49 0864.77
2015 04 09 09 54 51 .44     -41    104     83    113    140 338.2  39.7  33670  281.34 0864.77
2015 04 09 09 54 51 .69     -38     85     52     94    107 335.5  31.4  33656  281.09 0864.77
2015 04 09 09 54 51 .94     -45    106     40    116    123 336.8  19.2  33666  281.27 0864.77
2015 04 09 09 54 52 .19     -79    104     -5    131    132 322.6  -2.2  33660  281.17 0864.77
2015 04 09 09 54 52 .44     -68    124     -9    142    143 331.1  -3.7  33666  281.25 0864.77
2015 04 09 09 54 52 .69     -59    148      4    160    161 338.2   1.6  33658  281.12 0864.77
2015 04 09 09 54 52 .95     -70    147     10    164    165 334.4   3.8  33660  281.15 0864.77
2015 04 09 09 54 53 .20     -58    125      5    138    139 335.1   2.3  33670  281.34 0864.77
2015 04 09 09 54 53 .45     -55    119      6    132    133 335.1   2.9  33678  281.47 0864.77
2015 04 09 09 54 53 .70     -60     96    -15    114    116 327.9  -7.7  33688  281.64 0864.77
2015 04 09 09 54 53 .95     -56    105     14    120    121 331.9   7.1  33718  282.12 0864.77
2015 04 09 09 54 54 .20     -91    148     -6    174    175 328.4  -2.3  33688  281.62 0864.77
2015 04 09 09 54 54 .45    -110    103    -26    152    155 313.1  -9.8  33694  281.74 0864.77
2015 04 09 09 54 54 .70    -127     93    -26    158    161 306.4  -9.3  33696  281.77 0864.77
2015 04 09 09 54 54 .95    -116    109    -12    160    161 313.1  -4.6  33690  281.65 0864.77
2015 04 09 09 54 55 .20    -117     99    -19    154    156 310.0  -7.3  33684  281.57 0864.77
2015 04 09 09 54 55 .45     -76     92      6    120    121 320.4   3.3  33694  281.72 0864.77
2015 04 09 09 54 55 .70     -48     99      0    111    112 334.1   0.2  33708  281.95 0864.77
2015 04 09 09 54 55 .95     -35     90      1     97     98 338.6   0.8  33722  282.21 0864.77
2015 04 09 09 54 56 .20     -46     66     25     81     85 325.3  17.3  33752  282.71 0864.77
2015 04 09 09 54 56 .45     -69     90     84    114    141 322.2  39.7  33758  282.79 0864.77
2015 04 09 09 54 56 .71     -85     68      0    109    110 308.6  -0.3  33750  282.66 0864.77
2015 04 09 09 54 56 .96     -32     57     47     66     81 330.1  39.1  33746  282.61 0864.77
2015 04 09 09 54 57 .21     -18     53     55     57     79 341.3  49.4  33752  282.71 0864.77
2015 04 09 09 54 57 .46     -30     19      7     36     37 302.4  11.1  33726  282.27 0864.77
2015 04 09 09 54 57 .72     -50     73    -30     89     95 325.3 -18.7  33710  281.99 0864.77
2015 04 09 09 54 57 .96     -42     59     45     73     85 324.8  35.0  33754  282.72 0864.77
2015 04 09 09 54 58 .22     -68     86    106    110    152 321.7  49.4  33748  282.64 0864.77
2015 04 09 09 54 58 .46     -62     84     45    105    114 323.5  24.1  33696  281.75 0864.77
2015 04 09 09 54 58 .72     -47     63      6     79     80 323.0   4.4  33684  281.55 0864.77
2015 04 09 09 54 58 .97     -46     43      3     64     65 313.2   2.9  33680  281.49 0864.77
2015 04 09 09 54 59 .22     -31     48    -18     58     60 327.4 -22.8  33708  281.97 0864.77
2015 04 09 09 54 59 .47     -82     35     -6     90     91 293.5  -4.1  33692  281.70 0864.77
2015 04 09 09 54 59 .72     -23     48     29     54     61 334.5  31.3  33700  281.84 0864.77
2015 04 09 09 54 59 .97      -5     72     17     73     75 355.5  13.2  33708  281.95 0864.77
2015 04 09 09 55 00 .22     -62     81     20    103    106 322.6  11.1  33726  282.26 0864.77
2015 04 09 09 55 00 .47     -76     44    -10     88     89 300.2  -6.7  33694  281.74 0864.77
2015 04 09 09 55 00 .72     -12     58     21     60     64 348.4  19.2  33712  282.04 0864.77
2015 04 09 09 55 00 .97     -51     44     -2     68     69 310.4  -2.2  33686  281.60 0864.78
2015 04 09 09 55 01 .22     -51     73    -29     90     94 325.3 -23.8  33688  281.64 0864.78
2015 04 09 09 55 01 .48     -35     74    -22     82     85 334.5 -15.0  33674  281.39 0864.78
2015 04 09 09 55 01 .73     -66     63    -11     92     93 314.0  -7.3  33704  281.90 0864.78
2015 04 09 09 55 01 .97    -118    134    -30    179    182 318.6  -9.6  33736  282.42 0864.78
2015 04 09 09 55 02 .23     -58    134      2    147    148 336.4   0.8  33712  282.04 0864.78
2015 04 09 09 55 02 .48     -75    104     30    129    133 324.4  13.1  33708  281.95 0864.78
2015 04 09 09 55 02 .73    -140    119    -35    184    188 310.4 -10.9  33674  281.39 0864.78
2015 04 09 09 55 02 .98    -160    105    -13    192    193 303.3  -3.9  33694  281.72 0864.78
2015 04 09 09 55 03 .23    -100     59     31    117    122 300.7  15.2  33714  282.05 0864.78
2015 04 09 09 55 03 .48     -51     80     49     96    107 327.4  28.2  33706  281.94 0864.78
2015 04 09 09 55 03 .74     -66    107     16    126    128 328.4   7.5  33696  281.77 0864.78
2015 04 09 09 55 03 .99     -69     89     35    113    119 322.2  17.4  33698  281.80 0864.78
2015 04 09 09 55 04 .24     -60     64     66     88    110 316.8  40.7  33686  281.59 0864.78
2015 04 09 09 55 04 .49     -71     86     26    112    116 320.4  13.2  33692  281.69 0864.78
2015 04 09 09 55 04 .74    -119     67     -4    137    138 299.3  -1.8  33678  281.45 0864.78
2015 04 09 09 55 04 .99    -147     39    -21    153    155 285.1  -8.0  33654  281.05 0864.78
2015 04 09 09 55 05 .24     -90     48    -28    103    107 298.0 -15.4  33636  280.77 0864.78
2015 04 09 09 55 05 .49    -105     50    -23    117    120 295.4 -11.3  33676  281.42 0864.78
2015 04 09 09 55 05 .74     -87     72    -14    113    114 309.6  -7.2  33684  281.57 0864.78
2015 04 09 09 55 05 .99     -76     71    -29    105    110 313.1 -15.5  33662  281.20 0864.78
2015 04 09 09 55 06 .25     -84     35    -32     92     98 292.6 -19.6  33666  281.25 0864.78
2015 04 09 09 55 06 .49    -124     84    -24    150    153 304.2  -9.3  33632  280.70 0864.78
2015 04 09 09 55 06 .75    -141    115     -7    183    184 309.3  -2.2  33636  280.75 0864.78
2015 04 09 09 55 06 .99    -139    102    -34    173    177 306.4 -11.3  33584  279.90 0864.78
2015 04 09 09 55 07 .24    -136     90    -45    164    171 303.5 -15.4  33580  279.82 0864.78
2015 04 09 09 55 07 .49    -125     90    -44    155    162 305.9 -15.8  33578  279.80 0864.78
2015 04 09 09 55 07 .75    -123     89    -31    152    156 306.0 -11.5  33644  280.90 0864.78
2015 04 09 09 55 08 .00    -100     94     -9    138    139 313.1  -4.1  33650  280.99 0864.78
2015 04 09 09 55 08 .25     -73     93     35    119    125 321.7  16.3  33668  281.29 0864.78
2015 04 09 09 55 08 .50    -125     95     -4    158    159 307.3  -1.8  33612  280.35 0864.78
2015 04 09 09 55 08 .75    -115    108     -6    158    159 313.1  -2.2  33650  281.00 0864.78
2015 04 09 09 55 09 .00    -115     87     -7    145    146 307.3  -3.1  33624  280.55 0864.78
2015 04 09 09 55 09 .25    -114     82     -5    141    142 305.9  -2.2  33632  280.70 0864.78
2015 04 09 09 55 09 .50     -85     92     19    126    128 317.2   8.9  33644  280.90 0864.78
2015 04 09 09 55 09 .75    -130     84    -30    155    158 302.9 -11.1  33590  279.98 0864.78
2015 04 09 09 55 10 .00    -152    120    -12    194    195 308.2  -3.7  33602  280.18 0864.78
2015 04 09 09 55 10 .25    -141     96    -14    171    172 304.2  -4.9  33582  279.85 0864.78
2015 04 09 09 55 10 .50    -145    106    -26    180    182 306.2  -8.2  33584  279.88 0864.78
2015 04 09 09 55 10 .77    -139    102    -26    173    175 306.2  -8.6  33584  279.88 0864.78
2015 04 09 09 55 11 .01    -128     93    -24    159    161 305.9  -8.6  33578  279.80 0864.78
2015 04 09 09 55 11 .26    -134     84    -27    159    162 302.0  -9.6  33578  279.78 0864.78
2015 04 09 09 55 11 .51    -141     84    -23    165    167 300.9  -8.0  33576  279.75 0864.78
2015 04 09 09 55 11 .76    -140     76    -39    160    165 298.6 -13.7  33572  279.70 0864.78
2015 04 09 09 55 12 .01    -141     80    -42    163    169 299.5 -14.5  33574  279.72 0864.78
2015 04 09 09 55 12 .27    -140     85    -39    164    169 301.3 -13.7  33576  279.75 0864.78
2015 04 09 09 55 12 .52    -128     81    -42    152    158 302.4 -15.5  33574  279.72 0864.78
2015 04 09 09 55 12 .77    -127     77    -38    149    154 301.5 -14.5  33576  279.75 0864.78
2015 04 09 09 55 13 .02    -116     66    -32    134    138 299.8 -13.4  33576  279.75 0864.78
2015 04 09 09 55 13 .28    -113     49    -27    124    127 293.6 -12.4  33588  279.95 0864.78
2015 04 09 09 55 13 .52    -112     57    -20    126    128 297.1  -9.3  33610  280.33 0864.78
2015 04 09 09 55 13 .77    -119     55    -17    132    134 294.8  -7.3  33596  280.08 0864.79
2015 04 09 09 55 14 .02    -104     45    -27    114    118 293.5 -13.3  33610  280.32 0864.79
2015 04 09 09 55 14 .27    -107     46    -11    117    118 293.5  -5.6  33606  280.27 0864.79
2015 04 09 09 55 14 .53     -62     39    -23     74     77 302.5 -23.8  33622  280.53 0864.79
2015 04 09 09 55 14 .77     -17     51      9     54     55 341.3  10.1  33642  280.87 0864.79
2015 04 09 09 55 15 .02     -33     65     24     74     78 332.8  17.9  33644  280.90 0864.79
2015 04 09 09 55 15 .27     -40     55      3     69     70 324.0   2.8  33636  280.77 0864.79
2015 04 09 09 55 15 .52     -34     52      3     63     64 326.6   2.8  33640  280.82 0864.78
2015 04 09 09 55 15 .78     -71     63    -15     96     98 311.8  -8.8  33618  280.47 0864.78
2015 04 09 09 55 16 .02     -83     79    -39    115    121 313.6 -23.3  33614  280.38 0864.78
2015 04 09 09 55 16 .27     -93     83    -44    126    133 311.8 -23.8  33614  280.38 0864.78
2015 04 09 09 55 16 .52     -66    103    -41    123    130 327.0 -18.7  33604  280.23 0864.78
2015 04 09 09 55 16 .78     -81     95    -53    126    136 319.5 -28.5  33602  280.18 0864.78
2015 04 09 09 55 17 .02     -74     79    -44    109    117 316.8 -27.4  33602  280.18 0864.78
2015 04 09 09 55 17 .28     -43     85    -29     96    100 332.8 -21.7  33622  280.52 0864.79
2015 04 09 09 55 17 .52     -56     88    -20    105    107 327.4 -10.9  33628  280.63 0864.79
2015 04 09 09 55 17 .79     -57     72    -11     92     93 321.7  -7.2  33636  280.77 0864.79
2015 04 09 09 55 18 .04     -63     63      6     90     91 315.0   3.8  33664  281.24 0864.79
2015 04 09 09 55 18 .32     -69     89    -35    113    119 322.2 -17.6  33592  280.03 0864.79
2015 04 09 09 55 18 .54     -61     92    -40    111    117 326.2 -25.3  33586  279.92 0864.79
2015 04 09 09 55 18 .79     -66     74    -43    100    108 318.6 -29.0  33590  279.98 0864.79
2015 04 09 09 55 19 .05     -59     72    -33     94    100 320.4 -19.7  33634  280.72 0864.79
2015 04 09 09 55 19 .29     -69     47    -33     84     90 304.6 -26.4  33640  280.82 0864.79
2015 04 09 09 55 19 .55     -70     51     -1     87     88 306.4  -1.3  33662  281.20 0864.79
2015 04 09 09 55 19 .79     -95     51     -1    108    109 298.4  -0.7  33650  281.00 0864.79
2015 04 09 09 55 20 .04    -104     61     -4    121    122 300.7  -2.2  33642  280.87 0864.78
2015 04 09 09 55 20 .30    -116     55    -15    129    130 295.3  -6.7  33642  280.85 0864.78
2015 04 09 09 55 20 .55    -141     44    -28    148    151 287.7 -10.9  33676  281.44 0864.78
2015 04 09 09 55 20 .80     -97     44      5    107    108 294.8   2.9  33674  281.39 0864.78
2015 04 09 09 55 21 .05    -108     36    -23    115    118 288.6 -11.3  33674  281.39 0864.78
2015 04 09 09 55 21 .30    -112     44     -6    121    122 291.7  -3.2  33690  281.65 0864.78
2015 04 09 09 55 21 .55    -112     71    -36    133    139 302.5 -15.4  33666  281.27 0864.78
2015 04 09 09 55 21 .80    -134     56    -40    146    152 292.6 -15.4  33670  281.34 0864.78
2015 04 09 09 55 22 .05     -67     72    -20     99    102 316.8 -11.5  33682  281.54 0864.78
2015 04 09 09 55 22 .30     -79     62    -36    101    108 308.2 -19.6  33676  281.42 0864.78
2015 04 09 09 55 22 .55    -111     52    -36    123    128 295.2 -21.2  33648  280.95 0864.78
2015 04 09 09 55 22 .80     -82     68    -13    107    108 309.6  -7.2  33688  281.64 0864.78
2015 04 09 09 55 23 .05     -67     93    -10    115    116 324.0  -5.2  33688  281.62 0864.78
2015 04 09 09 55 23 .30     -38     78     54     87    102 333.7  35.0  33716  282.11 0864.78
2015 04 09 09 55 23 .55     -47     90     60    102    118 332.4  33.5  33718  282.14 0864.78
2015 04 09 09 55 23 .81     -69     95      1    118    119 324.0   0.7  33720  282.17 0864.78
2015 04 09 09 55 24 .05     -82    108      2    136    137 322.6   1.2  33704  281.89 0864.78
2015 04 09 09 55 24 .31    -134     89    -31    162    165 303.7 -10.9  33626  280.60 0864.78
2015 04 09 09 55 24 .56    -149    105    -23    183    185 305.3  -7.3  33604  280.22 0864.78
2015 04 09 09 55 24 .81    -147    108    -23    183    185 306.4  -7.2  33596  280.08 0864.78
2015 04 09 09 55 25 .07    -145    113    -20    185    187 308.0  -6.2  33592  280.02 0864.78
2015 04 09 09 55 25 .32    -145    115    -12    186    187 308.4  -3.7  33580  279.83 0864.78
2015 04 09 09 55 25 .57    -149    105    -23    183    185 305.1  -7.3  33578  279.80 0864.78
2015 04 09 09 55 25 .82    -153    104    -29    186    189 304.2  -9.0  33578  279.80 0864.78
2015 04 09 09 55 26 .07    -162    101    -35    192    196 302.0 -10.5  33576  279.75 0864.78
2015 04 09 09 55 26 .32    -153    104    -29    186    189 304.2  -9.0  33578  279.80 0864.78
2015 04 09 09 55 26 .57    -149     97    -24    178    180 303.1  -7.7  33582  279.85 0864.78
2015 04 09 09 55 26 .82    -149     94    -35    177    181 302.2 -11.3  33582  279.85 0864.78
2015 04 09 09 55 27 .07    -144     90    -32    170    174 302.0 -10.9  33578  279.80 0864.78
2015 04 09 09 55 27 .32    -136     67    -40    152    158 296.2 -15.0  33576  279.77 0864.77
2015 04 09 09 55 27 .57    -134     73    -37    153    158 298.8 -13.9  33578  279.80 0864.77
2015 04 09 09 55 27 .82    -132     70    -35    150    155 298.0 -13.3  33580  279.82 0864.77
2015 04 09 09 55 28 .07    -132     70    -35    150    155 298.0 -13.3  33580  279.82 0864.77
2015 04 09 09 55 28 .32    -137     64    -42    152    158 295.3 -15.5  33578  279.80 0864.77
2015 04 09 09 55 28 .57    -153     68    -46    168    175 294.2 -15.5  33576  279.77 0864.77
2015 04 09 09 55 28 .82    -147     72    -39    164    169 296.2 -13.4  33576  279.75 0864.77
2015 04 09 09 55 29 .07    -142     56    -41    153    159 291.7 -15.0  33574  279.72 0864.77
2015 04 09 09 55 29 .33    -139     49    -35    148    153 289.5 -13.3  33584  279.88 0864.77
2015 04 09 09 55 29 .57    -136     54    -46    147    154 291.8 -22.8  33604  280.22 0864.77
2015 04 09 09 55 29 .83    -125     65    -43    141    148 297.5 -17.0  33604  280.22 0864.77
2015 04 09 09 55 30 .08    -145     49    -27    154    157 288.6 -10.3  33592  280.02 0864.77
2015 04 09 09 55 30 .33    -131     97    -11    164    165 306.6  -4.1  33628  280.63 0864.77
2015 04 09 09 55 30 .58    -115     38    -38    122    127 288.2 -22.3  33618  280.47 0864.77
2015 04 09 09 55 30 .83    -143     56    -33    154    158 291.7 -12.2  33634  280.72 0864.77
2015 04 09 09 55 31 .08    -151     68    -18    166    168 294.4  -6.5  33638  280.78 0864.77
2015 04 09 09 55 31 .33    -119     43    -17    127    129 289.9  -7.7  33634  280.72 0864.77
2015 04 09 09 55 31 .59    -141     45    -13    149    150 287.7  -5.2  33632  280.68 0864.77
2015 04 09 09 55 31 .85    -115     50    -33    126    131 293.5 -15.0  33652  281.04 0864.78
2015 04 09 09 55 32 .09    -108     47    -11    118    119 293.5  -5.6  33640  280.82 0864.78
2015 04 09 09 55 32 .34    -106     82    -10    135    136 307.8  -4.6  33638  280.80 0864.78
2015 04 09 09 55 32 .60    -133     73    -39    152    157 298.9 -14.5  33616  280.42 0864.78
2015 04 09 09 55 32 .85    -147     53    -21    157    159 290.0  -7.7  33632  280.70 0864.78
2015 04 09 09 55 33 .09    -140     74    -28    159    162 298.0 -10.1  33646  280.93 0864.78
2015 04 09 09 55 33 .34    -143     66    -33    158    162 294.8 -11.9  33646  280.93 0864.78
2015 04 09 09 55 33 .59    -149     68    -42    164    170 294.6 -14.5  33604  280.23 0864.78
2015 04 09 09 55 33 .85    -150     85    -34    173    177 299.5 -11.3  33634  280.73 0864.78
2015 04 09 09 55 34 .09    -131     93    -30    161    164 305.5 -10.9  33644  280.90 0864.78
2015 04 09 09 55 34 .35    -134    101    -35    169    173 307.1 -11.9  33636  280.75 0864.78
2015 04 09 09 55 34 .60    -138     93    -33    167    171 304.0 -11.3  33630  280.67 0864.78
2015 04 09 09 55 34 .84    -122     99    -31    158    162 309.1 -11.1  33604  280.23 0864.78
2015 04 09 09 55 35 .10    -124     84    -41    151    157 304.2 -15.5  33590  279.98 0864.78
2015 04 09 09 55 35 .35    -139     81    -35    161    165 300.2 -12.4  33574  279.72 0864.78
2015 04 09 09 55 35 .60    -128     81    -42    152    158 302.4 -15.5  33574  279.72 0864.78
2015 04 09 09 55 35 .85    -122     80    -46    146    154 303.3 -17.6  33574  279.72 0864.78
2015 04 09 09 55 36 .10    -124     84    -49    150    158 304.2 -18.1  33576  279.75 0864.78
2015 04 09 09 55 36 .35    -122     80    -46    146    154 303.3 -17.6  33582  279.87 0864.78
2015 04 09 09 55 36 .60    -128     83    -46    153    160 302.9 -16.8  33586  279.93 0864.78
2015 04 09 09 55 36 .86    -124     90    -49    154    161 306.0 -22.5  33596  280.08 0864.78
2015 04 09 09 55 37 .10    -118     85    -52    146    156 305.9 -19.6  33604  280.23 0864.78
2015 04 09 09 55 37 .36     -91     83     -2    124    125 312.2  -1.3  33610  280.32 0864.78
2015 04 09 09 55 37 .61     -71     71     11    101    102 315.0   6.5  33614  280.40 0864.78
2015 04 09 09 55 37 .86     -95     83    -30    127    131 310.9 -13.4  33602  280.18 0864.78
2015 04 09 09 55 38 .11    -102     78    -22    129    131 307.3  -9.8  33604  280.22 0864.78
2015 04 09 09 55 38 .35     -85     98    -16    130    132 319.0  -7.2  33596  280.08 0864.78
2015 04 09 09 55 38 .62    -115     95    -23    150    152 309.5  -8.8  33596  280.10 0864.78
2015 04 09 09 55 38 .86    -104     85    -31    135    139 309.5 -13.3  33580  279.82 0864.78
2015 04 09 09 55 39 .11     -94     77    -43    122    130 309.5 -19.7  33576  279.75 0864.78
2015 04 09 09 55 39 .37    -108     78    -35    134    139 306.0 -15.0  33604  280.23 0864.78
2015 04 09 09 55 39 .62    -103     61    -42    120    128 300.6 -19.6  33590  280.00 0864.78
2015 04 09 09 55 39 .87     -86     66    -28    109    113 307.3 -14.5  33600  280.15 0864.78
2015 04 09 09 55 40 .12     -78     77    -38    110    117 314.6 -19.1  33606  280.25 0864.78
2015 04 09 09 55 40 .37     -75     75    -32    107    111 315.0 -21.7  33606  280.27 0864.78
2015 04 09 09 55 40 .62     -65     79    -36    103    109 320.8 -23.3  33610  280.33 0864.78
2015 04 09 09 55 40 .87     -43     92    -13    102    103 334.6  -7.3  33614  280.38 0864.78
2015 04 09 09 55 41 .12     -43    109     25    118    121 338.2  12.2  33624  280.57 0864.78
2015 04 09 09 55 41 .38     -36     68     23     78     82 331.9  16.3  33636  280.77 0864.78
2015 04 09 09 55 41 .62     -39     77     12     87     88 332.8   8.0  33630  280.67 0864.78
2015 04 09 09 55 41 .87     -76     71      5    105    106 313.1   2.9  33616  280.42 0864.78
2015 04 09 09 55 42 .12     -99     78    -10    127    128 308.2  -4.6  33614  280.38 0864.78
2015 04 09 09 55 42 .38    -134     94    -27    164    167 305.1  -9.6  33602  280.20 0864.78
2015 04 09 09 55 42 .62    -123     74     -2    144    145 301.1  -1.2  33614  280.38 0864.79
2015 04 09 09 55 42 .88     -98     59    -19    115    117 301.1  -9.4  33602  280.18 0864.79
2015 04 09 09 55 43 .13     -98     66    -34    119    124 304.1 -16.0  33598  280.13 0864.79
2015 04 09 09 55 43 .37    -102     64    -32    121    126 302.4 -15.0  33588  279.95 0864.79
2015 04 09 09 55 43 .63    -108     62    -39    125    132 299.8 -17.6  33598  280.13 0864.79
2015 04 09 09 55 43 .88    -117     74    -32    139    143 302.4 -13.3  33598  280.12 0864.79
2015 04 09 09 55 44 .12    -102     66    -31    122    127 302.9 -14.5  33596  280.10 0864.79
2015 04 09 09 55 44 .38    -105     67    -43    125    133 302.5 -19.1  33584  279.90 0864.79
2015 04 09 09 55 44 .63     -97     62    -24    116    119 302.5 -11.9  33586  279.92 0864.79
2015 04 09 09 55 44 .88     -96     52    -30    110    115 298.8 -15.5  33584  279.90 0864.79
2015 04 09 09 55 45 .13     -97     51    -26    110    114 298.0 -13.4  33584  279.88 0864.79
2015 04 09 09 55 45 .38    -103     42    -23    112    115 292.2 -11.9  33590  279.98 0864.79
2015 04 09 09 55 45 .65    -107     57    -38    122    128 298.0 -17.5  33596  280.10 0864.79
2015 04 09 09 55 45 .89    -105     62    -27    123    126 300.6 -12.4  33646  280.93 0864.79
2015 04 09 09 55 46 .15     -90     79     13    121    122 311.3   6.5  33642  280.85 0864.79
2015 04 09 09 55 46 .40     -84     63     -2    106    107 306.9  -1.3  33652  281.02 0864.79
2015 04 09 09 55 46 .65    -100     94      0    138    139 313.1   0.2  33674  281.39 0864.79
2015 04 09 09 55 46 .90     -51     80     12     95     96 327.5   7.5  33672  281.35 0864.79
2015 04 09 09 55 47 .15     -40     84     -2     94     95 334.7  -1.8  33646  280.92 0864.79
2015 04 09 09 55 47 .40     -24     71     14     75     77 341.3  11.1  33654  281.05 0864.79
2015 04 09 09 55 47 .65     -50     62     23     80     84 321.3  16.3  33658  281.14 0864.79
2015 04 09 09 55 47 .90     -41     71    -11     83     84 329.7  -7.7  33636  280.77 0864.79
2015 04 09 09 55 48 .15     -49     60    -10     78     79 320.4  -7.3  33636  280.77 0864.79
2015 04 09 09 55 48 .40     -56     58     14     81     83 315.9  10.1  33642  280.85 0864.79
2015 04 09 09 55 48 .65     -34     55      5     65     66 328.4   4.9  33654  281.05 0864.79
2015 04 09 09 55 48 .90     -31     77     27     84     89 338.2  17.9  33670  281.34 0864.79
2015 04 09 09 55 49 .15     -38     65     26     76     81 329.3  19.4  33674  281.39 0864.79
2015 04 09 09 55 49 .40     -37    106      9    113    114 340.4   4.9  33658  281.14 0864.79
2015 04 09 09 55 49 .66     -27    100     12    104    105 344.4   7.1  33666  281.25 0864.79
2015 04 09 09 55 49 .90     -55     80    -12     98     99 325.7  -7.3  33696  281.75 0864.79
2015 04 09 09 55 50 .16     -39     72      0     82     83 331.5  -0.3  33706  281.92 0864.79
2015 04 09 09 55 50 .40     -50     65     27     83     88 322.2  18.4  33686  281.60 0864.79
2015 04 09 09 55 50 .66     -72     83     49    111    121 319.0  25.2  33684  281.55 0864.79
2015 04 09 09 55 50 .91     -33    101     51    107    118 341.7  27.2  33700  281.82 0864.79
2015 04 09 09 55 51 .16     -59     56     66     82    105 313.6  43.3  33710  282.00 0864.79
2015 04 09 09 55 51 .41     -56     30     88     64    108 298.0  60.5  33738  282.47 0864.79
2015 04 09 09 55 51 .65     -71     63    -10     96     97 311.8  -6.2  33676  281.42 0864.79
2015 04 09 09 55 51 .91     -59     81     -9    101    102 323.9  -5.2  33670  281.32 0864.79
2015 04 09 09 55 52 .16     -30     68      5     75     76 336.4   3.8  33674  281.39 0864.79
2015 04 09 09 55 52 .42    -114     72     -7    136    137 302.4  -3.1  33642  280.87 0864.79
2015 04 09 09 55 52 .67    -138     71    -10    156    157 297.1  -3.9  33636  280.75 0864.79
2015 04 09 09 55 52 .92    -135     94    -36    165    169 305.1 -12.4  33596  280.08 0864.78
2015 04 09 09 55 53 .17    -114     94    -30    149    153 309.5 -11.5  33582  279.87 0864.78
2015 04 09 09 55 53 .42    -118     90    -25    149    152 307.3  -9.8  33584  279.88 0864.78
2015 04 09 09 55 53 .67    -112     81    -20    139    141 305.9  -8.2  33574  279.72 0864.78
2015 04 09 09 55 53 .92    -118     85    -17    146    147 306.0  -6.7  33586  279.93 0864.78
2015 04 09 09 55 54 .18    -114     90    -18    146    148 308.2  -7.3  33592  280.03 0864.78
2015 04 09 09 55 54 .43    -103     86     -7    135    136 309.6  -3.2  33618  280.45 0864.78
2015 04 09 09 55 54 .68     -98     71     -2    122    123 306.0  -1.3  33622  280.52 0864.77
2015 04 09 09 55 54 .92     -79     67     -2    104    105 310.4  -1.3  33628  280.62 0864.77
2015 04 09 09 55 55 .18     -70     76      0    104    105 317.7  -0.3  33634  280.73 0864.77
2015 04 09 09 55 55 .42     -73     78      5    108    109 316.8   2.8  33630  280.65 0864.77
2015 04 09 09 55 55 .68     -91     57     -9    108    109 302.4  -5.2  33596  280.08 0864.77
2015 04 09 09 55 55 .93     -75     73      0    105    106 314.4   0.2  33634  280.73 0864.77
2015 04 09 09 55 56 .17     -98     71      5    122    123 306.0   2.3  33602  280.18 0864.77
2015 04 09 09 55 56 .43     -94     72    -10    119    120 307.3  -5.2  33582  279.85 0864.78
2015 04 09 09 55 56 .68     -98     71      3    122    123 305.9   1.8  33590  279.98 0864.78
2015 04 09 09 55 56 .93    -103     80     -2    131    132 307.8  -1.3  33584  279.88 0864.78
2015 04 09 09 55 57 .18     -79     83      4    115    116 316.3   2.3  33592  280.03 0864.78
2015 04 09 09 55 57 .43     -76     75      6    107    108 314.6   3.3  33602  280.18 0864.78
2015 04 09 09 55 57 .68     -97     75     -2    123    124 307.8  -1.2  33586  279.93 0864.78
2015 04 09 09 55 57 .93     -89     64     -7    110    111 305.9  -3.7  33588  279.95 0864.78
2015 04 09 09 55 58 .18     -89     71     13    115    116 308.6   6.9  33592  280.03 0864.78
2015 04 09 09 55 58 .43    -105     67     -3    125    126 302.5  -1.8  33578  279.80 0864.78
2015 04 09 09 55 58 .68    -109     74    -16    132    134 304.2  -7.2  33574  279.72 0864.78
2015 04 09 09 55 58 .93    -110     70    -16    131    133 302.4  -7.3  33572  279.70 0864.78
2015 04 09 09 55 59 .18    -117     74    -26    139    142 302.4 -10.9  33574  279.72 0864.79
2015 04 09 09 55 59 .44    -109     69    -25    130    133 302.4 -10.9  33576  279.77 0864.79
2015 04 09 09 55 59 .69    -109     62    -32    126    131 299.8 -14.5  33576  279.75 0864.79
2015 04 09 09 55 59 .94    -103     65    -24    123    126 302.4 -11.3  33574  279.73 0864.79
2015 04 09 09 56 00 .19    -101     69    -20    123    125 304.2  -9.4  33584  279.90 0864.79
2015 04 09 09 56 00 .45     -80     72    -18    108    110 312.2  -9.8  33578  279.78 0864.79
2015 04 09 09 56 00 .70     -82     80    -14    115    116 314.4  -7.2  33584  279.90 0864.79
2015 04 09 09 56 00 .95     -77     64     -2    101    102 309.5  -1.3  33602  280.18 0864.79
2015 04 09 09 56 01 .20     -54     62      9     83     84 319.0   6.5  33620  280.48 0864.79
2015 04 09 09 56 01 .45     -76     71     -2    105    106 313.1  -1.2  33592  280.03 0864.79
2015 04 09 09 56 01 .70     -83     68      5    108    109 309.1   2.9  33594  280.05 0864.79
2015 04 09 09 56 01 .95     -83     74     -1    112    113 311.8  -0.7  33586  279.92 0864.79
2015 04 09 09 56 02 .20     -66     63     17     92     94 313.6  10.6  33600  280.15 0864.79
2015 04 09 09 56 02 .45    -107     78     -5    133    134 306.0  -2.2  33580  279.83 0864.79
2015 04 09 09 56 02 .70    -109     74    -16    132    134 304.2  -7.2  33574  279.72 0864.79
2015 04 09 09 56 02 .95    -107     62    -12    124    125 300.2  -5.6  33576  279.75 0864.79
2015 04 09 09 56 03 .20    -105     52    -19    118    120 296.6  -9.4  33576  279.77 0864.79
2015 04 09 09 56 03 .45    -109     54    -24    122    125 296.6 -11.3  33578  279.78 0864.79
2015 04 09 09 56 03 .70    -120     50    -31    131    135 292.6 -13.4  33574  279.72 0864.78
2015 04 09 09 56 03 .95    -118     61    -27    134    137 297.5 -11.5  33576  279.75 0864.78
2015 04 09 09 56 04 .20    -114     54    -21    127    129 295.3  -9.8  33576  279.75 0864.78
2015 04 09 09 56 04 .45    -116     58    -25    130    133 296.6 -10.9  33574  279.72 0864.78
2015 04 09 09 56 04 .71    -111     62    -25    128    131 299.3 -11.3  33574  279.72 0864.78
2015 04 09 09 56 04 .95    -101     47    -22    112    115 295.2 -11.3  33576  279.75 0864.78
2015 04 09 09 56 05 .20    -111     40    -34    119    124 290.0 -16.0  33570  279.67 0864.78
2015 04 09 09 56 05 .46    -110     46    -24    120    123 292.6 -11.3  33570  279.67 0864.78
2015 04 09 09 56 05 .71    -113     49    -27    124    127 293.6 -12.4  33570  279.65 0864.78
2015 04 09 09 56 05 .96    -108     49    -28    119    123 294.8 -13.4  33570  279.67 0864.78
2015 04 09 09 56 06 .21    -116     50    -25    127    130 293.5 -11.3  33570  279.67 0864.78
2015 04 09 09 56 06 .47    -114     38    -30    121    125 288.4 -13.9  33570  279.67 0864.78
2015 04 09 09 56 06 .72    -106     40    -37    114    120 290.8 -18.1  33570  279.65 0864.78
2015 04 09 09 56 06 .97    -108     36    -41    115    123 288.6 -19.7  33570  279.65 0864.78
2015 04 09 09 56 07 .22    -116     42    -32    124    129 289.9 -14.5  33570  279.65 0864.78
2015 04 09 09 56 07 .47    -109     35    -32    115    120 288.2 -15.5  33572  279.70 0864.78
2015 04 09 09 56 07 .72    -114     38    -30    121    125 288.4 -13.9  33570  279.67 0864.78
2015 04 09 09 56 07 .97    -110     37    -33    117    122 288.6 -16.0  33574  279.72 0864.78
2015 04 09 09 56 08 .22    -109     27    -32    113    118 284.2 -16.0  33570  279.67 0864.78
2015 04 09 09 56 08 .47    -118     24    -35    121    125 281.5 -21.2  33570  279.67 0864.78
2015 04 09 09 56 08 .72    -116     27    -40    120    126 283.3 -23.6  33574  279.72 0864.78
2015 04 09 09 56 08 .97    -103     25    -35    107    112 283.7 -23.8  33576  279.77 0864.78
2015 04 09 09 56 09 .23    -110     22    -33    113    117 281.5 -21.7  33584  279.90 0864.78
2015 04 09 09 56 09 .47    -103     38    -33    110    116 290.4 -17.0  33592  280.03 0864.78
2015 04 09 09 56 09 .73     -92     28    -31     97    101 287.3 -23.3  33584  279.88 0864.78
2015 04 09 09 56 09 .98     -99     32    -31    105    109 288.2 -21.7  33586  279.93 0864.78
2015 04 09 09 56 10 .23     -96     35    -35    103    108 290.4 -23.3  33574  279.72 0864.78
2015 04 09 09 56 10 .48     -83     51    -26     98    102 302.0 -15.0  33596  280.10 0864.78
2015 04 09 09 56 10 .73     -78     51     -2     94     95 303.3  -1.8  33622  280.52 0864.78
2015 04 09 09 56 10 .98     -28      9     38     30     48 288.6  57.5  33666  281.25 0864.78
2015 04 09 09 56 11 .23      -8      9     29     13     31 316.6  73.1  33678  281.47 0864.78
2015 04 09 09 56 11 .48      11      0      0     12     13  94.4  -2.2  33690  281.65 0864.78
2015 04 09 09 56 11 .73      -7     11    -14     14     19 327.5 -54.5  33676  281.42 0864.78
2015 04 09 09 56 11 .99     -49     57     -9     76     77 319.5  -7.2  33656  281.10 0864.78
2015 04 09 09 56 12 .23     -70     -1    -24     71     76 269.2 -19.1  33646  280.93 0864.78
2015 04 09 09 56 12 .48    -107     15    -13    109    110 278.0  -7.2  33624  280.57 0864.78
2015 04 09 09 56 12 .73    -108     16    -30    110    115 278.8 -15.5  33606  280.25 0864.78
2015 04 09 09 56 12 .99    -122      8    -33    123    128 273.9 -15.0  33600  280.17 0864.78
2015 04 09 09 56 13 .24    -113     23    -27    116    120 281.5 -13.4  33596  280.08 0864.78
2015 04 09 09 56 13 .49    -117     22    -33    120    125 281.0 -15.5  33570  279.67 0864.78
2015 04 09 09 56 13 .74    -124     27    -26    127    130 282.4 -11.9  33570  279.65 0864.78
2015 04 09 09 56 13 .99    -114     27    -31    118    123 283.3 -15.0  33570  279.65 0864.78
2015 04 09 09 56 14 .24    -112     22    -36    115    121 281.5 -17.5  33572  279.70 0864.78
2015 04 09 09 56 14 .49    -120     27    -34    124    129 282.8 -15.5  33572  279.70 0864.78
2015 04 09 09 56 14 .74    -118     35    -44    124    132 286.8 -19.7  33574  279.73 0864.78
2015 04 09 09 56 15 .00    -113     26    -38    117    124 283.3 -18.1  33574  279.73 0864.78
2015 04 09 09 56 15 .25    -115     35    -33    121    126 286.9 -15.4  33582  279.85 0864.78
2015 04 09 09 56 15 .50    -118     26    -38    122    128 282.8 -17.5  33582  279.85 0864.78
2015 04 09 09 56 15 .75    -110     17    -35    112    118 279.2 -17.5  33582  279.87 0864.78
2015 04 09 09 56 16 .00    -113     44    -37    122    128 291.3 -17.0  33600  280.17 0864.78
2015 04 09 09 56 16 .25    -118     46    -35    127    131 291.7 -20.2  33598  280.13 0864.78
2015 04 09 09 56 16 .50    -109     45    -33    119    123 292.6 -20.2  33600  280.15 0864.78
2015 04 09 09 56 16 .75    -107     35    -31    113    117 288.2 -20.2  33598  280.13 0864.78
2015 04 09 09 56 17 .00    -113     37    -24    119    122 288.2 -11.5  33598  280.13 0864.78
2015 04 09 09 56 17 .25    -106     54    -27    119    123 297.0 -12.9  33604  280.22 0864.78
2015 04 09 09 56 17 .50    -100     62    -37    118    124 302.0 -17.5  33604  280.22 0864.78
2015 04 09 09 56 17 .76    -113     62    -30    129    133 298.8 -13.3  33604  280.23 0864.78
2015 04 09 09 56 18 .00    -103     49    -32    115    120 295.4 -15.5  33606  280.27 0864.78
2015 04 09 09 56 18 .26    -105     39    -19    113    115 290.4  -9.8  33604  280.23 0864.78
2015 04 09 09 56 18 .51    -119     20    -15    121    122 279.7  -7.3  33596  280.10 0864.78
2015 04 09 09 56 18 .76    -146     22    -34    148    153 278.8 -13.2  33592  280.02 0864.78
2015 04 09 09 56 19 .01    -152     72    -37    169    174 295.5 -12.4  33592  280.03 0864.78
2015 04 09 09 56 19 .26    -142     72    -20    160    162 297.1  -7.2  33588  279.97 0864.78
2015 04 09 09 56 19 .51    -124     93    -17    156    158 306.9  -6.5  33594  280.05 0864.78
2015 04 09 09 56 19 .76    -110     85    -27    140    143 307.8 -10.9  33586  279.92 0864.78
2015 04 09 09 56 20 .01    -118     70    -18    138    140 300.6  -7.7  33596  280.08 0864.78
2015 04 09 09 56 20 .27    -110     66    -15    129    130 301.1  -6.7  33596  280.08 0864.78
2015 04 09 09 56 20 .52    -108     58    -20    123    125 298.4  -9.4  33598  280.12 0864.78
2015 04 09 09 56 20 .77    -114     61    -21    130    132 298.4  -9.4  33584  279.90 0864.78
2015 04 09 09 56 21 .02    -113     57    -28    127    131 297.1 -12.4  33590  280.00 0864.77
2015 04 09 09 56 21 .27    -108     50    -20    120    122 294.8  -9.8  33598  280.12 0864.77
2015 04 09 09 56 21 .53     -98     46    -17    109    111 295.4  -8.8  33596  280.10 0864.77
2015 04 09 09 56 21 .77    -108     26    -22    112    115 283.7 -11.3  33598  280.12 0864.77
2015 04 09 09 56 22 .03     -96     22    -22     99    102 283.3 -12.9  33596  280.08 0864.77
2015 04 09 09 56 22 .27     -97     26    -12    101    102 285.1  -7.3  33620  280.48 0864.77
2015 04 09 09 56 22 .52     -83     44     -6     95     96 298.0  -3.7  33624  280.55 0864.77
2015 04 09 09 56 22 .77     -92     30     -9     97     98 288.2  -5.6  33602  280.18 0864.77
2015 04 09 09 56 23 .02     -83     31    -17     89     91 290.8 -10.9  33594  280.05 0864.77
2015 04 09 09 56 23 .28     -80     27    -24     85     88 289.1 -20.7  33590  280.00 0864.77
2015 04 09 09 56 23 .53     -75     30    -21     81     84 292.2 -14.5  33588  279.95 0864.77
2015 04 09 09 56 23 .77     -87     46    -29     99    104 298.0 -16.6  33586  279.93 0864.77
2015 04 09 09 56 24 .03     -88     41    -29     98    102 294.8 -21.2  33584  279.90 0864.77
2015 04 09 09 56 24 .28    -102     43    -33    111    115 293.1 -21.7  33588  279.95 0864.77
2015 04 09 09 56 24 .53     -91     42    -36    101    108 294.8 -19.7  33588  279.95 0864.77
2015 04 09 09 56 24 .79     -94     34    -28    101    105 290.0 -15.5  33602  280.18 0864.77
2015 04 09 09 56 25 .03    -101     38    -22    109    112 290.8 -11.3  33618  280.47 0864.77
2015 04 09 09 56 25 .28    -113     35    -26    119    122 287.3 -12.4  33616  280.42 0864.77
2015 04 09 09 56 25 .54    -130     43    -32    138    142 288.4 -13.3  33628  280.62 0864.77
2015 04 09 09 56 25 .79    -110     52    -33    122    127 295.4 -15.4  33634  280.72 0864.77
2015 04 09 09 56 26 .04    -105     43     -2    114    115 292.2  -1.3  33638  280.78 0864.77
2015 04 09 09 56 26 .29     -56     52     -4     77     78 313.1  -3.2  33646  280.93 0864.77
2015 04 09 09 56 26 .54     -59     63      4     87     88 316.8   2.8  33648  280.95 0864.77
2015 04 09 09 56 26 .79     -62     88    -14    108    109 324.8  -7.7  33636  280.77 0864.77
2015 04 09 09 56 27 .04     -46     56      3     73     74 320.4   2.9  33630  280.65 0864.77
2015 04 09 09 56 27 .30     -78     43     -2     90     91 298.9  -1.8  33630  280.67 0864.77
2015 04 09 09 56 27 .55     -91     66    -15    113    115 306.0  -7.7  33630  280.67 0864.77
2015 04 09 09 56 27 .80     -54     76    -23     94     97 324.4 -13.9  33646  280.93 0864.77
2015 04 09 09 56 28 .05     -98     71     -4    122    123 306.0  -2.2  33652  281.04 0864.77
2015 04 09 09 56 28 .30     -68     69      5     98     99 315.3   3.3  33656  281.09 0864.77
2015 04 09 09 56 28 .55     -64     64     31     91     97 315.0  19.2  33666  281.27 0864.77
2015 04 09 09 56 28 .80     -90     46    -13    102    103 297.1  -7.3  33650  281.00 0864.77
2015 04 09 09 56 29 .05     -69     56      2     90     91 309.1   1.8  33654  281.07 0864.77
2015 04 09 09 56 29 .30    -103     48    -14    114    115 295.2  -7.3  33642  280.85 0864.77
2015 04 09 09 56 29 .55     -81     45    -24     94     98 299.3 -14.5  33576  279.77 0864.77
2015 04 09 09 56 29 .80     -81     54    -31     98    103 303.7 -17.6  33600  280.15 0864.77
2015 04 09 09 56 30 .05     -81     47    -30     94     99 300.2 -18.1  33604  280.22 0864.78
2015 04 09 09 56 30 .30     -83     42    -19     94     97 297.1 -11.9  33606  280.25 0864.78
2015 04 09 09 56 30 .55     -88     36    -19     96     98 292.6 -11.5  33602  280.18 0864.78
2015 04 09 09 56 30 .80     -80     53     -3     97     98 303.7  -2.2  33602  280.18 0864.78
2015 04 09 09 56 31 .05     -76     50     -9     92     93 303.3  -5.6  33596  280.08 0864.78
2015 04 09 09 56 31 .32     -67     47    -18     82     84 305.1 -12.4  33604  280.23 0864.78
2015 04 09 09 56 31 .56     -53     49      8     73     74 313.1   6.9  33648  280.95 0864.78
2015 04 09 09 56 31 .81     -24     50     36     56     66 334.5  35.6  33678  281.47 0864.78
2015 04 09 09 56 32 .06     -49     24     -6     55     56 296.2  -6.2  33680  281.49 0864.78
2015 04 09 09 56 32 .31     -53     38     -3     66     67 306.0  -3.1  33688  281.62 0864.78
2015 04 09 09 56 32 .56     -41     27     -5     50     51 303.3  -6.2  33702  281.85 0864.78
2015 04 09 09 56 32 .81     -20     32     20     38     42 327.5  30.3  33712  282.04 0864.78
2015 04 09 09 56 33 .06     -23      7      8     25     27 288.2  18.9  33732  282.36 0864.78
2015 04 09 09 56 33 .31     -14     12     -3     19     20 309.5  -9.3  33726  282.27 0864.78
2015 04 09 09 56 33 .57     -27     19     39     34     51 306.0  54.3  33740  282.49 0864.78
2015 04 09 09 56 33 .81     -41     37     42     56     70 312.2  40.7  33750  282.66 0864.78
2015 04 09 09 56 34 .06     -31     31     20     45     49 315.0  24.1  33708  281.97 0864.78
2015 04 09 09 56 34 .32     -63     35     -2     73     74 298.8  -2.2  33662  281.19 0864.78
2015 04 09 09 56 34 .58     -62     55    -20     84     87 311.8 -13.9  33668  281.29 0864.77
2015 04 09 09 56 34 .83     -44     60      0     75     76 323.9  -0.3  33678  281.47 0864.77
2015 04 09 09 56 35 .07     -58     48     13     76     78 309.6  10.1  33668  281.29 0864.77
2015 04 09 09 56 35 .33     -62     55      0     84     85 311.8   0.2  33670  281.32 0864.77
2015 04 09 09 56 35 .58     -67     48     10     83     84 305.5   6.9  33682  281.52 0864.77
2015 04 09 09 56 35 .83     -72     64     12     97     98 311.8   7.1  33668  281.29 0864.77
2015 04 09 09 56 36 .08     -77     63    -21    100    103 309.6 -11.9  33624  280.57 0864.77
2015 04 09 09 56 36 .33     -81     35    -22     89     92 293.5 -13.9  33634  280.72 0864.77
2015 04 09 09 56 36 .57     -78     40    -26     88     92 297.1 -16.6  33606  280.27 0864.78
2015 04 09 09 56 36 .83     -86     46    -35     98    105 298.0 -19.7  33610  280.32 0864.78
2015 04 09 09 56 37 .08     -97     46    -30    108    113 295.4 -15.5  33600  280.15 0864.78
2015 04 09 09 56 37 .33    -101     50    -13    113    114 296.6  -6.7  33602  280.20 0864.78
2015 04 09 09 56 37 .58     -91     54    -13    106    107 300.7  -7.2  33606  280.27 0864.78
2015 04 09 09 56 37 .83     -86     50     -3    100    101 300.2  -2.2  33614  280.38 0864.78
2015 04 09 09 56 38 .08     -98     53    -10    112    113 298.8  -5.6  33620  280.48 0864.78
2015 04 09 09 56 38 .33     -94     58    -14    111    112 301.5  -7.3  33620  280.48 0864.78
2015 04 09 09 56 38 .58     -86     59    -13    105    106 304.2  -7.2  33616  280.42 0864.78
2015 04 09 09 56 38 .83     -66     60     -2     90     91 312.2  -1.8  33622  280.52 0864.78
2015 04 09 09 56 39 .09     -88     63    -22    109    112 305.9 -11.3  33618  280.45 0864.78
2015 04 09 09 56 39 .33     -89     61    -22    109    112 304.6 -11.3  33612  280.37 0864.78
2015 04 09 09 56 39 .58     -80     53    -11     97     98 303.7  -6.7  33616  280.42 0864.78
2015 04 09 09 56 39 .84     -86     51    -20    100    102 300.7 -11.3  33610  280.33 0864.78
2015 04 09 09 56 40 .09     -80     60     -7    100    101 306.9  -4.1  33620  280.48 0864.78
2015 04 09 09 56 40 .33     -68     47     -3     83     84 304.6  -2.2  33626  280.60 0864.78
2015 04 09 09 56 40 .59     -70     46    -30     84     90 303.3 -19.7  33600  280.15 0864.78
2015 04 09 09 56 40 .84     -72     45    -11     86     87 302.0  -7.3  33606  280.27 0864.78
2015 04 09 09 56 41 .10     -69     51    -12     86     87 306.4  -8.2  33610  280.33 0864.78
2015 04 09 09 56 41 .35     -44     76    -12     89     90 329.7  -8.2  33622  280.53 0864.78
2015 04 09 09 56 41 .60     -42     80    -11     91     92 332.4  -7.3  33624  280.57 0864.78
2015 04 09 09 56 41 .85     -42     58    -20     72     74 323.9 -20.7  33614  280.40 0864.78
2015 04 09 09 56 42 .10     -31     49    -18     59     61 327.4 -21.7  33616  280.43 0864.78
2015 04 09 09 56 42 .35     -39     30    -18     50     54 307.8 -19.7  33628  280.63 0864.78
2015 04 09 09 56 42 .60     -44     32     -2     55     56 306.0  -2.2  33640  280.82 0864.78
2015 04 09 09 56 42 .85     -39     44     -2     60     61 318.6  -2.2  33642  280.87 0864.79
2015 04 09 09 56 43 .11     -24     24     -9     35     37 314.9 -15.5  33636  280.77 0864.79
2015 04 09 09 56 43 .36     -27     31      3     42     43 319.5   4.9  33646  280.92 0864.79
2015 04 09 09 56 43 .60     -56     27      0     63     64 296.2   0.8  33626  280.58 0864.79
2015 04 09 09 56 43 .86     -57     39     -8     70     71 304.2  -7.2  33632  280.68 0864.79
2015 04 09 09 56 44 .11     -40     38     -2     56     57 314.1  -2.2  33632  280.68 0864.79
2015 04 09 09 56 44 .36     -23     26     17     35     38 318.6  27.2  33646  280.93 0864.79
2015 04 09 09 56 44 .61     -47     39    -12     62     64 309.5 -11.3  33626  280.60 0864.78
2015 04 09 09 56 44 .86     -30     37     22     48     52 321.3  27.1  33642  280.87 0864.78
2015 04 09 09 56 45 .11     -39     25     12     47     49 302.4  14.3  33642  280.85 0864.78
2015 04 09 09 56 45 .36     -31      9      6     33     34 286.8  11.1  33648  280.95 0864.78
2015 04 09 09 56 45 .61     -31     28     29     42     51 312.2  37.6  33672  281.37 0864.78
2015 04 09 09 56 45 .86      -9     32     28     34     44 343.1  44.8  33668  281.30 0864.78
2015 04 09 09 56 46 .11     -23     23     15     33     36 315.0  27.1  33670  281.32 0864.78
2015 04 09 09 56 46 .37     -19     43     16     48     51 336.4  18.9  33674  281.39 0864.78
2015 04 09 09 56 46 .61     -27     17     31     33     45 302.4  49.0  33664  281.24 0864.78
2015 04 09 09 56 46 .86     -24     12     -6     28     29 297.1 -13.4  33666  281.25 0864.78
2015 04 09 09 56 47 .11     -31      0    -25     32     40 270.8 -46.1  33646  280.93 0864.78
2015 04 09 09 56 47 .36     -11      0     -5     12     13 270.0 -23.3  33660  281.17 0864.78
2015 04 09 09 56 47 .62      -1     27     38     28     47 357.3  59.4  33672  281.35 0864.78
2015 04 09 09 56 47 .87     -12     36     46     39     60 341.5  56.3  33676  281.42 0864.78
2015 04 09 09 56 48 .13     -29     46     23     55     59 327.4  23.1  33668  281.29 0864.78
2015 04 09 09 56 48 .37     -48     40     21     63     67 309.5  18.9  33674  281.39 0864.78
2015 04 09 09 56 48 .63     -36     25     35     44     56 305.1  43.7  33670  281.34 0864.78
2015 04 09 09 56 48 .88     -15     35      8     39     40 336.4  12.2  33676  281.44 0864.78
2015 04 09 09 56 49 .12     -50     35      5     62     63 305.1   4.9  33656  281.10 0864.77
2015 04 09 09 56 49 .38     -54     43    -12     70     72 308.6 -10.3  33638  280.78 0864.77
2015 04 09 09 56 49 .63     -27     56     31     63     70 333.7  27.3  33662  281.19 0864.77
2015 04 09 09 56 49 .88     -20     44     24     49     54 335.5  27.2  33670  281.32 0864.77
2015 04 09 09 56 50 .13     -12     44     20     46     50 344.9  26.2  33672  281.35 0864.77
2015 04 09 09 56 50 .38     -19     44     -1     49     50 336.4  -2.2  33674  281.40 0864.77
2015 04 09 09 56 50 .63     -62     29    -19     69     72 295.4 -15.5  33674  281.39 0864.77
2015 04 09 09 56 50 .88     -23     26     -8     36     38 318.6 -13.4  33684  281.57 0864.77
2015 04 09 09 56 51 .13     -10     -3    -15     11     18 251.6 -64.9  33688  281.64 0864.77
2015 04 09 09 56 51 .38      -1    -12    -14     13     19 184.5 -52.6  33682  281.52 0864.77
2015 04 09 09 56 51 .63       8      0     -3      9      9  94.4 -23.6  33692  281.69 0864.77
2015 04 09 09 56 51 .89       7      2     13      8     15  71.4  64.7  33714  282.05 0864.77
2015 04 09 09 56 52 .13      -8     12     31     15     34 327.5  72.9  33726  282.27 0864.77
2015 04 09 09 56 52 .38     -26      2    -14     27     30 274.4 -33.7  33718  282.14 0864.77
2015 04 09 09 56 52 .63     -73     -1     -9     74     75 269.2  -7.3  33602  280.20 0864.77
2015 04 09 09 56 52 .89     -77     23    -25     81     86 286.8 -17.6  33596  280.10 0864.77
2015 04 09 09 56 53 .14     -68     23     -9     72     73 289.1  -7.3  33642  280.87 0864.77
2015 04 09 09 56 53 .39     -36     36     -6     52     53 314.9  -7.2  33632  280.68 0864.77
2015 04 09 09 56 53 .64     -43     21    -16     48     50 296.2 -23.6  33640  280.82 0864.77
2015 04 09 09 56 53 .89     -24     24     12     35     38 315.0  18.9  33666  281.25 0864.77
2015 04 09 09 56 54 .14     -28     -2      1     29     30 265.7   2.8  33684  281.57 0864.77
2015 04 09 09 56 54 .39      -8      8      1     12     13 316.6   6.9  33682  281.52 0864.77
2015 04 09 09 56 54 .64      -2      5    -16      6     17 334.6 -85.6  33682  281.54 0864.77
2015 04 09 09 56 54 .89      -4      0    -12      5     13 281.5 -85.6  33676  281.44 0864.77
2015 04 09 09 56 55 .15     -69     14    -22     71     74 281.4 -23.8  33626  280.60 0864.77
2015 04 09 09 56 55 .40     -78     19    -28     81     86 284.2 -19.1  33586  279.93 0864.77
2015 04 09 09 56 55 .66     -75     21    -22     79     83 285.9 -16.0  33610  280.33 0864.77
2015 04 09 09 56 55 .90     -81     17    -18     83     85 281.9 -12.4  33622  280.53 0864.77
2015 04 09 09 56 56 .15     -51     27    -18     58     60 298.0 -22.8  33624  280.55 0864.77
2015 04 09 09 56 56 .40     -61     -8     -3     62     63 262.1  -3.1  33644  280.90 0864.77
2015 04 09 09 56 56 .65     -38     -7     -1     39     40 258.5  -2.2  33652  281.04 0864.77
2015 04 09 09 56 56 .90     -82     -7    -12     83     84 264.8  -8.8  33604  280.23 0864.77
2015 04 09 09 56 57 .16     -18     26     20     32     37 325.7  35.5  33654  281.05 0864.77
2015 04 09 09 56 57 .41     -25     26     -1     37     38 316.8  -2.2  33668  281.29 0864.77
2015 04 09 09 56 57 .66     -15     23     18     28     33 327.5  35.6  33690  281.65 0864.77
2015 04 09 09 56 57 .91     -33     40     17     52     55 320.4  18.9  33688  281.62 0864.77
2015 04 09 09 56 58 .18     -18     53     30     57     64 340.8  30.3  33678  281.45 0864.77
2015 04 09 09 56 58 .41     -31     49     45     59     74 327.5  41.7  33692  281.69 0864.77
2015 04 09 09 56 58 .69     -41     64     37     77     85 327.4  27.8  33690  281.67 0864.77
2015 04 09 09 56 58 .91     -35     64      6     74     75 331.0   4.9  33676  281.44 0864.77
2015 04 09 09 56 59 .17     -46     48     23     67     72 315.9  19.2  33690  281.67 0864.77
2015 04 09 09 56 59 .41     -36     96      5    103    104 339.5   2.9  33664  281.24 0864.77
2015 04 09 09 56 59 .67     -28     73     23     79     83 338.6  16.3  33682  281.54 0864.77
2015 04 09 09 56 59 .91     -31     65     27     73     77 334.5  20.0  33686  281.59 0864.77
2015 04 09 09 57 00 .16     -30     44     29     54     61 325.7  31.3  33700  281.82 0864.77
2015 04 09 09 57 00 .41     -15     47     17     50     53 342.2  18.9  33696  281.75 0864.77
2015 04 09 09 57 00 .67     -23     57     20     62     66 338.1  18.4  33688  281.62 0864.77
2015 04 09 09 57 00 .92     -36     45     64     58     86 321.3  52.7  33710  281.99 0864.77
2015 04 09 09 57 01 .16     -47     14     24     50     55 286.8  27.3  33730  282.34 0864.77
2015 04 09 09 57 01 .42     -32      9     20     34     39 286.8  33.5  33702  281.87 0864.77
2015 04 09 09 57 01 .67     -24     23     23     34     41 313.3  37.6  33722  282.21 0864.77
2015 04 09 09 57 01 .93     -22     22     -9     32     34 315.0 -15.5  33714  282.07 0864.77
2015 04 09 09 57 02 .18     -21      3     -2     22     23 279.7  -5.2  33734  282.39 0864.77
2015 04 09 09 57 02 .42      -9      0    -10     10     14 270.8 -54.5  33708  281.97 0864.77
2015 04 09 09 57 02 .68       4     13     11     14     17  18.7  43.7  33706  281.92 0864.77
2015 04 09 09 57 02 .93      -3     21     -9     22     23 352.0 -25.4  33700  281.82 0864.77
2015 04 09 09 57 03 .18      -5     16    -12     17     20 341.3 -44.1  33700  281.84 0864.77
2015 04 09 09 57 03 .43       5      4     -8      7     10  46.7 -56.6  33710  282.00 0864.77
2015 04 09 09 57 03 .68      -6      6     -7      9     11 316.6 -48.1  33702  281.85 0864.77
2015 04 09 09 57 03 .93     -29     -8    -22     31     38 254.9 -42.0  33660  281.15 0864.77
2015 04 09 09 57 04 .18      -7    -11      2     14     15 212.6  11.1  33678  281.47 0864.77
2015 04 09 09 57 04 .43       4    -18     11     19     21 164.9  33.5  33692  281.69 0864.77
2015 04 09 09 57 04 .69       5    -22      4     23     24 166.6  11.1  33692  281.70 0864.77
2015 04 09 09 57 04 .94       6      0      7      7      9  85.6  50.1  33708  281.97 0864.77
2015 04 09 09 57 05 .18       8      5      9     10     13  57.6  52.0  33710  282.00 0864.77
2015 04 09 09 57 05 .44       2      0     29      3     29  71.6  90.0  33718  282.14 0864.77
2015 04 09 09 57 05 .68     -17      9     20     20     28 297.1  50.1  33742  282.54 0864.77
2015 04 09 09 57 05 .93     -17      7     14     19     23 291.7  41.7  33742  282.52 0864.77
2015 04 09 09 57 06 .19      -5     15      0     16     17 341.3  -2.2  33736  282.42 0864.77
2015 04 09 09 57 06 .43       4      8      8     10     12  29.0  47.9  33746  282.59 0864.77
2015 04 09 09 57 06 .68       0     -7     -5      8      9 175.5 -39.9  33730  282.34 0864.77
2015 04 09 09 57 06 .93     -45     -3    -17     46     49 265.6 -23.3  33668  281.30 0864.77
2015 04 09 09 57 07 .19     -33     -2    -12     34     37 265.6 -19.7  33684  281.55 0864.77
2015 04 09 09 57 07 .44     -29      0     -3     30     31 269.2  -7.3  33682  281.54 0864.77
2015 04 09 09 57 07 .69     -16     16      0     23     24 315.0  -2.2  33696  281.75 0864.77
2015 04 09 09 57 07 .94      -2     28     -3     29     30 355.5  -7.3  33694  281.74 0864.77
2015 04 09 09 57 08 .19     -33     43     18     55     58 323.0  18.4  33696  281.75 0864.77
2015 04 09 09 57 08 .44     -45     34    -11     57     59 307.8 -11.3  33664  281.24 0864.77
2015 04 09 09 57 08 .69     -55     35     -6     66     67 302.4  -5.2  33636  280.77 0864.77
2015 04 09 09 57 08 .95     -75     28    -10     81     82 290.4  -7.3  33616  280.42 0864.77
2015 04 09 09 57 09 .20     -88     24    -21     92     95 285.5 -12.9  33596  280.10 0864.77
2015 04 09 09 57 09 .45     -93     21    -21     96     99 282.8 -12.4  33596  280.10 0864.77
2015 04 09 09 57 09 .70     -90     19    -16     93     95 282.4  -9.8  33594  280.05 0864.77
2015 04 09 09 57 09 .95     -87     29    -11     92     93 288.6  -7.2  33596  280.10 0864.77
2015 04 09 09 57 10 .20     -91     43     -3    101    102 295.3  -2.2  33602  280.20 0864.77
2015 04 09 09 57 10 .46     -92     19    -15     95     97 281.9  -9.3  33586  279.93 0864.77
2015 04 09 09 57 10 .71     -97     27    -27    101    105 285.9 -15.4  33588  279.95 0864.77
2015 04 09 09 57 10 .95     -97     32    -15    103    105 288.4  -8.2  33586  279.93 0864.77
2015 04 09 09 57 11 .21    -102     34    -12    108    109 288.6  -6.7  33590  280.00 0864.77
2015 04 09 09 57 11 .46    -109     39     -4    116    117 290.0  -2.2  33598  280.13 0864.77
2015 04 09 09 57 11 .71    -109     36    -14    116    117 288.6  -7.2  33588  279.97 0864.77
2015 04 09 09 57 11 .96     -99     39     -9    107    108 291.7  -5.2  33598  280.13 0864.77
2015 04 09 09 57 12 .21    -122     28    -21    126    128 283.2  -9.8  33594  280.05 0864.77
2015 04 09 09 57 12 .46    -118     35    -16    124    126 286.8  -7.7  33594  280.05 0864.77
2015 04 09 09 57 12 .72    -122     24    -13    125    126 281.4  -6.2  33600  280.15 0864.77
2015 04 09 09 57 12 .96     -96     28    -21    101    104 286.4 -11.9  33604  280.22 0864.77
2015 04 09 09 57 13 .21     -93     40    -17    102    104 293.5  -9.8  33604  280.23 0864.77
2015 04 09 09 57 13 .46     -97     46    -24    108    111 295.4 -12.9  33614  280.38 0864.77
2015 04 09 09 57 13 .71     -87     47    -22    100    103 298.4 -12.4  33610  280.32 0864.77
2015 04 09 09 57 13 .96     -94     50    -21    107    110 298.4 -11.3  33594  280.05 0864.77
2015 04 09 09 57 14 .21     -98     46    -17    109    111 295.4  -8.8  33590  280.00 0864.77
2015 04 09 09 57 14 .46    -103     48    -14    114    115 295.3  -7.3  33596  280.08 0864.77
2015 04 09 09 57 14 .72     -91     50     -9    105    106 298.9  -5.2  33604  280.23 0864.77
2015 04 09 09 57 14 .97     -93     47    -12    105    106 296.6  -6.7  33608  280.30 0864.77
2015 04 09 09 57 15 .22     -80     39      1     90     91 296.2   1.2  33616  280.42 0864.77
2015 04 09 09 57 15 .47     -67     48     -3     83     84 305.5  -2.2  33616  280.43 0864.77
2015 04 09 09 57 15 .72     -73     35    -18     82     84 295.8 -12.4  33616  280.43 0864.77
2015 04 09 09 57 15 .98     -63     46     -5     79     80 306.0  -4.1  33628  280.62 0864.77
2015 04 09 09 57 16 .23     -23     48     22     54     58 334.7  22.0  33654  281.07 0864.77
2015 04 09 09 57 16 .48     -53     40      9     67     68 306.9   8.0  33644  280.90 0864.78
2015 04 09 09 57 16 .73     -15     45     36     48     60 341.5  40.7  33660  281.17 0864.78
2015 04 09 09 57 16 .98     -41     55      3     69     70 323.0   2.8  33648  280.97 0864.78
2015 04 09 09 57 17 .23     -43     43      7     62     63 315.0   6.9  33620  280.50 0864.78
2015 04 09 09 57 17 .48     -67     55    -19     87     90 309.5 -12.4  33604  280.23 0864.78
2015 04 09 09 57 17 .73     -74     59     -3     95     96 308.6  -2.2  33610  280.33 0864.78
2015 04 09 09 57 17 .99     -76     48     -6     90     91 302.4  -4.1  33614  280.40 0864.78
2015 04 09 09 57 18 .23     -65     51    -10     83     84 308.2  -7.2  33608  280.28 0864.77
2015 04 09 09 57 18 .49     -62     55    -13     84     85 311.8  -8.8  33616  280.43 0864.77
2015 04 09 09 57 18 .73     -60     44      3     75     76 306.0   2.8  33612  280.37 0864.77
2015 04 09 09 57 18 .98     -64     43    -15     78     80 304.2 -10.9  33606  280.25 0864.77
2015 04 09 09 57 19 .23     -60     45     -4     75     76 306.9  -3.1  33608  280.28 0864.77
2015 04 09 09 57 19 .49     -54     34    -13     65     67 302.4 -11.3  33614  280.38 0864.77
2015 04 09 09 57 19 .74     -47     39     25     62     66 309.6  23.0  33648  280.97 0864.77
2015 04 09 09 57 19 .98     -40     28      5     49     50 305.1   5.9  33642  280.85 0864.77
2015 04 09 09 57 20 .23     -34     32     16     47     50 313.1  19.4  33636  280.75 0864.77
2015 04 09 09 57 20 .49      -2     28      1     29     30 355.5   2.9  33632  280.68 0864.77
2015 04 09 09 57 20 .74     -49     31     -4     59     60 302.5  -4.1  33624  280.57 0864.77
2015 04 09 09 57 20 .99     -36     51     -2     63     64 324.8  -2.2  33642  280.85 0864.77
2015 04 09 09 57 21 .24     -27     24     18     37     41 311.3  27.2  33650  280.99 0864.77
2015 04 09 09 57 21 .49     -20     36      3     42     43 330.1   4.9  33652  281.04 0864.77
2015 04 09 09 57 21 .74     -44     28     -2     53     54 302.4  -2.2  33630  280.65 0864.77
2015 04 09 09 57 21 .99     -57     19     -4     61     62 289.1  -4.1  33622  280.52 0864.77
2015 04 09 09 57 22 .25     -58     32    -14     67     69 298.8 -12.4  33636  280.77 0864.77
2015 04 09 09 57 22 .49     -49     46     -1     68     69 313.1  -1.2  33640  280.82 0864.77
2015 04 09 09 57 22 .76     -65     51     -8     83     84 308.2  -5.6  33638  280.80 0864.77
2015 04 09 09 57 23 .01     -92     34     -3     99    100 290.4  -1.8  33686  281.59 0864.77
2015 04 09 09 57 23 .25     -81     24    -10     85     86 286.8  -7.3  33692  281.69 0864.77
2015 04 09 09 57 23 .51     -70     23    -15     74     76 288.2 -11.5  33704  281.90 0864.77
2015 04 09 09 57 23 .76     -61     20     -2     65     66 288.2  -2.2  33712  282.04 0864.77
2015 04 09 09 57 24 .01     -46     14      2     49     50 286.8   2.9  33720  282.16 0864.77
2015 04 09 09 57 24 .26     -27      9     -1     29     30 288.6  -3.1  33712  282.02 0864.77
2015 04 09 09 57 24 .51     -17     12     23     22     31 306.0  50.1  33740  282.51 0864.78
2015 04 09 09 57 24 .76      -5      9     40     11     41 327.5  84.9  33750  282.67 0864.78
2015 04 09 09 57 25 .01      -2     26     19     27     33 355.5  39.7  33744  282.56 0864.78
2015 04 09 09 57 25 .26     -15     12      9     20     21 309.5  25.1  33756  282.77 0864.78
2015 04 09 09 57 25 .51     -26    -16     -6     31     32 237.6 -11.3  33756  282.76 0864.78
2015 04 09 09 57 25 .76     -46     -2     -2     47     48 267.4  -3.1  33730  282.34 0864.78
2015 04 09 09 57 26 .01     -17      5     10     18     20 288.4  31.4  33726  282.26 0864.78
2015 04 09 09 57 26 .26      11    -18     18     22     28 149.3  45.8  33720  282.16 0864.78
2015 04 09 09 57 26 .51      -5      1    -18      6     19 288.4 -85.4  33724  282.24 0864.78
2015 04 09 09 57 26 .77     -12     35     -1     38     39 341.3  -2.2  33748  282.62 0864.78
2015 04 09 09 57 27 .01     -10     52     -2     54     55 348.4  -2.2  33742  282.52 0864.78
2015 04 09 09 57 27 .77     -34     -6     24     35     42 258.5  37.6  33684  281.57 0864.78
2015 04 09 09 57 28 .02       9      0     35     10     36  90.8  82.8  33662  281.19 0864.78
2015 04 09 09 57 28 .27       0     -7    -25      8     26 175.5 -85.1  33668  281.29 0864.78
2015 04 09 09 57 28 .52      -9     17     -9     20     21 331.0 -29.5  33670  281.32 0864.78
2015 04 09 09 57 28 .77      18     -6     13     19     23 108.6  39.7  33692  281.69 0864.77
2015 04 09 09 57 29 .02      15      8     16     18     24  61.1  50.0  33694  281.72 0864.77
2015 04 09 09 57 29 .27       0     61     33     62     70   0.9  30.3  33702  281.87 0864.77
2015 04 09 09 57 29 .52     -92     47    -33    104    110 297.1 -17.6  33666  281.25 0864.77
2015 04 09 09 57 29 .78     -59     67    -12     90     91 319.0  -7.7  33678  281.47 0864.77
2015 04 09 09 57 30 .03    -118     20    -38    120    125 279.7 -23.3  33656  281.10 0864.77
2015 04 09 09 57 30 .28     -61     12    -27     63     68 281.5 -28.5  33660  281.17 0864.77
2015 04 09 09 57 30 .53     -49     59      3     77     78 320.4   2.8  33674  281.39 0864.77
2015 04 09 09 57 30 .78    -110     53    -24    123    126 295.8 -11.3  33656  281.10 0864.77
2015 04 09 09 57 31 .03    -111     22    -24    114    117 281.5 -11.9  33648  280.95 0864.77
2015 04 09 09 57 31 .28    -110     28    -27    114    118 284.6 -13.4  33628  280.62 0864.77
2015 04 09 09 57 31 .53    -112     46    -17    122    124 292.6  -8.2  33630  280.67 0864.77
2015 04 09 09 57 31 .79    -114     25    -28    117    121 282.8 -13.4  33634  280.73 0864.77
2015 04 09 09 57 32 .03    -113     22    -25    116    119 281.0 -12.4  33630  280.67 0864.77
2015 04 09 09 57 32 .28    -113     31    -37    118    124 285.5 -17.6  33628  280.62 0864.77
2015 04 09 09 57 32 .54    -114     30    -28    119    123 285.1 -13.4  33628  280.63 0864.77
2015 04 09 09 57 32 .78    -123     24    -32    126    131 281.0 -14.5  33636  280.77 0864.77
2015 04 09 09 57 33 .04    -127     41    -20    134    136 288.2  -8.8  33638  280.78 0864.77
2015 04 09 09 57 33 .29    -121     52    -21    132    134 293.5  -9.3  33638  280.80 0864.77
2015 04 09 09 57 33 .54    -124     47    -40    133    138 290.8 -21.7  33614  280.38 0864.77
2015 04 09 09 57 33 .79    -119     40    -26    126    129 288.6 -11.9  33622  280.52 0864.77
2015 04 09 09 57 34 .04     -88      6      1     89     90 273.9   0.8  33634  280.72 0864.76
2015 04 09 09 57 34 .29    -116     16    -33    118    123 277.9 -16.0  33608  280.28 0864.76
2015 04 09 09 57 34 .55    -107     16    -39    109    116 278.8 -19.7  33632  280.70 0864.76
2015 04 09 09 57 34 .79    -135     36    -23    140    142 285.1  -9.3  33642  280.87 0864.76
2015 04 09 10 23 54 .66    -113   -160     55    196    204 215.2  15.8  33668  281.29 0864.59
2015 04 09 10 23 54 .91     -90   -166     39    190    195 208.5  11.6  33676  281.42 0864.59
2015 04 09 10 23 55 .16     -91   -160     51    185    193 209.6  15.6  33674  281.39 0864.59
2015 04 09 10 23 55 .42     -76   -167     33    184    188 204.5  10.3  33674  281.39 0864.59
2015 04 09 10 23 55 .67     -81   -170     25    189    191 205.5   7.8  33670  281.34 0864.59
2015 04 09 10 23 55 .92     -76   -158     38    176    181 205.6  12.4  33666  281.27 0864.59
2015 04 09 10 23 56 .17     -76   -160     25    178    180 205.6   8.0  33666  281.25 0864.59
2015 04 09 10 23 56 .42     -67   -155     29    169    172 203.4   9.9  33664  281.22 0864.59
2015 04 09 10 23 56 .68     -79   -147     36    167    172 208.3  12.4  33664  281.24 0864.59
2015 04 09 10 23 56 .93     -90   -160     37    184    188 209.4  11.6  33682  281.52 0864.59
2015 04 09 10 23 57 .18     -82   -145     29    167    170 209.6   9.9  33692  281.70 0864.59
2015 04 09 10 23 57 .43     -99   -133     17    167    168 216.7   6.1  33708  281.95 0864.59
2015 04 09 10 23 57 .68     -89   -120     57    150    160 216.5  21.5  33720  282.17 0864.59
2015 04 09 10 23 57 .93     -50   -186     -4    193    194 195.2  -1.3  33688  281.62 0864.59
2015 04 09 10 23 58 .18     -72   -200     17    213    214 199.8   4.6  33698  281.80 0864.59
2015 04 09 10 23 58 .43     -52   -170     38    178    183 197.2  12.2  33720  282.16 0864.59
2015 04 09 10 23 58 .68     -65   -188     43    200    205 199.2  12.4  33724  282.24 0864.59
2015 04 09 10 23 58 .93     -70   -179     70    193    205 201.4  20.4  33732  282.37 0864.59
2015 04 09 10 23 59 .18    -100   -183     42    209    214 208.9  11.4  33730  282.34 0864.59
2015 04 09 10 23 59 .43     -72   -180     52    195    202 201.8  15.0  33708  281.95 0864.59
2015 04 09 10 23 59 .69     -37   -144     26    149    152 194.7  10.1  33706  281.94 0864.59
2015 04 09 10 23 59 .93      -2   -172      3    173    174 180.9   1.0  33696  281.75 0864.59
2015 04 09 10 24 00 .19     -78   -161     32    180    183 205.9  10.3  33682  281.52 0864.59
2015 04 09 10 24 00 .44     -55   -152     17    162    163 200.1   6.1  33690  281.65 0864.59
2015 04 09 10 24 00 .68     -34   -155     27    159    162 192.5   9.9  33676  281.44 0864.59
2015 04 09 10 24 00 .94     -42   -142     36    149    154 196.5  13.7  33684  281.57 0864.59
2015 04 09 10 24 01 .18     -57   -157     51    168    176 200.0  17.1  33680  281.50 0864.59
2015 04 09 10 24 01 .44     -63   -150     46    163    170 202.9  16.0  33680  281.49 0864.59
2015 04 09 10 24 01 .69    -100   -138     42    171    177 216.1  13.9  33692  281.70 0864.59
2015 04 09 10 24 01 .94    -103   -141     11    175    176 216.1   3.8  33690  281.65 0864.59
2015 04 09 10 24 02 .19     -78   -131      3    153    154 210.8   1.2  33690  281.65 0864.59
2015 04 09 10 24 02 .45     -90   -134      6    162    163 213.8   2.3  33684  281.57 0864.59
2015 04 09 10 24 02 .70     -66   -130     -8    146    147 207.1  -3.2  33686  281.60 0864.59
2015 04 09 10 24 02 .95     -69   -115     13    135    136 210.8   5.9  33688  281.64 0864.59
2015 04 09 10 24 03 .20     -65   -135     35    151    156 205.9  13.2  33684  281.57 0864.59
2015 04 09 10 24 03 .45     -69   -154     33    169    173 204.1  11.1  33680  281.49 0864.59
2015 04 09 10 24 03 .70     -88   -162     49    185    192 208.7  15.0  33670  281.32 0864.59
2015 04 09 10 24 03 .95     -68   -175     41    188    193 201.4  12.4  33662  281.19 0864.59
2015 04 09 10 24 04 .20     -85   -158     -5    180    181 208.5  -1.6  33672  281.37 0864.59
2015 04 09 10 24 04 .45     -89   -158    -52    182    190 209.4 -16.0  33662  281.19 0864.59
2015 04 09 10 24 04 .70     -90   -149    -51    175    183 211.0 -16.4  33656  281.09 0864.59
2015 04 09 10 24 04 .96     -79   -149    -42    169    175 207.9 -13.9  33662  281.19 0864.59
2015 04 09 10 24 05 .20     -62   -141    -52    155    164 203.6 -18.7  33662  281.19 0864.59
2015 04 09 10 24 05 .46     -69   -137    -43    154    161 206.7 -15.8  33660  281.15 0864.59
2015 04 09 10 24 05 .71     -41   -143    -46    149    155 196.0 -22.8  33660  281.17 0864.59
2015 04 09 10 24 05 .96     -43   -139    -37    146    151 197.4 -14.5  33660  281.15 0864.59
2015 04 09 10 24 06 .21     -57   -142    -25    154    157 201.8  -9.3  33668  281.29 0864.59
2015 04 09 10 24 06 .46     -54   -190     13    198    199 196.0   3.8  33730  282.34 0864.59
2015 04 09 10 24 06 .71     -33   -147      1    151    152 192.9   0.7  33716  282.09 0864.59
2015 04 09 10 24 06 .97     -39   -145     -3    151    152 195.1  -1.3  33684  281.57 0864.59
2015 04 09 10 24 07 .22     -70   -148     33    164    168 205.4  11.4  33772  283.04 0864.59
2015 04 09 10 24 07 .46     -68   -153     65    168    180 204.1  22.0  33806  283.61 0864.59
2015 04 09 10 24 07 .71     -72   -134     60    153    164 208.1  22.3  33764  282.91 0864.59
2015 04 09 10 24 07 .96     -74   -109     28    132    136 214.3  12.2  33718  282.12 0864.59
2015 04 09 10 24 08 .21     -59   -126      5    140    141 205.3   2.3  33668  281.29 0864.59
2015 04 09 10 24 08 .46     -39   -125      4    132    133 197.4   1.8  33656  281.10 0864.59
2015 04 09 10 24 08 .71     -37   -120    -16    126    128 197.4  -7.2  33666  281.25 0864.59
2015 04 09 10 24 08 .97     -35   -126    -36    131    136 195.6 -15.5  33660  281.17 0864.59
2015 04 09 10 24 09 .21     -59   -135    -31    148    152 203.6 -11.9  33660  281.17 0864.58
2015 04 09 10 24 09 .47     -62   -131    -44    145    151 205.3 -21.7  33654  281.05 0864.58
2015 04 09 10 24 09 .73     -54   -126    -18    138    140 203.2  -7.7  33664  281.24 0864.58
2015 04 09 10 24 09 .97     -53   -129    -28    140    143 202.3 -11.3  33668  281.30 0864.58
2015 04 09 10 24 10 .23     -48   -102    -40    113    119 205.5 -24.4  33654  281.05 0864.58
2015 04 09 10 24 10 .48     -37    -92     -1    100    101 201.8  -0.7  33682  281.52 0864.58
2015 04 09 10 24 10 .72     -38    -97      5    105    106 201.4   2.9  33682  281.54 0864.58
2015 04 09 10 24 10 .98     -19    -93      0     96     97 192.0   0.2  33680  281.49 0864.58
2015 04 09 10 24 11 .23     -21    -86      8     89     90 194.3   5.4  33710  281.99 0864.59
2015 04 09 10 24 11 .48     -19    -72     19     75     78 195.1  14.7  33724  282.24 0864.59
2015 04 09 10 24 11 .74     -33   -104     26    110    114 197.8  13.2  33760  282.84 0864.59
2015 04 09 10 24 11 .98     -43    -89     41     99    107 205.9  23.1  33778  283.13 0864.59
2015 04 09 10 24 12 .23     -39    -97     36    105    112 202.3  19.2  33790  283.33 0864.59
2015 04 09 10 24 12 .48     -12   -103     59    104    119 187.1  31.9  33790  283.33 0864.59
2015 04 09 10 24 12 .73      -2    -77     55     78     95 181.8  38.0  33764  282.91 0864.59
2015 04 09 10 24 12 .98     -23   -112     35    115    121 191.6  17.3  33732  282.37 0864.59
2015 04 09 10 24 13 .24     -33   -123      9    128    129 195.1   4.4  33738  282.47 0864.59
2015 04 09 10 24 13 .48     -29   -121     23    125    128 193.8  10.6  33734  282.41 0864.59
2015 04 09 10 24 13 .73     -23   -114     20    117    119 191.6  10.1  33732  282.37 0864.59
2015 04 09 10 24 13 .98     -23   -114      4    117    118 191.6   2.3  33714  282.05 0864.59
2015 04 09 10 24 14 .24     -23   -114      4    117    118 191.6   2.3  33680  281.49 0864.59
2015 04 09 10 24 14 .49     -17   -114    -11    116    117 188.9  -5.6  33678  281.47 0864.59
2015 04 09 10 24 14 .73     -22   -117    -13    120    121 190.7  -6.2  33676  281.44 0864.59
2015 04 09 10 24 14 .99     -31    -82     -3     88     89 200.9  -2.2  33690  281.65 0864.59
2015 04 09 10 24 15 .24     -37    -92    -12    100    101 202.3  -7.3  33700  281.82 0864.59
2015 04 09 10 24 15 .48     -35    -86     15     94     96 202.3   9.0  33700  281.84 0864.59
2015 04 09 10 24 15 .74     -25    -86     18     90     92 196.5  11.6  33722  282.19 0864.59
2015 04 09 10 24 16 .00     -15    -99     35    101    107 188.9  19.2  33772  283.04 0864.59
2015 04 09 10 24 16 .25     -14    -96     32     98    104 188.5  17.9  33788  283.29 0864.59
2015 04 09 10 24 16 .50     -24    -89     29     93     98 195.1  17.3  33792  283.38 0864.59
2015 04 09 10 24 16 .75     -19    -93     47     95    105 191.6  28.2  33812  283.70 0864.59
2015 04 09 10 24 17 .00     -19    -53     17     57     60 200.0  17.3  33776  283.09 0864.59
2015 04 09 10 24 17 .25     -30    -50     24     59     63 210.7  23.0  33740  282.49 0864.59
2015 04 09 10 24 17 .50     -26    -78     10     83     84 198.3   7.5  33738  282.47 0864.59
2015 04 09 10 24 17 .75     -31    -91      3     97     98 199.2   2.3  33744  282.56 0864.59
2015 04 09 10 24 18 .01     -60   -108     45    124    131 209.0  20.4  33740  282.51 0864.59
2015 04 09 10 24 18 .26     -66   -109     45    128    136 211.2  19.4  33754  282.74 0864.60
2015 04 09 10 24 18 .50     -70   -117     50    137    145 210.8  20.4  33768  282.98 0864.60
2015 04 09 10 24 18 .75     -51   -133     42    143    150 200.9  16.3  33736  282.44 0864.60
2015 04 09 10 24 19 .01     -64   -132     30    147    151 205.9  11.6  33730  282.34 0864.60
2015 04 09 10 24 19 .25     -76   -128     52    149    158 210.8  19.4  33748  282.64 0864.60
2015 04 09 10 24 19 .51     -42   -168     28    174    177 194.0   9.3  33696  281.75 0864.60
2015 04 09 10 24 19 .76     -41   -134     53    141    150 196.9  21.5  33702  281.85 0864.60
2015 04 09 10 24 20 .01     -38   -155     37    160    165 194.0  13.2  33692  281.70 0864.60
2015 04 09 10 24 20 .26     -38   -152     26    157    160 194.3   9.5  33694  281.72 0864.59
2015 04 09 10 24 20 .51     -45   -175     37    181    185 194.7  11.6  33730  282.32 0864.59
2015 04 09 10 24 20 .76     -62   -166     19    178    180 200.7   6.1  33756  282.76 0864.59
2015 04 09 10 24 21 .01     -78   -145     32    165    169 208.3  11.1  33792  283.36 0864.59
2015 04 09 10 24 21 .26     -92   -122     46    153    160 217.0  16.8  33778  283.13 0864.59
2015 04 09 10 24 21 .51     -85   -118     12    146    147 216.0   4.9  33746  282.61 0864.59
2015 04 09 10 24 21 .76     -54   -111     10    124    125 205.9   4.9  33742  282.52 0864.59
2015 04 09 10 24 22 .01     -58   -123     37    137    143 205.5  15.2  33764  282.91 0864.59
2015 04 09 10 24 22 .26     -55   -118     35    131    136 204.9  15.3  33710  281.99 0864.59
2015 04 09 10 24 22 .52     -39   -129     47    135    144 196.9  19.4  33690  281.67 0864.59
2015 04 09 10 24 22 .77     -36   -136     27    141    144 195.1  11.0  33688  281.62 0864.59
2015 04 09 10 24 23 .02     -38   -151     40    156    162 194.3  14.5  33712  282.04 0864.59
2015 04 09 10 24 23 .28     -70   -104     30    126    130 214.3  13.7  33718  282.14 0864.59
2015 04 09 10 24 23 .52     -59    -91     40    109    116 213.4  20.4  33720  282.16 0864.59
2015 04 09 10 24 23 .78     -17   -127     25    129    132 188.0  11.1  33728  282.31 0864.59
2015 04 09 10 24 24 .03     -21   -124     39    126    132 189.8  17.3  33768  282.96 0864.59
2015 04 09 10 24 24 .28     -32    -95     55    101    115 198.7  31.4  33758  282.81 0864.59
2015 04 09 10 24 24 .53     -50    -73     64     89    109 214.7  39.5  33778  283.13 0864.59
2015 04 09 10 24 24 .78     -47    -83     53     96    109 209.4  31.4  33780  283.16 0864.60
2015 04 09 10 24 25 .03     -90   -102      1    137    138 221.5   0.7  33716  282.11 0864.60
2015 04 09 10 24 25 .28     -74   -106      2    130    131 214.7   1.2  33704  281.89 0864.60
2015 04 09 10 24 25 .53     -94   -103    -12    140    141 222.3  -5.1  33716  282.09 0864.60
2015 04 09 10 24 25 .78     -73   -100     38    124    130 216.1  17.3  33712  282.04 0864.60
2015 04 09 10 24 26 .03     -86    -95     61    129    142 222.3  27.1  33714  282.05 0864.60
2015 04 09 10 24 26 .28     -84   -102     40    133    139 219.6  16.8  33714  282.05 0864.60
2015 04 09 10 24 26 .53     -99    -67     18    120    122 235.8   8.5  33704  281.89 0864.59
2015 04 09 10 24 26 .78     -86    -36      2     94     95 246.9   1.8  33702  281.85 0864.59
2015 04 09 10 24 27 .04     -77    -86     57    116    129 221.9  27.8  33730  282.32 0864.59
2015 04 09 10 24 27 .28     -53    -83     48     99    110 212.5  27.3  33744  282.57 0864.59
2015 04 09 10 24 27 .53     -61    -92     46    111    120 213.4  23.6  33752  282.71 0864.59
2015 04 09 10 24 27 .79     -64   -103     50    122    131 211.6  23.1  33752  282.71 0864.59
2015 04 09 10 24 28 .04     -54    -95     46    110    119 209.4  23.6  33756  282.76 0864.59
2015 04 09 10 24 28 .28     -74    -83     59    112    126 221.4  29.8  33768  282.96 0864.59
2015 04 09 10 24 28 .54     -57    -92     57    109    123 211.6  29.3  33764  282.89 0864.59
2015 04 09 10 24 28 .79     -66    -75     88    101    133 221.4  45.8  33832  284.03 0864.59
2015 04 09 10 24 29 .04     -72    -72     55    102    115 225.1  30.8  33814  283.75 0864.59
2015 04 09 10 24 29 .29     -82    -87     66    120    136 223.3  31.4  33822  283.88 0864.59
2015 04 09 10 24 29 .54     -62    -99     46    118    126 212.1  22.0  33772  283.03 0864.59
2015 04 09 10 24 29 .80     -53    -72     52     90    103 216.1  32.9  33788  283.31 0864.59
2015 04 09 10 24 30 .04     -69    -51     78     86    116 233.6  47.5  33824  283.92 0864.59
2015 04 09 10 24 30 .31     -75    -75     80    107    133 225.0  40.1  33832  284.05 0864.59
2015 04 09 10 24 30 .55     -37      2     62     38     72 274.3  64.7  33854  284.40 0864.59
2015 04 09 10 24 30 .80     -84     16    -15     86     88 281.0 -10.3  33844  284.25 0864.59
2015 04 09 10 24 31 .05       7    -11     14     14     19 147.5  50.1  33860  284.50 0864.59
2015 04 09 10 24 31 .30     -10     -5    -16     12     20 244.7 -62.9  33860  284.50 0864.59
2015 04 09 10 24 31 .56     -80     58    -26     99    103 306.0 -15.0  33844  284.23 0864.59
2015 04 09 10 24 31 .81     -51    -25      2     57     58 243.8   2.9  33848  284.30 0864.59
2015 04 09 10 24 32 .05     -31      2     28     32     42 274.4  46.9  33804  283.56 0864.59
2015 04 09 10 24 32 .30    -175     24    -49    177    184 277.9 -15.5  33658  281.14 0864.59
2015 04 09 10 24 32 .56    -166     12    -35    167    171 274.4 -11.9  33648  280.95 0864.59
2015 04 09 10 24 32 .81    -167      0    -27    168    171 269.9  -9.3  33682  281.54 0864.59
2015 04 09 10 24 33 .06    -180     -8    -36    181    185 267.4 -11.3  33688  281.62 0864.59
2015 04 09 10 24 33 .31    -190     -4    -47    191    197 268.7 -13.9  33684  281.55 0864.59
2015 04 09 10 24 33 .56    -146    -15    -25    147    150 263.8  -9.8  33716  282.09 0864.59
2015 04 09 10 24 33 .81    -118     28    -15    122    124 283.3  -7.3  33704  281.90 0864.59
2015 04 09 10 24 34 .06     -78      4    -15     79     81 273.5 -10.9  33724  282.22 0864.59
2015 04 09 10 24 34 .31     -33    -31    -11     46     48 226.9 -13.4  33748  282.62 0864.59
2015 04 09 10 24 34 .56    -129      5    -14    130    131 272.5  -6.2  33730  282.32 0864.59
2015 04 09 10 24 34 .82    -164     54    -34    173    177 288.4 -11.3  33732  282.37 0864.60
2015 04 09 10 24 35 .06     -83     51     -5     98     99 302.0  -3.1  33754  282.74 0864.60
2015 04 09 10 24 35 .31    -133      8    -42    134    140 273.5 -22.8  33720  282.17 0864.60
2015 04 09 10 24 35 .57     -77     44    -24     89     93 299.8 -15.4  33740  282.51 0864.60
2015 04 09 10 24 35 .81    -246     53    -54    252    258 282.2 -12.2  33682  281.53 0864.60
2015 04 09 10 24 36 .07    -261     49    -45    266    270 280.8  -9.8  33678  281.46 0864.60
2015 04 09 10 24 36 .32    -259     41    -47    263    268 279.0 -10.1  33648  280.94 0864.60
2015 04 09 10 24 36 .57    -246     56    -46    253    258 283.0 -10.3  33662  281.20 0864.60
2015 04 09 10 24 36 .82    -246     49    -61    251    259 281.5 -13.7  33682  281.51 0864.59
2015 04 09 10 24 37 .08    -262     48    -54    267    273 280.5 -11.6  33706  281.93 0864.59
2015 04 09 10 24 37 .33    -258     22    -51    260    266 275.0 -11.1  33682  281.51 0864.59
2015 04 09 10 24 37 .58    -250     25    -64    252    261 275.9 -14.3  33664  281.23 0864.59
2015 04 09 10 24 37 .83    -265     22    -43    266    270 274.8  -9.3  33674  281.40 0864.59
2015 04 09 10 24 38 .09    -219     10    -52    220    227 272.8 -13.4  33660  281.17 0864.59
2015 04 09 10 24 38 .33    -173    -25    -27    175    178 261.6  -8.8  33734  282.39 0864.59
2015 04 09 10 24 38 .58    -142     35    -29    147    150 284.2 -11.3  33788  283.31 0864.59
2015 04 09 10 24 38 .83     -26     26     32     37     48 315.0  46.9  33790  283.34 0864.59
2015 04 09 10 24 39 .08    -164     20    -23    166    168 277.0  -8.0  33732  282.37 0864.59
2015 04 09 10 24 39 .33    -185     22    -31    187    190 277.0  -9.6  33784  283.23 0864.59
2015 04 09 10 24 39 .59    -213     16    -43    214    219 274.4 -11.5  33646  280.93 0864.59
2015 04 09 10 24 39 .84    -229     -2    -47    230    235 269.4 -11.6  33686  281.58 0864.59
2015 04 09 10 24 40 .08    -207      7    -46    208    214 272.1 -12.6  33698  281.79 0864.59
2015 04 09 10 24 40 .34    -125    -25     -7    128    129 258.6  -3.1  33720  282.17 0864.59
2015 04 09 10 24 40 .59     -62     -2    -22     63     67 267.4 -19.7  33764  282.91 0864.59
2015 04 09 10 24 40 .84     -31      2      6     32     33 274.4  11.1  33764  282.91 0864.59
2015 04 09 10 24 41 .09    -129     33    -38    134    139 284.6 -20.7  33736  282.42 0864.59
2015 04 09 10 24 41 .34     -94      1    -19     95     97 270.8 -11.3  33738  282.46 0864.59
2015 04 09 10 24 41 .59    -172     48    -30    179    182 285.7  -9.6  33696  281.77 0864.59
2015 04 09 10 24 41 .84    -213    -13    -43    214    219 266.5 -11.5  33648  280.97 0864.59
2015 04 09 10 24 42 .09    -183     -4    -23    184    186 268.5  -7.3  33658  281.14 0864.59
2015 04 09 10 24 42 .34    -205     19    -53    206    213 275.5 -14.5  33642  280.85 0864.59
2015 04 09 10 24 42 .59    -220     16    -53    221    228 274.3 -13.7  33646  280.92 0864.59
2015 04 09 10 24 42 .84    -208      7    -41    209    214 272.1 -11.1  33646  280.93 0864.59
2015 04 09 10 24 43 .09    -191     26    -44    193    198 277.9 -12.9  33656  281.09 0864.60
2015 04 09 10 24 43 .34    -204     34    -40    207    211 279.7 -11.1  33648  280.97 0864.60
2015 04 09 10 24 43 .59    -196     32    -39    199    203 279.5 -11.3  33646  280.93 0864.60
2015 04 09 10 24 43 .84    -190     34    -45    194    200 280.4 -13.2  33650  280.99 0864.60
2015 04 09 10 24 44 .10    -197     15    -39    198    202 274.4 -11.3  33654  281.07 0864.60
2015 04 09 10 24 44 .36    -198     30    -44    201    206 278.8 -12.6  33652  281.04 0864.60
2015 04 09 10 24 44 .61    -167      1    -19    168    170 270.4  -6.5  33662  281.19 0864.60
2015 04 09 10 24 44 .86    -174     19    -39    176    181 276.4 -12.6  33642  280.87 0864.60
2015 04 09 10 24 45 .11    -169      3    -40    170    175 271.3 -13.4  33658  281.12 0864.60
2015 04 09 10 24 45 .36    -161     39    -28    166    169 283.7  -9.8  33664  281.24 0864.60
2015 04 09 10 24 45 .61    -148     78     -6    168    169 298.0  -2.3  33682  281.52 0864.60
2015 04 09 10 24 45 .86    -144     57    -33    156    160 291.8 -12.2  33690  281.65 0864.59
2015 04 09 10 24 46 .11    -151     82    -22    172    174 298.6  -7.3  33700  281.84 0864.59
2015 04 09 10 24 46 .36     -89    -16    -24     91     95 259.4 -15.0  33710  281.99 0864.59
2015 04 09 10 24 46 .61    -135     36    -29    140    144 285.1 -11.9  33702  281.87 0864.59
2015 04 09 10 24 46 .86    -110    -29      1    114    115 254.9   0.8  33714  282.07 0864.59
2015 04 09 10 24 47 .11    -141     49    -48    150    158 289.1 -17.9  33696  281.75 0864.59
2015 04 09 10 24 47 .36    -153     56    -44    164    170 290.2 -15.2  33684  281.55 0864.59
2015 04 09 10 24 47 .61    -127     30    -12    131    132 283.3  -5.6  33722  282.21 0864.60
2015 04 09 10 24 47 .86     -85     17     -8     87     88 281.5  -5.6  33718  282.14 0864.60
2015 04 09 10 24 48 .12    -103     48    -22    114    117 295.2 -11.3  33704  281.90 0864.60
2015 04 09 10 24 48 .36    -119     39      0    126    127 288.2  -0.3  33696  281.77 0864.60
2015 04 09 10 24 48 .61    -141     50    -19    150    152 289.5  -7.3  33676  281.42 0864.60
2015 04 09 10 24 48 .86    -130     18    -45    132    140 277.9 -19.1  33676  281.42 0864.60
2015 04 09 10 24 49 .11    -123     28    -35    127    132 282.8 -15.5  33676  281.42 0864.60
2015 04 09 10 24 49 .37    -111     20    -26    113    117 280.6 -13.3  33676  281.44 0864.60
2015 04 09 10 24 49 .62    -108     21    -22    111    114 281.4 -11.3  33686  281.59 0864.59
2015 04 09 10 24 49 .87     -93     13    -28     94     99 278.4 -16.6  33696  281.77 0864.59
2015 04 09 10 24 50 .12     -22     13     12     26     28 300.7  25.1  33730  282.34 0864.59
2015 04 09 10 24 50 .37     -13      8    -14     16     21 302.4 -52.3  33728  282.29 0864.59
2015 04 09 10 24 50 .62     -13      8      0     16     17 302.4  -2.2  33734  282.39 0864.59
2015 04 09 10 24 50 .87     -16     29      1     34     35 331.0   2.8  33734  282.41 0864.59
2015 04 09 10 24 51 .13     -75     -4    -31     76     82 266.5 -27.4  33696  281.75 0864.59
2015 04 09 10 24 51 .38    -127      5    -19    128    130 272.5  -8.8  33706  281.94 0864.60
2015 04 09 10 24 51 .63    -110     16    -33    112    116 278.4 -21.7  33694  281.74 0864.60
2015 04 09 10 24 51 .88     -42     13     15     45     48 287.7  18.9  33718  282.14 0864.60
2015 04 09 10 24 52 .13     -35     16     16     39     42 295.3  23.0  33736  282.44 0864.60
2015 04 09 10 24 52 .38       2      1     16      3     16  57.6  90.0  33740  282.51 0864.60
2015 04 09 10 24 52 .63     -76     -5    -43     77     88 265.6 -35.8  33728  282.29 0864.60
2015 04 09 10 24 52 .89     -83     54    -23    100    103 303.3 -13.4  33730  282.34 0864.60
2015 04 09 10 24 53 .14    -107     47    -11    118    119 294.0  -5.6  33738  282.47 0864.59
2015 04 09 10 24 53 .38    -112     71    -17    133    135 302.4  -7.3  33690  281.65 0864.59
2015 04 09 10 24 53 .64    -120     87    -13    149    150 305.9  -5.2  33714  282.05 0864.59
2015 04 09 10 24 53 .88    -134     51    -11    144    145 290.8  -4.6  33728  282.29 0864.59
2015 04 09 10 24 54 .14    -130     51    -33    140    144 291.7 -13.3  33720  282.16 0864.59
2015 04 09 10 24 54 .39    -155     82    -22    176    178 297.8  -7.3  33712  282.04 0864.59
2015 04 09 10 24 54 .64    -148     71    -28    165    168 295.5  -9.8  33730  282.32 0864.59
2015 04 09 10 24 54 .89    -122     77    -13    145    146 302.5  -5.2  33730  282.32 0864.59
2015 04 09 10 24 55 .14    -108     71    -12    130    131 303.3  -5.6  33724  282.22 0864.59
2015 04 09 10 24 55 .39    -118     51    -16    129    131 293.5  -7.3  33708  281.95 0864.59
2015 04 09 10 24 55 .64     -93     94    -31    133    137 315.5 -13.3  33728  282.29 0864.59
2015 04 09 10 24 55 .89     -84     85    -24    120    123 315.3 -11.3  33664  281.24 0864.59
2015 04 09 10 24 56 .14     -97     75    -22    123    126 307.8 -10.3  33652  281.04 0864.59
2015 04 09 10 24 56 .39     -79     75    -23    110    113 313.6 -11.9  33660  281.17 0864.59
2015 04 09 10 24 56 .64     -49     82     -3     96     97 329.3  -2.2  33678  281.47 0864.59
2015 04 09 10 24 56 .89     -28     94     -3     99    100 343.5  -2.2  33696  281.77 0864.59
2015 04 09 10 24 57 .14     -71     68    -30     99    104 314.0 -17.0  33704  281.89 0864.59
2015 04 09 10 24 57 .39     -69     71    -36    100    107 315.9 -19.7  33668  281.30 0864.59
2015 04 09 10 24 57 .64     -51     64    -29     83     87 321.3 -23.8  33678  281.45 0864.59
2015 04 09 10 24 57 .90     -38     46    -32     60     68 320.3 -35.7  33712  282.04 0864.59
2015 04 09 10 24 58 .15     -46     56    -24     73     76 320.4 -23.8  33716  282.11 0864.59
2015 04 09 10 24 58 .41     -60     51     -3     80     81 310.4  -2.2  33712  282.04 0864.59
2015 04 09 10 24 58 .66     -62     45    -25     77     81 305.9 -18.1  33720  282.16 0864.59
2015 04 09 10 24 58 .90     -58     60    -20     84     87 316.3 -13.9  33716  282.11 0864.59
2015 04 09 10 24 59 .16     -46     60     -9     76     77 322.2  -7.3  33722  282.19 0864.59
2015 04 09 10 24 59 .41     -34     53     25     64     68 327.5  21.0  33746  282.61 0864.59
2015 04 09 10 24 59 .66     -30     30     36     43     56 314.9  43.8  33776  283.09 0864.60
2015 04 09 10 24 59 .91     -38     39     40     55     68 315.8  39.7  33764  282.89 0864.60
2015 04 09 10 25 00 .16     -34      0     12     35     38 270.9  19.4  33758  282.81 0864.60
2015 04 09 10 25 00 .41     -61     24    -18     66     69 291.7 -15.5  33720  282.16 0864.60
2015 04 09 10 25 00 .66     -64     30     -2     71     72 295.2  -2.2  33702  281.85 0864.60
2015 04 09 10 25 00 .91     -76     25     -5     81     82 288.4  -3.7  33702  281.85 0864.60
2015 04 09 10 25 01 .16     -49     25      7     56     57 297.1   8.0  33726  282.27 0864.60
2015 04 09 10 25 01 .41     -99     39     -9    107    108 291.7  -5.2  33718  282.14 0864.60
2015 04 09 10 25 01 .67    -106     34    -15    112    114 288.2  -7.7  33720  282.17 0864.60
2015 04 09 10 25 01 .92     -75     59      0     96     97 308.2   0.2  33744  282.57 0864.60
2015 04 09 10 25 02 .17     -85     47    -22     98    101 299.3 -12.9  33708  281.97 0864.60
2015 04 09 10 25 02 .41     -34     84    -18     91     93 337.7 -11.3  33734  282.39 0864.59
2015 04 09 10 25 02 .67     -74     59    -12     95     96 308.6  -7.3  33704  281.90 0864.59
2015 04 09 10 25 02 .92     -58     67      4     89     90 319.0   2.9  33708  281.95 0864.59
2015 04 09 10 25 03 .17     -24     72     -5     77     78 341.3  -4.1  33736  282.42 0864.59
2015 04 09 10 25 03 .42     -62     93     -4    112    113 326.2  -2.2  33742  282.54 0864.59
2015 04 09 10 25 03 .67     -54     81     -5     98     99 326.2  -3.1  33736  282.44 0864.59
2015 04 09 10 25 03 .92     -55     61      7     83     84 317.7   4.9  33732  282.37 0864.59
2015 04 09 10 25 04 .17     -74     61      7     96     97 309.5   4.4  33716  282.09 0864.60
2015 04 09 10 25 04 .43    -105     76    -16    130    132 305.9  -7.3  33714  282.05 0864.60
2015 04 09 10 25 04 .67    -116     66      0    134    135 299.8  -0.3  33738  282.47 0864.60
2015 04 09 10 25 04 .93    -118     66    -27    136    139 299.3 -11.3  33710  281.99 0864.60
2015 04 09 10 25 05 .18    -140    107    -20    177    179 307.5  -6.5  33694  281.72 0864.60
2015 04 09 10 25 05 .43    -146     85    -35    170    174 300.2 -11.9  33650  281.00 0864.60
2015 04 09 10 25 05 .69    -125     80    -44    149    156 302.5 -16.4  33658  281.14 0864.60
2015 04 09 10 25 05 .93    -127     84    -45    153    160 303.7 -16.6  33650  281.00 0864.59
2015 04 09 10 25 06 .19    -130     82    -50    154    162 302.4 -18.1  33658  281.14 0864.59
2015 04 09 10 25 06 .44    -121     99    -34    157    161 309.5 -12.4  33738  282.46 0864.59
2015 04 09 10 25 06 .69    -104    104    -19    148    150 315.0  -7.3  33752  282.69 0864.59
2015 04 09 10 25 06 .94    -112    112    -20    159    161 315.0  -7.3  33748  282.64 0864.59
2015 04 09 10 25 07 .19    -130    109    -23    171    173 310.0  -7.7  33686  281.60 0864.59
2015 04 09 10 25 07 .44    -123    100    -24    159    161 309.1  -8.8  33680  281.50 0864.59
2015 04 09 10 25 07 .69    -101    100    -19    143    145 314.9  -7.7  33684  281.57 0864.59
2015 04 09 10 25 07 .94    -126    127    -37    180    184 315.2 -11.9  33698  281.79 0864.59
2015 04 09 10 25 08 .19    -133    120    -36    180    184 312.0 -11.6  33698  281.79 0864.59
2015 04 09 10 25 08 .44    -165    122    -26    206    208 306.6  -7.2  33680  281.50 0864.59
2015 04 09 10 25 08 .69    -129    115      0    174    175 311.8  -0.3  33698  281.80 0864.60
2015 04 09 10 25 08 .94     -88     96    -10    131    132 317.7  -4.6  33712  282.04 0864.60
2015 04 09 10 25 09 .19     -51     73     31     90     96 324.8  19.4  33734  282.41 0864.60
2015 04 09 10 25 09 .44     -93     71     23    118    121 307.3  11.1  33724  282.24 0864.60
2015 04 09 10 25 09 .69     -77     91     19    120    122 319.5   9.0  33742  282.54 0864.60
2015 04 09 10 25 09 .94     -61    124     15    139    140 333.7   6.5  33742  282.54 0864.60
2015 04 09 10 25 10 .19     -52    130     -5    141    142 338.2  -2.2  33738  282.47 0864.60
2015 04 09 10 25 10 .44     -55     97    -18    112    114 330.1  -9.3  33722  282.19 0864.60
2015 04 09 10 25 10 .69     -62     91     -4    111    112 325.7  -2.2  33734  282.39 0864.60
2015 04 09 10 25 10 .94     -59    101    -15    117    118 329.7  -7.3  33734  282.39 0864.60
2015 04 09 10 25 11 .20     -62    131      7    146    147 334.7   2.9  33734  282.41 0864.60
2015 04 09 10 25 11 .44     -85    104    -27    135    138 320.8 -11.5  33710  282.00 0864.60
2015 04 09 10 25 11 .70     -96     96     -5    136    137 315.0  -2.2  33722  282.19 0864.60
2015 04 09 10 25 11 .96     -43     92     12    102    103 334.7   7.1  33740  282.51 0864.60
2015 04 09 10 25 12 .21     -53     92     12    107    108 330.1   6.9  33748  282.64 0864.60
2015 04 09 10 25 12 .46    -106    106     -4    151    152 315.0  -1.8  33724  282.22 0864.59
2015 04 09 10 25 12 .71    -156    100    -23    186    188 302.6  -7.3  33678  281.45 0864.59
2015 04 09 10 25 12 .96    -143    118    -54    186    194 309.5 -16.4  33658  281.14 0864.59
2015 04 09 10 25 13 .21    -156    107    -54    190    198 304.6 -16.0  33658  281.14 0864.59
2015 04 09 10 25 13 .47    -126    102    -42    163    169 309.1 -14.5  33688  281.62 0864.59
2015 04 09 10 25 13 .71     -97     91     13    134    135 313.2   5.9  33746  282.61 0864.59
2015 04 09 10 25 13 .96     -66    107     24    126    129 328.4  11.1  33766  282.93 0864.59
2015 04 09 10 25 14 .21     -42    105     29    114    118 338.1  14.7  33740  282.51 0864.59
2015 04 09 10 25 14 .47    -150    127    -30    197    200 310.2  -8.8  33720  282.17 0864.59
2015 04 09 10 25 14 .72    -186    109    -37    216    220 300.4  -9.8  33724  282.24 0864.59
2015 04 09 10 25 14 .96    -200    103    -57    226    234 297.3 -14.3  33668  281.30 0864.59
2015 04 09 10 25 15 .21    -190    104    -32    217    220 298.9  -8.6  33678  281.47 0864.59
2015 04 09 10 25 15 .47    -111    148     -8    186    187 323.0  -2.6  33682  281.54 0864.59
2015 04 09 10 25 15 .72     -42    125      0    132    133 341.3  -0.3  33724  282.24 0864.59
2015 04 09 10 25 15 .97    -142    131    -45    194    200 312.7 -13.3  33724  282.22 0864.59
2015 04 09 10 25 16 .22    -194    105    -28    221    223 298.4  -7.3  33724  282.22 0864.59
2015 04 09 10 25 16 .46    -190    105    -27    218    220 298.9  -7.2  33718  282.12 0864.59
2015 04 09 10 25 16 .72    -224    135    -53    262    268 301.1 -11.5  33676  281.41 0864.59
2015 04 09 10 25 16 .97    -160    138    -67    212    223 310.7 -17.6  33730  282.32 0864.59
2015 04 09 10 25 17 .22    -184     99    -59    210    219 298.4 -15.8  33658  281.14 0864.59
2015 04 09 10 25 17 .48    -178    112    -59    211    220 302.2 -15.8  33668  281.29 0864.59
2015 04 09 10 25 17 .72    -176    104    -60    205    214 300.6 -16.4  33680  281.49 0864.59
2015 04 09 10 25 17 .97    -135    118    -62    180    191 311.1 -19.1  33720  282.17 0864.59
2015 04 09 10 25 18 .22    -147     87    -36    171    175 300.7 -11.9  33706  281.92 0864.59
2015 04 09 10 25 18 .48    -153     66    -44    167    173 293.5 -15.0  33674  281.39 0864.59
2015 04 09 10 25 18 .72    -138     81    -50    161    169 300.4 -17.3  33712  282.04 0864.59
2015 04 09 10 25 18 .98    -127     34     -9    132    133 285.0  -4.1  33710  281.99 0864.59
2015 04 09 10 25 19 .24     -67     64    -11     93     94 313.6  -7.2  33730  282.32 0864.59
2015 04 09 10 25 19 .48    -116     66    -47    134    143 299.8 -19.6  33726  282.26 0864.59
2015 04 09 10 25 19 .73    -128     51    -20    138    140 291.8  -8.2  33706  281.94 0864.59
2015 04 09 10 25 19 .99    -161     86    -14    183    184 298.2  -4.4  33722  282.21 0864.59
2015 04 09 10 25 20 .24    -121     66    -22    139    141 298.8  -9.3  33726  282.26 0864.59
2015 04 09 10 25 20 .51    -149     97    -25    178    180 303.1  -8.0  33728  282.29 0864.59
2015 04 09 10 25 20 .74    -172     65    -48    185    192 290.8 -14.7  33720  282.16 0864.59
2015 04 09 10 25 20 .99    -152     85    -19    175    177 299.3  -6.2  33736  282.42 0864.59
2015 04 09 10 25 21 .24     -70    104     34    126    131 325.8  15.3  33772  283.04 0864.59
2015 04 09 10 25 21 .49     -75     71     38    104    110 313.1  21.0  33752  282.71 0864.58
2015 04 09 10 25 21 .74    -161     77    -28    179    182 295.8  -9.0  33726  282.27 0864.58
2015 04 09 10 25 21 .99    -130     66    -24    147    149 297.1  -9.4  33712  282.04 0864.58
2015 04 09 10 25 22 .24    -163     33    -51    167    175 281.7 -17.0  33722  282.21 0864.58
2015 04 09 10 25 22 .49    -186      7    -43    187    193 272.4 -13.2  33730  282.32 0864.58
2015 04 09 10 25 22 .74    -170     27    -34    173    177 279.0 -11.3  33726  282.27 0864.58
2015 04 09 10 25 22 .99    -129     82    -19    153    155 302.5  -7.2  33720  282.17 0864.58
2015 04 09 10 25 23 .25     -91    104     -3    139    140 318.6  -1.3  33740  282.49 0864.58
2015 04 09 10 25 23 .49     -66     91     -4    113    114 323.9  -2.2  33732  282.37 0864.58
2015 04 09 10 25 23 .75     -74    102    -19    127    129 323.9  -8.8  33712  282.02 0864.58
2015 04 09 10 25 24 .00     -65     52     19     84     87 309.1  13.2  33734  282.39 0864.58
2015 04 09 10 25 24 .25     -78     51     -2     94     95 303.3  -1.8  33742  282.52 0864.58
2015 04 09 10 25 24 .50     -86     64    -36    108    115 306.9 -18.7  33750  282.66 0864.58
2015 04 09 10 25 24 .75    -154     81    -35    175    179 297.8 -11.6  33738  282.46 0864.58
2015 04 09 10 25 25 .00    -108     55      1    122    123 297.1   0.7  33782  283.19 0864.58
2015 04 09 10 25 25 .25     -72     14    -14     74     76 281.5 -11.3  33790  283.34 0864.58
2015 04 09 10 25 25 .50     -80     63    -27    102    106 308.2 -15.0  33788  283.31 0864.58
2015 04 09 10 25 25 .76    -168     20    -34    170    174 277.0 -11.5  33752  282.71 0864.58
2015 04 09 10 25 26 .01    -181     57    -38    190    194 287.7 -11.3  33758  282.81 0864.58
2015 04 09 10 25 26 .26    -148     79      6    168    169 298.2   2.1  33780  283.18 0864.58
2015 04 09 10 25 26 .51    -196     71    -12    209    210 290.0  -3.3  33784  283.23 0864.58
2015 04 09 10 25 26 .76    -133     91     -5    162    163 304.4  -1.8  33788  283.31 0864.58
2015 04 09 10 25 27 .01    -142    106    -21    178    180 306.6  -6.9  33784  283.23 0864.59
2015 04 09 10 25 27 .27     -87     87     25    124    127 314.9  11.6  33794  283.41 0864.59
2015 04 09 10 25 27 .51    -162     85     -7    184    185 297.8  -2.2  33794  283.40 0864.59
2015 04 09 10 25 27 .77    -221     93    -30    240    242 292.8  -7.2  33778  283.14 0864.59
2015 04 09 10 25 28 .02    -226     45    -16    231    232 281.4  -4.1  33778  283.14 0864.59
2015 04 09 10 25 28 .27    -213     64    -28    223    225 286.8  -7.2  33788  283.31 0864.59
2015 04 09 10 25 28 .51    -193     58    -46    202    208 286.8 -12.9  33752  282.69 0864.59
2015 04 09 10 25 28 .78    -202     58    -39    211    215 286.2 -10.5  33714  282.05 0864.59
2015 04 09 10 25 29 .02    -126     42      2    134    135 288.6   1.2  33762  282.88 0864.59
2015 04 09 10 25 29 .27     -49     -8     17     50     53 260.3  19.2  33778  283.14 0864.59
2015 04 09 10 25 29 .52     -68    -27    -19     74     77 248.2 -15.0  33750  282.66 0864.59
2015 04 09 10 25 29 .77    -273    -87    -44    287    291 252.2  -8.8  33662  281.20 0864.59
2015 04 09 10 25 30 .02    -264   -100    -62    283    290 249.2 -12.4  33670  281.33 0864.59
2015 04 09 10 25 30 .27    -241    -39    -54    245    252 260.8 -12.6  33688  281.61 0864.59
2015 04 09 10 25 30 .52    -222    -50    -49    228    234 257.2 -12.2  33706  281.94 0864.59
2015 04 09 10 25 30 .77    -175     24    -20    177    179 278.1  -6.5  33728  282.29 0864.59
2015 04 09 10 25 31 .02     -37     40     30     55     62 316.8  31.3  33742  282.54 0864.59
2015 04 09 10 25 31 .27     -69     22     -4     73     74 288.2  -3.1  33744  282.56 0864.59
2015 04 09 10 25 31 .52     -65     13     -8     67     68 281.4  -7.2  33744  282.56 0864.59
2015 04 09 10 25 31 .78    -102     24    -21    105    108 283.3 -11.3  33766  282.94 0864.59
2015 04 09 10 25 32 .02    -238      0    -79    239    251 270.0 -23.8  33762  282.87 0864.59
2015 04 09 10 25 32 .28      -7     36     -1     37     38 348.4  -2.2  33782  283.21 0864.59
2015 04 09 10 25 32 .53    -103    -65     22    122    125 237.6  10.6  33770  283.01 0864.59
2015 04 09 10 25 32 .79    -108    -35     13    114    115 251.8   6.9  33778  283.13 0864.59
2015 04 09 10 25 33 .04     -57     27    -36     64     73 295.3 -35.8  33790  283.33 0864.59
2015 04 09 10 25 33 .29     -82     17     -4     84     85 281.9  -3.1  33802  283.53 0864.58
2015 04 09 10 25 33 .54    -151      4    -51    152    160 271.7 -23.6  33810  283.66 0864.58
2015 04 09 10 25 33 .79    -101     24     -4    104    105 283.7  -2.2  33784  283.24 0864.58
2015 04 09 10 25 34 .04    -221     16    -48    222    228 274.4 -12.2  33682  281.52 0864.58
2015 04 09 10 25 34 .29    -240    -29    -54    242    249 263.0 -12.6  33670  281.33 0864.58
2015 04 09 10 25 34 .54    -244     -5    -50    245    251 268.7 -11.6  33668  281.30 0864.58
2015 04 09 10 25 34 .79    -219    -59    -29    227    229 254.9  -7.5  33674  281.39 0864.58
2015 04 09 10 25 35 .04    -157     35      7    162    163 282.8   2.5  33684  281.55 0864.58
2015 04 09 10 25 35 .29    -293    -28   -101    295    312 264.5 -18.9  33666  281.26 0864.58
2015 04 09 10 25 35 .54    -163    -35    -27    167    170 257.8  -9.3  33702  281.85 0864.58
2015 04 09 10 25 35 .79    -257    -32    -50    259    264 262.9 -11.1  33708  281.95 0864.58
2015 04 09 10 25 36 .05    -277     18    -30    278    280 273.7  -6.2  33738  282.45 0864.58
2015 04 09 10 25 36 .30    -170      1      8    171    172 270.6   2.9  33730  282.32 0864.58
2015 04 09 10 25 36 .55    -177    -84    -25    196    198 244.6  -7.5  33732  282.37 0864.58
2015 04 09 10 25 36 .80    -244     18    -49    245    250 274.4 -11.3  33764  282.89 0864.58
2015 04 09 10 25 37 .05    -225     31    -54    228    235 277.9 -13.4  33756  282.76 0864.58
2015 04 09 10 25 37 .30    -270     12    -57    271    277 272.6 -11.9  33706  281.93 0864.58
2015 04 09 10 25 37 .55    -137    -66    -29    153    156 244.2 -10.9  33730  282.32 0864.58
2015 04 09 10 25 37 .80    -211      4    -50    212    218 271.3 -13.3  33752  282.69 0864.58
2015 04 09 10 25 38 .05    -189      1    -29    190    193 270.4  -8.8  33732  282.37 0864.58
2015 04 09 10 25 38 .30    -213    -29     22    215    217 262.1   5.9  33716  282.09 0864.58
2015 04 09 10 25 38 .55    -273    -81    -36    285    288 253.4  -7.3  33658  281.13 0864.58
2015 04 09 10 25 38 .80    -213    -39     -8    217    218 259.4  -2.2  33696  281.77 0864.58
2015 04 09 10 25 39 .06    -252   -131    -46    285    289 242.5  -9.3  33772  283.04 0864.58
2015 04 09 10 25 39 .30    -170   -115    -27    206    208 235.8  -7.5  33750  282.66 0864.58
2015 04 09 10 25 39 .55     -58    -79     -5     99    100 216.5  -3.2  33754  282.74 0864.58
2015 04 09 10 25 39 .81    -168    -23    -48    170    177 262.1 -15.8  33752  282.69 0864.58
2015 04 09 10 25 40 .06    -291      0    -78    292    303 270.0 -15.1  33670  281.31 0864.58
2015 04 09 10 25 40 .31    -315      0    -85    316    328 270.0 -15.2  33676  281.43 0864.58
2015 04 09 10 25 40 .56    -286     -4    -84    287    300 269.0 -16.4  33670  281.33 0864.58
2015 04 09 10 25 40 .81    -293    -23    -59    294    300 265.4 -11.5  33668  281.28 0864.58
2015 04 09 10 25 41 .07    -309    -14    -87    310    323 267.4 -15.7  33666  281.26 0864.58
2015 04 09 10 25 41 .32    -320    -25    -54    322    327 265.5  -9.6  33678  281.46 0864.58
2015 04 09 10 25 41 .56    -286    -35    -47    289    293 262.9  -9.3  33664  281.23 0864.59
2015 04 09 10 25 41 .82    -348    -35   -104    350    366 264.1 -16.6  33648  280.95 0864.59
2015 04 09 10 25 42 .07    -307    -43    -36    311    314 262.0  -6.7  33656  281.08 0864.59
2015 04 09 10 25 42 .32    -302    -18    -92    303    317 266.5 -17.0  33650  280.98 0864.58
2015 04 09 10 25 42 .57    -258    -83    -34    272    275 252.1  -7.2  33724  282.23 0864.58
2015 04 09 10 25 42 .82    -174    -89    -39    196    200 242.9 -11.3  33728  282.31 0864.58
2015 04 09 10 25 43 .07     -54    -13     18     56     60 255.8  18.4  33742  282.52 0864.58
2015 04 09 10 25 43 .32    -316    -32    -75    318    327 264.1 -13.3  33644  280.88 0864.58
2015 04 09 10 25 43 .57    -327    -36    -75    330    339 263.7 -12.9  33654  281.07 0864.58
2015 04 09 10 25 43 .82    -311    -52    -68    316    324 260.4 -12.3  33666  281.26 0864.58
2015 04 09 10 25 44 .07    -319    -43    -79    322    332 262.2 -13.8  33672  281.37 0864.59
2015 04 09 10 25 44 .33    -304    -30    -67    306    314 264.3 -12.5  33670  281.31 0864.59
2015 04 09 10 25 44 .57    -283     -9    -50    284    289 268.1 -10.1  33650  280.98 0864.59
2015 04 09 10 25 44 .83    -202     20    -48    203    209 275.7 -13.4  33684  281.57 0864.59
2015 04 09 10 25 45 .08    -136    -49      2    145    146 250.1   0.8  33712  282.04 0864.59
2015 04 09 10 25 45 .32    -202    -80     -8    218    219 248.3  -2.2  33722  282.19 0864.59
2015 04 09 10 25 45 .57    -272    -66    -60    280    287 256.3 -12.2  33690  281.65 0864.59
2015 04 09 10 25 45 .83    -255      7    -46    256    261 271.7 -10.3  33690  281.66 0864.59
2015 04 09 10 25 46 .08    -222     13    -36    223    227 273.5  -9.3  33716  282.09 0864.58
2015 04 09 10 25 46 .33    -279    -47    -73    284    294 260.3 -14.5  33654  281.05 0864.58
2015 04 09 10 25 46 .57    -309    -34    -77    311    321 263.6 -13.9  33652  281.03 0864.58
2015 04 09 10 25 46 .84    -271    -28    -60    273    280 264.1 -12.4  33674  281.38 0864.58
2015 04 09 10 25 47 .09    -275    -66    -44    283    287 256.3  -9.0  33676  281.43 0864.58
2015 04 09 10 25 47 .34    -307    -77    -68    317    325 255.8 -12.2  33696  281.76 0864.58
2015 04 09 10 25 47 .59    -304    -91    -54    318    323 253.2  -9.7  33702  281.86 0864.58
2015 04 09 10 25 47 .84    -250    -75    -64    262    270 253.2 -13.9  33724  282.22 0864.58
2015 04 09 10 25 48 .09    -125    -21     24    127    130 260.4  11.0  33730  282.34 0864.58
2015 04 09 10 25 48 .34    -212    -17    -25    213    215 265.2  -6.7  33742  282.52 0864.58
2015 04 09 10 25 48 .59    -246    -50    -44    252    256 258.3 -10.1  33744  282.55 0864.58
2015 04 09 10 25 48 .84    -251    -63    -52    259    265 255.9 -11.3  33730  282.33 0864.58
2015 04 09 10 25 49 .10    -219    -32    -12    222    223 261.6  -3.2  33754  282.72 0864.58
2015 04 09 10 25 49 .34    -245   -112    -19    270    271 245.4  -4.1  33740  282.48 0864.58
2015 04 09 10 25 49 .60    -240    -96    -34    259    262 248.2  -7.5  33738  282.47 0864.58
2015 04 09 10 25 49 .85    -250   -102    -20    271    272 247.8  -4.4  33736  282.42 0864.58
2015 04 09 10 25 50 .10    -218   -143    -17    261    262 236.7  -3.7  33756  282.77 0864.58
2015 04 09 10 25 50 .35    -185     30    -24    188    190 279.5  -7.3  33730  282.32 0864.58
2015 04 09 10 25 50 .60    -156    -61      0    168    169 248.5  -0.3  33748  282.64 0864.58
2015 04 09 10 25 50 .85    -324    -35    -69    327    335 263.7 -11.9  33688  281.62 0864.58
2015 04 09 10 25 51 .10    -227    -46    -26    232    234 258.6  -6.5  33740  282.48 0864.58
2015 04 09 10 25 51 .35    -163   -109      1    197    198 236.3   0.5  33752  282.69 0864.58
2015 04 09 10 25 51 .60    -287    -48    -64    292    299 260.4 -12.4  33678  281.46 0864.58
2015 04 09 10 25 51 .85    -318    -52    -51    323    328 260.6  -9.0  33650  280.98 0864.58
2015 04 09 10 25 52 .10    -289    -63    -57    296    302 257.6 -10.9  33660  281.16 0864.58
2015 04 09 10 25 52 .35    -294    -71    -66    303    311 256.3 -12.3  33646  280.93 0864.58
2015 04 09 10 25 52 .60    -304    -57    -68    310    318 259.4 -12.5  33644  280.89 0864.58
2015 04 09 10 25 52 .85    -300    -55    -63    306    313 259.5 -11.8  33644  280.89 0864.58
2015 04 09 10 25 53 .10    -286    -44    -58    290    296 261.2 -11.5  33656  281.08 0864.58
2015 04 09 10 25 53 .35    -307    -17    -84    308    320 266.7 -15.4  33658  281.11 0864.58
2015 04 09 10 25 53 .61     -94    -19    -12     97     98 258.1  -7.3  33686  281.59 0864.58
2015 04 09 10 25 53 .86    -249    -42    -39    253    256 260.4  -8.8  33662  281.18 0864.58
2015 04 09 10 25 54 .12    -248    -66    -65    257    266 255.0 -14.3  33680  281.50 0864.58
2015 04 09 10 25 54 .36    -207    -32      9    210    211 261.0   2.5  33686  281.59 0864.58
2015 04 09 10 25 54 .62    -256    -39    -69    260    270 261.2 -15.0  33676  281.43 0864.58
2015 04 09 10 25 54 .87    -321    -66    -43    328    331 258.2  -7.6  33654  281.06 0864.58
2015 04 09 10 25 55 .12    -318    -38    -82    321    332 263.0 -14.4  33658  281.13 0864.58
2015 04 09 10 25 55 .37    -253    -73    -38    264    267 253.8  -8.2  33676  281.43 0864.58
2015 04 09 10 25 55 .62    -210    -89    -22    229    231 246.9  -5.6  33690  281.65 0864.58
2015 04 09 10 25 55 .87    -227    -17    -37    228    232 265.7  -9.3  33690  281.65 0864.58
2015 04 09 10 25 56 .12    -225    -51    -12    231    232 257.2  -3.1  33672  281.35 0864.58
2015 04 09 10 25 56 .37    -206    -32    -18    209    210 261.2  -5.1  33672  281.37 0864.58
2015 04 09 10 25 56 .62    -300    -35    -72    303    312 263.2 -13.4  33648  280.94 0864.58
2015 04 09 10 25 56 .87    -312    -33    -70    314    322 263.9 -12.6  33646  280.93 0864.58
2015 04 09 10 25 57 .12    -299    -60    -47    306    310 258.6  -8.8  33656  281.08 0864.58
2015 04 09 10 25 57 .37    -300    -42    -73    304    313 262.0 -13.6  33642  280.84 0864.58
2015 04 09 10 25 57 .62    -300    -35    -54    303    308 263.2 -10.2  33650  281.00 0864.58
2015 04 09 10 25 57 .87    -299    -22    -72    300    309 265.7 -13.6  33648  280.94 0864.58
2015 04 09 10 25 58 .12    -310    -16    -51    311    316 267.0  -9.3  33658  281.13 0864.58
2015 04 09 10 25 58 .37    -300    -22    -65    301    309 265.7 -12.3  33644  280.88 0864.58
2015 04 09 10 25 58 .62    -299    -13    -73    300    309 267.4 -13.8  33642  280.84 0864.58
2015 04 09 10 25 58 .88    -286    -21    -64    287    295 265.7 -12.6  33656  281.08 0864.58
2015 04 09 10 25 59 .13    -258    -40    -62    262    270 261.2 -13.4  33684  281.56 0864.58
2015 04 09 10 25 59 .37    -275    -44    -65    279    287 260.8 -13.3  33692  281.70 0864.58
2015 04 09 10 25 59 .62    -278    -45    -48    282    287 260.8  -9.8  33678  281.45 0864.58
2015 04 09 10 25 59 .88    -261    -58    -64    268    276 257.4 -13.4  33676  281.43 0864.58
2015 04 09 10 26 00 .13    -237    -48    -25    242    244 258.5  -6.1  33692  281.70 0864.58
2015 04 09 10 26 00 .38    -256    -69    -33    266    269 254.9  -7.2  33678  281.46 0864.58
2015 04 09 10 26 00 .64    -271    -44    -53    275    281 260.8 -10.9  33676  281.41 0864.58
2015 04 09 10 26 00 .89    -292    -79    -63    303    310 254.9 -11.8  33672  281.35 0864.58
2015 04 09 10 26 01 .14    -273    -55    -56    279    285 258.5 -11.3  33676  281.43 0864.58
2015 04 09 10 26 01 .39    -308    -32    -53    310    315 263.9  -9.8  33712  282.03 0864.58
2015 04 09 10 26 01 .64    -304      6    -26    305    307 271.3  -4.9  33684  281.56 0864.58
2015 04 09 10 26 01 .89    -188    -52    -10    196    197 254.5  -3.1  33704  281.90 0864.58
2015 04 09 10 26 02 .15    -311     14    -75    312    321 272.6 -13.6  33680  281.48 0864.58
2015 04 09 10 26 02 .39    -325     26    -59    327    333 274.7 -10.3  33730  282.34 0864.58
2015 04 09 10 26 02 .64    -303     24    -75    305    315 274.6 -13.9  33712  282.01 0864.58
2015 04 09 10 26 02 .90    -298     34    -78    300    311 276.6 -14.6  33740  282.48 0864.58
2015 04 09 10 26 03 .14    -288     -4    -51    289    294 269.2 -10.1  33752  282.70 0864.58
2015 04 09 10 26 03 .39    -327    -12    -73    328    337 267.9 -12.6  33724  282.24 0864.58
2015 04 09 10 26 03 .65    -282      0    -29    283    285 270.1  -6.0  33764  282.90 0864.58
2015 04 09 10 26 03 .90    -296     62    -66    303    311 281.9 -12.4  33730  282.33 0864.58
2015 04 09 10 26 04 .15    -283     76    -48    294    299 285.1  -9.3  33740  282.48 0864.58
2015 04 09 10 26 04 .40    -193    -28     -2    196    197 261.6  -0.7  33750  282.67 0864.58
2015 04 09 10 26 04 .65    -130    -49    -16    140    141 249.2  -6.7  33772  283.03 0864.58
2015 04 09 10 26 04 .90    -193      7    -39    194    199 272.1 -11.6  33752  282.69 0864.58
2015 04 09 10 26 05 .15    -243     34    -41    246    250 278.1  -9.6  33656  281.10 0864.58
2015 04 09 10 26 05 .40    -275     46    -56    279    285 279.6 -11.3  33648  280.94 0864.58
2015 04 09 10 26 05 .65    -263     34    -53    266    272 277.5 -11.3  33644  280.89 0864.58
2015 04 09 10 26 05 .90    -256     35    -42    259    263 277.9  -9.3  33650  281.00 0864.58
2015 04 09 10 26 06 .16    -225     12    -29    226    228 273.3  -7.3  33688  281.64 0864.58
2015 04 09 10 26 06 .40    -112     -8      5    113    114 265.7   2.8  33736  282.42 0864.58
2015 04 09 10 26 06 .65    -213      6     -8    214    215 271.7  -2.2  33672  281.37 0864.58
2015 04 09 10 26 06 .91    -224     31    -41    227    231 278.0 -10.3  33660  281.17 0864.58
2015 04 09 10 26 07 .15    -213     31    -18    216    217 278.4  -4.9  33670  281.32 0864.58
2015 04 09 10 26 07 .41    -243     65    -49    252    257 285.0 -11.1  33664  281.23 0864.58
2015 04 09 10 26 07 .67    -212     64    -28    222    224 286.9  -7.2  33668  281.29 0864.58
2015 04 09 10 26 07 .92    -187     16    -10    188    189 275.0  -3.1  33676  281.44 0864.58
2015 04 09 10 26 08 .17    -229     44    -41    234    238 281.0 -10.1  33678  281.46 0864.58
2015 04 09 10 26 08 .42    -232     39    -43    236    240 279.7 -10.5  33686  281.58 0864.58
2015 04 09 10 26 08 .67    -255     47    -52    260    266 280.6 -11.5  33686  281.58 0864.58
2015 04 09 10 26 08 .92    -205     13    -26    206    208 273.7  -7.2  33674  281.39 0864.58
2015 04 09 10 26 09 .17    -230     34    -33    233    236 278.6  -8.3  33654  281.06 0864.58
2015 04 09 10 26 09 .42    -213     22    -44    215    220 276.1 -11.6  33648  280.97 0864.58
2015 04 09 10 26 09 .67    -212     38    -44    216    221 280.4 -11.6  33650  280.99 0864.59
2015 04 09 10 26 09 .92    -203     38    -42    207    212 280.8 -11.5  33650  281.00 0864.59
2015 04 09 10 26 10 .17    -213     46    -44    219    224 282.4 -11.5  33656  281.09 0864.59
2015 04 09 10 26 10 .42    -211     49    -43    217    222 283.3 -11.3  33658  281.12 0864.59
2015 04 09 10 26 10 .67    -213     43    -47    218    224 281.4 -12.2  33658  281.12 0864.59
2015 04 09 10 26 10 .92    -210     50    -22    216    218 283.5  -6.0  33660  281.15 0864.59
2015 04 09 10 26 11 .18    -218     32    -36    221    225 278.4  -9.3  33668  281.29 0864.59
2015 04 09 10 26 11 .42    -215     16    -16    216    217 274.4  -4.4  33656  281.10 0864.58
2015 04 09 10 26 11 .67    -225     54    -45    232    237 283.7 -11.1  33648  280.94 0864.58
2015 04 09 10 26 11 .92    -234     55    -35    241    244 283.3  -8.3  33650  281.00 0864.58
2015 04 09 10 26 12 .17    -225     54    -45    232    237 283.7 -11.1  33650  281.00 0864.58
2015 04 09 10 26 12 .42    -184      8    -23    185    187 272.6  -7.3  33656  281.09 0864.58
2015 04 09 10 26 12 .67    -226     45    -42    231    235 281.4 -10.5  33648  280.96 0864.58
2015 04 09 10 26 12 .93    -241     46    -45    246    251 280.8 -10.5  33650  281.00 0864.58
2015 04 09 10 26 13 .18    -248     83    -33    262    265 288.6  -7.2  33656  281.10 0864.58
2015 04 09 10 26 13 .43    -252     57    -43    259    263 282.8  -9.6  33668  281.28 0864.58
2015 04 09 10 26 13 .68    -238     47    -34    243    246 281.2  -8.0  33688  281.63 0864.58
2015 04 09 10 26 13 .93    -204     55    -42    212    217 285.1 -11.3  33706  281.94 0864.58
2015 04 09 10 26 14 .18    -231     17    -30    232    234 274.3  -7.5  33706  281.91 0864.58
2015 04 09 10 26 14 .44    -232     47    -17    237    238 281.5  -4.1  33688  281.61 0864.58
2015 04 09 10 26 14 .69     -94    -30     43     99    107 251.8  25.1  33718  282.14 0864.58
2015 04 09 10 26 14 .94    -201     70    -37    214    218 289.3  -9.8  33718  282.14 0864.58
2015 04 09 10 26 15 .20    -190     63    -29    201    204 288.4  -8.2  33736  282.42 0864.58
2015 04 09 10 26 15 .44    -133     78    -29    155    158 300.2 -10.9  33756  282.77 0864.58
2015 04 09 10 26 15 .69    -145     20    -44    147    154 278.0 -16.6  33790  283.33 0864.58
2015 04 09 10 26 15 .94    -206     30    -35    209    212 278.4  -9.6  33684  281.55 0864.58
2015 04 09 10 26 16 .19    -156     47     12    163    164 286.8   4.4  33728  282.29 0864.58
2015 04 09 10 26 16 .45    -195     27    -30    197    200 278.0  -8.8  33680  281.49 0864.58
2015 04 09 10 26 16 .70    -215     57    -45    223    228 285.1 -11.6  33684  281.57 0864.58
2015 04 09 10 26 16 .95    -177     23    -13    179    180 277.7  -4.4  33696  281.75 0864.58
2015 04 09 10 26 17 .20    -186     -9    -25    187    189 267.2  -7.7  33678  281.47 0864.58
2015 04 09 10 26 17 .45    -226      3    -63    227    236 270.8 -15.5  33724  282.24 0864.58
2015 04 09 10 26 17 .70    -161     41    -20    167    169 284.4  -6.9  33750  282.67 0864.58
2015 04 09 10 26 17 .95    -111     27     -6    115    116 283.7  -3.2  33760  282.84 0864.58
2015 04 09 10 26 18 .20    -205     20    -52    207    214 275.7 -14.3  33716  282.09 0864.58
2015 04 09 10 26 18 .45    -180      0    -23    181    183 270.1  -7.5  33730  282.34 0864.58
2015 04 09 10 26 18 .70    -233     70    -57    244    251 286.8 -13.3  33706  281.93 0864.58
2015 04 09 10 26 18 .95    -149     25    -14    152    153 279.6  -5.6  33738  282.47 0864.58
2015 04 09 10 26 19 .20    -210      0    -37    211    215 270.0 -10.1  33712  282.02 0864.58
2015 04 09 10 26 19 .45    -210     -7    -31    211    214 267.9  -8.6  33708  281.95 0864.58
2015 04 09 10 26 19 .70    -194     -5    -46    195    201 268.3 -13.4  33710  281.99 0864.58
2015 04 09 10 26 19 .95    -226     -6    -54    227    234 268.3 -13.4  33654  281.07 0864.58
2015 04 09 10 26 20 .20    -228    -24    -54    230    237 263.9 -13.4  33656  281.10 0864.58
2015 04 09 10 26 20 .45    -195    -16    -50    196    203 265.2 -14.5  33652  281.04 0864.58
2015 04 09 10 26 20 .71    -156    -28    -30    159    162 259.6 -10.9  33690  281.67 0864.58
2015 04 09 10 26 20 .96    -164     -4     -6    165    166 268.5  -2.2  33700  281.84 0864.58
2015 04 09 10 26 21 .21    -221      1    -28    222    224 270.4  -7.3  33772  283.03 0864.58
2015 04 09 10 26 21 .47    -202      3    -48    203    209 271.0 -13.4  33772  283.03 0864.57
2015 04 09 10 26 21 .72    -187      1    -37    188    192 270.4 -11.3  33778  283.13 0864.57
2015 04 09 10 26 21 .97    -159     42    -26    165    168 285.1  -9.0  33778  283.13 0864.57
2015 04 09 10 26 22 .22     -31     91     -5     97     98 341.3  -3.1  33776  283.09 0864.57
2015 04 09 10 26 22 .47     -61     22     10     65     66 290.0   9.0  33780  283.16 0864.57
2015 04 09 10 26 22 .72    -105      2      0    106    107 271.3  -0.3  33780  283.16 0864.57
2015 04 09 10 26 22 .97     -75     36      9     84     85 295.8   6.5  33792  283.38 0864.57
2015 04 09 10 26 23 .22    -217      9    -43    218    223 272.5 -11.3  33720  282.16 0864.57
2015 04 09 10 26 23 .47    -157     24    -30    159    162 278.8 -10.9  33778  283.13 0864.58
2015 04 09 10 26 23 .72     -45    -43     12     63     65 226.0  11.1  33800  283.51 0864.58
2015 04 09 10 26 23 .98    -180      7    -26    181    183 272.4  -8.2  33758  282.81 0864.58
2015 04 09 10 26 24 .23    -126     13     34    127    132 276.1  15.3  33800  283.50 0864.58
2015 04 09 10 26 24 .48     -63    -39     40     75     85 238.5  30.3  33826  283.93 0864.58
2015 04 09 10 26 24 .72    -178     17    -21    179    181 275.7  -6.7  33746  282.61 0864.58
2015 04 09 10 26 24 .98    -214    -25     -8    216    217 263.2  -2.3  33766  282.93 0864.58
2015 04 09 10 26 25 .22    -279     39    -40    282    285 278.1  -8.3  33672  281.35 0864.58
2015 04 09 10 26 25 .48    -243     18    -40    244    248 274.4  -9.4  33690  281.66 0864.58
2015 04 09 10 26 25 .73    -251     50    -52    256    262 281.4 -11.5  33706  281.91 0864.58
2015 04 09 10 26 25 .98    -265     26    -45    267    271 275.7  -9.6  33718  282.12 0864.57
2015 04 09 10 26 26 .23    -229     20    -47    230    235 275.2 -11.6  33720  282.15 0864.57
2015 04 09 10 26 26 .48    -229     44    -47    234    239 281.0 -11.6  33680  281.48 0864.57
2015 04 09 10 26 26 .73    -215     38    -51    219    226 280.1 -13.3  33684  281.55 0864.57
2015 04 09 10 26 26 .98    -212     25    -55    214    222 276.8 -14.5  33652  281.04 0864.57
2015 04 09 10 26 27 .23    -226     34    -54    229    236 278.6 -13.3  33662  281.20 0864.57
2015 04 09 10 26 27 .48    -214      0    -36    215    219 270.0  -9.6  33666  281.27 0864.57
2015 04 09 10 26 27 .73    -206     -9    -37    207    211 267.4 -10.3  33666  281.27 0864.57
2015 04 09 10 26 27 .98    -229     26    -47    231    236 276.6 -11.6  33674  281.38 0864.57
2015 04 09 10 26 28 .23    -200     35    -47    204    210 279.9 -13.2  33666  281.27 0864.57
2015 04 09 10 26 28 .49    -206      7    -34    207    210 272.1  -9.3  33668  281.30 0864.57
2015 04 09 10 26 28 .75    -223    -17    -28    224    226 265.6  -7.3  33664  281.24 0864.58
2015 04 09 10 26 29 .00    -207     27    -44    209    214 277.7 -11.9  33670  281.34 0864.58
2015 04 09 10 26 29 .24    -247     47    -36    252    255 280.8  -8.2  33660  281.15 0864.58
2015 04 09 10 26 29 .50    -232     47    -42    237    241 281.5 -10.3  33656  281.08 0864.58
2015 04 09 10 26 29 .74    -212     36    -34    216    219 279.6  -9.0  33652  281.04 0864.58
2015 04 09 10 26 30 .00    -230     40    -51    234    240 279.9 -12.4  33656  281.10 0864.58
2015 04 09 10 26 30 .25    -203      3    -33    204    207 270.9  -9.3  33676  281.42 0864.58
2015 04 09 10 26 30 .50    -197     46    -32    203    206 283.3  -9.0  33666  281.27 0864.58
2015 04 09 10 26 30 .75    -214     68    -34    225    228 287.7  -8.8  33658  281.14 0864.58
2015 04 09 10 26 31 .00    -202     74    -19    216    217 290.2  -5.2  33656  281.09 0864.58
2015 04 09 10 26 31 .25    -214     68    -34    225    228 287.7  -8.8  33652  281.04 0864.58
2015 04 09 10 26 31 .50    -221     68    -36    232    235 287.1  -9.0  33658  281.11 0864.58
2015 04 09 10 26 31 .75    -196     73    -28    210    212 290.6  -7.7  33702  281.85 0864.58
2015 04 09 10 26 32 .00    -163     90    -33    187    190 298.9 -10.1  33734  282.41 0864.58
2015 04 09 10 26 32 .25    -127     59    -13    141    142 294.8  -5.6  33742  282.52 0864.58
2015 04 09 10 26 32 .50    -156     20    -26    158    161 277.5  -9.6  33742  282.52 0864.58
2015 04 09 10 26 32 .75    -179     43    -35    185    189 283.5 -10.9  33688  281.62 0864.58
2015 04 09 10 26 33 .00    -175     72    -12    190    191 292.6  -3.7  33706  281.94 0864.58
2015 04 09 10 26 33 .26    -191     38    -41    195    200 281.5 -11.9  33664  281.22 0864.58
2015 04 09 10 26 33 .50    -101     45     16    111    113 294.0   8.5  33738  282.47 0864.58
2015 04 09 10 26 33 .76    -131     62    -23    145    147 295.4  -9.3  33758  282.79 0864.58
2015 04 09 10 26 34 .01    -167     15    -24    168    170 275.5  -8.2  33684  281.55 0864.58
2015 04 09 10 26 34 .26    -125    -33     -7    130    131 254.9  -3.2  33708  281.95 0864.58
2015 04 09 10 26 34 .51    -166     31    -19    169    171 280.6  -6.7  33676  281.44 0864.58
2015 04 09 10 26 34 .76    -180     46    -48    186    193 284.4 -14.5  33670  281.32 0864.58
2015 04 09 10 26 35 .01    -175     44    -39    181    186 284.2 -12.2  33678  281.45 0864.58
2015 04 09 10 26 35 .26    -147      4    -37    148    153 271.7 -14.3  33702  281.85 0864.58
2015 04 09 10 26 35 .52    -162    -28    -29    165    168 260.1 -10.1  33724  282.22 0864.58
2015 04 09 10 26 35 .77    -190      6     -7    191    192 271.9  -2.2  33686  281.60 0864.58
2015 04 09 10 26 36 .02    -206     41    -35    211    214 281.4  -9.6  33674  281.39 0864.58
2015 04 09 10 26 36 .27    -201     55    -29    209    212 285.3  -8.0  33676  281.44 0864.58
2015 04 09 10 26 36 .53    -212     47    -53    218    225 282.6 -13.7  33694  281.72 0864.58
2015 04 09 10 26 36 .77    -190     59    -40    200    204 287.3 -11.3  33680  281.50 0864.58
2015 04 09 10 26 37 .02    -204     41    -42    209    214 281.4 -11.3  33672  281.37 0864.58
2015 04 09 10 26 37 .27    -196     39    -40    200    204 281.5 -11.3  33676  281.44 0864.58
2015 04 09 10 26 37 .52    -125     25    -16    128    130 281.5  -7.3  33714  282.07 0864.58
2015 04 09 10 26 37 .77    -147     18     -8    149    150 277.0  -3.1  33720  282.17 0864.58
2015 04 09 10 26 38 .03    -193     46    -33    199    202 283.5  -9.6  33706  281.92 0864.58
2015 04 09 10 26 38 .27    -201     47    -10    207    208 283.3  -2.8  33680  281.50 0864.58
2015 04 09 10 26 38 .52    -204     42    -53    209    216 281.7 -14.3  33658  281.12 0864.58
2015 04 09 10 26 38 .78    -197     55    -33    205    208 285.7  -9.3  33660  281.15 0864.58
2015 04 09 10 26 39 .02    -185     51    -42    192    197 285.5 -12.4  33656  281.10 0864.58
2015 04 09 10 26 39 .28    -189     62    -30    199    202 288.2  -8.8  33658  281.14 0864.58
2015 04 09 10 26 39 .53    -179     31    -19    182    184 279.9  -6.2  33686  281.59 0864.58
2015 04 09 10 26 39 .78    -158     15    -23    159    161 275.7  -8.2  33692  281.70 0864.58
2015 04 09 10 26 40 .03    -144      5    -14    145    146 272.1  -5.6  33732  282.37 0864.58
2015 04 09 10 26 40 .28    -115     67    -41    134    140 300.2 -21.8  33794  283.40 0864.58
2015 04 09 10 26 40 .53     -97     53    -39    111    118 298.9 -19.7  33778  283.13 0864.57
2015 04 09 10 26 40 .78     -99     39    -16    107    109 291.8  -8.8  33782  283.19 0864.57
2015 04 09 10 26 41 .03    -189     62    -30    199    202 288.2  -8.6  33726  282.27 0864.57
2015 04 09 10 26 41 .28    -225     75    -43    238    242 288.6 -10.3  33666  281.26 0864.57
2015 04 09 10 26 41 .53    -234     51    -39    240    244 282.3  -9.3  33686  281.58 0864.57
2015 04 09 10 26 41 .78    -250     46    -42    255    259 280.6  -9.3  33678  281.45 0864.57
2015 04 09 10 26 42 .03    -243     18    -67    244    254 274.4 -15.5  33650  280.98 0864.57
2015 04 09 10 26 42 .29    -228     17    -61    229    238 274.4 -15.0  33648  280.94 0864.58
2015 04 09 10 26 42 .54    -207     18    -56    208    216 275.2 -15.2  33648  280.95 0864.58
2015 04 09 10 26 42 .80    -183     -2    -40    184    189 269.2 -12.4  33724  282.24 0864.58
2015 04 09 10 26 43 .04    -210      4    -31    211    214 271.3  -8.6  33708  281.95 0864.58
2015 04 09 10 26 43 .29    -230     17    -54    231    238 274.4 -13.2  33652  281.03 0864.58
2015 04 09 10 26 43 .55    -226     24    -53    228    235 276.1 -13.3  33664  281.22 0864.58
2015 04 09 10 26 43 .80    -219     27    -32    221    224 277.2  -8.2  33704  281.89 0864.58
2015 04 09 10 26 44 .04    -194      4    -37    195    199 271.3 -10.9  33694  281.72 0864.58
2015 04 09 10 26 44 .31    -178    -21    -41    180    185 263.2 -12.9  33722  282.19 0864.57
2015 04 09 10 26 44 .55    -173      0    -16    174    175 270.0  -5.4  33712  282.04 0864.57
2015 04 09 10 26 44 .80    -191     11    -53    192    200 273.3 -15.5  33716  282.11 0864.57
2015 04 09 10 26 45 .05    -212      9    -42    213    218 272.6 -11.3  33710  282.00 0864.58
2015 04 09 10 26 45 .30    -211      0    -42    212    217 269.9 -11.3  33650  281.00 0864.58
2015 04 09 10 26 45 .55    -208      3    -57    209    217 271.0 -15.4  33648  280.95 0864.58
2015 04 09 10 26 45 .80    -212     -2    -61    213    222 269.4 -16.0  33648  280.95 0864.58
2015 04 09 10 26 46 .05    -210      0    -58    211    220 270.1 -15.5  33650  280.99 0864.58
2015 04 09 10 26 46 .30    -200    -24    -25    202    204 263.0  -7.3  33658  281.12 0864.58
2015 04 09 10 26 46 .55    -187      3    -46    188    194 271.0 -13.9  33650  281.00 0864.58
2015 04 09 10 26 46 .80    -206     12    -63    207    217 273.5 -17.0  33664  281.24 0864.58
2015 04 09 10 26 47 .06    -188      8    -67    189    201 272.6 -19.7  33656  281.09 0864.58
2015 04 09 10 26 47 .30    -189     -4    -49    190    197 268.5 -14.5  33658  281.14 0864.58
2015 04 09 10 26 47 .56    -184     -5    -51    185    192 268.3 -15.5  33656  281.10 0864.58
2015 04 09 10 26 47 .80    -195     -8    -50    196    203 267.4 -14.5  33656  281.09 0864.58
2015 04 09 10 26 48 .05    -192      9    -53    193    200 272.8 -20.0  33650  281.00 0864.58
2015 04 09 10 26 48 .30    -175     14    -61    176    187 274.8 -19.1  33656  281.10 0864.58
2015 04 09 10 26 48 .55    -169     14    -50    170    178 275.0 -16.6  33650  281.00 0864.58
2015 04 09 10 26 48 .81    -181     31    -45    184    190 279.9 -13.9  33650  281.00 0864.58
2015 04 09 10 26 49 .06    -182     40    -38    187    191 282.6 -11.6  33650  280.99 0864.58
2015 04 09 10 26 49 .32    -163     28    -50    166    174 279.9 -16.8  33652  281.02 0864.58
2015 04 09 10 26 49 .57    -169     31    -50    172    180 280.6 -16.4  33650  281.00 0864.58
2015 04 09 10 26 49 .82    -173     35    -46    177    183 281.5 -14.7  33648  280.95 0864.58
2015 04 09 10 26 50 .08    -176     40    -28    181    184 283.0  -8.8  33732  282.37 0864.58
2015 04 09 10 26 50 .32    -186     34    -17    190    191 280.6  -5.2  33732  282.37 0864.58
2015 04 09 10 26 50 .57    -116    -31     -4    121    122 254.9  -2.2  33718  282.14 0864.58
2015 04 09 10 26 50 .83    -149      3    -49    150    159 271.3 -18.3  33702  281.87 0864.58
2015 04 09 10 26 51 .08    -147     39    -29    153    156 285.1 -10.9  33692  281.70 0864.58
2015 04 09 10 26 51 .32    -119     12    -43    120    128 276.1 -19.7  33706  281.94 0864.58
2015 04 09 10 26 51 .57    -130      0    -36    131    136 270.4 -15.4  33654  281.05 0864.58
2015 04 09 10 26 51 .82    -160      7    -41    161    167 272.6 -14.3  33654  281.05 0864.58
2015 04 09 10 26 52 .07    -152     21    -35    154    158 277.9 -12.9  33650  281.00 0864.58
2015 04 09 10 26 52 .32    -163     46    -34    170    174 285.9 -11.3  33652  281.04 0864.58
2015 04 09 10 26 52 .58    -165     44    -17    171    172 285.1  -6.0  33660  281.17 0864.58
2015 04 09 10 26 52 .83    -156     21    -29    158    161 278.0 -10.5  33666  281.27 0864.58
2015 04 09 10 26 53 .08    -111      4    -26    112    116 272.1 -13.3  33674  281.40 0864.58
2015 04 09 10 26 53 .33    -103     34     -6    109    110 288.2  -3.1  33688  281.64 0864.58
2015 04 09 10 26 53 .58    -134     25    -13    137    138 280.6  -5.6  33680  281.50 0864.58
2015 04 09 10 26 53 .83    -177     39    -35    182    186 282.4 -10.9  33668  281.29 0864.58
2015 04 09 10 26 54 .08    -141     43    -40    148    154 286.9 -15.2  33672  281.37 0864.58
2015 04 09 10 26 54 .33    -127     24     -9    130    131 281.0  -4.1  33702  281.87 0864.58
2015 04 09 10 26 54 .58    -142     19    -40    144    150 277.9 -15.5  33670  281.32 0864.58
2015 04 09 10 26 54 .83    -160     43    -18    166    168 285.3  -6.5  33680  281.49 0864.58
2015 04 09 10 26 55 .08    -167     34    -29    171    174 281.7  -9.6  33670  281.34 0864.57
2015 04 09 10 26 55 .34    -148     20    -30    150    154 278.0 -11.6  33704  281.89 0864.57
2015 04 09 10 26 55 .58     -99    -17     -4    101    102 259.9  -2.6  33712  282.04 0864.57
2015 04 09 10 26 55 .83    -131     30     -2    135    136 283.3  -1.2  33706  281.94 0864.57
2015 04 09 10 26 56 .09    -130     24    -35    133    138 280.6 -15.0  33712  282.04 0864.57
2015 04 09 10 26 56 .35     -53      0     -2     54     55 270.0  -2.2  33732  282.37 0864.57
2015 04 09 10 26 56 .60     -56     25    -12     62     64 294.4 -11.5  33736  282.42 0864.57
2015 04 09 10 26 56 .85     -39      3    -25     40     47 274.4 -39.9  33744  282.57 0864.57
2015 04 09 10 26 57 .10     -60    -13    -18     62     64 257.6 -21.7  33734  282.39 0864.57
2015 04 09 10 26 57 .35     -85      1      9     86     87 271.3   6.5  33736  282.44 0864.57
2015 04 09 10 26 57 .60     -84     19    -26     87     92 282.8 -17.0  33736  282.42 0864.57
2015 04 09 10 26 57 .85     -75     39    -28     85     90 298.0 -18.7  33728  282.29 0864.57
2015 04 09 10 26 58 .10    -102     13      1    103    104 277.5   0.8  33690  281.65 0864.57
2015 04 09 10 26 58 .35    -126     21    -26    128    131 279.6 -11.5  33692  281.69 0864.57
2015 04 09 10 26 58 .61    -120     24    -19    123    125 281.4  -8.8  33694  281.72 0864.57
2015 04 09 10 26 58 .86    -127     30    -23    131    134 283.3 -10.3  33698  281.80 0864.57
2015 04 09 10 26 59 .10    -137     16    -17    139    141 277.0  -7.3  33710  282.00 0864.57
2015 04 09 10 26 59 .35    -123     -1    -29    124    128 269.2 -13.4  33702  281.87 0864.57
2015 04 09 10 26 59 .60    -117     11    -18    118    120 275.7  -8.8  33710  282.00 0864.57
2015 04 09 10 26 59 .85    -134     24    -19    137    139 280.1  -8.2  33702  281.87 0864.57
2015 04 09 10 27 00 .11    -132     25    -15    135    136 281.0  -6.7  33710  281.99 0864.57
2015 04 09 10 27 00 .35    -112      5    -14    113    114 272.6  -7.3  33706  281.92 0864.57
2015 04 09 10 27 00 .60    -118     39    -15    125    126 288.6  -7.2  33690  281.67 0864.57
2015 04 09 10 27 00 .86    -140     28    -28    143    146 281.4 -11.3  33696  281.75 0864.57
2015 04 09 10 27 01 .10    -147     20    -24    149    152 277.9  -9.3  33700  281.82 0864.57
2015 04 09 10 27 01 .36    -131      4    -25    132    135 272.1 -10.9  33706  281.94 0864.57
2015 04 09 10 27 01 .61    -120     20    -29    122    126 279.7 -13.4  33694  281.72 0864.57
2015 04 09 10 27 01 .86    -125     24    -16    128    130 281.0  -7.3  33702  281.85 0864.57
2015 04 09 10 27 02 .11    -152     40    -23    158    160 285.0  -8.6  33706  281.92 0864.57
2015 04 09 10 27 02 .36    -149     20    -31    151    155 277.9 -11.6  33704  281.89 0864.57
2015 04 09 10 27 02 .62    -148     67     -6    163    164 294.4  -2.1  33742  282.52 0864.57
2015 04 09 10 27 02 .86    -171     63    -23    183    185 290.2  -7.3  33760  282.84 0864.57
2015 04 09 10 27 03 .12    -166     35    -21    170    172 281.9  -7.3  33748  282.62 0864.57
2015 04 09 10 27 03 .37    -138     23    -18    141    143 279.7  -7.3  33748  282.64 0864.57
2015 04 09 10 27 03 .62    -113      0    -30    114    119 270.0 -15.0  33758  282.81 0864.57
2015 04 09 10 27 03 .88     -61      8    -12     62     64 277.9 -11.3  33780  283.18 0864.57
2015 04 09 10 27 04 .12    -129     71    -30    148    151 298.8 -11.5  33768  282.98 0864.57
2015 04 09 10 27 04 .38     -93     47    -20    105    107 297.1 -10.9  33796  283.45 0864.57
2015 04 09 10 27 04 .62    -136     27     -5    139    140 281.4  -2.2  33784  283.24 0864.57
2015 04 09 10 27 04 .88    -154    127    -13    200    201 309.5  -3.7  33744  282.56 0864.57
2015 04 09 10 27 05 .12    -173     93    -36    197    201 298.4 -10.5  33654  281.05 0864.57
2015 04 09 10 27 05 .37    -158     95    -37    185    189 300.9 -11.3  33650  281.00 0864.57
2015 04 09 10 27 05 .62    -158     95    -37    185    189 300.9 -11.3  33650  281.00 0864.57
2015 04 09 10 27 05 .88    -154    105    -30    187    190 304.2  -9.3  33652  281.04 0864.57
2015 04 09 10 27 06 .13    -154     98    -23    183    185 302.6  -7.2  33660  281.17 0864.57
2015 04 09 10 27 06 .38    -127     93     -5    158    159 306.4  -2.1  33674  281.39 0864.57
2015 04 09 10 27 06 .63    -127     75    -20    148    150 300.7  -7.7  33656  281.10 0864.57
2015 04 09 10 27 06 .88    -136     90    -22    164    166 303.5  -7.7  33658  281.14 0864.57
2015 04 09 10 27 07 .13    -111     99     -3    149    150 311.8  -1.3  33670  281.32 0864.57
2015 04 09 10 27 07 .38    -107     91      2    141    142 310.4   0.8  33672  281.37 0864.57
2015 04 09 10 27 07 .63    -124    108    -17    165    166 310.9  -6.2  33672  281.37 0864.57
2015 04 09 10 27 07 .88    -128    111    -23    170    172 311.1  -8.0  33672  281.35 0864.57
2015 04 09 10 27 08 .13    -151     97    -23    180    182 302.9  -7.5  33664  281.24 0864.57
2015 04 09 10 27 08 .38    -152    108    -25    187    189 305.3  -7.7  33666  281.27 0864.57
2015 04 09 10 27 08 .64    -147    100    -36    178    182 304.2 -11.5  33664  281.22 0864.57
2015 04 09 10 27 08 .89    -158     87    -42    181    186 298.9 -13.2  33660  281.15 0864.57
2015 04 09 10 27 09 .14    -141     91    -21    168    170 302.9  -7.2  33672  281.35 0864.57
2015 04 09 10 27 09 .39    -157    107    -31    191    194 304.4  -9.3  33672  281.37 0864.57
2015 04 09 10 27 09 .64    -168    101    -32    197    200 301.1  -9.3  33666  281.27 0864.57
2015 04 09 10 27 09 .89    -176    119    -16    213    214 304.1  -4.4  33692  281.70 0864.57
2015 04 09 10 27 10 .15    -179    121    -40    217    221 304.1 -10.5  33704  281.90 0864.57
2015 04 09 10 27 10 .40    -201     82    -21    218    220 292.2  -5.6  33758  282.79 0864.57
2015 04 09 10 27 10 .65    -218     68    -28    229    231 287.3  -7.2  33744  282.57 0864.58
2015 04 09 10 27 10 .90    -194    123    -39    230    234 302.4  -9.6  33750  282.67 0864.58
2015 04 09 10 27 11 .15    -182    120    -37    219    223 303.5  -9.6  33718  282.14 0864.58
2015 04 09 10 27 11 .41    -186     70    -39    199    203 290.8 -11.3  33748  282.62 0864.58
2015 04 09 10 27 11 .65    -169     68    -13    183    184 292.0  -4.1  33764  282.91 0864.58
2015 04 09 10 27 11 .90    -151     24    -20    153    155 279.2  -7.5  33788  283.31 0864.58
2015 04 09 10 27 12 .15    -122     24    -13    125    126 281.4  -6.2  33788  283.31 0864.58
2015 04 09 10 27 12 .40     -73    -47    -11     87     88 237.1  -7.7  33792  283.36 0864.57
2015 04 09 10 27 12 .65     -88     74    -11    116    117 310.0  -5.6  33762  282.88 0864.57
2015 04 09 10 27 12 .91    -134    127    -49    185    192 313.6 -15.0  33740  282.49 0864.57
2015 04 09 10 27 13 .16    -108     43    -29    117    121 291.7 -13.9  33792  283.38 0864.57
2015 04 09 10 27 13 .40     -36    -15     19     40     44 246.5  26.2  33812  283.71 0864.57
2015 04 09 10 27 13 .65     -39     38     22     55     59 314.1  23.0  33802  283.53 0864.57
2015 04 09 10 27 13 .91     -49     89     33    102    108 331.0  17.9  33764  282.91 0864.57
2015 04 09 10 27 14 .16    -129      3    -37    130    135 271.7 -21.2  33790  283.33 0864.57
2015 04 09 10 27 14 .41     -80     28     33     85     91 289.5  22.0  33818  283.81 0864.57
2015 04 09 10 27 14 .66      -1    -31     59     32     67 182.6  68.9  33842  284.22 0864.57
2015 04 09 10 27 14 .91     -32     20    -28     38     47 302.5 -45.1  33872  284.70 0864.57
2015 04 09 10 27 15 .16      -7     21      0     23     24 341.7  -2.2  33868  284.64 0864.57
2015 04 09 10 27 15 .41       1    -15     27     16     31 175.6  66.8  33868  284.65 0864.57
2015 04 09 10 27 15 .66      19      8    -24     21     31  66.5 -58.7  33854  284.40 0864.57
2015 04 09 10 27 15 .91       4     20      4     21     22  13.4  11.1  33844  284.25 0864.57
2015 04 09 10 27 16 .16      34    -12     41     37     55 110.0  53.3  33870  284.67 0864.57
2015 04 09 10 27 16 .41     -12    -57     65     59     87 192.5  52.7  33848  284.32 0864.57
2015 04 09 10 27 16 .66      22    -68     59     72     93 161.5  43.7  33874  284.76 0864.57
2015 04 09 10 27 16 .91    -101    -61    -10    119    120 238.9  -5.2  33768  282.96 0864.57
2015 04 09 10 27 17 .17    -126    -91    -26    156    159 234.1  -9.6  33750  282.66 0864.57
2015 04 09 10 27 17 .43     -80    -54    -14     97     99 235.8  -8.2  33758  282.81 0864.57
2015 04 09 10 27 17 .67     -40    -49     17     64     67 219.6  15.2  33782  283.21 0864.57
2015 04 09 10 27 17 .95     -44    -33     22     56     60 233.1  23.0  33788  283.29 0864.57
2015 04 09 10 27 18 .18    -112    -61    -37    128    134 241.1 -16.0  33766  282.94 0864.57
2015 04 09 10 27 18 .43    -173    -13    -22    174    176 265.6  -7.3  33750  282.67 0864.57
2015 04 09 10 27 18 .68    -119    -58    -16    133    135 243.8  -7.2  33772  283.03 0864.58
2015 04 09 10 27 18 .93    -147    -75    -32    166    170 242.9 -11.1  33778  283.13 0864.58
2015 04 09 10 27 19 .18    -145    -92     -6    172    173 237.5  -2.2  33780  283.16 0864.58
2015 04 09 10 27 19 .43    -193    -91    -11    214    215 244.6  -3.2  33780  283.16 0864.58
2015 04 09 10 27 19 .68    -152    -49    -23    160    162 251.8  -8.2  33794  283.41 0864.58
2015 04 09 10 27 19 .93    -106    -67     -8    126    127 237.5  -3.7  33810  283.66 0864.58
2015 04 09 10 27 20 .18    -169    -26    -51    172    180 261.0 -16.6  33688  281.62 0864.58
2015 04 09 10 27 20 .44    -167    -55    -17    177    178 251.6  -5.6  33710  281.99 0864.58
2015 04 09 10 27 20 .68    -135    -86    -22    161    163 237.6  -8.0  33738  282.46 0864.57
2015 04 09 10 27 20 .93    -107    -88     11    139    140 230.5   4.9  33760  282.83 0864.57
2015 04 09 10 27 21 .18     -55    -13    -21     57     60 255.8 -25.4  33776  283.09 0864.57
2015 04 09 10 27 21 .44     -93      5    -28     94     99 273.5 -17.0  33716  282.09 0864.57
2015 04 09 10 27 21 .68     -64     17    -42     67     79 285.1 -39.4  33730  282.32 0864.57
2015 04 09 10 27 21 .93     -25     63     33     68     75 338.2  27.3  33740  282.51 0864.57
2015 04 09 10 27 22 .19      38    -17     49     42     64 114.4  54.3  33744  282.57 0864.57
2015 04 09 10 27 22 .44     -37    -37     41     53     67 225.1  41.7  33796  283.43 0864.57
2015 04 09 10 27 22 .69     -80    -81    -26    114    117 224.7 -12.9  33790  283.33 0864.57
2015 04 09 10 27 22 .93    -112    -61    -30    128    132 241.1 -13.4  33768  282.98 0864.57
2015 04 09 10 27 23 .19     -58    -72    -21     93     96 219.2 -12.9  33766  282.94 0864.57
2015 04 09 10 27 23 .44    -129    -87    -13    156    157 235.8  -4.9  33780  283.16 0864.57
2015 04 09 10 27 23 .69    -170    -49    -30    177    180 253.8  -9.6  33718  282.12 0864.57
2015 04 09 10 27 23 .93    -167    -39    -36    172    176 256.7 -11.9  33678  281.47 0864.57
2015 04 09 10 27 24 .20    -195    -16    -50    196    203 265.2 -14.5  33652  281.04 0864.57
2015 04 09 10 27 24 .45    -208    -15    -37    209    213 265.6 -10.3  33672  281.37 0864.57
2015 04 09 10 27 24 .70    -202    -20    -28    203    206 264.3  -8.0  33680  281.50 0864.57
2015 04 09 10 27 24 .95    -184    -13    -43    185    191 265.7 -13.3  33658  281.14 0864.57
2015 04 09 10 27 25 .20    -201    -39    -48    205    211 258.8 -13.3  33656  281.10 0864.57
2015 04 09 10 27 25 .45    -196    -15    -41    197    202 265.6 -11.9  33658  281.12 0864.57
2015 04 09 10 27 25 .70    -198    -24    -34    200    204 263.0  -9.8  33662  281.19 0864.57
2015 04 09 10 27 25 .96    -189     -7    -31    190    193 267.6  -9.4  33670  281.32 0864.58
2015 04 09 10 27 26 .21    -202     -5    -48    203    209 268.5 -13.4  33668  281.29 0864.58
2015 04 09 10 27 26 .46    -127    -42      6    135    136 251.4   2.8  33696  281.75 0864.58
2015 04 09 10 27 26 .71     -76    -56    -34     95    101 233.6 -19.7  33690  281.67 0864.58
2015 04 09 10 27 26 .96     -52      1    -10     53     55 271.7 -11.3  33696  281.75 0864.57
2015 04 09 10 27 27 .21    -170     -1    -33    171    175 269.6 -11.1  33696  281.75 0864.57
2015 04 09 10 27 27 .46    -109     22    -14    112    113 281.4  -7.2  33706  281.94 0864.57
2015 04 09 10 27 27 .71     -72     24      3     76     77 288.4   2.9  33712  282.04 0864.57
2015 04 09 10 27 27 .96     -97     -7    -26     98    102 265.6 -15.0  33684  281.55 0864.57
2015 04 09 10 27 28 .21     -85     33     -9     92     93 291.3  -5.6  33696  281.77 0864.57
2015 04 09 10 27 28 .46     -51    -12      0     53     54 255.8   0.8  33720  282.17 0864.57
2015 04 09 10 27 28 .71     -29     20     10     36     38 304.2  15.3  33714  282.05 0864.57
2015 04 09 10 27 28 .96    -134    -24    -30    137    141 259.9 -12.4  33672  281.35 0864.57
2015 04 09 10 27 29 .21    -137    -37    -28    142    145 254.9 -11.3  33680  281.49 0864.57
2015 04 09 10 27 29 .47    -150      0    -23    151    153 269.6  -8.8  33690  281.65 0864.57
2015 04 09 10 27 29 .71    -179    -27    -40    182    187 261.4 -12.4  33660  281.15 0864.57
2015 04 09 10 27 29 .97    -123    -45    -36    132    138 250.0 -15.5  33674  281.40 0864.57
2015 04 09 10 27 30 .21    -127    -53    -13    138    139 247.4  -5.6  33696  281.75 0864.57
2015 04 09 10 27 30 .47    -166    -38    -34    171    175 257.0 -11.3  33668  281.30 0864.57
2015 04 09 10 27 30 .71    -190    -56    -40    199    203 253.6 -11.5  33650  280.99 0864.57
2015 04 09 10 27 30 .97    -193    -67    -49    205    211 250.7 -13.7  33650  280.99 0864.57
2015 04 09 10 27 31 .22    -200    -63    -50    210    216 252.3 -13.4  33652  281.04 0864.57
2015 04 09 10 27 31 .47    -190    -57    -57    199    208 253.1 -16.0  33650  281.00 0864.57
2015 04 09 10 27 31 .73    -181    -43    -59    187    197 256.5 -17.6  33650  280.99 0864.57
2015 04 09 10 27 31 .98    -179    -30    -55    182    191 260.3 -17.0  33658  281.12 0864.57
2015 04 09 10 27 32 .23    -179    -31    -17    182    183 259.9  -5.4  33672  281.37 0864.57
2015 04 09 10 27 32 .48    -146    -58    -21    158    160 248.3  -7.7  33700  281.82 0864.57
2015 04 09 10 27 32 .73    -153    -36    -26    158    161 256.8  -9.3  33662  281.20 0864.57
2015 04 09 10 27 32 .98    -138    -23    -36    140    145 260.4 -14.5  33656  281.10 0864.57
2015 04 09 10 27 33 .22    -114    -27    -37    118    124 256.7 -17.6  33676  281.44 0864.58
2015 04 09 10 27 33 .48    -130    -15    -32    131    135 263.4 -13.9  33658  281.14 0864.58
2015 04 09 10 27 33 .73    -122     -7    -29    123    127 266.5 -13.4  33656  281.10 0864.58
2015 04 09 10 27 33 .98    -143    -20    -22    145    147 262.0  -8.8  33668  281.29 0864.58
2015 04 09 10 27 34 .23    -146    -15    -24    147    149 263.8  -9.4  33666  281.25 0864.58
2015 04 09 10 27 34 .48    -130    -26    -43    133    140 258.5 -18.1  33658  281.14 0864.58
2015 04 09 10 27 34 .73    -133    -27    -27    136    139 258.5 -11.5  33658  281.14 0864.58
2015 04 09 10 27 34 .98    -112    -15    -40    114    122 262.1 -19.6  33656  281.10 0864.58
2015 04 09 10 27 35 .23    -117    -26    -41    120    127 257.2 -19.1  33654  281.07 0864.58
2015 04 09 10 27 35 .48    -119    -26    -40    122    129 257.6 -18.1  33654  281.05 0864.58
2015 04 09 10 27 35 .73    -118    -24    -38    121    127 258.5 -17.5  33652  281.04 0864.58
2015 04 09 10 27 35 .98    -123    -36    -30    129    133 253.6 -13.4  33656  281.09 0864.58
2015 04 09 10 27 36 .23    -121    -18    -39    123    130 261.2 -17.6  33654  281.05 0864.58
2015 04 09 10 27 36 .48    -117    -19    -34    119    124 260.4 -16.0  33654  281.05 0864.58
2015 04 09 10 27 36 .74    -114    -15    -32    116    121 262.1 -15.4  33652  281.04 0864.58
2015 04 09 10 27 36 .99    -119    -28    -27    123    126 256.7 -12.4  33652  281.04 0864.58
2015 04 09 10 27 37 .23    -114    -27    -29    118    122 256.3 -13.9  33654  281.05 0864.58
2015 04 09 10 27 37 .49    -114    -15    -32    116    121 262.1 -15.4  33652  281.04 0864.58
2015 04 09 10 27 37 .73    -110     -8    -26    111    115 265.7 -13.4  33652  281.02 0864.58
2015 04 09 10 27 38 .00    -110     -8    -26    111    115 265.7 -13.4  33652  281.02 0864.58
2015 04 09 10 27 38 .25    -116    -16    -32    118    123 262.0 -15.4  33662  281.19 0864.58
2015 04 09 10 27 38 .50    -107    -22    -30    110    115 258.1 -15.4  33660  281.15 0864.58
2015 04 09 10 27 38 .75    -104     -3    -27    105    109 268.3 -14.5  33654  281.07 0864.58
2015 04 09 10 27 39 .00     -97     -1    -26     98    102 269.2 -15.0  33652  281.04 0864.58
2015 04 09 10 27 39 .25     -97     -1    -26     98    102 269.2 -15.0  33652  281.04 0864.58
2015 04 09 10 27 39 .50     -97    -13    -22     98    101 262.1 -12.9  33654  281.05 0864.58
2015 04 09 10 27 39 .75    -107     -3    -24    108    111 268.3 -12.9  33654  281.07 0864.58
2015 04 09 10 27 40 .00    -104    -21    -26    107    111 258.5 -13.9  33654  281.07 0864.58
2015 04 09 10 27 40 .25    -100    -20    -28    103    107 258.5 -15.5  33654  281.05 0864.58
2015 04 09 10 27 40 .50    -105    -28    -33    109    114 254.9 -17.0  33654  281.05 0864.58
2015 04 09 10 27 40 .75     -98    -23    -27    101    105 256.3 -15.4  33654  281.07 0864.58
2015 04 09 10 27 41 .00     -98    -19    -23    100    103 258.5 -13.4  33654  281.05 0864.58
2015 04 09 10 27 41 .26     -91    -23    -14     94     96 255.8  -8.8  33656  281.09 0864.58
2015 04 09 10 27 41 .51     -92    -30    -15     97     99 251.8  -8.8  33656  281.09 0864.58
2015 04 09 10 27 41 .76     -89    -27    -21     94     97 252.7 -12.9  33658  281.14 0864.58
2015 04 09 10 27 42 .01     -84    -15    -25     86     90 259.9 -16.6  33654  281.07 0864.58
2015 04 09 10 27 42 .26     -80    -20    -18     83     85 255.8 -12.4  33656  281.10 0864.58
2015 04 09 10 27 42 .51     -83    -24    -21     87     90 253.6 -13.9  33662  281.19 0864.58
2015 04 09 10 27 42 .76     -80    -16    -24     82     85 258.5 -21.2  33654  281.07 0864.58
2015 04 09 10 27 43 .01     -74     -5    -20     75     78 265.7 -15.0  33658  281.12 0864.58
2015 04 09 10 27 43 .26     -71     -4    -14     72     74 266.5 -11.5  33654  281.07 0864.58
2015 04 09 10 27 43 .51     -75     -4    -13     76     78 266.5  -9.8  33654  281.05 0864.58
2015 04 09 10 27 43 .76     -81     -5    -22     82     86 266.5 -15.5  33654  281.05 0864.58
2015 04 09 10 27 44 .01     -79     -1    -28     80     86 268.7 -19.7  33656  281.10 0864.58
2015 04 09 10 27 44 .26     -77      0    -25     78     83 270.4 -18.1  33658  281.14 0864.58
2015 04 09 10 27 44 .51     -78      1    -23     79     82 270.8 -21.2  33656  281.10 0864.58
2015 04 09 10 27 44 .76     -70     -1    -24     71     76 269.2 -19.1  33654  281.07 0864.58
2015 04 09 10 27 45 .02     -71     -8    -23     72     75 263.0 -23.8  33656  281.10 0864.59
2015 04 09 10 27 45 .27     -67     -9    -25     68     72 262.1 -24.4  33654  281.07 0864.59
2015 04 09 10 27 45 .52     -76     -9    -21     77     79 263.0 -20.2  33654  281.07 0864.59
2015 04 09 10 27 45 .77     -69     -5    -27     70     75 265.7 -25.4  33656  281.10 0864.59
2015 04 09 10 27 46 .02     -76     -6    -27     77     81 264.8 -24.4  33660  281.15 0864.59
2015 04 09 10 27 46 .27     -76     -6    -27     77     81 264.8 -24.4  33660  281.15 0864.59
2015 04 09 10 27 46 .52     -74     -5    -25     75     79 265.7 -23.6  33658  281.12 0864.59
2015 04 09 10 27 46 .78     -72     -6    -29     73     78 264.8 -26.9  33658  281.12 0864.59
2015 04 09 10 27 47 .03     -69     -5    -27     70     75 265.7 -25.4  33656  281.10 0864.59
2015 04 09 10 27 47 .28     -69     -5    -27     70     75 265.7 -25.4  33656  281.10 0864.59
2015 04 09 10 27 47 .53     -69     -5    -27     70     75 265.7 -25.4  33656  281.10 0864.59
2015 04 09 10 27 47 .78     -59     -4    -25     60     65 265.6 -27.4  33658  281.14 0864.58
2015 04 09 10 27 48 .03     -59     -4    -25     60     65 265.6 -27.4  33658  281.14 0864.58
2015 04 09 10 27 48 .28     -57     -8    -23     58     62 261.2 -27.4  33660  281.15 0864.58
2015 04 09 10 27 48 .53     -62     -8    -20     63     66 262.1 -23.8  33658  281.14 0864.58
2015 04 09 10 27 48 .78     -53      0    -19     54     58 269.2 -19.7  33658  281.14 0864.58
2015 04 09 10 27 49 .03     -52      0    -18     53     55 270.0 -23.6  33660  281.15 0864.58
2015 04 09 10 27 49 .28     -53      4    -18     54     56 274.4 -23.6  33656  281.10 0864.58
2015 04 09 10 27 49 .53     -57      4    -23     58     62 274.4 -27.4  33660  281.15 0864.58
2015 04 09 10 27 49 .78     -48      4    -20     49     52 275.2 -27.4  33662  281.19 0864.58
2015 04 09 10 27 50 .03     -48      3    -14     49     50 274.4 -20.7  33660  281.15 0864.58
2015 04 09 10 27 50 .28     -44      3    -16     45     47 274.4 -23.3  33662  281.19 0864.58
2015 04 09 10 27 50 .53     -42      0    -14     43     45 270.0 -23.8  33662  281.20 0864.58
2015 04 09 10 27 50 .79     -39      3    -18     40     43 274.4 -29.5  33660  281.15 0864.58
2015 04 09 10 27 51 .04     -31      0    -18     32     36 270.0 -37.9  33666  281.27 0864.58
2015 04 09 10 27 51 .28     -37      0    -16     38     41 270.0 -28.5  33664  281.24 0864.58
2015 04 09 10 27 51 .54     -29      3    -16     30     34 276.1 -33.7  33668  281.29 0864.58
2015 04 09 10 27 51 .80     -26      8    -14     28     31 288.6 -31.7  33666  281.27 0864.58
2015 04 09 10 27 52 .05     -32      7    -11     33     34 283.3 -23.6  33664  281.24 0864.58
2015 04 09 10 27 52 .30     -29      5    -16     30     34 279.7 -33.7  33668  281.29 0864.57
2015 04 09 10 27 52 .55     -29      3    -16     30     34 276.1 -33.7  33668  281.29 0864.57
2015 04 09 10 27 52 .80     -22      0    -16     23     28 270.8 -42.0  33668  281.29 0864.57
2015 04 09 10 27 53 .05     -27      1    -14     28     31 272.6 -31.7  33670  281.32 0864.57
2015 04 09 10 27 53 .30     -22      0     -9     23     24 270.8 -25.4  33670  281.32 0864.57
2015 04 09 10 27 53 .55     -21      5    -14     22     26 283.3 -39.9  33672  281.37 0864.57
2015 04 09 10 27 53 .80     -21      5    -14     22     26 283.3 -39.9  33672  281.37 0864.57
2015 04 09 10 27 54 .06     -18      0    -11     19     21 270.8 -37.9  33670  281.34 0864.57
2015 04 09 10 27 54 .30     -21      5    -14     22     26 283.3 -39.9  33672  281.37 0864.57
2015 04 09 10 27 54 .56     -20      4    -14     21     25 283.3 -40.0  33682  281.52 0864.57
2015 04 09 10 27 54 .81     -16      5    -16     17     23 288.2 -54.4  33688  281.64 0864.57
2015 04 09 10 27 55 .06     -10      5    -11     12     16 295.3 -56.4  33686  281.59 0864.57
2015 04 09 10 27 55 .31      -7      6    -14     10     17 309.5 -64.9  33694  281.72 0864.57
2015 04 09 10 27 55 .56     -12     11    -12     17     20 313.3 -44.1  33680  281.49 0864.57
2015 04 09 10 27 55 .81      -8      9    -16     13     20 316.6 -60.8  33680  281.50 0864.57
2015 04 09 10 27 56 .06      -8      9    -16     13     20 316.6 -60.8  33680  281.50 0864.57
2015 04 09 10 27 56 .31     -10      5    -11     12     16 295.3 -56.4  33680  281.49 0864.57
2015 04 09 10 27 56 .56     -10      5    -11     12     16 295.3 -56.4  33678  281.45 0864.57
2015 04 09 10 27 56 .81       0      9    -14     10     17 355.5 -64.9  33678  281.47 0864.57
2015 04 09 10 27 57 .08      -5     16    -12     17     20 341.3 -44.1  33682  281.54 0864.57
2015 04 09 10 27 57 .31      -1     13    -12     14     18 353.8 -56.4  33692  281.70 0864.57
2015 04 09 10 27 57 .56      -2     14     -9     15     17 352.0 -39.9  33688  281.62 0864.57
2015 04 09 10 27 57 .81       1     18    -15     19     24   4.4 -48.1  33676  281.42 0864.57
2015 04 09 10 27 58 .06       0     18    -12     19     22   0.9 -39.9  33674  281.39 0864.57
2015 04 09 10 27 58 .31       8     20     -9     22     23  23.6 -25.4  33672  281.35 0864.57
2015 04 09 10 27 58 .56       2     25    -10     26     27   6.2 -23.3  33668  281.30 0864.57
2015 04 09 10 27 58 .82       2     26     -9     27     28   6.2 -23.6  33664  281.22 0864.57
2015 04 09 10 27 59 .08       2     26     -9     27     28   6.2 -23.6  33664  281.22 0864.57
2015 04 09 10 27 59 .32       9     29     -9     31     32  18.7 -21.7  33664  281.22 0864.57
2015 04 09 10 27 59 .57      12     24     -7     27     27  27.2 -21.7  33662  281.19 0864.57
2015 04 09 10 27 59 .83       7     23     -6     25     26  18.5 -13.4  33660  281.17 0864.57
2015 04 09 10 28 00 .08       7     23     -6     25     26  18.5 -13.4  33660  281.17 0864.57
2015 04 09 10 28 00 .33      13     28     -7     32     33  25.5 -13.4  33658  281.12 0864.57
2015 04 09 10 28 00 .58      16     25     -8     30     32  32.5 -15.5  33662  281.19 0864.57
2015 04 09 10 28 00 .83      14     27     -6     31     32  27.2 -11.3  33660  281.17 0864.57
2015 04 09 10 28 01 .08       8     26     -3     28     29  18.3  -7.3  33662  281.19 0864.57
2015 04 09 10 28 01 .33      14     27     -6     31     32  27.2 -11.3  33660  281.17 0864.57
2015 04 09 10 28 01 .58      13     21     -1     25     26  32.6  -2.2  33662  281.19 0864.57
2015 04 09 10 28 01 .83      18     28     -3     34     35  32.6  -5.2  33658  281.12 0864.57
2015 04 09 10 28 02 .08      18     28     -3     34     35  32.6  -5.2  33658  281.12 0864.57
2015 04 09 10 28 02 .33      11     23     -2     26     27  27.2  -5.2  33660  281.17 0864.58
2015 04 09 10 28 02 .58      13     21     -1     25     26  32.6  -2.2  33662  281.19 0864.58
2015 04 09 10 28 02 .83       4     28      3     29     30   9.8   6.9  33658  281.14 0864.58
2015 04 09 10 28 03 .09       6     31      6     32     33  11.6  11.1  33672  281.37 0864.58
2015 04 09 10 28 03 .34       7     23      6     25     26  16.9  15.3  33676  281.42 0864.58
2015 04 09 10 28 03 .59      14     27      6     31     32  27.2  11.1  33670  281.32 0864.58
2015 04 09 10 28 03 .83      12     35      6     38     39  20.0   9.0  33666  281.25 0864.58
2015 04 09 10 28 04 .09      12     35      6     38     39  20.0   9.0  33666  281.25 0864.57
2015 04 09 10 28 04 .34       2     37     11     38     40   4.5  16.3  33666  281.25 0864.57
2015 04 09 10 28 04 .59       9     29      7     31     32  18.7  13.2  33668  281.29 0864.57
2015 04 09 10 28 04 .84       7     23      6     25     26  16.9  15.3  33672  281.37 0864.57
2015 04 09 10 28 05 .09       3     28     11     29     31   6.2  21.0  33670  281.32 0864.57
2015 04 09 10 28 05 .34      -1     21      6     22     23 357.3  15.3  33678  281.47 0864.57
2015 04 09 10 28 05 .59       0     30     21     31     37 359.1  35.6  33684  281.55 0864.57
2015 04 09 10 28 05 .85       0     26     24     27     36 359.1  45.8  33688  281.62 0864.57
2015 04 09 10 28 06 .10      14     30     19     34     38  25.4  31.4  33678  281.47 0864.57
2015 04 09 10 28 06 .35      27     17     16     33     36  57.6  27.2  33694  281.72 0864.57
2015 04 09 10 28 06 .60      23     16      3     29     30  55.8   6.9  33690  281.65 0864.57
2015 04 09 10 28 06 .85      21     21      9     31     33  45.1  17.3  33686  281.59 0864.57
2015 04 09 10 28 07 .10      19     19     11     27     29  45.0  21.0  33696  281.77 0864.57
2015 04 09 10 28 07 .35      12     20     20     24     31  32.5  43.8  33696  281.77 0864.57
2015 04 09 10 28 07 .61       6     18     20     19     27  18.5  48.2  33724  282.24 0864.57
2015 04 09 10 28 07 .86       9     10     18     14     22  43.4  56.4  33732  282.37 0864.57
2015 04 09 10 28 08 .11      16     26     22     31     38  32.5  37.6  33720  282.17 0864.57
2015 04 09 10 28 08 .36      10     25     18     27     32  21.8  35.6  33712  282.04 0864.57
2015 04 09 10 28 08 .61       5     30     18     31     35   9.8  35.5  33704  281.90 0864.58
2015 04 09 10 28 08 .86      -1     27     11     28     30 357.3  21.0  33708  281.97 0864.58
2015 04 09 10 28 09 .11     -15     24     11     29     31 327.5  21.0  33710  281.99 0864.58
2015 04 09 10 28 09 .36      -4     12     10     13     16 341.7  39.7  33704  281.90 0864.58
2015 04 09 10 28 09 .61      -6     10      4     13     14 327.5  19.2  33690  281.65 0864.57
2015 04 09 10 28 09 .86      -1     12      0     13     14 353.8  -2.2  33682  281.54 0864.57
2015 04 09 10 28 10 .11       1     17      0     18     19   4.5   2.9  33678  281.47 0864.57
2015 04 09 10 28 10 .36       7     23     -1     25     26  16.9  -2.2  33662  281.19 0864.57
2015 04 09 10 28 10 .61       2     26     -3     27     28   4.5  -7.3  33664  281.24 0864.57
2015 04 09 10 28 10 .87       0     28     -1     29     30 359.1  -2.2  33670  281.34 0864.57
2015 04 09 10 28 11 .11       2     16     -3     17     18   8.0 -11.3  33674  281.39 0864.57
2015 04 09 10 28 11 .36       5     29     -1     30     31   9.8  -3.1  33670  281.32 0864.57
2015 04 09 10 28 11 .62       0     29     -1     30     31 359.1  -2.2  33668  281.29 0864.57
2015 04 09 10 28 11 .86      -5     17      0     18     19 341.5  -2.2  33670  281.34 0864.57
2015 04 09 10 28 12 .12      -2     20      1     21     22 352.0   4.9  33670  281.32 0864.57
2015 04 09 10 28 12 .37      -1     21      0     22     23 355.5   0.8  33682  281.52 0864.57
2015 04 09 10 28 12 .61      -9     16      1     19     20 331.0   2.9  33672  281.37 0864.57
2015 04 09 10 28 12 .88     -12     27      5     30     31 336.4  11.1  33666  281.25 0864.57
2015 04 09 10 28 13 .12     -11     20      7     23     25 331.0  17.3  33666  281.27 0864.57
2015 04 09 10 28 13 .39     -11     20      7     23     25 331.0  17.3  33684  281.57 0864.57
2015 04 09 10 28 13 .63     -10     26      5     29     30 338.2  11.1  33702  281.87 0864.57
2015 04 09 10 28 13 .88     -15     14      1     21     22 313.1   4.9  33748  282.64 0864.57
2015 04 09 10 28 14 .13     -12      9     13     16     20 306.0  43.7  33718  282.12 0864.57
2015 04 09 10 28 14 .38     -13      5     14     15     20 291.7  47.9  33734  282.41 0864.57
2015 04 09 10 28 14 .63     -16      5     22     17     27 288.2  58.5  33754  282.74 0864.57
2015 04 09 10 28 14 .88      -9     12     18     16     24 323.9  50.1  33750  282.67 0864.57
2015 04 09 10 28 15 .13      -6     18     20     19     27 341.5  48.2  33736  282.44 0864.57
2015 04 09 10 28 15 .38     -15     12     23     20     30 309.5  56.3  33742  282.52 0864.57
2015 04 09 10 28 15 .64     -21      5     25     22     33 283.3  54.3  33756  282.76 0864.57
2015 04 09 10 28 15 .88     -24      9     22     26     34 291.7  45.8  33750  282.67 0864.57
2015 04 09 10 28 16 .14     -19      1     27     20     33 274.4  58.5  33754  282.72 0864.57
2015 04 09 10 28 16 .38     -16     12     36     21     41 307.8  67.7  33770  282.99 0864.57
2015 04 09 10 28 16 .64     -32     26     40     42     58 309.5  51.1  33764  282.89 0864.57
2015 04 09 10 28 16 .89     -24     24     43     34     54 315.0  57.5  33818  283.80 0864.57
2015 04 09 10 28 17 .14     -10     16     49     20     52 327.5  77.1  33798  283.46 0864.57
2015 04 09 10 28 17 .38     -13     17     38     22     43 322.2  67.7  33806  283.60 0864.57
2015 04 09 10 28 17 .64     -29     22     35     37     50 307.8  49.0  33772  283.04 0864.58
2015 04 09 10 28 17 .90     -32     26     34     42     54 309.5  43.7  33778  283.13 0864.58
2015 04 09 10 28 18 .14     -27     17     19     32     37 302.4  35.5  33792  283.36 0864.58
2015 04 09 10 28 18 .39     -15     -1     16     16     22 265.7  50.1  33814  283.75 0864.58
2015 04 09 10 28 18 .64     -11      1      0     12     13 277.9  -2.2  33798  283.48 0864.58
2015 04 09 10 28 18 .89     -15      5     -3     16     17 288.6 -11.3  33770  282.99 0864.58
2015 04 09 10 28 19 .14     -36      0      1     37     38 269.2   2.9  33760  282.83 0864.58
2015 04 09 10 28 19 .40     -50     -6     -2     51     52 263.0  -2.2  33722  282.21 0864.58
2015 04 09 10 28 19 .65     -70    -28     -9     76     77 248.3  -7.3  33728  282.31 0864.58
2015 04 09 10 28 19 .91     -53    -11     -2     55     56 257.6  -2.2  33712  282.04 0864.58
2015 04 09 10 28 20 .15     -49    -13     -4     51     52 254.9  -5.2  33734  282.41 0864.58
2015 04 09 10 28 20 .40     -56     17    -16     59     62 286.8 -15.4  33690  281.65 0864.58
2015 04 09 10 28 20 .66     -69     22    -10     73     74 287.7  -8.2  33682  281.52 0864.58
2015 04 09 10 28 20 .91     -62     23    -13     67     69 290.8 -11.3  33682  281.52 0864.58
2015 04 09 10 28 21 .18     -68     43     -5     81     82 302.9  -4.1  33726  282.27 0864.58
2015 04 09 10 28 21 .41     -58     36     -8     69     70 301.5  -7.3  33686  281.59 0864.58
2015 04 09 10 28 21 .65     -60     27    -10     66     67 294.4  -9.3  33680  281.49 0864.58
2015 04 09 10 28 21 .91     -54     20    -12     58     60 290.8 -12.4  33684  281.57 0864.58
2015 04 09 10 28 22 .16     -64      8      0     65     66 277.9   0.8  33684  281.57 0864.58
2015 04 09 10 28 22 .42     -68    -20    -10     72     73 253.2  -8.2  33714  282.05 0864.58
2015 04 09 10 28 22 .66     -61    -26     -8     67     68 246.5  -7.2  33724  282.24 0864.58
2015 04 09 10 28 22 .91     -70    -33      4     78     79 244.6   3.3  33740  282.51 0864.58
2015 04 09 10 28 23 .16     -56    -37     -9     68     69 236.7  -8.2  33744  282.57 0864.58
2015 04 09 10 28 23 .41     -52    -30    -30     61     67 240.2 -31.7  33758  282.79 0864.58
2015 04 09 10 28 23 .67     -80      0    -30     81     86 270.0 -24.8  33782  283.21 0864.58
2015 04 09 10 28 23 .92     -32      8    -12     34     36 285.1 -23.3  33792  283.36 0864.58
2015 04 09 10 28 24 .16     -67    -13     -3     69     70 258.6  -3.1  33758  282.81 0864.58
2015 04 09 10 28 24 .42     -93      4    -28     94     99 272.6 -17.0  33694  281.72 0864.58
2015 04 09 10 28 24 .67     -87    -47      1     99    100 241.6   0.8  33722  282.21 0864.58
2015 04 09 10 28 24 .92     -61    -49    -26     79     84 231.4 -18.1  33748  282.64 0864.58
2015 04 09 10 28 25 .17     -22    -41    -28     47     54 208.1 -38.8  33764  282.91 0864.58
2015 04 09 10 28 25 .42     -52    -41     -2     67     68 232.2  -2.2  33772  283.04 0864.58
2015 04 09 10 28 25 .67     -41    -44     12     61     63 223.3  11.0  33780  283.18 0864.58
2015 04 09 10 28 25 .92     -20    -19     27     28     38 226.7  52.0  33798  283.46 0864.58
2015 04 09 10 28 26 .17     -44    -22     57     50     75 243.8  54.3  33842  284.20 0864.58
2015 04 09 10 28 26 .42     -59    -63     35     87     93 222.8  22.5  33798  283.46 0864.58
2015 04 09 10 28 26 .68     -65    -94     25    115    118 214.7  12.6  33784  283.24 0864.58
2015 04 09 10 28 26 .94     -83    -90     24    123    126 222.8  11.0  33778  283.13 0864.58
2015 04 09 10 28 27 .18     -86    -89     40    124    131 224.1  17.9  33760  282.84 0864.58
2015 04 09 10 28 27 .43     -88   -107     36    139    144 219.6  14.7  33746  282.61 0864.58
2015 04 09 10 28 27 .68     -64    -92     32    113    118 214.7  15.8  33746  282.61 0864.58
2015 04 09 10 28 27 .93     -70    -92     57    116    129 217.4  27.8  33744  282.57 0864.58
2015 04 09 10 28 28 .18     -76    -97     44    124    131 218.3  20.0  33742  282.54 0864.58
2015 04 09 10 28 28 .43     -87    -92     38    127    133 223.3  16.8  33678  281.47 0864.58
2015 04 09 10 28 28 .69    -108   -121     20    163    165 221.9   7.2  33682  281.52 0864.58
2015 04 09 10 28 28 .94    -114    -72    -21    136    138 237.6  -8.8  33688  281.62 0864.58
2015 04 09 10 28 29 .19    -100    -77      6    127    128 232.2   2.9  33688  281.62 0864.58
2015 04 09 10 28 29 .44    -102    -95      0    140    141 226.9  -0.3  33680  281.49 0864.58
2015 04 09 10 28 29 .68    -106   -102      2    148    149 226.0   0.8  33676  281.42 0864.58
2015 04 09 10 28 29 .94    -109    -99      7    148    149 227.8   2.8  33666  281.27 0864.58
2015 04 09 10 28 30 .19    -108   -101      7    148    149 226.9   2.8  33676  281.42 0864.58
2015 04 09 10 28 30 .44    -104    -91     -3    139    140 228.7  -1.3  33684  281.57 0864.58
2015 04 09 10 28 30 .69    -126   -104      4    164    165 230.5   1.6  33678  281.45 0864.58
2015 04 09 10 28 30 .94    -120    -99      4    156    157 230.4   1.6  33670  281.34 0864.58
2015 04 09 10 28 31 .19    -109    -79    -17    135    137 234.0  -7.2  33690  281.67 0864.58
2015 04 09 10 28 31 .44    -110    -75    -26    134    137 235.9 -11.3  33690  281.67 0864.58
2015 04 09 10 28 31 .69    -100    -75    -21    126    128 233.1  -9.8  33692  281.70 0864.58
2015 04 09 10 28 31 .94     -96    -61    -14    115    116 237.5  -7.3  33688  281.62 0864.58
2015 04 09 10 28 32 .19     -79    -80     -4    113    114 224.7  -2.2  33680  281.49 0864.58
2015 04 09 10 28 32 .44    -102    -95      0    140    141 226.9  -0.3  33670  281.34 0864.58
2015 04 09 10 28 32 .70    -103    -76    -16    129    131 233.6  -7.3  33674  281.39 0864.58
2015 04 09 10 28 32 .94    -104    -66    -16    124    126 237.5  -7.3  33684  281.57 0864.58
2015 04 09 10 28 33 .20    -121    -75    -43    143    150 238.0 -17.0  33692  281.70 0864.58
2015 04 09 10 28 33 .45    -129    -72    -52    148    157 240.7 -19.4  33690  281.67 0864.58
2015 04 09 10 28 33 .71    -138    -76    -36    158    163 241.1 -12.9  33694  281.72 0864.58
2015 04 09 10 28 33 .96    -134    -73    -47    153    160 241.1 -22.3  33678  281.45 0864.58
2015 04 09 10 28 34 .21    -139    -71    -31    157    161 242.9 -11.3  33672  281.35 0864.58
2015 04 09 10 28 34 .46    -124    -68     -1    142    143 241.2  -0.7  33670  281.34 0864.58
2015 04 09 10 28 34 .71    -130    -61     -5    144    145 244.6  -2.2  33680  281.50 0864.58
2015 04 09 10 28 34 .96    -102    -78      1    129    130 232.7   0.8  33672  281.37 0864.58
2015 04 09 10 28 35 .21     -91    -83     10    124    125 227.8   5.0  33684  281.57 0864.58
2015 04 09 10 28 35 .46    -104    -87      0    136    137 230.0  -0.3  33684  281.55 0864.58
2015 04 09 10 28 35 .71    -103    -85      7    134    135 230.4   3.3  33680  281.49 0864.58
2015 04 09 10 28 35 .97     -95    -83     14    127    128 228.7   6.5  33686  281.60 0864.58
2015 04 09 10 28 36 .21    -112    -72      6    134    135 237.1   2.8  33704  281.90 0864.58
2015 04 09 10 28 36 .47    -116    -31    -33    121    126 255.0 -15.4  33708  281.95 0864.58
2015 04 09 10 28 36 .72    -149    -50    -35    158    162 251.4 -12.6  33700  281.82 0864.57
2015 04 09 10 28 36 .96    -127    -30    -16    131    133 256.7  -7.3  33698  281.80 0864.57
2015 04 09 10 28 37 .21    -115    -38    -38    122    127 251.4 -22.3  33662  281.19 0864.57
2015 04 09 10 28 37 .47    -117    -23    -40    120    126 258.5 -23.6  33664  281.22 0864.57
2015 04 09 10 28 37 .71    -108    -31    -30    113    117 253.6 -15.0  33666  281.25 0864.57
2015 04 09 10 28 37 .97    -103    -25    -29    106    111 256.3 -15.5  33680  281.49 0864.57
2015 04 09 10 28 38 .22     -94    -26    -32     98    103 254.5 -23.8  33678  281.47 0864.57
2015 04 09 10 28 38 .46    -106    -27    -35    110    115 255.4 -23.8  33662  281.20 0864.58
2015 04 09 10 28 38 .72    -110    -39    -37    117    123 250.5 -17.6  33702  281.85 0864.58
2015 04 09 10 28 38 .97    -112    -52    -16    124    126 244.8  -7.7  33708  281.95 0864.58
2015 04 09 10 28 39 .22    -105    -56    -25    120    123 242.0 -11.9  33716  282.09 0864.58
2015 04 09 10 28 39 .47    -104    -60    -15    121    122 239.8  -7.3  33718  282.14 0864.58
2015 04 09 10 28 39 .72    -119    -40    -25    126    129 251.4 -11.3  33706  281.94 0864.58
2015 04 09 10 28 39 .97    -114    -58    -16    129    131 242.9  -7.3  33702  281.87 0864.58
2015 04 09 10 28 40 .22    -126    -54    -28    138    141 246.9 -11.5  33696  281.75 0864.58
2015 04 09 10 28 40 .48    -119    -44    -31    128    132 249.6 -13.9  33672  281.37 0864.58
2015 04 09 10 28 40 .73    -121    -43    -35    129    134 250.5 -15.4  33666  281.27 0864.58
2015 04 09 10 28 40 .98    -121    -48    -32    131    135 248.3 -13.9  33664  281.24 0864.58
2015 04 09 10 28 41 .23    -117    -48    -35    127    132 247.4 -15.5  33660  281.15 0864.58
2015 04 09 10 28 41 .48    -115    -38    -40    122    129 251.6 -18.1  33660  281.15 0864.58
2015 04 09 10 28 41 .73    -113    -39    -34    120    125 250.9 -16.0  33656  281.10 0864.58
2015 04 09 10 28 41 .98    -113    -39    -34    120    125 250.9 -16.0  33656  281.10 0864.58
2015 04 09 10 28 42 .23    -107    -26    -39    111    118 256.3 -19.6  33656  281.10 0864.57
2015 04 09 10 28 42 .49    -108    -29    -35    112    117 254.9 -22.3  33674  281.40 0864.57
2015 04 09 10 28 42 .74    -101    -14    -32    102    106 262.1 -23.3  33702  281.87 0864.57
2015 04 09 10 28 42 .99     -95    -13    -30     96    101 262.1 -17.6  33718  282.12 0864.57
2015 04 09 10 28 43 .24     -97    -21    -24    100    104 257.6 -13.9  33716  282.11 0864.57
2015 04 09 10 28 43 .49    -100    -40    -21    108    111 247.8 -11.3  33712  282.02 0864.57
2015 04 09 10 28 43 .74     -93    -28    -19     98    100 253.2 -11.3  33702  281.87 0864.57
2015 04 09 10 28 43 .99     -99    -17    -29    101    105 259.9 -21.2  33692  281.70 0864.58
2015 04 09 10 28 44 .24     -89    -34    -29     96    101 249.2 -17.0  33684  281.57 0864.58
2015 04 09 10 28 44 .49     -88    -30    -18     94     96 250.9 -11.3  33684  281.57 0864.58
2015 04 09 10 28 44 .74     -92    -12    -36     93     99 262.1 -26.4  33694  281.72 0864.58
2015 04 09 10 28 44 .99     -90    -24    -33     94     99 254.9 -23.8  33668  281.29 0864.58
2015 04 09 10 28 45 .24     -84    -36    -25     92     96 246.9 -15.5  33670  281.34 0864.58
2015 04 09 10 28 45 .49     -86    -36    -32     94    100 246.9 -18.7  33676  281.44 0864.58
2015 04 09 10 28 45 .75     -74    -49    -13     90     91 236.3  -8.2  33684  281.57 0864.58
2015 04 09 10 28 45 .99     -67    -49     -3     84     85 233.6  -2.2  33682  281.54 0864.58
2015 04 09 10 28 46 .24     -72    -46    -11     86     87 237.6  -7.3  33680  281.49 0864.58
2015 04 09 10 28 46 .50     -68    -53    -11     87     88 232.2  -7.7  33680  281.49 0864.58
2015 04 09 10 28 46 .75     -61    -55     -3     83     84 227.8  -2.6  33690  281.67 0864.58
2015 04 09 10 28 47 .00     -59    -59      4     84     85 225.1   2.9  33694  281.72 0864.58
2015 04 09 10 28 47 .25     -67    -59      1     90     91 228.2   1.2  33670  281.34 0864.58
2015 04 09 10 28 47 .51     -70    -63      4     95     96 228.2   2.9  33684  281.55 0864.58
2015 04 09 10 28 47 .76     -70    -63      4     95     96 227.8   2.9  33686  281.60 0864.58
2015 04 09 10 28 48 .01     -81    -47     -2     94     95 239.8  -1.3  33690  281.67 0864.58
2015 04 09 10 28 48 .26     -74    -42      0     86     87 240.2   0.2  33684  281.57 0864.58
2015 04 09 10 28 48 .51     -77    -46     -8     90     91 238.9  -5.6  33678  281.47 0864.58
2015 04 09 10 28 48 .76     -78    -47    -10     92     93 238.9  -6.2  33670  281.32 0864.58
2015 04 09 10 28 49 .01     -74    -42    -14     86     88 240.2  -9.3  33666  281.27 0864.58
2015 04 09 10 28 49 .26     -81    -37    -13     90     91 245.6  -8.2  33660  281.15 0864.58
2015 04 09 10 28 49 .51     -95    -42    -16    105    107 246.0  -8.8  33662  281.19 0864.58
2015 04 09 10 28 49 .76    -103    -34    -11    109    110 251.4  -6.2  33698  281.79 0864.58
2015 04 09 10 28 50 .01     -94    -16    -21     96     99 259.9 -12.4  33664  281.24 0864.58
2015 04 09 10 28 50 .26     -79    -20    -25     82     86 255.4 -17.0  33660  281.17 0864.58
2015 04 09 10 28 50 .51     -79    -16    -28     81     86 258.5 -19.1  33660  281.15 0864.58
2015 04 09 10 28 50 .76     -79    -12    -25     80     84 261.2 -17.6  33658  281.12 0864.58
2015 04 09 10 28 51 .01     -71    -15    -24     73     78 257.6 -18.7  33658  281.12 0864.58
2015 04 09 10 28 51 .26     -71    -15    -24     73     78 257.6 -18.7  33658  281.12 0864.58
2015 04 09 10 28 51 .52     -75    -20    -20     78     81 254.9 -15.0  33658  281.12 0864.58
2015 04 09 10 28 51 .77     -77    -28    -20     82     85 250.0 -13.9  33662  281.19 0864.58
2015 04 09 10 28 52 .01     -77    -28    -20     82     85 250.0 -13.9  33662  281.19 0864.58
2015 04 09 10 28 52 .27     -77    -28    -20     82     85 250.0 -13.9  33662  281.19 0864.58
2015 04 09 10 28 52 .52     -81    -27    -24     86     90 251.6 -16.0  33658  281.14 0864.58
2015 04 09 10 28 52 .77     -72    -24    -26     76     81 251.4 -19.1  33658  281.12 0864.58
2015 04 09 10 28 53 .02     -77    -24    -23     81     85 252.7 -16.0  33660  281.15 0864.58
2015 04 09 10 28 53 .27     -77    -28    -20     82     85 250.0 -13.9  33662  281.19 0864.58
2015 04 09 10 28 53 .52     -78    -31    -23     85     89 248.3 -15.4  33660  281.15 0864.58
2015 04 09 10 28 53 .77     -81    -27    -24     86     90 251.6 -16.0  33658  281.14 0864.58
2015 04 09 10 28 54 .02     -78    -31    -23     85     89 248.3 -15.4  33660  281.15 0864.58
2015 04 09 10 28 54 .27     -77    -24    -23     81     85 252.7 -16.0  33660  281.15 0864.58
2015 04 09 10 28 54 .53     -72    -24    -26     76     81 251.4 -19.1  33658  281.12 0864.58
2015 04 09 10 28 54 .78     -80    -27    -18     85     88 251.4 -12.4  33660  281.15 0864.58
2015 04 09 10 28 55 .03     -82    -30    -21     88     91 249.6 -13.9  33658  281.14 0864.58
2015 04 09 10 28 55 .28     -89    -27    -21     94     97 252.7 -12.9  33658  281.14 0864.58
2015 04 09 10 28 56 .03     -80    -20    -18     83     85 255.8 -12.4  33656  281.10 0864.59
2015 04 09 10 28 56 .29     -80    -20    -18     83     85 255.8 -12.4  33656  281.10 0864.59
2015 04 09 10 28 56 .53     -80    -16    -21     82     85 258.1 -14.5  33658  281.12 0864.59
2015 04 09 10 28 56 .79     -81    -19    -23     84     88 256.7 -15.4  33656  281.10 0864.59
2015 04 09 10 28 57 .04     -89    -24    -24     93     97 254.9 -14.5  33660  281.15 0864.59
2015 04 09 10 28 57 .29     -89    -27    -21     94     97 252.7 -12.9  33658  281.14 0864.59
2015 04 09 10 28 57 .54     -89    -27    -21     94     97 252.7 -12.9  33658  281.14 0864.59
2015 04 09 10 28 57 .79     -81    -19    -23     84     88 256.7 -15.4  33656  281.10 0864.58
2015 04 09 10 28 58 .04     -80    -16    -21     82     85 258.1 -14.5  33658  281.12 0864.58
2015 04 09 10 28 58 .29     -75    -17    -23     77     81 257.2 -17.0  33660  281.15 0864.58
2015 04 09 10 28 58 .54     -75    -17    -23     77     81 257.2 -17.0  33660  281.15 0864.58
2015 04 09 10 28 58 .79     -81    -16    -21     83     86 258.5 -14.5  33660  281.17 0864.58
2015 04 09 10 28 59 .04     -84    -12    -14     85     87 261.6  -9.8  33662  281.19 0864.58
2015 04 09 10 28 59 .29     -80     -4    -10     81     82 266.5  -7.7  33664  281.24 0864.58
2015 04 09 10 28 59 .55     -91     -5    -11     92     93 266.5  -7.3  33656  281.10 0864.58
2015 04 09 10 28 59 .79     -74     -5    -20     75     78 265.7 -15.0  33658  281.12 0864.58
2015 04 09 10 29 00 .04     -74     -5    -20     75     78 265.7 -15.0  33658  281.12 0864.58
2015 04 09 10 29 00 .29     -81      0    -21     82     85 270.0 -14.5  33658  281.14 0864.58
2015 04 09 10 29 00 .54     -80     -6    -25     81     84 265.6 -22.8  33658  281.12 0864.58
2015 04 09 10 29 00 .79     -75    -17    -23     77     81 257.2 -17.0  33660  281.15 0864.58
2015 04 09 10 29 01 .04     -69    -14    -22     71     75 258.6 -17.6  33656  281.10 0864.58
2015 04 09 10 29 01 .30     -74    -12    -21     76     79 260.3 -15.5  33658  281.12 0864.58
2015 04 09 10 29 01 .56     -79     -7    -28     80     86 264.8 -19.7  33660  281.15 0864.58
2015 04 09 10 29 01 .81     -79     -7    -28     80     86 264.8 -19.7  33660  281.15 0864.58
2015 04 09 10 29 02 .06     -79     -4    -17     80     82 266.5 -12.4  33656  281.10 0864.58
2015 04 09 10 29 02 .31     -74     -5    -20     75     78 265.7 -15.0  33658  281.12 0864.58
2015 04 09 10 29 02 .56     -74     -5    -20     75     78 265.7 -15.0  33658  281.12 0864.58
2015 04 09 10 29 02 .81     -68    -12    -23     70     74 259.4 -18.7  33660  281.15 0864.58
2015 04 09 10 29 03 .06     -72     -8    -19     73     76 263.0 -14.5  33660  281.15 0864.58
2015 04 09 10 29 03 .31     -74     -5    -20     75     78 265.7 -15.0  33658  281.12 0864.57
2015 04 09 10 29 03 .56     -74     -5    -20     75     78 265.7 -15.0  33658  281.12 0864.57
2015 04 09 10 29 03 .81     -74     -5    -20     75     78 265.7 -15.0  33658  281.12 0864.57
2015 04 09 10 29 04 .06     -79     -4    -17     80     82 266.5 -12.4  33656  281.10 0864.57
2015 04 09 10 29 04 .31     -83     -5    -16     84     86 266.5 -10.9  33658  281.14 0864.57
2015 04 09 10 29 04 .56     -79     -4    -17     80     82 266.5 -12.4  33656  281.10 0864.57
2015 04 09 10 29 04 .81     -80      4    -20     81     84 273.5 -13.9  33656  281.09 0864.57
2015 04 09 10 29 05 .06     -81      8    -22     82     86 275.7 -15.5  33656  281.10 0864.57
2015 04 09 10 29 05 .32     -84     11    -25     85     89 277.9 -17.0  33656  281.09 0864.57
2015 04 09 10 29 05 .57     -81     16    -23     83     87 281.5 -15.5  33656  281.10 0864.57
2015 04 09 10 29 05 .82     -75     12    -23     77     81 279.7 -17.0  33660  281.15 0864.57
2015 04 09 10 29 06 .07     -74     16    -21     76     79 282.4 -15.5  33658  281.14 0864.57
2015 04 09 10 29 06 .32     -79     24    -25     83     87 287.3 -17.0  33658  281.14 0864.57
2015 04 09 10 29 06 .57     -79     24    -25     83     87 287.3 -17.0  33658  281.14 0864.57
2015 04 09 10 29 06 .82     -84     20    -29     87     91 283.7 -23.6  33654  281.07 0864.57
2015 04 09 10 29 07 .07     -80     20    -27     83     88 284.6 -18.1  33660  281.15 0864.57
2015 04 09 10 29 07 .32     -89     29    -26     94     97 288.6 -20.7  33660  281.15 0864.57
2015 04 09 10 29 07 .57     -95     23    -31     98    103 283.7 -17.6  33658  281.14 0864.57
2015 04 09 10 29 07 .82     -94     34    -28    101    105 290.0 -15.5  33660  281.17 0864.57
2015 04 09 10 29 08 .07     -94     27    -27     99    103 286.4 -15.5  33660  281.17 0864.57
2015 04 09 10 29 08 .34     -98     33    -33    104    110 288.6 -17.6  33660  281.15 0864.57
2015 04 09 10 29 08 .58     -93     30    -26     98    102 288.4 -15.0  33662  281.19 0864.57
2015 04 09 10 29 08 .84     -89     29    -26     94     97 288.6 -20.7  33660  281.15 0864.57
2015 04 09 10 29 09 .09     -77     26    -22     82     86 288.6 -15.5  33660  281.15 0864.57
2015 04 09 10 29 09 .34     -81     30    -11     87     88 290.8  -7.2  33662  281.19 0864.57
2015 04 09 10 29 09 .59     -82     24    -30     86     92 286.8 -19.7  33662  281.19 0864.56
2015 04 09 10 29 09 .84     -79     22    -32     83     88 285.5 -25.9  33662  281.20 0864.56
2015 04 09 10 29 10 .09     -77     25    -29     82     86 288.4 -23.8  33662  281.19 0864.56
2015 04 09 10 29 10 .34     -77     26    -22     82     86 288.6 -15.5  33662  281.20 0864.56
2015 04 09 10 29 10 .59     -75     40    -22     86     89 298.0 -14.5  33662  281.19 0864.56
2015 04 09 10 29 10 .84     -75     40    -22     86     89 298.0 -14.5  33662  281.19 0864.56
2015 04 09 10 29 11 .09     -69     39    -23     80     84 299.3 -16.0  33662  281.20 0864.56
2015 04 09 10 29 11 .34     -73     35    -18     82     84 295.8 -12.4  33662  281.20 0864.56
2015 04 09 10 29 11 .59     -59     36    -21     70     73 301.5 -21.7  33664  281.24 0864.57
2015 04 09 10 29 11 .84     -63     25    -24     68     73 291.8 -19.6  33662  281.20 0864.57
2015 04 09 10 29 12 .09     -63     34    -14     72     74 298.8 -11.3  33664  281.24 0864.57
2015 04 09 10 29 12 .34     -64     35     -9     74     75 298.9  -7.2  33662  281.20 0864.56
2015 04 09 10 29 12 .60     -65     30    -10     72     73 295.4  -8.2  33668  281.30 0864.56
2015 04 09 10 29 12 .85     -71     31    -15     78     80 293.5 -10.9  33690  281.65 0864.56
2015 04 09 10 29 13 .10     -35     39     -4     53     54 317.7  -5.2  33714  282.05 0864.56
2015 04 09 10 29 13 .34     -12     55     11     57     59 347.5  11.0  33710  281.99 0864.56
2015 04 09 10 29 13 .60     -61     30    -12     68     70 296.2 -10.3  33688  281.62 0864.56
2015 04 09 10 29 13 .85     -63     31      0     71     72 296.2  -0.3  33702  281.87 0864.56
2015 04 09 10 29 14 .10     -67     23    -11     71     72 289.1  -9.3  33680  281.49 0864.57
2015 04 09 10 29 14 .35     -64     21     -8     68     69 288.6  -7.2  33678  281.47 0864.57
2015 04 09 10 29 14 .60     -60     27     -2     66     67 294.4  -2.2  33676  281.42 0864.57
2015 04 09 10 29 14 .85     -61     28     -8     68     69 294.4  -7.3  33670  281.34 0864.57
2015 04 09 10 29 15 .10     -74     24     -8     78     79 288.2  -6.2  33662  281.20 0864.57
2015 04 09 10 29 15 .36     -79     28     -9     84     85 289.5  -6.2  33662  281.20 0864.57
2015 04 09 10 29 15 .61     -65     41    -18     77     80 302.4 -13.4  33662  281.20 0864.57
2015 04 09 10 29 15 .86     -65     41    -18     77     80 302.4 -13.4  33662  281.20 0864.57
2015 04 09 10 29 16 .11     -64     43    -23     78     82 304.2 -17.0  33660  281.15 0864.57
2015 04 09 10 29 16 .36     -67     43    -21     80     83 302.9 -15.0  33662  281.19 0864.57
2015 04 09 10 29 16 .61     -57     31    -18     66     68 298.9 -20.7  33662  281.20 0864.57
2015 04 09 10 29 16 .86     -63     24    -23     68     71 290.8 -23.6  33662  281.20 0864.57
2015 04 09 10 29 17 .11     -54     32    -20     63     66 300.7 -23.8  33662  281.19 0864.57
2015 04 09 10 29 17 .36     -66     31    -21     74     76 295.2 -20.7  33658  281.12 0864.57
2015 04 09 10 29 17 .61     -57     35    -18     68     71 301.5 -15.5  33660  281.15 0864.57
2015 04 09 10 29 17 .86     -57     35    -18     68     71 301.5 -15.5  33660  281.15 0864.57
2015 04 09 10 29 18 .11     -56     39    -15     69     71 305.1 -12.4  33662  281.19 0864.57
2015 04 09 10 29 18 .36     -57     35    -18     68     71 301.5 -15.5  33660  281.15 0864.57
2015 04 09 10 29 18 .61     -57     35    -18     68     71 301.5 -15.5  33660  281.15 0864.56
2015 04 09 10 29 18 .87     -53     33    -21     63     67 302.5 -18.7  33662  281.19 0864.56
2015 04 09 10 29 19 .12     -49     35    -21     61     65 305.1 -19.7  33660  281.15 0864.56
2015 04 09 10 29 19 .37     -48     31    -20     58     62 302.5 -19.7  33658  281.14 0864.56
2015 04 09 10 29 19 .62     -48     25    -19     55     59 297.1 -19.7  33662  281.19 0864.56
2015 04 09 10 29 19 .87     -48     25    -19     55     59 297.1 -19.7  33662  281.19 0864.56
2015 04 09 10 29 20 .12     -46     28    -20     55     58 301.5 -23.3  33664  281.24 0864.56
2015 04 09 10 29 20 .37     -46     28    -20     55     58 301.5 -23.3  33664  281.24 0864.56
2015 04 09 10 29 20 .62     -46     32    -18     57     59 305.1 -22.8  33662  281.20 0864.56
2015 04 09 10 29 20 .87     -48     31    -20     58     62 302.5 -19.7  33662  281.19 0864.56
2015 04 09 10 29 21 .12     -45     28    -21     54     57 302.4 -25.4  33662  281.19 0864.56
2015 04 09 10 29 21 .37     -41     37    -16     56     58 312.2 -22.8  33662  281.19 0864.56
2015 04 09 10 29 21 .62     -42     28    -23     51     55 303.3 -30.6  33662  281.20 0864.56
2015 04 09 10 29 21 .87     -39     32    -18     51     55 309.5 -19.7  33660  281.15 0864.56
2015 04 09 10 29 22 .12     -41     37    -16     56     58 312.2 -22.8  33662  281.19 0864.56
2015 04 09 10 29 22 .38     -45     28    -18     54     58 302.4 -18.7  33660  281.15 0864.56
2015 04 09 10 29 22 .63     -48     31    -12     58     60 303.3 -12.4  33662  281.20 0864.56
2015 04 09 10 29 22 .88     -49     29    -15     57     60 300.7 -15.4  33662  281.19 0864.56
2015 04 09 10 29 23 .13     -48     31    -12     58     60 303.3 -12.4  33662  281.20 0864.56
2015 04 09 10 29 23 .38     -48     31    -12     58     60 303.3 -12.4  33662  281.20 0864.56
2015 04 09 10 29 23 .64     -48     31    -12     58     60 303.3 -12.4  33662  281.20 0864.56
2015 04 09 10 29 23 .89     -45     28     -9     54     55 302.4 -10.3  33662  281.19 0864.56
2015 04 09 10 29 24 .14     -44     28     -2     53     54 302.4  -2.2  33662  281.20 0864.56
2015 04 09 10 29 24 .39     -42     24     -6     49     50 300.7  -7.3  33662  281.20 0864.56
2015 04 09 10 29 24 .64     -51     20     -7     55     56 291.7  -7.3  33660  281.15 0864.56
2015 04 09 10 29 24 .89     -48     23    -14     54     56 296.2 -14.5  33660  281.15 0864.56
2015 04 09 10 29 25 .15     -42     21    -15     48     51 297.1 -17.6  33676  281.44 0864.56
2015 04 09 10 29 25 .40     -36     26     -1     45     46 306.0  -2.2  33702  281.85 0864.56
2015 04 09 10 29 25 .65     -24     44      5     51     52 331.0   5.9  33712  282.04 0864.56
2015 04 09 10 29 25 .89     -26     35      0     44     45 323.0  -0.3  33704  281.89 0864.56
2015 04 09 10 29 26 .15     -50     26     -7     57     58 298.0  -7.3  33672  281.37 0864.56
2015 04 09 10 29 26 .40     -30     19      1     36     37 302.4   2.9  33706  281.92 0864.56
2015 04 09 10 29 26 .65     -46     27      2     54     55 300.7   2.9  33710  282.00 0864.57
2015 04 09 10 29 26 .90     -24     27     -4     37     38 318.6  -7.3  33718  282.14 0864.57
2015 04 09 10 29 27 .15     -25     40      9     48     49 327.4  11.1  33706  281.94 0864.57
2015 04 09 10 29 27 .40     -43     39     -8     59     60 312.2  -8.2  33676  281.42 0864.57
2015 04 09 10 29 27 .66     -48     35    -16     60     63 306.0 -15.5  33684  281.55 0864.57
2015 04 09 10 29 27 .90     -43     27    -18     51     55 302.4 -19.7  33730  282.34 0864.57
2015 04 09 10 29 28 .15     -44     22    -13     50     52 297.1 -15.4  33694  281.74 0864.57
2015 04 09 10 29 28 .41     -50     24     -6     56     57 296.2  -6.2  33750  282.67 0864.57
2015 04 09 10 29 28 .65     -62      5     -9     63     64 275.2  -8.2  33726  282.26 0864.56
2015 04 09 10 29 28 .90     -69     11    -12     70     72 279.7 -10.3  33670  281.32 0864.56
2015 04 09 10 29 29 .16     -65      5     -8     66     67 274.4  -7.3  33670  281.32 0864.56
2015 04 09 10 29 29 .41     -62     12    -22     64     68 281.4 -19.7  33662  281.20 0864.56
2015 04 09 10 29 29 .66     -61     20    -10     65     66 288.2  -9.3  33662  281.19 0864.56
2015 04 09 10 29 29 .91     -66     17    -19     69     72 285.0 -15.5  33662  281.20 0864.56
2015 04 09 10 29 30 .16     -68     19    -19     71     74 285.9 -15.5  33664  281.24 0864.56
2015 04 09 10 29 30 .41     -67     25    -20     72     74 290.8 -20.7  33664  281.22 0864.57
2015 04 09 10 29 30 .66     -59     37     -9     70     71 302.4  -7.3  33664  281.24 0864.57
2015 04 09 10 29 30 .92     -71     40     -6     82     83 299.3  -4.6  33662  281.20 0864.57
2015 04 09 10 29 31 .17     -80     39    -11     90     91 296.2  -7.3  33668  281.29 0864.57
2015 04 09 10 29 31 .42     -72     48     -3     87     88 303.7  -2.2  33674  281.39 0864.57
2015 04 09 10 29 31 .68     -85     31    -10     91     92 290.4  -6.7  33666  281.25 0864.57
2015 04 09 10 29 31 .92     -87     28    -11     92     93 288.2  -7.3  33664  281.24 0864.57
2015 04 09 10 29 32 .18     -76     39     -6     86     87 297.5  -4.6  33704  281.90 0864.56
2015 04 09 10 29 32 .42     -65     30    -19     72     75 295.2 -15.4  33694  281.74 0864.56
2015 04 09 10 29 32 .68     -76     36    -10     85     86 295.3  -7.2  33694  281.74 0864.56
2015 04 09 10 29 32 .92     -53     49     -2     73     74 313.1  -2.2  33712  282.04 0864.56
2015 04 09 10 29 33 .17     -63     40    -12     75     77 302.4  -9.3  33686  281.60 0864.56
2015 04 09 10 29 33 .42     -71     40     -3     82     83 299.3  -2.2  33694  281.74 0864.56
2015 04 09 10 29 33 .67     -60     35     -2     70     71 300.7  -2.2  33682  281.52 0864.56
2015 04 09 10 29 33 .92     -35     35      3     50     51 315.0   3.8  33710  282.00 0864.56
2015 04 09 10 29 34 .17     -45     34    -17     57     60 307.8 -16.6  33682  281.52 0864.56
2015 04 09 10 29 34 .43     -48     31    -11     58     60 302.5 -11.3  33690  281.67 0864.56
2015 04 09 10 29 34 .68     -35     33      7     49     50 313.1   9.0  33710  282.00 0864.56
2015 04 09 10 29 34 .93     -35     24      6     43     44 305.1   9.0  33692  281.69 0864.57
2015 04 09 10 29 35 .17     -26     16      3     31     32 302.4   6.9  33698  281.80 0864.57
2015 04 09 10 29 35 .43     -27     23      3     36     37 311.3   4.9  33696  281.75 0864.57
2015 04 09 10 29 35 .68     -25     26     -1     37     38 316.8  -2.2  33692  281.70 0864.57
2015 04 09 10 29 35 .93     -37     24     -4     45     46 302.5  -5.2  33694  281.74 0864.57
2015 04 09 10 29 36 .19     -30     24     -6     39     40 309.5  -9.3  33684  281.57 0864.57
2015 04 09 10 29 36 .44     -35     35    -14     50     51 315.0 -20.7  33676  281.42 0864.57
2015 04 09 10 29 36 .69     -32     31     -5     45     46 314.1  -7.3  33682  281.52 0864.57
2015 04 09 10 29 36 .94     -31     24     -7     40     41 307.8 -10.3  33678  281.47 0864.57
2015 04 09 10 29 37 .19     -37     20     -7     43     44 298.9 -10.3  33672  281.35 0864.57
2015 04 09 10 29 37 .44     -29     24    -13     38     41 309.5 -19.7  33664  281.24 0864.57
2015 04 09 10 29 37 .69     -36     16    -16     40     43 294.4 -26.4  33668  281.29 0864.57
2015 04 09 10 29 37 .94     -34     16    -11     38     40 295.3 -16.6  33670  281.32 0864.57
2015 04 09 10 29 38 .19     -32     16     -6     36     37 297.1  -9.3  33666  281.25 0864.57
2015 04 09 10 29 38 .44     -19     12     -7     23     24 302.4 -23.8  33668  281.29 0864.57
2015 04 09 10 29 38 .70     -28     16     -1     33     34 300.7  -2.2  33674  281.40 0864.57
2015 04 09 10 29 38 .95     -23     16      1     29     30 304.2   2.8  33728  282.29 0864.57
2015 04 09 10 29 39 .19     -24     11     -1     27     28 295.3  -2.2  33712  282.04 0864.57
2015 04 09 10 29 39 .45     -15     15     -8     22     24 315.0 -19.7  33698  281.79 0864.57
2015 04 09 10 29 39 .69      -5     24     -1     25     26 346.6  -2.2  33702  281.85 0864.57
2015 04 09 10 29 39 .95      -6     19     -1     21     22 341.5  -3.1  33694  281.72 0864.57
2015 04 09 10 29 40 .20     -14     22     -1     27     28 327.5  -3.1  33690  281.67 0864.57
2015 04 09 10 29 40 .45     -20     20     -8     29     31 314.9 -15.5  33680  281.49 0864.57
2015 04 09 10 29 40 .70     -15     20     -3     26     27 322.2  -7.3  33670  281.34 0864.57
2015 04 09 10 29 40 .95     -24     20      0     32     33 309.6  -1.3  33674  281.39 0864.57
2015 04 09 10 29 41 .20     -12     27      0     30     31 334.7  -1.3  33676  281.44 0864.57
2015 04 09 10 29 41 .45     -21     24     -4     33     34 318.6  -7.3  33680  281.50 0864.58
2015 04 09 10 29 41 .70     -27     31    -10     42     44 319.5 -13.4  33670  281.34 0864.58
2015 04 09 10 29 41 .95     -32     25     -1     41     42 307.8  -2.2  33676  281.44 0864.58
2015 04 09 10 29 42 .20     -34     29     -9     45     46 310.4 -11.3  33670  281.34 0864.58
2015 04 09 10 29 42 .45     -36     25    -16     44     46 305.1 -24.4  33662  281.19 0864.58
2015 04 09 10 29 42 .70     -30     18    -18     36     40 300.7 -33.7  33666  281.27 0864.58
2015 04 09 10 29 42 .95     -25     26    -14     37     39 316.6 -23.3  33666  281.27 0864.58
2015 04 09 10 29 43 .22     -17     18    -31     25     39 316.6 -60.8  33682  281.52 0864.57
2015 04 09 10 29 43 .46     -30     19    -29     36     46 302.5 -47.1  33674  281.39 0864.57
2015 04 09 10 29 43 .71     -35     15    -23     39     45 293.5 -38.8  33672  281.37 0864.57
2015 04 09 10 29 43 .96     -27      9    -21     29     35 288.4 -44.1  33670  281.34 0864.57
2015 04 09 10 29 44 .22     -27     12    -24     30     38 295.4 -48.1  33672  281.37 0864.57
2015 04 09 10 29 44 .46     -25     21    -25     33     41 309.6 -46.1  33674  281.39 0864.57
2015 04 09 10 29 44 .72     -23     13    -24     27     36 298.9 -50.2  33676  281.44 0864.57
2015 04 09 10 29 44 .97     -25      5    -31     26     40 281.5 -59.8  33682  281.52 0864.57
2015 04 09 10 29 45 .22     -24      4    -24     25     34 281.5 -56.4  33692  281.69 0864.57
2015 04 09 10 29 45 .47     -14      9    -20     17     26 302.4 -58.7  33694  281.74 0864.57
2015 04 09 10 29 45 .72      -7      4    -20      9     21 302.4 -79.4  33688  281.64 0864.57
2015 04 09 10 29 45 .97     -15     12    -16     20     25 309.5 -48.1  33680  281.49 0864.57
2015 04 09 10 29 46 .22     -15     12    -16     20     25 309.5 -48.1  33676  281.44 0864.57
2015 04 09 10 29 46 .47     -16     12    -23     21     31 307.8 -56.6  33696  281.77 0864.57
2015 04 09 10 29 46 .72      -9     17    -22     20     29 331.0 -54.5  33702  281.87 0864.57
2015 04 09 10 29 46 .97      -8     12    -26     15     30 327.5 -71.2  33704  281.89 0864.57
2015 04 09 10 29 47 .22       5     18    -18     19     26  18.3 -54.4  33710  281.99 0864.57
2015 04 09 10 29 47 .47       5      8    -18     10     20  32.5 -73.2  33714  282.07 0864.57
2015 04 09 10 29 47 .72      10      9    -21     14     25  46.9 -69.0  33698  281.80 0864.56
2015 04 09 10 29 47 .98      12     16    -27     21     34  36.1 -60.8  33702  281.87 0864.56
2015 04 09 10 29 48 .23      -4     -3    -18      6     19 230.5 -85.4  33722  282.19 0864.56
2015 04 09 10 29 48 .47       0    -15    -18     16     24 179.1 -54.5  33706  281.92 0864.56
2015 04 09 10 29 48 .73      -9    -11    -29     15     32 219.6 -75.2  33698  281.80 0864.56
2015 04 09 10 29 48 .98     -17    -13    -24     22     32 232.2 -54.5  33708  281.95 0864.56
2015 04 09 10 29 49 .23       0      0    -20      1     20 350.3 -90.0  33708  281.95 0864.56
2015 04 09 10 29 49 .48       0      7    -26      8     27 355.5 -85.1  33704  281.89 0864.57
2015 04 09 10 29 49 .73      -1     13    -25     14     28 353.8 -73.2  33708  281.95 0864.57
2015 04 09 10 29 49 .98       1      4    -25      5     25  11.6 -90.0  33716  282.11 0864.57
2015 04 09 10 29 50 .24       2      7    -23      8     24  18.5 -85.4  33712  282.04 0864.57
2015 04 09 10 29 50 .49      -4     20    -29     21     35 348.4 -64.9  33702  281.85 0864.57
2015 04 09 10 29 50 .74       2     26    -29     27     39   4.5 -55.6  33694  281.74 0864.57
2015 04 09 10 29 50 .99       0     35    -27     36     45 359.1 -45.1  33690  281.67 0864.57
2015 04 09 10 29 51 .24       0     34    -21     35     40 359.1 -38.8  33684  281.55 0864.56
2015 04 09 10 29 51 .49     -10     32    -23     34     41 341.3 -42.0  33676  281.42 0864.56
2015 04 09 10 29 51 .75      -6     40    -17     41     44 350.2 -27.4  33684  281.55 0864.56
2015 04 09 10 29 52 .00     -13     40    -10     43     45 342.2 -13.4  33720  282.16 0864.56
2015 04 09 10 29 52 .25     -25     34     14     43     46 323.9  18.4  33750  282.67 0864.56
2015 04 09 10 29 52 .49     -19     23     -6     31     32 320.4 -11.3  33752  282.71 0864.56
2015 04 09 10 29 52 .74     -27     31    -14     42     44 319.5 -23.6  33668  281.30 0864.56
2015 04 09 10 29 52 .99     -27     32    -14     43     45 319.5 -23.8  33670  281.32 0864.56
2015 04 09 10 29 53 .25     -27     31    -10     42     44 319.5 -13.4  33676  281.44 0864.57
2015 04 09 10 29 53 .50     -25     21    -12     33     35 309.6 -23.3  33670  281.34 0864.57
2015 04 09 10 29 53 .75     -29     18    -11     35     37 302.5 -17.6  33676  281.42 0864.57
2015 04 09 10 29 54 .00     -27     17    -20     32     37 302.4 -39.9  33676  281.44 0864.57
2015 04 09 10 29 54 .25     -30     18    -12     36     37 300.7 -23.6  33674  281.39 0864.57
2015 04 09 10 29 54 .50     -17     18    -12     25     27 316.6 -31.6  33670  281.34 0864.57
2015 04 09 10 29 54 .75     -22     17    -10     29     30 307.8 -23.6  33672  281.37 0864.57
2015 04 09 10 29 55 .00     -25     16     -8     30     32 302.4 -15.5  33688  281.64 0864.57
2015 04 09 10 29 55 .25     -18     23     -1     30     31 322.2  -2.2  33714  282.05 0864.57
2015 04 09 10 29 55 .50     -26     32    -11     42     44 320.4 -14.5  33680  281.49 0864.57
2015 04 09 10 29 55 .75     -20     29    -14     36     38 325.7 -23.3  33672  281.35 0864.57
2015 04 09 10 29 56 .01     -22     22     -4     32     33 315.0  -7.3  33684  281.55 0864.57
2015 04 09 10 29 56 .25     -22     17     -3     28     29 307.8  -7.3  33676  281.44 0864.57
2015 04 09 10 29 56 .51     -21     29     -3     36     37 323.9  -5.2  33682  281.52 0864.57
2015 04 09 10 29 56 .76     -16     17     -6     24     25 316.6 -15.5  33708  281.97 0864.57
2015 04 09 10 29 57 .01     -18     17     -1     25     26 313.1  -2.2  33720  282.16 0864.57
2015 04 09 10 29 57 .27     -18     17     -1     25     26 313.1  -2.2  33722  282.21 0864.57
2015 04 09 10 29 57 .52     -12     16      0     21     22 322.2  -2.2  33708  281.97 0864.57
2015 04 09 10 29 57 .77     -14      4      1     15     16 288.6   6.9  33724  282.24 0864.57
2015 04 09 10 29 58 .02     -22      7      8     24     26 288.4  18.9  33736  282.42 0864.57
2015 04 09 10 29 58 .27     -17      9     13     20     23 297.1  35.5  33752  282.69 0864.57
2015 04 09 10 29 58 .52     -16      8      0     19     20 297.1  -2.2  33730  282.32 0864.57
2015 04 09 10 29 58 .76     -16      8      0     19     20 297.1  -2.2  33716  282.11 0864.57
2015 04 09 10 29 59 .02     -15      8      0     18     19 298.9  -2.2  33702  281.85 0864.57
2015 04 09 10 29 59 .28     -22     17     -3     28     29 307.8  -7.3  33708  281.95 0864.57
2015 04 09 10 29 59 .52     -22      8      1     24     25 290.0   2.9  33714  282.07 0864.57
2015 04 09 10 29 59 .77     -29     12     -4     32     33 293.5  -7.3  33680  281.49 0864.57
2015 04 09 10 30 00 .02     -19     12     -8     23     24 302.4 -23.6  33674  281.39 0864.57
2015 04 09 10 30 00 .27     -29      5    -16     30     34 281.5 -33.7  33678  281.45 0864.57
2015 04 09 10 30 00 .52     -32     16    -12     37     38 297.1 -23.8  33676  281.44 0864.57
2015 04 09 10 30 00 .77     -29     29     -4     42     43 314.9  -6.2  33670  281.34 0864.57
2015 04 09 10 30 01 .02     -29     29     -4     42     43 315.0  -6.2  33676  281.44 0864.57
2015 04 09 10 30 01 .28     -19     30    -10     36     38 327.4 -15.5  33686  281.59 0864.57
2015 04 09 10 30 01 .52     -23     23     -4     33     34 315.0  -7.3  33698  281.80 0864.57
2015 04 09 10 30 01 .77     -18     31     -9     37     39 329.3 -13.4  33688  281.62 0864.57
2015 04 09 10 30 02 .03     -15     35      0     39     40 336.4   0.8  33684  281.57 0864.57
2015 04 09 10 30 02 .28      -5     34     14     35     37 350.2  21.0  33758  282.79 0864.57
2015 04 09 10 30 02 .53      -4     26     21     27     34 350.2  43.7  33778  283.13 0864.57
2015 04 09 10 30 02 .78     -10      6     13     13     18 302.4  50.1  33782  283.19 0864.57
2015 04 09 10 30 03 .03     -25      5     14     26     29 283.3  31.4  33750  282.67 0864.57
2015 04 09 10 30 03 .28     -28      4     -3     29     30 279.7  -7.2  33722  282.21 0864.57
2015 04 09 10 30 03 .53     -23      0     -9     24     25 270.8 -23.3  33702  281.87 0864.57
2015 04 09 10 30 03 .78     -22      1    -16     23     28 274.4 -42.0  33696  281.75 0864.57
2015 04 09 10 30 04 .04     -28      4    -23     29     37 279.7 -48.1  33684  281.57 0864.57
2015 04 09 10 30 04 .29     -29     -1    -29     30     41 267.4 -54.4  33694  281.74 0864.57
2015 04 09 10 30 04 .54     -15     12    -23     20     30 309.5 -60.7  33702  281.87 0864.57
2015 04 09 10 30 04 .79     -16      9    -24     19     30 298.9 -60.8  33686  281.59 0864.57
2015 04 09 10 30 05 .04       0     34    -33     35     48 359.1 -54.4  33692  281.70 0864.57
2015 04 09 10 30 05 .30      -2     31    -29     32     43 355.6 -52.3  33692  281.69 0864.57
2015 04 09 10 30 05 .54     -19     12    -33     23     40 302.4 -65.9  33690  281.65 0864.57
2015 04 09 10 30 05 .79     -34     26    -34     43     54 307.8 -47.1  33674  281.40 0864.57
2015 04 09 10 30 06 .05     -40     23    -27     47     54 300.7 -37.9  33676  281.42 0864.57
2015 04 09 10 30 06 .30     -40     16    -27     44     51 291.7 -39.9  33676  281.42 0864.57
2015 04 09 10 30 06 .55     -35     15    -35     39     52 293.5 -51.3  33674  281.40 0864.57
2015 04 09 10 30 06 .80     -40     16    -47     44     64 291.7 -56.5  33676  281.44 0864.57
2015 04 09 10 30 07 .05     -48     21    -47     53     70 294.4 -51.3  33676  281.44 0864.57
2015 04 09 10 30 07 .30     -46     16    -44     49     65 290.0 -52.3  33678  281.47 0864.57
2015 04 09 10 30 07 .55     -38     27    -44     47     64 305.1 -52.4  33684  281.57 0864.57
2015 04 09 10 30 07 .80     -38     21    -38     44     58 298.9 -50.2  33682  281.54 0864.57
2015 04 09 10 30 08 .05     -47     21    -41     52     66 294.4 -47.1  33672  281.35 0864.57
2015 04 09 10 30 08 .30     -36     16    -43     40     58 294.4 -55.6  33682  281.54 0864.57
2015 04 09 10 30 08 .55     -27     17    -40     32     51 302.4 -60.8  33694  281.72 0864.57
2015 04 09 10 30 08 .80     -27      9    -40     29     49 288.4 -64.9  33700  281.82 0864.57
2015 04 09 10 30 09 .05     -15      1    -32     16     35 274.3 -77.2  33706  281.94 0864.57
2015 04 09 10 30 09 .31      -2      0    -29      3     29 251.6 -90.0  33720  282.16 0864.57
2015 04 09 10 30 09 .55      -2      4    -30      5     30 327.5 -90.0  33716  282.11 0864.57
2015 04 09 10 30 09 .80       5     21    -26     22     34  13.4 -58.7  33694  281.72 0864.57
2015 04 09 10 30 10 .05       0     26    -27     27     38 359.1 -54.5  33688  281.62 0864.57
2015 04 09 10 30 10 .30       2     44    -23     45     50   3.6 -33.7  33682  281.52 0864.58
2015 04 09 10 30 10 .56      -1     48    -29     49     56 358.2 -38.8  33674  281.39 0864.58
2015 04 09 10 30 10 .80      -3     34    -31     35     46 353.8 -51.3  33682  281.52 0864.58
2015 04 09 10 30 11 .06      -2     38    -29     39     48 355.6 -45.1  33674  281.39 0864.58
2015 04 09 10 30 11 .32      -9     31    -29     33     43 343.1 -51.3  33674  281.39 0864.58
2015 04 09 10 30 11 .57     -12     36    -32     39     50 341.5 -48.1  33668  281.30 0864.58
2015 04 09 10 30 11 .82     -10     25    -30     27     40 338.2 -57.7  33670  281.34 0864.58
2015 04 09 10 30 12 .07      17     30    -27     35     44  30.7 -47.1  33672  281.37 0864.58
2015 04 09 10 30 12 .32       9     29    -23     31     38  18.7 -46.1  33678  281.47 0864.57
2015 04 09 10 30 12 .57       8     21    -23     23     32  21.8 -54.5  33676  281.42 0864.57
2015 04 09 10 30 12 .82      -1     22    -18     23     29 357.3 -48.1  33682  281.52 0864.57
2015 04 09 10 30 13 .07       5     21    -14     22     26  13.4 -39.9  33676  281.42 0864.57
2015 04 09 10 30 13 .32       5     18    -12     19     22  18.3 -39.9  33674  281.39 0864.57
2015 04 09 10 30 13 .57      -1     27    -14     28     31 357.3 -31.7  33678  281.47 0864.57
2015 04 09 10 30 13 .82     -10     29    -11     31     32 340.0 -23.3  33678  281.45 0864.57
2015 04 09 10 30 14 .07      -6     25    -11     26     28 346.6 -25.4  33684  281.55 0864.58
2015 04 09 10 30 14 .32      -2     26     -8     27     28 355.6 -23.8  33680  281.49 0864.58
2015 04 09 10 30 14 .57      -7     21     -8     23     24 340.0 -23.6  33680  281.50 0864.58
2015 04 09 10 30 14 .83     -10     16    -10     20     22 327.5 -33.7  33684  281.57 0864.58
2015 04 09 10 30 15 .08      -1     18    -14     19     23 355.6 -46.1  33682  281.52 0864.58
2015 04 09 10 30 15 .33      -1     22    -18     23     29 357.3 -48.1  33688  281.62 0864.58
2015 04 09 10 30 15 .57       0     26    -20     27     33 359.1 -46.1  33686  281.60 0864.58
2015 04 09 10 30 15 .83       2     25    -23     26     34   6.2 -52.3  33684  281.57 0864.58
2015 04 09 10 30 16 .08       0     25    -25     26     36   0.9 -56.4  33682  281.54 0864.58
2015 04 09 10 30 16 .33       0     26    -20     27     33 359.1 -46.1  33686  281.60 0864.58
2015 04 09 10 30 16 .58      -1     22    -22     23     31 355.5 -54.4  33688  281.62 0864.58
2015 04 09 10 30 16 .83       0     19    -24     20     31   0.9 -60.7  33688  281.64 0864.58
2015 04 09 10 30 17 .08       0     30    -24     31     39 359.1 -48.1  33692  281.69 0864.58
2015 04 09 10 30 17 .33       2     27    -23     28     36   4.4 -48.1  33694  281.72 0864.58
2015 04 09 10 30 17 .58       4     20    -27     21     34  13.4 -60.8  33684  281.57 0864.57
2015 04 09 10 30 17 .84       0     21    -24     22     32 359.1 -54.5  33686  281.59 0864.57
2015 04 09 10 30 18 .09      -6     25    -24     26     35 346.6 -54.4  33686  281.60 0864.57
2015 04 09 10 30 18 .35      -7     21    -27     23     35 341.5 -60.7  33688  281.62 0864.57
2015 04 09 10 30 18 .60       0     26    -20     27     33 359.1 -46.1  33692  281.70 0864.57
2015 04 09 10 30 18 .84       2     26    -16     27     31   4.5 -37.9  33692  281.70 0864.57
2015 04 09 10 30 19 .09      -1     22    -18     23     29 357.3 -48.1  33690  281.67 0864.57
2015 04 09 10 30 19 .34       2     17    -16     18     24   8.0 -54.4  33688  281.64 0864.57
2015 04 09 10 30 19 .60      -1     13    -12     14     18 353.8 -56.4  33690  281.65 0864.57
2015 04 09 10 30 19 .85       6      7    -18     10     20  43.2 -73.2  33676  281.42 0864.57
2015 04 09 10 30 20 .10       7     17    -18     19     26  21.8 -54.4  33676  281.42 0864.57
2015 04 09 10 30 20 .35       7     17    -18     19     26  21.8 -54.4  33682  281.52 0864.57
2015 04 09 10 30 20 .60       4     12    -20     13     23  18.7 -69.1  33692  281.70 0864.57
2015 04 09 10 30 20 .85       4     12    -14     13     19  18.7 -52.6  33688  281.62 0864.57
2015 04 09 10 30 21 .10      -1     18    -14     19     23 355.6 -46.1  33688  281.62 0864.57
2015 04 09 10 30 21 .35       2     17    -16     18     24   8.0 -54.4  33696  281.75 0864.58
2015 04 09 10 30 21 .60       4     20    -14     21     25  13.4 -40.0  33678  281.47 0864.58
2015 04 09 10 30 21 .85       5     18    -12     19     22  18.3 -39.9  33680  281.49 0864.58
2015 04 09 10 30 22 .10       5     21    -14     22     26  13.4 -39.9  33676  281.42 0864.58
2015 04 09 10 30 22 .36       7     24    -19     26     32  16.9 -44.1  33678  281.47 0864.58
2015 04 09 10 30 22 .60      -1     22    -18     23     29 357.3 -48.1  33684  281.57 0864.58
2015 04 09 10 30 22 .85       0     30    -19     31     36 359.1 -39.9  33678  281.47 0864.58
2015 04 09 10 30 23 .10       8     24    -18     26     31  18.5 -42.0  33670  281.32 0864.57
2015 04 09 10 30 23 .35      10     24    -21     27     34  23.6 -48.1  33674  281.39 0864.57
2015 04 09 10 30 23 .60      12     20    -18     24     30  32.5 -46.1  33672  281.37 0864.57
2015 04 09 10 30 23 .85      12     24    -20     27     33  27.2 -46.1  33668  281.29 0864.57
2015 04 09 10 30 24 .10       9     21    -16     24     28  23.6 -40.0  33674  281.39 0864.57
2015 04 09 10 30 24 .36      14     21    -18     26     31  32.6 -42.0  33670  281.32 0864.57
2015 04 09 10 30 24 .61       9     21    -16     24     28  23.6 -40.0  33670  281.34 0864.57
2015 04 09 10 30 24 .87      14     21    -18     26     31  32.6 -42.0  33670  281.32 0864.57
2015 04 09 10 30 25 .12      17     21    -20     28     34  39.6 -42.0  33668  281.29 0864.57
2015 04 09 10 30 25 .37      14     28    -18     32     36  27.2 -37.9  33670  281.32 0864.57
2015 04 09 10 30 25 .62      16     26    -10     31     32  32.5 -23.8  33666  281.27 0864.57
2015 04 09 10 30 25 .87      22     22     -9     32     33  45.1 -21.7  33664  281.22 0864.57
2015 04 09 10 30 26 .12      21     26    -12     34     36  39.6 -23.3  33668  281.29 0864.57
2015 04 09 10 30 26 .37      19     23     -8     31     33  39.7 -15.4  33666  281.25 0864.57
2015 04 09 10 30 26 .62      22     22     -9     32     33  45.1 -21.7  33664  281.22 0864.57
2015 04 09 10 30 26 .87      23     23     -9     33     35  45.0 -15.5  33664  281.24 0864.57
2015 04 09 10 30 27 .12      18     20     -8     28     29  41.4 -23.8  33664  281.24 0864.57
2015 04 09 10 30 27 .37      23     28    -10     37     38  39.6 -21.7  33666  281.27 0864.57
2015 04 09 10 30 27 .62      23     28    -10     37     38  39.6 -21.7  33666  281.27 0864.57
2015 04 09 10 30 27 .87      21     26    -12     34     36  39.6 -23.3  33668  281.29 0864.57
2015 04 09 10 30 28 .12      16     26    -10     31     32  32.5 -23.8  33668  281.30 0864.57
2015 04 09 10 30 28 .37      18     20     -8     28     29  41.4 -23.8  33668  281.29 0864.57
2015 04 09 10 30 28 .62      18     20     -8     28     29  41.4 -23.8  33668  281.29 0864.57
2015 04 09 10 30 28 .88      16     16     -9     24     25  45.0 -23.3  33666  281.25 0864.57
2015 04 09 10 30 29 .13      16     26    -10     31     32  32.5 -23.8  33668  281.30 0864.57
2015 04 09 10 30 29 .38      11     17    -15     21     25  34.3 -44.1  33672  281.37 0864.57
2015 04 09 10 30 29 .63       4     12    -21     13     24  18.3 -69.1  33680  281.49 0864.57
2015 04 09 10 30 29 .88      12     16    -14     21     25  37.8 -40.0  33676  281.42 0864.57
2015 04 09 10 30 30 .13      13     14    -12     20     23  43.4 -37.9  33670  281.34 0864.57
2015 04 09 10 30 30 .38      13     13     -6     19     20  45.0 -17.6  33672  281.37 0864.57
2015 04 09 10 30 30 .63       8     13     -9     16     18  32.6 -35.8  33684  281.57 0864.57
2015 04 09 10 30 30 .88       4     12     -8     13     15  18.7 -39.9  33696  281.75 0864.57
2015 04 09 10 30 31 .13      -1     13    -12     14     18 353.8 -56.4  33686  281.60 0864.57
2015 04 09 10 30 31 .38       6      1     -5      7      8  78.5 -48.1  33678  281.47 0864.57
2015 04 09 10 30 31 .64       3      4      0      6      7  39.6  -2.2  33688  281.62 0864.57
2015 04 09 10 30 31 .89      -1     12      0     13     14 353.8  -2.2  33696  281.75 0864.57
2015 04 09 10 30 32 .15       3     20      3     21     22   9.8   9.0  33692  281.70 0864.57
2015 04 09 10 30 32 .39       8     24     -1     26     27  18.7  -2.2  33670  281.34 0864.57
2015 04 09 10 30 32 .64      16     16      2     23     24  45.0   4.9  33670  281.32 0864.57
2015 04 09 10 30 32 .90      12     12      0     18     19  45.0  -2.2  33668  281.29 0864.57
2015 04 09 10 30 33 .15       8     12     -3     15     16  32.6 -11.3  33670  281.34 0864.58
2015 04 09 10 30 33 .40      12     12      0     18     19  45.0  -2.2  33668  281.29 0864.58
2015 04 09 10 30 33 .65       4     12      0     13     14  21.8  -2.2  33666  281.27 0864.58
2015 04 09 10 30 33 .90       5     18     -5     19     19  18.3 -23.8  33666  281.25 0864.58
2015 04 09 10 30 34 .15       8     21    -10     23     25  21.8 -27.4  33668  281.30 0864.58
2015 04 09 10 30 34 .40      12     24    -14     27     30  27.2 -33.7  33666  281.25 0864.58
2015 04 09 10 30 34 .65       8     25    -18     27     32  18.7 -40.0  33668  281.30 0864.58
2015 04 09 10 30 34 .90      11     34    -20     36     41  18.3 -35.8  33670  281.34 0864.57
2015 04 09 10 30 35 .15      18     29    -19     35     39  32.6 -35.8  33668  281.29 0864.57
2015 04 09 10 30 35 .40      12     25    -14     28     31  25.4 -31.7  33668  281.30 0864.57
2015 04 09 10 30 35 .65      18     29    -14     35     37  32.6 -25.4  33668  281.30 0864.57
2015 04 09 10 30 35 .90      16     25    -22     30     37  32.6 -44.1  33670  281.32 0864.57
2015 04 09 10 30 36 .15      21     25    -24     33     40  39.7 -44.1  33670  281.34 0864.57
2015 04 09 10 30 36 .40      21     21    -23     30     37  45.1 -46.1  33672  281.37 0864.57
2015 04 09 10 30 36 .67      27     23    -18     36     40  48.7 -33.7  33670  281.32 0864.57
2015 04 09 10 30 36 .91      24     16    -20     30     36  55.8 -40.0  33668  281.29 0864.58
2015 04 09 10 30 37 .16      27     23    -18     36     40  48.7 -33.7  33670  281.32 0864.58
2015 04 09 10 30 37 .40      23     23    -16     33     36  45.0 -31.6  33668  281.29 0864.58
2015 04 09 10 30 37 .66      27     22    -11     35     36  50.5 -23.8  33668  281.29 0864.58
2015 04 09 10 30 37 .91      27     24    -11     37     39  48.7 -17.6  33666  281.25 0864.58
2015 04 09 10 30 38 .16      27     24    -11     37     39  48.7 -17.6  33666  281.25 0864.58
2015 04 09 10 30 38 .41      31     12    -13     34     36  68.3 -23.3  33670  281.32 0864.58
2015 04 09 10 30 38 .66      27     12    -11     30     31  64.7 -23.3  33668  281.29 0864.57
2015 04 09 10 30 38 .92      27     17     -9     33     34  57.6 -21.7  33668  281.30 0864.57
2015 04 09 10 30 39 .17      32     16     -6     36     37  62.9  -9.3  33666  281.27 0864.57
2015 04 09 10 30 39 .42      32     16     -6     36     37  62.9  -9.3  33666  281.27 0864.57
2015 04 09 10 30 39 .67      32     16     -6     36     37  62.9  -9.3  33666  281.27 0864.57
2015 04 09 10 30 39 .92      33     25     -1     42     43  52.2  -2.2  33664  281.24 0864.57
2015 04 09 10 30 40 .17      34     20      1     40     41  58.5   1.8  33666  281.25 0864.57
2015 04 09 10 30 40 .42      34     20      1     40     41  58.5   1.8  33666  281.25 0864.57
2015 04 09 10 30 40 .67      34     20      1     40     41  58.5   1.8  33666  281.25 0864.57
2015 04 09 10 30 40 .92      38     21      0     44     45  61.1  -0.3  33664  281.24 0864.57
2015 04 09 10 30 41 .18      43     19     -1     48     49  65.6  -2.2  33662  281.20 0864.57
2015 04 09 10 30 41 .42      49     20     -6     54     55  67.4  -7.2  33664  281.24 0864.57
2015 04 09 10 30 41 .68      48     29     -6     57     58  58.5  -6.2  33664  281.24 0864.57
2015 04 09 10 30 41 .93      51     24    -10     57     58  64.6 -10.3  33664  281.24 0864.57
2015 04 09 10 30 42 .18      40     16      2     44     45  68.3   2.8  33666  281.25 0864.57
2015 04 09 10 30 42 .43      40     16      2     44     45  68.3   2.8  33666  281.25 0864.58
2015 04 09 10 30 42 .68      40     16      2     44     45  68.3   2.8  33666  281.25 0864.58
2015 04 09 10 30 42 .93      42     20      2     47     48  63.8   2.9  33668  281.29 0864.58
2015 04 09 10 30 43 .18      37     24      2     45     46  56.7   2.9  33670  281.34 0864.58
2015 04 09 10 30 43 .43      40     16      0     44     45  68.3   0.8  33676  281.42 0864.58
2015 04 09 10 30 43 .68      44     13      3     46     47  73.2   3.8  33680  281.49 0864.58
2015 04 09 10 30 43 .93      43      4      2     44     45  83.9   3.8  33696  281.75 0864.58
2015 04 09 10 30 44 .18      38     12      5     41     42  71.6   8.0  33700  281.82 0864.57
2015 04 09 10 30 44 .44      43      8     22     44     49  78.5  27.3  33726  282.27 0864.57
2015 04 09 10 30 44 .68      38      2     24     39     45  85.7  35.5  33728  282.29 0864.57
2015 04 09 10 30 44 .94      33      1     20     34     39  87.4  33.5  33736  282.44 0864.57
2015 04 09 10 30 45 .69      31     12     18     34     38  68.3  29.3  33724  282.22 0864.57
2015 04 09 10 30 45 .95      32     11     24     35     42  70.0  37.6  33722  282.19 0864.57
2015 04 09 10 30 46 .20      27     22     20     36     41  50.5  31.4  33730  282.34 0864.57
2015 04 09 10 30 46 .45      22     22     22     32     38  45.1  37.6  33720  282.17 0864.57
2015 04 09 10 30 46 .70      31     21     11     38     40  55.8  16.3  33696  281.77 0864.57
2015 04 09 10 30 46 .95      47     15     -6     50     51  71.8  -7.3  33678  281.47 0864.57
2015 04 09 10 30 47 .20      48     13      1     50     51  74.9   1.8  33670  281.32 0864.57
2015 04 09 10 30 47 .45      42     13     -2     45     46  72.3  -3.1  33666  281.25 0864.57
2015 04 09 10 30 47 .70      46     10     -7     48     49  77.6  -8.2  33662  281.20 0864.57
2015 04 09 10 30 47 .95      36     10     -1     38     39  73.2  -2.2  33662  281.20 0864.57
2015 04 09 10 30 48 .20      36      2    -10     37     39  85.7 -15.5  33664  281.24 0864.57
2015 04 09 10 30 48 .45      33      0     -4     34     35  89.1  -7.3  33664  281.24 0864.57
2015 04 09 10 30 48 .70      32      9      6     34     35  73.2  11.1  33666  281.25 0864.57
2015 04 09 10 30 48 .95      34      3      9     35     37  83.9  15.3  33668  281.29 0864.57
2015 04 09 10 30 49 .21      32      0      6     33     34  89.2  11.1  33670  281.32 0864.57
2015 04 09 10 30 49 .45      34      3      9     35     37  83.9  15.3  33668  281.29 0864.57
2015 04 09 10 30 49 .70      39      5      0     40     41  82.1  -1.3  33664  281.24 0864.57
2015 04 09 10 30 49 .95      36     -3     -1     37     38  96.1  -2.2  33662  281.20 0864.57
2015 04 09 10 30 50 .20      34     -8     -4     35     36 103.3  -7.2  33664  281.24 0864.57
2015 04 09 10 30 50 .46      41     -3      1     42     43  94.4   1.8  33666  281.25 0864.57
2015 04 09 10 30 50 .71      52     -3     17     53     56  94.3  18.4  33668  281.30 0864.57
2015 04 09 10 30 50 .96      49    -11     11     51     53 103.3  12.2  33666  281.27 0864.57
2015 04 09 10 30 51 .21      48     -8      9     49     50  99.7  11.1  33668  281.29 0864.57
2015 04 09 10 30 51 .46      53     -7      5     54     55  97.9   5.9  33670  281.32 0864.57
2015 04 09 10 30 51 .71      42     -7     -1     43     44 100.6  -2.2  33670  281.32 0864.57
2015 04 09 10 30 51 .96      46     -3     -1     47     48  94.4  -2.2  33668  281.29 0864.57
2015 04 09 10 30 52 .21      46      2     -6     47     48  87.4  -7.3  33662  281.20 0864.57
2015 04 09 10 30 52 .46      46     -3    -16     47     50  94.4 -18.7  33664  281.24 0864.56
2015 04 09 10 30 52 .72      46    -13     -7     48     49 105.9  -9.3  33666  281.25 0864.56
2015 04 09 10 30 52 .97      43     -3    -16     44     46  95.2 -24.4  33668  281.29 0864.56
2015 04 09 10 30 53 .22      38     -2    -21     39     44  94.4 -35.8  33664  281.24 0864.56
2015 04 09 10 30 53 .47      43      1    -23     44     49  87.4 -33.7  33660  281.17 0864.56
2015 04 09 10 30 53 .72      30      4    -14     31     34  82.1 -29.5  33666  281.25 0864.56
2015 04 09 10 30 53 .97      27      0    -17     28     32  90.0 -39.9  33668  281.30 0864.56
2015 04 09 10 30 54 .23      21    -13    -18     25     30 122.4 -44.1  33672  281.37 0864.56
2015 04 09 10 30 54 .48      13    -17    -18     22     28 142.2 -50.2  33676  281.42 0864.56
2015 04 09 10 30 54 .72      13    -16    -12     21     24 140.4 -35.8  33686  281.60 0864.56
2015 04 09 10 30 54 .98      11    -18    -14     22     26 149.3 -39.9  33682  281.52 0864.56
2015 04 09 10 30 55 .23      10    -20     -7     23     24 152.8 -23.8  33682  281.54 0864.56
2015 04 09 10 30 55 .48       6    -16     -3     18     19 158.2 -11.3  33682  281.54 0864.56
2015 04 09 10 30 55 .73       6    -16     -3     18     19 158.2 -11.3  33686  281.59 0864.56
2015 04 09 10 30 55 .98      15    -12     -4     20     21 129.5 -11.3  33682  281.54 0864.55
2015 04 09 10 30 56 .23      12     -8      0     15     16 122.4  -2.2  33686  281.59 0864.55
2015 04 09 10 30 56 .48      14    -12      1     19     20 129.5   2.9  33684  281.57 0864.55
2015 04 09 10 30 56 .73      14    -12      1     19     20 129.5   2.9  33680  281.50 0864.55
2015 04 09 10 30 56 .98      26    -13     -1     30     31 117.1  -3.1  33688  281.62 0864.56
2015 04 09 10 30 57 .23      16    -16      0     24     25 134.9  -2.2  33678  281.47 0864.56
2015 04 09 10 30 57 .48      16    -16     -7     24     25 134.9 -21.7  33674  281.39 0864.56
2015 04 09 10 30 57 .74      40    -20     -2     45     46 117.1  -3.1  33674  281.40 0864.56
2015 04 09 10 30 57 .98      35    -32     -5     48     49 132.2  -6.2  33676  281.44 0864.56
2015 04 09 10 30 58 .24      25    -23     -5     35     36 133.1  -9.3  33678  281.47 0864.56
2015 04 09 10 30 58 .49      24    -20     -1     32     33 129.6  -3.1  33684  281.57 0864.56
2015 04 09 10 30 58 .74      29    -14     -4     33     34 115.2  -7.3  33686  281.59 0864.56
2015 04 09 10 30 58 .99      15    -12      2     20     21 129.5   6.9  33694  281.72 0864.56
2015 04 09 10 30 59 .24      11     -1      0     12     13  97.9  -2.2  33670  281.34 0864.56
2015 04 09 10 30 59 .49      17     -5      0     18     19 108.6  -2.2  33682  281.54 0864.56
2015 04 09 10 30 59 .75       3    -12      9     13     15 164.9  35.6  33714  282.05 0864.56
2015 04 09 10 31 00 .00       0     -3     18      4     18 189.7  84.9  33742  282.52 0864.56
2015 04 09 10 31 00 .25      11     -5     24     13     27 115.3  68.8  33730  282.34 0864.56
2015 04 09 10 31 00 .50      15     -4     28     16     32 105.1  66.8  33724  282.24 0864.56
2015 04 09 10 31 00 .75      20      1     27     21     34  85.6  56.4  33698  281.80 0864.56
2015 04 09 10 31 01 .00      27      5     27     28     38  78.5  52.0  33698  281.80 0864.56
2015 04 09 10 31 01 .25      16     -1     24     17     29  94.3  62.6  33702  281.87 0864.56
2015 04 09 10 31 01 .50      22      0     29     23     37  90.8  56.4  33710  281.99 0864.56
2015 04 09 10 31 01 .76      24      1     32     25     40  85.6  58.5  33754  282.74 0864.56
2015 04 09 10 31 02 .00      19      8     40     21     45  66.5  69.8  33766  282.94 0864.56
2015 04 09 10 31 02 .25      22     14     22     27     34  57.6  43.8  33742  282.52 0864.56
2015 04 09 10 31 02 .51      18      5     25     19     31  71.8  56.4  33736  282.44 0864.56
2015 04 09 10 31 02 .76      18      0     46     19     49  90.0  77.1  33794  283.40 0864.56
2015 04 09 10 31 03 .00      25      1     45     26     51  85.6  67.7  33794  283.41 0864.56
2015 04 09 10 31 03 .25      27    -14     38     31     49 117.1  56.4  33772  283.03 0864.55
2015 04 09 10 31 03 .51      15     -4     35     16     38 105.1  75.0  33760  282.84 0864.55
2015 04 09 10 31 03 .76      29      9     49     31     57  71.6  64.7  33764  282.89 0864.55
2015 04 09 10 31 04 .01      49      6     55     50     74  83.0  52.2  33728  282.31 0864.55
2015 04 09 10 31 04 .26      54      0     46     55     71  90.0  43.8  33718  282.14 0864.55
2015 04 09 10 31 04 .51      43      1     23     44     49  87.4  29.3  33708  281.95 0864.55
2015 04 09 10 31 04 .76      41      2     14     42     45  86.5  19.2  33696  281.77 0864.55
2015 04 09 10 31 05 .01      35      9     11     37     39  74.9  17.3  33688  281.62 0864.55
2015 04 09 10 31 05 .26      35      4     16     36     39  82.1  25.1  33696  281.77 0864.55
2015 04 09 10 31 05 .52      51     12      6     53     54  75.8   6.9  33700  281.82 0864.55
2015 04 09 10 31 05 .76      37     10     24     39     45  74.9  35.5  33718  282.14 0864.55
2015 04 09 10 31 06 .01      48     31    -11     58     60  57.5 -11.3  33680  281.49 0864.55
2015 04 09 10 31 06 .27      59     56    -15     82     84  46.9 -10.9  33690  281.65 0864.55
2015 04 09 10 31 06 .52      84     21      8     87     88  75.8   5.4  33690  281.67 0864.55
2015 04 09 10 31 06 .77      67     21    -16     71     73  72.3 -13.4  33680  281.49 0864.55
2015 04 09 10 31 07 .02      62      8    -22     63     67  82.1 -19.7  33678  281.47 0864.55
2015 04 09 10 31 07 .28      56     19    -16     60     63  70.9 -15.5  33684  281.57 0864.55
2015 04 09 10 31 07 .53      50     21    -23     55     59  67.4 -27.5  33688  281.62 0864.55
2015 04 09 10 31 07 .78      40     12     -6     42     43  72.3  -9.3  33700  281.82 0864.55
2015 04 09 10 31 08 .03      41      9      1     42     43  77.6   1.8  33694  281.72 0864.55
2015 04 09 10 31 08 .28      57      4      2     58     59  85.6   2.9  33702  281.85 0864.55
2015 04 09 10 31 08 .53      49     13      8     51     52  74.9   9.0  33714  282.07 0864.55
2015 04 09 10 31 08 .78      43      0      2     44     45  90.8   3.8  33692  281.69 0864.55
2015 04 09 10 31 09 .03      40     -4      8     41     42  97.0  11.1  33692  281.70 0864.55
2015 04 09 10 31 09 .28      43      0     10     44     46  90.0  13.2  33690  281.67 0864.55
2015 04 09 10 31 09 .53      40     -4      8     41     42  97.0  11.1  33696  281.75 0864.55
2015 04 09 10 31 09 .78      42     -7     11     43     45 100.6  14.3  33694  281.72 0864.55
2015 04 09 10 31 10 .04      50    -12     10     52     54 104.2  11.1  33702  281.87 0864.55
2015 04 09 10 31 10 .28      43      0     10     44     46  90.0  13.2  33706  281.92 0864.55
2015 04 09 10 31 10 .53      43      0     10     44     46  90.0  13.2  33710  281.99 0864.55
2015 04 09 10 31 10 .79      42      0     11     43     45  90.0  14.3  33728  282.29 0864.55
2015 04 09 10 31 11 .04      41     -4      7     42     43  96.1  10.1  33748  282.62 0864.55
2015 04 09 10 31 11 .28      32      0     17     33     37  90.8  29.3  33760  282.84 0864.55
2015 04 09 10 31 11 .53      35     -1     23     36     42  92.6  35.5  33744  282.57 0864.55
2015 04 09 10 31 11 .79      38      2     31     39     49  85.7  43.7  33764  282.89 0864.55
2015 04 09 10 31 12 .04      38     24     38     46     59  57.5  43.7  33786  283.28 0864.55
2015 04 09 10 31 12 .29      31     26     36     41     54  50.4  46.9  33800  283.51 0864.55
2015 04 09 10 31 12 .54      33     18     40     38     55  61.1  50.1  33804  283.56 0864.55
2015 04 09 10 31 12 .79      14     21     33     26     42  32.6  57.5  33830  284.02 0864.55
2015 04 09 10 31 13 .04      18      8     33     21     39  64.7  64.7  33820  283.85 0864.55
2015 04 09 10 31 13 .29      45      0     44     46     63  90.0  50.0  33776  283.09 0864.56
2015 04 09 10 31 13 .55      36      0     41     37     55  90.0  53.3  33780  283.18 0864.56
2015 04 09 10 31 13 .81      31      2     48     32     57  85.6  64.6  33830  284.00 0864.56
2015 04 09 10 31 14 .05      41      0     47     42     63  90.0  52.2  33798  283.48 0864.56
2015 04 09 10 31 14 .30      33     10     53     35     63  73.2  63.6  33800  283.51 0864.56
2015 04 09 10 31 14 .55      52     33     38     62     72  57.5  35.5  33806  283.60 0864.56
2015 04 09 10 31 14 .81      48      9     40     49     63  79.4  43.7  33806  283.61 0864.56
2015 04 09 10 31 15 .06      34     27     46     44     63  51.4  50.1  33820  283.85 0864.56
2015 04 09 10 31 15 .30      24     16     51     30     59  55.8  65.7  33802  283.55 0864.56
2015 04 09 10 31 15 .55      31     30     38     44     58  46.0  45.8  33768  282.96 0864.56
2015 04 09 10 31 15 .81      32     41     35     53     63  37.8  36.5  33762  282.88 0864.56
2015 04 09 10 31 16 .06      29     27     33     40     51  46.7  43.7  33768  282.98 0864.56
2015 04 09 10 31 16 .30      35     13     35     38     51  70.0  47.9  33760  282.84 0864.56
2015 04 09 10 31 16 .56      84     13     46     85     96  81.2  30.8  33724  282.24 0864.56
2015 04 09 10 31 16 .81      54     14     73     56     92  74.9  58.5  33746  282.61 0864.56
2015 04 09 10 31 17 .06      47     26     52     54     74  61.1  51.1  33716  282.11 0864.56
2015 04 09 10 31 17 .31      59     20     24     63     67  70.9  21.0  33712  282.04 0864.56
2015 04 09 10 31 17 .56      59      4     20     60     64  85.6  18.9  33696  281.75 0864.56
2015 04 09 10 31 17 .81      57      0      2     58     59  90.8   2.9  33698  281.80 0864.55
2015 04 09 10 31 18 .06      41      4     20     42     46  83.9  27.2  33700  281.82 0864.55
2015 04 09 10 31 18 .31      38     16     31     42     52  66.5  40.7  33702  281.85 0864.55
2015 04 09 10 31 18 .56      47     32     26     58     63  55.8  25.1  33702  281.85 0864.56
2015 04 09 10 31 18 .81      76     45     35     89     95  59.3  22.5  33702  281.85 0864.56
2015 04 09 10 31 19 .07      73     36      7     82     83  63.8   5.4  33704  281.89 0864.56
2015 04 09 10 31 19 .31      67     57     -3     89     90  49.6  -2.2  33698  281.79 0864.56
2015 04 09 10 31 19 .56      74     44    -13     87     89  59.3  -8.8  33678  281.47 0864.56
2015 04 09 10 31 19 .81      62     28    -42     69     80  65.6 -38.4  33670  281.34 0864.56
2015 04 09 10 31 20 .06      58     28    -40     65     76  63.8 -39.9  33676  281.42 0864.56
2015 04 09 10 31 20 .31      55     45    -25     72     76  50.5 -23.3  33676  281.44 0864.56
2015 04 09 10 31 20 .58      59     47    -34     76     83  51.4 -30.1  33678  281.45 0864.56
2015 04 09 10 31 20 .83      69     57    -20     90     93  50.5 -12.9  33680  281.49 0864.56
2015 04 09 10 31 21 .08      70     45     -4     84     85  57.6  -3.1  33682  281.52 0864.56
2015 04 09 10 31 21 .33      70     45     17     84     86  57.6  11.6  33686  281.59 0864.56
2015 04 09 10 31 21 .58      72     34      2     80     81  64.6   1.8  33682  281.54 0864.56
2015 04 09 10 31 21 .83      73     39      4     84     85  61.6   2.9  33684  281.57 0864.56
2015 04 09 10 31 22 .08      82     39      5     92     93  64.2   3.3  33680  281.50 0864.56
2015 04 09 10 31 22 .33      76     35      0     84     85  65.2   0.2  33682  281.52 0864.56
2015 04 09 10 31 22 .58      63     31      3     71     72  63.8   2.9  33680  281.49 0864.56
2015 04 09 10 31 22 .83      67     29     20     74     77  66.5  15.3  33684  281.57 0864.56
2015 04 09 10 31 23 .08      69     34      9     78     79  63.8   6.9  33678  281.47 0864.56
2015 04 09 10 31 23 .33      61     20     -5     65     66  71.8  -5.2  33670  281.34 0864.56
2015 04 09 10 31 23 .58      60     19    -13     64     66  71.8 -11.5  33668  281.30 0864.56
2015 04 09 10 31 23 .83      50      8     -2     51     52  80.3  -2.2  33672  281.37 0864.56
2015 04 09 10 31 24 .08      35     11      1     37     38  71.8   2.8  33674  281.40 0864.56
2015 04 09 10 31 24 .33      30     12      0     33     34  68.3  -1.2  33676  281.42 0864.56
2015 04 09 10 31 24 .59      36      9      4     38     39  74.9   5.9  33670  281.34 0864.56
2015 04 09 10 31 24 .83      36      9     -2     38     39  74.9  -3.1  33672  281.37 0864.56
2015 04 09 10 31 25 .09      48     16    -31     51     59  70.9 -38.8  33672  281.35 0864.56
2015 04 09 10 31 25 .34      38     24    -26     46     52  57.5 -36.8  33672  281.35 0864.56
2015 04 09 10 31 25 .59      42     25    -16     49     51  59.3 -23.8  33670  281.34 0864.56
2015 04 09 10 31 25 .84      59     32     -2     68     69  61.1  -2.2  33670  281.34 0864.56
2015 04 09 10 31 26 .09      67     44     12     81     82  56.7   8.5  33674  281.39 0864.56
2015 04 09 10 31 26 .34      77     53     14     94     96  55.4   8.5  33672  281.37 0864.56
2015 04 09 10 31 26 .59      59     19     16     63     66  71.8  14.3  33672  281.37 0864.56
2015 04 09 10 31 26 .84      57     20     31     61     68  70.0  28.2  33680  281.49 0864.55
2015 04 09 10 31 27 .09      49     13     35     51     61  74.9  38.6  33694  281.74 0864.55
2015 04 09 10 31 27 .34      42     16     28     46     53  68.3  35.5  33694  281.72 0864.55
2015 04 09 10 31 27 .60      46      4     31     47     56  83.9  35.6  33692  281.70 0864.55
2015 04 09 10 31 27 .85      63      4     29     64     70  85.6  27.1  33684  281.57 0864.55
2015 04 09 10 31 28 .10      61     12     30     63     69  78.5  27.2  33684  281.55 0864.55
2015 04 09 10 31 28 .35      61     14     22     63     67  76.7  19.2  33682  281.54 0864.55
2015 04 09 10 31 28 .60      74      9     27     75     79  83.0  20.4  33680  281.49 0864.56
2015 04 09 10 31 28 .85      68     13     26     70     74  78.6  20.0  33676  281.44 0864.56
2015 04 09 10 31 29 .11      58     15     21     61     65  74.9  19.4  33678  281.47 0864.56
2015 04 09 10 31 29 .35      54     13     20     56     59  75.8  20.0  33682  281.52 0864.56
2015 04 09 10 31 29 .61      54      8      7     55     56  81.2   8.0  33674  281.39 0864.56
2015 04 09 10 31 29 .86      52     13     11     54     56  75.8  12.2  33674  281.39 0864.56
2015 04 09 10 31 30 .11      60     12     16     62     65  78.5  14.3  33676  281.42 0864.56
2015 04 09 10 31 30 .36      62      8     18     63     66  82.0  16.3  33676  281.44 0864.56
2015 04 09 10 31 30 .61      62      0     18     63     66  89.2  16.3  33674  281.39 0864.56
2015 04 09 10 31 30 .86      70      5     16     71     73  85.6  13.2  33674  281.39 0864.56
2015 04 09 10 31 31 .12      48     16     18     51     55  71.6  19.2  33698  281.80 0864.56
2015 04 09 10 31 31 .36      45     25     20     52     55  61.1  21.0  33688  281.62 0864.56
2015 04 09 10 31 31 .61      60     24     33     65     72  67.4  28.2  33706  281.92 0864.56
2015 04 09 10 31 31 .86      64     25     31     69     75  68.3  27.1  33708  281.95 0864.56
2015 04 09 10 31 32 .11      58     27     31     65     72  64.6  27.2  33704  281.90 0864.56
2015 04 09 10 31 32 .37      50     25     25     57     62  62.9  25.1  33708  281.97 0864.56
2015 04 09 10 31 32 .61      61     12     16     63     66  78.5  14.3  33736  282.44 0864.56
2015 04 09 10 31 32 .86      55      8      5     56     57  81.2   5.9  33704  281.90 0864.56
2015 04 09 10 31 33 .11      57     13      2     59     60  76.7   2.8  33676  281.44 0864.56
2015 04 09 10 31 33 .36      65     17      3     68     69  74.9   2.8  33670  281.34 0864.56
2015 04 09 10 31 33 .61      67     22      3     71     72  71.4   2.9  33672  281.37 0864.56
2015 04 09 10 31 33 .86      70     17      0     73     74  75.8  -0.3  33668  281.30 0864.56
2015 04 09 10 31 34 .11      69     24     -6     74     75  70.9  -5.2  33670  281.34 0864.56
2015 04 09 10 31 34 .38      55     31     -5     64     65  60.2  -5.2  33670  281.34 0864.56
2015 04 09 10 31 34 .63      56     -4     28     57     63  94.3  27.3  33682  281.52 0864.56
2015 04 09 10 31 34 .88      49      3     17     50     53  85.7  19.2  33710  282.00 0864.56
2015 04 09 10 31 35 .13      44     28     10     53     55  57.6  11.1  33700  281.82 0864.56
2015 04 09 10 31 35 .39      51     49      8     71     72  46.0   7.1  33706  281.94 0864.56
2015 04 09 10 31 35 .63      48     41     22     64     68  49.6  19.4  33724  282.24 0864.56
2015 04 09 10 31 35 .88      57     25     36     63     72  66.5  31.4  33720  282.16 0864.56
2015 04 09 10 31 36 .13      48     29     35     57     66  58.5  35.5  33714  282.07 0864.56
2015 04 09 10 31 36 .38      46     46     37     66     75  45.0  31.4  33702  281.87 0864.56
2015 04 09 10 31 36 .63      67     31     14     75     77  64.8  11.0  33678  281.47 0864.56
2015 04 09 10 31 36 .88      80     44      4     92     93  61.1   2.8  33672  281.35 0864.56
2015 04 09 10 31 37 .13      82     39      5     92     93  64.2   3.3  33670  281.34 0864.56
2015 04 09 10 31 37 .38      80     25     15     85     87  72.3  10.1  33676  281.42 0864.56
2015 04 09 10 31 37 .64      80     21      4     83     84  74.9   2.9  33672  281.35 0864.56
2015 04 09 10 31 37 .89      75     33     -2     83     84  66.0  -1.8  33682  281.54 0864.56
2015 04 09 10 31 38 .14      61     29     13     68     70  64.7  11.1  33700  281.84 0864.56
2015 04 09 10 31 38 .38      57     27     31     64     71  64.7  27.3  33704  281.90 0864.56
2015 04 09 10 31 38 .63      51     42     37     67     76  50.5  31.4  33696  281.77 0864.56
2015 04 09 10 31 38 .89      51     21     13     56     58  67.4  13.2  33696  281.75 0864.56
2015 04 09 10 31 39 .14      49     20      0     54     55  67.4  -0.3  33706  281.92 0864.56
2015 04 09 10 31 39 .39      50      8     -2     51     52  80.3  -2.2  33694  281.72 0864.56
2015 04 09 10 31 39 .64      60      8     -7     61     62  82.0  -7.2  33706  281.94 0864.56
2015 04 09 10 31 39 .89      38     12     -8     41     42  71.6 -11.3  33700  281.82 0864.56
2015 04 09 10 31 40 .14      45     13     -2     47     48  73.2  -3.1  33678  281.47 0864.56
2015 04 09 10 31 40 .39      46      2     -6     47     48  87.4  -7.3  33676  281.42 0864.56
2015 04 09 10 31 40 .64      46      8     -1     47     48  79.4  -2.2  33674  281.40 0864.56
2015 04 09 10 31 40 .89      52     13     11     54     56  75.8  12.2  33674  281.39 0864.56
2015 04 09 10 31 41 .14      53     21     11     58     60  68.3  11.1  33676  281.44 0864.56
2015 04 09 10 31 41 .40      54     13     20     56     59  75.8  20.0  33674  281.40 0864.56
2015 04 09 10 31 41 .66      47     12     17     49     52  74.9  19.4  33678  281.47 0864.56
2015 04 09 10 31 41 .90      49     16     17     52     55  71.8  18.9  33680  281.49 0864.56
2015 04 09 10 31 42 .15      47     22     17     53     56  64.8  18.4  33678  281.47 0864.56
2015 04 09 10 31 42 .41      48     15     20     51     54  71.8  21.0  33682  281.52 0864.56
2015 04 09 10 31 42 .66      45      8     12     46     48  79.4  15.3  33682  281.54 0864.56
2015 04 09 10 31 42 .91      44      0      2     45     46  90.0   2.9  33682  281.54 0864.56
2015 04 09 10 31 43 .16      37      2      4     38     39  85.7   5.9  33682  281.54 0864.56
2015 04 09 10 31 43 .41      37     16      3     41     42  66.5   4.9  33682  281.54 0864.56
2015 04 09 10 31 43 .66      36     15      4     40     41  66.5   5.9  33680  281.49 0864.56
2015 04 09 10 31 43 .91      48     13      7     50     51  74.9   8.0  33680  281.49 0864.56
2015 04 09 10 31 44 .16      38     12      5     41     42  71.6   8.0  33678  281.47 0864.56
2015 04 09 10 31 44 .41      40     12     -1     42     43  72.3  -2.2  33682  281.54 0864.56
2015 04 09 10 31 44 .66      45     24     -6     52     53  62.0  -7.3  33684  281.57 0864.56
2015 04 09 10 31 44 .91      48     27      7     56     57  60.2   8.0  33686  281.60 0864.56
2015 04 09 10 31 45 .16      42     19    -10     47     49  65.6 -12.4  33682  281.54 0864.56
2015 04 09 10 31 45 .41      57     19     -2     61     62  71.8  -2.2  33682  281.52 0864.56
2015 04 09 10 31 45 .66      40     37      3     55     56  46.9   3.8  33682  281.52 0864.56
2015 04 09 10 31 45 .91      40     28      5     49     50  54.9   5.9  33678  281.47 0864.56
2015 04 09 10 31 46 .16      46     22      5     52     53  63.8   5.9  33678  281.47 0864.56
2015 04 09 10 31 46 .41      39     20      5     44     45  62.9   6.9  33682  281.52 0864.56
2015 04 09 10 31 46 .66      44     19      2     49     50  66.5   2.9  33684  281.55 0864.56
2015 04 09 10 31 46 .92      44     28      2     53     54  57.6   2.9  33686  281.60 0864.56
2015 04 09 10 31 47 .16      44     20      9     49     50  65.6  11.1  33692  281.69 0864.56
2015 04 09 10 31 47 .42      47     15     -1     50     51  71.8  -1.3  33698  281.80 0864.56
2015 04 09 10 31 47 .67      48     13      7     50     51  74.9   8.0  33702  281.85 0864.56
2015 04 09 10 31 47 .92      40     38     27     56     62  46.9  27.2  33738  282.47 0864.56
2015 04 09 10 31 48 .17      28     55     27     62     67  27.2  24.1  33760  282.83 0864.56
2015 04 09 10 31 48 .43      28     55     27     62     67  27.2  24.1  33776  283.11 0864.56
2015 04 09 10 31 48 .68      24     59     32     64     71  22.7  27.3  33770  282.99 0864.56
2015 04 09 10 31 48 .94      10     64     22     65     69   8.9  18.9  33778  283.14 0864.56
2015 04 09 10 31 49 .18       5     65     32     66     73   4.5  27.3  33792  283.36 0864.56
2015 04 09 10 31 49 .44       6     52     27     53     59   7.1  29.3  33782  283.21 0864.56
2015 04 09 10 31 49 .68       5     59     32     60     68   5.3  31.3  33780  283.16 0864.56
2015 04 09 10 31 49 .93      15     63     26     65     70  13.4  23.0  33770  282.99 0864.56
2015 04 09 10 31 50 .18       5     47     32     48     57   6.2  35.6  33758  282.79 0864.56
2015 04 09 10 31 50 .43       4     38     24     39     45   6.2  35.5  33750  282.66 0864.56
2015 04 09 10 31 50 .68       8     34     27     35     44  13.4  42.7  33738  282.47 0864.56
2015 04 09 10 31 50 .93      -1     48     29     49     56 358.2  34.4  33746  282.59 0864.56
2015 04 09 10 31 51 .18      -7     46     31     47     56 350.2  35.6  33732  282.37 0864.56
2015 04 09 10 31 51 .44     -12     44     20     46     50 344.9  26.2  33724  282.24 0864.56
2015 04 09 10 31 51 .68     -12     44      5     46     47 344.0   6.9  33722  282.19 0864.56
2015 04 09 10 31 51 .94     -16     36     -4     40     41 336.4  -6.2  33744  282.57 0864.56
2015 04 09 10 31 52 .19     -39     25     -8     47     48 302.4 -10.3  33748  282.62 0864.56
2015 04 09 10 31 52 .45     -33     10     -9     35     37 288.2 -15.4  33762  282.88 0864.56
2015 04 09 10 31 52 .69     -33     33     53     47     70 315.0  53.3  33790  283.34 0864.56
2015 04 09 10 31 52 .94     -36     25     42     44     60 305.1  49.0  33794  283.40 0864.56
2015 04 09 10 31 53 .19      -6     29     44     30     53 348.4  62.6  33782  283.19 0864.56
2015 04 09 10 31 53 .44      20     32     33     39     51  32.5  44.8  33758  282.81 0864.56
2015 04 09 10 31 53 .69      25     41     31     49     57  31.6  35.5  33760  282.83 0864.56
2015 04 09 10 31 53 .95      19     42     33     47     57  24.5  38.6  33764  282.91 0864.56
2015 04 09 10 31 54 .19      16     50     22     53     57  18.5  23.0  33782  283.21 0864.56
2015 04 09 10 31 54 .44      16     50     23     53     57  18.3  25.1  33786  283.26 0864.56
2015 04 09 10 31 54 .70      -1     56     23     57     61 358.2  23.0  33794  283.41 0864.56
2015 04 09 10 31 54 .94     -11     60     14     62     64 349.3  13.2  33776  283.09 0864.55
2015 04 09 10 31 55 .21     -10     68     20     69     72 351.1  16.3  33774  283.08 0864.55
2015 04 09 10 31 55 .46      -9     65     23     66     70 352.0  19.2  33794  283.41 0864.55
2015 04 09 10 31 55 .71     -13     69     34     71     78 349.3  27.2  33796  283.43 0864.55
2015 04 09 10 31 55 .96      -9     67     30     68     74 352.0  25.1  33792  283.38 0864.55
2015 04 09 10 31 56 .21     -27     65     32     71     77 337.3  26.2  33798  283.46 0864.55
2015 04 09 10 31 56 .46      -4     60     41     61     73 355.5  36.5  33804  283.56 0864.55
2015 04 09 10 31 56 .70       4     63     24     64     68   4.4  20.0  33784  283.24 0864.55
2015 04 09 10 31 56 .96      12     59     19     61     64  11.5  17.3  33784  283.24 0864.55
2015 04 09 10 31 57 .22      16     42     23     46     51  20.9  27.3  33794  283.40 0864.55
2015 04 09 10 31 57 .46     -21     20     38     30     48 313.3  57.5  33812  283.70 0864.55
2015 04 09 10 31 57 .71     -18     41     41     45     60 336.4  47.9  33820  283.83 0864.56
2015 04 09 10 31 57 .96      -8     45     40     46     60 349.3  45.8  33824  283.90 0864.56
2015 04 09 10 31 58 .22       0     30     34     31     46 359.1  52.2  33830  284.00 0864.56
2015 04 09 10 31 58 .46       0     49     40     50     64 359.1  43.7  33796  283.45 0864.56
2015 04 09 10 31 58 .71     -23     49      1     55     56 334.5   1.8  33788  283.31 0864.56
2015 04 09 10 31 58 .97     -46     32    -18     57     59 305.1 -22.8  33774  283.08 0864.56
2015 04 09 10 31 59 .21     -32     32     -6     46     47 315.0  -8.2  33752  282.71 0864.56
2015 04 09 10 31 59 .47     -17     47      7     51     52 340.0   8.0  33730  282.34 0864.56
2015 04 09 10 31 59 .72      -9     65      8     66     67 352.0   6.9  33730  282.32 0864.56
2015 04 09 10 31 59 .97     -21     49     28     54     60 336.4  30.3  33778  283.14 0864.56
2015 04 09 10 32 00 .23      -7     46     31     47     56 350.2  35.6  33776  283.09 0864.56
2015 04 09 10 32 00 .47      -5     42     33     43     54 352.0  41.7  33840  284.17 0864.56
2015 04 09 10 32 00 .72     -20     45     24     50     55 336.4  27.3  33802  283.53 0864.56
2015 04 09 10 32 00 .97     -11     35     13     37     40 341.3  19.2  33800  283.51 0864.56
2015 04 09 10 32 01 .22       2     52     17     53     56   2.7  18.4  33796  283.43 0864.56
2015 04 09 10 32 01 .47     -35     49      7     61     62 323.9   6.9  33782  283.19 0864.56
2015 04 09 10 32 01 .72     -27     34     25     44     50 322.2  32.4  33796  283.43 0864.56
2015 04 09 10 32 01 .97     -31     28     16     42     44 312.2  21.0  33814  283.75 0864.56
2015 04 09 10 32 02 .23     -24     24     23     34     41 315.0  37.6  33832  284.03 0864.56
2015 04 09 10 32 02 .48     -15     12      9     20     21 309.5  25.1  33836  284.10 0864.56
2015 04 09 10 32 02 .74     -27     24     25     37     44 311.3  36.5  33842  284.22 0864.56
2015 04 09 10 32 02 .99     -14     65     32     67     74 347.5  27.1  33878  284.82 0864.56
2015 04 09 10 32 03 .23     -24    108     32    111    116 347.1  16.3  33890  285.01 0864.56
2015 04 09 10 32 03 .49     -27    101     33    105    111 344.8  17.3  33870  284.67 0864.56
2015 04 09 10 32 03 .73     -39     73     14     83     85 331.9   9.5  33854  284.42 0864.56
2015 04 09 10 32 03 .99     -28     59     -1     66     67 334.7  -1.3  33828  283.97 0864.56
2015 04 09 10 32 04 .24      23     61      0     66     67  20.9   0.8  33850  284.34 0864.56
2015 04 09 10 32 04 .49      16     84     30     86     92  11.1  19.2  33868  284.64 0864.56
2015 04 09 10 32 04 .74       2     88     36     89     96   1.8  23.0  33882  284.87 0864.56
2015 04 09 10 32 04 .99       3     95     35     96    102   2.2  20.4  33868  284.65 0864.56
2015 04 09 10 32 05 .24     -18    113     27    115    119 350.7  13.1  33792  283.36 0864.56
2015 04 09 10 32 05 .49     -21    117      6    119    120 349.8   3.3  33772  283.03 0864.56
2015 04 09 10 32 05 .74      -8     93     -7     94     95 354.7  -4.6  33804  283.56 0864.56
2015 04 09 10 32 05 .99     -10     78     19     79     82 352.0  13.7  33820  283.85 0864.57
2015 04 09 10 32 06 .24      17     65     14     68     70  15.1  12.2  33820  283.85 0864.57
2015 04 09 10 32 06 .49      14     70     22     72     76  11.6  17.3  33820  283.85 0864.57
2015 04 09 10 32 06 .74       0     57      7     58     59   0.9   7.1  33826  283.93 0864.57
2015 04 09 10 32 06 .99      -1     70     11     71     72 359.1   9.0  33824  283.92 0864.57
2015 04 09 10 32 07 .25     -12     67     20     69     72 349.3  16.3  33870  284.69 0864.57
2015 04 09 10 32 07 .49      -9     88     30     89     95 353.8  18.9  33892  285.04 0864.57
2015 04 09 10 32 07 .74     -10     93     36     94    100 353.8  22.5  33882  284.87 0864.57
2015 04 09 10 32 07 .99     -14     82     38     84     92 349.8  26.2  33862  284.54 0864.57
2015 04 09 10 32 08 .24     -15     82     38     84     92 349.3  26.2  33820  283.85 0864.57
2015 04 09 10 32 08 .50     -16     87     49     89    101 349.3  31.4  33832  284.03 0864.57
2015 04 09 10 32 08 .75     -15    108     37    110    117 351.9  18.9  33820  283.83 0864.57
2015 04 09 10 32 09 .00      -9    125     47    126    134 355.5  20.9  33816  283.76 0864.57
2015 04 09 10 32 09 .25      -8    102     49    103    114 355.1  27.3  33828  283.98 0864.57
2015 04 09 10 32 09 .51      -9     91     28     92     97 354.2  17.3  33812  283.70 0864.57
2015 04 09 10 32 09 .76     -10     77     27     78     83 351.9  19.2  33800  283.51 0864.57
2015 04 09 10 32 10 .01     -27     82     45     87     97 341.7  29.3  33828  283.98 0864.57
2015 04 09 10 32 10 .26     -23    106     13    109    110 347.5   7.1  33762  282.86 0864.57
2015 04 09 10 32 10 .51     -71    105    -19    127    129 325.8  -8.8  33736  282.44 0864.57
2015 04 09 10 32 10 .77     -36    140      7    145    146 345.3   2.9  33758  282.81 0864.57
2015 04 09 10 32 11 .02     -42    136      7    143    144 342.6   2.9  33734  282.39 0864.57
2015 04 09 10 32 11 .26     -59    135    -18    148    150 336.3  -7.2  33698  281.80 0864.57
2015 04 09 10 32 11 .52     -80    108    -17    135    137 323.5  -7.3  33704  281.90 0864.57
2015 04 09 10 32 11 .77     -87    105    -30    137    141 320.4 -12.4  33696  281.77 0864.57
2015 04 09 10 32 12 .01     -98    115    -30    152    156 319.5 -11.3  33684  281.57 0864.57
2015 04 09 10 32 12 .26     -95    124    -51    157    166 322.6 -17.9  33680  281.49 0864.56
2015 04 09 10 32 12 .51     -92    121    -54    153    163 322.6 -19.7  33680  281.49 0864.56
2015 04 09 10 32 12 .77     -93    128    -48    159    167 323.9 -16.8  33680  281.50 0864.56
2015 04 09 10 32 13 .02     -97    131    -44    164    170 323.5 -15.2  33692  281.70 0864.56
2015 04 09 10 32 13 .27     -98    100    -47    141    149 315.5 -18.7  33702  281.87 0864.56
2015 04 09 10 32 13 .52    -107    136    -48    174    181 321.7 -15.5  33694  281.72 0864.56
2015 04 09 10 32 13 .77    -118    111    -30    163    166 313.1 -10.5  33694  281.74 0864.56
2015 04 09 10 32 14 .02    -115    108    -44    158    165 313.1 -15.8  33704  281.90 0864.56
2015 04 09 10 32 14 .27     -96    107    -50    145    154 318.1 -19.1  33702  281.85 0864.56
2015 04 09 10 32 14 .52     -92    104    -38    139    145 318.5 -15.5  33698  281.80 0864.56
2015 04 09 10 32 14 .77     -94    107    -50    143    152 318.5 -19.6  33692  281.70 0864.56
2015 04 09 10 32 15 .02     -88    121    -41    150    156 323.9 -15.5  33678  281.47 0864.56
2015 04 09 10 32 15 .27     -75    120    -18    142    144 327.9  -7.3  33676  281.44 0864.56
2015 04 09 10 32 15 .52     -77    108    -36    133    138 324.4 -15.4  33678  281.47 0864.56
2015 04 09 10 32 15 .77     -67    102    -33    123    128 326.6 -15.4  33680  281.50 0864.56
2015 04 09 10 32 16 .02     -51     96    -30    109    114 331.9 -15.5  33678  281.47 0864.56
2015 04 09 10 32 16 .28     -40    123     -5    130    131 341.7  -2.2  33682  281.54 0864.56
2015 04 09 10 32 16 .54     -27    135     13    138    139 348.4   5.4  33690  281.65 0864.56
2015 04 09 10 32 16 .79     -40    123     18    130    132 341.7   8.0  33688  281.62 0864.56
2015 04 09 10 32 17 .04     -23    112      5    115    116 348.4   2.8  33686  281.60 0864.56
2015 04 09 10 32 17 .28     -36    108      2    114    115 341.5   1.2  33686  281.59 0864.56
2015 04 09 10 32 17 .54     -34    103     -6    109    110 341.3  -3.2  33686  281.59 0864.56
2015 04 09 10 32 17 .79     -64     88    -22    110    113 323.9 -11.5  33698  281.80 0864.56
2015 04 09 10 32 18 .04     -55     82    -12     99    100 326.2  -7.2  33736  282.42 0864.56
2015 04 09 10 32 18 .29     -45     77      6     90     91 329.7   4.4  33760  282.84 0864.56
2015 04 09 10 32 18 .54     -32     80     12     87     88 338.2   8.0  33780  283.16 0864.56
2015 04 09 10 32 18 .79     -73     73      5    104    105 315.0   2.8  33796  283.43 0864.56
2015 04 09 10 32 19 .04     -74     68    -18    101    103 312.7 -10.3  33728  282.29 0864.56
2015 04 09 10 32 19 .29     -95     83    -16    127    129 310.9  -7.2  33700  281.82 0864.56
2015 04 09 10 32 19 .54     -89     91    -30    128    132 315.5 -13.3  33698  281.80 0864.56
2015 04 09 10 32 19 .79     -53     84    -18    100    102 327.5 -10.3  33720  282.16 0864.56
2015 04 09 10 32 20 .04     -63    116     -7    132    133 331.5  -3.1  33700  281.82 0864.56
2015 04 09 10 32 20 .30     -46    127    -32    136    140 340.0 -13.4  33698  281.80 0864.56
2015 04 09 10 32 20 .54     -66    129    -29    145    148 332.9 -11.5  33690  281.67 0864.55
2015 04 09 10 32 20 .79     -70    111    -36    132    137 327.5 -15.4  33676  281.42 0864.55
2015 04 09 10 32 21 .05     -54    122    -45    134    142 335.9 -18.7  33676  281.44 0864.55
2015 04 09 10 32 21 .29     -48    107    -28    118    122 335.9 -13.4  33676  281.44 0864.56
2015 04 09 10 32 21 .55     -45     87    -24     99    103 332.4 -13.9  33688  281.62 0864.56
2015 04 09 10 32 21 .82     -43     92    -30    102    107 335.1 -16.6  33684  281.57 0864.56
2015 04 09 10 32 22 .05     -46    104    -32    115    120 335.9 -15.5  33692  281.69 0864.56
2015 04 09 10 32 22 .30     -47    123     -5    132    133 339.1  -2.2  33700  281.84 0864.56
2015 04 09 10 32 22 .55     -56    118    -31    131    135 334.6 -13.4  33694  281.74 0864.56
2015 04 09 10 32 22 .80     -62    108    -36    125    131 330.1 -16.0  33690  281.67 0864.56
2015 04 09 10 32 23 .06     -77    102    -35    128    133 323.0 -15.5  33690  281.67 0864.56
2015 04 09 10 32 23 .31     -65    121    -17    138    140 331.5  -7.2  33696  281.77 0864.56
2015 04 09 10 32 23 .56     -58    123     -7    137    138 334.7  -3.2  33696  281.75 0864.56
2015 04 09 10 32 23 .81     -56    120    -18    133    135 335.1  -7.7  33710  281.99 0864.56
2015 04 09 10 32 24 .06     -59    108    -22    124    127 331.1 -10.3  33708  281.95 0864.56
2015 04 09 10 32 24 .31     -53    118    -26    130    133 335.5 -11.3  33694  281.74 0864.56
2015 04 09 10 32 24 .56     -53    122     -5    134    135 336.4  -2.2  33680  281.50 0864.56
2015 04 09 10 32 24 .82     -52    121    -21    132    134 336.8  -9.4  33696  281.75 0864.56
2015 04 09 10 32 25 .07     -51    108    -19    120    122 334.7  -9.3  33690  281.67 0864.56
2015 04 09 10 32 25 .31     -57    105    -19    120    122 331.1  -9.4  33688  281.62 0864.56
2015 04 09 10 32 25 .56     -62    101    -28    119    123 328.4 -13.3  33664  281.24 0864.56
2015 04 09 10 32 25 .81     -66    113    -31    131    135 329.7 -13.4  33666  281.25 0864.56
2015 04 09 10 32 26 .06     -51    108    -18    120    122 334.5  -8.8  33670  281.34 0864.56
2015 04 09 10 32 26 .32     -65    102     -6    122    123 327.5  -3.1  33676  281.44 0864.56
2015 04 09 10 32 26 .57     -58     91     -2    109    110 327.5  -1.3  33684  281.57 0864.56
2015 04 09 10 32 26 .82     -67     84    -15    108    110 321.3  -8.2  33708  281.95 0864.56
2015 04 09 10 32 27 .07     -67     74      4    101    102 317.7   2.3  33712  282.04 0864.56
2015 04 09 10 32 27 .32     -40    104     -4    112    113 338.6  -2.2  33684  281.55 0864.56
2015 04 09 10 32 27 .57     -48    119     -7    129    130 338.1  -3.2  33674  281.39 0864.56
2015 04 09 10 32 27 .82     -53    117    -16    129    131 335.5  -7.3  33676  281.44 0864.56
2015 04 09 10 32 28 .07     -65    121    -22    138    140 331.9  -9.4  33674  281.39 0864.56
2015 04 09 10 32 28 .33     -71    112    -34    133    138 327.4 -14.5  33682  281.52 0864.56
2015 04 09 10 32 28 .57     -69    121    -21    140    142 330.1  -8.8  33694  281.74 0864.56
2015 04 09 10 32 28 .82     -77    121    -24    144    147 327.5  -9.8  33690  281.67 0864.56
2015 04 09 10 32 29 .08     -70    118    -32    138    142 329.3 -13.4  33692  281.69 0864.56
2015 04 09 10 32 29 .32     -69    125    -24    144    147 331.0  -9.8  33706  281.92 0864.56
2015 04 09 10 32 29 .57     -70    110    -20    131    133 327.5  -8.8  33706  281.94 0864.56
2015 04 09 10 32 29 .82     -78    108    -27    134    137 324.4 -11.5  33692  281.70 0864.56
2015 04 09 10 32 30 .09     -69     96    -28    119    123 324.0 -13.4  33696  281.75 0864.56
2015 04 09 10 32 30 .34     -76     75     -4    107    108 314.6  -2.2  33716  282.09 0864.56
2015 04 09 10 32 30 .59     -56     89    -29    106    110 327.5 -15.4  33710  282.00 0864.56
2015 04 09 10 32 30 .84     -52     87     -6    102    103 329.3  -3.7  33714  282.05 0864.56
2015 04 09 10 32 31 .09     -43     99    -14    109    110 336.4  -7.3  33706  281.92 0864.56
2015 04 09 10 32 31 .34     -43     92    -13    102    103 334.6  -7.3  33712  282.04 0864.56
2015 04 09 10 32 31 .59     -43     92     -6    102    103 334.7  -3.7  33730  282.32 0864.55
2015 04 09 10 32 31 .84     -43     92     -6    102    103 334.7  -3.7  33718  282.12 0864.55
2015 04 09 10 32 32 .10     -52     81    -12     97     98 327.5  -7.3  33730  282.34 0864.55
2015 04 09 10 32 32 .34     -44     78    -12     90     91 330.6  -7.7  33734  282.39 0864.55
2015 04 09 10 32 32 .60     -57     58     -5     82     83 315.9  -4.1  33738  282.47 0864.55
2015 04 09 10 32 32 .85     -42     51      8     67     68 320.4   6.9  33770  282.99 0864.55
2015 04 09 10 32 33 .10     -36     56      8     67     68 327.4   6.9  33782  283.19 0864.55
2015 04 09 10 32 33 .35     -44     60      0     75     76 323.9  -0.3  33786  283.28 0864.55
2015 04 09 10 32 33 .60     -25     45     -6     52     53 330.1  -7.3  33790  283.33 0864.55
2015 04 09 10 32 33 .84     -14     47     11     50     52 343.1  13.2  33806  283.60 0864.55
2015 04 09 10 32 34 .09     -24     52      6     58     59 334.7   5.9  33758  282.81 0864.55
2015 04 09 10 32 34 .35     -40     73      2     84     85 331.0   1.8  33750  282.67 0864.55
2015 04 09 10 32 34 .60     -49     76    -11     91     92 327.4  -7.3  33748  282.62 0864.55
2015 04 09 10 32 34 .85     -39     99      5    107    108 338.2   2.8  33752  282.71 0864.55
2015 04 09 10 32 35 .10     -48     76      3     91     92 327.5   2.3  33764  282.89 0864.55
2015 04 09 10 32 35 .35     -30    100     13    105    106 343.1   7.1  33730  282.34 0864.55
2015 04 09 10 32 35 .60     -35    108      1    114    115 341.7   0.8  33732  282.37 0864.55
2015 04 09 10 32 35 .86     -32     50     16     60     63 327.4  15.3  33772  283.04 0864.55
2015 04 09 10 32 36 .10     -13     88     23     90     94 351.1  14.7  33744  282.56 0864.55
2015 04 09 10 32 36 .35     -30     80     -2     86     87 339.1  -1.8  33744  282.57 0864.55
2015 04 09 10 32 36 .60     -51     80     -6     95     96 327.5  -3.7  33754  282.74 0864.55
2015 04 09 10 32 36 .85     -37     79     -1     88     89 335.1  -1.3  33728  282.29 0864.55
2015 04 09 10 32 37 .11     -50     71    -12     88     89 324.8  -8.2  33744  282.56 0864.55
2015 04 09 10 32 37 .36     -75     59    -12     96     97 308.2  -7.2  33738  282.47 0864.55
2015 04 09 10 32 37 .61     -42     89    -19     99    101 334.5 -11.3  33688  281.62 0864.55
2015 04 09 10 32 37 .86     -31     88    -33     94    100 340.4 -19.7  33670  281.34 0864.55
2015 04 09 10 32 38 .11     -22     92    -34     95    101 346.6 -19.7  33676  281.42 0864.55
2015 04 09 10 32 38 .36     -20     92    -33     95    100 347.5 -23.8  33678  281.45 0864.55
2015 04 09 10 32 38 .61     -29     73    -28     79     84 338.2 -19.7  33680  281.49 0864.55
2015 04 09 10 32 38 .87     -34     72    -24     80     83 334.7 -22.3  33680  281.49 0864.55
2015 04 09 10 32 39 .12     -46     64    -24     80     84 324.0 -17.0  33696  281.77 0864.55
2015 04 09 10 32 39 .37     -35     53     -8     64     65 326.6  -7.3  33702  281.85 0864.55
2015 04 09 10 32 39 .62      -8     41     16     42     44 348.4  21.0  33724  282.24 0864.55
2015 04 09 10 32 39 .87      -4     50     -2     51     52 354.7  -2.2  33698  281.79 0864.55
2015 04 09 10 32 40 .11      -1     43    -20     44     48 357.4 -29.5  33692  281.70 0864.55
2015 04 09 10 32 40 .37      -5     58    -24     59     63 354.7 -27.4  33686  281.60 0864.55
2015 04 09 10 32 40 .62     -27     52    -17     59     61 331.9 -20.7  33680  281.50 0864.55
2015 04 09 10 32 40 .87     -24     52     -7     58     59 334.7  -7.3  33682  281.52 0864.55
2015 04 09 10 32 41 .13     -30     50      0     59     60 329.3  -0.3  33694  281.72 0864.55
2015 04 09 10 32 41 .37     -37     51     -8     64     65 324.0  -7.3  33692  281.69 0864.55
2015 04 09 10 32 41 .62     -28     48     -3     56     57 329.3  -3.1  33688  281.62 0864.55
2015 04 09 10 32 41 .87     -24     35     -7     43     44 325.7 -10.3  33688  281.62 0864.55
2015 04 09 10 32 42 .12     -35     29    -14     46     48 310.4 -23.8  33678  281.47 0864.55
2015 04 09 10 32 42 .37     -27     24    -14     37     39 311.3 -23.3  33676  281.42 0864.55
2015 04 09 10 32 42 .62     -23     23     -9     33     34 315.0 -21.7  33682  281.52 0864.55
2015 04 09 10 32 42 .87     -28     20     -4     35     36 306.0  -7.2  33684  281.55 0864.55
2015 04 09 10 32 43 .13     -24     20     -7     32     33 309.6 -13.4  33688  281.62 0864.55
2015 04 09 10 32 43 .37     -21     19     -3     29     30 313.3  -7.2  33684  281.57 0864.55
2015 04 09 10 32 43 .63     -21     21     -1     30     31 315.0  -3.1  33684  281.57 0864.55
2015 04 09 10 32 43 .89     -16     29      1     34     35 331.0   2.8  33688  281.62 0864.55
2015 04 09 10 32 44 .14      -2     30     10     31     33 355.5  19.4  33714  282.05 0864.55
2015 04 09 10 32 44 .38       0     33     12     34     37 359.1  19.2  33710  281.99 0864.55
2015 04 09 10 32 44 .64       4     28      3     29     30   9.8   6.9  33702  281.85 0864.55
2015 04 09 10 32 44 .89      -2     29      9     30     32 355.5  17.3  33698  281.80 0864.55
2015 04 09 10 32 45 .14     -14     22      4     27     28 327.5   9.0  33698  281.80 0864.55
2015 04 09 10 32 45 .39     -18     23     -1     30     31 322.2  -2.2  33694  281.74 0864.55
2015 04 09 10 32 45 .64     -16     23      5     29     30 325.7  11.1  33734  282.39 0864.55
2015 04 09 10 32 45 .90     -17      9      0     20     21 297.1  -2.2  33760  282.84 0864.55
2015 04 09 10 32 46 .14     -53     17     13     56     58 288.2  13.2  33754  282.72 0864.55
2015 04 09 10 32 46 .39     -52      4     -6     53     54 274.4  -7.2  33706  281.94 0864.55
2015 04 09 10 32 46 .65     -43     35     -6     56     57 309.5  -6.2  33710  282.00 0864.55
2015 04 09 10 32 46 .90     -52     24    -16     58     61 295.2 -15.5  33700  281.82 0864.55
2015 04 09 10 32 47 .15     -89     29    -12     94     95 288.2  -7.3  33732  282.37 0864.55
2015 04 09 10 32 47 .39     -35     11     24     37     44 288.2  36.5  33756  282.76 0864.55
2015 04 09 10 32 47 .64     -71     32    -16     78     80 294.4 -11.9  33722  282.21 0864.55
2015 04 09 10 32 47 .90     -94     34    -21    101    104 290.0 -11.9  33712  282.02 0864.55
2015 04 09 10 32 48 .14     -84     35     -6     92     93 292.6  -4.1  33710  282.00 0864.55
2015 04 09 10 32 48 .40     -74     52    -11     91     92 305.1  -7.3  33726  282.26 0864.55
2015 04 09 10 32 48 .65     -74     52     -3     91     92 305.1  -2.2  33734  282.39 0864.55
2015 04 09 10 32 48 .90     -95     44    -22    105    108 295.2 -11.9  33720  282.16 0864.55
2015 04 09 10 32 49 .15     -89     56     13    106    107 302.4   7.1  33758  282.81 0864.55
2015 04 09 10 32 49 .40     -81     12     -3     82     83 278.8  -2.2  33776  283.09 0864.55
2015 04 09 10 32 49 .65     -88     -8    -31     89     95 264.3 -19.6  33766  282.94 0864.55
2015 04 09 10 32 49 .90     -21      7      8     23     25 290.0  18.9  33792  283.36 0864.55
2015 04 09 10 32 50 .15      -1      8     -7      9     11 348.4 -48.1  33794  283.40 0864.55
2015 04 09 10 32 50 .40     -30     13    -30     33     44 293.5 -52.3  33782  283.19 0864.55
2015 04 09 10 32 50 .66     -22     17      1     28     29 307.8   2.9  33806  283.60 0864.56
2015 04 09 10 32 50 .91     -45     29    -15     54     56 302.5 -20.7  33804  283.56 0864.56
2015 04 09 10 32 51 .16     -23      8     16     25     29 290.0  35.5  33818  283.80 0864.56
2015 04 09 10 32 51 .41     -19      0      0     20     21 269.2  -2.2  33834  284.07 0864.56
2015 04 09 10 32 51 .67      -7    -22      0     24     25 198.5  -2.2  33820  283.85 0864.56
2015 04 09 10 32 51 .91     -67    -13     -8     69     70 258.6  -7.3  33722  282.21 0864.56
2015 04 09 10 32 52 .17     -77    -15    -34     79     86 258.5 -29.0  33736  282.42 0864.56
2015 04 09 10 32 52 .42    -118     16    -14    120    121 278.0  -6.7  33768  282.96 0864.55
2015 04 09 10 32 52 .67    -109     28    -22    113    116 284.6 -11.3  33760  282.84 0864.55
2015 04 09 10 32 52 .92    -116     31    -31    121    125 285.1 -14.5  33750  282.66 0864.55
2015 04 09 10 32 53 .17    -101     15    -28    103    107 278.8 -15.5  33746  282.61 0864.55
2015 04 09 10 32 53 .42     -42     28     36     51     62 303.3  39.5  33810  283.66 0864.55
2015 04 09 10 32 53 .67     -45      9      5     46     47 281.5   6.9  33790  283.33 0864.55
2015 04 09 10 32 53 .93     -92     -4    -18     93     95 267.4 -11.3  33776  283.11 0864.55
2015 04 09 10 32 54 .17     -95     21     19     98    100 282.8  11.1  33746  282.61 0864.56
2015 04 09 10 32 54 .42    -157     63    -31    170    173 292.0 -10.5  33672  281.37 0864.56
2015 04 09 10 32 54 .68    -162     45    -31    169    172 285.5 -10.5  33688  281.62 0864.56
2015 04 09 10 32 54 .93    -155     43    -20    162    164 285.7  -7.3  33722  282.19 0864.56
2015 04 09 10 32 55 .18    -140     63    -19    154    156 294.4  -7.2  33730  282.32 0864.56
2015 04 09 10 32 55 .43    -164     21    -49    166    174 277.5 -16.4  33748  282.64 0864.56
2015 04 09 10 32 55 .68    -176    -20    -42    178    184 263.4 -13.4  33756  282.77 0864.56
2015 04 09 10 32 55 .92    -157    -35    -22    161    163 257.2  -8.0  33720  282.17 0864.56
2015 04 09 10 32 56 .18    -147    -39    -19    153    155 254.9  -7.3  33736  282.42 0864.56
2015 04 09 10 32 56 .43    -162    -13    -29    163    166 265.4 -10.1  33718  282.12 0864.56
2015 04 09 10 32 56 .68    -139    -19    -33    141    145 262.0 -13.4  33772  283.04 0864.56
2015 04 09 10 32 56 .93     -81    -20    -11     84     85 255.8  -7.7  33772  283.04 0864.56
2015 04 09 10 32 57 .18     -42    -41      7     59     60 226.0   6.9  33814  283.73 0864.56
2015 04 09 10 32 57 .43     -71     54    -24     90     94 307.3 -15.4  33802  283.55 0864.56
2015 04 09 10 32 57 .68     -90     31     -6     96     97 289.1  -4.1  33804  283.56 0864.56
2015 04 09 10 32 57 .94    -125     40    -17    132    134 287.7  -7.3  33776  283.09 0864.56
2015 04 09 10 32 58 .20    -133     40    -18    140    142 286.9  -7.7  33752  282.71 0864.56
2015 04 09 10 32 58 .44    -134     79     -6    156    157 300.6  -2.2  33764  282.91 0864.56
2015 04 09 10 32 58 .69    -158     44    -23    165    167 285.7  -8.0  33672  281.35 0864.56
2015 04 09 10 32 58 .94    -155     51    -21    164    166 288.4  -7.3  33688  281.64 0864.56
2015 04 09 10 32 59 .19    -173     51    -25    181    183 286.4  -8.0  33688  281.62 0864.56
2015 04 09 10 32 59 .44    -152     63    -13    165    166 292.6  -4.6  33694  281.74 0864.56
2015 04 09 10 32 59 .69    -155     54    -23    165    167 289.3  -8.2  33690  281.67 0864.56
2015 04 09 10 32 59 .94    -155     51    -27    164    167 288.2  -9.3  33688  281.64 0864.56
2015 04 09 10 33 00 .19    -161     39    -21    166    168 283.9  -7.3  33678  281.47 0864.56
2015 04 09 10 33 00 .45    -155     51    -21    164    166 288.4  -7.3  33678  281.47 0864.57
2015 04 09 10 33 00 .70    -159     26    -19    162    164 279.5  -6.9  33690  281.65 0864.57
2015 04 09 10 33 00 .95    -153     28    -28    156    159 280.6 -10.5  33684  281.55 0864.57
2015 04 09 10 33 01 .20    -161     34    -31    165    169 282.2 -10.9  33676  281.42 0864.57
2015 04 09 10 33 01 .45    -150     15    -14    151    152 276.1  -5.6  33690  281.65 0864.57
2015 04 09 10 33 01 .70    -151     67     -6    166    167 294.0  -2.3  33696  281.75 0864.57
2015 04 09 10 33 01 .95    -163     43    -22    169    171 285.1  -7.5  33684  281.55 0864.57
2015 04 09 10 33 02 .20    -146     44    -24    153    155 286.9  -9.0  33702  281.87 0864.57
2015 04 09 10 33 02 .45    -139     28     -7    142    143 281.5  -3.1  33720  282.17 0864.57
2015 04 09 10 33 02 .70    -124     54    -26    136    139 293.5 -10.9  33700  281.82 0864.57
2015 04 09 10 33 02 .95    -147     29    -19    150    152 281.5  -7.3  33688  281.62 0864.57
2015 04 09 10 33 03 .20    -135     20    -22    137    139 278.8  -9.3  33670  281.34 0864.57
2015 04 09 10 33 03 .45    -141     20    -31    143    147 278.4 -12.4  33674  281.39 0864.57
2015 04 09 10 33 03 .70    -138     22    -38    140    146 279.2 -15.4  33676  281.44 0864.57
2015 04 09 10 33 03 .95    -127     17    -46    129    138 278.0 -19.7  33674  281.39 0864.57
2015 04 09 10 33 04 .20    -132      8    -35    133    138 273.5 -15.0  33672  281.35 0864.57
2015 04 09 10 33 04 .45    -125      3    -35    126    131 271.7 -15.5  33668  281.30 0864.57
2015 04 09 10 33 04 .70    -123     -1    -34    124    129 269.2 -15.5  33674  281.40 0864.57
2015 04 09 10 33 04 .96    -125     -1    -27    126    130 269.2 -12.4  33674  281.39 0864.57
2015 04 09 10 33 05 .22    -122      0    -32    123    128 270.0 -14.5  33670  281.34 0864.56
2015 04 09 10 33 05 .50    -126      3    -26    127    130 271.7 -11.9  33674  281.39 0864.56
2015 04 09 10 33 05 .72    -106     21    -30    109    114 281.4 -15.5  33688  281.62 0864.56
2015 04 09 10 33 05 .97    -102     16    -21    104    107 279.2 -11.5  33704  281.90 0864.56
2015 04 09 10 33 06 .22     -59     16      5     62     63 285.1   4.9  33736  282.44 0864.56
2015 04 09 10 33 06 .47    -113     41    -11    121    122 289.9  -5.2  33682  281.52 0864.56
2015 04 09 10 33 06 .72    -125     45    -25    134    137 290.0 -10.9  33672  281.35 0864.56
2015 04 09 10 33 06 .97    -116     31    -21    121    123 285.1 -10.3  33702  281.85 0864.56
2015 04 09 10 33 07 .22    -115     30    -10    119    120 284.6  -5.2  33686  281.60 0864.56
2015 04 09 10 33 07 .47    -118     39    -21    125    127 288.2  -9.8  33716  282.11 0864.56
2015 04 09 10 33 07 .72    -100     39    -30    108    113 291.3 -15.4  33734  282.39 0864.56
2015 04 09 10 33 07 .98     -49     34      8     60     61 305.1   8.0  33746  282.61 0864.56
2015 04 09 10 33 08 .22     -88     24    -21     92     95 285.5 -12.9  33754  282.72 0864.56
2015 04 09 10 33 08 .47     -54      4    -19     55     59 274.4 -19.7  33758  282.79 0864.56
2015 04 09 10 33 08 .72     -80      0    -22     81     85 270.4 -15.5  33736  282.44 0864.56
2015 04 09 10 33 08 .97     -56     17    -16     59     62 286.8 -15.4  33748  282.62 0864.56
2015 04 09 10 33 09 .23     -78     34    -14     86     88 294.0  -9.8  33754  282.72 0864.56
2015 04 09 10 33 09 .48     -71     16    -16     73     75 283.3 -12.4  33758  282.79 0864.56
2015 04 09 10 33 09 .73     -60      8    -20     61     65 277.9 -18.7  33746  282.59 0864.56
2015 04 09 10 33 09 .98     -48     -1    -20     49     52 268.3 -27.4  33770  282.99 0864.56
2015 04 09 10 33 10 .23     -48    -23     -2     54     55 244.8  -2.2  33772  283.04 0864.56
2015 04 09 10 33 10 .48     -23      1     16     24     28 272.6  35.6  33784  283.23 0864.56
2015 04 09 10 33 10 .73      -1     13      7     14     15 353.8  27.2  33790  283.33 0864.56
2015 04 09 10 33 10 .98      -1     22     22     23     31 355.5  50.0  33800  283.51 0864.56
2015 04 09 10 33 11 .23     -12     11     26     17     31 313.3  64.6  33814  283.73 0864.56
2015 04 09 10 33 11 .48       2      2     22      3     22  45.0  90.0  33808  283.63 0864.56
2015 04 09 10 33 11 .74      -4      0     -5      5      7 281.5 -54.5  33802  283.55 0864.56
2015 04 09 10 33 11 .99       0      5    -25      6     25 357.3 -90.0  33814  283.73 0864.56
2015 04 09 10 33 12 .24     -16     21    -30     27     40 322.2 -57.7  33816  283.78 0864.56
2015 04 09 10 33 12 .49     -29     20      1     36     37 304.2   2.9  33826  283.95 0864.56
2015 04 09 10 33 12 .74     -20     24    -12     32     34 320.4 -23.3  33816  283.78 0864.56
2015 04 09 10 33 13 .00     -17     14     18     23     29 309.5  43.7  33834  284.08 0864.56
2015 04 09 10 33 13 .25     -53     58     62     79    100 317.7  42.2  33860  284.50 0864.56
2015 04 09 10 33 13 .50     -32     34      2     48     49 316.8   2.8  33860  284.52 0864.56
2015 04 09 10 33 13 .75     -29     25     32     39     50 311.3  43.7  33878  284.81 0864.56
2015 04 09 10 33 13 .99     -11    -17    -25     21     32 214.3 -60.7  33870  284.67 0864.56
2015 04 09 10 33 14 .25     -50      1    -16     51     53 271.7 -23.8  33806  283.61 0864.56
2015 04 09 10 33 14 .50    -104     49    -26    116    120 295.4 -12.9  33774  283.08 0864.56
2015 04 09 10 33 14 .75     -55     40     10     69     70 306.0   9.0  33806  283.60 0864.56
2015 04 09 10 33 15 .00    -113      6    -18    114    116 273.5  -9.3  33792  283.36 0864.56
2015 04 09 10 33 15 .25    -157     42    -34    163    167 285.3 -11.9  33766  282.94 0864.56
2015 04 09 10 33 15 .50    -130     51     -5    140    141 291.7  -2.2  33784  283.23 0864.56
2015 04 09 10 33 15 .75     -98     60      5    115    116 301.5   2.8  33798  283.46 0864.56
2015 04 09 10 33 16 .00     -88     58    -27    106    110 303.7 -14.5  33798  283.46 0864.56
2015 04 09 10 33 16 .25     -37     35      6     52     53 313.1   6.9  33812  283.70 0864.56
2015 04 09 10 33 16 .50     -47     14    -20     50     53 286.8 -26.4  33806  283.61 0864.56
2015 04 09 10 33 16 .75     -13     22    -18     26     31 329.3 -42.0  33828  283.97 0864.56
2015 04 09 10 33 17 .01     -53     49     -4     73     74 313.1  -3.1  33836  284.12 0864.56
2015 04 09 10 33 17 .27     -42     58     64     72     96 324.0  46.4  33870  284.69 0864.56
2015 04 09 10 33 17 .51     -41     43     71     60     92 315.8  55.8  33882  284.87 0864.56
2015 04 09 10 33 17 .75       4     -7     32      9     33 147.5  82.8  33874  284.76 0864.56
2015 04 09 10 33 18 .00     -24    -53     20     59     63 204.5  19.4  33846  284.27 0864.56
2015 04 09 10 33 18 .26     -39    -72     22     83     87 208.5  15.3  33818  283.80 0864.56
2015 04 09 10 33 18 .51     -22    -17     24     28     36 232.2  45.8  33884  284.91 0864.56
2015 04 09 10 33 18 .77     -66      4    -24     67     71 274.3 -23.3  33820  283.83 0864.56
2015 04 09 10 33 19 .02       2     -3     22      4     22 147.5  90.0  33854  284.40 0864.56
2015 04 09 10 33 19 .27     -55    -35    -45     66     79 237.5 -42.0  33830  284.02 0864.56
2015 04 09 10 33 19 .52     -18    -54     36     58     68 198.7  35.5  33848  284.30 0864.56
2015 04 09 10 33 19 .77    -108   -104      0    151    152 226.0   0.2  33860  284.52 0864.56
2015 04 09 10 33 20 .02    -126    -54    -28    138    141 246.9 -11.5  33848  284.30 0864.56
2015 04 09 10 33 20 .27    -194     -9    -23    195    197 267.2  -6.9  33772  283.04 0864.56
2015 04 09 10 33 20 .53    -201    -32    -55    204    212 260.8 -15.2  33732  282.37 0864.56
2015 04 09 10 33 20 .78    -199    -40    -43    204    209 258.5 -11.9  33780  283.18 0864.56
2015 04 09 10 33 21 .02    -161    -29    -27    164    167 259.6  -9.6  33788  283.31 0864.56
2015 04 09 10 33 21 .27    -189    -27    -31    192    195 261.6  -9.3  33770  282.99 0864.56
2015 04 09 10 33 21 .53    -172     -1    -47    173    180 269.4 -15.4  33706  281.94 0864.56
2015 04 09 10 33 21 .77    -199     -6    -46    200    206 268.1 -13.2  33720  282.16 0864.56
2015 04 09 10 33 22 .03    -185      0    -51    186    194 270.0 -15.5  33706  281.94 0864.56
2015 04 09 10 33 22 .27    -215      0    -52    216    223 270.1 -13.7  33724  282.24 0864.56
2015 04 09 10 33 22 .53    -205    -25    -59    207    216 263.0 -16.0  33754  282.74 0864.56
2015 04 09 10 33 22 .78    -193    -23    -44    195    201 263.0 -12.9  33782  283.21 0864.56
2015 04 09 10 33 23 .03    -190    -26    -40    192    197 262.1 -11.9  33820  283.83 0864.56
2015 04 09 10 33 23 .28    -136     -8    -45    137    144 266.5 -23.8  33830  284.00 0864.56
2015 04 09 10 33 23 .53     -48      5     10     49     51 276.1  12.2  33848  284.32 0864.56
2015 04 09 10 33 23 .78      14    -41     47     44     64 160.8  52.1  33868  284.64 0864.56
2015 04 09 10 33 24 .03      28     -9     53     30     60 108.6  68.8  33876  284.77 0864.56
2015 04 09 10 33 24 .28      23    -28     58     37     68 140.3  64.7  33890  285.01 0864.56
2015 04 09 10 33 24 .53       9    -46     56     47     73 168.4  56.3  33902  285.21 0864.56
2015 04 09 10 33 24 .78    -171    -68    -21    185    187 248.3  -6.7  33782  283.21 0864.56
2015 04 09 10 33 25 .03    -210    -64    -44    220    225 253.1 -11.5  33692  281.70 0864.56
2015 04 09 10 33 25 .29    -169    -52    -25    177    179 252.7  -8.2  33778  283.13 0864.56
2015 04 09 10 33 25 .54    -129    -42    -39    136    142 251.8 -16.0  33808  283.63 0864.56
2015 04 09 10 33 25 .80    -100    -61     -4    118    119 238.5  -2.2  33836  284.10 0864.56
2015 04 09 10 33 26 .05     -87    -29     -3     92     93 251.6  -2.2  33826  283.93 0864.55
2015 04 09 10 33 26 .30     -78    -94     14    123    124 219.6   6.9  33794  283.41 0864.55
2015 04 09 10 33 26 .54     -50    -13     68     52     85 254.9  59.0  33840  284.17 0864.55
2015 04 09 10 33 26 .80     -23      8     49     25     55 290.0  70.8  33826  283.93 0864.55
2015 04 09 10 33 27 .04     -79    -39    -32     89     94 243.4 -23.8  33784  283.23 0864.55
2015 04 09 10 33 27 .30    -176    -63    -21    188    190 250.3  -6.5  33690  281.65 0864.55
2015 04 09 10 33 27 .55    -197    -44    -38    202    206 257.4 -10.9  33676  281.44 0864.55
2015 04 09 10 33 27 .80    -202    -36    -27    206    208 259.9  -7.7  33680  281.50 0864.55
2015 04 09 10 33 28 .05    -213    -43    -37    218    222 258.5  -9.8  33672  281.37 0864.55
2015 04 09 10 33 28 .30    -176    -58    -37    186    190 251.8 -11.3  33698  281.79 0864.55
2015 04 09 10 33 28 .55    -175    -65     -7    187    188 249.6  -2.3  33706  281.94 0864.55
2015 04 09 10 33 28 .80    -195    -36    -47    199    205 259.4 -13.4  33678  281.47 0864.55
2015 04 09 10 33 29 .05    -205    -40    -46    209    215 258.8 -12.4  33678  281.45 0864.55
2015 04 09 10 33 29 .30    -193    -37    -33    197    200 259.0  -9.6  33678  281.45 0864.55
2015 04 09 10 33 29 .55    -183    -27    -38    186    190 261.4 -11.6  33674  281.39 0864.55
2015 04 09 10 33 29 .81    -155      4    -40    156    162 271.7 -14.5  33694  281.72 0864.55
2015 04 09 10 33 30 .06    -100    -27    -10    104    105 254.5  -5.6  33736  282.44 0864.55
2015 04 09 10 33 30 .30     -97    -74     47    123    131 232.7  21.5  33734  282.39 0864.55
2015 04 09 10 33 30 .56    -177    -28    -35    180    184 261.0 -11.1  33696  281.75 0864.56
2015 04 09 10 33 30 .82    -205    -92      0    225    226 245.8   0.0  33730  282.32 0864.56
2015 04 09 10 33 31 .06    -181    -90     -7    203    204 243.4  -2.2  33748  282.62 0864.56
2015 04 09 10 33 31 .31    -130   -127     21    182    184 225.6   6.7  33768  282.98 0864.56
2015 04 09 10 33 31 .56     -20    -19     20     28     34 226.7  37.6  33766  282.93 0864.56
2015 04 09 10 33 31 .81    -127    -42      6    135    136 251.4   2.8  33712  282.02 0864.56
2015 04 09 10 33 32 .06    -193    -52    -15    200    201 254.9  -4.4  33702  281.85 0864.56
2015 04 09 10 33 32 .31    -201    -27    -28    203    206 262.1  -8.0  33696  281.75 0864.56
2015 04 09 10 33 32 .57    -185    -43    -24    191    193 256.7  -7.3  33698  281.80 0864.56
2015 04 09 10 33 32 .82    -223    -74    -47    235    240 251.6 -11.3  33672  281.36 0864.56
2015 04 09 10 33 33 .07    -208    -44    -27    213    215 257.8  -7.3  33700  281.84 0864.56
2015 04 09 10 33 33 .32    -127    -44     24    135    138 250.9  10.1  33716  282.09 0864.56
2015 04 09 10 33 33 .57    -208    -15    -30    209    212 265.6  -8.2  33678  281.45 0864.56
2015 04 09 10 33 33 .83    -221    -52    -55    228    235 256.8 -13.7  33674  281.39 0864.56
2015 04 09 10 33 34 .08    -224    -23    -58    226    234 263.9 -14.4  33690  281.67 0864.56
2015 04 09 10 33 34 .36    -105    -34     -2    111    112 251.8  -1.3  33728  282.29 0864.56
2015 04 09 10 33 34 .57    -195    -14    -48    196    202 265.7 -13.9  33674  281.39 0864.56
2015 04 09 10 33 34 .83    -224    -20    -61    225    234 264.8 -15.2  33668  281.30 0864.56
2015 04 09 10 33 35 .07    -222    -24    -57    224    232 263.6 -14.4  33672  281.37 0864.56
2015 04 09 10 33 35 .32    -213    -43    -37    218    222 258.5  -9.8  33676  281.42 0864.56
2015 04 09 10 33 35 .58    -232    -39    -55    236    243 260.3 -13.2  33670  281.33 0864.56
2015 04 09 10 33 35 .83    -238    -35    -48    241    246 261.6 -11.3  33676  281.43 0864.56
2015 04 09 10 33 36 .08    -214    -23    -35    216    219 263.8  -9.3  33680  281.50 0864.56
2015 04 09 10 33 36 .33    -225    -23    -44    227    232 264.1 -11.1  33670  281.32 0864.56
2015 04 09 10 33 36 .58    -208    -24    -57    210    218 263.4 -15.4  33666  281.27 0864.56
2015 04 09 10 33 36 .83    -217    -19    -51    218    224 264.8 -13.2  33668  281.30 0864.56
2015 04 09 10 33 37 .08    -208    -20    -48    210    216 264.3 -12.9  33672  281.37 0864.56
2015 04 09 10 33 37 .33    -205    -28    -42    207    212 262.1 -11.5  33672  281.37 0864.56
2015 04 09 10 33 37 .58    -179    -25    -16    181    182 261.9  -5.4  33688  281.62 0864.56
2015 04 09 10 33 37 .83    -183    -24    -23    185    187 262.3  -7.2  33682  281.52 0864.56
2015 04 09 10 33 38 .09    -176    -44    -50    182    189 255.8 -15.4  33676  281.44 0864.56
2015 04 09 10 33 38 .33    -145    -28    -16    148    149 259.0  -6.2  33690  281.67 0864.56
2015 04 09 10 33 38 .58    -157    -38    -33    162    166 256.1 -11.6  33670  281.34 0864.56
2015 04 09 10 33 38 .83    -161    -40    -39    167    172 255.8 -13.2  33670  281.34 0864.56
2015 04 09 10 33 39 .08    -173    -45    -44    179    185 255.4 -13.9  33670  281.34 0864.56
2015 04 09 10 33 39 .33    -179    -48    -44    186    192 255.0 -13.3  33670  281.34 0864.56
2015 04 09 10 33 39 .59    -161    -30    -31    164    168 259.2 -10.9  33678  281.47 0864.56
2015 04 09 10 33 39 .84    -159    -26    -35    162    166 260.5 -12.4  33672  281.37 0864.56
2015 04 09 10 33 40 .10    -159    -15    -44    160    167 264.3 -15.5  33672  281.37 0864.56
2015 04 09 10 33 40 .34    -155    -11    -38    156    161 265.6 -13.7  33674  281.39 0864.56
2015 04 09 10 33 40 .60    -157    -19    -43    159    165 263.0 -15.2  33674  281.39 0864.56
2015 04 09 10 33 40 .84    -148    -20    -40    150    156 262.1 -15.0  33676  281.42 0864.56
2015 04 09 10 33 41 .10    -144    -27    -41    147    153 259.4 -15.8  33674  281.39 0864.56
2015 04 09 10 33 41 .35    -149    -24    -31    151    155 260.8 -11.6  33676  281.42 0864.56
2015 04 09 10 33 41 .60    -140    -19    -39    142    148 262.0 -15.4  33674  281.39 0864.56
2015 04 09 10 33 41 .85    -134    -14    -29    135    139 263.8 -12.4  33676  281.42 0864.56
2015 04 09 10 33 42 .10    -134    -10    -29    135    139 265.7 -12.4  33678  281.47 0864.56
2015 04 09 10 33 42 .35    -139    -17    -35    141    146 263.0 -13.9  33676  281.42 0864.56
2015 04 09 10 33 42 .60    -130    -15    -39    131    137 263.0 -16.6  33684  281.57 0864.56
2015 04 09 10 33 42 .85    -119    -24     -9    122    123 258.6  -4.6  33702  281.87 0864.56
2015 04 09 10 33 43 .10    -113     -8    -19    114    116 265.6  -9.8  33684  281.57 0864.56
2015 04 09 10 33 43 .35    -122     -5    -33    123    128 267.5 -15.0  33680  281.49 0864.56
2015 04 09 10 33 43 .61    -116     -5    -42    117    125 267.5 -19.7  33686  281.59 0864.56
2015 04 09 10 33 43 .86    -101      0    -31    102    107 269.6 -17.0  33698  281.80 0864.56
2015 04 09 10 33 44 .10     -83     -8    -12     84     85 264.3  -8.2  33712  282.04 0864.56
2015 04 09 10 33 44 .36     -75     41    -12     86     87 298.9  -8.2  33718  282.14 0864.56
2015 04 09 10 33 44 .61     -16     30     22     35     41 331.0  35.5  33744  282.57 0864.56
2015 04 09 10 33 44 .86     -39     54      5     67     68 324.0   4.9  33742  282.54 0864.56
2015 04 09 10 33 45 .10     -29    -12     19     32     37 246.5  35.5  33738  282.46 0864.56
2015 04 09 10 33 45 .36     -71      5    -23     72     75 274.3 -23.8  33688  281.62 0864.56
2015 04 09 10 33 45 .61     -78      5     -8     79     80 274.3  -6.2  33712  282.04 0864.56
2015 04 09 10 33 45 .86     -93     12     -9     94     95 277.9  -5.6  33712  282.04 0864.56
2015 04 09 10 33 46 .10    -105      7    -13    106    107 273.9  -7.3  33684  281.55 0864.56
2015 04 09 10 33 46 .36    -104      1    -13    105    106 270.8  -7.3  33700  281.84 0864.56
2015 04 09 10 33 46 .62    -109     12    -29    110    114 276.6 -15.0  33678  281.45 0864.56
2015 04 09 10 33 46 .88     -94      0    -30     95    100 270.4 -17.6  33692  281.70 0864.56
2015 04 09 10 33 47 .12     -87    -22     -9     90     91 255.4  -6.2  33712  282.02 0864.56
2015 04 09 10 33 47 .37     -94      7    -19     95     97 274.8 -11.3  33674  281.40 0864.56
2015 04 09 10 33 47 .63    -108      8    -31    109    114 274.4 -16.0  33682  281.54 0864.55
2015 04 09 10 33 47 .87    -104      7    -21    105    108 274.3 -11.3  33692  281.69 0864.55
2015 04 09 10 33 48 .12    -110      8    -23    111    114 274.4 -11.9  33684  281.57 0864.55
2015 04 09 10 33 48 .38    -109      4    -22    110    113 272.1 -11.3  33686  281.59 0864.55
2015 04 09 10 33 48 .62    -105     12    -14    106    107 277.0  -7.7  33676  281.44 0864.55
2015 04 09 10 33 48 .88    -105     28    -17    109    111 285.1  -8.8  33692  281.70 0864.55
2015 04 09 10 33 49 .12    -109     12    -22    110    113 276.6 -11.3  33682  281.54 0864.55
2015 04 09 10 33 49 .38     -98      6    -20     99    101 273.5 -11.5  33708  281.95 0864.55
2015 04 09 10 33 49 .65     -92     12    -16     93     95 277.9  -9.8  33728  282.31 0864.56
2015 04 09 10 33 49 .88     -80     16     -5     82     83 281.5  -4.1  33754  282.72 0864.56
2015 04 09 10 33 50 .13     -58     -4     -1     59     60 265.6  -1.3  33744  282.57 0864.56
2015 04 09 10 33 50 .38     -29     12     10     32     34 293.5  17.3  33756  282.77 0864.56
2015 04 09 10 33 50 .63      -7     24    -11     26     28 343.1 -25.4  33770  282.99 0864.56
2015 04 09 10 33 50 .89      -2     20     -3     21     22 352.0  -9.3  33770  282.99 0864.56
2015 04 09 10 33 51 .13      16     12     17     21     27  54.0  43.7  33800  283.50 0864.56
2015 04 09 10 33 51 .38     -11      0     41     12     42 270.0  83.9  33812  283.71 0864.56
2015 04 09 10 33 51 .63     -22     17      9     28     30 307.8  19.4  33812  283.71 0864.56
2015 04 09 10 33 51 .88     -30    -25    -30     40     50 230.5 -46.1  33772  283.04 0864.56
2015 04 09 10 33 52 .13     -33    -35    -15     49     52 223.2 -17.6  33758  282.79 0864.56
2015 04 09 10 33 52 .38     -40    -24     14     47     50 239.3  16.3  33756  282.77 0864.56
2015 04 09 10 33 52 .63     -23      1    -17     24     29 272.6 -42.0  33766  282.94 0864.56
2015 04 09 10 33 52 .89       8     24     -1     26     27  18.7  -2.2  33766  282.94 0864.56
2015 04 09 10 33 53 .14       0     29      5     30     31 359.1  11.1  33792  283.38 0864.55
2015 04 09 10 33 53 .38     -13      1     12     14     18 277.9  52.0  33774  283.08 0864.55
2015 04 09 10 33 53 .65     -74     -5    -23     75     79 265.6 -17.0  33676  281.42 0864.55
2015 04 09 10 33 53 .90     -89     -6    -23     90     93 265.6 -14.5  33696  281.77 0864.55
2015 04 09 10 33 54 .15     -96     -5    -23     97    100 266.5 -13.4  33696  281.77 0864.55
2015 04 09 10 33 54 .40    -103      3    -13    104    105 272.1  -7.2  33686  281.59 0864.55
2015 04 09 10 33 54 .65     -91    -19    -12     94     95 258.1  -7.3  33688  281.62 0864.55
2015 04 09 10 33 54 .91     -77     -4    -26     78     83 267.0 -18.7  33714  282.05 0864.55
2015 04 09 10 33 55 .15     -36     36     24     51     56 315.0  27.1  33746  282.61 0864.55
2015 04 09 10 33 55 .40     -34     29      2     45     46 310.4   2.9  33758  282.79 0864.55
2015 04 09 10 33 55 .65     -67     -9    -25     68     72 262.1 -24.4  33714  282.07 0864.55
2015 04 09 10 33 55 .91     -59      8     -2     60     61 277.9  -2.2  33736  282.42 0864.55
2015 04 09 10 33 56 .15     -51    -12    -18     53     57 255.8 -18.7  33740  282.51 0864.55
2015 04 09 10 33 56 .40     -23    -21     16     32     35 226.9  27.3  33752  282.71 0864.55
2015 04 09 10 33 56 .65     -94     13    -38     95    102 277.9 -27.4  33698  281.80 0864.55
2015 04 09 10 33 56 .91    -110     37     -2    117    118 288.6  -1.3  33722  282.19 0864.55
2015 04 09 10 33 57 .15    -106     -1    -29    107    112 269.2 -15.4  33712  282.04 0864.55
2015 04 09 10 33 57 .40    -122    -17    -30    124    128 262.1 -13.9  33706  281.94 0864.55
2015 04 09 10 33 57 .65    -101    -20    -21    104    107 258.5 -11.5  33696  281.75 0864.55
2015 04 09 10 33 57 .91     -94      4    -21     95     98 273.0 -12.4  33714  282.07 0864.55
2015 04 09 10 33 58 .15    -117     31    -33    122    127 285.1 -15.5  33728  282.29 0864.55
2015 04 09 10 33 58 .41    -105     42    -23    114    117 291.8 -11.5  33730  282.34 0864.55
2015 04 09 10 33 58 .66    -110     20    -35    112    118 280.6 -17.5  33722  282.19 0864.55
2015 04 09 10 33 58 .91    -131      0    -31    132    136 269.6 -13.4  33714  282.05 0864.55
2015 04 09 10 33 59 .16    -100     35    -38    107    114 289.5 -19.7  33716  282.09 0864.55
2015 04 09 10 33 59 .41    -109     23    -31    112    117 281.9 -15.5  33714  282.07 0864.55
2015 04 09 10 33 59 .66    -104     23    -28    107    111 282.8 -15.0  33714  282.05 0864.55
2015 04 09 10 33 59 .91     -80     35    -28     88     93 294.0 -18.1  33712  282.04 0864.55
2015 04 09 10 34 00 .16     -84     47    -24     97    100 299.3 -13.9  33712  282.04 0864.55
2015 04 09 10 34 00 .42     -78     47    -19     92     95 301.1 -11.9  33706  281.94 0864.55
2015 04 09 10 34 00 .67     -74     55    -21     93     96 306.9 -12.9  33708  281.95 0864.55
2015 04 09 10 34 00 .92     -65     41    -18     77     80 302.4 -13.4  33708  281.97 0864.55
2015 04 09 10 34 01 .18     -68     28    -20     74     77 292.6 -15.5  33722  282.21 0864.55
2015 04 09 10 34 01 .43     -83     25    -11     87     88 286.8  -7.2  33738  282.47 0864.55
2015 04 09 10 34 01 .68     -21     21     38     31     49 315.0  56.4  33768  282.98 0864.55
2015 04 09 10 34 01 .93     -48     48     14     68     70 315.0  12.2  33778  283.13 0864.55
2015 04 09 10 34 02 .18     -27     74     31     79     84 340.0  22.0  33788  283.29 0864.55
2015 04 09 10 34 02 .43     -51     58     36     78     85 318.6  26.6  33784  283.24 0864.55
2015 04 09 10 34 02 .68     -40     16     51     44     67 291.7  54.3  33790  283.33 0864.55
2015 04 09 10 34 02 .93     -25     13     33     29     43 297.1  53.3  33774  283.06 0864.55
2015 04 09 10 34 03 .17     -23     38     15     45     48 329.3  19.2  33752  282.71 0864.56
2015 04 09 10 34 03 .43     -56     35     -1     67     68 302.4  -1.2  33756  282.76 0864.56
2015 04 09 10 34 03 .68     -69     34      6     78     79 296.2   4.9  33760  282.84 0864.56
2015 04 09 10 34 03 .93     -84      3     -1     85     86 272.6  -0.7  33722  282.19 0864.56
2015 04 09 10 34 04 .18     -84     31    -14     90     92 290.4  -9.3  33704  281.90 0864.56
2015 04 09 10 34 04 .44     -49     53     22     73     77 316.8  17.3  33744  282.57 0864.56
2015 04 09 10 34 04 .68     -34     46     38     58     69 323.0  35.6  33756  282.76 0864.56
2015 04 09 10 34 04 .93     -33     40     14     52     54 320.4  15.3  33760  282.84 0864.55
2015 04 09 10 34 05 .19     -17     40      0     44     45 336.4  -0.3  33736  282.42 0864.55
2015 04 09 10 34 05 .43     -79     39    -25     89     93 296.2 -16.0  33696  281.75 0864.55
2015 04 09 10 34 05 .68     -81     48    -53     95    108 300.7 -35.8  33712  282.02 0864.55
2015 04 09 10 34 05 .93     -85     40    -51     94    106 295.2 -35.7  33684  281.55 0864.56
2015 04 09 10 34 06 .19     -87     44    -47     98    108 297.1 -31.6  33690  281.65 0864.56
2015 04 09 10 34 06 .43     -80     49    -27     95     98 301.5 -20.7  33694  281.72 0864.56
2015 04 09 10 34 06 .68     -72     40    -25     83     86 299.3 -22.3  33686  281.59 0864.56
2015 04 09 10 34 06 .93     -70     33    -25     78     81 295.2 -22.8  33682  281.54 0864.56
2015 04 09 10 34 07 .19     -63     29    -32     70     76 295.2 -31.5  33686  281.59 0864.56
2015 04 09 10 34 07 .45     -68     36    -30     78     83 298.0 -25.9  33686  281.60 0864.56
2015 04 09 10 34 07 .69     -66     42    -28     79     83 302.4 -23.8  33688  281.62 0864.56
2015 04 09 10 34 07 .95     -67     32    -33     75     81 295.4 -29.5  33686  281.60 0864.56
2015 04 09 10 34 08 .20     -62     30    -23     70     73 296.2 -23.8  33688  281.62 0864.56
2015 04 09 10 34 08 .45     -57     31    -25     66     70 298.9 -26.4  33686  281.60 0864.56
2015 04 09 10 34 08 .70     -57     31    -18     66     68 298.9 -20.7  33684  281.57 0864.55
2015 04 09 10 34 08 .95     -54     34    -13     65     67 302.4 -11.3  33684  281.57 0864.55
2015 04 09 10 34 09 .20     -52     31    -17     61     64 300.7 -15.5  33684  281.57 0864.55
2015 04 09 10 34 09 .45     -52     31    -17     61     64 300.7 -15.5  33684  281.57 0864.55
2015 04 09 10 34 09 .70     -46     27    -20     54     57 300.7 -24.4  33682  281.54 0864.55
2015 04 09 10 34 09 .95     -44     40    -18     60     62 312.2 -21.7  33684  281.57 0864.55
2015 04 09 10 34 10 .20     -45     34    -17     57     60 307.8 -16.6  33682  281.52 0864.55
2015 04 09 10 34 10 .45     -46     43    -17     64     67 313.2 -15.5  33678  281.47 0864.55
2015 04 09 10 34 10 .71     -48     48    -20     68     72 314.9 -16.6  33684  281.55 0864.55
2015 04 09 10 34 10 .95     -47     39    -12     62     64 309.6 -11.5  33694  281.72 0864.55
2015 04 09 10 34 11 .20     -42     43    -12     61     63 315.9 -11.3  33682  281.52 0864.55
2015 04 09 10 34 11 .46     -47     39    -12     62     64 309.5 -11.3  33684  281.57 0864.55
2015 04 09 10 34 11 .70     -53     38     -9     66     67 306.0  -8.2  33686  281.60 0864.55
2015 04 09 10 34 11 .96     -47     39    -12     62     64 309.5 -11.3  33684  281.57 0864.55
2015 04 09 10 34 12 .20     -43     43     -5     62     63 315.0  -5.2  33686  281.59 0864.55
2015 04 09 10 34 12 .46     -41     34    -12     54     56 309.6 -12.4  33690  281.67 0864.55
2015 04 09 10 34 12 .71     -35     31    -12     47     49 311.3 -14.5  33696  281.77 0864.55
2015 04 09 10 34 12 .96     -18     40      5     45     46 335.5   6.9  33722  282.19 0864.55
2015 04 09 10 34 13 .21     -25     35     -6     44     45 323.9  -8.2  33724  282.24 0864.55
2015 04 09 10 34 13 .46     -17     40      0     44     45 336.4  -0.3  33726  282.26 0864.55
2015 04 09 10 34 13 .72     -23     30     -4     39     40 322.2  -6.2  33718  282.12 0864.55
2015 04 09 10 34 13 .96     -34     23    -11     42     44 304.2 -14.5  33724  282.24 0864.55
2015 04 09 10 34 14 .21     -22     22     -1     32     33 314.9  -2.2  33736  282.42 0864.55
2015 04 09 10 34 14 .48     -20     12     -8     24     25 302.4 -23.6  33722  282.21 0864.55
2015 04 09 10 34 14 .73     -22     35     10     42     44 328.4  13.2  33740  282.49 0864.55
2015 04 09 10 34 14 .97     -16     36     22     40     45 336.4  32.4  33728  282.31 0864.55
2015 04 09 10 34 15 .23     -10     43     15     45     48 346.6  18.4  33726  282.27 0864.55
2015 04 09 10 34 15 .48     -18     29     12     35     38 327.5  18.9  33728  282.31 0864.55
2015 04 09 10 34 15 .72     -40     28      5     49     50 305.1   5.9  33718  282.14 0864.55
2015 04 09 10 34 15 .98     -15     21      1     27     28 323.9   2.9  33728  282.29 0864.55
2015 04 09 10 34 16 .23     -16     37      8     41     42 336.4  11.1  33736  282.42 0864.55
2015 04 09 10 34 16 .47     -21     19    -10     29     31 313.3 -19.7  33730  282.32 0864.55
2015 04 09 10 34 16 .73     -12     20     14     24     27 329.3  35.5  33742  282.52 0864.55
2015 04 09 10 34 16 .98     -14      9     11     17     20 302.4  37.6  33772  283.03 0864.55
2015 04 09 10 34 17 .23     -10     16      9     20     21 327.5  25.1  33762  282.88 0864.55
2015 04 09 10 34 17 .48     -19     24     20     31     36 322.2  35.5  33748  282.64 0864.55
2015 04 09 10 34 17 .73     -33     40      4     53     54 320.4   4.9  33744  282.56 0864.55
2015 04 09 10 34 17 .98     -30     30     16     43     45 315.0  20.0  33740  282.49 0864.55
2015 04 09 10 34 18 .23     -41     27      1     50     51 303.3   1.8  33728  282.29 0864.55
2015 04 09 10 34 18 .48     -51     44     -2     68     69 310.4  -2.2  33726  282.27 0864.55
2015 04 09 10 34 18 .74     -40     33     10     52     54 309.5  11.1  33728  282.29 0864.54
2015 04 09 10 34 18 .98     -14     41     19     44     47 340.8  24.1  33744  282.57 0864.54
2015 04 09 10 34 19 .24     -24     39      8     46     47 328.4  10.1  33716  282.11 0864.54
2015 04 09 10 34 19 .49     -25     74     -3     79     80 341.3  -2.2  33690  281.65 0864.54
2015 04 09 10 34 19 .73     -27     78      2     83     84 340.8   1.8  33692  281.70 0864.54
2015 04 09 10 34 19 .99     -24     71     -4     76     77 340.8  -3.1  33710  281.99 0864.54
2015 04 09 10 34 20 .23     -19     92      2     95     96 348.0   1.2  33708  281.95 0864.54
2015 04 09 10 34 20 .49     -26     79     -4     84     85 341.5  -3.1  33688  281.62 0864.55
2015 04 09 10 34 20 .74     -45     58     -9     74     75 322.2  -7.2  33706  281.92 0864.55
2015 04 09 10 34 20 .99     -42     49     -3     65     66 319.5  -3.1  33710  281.99 0864.55
2015 04 09 10 34 21 .25     -46     48     -8     67     68 315.9  -7.2  33702  281.87 0864.55
2015 04 09 10 34 21 .50     -41     56    -19     70     73 323.9 -15.5  33684  281.57 0864.55
2015 04 09 10 34 21 .75     -52     55    -21     76     79 316.8 -15.5  33680  281.49 0864.55
2015 04 09 10 34 22 .00     -45     48    -23     66     71 316.7 -19.7  33684  281.57 0864.55
2015 04 09 10 34 22 .25     -51     43    -14     67     69 310.4 -12.4  33686  281.60 0864.55
2015 04 09 10 34 22 .50     -45     48    -25     67     71 316.7 -25.4  33684  281.55 0864.55
2015 04 09 10 34 22 .75     -52     52    -14     74     76 315.0 -11.3  33684  281.55 0864.55
2015 04 09 10 34 23 .00     -55     53    -20     77     80 314.1 -14.5  33690  281.67 0864.55
2015 04 09 10 34 23 .25     -48     48    -20     68     72 314.9 -16.6  33698  281.80 0864.55
2015 04 09 10 34 23 .51     -52     59     -8     80     81 318.6  -6.2  33706  281.92 0864.55
2015 04 09 10 34 23 .75     -34     72     -9     80     81 334.7  -6.7  33716  282.09 0864.55
2015 04 09 10 34 24 .00     -32     59     -6     68     69 331.9  -5.2  33714  282.05 0864.55
2015 04 09 10 34 24 .26     -39     43     -7     59     60 317.7  -7.3  33728  282.29 0864.55
2015 04 09 10 34 24 .51     -34     59      3     69     70 330.1   2.8  33750  282.67 0864.55
2015 04 09 10 34 24 .75     -24     71     24     75     79 341.3  17.9  33756  282.77 0864.55
2015 04 09 10 34 25 .01     -25     83      5     87     88 343.1   3.3  33738  282.46 0864.55
2015 04 09 10 34 25 .26     -35     55    -13     66     68 327.4 -11.3  33734  282.39 0864.55
2015 04 09 10 34 25 .51     -43     52    -22     68     71 320.3 -23.8  33690  281.67 0864.55
2015 04 09 10 34 25 .76     -58     48    -24     76     80 309.6 -17.6  33688  281.62 0864.55
2015 04 09 10 34 26 .01     -60     38    -20     72     75 302.5 -15.5  33686  281.59 0864.55
2015 04 09 10 34 26 .26     -65     41    -18     77     80 302.4 -13.4  33688  281.62 0864.55
2015 04 09 10 34 26 .51     -61     31    -12     69     71 297.1 -10.3  33690  281.67 0864.55
2015 04 09 10 34 26 .76     -53     38     -9     66     67 306.0  -8.2  33686  281.60 0864.55
2015 04 09 10 34 27 .01     -53     40    -11     67     68 306.9  -9.3  33698  281.80 0864.55
2015 04 09 10 34 27 .26     -50     35     -8     62     63 305.1  -7.3  33694  281.74 0864.55
2015 04 09 10 34 27 .51     -56     31     -8     65     66 298.9  -7.2  33694  281.72 0864.55
2015 04 09 10 34 27 .77     -50     35     -2     62     63 305.1  -2.2  33704  281.90 0864.55
2015 04 09 10 34 28 .01     -49     35    -16     61     64 306.0 -15.4  33692  281.70 0864.55
2015 04 09 10 34 28 .27     -49     35    -16     61     64 306.0 -15.4  33696  281.75 0864.55
2015 04 09 10 34 28 .53     -46     34    -18     58     61 306.9 -17.6  33700  281.82 0864.55
2015 04 09 10 34 28 .78     -55     35    -19     66     69 302.5 -16.6  33698  281.80 0864.55
2015 04 09 10 34 29 .03     -52     28     -1     60     61 298.8  -1.3  33722  282.21 0864.55
2015 04 09 10 34 29 .28     -57     35    -18     68     71 301.5 -15.5  33690  281.67 0864.55
2015 04 09 10 34 29 .53     -41     34    -12     54     56 309.6 -12.4  33688  281.62 0864.55
2015 04 09 10 34 29 .78     -53     31     -2     62     63 300.7  -2.2  33696  281.77 0864.55
2015 04 09 10 34 30 .03     -45     45     -3     64     65 315.0  -3.2  33714  282.05 0864.55
2015 04 09 10 34 30 .28     -51     28     -2     59     60 298.9  -2.2  33722  282.21 0864.55
2015 04 09 10 34 30 .53     -50     35     -8     62     63 305.1  -7.3  33688  281.62 0864.55
2015 04 09 10 34 30 .78     -57     31    -15     66     68 298.9 -13.4  33696  281.75 0864.55
2015 04 09 10 34 31 .03    -103     34     -6    109    110 288.6  -3.2  33704  281.90 0864.55
2015 04 09 10 34 31 .28    -112     32     -9    117    118 285.9  -4.6  33704  281.89 0864.54
2015 04 09 10 34 31 .53    -105     12    -14    106    107 277.0  -7.7  33692  281.70 0864.54
2015 04 09 10 34 31 .78     -85     17     -7     87     88 281.9  -5.2  33696  281.75 0864.54
2015 04 09 10 34 32 .03     -76     25     -5     81     82 288.4  -3.7  33702  281.85 0864.54
2015 04 09 10 34 32 .29     -87     20    -11     90     91 283.3  -7.2  33708  281.95 0864.54
2015 04 09 10 34 32 .54     -71     23    -15     75     77 288.2 -11.3  33714  282.05 0864.54
2015 04 09 10 34 32 .78     -62     31     -7     70     71 297.1  -6.2  33704  281.90 0864.54
2015 04 09 10 34 33 .03     -72     47    -25     87     90 303.3 -20.7  33692  281.70 0864.54
2015 04 09 10 34 33 .29     -85     22    -29     88     92 284.6 -23.8  33692  281.70 0864.54
2015 04 09 10 34 33 .54     -91      7     -6     92     93 274.8  -4.1  33696  281.75 0864.54
2015 04 09 10 34 33 .79     -89     28    -27     94     97 287.7 -21.2  33696  281.77 0864.54
2015 04 09 10 34 34 .04     -68     25    -26     73     77 290.8 -23.3  33712  282.04 0864.54
2015 04 09 10 34 34 .29     -50     23    -16     56     58 295.3 -22.8  33720  282.16 0864.54
2015 04 09 10 34 34 .54     -38      2      0     39     40 274.4  -1.3  33710  282.00 0864.54
2015 04 09 10 34 34 .80     -34     11      3     36     37 288.2   4.9  33714  282.05 0864.54
2015 04 09 10 34 35 .04     -33     10     21     35     40 286.8  34.4  33748  282.64 0864.54
2015 04 09 10 34 35 .30     -38     21     20     44     48 298.9  25.1  33768  282.96 0864.54
2015 04 09 10 34 35 .55     -32     16     12     36     39 297.1  18.9  33772  283.04 0864.54
2015 04 09 10 34 35 .80      -9     17     16     20     25 331.0  43.7  33790  283.33 0864.54
2015 04 09 10 34 36 .05     -18     25     14     31     34 323.9  25.1  33794  283.41 0864.54
2015 04 09 10 34 36 .30     -26     26     18     37     41 314.9  27.2  33788  283.31 0864.54
2015 04 09 10 34 36 .55     -20     53     11     57     59 339.1  11.0  33780  283.18 0864.54
2015 04 09 10 34 36 .80     -11     71     27     72     76 351.1  20.0  33770  282.99 0864.54
2015 04 09 10 34 37 .06     -27     68     24     74     79 338.2  18.4  33756  282.76 0864.54
2015 04 09 10 34 37 .31     -24     71      7     76     77 341.3   5.9  33750  282.67 0864.54
2015 04 09 10 34 37 .56     -30     53      0     62     63 330.1   0.8  33756  282.76 0864.54
2015 04 09 10 34 37 .80     -29     48     -9     57     58 329.3  -9.3  33744  282.57 0864.54
2015 04 09 10 34 38 .06     -37     45    -19     59     61 320.4 -23.8  33750  282.67 0864.54
2015 04 09 10 34 38 .31     -38     53     -2     66     67 323.9  -2.2  33794  283.41 0864.54
2015 04 09 10 34 38 .56     -24     27      7     37     38 318.6  11.0  33818  283.80 0864.54
2015 04 09 10 34 38 .81     -16     28      1     33     34 329.3   2.9  33818  283.80 0864.54
2015 04 09 10 34 39 .06     -10     29     20     31     36 340.0  35.5  33808  283.65 0864.54
2015 04 09 10 34 39 .31     -24     41     23     48     53 329.3  27.2  33810  283.66 0864.54
2015 04 09 10 34 39 .56     -33     33     34     47     58 315.0  39.7  33808  283.65 0864.54
2015 04 09 10 34 39 .81     -31     35      9     48     49 318.6  11.0  33826  283.93 0864.54
2015 04 09 10 34 40 .06     -24     40      9     47     48 328.4  11.1  33818  283.81 0864.54
2015 04 09 10 34 40 .31     -20     32     14     39     41 327.5  20.0  33806  283.61 0864.54
2015 04 09 10 34 40 .56     -12     54     20     56     59 346.6  20.0  33814  283.75 0864.54
2015 04 09 10 34 40 .81     -24     52     13     58     60 334.6  13.2  33788  283.29 0864.54
2015 04 09 10 34 41 .07     -21     51      2     56     57 337.3   2.9  33764  282.89 0864.54
2015 04 09 10 34 41 .32     -21     51      2     56     57 337.3   2.9  33806  283.61 0864.54
2015 04 09 10 34 41 .57     -32     60     36     69     77 331.9  29.3  33828  283.98 0864.54
2015 04 09 10 34 41 .82     -19     43     16     48     51 336.4  18.9  33820  283.83 0864.54
2015 04 09 10 34 42 .07     -43     36    -23     57     61 310.4 -27.4  33818  283.80 0864.54
2015 04 09 10 34 42 .32     -64     40    -22     76     80 302.5 -16.0  33756  282.76 0864.54
2015 04 09 10 34 42 .58     -80     47    -25     93     97 300.7 -15.5  33716  282.11 0864.54
2015 04 09 10 34 42 .83    -108     51    -28    120    124 295.3 -13.4  33700  281.84 0864.54
2015 04 09 10 34 43 .08    -131     57    -32    143    147 293.5 -12.9  33692  281.70 0864.54
2015 04 09 10 34 43 .33    -127     60    -19    141    143 295.2  -7.7  33688  281.62 0864.54
2015 04 09 10 34 43 .58    -130     66    -24    147    149 297.1  -9.4  33690  281.67 0864.54
2015 04 09 10 34 43 .83    -142     56    -23    153    155 291.7  -8.8  33686  281.60 0864.54
2015 04 09 10 34 44 .08    -112     23    -39    115    121 281.9 -23.3  33690  281.65 0864.54
2015 04 09 10 34 44 .33    -123     41    -46    130    137 288.6 -24.8  33690  281.65 0864.54
2015 04 09 10 34 44 .58    -130     35    -41    135    142 285.1 -17.0  33688  281.62 0864.54
2015 04 09 10 34 44 .83    -127     42    -42    135    141 288.6 -21.8  33684  281.55 0864.54
2015 04 09 10 34 45 .08    -133     46    -42    141    147 289.1 -21.7  33686  281.59 0864.54
2015 04 09 10 34 45 .33    -130     43    -53    138    147 288.6 -26.4  33688  281.62 0864.54
2015 04 09 10 34 45 .58    -142     31    -51    146    154 282.4 -23.3  33686  281.59 0864.54
2015 04 09 10 34 45 .83    -127     33    -50    132    141 284.6 -26.4  33690  281.65 0864.54
2015 04 09 10 34 46 .08    -118     36    -41    124    130 286.9 -23.8  33688  281.62 0864.54
2015 04 09 10 34 46 .33    -119     41    -36    126    131 289.1 -20.7  33690  281.67 0864.54
2015 04 09 10 34 46 .59    -112     44    -36    121    126 291.7 -21.7  33688  281.62 0864.54
2015 04 09 10 34 46 .84    -106     41    -42    114    121 291.3 -25.4  33690  281.65 0864.54
2015 04 09 10 34 47 .09     -93     30    -38     98    105 288.2 -26.9  33692  281.70 0864.54
2015 04 09 10 34 47 .34     -85     26    -38     90     97 287.3 -28.5  33698  281.80 0864.54
2015 04 09 10 34 47 .58     -86     25    -31     90     95 286.4 -23.3  33694  281.72 0864.54
2015 04 09 10 34 47 .84     -82     17    -27     84     88 281.9 -23.3  33694  281.74 0864.54
2015 04 09 10 34 48 .09     -86      8    -31     87     92 275.7 -24.4  33704  281.89 0864.54
2015 04 09 10 34 48 .34     -77      5    -27     78     82 274.3 -23.8  33706  281.94 0864.54
2015 04 09 10 34 48 .59     -74      9    -24     75     78 277.0 -23.8  33704  281.90 0864.55
2015 04 09 10 34 48 .84     -68      8    -20     69     71 277.0 -20.7  33704  281.90 0864.55
2015 04 09 10 34 49 .10     -67      5    -20     68     71 274.4 -16.6  33704  281.90 0864.55
2015 04 09 10 34 49 .35     -76     -1    -21     77     79 269.2 -20.2  33704  281.90 0864.55
2015 04 09 10 34 49 .60     -81      0    -21     82     85 270.0 -14.5  33704  281.90 0864.55
2015 04 09 10 34 49 .85     -87     -7    -31     88     94 265.2 -19.6  33702  281.85 0864.55
2015 04 09 10 34 50 .10     -91    -20    -36     94    100 257.2 -26.9  33704  281.89 0864.55
2015 04 09 10 34 50 .35     -81    -25    -31     85     90 252.7 -25.4  33706  281.92 0864.54
2015 04 09 10 34 50 .61     -75    -25    -33     80     86 251.4 -27.4  33704  281.90 0864.54
2015 04 09 10 34 50 .85     -74    -25    -32     79     85 251.4 -27.4  33704  281.89 0864.54
2015 04 09 10 34 51 .11     -62    -16    -21     65     68 254.9 -23.8  33708  281.95 0864.54
2015 04 09 10 34 51 .36     -55    -18    -12     59     61 251.4 -11.5  33706  281.94 0864.54
2015 04 09 10 34 51 .61     -48    -23    -25     54     59 244.7 -30.6  33708  281.95 0864.54
2015 04 09 10 34 51 .86     -49    -16    -27     52     58 250.9 -33.7  33708  281.97 0864.54
2015 04 09 10 34 52 .11     -38    -10    -24     40     46 254.9 -38.8  33710  282.00 0864.54
2015 04 09 10 34 52 .36     -33     -7    -20     34     39 256.7 -37.9  33710  282.00 0864.54
2015 04 09 10 34 52 .61     -41     -4    -20     42     46 263.9 -31.6  33708  281.95 0864.54
2015 04 09 10 34 52 .86     -43     -3    -19     44     47 264.8 -28.5  33706  281.94 0864.54
2015 04 09 10 34 53 .11     -43      0    -16     44     46 270.0 -24.4  33710  282.00 0864.54
2015 04 09 10 34 53 .36     -36     -2    -16     37     40 265.6 -29.5  33708  281.95 0864.54
2015 04 09 10 34 53 .61     -52      2    -22     53     57 272.6 -27.4  33712  282.02 0864.54
2015 04 09 10 34 53 .86     -67     13    -31     69     75 281.5 -31.5  33716  282.09 0864.54
2015 04 09 10 34 54 .11     -62     20    -26     66     70 288.2 -27.4  33712  282.04 0864.54
2015 04 09 10 34 54 .37     -87     28    -25     92     96 288.2 -15.5  33720  282.17 0864.54
2015 04 09 10 34 54 .61     -90     16    -19     92     95 280.6 -11.9  33714  282.05 0864.54
2015 04 09 10 34 54 .87     -98     17    -16    100    102 280.1  -9.3  33726  282.27 0864.54
2015 04 09 10 34 55 .11     -95     12    -21     96     99 277.5 -12.4  33730  282.32 0864.54
2015 04 09 10 34 55 .36     -92      1    -18     93     95 270.8 -11.3  33728  282.29 0864.54
2015 04 09 10 34 55 .61    -104      1    -13    105    106 270.8  -7.3  33718  282.14 0864.54
2015 04 09 10 34 55 .87     -84     16    -15     86     88 281.0 -10.3  33716  282.11 0864.54
2015 04 09 10 34 56 .13     -95    -13    -31     96    102 262.1 -18.1  33720  282.17 0864.54
2015 04 09 10 34 56 .38     -63      0    -16     64     67 269.2 -14.5  33742  282.52 0864.54
2015 04 09 10 34 56 .64     -44     14     23     47     52 288.6  27.3  33772  283.04 0864.53
2015 04 09 10 34 56 .88     -73    -24     -1     77     78 251.8  -1.2  33750  282.66 0864.53
2015 04 09 10 34 57 .13     -84    -36    -18     92     94 246.5 -11.3  33712  282.04 0864.53
2015 04 09 10 34 57 .38     -89    -42    -35     99    106 244.8 -19.7  33706  281.94 0864.53
2015 04 09 10 34 57 .63     -89    -42    -35     99    106 244.8 -19.7  33706  281.94 0864.53
2015 04 09 10 34 57 .88     -80    -29    -30     86     92 249.6 -19.1  33706  281.94 0864.53
2015 04 09 10 34 58 .13     -94    -41    -31    103    108 246.0 -17.0  33710  282.00 0864.53
2015 04 09 10 34 58 .38     -84    -41    -24     94     98 243.8 -14.5  33716  282.09 0864.54
2015 04 09 10 34 58 .63     -80    -30    -16     86     88 249.2 -10.9  33716  282.11 0864.54
2015 04 09 10 34 58 .88     -70    -33    -15     78     80 244.8 -10.9  33716  282.11 0864.54
2015 04 09 10 34 59 .13     -76    -36     -8     85     86 244.6  -5.6  33712  282.04 0864.54
2015 04 09 10 34 59 .39    -108    -45    -15    118    119 247.4  -7.3  33712  282.04 0864.54
2015 04 09 10 34 59 .63    -105    -41    -14    113    114 248.7  -7.2  33714  282.05 0864.54
2015 04 09 10 34 59 .89     -90    -20     -6     93     94 257.2  -4.1  33744  282.57 0864.54
2015 04 09 10 35 00 .14     -82    -12    -10     83     84 261.2  -7.3  33736  282.42 0864.54
2015 04 09 10 35 00 .39     -78     15     -4     80     81 281.5  -3.1  33744  282.57 0864.54
2015 04 09 10 35 00 .64     -91      1    -11     92     93 270.8  -7.3  33718  282.14 0864.54
2015 04 09 10 35 00 .89    -101    -20    -21    104    107 258.5 -11.5  33720  282.17 0864.54
2015 04 09 10 35 01 .14     -92     -7     -8     93     94 265.6  -5.2  33712  282.04 0864.54
2015 04 09 10 35 01 .39     -87     -6    -31     88     94 265.6 -19.6  33710  282.00 0864.54
2015 04 09 10 35 01 .65     -75      2    -11     76     77 271.7  -8.2  33730  282.34 0864.54
2015 04 09 10 35 01 .89     -78     27    -16     83     85 289.5 -10.9  33722  282.21 0864.54
2015 04 09 10 35 02 .14     -83    -16    -13     85     86 258.5  -8.8  33718  282.14 0864.53
2015 04 09 10 35 02 .39     -69      1    -15     70     72 270.9 -12.4  33708  281.95 0864.53
2015 04 09 10 35 02 .64     -74     12    -22     76     80 279.7 -16.6  33706  281.94 0864.53
2015 04 09 10 35 02 .89     -78      4    -17     79     81 273.5 -12.4  33712  282.02 0864.53
2015 04 09 10 35 03 .15     -57    -25    -12     63     65 246.5 -11.3  33740  282.51 0864.53
2015 04 09 10 35 03 .41     -32    -34    -14     48     51 223.2 -16.6  33748  282.62 0864.53
2015 04 09 10 35 03 .65     -24    -12      1     28     29 242.9   2.8  33764  282.91 0864.53
2015 04 09 10 35 03 .90     -16     -7      9     18     20 244.7  29.3  33760  282.84 0864.53
2015 04 09 10 35 04 .16     -11     17      0     21     22 325.7  -2.2  33754  282.74 0864.54
2015 04 09 10 35 04 .41     -21     13     -8     25     26 302.4 -23.8  33770  282.99 0864.54
2015 04 09 10 35 04 .66       0      4     14      5     14 350.3  81.0  33792  283.36 0864.54
2015 04 09 10 35 04 .90      -1      6     23      7     24 350.3  80.7  33822  283.86 0864.54
2015 04 09 10 35 05 .16      -1     -8     22      9     23 191.6  79.2  33816  283.78 0864.54
2015 04 09 10 35 05 .41      -2     -7      9      8     12 198.5  52.2  33816  283.78 0864.54
2015 04 09 10 35 05 .66      -7      4     18      9     20 302.4  70.8  33828  283.98 0864.54
2015 04 09 10 35 05 .91     -12      8     11     15     18 302.4  39.7  33836  284.12 0864.54
2015 04 09 10 35 06 .16     -22      1     -3     23     24 272.6  -9.3  33810  283.68 0864.54
2015 04 09 10 35 06 .41     -13     -4     -7     14     15 251.6 -31.6  33778  283.14 0864.54
2015 04 09 10 35 06 .66     -10     -8      0     14     15 230.5  -2.2  33772  283.04 0864.54
2015 04 09 10 35 06 .91      -9     -5      9     11     14 241.1  47.9  33788  283.29 0864.54
2015 04 09 10 35 07 .16     -12      8     11     15     18 302.4  39.7  33796  283.43 0864.54
2015 04 09 10 35 07 .41     -10      5     -6     12     13 295.3 -31.6  33778  283.13 0864.54
2015 04 09 10 35 07 .66     -15     16     11     23     25 316.8  27.2  33780  283.18 0864.54
2015 04 09 10 35 07 .91     -32     17     -4     37     38 298.9  -7.2  33766  282.94 0864.54
2015 04 09 10 35 08 .16     -52    -10     -8     54     55 258.5  -9.3  33734  282.41 0864.54
2015 04 09 10 35 08 .41     -29     -8    -16     31     34 254.9 -33.7  33720  282.16 0864.54
2015 04 09 10 35 08 .67     -32    -12    -25     35     43 248.3 -44.1  33716  282.11 0864.54
2015 04 09 10 35 08 .92     -49      2    -35     50     61 272.6 -43.0  33718  282.14 0864.54
2015 04 09 10 35 09 .16     -57     -8    -35     58     67 261.2 -38.8  33724  282.24 0864.54
2015 04 09 10 35 09 .42     -33      0    -46     34     57 269.2 -63.8  33720  282.16 0864.54
2015 04 09 10 35 09 .67     -39      6    -51     40     64 279.7 -62.9  33724  282.22 0864.54
2015 04 09 10 35 09 .93     -56     -4    -54     57     78 265.6 -52.9  33728  282.29 0864.54
2015 04 09 10 35 10 .18     -77    -32    -19     84     87 246.9 -12.9  33724  282.24 0864.54
2015 04 09 10 35 10 .43     -80    -44    -25     92     96 241.1 -15.5  33726  282.27 0864.54
2015 04 09 10 35 10 .68     -68    -45    -21     82     85 236.7 -14.5  33722  282.21 0864.54
2015 04 09 10 35 10 .93     -62    -58     21     86     89 226.9  13.7  33730  282.32 0864.54
2015 04 09 10 35 11 .18     -52    -54     12     76     77 224.1   9.0  33730  282.32 0864.55
2015 04 09 10 35 11 .43     -38    -39     -7     55     56 224.2  -7.3  33718  282.14 0864.55
2015 04 09 10 35 11 .68     -38    -31    -16     50     53 230.5 -17.6  33722  282.21 0864.55
2015 04 09 10 35 11 .93     -40    -33    -25     52     57 230.5 -31.6  33710  282.00 0864.55
2015 04 09 10 35 12 .18     -33    -21    -31     40     50 237.6 -47.1  33716  282.09 0864.55
2015 04 09 10 35 12 .43     -30    -25    -23     40     46 230.5 -37.9  33710  281.99 0864.55
2015 04 09 10 35 12 .68     -28    -35    -21     46     50 218.7 -31.5  33702  281.85 0864.55
2015 04 09 10 35 12 .94     -30    -48    -14     57     59 212.5 -14.5  33702  281.87 0864.55
2015 04 09 10 35 13 .19     -26    -43     -2     51     52 211.6  -2.2  33706  281.92 0864.54
2015 04 09 10 35 13 .44     -15    -47    -13     50     52 198.3 -15.4  33702  281.87 0864.54
2015 04 09 10 35 13 .69      -8    -20    -35     22     41 201.8 -69.1  33722  282.19 0864.54
2015 04 09 10 35 13 .94      -5    -35    -31     36     47 188.0 -50.2  33716  282.09 0864.54
2015 04 09 10 35 14 .19      -2    -42    -33     43     54 182.7 -46.1  33704  281.90 0864.54
2015 04 09 10 35 14 .44      -2    -46    -35     47     58 183.6 -45.1  33708  281.97 0864.54
2015 04 09 10 35 14 .69      10    -55    -42     56     70 169.3 -45.1  33702  281.85 0864.54
2015 04 09 10 35 14 .94       4    -59    -31     60     67 175.5 -33.7  33700  281.82 0864.54
2015 04 09 10 35 15 .19      -1    -67    -21     68     71 180.9 -22.8  33702  281.85 0864.54
2015 04 09 10 35 15 .44      16    -68    -23     70     73 166.6 -23.8  33704  281.89 0864.54
2015 04 09 10 35 15 .69       6    -71    -36     72     80 174.7 -33.1  33704  281.89 0864.53
2015 04 09 10 35 15 .94      40    -84    -41     94    102 154.6 -29.0  33712  282.02 0864.53
2015 04 09 10 35 16 .19      24    -72    -25     77     81 161.3 -18.1  33704  281.90 0864.53
2015 04 09 10 35 16 .44      17    -67    -23     70     73 165.7 -23.8  33706  281.94 0864.53
2015 04 09 10 35 16 .69      34    -69    -38     77     85 153.7 -32.6  33708  281.95 0864.53
2015 04 09 10 35 16 .95      42    -89    -32     99    104 154.6 -23.8  33702  281.87 0864.53
2015 04 09 10 35 17 .20      42    -89    -32     99    104 154.6 -23.8  33702  281.87 0864.53
2015 04 09 10 35 17 .46      51    -80    -29     95     99 147.5 -22.3  33704  281.90 0864.53
2015 04 09 10 35 17 .71      56    -63    -38     85     93 138.6 -30.1  33704  281.90 0864.53
2015 04 09 10 35 17 .96      64    -40    -21     76     78 122.5 -20.2  33704  281.90 0864.53
2015 04 09 10 35 18 .21      54    -38    -21     67     70 125.1 -23.8  33714  282.05 0864.53
2015 04 09 10 35 18 .46      45    -63    -12     78     79 144.0  -8.8  33720  282.16 0864.53
2015 04 09 10 35 18 .71      36    -58     -2     69     70 148.4  -2.2  33720  282.16 0864.53
2015 04 09 10 35 18 .96      33    -68      3     76     77 153.7   2.9  33718  282.12 0864.53
2015 04 09 10 35 19 .21      42    -66     11     79     80 147.4   8.0  33720  282.16 0864.53
2015 04 09 10 35 19 .46      17    -71     14     74     76 166.6  11.1  33716  282.11 0864.53
2015 04 09 10 35 19 .71      20    -77     27     80     85 164.9  18.9  33714  282.05 0864.53
2015 04 09 10 35 19 .96      25    -98      8    102    103 165.7   4.9  33722  282.19 0864.53
2015 04 09 10 35 20 .21      18    -94     -4     96     97 168.9  -2.6  33722  282.19 0864.53
2015 04 09 10 35 20 .46      17   -102     -5    104    105 170.2  -3.1  33714  282.07 0864.53
2015 04 09 10 35 20 .71      41    -96    -29    105    109 156.8 -15.5  33716  282.09 0864.53
2015 04 09 10 35 20 .97      20    -97     -9    100    101 168.4  -5.6  33716  282.09 0864.53
2015 04 09 10 35 21 .21      10    -97      0     98     99 173.8  -0.3  33714  282.05 0864.54
2015 04 09 10 35 21 .47       7    -97     11     98     99 175.6   6.9  33716  282.11 0864.54
2015 04 09 10 35 21 .71      31    -93     13     99    100 161.3   8.0  33718  282.14 0864.54
2015 04 09 10 35 21 .96      40    -92      8    101    102 156.4   4.9  33718  282.14 0864.54
2015 04 09 10 35 22 .22      34    -87     19     94     96 158.2  11.6  33718  282.14 0864.54
2015 04 09 10 35 22 .47      41    -64      3     77     78 147.4   2.9  33718  282.14 0864.54
2015 04 09 10 35 22 .72      18    -55     -3     58     59 161.5  -3.1  33718  282.12 0864.54
2015 04 09 10 35 22 .97      33    -50      5     61     62 146.6   4.9  33718  282.14 0864.53
2015 04 09 10 35 23 .22      49    -69     11     85     86 144.8   7.5  33710  282.00 0864.53
2015 04 09 10 35 23 .48      34    -70     27     79     84 153.7  19.2  33732  282.36 0864.53
2015 04 09 10 35 23 .72      31    -56     30     65     71 151.0  27.1  33726  282.26 0864.53
2015 04 09 10 35 23 .98      26    -87     31     91     97 163.1  18.9  33714  282.05 0864.53
2015 04 09 10 35 24 .24      14    -94     18     96     98 171.5  10.6  33728  282.29 0864.53
2015 04 09 10 35 24 .48      37    -90     23     98    101 157.3  13.2  33716  282.11 0864.53
2015 04 09 10 35 24 .74      32    -65     19     73     76 153.7  15.2  33722  282.21 0864.53
2015 04 09 10 35 24 .99      15    -84     30     86     92 169.3  19.2  33736  282.44 0864.53
2015 04 09 10 35 25 .23      41    -86     33     96    102 154.6  19.4  33708  281.95 0864.53
2015 04 09 10 35 25 .49      26    -84     25     89     93 162.6  15.8  33712  282.02 0864.53
2015 04 09 10 35 25 .73      29    -95     27    100    104 162.6  15.3  33736  282.42 0864.53
2015 04 09 10 35 25 .99      32    -97     15    103    105 161.7   8.5  33710  282.00 0864.53
2015 04 09 10 35 26 .24      46    -83     33     96    102 151.0  19.4  33722  282.21 0864.53
2015 04 09 10 35 26 .49      15    -76     15     78     80 168.4  11.1  33780  283.18 0864.53
2015 04 09 10 35 26 .74      13    -80     11     82     83 170.2   8.0  33772  283.04 0864.53
2015 04 09 10 35 26 .99      31    -48     31     58     65 147.4  31.3  33754  282.72 0864.53
2015 04 09 10 35 27 .24      -2    -86     62     87    106 181.4  39.1  33826  283.93 0864.53
2015 04 09 10 35 27 .50     -12    -72     66     74     99 189.8  46.9  33844  284.25 0864.54
2015 04 09 10 35 27 .74     -31    -83     55     89    104 200.9  35.5  33882  284.89 0864.54
2015 04 09 10 35 27 .99     -49    -72     50     88    101 214.3  31.9  33848  284.32 0864.54
2015 04 09 10 35 28 .24     -40    -81     23     91     94 206.7  14.3  33780  283.18 0864.54
2015 04 09 10 35 28 .49     -27    -77     16     82     84 200.0  11.6  33782  283.19 0864.54
2015 04 09 10 35 28 .75     -41    -83     15     93     95 206.7   9.5  33790  283.34 0864.54
2015 04 09 10 35 29 .00     -40    -78      4     88     89 207.2   2.9  33814  283.75 0864.54
2015 04 09 10 35 29 .25     -48    -62     17     79     81 218.3  12.6  33828  283.98 0864.54
2015 04 09 10 35 29 .49     -32    -44     40     55     68 216.1  39.7  33834  284.08 0864.53
2015 04 09 10 35 29 .75     -33    -52     46     62     77 212.6  39.7  33818  283.80 0864.53
2015 04 09 10 35 29 .99     -37    -76     35     85     91 206.3  23.6  33814  283.73 0864.53
2015 04 09 10 35 30 .24     -22    -67     35     71     79 198.3  28.2  33810  283.68 0864.54
2015 04 09 10 35 30 .49     -25    -75     42     80     90 198.7  29.8  33808  283.65 0864.54
2015 04 09 10 35 30 .74     -36    -65     39     75     84 209.0  29.8  33798  283.48 0864.54
2015 04 09 10 35 31 .01     -33    -43     46     55     71 217.0  43.8  33802  283.55 0864.54
2015 04 09 10 35 31 .26     -25    -40     41     48     63 212.6  44.8  33788  283.31 0864.54
2015 04 09 10 35 31 .51     -20    -67     59     71     92 196.9  43.8  33800  283.50 0864.54
2015 04 09 10 35 31 .76      12    -83     39     84     92 171.5  26.6  33804  283.58 0864.54
2015 04 09 10 35 32 .01      -4    -84     29     85     91 183.1  19.2  33784  283.23 0864.54
2015 04 09 10 35 32 .27       0    -70     19     71     74 180.0  15.3  33770  283.01 0864.54
2015 04 09 10 35 32 .51       8    -62     16     63     66 172.0  14.3  33768  282.98 0864.54
2015 04 09 10 35 32 .76       0    -50     10     51     52 180.9  11.1  33756  282.76 0864.54
2015 04 09 10 35 33 .01       7    -36     20     37     42 168.4  30.3  33762  282.86 0864.54
2015 04 09 10 35 33 .26       8     -8     16     12     20 135.0  58.5  33756  282.76 0864.54
2015 04 09 10 35 33 .52       5    -31     17     32     36 170.2  29.3  33760  282.84 0864.54
2015 04 09 10 35 33 .76     -16    -48     29     51     58 198.5  33.5  33772  283.03 0864.54
2015 04 09 10 35 34 .02     -16    -42     22     45     50 200.9  27.3  33770  282.99 0864.54
2015 04 09 10 35 34 .26     -16    -40     29     44     52 201.8  35.6  33778  283.13 0864.54
2015 04 09 10 35 34 .51      -3    -35     20     36     41 186.2  31.4  33780  283.18 0864.54
2015 04 09 10 35 34 .76     -10    -33     20     35     40 198.3  32.4  33768  282.96 0864.54
2015 04 09 10 35 35 .01     -10    -35     16     37     40 196.9  25.1  33762  282.86 0864.54
2015 04 09 10 35 35 .26     -12    -34     11     37     39 200.0  17.3  33746  282.61 0864.54
2015 04 09 10 35 35 .51     -12    -35      4     38     39 200.0   5.9  33744  282.57 0864.54
2015 04 09 10 35 35 .77     -17    -36     -1     40     41 205.5  -2.2  33740  282.51 0864.54
2015 04 09 10 35 36 .02     -10    -31     -6     33     34 198.3 -11.3  33742  282.54 0864.54
2015 04 09 10 35 36 .27      -6    -39    -14     40     42 189.8 -24.4  33740  282.49 0864.54
2015 04 09 10 35 36 .52     -20    -32    -10     38     40 212.5 -14.5  33742  282.52 0864.54
2015 04 09 10 35 36 .77      -8    -40    -15     41     43 191.6 -24.4  33740  282.51 0864.54
2015 04 09 10 35 37 .02     -13    -36    -21     39     44 200.0 -35.8  33742  282.52 0864.54
2015 04 09 10 35 37 .27     -23    -28    -17     37     40 219.6 -30.6  33744  282.57 0864.54
2015 04 09 10 35 37 .52     -44    -22    -21     50     54 243.8 -27.4  33736  282.42 0864.54
2015 04 09 10 35 37 .78     -27    -22    -14     36     38 230.5 -23.3  33746  282.61 0864.54
2015 04 09 10 35 38 .03     -16    -16    -10     23     25 225.0 -27.4  33746  282.61 0864.54
2015 04 09 10 35 38 .28     -15    -23     -3     28     29 214.3  -7.3  33750  282.67 0864.54
2015 04 09 10 35 38 .54     -15    -21     -8     26     27 216.1 -23.8  33754  282.72 0864.54
2015 04 09 10 35 38 .78     -28    -13    -14     32     34 244.6 -31.5  33750  282.66 0864.54
2015 04 09 10 35 39 .03     -46    -25    -11     53     55 241.1 -12.4  33740  282.51 0864.54
2015 04 09 10 35 39 .29     -43    -29     -2     52     53 235.8  -3.1  33750  282.66 0864.54
2015 04 09 10 35 39 .54     -37    -28      0     47     48 233.1   0.8  33748  282.64 0864.54
2015 04 09 10 35 39 .79     -33    -33     10     47     49 225.1  12.2  33756  282.76 0864.54
2015 04 09 10 35 40 .04     -32    -43     -2     54     55 217.0  -2.2  33750  282.67 0864.54
2015 04 09 10 35 40 .29     -39    -51      3     65     66 217.0   2.8  33758  282.79 0864.54
2015 04 09 10 35 40 .54     -47    -50     13     69     71 223.2  11.0  33758  282.79 0864.54
2015 04 09 10 35 40 .79     -40    -58     16     71     73 215.2  13.2  33770  282.99 0864.54
2015 04 09 10 35 41 .04     -32    -68      3     76     77 205.5   2.9  33774  283.08 0864.54
2015 04 09 10 35 41 .29     -22    -67    -14     71     73 198.3 -11.3  33774  283.08 0864.54
2015 04 09 10 35 41 .54     -50   -100     -2    113    114 206.7  -1.2  33774  283.08 0864.54
2015 04 09 10 35 41 .79     -47    -57     28     75     80 219.6  21.0  33772  283.03 0864.54
2015 04 09 10 35 42 .04     -55    -57     48     80     93 224.2  34.4  33794  283.41 0864.54
2015 04 09 10 35 42 .29     -55    -64     33     85     91 221.0  22.0  33798  283.48 0864.54
2015 04 09 10 35 42 .55     -51    -70     18     87     90 216.1  12.2  33772  283.03 0864.54
2015 04 09 10 35 42 .80     -60    -73     11     95     96 219.2   6.9  33782  283.19 0864.54
2015 04 09 10 35 43 .05     -53    -64    -10     84     85 219.6  -7.2  33798  283.48 0864.54
2015 04 09 10 35 43 .30     -27    -82     16     87     89 198.5  10.6  33806  283.61 0864.54
2015 04 09 10 35 43 .55     -21    -78     16     81     83 195.6  11.6  33804  283.56 0864.54
2015 04 09 10 35 43 .80     -15    -73     24     75     79 191.6  17.9  33802  283.55 0864.54
2015 04 09 10 35 44 .05      -6   -113      5    114    115 183.1   2.8  33824  283.90 0864.54
2015 04 09 10 35 44 .30     -28    -83     24     88     92 198.7  15.3  33844  284.25 0864.54
2015 04 09 10 35 44 .55     -72   -150     45    167    174 205.9  15.2  33786  283.28 0864.54
2015 04 09 10 35 44 .81     -80   -139      3    161    162 209.9   1.2  33736  282.42 0864.54
2015 04 09 10 35 45 .07     -74   -148     15    166    167 206.5   5.4  33772  283.03 0864.54
2015 04 09 10 35 45 .31     -83   -131      6    156    157 212.5   2.3  33780  283.18 0864.54
2015 04 09 10 35 45 .57     -58   -109     11    124    125 208.1   5.4  33810  283.68 0864.54
2015 04 09 10 35 45 .82     -89    -92     78    129    150 224.1  34.0  33830  284.02 0864.54
2015 04 09 10 35 46 .06     -83    -91     97    124    157 222.3  42.2  33834  284.08 0864.54
2015 04 09 10 36 32 .48    -174    -85    -13    194    195 243.8  -3.9  33716  282.09 0864.54
2015 04 09 10 36 32 .73    -162    -65    -14    175    176 248.0  -4.9  33714  282.05 0864.54
2015 04 09 10 36 32 .98    -163    -89    -15    186    187 241.4  -4.9  33724  282.22 0864.54
2015 04 09 10 36 33 .24    -171    -90    -18    194    195 242.2  -5.6  33766  282.93 0864.54
2015 04 09 10 36 33 .49    -192   -114    -16    224    225 239.3  -4.1  33754  282.74 0864.54
2015 04 09 10 36 33 .74    -173   -124    -11    214    215 234.3  -3.2  33748  282.62 0864.54
2015 04 09 10 36 34 .00    -150   -127      6    197    198 229.6   1.8  33748  282.64 0864.54
2015 04 09 10 36 34 .25    -140   -157     24    211    213 221.7   6.7  33790  283.33 0864.54
2015 04 09 10 36 34 .49    -139   -156     17    209    210 221.7   4.9  33798  283.48 0864.54
2015 04 09 10 36 34 .74    -129   -153     22    201    203 220.1   6.5  33798  283.46 0864.54
2015 04 09 10 36 34 .99    -141   -135      2    196    197 226.2   0.8  33772  283.04 0864.54
2015 04 09 10 36 35 .25    -147   -147      0    209    210 225.0   0.2  33766  282.94 0864.54
2015 04 09 10 36 35 .50    -148   -132     -4    199    200 228.2  -1.3  33774  283.08 0864.54
2015 04 09 10 36 35 .75    -138   -146     18    202    203 223.4   5.2  33808  283.65 0864.54
2015 04 09 10 36 35 .99    -133   -147     17    199    200 222.3   5.0  33774  283.06 0864.54
2015 04 09 10 36 36 .29    -158   -126      7    203    204 231.4   2.1  33782  283.21 0864.54
2015 04 09 10 36 36 .50    -166   -106     -7    198    199 237.4  -2.2  33772  283.04 0864.54
2015 04 09 10 36 36 .75    -162   -111    -28    197    200 235.4  -8.2  33774  283.08 0864.54
2015 04 09 10 36 37 .00    -147   -121     -7    191    192 230.5  -2.3  33774  283.08 0864.54
2015 04 09 10 36 37 .25    -114   -142     -4    183    184 218.7  -1.3  33774  283.08 0864.54
2015 04 09 10 36 37 .50    -108   -142      8    179    180 217.4   2.8  33776  283.09 0864.54
2015 04 09 10 36 37 .75    -127   -126      3    180    181 225.2   1.0  33776  283.09 0864.54
2015 04 09 10 36 38 .00    -128   -138     14    189    190 223.0   4.4  33784  283.23 0864.54
2015 04 09 10 36 38 .25    -124   -131     38    181    186 223.4  12.0  33774  283.08 0864.54
2015 04 09 10 36 38 .51    -123   -134     35    183    187 222.5  11.0  33790  283.33 0864.54
2015 04 09 10 36 38 .76    -118   -121     41    170    175 224.3  13.7  33808  283.65 0864.54
2015 04 09 10 36 39 .00    -116   -121     31    168    171 223.7  10.6  33798  283.48 0864.53
2015 04 09 10 36 39 .25    -116   -126     20    172    174 222.8   6.9  33782  283.19 0864.53
2015 04 09 10 36 39 .50    -117   -133     -2    178    179 221.4  -0.7  33770  282.99 0864.53
2015 04 09 10 36 39 .76    -113   -118     -9    164    165 223.9  -3.3  33766  282.94 0864.53
2015 04 09 10 36 40 .01     -99   -151      3    181    182 213.2   1.0  33770  282.99 0864.53
2015 04 09 10 36 40 .26     -98   -153      1    182    183 212.7   0.5  33760  282.84 0864.53
2015 04 09 10 36 40 .52     -93   -140    -24    169    171 213.6  -8.2  33764  282.89 0864.53
2015 04 09 10 36 40 .77    -134   -125    -32    184    187 226.9 -10.1  33768  282.98 0864.53
2015 04 09 10 36 41 .02    -124   -106    -25    164    166 229.6  -8.8  33816  283.78 0864.53
2015 04 09 10 36 41 .28    -123    -89    -13    152    153 234.0  -5.2  33886  284.94 0864.53
2015 04 09 10 36 41 .52    -134    -92     -4    163    164 235.4  -1.6  33914  285.43 0864.53
2015 04 09 10 36 41 .77    -153    -81    -21    174    176 242.2  -6.9  33872  284.72 0864.53
2015 04 09 10 36 42 .02    -136    -69     -4    153    154 242.9  -1.8  33900  285.18 0864.53
2015 04 09 10 36 42 .27    -148    -54    -18    158    160 250.0  -6.5  33810  283.66 0864.53
2015 04 09 10 36 42 .52    -110    -60    -13    126    127 241.1  -6.2  33820  283.83 0864.53
2015 04 09 10 36 42 .77    -100    -55     -2    115    116 241.1  -1.2  33846  284.27 0864.53
2015 04 09 10 36 43 .03     -85    -83      4    119    120 225.6   2.3  33830  284.00 0864.53
2015 04 09 10 36 43 .27     -33    -69     33     77     83 205.5  24.1  33868  284.64 0864.53
2015 04 09 10 36 43 .52     -30    -31     22     44     49 224.1  27.3  33856  284.45 0864.54
2015 04 09 10 36 43 .78     -28    -13     11     32     34 244.6  18.9  33868  284.64 0864.54
2015 04 09 10 36 44 .03       4    -22     57     23     61 168.4  77.1  33884  284.92 0864.54
2015 04 09 10 36 44 .28     -29     22     29     37     47 307.8  42.7  33890  285.01 0864.54
2015 04 09 10 36 44 .53    -121      0    -44    122    129 270.0 -24.8  33860  284.52 0864.54
2015 04 09 10 36 44 .78    -177      4    -31    178    181 271.5 -10.1  33848  284.32 0864.54
2015 04 09 10 36 45 .03     -78    -44     42     90     99 240.2  27.1  33884  284.91 0864.54
2015 04 09 10 36 45 .28    -124    -59    -28    138    141 244.6 -11.5  33872  284.72 0864.54
2015 04 09 10 36 45 .53    -128    -26    -37    131    137 258.5 -16.0  33866  284.62 0864.54
2015 04 09 10 36 45 .78    -106    -34     15    112    114 251.8   8.0  33874  284.76 0864.54
2015 04 09 10 36 46 .03     -64      0    -18     65     68 270.8 -15.4  33864  284.59 0864.54
2015 04 09 10 36 46 .28     -80      9    -28     81     85 277.0 -23.3  33846  284.28 0864.54
2015 04 09 10 36 46 .53    -160     43    -19    166    168 285.3  -6.7  33742  282.52 0864.54
2015 04 09 10 36 46 .79    -101    -13    -29    102    107 262.5 -16.0  33790  283.34 0864.54
2015 04 09 10 36 47 .03     -19    -31     58     37     68 212.6  64.7  33846  284.28 0864.54
2015 04 09 10 36 47 .29     -90      5      1     91     92 273.5   0.8  33798  283.46 0864.55
2015 04 09 10 36 47 .55     -73     40     33     84     90 298.9  22.0  33820  283.85 0864.55
2015 04 09 10 36 47 .79     -65     36    -45     75     87 298.9 -38.8  33806  283.60 0864.55
2015 04 09 10 36 48 .05    -166     58    -32    176    179 289.3 -10.5  33774  283.08 0864.55
2015 04 09 10 36 48 .30     -82     26      3     87     88 287.7   2.3  33800  283.50 0864.55
2015 04 09 10 36 48 .55    -104     50    -15    116    118 295.8  -7.7  33768  282.98 0864.55
2015 04 09 10 36 48 .80    -173     51    -25    181    183 286.4  -8.0  33738  282.46 0864.55
2015 04 09 10 36 49 .05    -166     47    -47    173    180 285.9 -15.2  33718  282.14 0864.54
2015 04 09 10 36 49 .30    -123     17    -24    125    128 278.0 -10.9  33742  282.52 0864.54
2015 04 09 10 36 49 .55    -158     16    -43    159    165 275.9 -15.2  33702  281.85 0864.54
2015 04 09 10 36 49 .80    -206     42    -43    211    216 281.5 -11.6  33690  281.65 0864.54
2015 04 09 10 36 50 .05    -192     36    -32    196    199 280.6  -9.3  33734  282.41 0864.54
2015 04 09 10 36 50 .30     -49     31      8     59     60 302.4   8.0  33760  282.83 0864.54
2015 04 09 10 36 50 .55     -50      1    -24     51     56 271.7 -31.5  33752  282.71 0864.54
2015 04 09 10 36 50 .80     -32     57     34     66     74 330.1  29.3  33768  282.96 0864.54
2015 04 09 10 36 51 .05     -24    -14     16     29     33 239.3  31.4  33774  283.06 0864.54
2015 04 09 10 36 51 .30      48    -49     38     69     78 135.9  30.8  33756  282.76 0864.54
2015 04 09 10 36 51 .56     -98    -39    -38    106    113 248.2 -19.7  33798  283.46 0864.55
2015 04 09 10 36 51 .80    -131   -104    -44    168    174 231.6 -14.7  33780  283.18 0864.55
2015 04 09 10 36 52 .05    -199    -65    -42    210    215 251.8 -11.3  33792  283.36 0864.55
2015 04 09 10 36 52 .31    -211    -76    -45    225    230 250.1 -11.3  33786  283.28 0864.55
2015 04 09 10 36 52 .55     -80    -81     52    114    125 224.7  26.2  33838  284.15 0864.55
2015 04 09 10 36 52 .81     -32     20     37     39     53 302.5  50.0  33850  284.34 0864.55
2015 04 09 10 36 53 .06       2    -81     14     82     84 178.2  10.1  33818  283.80 0864.55
2015 04 09 10 36 53 .31    -117   -103     20    157    159 228.7   7.5  33820  283.85 0864.55
2015 04 09 10 36 53 .56    -125    -59    -13    139    140 244.6  -5.6  33832  284.03 0864.55
2015 04 09 10 36 53 .81     -73    -60      4     95     96 230.5   2.8  33836  284.12 0864.55
2015 04 09 10 36 54 .06     -46    -14     -6     49     50 253.2  -7.3  33852  284.37 0864.55
2015 04 09 10 36 54 .32     -47      1    -12     48     50 271.7 -14.5  33852  284.37 0864.55
2015 04 09 10 36 54 .57    -145    -50    -39    154    159 250.9 -14.3  33860  284.50 0864.55
2015 04 09 10 36 54 .82    -113     -8    -18    114    116 265.7  -9.3  33858  284.47 0864.55
2015 04 09 10 36 55 .07     -98     29     -1    103    104 286.4  -0.7  33858  284.49 0864.55
2015 04 09 10 36 55 .33    -148      6     11    149    150 272.6   4.4  33828  283.97 0864.55
2015 04 09 10 36 55 .57     -32    -50     41     60     72 212.6  37.6  33874  284.74 0864.55
2015 04 09 10 36 55 .83    -181     32    -25    184    186 280.1  -8.0  33846  284.28 0864.55
2015 04 09 10 36 56 .08    -115     44      7    124    125 290.8   3.3  33840  284.17 0864.55
2015 04 09 10 36 56 .33     -16    -23     23     29     37 214.3  43.7  33848  284.30 0864.54
2015 04 09 10 36 56 .58    -137    -83     -6    161    162 238.9  -2.2  33882  284.89 0864.54
2015 04 09 10 36 56 .82    -147   -121     -7    191    192 230.5  -2.3  33868  284.64 0864.54
2015 04 09 10 36 57 .07    -140   -118    -16    184    185 230.0  -5.2  33838  284.13 0864.54
2015 04 09 10 36 57 .33    -114   -100    -19    153    155 228.7  -7.3  33844  284.23 0864.54
2015 04 09 10 36 57 .57    -113    -34     14    119    120 253.2   6.9  33846  284.27 0864.54
2015 04 09 10 36 57 .82    -200    -31    -46    203    209 261.0 -12.9  33706  281.94 0864.54
2015 04 09 10 36 58 .08    -182    -34    -40    186    191 259.2 -12.4  33696  281.75 0864.55
2015 04 09 10 36 58 .33    -169    -80    -24    188    190 244.7  -7.3  33792  283.36 0864.55
2015 04 09 10 36 58 .58    -139    -28    -12    142    143 258.5  -5.1  33754  282.72 0864.55
2015 04 09 10 36 58 .83    -183    -87    -25    203    205 244.5  -7.2  33718  282.12 0864.55
2015 04 09 10 36 59 .08    -201    -84    -28    219    221 247.2  -7.3  33700  281.84 0864.55
2015 04 09 10 36 59 .33    -209    -72    -33    222    225 250.9  -8.6  33694  281.72 0864.55
2015 04 09 10 36 59 .58    -190    -38    -46    194    200 258.5 -13.4  33706  281.92 0864.55
2015 04 09 10 36 59 .83    -128    -40    -13    135    136 252.7  -5.6  33752  282.69 0864.55
2015 04 09 10 37 00 .08    -118    -43    -10    126    127 249.6  -4.6  33734  282.39 0864.55
2015 04 09 10 37 00 .33    -135    -45    -28    143    146 251.6 -11.3  33724  282.22 0864.55
2015 04 09 10 37 00 .58    -163    -48    -33    170    174 253.6 -11.1  33678  281.47 0864.55
2015 04 09 10 37 00 .83    -178    -56    -41    187    192 252.3 -12.4  33676  281.44 0864.54
2015 04 09 10 37 01 .08    -171    -54    -32    180    183 252.5 -10.1  33682  281.52 0864.54
2015 04 09 10 37 01 .34    -177    -52    -28    185    188 253.6  -8.8  33676  281.44 0864.54
2015 04 09 10 37 01 .60    -182    -26    -25    184    186 261.6  -8.0  33762  282.88 0864.54
2015 04 09 10 37 01 .85    -153    -46    -15    160    161 253.2  -5.4  33778  283.14 0864.54
2015 04 09 10 37 02 .10    -140    -77     -6    160    161 241.1  -2.2  33774  283.08 0864.54
2015 04 09 10 37 02 .35    -104    -44    -16    114    116 246.9  -8.2  33764  282.89 0864.54
2015 04 09 10 37 02 .60     -57     31     20     66     70 298.9  17.3  33792  283.38 0864.54
2015 04 09 10 37 02 .85    -110    -22     -5    113    114 258.6  -2.6  33808  283.65 0864.54
2015 04 09 10 37 03 .10     -86    -53     -7    102    103 238.5  -4.1  33814  283.75 0864.54
2015 04 09 10 37 03 .35    -188      4    -45    189    195 271.3 -13.4  33740  282.51 0864.54
2015 04 09 10 37 03 .60    -208     18    -57    209    217 275.2 -15.4  33698  281.79 0864.54
2015 04 09 10 37 03 .86    -178     14    -41    179    184 274.8 -13.2  33718  282.14 0864.54
2015 04 09 10 37 04 .11    -125     36     -2    131    132 286.4  -1.3  33784  283.23 0864.54
2015 04 09 10 37 04 .35    -154     50    -36    163    168 288.2 -12.6  33808  283.65 0864.54
2015 04 09 10 37 04 .60    -136    -12      6    137    138 264.8   2.8  33824  283.92 0864.54
2015 04 09 10 37 04 .85     -35    -32     18     48     51 227.8  21.0  33810  283.66 0864.54
2015 04 09 10 37 05 .10    -176    -13    -41    177    182 265.7 -13.2  33692  281.69 0864.54
2015 04 09 10 37 05 .36    -165     -8    -57    166    176 267.0 -18.9  33740  282.51 0864.54
2015 04 09 10 37 05 .61     -72      5     -9     73     74 274.3  -7.3  33808  283.63 0864.54
2015 04 09 10 37 05 .86     -32     52    -23     62     66 328.4 -24.4  33826  283.95 0864.54
2015 04 09 10 37 06 .10     -10     16    -23     20     30 327.5 -60.7  33824  283.90 0864.54
2015 04 09 10 37 06 .36       5     21     18     22     28  13.4  45.8  33822  283.88 0864.54
2015 04 09 10 37 06 .61       2    -42     35     43     55 177.3  43.7  33834  284.08 0864.54
2015 04 09 10 37 06 .86       0    -55     55     56     78 180.0  52.0  33866  284.60 0864.54
2015 04 09 10 37 07 .10     -14    -27     31     31     43 207.2  50.1  33884  284.92 0864.54
2015 04 09 10 37 07 .36     -50    -59     36     78     85 220.5  26.6  33894  285.07 0864.54
2015 04 09 10 37 07 .61     -56    -68    -19     89     92 219.6 -12.4  33884  284.91 0864.54
2015 04 09 10 37 07 .86     -46     28     -2     54     55 301.5  -2.2  33880  284.86 0864.54
2015 04 09 10 37 08 .11     -69      7     15     70     72 276.1  12.2  33842  284.22 0864.54
2015 04 09 10 37 08 .37    -149    -35    -21    154    156 256.7  -8.0  33786  283.28 0864.54
2015 04 09 10 37 08 .63    -140      0    -18    141    143 270.0  -7.3  33772  283.04 0864.54
2015 04 09 10 37 08 .87    -160     -2     -6    161    162 269.1  -2.2  33736  282.44 0864.54
2015 04 09 10 37 09 .12    -211    -23    -50    213    219 263.8 -13.4  33702  281.85 0864.54
2015 04 09 10 37 09 .38    -155    -11    -31    156    160 265.6 -11.3  33786  283.28 0864.54
2015 04 09 10 37 09 .62     -79    -13    -24     81     84 260.3 -21.7  33820  283.85 0864.54
2015 04 09 10 37 09 .87    -170     -8    -34    171    175 267.0 -11.3  33708  281.97 0864.54
2015 04 09 10 37 10 .13    -177     -1    -50    178    185 269.6 -15.8  33682  281.52 0864.54
2015 04 09 10 37 10 .37    -187     -4    -36    188    192 268.5 -11.1  33678  281.47 0864.54
2015 04 09 10 37 10 .63    -180    -12    -46    181    187 265.9 -14.3  33678  281.47 0864.54
2015 04 09 10 37 10 .87    -185      1    -44    186    192 270.4 -13.3  33676  281.44 0864.54
2015 04 09 10 37 11 .13    -171     -4    -50    172    180 268.5 -16.4  33698  281.79 0864.54
2015 04 09 10 37 11 .38     -87     15     -8     89     90 280.1  -5.6  33770  283.01 0864.54
2015 04 09 10 37 11 .63     -60     49     -1     78     79 309.5  -1.3  33790  283.33 0864.54
2015 04 09 10 37 11 .88      -9      8     29     13     31 313.3  73.1  33818  283.80 0864.54
2015 04 09 10 37 12 .13     -16      8      0     19     20 297.1  -2.2  33820  283.83 0864.54
2015 04 09 10 37 12 .38      -1     69      9     70     71 359.1   8.0  33830  284.02 0864.54
2015 04 09 10 37 12 .63       0    -44     74     45     86 180.0  65.7  33824  283.90 0864.53
2015 04 09 10 37 12 .88     -16     -7     23     18     29 244.7  56.4  33838  284.15 0864.53
2015 04 09 10 37 13 .13    -120     22    -16    123    125 280.6  -7.7  33822  283.88 0864.53
2015 04 09 10 37 13 .38     -10    -20     23     23     32 207.2  50.1  33844  284.25 0864.53
2015 04 09 10 37 13 .64      32      6     32     33     45  78.6  50.0  33872  284.72 0864.53
2015 04 09 10 37 13 .88     -93     23    -57     96    111 284.2 -37.9  33884  284.91 0864.53
2015 04 09 10 37 14 .14     -89     44     45    100    109 296.2  26.2  33882  284.87 0864.53
2015 04 09 10 37 14 .39     -62    -16     -3     65     66 255.0  -3.1  33902  285.21 0864.54
2015 04 09 10 37 14 .64     -99    -97    -22    139    141 225.6  -9.4  33948  285.98 0864.54
2015 04 09 10 37 14 .88    -180      0    -39    181    186 270.0 -12.2  33698  281.80 0864.54
2015 04 09 10 37 15 .14    -191    -13    -40    192    197 265.9 -11.9  33678  281.47 0864.54
2015 04 09 10 37 15 .40    -183     -4    -37    184    188 268.7 -11.6  33680  281.50 0864.53
2015 04 09 10 37 15 .65    -179      7    -47    180    187 272.4 -14.7  33700  281.82 0864.53
2015 04 09 10 37 15 .90    -180    -35    -21    184    186 258.8  -6.7  33720  282.17 0864.53
2015 04 09 10 37 16 .15    -192    -19    -42    194    199 264.1 -12.4  33710  281.99 0864.53
2015 04 09 10 37 16 .40    -187     -1    -52    188    196 269.4 -15.5  33716  282.11 0864.53
2015 04 09 10 37 16 .66    -167     -5    -51    168    176 268.3 -17.0  33692  281.69 0864.53
2015 04 09 10 37 16 .90    -185     -4    -44    186    192 268.5 -13.3  33708  281.95 0864.53
2015 04 09 10 37 17 .16    -163     14    -40    164    169 275.2 -13.9  33726  282.26 0864.54
2015 04 09 10 37 17 .40    -155     39    -31    160    164 284.2 -11.1  33750  282.66 0864.54
2015 04 09 10 37 17 .65     -54     24     -2     60     61 294.4  -2.2  33758  282.81 0864.54
2015 04 09 10 37 17 .90     -33     12    -21     36     41 290.0 -36.8  33778  283.14 0864.54
2015 04 09 10 37 18 .15     -90      2    -29     91     95 271.3 -23.8  33788  283.31 0864.54
2015 04 09 10 37 18 .41    -105      0     22    106    109 269.6  12.2  33780  283.18 0864.54
2015 04 09 10 37 18 .65    -195    -40    -36    200    204 258.3 -10.3  33756  282.76 0864.54
2015 04 09 10 37 18 .91    -189   -104     -8    216    217 241.2  -2.2  33752  282.69 0864.54
2015 04 09 10 37 19 .16    -193    -67    -36    205    209 250.7 -10.1  33774  283.08 0864.54
2015 04 09 10 37 19 .41    -227    -41    -42    231    235 259.6 -10.5  33770  282.99 0864.54
2015 04 09 10 37 19 .65    -216     -6    -51    217    223 268.3 -13.3  33678  281.45 0864.54
2015 04 09 10 37 19 .90    -215    -16    -60    216    225 265.6 -15.5  33678  281.45 0864.54
2015 04 09 10 37 20 .15    -214    -16    -47    215    221 265.6 -12.4  33676  281.42 0864.54
2015 04 09 10 37 20 .41    -203    -13    -49    204    210 266.3 -13.7  33678  281.45 0864.54
2015 04 09 10 37 20 .66    -198    -27    -40    200    204 262.1 -11.3  33678  281.45 0864.54
2015 04 09 10 37 20 .91    -199    -35    -45    203    209 259.9 -12.6  33678  281.45 0864.55
2015 04 09 10 37 21 .16    -196    -44    -40    201    205 257.2 -11.3  33678  281.45 0864.55
2015 04 09 10 37 21 .41    -196    -39    -49    200    207 258.5 -13.9  33674  281.40 0864.55
2015 04 09 10 37 21 .66    -196    -44    -40    201    205 257.2 -11.3  33678  281.45 0864.55
2015 04 09 10 37 21 .92    -187    -36    -36    191    195 259.0 -10.9  33678  281.47 0864.55
2015 04 09 10 37 22 .18    -150     -3    -19    151    153 268.7  -7.3  33714  282.07 0864.55
2015 04 09 10 37 22 .43    -174     -4    -35    175    179 268.5 -11.5  33698  281.79 0864.55
2015 04 09 10 37 22 .67    -166    -29    -47    169    176 260.1 -15.5  33688  281.62 0864.55
2015 04 09 10 37 22 .93    -144      8    -34    145    150 273.5 -13.4  33694  281.72 0864.55
2015 04 09 10 37 23 .17    -161     -3    -42    162    168 268.7 -14.5  33682  281.52 0864.55
2015 04 09 10 37 23 .43    -152     -2    -35    153    158 269.2 -13.2  33684  281.57 0864.55
2015 04 09 10 37 23 .68    -124      0    -15    125    126 269.6  -7.2  33706  281.94 0864.55
2015 04 09 10 37 23 .93    -135    -27    -12    138    139 258.5  -5.2  33698  281.80 0864.55
2015 04 09 10 37 24 .18    -139    -17    -35    141    146 263.0 -13.9  33680  281.50 0864.55
2015 04 09 10 37 24 .43    -157    -44    -53    164    173 254.3 -17.9  33688  281.62 0864.55
2015 04 09 10 37 24 .68    -135     -9    -28    136    139 266.1 -11.9  33688  281.62 0864.55
2015 04 09 10 37 24 .93    -139    -12    -24    140    143 264.8  -9.8  33682  281.52 0864.55
2015 04 09 10 37 25 .18    -158    -30    -33    161    165 259.0 -11.9  33680  281.49 0864.55
2015 04 09 10 37 25 .43    -173    -28    -36    176    180 260.8 -11.6  33692  281.69 0864.54
2015 04 09 10 37 25 .68    -156    -27    -32    159    163 259.9 -11.3  33706  281.94 0864.54
2015 04 09 10 37 25 .93    -128    -41    -12    135    136 252.3  -5.2  33716  282.11 0864.54
2015 04 09 10 37 26 .18     -66    -64     33     93     98 226.0  20.0  33740  282.51 0864.54
2015 04 09 10 37 26 .43     -80    -16     -8     82     83 258.5  -6.2  33744  282.56 0864.54
2015 04 09 10 37 26 .68    -101     -3    -32    102    106 267.9 -23.3  33710  281.99 0864.54
2015 04 09 10 37 26 .93    -131     11      1    132    133 275.2   0.7  33726  282.26 0864.54
2015 04 09 10 37 27 .19    -136    -35    -39    141    147 255.4 -15.5  33722  282.19 0864.54
2015 04 09 10 37 27 .44     -72    -38     -3     82     83 242.0  -2.6  33758  282.81 0864.54
2015 04 09 10 37 27 .68     -65    -25     11     70     71 248.3   9.0  33758  282.81 0864.54
2015 04 09 10 37 27 .93    -131    -20    -16    133    135 261.2  -7.2  33696  281.77 0864.54
2015 04 09 10 37 28 .19    -107    -16    -38    109    115 261.2 -23.3  33710  282.00 0864.54
2015 04 09 10 37 28 .44    -127    -17    -28    129    133 262.1 -12.4  33714  282.05 0864.54
2015 04 09 10 37 28 .69    -126    -17     -2    128    129 262.1  -1.2  33712  282.02 0864.54
2015 04 09 10 37 28 .94    -130    -30    -15    134    135 256.7  -6.7  33704  281.90 0864.54
2015 04 09 10 37 29 .20    -114     -3     -3    115    116 268.3  -1.8  33708  281.95 0864.54
2015 04 09 10 37 29 .45     -75    -28     -7     81     82 249.2  -5.6  33716  282.09 0864.54
2015 04 09 10 37 29 .70     -44     -4     -1     45     46 263.9  -2.2  33738  282.47 0864.54
2015 04 09 10 37 29 .95     -62     12    -27     64     69 281.5 -27.5  33734  282.39 0864.54
2015 04 09 10 37 30 .20      -8     -2     22      9     23 251.8  79.2  33770  282.99 0864.54
2015 04 09 10 37 30 .45     -25     14     14     29     32 298.9  27.2  33766  282.94 0864.54
2015 04 09 10 37 30 .71    -149      3    -49    150    159 271.3 -18.3  33728  282.29 0864.54
2015 04 09 10 37 30 .96    -153     11    -16    154    155 274.4  -6.0  33744  282.56 0864.54
2015 04 09 10 37 31 .21     -68     18      8     71     72 285.0   7.1  33762  282.86 0864.54
2015 04 09 10 37 31 .45     -74      9     13     75     77 277.0  10.1  33758  282.79 0864.54
2015 04 09 10 37 31 .71     -62    -20    -18     66     69 251.6 -15.5  33744  282.57 0864.54
2015 04 09 10 37 31 .96     -46    -74     10     88     89 211.6   6.9  33772  283.04 0864.54
2015 04 09 10 37 32 .21    -120     -7    -38    121    127 266.5 -17.5  33770  282.99 0864.54
2015 04 09 10 37 32 .46    -111    -53    -22    124    127 244.2 -10.3  33776  283.09 0864.54
2015 04 09 10 37 32 .71     -25    -40     -7     48     49 212.5  -9.3  33784  283.23 0864.54
2015 04 09 10 37 32 .96     -85     16    -26     87     90 281.0 -21.2  33798  283.48 0864.54
2015 04 09 10 37 33 .21     -73    -38     25     83     87 242.0  16.8  33798  283.48 0864.54
2015 04 09 10 37 33 .45     -28    -35     24     46     51 218.7  29.3  33808  283.65 0864.54
2015 04 09 10 37 33 .71     -46    -13     -1     48     49 254.1  -2.2  33792  283.36 0864.54
2015 04 09 10 37 33 .96     -15     15     -9     22     23 314.9 -25.4  33836  284.10 0864.54
2015 04 09 10 37 34 .21      -4     12      9     13     15 341.3  35.6  33844  284.23 0864.54
2015 04 09 10 37 34 .46    -207     27    -44    209    214 277.7 -11.9  33764  282.89 0864.54
2015 04 09 10 37 34 .71    -189     23    -54    191    199 277.2 -16.0  33746  282.61 0864.54
2015 04 09 10 37 34 .96    -149     27    -24    152    154 280.6  -9.0  33758  282.79 0864.54
2015 04 09 10 37 35 .21    -164     54    -34    173    177 288.4 -11.3  33760  282.84 0864.54
2015 04 09 10 37 35 .47    -165     18    -23    167    169 276.4  -8.0  33778  283.14 0864.54
2015 04 09 10 37 35 .75    -171     41    -30    176    179 283.7  -9.8  33790  283.34 0864.54
2015 04 09 10 37 35 .98    -138    -21    -33    140    144 261.2 -13.4  33784  283.24 0864.54
2015 04 09 10 37 36 .22    -122     24    -13    125    126 281.4  -6.2  33778  283.14 0864.54
2015 04 09 10 37 36 .47    -134     24    -19    137    139 280.1  -8.2  33750  282.66 0864.54
2015 04 09 10 37 36 .73    -132     50    -24    142    145 290.8  -9.8  33752  282.71 0864.54
2015 04 09 10 37 36 .98    -100     28    -28    104    108 285.9 -15.4  33786  283.26 0864.54
2015 04 09 10 37 37 .23     -81     17    -18     83     85 281.9 -12.4  33778  283.13 0864.54
2015 04 09 10 37 37 .48    -112     43    -14    121    122 291.3  -6.7  33768  282.96 0864.54
2015 04 09 10 37 37 .73    -205     83    -44    222    227 292.2 -11.3  33732  282.36 0864.54
2015 04 09 10 37 37 .98     -27     74    -11     79     80 340.0  -8.2  33780  283.16 0864.54
2015 04 09 10 37 38 .23    -177     89    -32    199    202 296.6  -9.4  33758  282.81 0864.54
2015 04 09 10 37 38 .48    -242     64    -32    251    254 285.0  -7.3  33706  281.93 0864.54
2015 04 09 10 37 38 .73    -262     91    -45    278    282 289.3  -9.3  33692  281.70 0864.54
2015 04 09 10 37 38 .98    -271     86    -38    285    288 287.7  -7.7  33688  281.63 0864.54
2015 04 09 10 37 39 .23    -257     84    -34    271    274 288.2  -7.2  33690  281.66 0864.54
2015 04 09 10 37 39 .48    -252     84    -42    266    270 288.6  -9.0  33688  281.61 0864.54
2015 04 09 10 37 39 .73    -248     62    -34    256    259 284.1  -7.7  33728  282.28 0864.54
2015 04 09 10 37 39 .98    -231     50    -32    237    240 282.4  -7.7  33716  282.10 0864.54
2015 04 09 10 37 40 .23    -232     59    -27    240    242 284.4  -6.5  33694  281.71 0864.54
2015 04 09 10 37 40 .48    -229     91    -45    247    252 291.8 -10.5  33688  281.61 0864.54
2015 04 09 10 37 40 .74    -223    105    -44    247    252 295.2 -10.3  33696  281.75 0864.54
2015 04 09 10 37 40 .99    -204    112    -33    233    236 298.9  -8.2  33704  281.90 0864.54
2015 04 09 10 37 41 .24    -213    103    -43    237    241 296.0 -10.4  33698  281.80 0864.54
2015 04 09 10 37 41 .48    -201    100    -37    225    229 296.6  -9.4  33690  281.67 0864.54
2015 04 09 10 37 41 .74    -200    113    -29    230    232 299.5  -7.2  33698  281.79 0864.54
2015 04 09 10 37 41 .99    -217    113    -33    245    248 297.5  -7.7  33704  281.90 0864.54
2015 04 09 10 37 42 .24    -186    104    -27    214    216 299.3  -7.3  33718  282.14 0864.54
2015 04 09 10 37 42 .49    -154    105    -52    187    195 304.4 -15.5  33740  282.51 0864.54
2015 04 09 10 37 42 .74    -155     95    -46    182    188 301.5 -14.3  33778  283.14 0864.54
2015 04 09 10 37 43 .00    -176     82    -33    195    198 295.1  -9.6  33728  282.29 0864.54
2015 04 09 10 37 43 .25    -194     78    -34    210    213 291.8  -9.3  33700  281.82 0864.54
2015 04 09 10 37 43 .50    -188    127    -15    228    229 304.1  -3.9  33704  281.89 0864.54
2015 04 09 10 37 43 .75    -194    127    -46    233    238 303.3 -11.3  33718  282.13 0864.54
2015 04 09 10 37 44 .01    -187    141    -34    235    238 307.1  -8.2  33738  282.47 0864.54
2015 04 09 10 37 44 .25    -180    124    -20    219    221 304.6  -5.4  33716  282.11 0864.54
2015 04 09 10 37 44 .51    -158    134    -26    208    210 310.4  -7.2  33708  281.95 0864.54
2015 04 09 10 37 44 .75    -151    122     -5    195    196 309.1  -1.6  33718  282.14 0864.54
2015 04 09 10 37 45 .01    -168    114     -7    204    205 304.1  -2.2  33698  281.79 0864.54
2015 04 09 10 37 45 .26    -145    128    -39    194    199 311.3 -11.6  33698  281.80 0864.54
2015 04 09 10 37 45 .51    -128    106    -36    167    172 309.8 -12.4  33694  281.72 0864.54
2015 04 09 10 37 45 .76    -128     83    -46    153    160 302.9 -16.8  33694  281.72 0864.54
2015 04 09 10 37 46 .00    -111     80    -49    138    147 305.9 -19.7  33694  281.72 0864.54
2015 04 09 10 37 46 .25    -120     76    -37    143    148 302.5 -14.5  33690  281.67 0864.54
2015 04 09 10 37 46 .51    -135     74    -37    154    159 298.8 -13.7  33690  281.65 0864.54
2015 04 09 10 37 46 .76    -115     62    -31    131    135 298.4 -13.4  33688  281.62 0864.54
2015 04 09 10 37 47 .01    -110     51    -15    122    123 295.2  -7.2  33690  281.67 0864.54
2015 04 09 10 37 47 .26    -114     50    -19    125    127 294.0  -8.8  33694  281.72 0864.54
2015 04 09 10 37 47 .51    -143     71    -14    160    161 296.4  -5.2  33694  281.72 0864.54
2015 04 09 10 37 47 .76    -148     53    -21    158    160 289.9  -7.7  33708  281.97 0864.54
2015 04 09 10 37 48 .01    -164     49    -33    172    176 286.6 -11.1  33724  282.22 0864.54
2015 04 09 10 37 48 .26    -155     44    -20    162    164 285.9  -7.3  33702  281.87 0864.54
2015 04 09 10 37 48 .51    -135     43    -43    142    149 287.7 -17.0  33694  281.72 0864.54
2015 04 09 10 37 48 .76    -150     48    -32    158    162 287.7 -11.6  33692  281.70 0864.54
2015 04 09 10 37 49 .01    -144     57    -40    155    161 291.7 -14.7  33690  281.67 0864.54
2015 04 09 10 37 49 .26    -139     65    -42    154    160 295.3 -15.5  33690  281.65 0864.54
2015 04 09 10 37 49 .51    -129     66    -40    145    151 297.1 -15.4  33684  281.57 0864.54
2015 04 09 10 37 49 .77    -124     69    -32    143    147 299.3 -12.9  33696  281.75 0864.54
2015 04 09 10 37 50 .02    -164     51    -23    172    174 287.5  -7.7  33692  281.70 0864.54
2015 04 09 10 37 50 .27    -159     81    -25    179    181 297.1  -8.2  33684  281.57 0864.54
2015 04 09 10 37 50 .53    -159     85    -27    181    184 298.2  -8.6  33692  281.70 0864.54
2015 04 09 10 37 50 .78    -156     76    -24    174    176 296.2  -8.0  33680  281.49 0864.54
2015 04 09 10 37 51 .03    -158     77    -43    176    182 296.0 -13.9  33682  281.54 0864.54
2015 04 09 10 37 51 .28    -141     99    -14    173    174 305.1  -4.9  33690  281.65 0864.54
2015 04 09 10 37 51 .53    -143     85    -22    167    169 300.9  -7.7  33702  281.85 0864.54
2015 04 09 10 37 51 .78    -150     80    -22    171    173 298.2  -7.5  33690  281.65 0864.54
2015 04 09 10 37 52 .02    -135     81    -39    158    163 301.1 -13.9  33684  281.55 0864.54
2015 04 09 10 37 52 .28    -149     69    -42    165    171 295.1 -14.3  33682  281.52 0864.54
2015 04 09 10 37 52 .53    -154     70    -39    170    175 294.4 -12.9  33682  281.54 0864.54
2015 04 09 10 37 52 .78    -158     56    -41    168    174 289.5 -13.9  33706  281.94 0864.54
2015 04 09 10 37 53 .03    -159     61    -35    171    175 291.1 -11.6  33706  281.92 0864.54
2015 04 09 10 37 53 .29    -142     51    -27    152    155 290.0 -10.3  33714  282.05 0864.54
2015 04 09 10 37 53 .54    -153     62    -25    166    168 292.2  -8.8  33728  282.31 0864.54
2015 04 09 10 37 53 .78     -78     73    -13    108    109 313.1  -7.2  33740  282.49 0864.54
2015 04 09 10 37 54 .04    -153     48    -18    161    163 287.5  -6.5  33720  282.17 0864.54
2015 04 09 10 37 54 .28    -162     81    -33    182    186 296.6 -10.5  33728  282.29 0864.54
2015 04 09 10 37 54 .54    -175     71    -26    190    192 292.2  -8.0  33726  282.26 0864.54
2015 04 09 10 37 54 .79    -173     69    -32    187    190 291.8  -9.8  33728  282.29 0864.54
2015 04 09 10 37 55 .04    -135     74    -23    155    157 298.8  -8.6  33742  282.54 0864.54
2015 04 09 10 37 55 .29    -158     99    -26    187    189 302.2  -8.0  33734  282.41 0864.54
2015 04 09 10 37 55 .54    -153    111    -17    190    191 305.9  -5.4  33742  282.52 0864.54
2015 04 09 10 37 55 .79    -149    120    -24    192    194 308.9  -7.2  33712  282.04 0864.54
2015 04 09 10 37 56 .04    -149    120    -15    192    193 308.9  -4.6  33712  282.02 0864.54
2015 04 09 10 37 56 .29    -150     96    -30    179    182 302.6  -9.8  33690  281.67 0864.54
2015 04 09 10 37 56 .55    -136    101    -35    170    174 306.6 -11.9  33696  281.77 0864.54
2015 04 09 10 37 56 .79    -111     70      4    132    133 302.4   1.8  33710  281.99 0864.54
2015 04 09 10 37 57 .05    -128     76    -41    149    155 300.7 -15.4  33686  281.60 0864.54
2015 04 09 10 37 57 .30    -124     84    -31    150    154 304.2 -11.9  33686  281.60 0864.54
2015 04 09 10 37 57 .56    -122     75    -29    144    147 301.5 -11.5  33698  281.79 0864.54
2015 04 09 10 37 57 .80    -127     81    -19    151    153 302.5  -7.3  33716  282.09 0864.54
2015 04 09 10 37 58 .05    -137     70    -32    154    158 297.1 -11.9  33712  282.02 0864.54
2015 04 09 10 37 58 .31    -163    108    -21    196    198 303.5  -6.2  33722  282.19 0864.54
2015 04 09 10 37 58 .55    -153    102    -64    185    195 303.7 -23.8  33724  282.22 0864.54
2015 04 09 10 37 58 .81    -138     61    -25    152    155 294.0  -9.4  33738  282.46 0864.54
2015 04 09 10 37 59 .06    -149     71    -14    166    167 295.5  -4.9  33748  282.64 0864.54
2015 04 09 10 37 59 .32    -150     35    -23    155    157 283.2  -8.6  33746  282.59 0864.54
2015 04 09 10 37 59 .56    -156     52    -21    165    167 288.4  -7.3  33742  282.54 0864.54
2015 04 09 10 37 59 .81    -172     79    -17    190    191 294.6  -5.2  33784  283.23 0864.54
2015 04 09 10 38 00 .06    -166     66    -16    179    180 291.7  -5.2  33790  283.33 0864.54
2015 04 09 10 38 00 .31    -185     81     -9    203    204 293.7  -2.8  33780  283.16 0864.54
2015 04 09 10 38 00 .56    -198     92    -28    219    221 295.1  -7.3  33712  282.04 0864.54
2015 04 09 10 38 00 .82    -163     90    -24    187    189 298.9  -7.3  33722  282.21 0864.54
2015 04 09 10 38 01 .07    -179     78    -35    196    200 293.5 -10.3  33760  282.84 0864.54
2015 04 09 10 38 01 .31    -179    109    -34    210    213 301.3  -9.3  33752  282.69 0864.54
2015 04 09 10 38 01 .56    -171    105    -51    201    208 301.5 -14.3  33758  282.79 0864.54
2015 04 09 10 38 01 .81    -179    116    -58    214    222 303.1 -15.4  33756  282.77 0864.54
2015 04 09 10 38 02 .07    -166    148    -28    223    225 311.6  -7.2  33764  282.89 0864.54
2015 04 09 10 38 02 .32    -135    148    -25    201    203 317.5  -7.3  33758  282.81 0864.54
2015 04 09 10 38 02 .57     -63    100     37    119    125 327.9  17.3  33772  283.04 0864.54
2015 04 09 10 38 02 .82     -71    106     57    128    140 326.2  25.2  33776  283.09 0864.54
2015 04 09 10 38 03 .07     -37    101     21    108    111 339.5  11.1  33784  283.24 0864.54
2015 04 09 10 38 03 .32    -138    100    -22    171    173 306.0  -7.5  33738  282.47 0864.54
2015 04 09 10 38 03 .57    -119    119    -16    169    170 315.0  -5.6  33758  282.81 0864.55
2015 04 09 10 38 03 .83    -131    110    -22    172    174 310.2  -7.5  33744  282.57 0864.55
2015 04 09 10 38 04 .08    -151    107    -17    186    187 305.3  -5.4  33752  282.71 0864.55
2015 04 09 10 38 04 .33    -143    106    -36    179    183 306.6 -11.6  33752  282.71 0864.55
2015 04 09 10 38 04 .58    -122    101     -4    159    160 309.5  -1.6  33784  283.24 0864.55
2015 04 09 10 38 04 .83    -135     95    -15    166    167 305.1  -5.2  33776  283.09 0864.55
2015 04 09 10 38 05 .08     -57     73     30     93     98 322.2  17.9  33792  283.38 0864.55
2015 04 09 10 38 05 .33    -163    106    -17    195    196 303.1  -5.2  33784  283.24 0864.54
2015 04 09 10 38 05 .58    -148     94    -29    176    179 302.4  -9.6  33782  283.21 0864.54
2015 04 09 10 38 05 .83    -137    119     -1    182    183 311.1  -0.5  33806  283.61 0864.54
2015 04 09 10 38 06 .08     -91    117    -13    149    150 322.2  -5.2  33776  283.11 0864.54
2015 04 09 10 38 06 .34    -131     91    -32    160    164 304.9 -11.6  33758  282.79 0864.54
2015 04 09 10 38 06 .58    -117     99    -14    154    155 310.0  -5.2  33766  282.94 0864.54
2015 04 09 10 38 06 .83    -114     77    -26    138    141 304.2 -10.9  33756  282.76 0864.54
2015 04 09 10 38 07 .09    -116     91    -13    148    149 308.2  -5.2  33760  282.84 0864.55
2015 04 09 10 38 07 .34     -73     88     -4    115    116 320.3  -2.2  33778  283.14 0864.55
2015 04 09 10 38 07 .59     -86    104    -17    136    138 320.4  -7.3  33786  283.26 0864.55
2015 04 09 10 38 07 .84    -105     99    -14    145    146 313.1  -5.6  33784  283.23 0864.55
2015 04 09 10 38 08 .09     -78     87      6    118    119 318.1   2.9  33794  283.41 0864.55
2015 04 09 10 38 08 .34    -103    110      1    151    152 316.8   0.7  33792  283.38 0864.55
2015 04 09 10 38 08 .59     -88     88     10    125    126 314.9   5.0  33796  283.45 0864.55
2015 04 09 10 38 08 .84    -103    117    -36    157    162 318.6 -12.9  33774  283.08 0864.54
2015 04 09 10 38 09 .09    -133    108    -20    172    174 309.1  -6.7  33776  283.09 0864.54
2015 04 09 10 38 09 .34    -132    119    -23    179    181 312.0  -7.3  33770  282.99 0864.54
2015 04 09 10 38 09 .59    -131    119    -34    178    182 312.2 -10.9  33758  282.81 0864.54
2015 04 09 10 38 09 .84    -135    110    -29    175    178 309.1  -9.6  33764  282.89 0864.54
2015 04 09 10 38 10 .09    -130    131    -52    185    193 315.2 -15.8  33716  282.09 0864.54
2015 04 09 10 38 10 .34    -127    112    -58    170    180 311.3 -18.9  33734  282.41 0864.54
2015 04 09 10 38 10 .60    -120     92    -34    152    156 307.7 -12.9  33776  283.09 0864.54
2015 04 09 10 38 10 .86    -116     91    -13    148    149 308.2  -5.2  33804  283.58 0864.54
2015 04 09 10 38 11 .10     -96     96     21    137    139 315.0   9.0  33814  283.75 0864.54
2015 04 09 10 38 11 .35     -52     81     43     97    106 327.5  25.7  33842  284.22 0864.54
2015 04 09 10 38 11 .61     -59     79     18     99    101 323.0  10.6  33852  284.39 0864.54
2015 04 09 10 38 11 .86     -53     92     20    107    109 329.7  11.0  33834  284.07 0864.54
2015 04 09 10 38 12 .11     -66     91     18    113    115 323.9   9.5  33808  283.65 0864.54
2015 04 09 10 38 12 .36     -87    101    -15    134    135 319.0  -6.7  33764  282.91 0864.54
2015 04 09 10 38 12 .61     -71     78     27    106    110 317.7  14.7  33778  283.14 0864.54
2015 04 09 10 38 12 .86     -70     52     49     88    100 306.4  31.4  33820  283.83 0864.54
2015 04 09 10 38 13 .11     -48     82     67     96    117 329.7  38.0  33816  283.76 0864.54
2015 04 09 10 38 13 .36     -52     81     49     97    108 327.5  28.7  33822  283.86 0864.54
2015 04 09 10 38 13 .61     -59     67     49     90    102 319.0  31.3  33820  283.83 0864.55
2015 04 09 10 38 13 .86     -61     73     47     96    106 320.4  27.8  33820  283.85 0864.55
2015 04 09 10 38 14 .11     -94     78    -35    123    128 309.5 -16.0  33684  281.57 0864.55
2015 04 09 10 38 14 .36     -87     87    -37    124    129 315.0 -21.7  33680  281.50 0864.55
2015 04 09 10 38 14 .61     -70     88    -35    113    119 321.3 -17.6  33684  281.57 0864.55
2015 04 09 10 38 14 .86     -72     91    -38    117    124 321.7 -18.1  33686  281.60 0864.55
2015 04 09 10 38 15 .11     -65     89    -31    111    116 323.9 -15.5  33688  281.62 0864.55
2015 04 09 10 38 15 .36     -48     94    -20    106    108 332.8 -10.9  33690  281.67 0864.55
2015 04 09 10 38 15 .61     -58     91    -14    109    110 327.5  -7.3  33684  281.57 0864.55
2015 04 09 10 38 15 .87     -56     97    -19    113    115 330.1  -9.8  33688  281.62 0864.55
2015 04 09 10 38 16 .11     -50    103     -6    115    116 334.1  -3.2  33692  281.70 0864.55
2015 04 09 10 38 16 .36     -52    107    -10    120    121 334.1  -5.2  33690  281.67 0864.55
2015 04 09 10 38 16 .62     -32    119     -4    124    125 344.8  -2.2  33682  281.54 0864.55
2015 04 09 10 38 16 .87     -34    131     15    136    137 345.3   6.5  33692  281.70 0864.55
2015 04 09 10 38 17 .12     -42    125     31    132    136 341.3  13.2  33720  282.17 0864.55
2015 04 09 10 38 17 .37     -51    130     17    140    142 338.6   7.1  33710  281.99 0864.55
2015 04 09 10 38 17 .62     -65    143     -7    158    159 335.5  -2.6  33720  282.17 0864.55
2015 04 09 10 38 17 .88     -49    147     -6    156    157 341.3  -2.2  33718  282.14 0864.55
2015 04 09 10 38 18 .13     -66    103    -29    123    127 327.5 -13.4  33706  281.94 0864.55
2015 04 09 10 38 18 .38     -87    100    -42    133    139 319.0 -22.8  33702  281.85 0864.55
2015 04 09 10 38 18 .63    -115    103    -44    155    161 311.8 -20.4  33722  282.19 0864.55
2015 04 09 10 38 18 .88    -125    102    -50    162    170 309.1 -17.3  33724  282.22 0864.55
2015 04 09 10 38 19 .13    -141     97    -45    172    178 304.4 -14.7  33720  282.17 0864.55
2015 04 09 10 38 19 .38    -100     98    -33    141    145 314.4 -13.3  33718  282.12 0864.55
2015 04 09 10 38 19 .63     -86    104    -36    136    141 320.4 -15.0  33728  282.29 0864.55
2015 04 09 10 38 19 .88     -72     99    -29    123    127 324.0 -13.4  33738  282.46 0864.55
2015 04 09 10 38 20 .14     -45     95     -9    106    107 334.6  -5.2  33734  282.39 0864.55
2015 04 09 10 38 20 .39     -45    136      3    144    145 341.7   1.2  33752  282.69 0864.55
2015 04 09 10 38 20 .64     -47    139     28    147    150 341.3  11.1  33770  282.99 0864.55
2015 04 09 10 38 20 .89     -65    129     -7    145    146 333.3  -3.1  33762  282.88 0864.55
2015 04 09 10 38 21 .14     -60    119      8    134    135 333.3   3.8  33748  282.62 0864.55
2015 04 09 10 38 21 .39     -61    116      1    132    133 332.4   0.7  33756  282.77 0864.55
2015 04 09 10 38 21 .64     -77    148     -6    168    169 332.4  -2.2  33718  282.14 0864.55
2015 04 09 10 38 21 .89     -74    159    -11    176    177 335.1  -3.7  33688  281.62 0864.55
2015 04 09 10 38 22 .14     -59    170      0    181    182 340.8   0.0  33698  281.80 0864.55
2015 04 09 10 38 22 .39     -67    175      6    188    189 339.1   2.1  33694  281.72 0864.55
2015 04 09 10 38 22 .65     -66    157    -19    171    173 337.1  -6.5  33736  282.42 0864.55
2015 04 09 10 38 22 .89     -26    139     31    142    146 349.3  12.6  33762  282.88 0864.55
2015 04 09 10 38 23 .14     -55    145     34    156    160 339.1  12.4  33730  282.32 0864.55
2015 04 09 10 38 23 .39     -55    160    -13    170    171 341.1  -4.6  33684  281.55 0864.55
2015 04 09 10 38 23 .64     -61    164    -13    176    177 339.5  -4.4  33680  281.50 0864.55
2015 04 09 10 38 23 .89     -64    161    -17    174    175 338.2  -5.6  33678  281.47 0864.55
2015 04 09 10 38 24 .14     -69    152    -21    168    170 335.5  -7.3  33678  281.47 0864.55
2015 04 09 10 38 24 .39     -69    152    -21    168    170 335.5  -7.3  33678  281.47 0864.55
2015 04 09 10 38 24 .65     -66    165    -11    178    179 338.2  -3.7  33682  281.52 0864.55
2015 04 09 10 38 24 .90     -68    160    -15    175    176 336.8  -5.2  33680  281.49 0864.55
2015 04 09 10 38 25 .15     -51    155      1    164    165 341.5   0.5  33682  281.52 0864.55
2015 04 09 10 38 25 .40     -55    147     -3    158    159 339.5  -1.1  33682  281.52 0864.55
2015 04 09 10 38 25 .65     -58    156    -16    167    168 339.5  -5.6  33682  281.52 0864.55
2015 04 09 10 38 25 .90     -63    152     -9    165    166 337.3  -3.3  33680  281.49 0864.55
2015 04 09 10 38 26 .16     -67    147    -11    162    163 335.5  -3.9  33682  281.52 0864.56
2015 04 09 10 38 26 .41     -55    153    -12    163    164 339.9  -4.4  33680  281.49 0864.56
2015 04 09 10 38 26 .66     -63    152     -9    165    166 337.3  -3.3  33680  281.49 0864.56
2015 04 09 10 38 26 .91     -67    147    -11    162    163 335.5  -3.9  33682  281.52 0864.56
2015 04 09 10 38 27 .16     -68    143    -14    159    160 334.6  -5.2  33680  281.49 0864.56
2015 04 09 10 38 27 .41     -68    143    -14    159    160 334.6  -5.2  33680  281.49 0864.56
2015 04 09 10 38 27 .66     -66    139    -19    155    157 334.5  -7.2  33682  281.54 0864.56
2015 04 09 10 38 27 .91     -69    149    -26    165    168 335.1  -9.0  33682  281.52 0864.56
2015 04 09 10 38 28 .16     -75    137    -34    157    161 331.1 -12.4  33682  281.54 0864.55
2015 04 09 10 38 28 .42     -72    132    -16    151    152 331.1  -6.2  33700  281.84 0864.55
2015 04 09 10 38 28 .66     -77    132    -19    154    156 329.7  -7.3  33730  282.34 0864.55
2015 04 09 10 38 28 .91     -79    155     -6    175    176 332.8  -2.1  33698  281.80 0864.55
2015 04 09 10 38 29 .16     -62    153     -6    166    167 337.9  -2.2  33690  281.67 0864.55
2015 04 09 10 38 29 .41     -60    147     -6    159    160 337.7  -2.2  33688  281.62 0864.55
2015 04 09 10 38 29 .67     -59    142      3    154    155 337.3   1.2  33694  281.72 0864.55
2015 04 09 10 38 29 .91     -45    138     -5    146    147 341.7  -2.2  33696  281.77 0864.55
2015 04 09 10 38 30 .17     -54    135     -6    146    147 338.1  -2.6  33684  281.57 0864.55
2015 04 09 10 38 30 .42     -64    130    -17    146    147 333.7  -6.7  33682  281.52 0864.55
2015 04 09 10 38 30 .67     -65    137    -19    152    154 334.5  -7.3  33680  281.49 0864.55
2015 04 09 10 38 30 .92     -58    134    -24    147    150 336.4  -9.3  33678  281.47 0864.55
2015 04 09 10 38 31 .17     -69    108    -25    129    132 327.5 -11.3  33682  281.52 0864.55
2015 04 09 10 38 31 .42     -70    104    -29    126    130 326.2 -13.3  33686  281.59 0864.55
2015 04 09 10 38 31 .68     -68    109    -26    129    132 327.9 -11.5  33684  281.57 0864.55
2015 04 09 10 38 31 .93     -65    105    -22    124    127 327.9 -10.3  33690  281.65 0864.55
2015 04 09 10 38 32 .18     -66    111    -22    130    132 329.3  -9.8  33686  281.60 0864.55
2015 04 09 10 38 32 .43     -38    115    -16    122    124 341.5  -7.7  33686  281.60 0864.55
2015 04 09 10 38 32 .68     -47    116    -14    126    127 337.7  -6.7  33696  281.75 0864.56
2015 04 09 10 38 32 .93     -40    113    -14    120    121 340.4  -6.7  33698  281.80 0864.56
2015 04 09 10 38 33 .18     -44    119    -16    128    130 339.5  -7.3  33698  281.80 0864.56
2015 04 09 10 38 33 .43     -40    113    -14    120    121 340.4  -6.7  33698  281.80 0864.56
2015 04 09 10 38 33 .68     -39    112    -19    119    121 340.8  -9.4  33702  281.87 0864.56
2015 04 09 10 38 33 .93     -42    111    -12    119    120 339.1  -6.2  33700  281.82 0864.56
2015 04 09 10 38 34 .18     -43    109    -14    118    119 338.2  -7.2  33700  281.82 0864.56
2015 04 09 10 38 34 .43     -35    108     -6    114    115 341.7  -3.1  33700  281.82 0864.56
2015 04 09 10 38 34 .69     -29    109    -22    113    116 344.8 -11.3  33714  282.05 0864.56
2015 04 09 10 38 34 .94     -29    125     -7    129    130 346.6  -3.1  33716  282.11 0864.56
2015 04 09 10 38 35 .19     -37    143     -8    148    149 345.3  -3.1  33710  282.00 0864.56
2015 04 09 10 38 35 .44     -38    128     -1    134    135 343.5  -0.7  33704  281.89 0864.56
2015 04 09 10 38 35 .69     -46    118     10    127    128 338.6   4.9  33698  281.80 0864.56
2015 04 09 10 38 35 .94     -41    124      1    131    132 341.7   0.8  33704  281.89 0864.56
2015 04 09 10 38 36 .19     -34    139      7    144    145 346.2   2.8  33700  281.84 0864.55
2015 04 09 10 38 36 .44     -25    164      7    167    168 351.1   2.5  33696  281.77 0864.55
2015 04 09 10 38 36 .72     -28    178      5    181    182 350.9   1.8  33724  282.24 0864.55
2015 04 09 10 38 36 .95     -27    219     50    221    227 352.9  12.9  33740  282.51 0864.55
2015 04 09 10 38 37 .19     -31    210     59    213    222 351.5  15.6  33746  282.61 0864.55
2015 04 09 10 38 37 .44     -22    241     36    243    246 354.7   8.5  33718  282.13 0864.55
2015 04 09 10 38 37 .69     -57    236      8    243    244 346.2   2.1  33710  282.00 0864.55
2015 04 09 10 38 37 .94     -59    239     -9    247    248 346.0  -2.2  33690  281.66 0864.55
2015 04 09 10 38 38 .20     -60    223    -12    232    233 344.9  -3.2  33684  281.57 0864.55
2015 04 09 10 38 38 .45     -57    212     16    220    221 344.9   4.4  33696  281.75 0864.55
2015 04 09 10 38 38 .71     -61    231      7    240    241 345.1   1.8  33696  281.76 0864.55
2015 04 09 10 38 38 .96     -43    235     24    239    241 349.5   5.9  33710  282.00 0864.55
2015 04 09 10 38 39 .21     -60    238     27    246    248 345.8   6.5  33696  281.75 0864.55
2015 04 09 10 38 39 .46     -34    176     58    180    190 348.9  17.9  33706  281.92 0864.55
2015 04 09 10 38 39 .71     -81    102     60    131    144 321.3  26.6  33758  282.81 0864.55
2015 04 09 10 38 39 .96     -59    236     49    244    249 345.8  11.4  33712  282.03 0864.55
2015 04 09 10 38 40 .21     -64    223     58    233    241 344.0  14.2  33714  282.05 0864.55
2015 04 09 10 38 40 .46     -42    183     67    188    200 346.9  19.6  33728  282.31 0864.55
2015 04 09 10 38 40 .71     -80    109     31    136    140 323.9  13.1  33750  282.67 0864.55
2015 04 09 10 38 40 .96     -72    155      4    172    173 335.1   1.6  33730  282.32 0864.55
2015 04 09 10 38 41 .22     -81    128     -3    152    153 327.5  -1.2  33730  282.34 0864.55
2015 04 09 10 38 41 .46     -66    123     16    140    142 331.5   6.9  33740  282.51 0864.55
2015 04 09 10 38 41 .71    -105    173    -29    203    206 328.6  -8.2  33732  282.37 0864.55
2015 04 09 10 38 41 .96    -117    170    -68    207    219 325.5 -18.3  33714  282.05 0864.55
2015 04 09 10 38 42 .22    -100    196    -42    221    226 333.0 -10.9  33712  282.02 0864.55
2015 04 09 10 38 42 .46     -84    228    -27    244    246 339.7  -6.5  33706  281.91 0864.55
2015 04 09 10 38 42 .72     -66    236     -9    246    247 344.2  -2.2  33702  281.86 0864.55
2015 04 09 10 38 42 .96     -57    212      3    220    221 344.9   0.8  33702  281.85 0864.55
2015 04 09 10 38 43 .21     -54    203      1    211    212 345.1   0.5  33690  281.67 0864.55
2015 04 09 10 38 43 .47     -42    205     -9    210    211 348.2  -2.6  33686  281.60 0864.55
2015 04 09 10 38 43 .72     -53    211      0    218    219 345.7   0.0  33688  281.62 0864.55
2015 04 09 10 38 43 .97     -58    203     -4    212    213 344.0  -1.2  33688  281.62 0864.55
2015 04 09 10 38 44 .22    -103    169    -35    199    203 328.6 -10.1  33698  281.80 0864.55
2015 04 09 10 38 44 .47    -108    150    -43    186    192 324.2 -13.2  33704  281.89 0864.55
2015 04 09 10 38 44 .73     -75    162     -7    179    180 335.1  -2.2  33720  282.16 0864.55
2015 04 09 10 38 44 .97     -93    135    -23    165    167 325.5  -8.0  33730  282.32 0864.55
2015 04 09 10 38 45 .22     -73    177     36    192    196 337.5  10.8  33710  281.99 0864.55
2015 04 09 10 38 45 .47    -180    123    -36    219    222 304.4  -9.3  33684  281.55 0864.55
2015 04 09 10 38 45 .73    -139    123    -23    186    188 311.6  -7.3  33688  281.64 0864.55
2015 04 09 10 38 45 .98    -140    140    -55    199    207 315.0 -15.5  33698  281.80 0864.55
2015 04 09 10 38 46 .24    -135    135    -65    191    202 315.0 -18.9  33696  281.77 0864.55
2015 04 09 10 38 46 .49    -175    145    -44    228    233 309.6 -10.9  33698  281.79 0864.55
2015 04 09 10 38 46 .74    -130    156    -40    204    208 320.3 -11.1  33710  281.99 0864.55
2015 04 09 10 38 46 .99    -108    170    -33    202    205 327.5  -9.3  33700  281.84 0864.55
2015 04 09 10 38 47 .24     -82    181    -11    199    200 335.5  -3.2  33740  282.51 0864.56
2015 04 09 10 38 47 .49     -57    156     -8    167    168 339.7  -2.8  33736  282.42 0864.56
2015 04 09 10 38 47 .74    -105     93    -17    141    143 311.3  -7.2  33720  282.16 0864.56
2015 04 09 10 38 47 .99    -115     95    -30    150    154 309.5 -11.3  33696  281.77 0864.56
2015 04 09 10 38 48 .24    -116     96    -19    151    153 309.5  -7.3  33698  281.80 0864.56
2015 04 09 10 38 48 .49    -110     91    -23    144    146 309.6  -9.3  33698  281.80 0864.56
2015 04 09 10 38 48 .74     -98     70    -24    121    124 305.9 -11.3  33706  281.94 0864.56
2015 04 09 10 38 49 .00     -94     70    -19    118    120 306.9  -9.4  33706  281.94 0864.55
2015 04 09 10 38 49 .24     -81     54     -5     98     99 303.7  -3.1  33710  281.99 0864.55
2015 04 09 10 38 49 .49     -63     56     22     85     88 311.8  14.7  33732  282.37 0864.55
2015 04 09 10 38 49 .74     -31     65     27     73     77 334.5  20.0  33736  282.42 0864.55
2015 04 09 10 38 50 .00     -30    112     27    117    121 344.9  13.2  33740  282.49 0864.55
2015 04 09 10 38 50 .24     -40    123     10    130    131 341.7   4.4  33748  282.64 0864.55
2015 04 09 10 38 50 .49     -42    143      0    150    151 343.5   0.2  33708  281.95 0864.55
2015 04 09 10 38 50 .74     -65    176     -9    188    189 339.7  -2.8  33702  281.87 0864.55
2015 04 09 10 38 51 .00     -89    181    -55    202    210 333.7 -15.2  33700  281.84 0864.55
2015 04 09 10 38 51 .25     -58    176    -28    186    189 341.5  -8.6  33694  281.72 0864.55
2015 04 09 10 38 51 .50     -68    195     -7    207    208 340.8  -2.1  33692  281.70 0864.55
2015 04 09 10 38 51 .75     -75    188     -7    203    204 338.2  -2.2  33696  281.77 0864.54
2015 04 09 10 38 52 .00     -68    159      7    174    175 336.8   2.3  33694  281.72 0864.54
2015 04 09 10 38 52 .25     -45    131     28    139    142 340.8  11.6  33714  282.07 0864.54
2015 04 09 10 38 52 .51     -30    132      6    136    137 347.1   2.8  33710  282.00 0864.54
2015 04 09 10 38 52 .76     -40    139     17    145    147 344.0   6.9  33728  282.29 0864.54
2015 04 09 10 38 53 .01     -65    137     -8    152    153 334.6  -3.1  33726  282.27 0864.54
2015 04 09 10 38 53 .26     -84    117    -23    145    147 324.4  -9.4  33718  282.12 0864.54
2015 04 09 10 38 53 .51     -99    130    -44    164    170 322.6 -15.2  33696  281.75 0864.54
2015 04 09 10 38 53 .76    -107    121    -40    162    167 318.5 -13.9  33692  281.70 0864.54
2015 04 09 10 38 54 .01    -100    115    -42    153    159 319.0 -15.4  33696  281.75 0864.54
2015 04 09 10 38 54 .26     -83    132    -34    157    161 327.9 -12.4  33708  281.95 0864.54
2015 04 09 10 38 54 .51     -73    133    -31    152    156 331.1 -11.5  33698  281.79 0864.54
2015 04 09 10 38 54 .76     -67    131    -18    148    150 332.8  -7.2  33702  281.85 0864.54
2015 04 09 10 38 55 .01     -95    136    -56    166    176 325.0 -18.7  33722  282.21 0864.54
2015 04 09 10 38 55 .27     -79    142    -53    163    172 331.0 -18.1  33718  282.14 0864.55
2015 04 09 10 38 55 .51    -107    107    -50    152    161 315.0 -18.3  33730  282.32 0864.55
2015 04 09 10 38 55 .76     -80    124    -50    148    156 327.0 -23.3  33710  282.00 0864.55
2015 04 09 10 38 56 .02     -48    123    -18    133    135 338.6  -7.7  33716  282.09 0864.55
2015 04 09 10 38 56 .26     -49    117    -19    127    129 337.3  -8.8  33718  282.12 0864.55
2015 04 09 10 38 56 .52     -50    125    -19    135    137 338.2  -8.2  33718  282.14 0864.55
2015 04 09 10 38 56 .77     -49    109    -28    120    124 335.5 -13.3  33724  282.22 0864.55
2015 04 09 10 38 57 .02     -33     84    -28     91     96 338.2 -17.0  33724  282.22 0864.55
2015 04 09 10 38 57 .27     -24     87     -1     91     92 344.4  -0.7  33722  282.19 0864.54
2015 04 09 10 38 57 .52     -42     83    -22     94     97 333.3 -13.4  33736  282.42 0864.54
2015 04 09 10 38 57 .77     -33     41     33     53     62 321.3  35.5  33784  283.23 0864.54
2015 04 09 10 38 58 .02     -37     50     31     63     70 323.9  27.3  33794  283.40 0864.54
2015 04 09 10 38 58 .27     -47     69    -10     84     85 325.7  -7.2  33742  282.52 0864.54
2015 04 09 10 38 58 .52     -39     99     -9    107    108 338.1  -5.2  33718  282.14 0864.54
2015 04 09 10 38 58 .77     -32     97    -10    103    104 341.7  -5.6  33712  282.04 0864.54
2015 04 09 10 38 59 .03     -21    107      2    110    111 348.9   1.2  33748  282.62 0864.54
2015 04 09 10 38 59 .27     -44     69     55     82     98 327.4  37.0  33762  282.86 0864.54
2015 04 09 10 38 59 .53     -39    128     21    134    136 343.1   9.0  33736  282.42 0864.54
2015 04 09 10 38 59 .78     -50    144      7    153    154 340.8   2.8  33738  282.47 0864.54
2015 04 09 10 39 00 .04     -35    116      1    122    123 343.0   0.8  33750  282.67 0864.54
2015 04 09 10 39 00 .28     -39    115     10    122    123 341.3   5.0  33730  282.32 0864.54
2015 04 09 10 39 00 .54     -41    112      1    120    121 340.0   0.7  33730  282.32 0864.54
2015 04 09 10 39 00 .79     -20    100     15    103    105 348.4   8.5  33748  282.64 0864.54
2015 04 09 10 39 01 .05     -25    125     10    128    129 348.4   4.9  33810  283.66 0864.54
2015 04 09 10 39 01 .29     -23    133     39    136    142 350.2  16.3  33804  283.58 0864.54
2015 04 09 10 39 01 .54      -3    163     47    164    171 358.6  16.3  33830  284.02 0864.54
2015 04 09 10 39 01 .79     -16    149    -30    150    153 353.8 -11.3  33720  282.17 0864.54
2015 04 09 10 39 02 .04     -40    143     22    149    151 344.4   8.5  33730  282.34 0864.54
2015 04 09 10 39 02 .29     -21    176     27    178    181 353.1   8.8  33738  282.47 0864.54
2015 04 09 10 39 02 .54     -66    156      2    170    171 337.1   0.8  33734  282.39 0864.54
2015 04 09 10 39 02 .80     -46    152    -19    159    161 343.0  -6.9  33736  282.42 0864.54
2015 04 09 10 39 03 .04     -33    161     16    165    166 348.2   5.7  33758  282.81 0864.54
2015 04 09 10 39 03 .29     -32    125     45    130    138 345.3  19.4  33750  282.66 0864.54
2015 04 09 10 39 03 .55     -57    101     56    117    129 330.6  27.3  33766  282.93 0864.54
2015 04 09 10 39 03 .79     -69     71      9    100    101 315.9   5.4  33780  283.18 0864.54
2015 04 09 10 39 04 .04     -50     94     29    107    111 331.9  15.2  33796  283.43 0864.54
2015 04 09 10 39 04 .29     -94    138    -31    168    171 325.7 -10.5  33746  282.61 0864.54
2015 04 09 10 39 04 .55     -83    117    -18    144    146 324.8  -7.2  33776  283.09 0864.54
2015 04 09 10 39 04 .80     -62    148      0    161    162 337.3   0.2  33792  283.36 0864.54
2015 04 09 10 39 05 .05     -87    150    -18    174    175 329.7  -6.0  33780  283.18 0864.54
2015 04 09 10 39 05 .30     -85    133     12    158    159 327.4   4.4  33770  283.01 0864.54
2015 04 09 10 39 05 .55    -127    129    -32    182    185 315.5 -10.1  33724  282.24 0864.54
2015 04 09 10 39 05 .80    -136    127     -7    187    188 312.9  -2.2  33716  282.09 0864.54
2015 04 09 10 39 06 .05    -120    115     15    167    168 313.8   5.4  33734  282.41 0864.54
2015 04 09 10 39 06 .30    -120    120    -23    170    172 315.0  -8.0  33724  282.22 0864.54
2015 04 09 10 39 06 .56    -118    104     -3    158    159 311.3  -1.1  33728  282.29 0864.54
2015 04 09 10 39 06 .81    -111     96      7    147    148 310.9   2.9  33754  282.74 0864.54
2015 04 09 10 39 07 .06    -155    119    -19    196    197 307.5  -5.6  33696  281.75 0864.54
2015 04 09 10 39 07 .31    -148    109    -22    185    187 306.4  -6.9  33700  281.84 0864.54
2015 04 09 10 39 07 .56    -124    116    -23    170    172 313.1  -8.0  33710  282.00 0864.54
2015 04 09 10 39 07 .81    -138    115    -31    180    183 309.8  -9.8  33704  281.89 0864.54
2015 04 09 10 39 08 .06    -139    131    -39    192    197 313.3 -11.6  33704  281.90 0864.54
2015 04 09 10 39 08 .32    -142    136    -44    197    202 313.8 -12.6  33706  281.94 0864.54
2015 04 09 10 39 08 .56    -111    134    -35    175    179 320.4 -11.6  33706  281.94 0864.54
2015 04 09 10 39 08 .82     -98    154    -36    183    187 327.4 -11.3  33720  282.16 0864.54
2015 04 09 10 39 09 .07     -96    140    -34    171    175 325.5 -11.3  33718  282.12 0864.54
2015 04 09 10 39 09 .32     -74    133    -16    153    154 331.0  -6.2  33728  282.29 0864.54
2015 04 09 10 39 09 .57     -58    123     -7    137    138 334.5  -3.1  33730  282.32 0864.54
2015 04 09 10 39 09 .81     -64    125    -20    141    143 332.8  -8.2  33724  282.24 0864.54
2015 04 09 10 39 10 .07     -73    100    -22    124    127 323.9 -10.3  33726  282.27 0864.54
2015 04 09 10 39 10 .32     -59    124    -17    138    140 334.7  -7.2  33718  282.14 0864.54
2015 04 09 10 39 10 .57     -58    123     -7    137    138 334.7  -3.2  33714  282.05 0864.54
2015 04 09 10 39 10 .82     -48    100    -20    112    114 334.1 -10.3  33734  282.39 0864.54
2015 04 09 10 39 11 .07     -53    100    -10    114    115 331.9  -5.2  33738  282.46 0864.54
2015 04 09 10 39 11 .32     -49    104     -6    116    117 334.5  -3.1  33764  282.89 0864.54
2015 04 09 10 39 11 .57     -65    138    -16    153    154 334.7  -6.2  33768  282.98 0864.54
2015 04 09 10 39 11 .82     -50    150     27    159    162 341.5   9.9  33766  282.93 0864.54
2015 04 09 10 39 12 .07     -62    165      0    177    178 339.3  -0.3  33774  283.06 0864.54
2015 04 09 10 39 12 .33     -32    156     20    160    162 348.4   7.2  33778  283.14 0864.54
2015 04 09 10 39 12 .58     -38    141     21    147    149 344.9   8.5  33790  283.34 0864.54
2015 04 09 10 39 12 .83     -46     97     54    108    120 334.7  28.7  33820  283.83 0864.54
2015 04 09 10 39 13 .08     -48     92     16    104    106 332.4   9.0  33828  283.98 0864.54
2015 04 09 10 39 13 .34     -28     93     23     98    101 343.1  13.2  33824  283.90 0864.54
2015 04 09 10 39 13 .58     -42    143     13    150    151 343.5   5.0  33764  282.89 0864.54
2015 04 09 10 39 13 .84     -75    160    -12    177    178 334.8  -3.9  33766  282.93 0864.54
2015 04 09 10 39 14 .09     -54    164     24    173    175 341.7   8.0  33788  283.31 0864.54
2015 04 09 10 39 14 .34     -43    158      5    164    165 344.6   1.8  33792  283.36 0864.53
2015 04 09 10 39 14 .58     -63    177      2    189    190 340.2   0.8  33760  282.84 0864.53
2015 04 09 10 39 14 .84     -69    174     -7    188    189 338.4  -2.2  33694  281.72 0864.53
2015 04 09 10 39 15 .09     -67    175     -7    188    189 339.1  -2.2  33684  281.57 0864.53
2015 04 09 10 39 15 .34     -67    168    -13    181    182 338.2  -4.4  33682  281.54 0864.53
2015 04 09 10 39 15 .59     -75    163    -13    180    181 335.1  -4.4  33682  281.54 0864.53
2015 04 09 10 39 15 .85     -63    168    -16    180    181 339.3  -5.2  33684  281.57 0864.53
2015 04 09 10 39 16 .09     -75    163    -13    180    181 335.1  -4.4  33682  281.54 0864.54
2015 04 09 10 39 16 .34     -75    163    -13    180    181 335.1  -4.4  33682  281.54 0864.54
2015 04 09 10 39 16 .59     -77    184     -9    200    201 337.1  -2.8  33682  281.54 0864.54
2015 04 09 10 39 16 .84     -73    183    -11    198    199 338.2  -3.3  33684  281.57 0864.54
2015 04 09 10 39 17 .09     -73    183    -11    198    199 338.2  -3.3  33684  281.57 0864.54
2015 04 09 10 39 17 .34     -77    184     -9    200    201 337.1  -2.8  33686  281.60 0864.54
2015 04 09 10 39 17 .59     -71    185     -4    199    200 339.1  -1.3  33684  281.57 0864.54
2015 04 09 10 39 17 .84     -75    187    -15    202    203 338.2  -4.4  33682  281.54 0864.54
2015 04 09 10 39 18 .10     -77    192     -9    207    208 338.1  -2.6  33686  281.60 0864.54
2015 04 09 10 39 18 .34     -72    186    -19    200    201 338.6  -5.6  33680  281.49 0864.54
2015 04 09 10 39 18 .59     -67    176    -14    189    190 339.1  -4.4  33680  281.49 0864.54
2015 04 09 10 39 18 .85     -70    179     -9    193    194 338.6  -2.8  33682  281.54 0864.54
2015 04 09 10 39 19 .10     -66    180      0    192    193 339.7   0.2  33684  281.57 0864.54
2015 04 09 10 39 19 .35     -68    175     -3    189    190 338.6  -1.1  33686  281.60 0864.54
2015 04 09 10 39 19 .60     -67    184     -1    196    197 340.0  -0.5  33690  281.65 0864.54
2015 04 09 10 39 19 .85     -60    172    -14    183    184 340.6  -4.6  33686  281.59 0864.54
2015 04 09 10 39 20 .10     -57    171     -9    181    182 341.5  -3.1  33682  281.54 0864.54
2015 04 09 10 39 20 .36     -55    174     -7    183    184 342.2  -2.2  33688  281.62 0864.54
2015 04 09 10 39 20 .61     -65    171    -20    184    186 339.1  -6.2  33682  281.54 0864.54
2015 04 09 10 39 20 .86     -73    183    -11    198    199 338.2  -3.3  33684  281.57 0864.54
2015 04 09 10 39 21 .12     -88    201    -28    220    222 336.4  -7.3  33698  281.79 0864.54
2015 04 09 10 39 21 .36     -92    193    -19    214    215 334.4  -5.2  33700  281.84 0864.54
2015 04 09 10 39 21 .61    -100    181    -26    208    210 331.0  -7.2  33702  281.85 0864.54
2015 04 09 10 39 21 .86     -85    159    -21    181    183 331.7  -6.9  33708  281.97 0864.54
2015 04 09 10 39 22 .11     -86    179    -18    199    200 334.1  -5.4  33690  281.65 0864.54
2015 04 09 10 39 22 .36     -84    173    -18    193    194 333.9  -5.4  33688  281.64 0864.54
2015 04 09 10 39 22 .62     -83    168    -23    188    190 333.7  -7.2  33684  281.57 0864.54
2015 04 09 10 39 22 .87     -77    173    -29    190    193 335.9  -8.8  33682  281.54 0864.54
2015 04 09 10 39 23 .11     -77    173    -29    190    193 335.9  -8.8  33682  281.54 0864.54
2015 04 09 10 39 23 .37     -57    171    -23    181    183 341.5  -7.3  33684  281.55 0864.54
2015 04 09 10 39 23 .62     -58    167    -27    177    180 340.8  -8.8  33688  281.62 0864.54
2015 04 09 10 39 23 .87     -57    172    -31    182    185 341.5  -9.8  33688  281.64 0864.54
2015 04 09 10 39 24 .12     -56    168    -29    178    181 341.5  -9.3  33690  281.65 0864.54
2015 04 09 10 39 24 .37     -52    160    -16    169    170 342.0  -5.6  33684  281.57 0864.54
2015 04 09 10 39 24 .62     -53    163    -11    172    173 342.0  -3.9  33688  281.62 0864.54
2015 04 09 10 39 24 .87     -57    170     -3    180    181 341.5  -1.3  33688  281.62 0864.54
2015 04 09 10 39 25 .12     -66    162     -6    176    177 337.7  -2.2  33686  281.60 0864.54
2015 04 09 10 39 25 .37     -73    167    -12    183    184 336.2  -3.9  33684  281.57 0864.54
2015 04 09 10 39 25 .63     -70    188     -9    201    202 339.5  -2.6  33686  281.60 0864.54
2015 04 09 10 39 25 .87     -67    172    -12    185    186 338.6  -3.9  33688  281.62 0864.54
2015 04 09 10 39 26 .12     -69    175    -14    189    190 338.4  -4.4  33688  281.64 0864.54
2015 04 09 10 39 26 .38     -77    172    -22    189    191 335.9  -6.9  33688  281.62 0864.54
2015 04 09 10 39 26 .62     -66    189    -18    201    202 340.8  -5.4  33692  281.70 0864.54
2015 04 09 10 39 26 .88     -92    166    -29    190    193 331.0  -8.8  33692  281.70 0864.54
2015 04 09 10 39 27 .12     -79    169    -24    187    189 334.8  -7.3  33696  281.75 0864.54
2015 04 09 10 39 27 .39     -58    167     -6    177    178 340.8  -2.1  33690  281.65 0864.54
2015 04 09 10 39 27 .64     -66    162    -11    176    177 337.7  -3.7  33690  281.67 0864.54
2015 04 09 10 39 27 .89     -77    165    -23    183    185 335.1  -7.2  33690  281.67 0864.54
2015 04 09 10 39 28 .14     -53    171    -21    180    182 342.8  -6.7  33696  281.75 0864.54
2015 04 09 10 39 28 .39     -69    172     -9    186    187 337.9  -2.8  33704  281.90 0864.54
2015 04 09 10 39 28 .64     -87    162    -34    184    188 331.7 -10.5  33708  281.95 0864.54
2015 04 09 10 39 28 .89    -121    139    -31    185    188 319.0  -9.8  33722  282.19 0864.54
2015 04 09 10 39 29 .14    -124    120    -28    173    176 314.2  -9.3  33720  282.17 0864.54
2015 04 09 10 39 29 .39    -125    124    -32    177    180 314.9 -10.3  33712  282.04 0864.54
2015 04 09 10 39 29 .64    -117    117    -41    166    172 315.0 -13.9  33708  281.97 0864.54
2015 04 09 10 39 29 .90    -103     91     -5    138    139 311.3  -2.2  33718  282.12 0864.54
2015 04 09 10 39 30 .15     -99    120    -28    156    159 320.4 -10.3  33722  282.21 0864.54
2015 04 09 10 39 30 .40    -116     97    -27    152    155 310.0 -10.3  33708  281.95 0864.54
2015 04 09 10 39 30 .64    -138    106    -24    175    177 307.5  -8.0  33708  281.95 0864.54
2015 04 09 10 39 30 .90    -151    124     -9    196    197 309.3  -2.8  33710  282.00 0864.54
2015 04 09 10 39 31 .15    -129    115     -6    174    175 311.8  -2.3  33716  282.09 0864.54
2015 04 09 10 39 31 .40    -134    115    -19    177    179 310.7  -6.2  33718  282.12 0864.54
2015 04 09 10 39 31 .65    -131    103     -9    167    168 308.2  -3.1  33718  282.12 0864.55
2015 04 09 10 39 31 .90     -87    112    -24    143    146 322.1  -9.8  33712  282.04 0864.55
2015 04 09 10 39 32 .15     -76    117    -21    140    142 327.0  -8.8  33734  282.39 0864.55
2015 04 09 10 39 32 .40     -79    100     10    128    129 321.7   4.9  33758  282.79 0864.55
2015 04 09 10 39 32 .65    -119     92     -9    151    152 307.7  -3.7  33718  282.14 0864.55
2015 04 09 10 39 32 .90     -90     79     -6    120    121 311.3  -3.2  33724  282.22 0864.55
2015 04 09 10 39 33 .15     -90     83    -19    123    125 312.7  -8.8  33718  282.12 0864.55
2015 04 09 10 39 33 .40     -93     98    -17    136    138 316.7  -7.3  33720  282.16 0864.55
2015 04 09 10 39 33 .65    -120    115    -34    167    171 313.8 -11.6  33710  282.00 0864.55
2015 04 09 10 39 33 .90    -119    119    -47    169    176 314.9 -15.5  33710  281.99 0864.55
2015 04 09 10 39 34 .15    -115    118    -26    165    168 315.7  -9.0  33718  282.14 0864.55
2015 04 09 10 39 34 .41    -106     99    -18    146    148 313.1  -7.2  33736  282.42 0864.55
2015 04 09 10 39 34 .67    -112    105    -33    154    158 313.1 -12.4  33748  282.62 0864.55
2015 04 09 10 39 34 .91     -80    109     -4    136    137 323.5  -1.8  33744  282.57 0864.55
2015 04 09 10 39 35 .17     -98     98    -39    140    146 315.0 -15.5  33726  282.27 0864.54
2015 04 09 10 39 35 .42     -95     89    -27    131    134 313.1 -11.9  33720  282.16 0864.54
2015 04 09 10 39 35 .67     -56     97    -19    113    115 330.1  -9.8  33746  282.61 0864.54
2015 04 09 10 39 35 .92     -38    112     -2    119    120 341.3  -1.2  33756  282.76 0864.54
2015 04 09 10 39 36 .16     -53     84     -9    100    101 327.5  -5.2  33752  282.71 0864.54
2015 04 09 10 39 36 .42     -57     99     -6    115    116 330.1  -3.2  33736  282.42 0864.54
2015 04 09 10 39 36 .67     -50     88     -6    102    103 330.1  -3.7  33748  282.62 0864.54
2015 04 09 10 39 36 .92     -43     92     12    102    103 334.7   7.1  33758  282.81 0864.54
2015 04 09 10 39 37 .17     -39     84    -14     93     95 334.7  -8.8  33748  282.62 0864.54
2015 04 09 10 39 37 .42     -50    112     -2    123    124 335.9  -1.3  33750  282.66 0864.54
2015 04 09 10 39 37 .67     -33    100     -4    106    107 341.7  -2.2  33746  282.61 0864.54
2015 04 09 10 39 37 .92     -23     87     13     91     93 344.9   8.5  33744  282.56 0864.54
2015 04 09 10 39 38 .18     -19    101      1    103    104 348.9   0.8  33760  282.84 0864.54
2015 04 09 10 39 38 .43     -24     88      0     92     93 344.9  -0.3  33780  283.18 0864.54
2015 04 09 10 39 38 .67     -18     89      4     91     92 348.4   2.9  33780  283.18 0864.54
2015 04 09 10 39 38 .93     -16     82     29     84     89 348.9  19.2  33790  283.33 0864.53
2015 04 09 10 39 39 .17     -13     88     31     90     96 351.1  18.9  33784  283.24 0864.53
2015 04 09 10 39 39 .43     -23    104     29    107    111 347.1  15.3  33790  283.33 0864.53
2015 04 09 10 39 39 .67     -52    120      0    131    132 336.4  -0.3  33758  282.79 0864.53
2015 04 09 10 39 39 .93     -72     93    -14    118    119 322.2  -7.2  33734  282.39 0864.53
2015 04 09 10 39 40 .18     -63    116    -13    133    134 331.5  -5.6  33730  282.32 0864.53
2015 04 09 10 39 40 .43     -60    128    -18    142    144 334.7  -7.2  33736  282.42 0864.53
2015 04 09 10 39 40 .68     -56    124    -16    137    138 335.5  -6.7  33744  282.56 0864.53
2015 04 09 10 39 40 .93     -59    126    -16    140    141 334.7  -6.7  33756  282.76 0864.53
2015 04 09 10 39 41 .19     -51    128     -7    138    139 338.2  -3.1  33754  282.74 0864.53
2015 04 09 10 39 41 .44     -41    124     11    131    132 341.3   4.9  33764  282.91 0864.53
2015 04 09 10 39 41 .69     -23    119     19    122    124 348.9   9.0  33776  283.09 0864.53
2015 04 09 10 39 41 .94     -21    135     32    137    141 351.1  13.1  33778  283.14 0864.53
2015 04 09 10 39 42 .19     -37    119     12    125    126 342.6   5.9  33764  282.91 0864.53
2015 04 09 10 39 42 .44     -29    125      5    129    130 346.6   2.3  33754  282.72 0864.53
2015 04 09 10 39 42 .70     -21     90     32     93     99 346.6  19.2  33792  283.36 0864.53
2015 04 09 10 39 42 .95     -14    142     46    143    151 354.2  17.9  33862  284.55 0864.53
2015 04 09 10 39 43 .19     -28    121     45    125    132 346.7  20.4  33856  284.45 0864.53
2015 04 09 10 39 43 .44     -22    135     16    137    139 350.7   6.9  33872  284.72 0864.53
2015 04 09 10 39 43 .69       0    148      1    149    150 359.6   0.7  33794  283.41 0864.53
2015 04 09 10 39 43 .94     -26    141      8    144    145 349.3   3.3  33776  283.11 0864.53
2015 04 09 10 39 44 .20     -22    175      2    177    178 352.7   0.8  33814  283.73 0864.53
2015 04 09 10 39 44 .45      -6    169     22    170    172 357.8   7.5  33816  283.78 0864.52
2015 04 09 10 39 44 .70     -11    154     48    155    163 355.6  17.3  33812  283.70 0864.52
2015 04 09 10 39 44 .94       2    132     47    133    142   0.9  19.4  33806  283.60 0864.52
2015 04 09 10 39 45 .20      -7    151     37    152    157 357.3  13.9  33802  283.55 0864.52
2015 04 09 10 39 45 .45     -20    140     38    142    148 351.9  15.2  33790  283.33 0864.52
2015 04 09 10 39 45 .70     -23    157     48    159    167 351.5  16.8  33794  283.40 0864.52
2015 04 09 10 39 45 .96     -30    159     46    162    169 349.3  16.0  33798  283.46 0864.52
2015 04 09 10 39 46 .21     -42    158     45    164    171 344.9  15.6  33844  284.23 0864.52
2015 04 09 10 39 46 .45     -29    154     58    157    167 349.3  21.0  33866  284.60 0864.52
2015 04 09 10 39 46 .70     -41    151     37    157    162 344.8  13.2  33868  284.64 0864.52
2015 04 09 10 39 46 .95     -58    133    -24    146    148 336.4  -9.3  33860  284.50 0864.52
2015 04 09 10 39 47 .21     -65    137     -8    152    153 334.6  -3.1  33854  284.40 0864.52
2015 04 09 10 39 47 .45     -88    195     26    214    216 335.7   7.1  33760  282.84 0864.52
2015 04 09 10 39 47 .71     -76    200    -25    215    217 339.1  -6.9  33738  282.47 0864.52
2015 04 09 10 39 47 .96     -62    203     10    213    214 342.8   2.9  33730  282.32 0864.53
2015 04 09 10 39 48 .21     -51    207     18    214    215 346.2   4.9  33736  282.42 0864.53
2015 04 09 10 39 48 .47     -58    220     16    228    229 345.1   4.2  33738  282.47 0864.53
2015 04 09 10 39 48 .71     -46    225      8    230    231 348.4   2.1  33724  282.22 0864.53
2015 04 09 10 39 48 .97     -77    192     -9    207    208 338.1  -2.6  33718  282.12 0864.53
2015 04 09 10 39 49 .22     -63    191    -11    202    203 341.7  -3.1  33714  282.07 0864.53
2015 04 09 10 39 49 .47     -54    213    -36    220    223 345.7  -9.3  33710  282.00 0864.53
2015 04 09 10 39 49 .72     -45    218    -28    223    225 348.2  -7.2  33712  282.04 0864.53
2015 04 09 10 39 49 .97     -51    226    -31    232    235 347.1  -7.7  33724  282.22 0864.53
2015 04 09 10 39 50 .23     -31    226    -11    229    230 352.2  -2.8  33798  283.48 0864.53
2015 04 09 10 39 50 .48     -11    228     45    229    234 357.1  11.1  33852  284.39 0864.53
2015 04 09 10 39 50 .72     -23    216     55    218    225 353.7  14.3  33852  284.39 0864.53
2015 04 09 10 39 50 .97     -40    261     67    265    274 351.1  14.2  33764  282.90 0864.53
2015 04 09 10 39 51 .22     -22    251     25    253    255 354.9   5.7  33724  282.22 0864.53
2015 04 09 10 39 51 .47     -10    230      1    231    232 357.5   0.5  33708  281.95 0864.53
2015 04 09 10 39 51 .72     -24    222      1    224    225 353.8   0.5  33702  281.85 0864.53
2015 04 09 10 39 51 .98     -43    236    -13    241    242 349.5  -3.1  33696  281.76 0864.53
2015 04 09 10 39 52 .23     -33    238    -13    241    242 352.0  -3.2  33698  281.80 0864.53
2015 04 09 10 39 52 .47     -43    246      2    250    251 350.0   0.5  33704  281.88 0864.53
2015 04 09 10 39 52 .74     -38    223    -35    227    230 350.2  -9.0  33696  281.75 0864.53
2015 04 09 10 39 52 .97     -15    202    -66    203    213 355.5 -23.6  33704  281.89 0864.53
2015 04 09 10 39 53 .23     -59    196    -25    205    207 343.1  -7.2  33704  281.90 0864.53
2015 04 09 10 39 53 .48     -49    209    -34    215    218 346.6  -9.0  33704  281.89 0864.53
2015 04 09 10 39 53 .73     -27    196    -15    198    199 352.0  -4.4  33704  281.90 0864.53
2015 04 09 10 39 53 .98     -63    197    -23    207    209 342.2  -6.5  33706  281.94 0864.53
2015 04 09 10 39 54 .23     -66    200    -26    211    213 341.7  -7.2  33708  281.97 0864.53
2015 04 09 10 39 54 .48     -47    195     -7    201    202 346.2  -2.2  33698  281.79 0864.53
2015 04 09 10 39 54 .73     -31    185    -12    188    189 350.2  -3.7  33704  281.89 0864.53
2015 04 09 10 39 54 .98     -47    179     -7    186    187 345.1  -2.2  33700  281.84 0864.53
2015 04 09 10 39 55 .24     -50    161     -3    169    170 342.6  -1.3  33712  282.04 0864.53
2015 04 09 10 39 55 .49     -31    140     20    144    146 347.5   8.0  33730  282.32 0864.53
2015 04 09 10 39 55 .74     -24    121     12    124    125 348.4   5.9  33724  282.24 0864.53
2015 04 09 10 39 55 .99      -9    126     29    127    131 355.5  13.1  33744  282.56 0864.53
2015 04 09 10 39 56 .24      13    136     16    137    139   5.8   6.9  33720  282.17 0864.54
2015 04 09 10 39 56 .49     -10    144      7    145    146 356.0   2.8  33716  282.11 0864.54
2015 04 09 10 39 56 .74     -20    144     -1    146    147 352.0  -0.7  33708  281.95 0864.54
2015 04 09 10 39 57 .00     -35    138      0    143    144 345.7  -0.3  33722  282.21 0864.54
2015 04 09 10 39 57 .25     -53    132    -11    143    144 338.2  -4.6  33724  282.24 0864.54
2015 04 09 10 39 57 .49     -38    129    -22    135    137 343.5  -9.3  33720  282.16 0864.54
2015 04 09 10 39 57 .74     -28    132     -7    135    136 348.0  -3.2  33704  281.90 0864.54
2015 04 09 10 39 58 .00     -17    137     -3    139    140 352.9  -1.3  33704  281.89 0864.54
2015 04 09 10 39 58 .25     -11    139    -10    140    141 355.1  -4.1  33700  281.82 0864.54
2015 04 09 10 39 58 .50     -15    140     -6    141    142 353.8  -2.6  33698  281.79 0864.54
2015 04 09 10 39 58 .75      -8    148     -6    149    150 356.9  -2.6  33718  282.14 0864.54
2015 04 09 10 39 59 .00     -13    142      7    143    144 354.7   2.9  33734  282.41 0864.54
2015 04 09 10 39 59 .25      -8    150     -5    151    152 356.9  -2.2  33706  281.92 0864.54
2015 04 09 10 39 59 .50     -20    142      0    144    145 352.0   0.2  33730  282.32 0864.54
2015 04 09 10 39 59 .76     -43    162    -12    168    169 345.1  -4.4  33802  283.55 0864.54
2015 04 09 10 40 00 .00     -17    162     10    163    164 353.8   3.8  33784  283.23 0864.54
2015 04 09 10 40 00 .25     -11    141     26    142    145 355.5  10.6  33806  283.61 0864.54
2015 04 09 10 40 00 .51       9    137     32    138    142   4.0  13.2  33792  283.38 0864.54
2015 04 09 10 40 00 .75       9    164     40    165    170   3.1  13.9  33838  284.13 0864.53
2015 04 09 10 40 01 .01       6    147     33    148    152   2.7  12.6  33824  283.90 0864.53
2015 04 09 10 40 01 .26      27    161     55    164    174   9.7  18.6  33836  284.12 0864.53
2015 04 09 10 40 01 .51       8    174     56    175    184   2.7  17.9  33794  283.41 0864.53
2015 04 09 10 40 01 .76       2    147     46    148    155   1.1  17.3  33832  284.05 0864.53
2015 04 09 10 40 02 .02      52    175     57    183    192  16.5  17.3  33810  283.66 0864.53
2015 04 09 10 40 02 .27      44    206     82    211    226  12.3  22.5  33794  283.40 0864.53
2015 04 09 10 40 02 .52      -3    245     23    246    248 359.1   5.4  33794  283.41 0864.54
2015 04 09 10 40 02 .77     -18    235     32    236    239 355.6   7.8  33826  283.94 0864.54
2015 04 09 10 40 03 .02     -25    198     -4    200    201 352.7  -1.3  33852  284.39 0864.54
2015 04 09 10 40 03 .27     -38    221     11    225    226 350.2   2.8  33842  284.22 0864.54
2015 04 09 10 40 03 .52     -61    238     18    246    247 345.5   4.4  33848  284.29 0864.53
2015 04 09 10 40 03 .78     -48    208      6    214    215 346.9   1.8  33844  284.23 0864.53
2015 04 09 10 40 04 .03     -46    227     24    232    234 348.5   5.9  33864  284.56 0864.53
2015 04 09 10 40 04 .28     -44    280     22    284    285 350.9   4.6  33862  284.53 0864.53
2015 04 09 10 40 04 .52     -38    226     15    230    231 350.4   3.8  33758  282.79 0864.53
2015 04 09 10 40 04 .77     -40    238     -9    242    243 350.3  -2.2  33706  281.91 0864.53
2015 04 09 10 40 05 .02     -32    228    -12    231    232 351.9  -3.2  33704  281.89 0864.53
2015 04 09 10 40 05 .28     -34    274      0    277    278 352.8   0.0  33818  283.79 0864.54
2015 04 09 10 40 05 .52     -28    257     25    259    261 353.7   5.7  33802  283.52 0864.54
2015 04 09 10 40 05 .78     -38    232     46    236    241 350.7  11.1  33812  283.69 0864.54
2015 04 09 10 40 06 .03     -39    253     56    257    264 351.1  12.4  33844  284.23 0864.54
2015 04 09 10 40 06 .27     -68    279     34    288    291 346.2   6.9  33776  283.09 0864.54
2015 04 09 10 40 06 .53     -57    261      8    268    269 347.6   1.7  33726  282.27 0864.54
2015 04 09 10 40 06 .78     -61    228     -4    237    238 344.9  -1.2  33706  281.91 0864.54
2015 04 09 10 40 07 .03     -72    217    -12    229    230 341.5  -3.2  33704  281.89 0864.54
2015 04 09 10 40 07 .28     -81    217    -24    232    234 339.5  -6.0  33704  281.90 0864.54
2015 04 09 10 40 07 .53     -79    206    -20    221    222 338.8  -5.2  33702  281.85 0864.54
2015 04 09 10 40 07 .78     -85    206    -18    223    224 337.5  -4.9  33716  282.09 0864.54
2015 04 09 10 40 08 .03     -92    201    -32    222    225 335.3  -8.2  33702  281.87 0864.54
2015 04 09 10 40 08 .29     -99    187    -46    212    218 332.1 -12.4  33724  282.22 0864.54
2015 04 09 10 40 08 .53     -89    166    -65    189    201 331.9 -19.1  33716  282.09 0864.54
2015 04 09 10 40 08 .79     -76    195    -37    210    214 338.6 -10.1  33734  282.41 0864.54
2015 04 09 10 40 09 .04     -60    210    -28    219    221 344.0  -7.3  33722  282.19 0864.54
2015 04 09 10 40 09 .29     -54    215     -8    222    223 345.7  -2.2  33722  282.19 0864.54
2015 04 09 10 40 09 .55     -81    252    -10    265    266 342.1  -2.2  33718  282.13 0864.54
2015 04 09 10 40 09 .79    -114    239    -51    265    270 334.5 -10.9  33730  282.32 0864.54
2015 04 09 10 40 10 .05    -109    215    -53    242    248 333.0 -12.4  33730  282.33 0864.54
2015 04 09 10 40 10 .29    -108    221    -44    247    252 333.9 -10.3  33736  282.42 0864.54
2015 04 09 10 40 10 .55     -92    241    -57    259    266 339.0 -12.4  33724  282.22 0864.54
2015 04 09 10 40 10 .80     -95    215    -84    236    251 336.2 -19.7  33712  282.03 0864.54
2015 04 09 10 40 11 .04    -108    216    -76    242    254 333.3 -17.6  33714  282.05 0864.54
2015 04 09 10 40 11 .30     -89    213    -79    231    245 337.3 -18.9  33706  281.93 0864.54
2015 04 09 10 40 11 .55     -71    205    -65    218    228 340.8 -16.8  33706  281.92 0864.54
2015 04 09 10 40 11 .80     -77    181    -62    197    207 336.8 -17.5  33696  281.75 0864.54
2015 04 09 10 40 12 .05     -57    163    -49    173    179 340.6 -20.7  33696  281.77 0864.54
2015 04 09 10 40 12 .30     -13    169    -14    170    171 355.5  -4.9  33742  282.52 0864.54
2015 04 09 10 40 12 .55     -20    178     -7    180    181 353.3  -2.2  33750  282.66 0864.54
2015 04 09 10 40 12 .81     -12    166     -6    167    168 355.6  -2.1  33766  282.93 0864.54
2015 04 09 10 40 13 .05      -3    178     -3    179    180 358.9  -1.3  33812  283.70 0864.54
2015 04 09 10 40 13 .31       5    166     -9    167    168   1.8  -3.1  33768  282.96 0864.54
2015 04 09 10 40 13 .56      24    198     10    200    201   7.1   2.9  33808  283.65 0864.54
2015 04 09 10 40 13 .80      25    209     41    211    216   6.9  11.1  33842  284.22 0864.54
2015 04 09 10 40 14 .05      -6    219     -4    220    221 358.4  -1.1  33724  282.22 0864.54
2015 04 09 10 40 14 .31     -15    222     -4    223    224 356.0  -1.2  33738  282.47 0864.54
2015 04 09 10 40 14 .55     -24    225     49    227    233 353.8  12.2  33832  284.05 0864.54
2015 04 09 10 40 14 .80     -15    208     31    209    212 355.6   8.5  33762  282.86 0864.54
2015 04 09 10 40 15 .06      15    232     11    233    234   3.8   2.9  33752  282.70 0864.54
2015 04 09 10 40 15 .31      -8    238     42    239    243 358.0  10.1  33770  283.00 0864.54
2015 04 09 10 40 15 .56     -59    247     21    255    256 346.4   4.9  33734  282.38 0864.54
2015 04 09 10 40 15 .81     -70    224    -16    235    236 342.6  -4.1  33718  282.13 0864.54
2015 04 09 10 40 16 .07     -77    209    -18    223    224 339.7  -4.9  33712  282.04 0864.54
2015 04 09 10 40 16 .32     -83    215    -16    231    232 338.8  -4.1  33708  281.95 0864.54
2015 04 09 10 40 16 .57     -82    200    -24    217    219 337.5  -6.5  33704  281.89 0864.54
2015 04 09 10 40 16 .82     -92    201    -26    222    224 335.3  -6.9  33708  281.95 0864.54
2015 04 09 10 40 17 .07     -77    201    -18    216    217 339.1  -4.9  33704  281.89 0864.53
2015 04 09 10 40 17 .32     -42    184     20    189    191 346.9   6.1  33752  282.71 0864.53
2015 04 09 10 40 17 .57     -37    184     20    188    190 348.4   6.1  33732  282.36 0864.53
2015 04 09 10 40 17 .83     -27    205      5    207    208 352.4   1.6  33732  282.36 0864.53
2015 04 09 10 40 18 .08     -16    211     30    212    215 355.5   8.2  33740  282.51 0864.53
2015 04 09 10 40 18 .32      11    245     68    246    256   2.7  15.6  33744  282.57 0864.53
2015 04 09 10 40 18 .58       0    219     60    220    229   0.1  15.3  33722  282.19 0864.53
2015 04 09 10 40 18 .83       0    237     37    238    241 359.8   8.9  33724  282.22 0864.53
2015 04 09 10 40 19 .08      -8    218     -8    219    220 357.8  -2.2  33728  282.29 0864.53
2015 04 09 10 40 19 .33      -9    228     19    229    230 357.5   4.9  33750  282.66 0864.53
2015 04 09 10 40 19 .58     -46    226     -5    231    232 348.4  -1.3  33736  282.42 0864.53
2015 04 09 10 40 19 .83     -44    221    -28    226    228 348.5  -7.2  33724  282.22 0864.53
2015 04 09 10 40 20 .08     -25    237      7    239    240 353.8   1.7  33736  282.43 0864.53
2015 04 09 10 40 20 .33       0    241      3    242    243 359.8   0.8  33736  282.42 0864.53
2015 04 09 10 40 20 .58     -17    233     24    234    236 355.6   5.9  33748  282.62 0864.53
2015 04 09 10 40 20 .83     -18    241     31    242    245 355.6   7.5  33742  282.53 0864.53
2015 04 09 10 40 21 .09     -37    246      9    249    250 351.3   2.1  33738  282.47 0864.53
2015 04 09 10 40 21 .33     -51    300     36    305    308 350.2   6.9  33786  283.25 0864.53
2015 04 09 10 40 21 .58     -64    252     47    261    266 345.7  10.3  33770  283.00 0864.53
2015 04 09 10 40 21 .83     -44    262     14    266    267 350.4   3.1  33730  282.33 0864.53
2015 04 09 10 40 22 .08     -54    251     13    257    258 347.7   2.9  33726  282.25 0864.53
2015 04 09 10 40 22 .33     -67    266     13    275    276 345.8   2.8  33716  282.10 0864.53
2015 04 09 10 40 22 .58     -68    254     -5    264    265 344.9  -1.2  33700  281.81 0864.53
2015 04 09 10 40 22 .84     -81    268    -23    281    283 343.1  -4.9  33712  282.03 0864.53
2015 04 09 10 40 23 .09     -73    248    -22    259    261 343.5  -4.9  33710  281.98 0864.53
2015 04 09 10 40 23 .37     -63    234     -9    243    244 344.9  -2.2  33714  282.05 0864.53
2015 04 09 10 40 23 .60     -47    286     27    290    292 350.7   5.4  33872  284.71 0864.53
2015 04 09 10 40 23 .84     -61    312     49    319    323 348.9   8.8  33846  284.26 0864.53
2015 04 09 10 40 24 .09       9    273     31    274    276   2.0   6.5  33800  283.49 0864.53
2015 04 09 10 40 24 .35      13    243     56    244    251   3.1  12.9  33802  283.54 0864.53
2015 04 09 10 40 24 .60     -29    259     55    261    267 353.5  12.0  33904  285.24 0864.53
2015 04 09 10 40 24 .85     -42    223     65    227    237 349.3  16.0  33912  285.39 0864.53
2015 04 09 10 40 25 .10     -51    200     24    207    209 345.5   6.7  33842  284.22 0864.53
2015 04 09 10 40 25 .35     -96    191    -43    214    219 333.3 -11.3  33766  282.93 0864.53
2015 04 09 10 40 25 .60    -100    169    -45    197    203 329.3 -12.9  33766  282.93 0864.53
2015 04 09 10 40 25 .86     -76    211     11    225    226 340.2   2.9  33810  283.68 0864.53
2015 04 09 10 40 26 .10     -77    234     15    247    248 341.7   3.6  33820  283.84 0864.53
2015 04 09 10 40 26 .35     -75    223     -1    236    237 341.3  -0.3  33736  282.42 0864.53
2015 04 09 10 40 26 .60     -77    239      7    252    253 342.0   1.8  33714  282.05 0864.53
2015 04 09 10 40 26 .85     -86    239     -9    255    256 340.2  -2.2  33700  281.81 0864.53
2015 04 09 10 40 27 .10     -79    218     -1    233    234 340.0  -0.3  33698  281.80 0864.53
2015 04 09 10 40 27 .36     -76    196      0    211    212 338.8  -0.3  33698  281.80 0864.53
2015 04 09 10 40 27 .61     -59    177      9    187    188 341.5   2.9  33698  281.80 0864.53
2015 04 09 10 40 27 .86     -30    182      9    185    186 350.7   2.9  33700  281.84 0864.53
2015 04 09 10 40 28 .11     -41    200     -8    205    206 348.4  -2.2  33698  281.79 0864.53
2015 04 09 10 40 28 .36     -33    212     -7    215    216 351.1  -2.1  33698  281.80 0864.53
2015 04 09 10 40 28 .61     -18    220    -12    221    222 355.3  -3.2  33698  281.79 0864.53
2015 04 09 10 40 28 .86     -27    230    -22    232    234 353.3  -5.6  33698  281.80 0864.53
2015 04 09 10 40 29 .11      -2    219    -10    220    221 359.3  -2.8  33698  281.80 0864.53
2015 04 09 10 40 29 .36       2    171    -17    172    173   1.0  -6.0  33700  281.84 0864.53
2015 04 09 10 40 29 .61       3    179     -8    180    181   1.0  -2.8  33702  281.85 0864.53
2015 04 09 10 40 29 .87      26    234     -4    236    237   6.5  -1.1  33722  282.18 0864.53
2015 04 09 10 40 30 .12      49    223     11    229    230  12.5   2.8  33734  282.39 0864.53
2015 04 09 10 40 30 .37      39    212     33    216    219  10.5   8.8  33752  282.69 0864.53
2015 04 09 10 40 30 .62      18    208     42    209    214   5.1  11.6  33742  282.52 0864.52
2015 04 09 10 40 30 .87      16    205     40    206    210   4.5  11.1  33736  282.44 0864.52
2015 04 09 10 40 31 .12     -33    192     37    195    199 350.2  11.0  33708  281.97 0864.52
2015 04 09 10 40 31 .38      14    174    -11    175    176   4.9  -3.7  33718  282.14 0864.52
2015 04 09 10 40 31 .62     -15    177     -2    178    179 355.1  -0.7  33720  282.17 0864.52
2015 04 09 10 40 31 .88       6    184     12    185    186   2.0   3.8  33720  282.17 0864.52
2015 04 09 10 40 32 .12       0    171      7    172    173   0.0   2.5  33716  282.09 0864.52
2015 04 09 10 40 32 .38       0    215     -2    216    217 359.8  -0.7  33724  282.22 0864.52
2015 04 09 10 40 32 .63     -15    203     -2    204    205 355.6  -0.7  33714  282.05 0864.53
2015 04 09 10 40 32 .87     -14    224     19    225    226 356.4   4.9  33766  282.93 0864.53
2015 04 09 10 40 33 .13     -11    235     22    236    238 357.1   5.4  33728  282.28 0864.53
2015 04 09 10 40 33 .38     -15    224     27    225    227 356.0   6.9  33778  283.14 0864.53
2015 04 09 10 40 33 .63       2    158     43    159    165   0.9  15.3  33806  283.60 0864.53
2015 04 09 10 40 33 .88       2    137     49    138    146   0.9  20.0  33820  283.83 0864.53
2015 04 09 10 40 34 .13     -16    144     74    145    162 353.3  29.1  33834  284.07 0864.53
2015 04 09 10 40 34 .38      16    154     82    155    175   6.2  30.1  33810  283.68 0864.52
2015 04 09 10 40 34 .64      64    141     80    155    174  24.5  29.3  33752  282.69 0864.52
2015 04 09 10 40 34 .89      50    146    102    155    185  19.2  36.3  33838  284.15 0864.52
2015 04 09 10 40 35 .13      42    159     67    165    178  15.1  23.1  33834  284.08 0864.52
2015 04 09 10 40 35 .39      16    148     48    149    157   6.2  18.1  33808  283.65 0864.52
2015 04 09 10 40 35 .64       2    138     49    139    147   0.9  20.0  33842  284.20 0864.52
2015 04 09 10 40 35 .89       6    139     54    140    150   2.7  22.0  33798  283.46 0864.52
2015 04 09 10 40 36 .14     -26    153     61    156    167 350.3  22.3  33874  284.74 0864.53
2015 04 09 10 40 36 .39       2    110     75    111    133   1.4  37.0  33904  285.24 0864.53
2015 04 09 10 40 36 .63     -16    150     77    151    169 353.7  29.1  33938  285.82 0864.53
2015 04 09 10 40 36 .90     -13    187     67    188    199 356.0  20.4  33956  286.14 0864.53
2015 04 09 10 40 37 .15     -29    144     83    148    169 348.4  31.9  33986  286.64 0864.53
2015 04 09 10 40 37 .39     -12    183     77    184    199 356.2  23.8  33930  285.70 0864.53
2015 04 09 10 40 37 .65       0    171     80    172    189   0.2  27.1  33836  284.10 0864.53
2015 04 09 10 40 37 .90      -7    204    105    205    230 357.8  29.2  33886  284.96 0864.52
2015 04 09 10 40 38 .15     -19    220     87    221    237 354.9  22.8  33814  283.72 0864.52
2015 04 09 10 40 38 .40     -60    193     60    203    212 342.6  16.6  33784  283.23 0864.52
2015 04 09 10 40 38 .65     -26    186     64    188    199 351.8  18.9  33834  284.07 0864.52
2015 04 09 10 40 38 .90     -51    187     30    194    197 344.6   8.9  33774  283.08 0864.52
2015 04 09 10 40 39 .15     -49    199     17    206    207 346.0   4.9  33754  282.74 0864.52
2015 04 09 10 40 39 .40     -32    227     37    230    234 351.9   9.3  33764  282.89 0864.52
2015 04 09 10 40 39 .65     -32    227     44    230    235 351.9  11.0  33778  283.14 0864.52
2015 04 09 10 40 39 .90     -46    185      9    191    192 346.0   2.8  33802  283.53 0864.52
2015 04 09 10 40 40 .16     -68    175      6    189    190 338.6   2.1  33814  283.75 0864.52
2015 04 09 10 40 40 .40     -45    186     66    192    204 346.4  18.9  33820  283.83 0864.52
2015 04 09 10 40 40 .66     -30    164     48    167    174 349.5  16.3  33792  283.36 0864.52
2015 04 09 10 40 40 .91     -42    125     11    132    133 341.3   5.0  33792  283.38 0864.52
2015 04 09 10 40 41 .16     -60     90     47    109    118 326.2  25.1  33792  283.38 0864.52
2015 04 09 10 40 41 .41     -44    135     42    143    150 341.7  16.3  33762  282.86 0864.52
2015 04 09 10 40 41 .66     -39    140     17    146    148 344.4   6.9  33774  283.08 0864.52
2015 04 09 10 40 41 .90     -47    152     36    160    165 342.8  12.9  33746  282.61 0864.52
2015 04 09 10 40 42 .17     -34    163     29    167    170 348.2  10.1  33752  282.69 0864.52
2015 04 09 10 40 42 .41     -41    198     56    203    211 348.2  15.6  33816  283.78 0864.52
2015 04 09 10 40 42 .65     -48    212     42    218    223 347.1  11.1  33818  283.81 0864.52
2015 04 09 10 40 42 .92     -24    185     38    187    191 352.4  11.6  33788  283.31 0864.52
2015 04 09 10 40 43 .16     -29    168     19    171    173 350.0   6.5  33814  283.73 0864.52
2015 04 09 10 40 43 .41     -52    226     22    233    235 346.9   5.4  33764  282.90 0864.52
2015 04 09 10 40 43 .67     -67    191     20    203    204 340.6   5.7  33778  283.13 0864.52
2015 04 09 10 40 43 .92     -70    205    -10    217    218 341.1  -2.8  33726  282.27 0864.52
2015 04 09 10 40 44 .17     -61    183     -6    194    195 341.5  -1.8  33724  282.22 0864.52
2015 04 09 10 40 44 .42     -61    192    -43    202    207 342.4 -12.2  33712  282.04 0864.53
2015 04 09 10 40 44 .67     -71    188    -41    202    207 339.3 -11.5  33710  282.00 0864.53
2015 04 09 10 40 44 .92     -84    184    -29    203    206 335.5  -8.2  33718  282.12 0864.53
2015 04 09 10 40 45 .18     -86    196    -18    215    216 336.4  -4.9  33740  282.51 0864.53
2015 04 09 10 40 45 .43     -70    172    -23    186    188 337.7  -7.3  33738  282.47 0864.53
2015 04 09 10 40 45 .68    -115    142    -39    183    188 321.0 -12.2  33738  282.47 0864.53
2015 04 09 10 40 45 .93     -94    129    -24    160    162 323.9  -8.8  33738  282.47 0864.53
2015 04 09 10 40 46 .18    -107    121    -31    162    165 318.5 -10.9  33740  282.51 0864.53
2015 04 09 10 40 46 .43     -96    150    -25    179    181 327.4  -8.0  33768  282.98 0864.53
2015 04 09 10 40 46 .68    -105    134    -29    171    174 321.9  -9.8  33750  282.67 0864.53
2015 04 09 10 40 46 .93    -148    123    -21    193    195 309.6  -6.2  33730  282.32 0864.53
2015 04 09 10 40 47 .19    -126    134    -37    185    189 316.8 -11.3  33734  282.39 0864.53
2015 04 09 10 40 47 .43    -114    108     -6    158    159 313.6  -2.2  33736  282.44 0864.53
2015 04 09 10 40 47 .68    -118     86     -8    147    148 306.0  -3.1  33742  282.52 0864.53
2015 04 09 10 40 47 .93     -87     67     22    111    114 307.8  11.6  33772  283.03 0864.53
2015 04 09 10 40 48 .19     -58    102     -6    118    119 330.1  -3.1  33806  283.61 0864.53
2015 04 09 10 40 48 .43     -85     80     24    117    120 313.2  11.6  33820  283.83 0864.53
2015 04 09 10 40 48 .69     -72     93      5    118    119 322.2   2.8  33814  283.73 0864.53
2015 04 09 10 40 48 .94    -106     67     10    126    127 302.4   4.9  33800  283.51 0864.52
2015 04 09 10 40 49 .19     -66     93     31    115    120 324.8  15.3  33826  283.93 0864.52
2015 04 09 10 40 49 .44     -64     84     50    106    117 322.6  27.1  33844  284.23 0864.52
2015 04 09 10 40 49 .69     -77     77     35    109    115 315.0  17.9  33828  283.98 0864.52
2015 04 09 10 40 49 .94     -75     90     23    118    121 320.3  11.1  33792  283.38 0864.52
2015 04 09 10 40 50 .19     -51     99     42    112    119 332.4  21.0  33806  283.60 0864.52
2015 04 09 10 40 50 .44     -48     83      8     97     98 329.7   4.9  33796  283.43 0864.52
2015 04 09 10 40 50 .70     -53     78     34     95    100 325.7  20.0  33786  283.28 0864.52
2015 04 09 10 40 50 .95    -103     80    -16    131    133 307.7  -7.2  33756  282.76 0864.52
2015 04 09 10 40 51 .20     -59     85     75    104    128 325.3  39.5  33776  283.09 0864.52
2015 04 09 10 40 51 .45     -76    112     21    136    138 325.7   8.9  33770  282.99 0864.52
2015 04 09 10 40 51 .70    -102    110    -10    151    152 317.2  -4.1  33738  282.46 0864.52
2015 04 09 10 40 51 .95    -101    116    -16    154    155 319.0  -6.2  33730  282.34 0864.52
2015 04 09 10 40 52 .21     -84    133    -18    158    160 327.9  -6.5  33766  282.94 0864.52
2015 04 09 10 40 52 .45     -99    130    -45    164    171 322.6 -15.5  33758  282.79 0864.52
2015 04 09 10 40 52 .71    -111    104    -27    153    156 313.2 -10.3  33734  282.41 0864.52
2015 04 09 10 40 52 .95     -83     86      5    120    121 315.8   2.8  33738  282.46 0864.52
2015 04 09 10 40 53 .21     -92    104     -7    139    140 318.5  -3.1  33726  282.27 0864.52
2015 04 09 10 40 53 .46     -84     80      4    117    118 313.6   2.3  33734  282.39 0864.53
2015 04 09 10 40 53 .71     -69     74     21    102    105 316.8  11.6  33744  282.57 0864.53
2015 04 09 10 40 53 .96     -70     72     44    101    110 315.9  25.1  33754  282.72 0864.53
2015 04 09 10 40 54 .21     -79     76     26    110    114 314.0  13.2  33748  282.62 0864.53
2015 04 09 10 40 54 .46     -43     85      7     96     97 332.8   4.4  33750  282.67 0864.53
2015 04 09 10 40 54 .71     -54     71     10     90     91 323.0   6.5  33756  282.76 0864.53
2015 04 09 10 40 54 .96     -86     64     21    108    111 306.4  11.0  33764  282.91 0864.53
2015 04 09 10 40 55 .21    -102     75      0    127    128 306.4   0.2  33742  282.52 0864.53
2015 04 09 10 40 55 .46    -124     74    -15    145    146 301.1  -6.2  33716  282.09 0864.53
2015 04 09 10 40 55 .71    -103     85    -24    134    137 309.6 -10.3  33714  282.05 0864.53
2015 04 09 10 40 55 .96    -118     91    -19    150    152 307.7  -7.3  33726  282.27 0864.53
2015 04 09 10 40 56 .21    -113     87    -26    143    146 307.7 -10.3  33716  282.09 0864.53
2015 04 09 10 40 56 .46     -96     96    -37    136    142 315.0 -15.4  33710  281.99 0864.53
2015 04 09 10 40 56 .72     -79     87    -31    118    123 317.7 -15.0  33716  282.09 0864.53
2015 04 09 10 40 56 .96     -65     60    -15     89     91 312.7  -9.8  33744  282.57 0864.53
2015 04 09 10 40 57 .21     -72     64    -16     97     99 311.3  -9.3  33754  282.74 0864.53
2015 04 09 10 40 57 .46     -75     75    -20    107    109 315.0 -10.9  33730  282.34 0864.53
2015 04 09 10 40 57 .72     -63     68    -18     93     95 317.2 -11.3  33706  281.94 0864.53
2015 04 09 10 40 57 .97     -58     79    -24     99    103 323.5 -13.9  33710  281.99 0864.53
2015 04 09 10 40 58 .23     -58     79    -24     99    103 323.5 -13.9  33740  282.51 0864.53
2015 04 09 10 40 58 .47     -59     93    -14    111    112 327.5  -7.3  33756  282.76 0864.53
2015 04 09 10 40 58 .74     -44     82    -22     94     97 331.5 -13.4  33736  282.44 0864.53
2015 04 09 10 40 58 .98     -53     68     -9     87     88 322.2  -6.2  33786  283.28 0864.53
2015 04 09 10 40 59 .23     -41     96     -4    105    106 336.8  -2.2  33806  283.60 0864.53
2015 04 09 10 40 59 .48     -32     96     -3    102    103 341.7  -1.8  33800  283.51 0864.53
2015 04 09 10 40 59 .73     -40     67     -7     79     80 329.3  -5.6  33780  283.18 0864.53
2015 04 09 10 40 59 .98     -63     63      0     90     91 315.0  -0.3  33780  283.18 0864.53
2015 04 09 10 41 00 .23     -59     63     -8     87     88 316.8  -5.6  33750  282.66 0864.53
2015 04 09 10 41 00 .48     -52     59    -15     80     82 318.6 -10.9  33726  282.27 0864.53
2015 04 09 10 41 00 .73     -28     53    -12     61     63 331.9 -11.3  33752  282.69 0864.53
2015 04 09 10 41 00 .99     -39     64     -9     76     77 328.4  -7.3  33754  282.74 0864.53
2015 04 09 10 41 01 .23     -36     39     -3     54     55 316.8  -4.1  33772  283.04 0864.53
2015 04 09 10 41 01 .49     -45     37     -3     59     60 309.5  -3.1  33800  283.50 0864.53
2015 04 09 10 41 01 .73     -44     53     42     70     81 320.3  34.0  33812  283.70 0864.53
2015 04 09 10 41 01 .98     -31     66     33     74     81 334.5  25.7  33812  283.70 0864.53
2015 04 09 10 41 02 .24     -43     68      6     81     82 327.5   4.4  33822  283.88 0864.53
2015 04 09 10 41 02 .48     -51     64    -12     83     84 321.3  -8.8  33796  283.45 0864.53
2015 04 09 10 41 02 .73     -64     51     -9     83     84 308.6  -6.2  33784  283.23 0864.53
2015 04 09 10 41 02 .98     -56     89    -18    106    108 327.5  -9.8  33738  282.46 0864.53
2015 04 09 10 41 03 .24     -63    106    -33    124    129 329.3 -15.0  33732  282.36 0864.53
2015 04 09 10 41 03 .49     -58    108    -29    123    127 331.5 -13.4  33740  282.51 0864.53
2015 04 09 10 41 03 .74     -43     89     30     99    104 334.1  16.8  33796  283.45 0864.53
2015 04 09 10 41 03 .99     -51     88     20    102    104 329.7  11.1  33812  283.71 0864.53
2015 04 09 10 41 04 .23     -75     62     -3     98     99 309.6  -2.2  33776  283.11 0864.53
2015 04 09 10 41 04 .50     -82     73    -28    110    114 311.8 -14.5  33750  282.67 0864.53
2015 04 09 10 41 04 .75     -52     97    -14    111    112 331.9  -7.3  33786  283.28 0864.53
2015 04 09 10 41 05 .00     -46     97    -14    108    109 334.7  -7.7  33760  282.84 0864.53
2015 04 09 10 41 05 .25     -61     98    -24    116    119 327.9 -11.9  33758  282.81 0864.52
2015 04 09 10 41 05 .50     -52     89    -22    104    107 329.7 -11.9  33748  282.62 0864.52
2015 04 09 10 41 05 .75     -64     97    -21    117    119 326.6 -10.3  33732  282.37 0864.52
2015 04 09 10 41 06 .00     -43     99    -14    109    110 336.4  -7.3  33728  282.29 0864.52
2015 04 09 10 41 06 .26     -56     89    -18    106    108 327.5  -9.8  33730  282.34 0864.52
2015 04 09 10 41 06 .50     -53     84    -24    100    104 327.5 -13.9  33728  282.29 0864.52
2015 04 09 10 41 06 .75     -52     77    -25     94     98 325.7 -15.0  33724  282.24 0864.52
2015 04 09 10 41 07 .01     -52     59    -24     80     84 318.6 -16.6  33730  282.34 0864.52
2015 04 09 10 41 07 .26     -55     53     -9     77     78 314.1  -7.3  33742  282.52 0864.52
2015 04 09 10 41 07 .51     -42     49     -3     65     66 319.5  -3.1  33758  282.81 0864.52
2015 04 09 10 41 07 .76     -43     44      0     62     63 315.9   0.8  33780  283.18 0864.52
2015 04 09 10 41 08 .01     -40     33     10     52     54 309.5  11.1  33800  283.50 0864.52
2015 04 09 10 41 08 .25     -47     36     18     60     63 307.8  17.3  33784  283.24 0864.52
2015 04 09 10 41 08 .51     -82     47    -24     95     99 299.8 -14.5  33728  282.29 0864.52
2015 04 09 10 41 08 .76    -106     63     -4    124    125 300.6  -2.2  33734  282.39 0864.52
2015 04 09 10 41 09 .01     -94     69     -4    118    119 306.4  -2.2  33736  282.44 0864.52
2015 04 09 10 41 09 .26     -85     54     -8    101    102 302.5  -4.6  33740  282.49 0864.52
2015 04 09 10 41 09 .51     -92     34     -3     99    100 290.4  -1.8  33732  282.37 0864.52
2015 04 09 10 41 09 .76    -105     50    -18    117    119 295.4  -8.8  33738  282.47 0864.52
2015 04 09 10 41 10 .01    -118     42    -16    126    128 289.9  -7.3  33736  282.42 0864.52
2015 04 09 10 41 10 .26    -105     41     -7    113    114 291.3  -3.7  33754  282.72 0864.52
2015 04 09 10 41 10 .51    -114     48    -11    124    125 293.1  -5.1  33750  282.66 0864.52
2015 04 09 10 41 10 .77    -107     43    -15    116    118 291.8  -7.7  33754  282.72 0864.52
2015 04 09 10 41 11 .02     -78     34    -14     86     88 294.0  -9.8  33766  282.94 0864.52
2015 04 09 10 41 11 .27     -77      5    -16     78     80 274.3 -11.9  33788  283.31 0864.52
2015 04 09 10 41 11 .52     -34    -16     23     38     44 244.6  33.5  33824  283.92 0864.52
2015 04 09 10 41 11 .77     -24     12     -1     28     29 297.1  -2.2  33816  283.78 0864.52
2015 04 09 10 41 12 .03     -69     -9    -14     70     72 262.1 -11.3  33756  282.76 0864.52
2015 04 09 10 41 12 .28     -52     23    -11     58     60 294.4 -11.3  33776  283.09 0864.52
2015 04 09 10 41 12 .53     -23     36     24     43     49 327.5  31.4  33830  284.02 0864.52
2015 04 09 10 41 12 .78     -20     32     26     38     46 327.4  37.6  33810  283.68 0864.52
2015 04 09 10 41 13 .03     -13     26      9     30     32 332.8  17.3  33820  283.83 0864.52
2015 04 09 10 41 13 .28     -15     16     -8     23     24 316.8 -23.6  33814  283.73 0864.52
2015 04 09 10 41 13 .53      -9     -5      9     11     14 241.1  47.9  33822  283.86 0864.52
2015 04 09 10 41 13 .78     -22      7     -3     24     25 288.4  -7.3  33822  283.88 0864.52
2015 04 09 10 41 14 .03     -33     -6      2     34     35 258.5   4.9  33842  284.20 0864.52
2015 04 09 10 41 14 .29     -24     -4     10     25     26 258.5  21.0  33858  284.49 0864.52
2015 04 09 10 41 14 .53     -14     12      9     19     21 311.3  27.2  33866  284.60 0864.52
2015 04 09 10 41 14 .78      -2      4     -3      5      5 327.5 -39.9  33836  284.10 0864.52
2015 04 09 10 41 15 .03      -9     27      2     29     30 341.3   4.9  33834  284.08 0864.52
2015 04 09 10 41 15 .29     -49     57    -21     76     79 319.5 -15.5  33830  284.00 0864.52
2015 04 09 10 41 15 .53     -78     74    -13    108    109 313.6  -7.3  33814  283.75 0864.52
2015 04 09 10 41 15 .78     -84     71      2    111    112 310.4   1.2  33810  283.66 0864.52
2015 04 09 10 41 16 .04    -108     71    -12    130    131 303.3  -5.6  33812  283.71 0864.52
2015 04 09 10 41 16 .29     -94     59    -31    112    117 302.0 -15.5  33790  283.33 0864.52
2015 04 09 10 41 16 .53    -104     49    -26    116    120 295.4 -12.9  33768  282.96 0864.52
2015 04 09 10 41 16 .79    -105     50    -18    117    119 295.4  -8.8  33766  282.94 0864.52
2015 04 09 10 41 17 .04     -98     71    -10    122    123 305.9  -5.1  33790  283.33 0864.52
2015 04 09 10 41 17 .29     -79     68     -4    105    106 310.4  -2.2  33788  283.31 0864.52
2015 04 09 10 41 17 .54     -87     72    -10    113    114 309.6  -5.2  33774  283.08 0864.52
2015 04 09 10 41 17 .79     -91     58     -8    109    110 302.5  -4.6  33768  282.96 0864.52
2015 04 09 10 41 18 .04    -104     48     -6    115    116 294.8  -3.2  33778  283.14 0864.51
2015 04 09 10 41 18 .30    -128     42    -27    135    138 288.2 -11.3  33766  282.94 0864.51
2015 04 09 10 41 18 .56    -124     55    -26    136    139 294.0 -10.9  33784  283.23 0864.51
2015 04 09 10 41 18 .80    -111     92    -15    145    146 309.6  -6.2  33842  284.22 0864.51
2015 04 09 10 41 19 .05    -117     96    -17    152    154 309.5  -6.7  33846  284.27 0864.51
2015 04 09 10 41 19 .31     -78     78      3    111    112 314.9   1.8  33854  284.42 0864.51
2015 04 09 10 41 19 .55     -55     55      1     79     80 315.0   1.2  33856  284.45 0864.51
2015 04 09 10 41 19 .81     -64     57      0     86     87 311.8   0.2  33852  284.37 0864.51
2015 04 09 10 41 20 .06     -76     76      8    108    109 315.0   4.4  33840  284.17 0864.51
2015 04 09 10 41 20 .30     -66     60      4     90     91 312.2   2.9  33846  284.27 0864.51
2015 04 09 10 41 20 .56     -56     52      0     77     78 313.1  -0.3  33846  284.27 0864.51
2015 04 09 10 41 20 .81     -79     52     11     95     96 303.3   6.9  33846  284.28 0864.51
2015 04 09 10 41 21 .06     -85     47     11     98     99 299.3   6.9  33832  284.05 0864.51
2015 04 09 10 41 21 .31     -75     60     -3     97     98 308.6  -2.2  33834  284.07 0864.51
2015 04 09 10 41 21 .56     -77     63     -6    100    101 309.6  -3.7  33832  284.03 0864.51
2015 04 09 10 41 21 .81    -115     67    -14    134    135 300.2  -6.2  33804  283.56 0864.51
2015 04 09 10 41 22 .06    -124     59    -16    138    139 295.4  -6.7  33786  283.28 0864.51
2015 04 09 10 41 22 .31    -121     48    -14    131    132 291.7  -6.2  33780  283.16 0864.51
2015 04 09 10 41 22 .56    -100     40     -4    108    109 291.8  -2.2  33800  283.51 0864.50
2015 04 09 10 41 22 .81     -77     55    -12     95     96 305.5  -7.3  33808  283.65 0864.50
2015 04 09 10 41 23 .06     -49     60    -19     78     81 320.4 -13.9  33834  284.07 0864.50
2015 04 09 10 41 23 .32     -48     50     -1     70     71 315.8  -1.3  33834  284.07 0864.50
2015 04 09 10 41 23 .57     -87     28    -25     92     96 288.2 -15.5  33828  283.98 0864.50
2015 04 09 10 41 23 .82     -57     44     -5     73     74 307.8  -4.1  33850  284.34 0864.50
2015 04 09 10 41 24 .07     -19     44     -1     49     50 336.4  -2.2  33862  284.54 0864.50
2015 04 09 10 41 24 .32     -44     61     43     76     87 324.0  32.4  33876  284.79 0864.51
2015 04 09 10 41 24 .57     -34     69     10     77     78 333.7   7.5  33874  284.76 0864.51
2015 04 09 10 41 24 .82     -37     78    -14     87     89 334.1  -9.3  33878  284.81 0864.51
2015 04 09 10 41 25 .07     -54     46     41     71     81 310.4  32.9  33932  285.71 0864.51
2015 04 09 10 41 25 .31     -38     94      5    102    103 337.7   2.8  33930  285.68 0864.51
2015 04 09 10 41 25 .58     -26     97     15    101    103 344.9   8.5  33916  285.44 0864.51
2015 04 09 10 41 25 .83     -42     65     43     78     89 327.4  31.4  33888  284.99 0864.51
2015 04 09 10 41 26 .08     -29     46     36     55     65 327.4  35.6  33910  285.34 0864.51
2015 04 09 10 41 26 .33     -32     50     33     60     68 327.4  31.4  33904  285.26 0864.51
2015 04 09 10 41 26 .58     -21     29     18     37     41 323.9  27.2  33906  285.29 0864.51
2015 04 09 10 41 26 .83     -32     25     33     41     52 307.8  43.7  33910  285.36 0864.51
2015 04 09 10 41 27 .08     -30     25     27     40     48 309.5  36.5  33904  285.24 0864.51
2015 04 09 10 41 27 .33     -30     37     42     48     63 321.3  46.9  33896  285.11 0864.51
2015 04 09 10 41 27 .58     -26     26     65     37     74 314.9  67.7  33912  285.38 0864.51
2015 04 09 10 41 27 .83     -38     21     33     44     55 298.9  40.7  33896  285.11 0864.51
2015 04 09 10 41 28 .08      -5      9     27     11     29 327.5  79.2  33912  285.39 0864.51
2015 04 09 10 41 28 .33     -15    -13     18     20     26 228.7  50.0  33904  285.24 0864.51
2015 04 09 10 41 28 .59     -40    -28    -16     50     52 234.9 -23.8  33866  284.60 0864.51
2015 04 09 10 41 28 .84     -24    -35      9     43     45 215.2  12.2  33884  284.91 0864.51
2015 04 09 10 41 29 .08     -21    -16      4     27     28 232.2   9.0  33882  284.87 0864.51
2015 04 09 10 41 29 .33     -49     -9    -15     50     53 259.4 -16.6  33840  284.18 0864.51
2015 04 09 10 41 29 .58     -81      3     -8     82     83 272.6  -6.2  33790  283.33 0864.51
2015 04 09 10 41 29 .84     -66     31    -17     74     77 295.2 -13.4  33792  283.38 0864.51
2015 04 09 10 41 30 .09     -62     12     -9     64     65 281.5  -8.2  33816  283.78 0864.51
2015 04 09 10 41 30 .34     -39     13      6     42     43 288.4   9.0  33842  284.22 0864.51
2015 04 09 10 41 30 .59      -1     13     13     14     19 353.8  52.0  33838  284.13 0864.51
2015 04 09 10 41 30 .84     -27     31    -10     42     44 319.5 -13.4  33838  284.15 0864.51
2015 04 09 10 41 31 .09     -69     22    -10     73     74 287.7  -8.2  33818  283.80 0864.51
2015 04 09 10 41 31 .34     -82     27    -21     87     90 288.6 -13.9  33792  283.36 0864.51
2015 04 09 10 41 31 .59     -89     20    -31     92     98 282.8 -18.7  33820  283.83 0864.51
2015 04 09 10 41 31 .84    -104      4     -4    105    106 272.6  -2.6  33820  283.85 0864.51
2015 04 09 10 41 32 .09     -99     43    -19    109    111 293.5 -10.3  33796  283.43 0864.51
2015 04 09 10 41 32 .34     -98     50    -30    111    116 297.1 -15.4  33796  283.43 0864.51
2015 04 09 10 41 32 .61     -66     28     -9     72     73 293.5  -7.3  33868  284.64 0864.51
2015 04 09 10 41 32 .86     -48     15     20     51     54 288.2  21.0  33880  284.84 0864.51
2015 04 09 10 41 33 .10     -17    -44     33     48     58 201.8  36.5  33880  284.84 0864.51
2015 04 09 10 41 33 .35     -31    -31      8     44     45 225.0  11.1  33844  284.25 0864.52
2015 04 09 10 41 33 .60     -63    -61    -13     88     90 226.0  -8.8  33826  283.95 0864.52
2015 04 09 10 41 33 .86     -76    -50     -2     92     93 236.7  -1.3  33830  284.02 0864.52
2015 04 09 10 41 34 .11     -63    -21    -13     67     69 251.4 -11.3  33824  283.92 0864.52
2015 04 09 10 41 34 .36     -49     16     -5     52     53 288.2  -6.2  33850  284.35 0864.52
2015 04 09 10 41 34 .61       2      1     16      3     16  57.6  90.0  33858  284.49 0864.52
2015 04 09 10 41 34 .86      16     -1     17     17     24  94.3  50.1  33872  284.72 0864.52
2015 04 09 10 41 35 .11      -4    -20     40     21     45 193.4  69.8  33856  284.45 0864.52
2015 04 09 10 41 35 .36    -134     14    -49    135    143 276.1 -25.3  33778  283.13 0864.51
2015 04 09 10 41 35 .61     -36     16      8     40     41 294.4  12.2  33806  283.61 0864.51
2015 04 09 10 41 35 .86     -93     17    -19     95     97 280.6 -11.3  33774  283.06 0864.51
2015 04 09 10 41 36 .11    -170     -8    -49    171    177 267.0 -20.7  33768  282.98 0864.51
2015 04 09 10 41 36 .36    -158    -24    -25    160    163 261.2  -9.0  33774  283.08 0864.51
2015 04 09 10 41 36 .61    -171     13    -34    172    176 274.4 -11.3  33760  282.84 0864.51
2015 04 09 10 41 36 .86    -169      4    -48    170    177 271.5 -15.8  33754  282.74 0864.51
2015 04 09 10 41 37 .12    -146    -15    -33    147    151 263.8 -12.9  33772  283.04 0864.51
2015 04 09 10 41 37 .37    -189     -6    -52    190    198 267.9 -15.4  33758  282.81 0864.52
2015 04 09 10 41 37 .62    -221     16    -35    222    225 274.3  -9.0  33758  282.79 0864.52
2015 04 09 10 41 37 .87    -220      0    -58    221    229 270.0 -14.7  33762  282.88 0864.52
2015 04 09 10 41 38 .12    -220     29    -28    222    224 277.7  -7.2  33766  282.94 0864.52
2015 04 09 10 41 38 .37    -196     42    -49    201    208 282.2 -13.9  33754  282.74 0864.52
2015 04 09 10 41 38 .62    -197     52    -49    204    210 284.8 -13.7  33748  282.64 0864.52
2015 04 09 10 41 38 .87    -184     54    -58    192    201 286.4 -17.0  33742  282.52 0864.52
2015 04 09 10 41 39 .12    -196     62    -67    206    217 287.5 -18.1  33738  282.46 0864.52
2015 04 09 10 41 39 .39    -188     66    -63    200    210 289.3 -17.5  33750  282.66 0864.52
2015 04 09 10 41 39 .63    -165     55    -27    175    178 288.6  -9.0  33780  283.18 0864.52
2015 04 09 10 41 39 .89    -150     24    -41    152    158 279.2 -15.2  33792  283.38 0864.52
2015 04 09 10 41 40 .13    -130      0    -31    131    135 270.0 -13.4  33820  283.85 0864.52
2015 04 09 10 41 40 .38    -132     -8    -26    133    136 266.5 -11.3  33824  283.90 0864.52
2015 04 09 10 41 40 .63    -131      8    -36    132    138 273.9 -15.5  33840  284.17 0864.52
2015 04 09 10 41 40 .88    -135     21    -30    137    141 279.2 -12.4  33836  284.12 0864.52
2015 04 09 10 41 41 .14    -131     11    -31    132    136 275.2 -13.4  33826  283.93 0864.52
2015 04 09 10 41 41 .38    -128      4    -42    129    135 272.1 -23.8  33738  282.47 0864.52
2015 04 09 10 41 41 .63     -99      6    -43    100    108 273.5 -29.0  33736  282.42 0864.53
2015 04 09 10 41 41 .88     -99     13    -42    100    108 277.5 -28.5  33738  282.47 0864.53
2015 04 09 10 41 42 .14    -101      0    -44    102    111 270.4 -29.5  33746  282.61 0864.53
2015 04 09 10 41 42 .39    -107      8     -7    108    109 274.3  -4.1  33776  283.09 0864.53
2015 04 09 10 41 42 .64     -64     -4     16     65     68 265.7  14.3  33836  284.12 0864.53
2015 04 09 10 41 42 .89     -61      5     -2     62     63 275.2  -2.2  33842  284.22 0864.53
2015 04 09 10 41 43 .14     -52      4      4     53     54 275.2   4.9  33864  284.59 0864.53
2015 04 09 10 41 43 .39     -36     -2     -4     37     38 265.6  -7.3  33866  284.60 0864.53
2015 04 09 10 41 43 .64     -26      8      2     28     29 288.2   4.9  33872  284.72 0864.53
2015 04 09 10 41 43 .89     -22      8     22     24     32 290.0  50.0  33890  285.02 0864.53
2015 04 09 10 41 44 .14     -35      0     24     36     43 270.9  37.6  33886  284.96 0864.53
2015 04 09 10 41 44 .39     -28    -13     24     32     40 244.6  40.7  33902  285.21 0864.53
2015 04 09 10 41 44 .64     -45     13      9     47     48 286.8  11.1  33890  285.02 0864.53
2015 04 09 10 41 44 .89     -96     23    -31     99    104 283.7 -17.6  33782  283.19 0864.53
2015 04 09 10 41 45 .14     -95     -1    -21     96     99 269.2 -12.4  33776  283.09 0864.53
2015 04 09 10 41 45 .39    -101     -8    -13    102    103 265.2  -7.3  33772  283.04 0864.53
2015 04 09 10 41 45 .65    -134      4    -37    135    141 271.7 -15.5  33810  283.68 0864.53
2015 04 09 10 41 45 .89    -127      9    -16    128    130 274.3  -7.3  33822  283.88 0864.53
2015 04 09 10 41 46 .15    -127     -8     -7    128    129 266.1  -3.2  33826  283.93 0864.53
2015 04 09 10 41 46 .41    -102    -27    -21    106    109 255.0 -11.3  33850  284.34 0864.53
2015 04 09 10 41 46 .66     -81    -40    -15     91     93 243.4  -9.3  33846  284.28 0864.53
2015 04 09 10 41 46 .91     -59     -4     -2     60     61 265.6  -2.2  33856  284.45 0864.53
2015 04 09 10 41 47 .16     -64    -64     31     91     97 225.1  19.2  33860  284.50 0864.53
2015 04 09 10 41 47 .41     -83    -99     21    130    132 220.1   9.5  33836  284.12 0864.53
2015 04 09 10 41 47 .66     -75    -99      8    125    126 217.0   3.8  33820  283.83 0864.53
2015 04 09 10 41 47 .91     -64    -60      0     88     89 226.9  -0.3  33836  284.12 0864.53
2015 04 09 10 41 48 .16     -90    -23     -3     93     94 255.4  -2.2  33842  284.22 0864.53
2015 04 09 10 41 48 .41     -56    -53     -8     78     79 226.9  -6.2  33848  284.32 0864.53
2015 04 09 10 41 48 .66     -54     -4      2     55     56 265.7   2.9  33862  284.55 0864.53
2015 04 09 10 41 48 .91    -164    -78    -17    182    183 244.5  -5.6  33812  283.70 0864.53
2015 04 09 10 41 49 .16    -178    -71    -42    192    197 248.0 -12.6  33820  283.85 0864.53
2015 04 09 10 41 49 .41    -183    -15    -35    184    188 265.0 -10.9  33812  283.70 0864.53
2015 04 09 10 41 49 .66    -153    -77      7    172    173 243.4   2.3  33812  283.70 0864.53
2015 04 09 10 41 49 .92     -99    -25     20    103    106 255.4  11.1  33832  284.03 0864.53
2015 04 09 10 41 50 .17    -199    -52    -39    206    210 255.2 -10.9  33724  282.22 0864.53
2015 04 09 10 41 50 .42    -212    -40    -16    216    217 259.2  -4.4  33752  282.69 0864.53
2015 04 09 10 41 50 .67    -205    -64    -41    215    219 252.5 -10.9  33764  282.89 0864.53
2015 04 09 10 41 50 .92    -172   -128    -24    215    217 233.4  -6.5  33756  282.76 0864.53
2015 04 09 10 41 51 .17    -251    -89    -17    267    268 250.3  -3.7  33800  283.49 0864.53
2015 04 09 10 41 51 .42    -208    -76    -66    222    232 250.0 -16.6  33798  283.46 0864.53
2015 04 09 10 41 51 .67    -177    -70    -10    191    192 248.5  -3.1  33828  283.98 0864.53
2015 04 09 10 41 51 .92    -108    -31      4    113    114 253.6   2.3  33846  284.28 0864.53
2015 04 09 10 41 52 .17    -233    -56     -1    240    241 256.3  -0.3  33804  283.56 0864.53
2015 04 09 10 41 52 .42    -212    -94    -47    232    237 246.0 -11.5  33790  283.32 0864.53
2015 04 09 10 41 52 .67    -189    -62    -18    199    200 251.8  -5.2  33796  283.43 0864.52
2015 04 09 10 41 52 .92    -197      3    -30    198    201 271.0  -8.8  33788  283.29 0864.52
2015 04 09 10 41 53 .17    -263    -28    -76    265    276 263.8 -16.0  33724  282.23 0864.52
2015 04 09 10 41 53 .43    -282     -1    -57    283    289 269.6 -11.5  33712  282.03 0864.52
2015 04 09 10 41 53 .68    -287     -6    -67    288    296 268.7 -13.2  33712  282.01 0864.52
2015 04 09 10 41 53 .94    -291      8    -58    292    298 271.7 -11.3  33722  282.18 0864.52
2015 04 09 10 41 54 .18    -250    -40    -36    254    257 260.8  -8.3  33728  282.30 0864.52
2015 04 09 10 41 54 .44    -286     47    -52    290    295 279.5 -10.3  33762  282.87 0864.52
2015 04 09 10 41 54 .69    -309     11    -66    310    318 272.1 -12.2  33742  282.52 0864.52
2015 04 09 10 41 54 .94    -199    -33    -15    202    203 260.5  -4.4  33770  282.99 0864.52
2015 04 09 10 41 55 .19    -319     18    -63    320    327 273.3 -11.1  33752  282.68 0864.52
2015 04 09 10 41 55 .44    -303     13    -75    304    314 272.5 -13.9  33736  282.42 0864.52
2015 04 09 10 41 55 .69    -306    -17    -62    307    314 266.7 -11.5  33758  282.78 0864.52
2015 04 09 10 41 55 .94    -328    -63    -45    335    339 259.0  -7.7  33762  282.86 0864.52
2015 04 09 10 41 56 .19    -240    -99    -14    260    261 247.4  -3.2  33772  283.04 0864.52
2015 04 09 10 41 56 .44    -262    -63    -46    270    275 256.3  -9.8  33768  282.95 0864.52
2015 04 09 10 41 56 .69    -268     -8    -44    269    273 268.3  -9.4  33804  283.56 0864.52
2015 04 09 10 41 56 .94    -227    -24    -37    229    233 263.9  -9.3  33804  283.58 0864.52
2015 04 09 10 41 57 .19    -235     -9    -40    236    240 267.6  -9.6  33810  283.66 0864.52
2015 04 09 10 41 57 .44    -173    -58     -8    183    184 251.4  -2.6  33824  283.92 0864.52
2015 04 09 10 41 57 .70    -166    -53    -14    175    176 252.3  -4.9  33854  284.40 0864.52
2015 04 09 10 41 57 .94    -155    -31    -19    159    161 258.6  -6.9  33878  284.81 0864.52
2015 04 09 10 41 58 .19    -231     31    -64    234    243 277.7 -15.5  33840  284.16 0864.52
2015 04 09 10 41 58 .44    -230    -14    -38    231    235 266.5  -9.4  33818  283.81 0864.52
2015 04 09 10 41 58 .69    -222     31    -49    225    231 278.0 -12.4  33786  283.28 0864.52
2015 04 09 10 41 58 .94    -236     81    -41    250    254 289.1  -9.3  33782  283.19 0864.52
2015 04 09 10 41 59 .20    -214     45    -37    219    223 281.9  -9.8  33784  283.23 0864.52
2015 04 09 10 41 59 .45    -232    -17    -42    233    237 265.7 -10.3  33876  284.78 0864.52
2015 04 09 10 41 59 .70    -141    -10    -38    142    147 265.6 -15.0  33888  284.99 0864.52
2015 04 09 10 41 59 .95     -60    -24     22     65     69 247.4  19.2  33884  284.92 0864.52
2015 04 09 10 42 00 .20    -227     27    -64    229    237 276.8 -20.2  33804  283.57 0864.52
2015 04 09 10 42 00 .46    -169    -33    -36    173    177 258.8 -11.9  33834  284.07 0864.52
2015 04 09 10 42 00 .71    -177     33    -22    181    183 280.6  -7.2  33782  283.21 0864.52
2015 04 09 10 42 00 .96    -251     26    -32    253    256 276.1  -7.3  33790  283.32 0864.52
2015 04 09 10 42 01 .21    -258      7    -39    259    262 271.7  -8.6  33770  282.99 0864.52
2015 04 09 10 42 01 .46    -283     -4    -56    284    290 269.1 -11.3  33784  283.24 0864.52
2015 04 09 10 42 01 .71    -110    -84      1    139    140 232.7   0.8  33784  283.23 0864.52
2015 04 09 10 42 01 .96    -237     27    -39    239    243 276.6  -9.3  33798  283.46 0864.52
2015 04 09 10 42 02 .21    -273    110    -26    295    297 292.0  -5.1  33794  283.41 0864.52
2015 04 09 10 42 02 .46    -283    102    -29    301    303 289.9  -5.6  33780  283.17 0864.52
2015 04 09 10 42 02 .71    -271     71    -39    281    284 284.8  -8.0  33766  282.94 0864.52
2015 04 09 10 42 02 .96    -260     82    -43    273    277 287.7  -9.0  33768  282.95 0864.52
2015 04 09 10 42 03 .21    -259     89    -45    274    278 289.0  -9.3  33768  282.95 0864.52
2015 04 09 10 42 03 .47    -235     75    -49    247    252 287.7 -11.3  33774  283.05 0864.52
2015 04 09 10 42 03 .72    -244     84    -32    259    262 289.1  -7.2  33780  283.17 0864.52
2015 04 09 10 42 03 .97    -258    108    -40    280    283 292.8  -8.3  33766  282.94 0864.52
2015 04 09 10 42 04 .22    -193     64     -2    204    205 288.4  -0.7  33788  283.31 0864.52
2015 04 09 10 42 04 .47    -183     51    -31    191    194 285.7  -9.3  33822  283.88 0864.52
2015 04 09 10 42 04 .72     -25     -2     56     26     61 263.9  73.1  33838  284.15 0864.52
2015 04 09 10 42 04 .97    -171    -44    -32    177    181 255.4 -10.5  33836  284.12 0864.52
2015 04 09 10 42 05 .22    -230      3    -56    231    238 270.8 -13.7  33848  284.29 0864.52
2015 04 09 10 42 05 .47    -252     11    -60    253    261 272.6 -13.4  33860  284.50 0864.52
2015 04 09 10 42 05 .72    -105    -21     -1    108    109 258.6  -0.7  33858  284.49 0864.52
2015 04 09 10 42 05 .97     -53    -17     20     56     59 251.6  20.0  33870  284.69 0864.52
2015 04 09 10 42 06 .22    -176      1     -9    177    178 270.4  -3.1  33810  283.68 0864.53
2015 04 09 10 42 06 .48    -201     94    -37    223    227 295.2  -9.4  33858  284.49 0864.53
2015 04 09 10 42 06 .72    -106     50     -4    118    119 295.4  -2.2  33866  284.60 0864.53
2015 04 09 10 42 06 .97    -172     69    -31    186    189 292.0  -9.6  33802  283.55 0864.53
2015 04 09 10 42 07 .23    -281     81    -48    293    297 286.2  -9.3  33782  283.19 0864.53
2015 04 09 10 42 07 .49    -280    156    -21    321    322 299.2  -3.9  33776  283.10 0864.53
2015 04 09 10 42 07 .73    -277    120    -27    303    305 293.5  -5.2  33772  283.04 0864.53
2015 04 09 10 42 07 .98    -283     93    -42    298    302 288.2  -8.0  33770  283.00 0864.53
2015 04 09 10 42 08 .24    -248     74    -36    259    262 286.6  -8.0  33780  283.15 0864.52
2015 04 09 10 42 08 .49    -258     57    -43    265    269 282.6  -9.3  33786  283.27 0864.52
2015 04 09 10 42 08 .74    -258     31    -39    260    263 277.0  -8.6  33796  283.44 0864.52
2015 04 09 10 42 08 .99    -248     50    -35    254    257 281.5  -8.0  33806  283.61 0864.51
2015 04 09 10 42 09 .24    -260     51    -28    266    268 281.2  -6.2  33848  284.31 0864.51
2015 04 09 10 42 09 .49    -233    -19    -24    234    236 265.2  -6.0  33850  284.33 0864.51
2015 04 09 10 42 09 .74    -251     51    -18    257    258 281.5  -4.1  33860  284.50 0864.51
2015 04 09 10 42 09 .99    -229     17    -46    230    235 274.4 -11.3  33878  284.82 0864.51
2015 04 09 10 42 10 .24    -134    -31    -17    138    140 256.7  -7.3  33860  284.50 0864.51
2015 04 09 10 42 10 .49    -159     10    -23    160    162 273.9  -8.2  33816  283.78 0864.51
2015 04 09 10 42 10 .74    -135    -22     11    137    138 260.4   5.0  33856  284.44 0864.51
2015 04 09 10 42 11 .00    -272    -38    -76    275    286 262.0 -15.5  33836  284.09 0864.51
2015 04 09 10 42 11 .24    -264     -7     -5    265    266 268.3  -1.3  33786  283.27 0864.51
2015 04 09 10 42 11 .49    -314      6    -80    315    326 271.3 -14.3  33744  282.57 0864.51
2015 04 09 10 42 11 .74    -303    -56    -48    309    313 259.5  -9.0  33746  282.60 0864.51
2015 04 09 10 42 12 .00    -321    -27    -84    323    334 265.1 -14.7  33730  282.34 0864.51
2015 04 09 10 42 12 .25    -295     -8    -44    296    300 268.3  -8.6  33750  282.67 0864.51
2015 04 09 10 42 12 .50    -252    -51    -33    258    261 258.5  -7.3  33750  282.67 0864.51
2015 04 09 10 42 12 .75    -227     -1    -75    228    241 269.6 -18.3  33772  283.02 0864.51
2015 04 09 10 42 13 .00    -311    -34    -64    313    320 263.6 -11.6  33796  283.42 0864.51
2015 04 09 10 42 13 .25    -338    -62    -81    344    354 259.5 -13.3  33744  282.56 0864.51
2015 04 09 10 42 13 .50    -215    -71    -71    227    239 251.6 -17.5  33752  282.70 0864.50
2015 04 09 10 42 13 .75    -238    -43    -32    242    245 259.6  -7.7  33788  283.29 0864.50
2015 04 09 10 42 14 .00    -216   -102     -2    240    241 244.7  -0.5  33782  283.19 0864.50
2015 04 09 10 42 14 .26    -329    -16    -72    330    338 267.1 -12.4  33774  283.05 0864.50
2015 04 09 10 42 14 .51    -306    -23    -85    307    319 265.7 -15.5  33804  283.56 0864.50
2015 04 09 10 42 14 .76     -93   -113      9    147    148 219.6   3.8  33830  284.02 0864.50
2015 04 09 10 42 15 .01    -275    -20    -83    276    289 265.7 -16.8  33736  282.42 0864.50
2015 04 09 10 42 15 .26    -293     -1    -48    294    299 269.6  -9.3  33766  282.94 0864.50
2015 04 09 10 42 15 .51    -339     -2    -79    340    350 269.6 -13.2  33712  282.04 0864.50
2015 04 09 10 42 15 .76    -325    -43    -76    328    337 262.3 -13.1  33706  281.91 0864.50
2015 04 09 10 42 16 .02    -321    -28    -89    323    336 264.9 -15.5  33700  281.81 0864.50
2015 04 09 10 42 16 .26    -329    -14    -93    330    343 267.5 -15.8  33706  281.94 0864.50
2015 04 09 10 42 16 .52    -196    -58    -18    205    206 253.4  -5.1  33722  282.19 0864.50
2015 04 09 10 42 16 .77    -303    -29    -84    305    317 264.5 -15.5  33704  281.90 0864.50
2015 04 09 10 42 17 .02    -319     -3    -69    320    328 269.4 -12.3  33714  282.06 0864.50
2015 04 09 10 42 17 .27    -287    -67    -32    295    297 256.7  -6.2  33740  282.48 0864.50
2015 04 09 10 42 17 .52    -368     35    -52    370    374 275.5  -8.0  33730  282.33 0864.50
2015 04 09 10 42 17 .77    -361    -29    -51    363    367 265.3  -8.1  33712  282.02 0864.50
2015 04 09 10 42 18 .02    -387    -34    -62    389    395 264.9  -9.1  33694  281.74 0864.50
2015 04 09 10 42 18 .27    -385    -17    -59    386    391 267.4  -8.8  33706  281.91 0864.50
2015 04 09 10 42 18 .52    -330     -1    -95    331    345 269.7 -16.0  33694  281.71 0864.50
2015 04 09 10 42 18 .77    -343     -8    -77    344    353 268.5 -12.6  33696  281.76 0864.50
2015 04 09 10 42 19 .02    -336      4    -92    337    350 270.7 -15.4  33694  281.72 0864.50
2015 04 09 10 42 19 .27    -327      0    -82    328    339 270.0 -14.1  33694  281.71 0864.50
2015 04 09 10 42 19 .52    -299      0    -80    300    311 270.0 -15.0  33692  281.68 0864.50
2015 04 09 10 42 19 .78    -249     -3    -54    250    256 269.1 -12.4  33712  282.03 0864.50
2015 04 09 10 42 20 .02    -305      4    -80    306    317 270.8 -14.8  33714  282.05 0864.50
2015 04 09 10 42 20 .27    -287    -20    -53    288    293 265.9 -10.5  33728  282.28 0864.50
2015 04 09 10 42 20 .52    -292    -78    -60    303    310 255.0 -11.3  33720  282.15 0864.50
2015 04 09 10 42 20 .78    -264     -7    -73    265    275 268.3 -15.4  33736  282.43 0864.50
2015 04 09 10 42 21 .03    -243    -11    -64    244    253 267.4 -14.7  33764  282.90 0864.50
2015 04 09 10 42 21 .29    -203    -48    -26    209    211 256.5  -7.3  33758  282.81 0864.50
2015 04 09 10 42 21 .54    -178      4    -23    179    181 271.5  -7.5  33758  282.79 0864.50
2015 04 09 10 42 21 .79    -298     13    -89    299    313 272.5 -16.7  33708  281.96 0864.50
2015 04 09 10 42 22 .04    -253    -32    -91    256    272 262.8 -19.7  33764  282.90 0864.50
2015 04 09 10 42 22 .29    -304      4    -75    305    315 270.8 -13.8  33746  282.60 0864.50
2015 04 09 10 42 22 .54    -330    -22    -86    331    343 266.1 -14.6  33696  281.76 0864.50
2015 04 09 10 42 22 .79    -353      0    -90    354    366 270.0 -14.3  33700  281.84 0864.50
2015 04 09 10 42 23 .04    -310     -1    -77    311    321 269.6 -13.9  33706  281.93 0864.50
2015 04 09 10 42 23 .30    -290      8    -84    291    303 271.7 -16.2  33758  282.78 0864.50
2015 04 09 10 42 23 .54    -259    -23    -87    261    276 264.8 -18.6  33768  282.97 0864.50
2015 04 09 10 42 23 .79    -321     -2    -91    322    335 269.6 -15.8  33698  281.79 0864.50
2015 04 09 10 42 24 .04    -334    -25    -81    335    345 265.7 -13.7  33706  281.91 0864.50
2015 04 09 10 42 24 .29    -320    -11   -109    321    340 267.9 -18.8  33694  281.71 0864.50
2015 04 09 10 42 24 .55    -302    -42    -66    306    314 262.0 -12.2  33716  282.10 0864.50
2015 04 09 10 42 24 .79    -282    -12    -81    283    295 267.4 -16.0  33828  283.96 0864.50
2015 04 09 10 42 25 .05    -141    -47     -3    149    150 251.4  -1.3  33806  283.60 0864.50
2015 04 09 10 42 25 .29    -277    -51    -75    282    292 259.4 -15.0  33902  285.20 0864.50
2015 04 09 10 42 25 .54    -257    -23    -32    259    262 264.7  -7.2  33868  284.65 0864.50
2015 04 09 10 42 25 .80    -166    -12    -46    167    174 265.7 -15.4  33886  284.96 0864.50
2015 04 09 10 42 26 .05     -91    -31     17     97     99 250.9  10.1  33888  284.97 0864.50
2015 04 09 10 42 26 .30     -84    -82     62    118    133 226.0  29.8  33878  284.82 0864.50
2015 04 09 10 42 26 .55    -199    -65    -18    210    211 251.8  -5.1  33902  285.21 0864.50
2015 04 09 10 42 26 .80     -71    -45     60     85    104 237.6  38.6  33902  285.23 0864.50
2015 04 09 10 42 27 .05     -30    -48     -6     57     58 212.5  -6.2  33888  284.97 0864.49
2015 04 09 10 42 27 .30    -178    -53    -29    186    189 253.4  -9.0  33834  284.08 0864.49
2015 04 09 10 42 27 .55    -273    -28    -72    275    285 264.1 -14.7  33734  282.38 0864.49
2015 04 09 10 42 27 .80    -319    -55    -62    324    330 260.2 -10.9  33720  282.17 0864.49
2015 04 09 10 42 28 .06    -144    -37     53    149    158 255.4  20.4  33764  282.89 0864.49
2015 04 09 10 42 28 .31    -264    -55    -34    270    273 258.1  -7.2  33728  282.28 0864.49
2015 04 09 10 42 28 .57    -256    -51    -53    262    268 258.6 -11.6  33738  282.45 0864.49
2015 04 09 10 42 28 .81    -287    -17    -56    288    294 266.5 -11.1  33724  282.22 0864.49
2015 04 09 10 42 29 .07    -315    -13    -60    316    322 267.5 -10.8  33714  282.05 0864.49
2015 04 09 10 42 29 .32    -287    -25    -56    289    295 265.0 -11.1  33732  282.37 0864.49
2015 04 09 10 42 29 .57    -195      4    -10    196    197 271.3  -3.1  33748  282.62 0864.49
2015 04 09 10 42 29 .82    -179    -32     14    182    183 259.6   4.6  33744  282.56 0864.49
2015 04 09 10 42 30 .07    -221    -52      3    228    229 256.7   0.8  33752  282.71 0864.49
2015 04 09 10 42 30 .32    -274    -12    -45    275    279 267.4  -9.4  33770  282.99 0864.49
2015 04 09 10 42 30 .56    -287    -25    -63    289    296 265.0 -12.4  33762  282.85 0864.49
2015 04 09 10 42 30 .82    -236      7    -29    237    239 271.7  -7.2  33764  282.89 0864.49
2015 04 09 10 42 31 .07     -39     31     33     50     59 308.6  36.5  33792  283.38 0864.49
2015 04 09 10 42 31 .32    -207    -40    -45    211    216 259.0 -12.2  33772  283.04 0864.49
2015 04 09 10 42 31 .57    -251     -8    -46    252    257 268.1 -10.4  33758  282.80 0864.49
2015 04 09 10 42 31 .82    -226    -45    -33    231    234 258.6  -8.3  33754  282.72 0864.49
2015 04 09 10 42 32 .07    -269      0    -85    270    284 270.0 -17.6  33696  281.76 0864.49
2015 04 09 10 42 32 .32    -282     12    -78    283    294 272.5 -15.4  33690  281.66 0864.49
2015 04 09 10 42 32 .57    -295     -3    -66    296    304 269.4 -12.6  33704  281.90 0864.49
2015 04 09 10 42 32 .83    -240    -18    -30    241    243 265.7  -7.3  33748  282.63 0864.49
2015 04 09 10 42 33 .08    -234     38    -63    238    247 279.2 -15.0  33840  284.18 0864.49
2015 04 09 10 42 33 .32    -305      4    -83    306    318 270.8 -15.2  33812  283.71 0864.49
2015 04 09 10 42 33 .58    -249    -14    -69    250    260 266.6 -15.5  33778  283.14 0864.49
2015 04 09 10 42 33 .82    -264     28    -45    266    270 276.1  -9.8  33802  283.52 0864.49
2015 04 09 10 42 34 .08    -229     17    -48    230    236 274.4 -11.9  33816  283.76 0864.49
2015 04 09 10 42 34 .33    -153     16    -25    154    157 276.1  -9.3  33842  284.22 0864.49
2015 04 09 10 42 34 .58    -111    -39    -37    118    124 250.5 -17.6  33854  284.40 0864.49
2015 04 09 10 42 34 .83     -84     -8     -6     85     86 264.3  -4.1  33872  284.72 0864.49
2015 04 09 10 42 35 .09     -28     15    -10     33     35 298.9 -17.6  33886  284.94 0864.49
2015 04 09 10 42 35 .34     -55     32     38     64     74 300.7  35.5  33898  285.16 0864.49
2015 04 09 10 42 35 .59     -53    -33     52     63     81 237.6  43.7  33882  284.89 0864.49
2015 04 09 10 42 35 .84    -194    -20    -48    196    202 264.1 -13.9  33844  284.23 0864.49
2015 04 09 10 42 36 .09    -164     37     -6    169    170 282.8  -2.2  33950  286.03 0864.49
2015 04 09 10 42 36 .34    -257    -12    -71    258    268 267.2 -15.5  33752  282.70 0864.49
2015 04 09 10 42 36 .59    -254    -16    -82    255    269 266.3 -17.9  33754  282.72 0864.49
2015 04 09 10 42 36 .84    -234    -12    -76    235    247 267.0 -17.9  33728  282.28 0864.49
2015 04 09 10 42 37 .09    -263    -32    -53    266    272 262.9 -11.3  33746  282.60 0864.49
2015 04 09 10 42 37 .35    -243      7    -77    244    257 271.7 -17.6  33724  282.22 0864.49
2015 04 09 10 42 37 .60    -286    -21    -67    287    295 265.7 -13.3  33740  282.48 0864.49
2015 04 09 10 42 37 .84    -225    -15    -61    226    235 266.1 -15.2  33770  283.01 0864.50
2015 04 09 10 42 38 .10    -267    -63    -60    275    282 256.7 -12.4  33766  282.92 0864.50
2015 04 09 10 42 38 .35    -242      3    -72    243    253 270.8 -21.7  33734  282.38 0864.50
2015 04 09 10 42 38 .60    -138    -14     -7    139    140 263.9  -3.1  33768  282.98 0864.50
2015 04 09 10 42 38 .84    -283    -31    -72    285    295 263.6 -14.3  33710  282.00 0864.50
2015 04 09 10 42 39 .10    -351    -15    -97    352    366 267.4 -15.5  33700  281.84 0864.50
2015 04 09 10 42 39 .35    -338    -13    -89    339    351 267.7 -14.8  33694  281.72 0864.50
2015 04 09 10 42 39 .60    -319     -8    -88    320    332 268.4 -15.4  33700  281.81 0864.50
2015 04 09 10 42 39 .85    -317    -20    -78    318    328 266.3 -13.8  33694  281.73 0864.50
2015 04 09 10 42 40 .10    -301    -22    -73    302    311 265.7 -13.7  33694  281.71 0864.50
2015 04 09 10 42 40 .35    -314    -41    -71    317    325 262.5 -12.7  33704  281.90 0864.50
2015 04 09 10 42 40 .60    -289    -73    -49    299    304 255.8  -9.3  33716  282.08 0864.50
2015 04 09 10 42 40 .85    -244    -22    -47    246    251 264.8 -10.9  33728  282.28 0864.50
2015 04 09 10 42 41 .10    -132    -12     -8    133    134 264.8  -3.7  33748  282.64 0864.50
2015 04 09 10 42 41 .35    -150     11     -5    151    152 274.4  -2.2  33744  282.57 0864.50
2015 04 09 10 42 41 .60    -224    -81     -7    239    240 250.1  -1.8  33738  282.45 0864.50
2015 04 09 10 42 41 .85    -316    -13    -66    317    324 267.5 -11.9  33698  281.80 0864.50
2015 04 09 10 42 42 .11    -277    -18    -40    278    281 266.3  -8.2  33704  281.90 0864.50
2015 04 09 10 42 42 .36    -280    -29    -61    282    289 263.9 -12.4  33694  281.71 0864.50
2015 04 09 10 42 42 .61    -275    -43    -77    279    290 261.0 -15.4  33694  281.73 0864.50
2015 04 09 10 42 42 .86    -277    -66    -57    285    291 256.5 -11.5  33694  281.71 0864.50
2015 04 09 10 42 43 .12    -277    -79    -57    289    295 254.0 -11.3  33708  281.95 0864.50
2015 04 09 10 42 43 .37    -213     -9    -35    214    217 267.4  -9.3  33732  282.37 0864.50
2015 04 09 10 42 43 .62    -167      3    -36    168    172 271.3 -12.2  33744  282.56 0864.50
2015 04 09 10 42 43 .87    -235     31    -36    238    241 277.7  -8.8  33770  283.00 0864.50
2015 04 09 10 42 44 .12    -204     27    -11    206    207 277.7  -3.3  33756  282.76 0864.50
2015 04 09 10 42 44 .37    -184    -10    -29    185    188 266.7  -9.0  33768  282.96 0864.50
2015 04 09 10 42 44 .62    -259     99    -53    278    284 291.1 -10.9  33744  282.55 0864.50
2015 04 09 10 42 44 .87    -236     89    -40    253    257 290.8  -9.0  33742  282.52 0864.50
2015 04 09 10 42 45 .12    -250     75    -25    262    264 286.8  -5.6  33754  282.72 0864.50
2015 04 09 10 42 45 .37     -98      4     -5     99    100 272.6  -3.2  33766  282.94 0864.50
2015 04 09 10 42 45 .62    -141     51     -3    150    151 290.0  -1.2  33752  282.71 0864.50
2015 04 09 10 42 45 .87    -238     30    -30    240    242 277.2  -7.3  33764  282.89 0864.50
2015 04 09 10 42 46 .12    -251     19    -65    252    261 274.4 -14.5  33728  282.28 0864.50
2015 04 09 10 42 46 .38    -246     30    -65    248    257 277.0 -14.7  33720  282.17 0864.50
2015 04 09 10 42 46 .63    -231     17    -59    232    240 274.3 -14.3  33744  282.57 0864.50
2015 04 09 10 42 46 .88    -208    -15    -37    209    213 265.6 -10.3  33758  282.81 0864.50
2015 04 09 10 42 47 .13    -162      0    -21    163    165 270.0  -7.3  33806  283.60 0864.50
2015 04 09 10 42 47 .37    -170     68    -39    184    189 292.0 -12.2  33794  283.41 0864.50
2015 04 09 10 42 47 .63    -186     -1    -33    187    190 269.4 -10.1  33786  283.26 0864.50
2015 04 09 10 42 47 .87    -217     -3    -28    218    220 269.0  -7.5  33786  283.26 0864.50
2015 04 09 10 42 48 .13    -204     -8    -31    205    208 267.6  -8.6  33784  283.23 0864.50
2015 04 09 10 42 48 .40    -201     51    -35    208    211 284.4  -9.6  33770  282.99 0864.50
2015 04 09 10 42 48 .63     -87     -7     30     88     94 264.8  19.2  33808  283.65 0864.50
2015 04 09 10 42 48 .88    -255     -9    -56    256    263 267.9 -12.4  33698  281.78 0864.50
2015 04 09 10 42 49 .14    -255      7    -65    256    265 271.7 -14.4  33704  281.88 0864.50
2015 04 09 10 42 49 .39    -228      7    -58    229    237 271.9 -14.3  33698  281.78 0864.50
2015 04 09 10 42 49 .64    -219     16    -56    220    228 274.3 -14.3  33704  281.90 0864.50
2015 04 09 10 42 49 .89    -250     50    -38    256    259 281.5  -8.6  33742  282.52 0864.50
2015 04 09 10 42 50 .14    -199    -66     -7    210    211 251.6  -2.1  33764  282.91 0864.50
2015 04 09 10 42 50 .39    -281     16    -80    282    294 273.3 -15.8  33752  282.70 0864.50
2015 04 09 10 42 50 .64    -305     -4    -71    306    315 269.1 -13.1  33742  282.52 0864.51
2015 04 09 10 42 50 .90    -297     -8    -69    298    307 268.3 -13.2  33714  282.05 0864.51
2015 04 09 10 42 51 .15    -304      0    -51    305    310 270.0  -9.5  33704  281.90 0864.51
2015 04 09 10 42 51 .40    -295     22    -57    296    302 274.4 -10.9  33754  282.73 0864.51
2015 04 09 10 42 51 .65    -263      0    -35    264    267 270.0  -7.7  33724  282.23 0864.51
2015 04 09 10 42 51 .90    -281     29    -39    283    286 275.9  -8.0  33800  283.51 0864.51
2015 04 09 10 42 52 .15     -77    -79     50    111    121 224.1  25.7  33804  283.58 0864.51
2015 04 09 10 42 52 .40    -206     15    -16    207    208 274.4  -4.6  33776  283.11 0864.51
2015 04 09 10 42 52 .65    -211   -108    -22    238    240 242.9  -5.4  33768  282.97 0864.51
2015 04 09 10 42 52 .90    -169      4    -48    170    177 271.5 -15.8  33770  283.01 0864.51
2015 04 09 10 42 53 .15    -135    -63      7    150    151 244.8   2.9  33772  283.04 0864.51
2015 04 09 10 42 53 .40    -158    -40    -33    164    168 255.6 -11.6  33766  282.94 0864.51
2015 04 09 10 42 53 .65    -244    -45    -50    249    255 259.5 -11.5  33746  282.60 0864.51
2015 04 09 10 42 53 .90    -214     19    -16    215    216 275.2  -4.4  33770  282.99 0864.51
2015 04 09 10 42 54 .15    -210    -56    -19    218    219 254.9  -5.1  33758  282.81 0864.51
2015 04 09 10 42 54 .40    -216    -47    -21    222    224 257.6  -5.6  33742  282.54 0864.51
2015 04 09 10 42 54 .65    -251    -63    -39    259    262 255.8  -8.6  33714  282.05 0864.51
2015 04 09 10 42 54 .90    -271    -59    -66    278    286 257.7 -13.4  33706  281.91 0864.51
2015 04 09 10 42 55 .16    -267    -72    -54    277    283 254.9 -11.1  33702  281.86 0864.50
2015 04 09 10 42 55 .41    -241    -73    -45    252    257 253.1 -10.1  33710  282.00 0864.50
2015 04 09 10 42 55 .66    -134    -85    -31    159    163 237.6 -11.1  33750  282.66 0864.50
2015 04 09 10 42 55 .92     -88      5      0     89     90 273.5  -0.3  33802  283.53 0864.50
2015 04 09 10 42 56 .17     -26    -20      1     34     35 232.2   2.9  33812  283.71 0864.50
2015 04 09 10 42 56 .41    -148   -118     24    190    192 231.6   7.5  33798  283.48 0864.50
2015 04 09 10 42 56 .67    -165    -89    -44    188    194 241.6 -13.2  33796  283.43 0864.50
2015 04 09 10 42 56 .91    -255    -39    -23    259    261 261.2  -5.1  33726  282.25 0864.50
2015 04 09 10 42 57 .17    -299     -4    -80    300    311 269.1 -15.0  33698  281.80 0864.50
2015 04 09 10 42 57 .41    -292     14    -83    293    305 272.8 -15.8  33694  281.71 0864.50
2015 04 09 10 42 57 .67    -295      4    -84    296    308 270.8 -15.9  33698  281.80 0864.50
2015 04 09 10 42 57 .92    -272    -40    -49    275    280 261.6 -10.3  33698  281.80 0864.50
2015 04 09 10 42 58 .17    -264    -20    -68    265    274 265.6 -14.5  33696  281.75 0864.50
2015 04 09 10 42 58 .42    -253    -34    -65    256    265 262.3 -14.3  33710  282.00 0864.50
2015 04 09 10 42 58 .67    -159      0    -18    160    162 270.0  -6.5  33764  282.91 0864.50
2015 04 09 10 42 58 .92    -247    -24    -59    249    256 264.3 -13.4  33708  281.96 0864.50
2015 04 09 10 42 59 .17    -200    -44    -25    205    207 257.4  -7.2  33744  282.57 0864.50
2015 04 09 10 42 59 .42    -198      0    -52    199    206 270.1 -14.7  33734  282.41 0864.50
2015 04 09 10 42 59 .68     -79    -80      4    113    114 224.7   2.3  33768  282.98 0864.50
2015 04 09 10 42 59 .92    -179    -40    -45    184    190 257.4 -13.9  33736  282.42 0864.50
2015 04 09 10 43 00 .18    -154    -36    -11    159    160 256.7  -4.1  33758  282.81 0864.50
2015 04 09 10 43 00 .43    -231    -27    -51    233    239 263.2 -12.4  33716  282.08 0864.50
2015 04 09 10 43 00 .67    -232    -39    -61    236    244 260.3 -14.7  33702  281.86 0864.50
2015 04 09 10 43 00 .92    -224    -31    -58    227    235 262.0 -14.4  33694  281.74 0864.50
2015 04 09 10 43 01 .18    -228    -46    -50    233    239 258.5 -12.2  33694  281.73 0864.50
2015 04 09 10 43 01 .43    -246    -77    -47    258    263 252.5 -10.5  33700  281.83 0864.51
2015 04 09 10 43 01 .68    -253    -77    -34    265    268 253.1  -7.5  33724  282.23 0864.51
2015 04 09 10 43 01 .93    -257    -52    -39    263    266 258.5  -8.6  33704  281.90 0864.51
2015 04 09 10 43 02 .18    -233    -78    -43    246    250 251.4 -10.1  33704  281.88 0864.51
2015 04 09 10 43 02 .43    -223   -109    -41    249    253 244.0  -9.3  33760  282.84 0864.51
2015 04 09 10 43 02 .68    -159    -49    -33    167    171 252.7 -11.3  33768  282.98 0864.51
2015 04 09 10 43 02 .94    -142     -9    -18    143    145 266.1  -7.3  33790  283.33 0864.51
2015 04 09 10 43 03 .19    -160   -116     38    198    202 234.1  11.1  33806  283.60 0864.51
2015 04 09 10 43 03 .44    -200    -76    -41    215    219 249.2 -10.9  33752  282.69 0864.51
2015 04 09 10 43 03 .69    -254   -106    -35    276    279 247.4  -7.3  33758  282.78 0864.51
2015 04 09 10 43 03 .95    -244    -75    -53    256    262 252.9 -11.9  33738  282.47 0864.51
2015 04 09 10 43 04 .19    -211   -116    -44    241    246 241.1 -10.5  33784  283.24 0864.51
2015 04 09 10 43 04 .44    -261    -68    -24    270    272 255.2  -5.2  33736  282.42 0864.51
2015 04 09 10 43 04 .70    -284   -123    -67    310    318 246.5 -12.3  33744  282.57 0864.51
2015 04 09 10 43 04 .95    -278    -64    -41    286    290 257.0  -8.2  33716  282.10 0864.51
2015 04 09 10 43 05 .20    -251    -57    -11    258    259 257.2  -2.6  33718  282.12 0864.50
2015 04 09 10 43 05 .45    -270    -50    -66    275    283 259.4 -13.7  33710  281.98 0864.50
2015 04 09 10 43 05 .70    -249    -31    -19    251    252 262.8  -4.4  33710  282.00 0864.50
2015 04 09 10 43 05 .95    -250    -54    -39    256    260 257.6  -8.8  33714  282.06 0864.50
2015 04 09 10 43 06 .20    -199    -19     -7    200    201 264.3  -2.2  33732  282.37 0864.50
2015 04 09 10 43 06 .45    -267    -50    -81    272    284 259.4 -16.6  33696  281.76 0864.50
2015 04 09 10 43 06 .70    -266    -66    -55    275    281 256.1 -11.3  33700  281.83 0864.50
2015 04 09 10 43 06 .95    -260    -86    -49    275    280 251.6 -10.3  33696  281.75 0864.51
2015 04 09 10 43 07 .20    -264    -88    -56    279    285 251.6 -11.5  33696  281.75 0864.51
2015 04 09 10 43 07 .45    -246    -82    -48    260    265 251.4 -10.5  33694  281.71 0864.51
2015 04 09 10 43 07 .70    -252    -87    -48    267    272 250.9 -10.3  33694  281.71 0864.51
2015 04 09 10 43 07 .95    -258    -85    -53    272    278 251.6 -11.1  33700  281.81 0864.51
2015 04 09 10 43 08 .20    -244    -93    -33    262    265 249.2  -7.3  33698  281.80 0864.51
2015 04 09 10 43 08 .46    -201    -66    -26    212    214 251.6  -7.2  33708  281.95 0864.51
2015 04 09 10 43 08 .70    -219   -102    -27    242    244 244.9  -6.5  33700  281.81 0864.51
2015 04 09 10 43 08 .95    -227   -112    -28    254    256 243.8  -6.5  33696  281.76 0864.51
2015 04 09 10 43 09 .21    -231   -118    -23    260    262 242.9  -5.2  33700  281.83 0864.51
2015 04 09 10 43 09 .45    -241    -97    -33    260    263 248.0  -7.3  33704  281.88 0864.51
2015 04 09 10 43 09 .70    -241    -93    -37    259    262 248.9  -8.2  33696  281.76 0864.50
2015 04 09 10 43 09 .97    -253    -87    -41    268    272 250.9  -8.8  33698  281.80 0864.50
2015 04 09 10 43 10 .22    -267    -85    -44    281    285 252.3  -9.0  33696  281.76 0864.50
2015 04 09 10 43 10 .47    -259    -86    -19    273    274 251.6  -4.1  33702  281.85 0864.50
2015 04 09 10 43 10 .72    -262   -105    -30    283    285 248.0  -6.2  33704  281.90 0864.50
2015 04 09 10 43 10 .97    -247    -63    -27    256    258 255.6  -6.2  33710  281.98 0864.50
2015 04 09 10 43 11 .22    -244    -97    -39    263    266 248.2  -8.6  33702  281.85 0864.50
2015 04 09 10 43 11 .47    -154    -75      0    172    173 243.8  -0.3  33724  282.22 0864.50
2015 04 09 10 43 11 .72    -170    -50     18    178    179 253.6   5.9  33716  282.11 0864.50
2015 04 09 10 43 11 .97    -218    -49    -71    224    236 257.2 -17.6  33702  281.87 0864.50
2015 04 09 10 43 12 .22    -196    -78     33    212    215 248.3   8.9  33716  282.11 0864.51
2015 04 09 10 43 12 .47    -251    -67    -51    260    266 255.0 -11.1  33696  281.75 0864.51
2015 04 09 10 43 12 .72    -264   -101    -46    283    287 248.9  -9.4  33698  281.78 0864.51
2015 04 09 10 43 12 .97    -298    -71    -39    307    310 256.5  -7.4  33706  281.91 0864.51
2015 04 09 10 43 13 .22    -260    -68    -45    269    273 255.2  -9.6  33698  281.80 0864.51
2015 04 09 10 43 13 .47    -279    -95    -48    295    300 251.2  -9.4  33700  281.83 0864.51
2015 04 09 10 43 13 .72    -261   -115    -47    286    290 246.3  -9.3  33700  281.81 0864.51
2015 04 09 10 43 13 .98    -239   -108    -52    263    269 245.6 -11.3  33700  281.81 0864.51
2015 04 09 10 43 14 .23    -249    -97    -57    268    275 248.7 -12.2  33696  281.76 0864.51
2015 04 09 10 43 14 .48    -250    -83    -53    264    270 251.6 -11.3  33696  281.76 0864.51
2015 04 09 10 43 14 .73    -260    -82    -50    273    278 252.5 -10.4  33698  281.80 0864.51
2015 04 09 10 43 14 .98    -248    -66    -65    257    266 255.0 -14.3  33698  281.80 0864.51
2015 04 09 10 43 15 .23    -251    -76    -57    263    270 253.2 -12.4  33696  281.76 0864.51
2015 04 09 10 43 15 .48    -233    -75    -52    245    251 252.1 -12.2  33696  281.76 0864.51
2015 04 09 10 43 15 .73    -248    -86    -50    263    268 250.7 -10.9  33694  281.73 0864.51
2015 04 09 10 43 15 .98    -262    -75    -45    273    277 254.0  -9.4  33698  281.80 0864.51
2015 04 09 10 43 16 .23    -251    -59    -69    258    268 256.7 -15.0  33704  281.90 0864.51
2015 04 09 10 43 16 .48    -278    -56    -85    284    297 258.6 -16.8  33700  281.81 0864.51
2015 04 09 10 43 16 .74    -263    -20    -88    264    279 265.6 -18.6  33702  281.85 0864.51
2015 04 09 10 43 16 .99    -237    -29    -67    239    249 263.0 -15.8  33702  281.85 0864.51
2015 04 09 10 43 17 .24    -203    -13    -49    204    210 266.3 -13.7  33696  281.75 0864.51
2015 04 09 10 43 17 .49    -213    -22    -63    215    225 264.1 -16.4  33696  281.75 0864.51
2015 04 09 10 43 17 .74    -231    -32    -61    234    242 262.1 -14.7  33694  281.71 0864.51
2015 04 09 10 43 18 .00    -246    -12    -64    247    256 267.2 -14.5  33710  282.00 0864.51
2015 04 09 10 43 18 .24    -258    -35    -78    261    273 262.1 -16.6  33710  282.00 0864.51
2015 04 09 10 43 18 .50    -238    -47    -72    243    254 258.8 -16.6  33718  282.13 0864.51
2015 04 09 10 43 18 .75    -224    -38    -69    228    239 260.3 -17.0  33702  281.86 0864.51
2015 04 09 10 43 19 .00    -219    -51    -70    225    236 256.8 -17.3  33728  282.28 0864.51
2015 04 09 10 43 19 .25    -227    -32    -35    230    233 262.0  -8.8  33738  282.47 0864.51
2015 04 09 10 43 19 .50    -202    -36    -57    206    214 259.9 -15.5  33716  282.09 0864.51
2015 04 09 10 43 19 .75    -199    -60    -54    208    216 253.2 -14.7  33716  282.09 0864.51
2015 04 09 10 43 20 .00    -110   -139     48    178    185 218.5  15.2  33754  282.74 0864.51
2015 04 09 10 43 20 .25    -176    -59      9    186    187 251.4   2.9  33758  282.81 0864.51
2015 04 09 10 43 20 .50    -177    -40    -23    182    184 257.2  -7.3  33720  282.17 0864.51
2015 04 09 10 43 20 .75    -182    -39    -50    187    194 257.8 -15.0  33702  281.85 0864.51
2015 04 09 10 43 21 .01    -206    -51    -43    213    218 256.1 -11.5  33722  282.21 0864.51
2015 04 09 10 43 21 .25    -206    -50    -58    212    220 256.3 -15.4  33724  282.24 0864.51
2015 04 09 10 43 21 .50    -186    -66    -48    198    204 250.5 -13.7  33734  282.41 0864.51
2015 04 09 10 43 21 .76    -157    -60    -21    169    171 248.9  -7.2  33744  282.57 0864.51
2015 04 09 10 43 22 .01    -177    -58    -12    187    188 251.8  -3.7  33750  282.66 0864.51
2015 04 09 10 43 22 .26    -182   -113    -24    215    217 238.0  -6.5  33738  282.46 0864.50
2015 04 09 10 43 22 .51    -171    -90    -24    194    196 242.2  -7.3  33754  282.74 0864.50
2015 04 09 10 43 22 .75    -172    -74    -24    188    190 246.7  -7.3  33754  282.74 0864.50
2015 04 09 10 43 23 .01    -176    -93    -32    200    203 242.2  -9.3  33704  281.89 0864.50
2015 04 09 10 43 23 .26    -217    -94    -29    237    239 246.4  -7.2  33714  282.05 0864.50
2015 04 09 10 43 23 .51    -239    -56    -63    246    255 256.7 -14.4  33706  281.91 0864.50
2015 04 09 10 43 23 .77    -220    -44    -73    225    236 258.5 -23.0  33706  281.91 0864.50
2015 04 09 10 43 24 .02    -219    -26    -71    221    232 263.0 -23.3  33704  281.89 0864.50
2015 04 09 10 43 24 .27    -178    -19    -61    180    191 263.6 -18.9  33710  281.99 0864.50
2015 04 09 10 43 24 .52    -154    -56    -17    165    166 249.8  -6.0  33724  282.24 0864.50
2015 04 09 10 43 24 .77    -197    -36    -34    201    204 259.6  -9.6  33712  282.04 0864.50
2015 04 09 10 43 25 .02    -206    -36    -35    210    213 259.9  -9.6  33708  281.97 0864.50
2015 04 09 10 43 25 .27    -188    -62    -31    199    202 251.6  -9.0  33700  281.82 0864.50
2015 04 09 10 43 25 .52    -211    -64    -25    221    223 252.9  -6.5  33698  281.79 0864.50
2015 04 09 10 43 25 .78    -212    -55    -44    220    225 255.4 -11.3  33698  281.79 0864.50
2015 04 09 10 43 26 .03    -183    -79    -30    200    203 246.7  -8.6  33714  282.07 0864.50
2015 04 09 10 43 26 .27    -194    -56    -25    202    204 253.8  -7.3  33708  281.95 0864.50
2015 04 09 10 43 26 .52    -196    -43    -40    201    205 257.4 -11.3  33696  281.75 0864.50
2015 04 09 10 43 26 .77    -196    -51    -48    203    209 255.2 -13.4  33694  281.74 0864.51
2015 04 09 10 43 27 .02    -201    -52    -44    208    213 255.4 -12.2  33696  281.75 0864.51
2015 04 09 10 43 27 .27    -180    -60    -35    190    194 251.4 -10.5  33696  281.75 0864.51
2015 04 09 10 43 27 .53    -175    -35    -49    179    186 258.5 -15.5  33698  281.80 0864.51
2015 04 09 10 43 27 .77    -185    -18    -51    186    194 264.3 -15.5  33704  281.89 0864.51
2015 04 09 10 43 28 .03    -177    -31    -51    180    188 259.9 -16.0  33706  281.94 0864.51
2015 04 09 10 43 28 .28    -180    -23    -57    182    191 262.5 -17.6  33706  281.94 0864.51
2015 04 09 10 43 28 .53    -189    -23    -60    191    201 262.8 -17.5  33708  281.95 0864.51
2015 04 09 10 43 28 .78    -180    -36    -53    184    191 258.6 -20.7  33710  281.99 0864.51
2015 04 09 10 43 29 .03    -164    -47    -58    171    181 253.8 -18.7  33708  281.95 0864.51
2015 04 09 10 43 29 .28    -161    -55    -40    171    176 250.9 -13.4  33706  281.94 0864.51
2015 04 09 10 43 29 .53    -158    -39    -41    163    169 255.8 -14.3  33710  281.99 0864.51
2015 04 09 10 43 29 .78    -165    -39    -45    170    177 256.7 -15.0  33710  282.00 0864.51
2015 04 09 10 43 30 .03    -176    -48    -39    183    188 254.7 -12.2  33712  282.02 0864.51
2015 04 09 10 43 30 .28    -171    -45    -32    177    180 255.2 -10.3  33710  281.99 0864.50
2015 04 09 10 43 30 .53    -166    -59    -36    177    181 250.5 -11.6  33708  281.97 0864.50
2015 04 09 10 43 30 .80    -168    -84    -15    188    189 243.4  -4.6  33724  282.22 0864.50
2015 04 09 10 43 31 .05    -154    -90    -11    179    180 239.8  -3.7  33746  282.59 0864.50
2015 04 09 10 43 31 .29    -157    -91    -17    182    183 239.8  -5.6  33740  282.51 0864.50
2015 04 09 10 43 31 .54    -158    -66    -17    172    173 247.4  -6.0  33750  282.66 0864.50
2015 04 09 10 43 31 .79    -164    -44    -28    170    173 254.9  -9.3  33714  282.05 0864.50
2015 04 09 10 43 32 .05    -162    -53    -37    171    176 251.8 -12.4  33712  282.04 0864.50
2015 04 09 10 43 32 .30    -126    -47    -17    135    137 249.2  -7.2  33740  282.51 0864.50
2015 04 09 10 43 32 .55    -122    -24    -21    125    127 258.6  -9.8  33756  282.77 0864.50
2015 04 09 10 43 32 .80    -128    -42     -2    135    136 251.8  -1.2  33762  282.86 0864.50
2015 04 09 10 43 33 .05    -155    -45    -19    162    164 253.6  -6.9  33744  282.57 0864.50
2015 04 09 10 43 33 .30    -163    -53    -29    172    175 251.8  -9.8  33708  281.95 0864.50
2015 04 09 10 43 33 .56    -186    -61    -32    196    199 251.6  -9.4  33722  282.19 0864.50
2015 04 09 10 43 33 .80    -182    -67    -35    195    199 249.8 -10.3  33754  282.72 0864.50
2015 04 09 10 43 34 .05    -195   -103    -18    221    222 242.0  -4.9  33766  282.93 0864.50
2015 04 09 10 43 34 .30    -153    -98    -13    182    183 237.4  -4.1  33764  282.91 0864.50
2015 04 09 10 43 34 .56    -149   -114     -2    188    189 232.5  -0.7  33780  283.16 0864.50
2015 04 09 10 43 34 .80    -194    -77    -11    209    210 248.3  -3.1  33766  282.94 0864.50
2015 04 09 10 43 35 .05    -174    -80    -23    192    194 245.2  -6.9  33756  282.76 0864.50
2015 04 09 10 43 35 .30    -185    -85    -27    204    206 245.2  -7.7  33724  282.24 0864.50
2015 04 09 10 43 35 .55    -181    -67    -35    194    198 249.6 -10.3  33708  281.95 0864.50
2015 04 09 10 43 35 .80    -192    -58    -33    201    204 253.2  -9.3  33716  282.09 0864.50
2015 04 09 10 43 36 .05    -194    -64    -33    205    208 251.6  -9.3  33716  282.09 0864.50
2015 04 09 10 43 36 .31    -194    -59    -35    203    207 253.1  -9.8  33716  282.11 0864.50
2015 04 09 10 43 36 .56    -199    -52    -33    206    209 255.2  -9.3  33728  282.31 0864.50
2015 04 09 10 43 36 .81    -221    -68    -22    232    234 252.7  -5.6  33760  282.82 0864.50
2015 04 09 10 43 37 .06    -172    -90     -9    195    196 242.2  -2.8  33764  282.89 0864.50
2015 04 09 11 58 33 .80     -93     77      1    121    122 309.6   0.8  33886  284.96 0863.63
2015 04 09 11 58 34 .04     -91     89     21    128    130 314.4   9.5  33894  285.09 0863.63
2015 04 09 11 58 34 .29    -137     95    -13    167    168 304.9  -4.6  33868  284.65 0863.63
2015 04 09 11 58 34 .55    -145     81    -26    167    170 299.3  -9.0  33868  284.64 0863.63
2015 04 09 11 58 34 .80    -158     87    -23    181    183 298.9  -7.3  33878  284.82 0863.63
2015 04 09 11 58 35 .05    -161     77    -36    179    183 295.8 -11.6  33884  284.91 0863.63
2015 04 09 11 58 35 .29    -144     65    -49    159    167 294.4 -17.3  33872  284.72 0863.63
2015 04 09 11 58 35 .55    -127     64    -45    143    149 296.6 -23.3  33868  284.64 0863.63
2015 04 09 11 58 35 .80    -104     50    -41    116    124 295.8 -19.6  33880  284.86 0863.63
2015 04 09 11 58 36 .05    -139     91    -23    167    169 303.3  -8.0  33884  284.92 0863.63
2015 04 09 11 58 36 .30    -132     49    -39    141    147 290.4 -15.5  33880  284.86 0863.63
2015 04 09 11 58 36 .55    -154     48    -19    162    164 287.3  -6.9  33890  285.02 0863.63
2015 04 09 11 58 36 .80     -99     63    -10    118    119 302.4  -5.1  33920  285.53 0863.63
2015 04 09 11 58 37 .05     -45     71     28     85     90 327.5  18.4  33938  285.82 0863.63
2015 04 09 11 58 37 .31     -48     45     23     67     71 313.1  18.9  33940  285.85 0863.63
2015 04 09 11 58 37 .56     -99     83    -16    130    132 310.0  -7.2  33924  285.58 0863.63
2015 04 09 11 58 37 .81    -145     55    -31    156    160 290.8 -11.3  33886  284.96 0863.63
2015 04 09 11 58 38 .06    -141     64    -18    155    157 294.4  -6.9  33884  284.92 0863.63
2015 04 09 11 58 38 .32    -125     79    -24    149    152 302.4  -9.4  33886  284.96 0863.63
2015 04 09 11 58 38 .57    -119     82    -25    145    148 304.6  -9.8  33890  285.01 0863.63
2015 04 09 11 58 38 .81    -133     65    -24    149    152 296.2  -9.4  33886  284.96 0863.63
2015 04 09 11 58 39 .06    -141     46    -24    149    152 288.2  -9.4  33886  284.96 0863.63
2015 04 09 11 58 39 .32    -132     26    -32    135    139 281.5 -13.4  33894  285.09 0863.63
2015 04 09 11 58 39 .57    -132     -8     -6    133    134 266.5  -2.6  33906  285.28 0863.63
2015 04 09 11 58 39 .82    -116     28    -10    120    121 283.7  -5.2  33898  285.14 0863.63
2015 04 09 11 58 40 .07    -122     20    -30    124    128 279.6 -13.9  33890  285.01 0863.63
2015 04 09 11 58 40 .32    -128     29    -27    132    135 282.8 -11.9  33894  285.09 0863.63
2015 04 09 11 58 40 .57    -161     24    -36    163    168 278.6 -12.6  33902  285.23 0863.63
2015 04 09 11 58 40 .82    -174     20    -25    176    178 276.6  -8.2  33898  285.16 0863.63
2015 04 09 11 58 41 .07    -177     21    -38    179    184 277.0 -12.2  33884  284.92 0863.63
2015 04 09 11 58 41 .32    -150     24    -41    152    158 279.2 -15.2  33870  284.69 0863.63
2015 04 09 11 58 41 .57    -150      9    -41    151    157 273.5 -15.2  33892  285.06 0863.63
2015 04 09 11 58 41 .82    -136     21    -31    138    142 278.8 -12.9  33896  285.11 0863.63
2015 04 09 11 58 42 .07    -116     19    -40    118    125 279.6 -18.7  33896  285.11 0863.63
2015 04 09 11 58 42 .32    -120     40    -35    127    132 288.4 -15.5  33876  284.79 0863.63
2015 04 09 11 58 42 .58    -149     30    -35    152    157 281.5 -13.2  33918  285.48 0863.63
2015 04 09 11 58 42 .82    -161     22    -36    163    168 277.9 -12.6  33948  286.00 0863.63
2015 04 09 11 58 43 .07    -146    -48     -8    154    155 251.8  -3.1  33932  285.71 0863.63
2015 04 09 11 58 43 .32    -129    -43    -27    137    140 251.4 -11.3  33924  285.58 0863.63
2015 04 09 11 58 43 .58    -103    -41    -35    111    117 248.3 -17.6  33930  285.70 0863.63
2015 04 09 11 58 43 .83     -49    -60     -1     78     79 219.7  -1.3  33946  285.95 0863.63
2015 04 09 11 58 44 .09     -68     18     -3     71     72 285.0  -3.1  33958  286.15 0863.63
2015 04 09 11 58 44 .34     -75    -27    -15     80     82 250.0 -10.9  33954  286.08 0863.63
2015 04 09 11 58 44 .59     -26     -2      4     27     28 263.9   9.0  33956  286.14 0863.62
2015 04 09 11 58 44 .84     -37     -2      9     38     40 265.6  13.2  33964  286.25 0863.62
2015 04 09 11 58 45 .09     -65      0     17     66     69 270.8  14.3  33946  285.95 0863.62
2015 04 09 11 58 45 .34    -117      0    -13    118    119 269.6  -6.7  33928  285.66 0863.62
2015 04 09 11 58 45 .59    -122     -8     -4    123    124 266.1  -2.2  33926  285.61 0863.62
2015 04 09 11 58 45 .84    -106    -12    -13    107    108 263.0  -7.3  33924  285.58 0863.62
2015 04 09 11 58 46 .09    -121     -5    -29    122    126 267.5 -13.4  33920  285.51 0863.62
2015 04 09 11 58 46 .34    -118    -12    -42    119    127 263.9 -19.7  33906  285.29 0863.62
2015 04 09 11 58 46 .59    -106     -1    -36    107    113 269.2 -18.7  33894  285.07 0863.62
2015 04 09 11 58 46 .84    -110     12    -22    111    114 276.6 -11.3  33894  285.09 0863.62
2015 04 09 11 58 47 .09    -103      7    -21    104    107 274.4 -11.5  33892  285.04 0863.62
2015 04 09 11 58 47 .35     -87      1     -8     88     89 270.8  -5.6  33914  285.43 0863.62
2015 04 09 11 58 47 .60     -63      4     11     64     66 274.4  10.1  33942  285.90 0863.62
2015 04 09 11 58 47 .84     -23     -4     16     24     28 260.3  35.6  33952  286.05 0863.62
2015 04 09 11 58 48 .10     -27      9      3     29     30 288.6   6.9  33950  286.03 0863.62
2015 04 09 11 58 48 .35    -104     -6    -31    105    109 266.5 -21.7  33954  286.10 0863.62
2015 04 09 11 58 48 .60    -120    -46     -5    129    130 248.7  -2.2  33954  286.08 0863.62
2015 04 09 11 58 48 .85     -86     40     11     96     97 295.2   6.9  33966  286.29 0863.62
2015 04 09 11 58 49 .10     -98     29    -21    103    106 286.8 -11.5  33934  285.76 0863.62
2015 04 09 11 58 49 .35    -173     15    -32    174    177 275.2 -10.5  33934  285.75 0863.63
2015 04 09 11 58 49 .61    -156     36    -20    161    163 283.0  -7.3  33952  286.05 0863.63
2015 04 09 11 58 49 .85    -163     21    -19    165    167 277.5  -6.7  33970  286.35 0863.63
2015 04 09 11 58 50 .10    -151      2    -23    152    154 270.9  -8.6  33944  285.93 0863.63
2015 04 09 11 58 50 .35    -139    -19      6    141    142 262.0   2.8  33942  285.90 0863.63
2015 04 09 11 58 50 .60    -150     11    -12    151    152 274.4  -4.6  33924  285.58 0863.63
2015 04 09 11 58 50 .85    -156      4    -47    157    165 271.5 -16.8  33912  285.39 0863.63
2015 04 09 11 58 51 .11    -146    -15    -33    147    151 263.8 -12.9  33912  285.39 0863.62
2015 04 09 11 58 51 .37    -152     -2    -44    153    160 269.2 -16.0  33922  285.56 0863.62
2015 04 09 11 58 51 .61    -167     -5    -25    168    170 268.3  -8.6  33924  285.60 0863.62
2015 04 09 11 58 51 .86    -169     -4    -28    170    173 268.5  -9.3  33934  285.75 0863.62
2015 04 09 11 58 52 .12    -177     -1    -20    178    180 269.6  -6.7  33940  285.87 0863.62
2015 04 09 11 58 52 .37    -148     10     -8    149    150 273.9  -3.2  33954  286.08 0863.62
2015 04 09 11 58 52 .62    -135     10    -17    136    138 274.4  -7.3  33972  286.41 0863.62
2015 04 09 11 58 52 .87    -109     22     11    112    113 281.5   5.9  33972  286.39 0863.62
2015 04 09 11 58 53 .12    -135     16     -7    137    138 277.0  -3.2  33986  286.62 0863.62
2015 04 09 11 58 53 .37     -50     16     36     53     64 288.2  37.6  33988  286.66 0863.62
2015 04 09 11 58 53 .62     -74     -1    -18     75     78 269.2 -13.4  33984  286.59 0863.62
2015 04 09 11 58 53 .87    -180     35    -23    184    186 281.2  -7.3  33976  286.46 0863.62
2015 04 09 11 58 54 .12    -152     51    -12    161    162 288.6  -4.6  33972  286.41 0863.62
2015 04 09 11 58 54 .37    -125     21    -16    127    129 279.6  -7.3  33980  286.54 0863.62
2015 04 09 11 58 54 .62     -68     24      8     73     74 290.0   6.9  33992  286.74 0863.63
2015 04 09 11 58 54 .87     -34     37     10     51     52 317.7  11.1  33996  286.79 0863.63
2015 04 09 11 58 55 .12     -40     13     15     43     46 288.4  19.4  33998  286.83 0863.63
2015 04 09 11 58 55 .37     -28    -39      8     49     50 216.1  10.1  34000  286.88 0863.63
2015 04 09 11 58 55 .62     -48   -102     40    113    119 205.3  20.0  34000  286.88 0863.63
2015 04 09 11 58 55 .88    -121   -109      4    164    165 228.0   1.6  33972  286.41 0863.63
2015 04 09 11 58 56 .12    -189   -113     -8    221    222 239.3  -2.2  33868  284.65 0863.63
2015 04 09 11 58 56 .38    -228   -151    -48    274    279 236.5 -10.1  33864  284.56 0863.63
2015 04 09 11 58 56 .63    -249    -36    -32    252    255 261.6  -7.3  33900  285.17 0863.63
2015 04 09 11 58 56 .88    -149    -51     -4    158    159 250.9  -1.8  33880  284.84 0863.63
2015 04 09 11 58 57 .13    -211    -54    -37    218    222 255.6  -9.8  33876  284.79 0863.63
2015 04 09 11 58 57 .38    -227     17     -8    228    229 274.3  -2.1  33922  285.56 0863.63
2015 04 09 11 58 57 .63    -262    -53    -53    268    274 258.6 -11.3  33882  284.88 0863.63
2015 04 09 11 58 57 .88    -172     17     22    173    175 275.7   7.5  33942  285.90 0863.63
2015 04 09 11 58 58 .14    -190     13    -20    191    193 274.1  -6.0  33900  285.19 0863.63
2015 04 09 11 58 58 .39    -202      4    -27    203    205 271.3  -7.7  33856  284.44 0863.63
2015 04 09 11 58 58 .64    -215    -24    -60    217    226 263.6 -15.5  33850  284.34 0863.63
2015 04 09 11 58 58 .89    -206    -15    -59    207    216 265.6 -16.0  33848  284.30 0863.63
2015 04 09 11 58 59 .14    -200      4    -61    201    211 271.3 -17.0  33852  284.37 0863.62
2015 04 09 11 58 59 .39    -218      7    -56    219    227 271.9 -14.5  33850  284.34 0863.62
2015 04 09 11 58 59 .64    -207     15    -54    208    216 274.4 -14.7  33852  284.37 0863.62
2015 04 09 11 58 59 .89    -206     12    -53    207    214 273.5 -14.5  33852  284.39 0863.62
2015 04 09 11 59 00 .14    -189     22    -49    191    198 276.8 -14.5  33844  284.25 0863.62
2015 04 09 11 59 00 .39    -174     18    -53    175    183 276.1 -17.0  33846  284.28 0863.62
2015 04 09 11 59 00 .64    -153      2    -46    154    161 270.8 -16.6  33854  284.42 0863.62
2015 04 09 11 59 00 .89    -152     -2    -35    153    158 269.2 -13.2  33852  284.37 0863.62
2015 04 09 11 59 01 .14    -152    -11    -26    153    156 265.6  -9.8  33848  284.32 0863.62
2015 04 09 11 59 01 .39    -151    -25    -23    154    156 260.4  -8.8  33846  284.28 0863.62
2015 04 09 11 59 01 .65    -139    -20    -24    141    144 261.6  -9.8  33848  284.32 0863.62
2015 04 09 11 59 01 .90    -129    -51    -17    139    141 248.3  -7.2  33862  284.54 0863.62
2015 04 09 11 59 02 .15    -101    -24    -20    104    106 256.3 -10.9  33868  284.64 0863.62
2015 04 09 11 59 02 .40     -52    -33     -3     62     63 237.5  -3.1  33890  285.01 0863.62
2015 04 09 11 59 02 .65     -56    -33      4     66     67 239.3   3.8  33902  285.21 0863.62
2015 04 09 11 59 02 .90     -56    -37     -3     68     69 236.7  -3.1  33908  285.31 0863.62
2015 04 09 11 59 03 .15     -50    -32    -12     60     62 237.5 -11.3  33910  285.34 0863.62
2015 04 09 11 59 03 .40     -46    -45     -2     65     66 225.1  -2.2  33904  285.24 0863.62
2015 04 09 11 59 03 .66     -73     -4      3     74     75 266.5   2.9  33930  285.70 0863.62
2015 04 09 11 59 03 .90    -119    -36    -21    125    127 253.1  -9.8  33912  285.39 0863.62
2015 04 09 11 59 04 .16     -47    -60     40     77     86 217.8  29.8  33916  285.46 0863.62
2015 04 09 11 59 04 .40    -138    -20    -18    140    142 261.6  -7.3  33942  285.88 0863.62
2015 04 09 11 59 04 .66    -142     -2    -28    143    146 269.2 -11.3  33918  285.50 0863.62
2015 04 09 11 59 04 .92    -104     36     15    111    113 289.1   8.0  33934  285.76 0863.62
2015 04 09 11 59 05 .17    -164      7    -28    165    168 272.6  -9.8  33916  285.44 0863.62
2015 04 09 11 59 05 .42    -163      0     -4    164    165 270.0  -1.6  33938  285.83 0863.62
2015 04 09 11 59 05 .67    -144    -29    -24    147    150 258.5  -9.3  33938  285.82 0863.62
2015 04 09 11 59 05 .92    -169    -35    -27    173    176 258.1  -9.0  33952  286.07 0863.62
2015 04 09 11 59 06 .17    -125    -37      0    131    132 253.2   0.2  33966  286.29 0863.62
2015 04 09 11 59 06 .42    -125    -20     -4    127    128 260.8  -2.2  33970  286.37 0863.62
2015 04 09 11 59 06 .67    -153     26     -1    156    157 279.7  -0.5  33938  285.82 0863.62
2015 04 09 11 59 06 .92    -151      4    -23    152    154 271.7  -8.6  33926  285.61 0863.62
2015 04 09 11 59 07 .17     -66      1     42     67     79 271.7  35.0  33984  286.59 0863.62
2015 04 09 11 59 07 .42    -171     40     -6    176    177 283.3  -2.2  33954  286.08 0863.62
2015 04 09 11 59 07 .67    -217      0    -35    218    221 269.9  -9.3  33938  285.83 0863.62
2015 04 09 11 59 07 .92    -192     45    -32    198    201 283.3  -9.4  33934  285.75 0863.62
2015 04 09 11 59 08 .17    -201     44    -33    206    209 282.4  -9.3  33926  285.61 0863.62
2015 04 09 11 59 08 .43    -186     36    -42    190    195 281.0 -12.6  33918  285.48 0863.62
2015 04 09 11 59 08 .67    -194     53     -5    202    203 285.3  -1.6  33960  286.19 0863.62
2015 04 09 11 59 08 .92    -193     39    -44    197    202 281.5 -12.6  33878  284.81 0863.62
2015 04 09 11 59 09 .17    -172     44    -41    178    183 284.4 -13.2  33870  284.69 0863.63
2015 04 09 11 59 09 .43    -172     48    -32    179    182 285.7 -10.3  33886  284.96 0863.63
2015 04 09 11 59 09 .67    -136      0     -5    137    138 269.6  -2.2  33904  285.24 0863.63
2015 04 09 11 59 09 .92    -125     -9    -16    126    128 265.7  -7.3  33918  285.48 0863.63
2015 04 09 11 59 10 .18    -185    -16    -23    186    188 265.0  -7.3  33964  286.27 0863.62
2015 04 09 11 59 10 .43    -202    -33     -4    205    206 260.5  -1.2  33920  285.51 0863.62
2015 04 09 11 59 10 .68    -185    -74    -18    200    201 248.2  -5.4  33892  285.06 0863.62
2015 04 09 11 59 10 .93    -170    -29    -33    173    177 260.3 -10.9  33868  284.64 0863.62
2015 04 09 11 59 11 .18    -172    -14    -42    173    179 265.0 -13.7  33870  284.69 0863.62
2015 04 09 11 59 11 .43    -193      8    -54    194    202 272.4 -15.5  33872  284.72 0863.62
2015 04 09 11 59 11 .68    -189     13    -47    190    196 274.1 -13.9  33870  284.69 0863.62
2015 04 09 11 59 11 .94    -181     -1    -37    182    186 269.6 -11.5  33870  284.69 0863.62
2015 04 09 11 59 12 .19    -169    -16    -21    170    172 264.3  -7.3  33868  284.64 0863.62
2015 04 09 11 59 12 .44    -165    -20    -33    167    171 263.0 -11.3  33872  284.72 0863.62
2015 04 09 11 59 12 .69    -180     -5    -14    181    182 268.3  -4.6  33890  285.02 0863.62
2015 04 09 11 59 12 .94    -171     -7    -22    172    174 267.4  -7.3  33880  284.84 0863.62
2015 04 09 11 59 13 .19    -157    -12    -31    158    162 265.6 -11.3  33864  284.59 0863.62
2015 04 09 11 59 13 .45    -144    -16    -21    145    147 263.4  -8.2  33896  285.11 0863.62
2015 04 09 11 59 13 .69    -121     32     10    126    127 285.0   5.0  33920  285.51 0863.61
2015 04 09 11 59 13 .94    -123      5    -20    124    126 272.6  -9.3  33894  285.07 0863.61
2015 04 09 11 59 14 .20    -142      4    -28    143    146 271.7 -11.3  33894  285.07 0863.61
2015 04 09 11 59 14 .45    -133      0    -27    134    137 270.0 -11.5  33900  285.19 0863.61
2015 04 09 11 59 14 .69    -123      9    -33    124    129 274.3 -15.0  33906  285.29 0863.61
2015 04 09 11 59 14 .95    -122    -24    -32    125    130 258.5 -14.5  33908  285.31 0863.61
2015 04 09 11 59 15 .20     -98    -17     19    100    102 259.9  11.1  33942  285.90 0863.61
2015 04 09 11 59 15 .45    -155    -71    -18    171    173 245.4  -6.2  33946  285.97 0863.61
2015 04 09 11 59 15 .70     -63    -17     24     66     70 255.0  20.0  33956  286.12 0863.61
2015 04 09 11 59 15 .95    -196    -73    -34    210    213 249.6  -9.4  33930  285.70 0863.61
2015 04 09 11 59 16 .20    -187    -18    -17    188    189 264.3  -5.2  33940  285.85 0863.61
2015 04 09 11 59 16 .45    -187    -68    -13    200    201 250.0  -3.7  33924  285.58 0863.61
2015 04 09 11 59 16 .70    -198    -45    -48    204    210 257.2 -13.3  33912  285.38 0863.61
2015 04 09 11 59 16 .96    -152    -41    -22    158    160 254.9  -8.2  33966  286.30 0863.61
2015 04 09 11 59 17 .20     -84    -39     49     93    105 245.2  30.3  33976  286.46 0863.61
2015 04 09 11 59 17 .46    -161    -16    -25    162    164 264.1  -8.8  33980  286.54 0863.61
2015 04 09 11 59 17 .71    -147    -12      8    148    149 265.2   3.3  33994  286.78 0863.61
2015 04 09 11 59 17 .96    -120    -36    -21    126    128 253.1  -9.8  34042  287.57 0863.61
2015 04 09 11 59 18 .20    -135      1     -7    136    137 270.8  -3.1  34028  287.35 0863.61
2015 04 09 11 59 18 .46     -70     49     32     86     91 305.5  21.0  34004  286.93 0863.62
2015 04 09 11 59 18 .70    -143      9     -5    144    145 273.9  -2.2  33948  285.98 0863.62
2015 04 09 11 59 18 .97    -184    -24    -35    186    190 262.3 -10.9  33908  285.31 0863.62
2015 04 09 11 59 19 .22    -210    -29    -36    212    216 262.1  -9.6  33952  286.05 0863.62
2015 04 09 11 59 19 .47    -179    -55      9    188    189 252.7   2.9  33978  286.51 0863.62
2015 04 09 11 59 19 .72    -142    -61      7    155    156 246.5   2.8  33990  286.71 0863.62
2015 04 09 11 59 19 .97    -106    -35     -1    112    113 251.6  -0.7  34032  287.40 0863.62
2015 04 09 11 59 20 .22    -180     13     -7    181    182 274.3  -2.2  34000  286.88 0863.62
2015 04 09 11 59 20 .47    -172    -14    -42    173    179 265.0 -13.7  33898  285.16 0863.62
2015 04 09 11 59 20 .72    -209     16    -35    210    213 274.4  -9.6  33920  285.51 0863.62
2015 04 09 11 59 20 .97    -174     27     18    177    178 278.8   5.9  33972  286.39 0863.62
2015 04 09 11 59 21 .23    -181     13    -36    182    186 274.3 -11.3  33950  286.03 0863.62
2015 04 09 11 59 21 .47    -187    -26    -17    189    190 262.1  -5.2  33938  285.82 0863.62
2015 04 09 11 59 21 .73    -227     -3     -8    228    229 269.1  -2.2  33932  285.73 0863.62
2015 04 09 11 59 21 .97    -291    -24    -58    293    299 265.2 -11.3  33950  286.03 0863.62
2015 04 09 11 59 22 .23    -307      4    -63    308    315 270.8 -11.6  33952  286.04 0863.62
2015 04 09 11 59 22 .48    -293     13    -48    294    299 272.6  -9.4  33954  286.09 0863.62
2015 04 09 11 59 22 .73    -267      7    -44    268    272 271.7  -9.3  33958  286.16 0863.62
2015 04 09 11 59 22 .98    -291     27    -37    293    296 275.3  -7.2  33960  286.18 0863.62
2015 04 09 11 59 23 .23    -275     17    -34    276    279 273.7  -7.2  33968  286.31 0863.62
2015 04 09 11 59 23 .48    -286     -1    -26    287    289 269.6  -5.2  33980  286.53 0863.62
2015 04 09 11 59 23 .73    -340     26    -56    342    347 274.5  -9.3  33990  286.69 0863.62
2015 04 09 11 59 23 .98    -319    -24      5    320    321 265.7   1.0  34026  287.29 0863.62
2015 04 09 11 59 24 .23    -313    -63    -31    320    322 258.6  -5.6  34040  287.53 0863.62
2015 04 09 11 59 24 .48    -252     -1    -27    253    255 269.6  -6.2  34056  287.80 0863.62
2015 04 09 11 59 24 .73    -245    -41    -24    249    251 260.3  -5.6  34078  288.19 0863.62
2015 04 09 11 59 24 .98    -311    -30    -12    313    314 264.3  -2.2  34046  287.65 0863.62
2015 04 09 11 59 25 .24    -281    -40    -20    284    285 261.9  -4.1  33966  286.28 0863.62
2015 04 09 11 59 25 .49    -248      7    -26    249    251 271.7  -6.0  33948  285.98 0863.62
2015 04 09 11 59 25 .73    -264    -45    -26    268    270 260.3  -5.6  34010  287.04 0863.62
2015 04 09 11 59 25 .99    -271     20    -17    272    273 274.4  -3.7  33952  286.04 0863.62
2015 04 09 11 59 26 .24    -325     -9    -27    326    328 268.4  -4.8  33926  285.61 0863.62
2015 04 09 11 59 26 .49    -289     17    -34    290    292 273.4  -6.7  33886  284.95 0863.62
2015 04 09 11 59 26 .75    -316    -13    -61    317    323 267.5 -10.9  33878  284.82 0863.62
2015 04 09 11 59 26 .99    -319     16    -45    320    324 273.0  -8.0  33878  284.82 0863.62
2015 04 09 11 59 27 .24    -287      4      1    288    289 270.9   0.2  33962  286.23 0863.62
2015 04 09 11 59 27 .49    -317     24    -51    318    323 274.4  -9.1  33978  286.50 0863.62
2015 04 09 11 59 27 .74    -335      3    -49    336    340 270.6  -8.4  33880  284.84 0863.62
2015 04 09 11 59 28 .00    -317    -21    -74    318    327 266.1 -13.2  33876  284.78 0863.62
2015 04 09 11 59 28 .25    -322      0    -80    323    333 270.0 -13.9  33884  284.91 0863.62
2015 04 09 11 59 28 .50    -322     10    -68    323    331 271.9 -11.9  33880  284.83 0863.62
2015 04 09 11 59 28 .75    -296    -13    -64    297    304 267.4 -12.2  33882  284.88 0863.62
2015 04 09 11 59 29 .00    -296     -4    -80    297    308 269.2 -15.2  33890  285.02 0863.62
2015 04 09 11 59 29 .25    -296     -8    -68    297    305 268.3 -12.9  33894  285.08 0863.62
2015 04 09 11 59 29 .50    -291    -48    -58    296    302 260.5 -11.1  33890  285.02 0863.62
2015 04 09 11 59 29 .75    -261    -36    -53    264    270 262.1 -11.3  33898  285.15 0863.62
2015 04 09 11 59 30 .00    -258    -36    -47    261    266 261.9 -10.3  33902  285.20 0863.61
2015 04 09 11 59 30 .25    -275    -12    -19    276    277 267.4  -4.1  33908  285.32 0863.61
2015 04 09 11 59 30 .50    -281    -60    -44    288    292 257.8  -8.8  33912  285.37 0863.61
2015 04 09 11 59 30 .75    -273    -55    -33    279    282 258.6  -6.9  33920  285.52 0863.61
2015 04 09 11 59 31 .01    -258    -32    -33    261    264 262.8  -7.2  33928  285.66 0863.61
2015 04 09 11 59 31 .26    -225     -7    -24    226    228 268.1  -6.2  33930  285.68 0863.61
2015 04 09 11 59 31 .51    -262     -3    -43    263    267 269.2  -9.3  33946  285.94 0863.61
2015 04 09 11 59 31 .76    -281      8    -25    282    284 271.7  -5.1  33950  286.01 0863.61
2015 04 09 11 59 32 .01    -272     22    -35    273    276 274.8  -7.3  33944  285.91 0863.61
2015 04 09 11 59 32 .26    -257      0    -28    258    260 270.0  -6.2  33948  285.99 0863.61
2015 04 09 11 59 32 .51    -260    -13    -14    261    262 267.0  -3.1  33974  286.42 0863.61
2015 04 09 11 59 32 .77    -239    -60    -35    247    250 255.8  -8.2  34018  287.16 0863.61
2015 04 09 11 59 33 .02    -248    -17     -3    249    250 265.9  -0.7  34016  287.14 0863.61
2015 04 09 11 59 33 .27    -216    -98     16    238    239 245.6   3.9  34028  287.33 0863.61
2015 04 09 11 59 33 .52    -224    -62     -9    233    234 254.5  -2.2  34048  287.66 0863.61
2015 04 09 11 59 33 .77    -116    -25     14    119    120 257.6   6.9  34046  287.65 0863.61
2015 04 09 11 59 34 .02    -172    -83    -20    192    194 244.2  -6.2  34000  286.86 0863.61
2015 04 09 11 59 34 .28    -213    -24    -23    215    217 263.4  -6.2  33978  286.49 0863.61
2015 04 09 11 59 34 .52    -282     21    -13    283    284 274.4  -2.8  33980  286.52 0863.61
2015 04 09 11 59 34 .78    -292    -49    -29    297    299 260.4  -5.6  33970  286.36 0863.61
2015 04 09 11 59 35 .02    -290      5    -20    291    292 271.0  -4.1  34024  287.28 0863.61
2015 04 09 11 59 35 .28    -204    -97     -6    227    228 244.5  -1.6  34052  287.76 0863.61
2015 04 09 11 59 35 .53    -284    -44    -51    288    293 261.2 -10.1  34096  288.48 0863.61
2015 04 09 11 59 35 .77    -205     13      5    206    207 273.7   1.6  34150  289.41 0863.61
2015 04 09 11 59 36 .03    -170     12    -37    171    176 274.3 -12.4  34142  289.26 0863.61
2015 04 09 11 59 36 .28    -127     52     20    138    140 292.2   8.5  34146  289.33 0863.61
2015 04 09 11 59 36 .53    -132     53      7    143    144 291.8   2.9  34120  288.89 0863.61
2015 04 09 11 59 36 .78    -270    -17    -44    271    275 266.3  -9.3  33972  286.40 0863.61
2015 04 09 11 59 37 .03    -244     -3     12    245    246 269.1   2.9  33994  286.75 0863.61
2015 04 09 11 59 37 .28    -304    -61    -26    311    313 258.6  -4.9  33972  286.40 0863.61
2015 04 09 11 59 37 .53    -289      0     -8    290    291 270.0  -1.6  33974  286.43 0863.61
2015 04 09 11 59 37 .78    -319    -43    -45    322    326 262.3  -8.0  33902  285.22 0863.61
2015 04 09 11 59 38 .03    -308    -32    -35    310    313 263.9  -6.5  33870  284.68 0863.61
2015 04 09 11 59 38 .28    -324    -39    -66    327    334 263.1 -11.6  33858  284.46 0863.61
2015 04 09 11 59 38 .53    -280     -8    -40    281    284 268.3  -8.2  33872  284.71 0863.61
2015 04 09 11 59 38 .78    -246    -23    -23    248    250 264.5  -5.4  33896  285.10 0863.61
2015 04 09 11 59 39 .03    -272    -37    -49    275    280 262.1 -10.1  33874  284.73 0863.61
2015 04 09 11 59 39 .28    -285    -62    -58    292    298 257.6 -11.3  33868  284.63 0863.61
2015 04 09 11 59 39 .53    -263    -38    -45    266    270 261.6  -9.8  33860  284.51 0863.61
2015 04 09 11 59 39 .79    -265    -39    -68    268    277 261.6 -14.3  33848  284.31 0863.61
2015 04 09 11 59 40 .04    -279    -44    -51    283    288 261.0 -10.4  33850  284.35 0863.61
2015 04 09 11 59 40 .30    -263    -30    -41    265    269 263.4  -8.8  33852  284.38 0863.61
2015 04 09 11 59 40 .55    -209    -29     10    211    212 262.1   2.9  33870  284.67 0863.61
2015 04 09 11 59 40 .80    -296    -36    -43    299    303 263.0  -8.2  33854  284.41 0863.61
2015 04 09 11 59 41 .04    -277    -23    -55    278    284 265.2 -11.3  33852  284.38 0863.61
2015 04 09 11 59 41 .30    -283    -24    -46    285    289 265.0  -9.3  33854  284.40 0863.61
2015 04 09 11 59 41 .55    -293    -36    -38    296    299 262.9  -7.3  33852  284.36 0863.61
2015 04 09 11 59 41 .80    -286    -21    -41    287    291 265.6  -8.2  33850  284.35 0863.61
2015 04 09 11 59 42 .05    -264    -17    -48    265    270 266.3 -10.3  33854  284.41 0863.61
2015 04 09 11 59 42 .30    -239     -1    -26    240    242 269.6  -6.2  33856  284.43 0863.61
2015 04 09 11 59 42 .55    -284    -30    -47    286    290 263.8  -9.3  33846  284.28 0863.61
2015 04 09 11 59 42 .80    -283    -30    -36    285    288 263.9  -7.3  33850  284.35 0863.61
2015 04 09 11 59 43 .05    -279     -4    -23    280    282 269.0  -4.9  33854  284.41 0863.61
2015 04 09 11 59 43 .30    -290    -49    -28    295    297 260.3  -5.6  33852  284.36 0863.61
2015 04 09 11 59 43 .56    -271    -20    -26    272    274 265.6  -5.6  33864  284.58 0863.61
2015 04 09 11 59 43 .81    -222      4     -4    223    224 271.3  -1.3  33888  284.97 0863.61
2015 04 09 11 59 44 .06    -309      4    -14    310    311 270.9  -2.6  33898  285.15 0863.61
2015 04 09 11 59 44 .31    -293     31    -37    295    298 276.1  -7.3  33880  284.83 0863.61
2015 04 09 11 59 44 .56    -294     35    -34    297    300 276.8  -6.7  33890  285.00 0863.61
2015 04 09 11 59 44 .81    -260      7    -14    261    262 271.7  -3.1  33892  285.05 0863.61
2015 04 09 11 59 45 .06    -310      8    -52    311    316 271.5  -9.5  33888  284.98 0863.61
2015 04 09 11 59 45 .31    -309     47    -17    313    314 278.8  -3.1  33892  285.03 0863.61
2015 04 09 11 59 45 .56    -272    -12    -46    273    277 267.4  -9.6  33908  285.30 0863.61
2015 04 09 11 59 45 .81    -162     63     11    174    175 291.3   3.6  33920  285.51 0863.61
2015 04 09 11 59 46 .06    -265     62    -58    273    280 283.3 -12.2  33914  285.42 0863.61
2015 04 09 11 59 46 .31    -250     83    -73    264    275 288.4 -15.5  33892  285.05 0863.61
2015 04 09 11 59 46 .57    -214     87    -72    232    244 292.2 -17.3  33904  285.25 0863.61
2015 04 09 11 59 46 .82    -222     73    -42    234    238 288.4 -10.3  33934  285.76 0863.61
2015 04 09 11 59 47 .07    -226     16    -28    227    229 274.3  -7.2  33882  284.89 0863.61
2015 04 09 11 59 47 .32    -240      7    -41    241    245 271.7  -9.8  33884  284.90 0863.61
2015 04 09 11 59 47 .58    -223      1    -54    224    231 270.4 -13.7  33898  285.14 0863.61
2015 04 09 11 59 47 .82    -216     -1    -34    217    220 269.6  -9.0  33904  285.24 0863.61
2015 04 09 11 59 48 .08    -232      3    -29    233    235 270.8  -7.2  33890  285.02 0863.61
2015 04 09 11 59 48 .32    -196     -8    -10    197    198 267.4  -3.1  33898  285.14 0863.61
2015 04 09 11 59 48 .58    -196      0    -26    197    199 270.1  -7.7  33892  285.06 0863.61
2015 04 09 11 59 48 .83    -231     22    -38    233    237 275.5  -9.3  33898  285.14 0863.61
2015 04 09 11 59 49 .07    -271     50    -35    276    279 280.6  -7.3  33896  285.10 0863.61
2015 04 09 11 59 49 .33    -255     15    -33    256    259 273.5  -7.5  33868  284.65 0863.61
2015 04 09 11 59 49 .58    -233      4    -40    234    238 271.0  -9.8  33896  285.10 0863.61
2015 04 09 11 59 49 .83    -248      0    -35    249    252 270.0  -8.0  33890  285.02 0863.61
2015 04 09 11 59 50 .08    -233    -13    -24    234    236 266.7  -6.0  33902  285.22 0863.61
2015 04 09 11 59 50 .33    -265    -24    -46    267    272 264.7  -9.8  33880  284.83 0863.61
2015 04 09 11 59 50 .58    -251    -26    -55    253    260 263.9 -12.4  33930  285.69 0863.61
2015 04 09 11 59 50 .83    -253      3    -32    254    257 270.8  -7.2  33940  285.84 0863.61
2015 04 09 11 59 51 .08    -181      0    -13    182    183 270.1  -4.4  33972  286.41 0863.61
2015 04 09 11 59 51 .33     -76    -25     10     81     82 251.4   7.5  33974  286.44 0863.61
2015 04 09 11 59 51 .58     -53    -33     32     63     70 237.5  28.2  33978  286.51 0863.61
2015 04 09 11 59 51 .83     -43     -9     49     45     66 257.6  52.2  34006  286.98 0863.61
2015 04 09 11 59 52 .08     -57      1     65     58     87 271.7  53.3  33996  286.81 0863.61
2015 04 09 11 59 52 .33    -230    -53    -39    237    241 257.0  -9.4  33910  285.34 0863.61
2015 04 09 11 59 52 .58    -194    -29    -15    197    198 261.4  -4.6  33966  286.30 0863.61
2015 04 09 11 59 52 .83    -154     26     -6    157    158 279.6  -2.3  33962  286.22 0863.61
2015 04 09 11 59 53 .09    -136     -5    -27    137    140 267.5 -11.3  33928  285.65 0863.61
2015 04 09 11 59 53 .33     -84   -100     58    132    144 220.1  25.2  33962  286.24 0863.61
2015 04 09 11 59 53 .59    -228    -13    -35    229    232 266.7  -8.8  33878  284.81 0863.61
2015 04 09 11 59 53 .84    -232      4    -63    233    242 271.0 -15.2  33880  284.83 0863.61
2015 04 09 11 59 54 .10    -231      7    -59    232    240 271.9 -14.4  33900  285.19 0863.61
2015 04 09 11 59 54 .35    -233     -1    -40    234    238 269.6  -9.8  33898  285.15 0863.61
2015 04 09 11 59 54 .60    -224    -20    -68    225    236 264.8 -17.0  33920  285.51 0863.61
2015 04 09 11 59 54 .85    -243     -8    -44    244    249 268.1 -10.4  33932  285.71 0863.61
2015 04 09 11 59 55 .10    -223    -15    -54    224    231 266.1 -13.7  33938  285.83 0863.61
2015 04 09 11 59 55 .35    -183      4    -35    184    188 271.5 -10.9  33938  285.83 0863.61
2015 04 09 11 59 55 .60    -135      5    -37    136    142 272.1 -15.5  33934  285.76 0863.61
2015 04 09 11 59 55 .85    -150     29    -31    153    157 281.0 -11.6  33930  285.70 0863.61
2015 04 09 11 59 56 .11    -176     58    -26    186    188 288.2  -8.0  33946  285.97 0863.61
2015 04 09 11 59 56 .35    -204     75    -20    218    220 290.2  -5.4  33942  285.88 0863.61
2015 04 09 11 59 56 .60    -194     72     -1    208    209 290.4  -0.5  33938  285.83 0863.61
2015 04 09 11 59 56 .85    -205     96     -8    227    228 295.1  -2.2  33928  285.65 0863.61
2015 04 09 11 59 57 .10    -212     42    -33    217    220 281.2  -8.8  33918  285.48 0863.61
2015 04 09 11 59 57 .35    -206     53      1    213    214 284.6   0.5  33924  285.58 0863.61
2015 04 09 11 59 57 .60    -240      7    -41    241    245 271.7  -9.8  33904  285.25 0863.61
2015 04 09 11 59 57 .86    -247     18    -49    248    253 274.4 -11.3  33906  285.27 0863.61
2015 04 09 11 59 58 .11    -271     31    -28    273    275 276.6  -6.0  33902  285.22 0863.60
2015 04 09 11 59 58 .36    -279     43    -20    283    284 278.8  -4.1  33910  285.34 0863.60
2015 04 09 11 59 58 .61    -287     57    -39    293    296 281.4  -7.7  33910  285.34 0863.60
2015 04 09 11 59 58 .86    -268     30    -34    270    273 276.6  -7.3  33906  285.29 0863.60
2015 04 09 11 59 59 .11    -284    113    -20    306    307 291.7  -3.9  33920  285.51 0863.60
2015 04 09 11 59 59 .36    -285     74    -19    295    296 284.6  -3.7  33928  285.64 0863.60
2015 04 09 11 59 59 .61    -194     37     -7    198    199 280.8  -2.2  33946  285.97 0863.60
2015 04 09 11 59 59 .86    -255     45    -18    260    261 280.1  -4.1  33904  285.25 0863.59
2015 04 09 12 00 00 .11    -300     13    -32    301    303 272.6  -6.1  33890  285.02 0863.59
2015 04 09 12 00 00 .36    -262     35    -53    265    271 277.7 -11.5  33876  284.77 0863.59
2015 04 09 12 00 00 .62    -310     43    -53    314    319 278.0  -9.7  33868  284.63 0863.59
2015 04 09 12 00 00 .87    -284     39    -79    287    298 277.9 -15.5  33876  284.78 0863.59
2015 04 09 12 00 01 .12    -284     61    -75    291    301 282.3 -14.5  33856  284.45 0863.59
2015 04 09 12 00 01 .37    -274     38    -53    277    283 278.0 -10.9  33864  284.56 0863.59
2015 04 09 12 00 01 .62    -286     22    -57    287    293 274.6 -11.3  33860  284.50 0863.59
2015 04 09 12 00 01 .88    -276     16    -53    277    283 273.5 -10.9  33876  284.78 0863.60
2015 04 09 12 00 02 .13    -272     47    -66    277    285 279.9 -13.4  33884  284.92 0863.60
2015 04 09 12 00 02 .38    -238     60    -88    246    262 284.2 -19.7  33890  285.02 0863.60
2015 04 09 12 00 02 .62    -253     45    -89    258    273 280.1 -19.1  33890  285.02 0863.60
2015 04 09 12 00 02 .87    -249     49    -74    254    264 281.2 -21.0  33890  285.02 0863.60
2015 04 09 12 00 03 .12    -236     55    -67    243    252 283.3 -20.2  33882  284.87 0863.60
2015 04 09 12 00 03 .38    -219     47    -80    225    240 282.2 -19.7  33880  284.83 0863.60
2015 04 09 12 00 03 .63    -226     48    -70    232    243 282.2 -17.0  33886  284.95 0863.61
2015 04 09 12 00 03 .88    -238     23    -48    240    245 275.7 -11.3  33888  284.97 0863.61
2015 04 09 12 00 04 .13    -221      7    -44    222    227 271.9 -11.3  33886  284.96 0863.61
2015 04 09 12 00 04 .38    -124     83     -8    150    151 303.7  -3.2  33920  285.51 0863.61
2015 04 09 12 00 04 .63    -164    118    -23    203    205 305.7  -6.7  33912  285.38 0863.61
2015 04 09 12 00 04 .88    -200     61     -8    210    211 286.9  -2.3  33892  285.06 0863.61
2015 04 09 12 00 05 .13    -208     77    -36    223    227 290.4  -9.3  33906  285.29 0863.61
2015 04 09 12 00 05 .39    -167    106    -27    198    200 302.4  -8.0  33918  285.48 0863.61
2015 04 09 12 00 05 .64    -167     77    -23    184    186 294.8  -7.3  33932  285.71 0863.61
2015 04 09 12 00 05 .89    -185     63    -12    196    197 288.8  -3.7  33912  285.38 0863.61
2015 04 09 12 00 06 .14    -205    110    -31    233    236 298.4  -7.7  33894  285.08 0863.61
2015 04 09 12 00 06 .39    -199    126    -42    236    240 302.4 -10.1  33910  285.35 0863.61
2015 04 09 12 00 06 .64    -245     51    -30    251    253 281.9  -6.9  33926  285.61 0863.61
2015 04 09 12 00 06 .88    -285     70    -48    294    298 283.9  -9.3  33904  285.25 0863.61
2015 04 09 12 00 07 .14    -302     70    -53    311    316 283.2  -9.8  33886  284.95 0863.61
2015 04 09 12 00 07 .39    -271     50    -19    276    277 280.5  -4.1  33890  285.02 0863.61
2015 04 09 12 00 07 .65    -279     69    -79    288    299 283.9 -15.4  33886  284.95 0863.61
2015 04 09 12 00 07 .90    -294     73    -68    304    312 284.1 -12.7  33890  285.00 0863.61
2015 04 09 12 00 08 .15    -290     67    -62    298    305 283.0 -11.9  33890  285.00 0863.61
2015 04 09 12 00 08 .40    -280     65    -59    288    295 283.2 -11.6  33894  285.07 0863.61
2015 04 09 12 00 08 .65    -262     66    -55    271    277 284.2 -11.5  33904  285.24 0863.61
2015 04 09 12 00 08 .90    -235     63    -44    244    248 285.1 -10.3  33902  285.22 0863.61
2015 04 09 12 00 09 .15    -190     75    -21    205    207 291.7  -6.0  33914  285.41 0863.61
2015 04 09 12 00 09 .40    -178    127    -29    219    221 305.5  -7.7  33922  285.56 0863.61
2015 04 09 12 00 09 .65    -238    122    -38    268    271 297.3  -8.2  33910  285.34 0863.61
2015 04 09 12 00 09 .90    -254    110    -29    278    280 293.5  -6.0  33920  285.52 0863.61
2015 04 09 12 00 10 .16    -265    120    -23    292    293 294.4  -4.6  33952  286.04 0863.61
2015 04 09 12 00 10 .40    -174    135    -18    221    222 307.8  -4.9  33956  286.12 0863.61
2015 04 09 12 00 10 .66    -219    139    -36    260    263 302.4  -8.0  33936  285.77 0863.61
2015 04 09 12 00 10 .91    -188    135    -42    232    236 305.9 -10.3  33968  286.31 0863.61
2015 04 09 12 00 11 .16    -232     56     -7    239    240 283.7  -1.8  33978  286.50 0863.61
2015 04 09 12 00 11 .41    -267     40    -24    271    273 278.6  -5.1  33964  286.26 0863.61
2015 04 09 12 00 11 .66    -180     35    -32    184    187 281.2 -10.1  34002  286.91 0863.61
2015 04 09 12 00 11 .91    -256     60     -5    263    264 283.3  -1.3  33958  286.16 0863.60
2015 04 09 12 00 12 .16    -276     51    -29    281    283 280.6  -6.0  33946  285.94 0863.60
2015 04 09 12 00 12 .41    -277     20    -35    278    281 274.3  -7.3  33940  285.86 0863.60
2015 04 09 12 00 12 .66    -284     77    -16    295    296 285.3  -3.3  33974  286.42 0863.60
2015 04 09 12 00 12 .91    -248     19    -49    249    254 274.6 -11.3  34004  286.92 0863.60
2015 04 09 12 00 13 .16    -325    -67    -73    333    341 258.2 -12.4  33952  286.04 0863.60
2015 04 09 12 00 13 .41    -357    -57    -80    362    371 260.9 -12.6  33934  285.75 0863.60
2015 04 09 12 00 13 .66    -336    -16    -82    337    348 267.2 -13.8  33894  285.08 0863.60
2015 04 09 12 00 13 .91    -311     -4    -63    312    319 269.1 -11.6  33902  285.20 0863.60
2015 04 09 12 00 14 .17    -301     11    -65    302    309 272.1 -12.2  33924  285.59 0863.60
2015 04 09 12 00 14 .41    -281     48    -31    286    288 279.7  -6.2  33946  285.96 0863.60
2015 04 09 12 00 14 .68    -287     49    -34    292    295 279.7  -6.7  33912  285.37 0863.60
2015 04 09 12 00 14 .93    -282     35    -34    285    288 277.1  -6.9  33920  285.51 0863.60
2015 04 09 12 00 15 .18    -265    -24    -54    267    273 264.8 -11.6  33922  285.56 0863.60
2015 04 09 12 00 15 .43    -318      0    -74    319    328 270.0 -13.1  33914  285.40 0863.60
2015 04 09 12 00 15 .68    -339    -14    -39    340    343 267.5  -6.7  33944  285.92 0863.60
2015 04 09 12 00 15 .93    -396      4    -79    397    405 270.7 -11.3  33940  285.85 0863.60
2015 04 09 12 00 16 .18    -360     35    -66    362    368 275.6 -10.4  33940  285.85 0863.60
2015 04 09 12 00 16 .43    -365     15    -67    366    373 272.5 -10.5  33956  286.12 0863.60
2015 04 09 12 00 16 .68    -338     27    -62    340    346 274.6 -10.4  33962  286.24 0863.60
2015 04 09 12 00 16 .93    -303     -6    -43    304    308 268.7  -8.1  33980  286.52 0863.60
2015 04 09 12 00 17 .18    -313      4    -54    314    319 270.8  -9.9  34002  286.90 0863.60
2015 04 09 12 00 17 .43    -335      7    -67    336    343 271.3 -11.3  33996  286.80 0863.60
2015 04 09 12 00 17 .68    -322    -21    -40    323    326 266.2  -7.2  34008  287.01 0863.60
2015 04 09 12 00 17 .93    -267    -44    -59    271    278 260.5 -12.4  34024  287.28 0863.60
2015 04 09 12 00 18 .18    -255     -5    -42    256    260 268.7  -9.4  34028  287.33 0863.60
2015 04 09 12 00 18 .44    -271      3    -44    272    276 270.8  -9.4  34016  287.14 0863.60
2015 04 09 12 00 18 .68    -306     36    -17    309    310 276.8  -3.3  33994  286.75 0863.60
2015 04 09 12 00 18 .93    -306      0    -39    307    310 270.0  -7.4  33986  286.63 0863.60
2015 04 09 12 00 19 .19    -310      6    -72    311    320 271.3 -13.1  33982  286.55 0863.61
2015 04 09 12 00 19 .44    -269     58    -39    276    279 282.3  -8.2  34028  287.34 0863.61
2015 04 09 12 00 19 .68    -105    117    -24    158    160 318.1  -8.8  34038  287.52 0863.61
2015 04 09 12 00 19 .94    -233     40    -31    237    239 279.9  -7.5  33960  286.20 0863.61
2015 04 09 12 00 20 .19    -218    110    -37    245    248 296.9  -8.8  33940  285.86 0863.61
2015 04 09 12 00 20 .44    -250     82    -87    264    279 288.2 -18.3  33992  286.72 0863.61
2015 04 09 12 00 20 .69    -186    119    -20    221    222 302.6  -5.2  34010  287.03 0863.61
2015 04 09 12 00 20 .94     -95    136      2    166    167 325.0   0.8  34042  287.59 0863.61
2015 04 09 12 00 21 .19    -251     80    -43    264    268 287.7  -9.4  33978  286.50 0863.61
2015 04 09 12 00 21 .45    -318    122    -31    341    343 291.1  -5.3  33918  285.48 0863.61
2015 04 09 12 00 21 .70    -319    104    -42    336    339 288.2  -7.2  33908  285.33 0863.61
2015 04 09 12 00 21 .95    -286     88    -14    300    301 287.1  -2.8  33910  285.35 0863.61
2015 04 09 12 00 22 .20    -323    138     -7    352    353 293.2  -1.3  33886  284.96 0863.61
2015 04 09 12 00 22 .45    -314    112    -76    334    343 289.7 -12.9  33926  285.63 0863.61
2015 04 09 12 00 22 .71    -324    124    -72    347    355 291.0 -11.8  33876  284.78 0863.61
2015 04 09 12 00 22 .95    -322    131    -68    348    355 292.2 -11.1  33880  284.83 0863.61
2015 04 09 12 00 23 .21    -307    141    -53    338    343 294.7  -8.9  33870  284.67 0863.61
2015 04 09 12 00 23 .46    -332    113    -45    351    354 288.8  -7.4  33902  285.21 0863.61
2015 04 09 12 00 23 .70    -354     89    -48    366    370 284.2  -7.5  33930  285.67 0863.61
2015 04 09 12 00 23 .96    -338     80    -75    348    357 283.4 -12.2  33900  285.18 0863.61
2015 04 09 12 00 24 .20    -283     54    -81    289    301 280.8 -15.8  33912  285.37 0863.61
2015 04 09 12 00 24 .45    -278     67    -79    287    298 283.7 -15.4  33868  284.63 0863.61
2015 04 09 12 00 24 .71    -261     99    -54    280    286 290.9 -10.9  33890  285.00 0863.61
2015 04 09 12 00 24 .96    -244    110    -38    268    271 294.4  -8.3  33860  284.50 0863.61
2015 04 09 12 00 25 .21    -246    130    -51    279    284 297.9 -10.5  33866  284.60 0863.61
2015 04 09 12 00 25 .46    -213    144    -83    258    272 304.1 -17.9  33868  284.63 0863.61
2015 04 09 12 00 25 .71    -182    160    -75    243    255 311.3 -17.3  33882  284.87 0863.61
2015 04 09 12 00 25 .96    -143    106    -22    179    181 306.6  -7.2  33880  284.86 0863.61
2015 04 09 12 00 26 .21     -81    102     47    131    139 321.3  20.4  33898  285.16 0863.61
2015 04 09 12 00 26 .46     -70    110     74    131    150 327.5  31.4  33918  285.48 0863.61
2015 04 09 12 00 26 .71     -78    129     46    151    159 328.8  17.1  33914  285.43 0863.61
2015 04 09 12 00 26 .96     -91    129     47    158    166 324.8  16.8  33910  285.36 0863.61
2015 04 09 12 00 27 .22     -75     80     41    111    118 316.8  21.0  33916  285.44 0863.61
2015 04 09 12 00 27 .46    -119    100     58    156    166 310.0  21.5  33908  285.33 0863.61
2015 04 09 12 00 27 .72    -118     99      7    155    156 310.0   2.8  33962  286.22 0863.61
2015 04 09 12 00 27 .97    -184     48    -32    191    194 284.6  -9.6  33956  286.12 0863.61
2015 04 09 12 00 28 .22     -88    -12     -3     89     90 262.1  -2.2  33968  286.34 0863.61
2015 04 09 12 00 28 .48     -49    -13     -4     51     52 254.9  -5.2  33976  286.46 0863.61
2015 04 09 12 00 28 .73     -90     26     30     94     99 286.4  17.9  33994  286.78 0863.61
2015 04 09 12 00 28 .98    -179     83    -17    198    199 295.1  -5.1  33892  285.06 0863.61
2015 04 09 12 00 29 .23    -168     80    -20    187    189 295.4  -6.2  33870  284.67 0863.61
2015 04 09 12 00 29 .48    -204     96    -40    226    230 295.4 -10.1  33856  284.45 0863.61
2015 04 09 12 00 29 .73    -203     74    -27    217    219 290.0  -7.3  33868  284.64 0863.61
2015 04 09 12 00 29 .98    -206     69    -27    218    220 288.6  -7.2  33866  284.62 0863.61
2015 04 09 12 00 30 .23    -238    100    -23    259    261 292.7  -5.2  33874  284.75 0863.61
2015 04 09 12 00 30 .48    -238     76    -19    250    251 287.8  -4.4  33874  284.75 0863.61
2015 04 09 12 00 30 .73    -224     63    -41    233    237 285.7 -10.1  33874  284.73 0863.61
2015 04 09 12 00 30 .98    -267    103    -36    287    290 291.1  -7.2  33928  285.64 0863.61
2015 04 09 12 00 31 .23    -113     56     17    127    129 296.2   8.0  33954  286.10 0863.61
2015 04 09 12 00 31 .48    -189     45      6    195    196 283.5   1.8  33992  286.74 0863.61
2015 04 09 12 00 31 .74    -226     -2    -32    227    230 269.4  -8.0  33992  286.73 0863.61
2015 04 09 12 00 31 .98    -201     44    -34    206    209 282.6  -9.6  33972  286.41 0863.61
2015 04 09 12 00 32 .23    -203     27    -67    205    216 277.7 -18.1  33902  285.23 0863.61
2015 04 09 12 00 32 .48    -193     14    -84    194    211 274.3 -29.5  33874  284.74 0863.61
2015 04 09 12 00 32 .73    -195    -14    -60    196    204 265.9 -22.3  33872  284.72 0863.62
2015 04 09 12 00 32 .98    -230    -17    -68    231    240 265.6 -21.5  33874  284.75 0863.62
2015 04 09 12 00 33 .24    -192      0    -61    193    203 270.0 -17.6  33876  284.79 0863.62
2015 04 09 12 00 33 .49    -173     51    -35    181    185 286.6 -11.1  33878  284.82 0863.62
2015 04 09 12 00 33 .74    -183     32    -13    186    187 280.1  -4.1  33884  284.91 0863.62
2015 04 09 12 00 33 .99    -189     20    -20    191    193 276.1  -6.0  33878  284.82 0863.62
2015 04 09 12 00 34 .24    -171     33    -32    175    178 281.0 -10.5  33884  284.91 0863.62
2015 04 09 12 00 34 .49    -169    -63    -23    181    183 249.4  -7.5  33878  284.82 0863.61
2015 04 09 12 00 34 .74    -123    -91    -29    154    157 233.6 -10.9  33868  284.65 0863.61
2015 04 09 12 00 34 .99    -171    -33    -14    175    176 259.0  -4.6  33878  284.82 0863.61
2015 04 09 12 00 35 .24    -191    -38    -47    195    201 258.5 -13.7  33862  284.54 0863.61
2015 04 09 12 00 35 .50    -187    -55    -72    195    207 253.6 -25.4  33870  284.69 0863.61
2015 04 09 12 00 35 .75    -217    -73    -87    230    245 251.4 -25.9  33874  284.73 0863.61
2015 04 09 12 00 36 .00    -231    -77    -74    244    254 251.4 -21.7  33870  284.68 0863.61
2015 04 09 12 00 36 .26    -157    -95    -51    184    191 238.9 -15.5  33872  284.72 0863.61
2015 04 09 12 00 36 .50    -139    -62    -49    153    160 246.0 -23.0  33870  284.69 0863.61
2015 04 09 12 00 36 .75     -92    -31   -109     98    146 251.4 -57.7  33872  284.72 0863.61
2015 04 09 12 00 37 .00     -77    -82    -88    113    143 223.3 -46.1  33870  284.67 0863.61
2015 04 09 12 00 37 .28     -69      9    -87     70    111 277.9 -60.8  33882  284.87 0863.62
2015 04 09 12 00 37 .51    -128      3    -90    129    157 271.7 -43.0  33870  284.69 0863.62
2015 04 09 12 00 37 .76    -115     52   -106    127    165 294.4 -48.7  33870  284.69 0863.62
2015 04 09 12 00 38 .01    -111     61    -36    127    132 298.8 -20.7  33870  284.69 0863.62
2015 04 09 12 00 38 .26    -139     50    -47    148    155 289.9 -23.8  33872  284.72 0863.62
2015 04 09 12 00 38 .51    -100     63    -51    119    129 302.4 -29.5  33872  284.72 0863.62
2015 04 09 12 00 38 .76    -136     82    -23    160    162 301.1  -8.2  33868  284.65 0863.62
2015 04 09 12 00 39 .01    -123    113    -46    168    175 312.7 -15.4  33884  284.92 0863.61
2015 04 09 12 00 39 .26    -123     63    -41    139    144 297.1 -21.7  33878  284.81 0863.61
2015 04 09 12 00 39 .51     -98     76    -63    125    139 307.8 -33.6  33874  284.76 0863.61
2015 04 09 12 00 39 .76     -67     44    -98     81    127 303.3 -60.7  33880  284.86 0863.61
2015 04 09 12 00 40 .01     -50     16    -69     53     87 288.2 -62.9  33882  284.87 0863.61
2015 04 09 12 00 40 .26     -50     50    -95     72    119 314.9 -63.4  33882  284.87 0863.61
2015 04 09 12 00 40 .51      16    -20    -57     26     62 140.4 -78.4  33884  284.92 0863.61
2015 04 09 12 00 40 .76     -48      1    -97     49    108 271.7 -75.8  33876  284.79 0863.61
2015 04 09 12 00 41 .01     -60      7    -78     61     99 277.0 -62.3  33876  284.77 0863.61
2015 04 09 12 00 41 .26     -36      8    -49     38     62 283.3 -62.9  33884  284.91 0863.61
2015 04 09 12 00 41 .52      -4     12    -43     13     44 341.3 -86.2  33894  285.07 0863.61
2015 04 09 12 00 41 .77     -24     31    -42     40     58 322.2 -53.5  33894  285.09 0863.61
2015 04 09 12 00 42 .02     -76     36    -27     85     89 295.8 -23.3  33874  284.76 0863.61
2015 04 09 12 00 42 .27     -75     61    -53     97    110 309.1 -35.7  33874  284.74 0863.61
2015 04 09 12 00 42 .53     -62     20    -60     66     89 288.2 -51.9  33876  284.77 0863.61
2015 04 09 12 00 42 .78     -87     25    -45     91    101 286.4 -32.6  33876  284.79 0863.61
2015 04 09 12 00 43 .03     -58     23    -52     63     81 291.7 -48.1  33878  284.82 0863.61
2015 04 09 12 00 43 .28     -68     19    -66     71     96 285.9 -52.9  33874  284.74 0863.61
2015 04 09 12 00 43 .53     -53     53    -65     75     99 315.0 -49.8  33866  284.60 0863.60
2015 04 09 12 00 43 .78     -52     46    -58     70     90 311.3 -48.2  33870  284.69 0863.60
2015 04 09 12 00 44 .03     -55     40    -47     69     83 306.0 -42.0  33868  284.65 0863.60
2015 04 09 12 00 44 .28     -50     41    -29     65     71 309.5 -30.6  33872  284.70 0863.60
2015 04 09 12 00 44 .53     -42     58    -19     72     75 324.0 -15.4  33870  284.69 0863.60
2015 04 09 12 00 44 .78     -49     46    -28     68     73 313.1 -27.4  33874  284.74 0863.60
2015 04 09 12 00 45 .03     -56     56    -22     80     82 314.9 -20.2  33874  284.74 0863.60
2015 04 09 12 00 45 .28     -55     50    -21     75     77 312.2 -20.7  33876  284.77 0863.60
2015 04 09 12 00 45 .53     -91     63    -14    111    112 304.6  -7.3  33886  284.94 0863.60
2015 04 09 12 00 45 .79    -106     63    -29    124    128 300.7 -13.3  33882  284.87 0863.60
2015 04 09 12 00 46 .04    -100     63      4    119    120 302.5   2.3  33896  285.11 0863.60
2015 04 09 12 00 46 .29     -37     41     23     56     60 317.7  23.1  33912  285.39 0863.60
2015 04 09 12 00 46 .54     -28     -3     38     29     47 262.1  58.5  33958  286.17 0863.60
2015 04 09 12 00 46 .79     -33    -17     56     38     67 242.9  62.6  33976  286.47 0863.60
2015 04 09 12 00 47 .04     -38    -53     29     66     72 216.1  25.1  33964  286.27 0863.60
2015 04 09 12 00 47 .29     -59    -49      5     77     78 230.4   3.8  33966  286.29 0863.60
2015 04 09 12 00 47 .54     -89    -52     -6    104    105 239.8  -3.7  33962  286.24 0863.60
2015 04 09 12 00 47 .79     -93    -81     -4    124    125 228.7  -2.2  33966  286.30 0863.60
2015 04 09 12 00 48 .04    -133    -64     -8    148    149 244.2  -3.1  33934  285.75 0863.60
2015 04 09 12 00 48 .29     -87    -78     10    118    119 228.2   4.9  33950  286.03 0863.60
2015 04 09 12 00 48 .54     -70    -38     15     80     82 241.1  10.6  33968  286.32 0863.60
2015 04 09 12 00 48 .79     -59    -38     65     71     96 237.5  47.9  33994  286.76 0863.60
2015 04 09 12 00 49 .04     -14     -3     45     15     47 254.9  81.0  33994  286.78 0863.60
2015 04 09 12 00 49 .30     -79      9     15     80     82 277.0  11.1  33984  286.59 0863.60
2015 04 09 12 00 49 .55    -109     29    -10    113    114 285.1  -5.2  33992  286.74 0863.60
2015 04 09 12 00 49 .81    -196     24    -34    198    201 277.0  -9.8  33954  286.10 0863.60
2015 04 09 12 00 50 .05    -272     -1    -29    273    275 269.6  -6.2  33906  285.29 0863.60
2015 04 09 12 00 50 .31    -346     12    -38    347    350 272.0  -6.3  33886  284.94 0863.60
2015 04 09 12 00 50 .56    -328     23    -37    329    332 274.1  -6.5  33952  286.07 0863.60
2015 04 09 12 00 50 .81    -264     12     -3    265    266 272.6  -0.7  33890  285.02 0863.60
2015 04 09 12 00 51 .06    -335      3    -42    336    339 270.6  -7.2  33866  284.62 0863.60
2015 04 09 12 00 51 .31    -357     41    -52    360    364 276.6  -8.4  33864  284.56 0863.60
2015 04 09 12 00 51 .56    -315     22    -33    316    318 274.1  -6.0  33878  284.82 0863.60
2015 04 09 12 00 51 .81    -267    -24    -34    269    272 264.7  -7.2  33896  285.10 0863.61
2015 04 09 12 00 52 .06    -246     37     18    249    250 278.6   4.2  33890  285.02 0863.61
2015 04 09 12 00 52 .31    -337     46    -86    341    352 277.8 -14.3  33856  284.44 0863.61
2015 04 09 12 00 52 .56    -383     -5    -70    384    391 269.2 -10.4  33856  284.44 0863.61
2015 04 09 12 00 52 .81    -384     34    -61    386    391 275.2  -9.0  33854  284.42 0863.61
2015 04 09 12 00 53 .06    -371      0    -56    372    377 270.0  -8.6  33856  284.44 0863.61
2015 04 09 12 00 53 .31    -314    -27    -21    316    317 265.0  -3.9  33862  284.55 0863.61
2015 04 09 12 00 53 .56    -342     -1    -53    343    348 269.7  -8.9  33864  284.57 0863.61
2015 04 09 12 00 53 .81    -319      8    -53    320    325 271.6  -9.5  33860  284.51 0863.61
2015 04 09 12 00 54 .08    -307      4    -68    308    316 270.8 -12.5  33862  284.53 0863.61
2015 04 09 12 00 54 .32    -301     -4    -38    302    305 269.1  -7.3  33872  284.71 0863.61
2015 04 09 12 00 54 .56    -309      4    -35    310    312 270.8  -6.5  33882  284.88 0863.61
2015 04 09 12 00 54 .82    -310     15    -44    311    315 272.8  -8.1  33892  285.05 0863.61
2015 04 09 12 00 55 .06    -346     -2    -57    347    352 269.6  -9.3  33882  284.88 0863.61
2015 04 09 12 00 55 .32    -327     15    -57    328    333 272.8  -9.9  33870  284.66 0863.61
2015 04 09 12 00 55 .57    -365     19    -57    366    371 273.0  -8.9  33864  284.59 0863.61
2015 04 09 12 00 55 .82    -395     32    -78    397    405 274.7 -11.2  33914  285.43 0863.61
2015 04 09 12 00 56 .07    -368     -9    -47    369    373 268.5  -7.4  33970  286.36 0863.61
2015 04 09 12 00 56 .33    -364     35    -50    366    370 275.6  -7.9  33968  286.34 0863.61
2015 04 09 12 00 56 .58    -425     88    -62    435    440 281.8  -8.2  33892  285.04 0863.61
2015 04 09 12 00 56 .83    -336     77    -72    345    353 283.0 -11.8  33888  284.98 0863.61
2015 04 09 12 00 57 .08    -303      0    -55    304    310 270.0 -10.4  33894  285.07 0863.61
2015 04 09 12 00 57 .33    -316     15    -41    317    320 272.8  -7.4  33926  285.61 0863.61
2015 04 09 12 00 57 .58    -320     54    -18    325    326 279.7  -3.2  33926  285.62 0863.61
2015 04 09 12 00 57 .83    -340    104    -45    356    359 287.1  -7.3  33896  285.13 0863.61
2015 04 09 12 00 58 .08    -352    127    -17    375    376 290.0  -2.7  33892  285.04 0863.60
2015 04 09 12 00 58 .34    -364    125    -61    385    391 289.0  -9.1  33870  284.66 0863.60
2015 04 09 12 00 58 .59    -405    110    -50    420    424 285.2  -6.9  33900  285.19 0863.60
2015 04 09 12 00 58 .84    -416     50    -69    420    426 276.9  -9.3  33922  285.54 0863.60
2015 04 09 12 00 59 .08    -361     73    -72    369    377 281.5 -11.1  33880  284.86 0863.60
2015 04 09 12 00 59 .34    -344     71    -85    352    363 281.7 -13.7  33862  284.54 0863.60
2015 04 09 12 00 59 .59    -353     72    -75    361    369 281.6 -11.8  33870  284.66 0863.60
2015 04 09 12 00 59 .84    -303     57    -62    309    316 280.8 -11.5  33862  284.53 0863.60
2015 04 09 12 01 00 .09    -322     70    -73    330    339 282.4 -12.5  33860  284.51 0863.60
2015 04 09 12 01 00 .34    -288     58    -84    294    306 281.4 -16.0  33862  284.53 0863.60
2015 04 09 12 01 00 .59    -298     57    -84    304    316 280.8 -15.5  33876  284.77 0863.60
2015 04 09 12 01 00 .84    -294     83    -85    306    318 285.9 -15.5  33882  284.87 0863.60
2015 04 09 12 01 01 .10    -312    108    -64    331    338 289.2 -11.0  33892  285.06 0863.60
2015 04 09 12 01 01 .34    -334     99    -58    349    354 286.5  -9.5  33902  285.20 0863.60
2015 04 09 12 01 01 .59    -309    122    -26    333    335 291.6  -4.5  33910  285.35 0863.60
2015 04 09 12 01 01 .84    -336    110    -60    354    360 288.2  -9.7  33920  285.53 0863.59
2015 04 09 12 01 02 .09    -306    149    -32    341    343 296.0  -5.4  33916  285.46 0863.59
2015 04 09 12 01 02 .34    -290    148    -41    326    329 297.2  -7.2  33904  285.25 0863.59
2015 04 09 12 01 02 .60    -334     90    -49    347    351 285.2  -8.1  33908  285.33 0863.59
2015 04 09 12 01 02 .85    -311     32    -17    313    314 275.9  -3.1  33926  285.61 0863.59
2015 04 09 12 01 03 .10    -303     37    -16    306    307 277.0  -3.1  33952  286.06 0863.59
2015 04 09 12 01 03 .36    -278    158      3    321    322 299.7   0.7  33954  286.09 0863.59
2015 04 09 12 01 03 .61    -389    104    -15    403    404 285.1  -2.2  33942  285.90 0863.59
2015 04 09 12 01 03 .86    -353    126    -41    376    379 289.7  -6.2  33948  285.99 0863.59
2015 04 09 12 01 04 .11    -402    151    -33    430    432 290.7  -4.5  33886  284.95 0863.59
2015 04 09 12 01 04 .36    -416     82    -54    425    429 281.2  -7.3  33872  284.72 0863.59
2015 04 09 12 01 04 .61    -405    137    -54    428    432 288.7  -7.2  33874  284.75 0863.59
2015 04 09 12 01 04 .86    -414     99    -50    426    429 283.5  -6.7  33872  284.72 0863.59
2015 04 09 12 01 05 .11    -437    121    -87    454    463 285.6 -10.9  33856  284.43 0863.59
2015 04 09 12 01 05 .36    -438     97    -72    449    455 282.6  -9.1  33850  284.33 0863.59
2015 04 09 12 01 05 .61    -421    128    -80    441    449 286.9 -10.3  33848  284.30 0863.59
2015 04 09 12 01 05 .86    -421    128    -80    441    449 286.9 -10.3  33848  284.30 0863.59
2015 04 09 12 01 06 .11    -407    148    -69    434    440 290.0  -9.1  33850  284.35 0863.59
2015 04 09 12 01 06 .36    -400    139    -71    424    431 289.2  -9.6  33846  284.28 0863.59
2015 04 09 12 01 06 .61    -388    157    -75    419    426 292.1 -10.3  33846  284.26 0863.59
2015 04 09 12 01 06 .86    -391    155    -54    421    425 291.7  -7.3  33852  284.38 0863.59
2015 04 09 12 01 07 .11    -385    144    -82    412    421 290.5 -11.3  33878  284.82 0863.59
2015 04 09 12 01 07 .36    -351    127    -61    374    380 290.0  -9.4  33872  284.72 0863.58
2015 04 09 12 01 07 .62    -360    144    -65    388    394 291.9  -9.6  33858  284.47 0863.58
2015 04 09 12 01 07 .87    -406    135    -46    428    431 288.4  -6.3  33866  284.60 0863.58
2015 04 09 12 01 08 .12    -375    139    -56    401    406 290.4  -8.0  33878  284.80 0863.58
2015 04 09 12 01 08 .37    -323    100    -26    339    341 287.3  -4.5  33886  284.93 0863.58
2015 04 09 12 01 08 .62    -421    105    -57    434    438 284.1  -7.6  33876  284.77 0863.58
2015 04 09 12 01 08 .87    -435    109    -74    449    456 284.1  -9.4  33870  284.68 0863.58
2015 04 09 12 01 09 .12    -404    145    -54    430    434 289.8  -7.2  33872  284.72 0863.59
2015 04 09 12 01 09 .37    -382    121    -79    401    409 287.7 -11.2  33868  284.65 0863.59
2015 04 09 12 01 09 .62    -402    104    -68    416    422 284.5  -9.3  33876  284.77 0863.59
2015 04 09 12 01 09 .89    -411    105    -70    425    431 284.4  -9.4  33868  284.63 0863.59
2015 04 09 12 01 10 .13    -416    107    -77    430    437 284.5 -10.3  33866  284.62 0863.59
2015 04 09 12 01 10 .38    -383    131    -36    405    407 289.0  -5.1  33876  284.79 0863.59
2015 04 09 12 01 10 .63    -335    134    -46    361    364 291.8  -7.3  33874  284.76 0863.59
2015 04 09 12 01 10 .88    -372    156    -58    404    409 292.7  -8.2  33866  284.60 0863.59
2015 04 09 12 01 11 .13    -328    154    -46    363    366 295.2  -7.3  33870  284.66 0863.59
2015 04 09 12 01 11 .39    -262     27     -2    264    265 276.1  -0.5  33882  284.87 0863.59
2015 04 09 12 01 11 .64    -304     97    -40    320    323 287.7  -7.2  33878  284.80 0863.59
2015 04 09 12 01 11 .89    -371     99    -39    385    388 285.1  -5.9  33880  284.84 0863.59
2015 04 09 12 01 12 .14    -370    134    -51    394    398 289.9  -7.4  33884  284.91 0863.59
2015 04 09 12 01 12 .39    -337    112    -45    356    359 288.4  -7.3  33886  284.96 0863.59
2015 04 09 12 01 12 .64    -357     90    -67    369    376 284.2 -10.3  33884  284.91 0863.58
2015 04 09 12 01 12 .89    -397    100    -74    410    417 284.2 -10.2  33878  284.82 0863.58
2015 04 09 12 01 13 .14    -411    110    -53    426    430 285.1  -7.2  33894  285.09 0863.58
2015 04 09 12 01 13 .39    -376     96    -61    389    394 284.3  -9.0  33886  284.96 0863.58
2015 04 09 12 01 13 .64    -402    114    -45    419    422 285.9  -6.3  33868  284.63 0863.58
2015 04 09 12 01 13 .89    -389    141    -34    414    416 290.0  -4.8  33876  284.79 0863.58
2015 04 09 12 01 14 .14    -436    111    -29    450    451 284.3  -3.7  33890  285.02 0863.58
2015 04 09 12 01 14 .39    -429     19    -75    430    437 272.6  -9.9  33892  285.05 0863.58
2015 04 09 12 01 14 .64    -397     55    -80    401    409 277.9 -11.3  33886  284.94 0863.58
2015 04 09 12 01 14 .89    -421     86    -86    430    439 281.6 -11.3  33886  284.95 0863.58
2015 04 09 12 01 15 .14    -442     89    -76    451    458 281.5  -9.6  33896  285.10 0863.58
2015 04 09 12 01 15 .40    -384    105    -53    399    403 285.3  -7.6  33904  285.25 0863.58
2015 04 09 12 01 15 .65    -311    103    -90    328    341 288.5 -15.4  33898  285.16 0863.58
2015 04 09 12 01 15 .90    -391    105    -73    405    412 285.1 -10.3  33898  285.14 0863.58
2015 04 09 12 01 16 .15    -376     28    -76    377    385 274.4 -11.5  33896  285.13 0863.58
2015 04 09 12 01 16 .39    -382     53    -79    386    395 278.0 -11.6  33888  284.99 0863.58
2015 04 09 12 01 16 .64    -377     15    -81    378    387 272.4 -12.2  33884  284.91 0863.58
2015 04 09 12 01 16 .90    -423     25    -85    424    433 273.5 -11.3  33896  285.10 0863.58
2015 04 09 12 01 17 .16    -429     14    -45    430    433 271.9  -6.1  33904  285.26 0863.58
2015 04 09 12 01 17 .41    -408     26    -59    409    414 273.7  -8.2  33916  285.44 0863.58
2015 04 09 12 01 17 .66    -435     58    -67    439    445 277.7  -8.7  33946  285.95 0863.58
2015 04 09 12 01 17 .91    -410     15    -48    411    414 272.1  -6.7  33934  285.74 0863.58
2015 04 09 12 01 18 .16    -337    -21    -33    338    340 266.3  -5.6  33946  285.94 0863.58
2015 04 09 12 01 18 .41    -371     37    -65    373    379 275.8  -9.9  33996  286.80 0863.58
2015 04 09 12 01 18 .66    -364    -16    -46    365    368 267.4  -7.2  33936  285.77 0863.58
2015 04 09 12 01 18 .91    -330    -18    -60    331    337 266.8 -10.3  34010  287.02 0863.58
2015 04 09 12 01 19 .16    -305     -4    -27    306    308 269.1  -5.2  33954  286.08 0863.58
2015 04 09 12 01 19 .41    -318     -8    -64    319    326 268.4 -11.5  33882  284.88 0863.58
2015 04 09 12 01 19 .67    -351    -65    -45    357    360 259.5  -7.2  33926  285.62 0863.58
2015 04 09 12 01 19 .92    -329    -11    -81    330    340 268.0 -13.9  33864  284.57 0863.58
2015 04 09 12 01 20 .16    -325     47    -30    329    331 278.4  -5.3  33854  284.42 0863.58
2015 04 09 12 01 20 .41    -380      0    -65    381    387 270.0  -9.8  33848  284.29 0863.58
2015 04 09 12 01 20 .66    -374     -3    -79    375    384 269.5 -11.9  33848  284.30 0863.58
2015 04 09 12 01 20 .92    -370     -2    -74    371    379 269.7 -11.3  33844  284.25 0863.58
2015 04 09 12 01 21 .17    -341    -11    -69    342    349 268.0 -11.5  33852  284.39 0863.58
2015 04 09 12 01 21 .42    -357      0    -56    358    363 270.1  -8.9  33850  284.34 0863.58
2015 04 09 12 01 21 .67    -353      7    -71    354    362 271.2 -11.3  33846  284.27 0863.58
2015 04 09 12 01 21 .92    -332     -9    -58    333    339 268.4  -9.9  33854  284.41 0863.58
2015 04 09 12 01 22 .17    -294      4    -35    295    298 270.8  -6.9  33868  284.63 0863.58
2015 04 09 12 01 22 .42    -284    -78    -16    295    296 254.5  -3.2  33888  284.97 0863.58
2015 04 09 12 01 22 .67    -305    -23    -75    306    316 265.7 -13.9  33896  285.10 0863.58
2015 04 09 12 01 22 .92    -231    -47    -29    236    238 258.3  -7.2  33888  284.97 0863.58
2015 04 09 12 01 23 .17    -266    -12    -71    267    277 267.4 -15.0  33884  284.92 0863.58
2015 04 09 12 01 23 .42    -329    -20    -41    330    333 266.4  -7.2  33900  285.18 0863.58
2015 04 09 12 01 23 .67    -308      0    -59    309    315 270.0 -10.9  33874  284.73 0863.58
2015 04 09 12 01 23 .92    -320     -2    -82    321    332 269.6 -14.4  33844  284.24 0863.58
2015 04 09 12 01 24 .18    -315    -18    -71    316    324 266.7 -12.7  33844  284.24 0863.58
2015 04 09 12 01 24 .43    -315    -18    -71    316    324 266.7 -12.7  33844  284.24 0863.59
2015 04 09 12 01 24 .68    -302    -13    -73    303    312 267.4 -13.6  33846  284.26 0863.59
2015 04 09 12 01 24 .93    -306     -9    -62    307    314 268.3 -11.5  33848  284.29 0863.59
2015 04 09 12 01 25 .18    -312     -4    -68    313    321 269.1 -12.4  33846  284.26 0863.59
2015 04 09 12 01 25 .44    -306     -9    -62    307    314 268.3 -11.5  33848  284.29 0863.59
2015 04 09 12 01 25 .69    -303     -4    -66    304    312 269.1 -12.3  33848  284.29 0863.59
2015 04 09 12 01 25 .94    -296      0    -64    297    304 270.0 -12.2  33854  284.41 0863.59
2015 04 09 12 01 26 .19    -264    -25    -48    266    271 264.5 -10.3  33854  284.41 0863.60
2015 04 09 12 01 26 .44    -285      4    -57    286    292 270.8 -11.3  33860  284.51 0863.60
2015 04 09 12 01 26 .69    -224      9     -4    225    226 272.5  -1.2  33876  284.77 0863.60
2015 04 09 12 01 26 .94    -248    -23    -55    250    257 264.7 -12.4  33862  284.55 0863.60
2015 04 09 12 01 27 .19    -257    -44    -61    261    269 260.3 -13.3  33860  284.50 0863.60
2015 04 09 12 01 27 .44    -255    -51    -56    261    268 258.5 -12.2  33860  284.50 0863.60
2015 04 09 12 01 27 .69    -184     -9      9    185    186 267.0   2.9  33890  285.01 0863.60
2015 04 09 12 01 27 .94    -255    -35    -37    258    261 262.1  -8.3  33896  285.12 0863.60
2015 04 09 12 01 28 .19    -210     -9     -4    211    212 267.5  -1.3  33900  285.18 0863.60
2015 04 09 12 01 28 .44    -175    -28     -9    178    179 260.8  -3.1  33904  285.24 0863.60
2015 04 09 12 01 28 .69    -193    -44    -43    199    204 257.0 -12.4  33890  285.01 0863.60
2015 04 09 12 01 28 .94    -168      0    -27    169    172 270.0  -9.3  33898  285.14 0863.60
2015 04 09 12 01 29 .20     -96    -19    -11     98     99 258.5  -6.7  33906  285.29 0863.60
2015 04 09 12 01 29 .45     -41      9     11     43     45 282.4  15.3  33912  285.38 0863.60
2015 04 09 12 01 29 .70    -126      6      6    127    128 273.0   2.9  33886  284.96 0863.60
2015 04 09 12 01 29 .95    -119    -24     -6    122    123 258.5  -3.1  33890  285.01 0863.60
2015 04 09 12 01 30 .20    -239     60    -17    247    248 284.2  -4.1  33914  285.42 0863.60
2015 04 09 12 01 30 .45    -193    122    -20    229    230 302.4  -5.1  33920  285.51 0863.60
2015 04 09 12 01 30 .70    -188     44    -20    194    196 283.3  -6.0  33956  286.14 0863.60
2015 04 09 12 01 30 .95    -247     77    -35    259    262 287.3  -7.7  33936  285.77 0863.60
2015 04 09 12 01 31 .21    -165    106    -17    197    198 302.9  -5.2  33962  286.24 0863.60
2015 04 09 12 01 31 .46    -110     36     19    116    118 288.2   9.5  34006  286.96 0863.60
2015 04 09 12 01 31 .71     -50      0     25     51     56 269.2  27.3  33992  286.73 0863.60
2015 04 09 12 01 31 .97    -227      7    -22    228    230 271.9  -5.6  33982  286.56 0863.60
2015 04 09 12 01 32 .21    -211     -6    -35    212    215 268.3  -9.4  33998  286.83 0863.60
2015 04 09 12 01 32 .46    -232      7    -19    233    234 271.9  -4.9  34014  287.09 0863.60
2015 04 09 12 01 32 .71    -266     22    -52    267    273 274.8 -11.1  34010  287.04 0863.60
2015 04 09 12 01 32 .97    -301     60    -64    308    315 281.4 -11.9  33890  285.00 0863.60
2015 04 09 12 01 33 .22    -315     71    -35    324    326 282.8  -6.2  33906  285.27 0863.60
2015 04 09 12 01 33 .47    -280     35    -10    283    284 277.2  -2.1  33932  285.71 0863.60
2015 04 09 12 01 33 .72    -319     46    -59    323    329 278.3 -10.4  33864  284.58 0863.60
2015 04 09 12 01 33 .96    -300     59    -34    306    308 281.2  -6.5  33866  284.60 0863.60
2015 04 09 12 01 34 .22    -323     42    -55    326    331 277.5  -9.6  33852  284.37 0863.60
2015 04 09 12 01 34 .47    -323     35    -55    325    330 276.3  -9.7  33848  284.32 0863.60
2015 04 09 12 01 34 .72    -313     25    -58    315    321 274.6 -10.5  33854  284.41 0863.60
2015 04 09 12 01 34 .97    -292    -13    -31    293    295 267.4  -6.1  33872  284.70 0863.60
2015 04 09 12 01 35 .22    -293     31    -32    295    297 276.2  -6.2  33872  284.71 0863.60
2015 04 09 12 01 35 .47    -287    -10    -58    288    294 267.9 -11.5  33870  284.68 0863.60
2015 04 09 12 01 35 .72    -301      8    -38    302    305 271.7  -7.3  33872  284.71 0863.60
2015 04 09 12 01 35 .97    -313     -9    -60    314    320 268.3 -10.9  33862  284.53 0863.60
2015 04 09 12 01 36 .22    -326    -21    -77    327    336 266.3 -13.3  33860  284.51 0863.59
2015 04 09 12 01 36 .47    -333    -27    -79    335    345 265.3 -13.3  33856  284.44 0863.59
2015 04 09 12 01 36 .72    -348    -34   -106    350    366 264.4 -17.0  33860  284.51 0863.59
2015 04 09 12 01 36 .98    -371     13    -90    372    383 272.1 -13.7  33880  284.86 0863.59
2015 04 09 12 01 37 .23    -351    -21    -72    352    360 266.5 -11.6  33904  285.25 0863.59
2015 04 09 12 01 37 .47    -319      0    -57    320    326 270.0 -10.2  33956  286.13 0863.59
2015 04 09 12 01 37 .73    -345     -1    -24    346    347 269.7  -4.1  33948  286.00 0863.59
2015 04 09 12 01 37 .98    -298    -13    -37    299    302 267.4  -7.2  33956  286.13 0863.59
2015 04 09 12 01 38 .23    -342    -20    -57    343    348 266.5  -9.5  33900  285.18 0863.59
2015 04 09 12 01 38 .49    -313    -36    -70    316    324 263.4 -12.6  33878  284.80 0863.59
2015 04 09 12 01 38 .74    -278    -37    -66    281    289 262.3 -13.3  33896  285.12 0863.59
2015 04 09 12 01 38 .99    -270    -25    -44    272    276 264.7  -9.3  33910  285.34 0863.59
2015 04 09 12 01 39 .24    -286     13    -31    287    289 272.6  -6.2  33922  285.56 0863.59
2015 04 09 12 01 39 .49    -261    -11    -37    262    265 267.4  -8.2  33918  285.49 0863.59
2015 04 09 12 01 39 .74    -281    -35    -70    284    293 262.9 -13.9  33860  284.50 0863.59
2015 04 09 12 01 39 .99    -290    -36    -46    293    297 262.8  -9.0  33856  284.45 0863.59
2015 04 09 12 01 40 .24    -274    -64    -57    282    288 256.8 -11.6  33862  284.53 0863.59
2015 04 09 12 01 40 .49    -286    -81    -59    298    304 254.1 -11.3  33874  284.73 0863.59
2015 04 09 12 01 40 .74    -297    -92    -60    312    318 252.7 -11.0  33942  285.89 0863.59
2015 04 09 12 01 41 .00    -269    -54    -55    275    281 258.5 -11.3  33936  285.79 0863.59
2015 04 09 12 01 41 .24    -205    -21     -4    207    208 263.9  -1.3  33956  286.12 0863.59
2015 04 09 12 01 41 .49    -186    -93    -16    208    209 243.4  -4.6  33992  286.73 0863.59
2015 04 09 12 01 41 .74    -238   -125      3    269    270 242.2   0.8  33932  285.71 0863.59
2015 04 09 12 01 41 .99    -245   -111    -24    270    272 245.6  -5.2  33918  285.47 0863.59
2015 04 09 12 01 42 .24    -226   -135    -14    264    265 239.3  -3.2  34004  286.94 0863.59
2015 04 09 12 01 42 .49    -232   -116    -28    260    262 243.4  -6.2  33992  286.74 0863.59
2015 04 09 12 01 42 .74    -153   -110     -3    189    190 234.3  -1.1  33982  286.56 0863.59
2015 04 09 12 01 43 .00    -193   -117     -4    226    227 238.7  -1.3  33888  284.97 0863.59
2015 04 09 12 01 43 .25    -183   -130    -20    225    226 234.7  -5.2  33874  284.76 0863.59
2015 04 09 12 01 43 .50    -161   -117     -6    200    201 234.0  -1.8  33892  285.06 0863.59
2015 04 09 12 01 43 .75    -164   -121      0    204    205 233.6   0.0  33920  285.53 0863.59
2015 04 09 12 01 44 .00    -171    -98    -25    198    200 240.2  -7.3  33916  285.46 0863.59
2015 04 09 12 01 44 .25    -152    -97    -21    181    183 237.4  -6.7  33916  285.44 0863.59
2015 04 09 12 01 44 .50    -152    -98    -13    182    183 237.1  -4.1  33912  285.38 0863.59
2015 04 09 12 01 44 .75    -148   -104    -13    182    183 234.9  -4.1  33914  285.43 0863.59
2015 04 09 12 01 45 .01    -161    -96     -7    188    189 239.3  -2.2  33914  285.41 0863.59
2015 04 09 12 01 45 .26    -171    -94    -15    196    197 241.1  -4.6  33904  285.24 0863.59
2015 04 09 12 01 45 .51    -139    -97    -17    170    171 235.1  -6.0  33892  285.06 0863.59
2015 04 09 12 01 45 .76    -125   -103     -7    163    164 230.5  -2.8  33878  284.81 0863.59
2015 04 09 12 01 46 .01    -167    -93    -24    192    194 240.9  -7.2  33886  284.94 0863.59
2015 04 09 12 01 46 .26    -143   -100     -6    175    176 234.9  -2.2  33870  284.67 0863.59
2015 04 09 12 01 46 .52    -133    -64    -13    148    149 244.2  -5.2  33884  284.92 0863.59
2015 04 09 12 01 46 .76    -163    -90     -7    187    188 241.1  -2.3  33886  284.96 0863.59
2015 04 09 12 01 47 .01    -160    -94    -22    186    188 239.6  -6.9  33884  284.92 0863.59
2015 04 09 12 01 47 .27    -187    -62    -25    198    200 251.6  -7.2  33880  284.86 0863.59
2015 04 09 12 01 47 .52    -137    -64    -12    152    153 244.8  -4.6  33886  284.96 0863.59
2015 04 09 12 01 47 .77    -122    -80     -9    146    147 236.7  -3.7  33880  284.86 0863.59
2015 04 09 12 01 48 .02    -168    -90     -7    191    192 241.8  -2.2  33884  284.92 0863.59
2015 04 09 12 01 48 .27    -177   -126    -11    218    219 234.5  -3.1  33884  284.92 0863.59
2015 04 09 12 01 48 .52    -155   -138     10    208    209 228.4   2.8  33884  284.91 0863.59
2015 04 09 12 01 48 .77    -149   -145     20    208    210 225.8   5.7  33888  284.99 0863.59
2015 04 09 12 01 49 .02    -128   -137     17    188    189 223.2   5.2  33914  285.41 0863.59
2015 04 09 12 01 49 .27    -135   -118     31    180    183 228.7   9.9  33912  285.38 0863.59
2015 04 09 12 01 49 .52    -156   -132     18    205    206 229.6   5.2  33906  285.28 0863.59
2015 04 09 12 01 49 .77    -187   -117    -12    221    222 238.0  -3.1  33900  285.19 0863.58
2015 04 09 12 01 50 .02    -163   -120    -14    203    204 233.6  -4.1  33902  285.21 0863.58
2015 04 09 12 01 50 .27    -165    -94    -10    191    192 240.2  -3.1  33894  285.09 0863.58
2015 04 09 12 01 50 .52    -176    -75    -18    192    193 246.9  -5.6  33892  285.06 0863.58
2015 04 09 12 01 50 .77    -152    -66    -15    166    167 246.4  -5.2  33898  285.14 0863.58
2015 04 09 12 01 51 .02    -161    -81    -16    181    182 243.1  -5.2  33892  285.04 0863.58
2015 04 09 12 01 51 .28    -159    -82     -9    179    180 242.7  -3.1  33900  285.19 0863.58
2015 04 09 12 01 51 .52    -148   -100     -9    179    180 235.8  -3.1  33890  285.02 0863.58
2015 04 09 12 01 51 .78    -177    -74    -23    193    195 247.2  -6.9  33912  285.38 0863.58
2015 04 09 12 01 52 .04    -156    -52    -27    165    168 251.6  -9.3  33912  285.38 0863.58
2015 04 09 12 01 52 .29    -157    -37     -6    162    163 256.8  -2.2  33918  285.50 0863.58
2015 04 09 12 01 52 .54    -157     -2    -28    158    161 269.2 -10.3  33948  285.98 0863.59
2015 04 09 12 01 52 .79    -206      0    -49    207    213 270.0 -13.4  33928  285.66 0863.59
2015 04 09 12 01 53 .04    -152      0    -52    153    162 270.0 -19.1  33926  285.61 0863.59
2015 04 09 12 01 53 .29    -141    -56    -32    152    156 248.2 -12.2  33926  285.63 0863.59
2015 04 09 12 01 53 .54     -74    -76    -45    107    116 224.1 -28.5  33924  285.58 0863.59
2015 04 09 12 01 53 .79     -70    -84    -54    110    122 219.6 -32.2  33914  285.43 0863.59
2015 04 09 12 01 54 .04     -84    -51    -32     99    105 238.9 -18.1  33922  285.56 0863.59
2015 04 09 12 01 54 .29     -82    -27    -20     87     90 251.8 -12.9  33924  285.60 0863.59
2015 04 09 12 01 54 .54     -87     -7    -26     88     92 265.2 -16.6  33928  285.66 0863.59
2015 04 09 12 01 54 .79    -114      0    -15    115    117 270.4  -7.7  33928  285.66 0863.59
2015 04 09 12 01 55 .05     -83    -47    -12     96     97 240.2  -7.7  33932  285.73 0863.59
2015 04 09 12 01 55 .29     -85     -7     -1     86     87 264.8  -1.3  33942  285.90 0863.59
2015 04 09 12 01 55 .55    -107    -13     -7    108    109 263.0  -4.1  33934  285.76 0863.59
2015 04 09 12 01 55 .80    -117     -8    -13    118    119 265.7  -6.7  33954  286.08 0863.59
2015 04 09 12 01 56 .05     -97    -11     -5     98     99 263.0  -3.1  33964  286.27 0863.59
2015 04 09 12 01 56 .30    -131    -58     -8    144    145 246.0  -3.2  33956  286.14 0863.59
2015 04 09 12 01 56 .55    -153    -52    -15    162    163 250.9  -5.6  33960  286.20 0863.59
2015 04 09 12 01 56 .80    -119    -43    -16    127    129 250.0  -7.3  33984  286.59 0863.59
2015 04 09 12 01 57 .05    -176    -61    -32    187    190 250.9  -9.8  33970  286.37 0863.58
2015 04 09 12 01 57 .30    -109    -35     -6    115    116 251.8  -3.2  33984  286.61 0863.58
2015 04 09 12 01 57 .55    -118    -39    -33    125    130 251.8 -15.0  33948  285.98 0863.58
2015 04 09 12 01 57 .80    -130    -83    -16    155    156 237.6  -6.2  33960  286.20 0863.58
2015 04 09 12 01 58 .05    -167    -53      0    176    177 252.3  -0.3  33962  286.24 0863.58
2015 04 09 12 01 58 .30    -149    -63    -20    162    164 246.9  -7.3  33950  286.03 0863.58
2015 04 09 12 01 58 .55    -163    -77    -23    181    183 244.5  -7.3  33934  285.76 0863.58
2015 04 09 12 01 58 .82    -161    -70    -26    176    178 246.5  -8.6  33958  286.17 0863.58
2015 04 09 12 01 59 .06    -168    -61    -23    179    181 250.0  -7.3  33972  286.39 0863.59
2015 04 09 12 01 59 .31    -163    -60    -23    174    176 249.6  -7.7  33970  286.35 0863.59
2015 04 09 12 01 59 .56    -158    -67    -13    172    173 246.9  -4.4  33978  286.49 0863.59
2015 04 09 12 01 59 .82    -127    -64     -7    143    144 243.4  -3.2  33984  286.61 0863.59
2015 04 09 12 02 00 .07    -122   -101     -3    159    160 230.4  -1.3  34002  286.89 0863.59
2015 04 09 12 02 00 .32    -113   -125     -1    169    170 222.1  -0.5  34022  287.25 0863.59
2015 04 09 12 02 00 .57    -108   -109     56    154    163 224.5  20.7  34022  287.23 0863.59
2015 04 09 12 02 00 .82     -99   -120     19    156    158 219.7   7.2  34032  287.42 0863.59
2015 04 09 12 02 01 .07    -116   -121     46    168    175 223.9  15.3  34034  287.43 0863.59
2015 04 09 12 02 01 .32    -125   -119      6    173    174 226.4   2.1  34066  287.98 0863.59
2015 04 09 12 02 01 .57    -154   -153     40    218    222 225.1  10.6  34064  287.96 0863.59
2015 04 09 12 02 01 .82    -148   -171     22    227    229 220.8   5.7  33924  285.60 0863.59
2015 04 09 12 02 02 .07    -170   -159     21    233    234 226.9   5.2  33940  285.84 0863.59
2015 04 09 12 02 02 .32    -158   -162     28    227    229 224.3   7.1  33918  285.48 0863.59
2015 04 09 12 02 02 .58    -158   -159     27    225    227 224.9   6.9  33954  286.08 0863.58
2015 04 09 12 02 02 .82    -170   -160     24    234    236 226.8   5.9  33982  286.55 0863.58
2015 04 09 12 02 03 .07    -163   -179     29    243    245 222.3   6.9  33996  286.79 0863.58
2015 04 09 12 02 03 .32    -167   -177     34    244    247 223.2   8.0  33976  286.45 0863.58
2015 04 09 12 02 03 .57    -177   -177     12    251    252 225.1   2.9  33962  286.23 0863.58
2015 04 09 12 02 03 .83    -188   -166      7    251    252 228.6   1.8  33964  286.25 0863.58
2015 04 09 12 02 04 .07    -170   -170     15    241    242 224.9   3.6  33984  286.58 0863.58
2015 04 09 12 02 04 .33    -187   -167     12    251    252 228.2   2.9  33982  286.55 0863.58
2015 04 09 12 02 04 .58    -196   -163      4    256    257 230.2   1.0  34018  287.16 0863.58
2015 04 09 12 02 04 .82    -214   -158     13    267    268 233.6   2.9  33962  286.23 0863.58
2015 04 09 12 02 05 .08    -196   -159    -11    253    254 230.9  -2.6  33980  286.52 0863.58
2015 04 09 12 02 05 .32    -185   -112    -29    217    219 238.9  -7.7  33928  285.66 0863.58
2015 04 09 12 02 05 .58    -177   -114    -26    211    213 237.1  -7.2  33902  285.21 0863.58
2015 04 09 12 02 05 .84    -167   -166     10    236    237 225.2   2.5  33908  285.30 0863.58
2015 04 09 12 02 06 .10    -163   -185     18    247    248 221.4   4.2  33966  286.28 0863.58
2015 04 09 12 02 06 .33    -168   -216     50    274    279 217.9  10.3  33952  286.04 0863.58
2015 04 09 12 02 06 .60    -175   -201      8    267    268 221.0   1.8  33918  285.47 0863.58
2015 04 09 12 02 06 .84    -185   -170     12    252    253 227.3   2.9  33974  286.42 0863.58
2015 04 09 12 02 07 .09    -245   -193      1    313    314 231.8   0.2  33896  285.10 0863.58
2015 04 09 12 02 07 .35    -247   -183     -1    308    309 233.4  -0.3  33886  284.93 0863.58
2015 04 09 12 02 07 .59    -253   -208      0    328    329 230.5   0.0  33900  285.19 0863.58
2015 04 09 12 02 07 .84    -279   -220     -7    356    357 231.7  -1.2  33904  285.25 0863.58
2015 04 09 12 02 08 .10    -296   -248    -21    387    388 230.0  -3.2  33854  284.42 0863.58
2015 04 09 12 02 08 .34    -284   -247    -43    377    380 229.0  -6.6  33884  284.91 0863.58
2015 04 09 12 02 08 .59    -258   -243    -60    355    361 226.8  -9.7  33860  284.52 0863.58
2015 04 09 12 02 08 .85    -301   -240    -55    386    391 231.4  -8.2  33888  284.99 0863.58
2015 04 09 12 02 09 .09    -287   -260    -70    388    395 227.8 -10.3  33922  285.55 0863.58
2015 04 09 12 02 09 .35    -319   -257    -53    410    414 231.1  -7.5  33890  285.02 0863.58
2015 04 09 12 02 09 .60    -286   -203    -77    352    361 234.6 -12.4  33864  284.56 0863.58
2015 04 09 12 02 09 .85    -284   -187    -59    341    347 236.7  -9.9  33858  284.46 0863.58
2015 04 09 12 02 10 .10    -213   -214    -51    303    308 224.9  -9.6  33958  286.16 0863.58
2015 04 09 12 02 10 .35    -197   -213    -36    291    294 222.8  -7.2  33962  286.21 0863.58
2015 04 09 12 02 10 .60    -170   -234     35    290    293 216.1   6.9  33958  286.16 0863.58
2015 04 09 12 02 10 .85    -175   -226      2    286    287 217.8   0.5  33978  286.50 0863.57
2015 04 09 12 02 11 .10    -143   -248     50    287    292 209.9  10.0  33946  285.94 0863.57
2015 04 09 12 02 11 .36    -128   -225     41    259    263 209.6   9.0  33944  285.93 0863.57
2015 04 09 12 02 11 .60    -112   -219    132    246    279 207.1  30.6  33992  286.74 0863.57
2015 04 09 12 02 11 .85    -127   -174    118    216    246 216.3  31.3  33984  286.60 0863.57
2015 04 09 12 02 12 .10    -152   -153     42    217    222 224.8  11.0  33964  286.25 0863.57
2015 04 09 12 02 12 .35    -234   -211      2    316    317 228.0   0.4  33940  285.84 0863.57
2015 04 09 12 02 12 .60    -229   -224     15    321    322 225.6   2.8  33906  285.29 0863.57
2015 04 09 12 02 12 .86    -240   -209     -2    319    320 228.9  -0.5  33898  285.15 0863.57
2015 04 09 12 02 13 .12    -206   -213     20    297    298 224.1   3.9  33916  285.44 0863.57
2015 04 09 12 02 13 .37    -197   -245     57    315    321 218.8  10.4  34012  287.06 0863.57
2015 04 09 12 02 13 .62    -156   -229     40    278    281 214.3   8.2  33984  286.60 0863.57
2015 04 09 12 02 13 .86    -173   -213     18    275    276 219.2   3.8  33936  285.77 0863.57
2015 04 09 12 02 14 .12    -160   -216      3    270    271 216.5   0.7  33900  285.17 0863.57
2015 04 09 12 02 14 .37    -205   -211     14    295    296 224.1   2.8  33904  285.25 0863.57
2015 04 09 12 02 14 .62    -229   -198     12    303    304 229.1   2.3  33896  285.12 0863.57
2015 04 09 12 02 14 .87    -224   -191      0    295    296 229.6   0.0  33950  286.03 0863.57
2015 04 09 12 02 15 .12    -255   -213     -5    333    334 230.2  -0.9  33910  285.36 0863.57
2015 04 09 12 02 15 .37    -254   -215     20    334    335 229.7   3.5  33952  286.07 0863.57
2015 04 09 12 02 15 .62    -275   -246      3    370    371 228.2   0.5  33894  285.09 0863.57
2015 04 09 12 02 15 .88    -289   -257     15    387    388 228.3   2.2  33886  284.96 0863.57
2015 04 09 12 02 16 .12    -273   -264     59    380    385 226.0   8.9  33956  286.12 0863.57
2015 04 09 12 02 16 .38    -296   -269      6    401    402 227.7   0.9  33866  284.62 0863.57
2015 04 09 12 02 16 .62    -291   -258      6    390    391 228.5   1.0  33860  284.52 0863.57
2015 04 09 12 02 16 .87    -302   -257     -3    397    398 229.6  -0.5  33860  284.51 0863.57
2015 04 09 12 02 17 .12    -296   -248     14    387    388 230.1   2.1  33860  284.51 0863.57
2015 04 09 12 02 17 .37    -288   -253      2    384    385 228.7   0.4  33860  284.52 0863.57
2015 04 09 12 02 17 .63    -300   -248     -1    390    391 230.4  -0.3  33868  284.64 0863.57
2015 04 09 12 02 17 .87    -286   -250      5    380    381 228.8   0.8  33864  284.59 0863.57
2015 04 09 12 02 18 .13    -286   -239      0    374    375 230.1   0.0  33868  284.64 0863.57
2015 04 09 12 02 18 .38    -265   -265     31    375    377 225.0   4.9  33914  285.43 0863.57
2015 04 09 12 02 18 .63    -277   -246     24    371    372 228.4   3.7  33942  285.90 0863.57
2015 04 09 12 02 18 .88    -297   -261     -4    396    397 228.7  -0.7  33924  285.58 0863.57
2015 04 09 12 02 19 .13    -277   -231      4    361    362 230.2   0.7  33872  284.72 0863.57
2015 04 09 12 02 19 .38    -245   -237     25    342    343 226.0   4.3  33942  285.90 0863.57
2015 04 09 12 02 19 .67    -265   -248     12    364    365 226.9   1.9  33898  285.16 0863.56
2015 04 09 12 02 19 .89    -257   -258     27    365    366 224.9   4.3  33930  285.67 0863.56
2015 04 09 12 02 20 .15    -288   -239     -1    375    376 230.4  -0.3  33962  286.21 0863.56
2015 04 09 12 02 20 .39    -273   -225      6    355    356 230.5   1.0  33940  285.87 0863.56
2015 04 09 12 02 20 .65    -262   -241     21    357    358 227.4   3.5  33964  286.26 0863.56
2015 04 09 12 02 20 .90    -259   -259     32    367    369 225.0   5.1  33924  285.60 0863.56
2015 04 09 12 02 21 .14    -300   -239      2    384    385 231.5   0.4  33916  285.46 0863.56
2015 04 09 12 02 21 .39    -291   -239     11    377    378 230.6   1.7  33890  285.01 0863.56
2015 04 09 12 02 21 .64    -281   -237     14    368    369 229.8   2.2  33892  285.04 0863.56
2015 04 09 12 02 21 .90    -283   -201      6    348    349 234.6   1.1  33890  285.01 0863.56
2015 04 09 12 02 22 .14    -272   -204     -9    341    342 233.1  -1.6  33870  284.69 0863.56
2015 04 09 12 02 22 .40    -264   -208     -5    337    338 231.7  -0.9  33870  284.69 0863.56
2015 04 09 12 02 22 .65    -303   -193    -26    360    361 237.4  -4.2  34002  286.91 0863.56
2015 04 09 12 02 22 .89    -272   -168    -34    320    322 238.2  -6.1  33882  284.87 0863.56
2015 04 09 12 02 23 .15    -261   -155    -27    304    306 239.3  -5.2  33872  284.70 0863.56
2015 04 09 12 02 23 .41    -255   -173    -39    309    312 235.8  -7.3  33910  285.35 0863.56
2015 04 09 12 02 23 .65    -265   -204     -6    335    336 232.4  -1.2  34048  287.67 0863.56
2015 04 09 12 02 23 .90    -239   -175    -11    297    298 233.8  -2.2  33998  286.82 0863.56
2015 04 09 12 02 24 .15    -249   -174    -19    304    305 235.0  -3.7  33924  285.57 0863.56
2015 04 09 12 02 24 .41    -249   -204    -12    323    324 230.7  -2.2  33896  285.10 0863.56
2015 04 09 12 02 24 .65    -272   -169    -18    321    322 238.2  -3.3  33910  285.35 0863.56
2015 04 09 12 02 24 .90    -291   -154    -41    330    333 242.1  -7.2  33876  284.79 0863.56
2015 04 09 12 02 25 .15    -282   -161    -39    326    329 240.2  -6.9  33876  284.77 0863.56
2015 04 09 12 02 25 .40    -299   -164    -45    342    346 241.2  -7.6  33886  284.96 0863.56
2015 04 09 12 02 25 .65    -274   -168    -45    322    326 238.5  -8.0  33856  284.43 0863.56
2015 04 09 12 02 25 .90    -278   -153    -56    318    324 241.1 -10.1  33862  284.53 0863.56
2015 04 09 12 02 26 .15    -255   -146    -44    294    298 240.2  -8.6  33862  284.53 0863.56
2015 04 09 12 02 26 .41    -244   -146    -36    285    288 239.1  -7.2  33860  284.51 0863.56
2015 04 09 12 02 26 .67    -226   -133    -24    263    265 239.4  -5.4  33874  284.73 0863.56
2015 04 09 12 02 26 .92    -250   -138    -40    286    289 241.1  -8.0  33870  284.68 0863.56
2015 04 09 12 02 27 .17    -277   -115    -36    300    303 247.4  -6.9  33870  284.68 0863.56
2015 04 09 12 02 27 .42    -274   -100    -37    292    295 250.0  -7.3  33870  284.66 0863.56
2015 04 09 12 02 27 .67    -269   -107    -37    290    293 248.3  -7.3  33876  284.77 0863.56
2015 04 09 12 02 27 .92    -282   -116    -39    305    308 247.6  -7.3  33868  284.63 0863.56
2015 04 09 12 02 28 .17    -282   -111    -41    304    307 248.5  -7.7  33870  284.66 0863.56
2015 04 09 12 02 28 .51    -310   -133    -35    338    340 246.7  -6.1  33880  284.84 0863.56
2015 04 09 12 02 28 .67    -311   -122    -45    335    339 248.5  -7.7  33870  284.69 0863.56
2015 04 09 12 02 28 .92    -286   -139    -44    319    322 244.0  -7.9  33874  284.75 0863.56
2015 04 09 12 02 29 .17    -241   -128    -35    273    276 242.0  -7.3  33872  284.70 0863.56
2015 04 09 12 02 29 .42    -257   -137    -36    292    295 242.0  -7.2  33870  284.68 0863.56
2015 04 09 12 02 29 .67    -273   -110    -32    295    297 248.0  -6.2  33870  284.66 0863.56
2015 04 09 12 02 29 .92    -258   -112    -35    282    285 246.4  -7.2  33874  284.73 0863.56
2015 04 09 12 02 30 .17    -239   -118    -20    267    268 243.6  -4.4  33876  284.77 0863.56
2015 04 09 12 02 30 .42    -198   -143    -24    245    247 234.1  -5.6  33888  284.98 0863.56
2015 04 09 12 02 30 .68    -186   -165     -2    249    250 228.4  -0.5  33910  285.34 0863.56
2015 04 09 12 02 30 .93    -193   -126    -29    231    233 236.7  -7.2  33890  285.02 0863.56
2015 04 09 12 02 31 .18    -194   -123    -24    230    232 237.6  -6.0  33924  285.58 0863.56
2015 04 09 12 02 31 .42    -169   -158    -11    232    233 226.8  -2.8  33952  286.05 0863.56
2015 04 09 12 02 31 .67    -202   -167    -10    263    264 230.4  -2.2  33940  285.84 0863.56
2015 04 09 12 02 31 .93    -222   -124    -32    255    258 240.9  -7.3  33968  286.31 0863.56
2015 04 09 12 02 32 .18    -243   -176    -11    301    302 234.0  -2.2  34012  287.07 0863.56
2015 04 09 12 02 32 .43    -225   -225      3    319    320 224.9   0.7  33964  286.25 0863.56
2015 04 09 12 02 32 .68    -221   -183     -2    288    289 230.4  -0.5  33942  285.89 0863.56
2015 04 09 12 02 32 .94    -197   -185     28    271    273 226.8   6.0  34012  287.06 0863.56
2015 04 09 12 02 33 .18    -190   -202      8    278    279 223.2   1.8  34052  287.75 0863.56
2015 04 09 12 02 33 .43    -231   -230     -7    327    328 225.1  -1.4  33954  286.09 0863.56
2015 04 09 12 02 33 .69    -207   -248     47    324    328 219.8   8.3  34040  287.53 0863.56
2015 04 09 12 02 33 .94    -215   -270     27    346    348 218.6   4.6  33872  284.72 0863.56
2015 04 09 12 02 34 .19    -222   -252      7    337    338 221.4   1.2  33854  284.42 0863.56
2015 04 09 12 02 34 .44    -192   -219     -3    292    293 221.2  -0.7  33854  284.41 0863.57
2015 04 09 12 02 34 .70    -199   -211      4    291    292 223.3   0.8  33882  284.88 0863.57
2015 04 09 12 02 34 .95    -191   -247      9    313    314 217.8   1.8  33944  285.91 0863.57
2015 04 09 12 02 35 .20    -198   -257     54    325    330 217.7   9.5  33938  285.81 0863.57
2015 04 09 12 02 35 .44    -206   -261     39    333    336 218.4   6.7  33924  285.57 0863.57
2015 04 09 12 02 35 .70    -254   -246     -7    354    355 225.9  -1.3  33924  285.58 0863.57
2015 04 09 12 02 35 .95    -206   -286     26    353    354 215.8   4.2  33972  286.39 0863.57
2015 04 09 12 02 36 .19    -197   -289     54    350    355 214.3   8.9  33960  286.19 0863.57
2015 04 09 12 02 36 .45    -192   -261     20    325    326 216.4   3.6  33952  286.06 0863.57
2015 04 09 12 02 36 .70    -176   -304     42    352    355 210.0   6.9  34016  287.15 0863.57
2015 04 09 12 02 36 .95    -195   -301     70    359    366 213.0  11.1  33968  286.32 0863.57
2015 04 09 12 02 37 .20    -151   -273     67    313    321 209.0  12.1  33986  286.63 0863.57
2015 04 09 12 02 37 .45    -219   -253     -5    336    337 220.9  -0.9  33986  286.64 0863.57
2015 04 09 12 02 37 .71    -265   -265     37    375    377 225.0   5.7  34016  287.15 0863.57
2015 04 09 12 02 37 .95    -223   -256      2    340    341 221.0   0.4  34050  287.72 0863.57
2015 04 09 12 02 38 .21    -230   -248     44    339    342 222.8   7.5  34060  287.89 0863.57
2015 04 09 12 02 38 .45    -225   -218     15    314    315 226.0   2.8  34130  289.05 0863.57
2015 04 09 12 02 38 .71    -244   -192     -2    311    312 231.8  -0.5  34142  289.27 0863.57
2015 04 09 12 02 38 .96    -246   -201     13    318    319 230.7   2.5  34192  290.10 0863.57
2015 04 09 12 02 39 .20    -246   -218    -12    329    330 228.5  -2.2  34202  290.28 0863.57
2015 04 09 12 02 39 .45    -198   -199     15    281    282 224.9   3.1  34146  289.32 0863.57
2015 04 09 12 02 39 .70    -279   -143    -29    314    316 242.9  -5.4  34050  287.70 0863.57
2015 04 09 12 02 39 .95    -202   -158    -14    257    258 232.0  -3.1  33924  285.57 0863.57
2015 04 09 12 02 40 .21    -244   -177    -26    302    304 234.0  -5.1  33934  285.74 0863.57
2015 04 09 12 02 40 .46    -253   -195    -40    320    323 232.3  -7.2  33940  285.86 0863.57
2015 04 09 12 02 40 .71    -282   -192    -49    342    346 235.8  -8.2  33906  285.28 0863.57
2015 04 09 12 02 40 .97    -271   -172    -55    322    327 237.5  -9.7  33892  285.05 0863.57
2015 04 09 12 02 41 .22    -272   -204    -43    341    344 233.2  -7.3  33870  284.67 0863.57
2015 04 09 12 02 41 .47    -265   -199    -43    332    335 233.1  -7.5  33870  284.67 0863.57
2015 04 09 12 02 41 .72    -279   -215    -15    353    354 232.4  -2.5  33952  286.04 0863.57
2015 04 09 12 02 41 .97    -260   -205     -3    332    333 231.7  -0.6  33946  285.95 0863.57
2015 04 09 12 02 42 .22    -276   -211     -6    348    349 232.6  -1.1  33908  285.30 0863.57
2015 04 09 12 02 42 .47    -236   -207     -7    315    316 228.7  -1.4  33896  285.10 0863.57
2015 04 09 12 02 42 .73    -227   -219    -40    316    319 226.0  -7.2  33976  286.45 0863.57
2015 04 09 12 02 42 .97    -241   -240     26    341    342 225.1   4.4  34050  287.71 0863.57
2015 04 09 12 02 43 .22    -259   -280      4    382    383 222.8   0.7  33858  284.49 0863.56
2015 04 09 12 02 43 .48    -231   -263      4    351    352 221.3   0.8  33874  284.76 0863.56
2015 04 09 12 02 43 .73    -215   -284     15    357    358 217.1   2.5  33950  286.02 0863.56
2015 04 09 12 02 43 .98    -216   -296     34    367    369 216.1   5.4  33996  286.81 0863.56
2015 04 09 12 02 44 .23    -206   -254     82    328    339 219.0  14.2  34040  287.54 0863.56
2015 04 09 12 02 44 .48    -208   -253     41    328    331 219.4   7.2  34050  287.71 0863.56
2015 04 09 12 02 44 .72    -240   -272      3    363    364 221.4   0.5  33880  284.83 0863.56
2015 04 09 12 02 44 .98    -243   -262     14    358    359 222.9   2.3  33866  284.62 0863.56
2015 04 09 12 02 45 .23    -247   -272     21    368    369 222.3   3.3  33866  284.62 0863.55
2015 04 09 12 02 45 .48    -243   -262     14    358    359 222.9   2.3  33866  284.62 0863.55
2015 04 09 12 02 45 .73    -248   -263     22    362    363 223.3   3.5  33870  284.67 0863.55
2015 04 09 12 02 45 .98    -250   -266     28    366    368 223.2   4.5  33870  284.67 0863.55
2015 04 09 12 02 46 .23    -254   -254     25    360    361 224.9   4.0  33874  284.76 0863.55
2015 04 09 12 02 46 .49    -239   -252     19    348    349 223.4   3.3  33896  285.11 0863.55
2015 04 09 12 02 46 .74    -241   -236     32    338    340 225.6   5.4  33922  285.55 0863.55
2015 04 09 12 02 46 .98    -237   -230     21    331    332 225.9   3.8  33924  285.60 0863.55
2015 04 09 12 02 47 .23    -240   -255     34    351    353 223.3   5.7  33922  285.55 0863.55
2015 04 09 12 02 47 .49    -225   -257     44    342    345 221.3   7.5  33864  284.59 0863.55
2015 04 09 12 02 47 .74    -239   -272     52    363    367 221.3   8.2  33864  284.56 0863.55
2015 04 09 12 02 48 .00    -251   -269     31    369    371 223.0   4.9  33870  284.67 0863.55
2015 04 09 12 02 48 .25    -315   -245    -15    400    401 232.2  -2.2  33908  285.30 0863.55
2015 04 09 12 02 48 .50    -299   -228     -9    377    378 232.7  -1.4  33964  286.27 0863.55
2015 04 09 12 02 48 .75    -295   -168    -16    340    341 240.2  -2.8  33934  285.75 0863.55
2015 04 09 12 02 48 .99    -310   -170    -25    354    355 241.2  -4.1  33936  285.77 0863.55
2015 04 09 12 02 49 .25    -317   -173    -24    362    363 241.4  -3.8  33920  285.52 0863.55
2015 04 09 12 02 49 .50    -286   -169    -26    333    335 239.4  -4.6  33912  285.38 0863.55
2015 04 09 12 02 49 .75    -246   -168    -16    299    300 235.6  -3.2  33928  285.66 0863.55
2015 04 09 12 02 50 .00    -267   -169     -7    317    318 237.6  -1.4  34022  287.22 0863.55
2015 04 09 12 02 50 .25    -228   -188     14    296    297 230.5   2.8  33968  286.31 0863.55
2015 04 09 12 02 50 .50    -261   -182     -1    319    320 235.1  -0.2  34030  287.36 0863.55
2015 04 09 12 02 50 .75    -257   -167    -17    307    308 236.9  -3.2  34038  287.51 0863.55
2015 04 09 12 02 51 .00    -258    -83    -18    272    273 252.1  -3.9  33996  286.79 0863.55
2015 04 09 12 02 51 .25    -272   -102    -38    291    294 249.4  -7.5  34002  286.89 0863.55
2015 04 09 12 02 51 .51    -280   -147    -48    317    321 242.2  -8.7  33990  286.70 0863.55
2015 04 09 12 02 51 .75    -230   -113    -33    257    260 243.8  -7.3  34014  287.09 0863.55
2015 04 09 12 02 52 .01    -248   -123    -35    277    280 243.6  -7.3  34000  286.87 0863.55
2015 04 09 12 02 52 .25    -282    -41    -41    286    290 261.6  -8.3  34072  288.09 0863.55
2015 04 09 12 02 52 .50    -311      4      5    312    313 270.8   1.0  33940  285.86 0863.55
2015 04 09 12 02 52 .76    -318    -48    -38    322    325 261.4  -6.9  33900  285.19 0863.55
2015 04 09 12 02 53 .01    -344    -14    -36    345    347 267.6  -6.1  33908  285.31 0863.55
2015 04 09 12 02 53 .26    -194    -50     20    201    203 255.4   5.9  33972  286.41 0863.56
2015 04 09 12 02 53 .51    -295     31    -51    297    302 276.1  -9.8  33894  285.08 0863.56
2015 04 09 12 02 53 .76    -335     63    -53    341    346 280.7  -8.9  33858  284.46 0863.56
2015 04 09 12 02 54 .01    -368     40    -87    371    382 276.3 -13.3  33864  284.57 0863.56
2015 04 09 12 02 54 .26    -301     14    -50    302    307 272.8  -9.5  34014  287.11 0863.56
2015 04 09 12 02 54 .52    -105    -24     52    108    119 256.7  27.3  34002  286.91 0863.56
2015 04 09 12 02 54 .77    -138    -41     18    145    147 253.2   7.1  34028  287.33 0863.56
2015 04 09 12 02 55 .02     -55     67    -32     87     92 320.8 -24.8  34004  286.94 0863.56
2015 04 09 12 02 55 .27    -183      2     50    184    191 270.8  15.3  33954  286.08 0863.56
2015 04 09 12 02 55 .52    -245    -53    -49    251    256 257.6 -11.1  34026  287.31 0863.56
2015 04 09 12 02 55 .77    -253    -90    -45    269    273 250.3  -9.6  33978  286.48 0863.56
2015 04 09 12 02 56 .03    -219   -127    -13    254    255 240.0  -3.1  34012  287.06 0863.56
2015 04 09 12 02 56 .27    -181   -162    -21    244    246 228.2  -5.1  33992  286.74 0863.56
2015 04 09 12 02 56 .53     -60    -42     -6     74     75 234.9  -5.2  34054  287.77 0863.56
2015 04 09 12 02 56 .78     -85     17     26     87     91 281.9  16.8  34058  287.86 0863.56
2015 04 09 12 02 57 .02    -121    -38     -2    127    128 252.3  -1.2  34022  287.23 0863.57
2015 04 09 12 02 57 .28    -260    -73    -50    271    276 254.3 -10.5  33954  286.09 0863.57
2015 04 09 12 02 57 .53    -119      1     36    120    126 270.8  16.8  33992  286.73 0863.57
2015 04 09 12 02 57 .78    -190    -68    -41    202    207 250.3 -11.5  33994  286.78 0863.57
2015 04 09 12 02 58 .03    -166    -51     -6    174    175 252.7  -2.2  34022  287.25 0863.57
2015 04 09 12 02 58 .28    -261    -36    -73    264    275 262.1 -15.5  34060  287.87 0863.57
2015 04 09 12 02 58 .53    -192    -45     10    198    199 256.7   2.9  34068  288.03 0863.57
2015 04 09 12 02 58 .78    -190     13     -8    191    192 274.1  -2.6  34052  287.76 0863.57
2015 04 09 12 02 59 .03    -365    -13    -73    366    374 267.9 -11.3  33926  285.62 0863.57
2015 04 09 12 02 59 .28    -356     -5    -19    357    358 269.1  -3.1  33968  286.34 0863.57
2015 04 09 12 02 59 .53    -232    -25     -4    234    235 263.8  -1.2  33996  286.79 0863.57
2015 04 09 12 02 59 .78    -231     34    -16    234    235 278.6  -4.1  34046  287.65 0863.57
2015 04 09 12 03 00 .03     -90    -83     42    123    131 227.3  18.9  34056  287.81 0863.57
2015 04 09 12 03 00 .28    -282   -134    -13    313    314 244.5  -2.5  34024  287.26 0863.57
2015 04 09 12 03 00 .53    -223    -74    -21    236    237 251.6  -5.2  33996  286.79 0863.57
2015 04 09 12 03 00 .78    -189    -42    -24    194    196 257.2  -7.3  34032  287.40 0863.57
2015 04 09 12 03 01 .04     -52     56      8     77     78 316.7   5.9  34034  287.45 0863.57
2015 04 09 12 03 01 .29    -244     18    -14    245    246 274.3  -3.3  34088  288.34 0863.57
2015 04 09 12 03 01 .54    -372    -28    -56    373    378 265.6  -8.6  33870  284.69 0863.56
2015 04 09 12 03 01 .79    -415     28    -60    416    421 273.9  -8.2  33872  284.72 0863.56
2015 04 09 12 03 02 .05    -370    -16    -14    371    372 267.4  -2.3  33926  285.62 0863.56
2015 04 09 12 03 02 .30    -281    -14     35    282    285 267.0   7.1  33910  285.34 0863.56
2015 04 09 12 03 02 .55    -371      0    -57    372    377 270.0  -8.8  33858  284.49 0863.56
2015 04 09 12 03 02 .80    -307      4    -16    308    309 270.8  -3.1  33864  284.58 0863.56
2015 04 09 12 03 03 .05    -367     39    -40    370    373 276.1  -6.2  33892  285.04 0863.56
2015 04 09 12 03 03 .30    -382    -10    -41    383    386 268.4  -6.2  33862  284.54 0863.56
2015 04 09 12 03 03 .55    -397     19    -63    398    404 272.8  -9.1  33852  284.39 0863.56
2015 04 09 12 03 03 .80    -298    -27    -37    300    303 264.8  -7.2  33862  284.53 0863.56
2015 04 09 12 03 04 .05    -371    -22    -56    372    377 266.6  -8.6  33852  284.39 0863.56
2015 04 09 12 03 04 .30    -368      0    -58    369    374 270.0  -9.0  33852  284.36 0863.56
2015 04 09 12 03 04 .55    -329    -27    -34    331    333 265.3  -6.0  33858  284.47 0863.56
2015 04 09 12 03 04 .80    -319    -22    -40    320    323 265.9  -7.2  33854  284.41 0863.56
2015 04 09 12 03 05 .05    -331      0    -35    332    334 270.0  -6.1  33856  284.44 0863.56
2015 04 09 12 03 05 .31    -341     15    -69    342    349 272.6 -11.5  33848  284.32 0863.56
2015 04 09 12 03 05 .56    -306    -37    -32    309    311 263.0  -6.1  33862  284.55 0863.56
2015 04 09 12 03 05 .81    -267    -13    -22    268    270 267.2  -4.9  33864  284.58 0863.56
2015 04 09 12 03 06 .06    -231      8    -17    232    233 272.1  -4.4  33858  284.49 0863.56
2015 04 09 12 03 06 .31    -328    -33    -32    330    332 264.1  -5.6  33860  284.51 0863.56
2015 04 09 12 03 06 .56    -289    -19    -45    290    294 266.1  -9.0  33862  284.55 0863.56
2015 04 09 12 03 06 .81    -318    -48    -58    322    328 261.3 -10.2  33862  284.55 0863.56
2015 04 09 12 03 07 .06    -369    -51    -79    373    382 262.0 -12.0  33858  284.47 0863.56
2015 04 09 12 03 07 .31    -360    -31    -46    362    365 265.0  -7.3  33852  284.39 0863.56
2015 04 09 12 03 07 .56    -372    -56    -75    377    385 261.4 -11.3  33852  284.36 0863.56
2015 04 09 12 03 07 .81    -380    -70    -69    387    394 259.5 -10.2  33854  284.41 0863.55
2015 04 09 12 03 08 .06    -337   -100    -69    352    359 253.4 -11.2  33858  284.46 0863.55
2015 04 09 12 03 08 .31    -245     -1    -22    246    248 269.6  -5.2  33870  284.68 0863.55
2015 04 09 12 03 08 .57    -335   -104    -86    351    362 252.7 -13.8  33858  284.49 0863.55
2015 04 09 12 03 08 .82    -371    -44    -64    374    380 263.2  -9.8  33860  284.52 0863.55
2015 04 09 12 03 09 .07    -354    -52    -78    358    367 261.6 -12.3  33854  284.41 0863.55
2015 04 09 12 03 09 .32    -343    -64    -73    349    357 259.4 -11.9  33854  284.42 0863.55
2015 04 09 12 03 09 .57    -337    -52    -73    342    350 261.1 -12.2  33860  284.52 0863.56
2015 04 09 12 03 09 .83    -274    -38    -40    277    280 262.1  -8.3  33872  284.71 0863.56
2015 04 09 12 03 10 .08    -343    -54    -72    348    356 261.0 -11.8  33870  284.66 0863.56
2015 04 09 12 03 10 .33    -355    -63    -88    361    372 259.9 -13.8  33872  284.72 0863.56
2015 04 09 12 03 10 .58    -301    -41    -38    304    307 262.1  -7.2  33874  284.73 0863.56
2015 04 09 12 03 10 .83    -330    -35    -63    332    339 263.9 -10.8  33870  284.67 0863.56
2015 04 09 12 03 11 .08    -298     17    -23    299    300 273.4  -4.6  33886  284.93 0863.56
2015 04 09 12 03 11 .33    -284     -1    -46    285    289 269.6  -9.3  33906  285.27 0863.56
2015 04 09 12 03 11 .58    -211     28     10    213    214 277.7   2.8  33924  285.60 0863.56
2015 04 09 12 03 11 .83    -283     -4    -15    284    285 269.0  -3.1  33934  285.76 0863.56
2015 04 09 12 03 12 .08    -331     21    -17    332    333 273.7  -3.0  33936  285.77 0863.56
2015 04 09 12 03 12 .33    -223     -3     -8    224    225 269.0  -2.2  33940  285.85 0863.56
2015 04 09 12 03 12 .58    -266     -8    -40    267    271 268.1  -8.6  33944  285.93 0863.56
2015 04 09 12 03 12 .83    -305     14    -66    306    314 272.8 -12.3  33872  284.70 0863.56
2015 04 09 12 03 13 .08    -342     38    -69    345    352 276.5 -11.3  33864  284.59 0863.56
2015 04 09 12 03 13 .33    -339     30    -57    341    346 275.2  -9.6  33852  284.36 0863.56
2015 04 09 12 03 13 .58    -304     11    -56    305    311 272.1 -10.4  33850  284.35 0863.56
2015 04 09 12 03 13 .84    -280     21    -36    281    284 274.4  -7.3  33864  284.58 0863.56
2015 04 09 12 03 14 .09    -243     49    -27    248    250 281.5  -6.2  33954  286.09 0863.56
2015 04 09 12 03 14 .33    -179     29    -30    182    185 279.5  -9.3  33918  285.48 0863.56
2015 04 09 12 03 14 .59    -281     26    -59    283    290 275.5 -11.9  33862  284.55 0863.56
2015 04 09 12 03 14 .84    -278     77    -64    289    297 285.5 -12.6  33860  284.50 0863.56
2015 04 09 12 03 15 .09    -258     61    -41    266    270 283.3  -8.8  33874  284.73 0863.56
2015 04 09 12 03 15 .35    -230     23    -45    232    237 275.9 -11.1  33876  284.78 0863.56
2015 04 09 12 03 15 .60    -215     -2    -35    216    219 269.4  -9.3  33884  284.92 0863.56
2015 04 09 12 03 15 .85    -276    -10    -55    277    283 267.9 -11.3  33872  284.71 0863.57
2015 04 09 12 03 16 .10    -253    -16    -70    254    264 266.3 -15.5  33874  284.73 0863.57
2015 04 09 12 03 16 .35    -299      4    -38    300    303 270.8  -7.3  33876  284.78 0863.57
2015 04 09 12 03 16 .60    -261     32    -24    264    266 277.1  -5.4  33884  284.92 0863.57
2015 04 09 12 03 16 .85    -249     14    -27    250    252 273.3  -6.2  33886  284.95 0863.57
2015 04 09 12 03 17 .10    -266      7    -51    267    272 271.7 -10.9  33888  284.97 0863.57
2015 04 09 12 03 17 .35    -252      3    -46    253    258 270.8 -10.3  33894  285.07 0863.57
2015 04 09 12 03 17 .60    -227    -61    -61    236    244 255.0 -14.7  33882  284.88 0863.57
2015 04 09 12 03 17 .85    -240      7    -61    241    249 271.7 -14.4  33888  284.98 0863.56
2015 04 09 12 03 18 .10    -261    -24    -43    263    267 264.7  -9.3  33886  284.93 0863.56
2015 04 09 12 03 18 .35    -220     37    -26    224    226 279.6  -6.7  33884  284.92 0863.56
2015 04 09 12 03 18 .60    -205     27    -59    207    216 277.7 -16.0  33884  284.92 0863.56
2015 04 09 12 03 18 .86    -194     15    -15    195    196 274.6  -4.6  33888  284.99 0863.56
2015 04 09 12 03 19 .11    -161     24     -4    163    164 278.8  -1.6  33896  285.11 0863.56
2015 04 09 12 03 19 .36    -210     29    -11    212    213 277.9  -3.1  33898  285.14 0863.56
2015 04 09 12 03 19 .61     -51    -58     62     78     99 221.4  42.7  33922  285.56 0863.56
2015 04 09 12 03 19 .86    -230    -94     -5    249    250 247.8  -1.2  33920  285.52 0863.56
2015 04 09 12 03 20 .11    -246    -94    -14    264    265 249.1  -3.2  33916  285.45 0863.56
2015 04 09 12 03 20 .36    -185    -32     -3    188    189 259.9  -1.2  33920  285.51 0863.56
2015 04 09 12 03 20 .61    -240    -18    -25    241    243 265.7  -6.1  33920  285.51 0863.56
2015 04 09 12 03 20 .86    -249    -10    -33    250    253 267.5  -7.7  33910  285.34 0863.56
2015 04 09 12 03 21 .11    -145    -24      7    148    149 260.3   2.8  33924  285.58 0863.56
2015 04 09 12 03 21 .36    -153    -11      0    154    155 265.6  -0.3  33928  285.66 0863.55
2015 04 09 12 03 21 .61    -298    -53    -43    303    307 259.9  -8.2  33934  285.74 0863.55
2015 04 09 12 03 21 .86    -305   -133    -31    333    335 246.4  -5.4  33932  285.73 0863.55
2015 04 09 12 03 22 .11    -255   -188    -14    318    319 233.6  -2.7  33950  286.01 0863.55
2015 04 09 12 03 22 .38    -250   -230     16    340    341 227.4   2.8  33998  286.83 0863.55
2015 04 09 12 03 22 .64    -280   -219     10    356    357 231.9   1.7  33970  286.37 0863.55
2015 04 09 12 03 22 .88    -255   -173    -17    309    310 235.8  -3.2  34016  287.14 0863.55
2015 04 09 12 03 23 .12    -292   -198    -14    354    355 235.8  -2.3  33926  285.62 0863.55
2015 04 09 12 03 23 .38    -368   -174    -23    408    409 244.7  -3.3  33900  285.19 0863.55
2015 04 09 12 03 23 .63    -346   -143    -42    375    378 247.5  -6.5  33904  285.26 0863.55
2015 04 09 12 03 23 .88    -411    -73    -65    418    424 259.9  -8.9  33872  284.72 0863.55
2015 04 09 12 03 24 .13    -407    -92    -54    418    422 257.2  -7.4  33876  284.79 0863.55
2015 04 09 12 03 24 .38    -209     29     21    211    213 277.9   5.9  33900  285.19 0863.55
2015 04 09 12 03 24 .63    -409    -14    -60    410    415 268.0  -8.4  33876  284.79 0863.55
2015 04 09 12 03 24 .88    -364    -34    -12    366    367 264.6  -1.9  33882  284.88 0863.55
2015 04 09 12 03 25 .13    -281     -1     -6    282    283 269.6  -1.3  33872  284.71 0863.55
2015 04 09 12 03 25 .38    -381    -28    -40    382    385 265.7  -6.1  33870  284.67 0863.55
2015 04 09 12 03 25 .63    -314     49      6    318    319 279.0   1.2  33882  284.87 0863.55
2015 04 09 12 03 25 .88    -440     14   -114    441    456 271.9 -14.5  33854  284.40 0863.55
2015 04 09 12 03 26 .13    -376      5   -101    377    391 270.9 -15.1  33846  284.27 0863.55
2015 04 09 12 03 26 .38    -373     -3    -87    374    384 269.5 -13.1  33848  284.29 0863.55
2015 04 09 12 03 26 .64    -362     15   -100    363    377 272.5 -15.5  33862  284.54 0863.55
2015 04 09 12 03 26 .88    -314     24    -80    316    327 274.5 -14.3  33868  284.65 0863.55
2015 04 09 12 03 27 .13    -277     27    -62    279    286 275.7 -12.6  33876  284.78 0863.55
2015 04 09 12 03 27 .38    -294     24    -37    296    299 274.8  -7.2  33878  284.82 0863.55
2015 04 09 12 03 27 .63    -301     15    -61    302    309 273.0 -11.5  33886  284.93 0863.55
2015 04 09 12 03 27 .89    -294     -4    -50    295    300 269.1  -9.8  33888  284.97 0863.55
2015 04 09 12 03 28 .13    -278    -39    -76    281    292 262.0 -15.2  33884  284.92 0863.55
2015 04 09 12 03 28 .39    -286    -12    -79    287    298 267.5 -15.5  33882  284.88 0863.55
2015 04 09 12 03 28 .64    -349    -33    -50    351    355 264.6  -8.2  33886  284.96 0863.55
2015 04 09 12 03 28 .89    -334      0    -87    335    347 270.0 -14.6  33886  284.93 0863.55
2015 04 09 12 03 29 .14    -349      0    -60    350    356 270.0  -9.7  33886  284.96 0863.55
2015 04 09 12 03 29 .40    -325      0    -64    326    333 270.0 -11.2  33888  284.99 0863.55
2015 04 09 12 03 29 .65    -299    -17    -66    300    308 266.7 -12.4  33890  285.02 0863.55
2015 04 09 12 03 29 .90    -290    -60    -53    297    302 258.3 -10.3  33892  285.05 0863.55
2015 04 09 12 03 30 .15    -302    -17    -52    303    308 266.7  -9.8  33884  284.92 0863.55
2015 04 09 12 03 30 .40    -300     -4    -59    301    307 269.2 -11.1  33886  284.95 0863.55
2015 04 09 12 03 30 .65    -265    -29    -38    267    270 263.6  -8.2  33890  285.00 0863.55
2015 04 09 12 03 30 .90    -240    -69    -17    250    251 254.0  -3.9  33902  285.22 0863.55
2015 04 09 12 03 31 .15    -304      6    -47    305    309 271.3  -8.8  33898  285.14 0863.55
2015 04 09 12 03 31 .40    -329      0    -63    330    336 270.0 -10.8  33898  285.15 0863.55
2015 04 09 12 03 31 .65    -321      0    -49    322    326 270.0  -8.8  33896  285.10 0863.55
2015 04 09 12 03 31 .91    -284    -18    -20    285    286 266.3  -4.1  33898  285.15 0863.55
2015 04 09 12 03 32 .16    -287    -12    -20    288    289 267.5  -4.1  33906  285.27 0863.55
2015 04 09 12 03 32 .41    -295    -13    -59    296    302 267.4 -11.3  33918  285.47 0863.55
2015 04 09 12 03 32 .66    -249     19    -33    250    253 274.4  -7.7  33922  285.56 0863.55
2015 04 09 12 03 32 .91    -319    -25    -54    321    326 265.4  -9.7  33912  285.37 0863.55
2015 04 09 12 03 33 .16    -318      0    -54    319    324 270.0  -9.6  33912  285.37 0863.55
2015 04 09 12 03 33 .41    -331     35    -44    333    336 276.1  -7.7  33918  285.48 0863.55
2015 04 09 12 03 33 .66    -318     -2    -44    319    323 269.6  -7.9  33918  285.47 0863.55
2015 04 09 12 03 33 .91    -316     15    -63    317    324 272.8 -11.3  33926  285.61 0863.55
2015 04 09 12 03 34 .16    -301     -8    -58    302    308 268.3 -10.9  33924  285.57 0863.55
2015 04 09 12 03 34 .41    -291     45    -64    295    303 278.8 -12.4  33938  285.81 0863.55
2015 04 09 12 03 34 .66    -269     41    -24    273    275 278.8  -5.2  33942  285.88 0863.55
2015 04 09 12 03 34 .91    -302     -4    -61    303    310 269.2 -11.5  33948  285.98 0863.55
2015 04 09 12 03 35 .16    -284    -71    -56    293    299 255.8 -10.9  33962  286.21 0863.55
2015 04 09 12 03 35 .41    -290    -58    -37    296    299 258.6  -7.2  33970  286.35 0863.55
2015 04 09 12 03 35 .66    -278      0     -5    279    280 269.9  -1.1  33966  286.30 0863.55
2015 04 09 12 03 35 .91    -308    -72    -42    317    320 256.7  -7.6  33964  286.26 0863.55
2015 04 09 12 03 36 .18    -327    -24    -66    328    335 265.7 -11.5  33964  286.26 0863.55
2015 04 09 12 03 36 .43    -332    -67    -25    339    340 258.6  -4.2  33968  286.32 0863.55
2015 04 09 12 03 36 .68    -297    -18    -60    298    304 266.5 -11.5  33984  286.60 0863.55
2015 04 09 12 03 36 .93    -156     11      3    157    158 274.4   1.2  33988  286.66 0863.55
2015 04 09 12 03 37 .18    -279    -47    -62    284    291 260.3 -12.4  33970  286.35 0863.55
2015 04 09 12 03 37 .43    -295    -22    -59    296    302 265.7 -11.3  33968  286.31 0863.55
2015 04 09 12 03 37 .68    -314    -36    -57    317    323 263.4 -10.2  33962  286.23 0863.55
2015 04 09 12 03 37 .95    -293    -64    -64    301    308 257.6 -12.2  33968  286.31 0863.55
2015 04 09 12 03 38 .18    -231    -53    -18    238    239 257.0  -4.4  33996  286.80 0863.55
2015 04 09 12 03 38 .43    -242    -60    -50    250    255 255.9 -11.3  33998  286.82 0863.55
2015 04 09 12 03 38 .68    -216    -91    -26    235    237 247.2  -6.5  33984  286.58 0863.54
2015 04 09 12 03 38 .93    -142    -38    -18    148    150 255.0  -7.2  34000  286.88 0863.54
2015 04 09 12 03 39 .18    -246     29    -55    248    255 276.8 -12.6  34046  287.63 0863.54
2015 04 09 12 03 39 .43    -286     27    -47    288    292 275.5  -9.3  34014  287.09 0863.54
2015 04 09 12 03 39 .68    -210    -52     11    217    218 256.1   2.9  34006  286.98 0863.54
2015 04 09 12 03 39 .93    -265    -60    -44    272    276 257.2  -9.4  34010  287.02 0863.54
2015 04 09 12 03 40 .19    -284     12    -25    285    287 272.6  -5.2  33966  286.28 0863.54
2015 04 09 12 03 40 .44    -273    -20     -1    274    275 265.6  -0.3  34042  287.58 0863.54
2015 04 09 12 03 40 .69    -259      7    -14    260    261 271.7  -3.2  34066  287.97 0863.54
2015 04 09 12 03 40 .93    -165     41     28    171    174 284.2   9.3  34050  287.70 0863.54
2015 04 09 12 03 41 .18    -344     55    -36    349    351 279.2  -6.0  33924  285.60 0863.54
2015 04 09 12 03 41 .44    -350     71    -51    358    362 281.5  -8.2  33888  284.98 0863.54
2015 04 09 12 03 41 .69    -282     52     -8    287    288 280.6  -1.6  33940  285.86 0863.54
2015 04 09 12 03 41 .94    -322     26    -63    324    331 274.7 -11.0  33872  284.71 0863.54
2015 04 09 12 03 42 .19    -251     31    -14    254    255 277.2  -3.3  33892  285.03 0863.54
2015 04 09 12 03 42 .44    -301     13    -32    302    304 272.5  -6.1  33966  286.28 0863.54
2015 04 09 12 03 42 .69    -291      7    -46    292    296 271.5  -9.0  33868  284.65 0863.54
2015 04 09 12 03 42 .94    -224     77    -28    238    240 289.1  -6.9  33884  284.92 0863.54
2015 04 09 12 03 43 .20    -289     49    -37    294    297 279.6  -7.3  33864  284.56 0863.54
2015 04 09 12 03 43 .46    -322     24    -51    323    328 274.3  -9.1  33910  285.35 0863.54
2015 04 09 12 03 43 .70    -252     48    -30    257    259 280.8  -6.9  33960  286.18 0863.54
2015 04 09 12 03 43 .95    -183    -70    -23    197    199 248.9  -6.9  33980  286.54 0863.54
2015 04 09 12 03 44 .20    -117     10    -40    118    125 275.2 -19.1  33990  286.71 0863.54
2015 04 09 12 03 44 .45    -243    -40     -3    247    248 260.5  -0.7  33950  286.03 0863.54
2015 04 09 12 03 44 .71    -256    -19    -28    257    259 265.6  -6.2  33882  284.88 0863.54
2015 04 09 12 03 44 .95    -235     28    -26    237    239 277.0  -6.5  33890  285.00 0863.54
2015 04 09 12 03 45 .21    -246      2    -50    247    252 270.6 -11.5  33880  284.83 0863.53
2015 04 09 12 03 45 .46    -219    -30    -44    222    227 262.1 -11.3  33884  284.91 0863.53
2015 04 09 12 03 45 .71    -198     -8    -51    199    206 267.5 -14.5  33932  285.71 0863.53
2015 04 09 12 03 45 .96    -166    -40    -23    171    173 256.3  -7.7  33902  285.23 0863.53
2015 04 09 12 03 46 .21    -157      1    -12    158    159 270.4  -4.4  33936  285.80 0863.53
2015 04 09 12 03 46 .46     -65    -76      5    101    102 220.5   2.9  33988  286.67 0863.53
2015 04 09 12 03 46 .71    -148    -98      5    178    179 236.3   1.8  33984  286.59 0863.53
2015 04 09 12 03 46 .96    -144    -68    -20    160    162 244.7  -7.2  33988  286.66 0863.54
2015 04 09 12 03 47 .21    -131    -28    -17    135    137 257.6  -7.2  34000  286.86 0863.54
2015 04 09 12 03 47 .46     -71    -33     27     79     84 244.7  19.2  34010  287.03 0863.54
2015 04 09 12 03 47 .71     -35    -25     38     44     58 234.0  45.8  34034  287.43 0863.54
2015 04 09 12 03 47 .96     -47    -57     67     75    100 219.6  46.9  34040  287.55 0863.54
2015 04 09 12 03 48 .21    -105   -120     -6    160    161 221.0  -2.3  34050  287.70 0863.54
2015 04 09 12 03 48 .46    -207   -182     14    276    277 228.7   2.9  34002  286.89 0863.54
2015 04 09 12 03 48 .71    -201   -194      8    280    281 226.0   1.8  33920  285.52 0863.54
2015 04 09 12 03 48 .97    -186   -186     12    264    265 224.9   2.8  33916  285.44 0863.54
2015 04 09 12 03 49 .21    -196   -189      7    273    274 226.0   1.6  33934  285.74 0863.54
2015 04 09 12 03 49 .47    -198   -193     22    277    278 225.8   4.6  33956  286.13 0863.54
2015 04 09 12 03 49 .72    -212   -187      4    283    284 228.6   0.8  33976  286.45 0863.54
2015 04 09 12 03 49 .96    -216   -172      7    277    278 231.4   1.6  33956  286.13 0863.54
2015 04 09 12 03 50 .22    -205   -171      9    268    269 230.2   2.1  33942  285.89 0863.54
2015 04 09 12 03 50 .47    -215   -173    -15    277    278 231.1  -3.1  33914  285.42 0863.54
2015 04 09 12 03 50 .73    -242   -176    -25    300    302 234.1  -4.9  33914  285.42 0863.54
2015 04 09 12 03 50 .98    -248   -168     -5    300    301 235.8  -1.1  33910  285.34 0863.54
2015 04 09 12 03 51 .23    -233   -178    -11    294    295 232.5  -2.2  33904  285.25 0863.54
2015 04 09 12 03 51 .48    -227   -188     -2    295    296 230.4  -0.5  33898  285.15 0863.53
2015 04 09 12 03 51 .73    -212   -193     -1    287    288 227.7  -0.3  33898  285.15 0863.53
2015 04 09 12 03 51 .98    -197   -189     13    274    275 226.2   2.8  33902  285.22 0863.53
2015 04 09 12 03 52 .23    -221   -183     -2    288    289 230.4  -0.5  33882  284.88 0863.53
2015 04 09 12 03 52 .48    -215   -189     -5    287    288 228.6  -1.1  33894  285.07 0863.53
2015 04 09 12 03 52 .73    -209   -210    -17    297    298 224.9  -3.3  33924  285.59 0863.53
2015 04 09 12 03 52 .98    -184   -178     27    257    259 226.0   6.1  33928  285.64 0863.53
2015 04 09 12 03 53 .23    -185   -183     31    261    263 225.2   6.9  33952  286.04 0863.53
2015 04 09 12 03 53 .48    -178   -214     43    279    283 219.7   8.8  33954  286.08 0863.53
2015 04 09 12 03 53 .74    -187   -199     45    274    278 223.3   9.3  33950  286.03 0863.53
2015 04 09 12 03 53 .99    -201   -187     15    275    276 227.1   3.3  33938  285.81 0863.53
2015 04 09 12 03 54 .24    -220   -162     -2    274    275 233.6  -0.5  33982  286.55 0863.53
2015 04 09 12 03 54 .48    -251   -161    -16    299    300 237.4  -3.2  33928  285.66 0863.53
2015 04 09 12 03 54 .74    -225   -137    -34    264    267 238.7  -7.5  33918  285.49 0863.53
2015 04 09 12 03 54 .99    -203   -162     12    260    261 231.4   2.8  33998  286.82 0863.53
2015 04 09 12 03 55 .24    -149   -149     10    211    212 225.0   2.8  33978  286.49 0863.53
2015 04 09 12 03 55 .48    -181   -152     13    237    238 229.8   3.3  33978  286.48 0863.53
2015 04 09 12 03 55 .74    -197   -163     12    256    257 230.4   2.8  34032  287.39 0863.53
2015 04 09 12 03 56 .00    -173   -170     25    243    245 225.6   6.0  34050  287.70 0863.53
2015 04 09 12 03 56 .24    -244   -134    -15    279    280 241.1  -3.2  33928  285.66 0863.53
2015 04 09 12 03 56 .49    -233   -126    -30    265    267 241.6  -6.5  33902  285.22 0863.53
2015 04 09 12 03 56 .75    -235   -120    -23    265    267 242.9  -5.1  33910  285.35 0863.53
2015 04 09 12 03 57 .01    -203   -120    -21    236    237 239.4  -5.2  33922  285.56 0863.53
2015 04 09 12 03 57 .25    -191   -176     41    261    265 227.3   9.0  34034  287.44 0863.53
2015 04 09 12 03 57 .50    -202   -215     36    296    299 223.2   7.1  33926  285.62 0863.53
2015 04 09 12 03 57 .76    -223   -219     19    313    314 225.6   3.6  33912  285.39 0863.54
2015 04 09 12 03 58 .01    -241   -222     16    328    329 227.4   2.9  33920  285.53 0863.54
2015 04 09 12 03 58 .25    -222   -229     49    320    324 224.1   8.8  33954  286.09 0863.54
2015 04 09 12 03 58 .51    -217   -196     36    293    296 227.8   7.1  33954  286.08 0863.54
2015 04 09 12 03 58 .75    -242   -233     27    337    339 226.1   4.7  33940  285.84 0863.54
2015 04 09 12 03 59 .01    -218   -216     24    308    310 225.3   4.6  33934  285.76 0863.54
2015 04 09 12 03 59 .25    -258   -249     35    359    361 226.0   5.7  34084  288.30 0863.54
2015 04 09 12 03 59 .52    -238   -231     39    332    335 225.9   6.7  34112  288.77 0863.54
2015 04 09 12 03 59 .76    -234   -187    -11    300    301 231.4  -2.2  34074  288.12 0863.54
2015 04 09 12 04 00 .01    -208   -187     25    280    282 228.0   5.2  34064  287.93 0863.54
2015 04 09 12 04 00 .26    -235   -150      7    280    281 237.4   1.6  34086  288.31 0863.54
2015 04 09 12 04 00 .51    -148   -152     26    213    215 224.3   7.1  34120  288.91 0863.54
2015 04 09 12 04 00 .76    -140   -134      4    194    195 226.2   1.2  34094  288.45 0863.54
2015 04 09 12 04 01 .02    -135   -122      0    183    184 228.0  -0.3  34088  288.36 0863.54
2015 04 09 12 04 01 .26    -144   -170     32    224    227 220.3   8.2  34088  288.35 0863.54
2015 04 09 12 04 01 .52    -154   -171     33    231    234 221.9   8.2  34058  287.86 0863.54
2015 04 09 12 04 01 .76    -136   -188     24    233    235 216.0   5.9  34098  288.51 0863.54
2015 04 09 12 04 02 .01    -182   -177     16    254    255 225.8   3.8  34070  288.04 0863.54
2015 04 09 12 04 02 .27    -174   -179     35    250    253 224.1   8.0  34036  287.48 0863.54
2015 04 09 12 04 02 .52    -162   -151     25    222    224 227.1   6.5  34136  289.16 0863.54
2015 04 09 12 04 02 .77    -165   -136     10    214    215 230.5   2.8  34018  287.18 0863.54
2015 04 09 12 04 03 .02    -147   -147     48    208    214 225.0  13.1  34082  288.26 0863.54
2015 04 09 12 04 03 .26    -173   -173     20    245    246 225.0   4.9  34064  287.95 0863.54
2015 04 09 12 04 03 .52    -168   -173     47    242    247 224.1  11.0  34074  288.12 0863.54
2015 04 09 12 04 03 .77    -162   -132      4    210    211 230.9   1.2  34118  288.87 0863.54
2015 04 09 12 04 04 .03    -147   -109    -10    184    185 233.4  -3.1  34134  289.13 0863.54
2015 04 09 12 04 04 .27    -154   -172     26    232    234 221.9   6.5  34042  287.58 0863.54
2015 04 09 12 04 04 .53    -166   -167     35    236    239 224.8   8.5  33998  286.84 0863.54
2015 04 09 12 04 04 .78    -170   -169     30    240    242 225.2   7.2  33992  286.74 0863.54
2015 04 09 12 04 05 .03    -176   -178     45    251    256 224.5  10.3  34018  287.16 0863.54
2015 04 09 12 04 05 .29    -187   -167     12    251    252 228.2   2.9  34060  287.87 0863.54
2015 04 09 12 04 05 .53     -95    -83     16    127    129 229.1   7.5  34086  288.33 0863.54
2015 04 09 12 04 05 .78     -73    -47      2     88     89 237.1   1.8  34110  288.74 0863.54
2015 04 09 12 04 06 .03    -137     23    -27    139    142 279.7 -11.3  34096  288.48 0863.54
2015 04 09 12 04 06 .29     -47    -70     24     85     89 213.8  16.3  34108  288.70 0863.54
2015 04 09 12 04 06 .53     -64     29     22     71     75 294.4  17.3  34122  288.94 0863.54
2015 04 09 12 04 06 .78     -35     -1     12     36     39 267.4  19.4  34116  288.82 0863.54
2015 04 09 12 04 07 .04    -130    -49     -2    140    141 249.2  -1.2  34112  288.77 0863.54
2015 04 09 12 04 07 .29     -88    -25     36     92     98 253.6  22.5  34136  289.18 0863.54
2015 04 09 12 04 07 .54     -46    -25     77     53     93 241.1  62.6  34164  289.65 0863.54
2015 04 09 12 04 07 .78     -85    -13     52     87    101 261.2  33.5  34156  289.52 0863.54
2015 04 09 12 04 08 .04    -177    -20    -18    179    180 263.4  -6.0  34106  288.67 0863.54
2015 04 09 12 04 08 .29    -150    -40    -18    156    158 254.9  -6.9  34006  286.98 0863.54
2015 04 09 12 04 08 .54    -196    -27    -19    198    199 262.1  -5.6  33932  285.71 0863.54
2015 04 09 12 04 08 .79    -248    -53    -46    254    259 257.8 -10.3  33912  285.39 0863.54
2015 04 09 12 04 09 .04    -264     -8    -68    265    274 268.1 -14.5  33870  284.68 0863.54
2015 04 09 12 04 09 .29    -295     -1    -54    296    302 269.6 -10.5  33876  284.78 0863.54
2015 04 09 12 04 09 .54    -267      3    -60    268    275 270.8 -12.6  33872  284.70 0863.54
2015 04 09 12 04 09 .79    -265     12    -48    266    271 272.6 -10.3  33876  284.78 0863.54
2015 04 09 12 04 10 .04    -240     16    -48    241    246 273.9 -11.5  33884  284.92 0863.54
2015 04 09 12 04 10 .29    -215     -3    -48    216    222 269.2 -12.6  33880  284.86 0863.54
2015 04 09 12 04 10 .54    -223     20    -53    224    231 275.2 -13.4  33878  284.81 0863.54
2015 04 09 12 04 10 .79    -262     17    -38    263    266 273.7  -8.3  33882  284.87 0863.54
2015 04 09 12 04 11 .05    -246     12    -49    247    252 273.0 -11.3  33890  285.02 0863.54
2015 04 09 12 04 11 .30    -219      0    -52    220    227 270.0 -13.3  33878  284.82 0863.54
2015 04 09 12 04 11 .55    -213      3    -51    214    220 270.8 -13.4  33876  284.77 0863.54
2015 04 09 12 04 11 .81    -223     20    -47    224    229 275.2 -11.9  33886  284.94 0863.54
2015 04 09 12 04 12 .06    -221     26    -12    223    224 276.8  -3.2  33928  285.65 0863.54
2015 04 09 12 04 12 .31    -166     53     -9    175    176 287.7  -3.1  33942  285.88 0863.54
2015 04 09 12 04 12 .56    -167     49    -19    175    177 286.4  -6.2  33950  286.03 0863.54
2015 04 09 12 04 12 .81    -172     57     14    182    183 288.4   4.6  33948  286.00 0863.54
2015 04 09 12 04 13 .06    -230     32    -38    233    237 277.9  -9.3  33950  286.01 0863.54
2015 04 09 12 04 13 .31    -118    -16     22    120    123 262.1  10.6  33952  286.07 0863.54
2015 04 09 12 04 13 .56    -114    -37    -24    121    124 251.8 -11.5  33984  286.59 0863.54
2015 04 09 12 04 13 .81    -122      5    -10    123    124 272.6  -5.1  33956  286.12 0863.54
2015 04 09 12 04 14 .06    -190     16      9    191    192 275.0   2.9  33934  285.76 0863.55
2015 04 09 12 04 14 .31    -221     -9    -28    222    224 267.6  -7.2  33920  285.51 0863.55
2015 04 09 12 04 14 .56    -214     -4    -12    215    216 268.7  -3.3  33924  285.60 0863.55
2015 04 09 12 04 14 .81    -207     14    -26    208    210 273.9  -7.2  33926  285.61 0863.55
2015 04 09 12 04 15 .07    -168    -13     -1    169    170 265.4  -0.5  33950  286.03 0863.55
2015 04 09 12 04 15 .31    -152    -60     -3    164    165 248.2  -1.1  33978  286.49 0863.55
2015 04 09 12 04 15 .56    -253     40    -23    257    259 279.0  -5.2  33968  286.31 0863.55
2015 04 09 12 04 15 .82    -141     90      8    168    169 302.4   2.9  33970  286.35 0863.55
2015 04 09 12 04 16 .06    -244     29    -48    246    251 277.0 -11.1  33958  286.16 0863.55
2015 04 09 12 04 16 .32    -229    -13    -26    230    232 266.7  -6.5  33926  285.61 0863.55
2015 04 09 12 04 16 .57    -178     -9    -12    179    180 267.0  -3.9  33940  285.85 0863.55
2015 04 09 12 04 16 .82    -206    -26     -1    208    209 262.8  -0.5  33972  286.39 0863.55
2015 04 09 12 04 17 .07    -219    -42    -14    224    225 259.0  -3.7  33990  286.69 0863.55
2015 04 09 12 04 17 .32    -238    -33    -46    241    246 262.1 -10.9  33992  286.74 0863.55
2015 04 09 12 04 17 .57    -285     18    -15    286    287 273.7  -3.1  34020  287.19 0863.55
2015 04 09 12 04 17 .82    -192    -45     10    198    199 256.7   2.9  34000  286.86 0863.55
2015 04 09 12 04 18 .08    -228   -140    -30    268    270 238.5  -6.5  34086  288.32 0863.55
2015 04 09 12 04 18 .33    -320   -121    -47    343    347 249.2  -7.9  33914  285.40 0863.55
2015 04 09 12 04 18 .58    -340   -159    -43    376    379 245.0  -6.6  33962  286.22 0863.55
2015 04 09 12 04 18 .83    -345   -147    -47    376    380 246.9  -7.2  33930  285.67 0863.56
2015 04 09 12 04 19 .09    -345   -123    -47    367    370 250.3  -7.3  33940  285.85 0863.56
2015 04 09 12 04 19 .33    -344   -144    -47    373    376 247.3  -7.2  33946  285.94 0863.56
2015 04 09 12 04 19 .58    -337   -147    -42    368    371 246.4  -6.6  33948  286.00 0863.56
2015 04 09 12 04 19 .83    -333   -113    -42    352    355 251.2  -6.8  33896  285.11 0863.56
2015 04 09 12 04 20 .09    -295   -112    -53    316    321 249.1  -9.6  33922  285.56 0863.56
2015 04 09 12 04 20 .33    -332    -90    -46    345    349 254.9  -7.6  33936  285.80 0863.56
2015 04 09 12 04 20 .58    -330    -86    -65    342    349 255.4 -10.8  33936  285.78 0863.55
2015 04 09 12 04 20 .83    -345    -68    -83    352    362 258.8 -13.4  33872  284.72 0863.55
2015 04 09 12 04 21 .09    -320    -55    -68    325    333 260.1 -11.9  33868  284.64 0863.55
2015 04 09 12 04 21 .34    -320    -52    -66    325    332 260.8 -11.6  33888  284.98 0863.55
2015 04 09 12 04 21 .59    -359    -36    -59    361    366 264.2  -9.3  33896  285.11 0863.55
2015 04 09 12 04 21 .84    -342    -25    -68    343    350 265.7 -11.3  33888  284.98 0863.55
2015 04 09 12 04 22 .09    -321    -19    -30    322    324 266.6  -5.3  33908  285.32 0863.55
2015 04 09 12 04 22 .34    -226   -101     10    248    249 245.8   2.5  33920  285.52 0863.55
2015 04 09 12 04 22 .59    -280    -63    -40    288    291 257.2  -8.0  33918  285.49 0863.55
2015 04 09 12 04 22 .84    -321    -79    -78    331    341 256.1 -13.3  33910  285.35 0863.55
2015 04 09 12 04 23 .09    -365    -99    -62    379    385 254.8  -9.3  33886  284.96 0863.55
2015 04 09 12 04 23 .34    -362    -74    -61    370    376 258.3  -9.5  33884  284.91 0863.55
2015 04 09 12 04 23 .59    -334    -96    -58    348    353 253.9  -9.6  33902  285.21 0863.55
2015 04 09 12 04 23 .85    -318    -68    -56    326    331 257.8  -9.8  33906  285.28 0863.55
2015 04 09 12 04 24 .09    -323    -81    -65    334    341 255.9 -11.0  33904  285.25 0863.55
2015 04 09 12 04 24 .35    -311    -81    -55    322    327 255.3  -9.8  33896  285.10 0863.55
2015 04 09 12 04 24 .60    -258   -131    -37    290    293 243.1  -7.3  33904  285.24 0863.55
2015 04 09 12 04 24 .86    -319   -101    -43    335    338 252.4  -7.3  33886  284.93 0863.55
2015 04 09 12 04 25 .11    -322   -115    -63    343    349 250.3 -10.5  33916  285.46 0863.55
2015 04 09 12 04 25 .36    -305   -102    -50    322    326 251.4  -8.9  33936  285.79 0863.55
2015 04 09 12 04 25 .61    -271   -118    -38    296    299 246.5  -7.3  33946  285.94 0863.55
2015 04 09 12 04 25 .86    -230   -249     48    340    344 222.8   8.1  33910  285.35 0863.55
2015 04 09 12 04 26 .11    -263   -216      5    341    342 230.5   0.9  33952  286.04 0863.55
2015 04 09 12 04 26 .36    -261   -261     44    370    373 225.0   6.9  33884  284.91 0863.55
2015 04 09 12 04 26 .61    -284   -265     34    389    391 227.0   5.1  33880  284.86 0863.55
2015 04 09 12 04 26 .86    -332   -262     -6    424    425 231.7  -0.9  33890  285.00 0863.55
2015 04 09 12 04 27 .11    -313   -197    -24    370    371 237.8  -3.8  33894  285.09 0863.55
2015 04 09 12 04 27 .36    -306   -203    -14    368    369 236.4  -2.2  33906  285.28 0863.55
2015 04 09 12 04 27 .61    -271   -213     -5    345    346 231.8  -0.9  33902  285.23 0863.55
2015 04 09 12 04 27 .87    -281   -233     -1    366    367 230.4  -0.3  33892  285.03 0863.55
2015 04 09 12 04 28 .11    -256   -246      6    356    357 226.2   1.1  33880  284.83 0863.55
2015 04 09 12 04 28 .37    -252   -250     18    356    357 225.2   2.9  33876  284.78 0863.55
2015 04 09 12 04 28 .61    -277   -238     -4    366    367 229.3  -0.7  33886  284.96 0863.55
2015 04 09 12 04 28 .87    -233   -225     10    324    325 226.0   1.8  33882  284.87 0863.55
2015 04 09 12 04 29 .12    -220   -234     19    322    323 223.2   3.5  33874  284.75 0863.55
2015 04 09 12 04 29 .36    -214   -227     23    313    314 223.3   4.4  33872  284.71 0863.55
2015 04 09 12 04 29 .62    -229   -224      9    321    322 225.6   1.6  33870  284.68 0863.55
2015 04 09 12 04 29 .87    -227   -220      9    317    318 226.0   1.8  33872  284.71 0863.55
2015 04 09 12 04 30 .12    -240   -213     -7    322    323 228.4  -1.3  33882  284.87 0863.55
2015 04 09 12 04 30 .36    -252   -209    -12    328    329 230.2  -2.2  33870  284.68 0863.54
2015 04 09 12 04 30 .62    -228   -209     -6    310    311 227.6  -1.2  33864  284.58 0863.54
2015 04 09 12 04 30 .87    -215   -215     -1    305    306 225.0  -0.3  33866  284.61 0863.54
2015 04 09 12 04 31 .13    -206   -212     -1    296    297 224.1  -0.3  33918  285.47 0863.54
2015 04 09 12 04 31 .37    -199   -219     25    297    299 222.3   4.9  33920  285.51 0863.54
2015 04 09 12 04 31 .62    -206   -212     14    296    297 224.1   2.8  33920  285.52 0863.54
2015 04 09 12 04 31 .89    -212   -193      8    287    288 227.7   1.6  33928  285.66 0863.54
2015 04 09 12 04 32 .13    -208   -190    -20    282    283 227.6  -4.1  33876  284.78 0863.54
2015 04 09 12 04 32 .38    -223   -188    -16    292    293 229.8  -3.2  33874  284.75 0863.54
2015 04 09 12 04 32 .63    -212   -182      3    280    281 229.3   0.7  33888  284.97 0863.54
2015 04 09 12 04 32 .88    -183   -179     12    257    258 225.6   2.8  33882  284.87 0863.54
2015 04 09 12 04 33 .13    -173   -178     19    249    250 224.1   4.4  33882  284.88 0863.54
2015 04 09 12 04 33 .38    -183   -184      7    260    261 224.9   1.7  33878  284.82 0863.54
2015 04 09 12 04 33 .64    -178   -184      3    257    258 224.1   0.8  33880  284.83 0863.54
2015 04 09 12 04 33 .88    -178   -177     -1    252    253 225.2  -0.3  33878  284.82 0863.54
2015 04 09 12 04 34 .14    -185   -180     -1    259    260 225.8  -0.3  33886  284.95 0863.54
2015 04 09 12 04 34 .39    -163   -175     19    240    241 223.0   4.6  33934  285.74 0863.54
2015 04 09 12 04 34 .64    -165   -184     12    248    249 221.9   2.8  33898  285.14 0863.54
2015 04 09 12 04 34 .90    -149   -221     19    267    268 214.1   4.2  33938  285.81 0863.53
2015 04 09 12 04 35 .14    -175   -222     38    284    287 218.3   7.8  33936  285.77 0863.53
2015 04 09 12 04 35 .39    -191   -204     19    280    281 223.2   3.9  33910  285.34 0863.53
2015 04 09 12 04 35 .64    -225   -158    -25    275    277 234.9  -5.4  33894  285.07 0863.53
2015 04 09 12 04 35 .89    -210   -162     -8    266    267 232.3  -1.8  33896  285.12 0863.53
2015 04 09 12 04 36 .14    -185   -153     -9    241    242 230.4  -2.2  33888  284.97 0863.53
2015 04 09 12 04 36 .39    -178   -176     12    251    252 225.2   2.8  33888  284.97 0863.53
2015 04 09 12 04 36 .64    -178   -183     26    256    258 224.1   6.0  33884  284.92 0863.53
2015 04 09 12 04 36 .89    -160   -169     17    234    235 223.4   4.4  33874  284.75 0863.53
2015 04 09 12 04 37 .14    -162   -173     15    238    239 223.2   3.8  33876  284.78 0863.53
2015 04 09 12 04 37 .40    -180   -187     25    260    262 223.9   5.7  33936  285.79 0863.53
2015 04 09 12 04 37 .64    -176   -205     49    271    276 220.6  10.3  33934  285.74 0863.53
2015 04 09 12 04 37 .90    -166   -196     17    257    258 220.3   3.8  33924  285.59 0863.53
2015 04 09 12 04 38 .14    -182   -188     22    262    264 224.1   5.0  33922  285.56 0863.53
2015 04 09 12 04 38 .39    -186   -186      9    264    265 225.1   2.1  33880  284.83 0863.53
2015 04 09 12 04 38 .65    -152   -193     12    246    247 218.3   2.9  33922  285.54 0863.54
2015 04 09 12 04 38 .91    -141   -190     64    237    246 216.5  15.2  33968  286.31 0863.54
2015 04 09 12 04 39 .16    -197   -217     69    294    302 222.3  13.2  33962  286.23 0863.54
2015 04 09 12 04 39 .41    -251   -236     27    345    347 226.8   4.5  33942  285.89 0863.54
2015 04 09 12 04 39 .66    -245   -231     13    338    339 226.7   2.2  33940  285.85 0863.54
2015 04 09 12 04 39 .91    -251   -211      2    329    330 229.9   0.4  33936  285.80 0863.54
2015 04 09 12 04 40 .16    -279   -193    -10    340    341 235.4  -1.8  33940  285.87 0863.54
2015 04 09 12 04 40 .41    -270   -183    -18    327    328 235.8  -3.3  33924  285.57 0863.54
2015 04 09 12 04 40 .66    -235   -238     47    335    339 224.6   8.1  33932  285.73 0863.54
2015 04 09 12 04 40 .91    -280   -205     -7    348    349 233.7  -1.3  33924  285.58 0863.54
2015 04 09 12 04 41 .16    -286   -233    -14    370    371 230.8  -2.2  33890  285.01 0863.54
2015 04 09 12 04 41 .41    -277   -225     -4    357    358 230.9  -0.7  33890  285.01 0863.54
2015 04 09 12 04 41 .66    -240   -213     -7    322    323 228.4  -1.3  33882  284.87 0863.54
2015 04 09 12 04 41 .91    -243   -218     -1    327    328 228.1  -0.2  33886  284.93 0863.54
2015 04 09 12 04 42 .17    -229   -215      4    315    316 226.9   0.8  33884  284.92 0863.54
2015 04 09 12 04 42 .42    -248   -207      5    324    325 230.2   0.9  33890  285.00 0863.54
2015 04 09 12 04 42 .66    -219   -180    -19    284    285 230.5  -3.9  33934  285.74 0863.54
2015 04 09 12 04 42 .92    -197   -153      9    250    251 232.2   2.1  33918  285.49 0863.54
2015 04 09 12 04 43 .17    -234   -187     15    300    301 231.4   2.9  33938  285.83 0863.54
2015 04 09 12 04 43 .42    -211   -174      2    274    275 230.4   0.5  33940  285.86 0863.54
2015 04 09 12 04 43 .67    -226   -148    -10    271    272 236.7  -2.2  33948  285.99 0863.54
2015 04 09 12 04 43 .92    -210   -163      7    267    268 232.2   1.6  33958  286.16 0863.54
2015 04 09 12 04 44 .17    -258   -152    -32    300    302 239.4  -6.2  33954  286.08 0863.53
2015 04 09 12 04 44 .42    -254   -111    -45    278    282 246.3  -9.3  33958  286.16 0863.53
2015 04 09 12 04 44 .67    -283    -90    -37    298    301 252.3  -7.2  33946  285.94 0863.53
2015 04 09 12 04 44 .93    -287    -44    -48    291    295 261.2  -9.4  33970  286.36 0863.53
2015 04 09 12 04 45 .18    -288    -13    -41    289    293 267.4  -8.2  34012  287.07 0863.53
2015 04 09 12 04 45 .42    -264    -12    -27    265    267 267.2  -6.0  33990  286.68 0863.53
2015 04 09 12 04 45 .69    -306    -23    -47    307    311 265.7  -8.8  33988  286.65 0863.53
2015 04 09 12 04 45 .93    -291    -17    -37    292    295 266.5  -7.3  34016  287.12 0863.53
2015 04 09 12 04 46 .18    -242     18      0    243    244 274.4   0.0  34018  287.16 0863.53
2015 04 09 12 04 46 .44    -193      5    -11    194    195 271.5  -3.3  34008  287.01 0863.53
2015 04 09 12 04 46 .69    -323     -9    -41    324    327 268.4  -7.4  33948  285.98 0863.53
2015 04 09 12 04 46 .93    -340     34    -33    342    344 275.8  -5.6  33920  285.53 0863.53
2015 04 09 12 04 47 .19    -321    -25    -57    323    329 265.4 -10.1  33960  286.18 0863.53
2015 04 09 12 04 47 .44    -185    -65    -17    197    198 250.7  -5.2  33992  286.74 0863.53
2015 04 09 12 04 47 .69    -239    -22     -5    241    242 264.5  -1.3  33918  285.49 0863.53
2015 04 09 12 04 47 .94    -217     -9    -28    218    220 267.4  -7.3  33922  285.55 0863.53
2015 04 09 12 04 48 .19    -199     66     -8    210    211 288.6  -2.2  33928  285.66 0863.53
2015 04 09 12 04 48 .44    -300      0    -28    301    303 270.0  -5.4  33912  285.37 0863.53
2015 04 09 12 04 48 .69    -256     15     26    257    259 273.5   5.9  33936  285.79 0863.53
2015 04 09 12 04 48 .94    -330     30    -42    332    335 275.2  -7.3  33930  285.67 0863.53
2015 04 09 12 04 49 .19    -294    -32    -21    296    297 263.8  -4.1  33950  286.03 0863.53
2015 04 09 12 04 49 .44    -314      9    -56    315    320 271.7 -10.1  33962  286.23 0863.54
2015 04 09 12 04 49 .69    -337     21    -23    338    339 273.7  -3.9  33898  285.15 0863.54
2015 04 09 12 04 49 .94    -237     17      3    238    239 274.3   0.8  33928  285.64 0863.54
2015 04 09 12 04 50 .19    -312    -63    -21    319    320 258.5  -3.8  33952  286.06 0863.54
2015 04 09 12 04 50 .45    -360      0    -30    361    363 270.0  -4.8  33936  285.78 0863.54
2015 04 09 12 04 50 .70    -342     -2    -61    343    349 269.6 -10.1  33952  286.05 0863.54
2015 04 09 12 04 50 .94    -311     -9    -34    312    314 268.3  -6.3  33992  286.74 0863.54
2015 04 09 12 04 51 .20    -279    -33     -3    281    282 263.2  -0.7  33992  286.72 0863.54
2015 04 09 12 04 51 .45    -325    -14    -64    326    333 267.5 -11.2  33952  286.07 0863.54
2015 04 09 12 04 51 .70    -305    -26    -38    307    310 265.0  -7.2  33942  285.89 0863.54
2015 04 09 12 04 51 .95    -348    -14    -68    349    356 267.7 -11.1  33886  284.94 0863.54
2015 04 09 12 04 52 .20    -365    -22    -73    366    374 266.5 -11.3  33886  284.94 0863.54
2015 04 09 12 04 52 .45    -324    -57    -47    330    334 260.0  -8.1  33882  284.88 0863.54
2015 04 09 12 04 52 .71    -331      0    -51    332    336 270.0  -8.8  33914  285.43 0863.54
2015 04 09 12 04 52 .96    -320      0    -66    321    328 270.1 -11.8  33938  285.81 0863.54
2015 04 09 12 04 53 .21    -260     48    -37    265    268 280.6  -8.0  33940  285.86 0863.54
2015 04 09 12 04 53 .46    -243     -7    -35    244    247 268.3  -8.2  33910  285.35 0863.54
2015 04 09 12 04 53 .71    -222    -41     -1    226    227 259.4  -0.3  33958  286.17 0863.54
2015 04 09 12 04 53 .97    -222    -20    -44    223    228 264.8 -11.3  33986  286.64 0863.54
2015 04 09 12 04 54 .21    -136    -22      6    138    139 260.8   2.8  34016  287.15 0863.55
2015 04 09 12 04 54 .46    -243      0    -33    244    247 270.0  -7.7  34004  286.92 0863.55
2015 04 09 12 04 54 .71    -136    -87     10    162    163 237.5   3.8  34034  287.43 0863.55
2015 04 09 12 04 54 .96    -168    -22     -6    170    171 262.5  -2.3  34020  287.21 0863.55
2015 04 09 12 04 55 .22    -158    -37      8    163    164 256.7   3.1  34030  287.37 0863.55
2015 04 09 12 04 55 .47    -190    -39      7    195    196 258.3   2.1  34010  287.05 0863.55
2015 04 09 12 04 55 .72    -196     34     -3    199    200 279.9  -1.1  34028  287.35 0863.55
2015 04 09 12 04 55 .97    -277    -99    -11    295    296 250.3  -2.3  34020  287.19 0863.55
2015 04 09 12 04 56 .22    -279   -107    -27    299    301 248.9  -5.2  34014  287.09 0863.55
2015 04 09 12 04 56 .47    -243    -89    -20    259    260 249.8  -4.6  34020  287.19 0863.55
2015 04 09 12 04 56 .72    -128    -17      6    130    131 262.1   2.8  34028  287.35 0863.55
2015 04 09 12 04 56 .97    -234    -21    -18    235    236 264.8  -4.4  34042  287.56 0863.55
2015 04 09 12 04 57 .22    -191    -21     -4    193    194 263.6  -1.3  34030  287.38 0863.55
2015 04 09 12 04 57 .47    -203    -99    -20    226    227 244.0  -5.1  34008  287.01 0863.55
2015 04 09 12 04 57 .72    -190      4     10    191    192 271.5   3.1  33976  286.46 0863.55
2015 04 09 12 04 57 .98    -339     14    -67    340    347 272.5 -11.2  33956  286.12 0863.55
2015 04 09 12 04 58 .22    -365     20    -38    366    369 273.2  -6.0  33956  286.14 0863.55
2015 04 09 12 04 58 .47    -344      4    -31    345    347 270.7  -5.2  33946  285.97 0863.55
2015 04 09 12 04 58 .72    -357     -2    -61    358    364 269.6  -9.8  33964  286.27 0863.55
2015 04 09 12 04 58 .98    -355    -40    -56    358    363 263.5  -9.0  33986  286.64 0863.55
2015 04 09 12 04 59 .22    -305     17    -13    306    307 273.3  -2.6  33996  286.79 0863.55
2015 04 09 12 04 59 .47    -362    -32    -59    364    369 264.8  -9.3  33926  285.62 0863.55
2015 04 09 12 04 59 .74    -380    -28    -53    381    385 265.7  -8.0  33932  285.72 0863.55
2015 04 09 12 04 59 .99    -242     41     12    246    247 279.6   2.9  33928  285.66 0863.55
2015 04 09 12 05 00 .24    -155    -51     36    164    169 251.8  12.6  33926  285.63 0863.55
2015 04 09 12 05 00 .49    -324     -2    -82    325    336 269.5 -14.3  33892  285.03 0863.55
2015 04 09 12 05 00 .74    -269      5    -29    270    272 271.3  -6.2  33906  285.29 0863.55
2015 04 09 12 05 00 .99    -305    -32    -11    307    308 263.9  -2.1  33904  285.25 0863.55
2015 04 09 12 05 01 .24    -367    -52    -86    371    381 261.9 -13.2  33896  285.11 0863.55
2015 04 09 12 05 01 .49    -356    -40    -61    359    365 263.5  -9.7  33886  284.96 0863.55
2015 04 09 12 05 01 .74    -302    -42    -61    306    313 262.0 -11.3  33884  284.92 0863.55
2015 04 09 12 05 01 .99    -298    -42    -50    302    307 261.9  -9.5  33892  285.05 0863.55
2015 04 09 12 05 02 .24    -318    -64    -72    325    333 258.6 -12.5  33892  285.04 0863.55
2015 04 09 12 05 02 .49    -315    -52    -63    320    327 260.5 -11.2  33894  285.08 0863.55
2015 04 09 12 05 02 .75    -314    -33    -60    316    322 263.9 -10.8  33898  285.15 0863.55
2015 04 09 12 05 02 .99    -255     -8    -14    256    257 268.1  -3.1  33948  285.99 0863.55
2015 04 09 12 05 03 .24    -157     -1    -28    158    161 269.6 -10.3  33940  285.87 0863.55
2015 04 09 12 05 03 .50    -165    -71    -35    180    184 246.7 -11.1  33974  286.44 0863.55
2015 04 09 12 05 03 .74    -291    -45    -46    295    299 261.2  -9.0  33946  285.96 0863.55
2015 04 09 12 05 04 .00    -248     18     -9    249    250 274.3  -2.2  33912  285.39 0863.55
2015 04 09 12 05 04 .25    -263    -22    -47    265    270 265.0 -10.1  33904  285.25 0863.55
2015 04 09 12 05 04 .50    -252    -37    -30    255    257 261.6  -6.9  33910  285.34 0863.55
2015 04 09 12 05 04 .75    -218      9    -37    219    223 272.5  -9.6  33918  285.48 0863.55
2015 04 09 12 05 05 .00    -210    -64    -54    220    227 253.1 -13.9  33952  286.07 0863.55
2015 04 09 12 05 05 .25    -132    -57     22    144    146 246.5   8.9  33962  286.24 0863.55
2015 04 09 12 05 05 .50    -152    -55    -25    162    165 250.0  -9.0  33980  286.54 0863.55
2015 04 09 12 05 05 .75    -158     -3     -6    159    160 268.7  -2.2  34020  287.20 0863.55
2015 04 09 12 05 06 .00    -252    -35    -37    255    258 261.9  -8.3  33970  286.36 0863.55
2015 04 09 12 05 06 .25    -186     13    -29    187    190 274.1  -8.8  33980  286.52 0863.55
2015 04 09 12 05 06 .50    -169    -58    -42    179    185 250.9 -13.4  33964  286.27 0863.55
2015 04 09 12 05 06 .76    -171    -81    -10    190    191 244.7  -3.2  33958  286.15 0863.55
2015 04 09 12 05 07 .01    -221    -52    -44    228    233 256.7 -11.1  33918  285.48 0863.55
2015 04 09 12 05 07 .26    -234    -27    -51    236    242 263.4 -12.4  33908  285.30 0863.55
2015 04 09 12 05 07 .51    -263    -25    -21    265    266 264.5  -4.6  33910  285.35 0863.55
2015 04 09 12 05 07 .77    -227    -10    -37    228    232 267.4  -9.3  33920  285.53 0863.55
2015 04 09 12 05 08 .02    -123    -17     10    125    126 262.1   4.9  33934  285.76 0863.55
2015 04 09 12 05 08 .27    -216    -89    -64    234    243 247.4 -15.4  33926  285.62 0863.55
2015 04 09 12 05 08 .52    -266    -59    -31    273    275 257.4  -6.5  33960  286.18 0863.55
2015 04 09 12 05 08 .77    -204      1    -18    205    206 270.4  -5.2  33970  286.37 0863.56
2015 04 09 12 05 09 .02    -167    -20    -14    169    170 263.2  -4.9  33962  286.24 0863.56
2015 04 09 12 05 09 .27    -232     24    -18    234    235 275.9  -4.6  33978  286.50 0863.56
2015 04 09 12 05 09 .52    -181    -82    -13    199    200 245.6  -3.9  34008  287.01 0863.56
2015 04 09 12 05 09 .77    -179    -70    -10    193    194 248.7  -3.1  34050  287.72 0863.56
2015 04 09 12 05 10 .02    -225    -53    -38    232    236 256.7  -9.3  34018  287.16 0863.56
2015 04 09 12 05 10 .27    -160    -33      0    164    165 258.3  -0.3  34048  287.67 0863.56
2015 04 09 12 05 10 .52    -223    -32    -20    226    227 261.6  -5.2  34042  287.57 0863.55
2015 04 09 12 05 10 .77    -234     47     -6    239    240 281.5  -1.6  34012  287.07 0863.55
2015 04 09 12 05 11 .02    -262     54     -8    268    269 281.7  -1.8  34066  287.97 0863.55
2015 04 09 12 05 11 .27    -339     99    -41    354    357 286.3  -6.7  33924  285.60 0863.55
2015 04 09 12 05 11 .52    -347    136    -20    373    374 291.5  -3.1  33914  285.41 0863.55
2015 04 09 12 05 11 .77    -389     91    -51    400    404 283.2  -7.3  33866  284.60 0863.55
2015 04 09 12 05 12 .02    -398    106    -63    412    417 285.0  -8.7  33866  284.62 0863.55
2015 04 09 12 05 12 .28    -394     58    -69    399    406 278.4  -9.9  33860  284.52 0863.55
2015 04 09 12 05 12 .52    -416     90    -54    426    430 282.3  -7.3  33900  285.19 0863.55
2015 04 09 12 05 12 .78    -365    118    -80    384    393 287.9 -11.9  33902  285.23 0863.55
2015 04 09 12 05 13 .03    -297     59    -44    303    307 281.4  -8.3  33912  285.39 0863.55
2015 04 09 12 05 13 .28    -287    122    -50    312    317 293.1  -9.1  33912  285.39 0863.55
2015 04 09 12 05 13 .54    -338    145    -55    368    373 293.3  -8.6  33902  285.21 0863.55
2015 04 09 12 05 13 .79    -436    152    -43    463    466 289.3  -5.4  33920  285.51 0863.55
2015 04 09 12 05 14 .04    -374    137    -41    399    402 290.2  -5.9  33930  285.67 0863.55
2015 04 09 12 05 14 .29    -367    108    -42    383    386 286.4  -6.3  33900  285.18 0863.55
2015 04 09 12 05 14 .54    -412    133    -60    433    438 287.9  -8.0  33896  285.10 0863.55
2015 04 09 12 05 14 .79    -433    157    -55    461    465 290.0  -6.9  33880  284.85 0863.55
2015 04 09 12 05 15 .04    -435    220    -70    488    494 296.9  -8.2  33876  284.78 0863.55
2015 04 09 12 05 15 .29    -398    211    -68    451    457 297.9  -8.6  33880  284.85 0863.55
2015 04 09 12 05 15 .54    -366    228    -61    432    437 301.9  -8.1  33898  285.16 0863.55
2015 04 09 12 05 15 .79    -413    224    -63    470    475 298.5  -7.7  33864  284.59 0863.55
2015 04 09 12 05 16 .05    -392    224    -53    452    456 299.8  -6.7  33908  285.32 0863.55
2015 04 09 12 05 16 .29    -367    241    -52    440    444 303.3  -6.8  33914  285.42 0863.55
2015 04 09 12 05 16 .54    -201    214    -16    294    295 316.8  -3.2  33916  285.45 0863.55
2015 04 09 12 05 16 .80    -254    253    -86    359    370 314.9 -13.6  33916  285.46 0863.55
2015 04 09 12 05 17 .05    -276    200    -36    341    343 306.0  -6.1  33934  285.75 0863.55
2015 04 09 12 05 17 .30    -304    182    -49    355    359 301.0  -7.9  33948  285.99 0863.55
2015 04 09 12 05 17 .55    -332    252    -63    418    423 307.2  -8.6  33966  286.28 0863.55
2015 04 09 12 05 17 .80    -339    211    -76    400    408 301.9 -10.8  33920  285.53 0863.55
2015 04 09 12 05 18 .05    -356    214    -56    416    420 301.0  -7.7  33884  284.92 0863.55
2015 04 09 12 05 18 .30    -294    241    -49    381    385 309.4  -7.3  33892  285.04 0863.55
2015 04 09 12 05 18 .55    -307    239    -34    390    392 307.9  -5.1  33908  285.31 0863.55
2015 04 09 12 05 18 .80    -318    139    -57    348    353 293.7  -9.4  33932  285.72 0863.56
2015 04 09 12 05 19 .05    -341    149    -66    373    379 293.6 -10.1  33940  285.85 0863.56
2015 04 09 12 05 19 .30    -313    138    -75    343    352 293.9 -12.4  33958  286.16 0863.56
2015 04 09 12 05 19 .55    -264    151    -23    305    306 299.8  -4.4  33986  286.63 0863.56
2015 04 09 12 05 19 .80    -293    149    -90    329    342 297.0 -15.4  33986  286.63 0863.56
2015 04 09 12 05 20 .05    -400    104    -29    414    415 284.7  -4.1  33904  285.26 0863.56
2015 04 09 12 05 20 .30    -442    138    -55    464    468 287.4  -6.8  33874  284.74 0863.56
2015 04 09 12 05 20 .56    -491    113    -68    504    509 283.0  -7.7  33856  284.43 0863.56
2015 04 09 12 05 20 .82    -469    107    -87    482    490 282.9 -10.3  33852  284.39 0863.56
2015 04 09 12 05 21 .07    -435     66    -79    441    449 278.7 -10.2  33900  285.19 0863.56
2015 04 09 12 05 21 .32    -411     32    -45    413    416 274.6  -6.3  33926  285.63 0863.56
2015 04 09 12 05 21 .57    -296    -10     -6    297    298 267.9  -1.3  33900  285.19 0863.56
2015 04 09 12 05 21 .81    -360     39    -48    363    367 276.2  -7.6  33888  284.99 0863.56
2015 04 09 12 05 22 .07    -280     84    -41    293    296 286.8  -8.0  33920  285.51 0863.56
2015 04 09 12 05 22 .32    -386     63    -64    392    398 279.4  -9.3  33920  285.52 0863.56
2015 04 09 12 05 22 .57    -363     62    -60    369    375 279.7  -9.3  33920  285.53 0863.56
2015 04 09 12 05 22 .82    -225     86     -1    242    243 291.1  -0.3  33934  285.76 0863.56
2015 04 09 12 05 23 .07    -413    106    -62    427    432 284.5  -8.4  33934  285.76 0863.56
2015 04 09 12 05 23 .32    -427    139    -75    450    457 288.1  -9.5  33914  285.42 0863.56
2015 04 09 12 05 23 .57    -393     92    -74    404    411 283.3 -10.5  33898  285.16 0863.56
2015 04 09 12 05 23 .82    -386     89    -76    397    405 283.0 -10.9  33882  284.88 0863.56
2015 04 09 12 05 24 .07    -397     82    -70    406    413 281.7  -9.8  33940  285.85 0863.56
2015 04 09 12 05 24 .32    -363     71    -74    371    379 281.1 -11.3  33920  285.52 0863.56
2015 04 09 12 05 24 .57    -364     85    -33    374    376 283.3  -5.2  33978  286.51 0863.56
2015 04 09 12 05 24 .82    -371     79    -49    380    384 282.1  -7.5  34002  286.91 0863.56
2015 04 09 12 05 25 .07    -376     96    -35    389    391 284.4  -5.2  33942  285.89 0863.56
2015 04 09 12 05 25 .33    -342     78    -57    351    356 282.9  -9.3  33892  285.04 0863.56
2015 04 09 12 05 25 .58    -356     95    -43    369    372 285.1  -6.7  33886  284.94 0863.56
2015 04 09 12 05 25 .82    -398     81    -34    407    409 281.6  -4.9  33876  284.79 0863.56
2015 04 09 12 05 26 .08    -436    119    -46    453    456 285.3  -5.9  33870  284.68 0863.56
2015 04 09 12 05 26 .33    -413    123    -62    431    436 286.6  -8.2  33872  284.70 0863.56
2015 04 09 12 05 26 .58    -400    112    -54    416    420 285.7  -7.5  33870  284.67 0863.56
2015 04 09 12 05 26 .83    -397    103    -52    411    415 284.6  -7.2  33862  284.55 0863.56
2015 04 09 12 05 27 .08    -422    110    -60    437    442 284.6  -7.9  33856  284.43 0863.56
2015 04 09 12 05 27 .33    -407    102    -69    420    426 284.1  -9.3  33872  284.72 0863.56
2015 04 09 12 05 27 .59    -384    103    -65    398    404 285.0  -9.3  33858  284.46 0863.56
2015 04 09 12 05 27 .84    -362    109    -62    379    385 286.8  -9.3  33856  284.44 0863.57
2015 04 09 12 05 28 .09    -362    121    -59    382    387 288.6  -8.8  33872  284.72 0863.57
2015 04 09 12 05 28 .34    -328    108    -60    346    352 288.3  -9.9  33878  284.81 0863.57
2015 04 09 12 05 28 .59    -343    105    -23    359    360 287.1  -3.8  33902  285.20 0863.57
2015 04 09 12 05 28 .84    -391     94    -54    403    407 283.5  -7.7  33870  284.68 0863.57
2015 04 09 12 05 29 .09    -409     78    -60    417    422 280.8  -8.2  33870  284.68 0863.57
2015 04 09 12 05 29 .34    -383     71    -44    390    393 280.5  -6.5  33886  284.93 0863.57
2015 04 09 12 05 29 .59    -395    104    -59    409    414 284.8  -8.2  33896  285.10 0863.57
2015 04 09 12 05 29 .84    -425     86    -71    434    440 281.6  -9.4  33896  285.10 0863.57
2015 04 09 12 05 30 .10    -393     66    -78    399    407 279.6 -11.1  33898  285.14 0863.57
2015 04 09 12 05 30 .35    -390     81    -51    399    403 281.8  -7.3  33906  285.28 0863.57
2015 04 09 12 05 30 .60    -375    106    -59    390    395 285.8  -8.7  33932  285.72 0863.57
2015 04 09 12 05 30 .84    -367    133    -47    391    394 290.0  -6.9  33958  286.17 0863.57
2015 04 09 12 05 31 .10    -321    161    -43    360    363 296.6  -6.9  33952  286.04 0863.57
2015 04 09 12 05 31 .35    -316    117    -56    338    343 290.3  -9.5  33938  285.82 0863.57
2015 04 09 12 05 31 .60    -338    107    -58    355    360 287.7  -9.4  33976  286.46 0863.57
2015 04 09 12 05 31 .85    -237     92    -19    255    256 291.3  -4.4  34006  286.97 0863.57
2015 04 09 12 05 32 .10    -413    108    -54    427    431 284.7  -7.3  33938  285.83 0863.57
2015 04 09 12 05 32 .35    -423    127    -48    442    445 286.8  -6.2  33888  284.97 0863.57
2015 04 09 12 05 32 .60    -430     99    -55    442    446 283.0  -7.2  33878  284.82 0863.57
2015 04 09 12 05 32 .86    -433     66    -26    438    439 278.7  -3.5  33918  285.49 0863.57
2015 04 09 12 05 33 .10    -341     48    -62    345    351 278.0 -10.2  33908  285.31 0863.57
2015 04 09 12 05 33 .35    -391     46    -35    394    396 276.8  -5.2  33888  284.98 0863.57
2015 04 09 12 05 33 .60    -374     30    -48    376    380 274.6  -7.3  33864  284.56 0863.57
2015 04 09 12 05 33 .85    -379     37    -48    381    385 275.7  -7.2  33858  284.49 0863.57
2015 04 09 12 05 34 .10    -394    105    -79    408    416 285.0 -11.0  33854  284.40 0863.57
2015 04 09 12 05 34 .35    -365     94    -65    377    383 284.5  -9.8  33848  284.32 0863.57
2015 04 09 12 05 34 .61    -356    100    -62    370    376 285.8  -9.6  33848  284.30 0863.57
2015 04 09 12 05 34 .86    -362     95    -60    375    380 284.8  -9.1  33846  284.27 0863.57
2015 04 09 12 05 35 .11    -343    103    -62    359    365 286.7  -9.9  33848  284.30 0863.57
2015 04 09 12 05 35 .37    -327    101    -51    343    347 287.3  -8.6  33846  284.27 0863.57
2015 04 09 12 05 35 .62    -321    118    -52    343    347 290.2  -8.7  33848  284.30 0863.57
2015 04 09 12 05 35 .87    -287    122    -52    312    317 293.1  -9.6  33884  284.92 0863.56
2015 04 09 12 05 36 .12    -303    149    -40    338    341 296.3  -6.8  33898  285.16 0863.56
2015 04 09 12 05 36 .37    -208    137    -42    250    254 303.5  -9.6  33948  285.99 0863.56
2015 04 09 12 05 36 .62    -111     -5     -5    112    113 267.4  -2.6  33968  286.32 0863.56
2015 04 09 12 05 36 .87    -180     59    -53    190    197 288.2 -20.0  33986  286.64 0863.56
2015 04 09 12 05 37 .12    -137     82    -47    160    167 300.9 -16.6  33986  286.64 0863.56
2015 04 09 12 05 37 .37    -220     87    -24    237    239 291.7  -6.0  34004  286.92 0863.56
2015 04 09 12 05 37 .62    -223     91    -18    241    242 292.2  -4.4  33970  286.35 0863.56
2015 04 09 12 05 37 .87    -316     91    -43    329    332 286.2  -7.6  33862  284.54 0863.57
2015 04 09 12 05 38 .12    -325     98    -61    340    346 286.8 -10.3  33870  284.66 0863.57
2015 04 09 12 05 38 .37    -322     67    -35    330    332 281.9  -6.1  33880  284.84 0863.57
2015 04 09 12 05 38 .63    -296     59    -26    302    304 281.4  -5.1  33882  284.87 0863.57
2015 04 09 12 05 38 .87    -289     72    -27    298    300 284.1  -5.2  33926  285.61 0863.57
2015 04 09 12 05 39 .12    -308     61    -35    314    317 281.2  -6.5  33898  285.15 0863.57
2015 04 09 12 05 39 .37    -315     66    -58    322    328 281.9 -10.2  33866  284.61 0863.57
2015 04 09 12 05 39 .63    -300     75    -49    310    315 284.2  -9.1  33882  284.87 0863.56
2015 04 09 12 05 39 .87    -313     74    -51    322    327 283.4  -9.0  33862  284.55 0863.56
2015 04 09 12 05 40 .12    -312     81    -59    323    329 284.6 -10.4  33850  284.33 0863.56
2015 04 09 12 05 40 .38    -319     94    -60    333    339 286.4 -10.3  33856  284.44 0863.56
2015 04 09 12 05 40 .63    -333    125    -46    356    359 290.7  -7.5  33870  284.67 0863.56
2015 04 09 12 05 40 .88    -326     92    -45    339    343 285.8  -7.7  33894  285.09 0863.56
2015 04 09 12 05 41 .13    -285     59    -16    292    293 281.7  -3.2  33918  285.47 0863.56
2015 04 09 12 05 41 .39    -292     34    -48    295    300 276.8  -9.3  33930  285.69 0863.57
2015 04 09 12 05 41 .64    -279     38    -46    282    286 277.9  -9.3  33976  286.47 0863.57
2015 04 09 12 05 41 .89    -289     44    -16    293    294 278.8  -3.1  33894  285.07 0863.57
2015 04 09 12 05 42 .14    -301     41    -39    304    307 277.9  -7.3  33868  284.65 0863.57
2015 04 09 12 05 42 .39    -247     56    -42    254    258 282.8  -9.4  33884  284.92 0863.57
2015 04 09 12 05 42 .64    -253     63    -34    261    264 284.2  -7.5  33888  284.97 0863.57
2015 04 09 12 05 42 .89    -252     43    -52    256    262 279.7 -11.5  33876  284.78 0863.57
2015 04 09 12 05 43 .14    -264     32    -35    266    269 277.0  -7.7  33874  284.73 0863.57
2015 04 09 12 05 43 .40    -249     43    -32    253    256 279.9  -7.3  33880  284.85 0863.57
2015 04 09 12 05 43 .65    -250     13    -28    251    253 273.0  -6.5  33896  285.10 0863.57
2015 04 09 12 05 43 .89    -240     57    -44    247    252 283.5 -10.3  33894  285.07 0863.57
2015 04 09 12 05 44 .15    -257     60    -31    264    266 283.2  -6.7  33900  285.17 0863.57
2015 04 09 12 05 44 .40    -266     18    -51    267    272 273.9 -10.9  33894  285.07 0863.57
2015 04 09 12 05 44 .65    -270     46    -55    274    280 279.7 -11.3  33888  284.97 0863.57
2015 04 09 12 05 44 .90    -281     17    -25    282    284 273.5  -5.1  33942  285.89 0863.57
2015 04 09 12 05 45 .15    -282     16    -43    283    287 273.3  -8.8  33874  284.73 0863.57
2015 04 09 12 05 45 .40    -295     55    -43    301    305 280.6  -8.2  33864  284.58 0863.57
2015 04 09 12 05 45 .65    -297     42    -45    301    305 278.1  -8.6  33934  285.76 0863.57
2015 04 09 12 05 45 .90    -256    -13    -33    257    260 267.0  -7.5  33954  286.08 0863.57
2015 04 09 12 05 46 .15    -277     30    -25    279    281 276.2  -5.2  33936  285.77 0863.56
2015 04 09 12 05 46 .40    -285     40    -27    288    290 278.0  -5.4  33958  286.16 0863.56
2015 04 09 12 05 46 .65    -264     48    -19    269    270 280.4  -4.1  33952  286.04 0863.56
2015 04 09 12 05 46 .91    -252    -35    -56    255    262 262.1 -12.4  33940  285.84 0863.56
2015 04 09 12 05 47 .15    -277     20    -30    278    280 274.3  -6.2  33984  286.58 0863.56
2015 04 09 12 05 47 .40    -196     10     -3    197    198 273.0  -1.1  33964  286.25 0863.56
2015 04 09 12 05 47 .66    -204      9    -17    205    206 272.6  -4.9  33992  286.73 0863.56
2015 04 09 12 05 47 .90    -274    -17    -24    275    277 266.3  -5.1  33996  286.80 0863.56
2015 04 09 12 05 48 .15    -275     12    -42    276    280 272.6  -8.8  33930  285.69 0863.56
2015 04 09 12 05 48 .42    -246     26    -31    248    250 276.2  -7.2  33968  286.33 0863.56
2015 04 09 12 05 48 .67    -229    -17    -30    230    232 265.7  -7.5  33950  286.03 0863.56
2015 04 09 12 05 48 .91    -306     13    -48    307    311 272.5  -8.9  33920  285.52 0863.56
2015 04 09 12 05 49 .17    -285     52    -11    290    291 280.5  -2.2  33966  286.28 0863.56
2015 04 09 12 05 49 .42    -305     26    -36    307    310 275.0  -6.8  33982  286.57 0863.56
2015 04 09 12 05 49 .67    -244     45      3    249    250 280.6   0.8  33960  286.18 0863.57
2015 04 09 12 05 49 .92    -236    -13    -17    237    238 266.7  -4.1  33964  286.26 0863.57
2015 04 09 12 05 50 .17    -223     -7    -19    224    225 268.1  -4.9  34010  287.05 0863.57
2015 04 09 12 05 50 .42    -294     -3    -34    295    298 269.4  -6.7  33892  285.05 0863.57
2015 04 09 12 05 50 .67    -312     34    -45    314    318 276.4  -8.2  33860  284.50 0863.57
2015 04 09 12 05 50 .92    -337     25    -62    338    344 274.4 -10.5  33854  284.41 0863.57
2015 04 09 12 05 51 .17    -309     23    -51    310    315 274.3  -9.5  33856  284.45 0863.57
2015 04 09 12 05 51 .42    -310     20    -61    311    317 273.7 -11.1  33856  284.45 0863.56
2015 04 09 12 05 51 .67    -297      7    -57    298    304 271.5 -10.9  33856  284.45 0863.56
2015 04 09 12 05 51 .92    -288      7    -60    289    296 271.5 -11.9  33856  284.45 0863.56
2015 04 09 12 05 52 .17    -281      0    -51    282    287 270.0 -10.3  33860  284.50 0863.56
2015 04 09 12 05 52 .43    -265     17    -32    266    268 273.7  -6.9  33860  284.50 0863.56
2015 04 09 12 05 52 .68    -242     20    -25    243    245 274.8  -6.0  33872  284.70 0863.56
2015 04 09 12 05 52 .93    -243      3    -22    244    246 270.9  -5.4  33872  284.70 0863.56
2015 04 09 12 05 53 .18    -274     29    -54    276    282 276.2 -11.1  33864  284.58 0863.56
2015 04 09 12 05 53 .43    -246      0    -34    247    250 269.9  -8.0  33876  284.78 0863.56
2015 04 09 12 05 53 .68    -146     34     18    150    152 283.2   7.1  33886  284.94 0863.56
2015 04 09 12 05 53 .93    -184     -4    -31    185    188 268.7  -9.8  33880  284.86 0863.56
2015 04 09 12 05 54 .18    -252    -19    -40    253    257 265.6  -9.0  33876  284.78 0863.56
2015 04 09 12 05 54 .43    -225    -31    -25    228    230 262.0  -6.5  33902  285.23 0863.56
2015 04 09 12 05 54 .68    -220    -40    -33    224    227 259.6  -8.6  33928  285.65 0863.56
2015 04 09 12 05 54 .93     -95    -15     12     97     98 260.8   7.5  33940  285.87 0863.56
2015 04 09 12 05 55 .18    -135     27     15    138    139 281.5   6.5  33966  286.30 0863.56
2015 04 09 12 05 55 .44    -181    -20     36    183    187 263.6  11.1  33932  285.71 0863.56
2015 04 09 12 05 55 .70    -228    -13    -34    229    232 266.7  -8.6  33884  284.91 0863.56
2015 04 09 12 05 55 .94    -238     -7     -5    239    240 268.3  -1.3  33884  284.92 0863.56
2015 04 09 12 05 56 .20    -210    -40    -32    214    217 259.0  -8.6  33894  285.09 0863.56
2015 04 09 12 05 56 .44    -227     -9     -1    228    229 267.5  -0.3  33954  286.08 0863.56
2015 04 09 12 05 56 .70    -242     18    -16    243    244 274.3  -3.9  33962  286.23 0863.56
2015 04 09 12 05 56 .95    -270     20    -18    271    272 274.3  -3.9  33920  285.52 0863.56
2015 04 09 12 05 57 .20    -236     13    -26    237    239 273.3  -6.5  33898  285.15 0863.56
2015 04 09 12 05 57 .45    -242      8    -27    243    245 271.9  -6.5  33890  285.00 0863.56
2015 04 09 12 05 57 .69    -238     -2    -39    239    243 269.4  -9.3  33918  285.49 0863.56
2015 04 09 12 05 57 .95    -258      0    -37    259    262 270.0  -8.2  33868  284.63 0863.56
2015 04 09 12 05 58 .20    -253     11    -38    254    257 272.6  -8.6  33868  284.65 0863.56
2015 04 09 12 05 58 .45    -227     17    -33    228    231 274.4  -8.3  33868  284.64 0863.56
2015 04 09 12 05 58 .70    -255     13    -38    256    259 273.0  -8.6  33884  284.92 0863.55
2015 04 09 12 05 58 .95    -196    -39    -17    200    201 258.5  -4.9  33926  285.63 0863.55
2015 04 09 12 05 59 .20    -210     23    -27    212    214 276.4  -7.5  33956  286.12 0863.55
2015 04 09 12 05 59 .45    -182    -33     -4    186    187 259.6  -1.3  33964  286.27 0863.55
2015 04 09 12 05 59 .70    -152     53     -9    162    163 289.3  -3.3  33938  285.82 0863.55
2015 04 09 12 05 59 .95    -244      7    -35    245    248 271.7  -8.2  33866  284.61 0863.55
2015 04 09 12 06 00 .20    -231     17    -32    232    235 274.3  -8.0  33864  284.56 0863.55
2015 04 09 12 06 00 .45    -249     19    -45    250    255 274.4 -10.4  33858  284.46 0863.55
2015 04 09 12 06 00 .70    -251      3    -39    252    255 270.9  -8.8  33852  284.38 0863.56
2015 04 09 12 06 00 .95    -251      7    -29    252    254 271.7  -6.7  33856  284.45 0863.56
2015 04 09 12 06 01 .21    -232     19    -42    233    237 274.8 -10.3  33876  284.78 0863.56
2015 04 09 12 06 01 .46    -210     -8    -26    211    213 267.6  -7.2  33866  284.60 0863.56
2015 04 09 12 06 01 .71    -225     11    -38    226    230 273.0  -9.6  33856  284.44 0863.56
2015 04 09 12 06 01 .96    -178     -8     -7    179    180 267.2  -2.2  33882  284.87 0863.56
2015 04 09 12 06 02 .22    -215      3    -14    216    217 270.9  -3.9  33928  285.66 0863.56
2015 04 09 12 06 02 .47    -197     -2    -30    198    201 269.2  -8.8  33854  284.40 0863.56
2015 04 09 12 06 02 .72    -231      7    -32    232    235 271.9  -8.0  33854  284.41 0863.56
2015 04 09 12 06 02 .97    -237     27    -39    239    243 276.6  -9.3  33872  284.70 0863.56
2015 04 09 12 06 03 .22    -248     32    -23    251    253 277.5  -5.4  33884  284.92 0863.56
2015 04 09 12 06 03 .47    -234    -13    -30    235    237 266.7  -7.3  33890  285.00 0863.56
2015 04 09 12 06 03 .72    -204      4    -48    205    211 271.3 -13.2  33892  285.06 0863.56
2015 04 09 12 06 03 .97    -179     15    -21    180    182 275.0  -6.9  33898  285.14 0863.56
2015 04 09 12 06 04 .23    -122     62      7    138    139 297.1   2.9  33908  285.33 0863.56
2015 04 09 12 06 04 .47    -205     74    -12    219    220 290.0  -3.2  33928  285.65 0863.56
2015 04 09 12 06 04 .72    -140     48      7    149    150 289.1   2.9  33920  285.53 0863.56
2015 04 09 12 06 04 .98    -175     72     -4    190    191 292.4  -1.3  33914  285.43 0863.56
2015 04 09 12 06 05 .23    -236     55    -23    243    245 283.2  -5.6  33924  285.59 0863.56
2015 04 09 12 06 05 .48    -192     58    -22    201    203 286.8  -6.5  33950  286.02 0863.56
2015 04 09 12 06 05 .73    -117     24     10    120    121 281.9   5.0  33978  286.51 0863.56
2015 04 09 12 06 05 .98    -147    -53    -10    157    158 250.1  -3.9  33982  286.57 0863.56
2015 04 09 12 06 06 .23    -187     42    -42    192    197 282.8 -12.6  33918  285.48 0863.56
2015 04 09 12 06 06 .48    -251     59    -46    258    263 283.3 -10.3  33886  284.95 0863.56
2015 04 09 12 06 06 .73    -241     81    -24    255    257 288.6  -5.6  33878  284.82 0863.56
2015 04 09 12 06 06 .98    -276     87    -37    290    293 287.5  -7.3  33870  284.68 0863.57
2015 04 09 12 06 07 .23    -280     75    -34    290    292 285.1  -6.7  33864  284.58 0863.57
2015 04 09 12 06 07 .48    -274     94    -39    290    293 289.1  -7.7  33868  284.65 0863.57
2015 04 09 12 06 07 .73    -293     83    -39    305    308 285.9  -7.3  33866  284.60 0863.57
2015 04 09 12 06 07 .98    -279     83    -41    292    295 286.6  -8.0  33872  284.70 0863.57
2015 04 09 12 06 08 .23    -271     77    -30    282    284 285.9  -6.1  33886  284.93 0863.57
2015 04 09 12 06 08 .48    -237     63    -22    246    248 285.1  -5.2  33888  284.98 0863.57
2015 04 09 12 06 08 .73    -249     83    -33    263    266 288.4  -7.3  33868  284.65 0863.56
2015 04 09 12 06 08 .98    -255     97    -45    274    278 290.9  -9.4  33856  284.45 0863.56
2015 04 09 12 06 09 .24    -247     94    -45    265    269 290.8  -9.8  33856  284.45 0863.56
2015 04 09 12 06 09 .49    -254     89    -54    270    276 289.3 -11.3  33858  284.48 0863.56
2015 04 09 12 06 09 .74    -255     97    -45    274    278 290.9  -9.4  33856  284.45 0863.56
2015 04 09 12 06 09 .99    -252     94    -55    270    276 290.6 -11.6  33854  284.41 0863.56
2015 04 09 12 06 10 .24    -249     98    -54    268    274 291.5 -11.5  33854  284.40 0863.56
2015 04 09 12 06 10 .49    -251     98    -40    270    274 291.3  -8.6  33854  284.40 0863.56
2015 04 09 12 06 10 .75    -241    105    -35    264    267 293.6  -7.7  33854  284.41 0863.56
2015 04 09 12 06 11 .00    -238    102    -42    260    264 293.3  -9.3  33860  284.51 0863.56
2015 04 09 12 06 11 .25    -239     94    -42    257    261 291.5  -9.3  33860  284.51 0863.56
2015 04 09 12 06 11 .50    -233     80    -50    247    252 289.1 -11.5  33862  284.55 0863.56
2015 04 09 12 06 11 .75    -231     93    -38    250    253 292.0  -8.8  33860  284.50 0863.56
2015 04 09 12 06 12 .00    -230     85    -39    246    250 290.4  -9.0  33868  284.65 0863.56
2015 04 09 12 06 12 .25    -225     72    -42    237    241 287.9 -10.1  33876  284.78 0863.56
2015 04 09 12 06 12 .50    -210     82    -45    226    231 291.5 -11.3  33862  284.55 0863.57
2015 04 09 12 06 12 .75    -208     69    -36    220    224 288.4  -9.3  33878  284.82 0863.57
2015 04 09 12 06 13 .00    -218     94    -30    238    240 293.5  -7.3  33880  284.83 0863.57
2015 04 09 12 06 13 .25    -212     96    -33    233    236 294.4  -8.2  33878  284.80 0863.57
2015 04 09 12 06 13 .50    -209     98    -39    231    235 295.2  -9.6  33868  284.65 0863.57
2015 04 09 12 06 13 .75    -206     98    -33    229    232 295.5  -8.2  33862  284.54 0863.57
2015 04 09 12 06 14 .00    -202    109    -39    230    234 298.4  -9.6  33858  284.49 0863.57
2015 04 09 12 06 14 .25    -186     98    -34    211    214 297.8  -9.3  33866  284.60 0863.57
2015 04 09 12 06 14 .51    -182    107    -25    212    214 300.6  -6.9  33890  285.01 0863.57
2015 04 09 12 06 14 .76    -133     84    -15    158    159 302.5  -5.6  33886  284.96 0863.57
2015 04 09 12 06 15 .01    -172    110    -47    205    211 302.6 -12.9  33894  285.09 0863.57
2015 04 09 12 06 15 .26    -194    121    -34    229    232 302.0  -8.6  33900  285.18 0863.57
2015 04 09 12 06 15 .51    -201    113    -45    231    236 299.3 -11.1  33912  285.39 0863.57
2015 04 09 12 06 15 .76    -194    143    -25    242    244 306.4  -6.0  33924  285.59 0863.57
2015 04 09 12 06 16 .01    -209    126    -37    245    248 301.1  -8.6  33930  285.67 0863.56
2015 04 09 12 06 16 .27    -148    130    -17    197    198 311.3  -5.2  33952  286.05 0863.56
2015 04 09 12 06 16 .52    -197     83    -38    214    218 292.8 -10.3  33940  285.85 0863.56
2015 04 09 12 06 16 .77    -136    127    -26    187    189 313.1  -8.0  33974  286.42 0863.56
2015 04 09 12 06 17 .02    -197     52    -17    204    205 285.1  -4.9  33968  286.32 0863.56
2015 04 09 12 06 17 .27    -190     66    -26    202    204 289.3  -7.5  33950  286.02 0863.56
2015 04 09 12 06 17 .52    -205     97    -40    228    232 295.4 -10.1  33950  286.03 0863.56
2015 04 09 12 06 17 .77    -183     74    -30    198    201 292.2  -8.6  33950  286.03 0863.56
2015 04 09 12 06 18 .03    -182     37    -23    186    188 281.5  -7.3  33990  286.71 0863.56
2015 04 09 12 06 18 .27    -203    107    -29    230    232 298.0  -7.3  33992  286.74 0863.56
2015 04 09 12 06 18 .53    -163    139    -27    215    217 310.4  -7.3  33986  286.64 0863.56
2015 04 09 12 06 18 .78    -104    110    -13    152    153 316.7  -5.1  33988  286.67 0863.56
2015 04 09 12 06 19 .02    -170    132    -30    216    219 307.8  -8.0  33926  285.61 0863.56
2015 04 09 12 06 19 .28    -159    103    -24    190    192 302.9  -7.3  33926  285.61 0863.56
2015 04 09 12 06 19 .53    -179     85    -28    199    202 295.3  -8.0  33932  285.73 0863.56
2015 04 09 12 06 19 .78    -130     66    -14    147    148 297.1  -5.6  33962  286.24 0863.56
2015 04 09 12 06 20 .03    -124     81    -30    149    152 303.3 -11.5  33958  286.17 0863.56
2015 04 09 12 06 20 .28    -149     44    -51    156    165 286.4 -18.3  33940  285.87 0863.56
2015 04 09 12 06 20 .53    -155    -28    -40    158    164 259.6 -14.3  33942  285.88 0863.56
2015 04 09 12 06 20 .78     -93     37     -8    101    102 291.8  -4.6  33942  285.88 0863.56
2015 04 09 12 06 21 .03    -151     21     -4    153    154 277.9  -1.8  33926  285.61 0863.56
2015 04 09 12 06 21 .28    -219     16    -25    220    222 274.4  -6.5  33914  285.43 0863.56
2015 04 09 12 06 21 .54    -197     20    -28    199    202 275.9  -8.2  33918  285.50 0863.57
2015 04 09 12 06 21 .78    -211     23    -20    213    215 276.4  -5.4  33920  285.51 0863.57
2015 04 09 12 06 22 .04    -171    -29    -11    174    175 260.3  -3.7  33920  285.53 0863.57
2015 04 09 12 06 22 .29    -191     27    -46    193    199 278.1 -13.4  33890  285.01 0863.57
2015 04 09 12 06 22 .53    -181     40    -21    186    188 282.6  -6.5  33904  285.24 0863.57
2015 04 09 12 06 22 .79    -209     16    -35    210    213 274.4  -9.6  33892  285.04 0863.57
2015 04 09 12 06 23 .05    -208     35    -18    212    213 279.7  -4.9  33908  285.33 0863.57
2015 04 09 12 06 23 .30    -168     27     -9    171    172 279.2  -3.3  33906  285.29 0863.57
2015 04 09 12 06 23 .55    -195      2    -25    196    198 270.6  -7.5  33874  284.74 0863.57
2015 04 09 12 06 23 .80    -202     20    -48    204    210 275.9 -13.3  33870  284.69 0863.57
2015 04 09 12 06 24 .05    -192     48    -14    198    199 284.2  -4.1  33910  285.34 0863.57
2015 04 09 12 06 24 .30    -201     35     -8    205    206 280.1  -2.2  33920  285.53 0863.56
2015 04 09 12 06 24 .55    -206     24    -26    208    210 276.8  -7.3  33936  285.80 0863.56
2015 04 09 12 06 24 .80    -144    -21      7    146    147 261.6   2.9  33966  286.29 0863.56
2015 04 09 12 06 25 .05    -159     32    -22    163    165 281.5  -8.0  33956  286.14 0863.56
2015 04 09 12 06 25 .30    -175     60     -2    186    187 289.1  -0.7  33954  286.08 0863.56
2015 04 09 12 06 25 .56    -229     86    -35    245    248 290.8  -8.2  34000  286.87 0863.56
2015 04 09 12 06 25 .81    -191    104    -24    218    220 298.6  -6.5  34022  287.23 0863.56
2015 04 09 12 06 26 .05    -114     64    -11    131    132 299.3  -5.2  34012  287.06 0863.56
2015 04 09 12 06 26 .30    -142     46    -25    150    153 288.2  -9.8  33986  286.64 0863.56
2015 04 09 12 06 26 .56    -116     -4     -4    117    118 267.9  -2.2  34014  287.10 0863.56
2015 04 09 12 06 26 .80     -67     53     -3     86     87 308.2  -2.2  34026  287.30 0863.56
2015 04 09 12 06 27 .05    -120    100     -6    157    158 309.6  -2.2  33972  286.41 0863.56
2015 04 09 12 06 27 .31    -150     65    -31    164    168 293.5 -10.9  33954  286.10 0863.56
2015 04 09 12 06 27 .55    -147     70    -39    163    168 295.5 -13.7  33988  286.66 0863.56
2015 04 09 12 06 27 .80    -161    102    -45    191    197 302.4 -13.4  33904  285.24 0863.57
2015 04 09 12 06 28 .06    -157     85    -54    179    187 298.6 -16.8  33888  284.99 0863.57
2015 04 09 12 06 28 .31    -153     86    -35    176    180 299.5 -11.3  33918  285.50 0863.57
2015 04 09 12 06 28 .55    -141     86    -11    166    167 301.5  -4.1  33936  285.80 0863.57
2015 04 09 12 06 28 .81    -162     71    -15    178    179 293.7  -4.9  33930  285.68 0863.57
2015 04 09 12 06 29 .06    -111     48      3    122    123 293.6   1.8  33946  285.97 0863.57
2015 04 09 12 06 29 .31     -48     30      2     57     58 302.4   2.9  33956  286.14 0863.57
2015 04 09 12 06 29 .56     -86     44    -29     97    101 297.5 -21.7  33946  285.97 0863.56
2015 04 09 12 06 29 .81    -143     36    -29    148    151 284.2 -11.3  33942  285.88 0863.56
2015 04 09 12 06 30 .07    -105     71    -22    128    130 304.2  -9.8  33938  285.83 0863.56
2015 04 09 12 06 30 .32     -90     64    -31    111    116 305.5 -15.5  33942  285.90 0863.56
2015 04 09 12 06 30 .57     -89     42     -5     99    100 295.3  -3.1  33952  286.07 0863.56
2015 04 09 12 06 30 .82    -130     81    -23    154    156 302.0  -8.8  33948  285.98 0863.56
2015 04 09 12 06 31 .08    -136     54    -19    147    149 291.7  -7.7  33952  286.05 0863.56
2015 04 09 12 06 31 .32    -165     52    -23    174    176 287.7  -7.7  33948  285.98 0863.56
2015 04 09 12 06 31 .58    -134     63    -17    149    151 295.2  -6.7  33984  286.59 0863.56
2015 04 09 12 06 31 .83    -132     21    -25    134    137 279.2 -10.9  33952  286.07 0863.56
2015 04 09 12 06 32 .08    -148     15     -8    149    150 276.1  -3.2  34000  286.88 0863.56
2015 04 09 12 06 32 .32    -126     69     21    144    146 298.8   8.5  33980  286.54 0863.56
2015 04 09 12 06 32 .57    -141    108     10    178    179 307.5   3.3  33968  286.32 0863.56
2015 04 09 12 06 32 .83    -136     87      8    162    163 302.9   2.9  33970  286.37 0863.56
2015 04 09 12 06 33 .07    -154     90    -18    179    180 300.2  -6.0  33972  286.41 0863.56
2015 04 09 12 06 33 .33    -151     98    -16    181    182 303.1  -5.4  33924  285.58 0863.56
2015 04 09 12 06 33 .58    -148    107    -11    183    184 305.9  -3.7  33918  285.48 0863.56
2015 04 09 12 06 33 .83     -86     72     11    113    114 310.0   5.9  33944  285.92 0863.56
2015 04 09 12 06 34 .08     -96     62      1    115    116 302.9   0.8  33950  286.03 0863.56
2015 04 09 12 06 34 .33     -39     44     39     59     70 318.6  35.6  33972  286.41 0863.56
2015 04 09 12 06 34 .58     -61     -8      3     62     63 262.1   2.9  33968  286.34 0863.56
2015 04 09 12 06 34 .83     -16    -16     23     24     33 225.0  52.0  33984  286.61 0863.56
2015 04 09 12 06 35 .08     -24    -36     -5     44     45 214.3  -7.3  33986  286.62 0863.56
2015 04 09 12 06 35 .33      -8      9     16     13     20 316.6  56.4  34000  286.86 0863.56
2015 04 09 12 06 35 .59     -68      0    -19     69     72 270.0 -15.5  34028  287.33 0863.56
2015 04 09 12 06 35 .84     -74     -5     -9     75     76 265.7  -7.2  34050  287.70 0863.56
2015 04 09 12 06 36 .08     -51     -3     23     52     56 265.6  25.1  34048  287.67 0863.55
2015 04 09 12 06 36 .34     -32      6     44     33     55 281.4  59.4  34054  287.79 0863.55
2015 04 09 12 06 36 .59     -36     10     49     38     62 286.8  58.5  34066  287.99 0863.55
2015 04 09 12 06 36 .83     -26     27     54     38     66 316.8  61.5  34066  287.99 0863.56
2015 04 09 12 06 37 .10     -39     13      6     42     43 288.4   9.0  34064  287.96 0863.56
2015 04 09 12 06 37 .35     -65     -4     -3     66     67 265.7  -3.2  34078  288.20 0863.56
2015 04 09 12 06 37 .60    -137    -23    -22    139    141 260.3  -9.4  33994  286.78 0863.56
2015 04 09 12 06 37 .84    -118    -16     -4    120    121 262.1  -2.2  33898  285.16 0863.56
2015 04 09 12 06 38 .10    -137    -15    -29    138    142 263.4 -11.9  33862  284.54 0863.56
2015 04 09 12 06 38 .35    -144    -16    -18    145    147 263.4  -7.3  33886  284.96 0863.56
2015 04 09 12 06 38 .60    -129    -30    -17    133    135 256.7  -7.3  33888  284.99 0863.56
2015 04 09 12 06 38 .85    -118     -8    -24    119    122 266.1 -11.5  33868  284.64 0863.56
2015 04 09 12 06 39 .10    -133      0    -37    134    140 269.6 -15.5  33866  284.62 0863.56
2015 04 09 12 06 39 .35    -135    -10    -32    136    140 265.7 -13.3  33874  284.74 0863.56
2015 04 09 12 06 39 .60    -130    -17    -32    132    137 262.5 -13.9  33872  284.72 0863.56
2015 04 09 12 06 39 .86    -120    -33    -25    125    128 254.5 -11.5  33912  285.38 0863.56
2015 04 09 12 06 40 .10    -129    -39     -5    135    136 253.2  -2.2  33960  286.19 0863.56
2015 04 09 12 06 40 .36    -138    -25    -11    141    142 259.4  -4.6  33954  286.10 0863.56
2015 04 09 12 06 40 .61     -92    -52     13    106    107 240.2   7.1  33964  286.27 0863.56
2015 04 09 12 06 40 .85     -94    -62      8    113    114 236.3   4.4  33956  286.14 0863.56
2015 04 09 12 06 41 .11     -68    -68     -5     97     98 224.7  -3.1  33956  286.12 0863.56
2015 04 09 12 06 41 .36     -46    -53     25     71     76 220.5  19.4  33958  286.15 0863.56
2015 04 09 12 06 41 .61     -18    -29      1     35     36 212.5   2.8  33958  286.17 0863.56
2015 04 09 12 06 41 .86     -33    -35     54     49     72 223.2  52.2  33976  286.46 0863.56
2015 04 09 12 06 42 .11     -56    -53     78     78    110 226.9  50.1  33980  286.54 0863.56
2015 04 09 12 06 42 .36     -82    -73     41    110    117 228.2  21.0  33982  286.56 0863.56
2015 04 09 12 06 42 .61     -82    -22    -11     86     87 254.5  -7.3  33934  285.76 0863.56
2015 04 09 12 06 42 .86     -42    -51      3     67     68 219.6   2.8  33896  285.13 0863.56
2015 04 09 12 06 43 .11     -63    -39     -9     75     76 238.5  -7.2  33902  285.21 0863.56
2015 04 09 12 06 43 .36     -37    -17     31     41     51 244.7  41.7  33920  285.51 0863.56
2015 04 09 12 06 43 .61     -24    -51      5     57     58 205.3   5.9  33900  285.19 0863.56
2015 04 09 12 06 43 .86     -50    -19    -14     54     56 249.2 -14.5  33906  285.28 0863.56
2015 04 09 12 06 44 .13       8     42     41     43     59  11.6  49.0  33932  285.71 0863.56
2015 04 09 12 06 44 .37     -60      8    -25     61     65 277.9 -27.4  33910  285.34 0863.56
2015 04 09 12 06 44 .63       1     13     26     14     29   4.5  68.8  33934  285.76 0863.56
2015 04 09 12 06 44 .87     -43      8    -15     44     46 280.6 -23.6  33942  285.88 0863.56
2015 04 09 12 06 45 .13     -71    -33     -9     79     80 244.7  -6.7  33924  285.58 0863.55
2015 04 09 12 06 45 .38    -116    -29     -4    120    121 255.8  -2.2  33920  285.51 0863.55
2015 04 09 12 06 45 .63     -74    -34    -13     82     84 244.8  -9.3  33914  285.43 0863.55
2015 04 09 12 06 45 .88      -3      1      0      4      5 288.4  -2.2  33916  285.44 0863.55
2015 04 09 12 06 46 .13     -39     13     -6     42     43 288.4  -9.3  33914  285.43 0863.55
2015 04 09 12 06 46 .38     -65    -83     -6    106    107 218.3  -3.7  33906  285.29 0863.55
2015 04 09 12 06 46 .63     -39    -21     15     45     48 241.1  18.9  33908  285.31 0863.55
2015 04 09 12 06 46 .88     -25     -8     26     27     37 251.8  52.0  33916  285.44 0863.55
2015 04 09 12 06 47 .13    -118    -68    -22    137    139 239.8  -9.4  33888  284.99 0863.55
2015 04 09 12 06 47 .38     -63      4     11     64     66 274.4  10.1  33918  285.48 0863.55
2015 04 09 12 06 47 .63     -71    -14    -29     73     78 258.5 -26.9  33910  285.34 0863.55
2015 04 09 12 06 47 .88    -144    -61    -21    157    159 246.9  -7.7  33894  285.09 0863.55
2015 04 09 12 06 48 .14    -116    -60      1    131    132 242.5   0.8  33908  285.33 0863.55
2015 04 09 12 06 48 .38    -166      1    -15    167    168 270.6  -5.2  33888  284.97 0863.55
2015 04 09 12 06 48 .64    -174    -27    -31    177    180 261.0 -10.1  33882  284.89 0863.55
2015 04 09 12 06 48 .89    -196    -46    -46    202    208 256.7 -12.9  33882  284.87 0863.55
2015 04 09 12 06 49 .14    -200    -40    -16    205    206 258.5  -4.6  33886  284.94 0863.55
2015 04 09 12 06 49 .39    -157    -75    -35    175    179 244.5 -11.5  33890  285.02 0863.55
2015 04 09 12 06 49 .64    -212    -13    -27    213    215 266.5  -7.3  33896  285.11 0863.55
2015 04 09 12 06 49 .89    -204    -53    -19    211    212 255.4  -5.2  33900  285.18 0863.55
2015 04 09 12 06 50 .14    -219    -69    -41    230    234 252.3 -10.1  33874  284.75 0863.55
2015 04 09 12 06 50 .39    -204    -41    -42    209    214 258.6 -11.3  33894  285.09 0863.55
2015 04 09 12 06 50 .64    -118    -54     15    130    131 245.2   6.9  33904  285.24 0863.55
2015 04 09 12 06 50 .90     -82    -31     12     88     89 249.2   8.0  33910  285.34 0863.55
2015 04 09 12 06 51 .15     -40    -71     16     82     84 209.4  11.6  33900  285.18 0863.55
2015 04 09 12 06 51 .40    -141    -77    -29    161    164 241.1 -10.3  33884  284.92 0863.55
2015 04 09 12 06 51 .65    -146    -86     -6    170    171 239.3  -2.2  33868  284.65 0863.55
2015 04 09 12 06 51 .90    -151    -86    -18    174    175 240.2  -6.0  33880  284.86 0863.55
2015 04 09 12 06 52 .15    -127    -73     -3    147    148 240.2  -1.3  33896  285.11 0863.55
2015 04 09 12 06 52 .40     -86    -31     -2     92     93 250.0  -1.3  33902  285.23 0863.55
2015 04 09 12 06 52 .65    -192     -4    -30    193    196 268.7  -9.0  33890  285.02 0863.55
2015 04 09 12 06 52 .91    -214    -40    -36    218    221 259.2  -9.4  33896  285.11 0863.55
2015 04 09 12 06 53 .16    -210    -36    -27    214    216 260.3  -7.3  33902  285.23 0863.54
2015 04 09 12 06 53 .41    -179      1     -9    180    181 270.4  -3.1  33912  285.39 0863.54
2015 04 09 12 06 53 .65    -188     23    -10    190    191 277.2  -3.1  33888  284.99 0863.54
2015 04 09 12 06 53 .91    -203      2    -48    204    210 270.8 -13.3  33880  284.86 0863.54
2015 04 09 12 06 54 .15    -199     -9    -43    200    205 267.4 -12.4  33878  284.81 0863.54
2015 04 09 12 06 54 .40    -197     -2    -51    198    205 269.4 -14.5  33876  284.77 0863.54
2015 04 09 12 06 54 .65    -207     -6    -42    208    213 268.3 -11.6  33870  284.69 0863.54
2015 04 09 12 06 54 .90    -216     -4    -60    217    226 268.7 -15.4  33874  284.76 0863.54
2015 04 09 12 06 55 .16    -214     -1    -61    215    224 269.6 -16.0  33874  284.76 0863.54
2015 04 09 12 06 55 .41    -198     -5    -53    199    206 268.5 -15.0  33874  284.76 0863.54
2015 04 09 12 06 55 .66    -215     13    -14    216    217 273.5  -3.9  33884  284.92 0863.54
2015 04 09 12 06 55 .91    -193    -13    -34    194    198 266.1 -10.1  33882  284.89 0863.54
2015 04 09 12 06 56 .16    -190     13    -20    191    193 274.1  -6.0  33894  285.09 0863.54
2015 04 09 12 06 56 .41    -156    -16    -43    157    162 263.8 -20.2  33898  285.14 0863.54
2015 04 09 12 06 56 .67     -13    -16     33     21     39 219.6  64.7  33920  285.53 0863.54
2015 04 09 12 06 56 .91    -110    -90    -10    143    144 230.9  -4.1  33914  285.41 0863.54
2015 04 09 12 06 57 .16    -131    -89    -14    159    160 235.9  -5.4  33934  285.76 0863.54
2015 04 09 12 06 57 .42    -115    -27    -10    119    120 256.7  -5.2  33942  285.90 0863.54
2015 04 09 12 06 57 .67    -106    -48     11    117    118 245.6   5.4  33962  286.22 0863.54
2015 04 09 12 06 57 .93    -102    -13      4    103    104 262.5   2.3  33992  286.74 0863.55
2015 04 09 12 06 58 .18     -69     24     26     74     79 289.1  19.4  33984  286.59 0863.55
2015 04 09 12 06 58 .43     -92      0     31     93     99 270.4  18.4  33964  286.27 0863.55
2015 04 09 12 06 58 .67     -55    -25      5     61     62 244.8   4.9  33960  286.20 0863.55
2015 04 09 12 06 58 .92    -144    -31    -14    148    149 257.6  -5.6  33912  285.39 0863.55
2015 04 09 12 06 59 .18    -149    -24    -31    151    155 260.8 -11.6  33908  285.33 0863.55
2015 04 09 12 06 59 .43    -145    -20    -43    147    154 262.0 -16.4  33892  285.04 0863.55
2015 04 09 12 06 59 .68    -149     -6    -63    150    162 267.5 -28.2  33886  284.96 0863.54
2015 04 09 12 06 59 .93    -149      0    -43    150    156 270.4 -20.7  33884  284.92 0863.54
2015 04 09 12 07 00 .18    -147     11    -25    148    151 274.4  -9.8  33890  285.01 0863.54
2015 04 09 12 07 00 .43    -152     29    -23    155    157 281.0  -8.6  33892  285.04 0863.54
2015 04 09 12 07 00 .68    -132     22    -42    134    141 279.7 -17.6  33892  285.04 0863.54
2015 04 09 12 07 00 .93    -126      8    -41    127    133 273.9 -23.8  33898  285.16 0863.54
2015 04 09 12 07 01 .18    -117     22    -41    120    126 281.0 -23.3  33898  285.16 0863.54
2015 04 09 12 07 01 .43    -107     16    -36    109    114 278.8 -23.8  33898  285.16 0863.55
2015 04 09 12 07 01 .68     -95     21    -38     98    105 282.8 -26.9  33898  285.14 0863.55
2015 04 09 12 07 01 .93     -97     30    -29    102    107 287.7 -16.0  33882  284.87 0863.55
2015 04 09 12 07 02 .19     -93     20    -28     96    101 282.4 -16.6  33890  285.01 0863.55
2015 04 09 12 07 02 .43     -96     12    -34     97    103 277.5 -19.6  33900  285.18 0863.55
2015 04 09 12 07 02 .68     -95     12    -21     96     99 277.5 -12.4  33894  285.07 0863.55
2015 04 09 12 07 02 .94     -99     20    -19    102    104 281.5 -10.9  33896  285.11 0863.55
2015 04 09 12 07 03 .18     -90     28    -17     95     97 287.3 -10.3  33894  285.09 0863.55
2015 04 09 12 07 03 .43     -80     12    -28     81     86 278.8 -19.1  33880  284.86 0863.55
2015 04 09 12 07 03 .69     -85     22    -43     88     97 284.6 -31.7  33866  284.62 0863.55
2015 04 09 12 07 03 .93     -82     26    -33     87     93 287.7 -25.9  33866  284.62 0863.55
2015 04 09 12 07 04 .18     -82     24    -30     86     92 286.8 -19.7  33860  284.50 0863.54
2015 04 09 12 07 04 .44     -92     26    -29     96    100 285.9 -21.7  33860  284.50 0863.54
2015 04 09 12 07 04 .69     -89     23    -32     92     97 284.6 -23.3  33866  284.60 0863.54
2015 04 09 12 07 04 .95     -81     15    -29     83     89 281.0 -19.7  33864  284.57 0863.54
2015 04 09 12 07 05 .20     -87     25    -25     91     94 286.4 -20.7  33862  284.55 0863.54
2015 04 09 12 07 05 .45     -73     17    -25     76     80 283.3 -23.3  33862  284.55 0863.54
2015 04 09 12 07 05 .70     -82     12    -24     83     86 278.8 -21.2  33866  284.60 0863.54
2015 04 09 12 07 05 .95     -81     12    -22     82     86 278.8 -15.4  33866  284.60 0863.55
2015 04 09 12 07 06 .20     -86      7    -28     87     92 275.2 -18.1  33868  284.64 0863.55
2015 04 09 12 07 06 .45     -71     12    -26     73     78 279.7 -19.7  33866  284.60 0863.55
2015 04 09 12 07 06 .70     -80      8    -23     81     84 276.1 -21.2  33868  284.64 0863.55
2015 04 09 12 07 06 .95     -89     -4    -32     90     95 267.4 -23.8  33868  284.64 0863.55
2015 04 09 12 07 07 .20     -86     -7    -29     87     91 264.8 -23.6  33870  284.67 0863.55
2015 04 09 12 07 07 .45     -91      0    -33     92     97 269.6 -23.8  33868  284.65 0863.55
2015 04 09 12 07 07 .70     -85      0    -36     86     93 270.0 -28.5  33870  284.69 0863.55
2015 04 09 12 07 07 .95     -89     13    -27     91     94 278.8 -22.3  33868  284.64 0863.55
2015 04 09 12 07 08 .20     -91      7    -37     92     99 274.4 -27.4  33868  284.65 0863.55
2015 04 09 12 07 08 .46     -88      0    -45     89     99 270.4 -33.1  33870  284.69 0863.55
2015 04 09 12 07 08 .71     -81     -1    -38     82     90 269.2 -31.5  33868  284.65 0863.55
2015 04 09 12 07 08 .96     -75     -5    -25     76     80 265.7 -23.3  33872  284.72 0863.55
2015 04 09 12 07 09 .21     -68      3    -27     69     74 272.6 -26.4  33870  284.69 0863.55
2015 04 09 12 07 09 .46     -59      1    -32     60     68 271.7 -35.7  33868  284.64 0863.55
2015 04 09 12 07 09 .71     -58      9    -39     59     70 278.8 -40.0  33866  284.62 0863.55
2015 04 09 12 07 09 .96     -60      2    -32     61     68 272.6 -33.7  33870  284.69 0863.55
2015 04 09 12 07 10 .21     -77     13    -27     79     83 279.7 -23.3  33870  284.69 0863.55
2015 04 09 12 07 10 .46     -77      1    -26     78     83 271.3 -18.7  33870  284.67 0863.55
2015 04 09 12 07 10 .71     -69     -9    -19     70     73 262.1 -15.5  33870  284.67 0863.55
2015 04 09 12 07 10 .96     -64     -4    -30     65     71 265.7 -31.5  33872  284.72 0863.55
2015 04 09 12 07 11 .22     -60      0    -25     61     65 270.0 -27.4  33872  284.72 0863.55
2015 04 09 12 07 11 .46     -58      4    -30     59     66 274.4 -33.7  33870  284.67 0863.55
2015 04 09 12 07 11 .71     -59     17    -25     62     66 286.8 -27.4  33872  284.72 0863.55
2015 04 09 12 07 11 .97     -54     25    -20     60     63 295.2 -23.6  33872  284.72 0863.55
2015 04 09 12 07 12 .22     -45     31    -15     55     58 305.1 -15.5  33870  284.67 0863.55
2015 04 09 12 07 12 .48     -59     24    -15     64     66 292.6 -13.4  33870  284.67 0863.55
2015 04 09 12 07 12 .73     -52     36     -8     64     65 305.1  -7.3  33870  284.69 0863.55
2015 04 09 12 07 12 .98     -45     32     -7     56     57 305.1  -7.3  33870  284.69 0863.55
2015 04 09 12 07 13 .23     -43     43    -12     62     64 315.0 -11.5  33874  284.74 0863.55
2015 04 09 12 07 13 .48     -40     28    -13     49     51 305.1 -15.5  33868  284.65 0863.55
2015 04 09 12 07 13 .74     -37     35     -7     52     53 313.1  -8.2  33878  284.81 0863.55
2015 04 09 12 07 13 .98     -26     29     14     40     42 318.6  20.0  33898  285.14 0863.55
2015 04 09 12 07 14 .23     -46     24     -2     53     54 298.0  -2.2  33884  284.92 0863.54
2015 04 09 12 07 14 .48     -56     27     -5     63     64 296.2  -5.2  33876  284.77 0863.54
2015 04 09 12 07 14 .73     -60     28     -3     67     68 295.2  -3.1  33878  284.81 0863.54
2015 04 09 12 07 14 .98     -56     35     -4     67     68 302.5  -4.1  33872  284.72 0863.54
2015 04 09 12 07 15 .24     -42     37      1     57     58 311.3   1.8  33896  285.11 0863.54
2015 04 09 12 07 15 .48     -40     33      2     53     54 309.5   2.9  33900  285.19 0863.54
2015 04 09 12 07 15 .73     -48     45     -9     66     67 313.2  -8.2  33872  284.72 0863.54
2015 04 09 12 07 15 .99     -37     48    -12     61     63 322.2 -11.3  33880  284.84 0863.54
2015 04 09 12 07 16 .24     -36     57    -13     68     70 327.4 -11.3  33884  284.91 0863.54
2015 04 09 12 07 16 .49     -36     39     -6     54     55 316.8  -7.2  33890  285.02 0863.54
2015 04 09 12 07 16 .74     -52     52     -1     74     75 315.0  -1.3  33904  285.24 0863.54
2015 04 09 12 07 16 .99     -49     40     -5     64     65 309.5  -5.2  33900  285.19 0863.54
2015 04 09 12 07 17 .24     -49     48     -1     69     70 314.1  -1.2  33900  285.18 0863.54
2015 04 09 12 07 17 .49     -51     37      4     64     65 306.0   3.8  33902  285.21 0863.54
2015 04 09 12 07 17 .74     -67     58     -3     89     90 310.9  -2.2  33898  285.16 0863.54
2015 04 09 12 07 17 .99     -62     49     -5     80     81 308.2  -4.1  33892  285.04 0863.54
2015 04 09 12 07 18 .24     -60     37     11     71     72 301.5   9.0  33912  285.38 0863.54
2015 04 09 12 07 18 .49     -85     59     -6    104    105 305.1  -3.7  33920  285.51 0863.54
2015 04 09 12 07 18 .75     -71     40     -3     82     83 299.3  -2.2  33928  285.66 0863.54
2015 04 09 12 07 19 .01     -53     37     26     65     70 305.1  23.0  33942  285.88 0863.54
2015 04 09 12 07 19 .25     -27     32     32     43     53 319.5  40.7  33944  285.93 0863.54
2015 04 09 12 07 19 .51     -29     47     11     56     58 328.4  11.1  33948  286.00 0863.54
2015 04 09 12 07 19 .76     -31     36     42     48     63 319.5  46.9  33948  286.00 0863.54
2015 04 09 12 07 20 .00     -25     22     27     34     43 311.3  42.7  33956  286.14 0863.54
2015 04 09 12 07 20 .25      -7     11      4     14     15 327.5  19.2  33962  286.24 0863.54
2015 04 09 12 07 20 .50     -14      9     11     17     20 302.4  37.6  33958  286.15 0863.54
2015 04 09 12 07 20 .75     -97     -7    -14     98    100 265.6  -8.2  33912  285.38 0863.54
2015 04 09 12 07 21 .01     -98     33      3    104    105 288.6   1.8  33916  285.44 0863.54
2015 04 09 12 07 21 .26     -56     35     -4     67     68 302.5  -4.1  33910  285.34 0863.54
2015 04 09 12 07 21 .51     -65     36     -9     75     76 298.9  -7.3  33892  285.06 0863.54
2015 04 09 12 07 21 .76     -74     27    -19     79     82 290.4 -13.4  33898  285.16 0863.54
2015 04 09 12 07 22 .01     -57     40     -8     70     71 305.1  -7.2  33904  285.26 0863.54
2015 04 09 12 07 22 .26     -53     21      6     58     59 291.7   5.9  33920  285.53 0863.54
2015 04 09 12 07 22 .51     -37      2     16     38     41 274.3  24.1  33946  285.95 0863.54
2015 04 09 12 07 22 .76     -26     -3     12     27     29 262.1  23.0  33954  286.10 0863.54
2015 04 09 12 07 23 .01     -66    -18     -2     69     70 254.9  -2.2  33926  285.61 0863.54
2015 04 09 12 07 23 .26     -86     -7    -26     87     91 264.8 -17.0  33912  285.39 0863.53
2015 04 09 12 07 23 .51     -95      7    -31     96    101 274.4 -18.1  33912  285.39 0863.53
2015 04 09 12 07 23 .76     -79     25    -24     83     86 287.7 -21.2  33914  285.43 0863.53
2015 04 09 12 07 24 .02     -80     28    -16     85     87 289.5 -10.9  33916  285.44 0863.53
2015 04 09 12 07 24 .27     -69     32     -9     77     78 295.3  -7.3  33924  285.60 0863.53
2015 04 09 12 07 24 .51     -24     24     23     34     41 315.0  37.6  33950  286.03 0863.53
2015 04 09 12 07 24 .76     -20      6     18     21     27 286.8  45.8  33960  286.19 0863.53
2015 04 09 12 07 25 .01      -5    -11      8     13     15 205.4  35.5  33952  286.05 0863.53
2015 04 09 12 07 25 .26      -1    -11     11     12     16 188.0  52.0  33952  286.05 0863.53
2015 04 09 12 07 25 .52      -2      6     16      7     17 341.7  77.1  33970  286.37 0863.53
2015 04 09 12 07 25 .77     -29     22     29     37     47 307.8  42.7  33956  286.12 0863.53
2015 04 09 12 07 26 .03     -18     25     21     31     37 323.9  35.6  33958  286.15 0863.53
2015 04 09 12 07 26 .27     -35     35     -2     50     51 315.0  -3.1  33920  285.53 0863.53
2015 04 09 12 07 26 .53     -29     40     -1     50     51 323.9  -2.2  33914  285.41 0863.53
2015 04 09 12 07 26 .78     -32     24    -12     41     42 306.9 -20.7  33910  285.34 0863.54
2015 04 09 12 07 27 .03     -22     17    -23     29     37 307.8 -48.1  33920  285.53 0863.54
2015 04 09 12 07 27 .28     -23     23    -18     33     37 314.9 -35.8  33910  285.36 0863.54
2015 04 09 12 07 27 .53     -16     36      1     40     41 336.4   1.8  33926  285.63 0863.54
2015 04 09 12 07 27 .78     -18     25     14     31     34 323.9  25.1  33926  285.61 0863.54
2015 04 09 12 07 28 .03     -13     22     27     26     37 329.3  48.2  33944  285.93 0863.54
2015 04 09 12 07 28 .28     -13     28     27     32     41 334.7  44.8  33948  285.98 0863.54
2015 04 09 12 07 28 .53      -8     25     22     27     34 341.7  43.8  33938  285.82 0863.54
2015 04 09 12 07 28 .78     -11     20      7     23     25 331.0  17.3  33924  285.60 0863.53
2015 04 09 12 07 29 .03      -6     15      0     17     18 338.2  -1.3  33922  285.55 0863.53
2015 04 09 12 07 29 .28      -8     24      0     26     27 341.3   0.8  33924  285.60 0863.53
2015 04 09 12 07 29 .53      -8     24     -4     26     27 341.7  -9.3  33916  285.44 0863.53
2015 04 09 12 07 29 .79     -12     21     -6     25     26 329.3 -13.4  33918  285.48 0863.53
2015 04 09 12 07 30 .04      -3     11     -4     12     13 344.9 -19.7  33928  285.66 0863.53
2015 04 09 12 07 30 .28      -8     12     -8     15     17 327.5 -35.8  33922  285.56 0863.53
2015 04 09 12 07 30 .54     -18      1     -5     19     19 274.4 -23.8  33914  285.43 0863.53
2015 04 09 12 07 30 .79     -20      0     -1     21     22 270.0  -3.1  33934  285.75 0863.53
2015 04 09 12 07 31 .04     -12     -4      0     13     14 251.6  -3.1  33936  285.80 0863.53
2015 04 09 12 07 31 .29     -20      0      4     21     22 267.4  11.1  33938  285.82 0863.53
2015 04 09 12 07 31 .54     -20      0      4     21     22 267.4  11.1  33928  285.65 0863.53
2015 04 09 12 07 31 .79     -12      8      5     15     16 302.4  19.4  33928  285.66 0863.53
2015 04 09 12 07 32 .04     -13      9     12     17     20 306.0  39.7  33940  285.85 0863.53
2015 04 09 12 07 32 .29     -15      4      0     16     17 288.2   2.9  33946  285.95 0863.53
2015 04 09 12 07 32 .55     -16      5      2     17     18 288.4   6.9  33962  286.22 0863.53
2015 04 09 12 07 32 .80     -12      8      5     15     16 302.4  19.4  33972  286.41 0863.53
2015 04 09 12 07 33 .06      -9      0     16     10     18 270.8  64.7  34024  287.28 0863.53
2015 04 09 12 07 33 .31      -2     -7     23      8     24 198.5  81.0  34058  287.84 0863.53
2015 04 09 12 07 33 .56      -7     -7     25     11     27 225.0  75.0  34078  288.18 0863.53
2015 04 09 12 07 33 .80      -8    -20     29     22     36 203.6  58.5  34056  287.81 0863.53
2015 04 09 12 07 34 .05     -22    -17     32     28     42 232.2  53.3  34048  287.69 0863.53
2015 04 09 12 07 34 .30     -20    -20     27     29     39 225.0  49.0  34048  287.67 0863.53
2015 04 09 12 07 34 .56     -23    -17     25     29     38 234.0  45.8  34050  287.70 0863.53
2015 04 09 12 07 34 .81     -19    -14     27     24     36 234.0  54.3  34082  288.26 0863.53
2015 04 09 12 07 35 .06     -25     -1      9     26     28 265.7  19.4  34072  288.08 0863.53
2015 04 09 12 07 35 .31     -14     -3     11     15     18 254.9  39.7  34058  287.86 0863.53
2015 04 09 12 07 35 .56     -24     -2     17     25     30 263.9  37.6  34044  287.62 0863.53
2015 04 09 12 07 35 .81     -52    -21    -11     57     59 247.4 -11.5  33966  286.30 0863.53
2015 04 09 12 07 36 .06     -64    -25     -3     69     70 248.3  -3.1  33974  286.42 0863.53
2015 04 09 12 07 36 .31     -63    -39     -1     75     76 238.5  -1.3  33984  286.61 0863.53
2015 04 09 12 07 36 .56     -60    -52      5     80     81 228.7   3.8  33992  286.74 0863.53
2015 04 09 12 07 36 .81     -45    -54     14     71     73 219.6  11.1  34002  286.91 0863.53
2015 04 09 12 07 37 .07     -43    -45     21     63     67 223.2  18.9  34008  287.00 0863.53
2015 04 09 12 07 37 .31     -42    -34     18     55     59 230.5  18.4  34018  287.18 0863.53
2015 04 09 12 07 37 .56     -48    -23     -2     54     55 244.8  -2.2  34014  287.10 0863.53
2015 04 09 12 07 37 .82     -58    -24    -12     63     65 247.4 -11.3  33996  286.79 0863.53
2015 04 09 12 07 38 .07     -69      1     -9     70     71 270.9  -7.3  33998  286.83 0863.53
2015 04 09 12 07 38 .32     -37     -2      9     38     40 265.6  13.2  34020  287.20 0863.53
2015 04 09 12 07 38 .57     -12     11     33     17     37 313.3  70.8  34040  287.55 0863.54
2015 04 09 12 07 38 .81     -56     35     -4     67     68 302.5  -4.1  34000  286.88 0863.54
2015 04 09 12 07 39 .07     -68     48      9     84     85 305.5   6.5  34006  286.96 0863.54
2015 04 09 12 07 39 .32     -74     41    -15     85     87 298.9 -10.3  34012  287.08 0863.54
2015 04 09 12 07 39 .58     -63     61      3     88     89 314.0   2.3  34006  286.96 0863.54
2015 04 09 12 07 39 .83     -49     60     -3     78     79 320.4  -2.2  34014  287.11 0863.54
2015 04 09 12 07 40 .08     -56     49     -4     75     76 311.3  -3.1  33992  286.74 0863.54
2015 04 09 12 07 40 .33     -29     62     30     69     75 334.6  25.1  34004  286.94 0863.54
2015 04 09 12 07 40 .58     -25     74     17     79     81 340.8  12.6  34004  286.93 0863.54
2015 04 09 12 07 40 .84     -32     67     34     75     82 334.5  25.7  34014  287.11 0863.54
2015 04 09 12 07 41 .08     -74     74     67    106    125 315.0  35.5  34060  287.89 0863.54
2015 04 09 12 07 41 .33     -54     62     88     83    120 319.0  52.1  34046  287.65 0863.54
2015 04 09 12 07 41 .58     -52     38     81     65    103 305.9  56.9  34050  287.72 0863.54
2015 04 09 12 07 41 .84     -54     46     81     71    107 310.4  54.3  34060  287.89 0863.54
2015 04 09 12 07 42 .08     -45     37     23     59     63 309.6  22.0  34060  287.89 0863.54
2015 04 09 12 07 42 .34     -42     38     29     57     63 312.2  28.2  34070  288.04 0863.54
2015 04 09 12 07 42 .58     -33     33     61     47     77 315.0  57.5  34078  288.18 0863.54
2015 04 09 12 07 42 .84     -30     30     77     43     88 314.9  68.8  34082  288.26 0863.54
2015 04 09 12 07 43 .11      -7      4     39      9     40 302.4  88.0  34088  288.35 0863.54
2015 04 09 12 07 43 .34       4      4     32      7     32  45.0  89.0  34086  288.31 0863.54
2015 04 09 12 07 43 .75     -13      9     53     17     55 306.0  80.7  34096  288.50 0863.54
2015 04 09 12 07 43 .84     -16      5     43     17     46 288.2  78.2  34100  288.55 0863.54
2015 04 09 12 07 44 .09      -2    -16     43     17     46 188.0  78.2  34102  288.60 0863.54
2015 04 09 12 07 44 .34      -4    -28     54     29     61 189.8  68.9  34118  288.86 0863.54
2015 04 09 12 07 44 .59       2    -11     49     12     50 168.4  88.0  34136  289.18 0863.54
2015 04 09 12 07 44 .84       0    -15     54     16     56 179.1  81.8  34140  289.23 0863.54
2015 04 09 12 07 45 .09     -13    -72     47     74     87 190.7  35.5  34068  288.03 0863.54
2015 04 09 12 07 45 .35     -35    -92     33     99    105 200.9  18.4  33968  286.34 0863.54
2015 04 09 12 07 45 .59     -48    -68     61     84    103 215.2  39.5  34094  288.45 0863.54
2015 04 09 12 07 45 .84     -62   -110     54    127    138 209.4  24.1  34004  286.93 0863.54
2015 04 09 12 07 46 .09     -62   -111     22    128    131 209.4  10.1  33962  286.22 0863.54
2015 04 09 12 07 46 .35     -62    -95     22    114    117 213.0  11.0  33964  286.27 0863.54
2015 04 09 12 07 46 .60     -78    -98     20    126    128 218.3   9.0  33960  286.19 0863.54
2015 04 09 12 07 46 .86    -111   -101    -30    151    155 227.8 -11.3  33972  286.41 0863.54
2015 04 09 12 07 47 .11    -119   -125     -6    173    174 223.7  -2.1  34010  287.03 0863.54
2015 04 09 12 07 47 .35    -112   -140     -8    180    181 218.7  -2.6  34040  287.55 0863.54
2015 04 09 12 07 47 .61    -146   -116    -18    187    188 231.4  -5.6  34036  287.49 0863.53
2015 04 09 12 07 47 .86    -101   -114      3    153    154 221.4   1.2  34048  287.67 0863.53
2015 04 09 12 07 48 .11    -136    -98     24    168    170 234.1   8.2  34044  287.62 0863.53
2015 04 09 12 07 48 .36    -123    -69     12    142    143 240.7   4.9  34030  287.38 0863.53
2015 04 09 12 07 48 .61    -126    -80     -5    150    151 237.5  -2.2  34032  287.42 0863.53
2015 04 09 12 07 48 .86     -87    -73     -2    114    115 230.0  -1.3  34028  287.33 0863.53
2015 04 09 12 07 49 .11     -94    -77      5    122    123 230.5   2.8  34016  287.15 0863.53
2015 04 09 12 07 49 .36     -89    -67     13    112    113 233.1   6.9  34024  287.27 0863.53
2015 04 09 12 07 49 .61    -107    -60     -2    123    124 240.7  -1.2  34036  287.49 0863.53
2015 04 09 12 07 49 .86     -93    -57    -10    110    111 238.5  -5.2  34036  287.49 0863.53
2015 04 09 12 07 50 .11     -78    -56      3     97     98 234.0   2.3  34046  287.65 0863.53
2015 04 09 12 07 50 .36     -71    -65      4     97     98 227.8   2.9  34050  287.72 0863.53
2015 04 09 12 07 50 .61     -58    -63     15     86     88 222.8  10.1  34040  287.54 0863.53
2015 04 09 12 07 50 .87     -49    -49     24     70     75 225.0  19.4  34054  287.79 0863.53
2015 04 09 12 07 51 .12     -42    -50     28     66     71 220.5  24.1  34070  288.04 0863.53
2015 04 09 12 07 51 .36     -32    -38     17     50     54 220.5  19.2  34070  288.06 0863.53
2015 04 09 12 07 51 .62     -21    -33     39     40     55 212.6  51.1  34074  288.13 0863.53
2015 04 09 12 07 51 .87     -41    -36     65     55     85 228.7  55.4  34082  288.25 0863.53
2015 04 09 12 07 52 .12     -39    -29     56     49     74 233.1  54.3  34094  288.45 0863.53
2015 04 09 12 07 52 .37     -33    -33     52     48     70 225.1  52.2  34116  288.82 0863.53
2015 04 09 12 07 52 .62     -35    -22     40     42     58 237.5  51.1  34104  288.64 0863.53
2015 04 09 12 07 52 .87     -21    -17     25     28     37 230.5  47.9  34096  288.50 0863.53
2015 04 09 12 07 53 .12     -11    -17     20     21     29 214.3  52.0  34102  288.60 0863.53
2015 04 09 12 07 53 .37     -17     -9     22     20     29 241.1  50.1  34098  288.53 0863.53
2015 04 09 12 07 53 .63     -17      9     27     20     33 297.1  58.5  34098  288.52 0863.53
2015 04 09 12 07 53 .88     -15      5     10     16     18 288.6  35.5  34092  288.43 0863.53
2015 04 09 12 07 54 .13     -48     21     -2     53     54 293.5  -2.2  34074  288.13 0863.53
2015 04 09 12 07 54 .38     -27     31     10     42     44 319.5  13.2  34072  288.08 0863.53
2015 04 09 12 07 54 .63     -39     13     -1     42     43 288.4  -2.2  34070  288.04 0863.53
2015 04 09 12 07 54 .88     -36     16    -16     40     43 294.4 -26.4  34054  287.79 0863.53
2015 04 09 12 07 55 .13     -33     29     -1     45     46 311.3  -2.2  34070  288.06 0863.53
2015 04 09 12 07 55 .39     -78     27    -16     83     85 289.5 -10.9  34072  288.09 0863.53
2015 04 09 12 07 55 .64     -71     13     -6     73     74 280.6  -5.2  34080  288.21 0863.53
2015 04 09 12 07 55 .88     -44     24     -2     51     52 298.9  -2.2  34082  288.26 0863.53
2015 04 09 12 07 56 .13     -20     12      4     24     25 302.5  11.1  34076  288.16 0863.53
2015 04 09 12 07 56 .38     -32      1     -1     33     34 272.6  -2.2  34080  288.21 0863.53
2015 04 09 12 07 56 .64     -29     20     -4     36     37 304.2  -7.3  34016  287.15 0863.53
2015 04 09 12 07 56 .88     -74    -17    -42     77     87 256.7 -35.2  33940  285.87 0863.53
2015 04 09 12 07 57 .14     -77     -2    -60     78     98 268.3 -46.6  33872  284.72 0863.53
2015 04 09 12 07 57 .39     -89      0    -58     90    107 270.0 -40.0  33904  285.26 0863.53
2015 04 09 12 07 57 .65     -90     43    -59    101    116 295.8 -37.9  33934  285.76 0863.52
2015 04 09 12 07 57 .89     -66     30    -71     73    101 294.4 -53.8  33904  285.26 0863.52
2015 04 09 12 07 58 .17     -89     44    -67    100    120 296.2 -41.8  33920  285.53 0863.52
2015 04 09 12 07 58 .39     -65     52    -44     84     94 308.6 -34.2  33912  285.38 0863.52
2015 04 09 12 07 58 .65     -56     64    -40     86     94 319.0 -31.5  33926  285.63 0863.52
2015 04 09 12 07 58 .90     -67     61    -15     91     93 312.2  -9.3  33974  286.44 0863.52
2015 04 09 12 07 59 .14     -68     67    -32     96    101 314.6 -23.6  33974  286.42 0863.52
2015 04 09 12 07 59 .39     -77     63    -30    100    105 309.5 -16.6  33934  285.75 0863.52
2015 04 09 12 07 59 .65     -82     59     -7    102    103 306.0  -4.1  33936  285.78 0863.52
2015 04 09 12 07 59 .89     -98     36     -6    105    106 290.4  -3.7  33928  285.66 0863.52
2015 04 09 12 08 00 .15    -130     56     -9    142    143 293.5  -3.7  33936  285.78 0863.52
2015 04 09 12 08 00 .39    -149     50    -28    158    161 288.6 -10.3  33938  285.82 0863.52
2015 04 09 12 08 00 .66    -141     28     -2    144    145 281.5  -1.2  33918  285.48 0863.52
2015 04 09 12 08 00 .91    -160     10     -6    161    162 273.9  -2.2  33952  286.07 0863.52
2015 04 09 12 08 01 .16     -97    -19     18     99    101 258.5  10.6  33972  286.39 0863.52
2015 04 09 12 08 01 .41    -228     82    -25    243    245 290.0  -6.1  33978  286.50 0863.52
2015 04 09 12 08 01 .66    -235     87    -26    251    253 290.4  -6.0  34012  287.07 0863.52
2015 04 09 12 08 01 .91    -133     86      3    159    160 302.9   1.2  33988  286.66 0863.52
2015 04 09 12 08 02 .16    -183     71    -20    197    199 291.3  -6.0  33984  286.61 0863.52
2015 04 09 12 08 02 .41    -190     75    -35    205    209 291.7  -9.8  33994  286.78 0863.52
2015 04 09 12 08 02 .66    -156     91    -16    181    182 300.4  -5.4  34004  286.94 0863.52
2015 04 09 12 08 02 .91    -154     75     -3    172    173 296.2  -1.1  34000  286.86 0863.52
2015 04 09 12 08 03 .17    -170     53    -30    179    182 287.5  -9.6  33978  286.51 0863.52
2015 04 09 12 08 03 .42    -122     20     -9    124    125 279.7  -4.6  33996  286.79 0863.52
2015 04 09 12 08 03 .67    -125    -25    -16    128    130 258.5  -7.2  34002  286.89 0863.52
2015 04 09 12 08 03 .92     -33    -43     53     55     76 217.0  50.0  34022  287.25 0863.52
2015 04 09 12 08 04 .17    -131     24    -32    134    138 280.6 -13.4  34008  287.01 0863.52
2015 04 09 12 08 04 .42     -86     12      5     87     88 278.4   3.8  34022  287.25 0863.52
2015 04 09 12 08 04 .67    -239     40    -22    243    245 279.7  -5.2  33968  286.31 0863.52
2015 04 09 12 08 04 .92    -233    102    -39    255    258 293.6  -8.8  33972  286.40 0863.52
2015 04 09 12 08 05 .17    -275     79    -26    287    289 286.0  -5.2  33954  286.08 0863.52
2015 04 09 12 08 05 .42    -280     76     -8    291    292 285.3  -1.6  33912  285.39 0863.52
2015 04 09 12 08 05 .67    -278     56    -30    284    286 281.4  -6.2  33888  284.97 0863.52
2015 04 09 12 08 05 .93    -240     99    -37    260    263 292.6  -8.2  33942  285.89 0863.52
2015 04 09 12 08 06 .17    -226     60    -24    234    236 285.0  -6.1  33982  286.55 0863.52
2015 04 09 12 08 06 .42    -224     63    -25    233    235 285.9  -6.2  33908  285.32 0863.52
2015 04 09 12 08 06 .67    -220     73    -51    232    238 288.4 -12.6  33918  285.47 0863.52
2015 04 09 12 08 06 .92    -200     83    -60    217    225 292.6 -20.0  33910  285.34 0863.52
2015 04 09 12 08 07 .17    -174     59    -53    184    191 288.8 -20.7  33886  284.96 0863.52
2015 04 09 12 08 07 .43    -153     57    -52    164    173 290.4 -17.6  33908  285.31 0863.52
2015 04 09 12 08 07 .68    -131     52    -47    141    148 291.7 -23.6  33892  285.04 0863.52
2015 04 09 12 08 07 .93    -138     55    -47    149    156 291.7 -22.5  33890  285.02 0863.52
2015 04 09 12 08 08 .18    -157     71    -40    173    178 294.4 -13.2  33906  285.29 0863.52
2015 04 09 12 08 08 .44    -143     71    -57    160    169 296.6 -24.4  33882  284.89 0863.52
2015 04 09 12 08 08 .68    -114     65    -41    132    139 299.8 -17.6  33874  284.76 0863.52
2015 04 09 12 08 08 .94    -154     63    -19    167    169 292.4  -6.7  33866  284.62 0863.52
2015 04 09 12 08 09 .18    -134     57    -42    146    151 293.1 -21.2  33870  284.67 0863.52
2015 04 09 12 08 09 .44    -125     35    -42    131    138 285.9 -18.1  33876  284.77 0863.52
2015 04 09 12 08 09 .69    -123     50    -38    133    139 292.2 -16.0  33884  284.92 0863.52
2015 04 09 12 08 09 .93    -113     52    -28    125    129 294.8 -12.9  33872  284.70 0863.52
2015 04 09 12 08 10 .19    -109     55    -40    123    130 296.6 -18.1  33864  284.59 0863.52
2015 04 09 12 08 10 .44    -129     25    -45    132    139 281.0 -23.3  33868  284.64 0863.52
2015 04 09 12 08 10 .69    -134     48    -42    143    149 290.0 -21.2  33872  284.72 0863.52
2015 04 09 12 08 10 .94    -143     47    -30    151    155 288.2 -11.3  33890  285.01 0863.52
2015 04 09 12 08 11 .19    -161     44    -46    167    174 285.3 -15.5  33898  285.16 0863.52
2015 04 09 12 08 11 .44    -123     32    -33    128    133 284.6 -14.5  33884  284.92 0863.52
2015 04 09 12 08 11 .70    -149     55    -29    160    163 290.4 -10.3  33898  285.14 0863.52
2015 04 09 12 08 11 .94    -146     29    -24    149    152 281.4  -9.3  33926  285.63 0863.52
2015 04 09 12 08 12 .19    -123     11    -43    124    132 275.2 -19.1  33886  284.94 0863.52
2015 04 09 12 08 12 .44    -100      7    -36    101    108 274.3 -19.7  33888  284.97 0863.52
2015 04 09 12 08 12 .69     -95     13    -39     96    103 277.9 -27.4  33888  284.97 0863.52
2015 04 09 12 08 12 .95     -88     43     -4     99    100 296.2  -2.6  33930  285.68 0863.52
2015 04 09 12 08 13 .20     -40     41     11     58     60 315.8  11.1  33924  285.58 0863.52
2015 04 09 12 08 13 .44     -92     35     -3     99    100 291.3  -2.2  33888  284.99 0863.52
2015 04 09 12 08 13 .69     -87     25    -25     91     94 286.4 -20.7  33888  284.99 0863.52
2015 04 09 12 08 13 .95     -80     20    -28     83     88 284.6 -18.7  33884  284.91 0863.52
2015 04 09 12 08 14 .20     -84      4    -13     85     86 273.0  -8.8  33896  285.11 0863.52
2015 04 09 12 08 14 .46     -62    -12     -1     64     65 258.6  -1.3  33930  285.70 0863.52
2015 04 09 12 08 14 .71     -52      2    -17     53     56 272.6 -18.7  33934  285.75 0863.52
2015 04 09 12 08 14 .96     -26      8    -10     28     30 288.2 -19.7  33940  285.87 0863.51
2015 04 09 12 08 15 .21     -11      0      7     12     13 269.2  31.4  33954  286.10 0863.51
2015 04 09 12 08 15 .46     -19     -3     14     20     24 258.5  39.7  33972  286.41 0863.51
2015 04 09 12 08 15 .71     -30      0      9     31     33 269.2  17.3  33966  286.30 0863.51
2015 04 09 12 08 15 .96     -18      1      6     19     21 274.4  19.2  33948  286.00 0863.51
2015 04 09 12 08 16 .22       7     -3     20      8     21 115.3  77.1  33984  286.59 0863.51
2015 04 09 12 08 16 .46       0     -3     38      4     38 189.7  90.0  34024  287.28 0863.51
2015 04 09 12 08 16 .71      -6     -2      0      7      8 251.4  -2.2  34008  287.01 0863.51
2015 04 09 12 08 16 .97     -11      5     34     13     36 295.3  81.2  34024  287.28 0863.51
2015 04 09 12 08 17 .21     -38      2     75     39     84 274.3  70.4  34048  287.67 0863.51
2015 04 09 12 08 17 .47     -75    -66     28    101    106 228.7  15.8  33962  286.22 0863.51
2015 04 09 12 08 17 .72    -127    -88     10    155    156 235.4   3.8  33940  285.85 0863.51
2015 04 09 12 08 17 .97    -175    -95      8    200    201 241.6   2.3  33938  285.82 0863.51
2015 04 09 12 08 18 .22    -169    -28    -20    172    174 260.3  -6.7  33916  285.44 0863.51
2015 04 09 12 08 18 .47    -144     -2    -41    145    151 269.2 -15.8  33918  285.48 0863.51
2015 04 09 12 08 18 .72    -132    -26    -37    135    141 258.5 -15.4  33918  285.48 0863.51
2015 04 09 12 08 18 .97    -127   -125      7    179    180 225.6   2.5  33892  285.04 0863.51
2015 04 09 12 08 19 .22    -130   -131     14    185    186 224.8   4.6  33880  284.84 0863.51
2015 04 09 12 08 19 .47    -120   -123     17    173    174 224.3   5.9  33882  284.87 0863.51
2015 04 09 12 08 19 .72    -111   -113     29    159    162 224.5  10.6  33876  284.77 0863.51
2015 04 09 12 08 19 .97    -101   -115     15    154    155 221.5   5.9  33880  284.86 0863.51
2015 04 09 12 08 20 .22    -101   -106     17    147    149 223.7   6.9  33878  284.81 0863.51
2015 04 09 12 08 20 .47    -100   -111      4    150    151 221.9   1.8  33888  284.99 0863.51
2015 04 09 12 08 20 .72    -123   -119     14    172    173 225.8   4.9  33874  284.74 0863.51
2015 04 09 12 08 20 .98    -135   -122      8    183    184 228.0   2.5  33872  284.72 0863.51
2015 04 09 12 08 21 .23    -133    -96    -13    165    166 234.1  -4.6  33896  285.11 0863.51
2015 04 09 12 08 21 .49    -146    -97     -7    176    177 236.3  -2.3  33886  284.96 0863.51
2015 04 09 12 08 21 .73    -142    -90     -3    169    170 237.6  -1.3  33878  284.81 0863.51
2015 04 09 12 08 21 .99    -157    -82     -5    178    179 242.5  -1.6  33876  284.79 0863.51
2015 04 09 12 08 22 .23    -145    -78    -13    165    166 241.6  -4.6  33880  284.86 0863.51
2015 04 09 12 08 22 .49    -138    -88      1    164    165 237.5   0.5  33870  284.69 0863.51
2015 04 09 12 08 22 .74    -127    -92     -6    157    158 234.1  -2.2  33870  284.67 0863.51
2015 04 09 12 08 22 .99    -143   -100     -6    175    176 234.9  -2.2  33878  284.82 0863.51
2015 04 09 12 08 23 .24    -143    -81     -9    165    166 240.2  -3.1  33876  284.77 0863.51
2015 04 09 12 08 23 .49    -134    -63    -28    149    152 244.8 -10.9  33868  284.64 0863.51
2015 04 09 12 08 23 .74    -130    -61    -20    144    146 244.6  -8.2  33864  284.59 0863.50
2015 04 09 12 08 23 .99    -131    -62    -14    145    146 244.6  -5.6  33870  284.67 0863.50
2015 04 09 12 08 24 .24    -136    -45    -18    144    146 251.6  -7.3  33868  284.64 0863.50
2015 04 09 12 08 24 .49    -131    -58     -8    144    145 246.0  -3.2  33866  284.62 0863.50
2015 04 09 12 08 24 .75    -119    -47    -21    129    131 248.2  -9.3  33864  284.59 0863.50
2015 04 09 12 08 24 .99    -108    -55     -4    122    123 242.9  -2.2  33868  284.65 0863.50
2015 04 09 12 08 25 .24     -98    -60    -11    116    117 238.5  -5.6  33880  284.84 0863.50
2015 04 09 12 08 25 .50     -97    -81      5    127    128 230.0   2.3  33886  284.94 0863.50
2015 04 09 12 08 25 .74    -100    -67     10    121    122 236.3   4.9  33900  285.19 0863.50
2015 04 09 12 08 25 .99    -120    -37     -8    126    127 252.7  -3.7  33876  284.77 0863.50
2015 04 09 12 08 26 .25    -114    -40     -7    122    123 250.5  -3.7  33878  284.82 0863.50
2015 04 09 12 08 26 .50     -95    -35     -5    102    103 249.6  -3.1  33872  284.70 0863.50
2015 04 09 12 08 26 .75     -78    -47     -9     92     93 238.9  -5.6  33880  284.86 0863.50
2015 04 09 12 08 27 .00     -78    -34    -11     86     87 246.5  -7.3  33888  284.97 0863.50
2015 04 09 12 08 27 .25     -82    -20      1     85     86 255.8   1.2  33894  285.09 0863.50
2015 04 09 12 08 27 .50     -75     -5     -9     76     77 265.6  -7.3  33894  285.07 0863.50
2015 04 09 12 08 27 .75     -33     -6     12     34     37 258.5  19.4  33920  285.53 0863.50
2015 04 09 12 08 28 .00     -24     -8     14     26     29 251.6  31.4  33926  285.61 0863.50
2015 04 09 12 08 28 .26     -21    -32     18     39     42 212.6  26.2  33926  285.61 0863.50
2015 04 09 12 08 28 .51     -73    -38     -3     83     84 242.0  -2.6  33886  284.96 0863.50
2015 04 09 12 08 28 .76     -88    -46    -12    100    101 242.0  -7.2  33894  285.07 0863.50
2015 04 09 12 08 29 .01     -93    -43     -4    103    104 245.2  -2.2  33896  285.11 0863.50
2015 04 09 12 08 29 .26     -78    -47     -9     92     93 238.9  -5.6  33902  285.21 0863.50
2015 04 09 12 08 29 .52     -99    -16    -27    101    105 260.8 -15.4  33894  285.07 0863.50
2015 04 09 12 08 29 .76    -118    -39    -39    125    132 251.4 -17.6  33902  285.21 0863.50
2015 04 09 12 08 30 .01    -120    -16    -24    122    125 262.1 -11.5  33898  285.16 0863.50
2015 04 09 12 08 30 .26    -158    -38    -25    163    166 256.3  -9.0  33896  285.11 0863.50
2015 04 09 12 08 30 .52    -162    -34    -36    166    170 257.8 -12.4  33896  285.11 0863.50
2015 04 09 12 08 30 .77    -163    -58    -52    174    182 250.3 -16.8  33896  285.11 0863.50
2015 04 09 12 08 31 .02    -164    -87    -33    186    189 242.0 -10.1  33902  285.23 0863.50
2015 04 09 12 08 31 .27    -166    -76    -30    183    186 245.2  -9.3  33904  285.24 0863.50
2015 04 09 12 08 31 .52    -157    -69    -31    172    175 246.0 -10.3  33900  285.19 0863.50
2015 04 09 12 08 31 .77    -138    -68    -37    154    159 243.8 -13.7  33908  285.33 0863.50
2015 04 09 12 08 32 .02    -130    -77    -19    152    154 239.3  -7.3  33914  285.41 0863.51
2015 04 09 12 08 32 .27    -100   -100     -5    142    143 225.1  -2.2  33910  285.34 0863.51
2015 04 09 12 08 32 .52     -98    -99      7    140    141 224.9   2.9  33918  285.48 0863.51
2015 04 09 12 08 32 .77    -103    -89      0    137    138 229.1  -0.3  33916  285.44 0863.51
2015 04 09 12 08 33 .02     -87    -69      5    112    113 231.4   2.8  33914  285.43 0863.51
2015 04 09 12 08 33 .27     -88    -66     -2    110    111 233.1  -1.3  33918  285.48 0863.51
2015 04 09 12 08 33 .52     -98    -62     -6    117    118 237.6  -3.1  33918  285.50 0863.51
2015 04 09 12 08 33 .77     -82    -48    -12     96     97 239.8  -7.7  33920  285.53 0863.50
2015 04 09 12 08 34 .02     -83    -55     -2    100    101 236.3  -1.3  33924  285.58 0863.50
2015 04 09 12 08 34 .28     -78    -57      8     97     98 233.6   4.9  33930  285.70 0863.50
2015 04 09 12 08 34 .53     -73    -84     38    112    119 221.0  18.9  33940  285.85 0863.50
2015 04 09 12 08 34 .78     -63    -80     36    103    110 218.3  19.4  33934  285.76 0863.50
2015 04 09 12 08 35 .02     -56    -78     29     97    102 215.6  16.8  33952  286.05 0863.50
2015 04 09 12 08 35 .29     -60    -60     40     86     94 225.0  27.1  33944  285.92 0863.50
2015 04 09 12 08 35 .53     -57    -85     52    103    115 214.3  28.2  33960  286.20 0863.50
2015 04 09 12 08 35 .79     -38    -83     31     92     98 204.9  18.9  33918  285.48 0863.51
2015 04 09 12 08 36 .04     -40    -87     31     97    102 204.9  17.9  33916  285.44 0863.51
2015 04 09 12 08 36 .29     -59    -90     42    108    115 213.4  22.5  33936  285.80 0863.51
2015 04 09 12 08 36 .54     -47    -92     31    104    109 207.2  16.8  33900  285.19 0863.51
2015 04 09 12 08 36 .79     -47   -101     30    112    117 205.3  15.2  33894  285.07 0863.51
2015 04 09 12 08 37 .04     -72   -112     31    134    138 212.6  13.2  33892  285.06 0863.51
2015 04 09 12 08 37 .29     -74   -109     36    132    137 214.3  15.3  33896  285.11 0863.51
2015 04 09 12 08 37 .54     -75   -111     40    135    141 214.2  16.8  33902  285.21 0863.51
2015 04 09 12 08 37 .79     -74   -109     53    132    142 214.3  23.0  33906  285.29 0863.51
2015 04 09 12 08 38 .04     -75    -84     -4    113    114 221.9  -2.2  33906  285.29 0863.51
2015 04 09 12 08 38 .29     -51    -67    -14     85     87 217.0  -9.3  33914  285.43 0863.51
2015 04 09 12 08 38 .54     -32    -59     -2     68     69 209.0  -2.2  33916  285.44 0863.51
2015 04 09 12 08 38 .80     -44    -72     -6     85     86 211.6  -4.1  33910  285.36 0863.51
2015 04 09 12 08 39 .04     -70    -70     14    100    102 225.0   8.0  33908  285.33 0863.51
2015 04 09 12 08 39 .30     -69    -79      5    106    107 221.0   2.8  33908  285.31 0863.51
2015 04 09 12 08 39 .55     -84    -69    -13    109    110 230.5  -7.2  33922  285.56 0863.51
2015 04 09 12 08 39 .79     -68    -88      8    112    113 217.8   4.4  33916  285.46 0863.51
2015 04 09 12 08 40 .05     -90    -79      0    121    122 228.7   0.2  33922  285.55 0863.51
2015 04 09 12 08 40 .30     -85    -73      5    113    114 229.1   2.8  33916  285.46 0863.51
2015 04 09 12 08 40 .55     -78    -78     -2    111    112 225.1  -1.2  33914  285.43 0863.51
2015 04 09 12 08 40 .80     -85    -85     -6    121    122 224.9  -3.2  33906  285.29 0863.51
2015 04 09 12 08 41 .05     -85    -83    -10    120    121 225.6  -5.1  33908  285.33 0863.51
2015 04 09 12 08 41 .30     -58    -79      5     99    100 216.5   2.9  33906  285.29 0863.51
2015 04 09 12 08 41 .55     -63    -80      0    102    103 218.3  -0.3  33896  285.13 0863.51
2015 04 09 12 08 41 .80     -66    -87      9    110    111 217.4   4.9  33898  285.14 0863.51
2015 04 09 12 08 42 .05     -67    -80      4    105    106 219.7   2.3  33898  285.16 0863.50
2015 04 09 12 08 42 .31     -69    -90     22    114    117 217.8  11.0  33896  285.11 0863.50
2015 04 09 12 08 42 .56     -75    -80     12    111    112 223.2   6.5  33886  284.96 0863.50
2015 04 09 12 08 42 .81     -79    -84    -32    116    121 223.3 -15.5  33892  285.06 0863.50
2015 04 09 12 08 43 .06    -113    -74    -35    136    141 236.7 -14.5  33878  284.82 0863.50
2015 04 09 12 08 43 .32    -107    -87    -32    138    142 230.9 -13.4  33868  284.64 0863.50
2015 04 09 12 08 43 .57     -97    -99     -6    139    140 224.5  -2.6  33880  284.86 0863.50
2015 04 09 12 08 43 .82     -97    -97     -3    138    139 225.2  -1.3  33884  284.91 0863.50
2015 04 09 12 08 44 .07     -79   -101    -33    129    134 218.3 -14.5  33874  284.74 0863.50
2015 04 09 12 08 44 .32    -104   -104     -8    148    149 225.0  -3.1  33884  284.91 0863.50
2015 04 09 12 08 44 .57     -81   -118      1    144    145 214.3   0.7  33880  284.86 0863.50
2015 04 09 12 08 44 .82     -89   -124      7    153    154 215.6   2.9  33878  284.82 0863.50
2015 04 09 12 08 45 .07     -92   -127     12    157    158 216.0   4.6  33888  284.99 0863.50
2015 04 09 12 08 45 .32     -97   -116     -3    152    153 219.7  -1.2  33884  284.92 0863.50
2015 04 09 12 08 45 .57     -94   -112     -5    147    148 220.1  -2.2  33878  284.82 0863.50
2015 04 09 12 08 45 .82     -76   -112     -1    136    137 214.2  -0.7  33890  285.02 0863.50
2015 04 09 12 08 46 .07     -74   -124      2    145    146 210.8   0.8  33890  285.01 0863.50
2015 04 09 12 08 46 .33     -74   -101    -11    126    127 216.1  -5.2  33874  284.74 0863.50
2015 04 09 12 08 46 .57     -63   -100      4    119    120 212.5   2.3  33888  284.99 0863.49
2015 04 09 12 08 46 .82     -57    -87     13    105    106 213.4   7.1  33892  285.06 0863.49
2015 04 09 12 08 47 .07     -52    -98     22    112    115 208.1  11.1  33892  285.06 0863.49
2015 04 09 12 08 47 .32     -64   -106     20    125    127 211.2   9.5  33894  285.07 0863.49
2015 04 09 12 08 47 .57     -63    -98     27    117    121 212.6  13.2  33896  285.11 0863.49
2015 04 09 12 08 47 .82     -59   -113     24    128    131 207.6  11.0  33894  285.09 0863.49
2015 04 09 12 08 48 .08     -72    -96     12    121    122 217.0   5.9  33904  285.26 0863.49
2015 04 09 12 08 48 .32     -65    -94     18    115    117 214.7   8.9  33902  285.21 0863.49
2015 04 09 12 08 48 .58     -52    -79     11     95     96 213.4   6.9  33900  285.18 0863.49
2015 04 09 12 08 48 .83     -52    -79     11     95     96 213.4   6.9  33898  285.14 0863.49
2015 04 09 12 08 49 .08     -57    -71      5     92     93 218.7   3.3  33896  285.13 0863.49
2015 04 09 12 08 49 .33     -65    -64     -3     92     93 225.1  -2.2  33894  285.07 0863.49
2015 04 09 12 08 49 .59     -77    -67      5    103    104 228.7   2.9  33882  284.87 0863.49
2015 04 09 12 08 49 .84    -100    -80     -2    129    130 231.4  -1.3  33874  284.74 0863.49
2015 04 09 12 08 50 .09     -90    -78     -5    120    121 229.1  -2.6  33874  284.74 0863.49
2015 04 09 12 08 50 .34     -78    -68      5    104    105 228.7   2.9  33876  284.77 0863.49
2015 04 09 12 08 50 .59     -76    -72      0    105    106 226.4   0.2  33868  284.65 0863.49
2015 04 09 12 08 50 .84     -76    -72      0    105    106 226.4   0.2  33868  284.65 0863.49
2015 04 09 12 08 51 .10     -83   -104     36    134    139 218.7  15.3  33918  285.48 0863.49
2015 04 09 12 08 51 .34     -78   -107     11    133    134 216.0   4.9  33882  284.89 0863.49
2015 04 09 12 08 51 .60     -77   -105     25    131    134 216.5  11.1  33906  285.28 0863.49
2015 04 09 12 08 51 .84     -60    -85     30    105    110 215.2  16.3  33890  285.02 0863.49
2015 04 09 12 08 52 .09     -64    -88     51    109    120 216.0  27.1  33892  285.06 0863.49
2015 04 09 12 08 52 .35     -63    -92     38    112    119 214.7  18.9  33904  285.24 0863.49
2015 04 09 12 08 52 .60     -67    -87     54    111    123 217.8  27.3  33948  285.98 0863.49
2015 04 09 12 08 52 .84    -106    -89      6    139    140 230.0   2.8  33914  285.43 0863.48
2015 04 09 12 08 53 .10     -93    -81     -4    124    125 229.1  -2.2  33888  284.97 0863.48
2015 04 09 12 08 53 .35     -84    -87      5    122    123 224.1   2.3  33942  285.88 0863.48
2015 04 09 12 08 53 .60     -72    -68     11    100    101 226.9   6.5  33926  285.61 0863.48
2015 04 09 12 08 53 .85     -81    -64     -4    104    105 231.4  -2.2  33904  285.24 0863.48
2015 04 09 12 08 54 .10     -85    -80     -2    117    118 226.8  -1.3  33896  285.11 0863.48
2015 04 09 12 08 54 .35     -99    -98     -3    140    141 225.1  -1.3  33894  285.07 0863.48
2015 04 09 12 08 54 .60    -105    -88    -13    138    139 230.0  -5.6  33888  284.99 0863.48
2015 04 09 12 08 54 .85     -86    -86     -2    122    123 224.9  -1.3  33892  285.06 0863.48
2015 04 09 12 08 55 .10     -87    -78      2    118    119 228.2   1.2  33912  285.38 0863.48
2015 04 09 12 08 55 .35     -97    -70     -2    120    121 234.0  -1.3  33904  285.26 0863.48
2015 04 09 12 08 55 .60    -103    -75    -16    128    130 234.1  -7.3  33896  285.11 0863.48
2015 04 09 12 08 55 .85    -103    -65    -14    122    123 237.6  -6.7  33888  284.97 0863.48
2015 04 09 12 08 56 .12     -86    -69    -15    111    113 231.4  -7.7  33894  285.07 0863.48
2015 04 09 12 08 56 .37     -80    -73    -11    109    110 227.3  -6.2  33904  285.26 0863.48
2015 04 09 12 08 56 .62     -84    -80      5    117    118 226.4   2.8  33950  286.03 0863.49
2015 04 09 12 08 56 .86     -96    -85      6    129    130 228.7   2.9  33928  285.65 0863.49
2015 04 09 12 08 57 .11     -81    -86     10    119    120 223.2   4.9  33916  285.46 0863.49
2015 04 09 12 08 57 .37     -75    -84      4    113    114 221.9   2.3  33930  285.68 0863.49
2015 04 09 12 08 57 .62     -95   -102     23    140    142 222.8   9.5  33962  286.24 0863.49
2015 04 09 12 08 57 .87     -83    -78      5    115    116 226.9   2.9  33966  286.29 0863.49
2015 04 09 12 08 58 .12     -73    -81     26    110    114 221.9  13.2  33970  286.35 0863.49
2015 04 09 12 08 58 .37     -77    -95     21    123    125 219.2  10.1  33962  286.22 0863.49
2015 04 09 12 08 58 .62     -77    -82     12    113    114 223.2   6.5  33974  286.44 0863.49
2015 04 09 12 08 58 .87     -69    -94     27    117    121 216.5  13.2  33980  286.54 0863.49
2015 04 09 12 08 59 .12     -68   -107     22    128    131 212.6  10.1  33908  285.33 0863.49
2015 04 09 12 08 59 .37     -73   -106     25    129    132 214.7  11.1  33904  285.24 0863.49
2015 04 09 12 08 59 .62     -71   -115     14    136    137 211.6   5.9  33912  285.39 0863.49
2015 04 09 12 08 59 .87     -81    -86     -4    119    120 223.2  -2.2  33908  285.31 0863.49
2015 04 09 12 09 00 .13     -72    -79     -2    108    109 222.3  -1.3  33914  285.43 0863.49
2015 04 09 12 09 00 .38     -65    -67     -2     94     95 224.1  -1.3  33930  285.68 0863.49
2015 04 09 12 09 00 .62     -56    -67     -3     88     89 219.6  -2.2  33940  285.85 0863.49
2015 04 09 12 09 00 .87     -42    -43    -11     61     62 224.1 -10.3  33944  285.92 0863.49
2015 04 09 12 09 01 .13     -30    -39      0     50     51 217.8  -0.3  33956  286.12 0863.48
2015 04 09 12 09 01 .38     -30    -45     26     55     60 214.3  27.2  33958  286.15 0863.48
2015 04 09 12 09 01 .62     -22    -72     32     76     82 196.9  24.1  33966  286.30 0863.48
2015 04 09 12 09 01 .88     -18    -54     29     58     64 198.7  28.2  33962  286.22 0863.48
2015 04 09 12 09 02 .13     -28    -37     38     47     60 217.0  43.7  33968  286.32 0863.48
2015 04 09 12 09 02 .38     -43    -41     42     60     73 226.9  39.5  33974  286.42 0863.48
2015 04 09 12 09 02 .63     -52    -52     62     74     96 225.0  44.3  34016  287.15 0863.48
2015 04 09 12 09 02 .88     -27    -81     61     86    105 198.5  39.1  33980  286.54 0863.48
2015 04 09 12 09 03 .14     -43    -48     61     65     89 222.3  48.5  33992  286.73 0863.48
2015 04 09 12 09 03 .39     -28    -35     45     46     64 218.7  51.1  33982  286.56 0863.48
2015 04 09 12 09 03 .64     -31    -41     42     52     66 217.8  43.7  33918  285.48 0863.48
2015 04 09 12 09 03 .90     -60    -53     67     81    105 228.7  43.8  33954  286.08 0863.48
2015 04 09 12 09 04 .14     -24    -60     76     65    100 201.8  55.4  33970  286.35 0863.48
2015 04 09 12 09 04 .39     -12    -59     76     61     97 191.5  56.9  33984  286.61 0863.48
2015 04 09 12 09 04 .64     -14    -32     61     36     70 203.6  66.8  33986  286.62 0863.48
2015 04 09 12 09 04 .89     -15    -44     64     47     79 198.7  60.0  33984  286.59 0863.48
2015 04 09 12 09 05 .14     -51    -76     42     92    101 214.3  26.6  33912  285.38 0863.48
2015 04 09 12 09 05 .39     -35    -80     30     88     94 204.1  18.9  33920  285.53 0863.48
2015 04 09 12 09 05 .65     -29   -108    -14    112    113 195.1  -7.2  33928  285.66 0863.48
2015 04 09 12 09 05 .90       2   -107     -7    108    109 178.6  -3.7  33950  286.03 0863.48
2015 04 09 12 09 06 .15      48    -76     -9     91     92 147.5  -6.2  33956  286.12 0863.48
2015 04 09 12 09 06 .40      10    -77     16     78     80 171.9  11.6  33918  285.50 0863.48
2015 04 09 12 09 06 .65     -17    -67     46     70     83 194.3  36.0  33956  286.12 0863.48
2015 04 09 12 09 06 .90      39    -70     37     81     89 151.0  26.2  33974  286.42 0863.48
2015 04 09 12 09 07 .15      32    -97     39    103    110 161.7  21.5  33926  285.63 0863.48
2015 04 09 12 09 07 .40       6    -79     44     80     91 175.6  31.4  33938  285.82 0863.48
2015 04 09 12 09 07 .65      18   -105     22    107    110 169.8  11.6  33896  285.11 0863.47
2015 04 09 12 09 07 .90       7   -114     27    115    119 176.4  13.1  33890  285.02 0863.47
2015 04 09 12 09 08 .15      16    -93     50     95    107 170.2  30.3  33922  285.55 0863.47
2015 04 09 12 09 08 .40      22    -68     60     72     93 162.2  44.3  33958  286.17 0863.47
2015 04 09 12 09 08 .65     -15    -83     44     85     95 190.7  29.3  33904  285.24 0863.47
2015 04 09 12 09 08 .90     -18    -90     32     92     98 191.6  19.2  33896  285.11 0863.47
2015 04 09 12 09 09 .15     -29    -88     35     93     99 198.3  21.5  33900  285.18 0863.47
2015 04 09 12 09 09 .40     -32    -98      9    104    105 198.3   5.4  33888  284.97 0863.48
2015 04 09 12 09 09 .65     -30    -90     18     96     98 198.7  11.1  33892  285.06 0863.48
2015 04 09 12 09 09 .90     -27    -82     16     87     89 198.5  10.6  33890  285.02 0863.48
2015 04 09 12 09 10 .16     -25    -87     18     91     93 196.0  11.6  33890  285.01 0863.48
2015 04 09 12 09 10 .42     -20    -81     31     84     89 194.3  20.4  33894  285.07 0863.48
2015 04 09 12 09 10 .66     -10    -75     36     76     84 188.0  27.2  33900  285.18 0863.48
2015 04 09 12 09 10 .92      -6    -74     22     75     79 185.3  16.8  33896  285.13 0863.48
2015 04 09 12 09 11 .17      -1    -78     20     79     82 180.9  14.3  33898  285.16 0863.48
2015 04 09 12 09 11 .42      -6    -86     24     87     91 184.5  15.8  33898  285.16 0863.48
2015 04 09 12 09 11 .67      -6    -86     24     87     91 184.5  15.8  33898  285.16 0863.48
2015 04 09 12 09 11 .92     -15    -88     31     90     96 189.8  19.4  33900  285.18 0863.48
2015 04 09 12 09 12 .17       1    -90     21     91     94 179.1  13.2  33900  285.19 0863.47
2015 04 09 12 09 12 .42     -14    -81     17     83     85 189.8  11.6  33898  285.14 0863.47
2015 04 09 12 09 12 .67      -7    -70     19     71     74 186.2  15.2  33894  285.07 0863.47
2015 04 09 12 09 12 .92      -5    -70     16     71     73 184.5  13.2  33904  285.24 0863.47
2015 04 09 12 09 13 .17      -6    -63     24     64     68 186.2  20.0  33902  285.21 0863.47
2015 04 09 12 09 13 .42     -16    -61     22     64     68 195.1  19.4  33896  285.13 0863.47
2015 04 09 12 09 13 .67     -21    -63     15     67     69 198.5  13.2  33894  285.07 0863.47
2015 04 09 12 09 13 .92     -13    -66     18     68     71 191.6  15.2  33900  285.18 0863.47
2015 04 09 12 09 14 .18      -4    -59     21     60     64 184.5  19.4  33908  285.31 0863.47
2015 04 09 12 09 14 .42       0    -59     18     60     63 180.9  17.3  33906  285.29 0863.47
2015 04 09 12 09 14 .68      -9    -55     11     56     58 189.8  11.1  33910  285.36 0863.47
2015 04 09 12 09 14 .93     -10    -44     28     46     53 193.4  35.5  33926  285.63 0863.47
2015 04 09 12 09 15 .18     -14    -52     24     54     59 195.1  25.1  33914  285.43 0863.47
2015 04 09 12 09 15 .43     -14    -47     20     50     53 196.9  22.0  33926  285.63 0863.47
2015 04 09 12 09 15 .68      -7    -23     38     25     45 198.5  64.6  33964  286.27 0863.47
2015 04 09 12 09 15 .93      13    -41     40     44     59 162.2  47.9  34010  287.03 0863.47
2015 04 09 12 09 16 .18       2    -31     32     32     45 175.5  50.1  34038  287.50 0863.47
2015 04 09 12 09 16 .43      -5      1     34      6     34 288.4  90.0  34046  287.65 0863.47
2015 04 09 12 09 16 .68      -8      1     29      9     30 281.5  80.7  34062  287.91 0863.47
2015 04 09 12 09 16 .94     -14      9     38     17     41 302.4  75.0  34056  287.81 0863.47
2015 04 09 12 09 17 .19      -2      4     43      5     43 327.5  90.0  34056  287.81 0863.47
2015 04 09 12 09 17 .44       0    -19     45     20     49 180.9  76.1  34042  287.57 0863.48
2015 04 09 12 09 17 .69      -9    -28     63     30     69 198.7  72.9  34032  287.40 0863.48
2015 04 09 12 09 17 .95      -3    -47     62     48     78 184.4  57.9  34016  287.15 0863.48
2015 04 09 12 09 18 .19       7      9     48     12     49  36.1  85.9  34064  287.96 0863.48
2015 04 09 12 09 18 .44      -9      1     49     10     50 281.5  89.1  34048  287.67 0863.48
2015 04 09 12 09 18 .69     -21     -8     39     23     45 248.3  65.7  34028  287.33 0863.48
2015 04 09 12 09 18 .94     -19      1     41     20     45 274.4  71.9  34028  287.35 0863.48
2015 04 09 12 09 19 .19      -9    -27     50     29     57 198.3  66.8  34000  286.88 0863.48
2015 04 09 12 09 19 .45     -33    -60     40     69     79 209.0  32.9  33992  286.73 0863.48
2015 04 09 12 09 19 .70     -25    -53     29     59     65 205.3  28.2  33970  286.37 0863.48
2015 04 09 12 09 19 .95     -30    -64     29     72     77 205.5  23.0  33962  286.22 0863.48
2015 04 09 12 09 20 .20     -32    -67     13     75     77 205.5  10.1  33956  286.14 0863.48
2015 04 09 12 09 20 .45     -27    -52    -11     59     61 208.1 -11.3  33948  285.98 0863.48
2015 04 09 12 09 20 .70     -16    -51      2     54     55 197.8   2.9  33962  286.24 0863.48
2015 04 09 12 09 20 .95     -17    -26     -9     32     34 212.6 -15.4  33936  285.78 0863.48
2015 04 09 12 09 21 .20     -23    -19      1     31     32 230.4   2.8  33942  285.90 0863.48
2015 04 09 12 09 21 .45     -21    -16      4     27     28 232.2   9.0  33944  285.92 0863.48
2015 04 09 12 09 21 .70     -14     -1      0     15     16 265.7   2.9  33948  286.00 0863.48
2015 04 09 12 09 21 .96      -7    -17     19     19     26 201.8  50.1  33966  286.29 0863.48
2015 04 09 12 09 22 .20     -22    -34     17     41     44 213.4  23.0  33994  286.76 0863.47
2015 04 09 12 09 22 .45     -23    -21     23     32     39 226.9  39.7  34006  286.98 0863.47
2015 04 09 12 09 22 .70     -19    -14     20     24     31 234.0  43.8  33996  286.79 0863.47
2015 04 09 12 09 22 .95     -16    -24     23     30     37 214.3  41.7  33978  286.51 0863.47
2015 04 09 12 09 23 .20     -12    -40     32     42     52 196.9  42.7  33924  285.58 0863.47
2015 04 09 12 09 23 .46     -11    -47     33     49     59 193.4  37.6  33926  285.63 0863.47
2015 04 09 12 09 23 .70     -14    -43     31     46     55 197.8  35.6  33920  285.51 0863.47
2015 04 09 12 09 23 .97     -23    -44     29     50     57 208.1  33.5  33924  285.60 0863.48
2015 04 09 12 09 24 .22     -21    -55     10     59     60 200.9  10.1  33914  285.43 0863.48
2015 04 09 12 09 24 .47     -23    -50     15     56     59 205.3  15.3  33918  285.48 0863.48
2015 04 09 12 09 24 .72     -12    -45     -6     47     48 195.1  -7.3  33914  285.41 0863.48
2015 04 09 12 09 24 .97      10    -32      6     34     35 161.7  11.1  33920  285.53 0863.48
2015 04 09 12 09 25 .22       7    -25      7     27     28 163.1  15.3  33924  285.58 0863.48
2015 04 09 12 09 25 .47      -1    -21      7     22     24 182.7  19.4  33924  285.58 0863.48
2015 04 09 12 09 25 .72     -10    -32     14     34     36 198.3  23.0  33922  285.56 0863.47
2015 04 09 12 09 25 .97     -24    -35      0     43     44 214.3  -0.3  33924  285.58 0863.47
2015 04 09 12 09 26 .22     -18    -44      5     48     49 202.7   6.9  33918  285.48 0863.47
2015 04 09 12 09 26 .47     -14    -46     -1     49     50 196.9  -2.2  33934  285.76 0863.47
2015 04 09 12 09 26 .73      -9    -27     16     29     33 198.3  31.4  33952  286.05 0863.47
2015 04 09 12 09 26 .97     -15    -29     18     33     37 207.2  31.4  33972  286.41 0863.47
2015 04 09 12 09 27 .23     -20    -19     27     28     38 226.7  52.0  33988  286.66 0863.47
2015 04 09 12 09 27 .48     -23    -19     30     30     42 230.5  50.1  34036  287.49 0863.47
2015 04 09 12 09 27 .72      -8    -20     36     22     42 203.6  65.7  34038  287.52 0863.47
2015 04 09 12 09 27 .97      -9    -27     29     29     41 198.3  50.1  34030  287.38 0863.47
2015 04 09 12 09 28 .23     -19    -35     26     41     48 209.0  35.5  34004  286.93 0863.47
2015 04 09 12 09 28 .48      -7    -32     38     33     50 193.4  55.4  34006  286.96 0863.47
2015 04 09 12 09 28 .72      -2    -25     36     26     44 186.2  60.5  34004  286.93 0863.47
2015 04 09 12 09 28 .98      -5    -21     33     22     39 193.4  63.6  34008  287.01 0863.47
2015 04 09 12 09 29 .23      -1    -12     24     13     27 184.5  68.8  33992  286.74 0863.47
2015 04 09 12 09 29 .48       2      2     29      4     29  45.0  90.0  33996  286.79 0863.47
2015 04 09 12 09 29 .73       4      0     25      5     25 101.5  89.0  34014  287.11 0863.47
2015 04 09 12 09 29 .98       0     -7     34      8     34 182.7  89.0  34014  287.11 0863.47
2015 04 09 12 09 30 .23       0    -24     34     25     42 180.9  59.4  34030  287.37 0863.47
2015 04 09 12 09 30 .48      -1     -4     38      5     38 198.5  90.0  34034  287.43 0863.47
2015 04 09 12 09 30 .73      -5     -4     27      7     27 230.5  82.8  34044  287.62 0863.47
2015 04 09 12 09 31 .00      -4      0     28      5     28 281.5  90.0  34070  288.04 0863.47
2015 04 09 12 09 31 .24      -7      2     28      8     29 288.6  80.7  34076  288.14 0863.47
2015 04 09 12 09 31 .49     -18      2     27     19     33 277.9  60.5  34054  287.77 0863.47
2015 04 09 12 09 31 .74     -15    -12     25     20     32 230.5  56.4  34050  287.70 0863.47
2015 04 09 12 09 31 .99     -20    -12     34     24     41 237.6  60.5  34040  287.54 0863.47
2015 04 09 12 09 32 .25     -15    -21     45     26     51 216.1  67.7  34050  287.72 0863.47
2015 04 09 12 09 32 .50     -24    -27     43     37     56 221.4  54.3  34056  287.81 0863.47
2015 04 09 12 09 32 .75      -7     -7     39     11     40 225.0  83.9  34078  288.18 0863.47
2015 04 09 12 09 33 .00       9      0     30     10     31  90.8  81.0  34088  288.35 0863.48
2015 04 09 12 09 33 .25       4      0     32      5     32  90.0  90.0  34094  288.47 0863.48
2015 04 09 12 09 33 .50      -7      6     32     10     33 309.5  80.7  34112  288.75 0863.48
2015 04 09 12 09 33 .75       0     -3     32      4     32 184.5  90.0  34120  288.91 0863.48
2015 04 09 12 09 34 .00      -6     -6     26      9     27 225.0  81.0  34100  288.55 0863.48
2015 04 09 12 09 34 .25       1     -4     24      5     24 168.4  89.0  34098  288.52 0863.48
2015 04 09 12 09 34 .50      -5     -4     27      7     27 230.5  82.8  34108  288.69 0863.48
2015 04 09 12 09 34 .75     -26     23     41     35     53 311.3  54.3  34050  287.72 0863.48
2015 04 09 12 09 35 .00     -49     31     16     59     62 302.5  15.3  34036  287.49 0863.48
2015 04 09 12 09 35 .25     -49     31      7     59     60 302.5   6.9  33972  286.41 0863.48
2015 04 09 12 09 35 .51     -37     29     -1     48     49 307.8  -2.2  33978  286.51 0863.48
2015 04 09 12 09 35 .75     -46     28    -15     55     57 301.5 -20.7  33920  285.53 0863.48
2015 04 09 12 09 36 .00     -50     12    -14     52     55 284.2 -15.5  33904  285.24 0863.48
2015 04 09 12 09 36 .26     -61      9    -12     62     64 278.8 -11.3  33904  285.26 0863.48
2015 04 09 12 09 36 .50     -85     12    -12     86     87 278.4  -8.2  33908  285.31 0863.48
2015 04 09 12 09 36 .75     -80      5     -7     81     82 273.9  -5.6  33904  285.26 0863.48
2015 04 09 12 09 37 .01     -77      5    -16     78     80 274.3 -11.9  33910  285.34 0863.48
2015 04 09 12 09 37 .26     -64    -13     -1     66     67 258.5  -1.2  33924  285.58 0863.48
2015 04 09 12 09 37 .51     -48      0      2     49     50 269.2   2.9  33922  285.56 0863.48
2015 04 09 12 09 37 .76     -54    -12    -10     56     57 257.6 -10.3  33910  285.34 0863.48
2015 04 09 12 09 38 .03     -32    -10      0     34     35 251.6   0.8  33940  285.87 0863.48
2015 04 09 12 09 38 .27     -43      0      0     44     45 270.0   0.8  33934  285.75 0863.48
2015 04 09 12 09 38 .52     -47    -26     -6     54     55 241.1  -7.2  33938  285.83 0863.48
2015 04 09 12 09 38 .77      -4    -12     14     13     19 198.3  48.2  33972  286.41 0863.48
2015 04 09 12 09 39 .02       3     -3     29      5     29 133.3  90.0  33990  286.69 0863.48
2015 04 09 12 09 39 .27     -28     31      3     43     44 317.7   4.9  34022  287.25 0863.48
2015 04 09 12 09 39 .52     -56      4    -12     57     59 274.4 -12.4  33980  286.52 0863.48
2015 04 09 12 09 39 .77     -51    -19      1     55     56 249.2   1.8  33976  286.47 0863.48
2015 04 09 12 09 40 .02     -38     -9     -8     40     41 256.7 -11.3  33962  286.22 0863.48
2015 04 09 12 09 40 .28     -39     29      5     49     50 306.9   5.9  33952  286.05 0863.48
2015 04 09 12 09 40 .53      -9     -5     36     11     37 241.1  80.7  34000  286.88 0863.48
2015 04 09 12 09 40 .78     -50    -21    -13     55     57 247.4 -13.4  33930  285.68 0863.48
2015 04 09 12 09 41 .02     -22    -41     18     47     50 208.1  21.0  33928  285.66 0863.48
2015 04 09 12 09 41 .28       2      5     39      6     39  25.4  90.0  33958  286.15 0863.47
2015 04 09 12 09 41 .53      -7     45      3     46     47 350.2   3.8  33962  286.24 0863.47
2015 04 09 12 09 41 .78    -103     48    -22    114    117 295.2 -11.3  33942  285.88 0863.47
2015 04 09 12 09 42 .03     -62     12     18     64     67 281.5  16.3  33966  286.29 0863.47
2015 04 09 12 09 42 .28     -82    -20     -3     85     86 255.8  -2.6  33968  286.32 0863.47
2015 04 09 12 09 42 .53     -30     17     -1     35     36 300.7  -2.2  33982  286.56 0863.47
2015 04 09 12 09 42 .78    -104      6     -4    105    106 273.5  -2.6  33914  285.43 0863.47
2015 04 09 12 09 43 .03    -125     35    -16    130    132 285.9  -7.2  33918  285.48 0863.47
2015 04 09 12 09 43 .28    -146      7    -16    147    148 273.0  -6.2  33896  285.11 0863.47
2015 04 09 12 09 43 .54    -126     16    -24    128    131 277.5 -10.9  33892  285.06 0863.47
2015 04 09 12 09 43 .78    -123     33    -11    128    129 285.1  -5.2  33894  285.09 0863.47
2015 04 09 12 09 44 .04    -109     36    -22    116    119 288.6 -10.9  33904  285.24 0863.47
2015 04 09 12 09 44 .29    -127     16    -16    129    131 277.5  -7.3  33928  285.66 0863.47
2015 04 09 12 09 44 .53     -80     35     -3     88     89 294.0  -2.2  33940  285.87 0863.47
2015 04 09 12 09 44 .80    -115     41     -4    123    124 289.5  -2.2  33946  285.97 0863.48
2015 04 09 12 09 45 .05    -106     67    -16    126    128 302.5  -7.3  33954  286.08 0863.48
2015 04 09 12 09 45 .29    -126     63    -33    141    145 296.6 -13.4  33928  285.66 0863.48
2015 04 09 12 09 45 .55    -125     63    -33    141    145 297.0 -13.3  33920  285.51 0863.48
2015 04 09 12 09 45 .79    -108     36    -23    114    117 288.4 -11.5  33898  285.16 0863.48
2015 04 09 12 09 46 .04    -124     44    -21    132    134 289.5  -9.3  33904  285.24 0863.48
2015 04 09 12 09 46 .30    -121     48    -20    131    133 291.7  -8.8  33904  285.26 0863.48
2015 04 09 12 09 46 .55     -90     49    -25    103    107 298.9 -13.9  33926  285.63 0863.47
2015 04 09 12 09 46 .80    -103     34    -13    109    110 288.6  -7.2  33912  285.39 0863.47
2015 04 09 12 09 47 .05     -76     57     -6     95     96 306.9  -4.1  33932  285.71 0863.47
2015 04 09 12 09 47 .30     -92     31    -13     98     99 288.6  -7.7  33948  286.00 0863.47
2015 04 09 12 09 47 .55    -106     21    -17    109    111 281.5  -8.8  33966  286.30 0863.47
2015 04 09 12 09 47 .81    -118      7     -4    119    120 273.5  -2.2  33958  286.17 0863.47
2015 04 09 12 09 48 .05    -100    -15    -19    102    104 261.2 -10.9  33946  285.95 0863.47
2015 04 09 12 09 48 .30    -136     54    -29    147    150 291.7 -11.3  33916  285.44 0863.47
2015 04 09 12 09 48 .56    -109     24    -31    112    117 282.4 -15.5  33898  285.14 0863.47
2015 04 09 12 09 48 .81    -140      8    -27    141    144 273.5 -10.9  33912  285.38 0863.47
2015 04 09 12 09 49 .06    -149     -4    -28    150    153 268.3 -10.9  33910  285.34 0863.47
2015 04 09 12 09 49 .30    -125     -8    -21    126    128 266.1  -9.8  33910  285.34 0863.47
2015 04 09 12 09 49 .56    -115     -1    -40    116    123 269.2 -19.1  33912  285.38 0863.47
2015 04 09 12 09 49 .81    -113      0    -27    114    118 269.6 -13.3  33900  285.19 0863.47
2015 04 09 12 09 50 .06    -106     -4    -28    107    111 267.4 -15.0  33890  285.02 0863.47
2015 04 09 12 09 50 .30    -131     -5    -16    132    134 267.5  -7.2  33892  285.06 0863.47
2015 04 09 12 09 50 .56    -109    -16    -22    111    114 261.6 -11.3  33884  284.92 0863.47
2015 04 09 12 09 50 .81    -105    -12    -27    106    110 263.4 -14.5  33878  284.82 0863.47
2015 04 09 12 09 51 .06    -118      3    -23    119    122 271.7 -11.3  33890  285.01 0863.47
2015 04 09 12 09 51 .32    -106     21    -17    109    111 281.5  -8.8  33972  286.41 0863.47
2015 04 09 12 09 51 .56     -98     44    -22    108    111 294.4 -11.5  33976  286.46 0863.47
2015 04 09 12 09 51 .82    -114     31    -37    119    125 285.5 -17.5  33914  285.41 0863.47
2015 04 09 12 09 52 .07    -126     25    -40    129    135 281.5 -22.8  33940  285.85 0863.47
2015 04 09 12 09 52 .32    -110     11    -35    111    117 276.1 -17.6  33940  285.85 0863.47
2015 04 09 12 09 52 .57    -107      4    -16    108    110 272.6  -8.8  33948  285.98 0863.47
2015 04 09 12 09 52 .82     -75    -14      3     77     78 259.4   2.9  33962  286.22 0863.47
2015 04 09 12 09 53 .10     -72      1     25     73     78 270.9  19.2  33968  286.32 0863.47
2015 04 09 12 09 53 .33    -110    -46     -6    120    121 247.4  -3.2  33934  285.76 0863.47
2015 04 09 12 09 53 .57    -106    -28    -14    110    111 254.9  -7.3  33934  285.75 0863.47
2015 04 09 12 09 53 .83    -134    -21    -14    136    137 260.8  -6.2  33946  285.95 0863.46
2015 04 09 12 09 54 .08     -74    -13     -3     76     77 259.4  -2.2  33946  285.97 0863.46
2015 04 09 12 09 54 .33     -34    -11     41     36     54 251.8  53.3  33960  286.19 0863.46
2015 04 09 12 09 54 .58    -121    -32    -23    126    129 254.9 -10.3  33914  285.41 0863.46
2015 04 09 12 09 54 .83     -94     -7    -20     95     98 265.7 -11.9  33936  285.80 0863.46
2015 04 09 12 09 55 .08     -52      1      0     53     54 271.7   0.8  33960  286.20 0863.46
2015 04 09 12 09 55 .33    -126      9     -4    127    128 274.3  -2.2  33918  285.48 0863.46
2015 04 09 12 09 55 .58    -124    -13    -12    125    126 263.9  -5.6  33910  285.34 0863.46
2015 04 09 12 09 55 .83    -116    -30     19    120    122 255.4   9.0  33914  285.43 0863.46
2015 04 09 12 09 56 .08    -139     -9    -17    140    142 266.1  -7.2  33896  285.11 0863.46
2015 04 09 12 09 56 .33     -64     -4      6     65     66 265.6   5.9  33920  285.51 0863.46
2015 04 09 12 09 56 .58     -91     17     -6     93     94 281.0  -4.1  33926  285.61 0863.46
2015 04 09 12 09 56 .83     -54     18     38     58     69 288.6  35.6  33964  286.27 0863.46
2015 04 09 12 09 57 .09    -128      4    -21    129    131 272.1  -9.3  33898  285.16 0863.46
2015 04 09 12 09 57 .33    -103     -7    -23    104    107 265.6 -12.9  33880  284.86 0863.47
2015 04 09 12 09 57 .58    -123     -8    -30    124    128 266.1 -13.9  33880  284.86 0863.47
2015 04 09 12 09 57 .83    -133      0    -27    134    137 270.0 -11.5  33870  284.67 0863.47
2015 04 09 12 09 58 .08    -133      2    -17    134    136 271.3  -7.3  33866  284.62 0863.47
2015 04 09 12 09 58 .33    -124      4    -15    125    127 272.1  -7.2  33870  284.69 0863.47
2015 04 09 12 09 58 .58    -118      1    -15    119    120 270.8  -7.2  33874  284.74 0863.47
2015 04 09 12 09 58 .85    -108      8    -18    109    111 274.4  -9.8  33868  284.64 0863.47
2015 04 09 12 09 59 .10     -98      0     -4     99    100 270.0  -2.6  33890  285.02 0863.47
2015 04 09 12 09 59 .35     -45    -13      4     47     48 253.2   5.9  33902  285.21 0863.47
2015 04 09 12 09 59 .60     -61      4     -3     62     63 274.4  -3.1  33896  285.11 0863.47
2015 04 09 12 09 59 .85     -90     -1    -29     91     96 269.2 -18.1  33888  284.97 0863.47
2015 04 09 12 10 00 .10     -55    -31     22     64     68 240.2  18.9  33912  285.39 0863.46
2015 04 09 12 10 00 .35     -21     -7     25     23     33 250.0  50.1  33918  285.48 0863.46
2015 04 09 12 10 00 .60     -57      1    -28     58     64 271.7 -31.7  33892  285.06 0863.46
2015 04 09 12 10 00 .85     -22     -3     -3     23     24 260.3  -9.3  33916  285.46 0863.46
2015 04 09 12 10 01 .10     -51     17     19     54     58 288.4  19.4  33940  285.85 0863.46
2015 04 09 12 10 01 .37     -77     -1    -16     78     80 269.1 -11.9  33884  284.92 0863.46
2015 04 09 12 10 01 .61     -84    -58      9    103    104 235.4   5.4  33898  285.14 0863.46
2015 04 09 12 10 01 .85    -111     17      1    113    114 278.8   0.8  33890  285.02 0863.46
2015 04 09 12 10 02 .10    -124    -19    -25    126    129 261.2 -11.5  33864  284.59 0863.46
2015 04 09 12 10 02 .35    -137    -15    -29    138    142 263.4 -11.9  33870  284.69 0863.46
2015 04 09 12 10 02 .61    -118    -20    -33    120    125 260.3 -15.5  33884  284.91 0863.46
2015 04 09 12 10 02 .86    -115     -1    -32    116    121 269.2 -15.5  33890  285.02 0863.46
2015 04 09 12 10 03 .11    -116     34     -4    121    122 286.4  -2.2  33918  285.50 0863.46
2015 04 09 12 10 03 .36    -156     16    -11    157    158 276.1  -4.1  33908  285.31 0863.46
2015 04 09 12 10 03 .61    -131     -1    -31    132    136 269.2 -13.4  33898  285.14 0863.46
2015 04 09 12 10 03 .86    -129     17    -30    131    135 277.5 -13.3  33918  285.48 0863.46
2015 04 09 12 10 04 .11    -130     30    -23    134    137 283.3  -9.8  33928  285.65 0863.46
2015 04 09 12 10 04 .36    -106      6    -16    107    109 273.5  -8.8  33922  285.56 0863.46
2015 04 09 12 10 04 .61     -83      8    -23     84     88 275.7 -15.5  33924  285.58 0863.46
2015 04 09 12 10 04 .86     -84    -13      9     86     87 260.8   6.5  33946  285.95 0863.46
2015 04 09 12 10 05 .11     -83    -16    -14     85     87 258.5  -9.3  33942  285.90 0863.46
2015 04 09 12 10 05 .36     -43      0     29     44     52 270.0  35.6  33962  286.22 0863.46
2015 04 09 12 10 05 .62    -134     15    -27    135    138 276.6 -11.5  33904  285.24 0863.45
2015 04 09 12 10 05 .88    -137     23    -26    139    142 279.7 -10.9  33908  285.33 0863.45
2015 04 09 12 10 06 .13    -133     25    -17    136    138 280.6  -7.3  33926  285.63 0863.45
2015 04 09 12 10 06 .38    -150     11     -5    151    152 274.4  -2.2  33950  286.03 0863.45
2015 04 09 12 10 06 .62    -114     25     -9    117    118 282.4  -4.6  33946  285.95 0863.45
2015 04 09 12 10 06 .88     -41      9     24     43     49 282.4  31.4  33962  286.22 0863.45
2015 04 09 12 10 07 .13     -66     24    -23     71     74 290.0 -23.8  33946  285.95 0863.45
2015 04 09 12 10 07 .38     -59     24      4     64     65 292.6   3.8  33960  286.20 0863.45
2015 04 09 12 10 07 .63    -107     -3     -7    108    109 268.3  -3.7  33954  286.08 0863.45
2015 04 09 12 10 07 .88     -87      8    -10     88     89 275.7  -6.7  33954  286.10 0863.45
2015 04 09 12 10 08 .13     -60     -4     -2     61     62 265.6  -2.2  33956  286.14 0863.45
2015 04 09 12 10 08 .38     -85    -38     -4     94     95 246.0  -2.6  33964  286.27 0863.45
2015 04 09 12 10 08 .63     -38     -2      9     39     41 265.6  13.2  33978  286.49 0863.45
2015 04 09 12 10 08 .88     -18     -4     13     19     23 254.9  39.7  33992  286.73 0863.45
2015 04 09 12 10 09 .13      -1    -26      4     27     28 182.7   9.0  33994  286.78 0863.45
2015 04 09 12 10 09 .38     -29    -40      0     50     51 216.1  -0.3  34002  286.91 0863.45
2015 04 09 12 10 09 .63     -45    -42     36     62     71 226.9  33.5  34014  287.10 0863.45
2015 04 09 12 10 09 .88     -38    -27     16     47     50 234.0  18.9  34008  287.00 0863.45
2015 04 09 12 10 10 .14     -89    -42    -14     99    101 244.8  -8.2  33976  286.47 0863.45
2015 04 09 12 10 10 .38     -54     18     25     57     62 288.6  25.1  34002  286.91 0863.45
2015 04 09 12 10 10 .64    -140      2    -28    141    144 270.8 -11.3  33926  285.63 0863.45
2015 04 09 12 10 10 .89    -115    -12    -10    116    117 263.9  -5.2  33956  286.12 0863.45
2015 04 09 12 10 11 .15    -102     14     22    103    106 277.9  12.2  33972  286.41 0863.45
2015 04 09 12 10 11 .38    -139     -5     -7    140    141 267.9  -3.1  33908  285.31 0863.45
2015 04 09 12 10 11 .64    -125     -1    -27    126    130 269.2 -12.4  33866  284.60 0863.45
2015 04 09 12 10 11 .89    -135     -5    -21    136    138 267.5  -8.8  33874  284.74 0863.45
2015 04 09 12 10 12 .14    -131      8    -36    132    138 273.9 -15.5  33868  284.64 0863.45
2015 04 09 12 10 12 .39    -123     -7    -23    124    127 266.5 -10.9  33866  284.60 0863.45
2015 04 09 12 10 12 .65    -124    -15    -29    125    129 263.0 -13.4  33864  284.59 0863.45
2015 04 09 12 10 12 .90    -130     -8    -14    131    132 266.1  -6.2  33870  284.67 0863.45
2015 04 09 12 10 13 .15    -120     25      6    123    124 281.9   2.8  33894  285.09 0863.45
2015 04 09 12 10 13 .40    -126      1    -16    127    129 270.8  -7.3  33878  284.82 0863.45
2015 04 09 12 10 13 .65    -121     -1      5    122    123 269.2   2.3  33920  285.53 0863.45
2015 04 09 12 10 13 .90    -163    -16    -19    164    166 264.1  -6.9  33934  285.76 0863.45
2015 04 09 12 10 14 .16     -77    -26     55     82     98 250.9  37.0  33952  286.07 0863.45
2015 04 09 12 10 14 .41     -92      0     -6     93     94 270.4  -4.1  33942  285.88 0863.45
2015 04 09 12 10 14 .65    -113     -1     -1    114    115 269.2  -0.7  33958  286.17 0863.45
2015 04 09 12 10 14 .90    -134      1    -27    135    138 270.8 -11.5  33944  285.93 0863.45
2015 04 09 12 10 15 .15    -111     17     -5    113    114 278.8  -2.6  33946  285.95 0863.45
2015 04 09 12 10 15 .41     -89     21     -4     92     93 283.3  -2.6  33970  286.37 0863.45
2015 04 09 12 10 15 .66     -59    -19     -2     63     64 251.8  -2.2  33972  286.39 0863.45
2015 04 09 12 10 15 .91    -179      0    -11    180    181 270.0  -3.7  33924  285.58 0863.45
2015 04 09 12 10 16 .16    -107     41     13    115    116 291.3   6.9  33952  286.05 0863.45
2015 04 09 12 10 16 .40    -194     40    -15    199    200 281.7  -4.4  33912  285.39 0863.45
2015 04 09 12 10 16 .66    -187     37    -35    191    195 281.4 -10.5  33866  284.60 0863.45
2015 04 09 12 10 16 .91    -190     32    -30    193    196 279.7  -9.0  33870  284.67 0863.45
2015 04 09 12 10 17 .16    -194     49    -26    201    203 284.2  -7.5  33878  284.81 0863.45
2015 04 09 12 10 17 .41    -201     40    -31    206    209 281.4  -8.6  33876  284.79 0863.45
2015 04 09 12 10 17 .66    -177     34    -22    181    183 281.0  -7.2  33878  284.81 0863.45
2015 04 09 12 10 17 .91    -158      6    -12    159    160 272.5  -4.4  33884  284.92 0863.45
2015 04 09 12 10 18 .16    -160     29    -25    163    165 280.4  -8.8  33880  284.86 0863.45
2015 04 09 12 10 18 .42    -151    -16     -5    152    153 263.8  -2.2  33876  284.77 0863.45
2015 04 09 12 10 18 .66    -175     32    -30    178    181 280.6  -9.6  33872  284.72 0863.45
2015 04 09 12 10 18 .91    -181     24    -25    183    185 277.7  -8.0  33868  284.64 0863.45
2015 04 09 12 10 19 .16    -177     40    -23    182    184 282.8  -7.2  33872  284.70 0863.45
2015 04 09 12 10 19 .42    -154     28    -15    157    158 280.6  -5.6  33874  284.74 0863.45
2015 04 09 12 10 19 .68    -124     41    -14    131    132 288.6  -6.2  33888  284.97 0863.45
2015 04 09 12 10 19 .93    -135     44     -9    143    144 288.2  -3.7  33910  285.36 0863.45
2015 04 09 12 10 20 .17    -166     33      6    170    171 281.2   2.3  33898  285.16 0863.45
2015 04 09 12 10 20 .43    -166     43    -31    172    175 284.8 -10.3  33876  284.79 0863.45
2015 04 09 12 10 20 .68    -171     21    -14    173    174 277.0  -4.9  33878  284.82 0863.45
2015 04 09 12 10 20 .93    -153     46     -8    161    162 286.9  -3.1  33882  284.87 0863.45
2015 04 09 12 10 21 .18    -166     23    -21    168    170 278.1  -7.2  33890  285.01 0863.45
2015 04 09 12 10 21 .43    -112     29     -1    116    117 284.6  -0.7  33908  285.31 0863.45
2015 04 09 12 10 21 .68     -66     42      3     79     80 302.4   2.3  33908  285.33 0863.45
2015 04 09 12 10 21 .93     -97     60     -6    115    116 302.0  -3.2  33914  285.41 0863.45
2015 04 09 12 10 22 .18    -152     41    -32    158    162 285.1 -11.6  33880  284.86 0863.45
2015 04 09 12 10 22 .43    -160     66    -26    174    176 292.6  -8.6  33876  284.79 0863.45
2015 04 09 12 10 22 .68    -136     48    -18    145    147 289.5  -7.3  33886  284.96 0863.45
2015 04 09 12 10 22 .93    -119     32     -1    124    125 285.1  -0.7  33896  285.11 0863.45
2015 04 09 12 10 23 .18    -145     63    -23    159    161 293.5  -8.2  33878  284.82 0863.45
2015 04 09 12 10 23 .43    -171     83    -17    191    192 296.0  -5.2  33878  284.82 0863.45
2015 04 09 12 10 23 .69    -166     93    -34    191    195 299.3 -10.1  33872  284.72 0863.45
2015 04 09 12 10 23 .93    -157     83    -22    178    180 298.0  -7.3  33874  284.74 0863.45
2015 04 09 12 10 24 .19    -147     91    -20    173    175 301.8  -6.7  33870  284.67 0863.45
2015 04 09 12 10 24 .44    -144     87    -15    169    170 301.1  -5.4  33868  284.64 0863.45
2015 04 09 12 10 24 .69    -134     72    -19    153    155 298.4  -7.3  33868  284.64 0863.45
2015 04 09 12 10 24 .93    -129     82    -15    154    155 302.5  -5.6  33870  284.67 0863.45
2015 04 09 12 10 25 .19    -148     67    -19    163    165 294.4  -6.9  33866  284.62 0863.45
2015 04 09 12 10 25 .44    -140     71    -27    158    161 297.1  -9.8  33864  284.59 0863.45
2015 04 09 12 10 25 .69    -149     72    -28    166    169 295.8  -9.8  33868  284.65 0863.45
2015 04 09 12 10 25 .94    -140     76    -28    160    163 298.4 -10.1  33868  284.65 0863.45
2015 04 09 12 10 26 .19    -149     72    -21    166    168 295.8  -7.2  33870  284.69 0863.45
2015 04 09 12 10 26 .44    -142     46    -25    150    153 288.2  -9.8  33874  284.74 0863.45
2015 04 09 12 10 26 .70    -163     54    -13    172    173 288.6  -4.4  33874  284.74 0863.45
2015 04 09 12 10 26 .95    -167     66    -32    180    183 291.7 -10.3  33870  284.69 0863.45
2015 04 09 12 10 27 .20    -160     66    -27    174    177 292.6  -8.8  33868  284.64 0863.45
2015 04 09 12 10 27 .45    -167     70    -33    182    186 292.8 -10.5  33870  284.67 0863.45
2015 04 09 12 10 27 .71    -141     66    -28    156    159 295.3 -10.3  33872  284.72 0863.45
2015 04 09 12 10 27 .96    -151     51    -32    160    164 288.8 -11.3  33870  284.69 0863.45
2015 04 09 12 10 28 .20    -152     51    -12    161    162 288.6  -4.6  33872  284.72 0863.45
2015 04 09 12 10 28 .45    -161     45    -25    168    170 285.7  -8.6  33872  284.70 0863.45
2015 04 09 12 10 28 .71    -164     36    -22    169    171 282.6  -7.5  33876  284.77 0863.45
2015 04 09 12 10 28 .95    -175     35    -21    179    181 281.5  -6.7  33876  284.77 0863.45
2015 04 09 12 10 29 .20    -170     53    -23    179    181 287.3  -7.3  33870  284.69 0863.44
2015 04 09 12 10 29 .46    -150     40    -14    156    157 285.1  -5.4  33892  285.04 0863.44
2015 04 09 12 10 29 .71     -80     51      4     96     97 302.5   2.8  33914  285.43 0863.44
2015 04 09 12 10 29 .96    -107     51    -10    119    120 295.4  -5.2  33896  285.11 0863.44
2015 04 09 12 10 30 .21    -150      4     -5    151    152 271.7  -2.2  33890  285.02 0863.44
2015 04 09 12 10 30 .46    -150     30    -21    154    156 281.5  -8.0  33874  284.74 0863.44
2015 04 09 12 10 30 .71    -143     32    -29    147    150 282.8 -11.5  33870  284.69 0863.44
2015 04 09 12 10 30 .96    -148     34    -31    153    157 283.2 -11.6  33872  284.70 0863.45
2015 04 09 12 10 31 .21    -140     41    -30    146    150 286.4 -11.9  33868  284.65 0863.45
2015 04 09 12 10 31 .46    -130     47    -30    139    143 290.0 -12.4  33870  284.69 0863.45
2015 04 09 12 10 31 .71    -115     45    -37    124    130 291.7 -17.0  33870  284.67 0863.45
2015 04 09 12 10 31 .96    -133     44    -27    141    144 288.4 -10.9  33870  284.69 0863.45
2015 04 09 12 10 32 .21    -128     43    -19    136    138 288.6  -8.2  33874  284.74 0863.45
2015 04 09 12 10 32 .46    -135     40    -28    141    144 286.8 -11.5  33872  284.72 0863.45
2015 04 09 12 10 32 .71    -129     30    -22    133    135 283.3  -9.4  33872  284.72 0863.45
2015 04 09 12 10 32 .96    -141     31    -18    145    147 282.4  -7.3  33872  284.72 0863.45
2015 04 09 12 10 33 .22    -135     40    -28    141    144 286.8 -11.5  33872  284.72 0863.45
2015 04 09 12 10 33 .48    -133     35    -25    138    141 285.1 -10.3  33876  284.79 0863.45
2015 04 09 12 10 33 .73    -125     30    -24    129    132 283.7 -10.9  33874  284.74 0863.45
2015 04 09 12 10 33 .97    -134     36    -17    139    141 285.1  -7.3  33876  284.77 0863.45
2015 04 09 12 10 34 .23    -121     40    -19    128    130 288.4  -8.8  33870  284.69 0863.45
2015 04 09 12 10 34 .48    -133     61    -18    147    149 294.8  -7.3  33876  284.77 0863.45
2015 04 09 12 10 34 .73    -124     49    -22    134    136 291.8  -9.4  33888  284.97 0863.45
2015 04 09 12 10 34 .98    -127     36    -26    133    136 285.9 -11.3  33884  284.92 0863.45
2015 04 09 12 10 35 .24    -111     22    -14    114    115 281.4  -7.3  33904  285.26 0863.45
2015 04 09 12 10 35 .48     -99     21     -7    102    103 281.9  -4.1  33916  285.44 0863.45
2015 04 09 12 10 35 .73     -93     24    -26     97    101 284.6 -15.0  33916  285.46 0863.45
2015 04 09 12 10 35 .98     -97     26     -4    101    102 285.1  -2.6  33912  285.38 0863.45
2015 04 09 12 10 36 .23    -105     28    -17    109    111 285.0  -8.8  33888  284.97 0863.45
2015 04 09 12 10 36 .49    -116     45    -12    125    126 291.3  -5.6  33876  284.77 0863.45
2015 04 09 12 10 36 .73     -92     37    -17    100    102 291.8  -9.8  33876  284.77 0863.45
2015 04 09 12 10 36 .98     -98     45    -13    108    109 294.8  -7.3  33874  284.74 0863.45
2015 04 09 12 10 37 .23     -98     45    -13    108    109 294.8  -7.3  33872  284.70 0863.45
2015 04 09 12 10 37 .48     -99     39    -15    107    109 291.8  -8.2  33872  284.72 0863.45
2015 04 09 12 10 37 .73     -97     39    -18    105    107 292.2  -9.8  33874  284.74 0863.45
2015 04 09 12 10 37 .98     -99     47    -24    110    113 295.4 -12.4  33874  284.74 0863.45
2015 04 09 12 10 38 .23     -96     38    -31    104    109 291.7 -16.6  33872  284.72 0863.45
2015 04 09 12 10 38 .48     -92     39    -34    101    107 293.1 -19.1  33874  284.74 0863.45
2015 04 09 12 10 38 .74     -90     33    -30     97    102 290.4 -17.6  33876  284.77 0863.45
2015 04 09 12 10 38 .98     -84     39    -25     93     97 295.3 -15.0  33874  284.74 0863.45
2015 04 09 12 10 39 .24     -99     43    -19    109    111 293.5 -10.3  33880  284.84 0863.45
2015 04 09 12 10 39 .49     -98     43    -26    108    112 294.0 -13.9  33882  284.87 0863.45
2015 04 09 12 10 39 .74     -94     40    -19    103    105 293.1 -10.9  33882  284.89 0863.45
2015 04 09 12 10 39 .99     -90     40    -21     99    102 294.0 -11.9  33882  284.87 0863.45
2015 04 09 12 10 40 .24     -88     34    -19     95     97 291.3 -11.5  33882  284.89 0863.45
2015 04 09 12 10 40 .50     -85     40    -14     94     96 295.2  -8.8  33882  284.87 0863.45
2015 04 09 12 10 40 .75     -88     34    -19     95     97 291.3 -11.5  33882  284.89 0863.45
2015 04 09 12 10 41 .00     -86     32    -15     92     94 290.4  -9.8  33882  284.87 0863.45
2015 04 09 12 10 41 .25     -75     28    -10     81     82 290.4  -7.3  33882  284.87 0863.45
2015 04 09 12 10 41 .50     -75     28    -10     81     82 290.4  -7.3  33882  284.87 0863.45
2015 04 09 12 10 41 .76     -74     45    -11     87     88 301.5  -7.2  33888  284.97 0863.46
2015 04 09 12 10 42 .00     -68     35    -20     77     80 297.1 -15.0  33884  284.92 0863.46
2015 04 09 12 10 42 .26     -73     35    -18     82     84 295.8 -12.4  33890  285.01 0863.46
2015 04 09 12 10 42 .53     -76     35    -27     84     88 294.8 -23.3  33890  285.01 0863.46
2015 04 09 12 10 42 .75     -86     27    -19     91     94 287.7 -11.9  33890  285.01 0863.46
2015 04 09 12 10 43 .01     -97     39    -26    105    109 291.8 -13.9  33886  284.94 0863.46
2015 04 09 12 10 43 .26     -90     33    -26     97    101 290.4 -15.0  33890  285.01 0863.46
2015 04 09 12 10 43 .51     -84     35     -6     92     93 292.6  -4.1  33890  285.02 0863.46
2015 04 09 12 10 43 .76     -69     35    -23     78     81 297.1 -21.2  33882  284.89 0863.46
2015 04 09 12 10 44 .01     -94     43    -37    104    111 294.8 -19.7  33882  284.87 0863.46
2015 04 09 12 10 44 .26    -106     47    -34    116    122 294.0 -16.6  33884  284.91 0863.46
2015 04 09 12 10 44 .51     -92     51    -29    106    111 298.9 -15.5  33884  284.92 0863.46
2015 04 09 12 10 44 .76     -79     39    -27     89     94 296.2 -17.0  33882  284.87 0863.46
2015 04 09 12 10 45 .01     -83     44    -12     95     96 298.0  -7.3  33882  284.89 0863.46
2015 04 09 12 10 45 .26     -94     40    -19    103    105 293.1 -10.9  33882  284.89 0863.46
2015 04 09 12 10 45 .51     -90     40    -12     99    100 294.0  -7.3  33882  284.89 0863.46
2015 04 09 12 10 45 .76     -90     30    -14     95     97 288.6  -8.8  33882  284.89 0863.46
2015 04 09 12 10 46 .01    -103     34    -13    109    110 288.6  -7.2  33884  284.92 0863.46
2015 04 09 12 10 46 .27     -91     44    -10    102    103 295.8  -5.6  33882  284.89 0863.46
2015 04 09 12 10 46 .51     -78     36      4     87     88 294.8   2.8  33886  284.96 0863.46
2015 04 09 12 10 46 .77     -75     45      8     88     89 301.1   5.4  33890  285.01 0863.46
2015 04 09 12 10 47 .02     -30     22     23     38     44 306.0  33.5  33900  285.19 0863.46
2015 04 09 12 10 47 .27     -23     25     23     35     41 316.8  36.5  33926  285.61 0863.46
2015 04 09 12 10 47 .53     -20      6     31     21     37 286.8  64.6  33934  285.76 0863.46
2015 04 09 12 10 47 .78     -12    -13     39     18     42 223.4  74.0  33946  285.95 0863.46
2015 04 09 12 10 48 .03     -33    -44     -7     56     57 217.0  -7.3  33900  285.19 0863.47
2015 04 09 12 10 48 .29     -39    -38     -2     55     56 225.9  -2.2  33916  285.44 0863.47
2015 04 09 12 10 48 .53     -34    -31     10     47     49 227.8  12.2  33926  285.63 0863.47
2015 04 09 12 10 48 .78     -23    -19      9     30     32 230.4  17.3  33932  285.71 0863.47
2015 04 09 12 10 49 .03     -44    -29      2     53     54 236.7   2.9  33926  285.61 0863.47
2015 04 09 12 10 49 .28     -21    -25      9     33     35 219.7  15.3  33928  285.66 0863.47
2015 04 09 12 10 49 .53     -25    -30      6     40     41 219.6   9.0  33930  285.68 0863.47
2015 04 09 12 10 49 .78     -27    -26      1     38     39 226.7   2.9  33918  285.50 0863.47
2015 04 09 12 10 50 .04     -25    -32      5     41     42 217.8   8.0  33920  285.53 0863.46
2015 04 09 12 10 50 .28     -23    -35      7     42     43 213.4  10.1  33922  285.55 0863.46
2015 04 09 12 10 50 .53     -12    -37      3     39     40 198.3   4.9  33910  285.34 0863.46
2015 04 09 12 10 50 .78     -13    -23     -1     27     28 209.0  -2.2  33898  285.14 0863.46
2015 04 09 12 10 51 .04     -23    -24      0     34     35 223.4   0.8  33904  285.24 0863.46
2015 04 09 12 10 51 .28     -26    -17     -1     32     33 235.8  -2.2  33900  285.19 0863.46
2015 04 09 12 10 51 .54     -19    -23     10     31     33 219.7  19.2  33896  285.11 0863.46
2015 04 09 12 10 51 .79     -22    -27      1     36     37 219.6   2.8  33892  285.06 0863.45
2015 04 09 12 10 52 .04     -34    -25      2     43     44 234.0   2.9  33898  285.14 0863.45
2015 04 09 12 10 52 .29     -43    -21      2     49     50 243.8   2.9  33890  285.02 0863.45
2015 04 09 12 10 52 .54     -40    -21      0     46     47 242.0  -0.3  33896  285.11 0863.45
2015 04 09 12 10 52 .79     -19    -31     10     37     39 212.6  16.3  33896  285.11 0863.45
2015 04 09 12 10 53 .04     -21    -42     16     48     51 207.2  19.4  33892  285.06 0863.45
2015 04 09 12 10 53 .29     -21    -42     16     48     51 207.2  19.4  33892  285.06 0863.45
2015 04 09 12 10 53 .55     -17    -43     12     47     49 201.8  15.3  33904  285.24 0863.45
2015 04 09 12 10 53 .79     -22    -52     15     57     60 203.6  15.3  33920  285.53 0863.45
2015 04 09 12 10 54 .04     -19    -53     17     57     60 200.0  17.3  33942  285.88 0863.45
2015 04 09 12 10 54 .30     -25    -56     27     62     67 204.5  24.1  33938  285.82 0863.45
2015 04 09 12 10 54 .55     -26    -49     21     56     59 208.1  21.0  33934  285.75 0863.45
2015 04 09 12 10 54 .80     -32    -34      5     48     49 223.2   6.9  33930  285.68 0863.45
2015 04 09 12 10 55 .05     -31    -31      6     44     45 225.0   8.0  33926  285.61 0863.45
2015 04 09 12 10 55 .30     -28    -35     18     46     49 218.7  22.0  33918  285.50 0863.45
2015 04 09 12 10 55 .56     -38    -28     22     48     52 233.1  27.1  33928  285.66 0863.45
2015 04 09 12 10 55 .81     -42    -43     24     61     65 224.1  23.0  33946  285.95 0863.45
2015 04 09 12 10 56 .05     -47    -48     23     68     72 224.2  18.9  33970  286.37 0863.45
2015 04 09 12 10 56 .31     -39    -40     21     57     60 224.2  21.0  33966  286.30 0863.44
2015 04 09 12 10 56 .56     -62    -34      7     71     72 241.1   5.9  33972  286.41 0863.44
2015 04 09 12 10 56 .81     -48    -31     11     58     60 237.6  11.1  33950  286.03 0863.44
2015 04 09 12 10 57 .06     -56    -26      5     62     63 244.7   4.9  33914  285.43 0863.44
2015 04 09 12 10 57 .31     -62     -8     -3     63     64 262.0  -3.1  33918  285.48 0863.44
2015 04 09 12 10 57 .56     -33    -33      2     47     48 225.1   2.9  33916  285.44 0863.44
2015 04 09 12 10 57 .81     -31    -31    -10     45     47 225.1 -12.4  33900  285.19 0863.44
2015 04 09 12 10 58 .06     -44    -22    -15     50     52 243.8 -21.7  33904  285.26 0863.44
2015 04 09 12 10 58 .31     -57     -4    -21     58     61 265.6 -24.4  33910  285.34 0863.44
2015 04 09 12 10 58 .57     -38    -12    -16     40     43 251.8 -26.4  33922  285.56 0863.44
2015 04 09 12 10 58 .82     -38      0     -1     39     40 269.2  -2.2  33944  285.93 0863.44
2015 04 09 12 10 59 .06     -35      3      3     36     37 276.1   4.9  33938  285.82 0863.45
2015 04 09 12 10 59 .32      -9    -12     22     16     27 216.1  60.5  33954  286.08 0863.45
2015 04 09 12 10 59 .56     -32      9     34     34     48 286.8  50.1  33992  286.74 0863.45
2015 04 09 12 10 59 .82     -43      1     19     44     47 272.6  24.1  33982  286.56 0863.45
2015 04 09 12 11 00 .07     -47      8    -13     48     50 280.6 -15.4  33982  286.57 0863.45
2015 04 09 12 11 00 .32     -49      3      2     50     51 274.3   2.8  33982  286.57 0863.45
2015 04 09 12 11 00 .57    -135     -5     -3    136    137 267.9  -1.3  33914  285.41 0863.45
2015 04 09 12 11 00 .82    -112     -4    -31    113    118 267.9 -15.5  33918  285.50 0863.45
2015 04 09 12 11 01 .07     -77      0     45     78     90 270.0  32.9  33978  286.51 0863.45
2015 04 09 12 11 01 .33    -110    -27    -14    114    115 255.8  -7.2  33882  284.87 0863.45
2015 04 09 12 11 01 .58    -102    -33    -10    108    109 251.8  -5.6  33902  285.23 0863.45
2015 04 09 12 11 01 .83    -129     -5    -23    130    133 267.5 -10.3  33878  284.82 0863.45
2015 04 09 12 11 02 .08    -138    -46    -14    146    147 251.4  -5.6  33926  285.61 0863.45
2015 04 09 12 11 02 .33    -132    -15    -14    133    134 263.4  -6.2  33896  285.13 0863.45
2015 04 09 12 11 02 .58    -117    -16    -12    119    120 262.1  -6.2  33906  285.29 0863.45
2015 04 09 12 11 02 .84    -131    -22    -13    133    134 260.3  -5.6  33918  285.50 0863.45
2015 04 09 12 11 03 .09    -107    -21    -19    110    112 258.6 -10.3  33918  285.48 0863.45
2015 04 09 12 11 03 .33     -90    -17     -4     92     93 259.0  -2.6  33936  285.80 0863.45
2015 04 09 12 11 03 .58     -89     -4      4     90     91 267.0   2.9  33920  285.53 0863.45
2015 04 09 12 11 03 .84    -101     13    -13    102    103 277.5  -7.3  33894  285.09 0863.45
2015 04 09 12 11 04 .09     -75    -43    -29     87     92 240.2 -18.7  33898  285.16 0863.45
2015 04 09 12 11 04 .33     -64    -30    -32     71     77 244.6 -30.6  33880  284.86 0863.46
2015 04 09 12 11 04 .58     -62    -21    -25     66     70 250.9 -26.4  33882  284.87 0863.46
2015 04 09 12 11 04 .83     -49    -16    -27     52     58 250.9 -33.7  33880  284.84 0863.46
2015 04 09 12 11 05 .09     -55    -25    -21     61     65 244.8 -19.7  33880  284.84 0863.46
2015 04 09 12 11 05 .33     -47    -26    -14     54     56 241.1 -14.5  33880  284.86 0863.46
2015 04 09 12 11 05 .59     -48    -29    -15     57     60 239.3 -15.4  33878  284.82 0863.46
2015 04 09 12 11 05 .84     -50    -32    -12     60     62 237.5 -11.3  33882  284.87 0863.46
2015 04 09 12 11 06 .10     -57    -23    -12     62     64 248.2 -11.5  33880  284.84 0863.46
2015 04 09 12 11 06 .35     -70    -23    -13     74     76 251.8 -10.3  33908  285.31 0863.46
2015 04 09 12 11 06 .60     -65    -36     -9     75     76 241.2  -7.3  33912  285.39 0863.46
2015 04 09 12 11 06 .85     -62    -34     -5     71     72 241.1  -4.1  33970  286.35 0863.46
2015 04 09 12 11 07 .10     -37    -17      3     41     42 244.6   4.9  34020  287.20 0863.45
2015 04 09 12 11 07 .34     -41     26     38     49     62 302.4  41.7  33958  286.15 0863.45
2015 04 09 12 11 07 .59     -43     13    -16     46     48 287.7 -23.3  33922  285.56 0863.45
2015 04 09 12 11 07 .85     -42     16     24     46     51 291.7  29.3  33964  286.27 0863.45
2015 04 09 12 11 08 .09     -32     -3     34     33     47 263.9  49.1  34014  287.11 0863.45
2015 04 09 12 11 08 .35     -51     -3     18     52     56 265.6  19.4  33986  286.64 0863.45
2015 04 09 12 11 08 .60     -74    -22     -3     78     79 253.2  -2.2  33932  285.71 0863.45
2015 04 09 12 11 08 .86     -93     -7    -26     94     97 265.6 -20.7  33908  285.31 0863.46
2015 04 09 12 11 09 .11     -88    -12    -25     89     92 261.6 -20.7  33920  285.51 0863.46
2015 04 09 12 11 09 .36     -90     18    -31     92     98 281.9 -18.7  33912  285.39 0863.46
2015 04 09 12 11 09 .61     -99     33    -34    105    111 288.6 -18.1  33926  285.63 0863.46
2015 04 09 12 11 09 .86     -83     36    -20     91     94 293.5 -12.9  33932  285.71 0863.46
2015 04 09 12 11 10 .11     -86     47    -16     99    101 298.8  -9.3  33940  285.87 0863.46
2015 04 09 12 11 10 .36     -65     53     -8     85     86 309.1  -5.6  33936  285.80 0863.46
2015 04 09 12 11 10 .61     -97     11    -14     98    100 277.0  -8.2  33952  286.07 0863.46
2015 04 09 12 11 10 .86     -62     29     10     69     70 295.3   9.0  33968  286.32 0863.46
2015 04 09 12 11 11 .11     -83      0     -1     84     85 270.0  -1.3  33944  285.92 0863.46
2015 04 09 12 11 11 .36     -91     -7    -34     92     98 265.6 -25.9  33916  285.46 0863.46
2015 04 09 12 11 11 .61     -86      5    -30     87     92 273.9 -23.3  33912  285.39 0863.46
2015 04 09 12 11 11 .86    -109      8    -31    110    115 274.3 -16.0  33912  285.39 0863.46
2015 04 09 12 11 12 .11     -82     12    -32     83     88 278.8 -25.9  33916  285.46 0863.46
2015 04 09 12 11 12 .37     -80    -16     -3     82     83 258.5  -2.2  33918  285.50 0863.46
2015 04 09 12 11 12 .61     -76     -6      2     77     78 264.8   1.8  33918  285.50 0863.45
2015 04 09 12 11 12 .86     -65    -13     -4     67     68 258.6  -4.1  33926  285.61 0863.45
2015 04 09 12 11 13 .12     -67    -18     -8     70     71 255.0  -7.2  33926  285.63 0863.45
2015 04 09 12 11 13 .37     -48    -19     -2     52     53 247.4  -2.2  33948  285.98 0863.45
2015 04 09 12 11 13 .62     -21     13     18     25     30 302.4  39.7  33972  286.41 0863.45
2015 04 09 12 11 13 .86     -41    -15     22     44     49 250.0  27.3  33960  286.19 0863.45
2015 04 09 12 11 14 .12     -16    -47     -5     50     51 199.2  -6.2  33910  285.34 0863.45
2015 04 09 12 11 14 .37     -16    -43     -1     47     48 200.9  -2.2  33904  285.26 0863.45
2015 04 09 12 11 14 .62     -37    -42    -14     57     59 221.4 -14.5  33908  285.31 0863.45
2015 04 09 12 11 14 .87     -33    -35      5     49     50 223.2   5.9  33914  285.41 0863.45
2015 04 09 12 11 15 .12     -25    -39     12     47     49 212.5  15.3  33918  285.50 0863.45
2015 04 09 12 11 15 .38     -30    -38      8     49     50 217.8  10.1  33928  285.66 0863.44
2015 04 09 12 11 15 .63     -40    -38     -2     56     57 225.9  -2.2  33922  285.55 0863.44
2015 04 09 12 11 15 .88     -25    -40     -1     48     49 212.5  -2.2  33918  285.50 0863.44
2015 04 09 12 11 16 .13     -28    -35     18     46     49 218.7  22.0  33918  285.50 0863.44
2015 04 09 12 11 16 .38     -28    -35     24     46     51 218.7  29.3  33926  285.63 0863.44
2015 04 09 12 11 16 .64     -38    -43     22     58     62 221.4  22.0  33944  285.92 0863.44
2015 04 09 12 11 16 .88     -24    -45     11     52     54 208.1  12.2  33942  285.88 0863.44
2015 04 09 12 11 17 .14     -26    -55     13     61     63 205.3  12.2  33954  286.08 0863.45
2015 04 09 12 11 17 .39     -35    -32     24     48     53 226.9  27.3  33974  286.42 0863.45
2015 04 09 12 11 17 .64     -40    -32     13     52     54 231.4  14.3  33966  286.29 0863.45
2015 04 09 12 11 17 .89     -51    -43      0     67     68 229.6  -0.3  33962  286.22 0863.45
2015 04 09 12 11 18 .14     -53    -65      4     84     85 219.2   2.9  34020  287.21 0863.45
2015 04 09 12 11 18 .39     -60    -60      4     86     87 225.0   2.9  34068  288.03 0863.45
2015 04 09 12 11 18 .64     -64    -64     17     91     93 224.7  11.1  34038  287.50 0863.45
2015 04 09 12 11 18 .89     -86    -59     11    105    106 235.4   6.5  34050  287.72 0863.45
2015 04 09 12 11 19 .14     -85    -59     -4    104    105 235.4  -2.2  34028  287.35 0863.45
2015 04 09 12 11 19 .39     -61    -50    -11     80     81 230.5  -8.2  34032  287.40 0863.45
2015 04 09 12 11 19 .64    -136     21     -9    138    139 278.8  -4.1  34030  287.38 0863.45
2015 04 09 12 11 19 .89    -134      5    -26    135    138 272.5 -10.9  34024  287.28 0863.45
2015 04 09 12 11 20 .14    -114     12      5    115    116 276.1   2.8  34030  287.37 0863.45
2015 04 09 12 11 20 .39     -90     37     -3     98     99 292.2  -2.2  34012  287.06 0863.45
2015 04 09 12 11 20 .65     -99     22      5    102    103 282.8   2.9  34012  287.08 0863.45
2015 04 09 12 11 20 .89    -103     -3     -7    104    105 267.9  -4.1  34070  288.06 0863.45
2015 04 09 12 11 21 .14     -82      1    -10     83     84 270.8  -7.3  34054  287.79 0863.45
2015 04 09 12 11 21 .39    -104     16    -13    106    107 279.2  -7.3  33982  286.57 0863.45
2015 04 09 12 11 21 .65     -77     24    -21     81     84 287.3 -14.5  33992  286.73 0863.45
2015 04 09 12 11 21 .90     -15      5     30     16     34 288.6  70.8  34036  287.49 0863.45
2015 04 09 12 11 22 .15    -111     -8     -3    112    113 265.7  -1.8  33914  285.43 0863.45
2015 04 09 12 11 22 .41     -95     -8    -44     96    105 264.8 -31.0  33896  285.11 0863.45
2015 04 09 12 11 22 .66    -124     21    -16    126    128 279.6  -7.2  33902  285.21 0863.45
2015 04 09 12 11 22 .91    -131     43      7    138    139 288.2   2.9  33896  285.11 0863.45
2015 04 09 12 11 23 .16    -142     11    -28    143    146 274.8 -11.3  33866  284.62 0863.45
2015 04 09 12 11 23 .41    -138      7    -31    139    143 273.0 -12.9  33878  284.82 0863.46
2015 04 09 12 11 23 .66    -137      0    -38    138    144 270.0 -15.5  33876  284.79 0863.46
2015 04 09 12 11 23 .91    -133    -10    -41    134    140 265.7 -21.8  33896  285.11 0863.46
2015 04 09 12 11 24 .16    -119    -22    -36    122    127 259.4 -21.7  33896  285.11 0863.46
2015 04 09 12 11 24 .41    -101    -24    -30    104    108 256.3 -20.7  33904  285.24 0863.46
2015 04 09 12 11 24 .66     -94    -23    -29     97    102 255.8 -16.6  33890  285.01 0863.46
2015 04 09 12 11 24 .91     -89    -17    -31     91     97 259.0 -19.1  33888  284.99 0863.46
2015 04 09 12 11 25 .16     -99    -21    -36    102    109 258.1 -19.7  33876  284.77 0863.46
2015 04 09 12 11 25 .41    -100    -24    -28    103    107 256.3 -15.4  33878  284.82 0863.46
2015 04 09 12 11 25 .66     -99    -39    -21    107    110 248.3 -11.5  33884  284.92 0863.46
2015 04 09 12 11 25 .91     -96    -25    -20    100    103 255.4 -11.5  33876  284.77 0863.46
2015 04 09 12 11 26 .16     -98    -32    -22    104    107 251.6 -11.9  33878  284.82 0863.46
2015 04 09 12 11 26 .41    -106    -50    -15    118    119 244.6  -7.3  33874  284.74 0863.46
2015 04 09 12 11 26 .67     -88    -46    -20    100    103 242.0 -11.5  33876  284.79 0863.46
2015 04 09 12 11 26 .92     -92    -46    -25    103    107 243.4 -13.9  33882  284.89 0863.46
2015 04 09 12 11 27 .17     -97    -41    -17    106    108 246.9  -9.3  33882  284.87 0863.46
2015 04 09 12 11 27 .42     -92    -34    -21     99    102 249.6 -12.4  33882  284.87 0863.46
2015 04 09 12 11 27 .67     -86    -28    -15     91     93 251.8  -9.8  33882  284.87 0863.46
2015 04 09 12 11 27 .92     -80    -20    -19     83     86 255.8 -12.9  33880  284.86 0863.46
2015 04 09 12 11 28 .17     -91    -13    -13     92     93 261.6  -8.2  33890  285.01 0863.46
2015 04 09 12 11 28 .42     -76     -5    -14     77     79 265.7 -10.3  33890  285.01 0863.46
2015 04 09 12 11 28 .67     -73     -5    -18     74     77 265.6 -13.9  33892  285.06 0863.46
2015 04 09 12 11 28 .92     -73      5    -18     74     77 274.3 -13.9  33890  285.01 0863.46
2015 04 09 12 11 29 .18     -81      0    -11     82     83 270.4  -7.7  33888  284.97 0863.46
2015 04 09 12 11 29 .43     -83     -3     -4     84     85 267.9  -3.1  33886  284.96 0863.46
2015 04 09 12 11 29 .69     -91    -24    -12     95     96 254.9  -7.2  33894  285.07 0863.46
2015 04 09 12 11 29 .94     -65    -16      3     68     69 255.8   2.9  33906  285.28 0863.46
2015 04 09 12 11 30 .19     -63    -10     -3     64     65 260.3  -3.2  33908  285.33 0863.46
2015 04 09 12 11 30 .44     -74    -13     -3     76     77 259.4  -2.2  33910  285.34 0863.46
2015 04 09 12 11 30 .69     -72      5      0     73     74 274.4  -0.3  33920  285.53 0863.46
2015 04 09 12 11 30 .94     -45    -13     15     48     51 253.2  17.3  33940  285.87 0863.46
2015 04 09 12 11 31 .19     -19     -3     14     20     24 258.5  39.7  33956  286.14 0863.46
2015 04 09 12 11 31 .44     -20    -20     21     29     35 225.0  39.7  33974  286.42 0863.46
2015 04 09 12 11 31 .69     -52    -17     -2     55     56 251.4  -2.2  33966  286.29 0863.46
2015 04 09 12 11 31 .94     -36      8      1     37     38 283.3   2.8  33982  286.57 0863.46
2015 04 09 12 11 32 .19     -24    -12      1     28     29 242.9   2.8  33974  286.42 0863.46
2015 04 09 12 11 32 .44     -55    -19     -3     59     60 250.9  -3.1  33948  286.00 0863.46
2015 04 09 12 11 32 .69     -80     -1      5     81     82 269.2   3.8  33942  285.90 0863.46
2015 04 09 12 11 32 .95    -104      6    -29    105    110 273.5 -15.5  33906  285.29 0863.46
2015 04 09 12 11 33 .19     -88     13      8     90     91 278.8   5.4  33914  285.43 0863.46
2015 04 09 12 11 33 .44    -106     21    -17    109    111 281.5  -8.8  33896  285.13 0863.45
2015 04 09 12 11 33 .69    -128     26    -26    131    134 281.9 -11.5  33884  284.92 0863.45
2015 04 09 12 11 33 .94    -105     19    -29    107    112 280.6 -15.5  33878  284.81 0863.45
2015 04 09 12 11 34 .19     -91     34    -24     98    101 290.8 -13.9  33880  284.84 0863.45
2015 04 09 12 11 34 .45    -101     40    -32    109    113 291.8 -21.2  33886  284.96 0863.45
2015 04 09 12 11 34 .70    -114     23    -15    117    119 281.5  -7.7  33898  285.14 0863.45
2015 04 09 12 11 34 .94    -110     39    -32    117    122 289.9 -15.4  33888  284.99 0863.45
2015 04 09 12 11 35 .19     -99     27    -34    103    109 285.5 -18.7  33884  284.91 0863.45
2015 04 09 12 11 35 .45     -96     20    -37     99    105 281.9 -25.9  33874  284.76 0863.45
2015 04 09 12 11 35 .70     -97     30    -25    102    106 287.7 -13.9  33890  285.01 0863.45
2015 04 09 12 11 35 .95     -92     24    -30     96    100 285.1 -22.8  33882  284.87 0863.45
2015 04 09 12 11 36 .21     -86     21    -35     89     95 284.2 -26.9  33882  284.89 0863.45
2015 04 09 12 11 36 .46     -90     30    -25     95     99 288.6 -15.0  33906  285.28 0863.45
2015 04 09 12 11 36 .71    -118     16    -14    120    121 278.0  -6.7  33920  285.53 0863.45
2015 04 09 12 11 36 .96     -91     40      6    100    101 294.0   3.8  33928  285.66 0863.45
2015 04 09 12 11 37 .21     -59     36     -3     70     71 301.5  -3.1  33924  285.58 0863.45
2015 04 09 12 11 37 .46     -72     40     -3     83     84 298.9  -2.2  33910  285.34 0863.45
2015 04 09 12 11 37 .72     -66      8    -18     67     70 277.0 -15.4  33946  285.95 0863.45
2015 04 09 12 11 37 .97     -43    -21    -10     48     50 243.8 -12.4  33960  286.19 0863.46
2015 04 09 12 11 38 .22     -13    -13     25     19     31 223.4  56.4  33980  286.54 0863.46
2015 04 09 12 11 38 .46     -46    -13      5     48     49 254.1   6.9  33958  286.17 0863.46
2015 04 09 12 11 38 .72     -44    -33      1     56     57 233.1   1.8  33958  286.15 0863.46
2015 04 09 12 11 38 .96     -62    -24    -11     67     68 248.3  -9.3  33950  286.03 0863.45
2015 04 09 12 11 39 .22     -69    -45     13     83     85 236.7   9.0  33962  286.22 0863.45
2015 04 09 12 11 39 .47     -42    -45      3     62     63 223.3   2.9  33978  286.51 0863.45
2015 04 09 12 11 39 .71     -87    -12      4     88     89 261.6   2.9  33962  286.22 0863.45
2015 04 09 12 11 39 .97     -68      0    -10     69     70 270.8  -8.2  33954  286.08 0863.45
2015 04 09 12 11 40 .21     -46      9     21     47     51 281.5  26.2  33968  286.32 0863.45
2015 04 09 12 11 40 .48     -63    -30    -16     70     72 244.6 -13.4  33954  286.08 0863.45
2015 04 09 12 11 40 .72     -22     -1     24     23     33 265.6  48.2  33976  286.47 0863.45
2015 04 09 12 11 41 .00     -46    -45     27     65     70 226.0  24.1  33982  286.56 0863.45
2015 04 09 12 11 41 .22    -118    -47    -11    128    129 248.3  -5.2  33928  285.65 0863.45
2015 04 09 12 11 41 .47    -117    -32    -20    122    124 254.5  -9.3  33930  285.68 0863.45
2015 04 09 12 11 41 .72    -110    -47     -6    120    121 246.5  -3.2  33938  285.82 0863.45
2015 04 09 12 11 41 .97    -100    -33    -29    106    110 251.8 -15.4  33948  285.98 0863.45
2015 04 09 12 11 42 .23     -98    -32    -10    104    105 251.8  -5.6  33964  286.25 0863.45
2015 04 09 12 11 42 .48     -64    -25    -11     69     70 248.3  -9.3  33970  286.35 0863.45
2015 04 09 12 11 42 .73     -39    -32      5     51     52 230.5   5.9  33974  286.42 0863.45
2015 04 09 12 11 42 .99     -40      0     14     41     44 270.0  19.2  33992  286.73 0863.45
2015 04 09 12 11 43 .24     -55      4    -20     56     60 274.4 -19.7  33988  286.66 0863.45
2015 04 09 12 11 43 .48     -64     23      0     69     70 290.0  -0.3  33978  286.49 0863.45
2015 04 09 12 11 43 .74    -116      8    -10    117    118 274.4  -5.1  33990  286.69 0863.45
2015 04 09 12 11 43 .99    -100    -17      5    102    103 259.9   2.9  34000  286.88 0863.45
2015 04 09 12 11 44 .24    -134      9    -15    135    136 273.9  -6.7  33986  286.64 0863.45
2015 04 09 12 11 44 .49    -139      0    -18    140    142 270.4  -7.3  33946  285.95 0863.45
2015 04 09 12 11 44 .74    -114      0    -15    115    117 270.4  -7.7  33956  286.14 0863.45
2015 04 09 12 11 44 .99    -160      3    -14    161    162 271.3  -5.2  33994  286.78 0863.45
2015 04 09 12 11 45 .24    -142     16      7    143    144 276.6   2.8  34000  286.86 0863.45
2015 04 09 12 11 45 .49    -128     26    -26    131    134 281.9 -11.5  33984  286.61 0863.45
2015 04 09 12 11 45 .74    -119     25    -21    122    124 281.9  -9.8  34012  287.08 0863.45
2015 04 09 12 11 45 .99    -140     10    -13    141    142 274.3  -5.6  34032  287.40 0863.45
2015 04 09 12 11 46 .24    -140     23    -15    142    143 279.6  -6.2  34018  287.16 0863.45
2015 04 09 12 11 46 .50     -95     37    -14    102    104 291.3  -8.2  34038  287.50 0863.45
2015 04 09 12 11 46 .75     -50     41     15     66     68 309.5  13.2  34064  287.96 0863.45
2015 04 09 12 11 47 .00     -41      9     -1     43     44 283.3  -2.2  34068  288.03 0863.44
2015 04 09 12 11 47 .25      -3     11      3     12     13 344.9  15.3  34100  288.55 0863.44
2015 04 09 12 11 47 .50     -22     -7     25     24     34 251.8  48.2  34118  288.87 0863.44
2015 04 09 12 11 47 .75     -25     -8     34     27     43 251.4  57.5  34128  289.04 0863.44
2015 04 09 12 11 48 .00     -66    -68     57     96    111 224.1  33.5  34134  289.14 0863.44
2015 04 09 12 11 48 .24     -64    -88     16    109    111 216.1   8.5  34110  288.74 0863.44
2015 04 09 12 11 48 .50     -68    -23     14     72     74 250.9  11.0  34058  287.84 0863.44
2015 04 09 12 11 48 .75     -32    -11      6     35     36 250.0  11.0  34036  287.49 0863.45
2015 04 09 12 11 49 .00     -12     -4     20     13     23 251.4  64.7  34040  287.55 0863.45
2015 04 09 12 11 49 .25     -36    -21    -18     43     46 239.3 -27.4  33980  286.52 0863.45
2015 04 09 12 11 49 .50     -12    -27     10     30     32 205.5  19.4  34006  286.96 0863.45
2015 04 09 12 11 49 .75    -121    -39    -26    128    131 251.8 -11.5  33952  286.05 0863.45
2015 04 09 12 11 50 .01    -167    -45    -27    174    177 254.9  -9.0  33918  285.48 0863.45
2015 04 09 12 11 50 .26    -170    -49    -45    177    183 253.8 -14.5  33926  285.61 0863.45
2015 04 09 12 11 50 .52    -143    -52    -27    153    156 250.1 -10.1  33940  285.85 0863.45
2015 04 09 12 11 50 .77    -154    -37     -6    159    160 256.3  -2.3  33962  286.22 0863.46
2015 04 09 12 11 51 .02     -87    -22     -8     90     91 255.8  -5.6  33986  286.64 0863.46
2015 04 09 12 11 51 .27     -44    -36     20     58     62 230.5  19.2  33998  286.84 0863.46
2015 04 09 12 11 51 .51     -44    -17      8     48     49 249.2  10.1  34002  286.89 0863.46
2015 04 09 12 11 51 .76    -148    -31    -27    152    155 258.1 -10.1  33942  285.90 0863.46
2015 04 09 12 11 52 .02    -154    -48    -22    162    164 252.5  -8.0  33896  285.13 0863.46
2015 04 09 12 11 52 .27    -178    -59    -38    188    192 251.6 -11.6  33930  285.70 0863.46
2015 04 09 12 11 52 .52    -127    -24      6    130    131 259.0   2.8  33954  286.08 0863.45
2015 04 09 12 11 52 .77    -150     16    -19    151    153 276.2  -7.3  33952  286.07 0863.45
2015 04 09 12 11 53 .02    -131    -43      2    138    139 251.8   1.2  33964  286.25 0863.45
2015 04 09 12 11 53 .27    -178    -59    -18    188    189 251.4  -5.6  33940  285.85 0863.45
2015 04 09 12 11 53 .52    -185    -49    -24    192    194 255.0  -7.2  33942  285.90 0863.45
2015 04 09 12 11 53 .77    -126    -42    -17    134    136 251.4  -7.2  33974  286.42 0863.45
2015 04 09 12 11 54 .02    -127    -39     -2    133    134 252.7  -1.2  33996  286.81 0863.45
2015 04 09 12 11 54 .27     -54    -18     20     58     62 251.4  18.9  34006  286.96 0863.45
2015 04 09 12 11 54 .52     -63    -31    -16     71     73 243.8 -13.4  34004  286.93 0863.45
2015 04 09 12 11 54 .77     -25    -45     29     52     59 209.0  31.4  34006  286.96 0863.45
2015 04 09 12 11 55 .03     -56     26     32     62     69 295.2  29.3  34016  287.15 0863.45
2015 04 09 12 11 55 .28    -140     24    -24    143    146 279.7  -9.8  33984  286.59 0863.45
2015 04 09 12 11 55 .53     -26    -34     40     44     59 217.8  47.9  34038  287.50 0863.45
2015 04 09 12 11 55 .77    -128      3     25    129    132 271.7  11.0  33990  286.71 0863.45
2015 04 09 12 11 56 .03     -94      2     42     95    103 271.3  25.1  33972  286.39 0863.45
2015 04 09 12 11 56 .28    -171     48    -39    178    183 285.7 -12.4  33944  285.93 0863.45
2015 04 09 12 11 56 .53    -210     29    -18    212    213 277.9  -5.1  33948  286.00 0863.45
2015 04 09 12 11 56 .78    -232     17    -29    233    235 274.4  -7.2  33944  285.91 0863.45
2015 04 09 12 11 57 .03    -214      1    -33    215    218 270.4  -8.8  33906  285.28 0863.45
2015 04 09 12 11 57 .29    -210    -20    -27    212    214 264.3  -7.5  33890  285.01 0863.45
2015 04 09 12 11 57 .54    -209      8    -48    210    216 272.4 -12.9  33880  284.86 0863.45
2015 04 09 12 11 57 .79    -203     12    -40    204    208 273.5 -11.1  33882  284.87 0863.45
2015 04 09 12 11 58 .04    -197     -4    -40    198    203 268.7 -11.6  33882  284.89 0863.45
2015 04 09 12 11 58 .29    -182     -8    -36    183    187 267.4 -11.3  33884  284.91 0863.45
2015 04 09 12 11 58 .54    -182    -15    -36    183    187 265.0 -11.3  33880  284.86 0863.45
2015 04 09 12 11 58 .79    -188     28    -26    191    193 278.6  -8.0  33886  284.96 0863.45
2015 04 09 12 11 59 .04    -162      2     -3    163    164 270.8  -1.3  33902  285.21 0863.45
2015 04 09 12 11 59 .29    -200     -9    -17    201    202 267.2  -4.9  33922  285.56 0863.45
2015 04 09 12 11 59 .54    -209     12    -26    210    212 273.3  -7.2  33910  285.34 0863.45
2015 04 09 12 11 59 .80    -205      8    -29    206    209 272.4  -8.0  33926  285.61 0863.45
2015 04 09 12 12 00 .05    -254    -12    -22    255    257 267.2  -5.1  33960  286.20 0863.45
2015 04 09 12 12 00 .30    -269    -37    -35    272    275 262.1  -7.3  33950  286.01 0863.45
2015 04 09 12 12 00 .55    -269    -29    -44    271    275 263.8  -9.3  33968  286.31 0863.45
2015 04 09 12 12 00 .80    -239     18    -39    240    244 274.4  -9.3  33950  286.01 0863.45
2015 04 09 12 12 01 .05    -127      2     44    128    136 271.3  18.9  33990  286.69 0863.45
2015 04 09 12 12 01 .30    -108    -29     -1    112    113 254.9  -0.7  33990  286.69 0863.45
2015 04 09 12 12 01 .55     -99    -91     31    135    139 227.3  13.2  33948  286.00 0863.45
2015 04 09 12 12 01 .80    -210    -99    -29    233    235 244.8  -7.2  33988  286.65 0863.45
2015 04 09 12 12 02 .05    -186   -104    -16    214    215 240.9  -4.4  34008  287.00 0863.45
2015 04 09 12 12 02 .30    -224    -80    -34    238    241 250.3  -8.2  33900  285.19 0863.45
2015 04 09 12 12 02 .55    -228    -84    -36    244    247 249.8  -8.6  33898  285.15 0863.45
2015 04 09 12 12 02 .80    -226    -74    -52    238    244 251.8 -12.4  33902  285.20 0863.45
2015 04 09 12 12 03 .05    -229    -95    -53    249    255 247.4 -12.2  33902  285.20 0863.45
2015 04 09 12 12 03 .30    -243    -84    -51    258    264 250.9 -11.3  33904  285.24 0863.45
2015 04 09 12 12 03 .55    -249    -83    -51    263    269 251.4 -11.1  33900  285.19 0863.45
2015 04 09 12 12 03 .80    -229    -73    -61    241    249 252.3 -14.3  33904  285.24 0863.45
2015 04 09 12 12 04 .06    -232    -69    -40    243    247 253.4  -9.3  33906  285.29 0863.45
2015 04 09 12 12 04 .31    -215    -69    -41    226    230 252.1 -10.5  33904  285.24 0863.45
2015 04 09 12 12 04 .57    -247    -83    -37    261    264 251.4  -8.2  33908  285.32 0863.45
2015 04 09 12 12 04 .82    -247    -78    -53    260    266 252.5 -11.6  33918  285.49 0863.45
2015 04 09 12 12 05 .06    -234    -61    -60    242    250 255.4 -13.9  33910  285.34 0863.45
2015 04 09 12 12 05 .32    -215    -47    -56    221    229 257.6 -14.4  33914  285.41 0863.45
2015 04 09 12 12 05 .57    -212    -62    -72    221    233 253.6 -18.1  33932  285.71 0863.45
2015 04 09 12 12 05 .82    -236    -46    -44    241    246 258.8 -10.5  33956  286.11 0863.45
2015 04 09 12 12 06 .07    -209    -56    -35    217    220 254.9  -9.3  33974  286.44 0863.45
2015 04 09 12 12 06 .32    -179    -52    -24    187    189 253.8  -7.3  33984  286.59 0863.45
2015 04 09 12 12 06 .57    -176    -30     -9    179    180 260.3  -3.1  34016  287.15 0863.45
2015 04 09 12 12 06 .82    -168    -70    -10    183    184 247.4  -3.1  34004  286.93 0863.45
2015 04 09 12 12 07 .07    -122   -101      3    159    160 230.4   1.2  33970  286.35 0863.45
2015 04 09 12 12 07 .33    -155   -102     -8    186    187 236.5  -2.6  34012  287.06 0863.45
2015 04 09 12 12 07 .57    -168   -116    -14    205    206 235.4  -4.1  34032  287.40 0863.45
2015 04 09 12 12 07 .82    -187   -113     -8    219    220 238.7  -2.3  34046  287.65 0863.44
2015 04 09 12 12 08 .07    -207    -78    -20    222    223 249.4  -5.2  33996  286.81 0863.44
2015 04 09 12 12 08 .33    -179    -75    -15    195    196 247.2  -4.6  34020  287.20 0863.44
2015 04 09 12 12 08 .58    -130    -43    -17    138    140 251.4  -7.3  34032  287.42 0863.44
2015 04 09 12 12 08 .83     -55     -6    -20     56     60 263.0 -19.7  34064  287.94 0863.44
2015 04 09 12 12 09 .08    -140    -21    -39    142    148 261.2 -15.5  34074  288.13 0863.44
2015 04 09 12 12 09 .32     -56    -42     61     71     93 233.1  45.4  34064  287.96 0863.44
2015 04 09 12 12 09 .58    -201     -9    -34    202    206 267.4  -9.8  33960  286.19 0863.44
2015 04 09 12 12 09 .83    -165    -20     -8    167    168 262.8  -2.8  33978  286.51 0863.45
2015 04 09 12 12 10 .08    -171    -32    -23    175    177 259.2  -7.5  33964  286.27 0863.45
2015 04 09 12 12 10 .33    -178      0     -3    179    180 270.0  -1.3  33984  286.59 0863.45
2015 04 09 12 12 10 .58    -273    -25    -34    275    278 264.7  -7.2  33986  286.63 0863.45
2015 04 09 12 12 10 .84    -245    -36    -33    248    251 261.6  -7.7  34000  286.85 0863.45
2015 04 09 12 12 11 .09    -267    -24    -40    269    273 264.7  -8.6  34006  286.97 0863.45
2015 04 09 12 12 11 .34    -267     -2    -42    268    272 269.4  -9.0  33986  286.62 0863.45
2015 04 09 12 12 11 .59    -264    -21    -45    265    269 265.4  -9.8  34000  286.87 0863.45
2015 04 09 12 12 11 .84    -189    -53    -25    197    199 254.1  -7.3  33994  286.78 0863.45
2015 04 09 12 12 12 .09    -186    -44    -40    192    197 256.7 -11.9  34032  287.42 0863.45
2015 04 09 12 12 12 .34     -21     -8     39     23     45 248.3  65.7  34058  287.86 0863.45
2015 04 09 12 12 12 .59     -25     38     87     46     98 326.6  70.4  34072  288.08 0863.45
2015 04 09 12 12 12 .84     -35    -32     52     48     70 227.8  52.2  34046  287.65 0863.45
2015 04 09 12 12 13 .10    -223     23    -57    225    233 275.9 -14.3  34002  286.89 0863.45
2015 04 09 12 12 13 .35    -237     -2    -13    238    239 269.4  -3.1  33994  286.75 0863.45
2015 04 09 12 12 13 .60    -217     32    -44    220    225 278.6 -11.5  34022  287.25 0863.45
2015 04 09 12 12 13 .85    -265     27    -43    267    271 275.9  -9.3  33992  286.72 0863.45
2015 04 09 12 12 14 .10    -252    -79    -19    265    266 252.5  -4.1  34018  287.16 0863.44
2015 04 09 12 12 14 .34    -282     12    -21    283    284 272.6  -4.4  34026  287.29 0863.44
2015 04 09 12 12 14 .60    -289      8    -36    290    293 271.7  -7.2  33990  286.68 0863.44
2015 04 09 12 12 14 .85    -311     -9     -2    312    313 268.3  -0.5  33952  286.06 0863.44
2015 04 09 12 12 15 .10    -371     54    -71    375    382 278.4 -10.8  33894  285.08 0863.44
2015 04 09 12 12 15 .40    -388     34    -49    390    394 275.1  -7.2  33936  285.80 0863.44
2015 04 09 12 12 15 .61    -334      8    -67    335    342 271.4 -11.3  33960  286.19 0863.44
2015 04 09 12 12 15 .85    -180     13    -32    181    184 274.3 -10.3  34030  287.38 0863.44
2015 04 09 12 12 16 .10    -360     52    -46    364    367 278.3  -7.3  33958  286.17 0863.44
2015 04 09 12 12 16 .35    -181    -59    -12    191    192 251.8  -3.7  34052  287.76 0863.44
2015 04 09 12 12 16 .61    -311    -17    -55    312    317 266.7 -10.1  33970  286.36 0863.44
2015 04 09 12 12 16 .86    -308     18    -50    309    314 273.4  -9.3  33976  286.47 0863.44
2015 04 09 12 12 17 .11    -305     23    -22    306    307 274.4  -4.1  34016  287.12 0863.44
2015 04 09 12 12 17 .35    -378    -19     -7    379    380 267.0  -1.2  33946  285.97 0863.44
2015 04 09 12 12 17 .61    -398     19    -15    399    400 272.8  -2.2  33968  286.34 0863.44
2015 04 09 12 12 17 .86    -368     -9    -35    369    371 268.5  -5.5  33956  286.12 0863.44
2015 04 09 12 12 18 .12    -344    -16    -32    345    347 267.2  -5.3  34008  287.00 0863.44
2015 04 09 12 12 18 .36    -182     -1     22    183    185 269.6   7.1  33998  286.83 0863.44
2015 04 09 12 12 18 .62    -283     -4     -3    284    285 269.2  -0.7  33938  285.81 0863.44
2015 04 09 12 12 18 .87    -314      5     -6    315    316 271.0  -1.1  33916  285.45 0863.44
2015 04 09 12 12 19 .12    -303    -52    -53    308    313 260.1  -9.9  33904  285.25 0863.44
2015 04 09 12 12 19 .37    -352    -49    -29    356    358 262.0  -4.8  33948  285.99 0863.44
2015 04 09 12 12 19 .62    -292     50      4    297    298 279.9   0.8  33918  285.47 0863.44
2015 04 09 12 12 19 .87    -365    -93    -53    377    381 255.7  -8.0  33892  285.04 0863.44
2015 04 09 12 12 20 .12    -384     39    -44    387    390 275.8  -6.6  33886  284.93 0863.44
2015 04 09 12 12 20 .37    -327     -5    -49    328    332 269.1  -8.6  33898  285.16 0863.44
2015 04 09 12 12 20 .62    -378    -33    -45    380    383 264.9  -6.9  33930  285.67 0863.44
2015 04 09 12 12 20 .87    -315    -23    -49    316    320 265.7  -8.9  33918  285.47 0863.44
2015 04 09 12 12 21 .12    -262    -48    -35    267    270 259.5  -7.5  33894  285.07 0863.44
2015 04 09 12 12 21 .38    -341    -35    -69    343    350 264.1 -11.5  33882  284.89 0863.44
2015 04 09 12 12 21 .63    -327    -21    -49    328    332 266.2  -8.6  33878  284.81 0863.44
2015 04 09 12 12 21 .87    -298    -72    -47    307    311 256.3  -8.8  33876  284.77 0863.44
2015 04 09 12 12 22 .13    -247    -48    -70    252    262 259.0 -15.5  33900  285.17 0863.44
2015 04 09 12 12 22 .38    -371    -75    -64    379    385 258.5  -9.7  33902  285.20 0863.44
2015 04 09 12 12 22 .63    -364    -48    -64    368    374 262.4  -9.9  33876  284.78 0863.44
2015 04 09 12 12 22 .88    -298    -68    -64    306    313 257.0 -11.9  33870  284.68 0863.44
2015 04 09 12 12 23 .13    -365    -69    -40    372    375 259.3  -6.3  33888  284.99 0863.44
2015 04 09 12 12 23 .38    -392    -80    -66    401    407 258.4  -9.3  33924  285.58 0863.44
2015 04 09 12 12 23 .63    -347    -91    -47    359    363 255.2  -7.5  33930  285.68 0863.44
2015 04 09 12 12 23 .88    -393    -65    -66    399    405 260.6  -9.5  33920  285.53 0863.44
2015 04 09 12 12 24 .13    -226     -8      0    227    228 267.9   0.2  33922  285.56 0863.44
2015 04 09 12 12 24 .38    -236    -28    -17    238    239 263.2  -4.1  33940  285.84 0863.44
2015 04 09 12 12 24 .63    -290     16    -35    291    294 273.3  -6.9  33990  286.68 0863.44
2015 04 09 12 12 24 .89    -218    -44    -72    223    235 258.5 -17.9  33974  286.42 0863.44
2015 04 09 12 12 25 .14    -265    -76    -33    276    279 253.8  -6.9  33992  286.72 0863.44
2015 04 09 12 12 25 .39    -306    -51    -40    311    314 260.4  -7.3  33936  285.79 0863.44
2015 04 09 12 12 25 .65    -387    -85    -72    397    404 257.6 -10.4  33928  285.65 0863.44
2015 04 09 12 12 25 .90    -298    -49    -16    303    304 260.5  -3.2  33958  286.15 0863.44
2015 04 09 12 12 26 .14    -153    -72     24    170    172 244.7   8.2  34038  287.50 0863.44
2015 04 09 12 12 26 .40     -92     31     -2     98     99 288.6  -1.3  34030  287.38 0863.44
2015 04 09 12 12 26 .65    -171     -6      7    172    173 267.9   2.5  34084  288.28 0863.44
2015 04 09 12 12 26 .90     -13     -8     20     16     25 237.5  56.4  34094  288.45 0863.44
2015 04 09 12 12 27 .15    -265     11    -17    266    267 272.4  -3.7  34058  287.83 0863.44
2015 04 09 12 12 27 .40    -292    -50    -11    297    298 260.3  -2.2  34058  287.85 0863.44
2015 04 09 12 12 27 .65    -407    -18    -59    408    413 267.4  -8.2  33906  285.29 0863.44
2015 04 09 12 12 27 .90    -373     39    -62    376    382 276.1  -9.4  33908  285.30 0863.44
2015 04 09 12 12 28 .15    -376    -12    -62    377    383 268.1  -9.3  33870  284.69 0863.44
2015 04 09 12 12 28 .41    -350    -52    -61    354    360 261.5  -9.8  33978  286.49 0863.44
2015 04 09 12 12 28 .65    -370    -17    -48    371    375 267.3  -7.4  34052  287.74 0863.43
2015 04 09 12 12 28 .90    -228    -53    -21    235    236 256.7  -5.2  34068  288.02 0863.43
2015 04 09 12 12 29 .15    -236    -47    -13    241    242 258.5  -3.3  34086  288.31 0863.43
2015 04 09 12 12 29 .40    -246    -93    -14    264    265 249.2  -3.1  34064  287.93 0863.43
2015 04 09 12 12 29 .65    -319    -25    -76    321    331 265.4 -13.4  33876  284.77 0863.43
2015 04 09 12 12 29 .90    -350    -51    -72    354    362 261.6 -11.5  33880  284.83 0863.43
2015 04 09 12 12 30 .16    -298    -35     -2    301    302 263.2  -0.5  33972  286.38 0863.43
2015 04 09 12 12 30 .40    -329     -1    -32    330    332 269.7  -5.6  33946  285.94 0863.43
2015 04 09 12 12 30 .66    -264    -20    -45    265    269 265.6  -9.8  33910  285.34 0863.43
2015 04 09 12 12 30 .91    -229    -20     -1    230    231 264.8  -0.3  33936  285.80 0863.43
2015 04 09 12 12 31 .16    -340    -11    -28    341    343 268.1  -4.8  33962  286.21 0863.43
2015 04 09 12 12 31 .41    -337    -66    -50    344    348 258.8  -8.4  33918  285.48 0863.43
2015 04 09 12 12 31 .67    -346    -27    -27    348    350 265.4  -4.5  33952  286.07 0863.43
2015 04 09 12 12 31 .92    -229     -8    -10    230    231 267.9  -2.6  33940  285.85 0863.43
2015 04 09 12 12 32 .17    -202    -62     13    212    213 252.9   3.6  33986  286.64 0863.43
2015 04 09 12 12 32 .42    -417    -26    -61    418    423 266.4  -8.4  33924  285.58 0863.43
2015 04 09 12 12 32 .67    -318    -35    -41    320    323 263.6  -7.5  33918  285.49 0863.43
2015 04 09 12 12 32 .92    -279    -33    -20    281    282 263.2  -4.1  33912  285.39 0863.43
2015 04 09 12 12 33 .17    -276     -8    -15    277    278 268.3  -3.1  33930  285.69 0863.43
2015 04 09 12 12 33 .42    -189     -6      7    190    191 267.9   2.1  33970  286.37 0863.43
2015 04 09 12 12 33 .67    -245   -111    -24    270    272 245.6  -5.2  34000  286.85 0863.43
2015 04 09 12 12 33 .93    -153    -11     30    154    157 265.7  11.1  34026  287.30 0863.43
2015 04 09 12 12 34 .17    -227    -20     -4    228    229 264.8  -1.1  33950  286.03 0863.43
2015 04 09 12 12 34 .43    -297     22    -37    298    301 274.4  -7.2  33944  285.93 0863.43
2015 04 09 12 12 34 .68    -237    -59    -51    245    251 255.8 -11.9  33986  286.62 0863.43
2015 04 09 12 12 34 .93    -380   -128    -46    402    405 251.4  -6.6  34032  287.40 0863.43
2015 04 09 12 12 35 .18    -331   -132    -32    357    359 248.2  -5.2  34044  287.61 0863.43
2015 04 09 12 12 35 .43    -348   -127    -24    371    372 250.0  -3.7  34010  287.05 0863.43
2015 04 09 12 12 35 .68    -313   -140    -13    343    344 245.9  -2.2  34048  287.67 0863.43
2015 04 09 12 12 35 .94    -347   -120    -49    368    372 250.8  -7.6  34004  286.93 0863.43
2015 04 09 12 12 36 .18    -243    -81    -33    257    260 251.4  -7.5  34104  288.61 0863.43
2015 04 09 12 12 36 .43    -203    -16    -29    204    207 265.4  -8.2  34044  287.60 0863.43
2015 04 09 12 12 36 .68    -196   -133    -44    237    242 235.8 -10.5  34102  288.58 0863.43
2015 04 09 12 12 36 .93    -205   -128    -20    242    243 238.0  -4.9  34120  288.90 0863.42
2015 04 09 12 12 37 .18    -355   -166    -35    393    395 244.9  -5.2  33866  284.62 0863.42
2015 04 09 12 12 37 .43    -369   -166    -46    405    408 245.7  -6.5  33880  284.84 0863.42
2015 04 09 12 12 37 .68    -345   -111    -52    363    367 252.2  -8.2  33946  285.95 0863.42
2015 04 09 12 12 37 .93    -369   -107    -50    385    389 253.9  -7.5  33888  284.99 0863.42
2015 04 09 12 12 38 .18    -313   -131    -35    340    342 247.2  -5.9  33952  286.04 0863.42
2015 04 09 12 12 38 .43    -287    -67    -19    295    296 256.8  -3.7  33996  286.80 0863.42
2015 04 09 12 12 38 .70    -279    -65    -63    287    294 256.8 -12.4  34034  287.43 0863.42
2015 04 09 12 12 38 .94    -258    -62    -34    266    269 256.3  -7.3  34032  287.39 0863.42
2015 04 09 12 12 39 .20    -132    -78      3    154    155 239.3   1.2  34028  287.33 0863.42
2015 04 09 12 12 39 .44    -301    -37    -68    304    312 262.9 -12.6  33912  285.37 0863.42
2015 04 09 12 12 39 .70    -292    -78    -19    303    304 255.0  -3.7  33902  285.20 0863.42
2015 04 09 12 12 39 .95    -339    -22    -58    340    346 266.2  -9.8  33892  285.04 0863.42
2015 04 09 12 12 40 .20    -143    -25     18    146    148 259.9   7.1  33972  286.41 0863.42
2015 04 09 12 12 40 .45    -224    -73    -61    236    244 251.8 -14.5  33994  286.77 0863.41
2015 04 09 12 12 40 .70    -109    -78      6    135    136 234.5   2.8  34044  287.62 0863.41
2015 04 09 12 12 40 .95    -253    -51    -42    259    263 258.5  -9.3  33920  285.52 0863.41
2015 04 09 12 12 41 .20    -301    -47    -80    305    316 261.0 -14.7  33912  285.37 0863.41
2015 04 09 12 12 41 .45    -157   -120     35    198    202 232.5  10.1  34034  287.43 0863.41
2015 04 09 12 12 41 .70    -200    -15     -7    201    202 265.7  -2.2  33932  285.71 0863.41
2015 04 09 12 12 41 .95    -267    -54    -64    273    281 258.6 -13.2  33876  284.78 0863.41
2015 04 09 12 12 42 .20    -265    -29    -38    267    270 263.6  -8.2  33890  285.00 0863.41
2015 04 09 12 12 42 .45    -240     -5     -9    241    242 268.7  -2.2  33892  285.05 0863.41
2015 04 09 12 12 42 .70    -296    -97    -75    312    321 251.8 -13.6  33880  284.83 0863.41
2015 04 09 12 12 42 .95    -281    -61    -52    288    293 257.6 -10.3  33894  285.07 0863.41
2015 04 09 12 12 43 .21    -325    -62    -66    332    339 259.1 -11.3  33886  284.93 0863.41
2015 04 09 12 12 43 .46    -273    -29    -29    275    277 263.9  -6.1  33930  285.67 0863.41
2015 04 09 12 12 43 .71    -280    -21    -39    281    284 265.6  -8.0  33914  285.42 0863.41
2015 04 09 12 12 43 .96    -289    -35    -41    292    295 263.0  -8.0  33954  286.08 0863.41
2015 04 09 12 12 44 .21    -170    -50      3    178    179 253.6   1.0  33942  285.88 0863.41
2015 04 09 12 12 44 .46    -248    -50    -35    254    257 258.6  -8.0  33948  285.98 0863.41
2015 04 09 12 12 44 .71    -238    -31    -17    240    241 262.5  -4.1  33938  285.81 0863.41
2015 04 09 12 12 44 .96    -267    -58    -70    274    283 257.7 -14.4  33928  285.66 0863.41
2015 04 09 12 12 45 .21    -227   -124    -53    259    265 241.4 -11.6  33910  285.35 0863.41
2015 04 09 12 12 45 .46    -324    -80    -64    334    341 256.1 -10.9  33892  285.04 0863.41
2015 04 09 12 12 45 .72    -300     -1    -32    301    303 269.6  -6.2  33890  285.02 0863.41
2015 04 09 12 12 45 .97    -237    -18    -30    238    240 265.6  -7.2  33900  285.17 0863.42
2015 04 09 12 12 46 .22    -259    -82    -18    272    273 252.3  -3.9  33936  285.79 0863.42
2015 04 09 12 12 46 .47    -248      7    -13    249    250 271.7  -3.1  33940  285.84 0863.42
2015 04 09 12 12 46 .72    -113     -1     36    114    120 269.2  17.9  33936  285.80 0863.42
2015 04 09 12 12 46 .97    -304    -81    -53    315    320 255.0  -9.6  33916  285.45 0863.42
2015 04 09 12 12 47 .22    -164     80     21    183    185 296.0   6.7  33950  286.02 0863.42
2015 04 09 12 12 47 .48    -338    -35    -52    340    344 263.9  -8.7  33916  285.45 0863.42
2015 04 09 12 12 47 .73    -295      0    -38    296    299 270.0  -7.3  33984  286.58 0863.41
2015 04 09 12 12 47 .98    -171    -46     20    178    180 254.9   6.7  33978  286.51 0863.41
2015 04 09 12 12 48 .23    -283     21    -25    284    286 274.4  -5.2  33940  285.86 0863.41
2015 04 09 12 12 48 .48    -262    -18    -10    263    264 265.9  -2.2  33988  286.67 0863.41
2015 04 09 12 12 48 .72    -271     17    -26    272    274 273.7  -5.6  33952  286.04 0863.41
2015 04 09 12 12 48 .98    -302     14    -60    303    310 272.8 -11.3  33890  285.02 0863.41
2015 04 09 12 12 49 .23    -244     57     -5    251    252 283.3  -1.2  33918  285.47 0863.41
2015 04 09 12 12 49 .48    -250      4    -27    251    253 271.0  -6.2  33942  285.89 0863.42
2015 04 09 12 12 49 .73    -218      0    -12    219    220 270.1  -3.1  33942  285.88 0863.42
2015 04 09 12 12 49 .98    -208    -26    -34    210    213 262.8  -9.4  33970  286.37 0863.42
2015 04 09 12 12 50 .23     -95      5     33     96    102 273.0  18.9  33978  286.51 0863.42
2015 04 09 12 12 50 .48     -64     16     33     66     73 284.2  27.3  33986  286.64 0863.42
2015 04 09 12 12 50 .73     -46     33     34     57     66 306.0  34.4  34020  287.21 0863.42
2015 04 09 12 12 50 .98    -161     17    -23    162    164 276.1  -8.2  34042  287.57 0863.42
2015 04 09 12 12 51 .23    -138    -20    -12    140    141 261.6  -5.2  34052  287.74 0863.42
2015 04 09 12 12 51 .48    -186      0     -5    187    188 269.9  -1.6  34036  287.49 0863.42
2015 04 09 12 12 51 .73     -69   -102     36    124    130 214.3  16.3  34036  287.47 0863.42
2015 04 09 12 12 51 .99    -102      0     22    103    106 269.6  12.2  34032  287.40 0863.42
2015 04 09 12 12 52 .23     -86      5     -6     87     88 273.5  -4.1  34048  287.67 0863.42
2015 04 09 12 12 52 .50    -100     36    -13    107    108 290.0  -7.3  34050  287.70 0863.42
2015 04 09 12 12 52 .74    -159     64    -11    172    173 292.2  -3.7  34058  287.86 0863.42
2015 04 09 12 12 52 .99    -213     44    -11    218    219 281.7  -3.1  34082  288.26 0863.42
2015 04 09 12 12 53 .24    -172      5    -36    173    177 271.7 -11.9  34050  287.70 0863.42
2015 04 09 12 12 53 .50    -162    100     -7    191    192 301.8  -2.1  34050  287.72 0863.42
2015 04 09 12 12 53 .76    -230     71    -48    241    246 287.3 -11.5  33968  286.33 0863.42
2015 04 09 12 12 54 .00    -239     94    -51    257    263 291.5 -11.3  33918  285.49 0863.42
2015 04 09 12 12 54 .25    -218    115    -35    247    250 297.8  -8.2  33948  285.98 0863.43
2015 04 09 12 12 54 .50    -194    123    -32    230    233 302.4  -8.0  33970  286.37 0863.43
2015 04 09 12 12 54 .75    -182    126    -28    222    224 304.9  -7.3  34006  286.96 0863.43
2015 04 09 12 12 55 .00    -164     70    -29    179    182 293.3  -9.3  33984  286.61 0863.43
2015 04 09 12 12 55 .25    -186     86    -48    205    211 294.8 -13.4  33972  286.39 0863.43
2015 04 09 12 12 55 .50    -211    122    -31    244    247 300.0  -7.3  33996  286.79 0863.43
2015 04 09 12 12 55 .75    -142    106    -17    178    179 306.9  -5.6  34010  287.03 0863.43
2015 04 09 12 12 56 .00    -142     96     -5    172    173 304.0  -1.8  34014  287.10 0863.43
2015 04 09 12 12 56 .26    -110    105     14    153    154 313.6   5.4  34020  287.20 0863.43
2015 04 09 12 12 56 .50    -107     64     11    125    126 301.1   5.4  34028  287.33 0863.43
2015 04 09 12 12 56 .76     -78     86     28    117    121 317.7  13.7  34056  287.81 0863.43
2015 04 09 12 12 57 .00     -77    104     79    130    152 323.5  34.4  34088  288.35 0863.43
2015 04 09 12 12 57 .26     -80     58     35     99    106 305.9  19.4  34098  288.52 0863.43
2015 04 09 12 12 57 .51    -190    144     -6    239    240 307.1  -1.6  34050  287.71 0863.43
2015 04 09 12 12 57 .76    -234    149    -47    278    282 302.4  -9.6  34050  287.70 0863.44
2015 04 09 12 12 58 .01    -203    152    -18    254    255 306.9  -4.1  34072  288.09 0863.44
2015 04 09 12 12 58 .26    -153    163    -32    224    227 316.8  -8.2  34030  287.38 0863.44
2015 04 09 12 12 58 .51    -106    161    -38    194    198 326.6 -11.3  34054  287.77 0863.44
2015 04 09 12 12 58 .76    -133    209    -33    248    251 327.5  -7.7  34022  287.22 0863.44
2015 04 09 12 12 59 .01    -117    170    -34    207    210 325.5  -9.3  34044  287.60 0863.44
2015 04 09 12 12 59 .26    -148    185    -31    238    240 321.3  -7.5  34056  287.80 0863.44
2015 04 09 12 12 59 .52    -160    221    -45    274    278 324.0  -9.4  33996  286.80 0863.44
2015 04 09 12 12 59 .77    -129    278    -34    307    309 335.1  -6.5  34006  286.95 0863.44
2015 04 09 12 13 00 .02    -113    221    -32    249    252 332.8  -7.3  34014  287.11 0863.44
2015 04 09 12 13 00 .28     -95    215     -1    236    237 336.2  -0.3  34028  287.34 0863.44
2015 04 09 12 13 00 .52    -123    127    -10    177    178 315.9  -3.3  34048  287.67 0863.44
2015 04 09 12 13 00 .78     -95    115    -21    150    152 320.3  -8.2  34056  287.82 0863.44
2015 04 09 12 13 01 .02    -104     92     22    140    142 311.4   9.0  34044  287.60 0863.44
2015 04 09 12 13 01 .28    -181    124     16    220    221 304.4   4.4  34020  287.20 0863.44
2015 04 09 12 13 01 .54    -183    113    -12    216    217 301.8  -3.3  34022  287.23 0863.44
2015 04 09 12 13 01 .77    -178    108    -30    209    212 301.3  -8.2  33992  286.74 0863.44
2015 04 09 12 13 02 .03    -195    142    -25    242    244 306.2  -6.0  33984  286.60 0863.44
2015 04 09 12 13 02 .28    -148    108     -7    184    185 306.2  -2.2  33976  286.46 0863.44
2015 04 09 12 13 02 .53     -91    110      0    144    145 320.4   0.2  33978  286.51 0863.44
2015 04 09 12 13 02 .78    -113    129    -37    172    177 318.8 -12.2  33962  286.22 0863.44
2015 04 09 12 13 03 .03     -64    136    -37    151    156 334.7 -13.9  33996  286.79 0863.44
2015 04 09 12 13 03 .28     -72    167    -17    183    184 336.6  -5.4  33974  286.42 0863.44
2015 04 09 12 13 03 .52     -66    140    -30    155    159 334.6 -11.1  33970  286.37 0863.44
2015 04 09 12 13 03 .78     -67    102    -45    123    130 326.6 -25.4  33932  285.73 0863.44
2015 04 09 12 13 04 .03    -126     82    -16    151    152 303.3  -6.2  33956  286.12 0863.45
2015 04 09 12 13 04 .28    -132     63    -17    147    149 295.4  -6.7  33970  286.37 0863.45
2015 04 09 12 13 04 .53    -150     61    -11    162    163 292.2  -4.1  33986  286.64 0863.45
2015 04 09 12 13 04 .78     -85     80     41    118    125 313.2  19.2  34006  286.98 0863.45
2015 04 09 12 13 05 .03     -93    110      1    145    146 319.9   0.7  34006  286.98 0863.44
2015 04 09 12 13 05 .28    -101     73     -3    125    126 306.0  -1.8  34014  287.10 0863.44
2015 04 09 12 13 05 .54     -75     75    -21    107    110 314.9 -11.3  34016  287.13 0863.44
2015 04 09 12 13 05 .79    -108     73     14    131    132 304.1   6.5  34030  287.37 0863.44
2015 04 09 12 13 06 .03     -97     53     21    111    114 298.8  11.1  34010  287.03 0863.44
2015 04 09 12 13 06 .29     -75     93     57    120    132 321.3  27.1  33998  286.84 0863.44
2015 04 09 12 13 06 .55     -60    110     14    126    127 331.1   6.5  34008  287.01 0863.44
2015 04 09 12 13 06 .80     -82    105     -6    134    135 322.2  -2.6  34018  287.18 0863.45
2015 04 09 12 13 07 .05     -94     78     48    123    132 309.5  22.0  34044  287.60 0863.45
2015 04 09 12 13 07 .29    -142     71    -18    159    161 296.6  -6.5  33916  285.44 0863.45
2015 04 09 12 13 07 .55    -185     72    -11    199    200 291.3  -3.3  33990  286.69 0863.45
2015 04 09 12 13 07 .80    -210     39    -49    214    220 280.6 -12.9  34002  286.91 0863.45
2015 04 09 12 13 08 .05    -217     66    -50    228    234 287.1 -12.4  34002  286.91 0863.45
2015 04 09 12 13 08 .30    -207     47    -50    213    219 282.8 -13.3  33982  286.57 0863.45
2015 04 09 12 13 08 .56    -212     63    -42    222    227 286.6 -10.9  33994  286.78 0863.45
2015 04 09 12 13 08 .80    -181    100    -11    207    208 298.9  -3.1  34010  287.03 0863.45
2015 04 09 12 13 09 .05    -166     99    -18    194    195 300.9  -5.6  34014  287.11 0863.45
2015 04 09 12 13 09 .30    -168    105    -18    199    200 302.0  -5.4  34008  287.00 0863.45
2015 04 09 12 13 09 .56    -149     88    -15    174    175 300.7  -5.2  34004  286.94 0863.45
2015 04 09 12 13 09 .80    -146    104      3    180    181 305.5   1.0  34014  287.10 0863.45
2015 04 09 12 13 10 .05    -172     62    -41    183    188 290.0 -12.6  34006  286.98 0863.45
2015 04 09 12 13 10 .30    -178     48    -23    185    187 285.1  -7.2  34008  287.01 0863.46
2015 04 09 12 13 10 .55    -144     20    -19    146    148 277.9  -7.7  34012  287.06 0863.46
2015 04 09 12 13 10 .81    -135     28      0    138    139 281.9   0.2  34016  287.13 0863.46
2015 04 09 12 13 11 .06    -124     33    -14    129    130 285.0  -6.2  34016  287.15 0863.46
2015 04 09 12 13 11 .31    -113      8    -23    114    117 274.3 -11.5  34012  287.06 0863.46
2015 04 09 12 13 11 .56     -48     14      2     51     52 286.8   2.9  34028  287.35 0863.46
2015 04 09 12 13 11 .81     -23      6     13     24     27 285.1  31.4  34042  287.59 0863.46
2015 04 09 12 13 12 .06     -20     -8    -14     22     26 248.3 -39.9  34046  287.64 0863.46
2015 04 09 12 13 12 .31      -1     30      8     31     33 357.3  15.3  34052  287.74 0863.46
2015 04 09 12 13 12 .56     -53     13    -25     55     60 284.2 -31.5  34044  287.62 0863.46
2015 04 09 12 13 12 .81     -21     21     10     31     33 315.0  18.9  34044  287.60 0863.46
2015 04 09 12 13 13 .06     -67     22    -24     71     74 288.6 -23.6  34044  287.62 0863.46
2015 04 09 12 13 13 .31     -43     22     43     49     65 297.1  46.9  34056  287.81 0863.46
2015 04 09 12 13 13 .57     -30     48     11     57     59 327.5  11.1  34058  287.86 0863.46
2015 04 09 12 13 13 .82     -34     42     28     55     61 321.3  28.2  34064  287.94 0863.46
2015 04 09 12 13 14 .07     -44     53      0     69     70 320.3  -0.3  34034  287.43 0863.46
2015 04 09 12 13 14 .32     -52     36     -1     64     65 305.1  -1.3  34022  287.25 0863.46
2015 04 09 12 13 14 .58     -63     28    -25     70     75 294.4 -19.6  33968  286.32 0863.46
2015 04 09 12 13 14 .82     -62     39    -20     74     77 302.4 -15.5  33972  286.39 0863.46
2015 04 09 12 13 15 .07     -59     62    -22     86     89 316.3 -14.5  33982  286.56 0863.47
2015 04 09 12 13 15 .32     -71     60    -21     94     97 310.0 -12.9  33978  286.51 0863.47
2015 04 09 12 13 15 .58     -70     60      4     93     94 310.4   2.9  33988  286.66 0863.47
2015 04 09 12 13 15 .83     -83     53      5     99    100 302.4   2.9  33982  286.56 0863.47
2015 04 09 12 13 16 .08     -75     45    -11     88     89 301.1  -7.3  33982  286.56 0863.47
2015 04 09 12 13 16 .33     -74     48     -8     89     90 302.9  -5.6  33986  286.64 0863.47
2015 04 09 12 13 16 .58     -45     48     -2     67     68 316.7  -2.2  34000  286.88 0863.47
2015 04 09 12 13 16 .83     -33     43     18     55     58 323.0  18.4  34020  287.20 0863.47
2015 04 09 12 13 17 .08     -54     44     24     70     75 309.5  19.4  34028  287.35 0863.47
2015 04 09 12 13 17 .33     -40     41     11     58     60 315.8  11.1  34018  287.16 0863.47
2015 04 09 12 13 17 .58     -64     49    -12     81     82 307.3  -8.8  33990  286.69 0863.47
2015 04 09 12 13 17 .83     -51     54      5     75     76 316.8   3.8  34006  286.98 0863.47
2015 04 09 12 13 18 .08     -49     52     -3     72     73 316.8  -3.1  34002  286.91 0863.47
2015 04 09 12 13 18 .34     -31     77    -23     84     87 338.2 -20.2  34024  287.27 0863.47
2015 04 09 12 13 18 .58     -23     64    -13     69     71 340.0 -11.3  34036  287.49 0863.47
2015 04 09 12 13 18 .83       0     52     18     53     57 359.1  18.9  34028  287.35 0863.47
2015 04 09 12 13 19 .09     -11     55     27     57     63 348.4  27.2  34036  287.47 0863.47
2015 04 09 12 13 19 .34       0     62     18     63     66 359.1  16.3  34034  287.45 0863.47
2015 04 09 12 13 19 .59      -1     65     13     66     68 359.1  11.1  34058  287.84 0863.47
2015 04 09 12 13 19 .83      -7     72     17     73     75 353.8  13.2  34060  287.89 0863.47
2015 04 09 12 13 20 .08       9     76      3     77     78   7.1   2.9  34046  287.65 0863.47
2015 04 09 12 13 20 .35      29     63     13     70     72  25.3  11.1  34060  287.89 0863.47
2015 04 09 12 13 20 .60      15     46     21     49     53  18.7  24.1  34068  288.03 0863.46
2015 04 09 12 13 20 .85       4     56      2     57     58   4.5   2.9  34058  287.84 0863.46
2015 04 09 12 13 21 .10      22     17     19     29     34  52.2  35.6  34066  287.98 0863.46
2015 04 09 12 13 21 .35      15      8     30     18     35  61.1  64.7  34086  288.33 0863.46
2015 04 09 12 13 21 .60      -3      0     29      4     29 270.0  90.0  34112  288.77 0863.46
2015 04 09 12 13 21 .85     -12     -8     35     15     38 234.0  77.1  34112  288.77 0863.46
2015 04 09 12 13 22 .10       9      0     30     10     31  90.8  81.0  34128  289.04 0863.46
2015 04 09 12 13 22 .35       2      1     30      3     30  57.6  90.0  34132  289.09 0863.46
2015 04 09 12 13 22 .60       4     -5     28      7     28 136.6  84.9  34132  289.11 0863.46
2015 04 09 12 13 22 .85     -13     -8     27     16     31 237.5  66.8  34158  289.55 0863.46
2015 04 09 12 13 23 .10      -5    -21     34     22     40 195.1  63.6  34154  289.46 0863.46
2015 04 09 12 13 23 .36       0      4     34      5     34 350.3  90.0  34164  289.63 0863.46
2015 04 09 12 13 23 .60      -6     -7     32     10     33 223.2  80.7  34152  289.43 0863.46
2015 04 09 12 13 23 .85      -1      0     29      2     29 251.6  90.0  34144  289.31 0863.46
2015 04 09 12 13 24 .11      -7      0     25      8     26 265.6  80.7  34118  288.87 0863.46
2015 04 09 12 13 24 .36      -4     -3     21      6     21 230.5  84.9  34126  288.99 0863.46
2015 04 09 12 13 24 .60       1    -12     16     13     20 172.0  56.4  34138  289.19 0863.46
2015 04 09 12 13 24 .85      -4     -5      8      7     10 223.4  52.2  34134  289.14 0863.46
2015 04 09 12 13 25 .10     -11    -12      6     17     19 223.4  19.4  34140  289.23 0863.46
2015 04 09 12 13 25 .35     -16    -21     12     27     29 217.8  23.0  34138  289.19 0863.46
2015 04 09 12 13 25 .60     -33    -29     34     45     56 228.7  40.7  34116  288.82 0863.46
2015 04 09 12 13 25 .86     -23    -40     39     47     61 209.9  43.8  34118  288.87 0863.47
2015 04 09 12 13 26 .11     -30    -20     39     37     53 235.8  50.1  34132  289.09 0863.47
2015 04 09 12 13 26 .36     -50     -5     18     51     55 263.9  19.4  34126  288.99 0863.47
2015 04 09 12 13 26 .61     -79     12    -22     81     85 279.2 -15.5  34070  288.06 0863.47
2015 04 09 12 13 26 .86     -97      7    -31     98    103 274.4 -17.6  34022  287.25 0863.47
2015 04 09 12 13 27 .11    -127    -21    -25    129    132 260.4 -11.3  33990  286.69 0863.47
2015 04 09 12 13 27 .38    -109     -8    -30    110    115 265.6 -15.5  34000  286.86 0863.47
2015 04 09 12 13 27 .62     -90     12    -11     91     92 277.9  -7.2  34020  287.20 0863.46
2015 04 09 12 13 27 .87     -66     -1     -8     67     68 268.3  -7.2  34028  287.33 0863.46
2015 04 09 12 13 28 .12    -115     12    -13    116    117 276.1  -6.7  34026  287.32 0863.46
2015 04 09 12 13 28 .38    -163     -1    -19    164    166 269.6  -6.9  34022  287.25 0863.46
2015 04 09 12 13 28 .63    -156    -11    -38    157    162 265.6 -13.9  34004  286.93 0863.46
2015 04 09 12 13 28 .88    -134    -31    -31    138    142 256.7 -12.9  33940  285.87 0863.46
2015 04 09 12 13 29 .13    -117    -16    -32    119    124 262.1 -15.4  33950  286.03 0863.46
2015 04 09 12 13 29 .39     -86     43     -8     97     98 296.6  -5.2  34024  287.27 0863.46
2015 04 09 12 13 29 .63     -62     58     16     86     88 313.1  10.6  34048  287.67 0863.46
2015 04 09 12 13 29 .88    -112     44     -6    121    122 291.7  -3.2  34050  287.72 0863.46
2015 04 09 12 13 30 .13    -120     -7     -6    121    122 266.5  -3.2  34042  287.57 0863.46
2015 04 09 12 13 30 .38     -70    -45     19     84     87 237.6  13.2  34056  287.81 0863.46
2015 04 09 12 13 30 .65     -23     -4      1     24     25 258.5   2.8  34042  287.59 0863.46
2015 04 09 12 13 30 .88      -8     26     23     28     36 341.5  43.7  34060  287.89 0863.46
2015 04 09 12 13 31 .14     -54     18     -8     57     58 288.6  -8.2  34060  287.89 0863.46
2015 04 09 12 13 31 .39     -42     73      4     85     86 329.7   2.8  34080  288.21 0863.46
2015 04 09 12 13 31 .63     -62     54      4     83     84 310.9   3.3  34064  287.94 0863.46
2015 04 09 12 13 31 .89    -169     80    -37    188    192 295.5 -11.3  33996  286.79 0863.46
2015 04 09 12 13 32 .14    -165     87    -22    187    189 297.8  -6.9  34004  286.94 0863.46
2015 04 09 12 13 32 .39    -211     66     -1    222    223 287.5  -0.3  34006  286.98 0863.45
2015 04 09 12 13 32 .64    -183     60    -10    193    194 288.4  -3.1  34000  286.88 0863.45
2015 04 09 12 13 32 .89    -190     33     -9    193    194 279.9  -2.8  33992  286.73 0863.45
2015 04 09 12 13 33 .14    -120     32     -6    125    126 285.1  -3.2  34016  287.15 0863.45
2015 04 09 12 13 33 .39     -69     49    -11     85     86 305.5  -7.7  34028  287.35 0863.45
2015 04 09 12 13 33 .64    -135     41     -2    142    143 286.9  -1.2  34022  287.23 0863.45
2015 04 09 12 13 33 .90    -199     60    -44    208    213 286.8 -12.2  34010  287.03 0863.45
2015 04 09 12 13 34 .14     -98     87      6    132    133 311.8   2.9  34068  288.01 0863.45
2015 04 09 12 13 34 .40    -130    108    -21    170    172 309.8  -7.3  34052  287.76 0863.45
2015 04 09 12 13 34 .65    -151    104    -23    184    186 304.6  -7.2  34060  287.87 0863.45
2015 04 09 12 13 34 .90    -124     67    -29    141    145 298.4 -11.9  34030  287.38 0863.45
2015 04 09 12 13 35 .15    -130    108    -37    170    175 309.8 -12.4  34002  286.91 0863.45
2015 04 09 12 13 35 .40    -131     70    -45    149    156 298.4 -17.0  34020  287.21 0863.45
2015 04 09 12 13 35 .65    -122     -5    -36    123    128 267.4 -21.2  34014  287.11 0863.45
2015 04 09 12 13 35 .91     -79     67    -11    104    105 310.4  -6.2  34028  287.35 0863.45
2015 04 09 12 13 36 .15     -45    -15     36     48     60 250.9  40.7  34044  287.62 0863.45
2015 04 09 12 13 36 .41    -209    -48    -54    215    222 257.0 -14.3  34018  287.18 0863.45
2015 04 09 12 13 36 .65    -123      0     -2    124    125 270.0  -1.3  34056  287.81 0863.45
2015 04 09 12 13 36 .90    -166    -20    -21    168    170 263.0  -7.3  34050  287.70 0863.45
2015 04 09 12 13 37 .16    -146    -38    -39    151    156 255.4 -14.5  34060  287.89 0863.45
2015 04 09 12 13 37 .41    -108    -16    -25    110    113 261.2 -12.9  34112  288.77 0863.45
2015 04 09 12 13 37 .65     -78    -15      3     80     81 258.5   2.3  34094  288.47 0863.46
2015 04 09 12 13 37 .91    -163     24    -36    165    169 278.6 -12.4  34008  287.01 0863.46
2015 04 09 12 13 38 .16    -179     58    -10    189    190 288.2  -3.3  33952  286.07 0863.46
2015 04 09 12 13 38 .41    -198     60    -24    208    210 286.9  -6.7  33954  286.10 0863.46
2015 04 09 12 13 38 .66    -173     29    -13    176    177 279.5  -4.4  33954  286.08 0863.46
2015 04 09 12 13 38 .91    -171     53    -29    180    183 287.3  -9.3  33972  286.41 0863.46
2015 04 09 12 13 39 .16    -170    100     -7    198    199 300.4  -2.2  33996  286.81 0863.46
2015 04 09 12 13 39 .41    -211     48    -27    217    219 282.8  -7.3  33992  286.74 0863.46
2015 04 09 12 13 39 .66    -256     16    -23    257    259 273.7  -5.2  34018  287.16 0863.46
2015 04 09 12 13 39 .92    -220     26    -60    222    231 277.0 -15.2  34010  287.05 0863.46
2015 04 09 12 13 40 .17    -202     68    -17    214    215 288.6  -4.6  34064  287.96 0863.46
2015 04 09 12 13 40 .41    -221     86    -27    238    240 291.3  -6.5  34122  288.92 0863.46
2015 04 09 12 13 40 .66    -226     89    -22    243    245 291.5  -5.2  34116  288.81 0863.46
2015 04 09 12 13 40 .92    -195     56    -23    204    206 286.2  -6.5  34132  289.09 0863.46
2015 04 09 12 13 41 .16    -163     56     -9    173    174 289.1  -3.1  34124  288.96 0863.46
2015 04 09 12 13 41 .43    -168    109    -17    201    202 302.9  -5.1  34112  288.77 0863.45
2015 04 09 12 13 41 .68    -130     91    -21    160    162 305.1  -7.5  34132  289.09 0863.45
2015 04 09 12 13 41 .93     -48     83    -39     97    104 329.7 -27.4  34156  289.50 0863.45
2015 04 09 12 13 42 .18    -152     40    -42    158    164 284.8 -15.0  34154  289.46 0863.45
2015 04 09 12 13 42 .42    -116    -23    -10    119    120 258.6  -5.2  34088  288.35 0863.45
2015 04 09 12 13 42 .69    -221     -3    -48    222    228 269.1 -12.4  33952  286.07 0863.45
2015 04 09 12 13 42 .93     -71    -23     37     75     83 251.4  28.2  34004  286.94 0863.45
2015 04 09 12 13 43 .18    -109     -3     13    110    111 268.3   6.9  34006  286.96 0863.45
2015 04 09 12 13 43 .43    -100      0    -19    101    103 269.6 -10.9  33964  286.27 0863.45
2015 04 09 12 13 43 .68    -164    -16    -11    165    166 264.1  -4.1  33920  285.53 0863.45
2015 04 09 12 13 43 .93    -163     -1    -32    164    168 269.4 -11.1  33912  285.38 0863.45
2015 04 09 12 13 44 .18    -152     35    -16    157    158 283.2  -6.0  33918  285.48 0863.45
2015 04 09 12 13 44 .43    -185     36    -23    189    191 281.2  -7.2  33908  285.31 0863.45
2015 04 09 12 13 44 .68    -232    -19    -38    233    237 265.2  -9.3  33888  284.97 0863.45
2015 04 09 12 13 44 .94    -217    -13    -45    218    223 266.5 -11.9  33904  285.24 0863.45
2015 04 09 12 13 45 .19    -197     -2    -30    198    201 269.4  -8.8  33920  285.51 0863.45
2015 04 09 12 13 45 .44    -237      7    -36    238    241 271.9  -8.6  33926  285.62 0863.45
2015 04 09 12 13 45 .68    -204     15    -56    205    213 274.4 -15.5  33918  285.48 0863.45
2015 04 09 12 13 45 .94    -209     51    -45    216    221 283.7 -11.9  33922  285.56 0863.45
2015 04 09 12 13 46 .19    -219     95    -39    239    243 293.5  -9.3  33968  286.33 0863.45
2015 04 09 12 13 46 .44    -211     42    -21    216    218 281.2  -5.6  33994  286.78 0863.45
2015 04 09 12 13 46 .69    -217     31    -31    220    223 278.1  -8.2  34002  286.89 0863.45
2015 04 09 12 13 46 .94    -198     65    -38    209    213 288.2 -10.5  34012  287.06 0863.45
2015 04 09 12 13 47 .19    -218     58    -40    226    230 285.1 -10.1  33932  285.71 0863.45
2015 04 09 12 13 47 .44    -196     33    -20    199    201 279.7  -6.0  33978  286.51 0863.45
2015 04 09 12 13 47 .69    -127     46      6    136    137 290.0   2.9  34018  287.18 0863.45
2015 04 09 12 13 47 .94    -135     42     -7    142    143 287.3  -3.2  34036  287.47 0863.45
2015 04 09 12 13 48 .20    -173     12    -22    174    176 274.3  -7.3  34044  287.60 0863.45
2015 04 09 12 13 48 .46     -89     31      4     95     96 289.5   2.9  34020  287.21 0863.45
2015 04 09 12 13 48 .70     -37     50     23     63     67 323.0  20.0  34042  287.57 0863.44
2015 04 09 12 13 48 .95     -75    -12    -20     77     80 260.3 -15.0  34020  287.20 0863.44
2015 04 09 12 13 49 .20    -177     35    -22    181    183 281.2  -7.2  34010  287.05 0863.44
2015 04 09 12 13 49 .46    -136     15    -27    137    140 276.6 -11.3  33978  286.51 0863.44
2015 04 09 12 13 49 .70    -127     42     -4    134    135 288.4  -1.8  33968  286.34 0863.44
2015 04 09 12 13 49 .96    -116    -41     22    124    126 250.5  10.1  33998  286.83 0863.44
2015 04 09 12 13 50 .20    -212     16    -20    213    215 274.4  -5.4  33954  286.08 0863.44
2015 04 09 12 13 50 .46    -228     27    -45    230    235 276.8 -11.1  33900  285.19 0863.45
2015 04 09 12 13 50 .71    -256     13    -45    257    262 273.0 -10.1  33904  285.24 0863.45
2015 04 09 12 13 50 .95    -220     -8    -53    221    228 267.9 -13.7  33896  285.11 0863.45
2015 04 09 12 13 51 .21    -211      0    -58    212    220 269.9 -15.4  33890  285.01 0863.45
2015 04 09 12 13 51 .46    -219     -2    -40    220    224 269.4 -10.5  33906  285.29 0863.45
2015 04 09 12 13 51 .71    -212     -8    -30    213    216 267.6  -8.2  33954  286.08 0863.45
2015 04 09 12 13 51 .96    -230     38     -9    234    235 279.5  -2.2  33960  286.18 0863.45
2015 04 09 12 13 52 .21    -254    -10    -52    255    261 267.6 -11.6  33932  285.72 0863.45
2015 04 09 12 13 52 .46    -244      7    -40    245    249 271.7  -9.3  33934  285.76 0863.45
2015 04 09 12 13 52 .71    -188     30    -37    191    195 279.2 -11.1  33934  285.75 0863.45
2015 04 09 12 13 52 .96    -146     25    -16    149    150 279.7  -6.2  33950  286.02 0863.45
2015 04 09 12 13 53 .21    -107      1      5    108    109 270.8   2.9  33964  286.25 0863.44
2015 04 09 12 13 53 .47     -98     33     16    104    106 288.6   9.0  33982  286.56 0863.44
2015 04 09 12 13 53 .72     -42     -7     28     43     51 259.4  35.6  34002  286.91 0863.44
2015 04 09 12 13 53 .97    -134    -44    -23    142    144 251.8  -9.3  33982  286.56 0863.44
2015 04 09 12 13 54 .22    -138    -37    -14    144    145 254.9  -5.6  34000  286.88 0863.44
2015 04 09 12 13 54 .47    -160    -37    -18    165    167 257.0  -6.2  33962  286.22 0863.44
2015 04 09 12 13 54 .72     -54      0     60     55     81 270.0  52.7  33990  286.69 0863.44
2015 04 09 12 13 54 .97     -55    -53     33     77     83 225.9  24.1  33998  286.84 0863.45
2015 04 09 12 13 55 .23     -36     26     29     45     53 306.0  35.6  34022  287.23 0863.45
2015 04 09 12 13 55 .48    -126    -45     -6    135    136 250.1  -2.6  33998  286.84 0863.45
2015 04 09 12 13 55 .73    -181     19    -12    183    184 276.1  -3.9  34012  287.06 0863.45
2015 04 09 12 13 55 .98    -221     -8    -33    222    225 267.9  -8.6  34012  287.06 0863.45
2015 04 09 12 13 56 .23    -261    -28    -33    263    266 263.8  -7.2  33996  286.79 0863.45
2015 04 09 12 13 56 .48    -198    -37    -13    202    203 259.4  -3.7  34006  286.96 0863.45
2015 04 09 12 13 56 .73     -42      4      7     43     44 276.1  10.1  34016  287.15 0863.45
2015 04 09 12 13 56 .98     -83     28     19     88     91 288.6  12.2  34026  287.30 0863.45
2015 04 09 12 13 57 .23     -96     22     19     99    101 283.3  11.1  34030  287.38 0863.45
2015 04 09 12 13 57 .48    -152     41    -12    158    159 285.1  -4.6  34016  287.15 0863.45
2015 04 09 12 13 57 .74    -191    132    -36    233    236 304.6  -9.0  34004  286.94 0863.45
2015 04 09 12 13 57 .99     -96    150      1    179    180 327.5   0.5  34018  287.16 0863.45
2015 04 09 12 13 58 .23    -200    186     69    274    283 312.9  14.3  34018  287.16 0863.45
2015 04 09 12 13 58 .49    -229    215    -20    315    316 313.1  -3.7  33992  286.74 0863.44
2015 04 09 12 13 58 .74    -226    193      3    298    299 310.4   0.7  34018  287.17 0863.44
2015 04 09 12 13 58 .99    -142    173     33    224    227 320.6   8.5  34014  287.10 0863.44
2015 04 09 12 13 59 .24    -125    210    114    245    270 329.2  27.0  34034  287.44 0863.44
2015 04 09 12 13 59 .49    -104    152     65    185    197 325.5  19.6  34038  287.52 0863.44
2015 04 09 12 13 59 .74    -148    139     71    204    217 313.2  19.2  33980  286.52 0863.44
2015 04 09 12 13 59 .99    -255    179    -25    312    314 305.1  -4.6  33940  285.86 0863.44
2015 04 09 12 14 00 .24    -253    191    -12    318    319 307.1  -2.2  33942  285.89 0863.44
2015 04 09 12 14 00 .49    -142    166     25    219    221 319.5   6.7  33952  286.07 0863.44
2015 04 09 12 14 00 .74    -140    158     60    212    221 318.6  15.8  33954  286.10 0863.44
2015 04 09 12 14 00 .99    -182    220     18    286    287 320.3   3.6  33946  285.96 0863.44
2015 04 09 12 14 01 .24    -224    204    -19    304    305 312.3  -3.7  33934  285.76 0863.44
2015 04 09 12 14 01 .49    -253    178    -26    310    312 305.1  -4.8  33938  285.81 0863.44
2015 04 09 12 14 01 .74    -241    187    -27    306    308 307.8  -5.1  33940  285.86 0863.44
2015 04 09 12 14 01 .99    -250    195    -44    318    322 308.0  -8.0  33942  285.89 0863.44
2015 04 09 12 14 02 .25    -230    190    -70    299    308 309.6 -13.2  33944  285.93 0863.44
2015 04 09 12 14 02 .50    -211    198    -68    290    298 313.2 -13.3  33940  285.86 0863.44
2015 04 09 12 14 02 .76    -209    190    -51    283    288 312.2 -10.3  33938  285.83 0863.44
2015 04 09 12 14 03 .01    -233    205    -77    311    321 311.3 -14.1  33944  285.93 0863.43
2015 04 09 12 14 03 .26    -185    194    -98    269    286 316.3 -25.3  33938  285.81 0863.43
2015 04 09 12 14 03 .51    -203    177    -59    270    277 311.1 -12.4  33946  285.94 0863.43
2015 04 09 12 14 03 .76    -203    173    -47    267    272 310.4 -10.1  33942  285.88 0863.43
2015 04 09 12 14 04 .00    -228    130    -44    263    267 299.8  -9.6  33932  285.71 0863.43
2015 04 09 12 14 04 .26    -196    133    -45    238    243 304.2 -10.9  33944  285.91 0863.43
2015 04 09 12 14 04 .51    -183    116    -31    217    220 302.4  -8.2  33938  285.83 0863.43
2015 04 09 12 14 04 .76    -150    141     15    207    208 313.2   4.2  33956  286.12 0863.43
2015 04 09 12 14 05 .01    -202    160    -28    258    260 308.4  -6.2  33952  286.04 0863.43
2015 04 09 12 14 05 .26    -220    108    -27    246    248 296.2  -6.5  33946  285.94 0863.43
2015 04 09 12 14 05 .51    -144    120    -36    188    192 309.8 -11.1  33950  286.03 0863.43
2015 04 09 12 14 05 .76    -112    136     14    177    178 320.6   4.6  33954  286.08 0863.43
2015 04 09 12 14 06 .01    -161     85     -5    183    184 297.8  -1.8  33948  285.98 0863.43
2015 04 09 12 14 06 .26    -124     49    -37    134    140 291.8 -15.5  33946  285.97 0863.43
2015 04 09 12 14 06 .51    -111     91    -31    144    148 309.5 -12.4  33948  286.00 0863.43
2015 04 09 12 14 06 .76    -123    100    -48    159    167 309.1 -16.8  33948  286.00 0863.43
2015 04 09 12 14 07 .02    -108    101    -18    148    150 313.1  -7.2  33954  286.08 0863.43
2015 04 09 12 14 07 .26    -126     69     -2    144    145 298.8  -1.2  33954  286.10 0863.43
2015 04 09 12 14 07 .52    -137    105    -13    173    174 307.5  -4.6  33944  285.93 0863.43
2015 04 09 12 14 07 .77    -159    132     11    207    208 309.8   3.3  33944  285.93 0863.43
2015 04 09 12 14 08 .02    -151    119     -2    193    194 308.4  -0.7  33940  285.87 0863.43
2015 04 09 12 14 08 .27    -168    111     -6    202    203 303.5  -1.8  33938  285.82 0863.43
2015 04 09 12 14 08 .52    -172    110    -25    205    207 302.5  -7.2  33942  285.88 0863.44
2015 04 09 12 14 08 .76    -178    108    -34    209    212 301.1  -9.3  33936  285.80 0863.44
2015 04 09 12 14 09 .03    -180     90    -33    202    205 296.6  -9.3  33918  285.48 0863.44
2015 04 09 12 14 09 .28    -204    102    -29    229    231 296.6  -7.3  33912  285.39 0863.44
2015 04 09 12 14 09 .53    -168     88    -12    190    191 297.8  -3.7  33928  285.65 0863.44
2015 04 09 12 14 09 .78    -191    105    -40    219    223 298.8 -10.5  33916  285.44 0863.44
2015 04 09 12 14 10 .03    -156    107    -29    190    193 304.4  -8.8  33916  285.46 0863.44
2015 04 09 12 14 10 .28    -139    107    -23    176    178 307.8  -7.7  33926  285.61 0863.44
2015 04 09 12 14 10 .53    -117    110      7    161    162 313.2   2.8  33936  285.80 0863.44
2015 04 09 12 14 10 .79    -125     91    -16    155    156 306.0  -6.2  33930  285.68 0863.44
2015 04 09 12 14 11 .03    -120     76    -10    143    144 302.4  -4.1  33940  285.85 0863.44
2015 04 09 12 14 11 .28    -115    104    -18    156    158 312.2  -6.7  33932  285.71 0863.44
2015 04 09 12 14 11 .53    -146     75    -25    165    167 297.3  -8.8  33940  285.85 0863.44
2015 04 09 12 14 11 .79    -124     87      7    152    153 305.1   2.8  33936  285.80 0863.44
2015 04 09 12 14 12 .04    -150     87    -14    174    175 300.2  -4.9  33934  285.76 0863.44
2015 04 09 12 14 12 .29    -133     84    -11    158    159 302.4  -4.1  33940  285.85 0863.44
2015 04 09 12 14 12 .54     -32     94     43    100    108 341.3  24.6  33948  286.00 0863.44
2015 04 09 12 14 12 .79     -73     88    -36    115    121 320.4 -17.6  33946  285.95 0863.44
2015 04 09 12 14 13 .04     -70     90    -36    115    121 322.2 -17.6  33932  285.73 0863.44
2015 04 09 12 14 13 .29    -119    143    -48    187    194 320.3 -14.5  33956  286.14 0863.44
2015 04 09 12 14 13 .54    -125    107     33    165    169 310.7  11.6  33964  286.25 0863.44
2015 04 09 12 14 13 .79    -125    125     18    177    178 315.0   5.9  33952  286.05 0863.44
2015 04 09 12 14 14 .04    -167    133     10    214    215 308.6   2.8  33936  285.80 0863.45
2015 04 09 12 14 14 .29    -156    129      9    203    204 309.5   2.8  33922  285.56 0863.45
2015 04 09 12 14 14 .54    -154    140     10    209    210 312.4   2.8  33912  285.38 0863.45
2015 04 09 12 14 14 .79    -173    127     10    215    216 306.4   2.8  33886  284.96 0863.45
2015 04 09 12 14 15 .04    -195    129    -25    234    236 303.5  -6.2  33876  284.77 0863.45
2015 04 09 12 14 15 .29    -182    129    -12    224    225 305.3  -3.1  33870  284.69 0863.45
2015 04 09 12 14 15 .54    -177    127    -24    218    220 305.7  -6.5  33868  284.64 0863.45
2015 04 09 12 14 15 .80    -141    125     -4    189    190 311.6  -1.3  33878  284.81 0863.45
2015 04 09 12 14 16 .06    -146    133     -1    198    199 312.4  -0.5  33880  284.86 0863.45
2015 04 09 12 14 16 .31    -168    136    -27    217    219 308.9  -7.3  33868  284.65 0863.45
2015 04 09 12 14 16 .55    -167    138    -42    217    222 309.6 -11.1  33868  284.65 0863.45
2015 04 09 12 14 16 .81    -155    141    -57    210    218 312.4 -15.4  33886  284.94 0863.45
2015 04 09 12 14 17 .06    -136    126    -42    186    191 312.7 -12.9  33902  285.21 0863.45
2015 04 09 12 14 17 .31    -120     91    -19    151    153 307.3  -7.2  33922  285.56 0863.45
2015 04 09 12 14 17 .56     -44    121      8    129    130 340.0   3.8  33932  285.73 0863.46
2015 04 09 12 14 17 .81     -84    122      7    149    150 325.3   2.9  33952  286.05 0863.46
2015 04 09 12 14 18 .06     -94    120     -8    153    154 321.7  -3.2  33962  286.24 0863.46
2015 04 09 12 14 18 .31     -72    100     22    124    126 324.4  10.1  33962  286.24 0863.46
2015 04 09 12 14 18 .56    -107    130    -23    169    171 320.4  -8.0  33948  285.98 0863.46
2015 04 09 12 14 18 .81    -118    117    -47    167    173 314.9 -20.7  33932  285.71 0863.46
2015 04 09 12 14 19 .06    -124    104    -60    163    173 310.0 -25.1  33894  285.09 0863.46
2015 04 09 12 14 19 .31    -132    108    -60    171    181 309.3 -24.0  33888  284.97 0863.46
2015 04 09 12 14 19 .56    -122    101    -51    159    166 309.5 -23.3  33890  285.02 0863.45
2015 04 09 12 14 19 .81    -115     95    -58    150    160 309.6 -26.7  33890  285.01 0863.45
2015 04 09 12 14 20 .06     -75    127    -45    148    155 329.3 -17.0  33886  284.94 0863.45
2015 04 09 12 14 20 .32     -67    120    -27    138    141 330.6 -11.3  33890  285.01 0863.45
2015 04 09 12 14 20 .56     -92    126    -44    157    164 323.9 -15.8  33894  285.09 0863.45
2015 04 09 12 14 20 .81    -109    116    -50    160    168 316.8 -17.6  33896  285.13 0863.45
2015 04 09 12 14 21 .06    -113    105    -50    155    163 313.1 -17.9  33900  285.19 0863.45
2015 04 09 12 14 21 .32    -131     94    -55    162    172 305.7 -18.7  33904  285.24 0863.45
2015 04 09 12 14 21 .56    -135     92    -51    164    171 304.2 -22.3  33904  285.24 0863.45
2015 04 09 12 14 21 .82    -139     85    -43    164    170 301.5 -14.7  33904  285.26 0863.45
2015 04 09 12 14 22 .07    -113     87    -34    143    148 307.7 -13.4  33900  285.19 0863.45
2015 04 09 12 14 22 .32    -111     81    -22    138    140 306.4  -9.4  33906  285.29 0863.45
2015 04 09 12 14 22 .57     -80     84    -15    117    119 316.3  -7.7  33906  285.29 0863.45
2015 04 09 12 14 22 .82     -75     69    -12    103    104 312.7  -6.7  33910  285.34 0863.45
2015 04 09 12 14 23 .08     -86     62     -9    107    108 306.0  -5.2  33906  285.28 0863.45
2015 04 09 12 14 23 .33     -84     60      5    104    105 305.9   2.9  33916  285.44 0863.45
2015 04 09 12 14 23 .59     -46     64      4     80     81 324.0   3.3  33942  285.90 0863.45
2015 04 09 12 14 23 .83     -52     71      5     89     90 323.5   3.3  33958  286.17 0863.45
2015 04 09 12 14 24 .09     -45    113     10    122    123 338.2   4.9  33912  285.39 0863.45
2015 04 09 12 14 24 .34     -40    101      4    109    110 338.2   2.3  33926  285.63 0863.45
2015 04 09 12 14 24 .58     -76     69    -13    103    104 312.2  -7.3  33928  285.66 0863.45
2015 04 09 12 14 24 .84     -66     97    -23    118    121 325.7 -11.3  33932  285.71 0863.45
2015 04 09 12 14 25 .08     -58    118     -1    132    133 333.7  -0.7  33924  285.58 0863.45
2015 04 09 12 14 25 .34     -74    135    -16    155    156 331.1  -6.2  33918  285.48 0863.45
2015 04 09 12 14 25 .58     -60    105     -9    122    123 330.1  -4.6  33918  285.48 0863.45
2015 04 09 12 14 25 .83     -47     90     -8    102    103 332.4  -4.6  33920  285.53 0863.45
2015 04 09 12 14 26 .09     -48    101      2    112    113 334.5   1.2  33922  285.56 0863.45
2015 04 09 12 14 26 .33     -52     97    -14    111    112 331.9  -7.3  33918  285.48 0863.45
2015 04 09 12 14 26 .59     -48    102    -14    113    114 334.5  -7.2  33916  285.44 0863.45
2015 04 09 12 14 26 .84     -40    113      1    121    122 340.4   0.8  33910  285.34 0863.45
2015 04 09 12 14 27 .09     -40     92     -8    101    102 336.4  -4.6  33914  285.43 0863.45
2015 04 09 12 14 27 .34     -42    100     -2    109    110 336.8  -1.3  33910  285.36 0863.45
2015 04 09 12 14 27 .59     -45    113     -4    122    123 338.2  -2.2  33912  285.39 0863.45
2015 04 09 12 14 27 .84     -48    101      2    112    113 334.5   1.2  33916  285.44 0863.45
2015 04 09 12 14 28 .09     -57    106     -4    121    122 331.9  -2.2  33930  285.68 0863.45
2015 04 09 12 14 28 .34     -45     82      4     94     95 331.0   2.8  33946  285.95 0863.45
2015 04 09 12 14 28 .59     -59     56     45     82     93 313.3  30.8  33966  286.30 0863.45
2015 04 09 12 14 28 .85     -41     71     16     83     85 329.7  11.1  33960  286.19 0863.45
2015 04 09 12 14 29 .10     -43     73      9     85     86 329.3   6.5  33966  286.30 0863.45
2015 04 09 12 14 29 .34     -50     64      0     82     83 321.7  -0.3  33962  286.22 0863.45
2015 04 09 12 14 29 .60     -37     58     13     69     71 327.4  11.1  33952  286.05 0863.45
2015 04 09 12 14 29 .84     -36     57    -13     68     70 327.4 -11.3  33952  286.05 0863.45
2015 04 09 12 14 30 .11     -93     57    -12    110    111 301.5  -6.7  33954  286.08 0863.45
2015 04 09 12 14 30 .36    -101     65    -27    121    125 302.9 -12.9  33968  286.34 0863.45
2015 04 09 12 14 30 .61     -94     77    -24    122    125 309.5 -11.3  33996  286.79 0863.45
2015 04 09 12 14 30 .86     -78     60    -17     99    101 307.3  -9.8  33996  286.81 0863.45
2015 04 09 12 14 31 .10     -74     52    -17     91     93 305.1 -10.9  33996  286.79 0863.45
2015 04 09 12 14 31 .36     -56     64    -27     86     90 318.6 -22.8  33952  286.07 0863.45
2015 04 09 12 14 31 .61     -63     53    -18     83     85 310.4 -12.4  33948  286.00 0863.45
2015 04 09 12 14 31 .87     -80     44     -9     92     93 298.9  -5.6  33976  286.47 0863.45
2015 04 09 12 14 32 .11     -67     59      2     90     91 311.3   1.8  33990  286.71 0863.44
2015 04 09 12 14 32 .37     -36     57      8     68     69 327.4   6.9  34020  287.20 0863.44
2015 04 09 12 14 32 .62     -34     57     13     67     69 329.3  11.0  34044  287.62 0863.44
2015 04 09 12 14 32 .86     -30     47     19     56     60 327.5  19.2  34070  288.04 0863.44
2015 04 09 12 14 33 .11     -31     62     30     70     76 332.8  24.1  34102  288.60 0863.44
2015 04 09 12 14 33 .36     -37     40    -16     55     57 316.8 -21.7  33978  286.51 0863.44
2015 04 09 12 14 33 .61     -32     16      7     36     37 297.1  11.0  34020  287.21 0863.44
2015 04 09 12 14 33 .87     -46     16     -1     49     50 289.1  -2.2  33994  286.78 0863.44
2015 04 09 12 14 34 .12     -52     13     -7     54     55 284.2  -7.3  33986  286.64 0863.44
2015 04 09 12 14 34 .36     -69     22     -9     73     74 288.2  -7.3  33968  286.34 0863.44
2015 04 09 12 14 34 .62     -65     17     -6     68     69 285.1  -5.2  33954  286.08 0863.44
2015 04 09 12 14 34 .87     -64     17      0     67     68 285.1  -0.3  33948  286.00 0863.45
2015 04 09 12 14 35 .12     -96     27    -12    100    101 285.9  -7.3  33944  285.92 0863.45
2015 04 09 12 14 35 .37    -109     56    -12    123    124 297.1  -5.6  33956  286.14 0863.45
2015 04 09 12 14 35 .62    -105     33     -6    111    112 287.7  -3.2  33960  286.19 0863.45
2015 04 09 12 14 35 .87    -127     36    -26    133    136 285.9 -11.3  33922  285.56 0863.45
2015 04 09 12 14 36 .12    -154     31    -47    158    164 281.5 -21.7  33928  285.66 0863.45
2015 04 09 12 14 36 .37    -152     57    -23    163    165 290.8  -8.2  33922  285.56 0863.45
2015 04 09 12 14 36 .62    -118     75    -24    141    144 302.5  -9.8  33920  285.53 0863.44
2015 04 09 12 14 36 .89    -132     52    -12    143    144 291.7  -5.1  33950  286.02 0863.44
2015 04 09 12 14 37 .13    -126     57    -17    139    141 294.4  -7.3  33938  285.82 0863.44
2015 04 09 12 14 37 .38    -125     45     -7    134    135 290.0  -3.1  33934  285.76 0863.44
2015 04 09 12 14 37 .63    -116     46    -21    126    128 291.8  -9.8  33940  285.87 0863.44
2015 04 09 12 14 37 .88    -113     41     -4    121    122 289.9  -2.2  33940  285.87 0863.44
2015 04 09 12 14 38 .13    -110     53    -22    123    125 295.8 -10.3  33940  285.87 0863.44
2015 04 09 12 14 38 .38    -121     63    -19    137    139 297.5  -8.2  33946  285.95 0863.44
2015 04 09 12 14 38 .64    -121     62    -27    137    140 297.1 -11.5  33948  285.98 0863.44
2015 04 09 12 14 38 .89    -123     42    -30    131    135 289.1 -12.9  33988  286.67 0863.44
2015 04 09 12 14 39 .14     -52     67     28     85     90 322.2  18.4  34000  286.88 0863.44
2015 04 09 12 14 39 .39     -59     23     -8     64     65 291.7  -7.3  34002  286.91 0863.44
2015 04 09 12 14 39 .64     -47    -26      8     54     55 241.1   9.0  34012  287.08 0863.44
2015 04 09 12 14 39 .89    -136     -9     -9    137    138 266.1  -4.1  33984  286.59 0863.44
2015 04 09 12 14 40 .14     -98     -4    -23     99    102 267.4 -13.4  34020  287.21 0863.44
2015 04 09 12 14 40 .39     -31      1      8     32     34 272.6  15.3  34030  287.38 0863.44
2015 04 09 12 14 40 .64     -41    -16     55     45     71 248.3  56.4  34048  287.67 0863.44
2015 04 09 12 14 40 .89    -149     40      3    155    156 285.0   1.2  34054  287.79 0863.44
2015 04 09 12 14 41 .14    -144     68      0    160    161 295.2  -0.3  34076  288.16 0863.45
2015 04 09 12 14 41 .39    -109     22     -4    112    113 281.4  -2.2  34066  287.99 0863.45
2015 04 09 12 14 41 .64     -43     19    -29     48     56 294.4 -39.9  34074  288.11 0863.45
2015 04 09 12 14 41 .89     -61     44    -37     76     84 305.9 -32.2  34042  287.59 0863.45
2015 04 09 12 14 42 .14    -142    -10     -7    143    144 265.7  -3.2  33990  286.71 0863.45
2015 04 09 12 14 42 .39     -61    -15     19     63     67 255.8  17.3  34010  287.03 0863.45
2015 04 09 12 14 42 .67    -115     54    -31    128    132 295.2 -13.9  33946  285.95 0863.45
2015 04 09 12 14 42 .90    -202     63    -27    212    214 287.5  -7.3  33910  285.34 0863.45
2015 04 09 12 14 43 .15    -154     53     -8    164    165 289.1  -2.8  33938  285.83 0863.44
2015 04 09 12 14 43 .40     -93     44     28    103    107 295.4  15.2  33938  285.82 0863.44
2015 04 09 12 14 43 .65    -108     22     -4    111    112 281.5  -2.2  33944  285.92 0863.44
2015 04 09 12 14 43 .91     -85     36      6     93     94 293.1   3.8  33946  285.97 0863.44
2015 04 09 12 14 44 .16     -70    -17    -12     73     74 255.8  -9.3  33952  286.05 0863.44
2015 04 09 12 14 44 .41     -11     29     14     32     34 338.2  27.1  33960  286.19 0863.44
2015 04 09 12 14 44 .66     -99     16    -16    101    103 279.2  -9.3  33944  285.93 0863.44
2015 04 09 12 14 44 .91     -40    -17     -1     44     45 246.5  -2.2  33960  286.19 0863.45
2015 04 09 12 14 45 .16     -58     13      7     60     61 283.3   7.1  33960  286.19 0863.45
2015 04 09 12 14 45 .41     -32     -6     -9     33     35 258.5 -15.5  33968  286.34 0863.45
2015 04 09 12 14 45 .66     -70     89     -6    114    115 321.7  -3.1  33968  286.32 0863.45
2015 04 09 12 14 45 .91    -112    -15    -14    114    115 262.1  -7.2  33964  286.27 0863.45
2015 04 09 12 14 46 .17     -29     46     22     55     59 327.4  23.0  33976  286.46 0863.45
2015 04 09 12 14 46 .42     -35     59    -23     69     73 329.3 -18.7  33962  286.24 0863.45
2015 04 09 12 14 46 .67      -6     55     24     56     60 352.9  24.1  33986  286.64 0863.45
2015 04 09 12 14 46 .92     -62     59    -45     86     97 313.6 -34.2  34002  286.89 0863.45
2015 04 09 12 14 47 .17     -32     66     34     74     81 333.7  26.2  34014  287.11 0863.45
2015 04 09 12 14 47 .42    -130     28    -42    134    140 282.4 -22.8  33972  286.39 0863.45
2015 04 09 12 14 47 .67       3     40     38     41     55   4.5  47.9  33976  286.47 0863.45
2015 04 09 12 14 47 .92     -59     62    -29     86     90 316.3 -23.6  34042  287.57 0863.45
2015 04 09 12 14 48 .17     -98     52    -69    112    131 298.0 -39.4  33988  286.66 0863.45
2015 04 09 12 14 48 .42     -38     69     -3     79     80 331.1  -2.2  33970  286.37 0863.45
2015 04 09 12 14 48 .67     -35     44     -2     57     58 321.3  -2.2  33976  286.47 0863.44
2015 04 09 12 14 48 .92      -5     69     13     70     72 355.6  11.0  33972  286.39 0863.44
2015 04 09 12 14 49 .17     -94    -41    -34    103    109 246.0 -18.7  33966  286.30 0863.44
2015 04 09 12 14 49 .42    -113    -47    -37    123    129 247.4 -17.0  33972  286.39 0863.44
2015 04 09 12 14 49 .67    -145     15    -43    146    153 276.2 -16.6  33940  285.87 0863.44
2015 04 09 12 14 49 .92    -167     39    -27    172    175 283.3  -9.0  33942  285.90 0863.44
2015 04 09 12 14 50 .18    -181     71    -35    195    199 291.5 -10.3  33954  286.10 0863.44
2015 04 09 12 14 50 .43    -157     83    -30    178    181 298.0  -9.8  33964  286.25 0863.44
2015 04 09 12 14 50 .68    -128     60    -28    142    145 295.2 -11.3  33972  286.41 0863.44
2015 04 09 12 14 50 .94    -135     80    -29    158    161 300.7 -10.5  33978  286.51 0863.44
2015 04 09 12 14 51 .19    -111     98    -29    149    152 311.4 -11.3  33982  286.56 0863.44
2015 04 09 12 14 51 .44    -139     85    -33    164    168 301.5 -11.3  33958  286.15 0863.44
2015 04 09 12 14 51 .69    -123     86    -27    151    154 305.1 -10.3  33960  286.19 0863.44
2015 04 09 12 14 51 .94    -159     67    -29    173    176 293.1  -9.6  33956  286.12 0863.44
2015 04 09 12 14 52 .19    -141     76    -15    161    162 298.2  -5.4  33970  286.35 0863.44
2015 04 09 12 14 52 .44    -151     91    -32    177    181 301.3 -10.5  33964  286.27 0863.44
2015 04 09 12 14 52 .69    -137     83    -23    161    163 301.1  -8.2  33950  286.03 0863.44
2015 04 09 12 14 52 .94    -132     72    -17    151    153 298.8  -6.7  33952  286.05 0863.44
2015 04 09 12 14 53 .19    -163     88    -14    186    187 298.4  -4.6  33934  285.76 0863.44
2015 04 09 12 14 53 .44    -147     97    -19    177    179 303.5  -6.2  33942  285.88 0863.44
2015 04 09 12 14 53 .69    -163     99    -24    191    193 301.3  -7.3  33928  285.66 0863.44
2015 04 09 12 14 53 .94    -142    104    -11    177    178 306.2  -3.7  33930  285.70 0863.44
2015 04 09 12 14 54 .19    -149     94    -30    177    180 302.4  -9.8  33962  286.24 0863.44
2015 04 09 12 14 54 .44    -157     75    -22    175    177 295.5  -7.3  33978  286.49 0863.44
2015 04 09 12 14 54 .69     -87     72    -14    114    115 309.6  -7.3  33978  286.51 0863.44
2015 04 09 12 14 54 .95    -125     82    -23    150    152 303.3  -8.8  33968  286.34 0863.44
2015 04 09 12 14 55 .20    -105     71    -30    128    132 304.2 -13.4  33984  286.59 0863.44
2015 04 09 12 14 55 .45    -140     61    -22    153    155 293.5  -8.2  33984  286.61 0863.44
2015 04 09 12 14 55 .70     -68     54    -11     88     89 308.6  -7.3  33990  286.71 0863.44
2015 04 09 12 14 55 .95    -111     83    -30    139    143 306.9 -12.4  33986  286.64 0863.45
2015 04 09 12 14 56 .20     -34     65      3     74     75 331.9   2.9  33980  286.52 0863.45
2015 04 09 12 14 56 .45     -36     57      8     68     69 327.4   6.9  33984  286.61 0863.45
2015 04 09 12 14 56 .70     -29     48    -41     57     70 328.4 -44.1  34002  286.89 0863.45
2015 04 09 12 14 56 .95     -40     33    -34     53     62 309.5 -39.9  34010  287.03 0863.45
2015 04 09 12 14 57 .20     -37     24    -30     45     54 303.3 -40.9  34022  287.25 0863.45
2015 04 09 12 14 57 .45     -47     20     18     52     56 293.5  19.2  34026  287.30 0863.45
2015 04 09 12 14 57 .71     -99    -25    -36    103    109 255.4 -23.3  34002  286.91 0863.45
2015 04 09 12 14 57 .96     -28     -3     32     29     43 262.1  52.2  34022  287.25 0863.45
2015 04 09 12 14 58 .21     -17     12     10     22     24 306.0  25.1  34066  287.98 0863.45
2015 04 09 12 14 58 .47     -40     47     18     63     66 319.5  16.3  34124  288.96 0863.45
2015 04 09 12 14 58 .71     -55     40     44     69     81 305.9  35.5  34114  288.79 0863.45
2015 04 09 12 14 58 .96    -110     54    -39    123    130 296.2 -17.6  33984  286.59 0863.45
2015 04 09 12 14 59 .22     -69     90    -19    114    116 322.2  -9.8  33948  286.00 0863.45
2015 04 09 12 14 59 .46     -68     56    -19     89     92 309.5 -12.4  33958  286.15 0863.45
2015 04 09 12 14 59 .71     -54     77    -10     95     96 324.8  -6.2  33942  285.90 0863.45
2015 04 09 12 14 59 .97     -81    101     -5    130    131 321.3  -2.2  33934  285.76 0863.45
2015 04 09 12 15 00 .22    -101     97    -18    141    143 314.0  -7.3  33926  285.61 0863.45
2015 04 09 12 15 00 .47     -58     70     26     92     96 320.4  15.8  33934  285.76 0863.45
2015 04 09 12 15 00 .72     -69     71      1    100    101 315.9   0.8  33938  285.82 0863.45
2015 04 09 12 15 00 .97    -158     81    -49    178    185 297.1 -15.5  33934  285.76 0863.45
2015 04 09 12 15 01 .22    -103     85    -37    134    140 309.5 -15.4  33940  285.85 0863.45
2015 04 09 12 15 01 .47     -53     99      9    113    114 331.9   4.9  33938  285.82 0863.45
2015 04 09 12 15 01 .72     -86    114    -12    144    145 323.0  -5.1  33936  285.80 0863.45
2015 04 09 12 15 01 .97    -115    141    -15    183    184 320.8  -4.9  33930  285.68 0863.45
2015 04 09 12 15 02 .22     -94    132     25    163    165 324.6   8.8  33954  286.08 0863.45
2015 04 09 12 15 02 .47    -123    134     44    183    189 317.5  13.5  33956  286.14 0863.45
2015 04 09 12 15 02 .72    -137    124     34    186    190 312.2  10.3  33952  286.05 0863.45
2015 04 09 12 15 02 .97     -88    106     46    138    146 320.4  18.4  33956  286.14 0863.45
2015 04 09 12 15 03 .23    -133    140     37    194    198 316.6  11.0  33954  286.10 0863.45
2015 04 09 12 15 03 .47    -152    145      6    211    212 313.6   1.8  33948  286.00 0863.45
2015 04 09 12 15 03 .72    -140    159     -4    213    214 318.6  -1.3  33952  286.05 0863.45
2015 04 09 12 15 03 .97    -156    165    -18    228    229 316.7  -4.6  33958  286.17 0863.45
2015 04 09 12 15 04 .23     -95    123     69    156    170 322.2  25.3  33964  286.27 0863.45
2015 04 09 12 15 04 .48     -87    130      9    157    158 326.2   3.3  33950  286.03 0863.45
2015 04 09 12 15 04 .74    -100    136     59    169    180 323.7  19.2  33964  286.25 0863.45
2015 04 09 12 15 04 .99     -75    124     49    145    154 328.8  18.6  33970  286.37 0863.45
2015 04 09 12 15 05 .24     -96    191    -11    214    215 333.3  -3.2  33980  286.54 0863.45
2015 04 09 12 15 05 .49     -88    181    -26    202    204 334.1  -7.5  33986  286.64 0863.45
2015 04 09 12 15 05 .74    -127    147    -39    195    199 319.2 -11.3  33990  286.69 0863.45
2015 04 09 12 15 05 .99    -142    120      1    187    188 310.2   0.5  33992  286.74 0863.45
2015 04 09 12 15 06 .24     -85    188    -30    207    210 335.7  -8.2  33992  286.73 0863.45
2015 04 09 12 15 06 .49    -104    163      1    194    195 327.5   0.5  33992  286.74 0863.45
2015 04 09 12 15 06 .74    -142    207    -11    252    253 325.5  -2.6  33978  286.48 0863.45
2015 04 09 12 15 07 .00    -123    153     25    197    199 321.0   7.5  33998  286.84 0863.45
2015 04 09 12 15 07 .24    -109    215     20    242    243 333.0   4.9  34002  286.89 0863.45
2015 04 09 12 15 07 .49    -111    143    -42    182    187 322.2 -13.2  33980  286.52 0863.45
2015 04 09 12 15 07 .75     -97    127    -18    160    162 322.6  -6.5  33982  286.56 0863.45
2015 04 09 12 15 08 .00    -111    161     20    196    198 325.3   6.1  34022  287.23 0863.45
2015 04 09 12 15 08 .24    -116    120      2    168    169 315.9   0.8  34002  286.89 0863.45
2015 04 09 12 15 08 .50    -111    136     36    176    180 320.8  11.6  34008  287.01 0863.45
2015 04 09 12 15 08 .74    -160    153     31    222    225 313.6   8.0  33982  286.57 0863.45
2015 04 09 12 15 09 .00    -156    156     26    221    223 315.0   6.7  33942  285.90 0863.45
2015 04 09 12 15 09 .25    -143    173     -4    225    226 320.4  -1.3  33936  285.80 0863.45
2015 04 09 12 15 09 .50    -184    224    -42    291    295 320.6  -8.2  33888  284.98 0863.45
2015 04 09 12 15 09 .75    -151    274    -49    313    317 331.1  -9.0  33884  284.90 0863.44
2015 04 09 12 15 10 .00    -126    315    -13    340    341 338.1  -2.2  33932  285.72 0863.44
2015 04 09 12 15 10 .25    -116    290      3    313    314 338.2   0.7  33904  285.25 0863.44
2015 04 09 12 15 10 .50    -114    285      4    308    309 338.2   0.8  33926  285.61 0863.44
2015 04 09 12 15 10 .75    -106    266     -1    287    288 338.2  -0.3  33904  285.25 0863.44
2015 04 09 12 15 11 .00     -83    280     34    293    296 343.5   6.7  33928  285.66 0863.44
2015 04 09 12 15 11 .25     -98    283     15    300    301 340.9   2.9  33900  285.17 0863.44
2015 04 09 12 15 11 .51     -89    252     13    268    269 340.4   2.8  33896  285.10 0863.44
2015 04 09 12 15 11 .76    -100    288     34    306    308 340.8   6.5  33920  285.52 0863.44
2015 04 09 12 15 12 .02    -111    317      8    337    338 340.6   1.5  33980  286.54 0863.44
2015 04 09 12 15 12 .26    -130    271    -47    301    305 334.4  -9.0  33974  286.43 0863.44
2015 04 09 12 15 12 .52    -142    257    -58    294    300 331.0 -11.3  33960  286.18 0863.44
2015 04 09 12 15 12 .77    -203    215    -59    296    302 316.7 -11.3  33988  286.65 0863.44
2015 04 09 12 15 13 .01    -149    227    -49    272    277 326.6 -10.3  33986  286.63 0863.44
2015 04 09 12 15 13 .26    -168    220    -47    277    282 322.6  -9.8  33952  286.04 0863.44
2015 04 09 12 15 13 .52    -173    245    -61    300    307 324.8 -11.5  33870  284.66 0863.44
2015 04 09 12 15 13 .77    -188    227    -60    296    303 320.4 -11.6  33872  284.70 0863.44
2015 04 09 12 15 14 .02    -170    212    -64    272    280 321.3 -13.4  33868  284.63 0863.44
2015 04 09 12 15 14 .27    -162    190    -56    250    257 319.5 -12.6  33868  284.65 0863.44
2015 04 09 12 15 14 .52    -129    185    -50    226    232 325.0 -12.6  33908  285.33 0863.44
2015 04 09 12 15 14 .77    -167    165    -42    236    240 314.7 -10.3  33886  284.93 0863.44
2015 04 09 12 15 15 .02    -160    159    -46    226    231 314.9 -11.6  33878  284.82 0863.44
2015 04 09 12 15 15 .27    -156    156    -43    222    227 315.0 -11.1  33882  284.87 0863.44
2015 04 09 12 15 15 .52    -161    137    -18    212    213 310.4  -5.1  33896  285.11 0863.44
2015 04 09 12 15 15 .77    -130    180    -44    223    228 324.0 -11.3  33880  284.86 0863.44
2015 04 09 12 15 16 .02    -125    125    -10    177    178 315.0  -3.3  33882  284.89 0863.44
2015 04 09 12 15 16 .27    -134    167    -39    215    219 321.3 -10.5  33876  284.79 0863.44
2015 04 09 12 15 16 .52    -163    148    -35    221    224 312.2  -9.0  33870  284.67 0863.44
2015 04 09 12 15 16 .77    -140    161    -47    214    220 318.8 -12.4  33872  284.70 0863.44
2015 04 09 12 15 17 .03    -153    149    -43    214    219 314.2 -11.3  33870  284.67 0863.44
2015 04 09 12 15 17 .28    -156    154    -44    220    225 314.7 -11.3  33868  284.64 0863.44
2015 04 09 12 15 17 .53    -145    120    -24    189    191 309.5  -7.3  33876  284.77 0863.44
2015 04 09 12 15 17 .78    -129    111    -18    171    173 310.9  -6.2  33890  285.02 0863.44
2015 04 09 12 15 18 .03    -153    126    -17    199    200 309.3  -5.1  33876  284.79 0863.44
2015 04 09 12 15 18 .28    -162    133    -27    210    212 309.5  -7.3  33874  284.76 0863.44
2015 04 09 12 15 18 .53    -153    125    -25    198    200 309.3  -7.3  33894  285.07 0863.44
2015 04 09 12 15 18 .79    -120    116     15    168    169 314.0   5.2  33914  285.43 0863.44
2015 04 09 12 15 19 .04     -71    124     12    144    145 330.1   4.9  33912  285.38 0863.44
2015 04 09 12 15 19 .29     -77    121     46    144    152 327.4  17.9  33914  285.43 0863.44
2015 04 09 12 15 19 .54     -85     99     20    131    133 319.5   9.0  33910  285.34 0863.44
2015 04 09 12 15 19 .79    -118    163    -42    202    207 324.2 -11.9  33870  284.69 0863.44
2015 04 09 12 15 20 .04    -104    163    -44    194    200 327.5 -12.9  33880  284.86 0863.44
2015 04 09 12 15 20 .29    -119    158    -46    199    205 323.0 -13.2  33872  284.72 0863.44
2015 04 09 12 15 20 .54    -122    154    -40    197    202 321.7 -11.6  33876  284.77 0863.44
2015 04 09 12 15 20 .79    -115    158    -50    196    203 324.0 -14.5  33874  284.74 0863.44
2015 04 09 12 15 21 .04    -120    143    -39    187    192 319.9 -11.9  33880  284.86 0863.44
2015 04 09 12 15 21 .30    -121    146    -34    190    194 320.3 -10.1  33876  284.79 0863.44
2015 04 09 12 15 21 .55    -101    213    -38    236    240 334.5  -9.3  33896  285.10 0863.44
2015 04 09 12 15 21 .79     -95    226     -9    246    247 337.2  -2.2  33894  285.07 0863.44
2015 04 09 12 15 22 .05    -126    267    -34    296    299 334.7  -6.7  33896  285.10 0863.44
2015 04 09 12 15 22 .29    -121    244    -35    273    276 333.5  -7.3  33882  284.87 0863.44
2015 04 09 12 15 22 .54    -119    239    -40    268    272 333.5  -8.6  33876  284.77 0863.44
2015 04 09 12 15 22 .80    -116    226    -46    255    260 332.8 -10.3  33866  284.60 0863.44
2015 04 09 12 15 23 .05    -121    237    -52    267    273 332.8 -11.1  33866  284.60 0863.44
2015 04 09 12 15 23 .29    -116    253    -46    279    283 335.3  -9.4  33862  284.55 0863.44
2015 04 09 12 15 23 .55    -118    250    -60    277    284 334.8 -12.4  33880  284.83 0863.44
2015 04 09 12 15 23 .80    -108    249    -44    272    276 336.4  -9.4  33894  285.07 0863.44
2015 04 09 12 15 24 .05    -116    275    -16    299    300 337.2  -3.1  33894  285.07 0863.44
2015 04 09 12 15 24 .31    -110    274    -16    296    297 338.1  -3.2  33876  284.78 0863.44
2015 04 09 12 15 24 .55    -173    216    -51    277    282 321.3 -10.5  33918  285.49 0863.44
2015 04 09 12 15 24 .80    -188    189    -73    267    278 315.1 -15.4  33912  285.39 0863.44
2015 04 09 12 15 25 .05    -205    188    -61    279    286 312.4 -12.4  33894  285.08 0863.44
2015 04 09 12 15 25 .30    -195    201    -57    281    287 315.9 -11.5  33888  284.97 0863.44
2015 04 09 12 15 25 .56    -191    182    -53    264    270 313.6 -11.5  33880  284.83 0863.44
2015 04 09 12 15 25 .82    -192    159    -46    250    255 309.5 -10.5  33890  285.00 0863.44
2015 04 09 12 15 26 .06    -181    170    -39    249    253 313.1  -9.0  33890  285.02 0863.44
2015 04 09 12 15 26 .32    -167    140    -12    219    220 310.0  -3.1  33898  285.14 0863.44
2015 04 09 12 15 26 .57    -185    147    -25    237    239 308.6  -6.1  33894  285.07 0863.44
2015 04 09 12 15 26 .81    -186    126    -20    225    226 304.2  -5.2  33886  284.96 0863.44
2015 04 09 12 15 27 .07    -158    169    -35    232    235 316.8  -8.6  33874  284.73 0863.44
2015 04 09 12 15 27 .32    -153    184    -53    240    246 320.3 -12.6  33876  284.78 0863.44
2015 04 09 12 15 27 .57    -154    168    -55    229    236 317.5 -13.7  33880  284.85 0863.44
2015 04 09 12 15 27 .82    -144    161    -51    217    224 318.1 -13.4  33872  284.72 0863.44
2015 04 09 12 15 28 .07    -153    132    -41    203    208 310.7 -11.5  33888  284.97 0863.44
2015 04 09 12 15 28 .32    -134    136    -39    192    197 315.5 -11.6  33884  284.92 0863.44
2015 04 09 12 15 28 .57    -144    141    -55    202    210 314.4 -15.4  33876  284.79 0863.44
2015 04 09 12 15 28 .83    -162    152    -64    223    233 313.3 -16.0  33890  285.01 0863.44
2015 04 09 12 15 29 .07    -162    144    -62    217    225 311.6 -20.4  33870  284.69 0863.44
2015 04 09 12 15 29 .32    -158    145    -69    215    226 312.7 -17.9  33910  285.34 0863.44
2015 04 09 12 15 29 .57    -151    142    -42    208    213 313.3 -11.6  33912  285.38 0863.44
2015 04 09 12 15 29 .82    -154    161    -55    224    231 316.3 -13.9  33896  285.13 0863.44
2015 04 09 12 15 30 .07    -133    149    -63    200    210 318.3 -17.6  33866  284.62 0863.44
2015 04 09 12 15 30 .33    -100    140    -48    173    179 324.4 -20.0  33880  284.84 0863.44
2015 04 09 12 15 30 .58     -68    144    -22    160    162 334.5  -8.0  33914  285.41 0863.45
2015 04 09 12 15 30 .83     -75    120      9    142    143 327.9   3.8  33916  285.46 0863.45
2015 04 09 12 15 31 .08     -71    108     -7    130    131 326.6  -3.2  33916  285.44 0863.45
2015 04 09 12 15 31 .33     -81    142      1    164    165 330.1   0.5  33918  285.48 0863.45
2015 04 09 12 15 31 .58     -77    109     16    134    135 324.8   6.9  33932  285.71 0863.45
2015 04 09 12 15 31 .85     -53    124     37    136    142 336.8  15.3  33940  285.85 0863.45
2015 04 09 12 15 32 .08     -69    150    -10    166    167 335.3  -3.7  33936  285.78 0863.45
2015 04 09 12 15 32 .33     -72    118     -1    139    140 328.8  -0.7  33942  285.88 0863.45
2015 04 09 12 15 32 .59     -56    140     20    152    154 338.1   7.8  33956  286.14 0863.45
2015 04 09 12 15 32 .84     -63    115     24    132    135 331.1  10.6  33948  286.00 0863.45
2015 04 09 12 15 33 .09    -124     96     14    157    158 307.8   5.2  33948  285.98 0863.45
2015 04 09 12 15 33 .34    -173     66    -34    186    190 290.8 -10.5  33912  285.39 0863.45
2015 04 09 12 15 33 .59    -148     74    -46    166    173 296.6 -15.5  33870  284.69 0863.45
2015 04 09 12 15 33 .84    -131     64    -40    147    153 296.2 -15.5  33864  284.59 0863.45
2015 04 09 12 15 34 .09    -142     75    -29    161    164 298.0 -10.3  33866  284.60 0863.45
2015 04 09 12 15 34 .34    -126     80    -10    150    151 302.4  -4.1  33880  284.86 0863.45
2015 04 09 12 15 34 .60     -86     95     17    129    131 317.7   7.5  33880  284.84 0863.45
2015 04 09 12 15 34 .85    -128    103      2    165    166 308.9   1.0  33874  284.74 0863.45
2015 04 09 12 15 35 .09    -104     70    -30    126    130 304.2 -13.4  33864  284.59 0863.45
2015 04 09 12 15 35 .35    -129     76    -13    150    151 300.7  -5.2  33872  284.72 0863.45
2015 04 09 12 15 35 .60    -126     80    -10    150    151 302.4  -4.1  33880  284.86 0863.45
2015 04 09 12 15 35 .85    -150    102    -15    182    183 304.4  -4.9  33884  284.92 0863.45
2015 04 09 12 15 36 .10    -143     91    -15    170    171 302.5  -5.2  33914  285.41 0863.45
2015 04 09 12 15 36 .35    -147    129      9    196    197 311.3   2.9  33926  285.63 0863.45
2015 04 09 12 15 36 .60    -168    134    -18    215    216 308.6  -4.9  33912  285.38 0863.45
2015 04 09 12 15 36 .85    -100    103     32    144    148 315.9  12.6  33930  285.68 0863.45
2015 04 09 12 15 37 .10    -148     98     -6    178    179 303.5  -2.2  33922  285.56 0863.44
2015 04 09 12 15 37 .35    -106    106     40    151    157 315.0  15.0  33954  286.08 0863.44
2015 04 09 12 15 37 .60    -177    126    -22    218    220 305.5  -6.0  33918  285.48 0863.44
2015 04 09 12 15 37 .85    -179    141    -26    229    231 308.2  -6.7  33912  285.39 0863.44
2015 04 09 12 15 38 .10    -186    142    -42    235    239 307.3 -10.3  33902  285.20 0863.44
2015 04 09 12 15 38 .36    -180    159      4    241    242 311.6   1.0  33922  285.54 0863.44
2015 04 09 12 15 38 .60    -161    119      3    201    202 306.4   1.0  33922  285.56 0863.44
2015 04 09 12 15 38 .85    -124    128     -7    179    180 315.9  -2.2  33926  285.63 0863.44
2015 04 09 12 15 39 .11     -99    114      7    152    153 319.0   2.9  33932  285.73 0863.44
2015 04 09 12 15 39 .36    -126    128      6    180    181 315.5   2.1  33934  285.75 0863.44
2015 04 09 12 15 39 .61    -119    167    -37    206    210 324.4 -10.3  33906  285.28 0863.44
2015 04 09 12 15 39 .87    -184    152    -46    239    244 309.6 -10.9  33916  285.44 0863.44
2015 04 09 12 15 40 .12    -167    140    -27    219    221 310.0  -7.2  33906  285.29 0863.44
2015 04 09 12 15 40 .37    -157    124      6    201    202 308.2   1.8  33912  285.38 0863.44
2015 04 09 12 15 40 .62    -132    120     10    179    180 312.4   3.3  33908  285.33 0863.44
2015 04 09 12 15 40 .87    -118    163    -19    202    203 324.2  -5.6  33926  285.61 0863.44
2015 04 09 12 15 41 .12    -151    137    -39    204    208 312.2 -10.9  33908  285.33 0863.44
2015 04 09 12 15 41 .37    -131    154    -53    203    210 319.7 -14.7  33908  285.31 0863.44
2015 04 09 12 15 41 .62    -117    155    -45    195    201 323.0 -13.2  33936  285.80 0863.44
2015 04 09 12 15 41 .87    -144    137    -44    199    204 313.6 -12.6  33896  285.13 0863.44
2015 04 09 12 15 42 .12    -137    171    -59    220    228 321.3 -15.2  33890  285.02 0863.44
2015 04 09 12 15 42 .37    -110    172    -56    205    213 327.5 -15.5  33878  284.82 0863.44
2015 04 09 12 15 42 .62     -98    163    -38    191    195 328.8 -11.3  33910  285.36 0863.44
2015 04 09 12 15 42 .87    -111    156    -37    192    196 324.4 -10.9  33894  285.09 0863.44
2015 04 09 12 15 43 .12    -109    159    -54    194    202 325.5 -15.5  33866  284.60 0863.44
2015 04 09 12 15 43 .38    -118    174    -68    211    222 325.7 -17.9  33960  286.19 0863.44
2015 04 09 12 15 43 .62    -102    161    -51    191    198 327.5 -15.0  33914  285.41 0863.44
2015 04 09 12 15 43 .87    -103    168    -49    198    204 328.4 -13.9  33864  284.59 0863.44
2015 04 09 12 15 44 .13     -90    171    -52    194    202 332.1 -15.2  33866  284.62 0863.44
2015 04 09 12 15 44 .37     -97    172    -47    198    204 330.4 -13.4  33866  284.62 0863.44
2015 04 09 12 15 44 .63    -109    172    -48    204    210 327.7 -13.4  33870  284.69 0863.44
2015 04 09 12 15 44 .87    -105    159    -53    191    199 326.6 -15.5  33870  284.69 0863.44
2015 04 09 12 15 45 .13     -95    172    -40    197    202 331.0 -11.6  33870  284.67 0863.44
2015 04 09 12 15 45 .38    -105    166    -46    197    203 327.7 -13.2  33872  284.72 0863.44
2015 04 09 12 15 45 .63    -128    165    -66    210    221 322.2 -17.5  33874  284.76 0863.44
2015 04 09 12 15 45 .88    -131    158    -65    206    217 320.4 -17.6  33880  284.84 0863.44
2015 04 09 12 15 46 .13    -119    133    -45    179    185 318.1 -14.3  33870  284.67 0863.44
2015 04 09 12 15 46 .39    -120    150    -47    193    199 321.3 -13.7  33870  284.67 0863.44
2015 04 09 12 15 46 .64    -107    146    -49    182    189 323.7 -15.2  33868  284.64 0863.44
2015 04 09 12 15 46 .89     -97    127    -52    160    169 322.6 -17.9  33870  284.67 0863.44
2015 04 09 12 15 47 .14     -95    126    -34    159    163 323.0 -12.4  33870  284.67 0863.44
2015 04 09 12 15 47 .39    -100    106    -35    147    152 316.7 -13.4  33872  284.72 0863.44
2015 04 09 12 15 47 .64     -91    101    -21    137    139 318.1  -8.8  33882  284.89 0863.44
2015 04 09 12 15 47 .89    -100    107    -33    147    151 316.8 -12.9  33872  284.70 0863.43
2015 04 09 12 15 48 .14     -93    129    -32    160    164 324.0 -11.3  33870  284.69 0863.43
2015 04 09 12 15 48 .40     -99    121    -36    157    162 320.8 -13.2  33880  284.84 0863.43
2015 04 09 12 15 48 .65    -101    101    -23    143    145 315.0  -9.3  33888  284.97 0863.43
2015 04 09 12 15 48 .90     -88    122    -31    151    155 324.0 -11.9  33884  284.92 0863.43
2015 04 09 12 15 49 .14     -78    113    -31    138    142 325.3 -12.9  33876  284.79 0863.43
2015 04 09 12 15 49 .40     -86    117    -32    146    150 323.9 -12.4  33880  284.86 0863.43
2015 04 09 12 15 49 .65     -81    128    -25    152    155 327.4  -9.4  33902  285.21 0863.43
2015 04 09 12 15 49 .90     -96    136    -34    167    171 324.6 -11.6  33892  285.04 0863.43
2015 04 09 12 15 50 .15    -104    147    -35    181    185 324.8 -11.1  33886  284.94 0863.43
2015 04 09 12 15 50 .40    -105    143    -31    178    181 323.5 -10.1  33888  284.97 0863.43
2015 04 09 12 15 50 .65    -102    161    -41    191    196 327.5 -12.2  33884  284.92 0863.43
2015 04 09 12 15 50 .90     -95    149    -40    177    182 327.4 -12.9  33882  284.87 0863.43
2015 04 09 12 15 51 .15     -79    146    -42    167    173 331.5 -14.3  33888  284.97 0863.43
2015 04 09 12 15 51 .41     -87    136    -40    162    167 327.4 -13.9  33898  285.14 0863.43
2015 04 09 12 15 51 .65     -95    149    -40    177    182 327.4 -12.9  33914  285.41 0863.43
2015 04 09 12 15 51 .90     -88    139    -26    165    168 327.5  -9.0  33904  285.26 0863.43
2015 04 09 12 15 52 .15     -90    142    -29    169    172 327.7  -9.8  33900  285.19 0863.43
2015 04 09 12 15 52 .40    -113    139    -37    180    184 320.8 -11.9  33896  285.11 0863.43
2015 04 09 12 15 52 .66    -114    127    -40    171    176 318.1 -13.2  33896  285.13 0863.43
2015 04 09 12 15 52 .91     -93    129    -24    160    162 324.0  -8.8  33894  285.07 0863.43
2015 04 09 12 15 53 .15     -79    140    -32    161    165 330.6 -11.3  33880  284.84 0863.43
2015 04 09 12 15 53 .41     -98    138    -38    170    175 324.4 -12.6  33880  284.86 0863.43
2015 04 09 12 15 53 .67    -102    145    -44    178    184 324.8 -13.9  33870  284.69 0863.43
2015 04 09 12 15 53 .92     -96    142    -51    172    180 325.7 -16.6  33870  284.67 0863.43
2015 04 09 12 15 54 .17     -96    142    -51    172    180 325.7 -16.6  33870  284.67 0863.44
2015 04 09 12 15 54 .42    -100    151    -50    182    189 326.4 -15.4  33874  284.74 0863.44
2015 04 09 12 15 54 .67    -105    141    -46    177    183 323.3 -14.7  33870  284.67 0863.44
2015 04 09 12 15 54 .92     -96    142    -51    172    180 325.7 -16.6  33870  284.67 0863.44
2015 04 09 12 15 55 .17     -88    129    -45    157    163 325.8 -21.0  33870  284.69 0863.44
2015 04 09 12 15 55 .42     -87    136    -49    162    170 327.4 -16.8  33868  284.64 0863.44
2015 04 09 12 15 55 .67     -97    135    -44    167    173 324.4 -15.0  33868  284.64 0863.44
2015 04 09 12 15 55 .92     -98    138    -47    170    177 324.4 -15.4  33872  284.70 0863.44
2015 04 09 12 15 56 .17    -114    137    -48    179    186 320.4 -15.0  33878  284.82 0863.44
2015 04 09 12 15 56 .42    -118    163    -42    202    207 324.2 -11.9  33906  285.28 0863.44
2015 04 09 12 15 56 .67    -115    196    -55    228    235 329.5 -13.7  33890  285.01 0863.44
2015 04 09 12 15 56 .92    -127    188    -58    227    235 325.9 -14.3  33890  285.01 0863.44
2015 04 09 12 15 57 .17    -116    153    -64    193    203 322.8 -23.8  33894  285.07 0863.44
2015 04 09 12 15 57 .43    -122    180    -77    218    232 325.7 -19.6  33898  285.14 0863.44
2015 04 09 12 15 57 .68    -133    172    -52    218    225 322.4 -13.4  33922  285.56 0863.44
2015 04 09 12 15 57 .93    -115    158    -35    196    200 323.9 -10.1  33920  285.53 0863.44
2015 04 09 12 15 58 .18    -160    118    -40    199    204 306.4 -11.5  33898  285.14 0863.44
2015 04 09 12 15 58 .43    -117    113    -49    164    172 314.0 -16.8  33906  285.28 0863.44
2015 04 09 12 15 58 .68    -138    129    -38    190    194 313.1 -11.3  33904  285.26 0863.43
2015 04 09 12 15 58 .93    -155    119    -35    196    200 307.5 -10.3  33904  285.24 0863.43
2015 04 09 12 15 59 .18    -154    110    -25    190    192 305.5  -7.7  33908  285.33 0863.43
2015 04 09 12 15 59 .43    -133    100    -12    167    168 307.1  -4.4  33912  285.39 0863.43
2015 04 09 12 15 59 .68    -152    116    -33    192    195 307.3  -9.8  33906  285.28 0863.43
2015 04 09 12 15 59 .94    -154    133    -56    204    212 310.9 -15.5  33926  285.61 0863.43
2015 04 09 12 16 00 .18    -127    188    -46    227    232 325.9 -11.5  33948  285.98 0863.43
2015 04 09 12 16 00 .44    -106    169    -37    200    204 327.9 -10.5  33944  285.93 0863.44
2015 04 09 12 16 00 .70     -68    151    -11    166    167 335.5  -3.9  33936  285.80 0863.44
2015 04 09 12 16 00 .95     -80    126     -9    150    151 327.4  -3.7  33934  285.75 0863.44
2015 04 09 12 16 01 .20    -110     97     -5    147    148 311.3  -2.2  33932  285.73 0863.44
2015 04 09 12 16 01 .45     -98     86     11    131    132 311.3   5.0  33918  285.48 0863.44
2015 04 09 12 16 01 .70    -119     87     -8    148    149 306.4  -3.1  33910  285.34 0863.44
2015 04 09 12 16 01 .95    -120    100    -26    157    160 309.6  -9.6  33908  285.33 0863.44
2015 04 09 12 16 02 .20    -137    112     -6    178    179 309.3  -2.2  33914  285.43 0863.44
2015 04 09 12 16 02 .45    -203     68    -41    215    219 288.6 -10.9  33906  285.29 0863.44
2015 04 09 12 16 02 .70    -207     67    -55    218    226 287.9 -14.3  33898  285.16 0863.44
2015 04 09 12 16 02 .95    -195     75    -38    209    213 291.1 -10.5  33912  285.38 0863.44
2015 04 09 12 16 03 .20    -188     97    -35    212    215 297.3  -9.4  33916  285.44 0863.44
2015 04 09 12 16 03 .45    -196    106    -38    223    227 298.4  -9.8  33928  285.65 0863.44
2015 04 09 12 16 03 .70    -185     81    -57    203    212 293.6 -15.8  33902  285.23 0863.44
2015 04 09 12 16 03 .95    -166     72    -52    182    190 293.5 -16.0  33902  285.21 0863.44
2015 04 09 12 16 04 .20    -179     71    -69    193    206 291.7 -19.7  33892  285.06 0863.44
2015 04 09 12 16 04 .45    -190     62    -44    200    205 288.2 -12.6  33910  285.34 0863.44
2015 04 09 12 16 04 .70    -183     86    -48    203    209 295.3 -13.4  33896  285.11 0863.44
2015 04 09 12 16 04 .95    -196     83    -76    214    228 293.1 -19.7  33892  285.04 0863.44
2015 04 09 12 16 05 .20    -208    100    -75    231    242 295.8 -23.3  33894  285.07 0863.44
2015 04 09 12 16 05 .46    -194     91    -73    215    228 295.2 -18.7  33900  285.19 0863.44
2015 04 09 12 16 05 .71    -170     96    -66    196    208 299.5 -18.7  33904  285.24 0863.44
2015 04 09 12 16 05 .96    -168     34    -57    172    182 281.5 -18.3  33902  285.21 0863.44
2015 04 09 12 16 06 .21    -192     -1    -90    193    212 269.6 -31.4  33906  285.29 0863.44
2015 04 09 12 16 06 .46    -144     -8    -52    145    155 266.5 -19.7  33910  285.34 0863.44
2015 04 09 12 16 06 .71    -116     11    -19    117    119 275.7  -9.4  33908  285.31 0863.44
2015 04 09 12 16 06 .96     -91     -7     -4     92     93 265.2  -2.6  33908  285.33 0863.44
2015 04 09 12 16 07 .21     -60     -3     -7     61     62 266.5  -7.2  33932  285.73 0863.44
2015 04 09 12 16 07 .47     -69     45     35     83     90 303.3  24.6  33958  286.15 0863.44
2015 04 09 12 16 07 .72    -125      9    -14    126    127 274.4  -6.7  33944  285.92 0863.44
2015 04 09 12 16 07 .97    -111     22    -14    114    115 281.4  -7.3  33938  285.83 0863.44
2015 04 09 12 16 08 .22    -109      1     21    110    113 270.8  11.0  33962  286.24 0863.44
2015 04 09 12 16 08 .47    -148     41    -49    154    161 285.5 -22.5  33906  285.28 0863.44
2015 04 09 12 16 08 .72    -168     77    -56    185    193 294.6 -22.1  33906  285.29 0863.44
2015 04 09 12 16 08 .97    -156     72    -58    172    181 294.8 -23.3  33898  285.16 0863.44
2015 04 09 12 16 09 .23    -154     51    -53    163    171 288.6 -23.6  33914  285.41 0863.44
2015 04 09 12 16 09 .47    -134     28    -54    137    147 281.9 -27.4  33922  285.55 0863.44
2015 04 09 12 16 09 .72    -117      9    -45    118    126 274.4 -25.9  33914  285.43 0863.44
2015 04 09 12 16 09 .97    -107      5    -15    108    110 273.0  -8.2  33926  285.61 0863.44
2015 04 09 12 16 10 .22     -94     21     -3     97     98 282.8  -2.2  33922  285.56 0863.44
2015 04 09 12 16 10 .48     -77     55      4     95     96 305.5   2.9  33922  285.55 0863.44
2015 04 09 12 16 10 .73     -98     29    -13    103    104 286.8  -7.3  33942  285.90 0863.44
2015 04 09 12 16 10 .98    -114     16     15    116    117 278.4   7.5  33950  286.03 0863.44
2015 04 09 12 16 11 .22    -120     52    -12    132    133 293.6  -5.2  33934  285.75 0863.44
2015 04 09 12 16 11 .48     -97     39    -26    105    109 291.8 -13.9  33924  285.58 0863.44
2015 04 09 12 16 11 .73    -121     20    -10    123    124 279.7  -5.1  33940  285.85 0863.44
2015 04 09 12 16 11 .98    -131     37      0    137    138 285.9  -0.3  33948  285.98 0863.44
2015 04 09 12 16 12 .23    -120     55    -36    133    138 294.8 -15.4  33932  285.73 0863.44
2015 04 09 12 16 12 .48    -131     47    -23    140    142 290.0  -9.3  33938  285.82 0863.44
2015 04 09 12 16 12 .73    -143     38    -38    149    154 285.1 -14.5  33928  285.66 0863.44
2015 04 09 12 16 12 .99    -122     22    -39    125    132 280.6 -17.6  33934  285.75 0863.44
2015 04 09 12 16 13 .23     -92     63     -1    112    113 304.6  -0.7  33962  286.22 0863.43
2015 04 09 12 16 13 .48     -67     54     -2     87     88 308.6  -1.8  33972  286.39 0863.43
2015 04 09 12 16 13 .73     -24     41     35     48     59 329.3  39.7  33984  286.61 0863.43
2015 04 09 12 16 13 .98     -18     -6      0     19     20 251.4  -2.2  33998  286.83 0863.43
2015 04 09 12 16 14 .24     -15     -1     43     16     45 265.7  80.2  34000  286.86 0863.43
2015 04 09 12 16 14 .49     -69    -14    -21     71     74 258.6 -22.8  33966  286.29 0863.43
2015 04 09 12 16 14 .75    -109    -16    -10    111    112 261.6  -5.6  33974  286.44 0863.43
2015 04 09 12 16 15 .00     -19     12     -8     23     24 302.4 -23.6  33978  286.51 0863.43
2015 04 09 12 16 15 .25       7     34     14     35     37  11.6  21.0  33990  286.71 0863.43
2015 04 09 12 16 15 .50     -38     12     -1     41     42 288.4  -2.2  34004  286.93 0863.43
2015 04 09 12 16 15 .75      -9     74     22     75     79 352.9  16.8  34036  287.47 0863.43
2015 04 09 12 16 16 .00     -69     79    -36    106    113 319.0 -19.1  34028  287.33 0863.43
2015 04 09 12 16 16 .25     -77     76    -29    109    113 314.6 -15.0  34008  287.00 0863.43
2015 04 09 12 16 16 .50     -69     52    -21     87     90 306.9 -13.9  34028  287.35 0863.43
2015 04 09 12 16 16 .75     -32     29      2     44     45 312.2   3.8  34034  287.45 0863.43
2015 04 09 12 16 17 .00     -46     -8     -4     47     48 259.4  -5.2  34012  287.08 0863.43
2015 04 09 12 16 17 .25    -102     60     -4    119    120 300.7  -2.2  34024  287.27 0863.43
2015 04 09 12 16 17 .50     -68     45     -2     82     83 303.3  -1.8  34002  286.91 0863.43
2015 04 09 12 16 17 .76     -73     47     -3     87     88 302.9  -2.2  33982  286.56 0863.43
2015 04 09 12 16 18 .00     -74     32     -3     81     82 294.0  -2.2  33950  286.02 0863.43
2015 04 09 12 16 18 .25     -62     48    -13     79     81 308.2  -9.8  34008  287.01 0863.43
2015 04 09 12 16 18 .50     -58     32    -24     67     72 298.9 -19.6  33992  286.73 0863.43
2015 04 09 12 16 18 .75     -68      8    -24     69     74 277.0 -19.6  33974  286.42 0863.43
2015 04 09 12 16 19 .00     -68     17    -17     71     74 284.2 -13.4  33952  286.05 0863.43
2015 04 09 12 16 19 .26     -56     28    -12     63     65 297.1 -11.3  33992  286.74 0863.43
2015 04 09 12 16 19 .51     -75     45    -11     88     89 301.1  -7.3  34000  286.86 0863.43
2015 04 09 12 16 19 .76     -47     52     10     71     72 317.7   8.0  34020  287.21 0863.43
2015 04 09 12 16 20 .01     -23     58     22     63     67 338.2  19.4  34008  287.01 0863.43
2015 04 09 12 16 20 .26     -31     70     30     77     82 335.5  22.0  33996  286.81 0863.43
2015 04 09 12 16 20 .51     -41     45     41     61     73 317.7  36.5  34000  286.88 0863.43
2015 04 09 12 16 20 .76     -26     53      5     60     61 333.7   4.9  33980  286.54 0863.43
2015 04 09 12 16 21 .01      -9     66    -20     67     70 352.0 -16.6  33956  286.14 0863.43
2015 04 09 12 16 21 .27     -14     64     -3     66     67 347.5  -3.1  33954  286.10 0863.43
2015 04 09 12 16 21 .52     -42     81    -11     92     93 332.8  -7.3  33962  286.24 0863.42
2015 04 09 12 16 21 .77     -32     90     -9     96     97 340.0  -5.6  33962  286.22 0863.42
2015 04 09 12 16 22 .03     -27     84    -14     89     91 342.2  -9.3  33988  286.66 0863.42
2015 04 09 12 16 22 .27     -38     73      0     83     84 332.4  -0.3  34040  287.54 0863.42
2015 04 09 12 16 22 .52     -52     91     -1    105    106 330.1  -0.7  34034  287.43 0863.42
2015 04 09 12 16 22 .77     -50    108      9    120    121 335.1   4.4  34006  286.96 0863.42
2015 04 09 12 16 23 .02     -38    111    -10    118    119 340.8  -5.2  33964  286.27 0863.42
2015 04 09 12 16 23 .27     -47     99    -17    110    112 334.5  -8.8  33966  286.29 0863.42
2015 04 09 12 16 23 .53     -66    108    -33    127    132 328.4 -14.5  33982  286.57 0863.42
2015 04 09 12 16 23 .78     -80    124    -41    148    154 327.0 -15.5  34006  286.98 0863.42
2015 04 09 12 16 24 .02     -90    123    -42    153    159 323.9 -15.5  33996  286.79 0863.42
2015 04 09 12 16 24 .28     -73    128    -41    148    154 330.1 -15.5  34010  287.05 0863.42
2015 04 09 12 16 24 .53     -78    108    -38    134    140 323.9 -16.0  34010  287.05 0863.42
2015 04 09 12 16 24 .78     -55     82     -4     99    100 326.2  -2.6  34012  287.06 0863.42
2015 04 09 12 16 25 .03     -75     73      4    105    106 314.4   2.3  34012  287.06 0863.42
2015 04 09 12 16 25 .28     -62     41     44     75     86 303.3  33.5  34010  287.05 0863.42
2015 04 09 12 16 25 .53     -58     61     49     85     98 316.3  32.9  34016  287.15 0863.42
2015 04 09 12 16 25 .79     -37     67     57     77     95 331.0  40.1  34030  287.38 0863.42
2015 04 09 12 16 26 .03     -76     62     52     99    111 309.5  29.8  34060  287.87 0863.43
2015 04 09 12 16 26 .28     -57    123    -12    136    137 335.1  -5.2  34054  287.79 0863.43
2015 04 09 12 16 26 .53     -73    136     -8    155    156 331.5  -3.1  34064  287.94 0863.43
2015 04 09 12 16 26 .78     -71    175     -4    189    190 337.9  -1.3  34050  287.70 0863.43
2015 04 09 12 16 27 .04     -47    173     28    180    183 344.9   9.0  34052  287.76 0863.43
2015 04 09 12 16 27 .29     -39    157     31    162    166 346.0  11.1  34058  287.86 0863.43
2015 04 09 12 16 27 .53    -163     89      5    186    187 298.8   1.8  34040  287.55 0863.43
2015 04 09 12 16 27 .79    -175    113    -42    209    214 302.9 -11.6  34008  287.01 0863.42
2015 04 09 12 16 28 .04    -146    124     -1    192    193 310.4  -0.5  34014  287.10 0863.42
2015 04 09 12 16 28 .30    -195    137    -15    239    240 305.1  -3.7  34014  287.09 0863.42
2015 04 09 12 16 28 .55    -143    158     -4    214    215 317.9  -1.2  34044  287.60 0863.42
2015 04 09 12 16 28 .80    -186    141     -4    234    235 307.1  -1.1  34024  287.26 0863.42
2015 04 09 12 16 29 .05    -206    131    -41    245    249 302.4  -9.6  34030  287.38 0863.42
2015 04 09 12 16 29 .30    -213     88    -42    231    235 292.4 -10.4  34034  287.43 0863.42
2015 04 09 12 16 29 .55    -206    114    -36    236    239 299.1  -8.8  34026  287.31 0863.43
2015 04 09 12 16 29 .80    -159     59    -28    170    173 290.6  -9.3  34054  287.79 0863.43
2015 04 09 12 16 30 .05    -157     59    -37    168    173 290.6 -12.4  34062  287.92 0863.43
2015 04 09 12 16 30 .30    -168     63    -22    180    182 290.8  -7.2  34068  288.01 0863.43
2015 04 09 12 16 30 .55    -176     70    -45    190    196 291.8 -13.4  34052  287.74 0863.43
2015 04 09 12 16 30 .80    -156     55    -26    166    169 289.7  -9.0  34014  287.11 0863.43
2015 04 09 12 16 31 .05    -144     37    -19    149    151 284.6  -7.3  34024  287.28 0863.43
2015 04 09 12 16 31 .30    -142     41    -18    148    150 286.4  -7.2  33978  286.51 0863.43
2015 04 09 12 16 31 .56    -135     61      8    149    150 294.4   3.3  34010  287.05 0863.43
2015 04 09 12 16 31 .80    -152     64    -21    165    167 292.8  -7.3  33984  286.59 0863.43
2015 04 09 12 16 32 .05    -156     58    -28    167    170 290.4  -9.8  33954  286.08 0863.43
2015 04 09 12 16 32 .31    -161     45    -19    168    170 285.7  -6.7  33956  286.14 0863.43
2015 04 09 12 16 32 .56    -153     62    -26    166    169 292.0  -9.0  33952  286.05 0863.43
2015 04 09 12 16 32 .81    -140     71    -34    158    162 296.9 -12.2  33966  286.29 0863.43
2015 04 09 12 16 33 .06    -149     55    -29    160    163 290.4 -10.3  33966  286.29 0863.43
2015 04 09 12 16 33 .31    -160     70    -24    175    177 293.7  -8.0  33966  286.30 0863.43
2015 04 09 12 16 33 .55    -152     70    -33    168    172 294.8 -11.3  33956  286.14 0863.43
2015 04 09 12 16 33 .81    -159     61    -37    171    176 291.1 -12.4  33946  285.97 0863.43
2015 04 09 12 16 34 .06    -149     59    -38    161    166 291.5 -13.4  33960  286.19 0863.43
2015 04 09 12 16 34 .31    -118     47      6    128    129 291.7   2.8  33970  286.35 0863.43
2015 04 09 12 16 34 .56    -142     43    -29    149    152 286.9 -11.3  33966  286.29 0863.43
2015 04 09 12 16 34 .81    -149     55    -20    160    162 290.4  -7.3  33964  286.27 0863.43
2015 04 09 12 16 35 .07    -154     49    -32    162    166 287.7 -11.3  33954  286.08 0863.43
2015 04 09 12 16 35 .32    -148     59    -27    160    163 291.7  -9.6  33958  286.15 0863.43
2015 04 09 12 16 35 .57    -157     67    -29    171    174 293.3  -9.6  33966  286.29 0863.43
2015 04 09 12 16 35 .82    -157     86    -23    180    182 298.8  -7.5  33950  286.03 0863.43
2015 04 09 12 16 36 .08    -157     83    -30    178    181 298.0  -9.8  33976  286.46 0863.43
2015 04 09 12 16 36 .33    -168     91    -16    192    193 298.4  -4.9  33968  286.32 0863.43
2015 04 09 12 16 36 .58    -169    107    -30    201    204 302.4  -8.6  33998  286.83 0863.43
2015 04 09 12 16 36 .83    -148     73    -36    166    171 296.4 -12.4  34022  287.23 0863.43
2015 04 09 12 16 37 .08    -130    128    -31    183    186 314.6  -9.6  34086  288.31 0863.43
2015 04 09 12 16 37 .33    -105    119      6    159    160 318.5   2.5  34084  288.30 0863.43
2015 04 09 12 16 37 .58    -103    101      7    145    146 314.4   2.9  34084  288.30 0863.43
2015 04 09 12 16 37 .83     -66    101     -4    121    122 326.6  -2.2  34068  288.03 0863.43
2015 04 09 12 16 38 .08     -91     51    -31    105    110 299.3 -16.6  34028  287.35 0863.43
2015 04 09 12 16 38 .33    -155     49    -25    163    166 287.5  -9.0  34008  287.01 0863.43
2015 04 09 12 16 38 .58    -108     78     -9    134    135 306.0  -4.1  34002  286.89 0863.43
2015 04 09 12 16 38 .83     -82     64     18    105    107 308.2  10.1  33988  286.66 0863.43
2015 04 09 12 16 39 .08     -33     64    -23     73     77 332.8 -17.6  33996  286.79 0863.43
2015 04 09 12 16 39 .33     -36     81     23     89     93 335.9  14.7  34006  286.98 0863.43
2015 04 09 12 16 39 .58     -81     92     26    123    126 318.6  12.2  34058  287.84 0863.44
2015 04 09 12 16 39 .83     -51    129     28    139    142 338.2  11.6  34032  287.42 0863.44
2015 04 09 12 16 40 .09    -148    143      6    207    208 314.0   1.8  34014  287.11 0863.44
2015 04 09 12 16 40 .34    -100    143     12    175    176 325.0   4.2  34030  287.37 0863.44
2015 04 09 12 16 40 .59    -139    139     11    197    198 314.9   3.3  34026  287.30 0863.44
2015 04 09 12 16 40 .84    -176    126    -46    217    223 305.7 -12.2  33980  286.52 0863.44
2015 04 09 12 16 41 .09    -157    145    -36    214    218 312.7  -9.6  33954  286.08 0863.44
2015 04 09 12 16 41 .34    -148    138    -40    203    208 313.1 -11.3  33958  286.15 0863.44
2015 04 09 12 16 41 .58    -141    133    -40    194    199 313.3 -11.9  33948  285.98 0863.44
2015 04 09 12 16 41 .84    -144    108    -36    180    184 306.9 -11.5  33940  285.85 0863.44
2015 04 09 12 16 42 .10    -187     95    -19    210    211 297.1  -5.2  33970  286.37 0863.44
2015 04 09 12 16 42 .35     -83    105      6    135    136 321.7   2.9  34012  287.06 0863.44
2015 04 09 12 16 42 .60    -205    108    -42    232    236 297.8 -10.3  33930  285.67 0863.44
2015 04 09 12 16 42 .85    -178    108    -17    209    210 301.1  -4.9  33926  285.63 0863.44
2015 04 09 12 16 43 .10    -179     61    -43    190    195 288.8 -12.9  33914  285.43 0863.44
2015 04 09 12 16 43 .35    -187     47    -44    193    198 284.2 -12.9  33912  285.39 0863.44
2015 04 09 12 16 43 .60    -152     21    -51    154    162 278.0 -23.6  33922  285.56 0863.44
2015 04 09 12 16 43 .85    -106     35      3    112    113 288.6   1.8  33924  285.60 0863.44
2015 04 09 12 16 44 .10     -93     51      4    107    108 298.9   2.3  33926  285.63 0863.44
2015 04 09 12 16 44 .35     -61     29     31     68     74 295.3  27.1  33948  285.98 0863.44
2015 04 09 12 16 44 .60    -122     13     -4    123    124 276.1  -2.2  33948  285.98 0863.44
2015 04 09 12 16 44 .86    -160      4    -15    161    162 271.7  -5.4  33928  285.66 0863.44
2015 04 09 12 16 45 .11    -161    -10    -45    162    169 266.3 -15.5  33926  285.63 0863.44
2015 04 09 12 16 45 .36    -103    -85      7    134    135 230.4   3.3  33928  285.66 0863.44
2015 04 09 12 16 45 .61     -64    -39     53     76     92 238.5  38.0  33944  285.93 0863.44
2015 04 09 12 16 45 .86     -41     43     51     60     78 315.8  45.4  33968  286.32 0863.44
2015 04 09 12 16 46 .11     -85     49     -3     99    100 299.8  -2.2  33952  286.07 0863.44
2015 04 09 12 16 46 .36    -104     75    -41    129    136 305.9 -17.6  33934  285.75 0863.44
2015 04 09 12 16 46 .61    -177     44    -12    183    184 284.2  -3.9  33936  285.80 0863.44
2015 04 09 12 16 46 .86    -140     89    -53    167    176 302.6 -17.6  33942  285.90 0863.44
2015 04 09 12 16 47 .11    -123     78    -49    146    155 302.4 -18.7  33938  285.82 0863.44
2015 04 09 12 16 47 .36    -178     45     -7    184    185 284.4  -2.2  33932  285.71 0863.44
2015 04 09 12 16 47 .61    -153     74      5    171    172 296.0   1.8  33944  285.93 0863.44
2015 04 09 12 16 47 .86    -103     45    -17    113    115 293.5  -8.8  33942  285.88 0863.44
2015 04 09 12 16 48 .12     -60     28     18     67     70 295.2  15.2  33956  286.14 0863.44
2015 04 09 12 16 48 .36     -55     18     20     58     62 288.2  19.4  33972  286.39 0863.44
2015 04 09 12 16 48 .61     -40     -7     41     41     57 259.4  50.1  34000  286.88 0863.44
2015 04 09 12 16 48 .86     -18      1     33     19     38 274.4  64.7  34008  287.01 0863.44
2015 04 09 12 16 49 .12     -17      9     54     20     57 297.1  80.2  33994  286.78 0863.44
2015 04 09 12 16 49 .37     -62     29     32     69     76 295.3  27.1  33976  286.46 0863.44
2015 04 09 12 16 49 .62     -44     53     62     70     93 320.3  46.4  33982  286.56 0863.44
2015 04 09 12 16 49 .87     -37     61     45     72     84 328.4  35.5  33978  286.51 0863.44
2015 04 09 12 16 50 .12     -30     54     69     62     92 331.0  53.3  33976  286.47 0863.44
2015 04 09 12 16 50 .38     -20     45     58     50     76 336.4  55.4  33988  286.67 0863.44
2015 04 09 12 16 50 .63     -53     58     42     79     89 317.7  30.3  33996  286.79 0863.44
2015 04 09 12 16 50 .88     -22     39     16     46     49 330.1  19.4  33996  286.79 0863.44
2015 04 09 12 16 51 .13     -22     66     24     70     75 341.3  18.9  33998  286.84 0863.44
2015 04 09 12 16 51 .38     -42     50     65     66     92 319.5  50.5  34008  287.01 0863.44
2015 04 09 12 16 51 .63     -29     93     62     98    115 342.6  35.5  34018  287.16 0863.44
2015 04 09 12 16 51 .88     -61     82    100    103    143 323.5  49.4  34022  287.23 0863.44
2015 04 09 12 16 52 .13     -45    120     25    129    132 339.5  11.0  34014  287.10 0863.44
2015 04 09 12 16 52 .38     -60    129      4    143    144 335.1   1.8  34022  287.23 0863.44
2015 04 09 12 16 52 .63     -65    118     -5    136    137 331.0  -2.2  34024  287.27 0863.44
2015 04 09 12 16 52 .88     -88    113     17    144    146 322.1   6.9  34028  287.33 0863.44
2015 04 09 12 16 53 .14    -104     85      6    135    136 309.5   2.9  34028  287.33 0863.44
2015 04 09 12 16 53 .39     -78     73     -5    108    109 313.1  -3.1  34060  287.89 0863.44
2015 04 09 12 16 53 .64     -52    111     59    123    136 334.7  27.3  34076  288.14 0863.44
2015 04 09 12 16 53 .89    -128     92    -22    158    160 305.9  -8.0  34060  287.87 0863.44
2015 04 09 12 16 54 .14    -163    134    -50    212    218 309.5 -13.4  34038  287.50 0863.44
2015 04 09 12 16 54 .39    -111    144    -21    182    184 322.4  -6.7  34060  287.89 0863.44
2015 04 09 12 16 54 .64    -102    193    -27    219    221 332.1  -7.2  34052  287.74 0863.44
2015 04 09 12 16 54 .89     -81    242    -30    256    258 341.5  -6.7  34048  287.66 0863.44
2015 04 09 12 16 55 .14     -70    227     11    238    239 342.8   2.8  34068  288.00 0863.44
2015 04 09 12 16 55 .39     -91    273     11    288    289 341.5   2.3  34072  288.07 0863.44
2015 04 09 12 16 55 .64     -87    263     14    278    279 341.7   2.9  34052  287.75 0863.44
2015 04 09 12 16 55 .89     -93    243      8    261    262 339.1   1.8  34070  288.04 0863.44
2015 04 09 12 16 56 .15     -85    250     12    265    266 341.1   2.8  34052  287.75 0863.44
2015 04 09 12 16 56 .40     -76    251     13    263    264 343.1   2.9  34078  288.19 0863.44
2015 04 09 12 16 56 .65     -24    248    -28    250    252 354.4  -6.5  34080  288.22 0863.44
2015 04 09 12 16 56 .90      -8    254    -18    255    256 358.0  -4.1  34054  287.77 0863.44
2015 04 09 12 16 57 .15       2    188    -24    189    191   0.9  -7.3  34016  287.15 0863.44
2015 04 09 12 16 57 .41       4    179     -8    180    181   1.4  -2.6  34038  287.50 0863.44
2015 04 09 12 16 57 .65     -14    183     -7    184    185 355.6  -2.2  34062  287.92 0863.44
2015 04 09 12 16 57 .91     -24    202     17    204    205 353.1   4.9  34066  287.99 0863.44
2015 04 09 12 16 58 .15     -48    238      7    243    244 348.5   1.8  34068  288.00 0863.44
2015 04 09 12 16 58 .40     -43    280      4    284    285 351.1   0.8  33998  286.82 0863.44
2015 04 09 12 16 58 .66     -31    290     14    292    293 353.8   2.9  33996  286.79 0863.44
2015 04 09 12 16 58 .91     -46    271     -2    276    277 350.2  -0.5  33988  286.65 0863.44
2015 04 09 12 16 59 .16     -40    260     13    264    265 351.1   2.9  34034  287.44 0863.44
2015 04 09 12 16 59 .41     -52    257    -10    263    264 348.4  -2.2  34008  287.01 0863.44
2015 04 09 12 16 59 .67     -19    242     22    243    245 355.3   5.2  34128  289.03 0863.44
2015 04 09 12 16 59 .91     -21    237     19    238    239 354.9   4.6  34100  288.56 0863.44
2015 04 09 12 17 00 .17     -33    234     37    237    240 351.9   9.0  34162  289.61 0863.44
2015 04 09 12 17 00 .41     -49    226     63    232    241 347.7  15.3  34116  288.81 0863.44
2015 04 09 12 17 00 .66     -49    227     54    233    240 347.7  13.2  34120  288.90 0863.44
2015 04 09 12 17 00 .91     -40    218     29    222    224 349.5   7.5  34080  288.23 0863.44
2015 04 09 12 17 01 .16     -60    232      8    240    241 345.5   2.1  34036  287.46 0863.44
2015 04 09 12 17 01 .41     -97    204    -47    227    233 334.5 -11.9  33976  286.46 0863.44
2015 04 09 12 17 01 .66    -105    204    -54    230    237 332.6 -13.4  34000  286.85 0863.44
2015 04 09 12 17 01 .92    -203    199    -82    285    297 314.4 -16.0  33992  286.74 0863.44
2015 04 09 12 17 02 .16    -203    147    -53    252    258 306.0 -11.9  33996  286.79 0863.44
2015 04 09 12 17 02 .42    -245    167    -79    297    308 304.4 -15.0  33988  286.65 0863.44
2015 04 09 12 17 02 .67    -282    128   -106    310    328 294.4 -18.9  34002  286.90 0863.44
2015 04 09 12 17 02 .93    -264    174    -40    317    320 303.3  -7.3  33998  286.84 0863.44
2015 04 09 12 17 03 .18    -178    115     12    212    213 302.9   3.3  34040  287.55 0863.44
2015 04 09 12 17 03 .43    -171     61    138    182    228 289.7  41.2  34166  289.69 0863.44
2015 04 09 12 17 03 .68    -137    135     68    193    204 314.7  20.0  34120  288.91 0863.44
2015 04 09 12 17 03 .93    -126    171     -4    213    214 323.7  -1.1  34044  287.62 0863.44
2015 04 09 12 17 04 .18    -112    190      9    221    222 329.5   2.5  34028  287.35 0863.44
2015 04 09 12 17 04 .43    -154    321    -59    357    362 334.3  -9.5  34014  287.10 0863.44
2015 04 09 12 17 04 .69    -283    304    -65    416    422 317.0  -8.9  34002  286.89 0863.44
2015 04 09 12 17 04 .93    -300    281    -91    412    423 313.1 -12.5  33974  286.42 0863.45
2015 04 09 12 17 05 .19    -336    249    -74    419    426 306.6 -10.1  33960  286.18 0863.45
2015 04 09 12 17 05 .43    -252    252    -14    357    358 315.0  -2.3  33990  286.68 0863.45
2015 04 09 12 17 05 .68    -233    263     -7    352    353 318.5  -1.3  34000  286.86 0863.45
2015 04 09 12 17 05 .94    -193    351    -51    401    405 331.1  -7.4  34064  287.94 0863.45
2015 04 09 12 17 06 .19    -103    367    -12    382    383 344.3  -1.9  34042  287.56 0863.45
2015 04 09 12 17 06 .43     -79    349     29    358    360 347.2   4.7  34036  287.49 0863.45
2015 04 09 12 17 06 .69    -112    336    -19    355    356 341.5  -3.2  34018  287.17 0863.45
2015 04 09 12 17 06 .93    -203    326    -63    385    391 328.1  -9.3  34020  287.20 0863.45
2015 04 09 12 17 07 .19    -195    268    -56    332    337 323.9  -9.6  33972  286.39 0863.45
2015 04 09 12 17 07 .44    -177    305    -58    353    358 329.9  -9.3  33964  286.27 0863.45
2015 04 09 12 17 07 .69    -115    348    -52    367    371 341.6  -8.1  33978  286.49 0863.45
2015 04 09 12 17 07 .93    -145    366    -17    394    395 338.3  -2.6  33972  286.41 0863.45
2015 04 09 12 17 08 .19    -174    364    -61    404    409 334.4  -8.6  33898  285.16 0863.45
2015 04 09 12 17 08 .44    -165    377    -34    412    414 336.4  -4.8  33870  284.68 0863.45
2015 04 09 12 17 08 .69    -157    373    -36    405    407 337.2  -5.1  33870  284.68 0863.45
2015 04 09 12 17 08 .94    -147    365    -40    394    397 338.1  -5.9  33880  284.84 0863.45
2015 04 09 12 17 09 .19    -148    337    -35    369    371 336.3  -5.5  33890  285.01 0863.45
2015 04 09 12 17 09 .44    -158    333    -47    369    373 334.5  -7.4  33876  284.78 0863.45
2015 04 09 12 17 09 .69    -120    319    -25    342    343 339.3  -4.2  33874  284.74 0863.45
2015 04 09 12 17 09 .95    -115    316    -18    337    338 340.0  -3.1  33872  284.72 0863.45
2015 04 09 12 17 10 .20    -127    348    -14    371    372 340.0  -2.2  33892  285.04 0863.45
2015 04 09 12 17 10 .46    -132    362    -46    386    389 340.0  -6.8  33880  284.83 0863.45
2015 04 09 12 17 10 .70    -137    344    -20    371    372 338.3  -3.1  33898  285.15 0863.45
2015 04 09 12 17 10 .96    -112    356    -14    374    375 342.5  -2.2  33902  285.20 0863.45
2015 04 09 12 17 11 .20    -129    306    -16    333    334 337.2  -2.8  33900  285.18 0863.45
2015 04 09 12 17 11 .46    -122    337    -33    359    361 340.0  -5.4  33898  285.15 0863.45
2015 04 09 12 17 11 .71    -114    343      5    362    363 341.6   0.8  33914  285.41 0863.45
2015 04 09 12 17 11 .96    -142    349    -20    377    378 337.8  -3.1  33918  285.50 0863.45
2015 04 09 12 17 12 .21    -131    329    -19    355    356 338.2  -3.2  33912  285.38 0863.45
2015 04 09 12 17 12 .46     -98    317    -12    332    333 342.7  -2.2  33930  285.67 0863.45
2015 04 09 12 17 12 .71     -81    284     -6    296    297 344.0  -1.3  33962  286.23 0863.45
2015 04 09 12 17 12 .96     -90    320      9    333    334 344.3   1.7  33930  285.68 0863.45
2015 04 09 12 17 13 .21     -73    238     87    250    265 342.8  19.2  33962  286.21 0863.45
2015 04 09 12 17 13 .46     -90    301    -11    315    316 343.3  -2.1  33980  286.53 0863.45
2015 04 09 12 17 13 .71    -111    252    -10    276    277 336.2  -2.2  33994  286.75 0863.45
2015 04 09 12 17 13 .96    -137    206    -33    248    251 326.4  -7.7  33994  286.75 0863.45
2015 04 09 12 17 14 .21    -118    199     21    232    233 329.3   5.2  34000  286.87 0863.45
2015 04 09 12 17 14 .46    -156    306    -53    344    349 333.0  -8.8  33872  284.71 0863.45
2015 04 09 12 17 14 .71    -159    309    -47    348    352 332.7  -7.7  33864  284.56 0863.45
2015 04 09 12 17 14 .97    -145    284    -47    320    324 332.9  -8.4  33872  284.71 0863.45
2015 04 09 12 17 15 .21    -134    295    -26    325    327 335.5  -4.6  33874  284.75 0863.45
2015 04 09 12 17 15 .46    -145    308    -25    341    342 334.7  -4.2  33870  284.69 0863.45
2015 04 09 12 17 15 .71    -171    336    -39    378    381 333.0  -6.0  33870  284.67 0863.46
2015 04 09 12 17 15 .97    -166    347    -49    385    389 334.4  -7.3  33880  284.83 0863.46
2015 04 09 12 17 16 .22    -165    346    -42    384    387 334.5  -6.3  33890  285.01 0863.46
2015 04 09 12 17 16 .47    -147    319    -28    352    354 335.2  -4.6  33882  284.88 0863.46
2015 04 09 12 17 16 .71    -149    302    -44    337    340 333.7  -7.6  33874  284.74 0863.46
2015 04 09 12 17 16 .98    -139    314    -19    344    345 336.1  -3.2  33864  284.59 0863.46
2015 04 09 12 17 17 .23    -124    330     -7    353    354 339.3  -1.2  33876  284.79 0863.46
2015 04 09 12 17 17 .48    -115    347    -12    366    367 341.5  -1.9  33896  285.13 0863.46
2015 04 09 12 17 17 .73    -112    347      0    365    366 342.1   0.0  33886  284.94 0863.46
2015 04 09 12 17 17 .98    -102    355     18    370    371 344.0   2.8  33896  285.11 0863.46
2015 04 09 12 17 18 .23    -126    413    -16    432    433 343.0  -2.2  33912  285.37 0863.46
2015 04 09 12 17 18 .48    -116    379      1    397    398 343.0   0.2  33914  285.43 0863.46
2015 04 09 12 17 18 .73    -144    349    -48    378    382 337.5  -7.3  33892  285.04 0863.46
2015 04 09 12 17 18 .99     -99    319      5    335    336 342.7   0.9  33910  285.35 0863.46
2015 04 09 12 17 19 .23    -144    355    -34    384    386 337.9  -5.1  33894  285.09 0863.46
2015 04 09 12 17 19 .49    -115    299    -24    321    322 338.8  -4.4  33924  285.59 0863.46
2015 04 09 12 17 19 .74    -114    297    -29    319    321 339.0  -5.4  33930  285.67 0863.46
2015 04 09 12 17 19 .99    -200    314    -78    373    382 327.4 -11.9  33874  284.76 0863.46
2015 04 09 12 17 20 .24    -186    323    -78    373    382 330.0 -11.9  33880  284.86 0863.47
2015 04 09 12 17 20 .48    -175    321    -73    366    374 331.3 -11.3  33896  285.11 0863.47
2015 04 09 12 17 20 .74    -160    295    -64    336    343 331.5 -10.9  33892  285.04 0863.47
2015 04 09 12 17 20 .99    -189    261    -72    323    332 324.0 -12.6  33896  285.10 0863.47
2015 04 09 12 17 21 .24    -183    269    -74    326    335 325.8 -12.9  33882  284.88 0863.47
2015 04 09 12 17 21 .49    -165    260    -67    309    317 327.5 -12.4  33878  284.82 0863.47
2015 04 09 12 17 21 .74    -130    273    -38    303    306 334.4  -7.3  33878  284.82 0863.47
2015 04 09 12 17 21 .99    -115    256    -36    281    284 335.7  -7.3  33878  284.82 0863.47
2015 04 09 12 17 22 .24    -112    244    -26    269    271 335.3  -5.6  33882  284.87 0863.47
2015 04 09 12 17 22 .49    -129    218    -59    254    261 329.3 -13.2  33898  285.15 0863.47
2015 04 09 12 17 22 .74    -112    213    -40    241    245 332.1  -9.6  33900  285.17 0863.47
2015 04 09 12 17 22 .99     -86    234    -22    250    252 339.7  -5.1  33898  285.15 0863.47
2015 04 09 12 17 23 .24     -80    238     -9    252    253 341.3  -2.2  33908  285.32 0863.47
2015 04 09 12 17 23 .50     -87    288    -14    302    303 343.1  -2.8  33912  285.37 0863.47
2015 04 09 12 17 23 .75    -104    269    -30    289    291 338.8  -6.0  33916  285.44 0863.47
2015 04 09 12 17 24 .01     -82    254    -46    267    272 342.1  -9.8  33932  285.71 0863.47
2015 04 09 12 17 24 .25     -82    263    -30    276    278 342.6  -6.2  33926  285.61 0863.47
2015 04 09 12 17 24 .51     -74    258    -22    269    271 343.9  -4.9  33914  285.42 0863.47
2015 04 09 12 17 24 .76     -80    297      4    308    309 344.9   0.8  33948  285.98 0863.47
2015 04 09 12 17 25 .00     -87    304     -1    317    318 344.0  -0.3  33980  286.53 0863.47
2015 04 09 12 17 25 .26     -21    306      9    307    308 356.0   1.8  33940  285.84 0863.47
2015 04 09 12 17 25 .51     -14    286      3    287    288 357.1   0.7  33940  285.86 0863.46
2015 04 09 12 17 25 .76      -5    298     18    299    300 359.0   3.6  33954  286.09 0863.46
2015 04 09 12 17 26 .01       7    245     40    246    250   1.8   9.3  33968  286.33 0863.46
2015 04 09 12 17 26 .26      28    367      4    369    370   4.5   0.7  33924  285.57 0863.46
2015 04 09 12 17 26 .52      13    292     29    293    295   2.7   5.7  33946  285.96 0863.46
2015 04 09 12 17 26 .76       4    252     88    253    268   1.0  19.2  33992  286.74 0863.46
2015 04 09 12 17 27 .02      -5    350     71    351    359 359.1  11.5  33948  285.99 0863.46
2015 04 09 12 17 27 .26       5    331     78    332    342   1.0  13.2  33956  286.14 0863.46
2015 04 09 12 17 27 .51       1    332     25    333    334   0.3   4.4  33902  285.20 0863.46
2015 04 09 12 17 27 .76     -20    368    -64    369    375 356.8  -9.9  33904  285.25 0863.46
2015 04 09 12 17 28 .02      -1    341     79    342    352 359.8  13.1  34002  286.91 0863.46
2015 04 09 12 17 28 .27      -9    301     58    302    308 358.2  11.0  34018  287.16 0863.46
2015 04 09 12 17 28 .51     -15    328     29    329    331 357.3   5.2  33926  285.63 0863.46
2015 04 09 12 17 28 .76     -13    374     60    375    380 357.9   9.2  33968  286.31 0863.46
2015 04 09 12 17 29 .02     -65    375    -16    381    382 350.1  -2.5  33878  284.81 0863.46
2015 04 09 12 17 29 .27     -82    367    -18    377    378 347.4  -2.8  33886  284.93 0863.46
2015 04 09 12 17 29 .52     -37    316    -69    319    327 353.3 -12.3  33872  284.70 0863.46
2015 04 09 12 17 29 .77     -44    345    -44    348    351 352.7  -7.3  33880  284.86 0863.46
2015 04 09 12 17 30 .01     -52    367    -62    371    377 351.9  -9.6  33878  284.81 0863.46
2015 04 09 12 17 30 .27     -46    329    -78    333    343 352.0 -13.3  33872  284.72 0863.46
2015 04 09 12 17 30 .52     -65    320    -73    327    336 348.5 -12.6  33870  284.66 0863.46
2015 04 09 12 17 30 .78     -76    312    -65    322    329 346.2 -11.6  33864  284.58 0863.46
2015 04 09 12 17 31 .03     -82    300    -57    312    318 344.6 -10.4  33866  284.60 0863.46
2015 04 09 12 17 31 .28     -82    287    -60    299    306 344.0 -11.5  33868  284.65 0863.46
2015 04 09 12 17 31 .53     -92    289    -96    304    319 342.2 -17.6  33892  285.05 0863.46
2015 04 09 12 17 31 .78     -61    256    -17    264    265 346.4  -3.7  33892  285.05 0863.46
2015 04 09 12 17 32 .04     -27    280    -19    282    283 354.4  -3.9  33908  285.30 0863.46
2015 04 09 12 17 32 .28     -51    329     20    334    335 351.1   3.5  33924  285.57 0863.46
2015 04 09 12 17 32 .53     -48    327     24    331    332 351.5   4.2  33930  285.68 0863.46
2015 04 09 12 17 32 .79      -1    327     27    328    330 359.8   4.9  33930  285.69 0863.46
2015 04 09 12 17 33 .03      -9    317     70    318    326 358.2  12.5  33954  286.09 0863.46
2015 04 09 12 17 33 .29     -24    314     64    316    323 355.5  11.6  33958  286.16 0863.46
2015 04 09 12 17 33 .53     -60    337     28    343    345 349.9   4.7  33952  286.05 0863.46
2015 04 09 12 17 33 .79     -32    339    -24    341    342 354.6  -4.1  33908  285.31 0863.46
2015 04 09 12 17 34 .04     -32    338    -47    340    344 354.6  -7.9  33894  285.08 0863.46
2015 04 09 12 17 34 .29     -30    280    -43    282    286 353.8  -8.8  33896  285.10 0863.46
2015 04 09 12 17 34 .54     -24    235    -56    237    244 354.0 -13.4  33890  285.00 0863.46
2015 04 09 12 17 34 .79     -37    226    -49    230    236 350.7 -12.2  33890  285.02 0863.46
2015 04 09 12 17 35 .04     -33    240    -30    243    245 352.0  -7.2  33890  285.02 0863.46
2015 04 09 12 17 35 .29     -46    227    -21    232    234 348.4  -5.4  33896  285.10 0863.46
2015 04 09 12 17 35 .54     -38    201     10    205    206 349.1   2.8  33912  285.38 0863.46
2015 04 09 12 17 35 .79     -22    205     -1    207    208 353.8  -0.5  33896  285.13 0863.46
2015 04 09 12 17 36 .04     -23    210      3    212    213 353.7   0.8  33900  285.19 0863.46
2015 04 09 12 17 36 .29     -42    229     11    233    234 349.5   2.9  33918  285.47 0863.46
2015 04 09 12 17 36 .54     -35    252     26    255    257 352.0   5.9  33940  285.84 0863.46
2015 04 09 12 17 36 .79     -51    243      2    249    250 348.0   0.5  33898  285.15 0863.46
2015 04 09 12 17 37 .04     -21    251     -4    252    253 355.1  -1.1  33896  285.10 0863.46
2015 04 09 12 17 37 .30     -26    251     21    253    254 354.0   4.9  33886  284.93 0863.46
2015 04 09 12 17 37 .54     -12    272    -10    273    274 357.3  -2.2  33904  285.25 0863.46
2015 04 09 12 17 37 .80       0    214     -2    215    216   0.2  -0.7  33890  285.01 0863.46
2015 04 09 12 17 38 .06     -13    245     -9    246    247 356.9  -2.2  33904  285.25 0863.46
2015 04 09 12 17 38 .31      -9    270      1    271    272 358.0   0.2  33900  285.19 0863.45
2015 04 09 12 17 38 .56       6    236     26    237    239   1.6   6.5  33904  285.25 0863.45
2015 04 09 12 17 38 .81     -12    273     21    274    275 357.3   4.6  33902  285.20 0863.45
2015 04 09 12 17 39 .06     -12    264     -1    265    266 357.4  -0.3  33910  285.34 0863.45
2015 04 09 12 17 39 .31     -17    257    -27    258    260 356.2  -6.0  33912  285.39 0863.45
2015 04 09 12 17 39 .56     -20    252     -3    253    254 355.3  -0.7  33910  285.35 0863.45
2015 04 09 12 17 39 .81     -13    245     13    246    247 356.9   3.1  33918  285.49 0863.45
2015 04 09 12 17 40 .06      -2    221     26    222    224 359.3   6.7  33924  285.58 0863.45
2015 04 09 12 17 40 .31       1    185      9    186    187   0.5   2.8  33922  285.56 0863.45
2015 04 09 12 17 40 .56     -17    225     33    226    229 355.5   8.5  33928  285.66 0863.45
2015 04 09 12 17 40 .82     -25    220     52    222    229 353.5  13.2  33928  285.66 0863.45
2015 04 09 12 17 41 .06     -51    241     48    247    252 348.0  11.0  33936  285.77 0863.45
2015 04 09 12 17 41 .32     -20    261     33    262    265 355.5   7.2  33938  285.81 0863.45
2015 04 09 12 17 41 .56     -26    259     45    261    265 354.2   9.9  33962  286.23 0863.45
2015 04 09 12 17 41 .82     -40    234     27    238    240 350.3   6.7  33966  286.28 0863.45
2015 04 09 12 17 42 .07     -42    217     43    222    227 348.9  11.1  33978  286.51 0863.45
2015 04 09 12 17 42 .32     -35    226     42    229    233 351.1  10.6  33998  286.83 0863.45
2015 04 09 12 17 42 .57     -33    213     38    216    220 351.1  10.1  33982  286.57 0863.45
2015 04 09 12 17 42 .82     -64    213     35    223    226 343.3   9.0  34000  286.86 0863.45
2015 04 09 12 17 43 .07     -71    211      4    223    224 341.3   1.2  33996  286.79 0863.45
2015 04 09 12 17 43 .32     -86    210     -1    228    229 337.7  -0.3  33986  286.64 0863.45
2015 04 09 12 17 43 .57     -57    226     27    234    236 345.7   6.7  34018  287.16 0863.45
2015 04 09 12 17 43 .82     -65    215     55    225    232 343.1  13.9  34056  287.81 0863.45
2015 04 09 12 17 44 .07     -64    237     68    246    256 344.9  15.6  34022  287.24 0863.45
2015 04 09 12 17 44 .32     -55    266      8    272    273 348.2   1.8  33930  285.69 0863.45
2015 04 09 12 17 44 .57     -55    235     18    242    243 346.7   4.4  33940  285.86 0863.45
2015 04 09 12 17 44 .84     -53    222     12    229    230 346.4   3.1  33942  285.90 0863.45
2015 04 09 12 17 45 .09     -48    221     43    227    232 347.7  10.8  34016  287.15 0863.45
2015 04 09 12 17 45 .33     -62    231     42    240    244 344.8  10.1  34042  287.58 0863.45
2015 04 09 12 17 45 .58     -29    183     63    186    197 350.9  18.9  34038  287.52 0863.45
2015 04 09 12 17 45 .83     -52    211     68    218    229 346.0  17.3  34086  288.31 0863.45
2015 04 09 12 17 46 .09     -59    209     44    218    223 344.2  11.6  34046  287.65 0863.45
2015 04 09 12 17 46 .33     -38    208     45    212    217 349.5  12.2  34028  287.33 0863.45
2015 04 09 12 17 46 .59     -46    174     63    181    192 345.1  19.2  34086  288.33 0863.46
2015 04 09 12 17 46 .83     -48    177     71    184    197 344.9  22.3  34112  288.77 0863.46
2015 04 09 12 17 47 .09     -46    222     82    227    241 348.2  20.4  34084  288.27 0863.46
2015 04 09 12 17 47 .34     -64    225     48    235    240 344.0  11.6  34092  288.43 0863.46
2015 04 09 12 17 47 .58     -59    214     83    223    237 344.4  21.3  34060  287.87 0863.46
2015 04 09 12 17 47 .84     -64    246     12    255    256 345.3   2.8  34020  287.21 0863.46
2015 04 09 12 17 48 .09     -48    258     26    263    265 349.3   5.7  34026  287.31 0863.46
2015 04 09 12 17 48 .34     -59    269     43    276    280 347.5   9.0  34058  287.83 0863.46
2015 04 09 12 17 48 .59     -65    216     20    226    227 343.1   5.2  34084  288.28 0863.46
2015 04 09 12 17 48 .84    -117    160    -25    199    201 323.9  -7.3  34080  288.21 0863.46
2015 04 09 12 17 49 .09     -75    186     -7    201    202 338.1  -2.1  33982  286.56 0863.46
2015 04 09 12 17 49 .34     -49    221     49    227    233 347.3  12.2  34062  287.92 0863.46
2015 04 09 12 17 49 .59     -62    232     24    241    243 344.9   5.7  33970  286.35 0863.46
2015 04 09 12 17 49 .85     -48    213     42    219    224 347.1  11.0  33970  286.35 0863.46
2015 04 09 12 17 50 .10     -54    188     46    196    202 344.0  13.2  33992  286.74 0863.47
2015 04 09 12 17 50 .35     -57    169     32    179    182 341.3  10.3  34030  287.38 0863.47
2015 04 09 12 17 50 .60     -93    175    -15    199    200 332.1  -4.4  34054  287.79 0863.47
2015 04 09 12 17 50 .85     -97    204    -29    226    228 334.5  -7.3  33966  286.30 0863.47
2015 04 09 12 17 51 .10     -89    195    -11    215    216 335.5  -3.2  34012  287.06 0863.47
2015 04 09 12 17 51 .35     -85    186     -4    205    206 335.5  -1.2  33994  286.78 0863.47
2015 04 09 12 17 51 .61    -104    182    -27    210    212 330.1  -7.3  33992  286.74 0863.47
2015 04 09 12 17 51 .86    -140    170    -15    221    222 320.6  -4.1  33972  286.41 0863.47
2015 04 09 12 17 52 .11    -123    230    -58    261    268 331.9 -12.6  33902  285.20 0863.47
2015 04 09 12 17 52 .37    -126    208    -45    244    249 328.8 -10.5  33896  285.12 0863.47
2015 04 09 12 17 52 .61    -104    182    -35    210    213 330.1  -9.6  33948  285.98 0863.47
2015 04 09 12 17 52 .86    -176    146    -19    229    230 309.6  -4.9  33966  286.29 0863.47
2015 04 09 12 17 53 .11    -132    179    -36    223    227 323.5  -9.3  33964  286.25 0863.47
2015 04 09 12 17 53 .36    -115    196    -46    228    233 329.5 -11.5  33950  286.03 0863.47
2015 04 09 12 17 53 .62    -118    198    -46    231    236 329.2 -11.3  33966  286.28 0863.47
2015 04 09 12 17 53 .86    -134    139    -16    194    195 316.1  -4.9  33978  286.51 0863.47
2015 04 09 12 17 54 .11    -196    173    -34    262    265 311.4  -7.5  33944  285.91 0863.47
2015 04 09 12 17 54 .37    -205    185    -98    277    295 312.0 -19.6  33968  286.31 0863.47
2015 04 09 12 17 54 .62    -251    170    -79    304    315 304.2 -14.6  33962  286.23 0863.47
2015 04 09 12 17 54 .87    -188    170    -10    254    255 312.2  -2.3  33996  286.79 0863.47
2015 04 09 12 17 55 .11    -124    125     43    177    183 315.2  13.7  33970  286.35 0863.47
2015 04 09 12 17 55 .37    -187    151     -5    241    242 309.1  -1.3  33928  285.66 0863.47
2015 04 09 12 17 55 .62    -151    119    -38    193    197 308.4 -11.3  33914  285.43 0863.47
2015 04 09 12 17 55 .87    -168    119      1    207    208 305.3   0.5  33918  285.48 0863.47
2015 04 09 12 17 56 .12    -130    138    -26    190    192 316.8  -8.0  33976  286.47 0863.47
2015 04 09 12 17 56 .37    -118    134    -22    179    181 318.6  -7.2  33958  286.17 0863.47
2015 04 09 12 17 56 .62    -159    133    -24    208    210 309.8  -6.7  33936  285.80 0863.47
2015 04 09 12 17 56 .87    -144    116    -23    186    188 308.9  -7.2  33918  285.48 0863.47
2015 04 09 12 17 57 .12    -136    100    -27    169    172 306.4  -9.3  33906  285.28 0863.47
2015 04 09 12 17 57 .37    -125     97    -32    159    163 307.8 -11.6  33882  284.89 0863.47
2015 04 09 12 17 57 .62    -144     93    -33    172    176 303.1 -11.1  33876  284.79 0863.47
2015 04 09 12 17 57 .87    -130     98    -45    163    170 307.1 -15.4  33872  284.72 0863.47
2015 04 09 12 17 58 .12    -119    105    -48    159    167 311.4 -16.8  33880  284.86 0863.47
2015 04 09 12 17 58 .37    -101    103    -18    145    147 315.5  -7.3  33878  284.82 0863.47
2015 04 09 12 17 58 .63    -115     83      1    143    144 305.9   0.7  33892  285.04 0863.47
2015 04 09 12 17 58 .88    -120     92    -25    152    155 307.7  -9.3  33884  284.91 0863.47
2015 04 09 12 17 59 .13    -102     79    -46    130    139 307.7 -19.7  33876  284.79 0863.47
2015 04 09 12 17 59 .38    -112     67    -42    131    137 301.1 -23.3  33882  284.87 0863.47
2015 04 09 12 17 59 .64    -115     78    -47    140    148 304.1 -18.7  33886  284.94 0863.47
2015 04 09 12 17 59 .89    -161     75    -11    178    179 295.2  -3.7  33886  284.96 0863.47
2015 04 09 12 18 00 .13    -156     48    -33    164    168 287.1 -11.3  33884  284.91 0863.46
2015 04 09 12 18 00 .39    -137     45    -51    145    153 288.4 -23.8  33876  284.77 0863.46
2015 04 09 12 18 00 .64    -143     47    -45    151    157 288.2 -21.5  33886  284.96 0863.46
2015 04 09 12 18 00 .88    -154     60    -49    166    173 291.5 -21.5  33880  284.84 0863.46
2015 04 09 12 18 01 .14    -131     52    -54    141    150 291.7 -26.4  33870  284.69 0863.46
2015 04 09 12 18 01 .39    -155     21    -43    157    162 277.9 -20.2  33870  284.67 0863.46
2015 04 09 12 18 01 .64    -136     19    -42    138    145 278.0 -17.0  33868  284.65 0863.46
2015 04 09 12 18 01 .89    -143     24    -29    146    149 279.6 -11.5  33868  284.64 0863.46
2015 04 09 12 18 02 .14    -138      9    -33    139    143 273.9 -13.4  33870  284.67 0863.46
2015 04 09 12 18 02 .39    -127      0    -30    128    132 270.0 -13.4  33868  284.64 0863.46
2015 04 09 12 18 02 .64    -140      0    -23    141    143 269.6  -9.3  33872  284.70 0863.46
2015 04 09 12 18 02 .90    -112      0    -27    113    117 269.6 -13.4  33872  284.70 0863.46
2015 04 09 12 18 03 .14     -66     13      3     68     69 281.5   2.9  33906  285.28 0863.46
2015 04 09 12 18 03 .39     -63      0    -16     64     67 269.2 -14.5  33906  285.29 0863.46
2015 04 09 12 18 03 .64      -2      9     31     10     32 348.4  80.7  33922  285.55 0863.46
2015 04 09 12 18 03 .90     -27      2    -15     28     31 274.3 -33.7  33910  285.36 0863.46
2015 04 09 12 18 04 .15    -113     57     -4    127    128 297.0  -2.2  33884  284.92 0863.46
2015 04 09 12 18 04 .39    -163     48    -28    170    173 286.4  -9.3  33872  284.72 0863.46
2015 04 09 12 18 04 .64    -149     40    -29    155    158 285.1 -10.9  33872  284.72 0863.46
2015 04 09 12 18 04 .90    -144     32    -22    148    150 282.8  -8.8  33872  284.72 0863.46
2015 04 09 12 18 05 .15    -152     24    -18    155    157 279.2  -6.9  33882  284.87 0863.46
2015 04 09 12 18 05 .40    -151     35    -24    156    158 283.3  -8.8  33870  284.67 0863.46
2015 04 09 12 18 05 .66    -145     45    -34    152    156 287.3 -12.6  33870  284.67 0863.46
2015 04 09 12 18 05 .91    -175     45    -21    181    183 284.6  -6.7  33870  284.67 0863.46
2015 04 09 12 18 06 .16    -161     36    -19    166    168 282.8  -6.7  33870  284.67 0863.46
2015 04 09 12 18 06 .41    -163     31    -28    167    170 281.0  -9.8  33872  284.72 0863.46
2015 04 09 12 18 06 .66    -177     58    -26    187    189 288.2  -8.0  33874  284.74 0863.46
2015 04 09 12 18 06 .91    -178     44    -23    184    186 283.9  -7.3  33876  284.77 0863.46
2015 04 09 12 18 07 .16    -136     45     -5    144    145 288.4  -2.2  33888  284.97 0863.46
2015 04 09 12 18 07 .42    -154     46    -16    161    162 286.8  -6.0  33878  284.81 0863.46
2015 04 09 12 18 07 .66    -138     60    -17    151    153 293.5  -6.7  33876  284.79 0863.46
2015 04 09 12 18 07 .92    -130     37     -5    136    137 285.9  -2.2  33884  284.91 0863.46
2015 04 09 12 18 08 .17    -118     48    -16    128    130 292.2  -7.3  33890  285.01 0863.46
2015 04 09 12 18 08 .42    -105     41    -14    113    114 291.3  -7.3  33892  285.06 0863.46
2015 04 09 12 18 08 .67     -65     17      8     68     69 285.1   6.9  33912  285.39 0863.46
2015 04 09 12 18 08 .91     -81     21     -1     84     85 285.1  -1.3  33916  285.44 0863.46
2015 04 09 12 18 09 .17    -162     45    -21    169    171 285.7  -7.2  33872  284.72 0863.46
2015 04 09 12 18 09 .42    -169     76    -23    186    188 294.4  -7.2  33878  284.81 0863.46
2015 04 09 12 18 09 .67    -193     71    -24    206    208 290.4  -6.7  33870  284.69 0863.46
2015 04 09 12 18 09 .92    -170     53    -49    179    186 287.3 -15.4  33878  284.82 0863.46
2015 04 09 12 18 10 .17    -162     47    -36    169    173 286.4 -12.2  33878  284.81 0863.46
2015 04 09 12 18 10 .42    -163     54    -36    172    176 288.4 -11.9  33878  284.81 0863.46
2015 04 09 12 18 10 .67    -167     56    -45    177    183 288.6 -14.5  33884  284.92 0863.46
2015 04 09 12 18 10 .92    -149     46    -45    157    163 287.3 -21.0  33874  284.74 0863.46
2015 04 09 12 18 11 .17    -153     55    -54    163    171 290.0 -23.8  33876  284.79 0863.46
2015 04 09 12 18 11 .42    -159     73    -26    176    179 294.8  -8.6  33890  285.01 0863.46
2015 04 09 12 18 11 .68    -137     71     -7    155    156 297.5  -2.6  33906  285.28 0863.46
2015 04 09 12 18 11 .93    -125     78     -8    148    149 302.0  -3.2  33898  285.14 0863.46
2015 04 09 12 18 12 .18    -139     55    -24    150    153 291.7  -9.3  33898  285.16 0863.46
2015 04 09 12 18 12 .44    -121     31    -20    126    128 284.6  -9.3  33902  285.23 0863.46
2015 04 09 12 18 12 .69    -163     54    -13    172    173 288.6  -4.4  33906  285.28 0863.46
2015 04 09 12 18 12 .94    -183     74    -30    198    201 292.2  -8.6  33888  284.99 0863.46
2015 04 09 12 18 13 .19    -206     64    -23    216    218 287.3  -6.2  33884  284.91 0863.46
2015 04 09 12 18 13 .44    -195     65    -46    206    212 288.6 -12.6  33900  285.19 0863.46
2015 04 09 12 18 13 .69    -203     47    -29    209    212 283.3  -8.0  33914  285.41 0863.46
2015 04 09 12 18 13 .93    -174     48    -17    181    182 285.7  -5.6  33870  284.69 0863.46
2015 04 09 12 18 14 .19    -178     39    -42    183    188 282.6 -13.2  33868  284.64 0863.46
2015 04 09 12 18 14 .44    -176     58    -26    186    188 288.2  -8.0  33884  284.91 0863.46
2015 04 09 12 18 14 .69    -180     67    -24    193    195 290.4  -7.3  33926  285.61 0863.46
2015 04 09 12 18 14 .94    -186     14    -24    187    189 274.6  -7.3  33914  285.41 0863.46
2015 04 09 12 18 15 .19    -162    -16    -19    163    165 264.3  -6.9  33906  285.29 0863.46
2015 04 09 12 18 15 .44    -102      9     -4    103    104 275.2  -2.2  33928  285.66 0863.46
2015 04 09 12 18 15 .69    -110     33     -5    115    116 286.8  -2.6  33934  285.75 0863.46
2015 04 09 12 18 15 .94    -147     40     -8    153    154 285.5  -3.2  33884  284.92 0863.46
2015 04 09 12 18 16 .19    -161     40    -36    167    171 284.2 -12.2  33868  284.64 0863.46
2015 04 09 12 18 16 .45    -158     40    -23    164    166 284.4  -8.2  33892  285.04 0863.46
2015 04 09 12 18 16 .70    -154     72    -11    171    172 295.2  -3.9  33904  285.26 0863.46
2015 04 09 12 18 16 .94    -170     48    -11    177    178 285.9  -3.7  33886  284.96 0863.46
2015 04 09 12 18 17 .20    -159     51    -34    168    172 287.9 -11.6  33878  284.82 0863.46
2015 04 09 12 18 17 .45    -165     40    -34    170    174 283.7 -11.3  33888  284.97 0863.46
2015 04 09 12 18 17 .70    -190     39    -30    195    198 281.7  -9.0  33886  284.94 0863.46
2015 04 09 12 18 17 .95    -201     28    -33    204    207 278.1  -9.4  33888  284.97 0863.46
2015 04 09 12 18 18 .20    -194     29     -8    197    198 278.6  -2.6  33890  285.02 0863.46
2015 04 09 12 18 18 .45    -167     40    -47    172    179 283.5 -15.4  33890  285.01 0863.46
2015 04 09 12 18 18 .70    -201     73    -51    214    220 290.0 -13.4  33888  284.97 0863.46
2015 04 09 12 18 18 .95    -188     44    -54    194    202 283.3 -15.5  33898  285.14 0863.46
2015 04 09 12 18 19 .20    -169     44    -35    175    179 284.6 -11.6  33898  285.16 0863.45
2015 04 09 12 18 19 .46     -87     63    -10    108    109 306.0  -5.6  33920  285.53 0863.45
2015 04 09 12 18 19 .71    -114     42    -10    122    123 290.4  -5.1  33920  285.51 0863.45
2015 04 09 12 18 19 .96    -131     47    -23    140    142 290.0  -9.3  33926  285.61 0863.45
2015 04 09 12 18 20 .21    -157     13    -32    158    162 275.0 -11.6  33884  284.92 0863.45
2015 04 09 12 18 20 .46    -150     24    -41    152    158 279.2 -15.2  33868  284.64 0863.45
2015 04 09 12 18 20 .71    -136     19    -42    138    145 278.0 -17.0  33868  284.65 0863.45
2015 04 09 12 18 20 .96    -125     12    -41    126    133 275.7 -18.1  33868  284.65 0863.46
2015 04 09 12 18 21 .21    -105     21    -34    108    114 281.5 -17.6  33878  284.81 0863.46
2015 04 09 12 18 21 .47     -64     64     -5     91     92 315.3  -3.1  33922  285.56 0863.46
2015 04 09 12 18 21 .72     -80     16    -26     82     87 281.5 -17.6  33962  286.24 0863.46
2015 04 09 12 18 21 .97     -62    -46     21     78     81 233.1  15.3  33970  286.37 0863.46
2015 04 09 12 18 22 .22     -25     21    -12     33     35 309.6 -23.3  33928  285.66 0863.46
2015 04 09 12 18 22 .47     -83      4    -21     84     87 273.0 -14.5  33916  285.44 0863.46
2015 04 09 12 18 22 .72     -84    -53     -3    100    101 238.0  -2.2  33926  285.63 0863.45
2015 04 09 12 18 22 .97    -162    -35     -9    166    167 257.6  -3.1  33922  285.56 0863.45
2015 04 09 12 18 23 .22    -148      0    -35    149    154 270.4 -13.2  33914  285.43 0863.45
2015 04 09 12 18 23 .47    -141    -10    -45    142    149 265.6 -17.6  33918  285.48 0863.45
2015 04 09 12 18 23 .72    -147     -3     -8    148    149 268.7  -3.2  33920  285.51 0863.45
2015 04 09 12 18 23 .97    -131     -9    -15    132    133 265.7  -6.7  33922  285.56 0863.45
2015 04 09 12 18 24 .22     -60     17     -8     63     64 285.9  -7.2  33930  285.70 0863.45
2015 04 09 12 18 24 .48     -80    -16      4     82     83 258.1   3.3  33932  285.73 0863.45
2015 04 09 12 18 24 .72    -101     -4      5    102    103 267.4   2.8  33924  285.58 0863.45
2015 04 09 12 18 24 .97     -38    -85     42     94    102 204.5  25.7  33920  285.53 0863.45
2015 04 09 12 18 25 .23    -107     12     -8    108    109 276.6  -4.6  33924  285.58 0863.45
2015 04 09 12 18 25 .48    -162     33      2    166    167 281.5   0.8  33920  285.51 0863.45
2015 04 09 12 18 25 .73    -215     49    -57    221    229 283.0 -14.5  33910  285.36 0863.45
2015 04 09 12 18 25 .98    -191     77    -73    206    219 292.0 -19.7  33908  285.33 0863.45
2015 04 09 12 18 26 .23    -188     93    -45    210    215 296.4 -12.2  33910  285.34 0863.45
2015 04 09 12 18 26 .49    -170     89    -61    193    203 297.8 -17.6  33912  285.39 0863.46
2015 04 09 12 18 26 .74    -149     72    -21    166    168 295.8  -7.5  33914  285.43 0863.46
2015 04 09 12 18 26 .99    -111      8      5    112    113 274.4   2.9  33934  285.75 0863.46
2015 04 09 12 18 27 .24    -163     48    -28    170    173 286.4  -9.3  33900  285.19 0863.46
2015 04 09 12 18 27 .49    -192     14    -22    193    195 274.4  -6.7  33918  285.50 0863.46
2015 04 09 12 18 27 .74    -129     48     -9    138    139 290.4  -4.1  33920  285.53 0863.46
2015 04 09 12 18 27 .99     -63    -10     16     64     67 260.3  14.3  33938  285.83 0863.46
2015 04 09 12 18 28 .24     -88     14      1     90     91 279.2   1.2  33938  285.82 0863.46
2015 04 09 12 18 28 .49    -178      3    -51    179    187 271.3 -16.0  33914  285.43 0863.46
2015 04 09 12 18 28 .74    -180     48    -22    187    189 285.1  -6.7  33920  285.53 0863.46
2015 04 09 12 18 28 .99    -156     27    -20    159    161 280.1  -7.3  33918  285.48 0863.46
2015 04 09 12 18 29 .24    -180     67    -24    193    195 290.6  -7.3  33910  285.36 0863.45
2015 04 09 12 18 29 .50    -201     60    -16    210    211 286.8  -4.4  33910  285.36 0863.45
2015 04 09 12 18 29 .74    -186     36    -34    190    194 281.2 -10.3  33906  285.29 0863.45
2015 04 09 12 18 30 .00    -179     57    -16    188    189 287.7  -4.9  33914  285.41 0863.45
2015 04 09 12 18 30 .25    -165     55    -35    175    179 288.6 -11.3  33910  285.34 0863.45
2015 04 09 12 18 30 .50    -184     20    -28    186    189 276.4  -8.6  33912  285.39 0863.45
2015 04 09 12 18 30 .75    -171     34    -42    175    181 281.5 -13.7  33918  285.48 0863.45
2015 04 09 12 18 31 .00    -169     35    -36    173    177 281.9 -11.9  33912  285.38 0863.45
2015 04 09 12 18 31 .25    -175     27    -25    178    180 279.0  -8.2  33912  285.38 0863.45
2015 04 09 12 18 31 .50    -187     23    -17    189    190 277.2  -5.4  33918  285.48 0863.45
2015 04 09 12 18 31 .75    -196     32    -34    199    202 279.5  -9.8  33920  285.51 0863.45
2015 04 09 12 18 32 .00    -197     16    -40    198    203 274.8 -11.6  33912  285.39 0863.45
2015 04 09 12 18 32 .25    -180     15    -34    181    185 274.8 -10.9  33912  285.39 0863.45
2015 04 09 12 18 32 .50    -135     -4    -48    136    145 268.3 -19.6  33912  285.39 0863.45
2015 04 09 12 18 32 .75    -107     20    -22    110    113 281.0 -11.3  33912  285.39 0863.45
2015 04 09 12 18 33 .00     -97    -17    -14     99    101 259.9  -8.2  33912  285.38 0863.45
2015 04 09 12 18 33 .25     -45    -58     19     74     77 217.8  14.7  33926  285.63 0863.45
2015 04 09 12 18 33 .51    -116    -11    -29    117    121 264.3 -13.9  33908  285.33 0863.45
2015 04 09 12 18 33 .77     -86    -62     22    107    110 234.1  11.6  33928  285.65 0863.45
2015 04 09 12 18 34 .02    -108    -44    -23    117    120 247.8 -11.3  33916  285.46 0863.45
2015 04 09 12 18 34 .27     -60     -4    -20     61     65 265.6 -18.7  33928  285.66 0863.45
2015 04 09 12 18 34 .52    -119    -32    -25    124    127 255.0 -11.5  33920  285.53 0863.45
2015 04 09 12 18 34 .77     -52    -82     -5     98     99 212.5  -3.1  33928  285.65 0863.45
2015 04 09 12 18 35 .02     -50    -63     -3     81     82 218.3  -2.2  33946  285.95 0863.45
2015 04 09 12 18 35 .27     -75    -38    -25     85     89 242.9 -17.0  33952  286.07 0863.45
2015 04 09 12 18 35 .52     -71     -6    -24     72     77 264.8 -18.7  33940  285.87 0863.46
2015 04 09 12 18 35 .77     -76    -44    -43     88     97 239.8 -31.7  33928  285.66 0863.46
2015 04 09 12 18 36 .02    -156    -45    -18    163    165 253.8  -6.5  33906  285.29 0863.46
2015 04 09 12 18 36 .27    -210    -82    -45    226    231 248.5 -11.3  33904  285.26 0863.46
2015 04 09 12 18 36 .52    -194    -78    -26    210    212 248.2  -7.2  33900  285.18 0863.46
2015 04 09 12 18 36 .77    -180   -103    -26    208    210 240.2  -7.3  33904  285.24 0863.46
2015 04 09 12 18 37 .02    -154   -101    -14    185    186 236.7  -4.6  33908  285.31 0863.46
2015 04 09 12 18 37 .27    -134   -107     -7    172    173 231.4  -2.6  33892  285.06 0863.46
2015 04 09 12 18 37 .52    -125   -103     12    162    163 230.5   4.4  33894  285.09 0863.46
2015 04 09 12 18 37 .77    -125   -125     33    177    181 225.0  10.6  33888  284.99 0863.46
2015 04 09 12 18 38 .02    -120   -125     45    174    180 223.9  14.5  33896  285.11 0863.46
2015 04 09 12 18 38 .27    -123   -123     27    175    178 224.9   9.0  33894  285.07 0863.46
2015 04 09 12 18 38 .53    -142    -72      3    160    161 242.9   1.2  33894  285.09 0863.46
2015 04 09 12 18 38 .77    -163    -65    -15    176    177 248.3  -4.9  33894  285.09 0863.46
2015 04 09 12 18 39 .03    -165    -50     -6    173    174 252.9  -2.2  33898  285.14 0863.46
2015 04 09 12 18 39 .28    -132    -31     -6    136    137 256.7  -2.6  33912  285.38 0863.46
2015 04 09 12 18 39 .53     -87    -68      5    111    112 231.8   2.8  33918  285.50 0863.46
2015 04 09 12 18 39 .78    -100      0    -12    101    102 270.0  -7.2  33918  285.48 0863.46
2015 04 09 12 18 40 .03    -149    -24    -31    151    155 260.8 -11.6  33906  285.28 0863.46
2015 04 09 12 18 40 .29    -143      4    -19    144    146 271.7  -7.7  33898  285.16 0863.46
2015 04 09 12 18 40 .54    -145    -20    -22    147    149 262.1  -8.8  33900  285.19 0863.46
2015 04 09 12 18 40 .79    -134    -36      4    139    140 254.9   1.8  33916  285.46 0863.46
2015 04 09 12 18 41 .04    -185    -16    -23    186    188 265.0  -7.2  33892  285.06 0863.46
2015 04 09 12 18 41 .29    -176     -9    -19    177    179 267.0  -6.2  33910  285.34 0863.46
2015 04 09 12 18 41 .54     -45    -12     27     47     54 254.1  33.5  33928  285.66 0863.46
2015 04 09 12 18 41 .79     -37    -75     62     84    104 206.7  39.7  33938  285.82 0863.46
2015 04 09 12 18 42 .04     -73   -124     44    145    152 210.7  17.1  33916  285.46 0863.46
2015 04 09 12 18 42 .29     -48    -69     23     85     89 214.7  15.3  33926  285.63 0863.46
2015 04 09 12 18 42 .54    -115    -68    -26    134    137 239.4 -11.3  33912  285.38 0863.46
2015 04 09 12 18 42 .80     -94    -78      6    123    124 230.4   2.8  33906  285.29 0863.46
2015 04 09 12 18 43 .04    -146    -80     -6    167    168 241.2  -2.2  33890  285.02 0863.46
2015 04 09 12 18 43 .30    -174    -85    -12    194    195 244.0  -3.7  33892  285.06 0863.46
2015 04 09 12 18 43 .55    -154    -16    -35    155    160 263.9 -12.9  33912  285.38 0863.46
2015 04 09 12 18 43 .79    -164    -27    -28    167    170 260.5  -9.6  33906  285.28 0863.45
2015 04 09 12 18 44 .05    -160    -81    -23    180    182 243.1  -7.3  33892  285.06 0863.45
2015 04 09 12 18 44 .30    -163    -42    -12    169    170 255.6  -4.1  33892  285.06 0863.45
2015 04 09 12 18 44 .55    -239    -56    -31    246    249 256.7  -7.3  33880  284.83 0863.45
2015 04 09 12 18 44 .80    -208    -70    -42    220    225 251.2 -10.9  33878  284.82 0863.45
2015 04 09 12 18 45 .05    -224    -43    -41    229    233 259.0 -10.3  33884  284.92 0863.45
2015 04 09 12 18 45 .30    -216    -13    -60    217    226 266.5 -15.4  33890  285.01 0863.45
2015 04 09 12 18 45 .55    -243    -45    -54    248    254 259.5 -12.4  33896  285.12 0863.45
2015 04 09 12 18 45 .80    -252    -44    -42    256    260 259.9  -9.4  33896  285.10 0863.45
2015 04 09 12 18 46 .05    -241    -88    -28    257    259 249.8  -6.2  33890  285.00 0863.45
2015 04 09 12 18 46 .30    -248   -117    -35    275    278 244.8  -7.3  33884  284.92 0863.45
2015 04 09 12 18 46 .56    -181    -40    -18    186    187 257.4  -5.6  33898  285.16 0863.45
2015 04 09 12 18 46 .81    -131      6      1    132    133 273.0   0.8  33900  285.18 0863.45
2015 04 09 12 18 47 .06     -78    -82     21    114    116 223.3  10.6  33900  285.19 0863.45
2015 04 09 12 18 47 .32    -264    -25    -28    266    268 264.5  -6.2  33888  284.98 0863.45
2015 04 09 12 18 47 .57    -310    -63    -62    317    324 258.5 -11.1  33876  284.77 0863.45
2015 04 09 12 18 47 .81    -300    -78    -56    310    316 255.4 -10.4  33882  284.87 0863.45
2015 04 09 12 18 48 .07    -271    -73    -52    281    286 254.9 -10.5  33880  284.83 0863.45
2015 04 09 12 18 48 .31    -258    -73    -45    269    273 254.1  -9.6  33882  284.87 0863.45
2015 04 09 12 18 48 .57    -267    -83    -48    280    285 252.7  -9.8  33890  285.00 0863.45
2015 04 09 12 18 48 .82    -253    -52    -57    259    266 258.3 -12.4  33894  285.08 0863.45
2015 04 09 12 18 49 .07    -286   -104    -62    305    312 250.0 -11.6  33878  284.82 0863.45
2015 04 09 12 18 49 .32    -268   -117    -56    293    299 246.4 -10.9  33880  284.85 0863.45
2015 04 09 12 18 49 .57    -249   -137    -37    285    288 241.1  -7.5  33876  284.78 0863.45
2015 04 09 12 18 49 .82    -269   -107    -43    290    294 248.3  -8.6  33880  284.85 0863.45
2015 04 09 12 18 50 .07    -269   -126    -35    298    301 244.8  -6.9  33880  284.85 0863.44
2015 04 09 12 18 50 .32    -257   -137    -42    292    296 242.0  -8.2  33882  284.87 0863.44
2015 04 09 12 18 50 .57    -269   -118    -48    294    299 246.3  -9.4  33892  285.05 0863.44
2015 04 09 12 18 50 .82    -285    -93    -70    300    309 251.8 -13.2  33898  285.15 0863.44
2015 04 09 12 18 51 .07    -277    -99    -77    295    305 250.3 -14.7  33888  284.98 0863.43
2015 04 09 12 18 51 .33    -277    -91    -69    292    301 251.8 -13.4  33912  285.37 0863.43
2015 04 09 12 18 51 .58    -261    -82    -75    274    285 252.5 -15.4  33916  285.45 0863.43
2015 04 09 12 18 51 .83    -225    -75    -30    238    240 251.4  -7.3  33942  285.88 0863.43
2015 04 09 12 18 52 .08    -233   -135    -20    270    271 239.8  -4.4  33918  285.49 0863.43
2015 04 09 12 18 52 .32    -263   -123    -49    291    296 244.8  -9.6  33920  285.52 0863.43
2015 04 09 12 18 52 .57    -287    -99    -38    304    307 250.9  -7.2  33894  285.07 0863.43
2015 04 09 12 18 52 .83    -282   -140    -41    315    318 243.6  -7.6  33884  284.90 0863.43
2015 04 09 12 18 53 .08    -285   -135    -42    316    319 244.6  -7.6  33884  284.92 0863.43
2015 04 09 12 18 53 .33    -277   -115    -36    300    303 247.4  -6.9  33892  285.05 0863.43
2015 04 09 12 18 53 .58    -247   -111    -35    271    274 245.8  -7.5  33944  285.91 0863.43
2015 04 09 12 18 53 .83    -228   -108    -26    253    255 244.5  -6.1  33894  285.07 0863.43
2015 04 09 12 18 54 .08    -216    -72    -17    228    229 251.6  -4.4  33912  285.39 0863.43
2015 04 09 12 18 54 .34    -215   -137     -5    256    257 237.5  -1.2  33898  285.15 0863.43
2015 04 09 12 18 54 .59    -199   -149     -2    249    250 233.1  -0.5  33886  284.95 0863.43
2015 04 09 12 18 54 .84    -198   -102     -4    223    224 242.7  -1.3  33894  285.09 0863.43
2015 04 09 12 18 55 .10    -187   -117     -4    221    222 238.0  -1.3  33906  285.28 0863.43
2015 04 09 12 18 55 .34    -180   -132    -16    224    225 233.6  -4.1  33914  285.41 0863.43
2015 04 09 12 18 55 .60    -190   -146    -25    240    242 232.5  -6.0  33908  285.30 0863.43
2015 04 09 12 18 55 .84    -227   -138    -19    266    267 238.7  -4.1  33912  285.37 0863.43
2015 04 09 12 18 56 .09    -217   -145    -10    262    263 236.3  -2.2  33892  285.05 0863.43
2015 04 09 12 18 56 .35    -203   -135     -2    245    246 236.3  -0.5  33904  285.24 0863.43
2015 04 09 12 18 56 .60    -170   -149     28    227    229 228.9   7.1  33966  286.29 0863.42
2015 04 09 12 18 56 .85    -148   -167     54    224    231 221.4  13.7  33948  286.00 0863.42
2015 04 09 12 18 57 .10    -215   -181     17    282    283 229.8   3.6  33924  285.57 0863.42
2015 04 09 12 18 57 .35    -234   -159    -21    284    285 235.8  -4.4  33878  284.82 0863.42
2015 04 09 12 18 57 .60    -224   -144    -14    267    268 237.1  -3.1  33882  284.88 0863.42
2015 04 09 12 18 57 .85    -251   -159    -27    298    300 237.6  -5.2  33882  284.87 0863.42
2015 04 09 12 18 58 .10    -248   -156    -26    294    296 237.8  -5.1  33884  284.90 0863.42
2015 04 09 12 18 58 .35    -244   -138    -27    281    283 240.5  -5.6  33884  284.92 0863.42
2015 04 09 12 18 58 .60    -222   -166    -10    278    279 233.1  -2.2  33888  284.97 0863.42
2015 04 09 12 18 58 .85    -193   -178     17    263    264 227.3   3.9  33902  285.20 0863.42
2015 04 09 12 18 59 .10    -263   -151    -21    304    305 240.2  -4.1  33878  284.82 0863.42
2015 04 09 12 18 59 .35    -263   -143    -29    300    302 241.4  -5.6  33876  284.78 0863.42
2015 04 09 12 18 59 .60    -293   -118    -29    316    318 248.0  -5.4  33884  284.90 0863.42
2015 04 09 12 18 59 .85    -283   -106    -29    303    305 249.4  -5.6  33882  284.88 0863.42
2015 04 09 12 19 00 .11    -274   -108    -39    295    298 248.5  -7.7  33882  284.87 0863.42
2015 04 09 12 19 00 .35    -248   -117    -15    275    276 244.6  -3.2  33886  284.95 0863.42
2015 04 09 12 19 00 .60    -246   -123    -21    276    277 243.4  -4.4  33888  284.97 0863.42
2015 04 09 12 19 00 .86    -262   -119    -53    288    293 245.6 -10.5  33884  284.92 0863.42
2015 04 09 12 19 01 .12    -243   -124    -39    273    276 242.9  -8.2  33886  284.93 0863.41
2015 04 09 12 19 01 .37    -263   -112    -67    286    294 246.9 -13.3  33890  285.02 0863.41
2015 04 09 12 19 01 .62    -251    -95    -76    269    279 249.2 -20.7  33888  284.97 0863.41
2015 04 09 12 19 01 .87    -262    -86    -84    276    288 251.8 -21.8  33890  285.02 0863.41
2015 04 09 12 19 02 .12    -236    -71    -88    247    263 253.2 -19.7  33884  284.92 0863.41
2015 04 09 12 19 02 .37    -234   -138    -31    272    274 239.4  -6.7  33884  284.92 0863.41
2015 04 09 12 19 02 .62    -203   -139    -32    247    250 235.6  -7.5  33902  285.20 0863.41
2015 04 09 12 19 02 .87    -197   -139    -28    242    244 234.7  -6.7  33894  285.08 0863.41
2015 04 09 12 19 03 .12    -223   -142    -10    265    266 237.6  -2.2  33888  284.97 0863.41
2015 04 09 12 19 03 .37    -242   -138    -12    279    280 240.2  -2.6  33888  284.98 0863.41
2015 04 09 12 19 03 .62    -235   -147    -15    278    279 238.0  -3.2  33888  284.97 0863.41
2015 04 09 12 19 03 .87    -238   -166    -16    291    292 235.1  -3.2  33884  284.92 0863.41
2015 04 09 12 19 04 .12    -215   -189     -5    287    288 228.6  -1.1  33882  284.87 0863.41
2015 04 09 12 19 04 .37    -210   -181    -11    278    279 229.3  -2.3  33882  284.87 0863.41
2015 04 09 12 19 04 .62    -202   -171    -12    265    266 229.8  -2.8  33878  284.82 0863.42
2015 04 09 12 19 04 .87    -196   -174    -18    263    264 228.4  -4.1  33876  284.78 0863.42
2015 04 09 12 19 05 .13    -189   -158    -22    247    249 230.0  -5.2  33876  284.77 0863.42
2015 04 09 12 19 05 .38    -167   -179      3    245    246 223.0   0.7  33874  284.75 0863.42
2015 04 09 12 19 05 .63    -156   -176     43    236    240 221.4  10.3  33874  284.75 0863.42
2015 04 09 12 19 05 .88    -157   -182     33    241    244 220.8   7.8  33878  284.82 0863.42
2015 04 09 12 19 06 .13    -159   -205    -14    260    261 217.8  -3.3  33872  284.71 0863.42
2015 04 09 12 19 06 .38    -215   -113    -74    244    254 242.2 -21.7  33874  284.73 0863.42
2015 04 09 12 19 06 .63    -196   -100    -65    221    230 243.0 -21.7  33876  284.77 0863.42
2015 04 09 12 19 06 .88    -165   -121    -58    205    213 233.6 -20.7  33874  284.74 0863.42
2015 04 09 12 19 07 .13    -158   -128    -64    204    214 230.9 -17.5  33872  284.70 0863.42
2015 04 09 12 19 07 .38    -155   -138    -42    208    213 228.2 -11.5  33872  284.72 0863.42
2015 04 09 12 19 07 .63    -142   -132    -28    195    198 227.1  -8.2  33870  284.69 0863.42
2015 04 09 12 19 07 .88    -137   -145    -37    200    204 223.4 -10.5  33872  284.72 0863.42
2015 04 09 12 19 08 .14    -122   -150    -33    194    197 219.2  -9.8  33874  284.76 0863.42
2015 04 09 12 19 08 .39    -109   -159    -24    193    195 214.5  -7.3  33876  284.77 0863.42
2015 04 09 12 19 08 .64     -90   -148    -22    174    176 211.2  -7.2  33876  284.77 0863.42
2015 04 09 12 19 08 .89     -81   -137    -12    160    161 210.8  -4.4  33876  284.79 0863.42
2015 04 09 12 19 09 .15     -79   -134    -19    156    158 210.8  -7.2  33880  284.84 0863.41
2015 04 09 12 19 09 .40     -70   -134    -19    152    154 207.6  -7.3  33880  284.84 0863.41
2015 04 09 12 19 09 .65     -74   -134    -11    154    155 209.0  -4.1  33882  284.89 0863.41
2015 04 09 12 19 09 .89     -79   -130    -16    153    154 211.2  -6.2  33882  284.87 0863.41
2015 04 09 12 19 10 .14     -74   -137     -8    156    157 208.5  -3.1  33882  284.87 0863.41
2015 04 09 12 19 10 .40     -67   -141    -40    157    163 205.5 -14.3  33874  284.76 0863.41
2015 04 09 12 19 10 .65     -68   -130    -18    147    149 207.6  -7.3  33882  284.87 0863.41
2015 04 09 12 19 10 .90     -79   -130    -16    153    154 211.2  -6.2  33882  284.87 0863.41
2015 04 09 12 19 11 .15     -74   -124    -26    145    148 210.8 -10.3  33882  284.89 0863.42
2015 04 09 12 19 11 .40     -74   -120    -31    142    146 211.6 -12.4  33876  284.79 0863.42
2015 04 09 12 19 11 .65     -68   -121    -28    140    143 209.4 -11.3  33880  284.84 0863.42
2015 04 09 12 19 11 .90     -62   -121    -13    137    138 207.2  -5.6  33882  284.87 0863.42
2015 04 09 12 19 12 .15     -75   -126    -29    147    150 210.8 -11.3  33880  284.84 0863.42
2015 04 09 12 19 12 .40     -72   -130     -8    149    150 209.0  -3.2  33884  284.92 0863.42
2015 04 09 12 19 12 .65     -73   -140     -6    159    160 207.6  -2.2  33878  284.82 0863.42
2015 04 09 12 19 12 .90     -68   -145    -21    161    163 205.3  -7.5  33882  284.87 0863.42
2015 04 09 12 19 13 .15     -76   -141    -12    161    162 208.5  -4.4  33880  284.84 0863.42
2015 04 09 12 19 13 .40     -73   -144    -10    162    163 207.1  -3.7  33882  284.87 0863.42
2015 04 09 12 19 13 .65     -65   -149     -4    163    164 203.7  -1.6  33882  284.89 0863.42
2015 04 09 12 19 13 .90     -65   -149     -4    163    164 203.7  -1.6  33882  284.89 0863.43
2015 04 09 12 19 14 .15     -73   -153    -11    170    171 205.6  -3.7  33882  284.87 0863.43
2015 04 09 12 19 14 .41     -58   -172     -7    182    183 198.7  -2.2  33878  284.82 0863.43
2015 04 09 12 19 14 .66     -69   -173     -3    187    188 201.9  -1.1  33878  284.82 0863.43
2015 04 09 12 19 14 .90     -65   -196      9    207    208 198.5   2.5  33874  284.74 0863.43
2015 04 09 12 19 15 .17     -70   -194     18    207    208 199.8   5.0  33874  284.74 0863.43
2015 04 09 12 19 15 .42     -83   -194     33    212    215 203.2   9.0  33874  284.74 0863.43
2015 04 09 12 19 15 .67     -67   -212    -12    223    224 197.6  -3.2  33878  284.82 0863.43
2015 04 09 12 19 15 .92     -96   -202    -28    224    226 205.4  -7.3  33886  284.94 0863.43
2015 04 09 12 19 16 .17     -84   -238     -5    253    254 199.6  -1.3  33886  284.93 0863.43
2015 04 09 12 19 16 .42     -83   -247     12    261    262 198.7   2.8  33882  284.87 0863.43
2015 04 09 12 19 16 .67    -103   -235    -10    257    258 203.8  -2.2  33890  285.00 0863.43
2015 04 09 12 19 16 .92    -104   -238    -32    260    263 203.6  -7.2  33888  284.97 0863.43
2015 04 09 12 19 17 .17    -100   -185    -69    211    221 208.5 -23.8  33878  284.82 0863.43
2015 04 09 12 19 17 .42     -96   -163    -72    190    203 210.7 -25.9  33880  284.86 0863.42
2015 04 09 12 19 17 .67     -65   -173    -19    186    188 200.7  -6.0  33886  284.96 0863.42
2015 04 09 12 19 17 .92     -68   -177     -7    190    191 201.2  -2.2  33884  284.92 0863.42
2015 04 09 12 19 18 .17     -92   -170    -46    194    200 208.5 -13.4  33884  284.92 0863.42
2015 04 09 12 19 18 .42     -97   -142    -54    173    182 214.3 -17.6  33882  284.89 0863.42
2015 04 09 12 19 18 .67     -91   -138    -48    166    172 213.4 -21.2  33882  284.87 0863.42
2015 04 09 12 19 18 .93    -101   -167    -64    196    207 211.2 -18.1  33882  284.87 0863.42
2015 04 09 12 19 19 .18    -107   -180    -66    210    221 210.7 -17.6  33884  284.92 0863.42
2015 04 09 12 19 19 .43    -103   -171    -67    200    212 211.2 -18.7  33880  284.86 0863.42
2015 04 09 12 19 19 .68     -74   -172    -57    188    197 203.2 -17.0  33888  284.97 0863.42
2015 04 09 12 19 19 .93     -63   -170    -61    182    191 200.3 -23.6  33882  284.87 0863.42
2015 04 09 12 19 20 .18     -66   -183    -51    195    202 200.0 -14.7  33884  284.91 0863.42
2015 04 09 12 19 20 .43     -68   -195    -45    207    212 199.4 -12.4  33880  284.86 0863.42
2015 04 09 12 19 20 .68     -73   -210    -28    223    225 199.2  -7.2  33882  284.87 0863.42
2015 04 09 12 19 20 .93     -67   -229    -13    239    240 196.3  -3.1  33880  284.83 0863.42
2015 04 09 12 19 21 .18     -69   -208      6    220    221 198.5   1.8  33878  284.82 0863.42
2015 04 09 12 19 21 .43     -75   -182    -38    198    202 202.5 -10.9  33888  284.97 0863.42
2015 04 09 12 19 21 .68     -69   -209    -24    221    223 198.5  -6.2  33884  284.92 0863.42
2015 04 09 12 19 21 .93     -90   -207    -38    227    231 203.6  -9.6  33888  284.99 0863.42
2015 04 09 12 19 22 .19     -92   -212    -59    232    240 203.6 -14.3  33890  285.02 0863.42
2015 04 09 12 19 22 .44     -70   -223    -56    234    241 197.6 -13.7  33884  284.92 0863.42
2015 04 09 12 19 22 .70     -83   -187    -28    205    208 204.1  -8.0  33886  284.96 0863.42
2015 04 09 12 19 22 .95     -94   -188    -33    211    214 206.5  -9.0  33892  285.04 0863.42
2015 04 09 12 19 23 .20     -90   -206    -22    226    228 203.7  -5.6  33888  284.97 0863.42
2015 04 09 12 19 23 .45     -84   -208    -31    225    228 202.1  -8.0  33884  284.92 0863.42
2015 04 09 12 19 23 .70     -96   -203    -45    225    230 205.4 -11.5  33888  284.99 0863.42
2015 04 09 12 19 23 .95     -81   -204    -38    220    224 201.8  -9.8  33892  285.04 0863.42
2015 04 09 12 19 24 .20    -137   -190    -59    235    243 215.8 -14.3  33880  284.83 0863.42
2015 04 09 12 19 24 .45    -128   -183    -58    224    232 215.0 -14.5  33880  284.86 0863.42
2015 04 09 12 19 24 .70    -131   -182    -70    225    236 215.6 -17.3  33878  284.82 0863.42
2015 04 09 12 19 24 .95    -131   -182    -70    225    236 215.6 -17.3  33878  284.82 0863.42
2015 04 09 12 19 25 .20    -136   -191    -76    235    248 215.6 -18.1  33880  284.85 0863.42
2015 04 09 12 19 25 .46    -106   -179    -17    209    210 210.7  -4.9  33900  285.19 0863.41
2015 04 09 12 19 25 .70     -85   -167    -24    188    190 207.2  -7.3  33904  285.26 0863.41
2015 04 09 12 19 25 .95     -80   -174    -20    192    194 204.9  -6.0  33912  285.38 0863.41
2015 04 09 12 19 26 .21    -106   -209     -4    235    236 207.0  -1.2  33942  285.89 0863.41
2015 04 09 12 19 26 .45    -115   -208      7    238    239 209.0   1.8  33950  286.01 0863.41
2015 04 09 12 19 26 .71    -103   -171      8    200    201 211.0   2.5  33912  285.39 0863.41
2015 04 09 12 19 26 .96     -98   -181      4    206    207 208.5   1.2  33940  285.85 0863.41
2015 04 09 12 19 27 .20    -112   -165     24    200    202 214.1   7.1  33932  285.73 0863.41
2015 04 09 12 19 27 .46     -88   -163     23    186    188 208.5   7.1  33956  286.14 0863.42
2015 04 09 12 19 27 .71     -54   -161     28    170    173 198.7   9.3  33974  286.42 0863.42
2015 04 09 12 19 27 .95     -73   -168      9    184    185 203.4   2.9  33992  286.74 0863.42
2015 04 09 12 19 28 .21     -92   -199     34    220    223 204.9   8.9  33952  286.05 0863.42
2015 04 09 12 19 28 .46     -94   -182     75    205    218 207.4  21.0  33922  285.56 0863.42
2015 04 09 12 19 28 .71     -85   -143     71    167    181 210.7  24.3  33920  285.51 0863.42
2015 04 09 12 19 28 .97     -51   -151     -6    160    161 198.7  -2.3  33930  285.70 0863.42
2015 04 09 12 19 29 .22     -83   -146    -60    169    180 209.6 -19.7  33890  285.01 0863.42
2015 04 09 12 19 29 .47     -77   -139    -38    159    164 209.0 -13.7  33886  284.96 0863.42
2015 04 09 12 19 29 .72     -97   -138    -37    169    174 215.2 -12.4  33882  284.87 0863.42
2015 04 09 12 19 29 .97     -92   -137    -30    166    169 213.8 -10.3  33882  284.87 0863.42
2015 04 09 12 19 30 .22     -88   -154    -43    178    184 209.6 -13.7  33878  284.82 0863.42
2015 04 09 12 19 30 .47     -79   -160    -35    179    183 206.5 -11.1  33884  284.91 0863.42
2015 04 09 12 19 30 .72     -86   -150    -39    174    179 209.9 -12.6  33884  284.91 0863.42
2015 04 09 12 19 30 .97    -108   -170    -28    202    205 212.6  -8.0  33884  284.91 0863.42
2015 04 09 12 19 31 .22     -90   -191    -23    212    214 205.3  -6.2  33888  284.97 0863.42
2015 04 09 12 19 31 .48     -85   -179    -15    199    200 205.3  -4.4  33888  284.97 0863.42
2015 04 09 12 19 31 .72     -81   -169     -1    188    189 205.6  -0.5  33890  285.01 0863.42
2015 04 09 12 19 31 .98     -62   -175     26    186    188 199.6   8.2  33882  284.87 0863.42
2015 04 09 12 19 32 .22     -60   -178     38    188    192 198.7  11.6  33884  284.92 0863.42
2015 04 09 12 19 32 .48     -61   -174     19    185    187 199.4   6.1  33886  284.96 0863.42
2015 04 09 12 19 32 .73     -90   -177      3    199    200 207.2   1.0  33886  284.96 0863.42
2015 04 09 12 19 32 .98     -86   -192     10    211    212 204.1   2.8  33880  284.84 0863.42
2015 04 09 12 19 33 .23     -65   -163    -48    176    183 201.8 -15.4  33878  284.82 0863.42
2015 04 09 12 19 33 .48     -73   -180    -52    195    202 202.1 -15.0  33884  284.91 0863.42
2015 04 09 12 19 33 .73     -75   -182    -29    197    200 202.5  -8.6  33882  284.89 0863.42
2015 04 09 12 19 33 .98     -77   -188    -25    204    206 202.3  -7.2  33880  284.84 0863.42
2015 04 09 12 19 34 .23     -93   -204    -48    225    231 204.5 -12.2  33882  284.87 0863.42
2015 04 09 12 19 34 .48    -107   -204    -32    231    234 207.6  -8.0  33882  284.88 0863.41
2015 04 09 12 19 34 .73     -95   -217     27    238    240 203.7   6.7  33878  284.82 0863.41
2015 04 09 12 19 34 .99     -93   -222     15    241    242 202.7   3.6  33880  284.85 0863.41
2015 04 09 12 19 35 .23     -92   -208     17    228    229 203.8   4.4  33876  284.79 0863.41
2015 04 09 12 19 35 .48     -77   -233    -11    246    247 198.5  -2.6  33878  284.82 0863.41
2015 04 09 12 19 35 .74    -100   -238    -34    259    262 202.7  -7.5  33880  284.83 0863.41
2015 04 09 12 19 36 .00    -114   -241    -49    267    272 205.3 -10.5  33886  284.95 0863.41
2015 04 09 12 19 36 .25    -113   -237    -45    263    267 205.5  -9.8  33884  284.90 0863.41
2015 04 09 12 19 36 .50     -94   -231    -22    250    252 202.3  -5.1  33884  284.92 0863.41
2015 04 09 12 19 36 .75    -120   -253     28    281    283 205.5   5.7  33918  285.47 0863.41
2015 04 09 12 19 37 .00    -131   -268     68    299    307 206.1  12.9  33926  285.62 0863.41
2015 04 09 12 19 37 .25     -97   -302     39    318    321 197.8   7.1  33898  285.14 0863.41
2015 04 09 12 19 37 .50    -100   -278     26    296    298 200.0   5.2  33882  284.88 0863.41
2015 04 09 12 19 37 .75    -128   -281     27    309    311 204.5   5.1  33876  284.78 0863.41
2015 04 09 12 19 38 .00    -110   -288     12    309    310 200.9   2.3  33878  284.82 0863.41
2015 04 09 12 19 38 .25    -120   -291     25    316    318 202.5   4.6  33878  284.80 0863.41
2015 04 09 12 19 38 .50    -131   -299     46    327    331 203.7   8.0  33878  284.81 0863.41
2015 04 09 12 19 38 .75    -134   -305     48    334    338 203.7   8.3  33876  284.79 0863.41
2015 04 09 12 19 39 .00    -183   -264    -51    322    327 214.7  -9.1  33890  285.00 0863.41
2015 04 09 12 19 39 .25    -200   -227    -54    303    308 221.4 -10.3  33888  284.97 0863.41
2015 04 09 12 19 39 .50    -152   -202    -72    253    263 217.0 -20.7  33888  284.97 0863.41
2015 04 09 12 19 39 .75    -141   -229    -96    269    286 211.6 -19.7  33888  284.97 0863.41
2015 04 09 12 19 40 .01    -150   -236    -89    281    295 212.5 -17.6  33888  284.97 0863.41
2015 04 09 12 19 40 .25    -130   -254    -61    286    293 207.2 -12.2  33888  284.98 0863.41
2015 04 09 12 19 40 .51    -127   -239    -41    271    275 208.1  -8.6  33890  285.02 0863.41
2015 04 09 12 19 40 .76    -154   -253    -58    297    303 211.4 -11.1  33892  285.05 0863.41
2015 04 09 12 19 41 .01    -131   -230    -69    265    274 209.8 -14.7  33888  284.97 0863.40
2015 04 09 12 19 41 .26    -156   -199    -49    254    259 218.1 -11.1  33886  284.93 0863.40
2015 04 09 12 19 41 .51    -151   -201    -31    252    255 217.0  -7.2  33888  284.97 0863.40
2015 04 09 12 19 41 .76    -127   -199    -40    237    241 212.5  -9.8  33890  285.02 0863.40
2015 04 09 12 19 42 .01    -124   -188    -54    226    233 213.4 -13.4  33888  284.97 0863.40
2015 04 09 12 19 42 .26    -204   -174    -44    269    273 229.6  -9.3  33886  284.95 0863.40
2015 04 09 12 19 42 .51    -195   -208    -47    286    290 223.2  -9.3  33888  284.97 0863.40
2015 04 09 12 19 42 .76    -200   -213    -48    293    297 223.3  -9.4  33884  284.92 0863.40
2015 04 09 12 19 43 .02    -200   -198    -39    282    285 225.3  -8.0  33886  284.95 0863.40
2015 04 09 12 19 43 .27    -234   -188    -26    301    303 231.1  -5.1  33884  284.92 0863.40
2015 04 09 12 19 43 .52    -264   -209    -24    338    339 231.6  -4.1  33882  284.88 0863.40
2015 04 09 12 19 43 .78    -256   -204    -15    328    329 231.4  -2.7  33884  284.90 0863.40
2015 04 09 12 19 44 .02    -258   -142    -32    295    297 241.1  -6.2  33888  284.97 0863.40
2015 04 09 12 19 44 .27    -243   -114    -73    269    279 244.8 -15.2  33890  285.02 0863.40
2015 04 09 12 19 44 .53    -238   -156    -37    285    288 236.7  -7.5  33886  284.93 0863.40
2015 04 09 12 19 44 .78    -245   -148    -26    287    289 238.9  -5.4  33884  284.92 0863.40
2015 04 09 12 19 45 .03    -240    -92    -37    258    261 249.1  -8.2  33886  284.95 0863.40
2015 04 09 12 19 45 .28    -241    -18    -76    242    253 265.7 -22.8  33888  284.97 0863.40
2015 04 09 12 19 45 .53    -243     -4    -79    244    256 269.0 -23.0  33886  284.93 0863.40
2015 04 09 12 19 45 .78    -252      7    -81    253    265 271.7 -23.0  33882  284.87 0863.40
2015 04 09 12 19 46 .03    -248      7    -82    249    262 271.7 -23.8  33882  284.88 0863.40
2015 04 09 12 19 46 .28    -241    -26    -96    243    261 263.8 -27.2  33880  284.83 0863.40
2015 04 09 12 19 46 .53    -253    -43    -83    257    270 260.3 -23.3  33882  284.88 0863.40
2015 04 09 12 19 46 .78    -268      3    -89    269    283 270.8 -23.8  33884  284.92 0863.40
2015 04 09 12 19 47 .03    -230    -24    -76    232    245 263.9 -18.3  33884  284.90 0863.40
2015 04 09 12 19 47 .28    -210    -22    -58    212    220 263.8 -15.4  33884  284.91 0863.40
2015 04 09 12 19 47 .53    -165     17    -52    166    175 275.9 -17.6  33884  284.92 0863.40
2015 04 09 12 19 47 .78    -196     -2    -56    197    206 269.4 -16.0  33884  284.91 0863.40
2015 04 09 12 19 48 .03    -216     -1    -49    217    223 269.6 -12.9  33884  284.91 0863.40
2015 04 09 12 19 48 .28    -170     15    -59    171    181 275.2 -19.1  33886  284.94 0863.40
2015 04 09 12 19 48 .54    -211      0    -42    212    217 270.1 -11.3  33884  284.92 0863.40
2015 04 09 12 19 48 .79    -179    -64    -13    191    192 250.3  -4.1  33886  284.96 0863.40
2015 04 09 12 19 49 .03    -165    -79    -21    184    186 244.2  -6.7  33884  284.92 0863.40
2015 04 09 12 19 49 .29    -145    -52    -12    155    156 250.1  -4.6  33890  285.01 0863.40
2015 04 09 12 19 49 .54    -190    -63    -18    201    202 251.6  -5.2  33884  284.91 0863.40
2015 04 09 12 19 49 .80    -207    -56    -33    215    218 254.7  -8.8  33884  284.91 0863.40
2015 04 09 12 19 50 .05    -202    -44    -45    207    212 257.6 -12.4  33882  284.87 0863.40
2015 04 09 12 19 50 .30    -204    -21    -29    206    209 263.9  -8.2  33884  284.92 0863.40
2015 04 09 12 19 50 .55    -200      1    -25    201    203 270.4  -7.3  33884  284.92 0863.40
2015 04 09 12 19 50 .80    -197    -24    -51    199    206 262.8 -14.5  33882  284.87 0863.41
2015 04 09 12 19 51 .05    -186    -44    -24    192    194 256.5  -7.3  33894  285.07 0863.41
2015 04 09 12 19 51 .30    -186     13    -15    187    188 274.1  -4.6  33890  285.02 0863.41
2015 04 09 12 19 51 .55    -203     -9    -41    204    209 267.4 -11.3  33888  284.99 0863.41
2015 04 09 12 19 51 .80    -159    -69    -43    174    180 246.5 -13.9  33902  285.23 0863.41
2015 04 09 12 19 52 .06    -151    -49    -38    159    164 251.8 -13.7  33912  285.38 0863.41
2015 04 09 12 19 52 .31    -100     -7     -2    101    102 265.6  -1.2  33930  285.68 0863.41
2015 04 09 12 19 52 .55    -147    -18      1    149    150 263.0   0.7  33916  285.44 0863.41
2015 04 09 12 19 52 .81    -206    -32    -54    209    216 261.0 -14.5  33886  284.96 0863.41
2015 04 09 12 19 53 .06    -146    -28    -44    149    156 259.0 -16.4  33910  285.34 0863.41
2015 04 09 12 19 53 .31     -69     -4    -21     70     73 266.5 -21.7  33922  285.55 0863.41
2015 04 09 12 19 53 .56     -87     -5    -10     88     89 266.5  -6.7  33906  285.28 0863.41
2015 04 09 12 19 53 .81    -102     23     30    105    110 282.8  16.3  33920  285.53 0863.41
2015 04 09 12 19 54 .06    -201     16    -25    202    204 274.6  -7.2  33904  285.24 0863.41
2015 04 09 12 19 54 .31     -60    -24     49     65     81 248.3  41.2  33944  285.93 0863.41
2015 04 09 12 19 54 .56    -113     49     10    124    125 293.5   4.9  33914  285.41 0863.41
2015 04 09 12 19 54 .81    -149      9    -19    150    152 273.5  -7.3  33914  285.43 0863.41
2015 04 09 12 19 55 .06    -141      8    -18    142    144 273.5  -7.3  33918  285.50 0863.41
2015 04 09 12 19 55 .31    -176    -29     -9    179    180 260.5  -3.1  33916  285.44 0863.41
2015 04 09 12 19 55 .56    -197    -48    -39    203    207 256.1 -10.9  33902  285.23 0863.41
2015 04 09 12 19 55 .81    -148    -20     -8    150    151 262.1  -3.2  33904  285.24 0863.41
2015 04 09 12 19 56 .06    -176    -35    -50    180    187 258.6 -15.5  33898  285.14 0863.41
2015 04 09 12 19 56 .31    -154      5    -35    155    160 272.1 -12.9  33898  285.16 0863.41
2015 04 09 12 19 56 .57    -161     17    -15    162    163 276.1  -5.6  33902  285.23 0863.41
2015 04 09 12 19 56 .83    -124     28    -21    128    130 282.8  -9.4  33900  285.19 0863.41
2015 04 09 12 19 57 .08     -96    -25     11    100    101 255.4   6.5  33904  285.24 0863.41
2015 04 09 12 19 57 .32    -199    -40    -52    204    211 258.5 -14.3  33892  285.04 0863.40
2015 04 09 12 19 57 .58    -210    -41    -31    215    218 258.8  -8.2  33888  284.97 0863.40
2015 04 09 12 19 57 .82    -195    -19    -43    196    201 264.3 -12.6  33886  284.96 0863.40
2015 04 09 12 19 58 .08    -155    -61    -29    167    170 248.3 -10.1  33884  284.92 0863.40
2015 04 09 12 19 58 .33    -154    -20    -45    156    163 262.5 -16.0  33898  285.16 0863.40
2015 04 09 12 19 58 .58    -161     27    -39    164    169 279.5 -13.4  33892  285.04 0863.40
2015 04 09 12 19 58 .83    -200     -1    -17    201    202 269.6  -4.9  33884  284.92 0863.40
2015 04 09 12 19 59 .08    -212     22    -59    214    223 276.1 -15.5  33882  284.87 0863.40
2015 04 09 12 19 59 .33    -237      4    -66    238    248 271.0 -15.5  33880  284.83 0863.40
2015 04 09 12 19 59 .58    -221     16    -56    222    230 274.3 -14.3  33882  284.87 0863.40
2015 04 09 12 19 59 .83    -199      8    -45    200    206 272.5 -12.9  33882  284.87 0863.40
2015 04 09 12 20 00 .08    -200    -13    -58    201    210 266.3 -16.0  33880  284.86 0863.41
2015 04 09 12 20 00 .33    -210     19    -58    211    219 275.2 -15.4  33884  284.91 0863.41
2015 04 09 12 20 00 .58    -206     -1    -53    207    214 269.6 -14.5  33884  284.91 0863.41
2015 04 09 12 20 00 .83    -176     18    -60    178    188 276.1 -18.7  33890  285.02 0863.41
2015 04 09 12 20 01 .08    -197     16    -40    198    203 274.8 -11.6  33890  285.02 0863.41
2015 04 09 12 20 01 .33    -152      9    -33    153    157 273.5 -12.4  33886  284.94 0863.41
2015 04 09 12 20 01 .58    -184     44    -31    190    193 283.5  -9.3  33888  284.97 0863.41
2015 04 09 12 20 01 .83    -223     67    -39    233    237 286.8  -9.6  33884  284.92 0863.41
2015 04 09 12 20 02 .09    -209     48    -57    215    223 283.0 -15.0  33884  284.92 0863.41
2015 04 09 12 20 02 .33    -176     35    -58    180    190 281.2 -18.1  33884  284.92 0863.41
2015 04 09 12 20 02 .58    -198     28    -63    201    210 278.1 -22.8  33884  284.91 0863.41
2015 04 09 12 20 02 .84    -154     36    -63    159    171 283.2 -27.2  33882  284.89 0863.41
2015 04 09 12 20 03 .09    -146      9    -42    147    153 273.9 -16.0  33884  284.92 0863.41
2015 04 09 12 20 03 .34    -140     28    -39    143    149 281.4 -15.5  33884  284.92 0863.41
2015 04 09 12 20 03 .59    -151     21    -52    153    161 277.9 -23.6  33884  284.92 0863.40
2015 04 09 12 20 03 .85    -154     31    -48    158    165 281.5 -22.3  33884  284.92 0863.40
2015 04 09 12 20 04 .10    -159     24    -44    161    168 278.6 -15.4  33886  284.94 0863.40
2015 04 09 12 20 04 .35    -173     24    -45    175    181 278.1 -14.5  33884  284.92 0863.40
2015 04 09 12 20 04 .60    -165     33    -51    169    177 281.5 -17.0  33884  284.91 0863.40
2015 04 09 12 20 04 .85    -149     20    -37    151    156 277.9 -13.9  33888  284.99 0863.40
2015 04 09 12 20 05 .10    -144     24    -22    147    149 279.6  -8.8  33894  285.07 0863.40
2015 04 09 12 20 05 .35    -150     21    -10    152    153 278.0  -4.1  33900  285.18 0863.40
2015 04 09 12 20 05 .60    -142     28    -29    145    148 281.4 -11.3  33894  285.07 0863.40
2015 04 09 12 20 05 .85    -154     62    -20    167    169 292.0  -6.9  33892  285.04 0863.40
2015 04 09 12 20 06 .11    -104     80     -1    132    133 307.7  -0.7  33900  285.18 0863.40
2015 04 09 12 20 06 .36     -88     68      5    112    113 307.8   2.9  33896  285.11 0863.40
2015 04 09 12 20 06 .61    -106     84    -17    136    138 308.2  -7.3  33898  285.14 0863.40
2015 04 09 12 20 06 .86     -84     79      2    116    117 313.2   1.2  33902  285.23 0863.40
2015 04 09 12 20 07 .11     -39     94     36    102    109 337.3  19.4  33912  285.38 0863.40
2015 04 09 12 20 07 .36     -72     70     75    101    125 314.4  40.1  33922  285.56 0863.40
2015 04 09 12 20 07 .61    -103     85      1    134    135 309.5   0.7  33894  285.09 0863.40
2015 04 09 12 20 07 .86     -36    103    -31    110    114 340.8 -20.7  33886  284.94 0863.40
2015 04 09 12 20 08 .11     -21     67    -47     71     85 342.2 -40.9  33890  285.02 0863.41
2015 04 09 12 20 08 .36     -46     42    -45     63     77 312.2 -43.9  33886  284.96 0863.41
2015 04 09 12 20 08 .61     -52     46    -39     70     80 311.3 -35.8  33892  285.04 0863.41
2015 04 09 12 20 08 .86     -50     32    -49     60     77 302.5 -48.1  33890  285.01 0863.41
2015 04 09 12 20 09 .11     -56     47    -47     74     87 310.4 -39.9  33890  285.02 0863.41
2015 04 09 12 20 09 .36     -60     63    -24     88     92 316.3 -15.5  33890  285.01 0863.41
2015 04 09 12 20 09 .61     -75     56    -29     94     99 306.9 -17.6  33886  284.96 0863.41
2015 04 09 12 20 09 .86     -70     82    -47    108    117 319.5 -29.5  33884  284.92 0863.41
2015 04 09 12 20 10 .11     -54     76    -32     94     99 324.8 -23.3  33886  284.96 0863.41
2015 04 09 12 20 10 .36     -59     62    -29     86     90 316.3 -23.6  33884  284.92 0863.41
2015 04 09 12 20 10 .61     -94     70    -19    118    120 306.9  -9.4  33886  284.96 0863.41
2015 04 09 12 20 10 .87     -89     59    -13    108    109 303.7  -7.2  33890  285.02 0863.41
2015 04 09 12 20 11 .12     -86     53    -12    102    103 301.5  -7.2  33888  284.97 0863.41
2015 04 09 12 20 11 .38     -97     39    -26    105    109 291.8 -13.9  33886  284.94 0863.41
2015 04 09 12 20 11 .63    -101     34    -34    107    113 288.6 -17.6  33886  284.96 0863.41
2015 04 09 12 20 11 .88    -107     38    -36    114    120 289.5 -17.5  33886  284.96 0863.41
2015 04 09 12 20 12 .12    -118     35    -44    124    132 286.4 -19.7  33882  284.89 0863.41
2015 04 09 12 20 12 .38    -123     50    -38    133    139 292.2 -16.0  33888  284.99 0863.41
2015 04 09 12 20 12 .63    -130     55    -31    142    146 293.1 -12.4  33886  284.96 0863.41
2015 04 09 12 20 12 .88    -115     54    -31    128    132 295.2 -13.9  33890  285.01 0863.41
2015 04 09 12 20 13 .13    -124     50    -37    134    140 292.2 -15.5  33898  285.14 0863.41
2015 04 09 12 20 13 .38    -114     49    -34    125    130 293.5 -15.5  33892  285.06 0863.41
2015 04 09 12 20 13 .63    -105     34    -32    111    116 288.2 -16.0  33888  284.97 0863.41
2015 04 09 12 20 13 .88    -119     16    -28    121    125 277.9 -13.3  33892  285.04 0863.41
2015 04 09 12 20 14 .13    -122     20    -30    124    128 279.6 -13.9  33892  285.06 0863.41
2015 04 09 12 20 14 .38    -118     28    -24    122    125 283.7 -11.5  33892  285.06 0863.41
2015 04 09 12 20 14 .63    -118     39    -34    125    130 288.2 -15.5  33894  285.07 0863.41
2015 04 09 12 20 14 .88     -98     17    -41    100    108 280.1 -27.4  33896  285.11 0863.41
2015 04 09 12 20 15 .13    -102      0    -28    103    107 270.4 -15.5  33886  284.96 0863.41
2015 04 09 12 20 15 .39    -119    -16    -13    121    122 262.1  -6.2  33894  285.07 0863.42
2015 04 09 12 20 15 .64    -118      0     -4    119    120 269.6  -2.2  33892  285.06 0863.42
2015 04 09 12 20 15 .89    -121     -8    -10    122    123 266.1  -5.1  33896  285.11 0863.42
2015 04 09 12 20 16 .13    -110      8    -23    111    114 274.3 -11.9  33890  285.01 0863.42
2015 04 09 12 20 16 .39    -104     21    -23    107    110 281.4 -12.4  33892  285.06 0863.42
2015 04 09 12 20 16 .63     -94     30      5     99    100 288.2   2.9  33924  285.58 0863.42
2015 04 09 12 20 16 .89     -94     13    -11     95     96 277.9  -6.7  33914  285.43 0863.42
2015 04 09 12 20 17 .14    -115     -8    -19    116    118 265.7  -9.4  33904  285.26 0863.42
2015 04 09 12 20 17 .39    -106      0     -2    107    108 270.4  -1.3  33912  285.38 0863.42
2015 04 09 12 20 17 .65    -109      8    -19    110    112 274.4 -10.3  33908  285.33 0863.42
2015 04 09 12 20 17 .90    -118     23     -4    121    122 281.4  -2.2  33912  285.38 0863.42
2015 04 09 12 20 18 .15    -117     21    -12    119    120 280.6  -6.2  33906  285.29 0863.41
2015 04 09 12 20 18 .40    -110     33     -5    115    116 286.8  -2.6  33908  285.31 0863.41
2015 04 09 12 20 18 .65    -123     17    -13    125    126 277.9  -6.2  33904  285.24 0863.41
2015 04 09 12 20 18 .90    -140     19    -28    142    145 278.0 -11.3  33906  285.29 0863.41
2015 04 09 12 20 19 .16    -103    -16    -19    105    107 261.2 -10.3  33920  285.51 0863.41
2015 04 09 12 20 19 .40    -120    -11     -6    121    122 264.3  -3.2  33916  285.44 0863.41
2015 04 09 12 20 19 .66    -125      1    -25    126    129 270.8 -11.3  33898  285.16 0863.41
2015 04 09 12 20 19 .91    -121     12    -37    122    128 276.1 -17.0  33900  285.19 0863.41
2015 04 09 12 20 20 .16    -125      0    -34    126    131 270.0 -15.4  33904  285.26 0863.41
2015 04 09 12 20 20 .41    -113     23    -36    116    122 281.5 -17.6  33904  285.24 0863.41
2015 04 09 12 20 20 .65    -111      1    -25    112    115 270.8 -12.9  33914  285.43 0863.41
2015 04 09 12 20 20 .90     -94     31    -19    100    102 288.6 -10.9  33914  285.43 0863.40
2015 04 09 12 20 21 .16    -101     45    -19    111    113 294.0  -9.8  33920  285.53 0863.40
2015 04 09 12 20 21 .41     -54     49     -2     74     75 312.2  -2.2  33936  285.80 0863.40
2015 04 09 12 20 21 .66     -21     51     -3     56     57 337.3  -3.1  33936  285.80 0863.40
2015 04 09 12 20 21 .91     -27     47     18     55     58 330.1  18.4  33948  285.98 0863.40
2015 04 09 12 20 22 .16     -27     23      3     36     37 311.3   4.9  33946  285.97 0863.40
2015 04 09 12 20 22 .41     -10     21      0     24     25 334.6  -2.2  33950  286.03 0863.40
2015 04 09 12 20 22 .66       0     16      6     17     19 357.3  19.4  33966  286.29 0863.40
2015 04 09 12 20 22 .92      11     -3      4     12     13 108.4  18.9  33972  286.41 0863.40
2015 04 09 12 20 23 .16      -4      9     27     11     29 334.6  79.2  33994  286.78 0863.40
2015 04 09 12 20 23 .41     -51     -7    -14     52     54 261.2 -15.5  33926  285.61 0863.40
2015 04 09 12 20 23 .67     -71    -16    -13     73     75 256.7 -10.3  33912  285.38 0863.40
2015 04 09 12 20 23 .92     -59    -12     13     61     63 258.5  12.2  33938  285.82 0863.40
2015 04 09 12 20 24 .17     -47      2    -13     48     50 273.5 -15.4  33932  285.73 0863.40
2015 04 09 12 20 24 .42     -25    -25     34     36     49 225.1  50.0  33984  286.59 0863.40
2015 04 09 12 20 24 .67     -44    -23     17     50     53 242.0  19.2  33960  286.19 0863.40
2015 04 09 12 20 24 .93     -48     21     -2     53     54 293.5  -2.2  33936  285.80 0863.40
2015 04 09 12 20 25 .18     -57     12    -11     59     61 282.4 -11.3  33938  285.83 0863.40
2015 04 09 12 20 25 .43     -25      0     16     26     30 270.0  35.5  33976  286.46 0863.40
2015 04 09 12 20 25 .67     -24      8    -11     26     28 288.4 -25.4  33980  286.52 0863.40
2015 04 09 12 20 25 .93     -20      0      4     21     22 267.4  11.1  33972  286.39 0863.40
2015 04 09 12 20 26 .18     -42     -9      2     44     45 257.6   2.8  33954  286.10 0863.40
2015 04 09 12 20 26 .43     -23      1     30     24     38 272.6  56.4  33974  286.42 0863.40
2015 04 09 12 20 26 .68      -5    -24     11     25     27 191.6  25.1  33988  286.66 0863.40
2015 04 09 12 20 26 .93       0     -7     14      8     16 175.5  64.7  33978  286.51 0863.40
2015 04 09 12 20 27 .18     -62      8    -12     63     65 277.9 -11.5  33920  285.53 0863.40
2015 04 09 12 20 27 .44     -85     -5    -16     86     88 266.1 -10.9  33938  285.82 0863.40
2015 04 09 12 20 27 .68     -31     10     35     33     48 288.2  50.1  33960  286.20 0863.40
2015 04 09 12 20 27 .93     -29     21     10     37     39 306.0  15.3  33968  286.34 0863.40
2015 04 09 12 20 28 .18      -7     11      0     14     15 327.5  -2.2  33970  286.37 0863.40
2015 04 09 12 20 28 .44     -20     12      0     24     25 302.4  -2.2  33964  286.27 0863.40
2015 04 09 12 20 28 .68      -2     30      1     31     32 355.5   2.9  33968  286.32 0863.40
2015 04 09 12 20 28 .94     -27     17     -1     32     33 302.4  -3.1  33958  286.15 0863.41
2015 04 09 12 20 29 .19     -24     40      8     47     48 329.3  10.1  33956  286.14 0863.41
2015 04 09 12 20 29 .44     -69     79     -5    106    107 319.0  -3.1  33928  285.65 0863.41
2015 04 09 12 20 29 .69     -75     60     -3     97     98 308.6  -2.2  33928  285.65 0863.41
2015 04 09 12 20 29 .94    -112     61    -34    128    133 298.9 -15.0  33944  285.93 0863.41
2015 04 09 12 20 30 .19     -92     68    -33    115    120 306.4 -16.0  33956  286.14 0863.41
2015 04 09 12 20 30 .44     -67     77    -33    103    109 319.0 -18.1  33962  286.24 0863.41
2015 04 09 12 20 30 .69     -73    119    -15    140    141 328.4  -6.2  33974  286.42 0863.41
2015 04 09 12 20 30 .95    -104     80     -1    132    133 307.7  -0.7  33946  285.95 0863.41
2015 04 09 12 20 31 .19     -61     90      4    109    110 325.7   2.3  33952  286.05 0863.41
2015 04 09 12 20 31 .44     -65     82      5    105    106 321.7   2.9  33960  286.19 0863.41
2015 04 09 12 20 31 .70     -86    127    -31    154    158 325.8 -11.5  33984  286.59 0863.41
2015 04 09 12 20 31 .95     -70    140    -36    157    162 333.3 -12.9  33974  286.42 0863.41
2015 04 09 12 20 32 .20     -71    113    -20    134    136 327.9  -8.8  33958  286.15 0863.41
2015 04 09 12 20 32 .45     -89     96    -16    131    133 317.2  -7.3  33950  286.03 0863.41
2015 04 09 12 20 32 .71     -91     89     -7    128    129 314.4  -3.2  33954  286.08 0863.41
2015 04 09 12 20 32 .95     -85     85    -15    121    122 315.0  -7.3  33962  286.22 0863.41
2015 04 09 12 20 33 .21    -104     91    -16    139    140 311.3  -6.7  33944  285.93 0863.41
2015 04 09 12 20 33 .45    -113     78    -17    138    140 304.6  -7.3  33922  285.56 0863.41
2015 04 09 12 20 33 .71    -108     67    -22    128    130 302.0  -9.8  33912  285.39 0863.41
2015 04 09 12 20 33 .96     -74     74      4    105    106 314.9   2.3  33930  285.68 0863.41
2015 04 09 12 20 34 .21     -55     69     -9     89     90 321.7  -6.2  33940  285.85 0863.41
2015 04 09 12 20 34 .46     -60     73    -25     95     99 320.4 -15.0  33940  285.85 0863.41
2015 04 09 12 20 34 .71     -52     82    -12     98     99 327.5  -7.3  33948  286.00 0863.41
2015 04 09 12 20 34 .96     -32     90     -9     96     97 340.0  -5.6  33962  286.22 0863.41
2015 04 09 12 20 35 .21     -33     76     -3     84     85 336.4  -2.2  33992  286.74 0863.41
2015 04 09 12 20 35 .46     -23    106     13    109    110 347.5   7.1  34006  286.96 0863.41
2015 04 09 12 20 35 .71     -33     82     25     89     93 338.2  15.8  34028  287.33 0863.41
2015 04 09 12 20 35 .97     -64     77      0    101    102 320.3   0.2  33982  286.56 0863.41
2015 04 09 12 20 36 .22     -60    126    -13    140    141 334.5  -5.6  33942  285.88 0863.41
2015 04 09 12 20 36 .46     -68    134    -19    151    153 332.9  -7.2  33956  286.14 0863.41
2015 04 09 12 20 36 .72     -78    141     -6    162    163 331.1  -2.2  33946  285.95 0863.41
2015 04 09 12 20 36 .97     -89    131    -34    159    163 325.7 -12.2  33938  285.82 0863.41
2015 04 09 12 20 37 .22     -88    122     -4    151    152 324.0  -1.8  33938  285.82 0863.41
2015 04 09 12 20 37 .47     -68    134     -8    151    152 332.9  -3.2  33934  285.75 0863.41
2015 04 09 12 20 37 .72     -59    148    -32    160    164 338.2 -11.3  33904  285.26 0863.41
2015 04 09 12 20 37 .96     -65    153    -16    167    168 336.8  -5.6  33902  285.21 0863.41
2015 04 09 12 20 38 .22     -46    138    -28    146    149 341.5 -10.9  33898  285.16 0863.41
2015 04 09 12 20 38 .48     -46    130    -27    139    142 340.4 -11.3  33896  285.11 0863.41
2015 04 09 12 20 38 .73     -48    118    -15    128    129 337.7  -6.7  33904  285.24 0863.41
2015 04 09 12 20 38 .98     -65    122    -13    139    140 331.9  -5.6  33902  285.21 0863.41
2015 04 09 12 20 39 .23     -82    136    -26    160    163 328.8  -9.3  33926  285.63 0863.41
2015 04 09 12 20 39 .48     -70    140    -29    157    160 333.3 -10.5  33932  285.71 0863.41
2015 04 09 12 20 39 .73     -69    127    -26    145    148 331.5 -10.3  33926  285.63 0863.41
2015 04 09 12 20 39 .98     -58    117    -22    131    133 333.7  -9.8  33924  285.60 0863.41
2015 04 09 12 20 40 .23     -52    109    -17    121    123 334.5  -8.2  33918  285.50 0863.41
2015 04 09 12 20 40 .48     -43    128      0    136    137 341.3  -0.3  33906  285.29 0863.41
2015 04 09 12 20 40 .73     -30    134     -7    138    139 347.1  -3.2  33900  285.19 0863.40
2015 04 09 12 20 40 .98     -35    129     -4    134    135 344.9  -1.8  33906  285.29 0863.40
2015 04 09 12 20 41 .23     -33    142     -1    146    147 346.6  -0.7  33904  285.24 0863.40
2015 04 09 12 20 41 .49     -48    135    -29    144    147 340.4 -11.5  33900  285.19 0863.40
2015 04 09 12 20 41 .73     -40    114    -13    122    123 340.4  -6.2  33898  285.14 0863.40
2015 04 09 12 20 41 .98     -32    123    -24    128    131 345.3 -10.9  33896  285.11 0863.40
2015 04 09 12 20 42 .24     -36    109     -4    115    116 341.7  -2.2  33896  285.11 0863.40
2015 04 09 12 20 42 .48     -40    113     -4    121    122 340.4  -2.2  33892  285.06 0863.40
2015 04 09 12 20 42 .74     -67    142    -19    158    160 334.7  -6.9  33894  285.09 0863.40
2015 04 09 12 20 42 .99     -54    165      9    174    175 341.7   3.1  33894  285.09 0863.40
2015 04 09 12 20 43 .24     -66    158    -21    172    174 337.3  -7.2  33894  285.09 0863.40
2015 04 09 12 20 43 .49     -71    158    -23    174    176 335.9  -7.7  33892  285.04 0863.41
2015 04 09 12 20 43 .74     -47    150    -30    158    161 342.6 -10.9  33892  285.06 0863.41
2015 04 09 12 20 43 .99     -49    145    -25    154    157 341.3  -9.4  33896  285.11 0863.41
2015 04 09 12 20 44 .24     -50    152      6    161    162 341.7   2.3  33928  285.66 0863.41
2015 04 09 12 20 44 .50     -57    158    -16    169    170 340.2  -5.6  33918  285.48 0863.41
2015 04 09 12 20 44 .74     -79    146    -16    167    168 331.5  -5.6  33952  286.07 0863.41
2015 04 09 12 20 45 .00     -41    165      8    171    172 346.0   2.9  33906  285.29 0863.41
2015 04 09 12 20 45 .24     -70    148    -37    164    169 334.5 -12.9  33918  285.48 0863.41
2015 04 09 12 20 45 .51     -69    135    -51    152    161 332.9 -18.7  33910  285.34 0863.41
2015 04 09 12 20 45 .76     -79    106     34    133    138 323.5  14.3  33952  286.05 0863.41
2015 04 09 12 20 46 .01     -68     94     67    117    134 323.9  32.9  33954  286.08 0863.41
2015 04 09 12 20 46 .26     -47    130     55    139    149 340.0  23.0  33954  286.08 0863.41
2015 04 09 12 20 46 .51     -47     75    100     89    133 327.5  53.7  33958  286.17 0863.41
2015 04 09 12 20 46 .76     -42     50     72     66     97 319.5  52.2  33960  286.19 0863.41
2015 04 09 12 20 47 .01     -32     68     82     76    111 334.7  52.2  33948  286.00 0863.41
2015 04 09 12 20 47 .26     -55     74     84     93    125 323.0  46.9  33950  286.03 0863.41
2015 04 09 12 20 47 .51     -40     30     60     50     78 306.9  55.4  33958  286.15 0863.41
2015 04 09 12 20 47 .76     -75     45      8     88     89 301.1   5.4  33948  286.00 0863.41
2015 04 09 12 20 48 .01     -51     99     50    112    122 332.4  25.2  33970  286.35 0863.41
2015 04 09 12 20 48 .26     -77     76      8    109    110 314.6   4.4  33986  286.64 0863.41
2015 04 09 12 20 48 .51     -34    102     37    108    115 341.3  18.9  34006  286.98 0863.41
2015 04 09 12 20 48 .76     -39     98     51    106    117 338.2  27.2  34032  287.40 0863.41
2015 04 09 12 20 49 .01    -111    111    -42    157    163 315.0 -15.2  34018  287.18 0863.41
2015 04 09 12 20 49 .26    -134     91     -6    163    164 304.2  -2.2  33998  286.83 0863.41
2015 04 09 12 20 49 .52    -123     89      7    152    153 305.9   2.8  33990  286.69 0863.41
2015 04 09 12 20 49 .76     -85     91     23    125    128 316.8  10.6  33966  286.29 0863.41
2015 04 09 12 20 50 .01    -133    107    -34    172    176 308.9 -11.3  33912  285.39 0863.41
2015 04 09 12 20 50 .26    -152     85    -49    175    181 299.1 -20.2  33892  285.06 0863.41
2015 04 09 12 20 50 .51    -124     83    -56    150    160 303.7 -25.7  33894  285.09 0863.41
2015 04 09 12 20 50 .76     -94     77    -52    122    132 309.5 -29.0  33898  285.14 0863.41
2015 04 09 12 20 51 .02     -72     72    -45    103    112 315.0 -29.5  33898  285.16 0863.41
2015 04 09 12 20 51 .27     -73     64    -58     98    113 311.3 -38.4  33892  285.06 0863.41
2015 04 09 12 20 51 .52    -115     45    -37    124    130 291.7 -17.0  33892  285.04 0863.41
2015 04 09 12 20 51 .77    -112     52    -56    124    136 295.2 -30.6  33894  285.07 0863.41
2015 04 09 12 20 52 .02    -110     56    -60    124    137 297.1 -31.7  33894  285.07 0863.41
2015 04 09 12 20 52 .27     -64    102    -41    121    127 327.5 -23.3  33892  285.06 0863.41
2015 04 09 12 20 52 .53     -60     83    -31    103    108 324.0 -17.0  33894  285.07 0863.41
2015 04 09 12 20 52 .78     -75     59    -34     96    102 308.6 -19.7  33892  285.06 0863.41
2015 04 09 12 20 53 .03     -92     76    -42    120    128 309.6 -19.6  33892  285.06 0863.41
2015 04 09 12 20 53 .28     -71     69    -49    100    111 314.0 -31.7  33900  285.18 0863.41
2015 04 09 12 20 53 .53     -67     76    -44    102    111 318.6 -29.5  33896  285.11 0863.42
2015 04 09 12 20 53 .78     -71     58    -40     92    100 309.5 -29.5  33892  285.04 0863.42
2015 04 09 12 20 54 .03     -93     31    -27     99    103 288.4 -15.5  33898  285.14 0863.42
2015 04 09 12 20 54 .28     -87     47    -29     99    104 298.4 -16.6  33896  285.11 0863.42
2015 04 09 12 20 54 .53     -90     33    -26     97    101 290.4 -15.0  33900  285.18 0863.42
2015 04 09 12 20 54 .78    -105     54    -15    119    120 297.5  -7.2  33906  285.28 0863.42
2015 04 09 12 20 55 .04     -90     48      5    103    104 298.4   2.9  33916  285.44 0863.42
2015 04 09 12 20 55 .29    -114     52    -12    126    127 294.4  -5.6  33922  285.56 0863.42
2015 04 09 12 20 55 .54    -124     59    -17    138    140 295.4  -7.2  33926  285.63 0863.42
2015 04 09 12 20 55 .79    -131     52     -7    142    143 291.8  -3.1  33934  285.75 0863.42
2015 04 09 12 20 56 .03    -139     55    -19    150    152 291.7  -7.2  33910  285.34 0863.42
2015 04 09 12 20 56 .29    -136     48    -21    145    147 289.5  -8.2  33896  285.11 0863.42
2015 04 09 12 20 56 .54    -128     50    -35    138    143 291.7 -14.5  33898  285.16 0863.42
2015 04 09 12 20 56 .79    -113     42    -43    121    129 290.8 -19.6  33904  285.24 0863.42
2015 04 09 12 20 57 .04    -124     50    -37    134    140 292.2 -15.5  33906  285.29 0863.42
2015 04 09 12 20 57 .29    -124     50    -37    134    140 292.2 -15.5  33926  285.61 0863.42
2015 04 09 12 20 57 .55    -109     56    -25    123    126 297.1 -11.9  33938  285.82 0863.42
2015 04 09 12 20 57 .79     -98     62    -18    117    119 302.4  -8.8  33984  286.61 0863.42
2015 04 09 12 20 58 .04     -96     63    -14    116    117 303.3  -7.2  33966  286.29 0863.42
2015 04 09 12 20 58 .30     -66     73    -13     99    100 318.1  -7.7  33970  286.37 0863.42
2015 04 09 12 20 58 .54     -37     49      7     62     63 323.0   6.9  33988  286.66 0863.42
2015 04 09 12 20 58 .80     -55     64     -3     85     86 319.0  -2.2  33990  286.69 0863.42
2015 04 09 12 20 59 .05     -53     58    -23     79     82 317.7 -21.2  34012  287.06 0863.42
2015 04 09 12 20 59 .31     -23     58     23     63     67 338.1  20.0  34016  287.15 0863.42
2015 04 09 12 20 59 .56     -32     16      7     36     37 297.1  11.0  34020  287.21 0863.42
2015 04 09 12 20 59 .81     -23     57     36     62     71 338.2  33.5  34020  287.20 0863.42
2015 04 09 12 21 00 .06     -28     71     49     77     91 338.2  35.5  34024  287.27 0863.43
2015 04 09 12 21 00 .31     -45     25     41     52     66 299.8  42.7  34032  287.40 0863.43
2015 04 09 12 21 00 .56     -31     28     17     43     46 312.2  22.0  34036  287.49 0863.43
2015 04 09 12 21 00 .81     -37     58      7     70     71 327.4   5.9  34010  287.03 0863.43
2015 04 09 12 21 01 .06     -39     52     -8     66     67 323.0  -7.2  33980  286.52 0863.43
2015 04 09 12 21 01 .31     -45     69    -12     83     84 327.0  -8.8  33974  286.42 0863.43
2015 04 09 12 21 01 .56     -61     61      3     87     88 315.0   2.3  33984  286.61 0863.43
2015 04 09 12 21 01 .81     -63     53    -18     83     85 310.4 -12.4  33952  286.05 0863.43
2015 04 09 12 21 02 .06     -85     77    -14    115    116 312.2  -7.3  33930  285.70 0863.43
2015 04 09 12 21 02 .31     -76     76    -19    108    110 315.0 -10.3  33928  285.65 0863.43
2015 04 09 12 21 02 .56     -83     68     -7    108    109 309.1  -3.7  33928  285.66 0863.43
2015 04 09 12 21 02 .81     -77     64      5    101    102 309.5   2.9  33934  285.76 0863.43
2015 04 09 12 21 03 .07     -65     80      5    104    105 320.8   2.9  33940  285.87 0863.43
2015 04 09 12 21 03 .32     -86     56      9    103    104 303.3   5.4  33940  285.87 0863.43
2015 04 09 12 21 03 .57     -70     72      7    101    102 315.9   4.4  33952  286.05 0863.43
2015 04 09 12 21 03 .82     -85     68      5    109    110 308.6   2.9  33940  285.87 0863.43
2015 04 09 12 21 04 .07    -105     80      6    133    134 307.3   2.8  33940  285.87 0863.43
2015 04 09 12 21 04 .32     -91     92      6    130    131 315.1   2.9  33942  285.90 0863.43
2015 04 09 12 21 04 .57    -114     72      5    135    136 302.4   2.3  33942  285.90 0863.43
2015 04 09 12 21 04 .82     -76    119    -35    142    147 327.4 -13.9  33948  286.00 0863.43
2015 04 09 12 21 05 .07     -97    104     -5    143    144 316.8  -2.2  33964  286.27 0863.43
2015 04 09 12 21 05 .32    -103    130    -25    167    169 321.5  -8.8  33952  286.07 0863.43
2015 04 09 12 21 05 .57    -130    130    -36    184    188 315.0 -11.1  33950  286.03 0863.43
2015 04 09 12 21 05 .82    -126    100    -16    162    163 308.4  -6.0  33952  286.05 0863.43
2015 04 09 12 21 06 .07    -127    127    -24    180    182 314.9  -7.7  33958  286.15 0863.43
2015 04 09 12 21 06 .33    -139    167    -60    218    227 320.3 -15.5  33940  285.85 0863.43
2015 04 09 12 21 06 .58    -107    207    -38    234    238 332.6  -9.3  33950  286.01 0863.43
2015 04 09 12 21 06 .83    -104    208    -38    233    237 333.3  -9.4  33938  285.81 0863.43
2015 04 09 12 21 07 .08    -116    194    -65    227    237 329.0 -16.0  33928  285.66 0863.43
2015 04 09 12 21 07 .33    -108    176    -73    207    220 328.4 -19.4  33926  285.63 0863.43
2015 04 09 12 21 07 .58     -95    183    -21    207    209 332.6  -6.0  33932  285.71 0863.43
2015 04 09 12 21 07 .83    -108    175    -39    206    210 328.4 -10.9  33928  285.65 0863.43
2015 04 09 12 21 08 .08     -66    183    -59    195    204 340.0 -17.0  33934  285.75 0863.43
2015 04 09 12 21 08 .33     -58    182    -62    192    201 342.2 -23.3  33934  285.75 0863.43
2015 04 09 12 21 08 .59     -40    199    -65    203    213 348.5 -23.3  33938  285.82 0863.43
2015 04 09 12 21 08 .84     -34    163    -51    167    174 348.2 -22.5  33944  285.93 0863.43
2015 04 09 12 21 09 .09     -58    133    -43    146    152 336.4 -21.7  33948  285.98 0863.43
2015 04 09 12 21 09 .34     -48    134    -47    143    150 340.0 -23.8  33948  285.98 0863.43
2015 04 09 12 21 09 .59     -37     97    -63    104    121 339.1 -38.4  33948  286.00 0863.43
2015 04 09 12 21 09 .84     -44    110    -49    119    128 338.1 -28.0  33948  286.00 0863.43
2015 04 09 12 21 10 .09     -41    124    -16    131    133 341.7  -7.3  33940  285.87 0863.43
2015 04 09 12 21 10 .34     -57    143    -43    155    160 338.1 -20.2  33950  286.03 0863.43
2015 04 09 12 21 10 .59     -73    117    -42    139    145 327.9 -21.8  33950  286.03 0863.43
2015 04 09 12 21 10 .84     -71    130    -29    149    152 331.1 -11.3  33954  286.08 0863.44
2015 04 09 12 21 11 .09    -141     94    -21    170    172 303.7  -7.2  33956  286.14 0863.44
2015 04 09 12 21 11 .34    -130     64    -49    145    154 296.2 -18.7  33954  286.08 0863.44
2015 04 09 12 21 11 .59    -142    120    -51    186    194 310.2 -15.5  33956  286.14 0863.44
2015 04 09 12 21 11 .84     -77    113    -51    137    146 325.8 -25.4  33956  286.14 0863.44
2015 04 09 12 21 12 .09     -74    111    -22    134    136 326.2  -9.3  33956  286.12 0863.44
2015 04 09 12 21 12 .35     -88    114    -25    145    148 322.2  -9.8  33956  286.12 0863.44
2015 04 09 12 21 12 .60     -33    101      9    107    108 341.7   4.9  33962  286.22 0863.44
2015 04 09 12 21 12 .84     -27     57     -2     64     65 334.6  -2.2  33958  286.17 0863.43
2015 04 09 12 21 13 .10     -59     32     -8     68     69 298.8  -7.2  33960  286.20 0863.43
2015 04 09 12 21 13 .35     -57     36     -6     68     69 302.4  -5.2  33960  286.19 0863.43
2015 04 09 12 21 13 .61     -37     29     -7     48     49 307.8  -9.3  33958  286.15 0863.43
2015 04 09 12 21 13 .86     -35     34      1     49     50 314.0   1.8  33964  286.27 0863.43
2015 04 09 12 21 14 .11     -18     47     13     51     53 339.1  15.3  33968  286.34 0863.43
2015 04 09 12 21 14 .36     -14     48      2     51     52 343.1   2.9  33966  286.29 0863.43
2015 04 09 12 21 14 .61     -29     34     32     46     56 319.5  37.6  33988  286.66 0863.43
2015 04 09 12 21 14 .86     -34     42     28     55     61 321.3  28.2  33994  286.78 0863.43
2015 04 09 12 21 15 .11     -33     12     25     36     43 290.0  38.6  34002  286.91 0863.43
2015 04 09 12 21 15 .36     -24     24      8     34     35 315.0  13.2  33994  286.78 0863.43
2015 04 09 12 21 15 .61      -8      8     16     12     20 315.0  58.5  33996  286.79 0863.43
2015 04 09 12 21 15 .86      -5     34     20     35     40 350.2  32.4  33992  286.74 0863.43
2015 04 09 12 21 16 .12     -27     32     39     43     58 319.5  47.9  34022  287.23 0863.43
2015 04 09 12 21 16 .36     -31     37     50     49     70 320.4  49.1  34016  287.15 0863.43
2015 04 09 12 21 16 .61     -27     41     32     50     59 326.6  35.6  34012  287.08 0863.43
2015 04 09 12 21 16 .86     -19     31     38     37     53 327.4  49.1  34014  287.11 0863.43
2015 04 09 12 21 17 .12     -18     34     48     39     61 331.0  56.4  34018  287.18 0863.43
2015 04 09 12 21 17 .36     -30     20     43     37     56 304.2  54.3  34022  287.23 0863.43
2015 04 09 12 21 17 .62     -29     22     43     37     56 307.8  54.3  34022  287.23 0863.43
2015 04 09 12 21 17 .86     -36     16     42     40     58 294.4  49.1  34034  287.43 0863.43
2015 04 09 12 21 18 .12     -25      9     49     27     55 291.7  67.7  34038  287.50 0863.43
2015 04 09 12 21 18 .36     -37     17     23     42     47 295.3  31.4  34048  287.67 0863.43
2015 04 09 12 21 18 .63     -39     42     50     58     76 317.7  44.8  34042  287.57 0863.43
2015 04 09 12 21 18 .87     -38     21     48     44     65 299.8  52.2  34068  288.03 0863.43
2015 04 09 12 21 19 .12     -40     30     41     50     64 306.9  43.7  34064  287.94 0863.42
2015 04 09 12 21 19 .38     -31      6     56     32     64 281.4  67.7  34080  288.23 0863.42
2015 04 09 12 21 19 .62       2    -15     39     16     42 172.0  77.1  34096  288.48 0863.42
2015 04 09 12 21 19 .87       8     -5     27     10     28 122.4  81.2  34076  288.16 0863.42
2015 04 09 12 21 20 .12       3    -12     23     13     26 164.9  66.8  34086  288.31 0863.42
2015 04 09 12 21 20 .38       0      2     18      3     18 350.3  90.0  34082  288.26 0863.42
2015 04 09 12 21 20 .63     -41     36    -20     55     58 311.3 -23.3  34000  286.86 0863.42
2015 04 09 12 21 20 .89     -57     36      0     68     69 302.4   0.8  33992  286.74 0863.42
2015 04 09 12 21 21 .14     -50     32     -1     60     61 302.5  -1.2  33996  286.79 0863.42
2015 04 09 12 21 21 .38     -17     40      6     44     45 336.4   8.0  34018  287.16 0863.42
2015 04 09 12 21 21 .64     -10     29      7     31     32 340.0  13.2  34012  287.06 0863.42
2015 04 09 12 21 21 .88     -27     32    -10     43     45 319.5 -13.4  34000  286.86 0863.42
2015 04 09 12 21 22 .14     -53     45    -23     70     74 310.4 -18.7  33980  286.54 0863.42
2015 04 09 12 21 22 .39     -54     70    -32     89     94 322.2 -23.8  33996  286.79 0863.42
2015 04 09 12 21 22 .64     -47     82    -24     95     99 330.1 -14.5  34006  286.96 0863.42
2015 04 09 12 21 22 .89     -53     51     -1     74     75 314.1  -1.3  34012  287.08 0863.41
2015 04 09 12 21 23 .14     -19     72     13     75     77 344.8  10.1  34020  287.20 0863.41
2015 04 09 12 21 23 .39     -37     67    -21     77     80 331.0 -15.5  34010  287.03 0863.41
2015 04 09 12 21 23 .64     -25     53     -7     59     60 334.6  -7.3  34002  286.91 0863.41
2015 04 09 12 21 23 .89     -20     44     -1     49     50 335.5  -2.2  34002  286.89 0863.41
2015 04 09 12 21 24 .14     -66      5     -2     67     68 274.4  -2.2  34000  286.88 0863.41
2015 04 09 12 21 24 .39     -38     30     34     49     59 307.8  38.6  34028  287.33 0863.41
2015 04 09 12 21 24 .64     -24      4     -1     25     26 281.5  -2.2  34016  287.15 0863.41
2015 04 09 12 21 24 .89     -37     34    -23     51     55 312.2 -30.6  34024  287.27 0863.41
2015 04 09 12 21 25 .15     -24     50     37     56     67 334.6  35.6  34036  287.47 0863.41
2015 04 09 12 21 25 .40     -34     54     39     65     75 327.5  35.5  34050  287.70 0863.41
2015 04 09 12 21 25 .64     -53     53     54     76     93 315.0  39.1  34048  287.67 0863.41
2015 04 09 12 21 25 .90     -37     45     53     59     79 320.4  47.5  34048  287.69 0863.41
2015 04 09 12 21 26 .15      -9     50     36     51     62 349.3  39.5  34042  287.57 0863.41
2015 04 09 12 21 26 .40     -50     53     46     74     87 316.8  35.5  34050  287.72 0863.41
2015 04 09 12 21 26 .65     -58     56     57     81     99 314.0  39.1  34046  287.64 0863.41
2015 04 09 12 21 26 .90     -47     68     74     83    111 325.3  46.4  34074  288.13 0863.41
2015 04 09 12 21 27 .16     -31     46     23     56     60 325.7  23.1  34086  288.31 0863.41
2015 04 09 12 21 27 .41     -22     42    -22     48     52 331.9 -31.5  34078  288.18 0863.41
2015 04 09 12 21 27 .66     -42     50    -28     66     71 319.5 -28.5  34052  287.76 0863.41
2015 04 09 12 21 27 .91     -94     85    -35    127    132 312.2 -15.4  34020  287.20 0863.41
2015 04 09 12 21 28 .16    -132    100    -15    166    167 307.1  -5.2  34038  287.52 0863.41
2015 04 09 12 21 28 .42    -135     99    -26    168    171 306.2  -9.0  34024  287.28 0863.41
2015 04 09 12 21 28 .66    -151     60    -29    163    166 292.0 -10.1  33952  286.05 0863.41
2015 04 09 12 21 28 .91     -99     93      4    137    138 313.1   1.8  33966  286.29 0863.41
2015 04 09 12 21 29 .16    -179     66    -39    191    196 290.4 -11.6  33934  285.76 0863.41
2015 04 09 12 21 29 .41    -173     82    -42    192    197 295.3 -12.4  33936  285.80 0863.41
2015 04 09 12 21 29 .66    -171     80    -32    189    192 295.1  -9.6  33942  285.90 0863.41
2015 04 09 12 21 29 .91    -153     83    -16    175    176 298.6  -5.4  33946  285.95 0863.41
2015 04 09 12 21 30 .17    -157     86    -23    180    182 298.8  -7.5  33948  285.98 0863.40
2015 04 09 12 21 30 .42    -173    110    -26    206    208 302.6  -7.3  33948  285.98 0863.40
2015 04 09 12 21 30 .67    -142     94    -20    171    173 303.7  -6.7  33950  286.03 0863.40
2015 04 09 12 21 30 .92     -92    113    -33    147    151 320.8 -12.9  33960  286.19 0863.40
2015 04 09 12 21 31 .17     -70     49    -34     86     92 305.5 -26.9  33972  286.39 0863.40
2015 04 09 12 21 31 .42     -69     57    -41     90     98 309.5 -30.6  33970  286.35 0863.40
2015 04 09 12 21 31 .67    -101     24    -10    104    105 283.7  -5.6  33954  286.10 0863.40
2015 04 09 12 21 31 .92    -137     94    -21    167    169 304.6  -7.3  33962  286.22 0863.40
2015 04 09 12 21 32 .17    -173     74    -35    189    193 293.3 -10.5  33954  286.10 0863.40
2015 04 09 12 21 32 .42    -174     86    -33    195    198 296.2  -9.6  33958  286.17 0863.40
2015 04 09 12 21 32 .67    -155     71     -6    171    172 294.8  -2.2  33966  286.30 0863.40
2015 04 09 12 21 32 .92    -224    101    -44    246    251 294.4 -10.3  33972  286.38 0863.40
2015 04 09 12 21 33 .18    -213     95    -33    234    237 294.0  -8.2  33976  286.45 0863.40
2015 04 09 12 21 33 .42    -207     90    -34    226    229 293.6  -8.6  33978  286.49 0863.40
2015 04 09 12 21 33 .67    -244    111    -48    269    274 294.4 -10.3  33980  286.53 0863.40
2015 04 09 12 21 33 .93    -192    100    -60    217    226 297.5 -15.4  33970  286.37 0863.40
2015 04 09 12 21 34 .19    -184     93    -57    207    215 296.9 -15.4  33988  286.67 0863.40
2015 04 09 12 21 34 .44     -88     56     28    105    109 302.5  15.3  34016  287.13 0863.40
2015 04 09 12 21 34 .69    -155     16    -40    156    162 275.9 -14.5  33998  286.83 0863.40
2015 04 09 12 21 34 .94    -252     84    -48    266    271 288.6 -10.3  33984  286.58 0863.40
2015 04 09 12 21 35 .19    -264    125    -37    293    296 295.4  -7.3  33976  286.47 0863.40
2015 04 09 12 21 35 .44    -225    150    -39    271    274 303.7  -8.2  34006  286.95 0863.40
2015 04 09 12 21 35 .69    -202    182    -89    273    288 312.0 -18.1  34006  286.97 0863.40
2015 04 09 12 21 35 .95    -172    161    -65    236    244 313.1 -20.0  33970  286.36 0863.40
2015 04 09 12 21 36 .18    -158    174    -57    236    243 317.7 -13.7  33962  286.21 0863.40
2015 04 09 12 21 36 .44    -155    165    -81    227    242 316.7 -19.7  33930  285.69 0863.40
2015 04 09 12 21 36 .69    -149    182    -81    236    250 320.8 -18.9  33926  285.62 0863.40
2015 04 09 12 21 36 .94    -154    174    -78    233    246 318.6 -18.6  33932  285.71 0863.40
2015 04 09 12 21 37 .20    -148    167    -71    224    236 318.3 -17.6  33930  285.70 0863.40
2015 04 09 12 21 37 .44    -142    158    -66    213    224 317.9 -17.3  33962  286.22 0863.41
2015 04 09 12 21 37 .70    -101    182    -56    209    217 331.0 -15.0  33976  286.47 0863.41
2015 04 09 12 21 37 .95     -86    103     26    135    138 320.3  11.0  33988  286.66 0863.41
2015 04 09 12 21 38 .20    -144     85    -18    168    170 300.4  -6.2  33990  286.71 0863.41
2015 04 09 12 21 38 .45    -144    139      1    201    202 314.0   0.5  34012  287.06 0863.41
2015 04 09 12 21 38 .69    -179    106    -26    209    211 300.7  -7.2  34014  287.10 0863.41
2015 04 09 12 21 38 .95    -119     98     -1    155    156 309.5  -0.5  34026  287.32 0863.41
2015 04 09 12 21 39 .20    -154    171     -9    231    232 317.9  -2.2  34020  287.21 0863.41
2015 04 09 12 21 39 .45    -175    145    -42    228    232 309.6 -10.5  34008  287.00 0863.41
2015 04 09 12 21 39 .70    -174    104    -33    203    206 300.9  -9.3  34016  287.13 0863.41
2015 04 09 12 21 39 .95    -174    111    -34    207    210 302.6  -9.3  34000  286.86 0863.41
2015 04 09 12 21 40 .20    -165    119    -24    204    206 306.0  -6.9  33980  286.54 0863.40
2015 04 09 12 21 40 .45    -168    119    -27    206    208 305.3  -7.5  33980  286.54 0863.40
2015 04 09 12 21 40 .70    -168    133    -34    215    218 308.2  -9.0  33990  286.69 0863.40
2015 04 09 12 21 40 .95    -216     99    -34    238    241 294.8  -8.3  33946  285.94 0863.40
2015 04 09 12 21 41 .21    -206     76    -60    220    229 290.4 -15.4  33924  285.60 0863.40
2015 04 09 12 21 41 .47    -214     70    -69    226    236 288.2 -21.8  33948  285.98 0863.40
2015 04 09 12 21 41 .72    -232    112    -51    258    264 295.8 -11.3  33958  286.16 0863.40
2015 04 09 12 21 41 .96    -220     91    -81    239    253 292.6 -18.7  33934  285.76 0863.41
2015 04 09 12 21 42 .21    -214     84    -69    231    242 291.5 -16.6  33928  285.66 0863.41
2015 04 09 12 21 42 .47    -217     98    -50    239    245 294.4 -11.9  33928  285.66 0863.41
2015 04 09 12 21 42 .71    -209    124    -36    244    247 300.7  -8.6  33964  286.25 0863.41
2015 04 09 12 21 42 .97    -232    101    -54    254    260 293.5 -12.2  33974  286.43 0863.41
2015 04 09 12 21 43 .22    -209    110    -21    237    238 297.8  -5.1  33954  286.09 0863.41
2015 04 09 12 21 43 .47    -184    109     -2    214    215 300.7  -0.7  33984  286.61 0863.41
2015 04 09 12 21 43 .72    -174    136     -6    222    223 308.0  -1.6  34006  286.96 0863.41
2015 04 09 12 21 43 .97    -194    168    -25    257    259 310.9  -5.6  34006  286.97 0863.41
2015 04 09 12 21 44 .22    -112    147     -1    186    187 322.6  -0.5  34006  286.98 0863.41
2015 04 09 12 21 44 .47     -95    149     24    177    179 327.5   7.8  34004  286.93 0863.41
2015 04 09 12 21 44 .72    -178    124      0    218    219 304.9   0.0  33990  286.69 0863.41
2015 04 09 12 21 44 .97    -145    183    -16    234    235 321.7  -4.1  34000  286.85 0863.41
2015 04 09 12 21 45 .22    -152    193    -45    246    251 321.7 -10.5  34004  286.94 0863.41
2015 04 09 12 21 45 .47    -137    171    -10    220    221 321.3  -2.8  34016  287.15 0863.41
2015 04 09 12 21 45 .72    -197    167    -18    259    260 310.4  -4.1  34028  287.33 0863.41
2015 04 09 12 21 45 .98    -226    168    -11    282    283 306.6  -2.2  34028  287.33 0863.41
2015 04 09 12 21 46 .22    -204    157     -1    258    259 307.7  -0.3  34018  287.17 0863.41
2015 04 09 12 21 46 .48    -189    172    -32    256    259 312.4  -7.3  34012  287.06 0863.41
2015 04 09 12 21 46 .72    -180    175    -36    252    255 314.2  -8.2  34020  287.21 0863.41
2015 04 09 12 21 46 .98    -213    200    -59    293    299 313.3 -11.5  34014  287.11 0863.41
2015 04 09 12 21 47 .25    -200    206    -52    288    293 315.9 -10.3  34006  286.97 0863.41
2015 04 09 12 21 47 .48    -172    170    -34    242    245 314.7  -8.0  34020  287.19 0863.41
2015 04 09 12 21 47 .73    -186    145    -21    237    238 308.0  -5.2  34024  287.26 0863.41
2015 04 09 12 21 47 .98    -152    123      5    196    197 308.9   1.6  34038  287.50 0863.41
2015 04 09 12 21 48 .24     -91    188     16    209    210 334.1   4.4  34040  287.54 0863.41
2015 04 09 12 21 48 .49    -109    169    -22    202    204 327.0  -6.2  34038  287.52 0863.42
2015 04 09 12 21 48 .74    -145    185    -42    236    240 321.9 -10.3  34032  287.41 0863.42
2015 04 09 12 21 48 .99    -142    134    -16    196    197 313.3  -4.9  34036  287.49 0863.42
2015 04 09 12 21 49 .24    -176    152    -12    233    234 310.9  -3.1  34004  286.94 0863.42
2015 04 09 12 21 49 .49    -133    166     -8    214    215 321.3  -2.2  34018  287.16 0863.42
2015 04 09 12 21 49 .74    -175    261    -64    315    322 326.2 -11.5  33932  285.71 0863.42
2015 04 09 12 21 50 .00    -175    274    -72    326    334 327.4 -12.5  33996  286.81 0863.42
2015 04 09 12 21 50 .24    -135    284    -41    315    318 334.6  -7.6  34000  286.87 0863.42
2015 04 09 12 21 50 .49     -97    270    -26    287    289 340.2  -5.2  34032  287.41 0863.42
2015 04 09 12 21 50 .75     -70    260     11    270    271 344.9   2.3  34062  287.90 0863.42
2015 04 09 12 21 51 .00     -85    270    -11    284    285 342.4  -2.2  34088  288.36 0863.42
2015 04 09 12 21 51 .28     -89    265     -5    280    281 341.3  -1.1  33992  286.74 0863.42
2015 04 09 12 21 51 .49     -90    294    -39    308    311 343.0  -7.3  33974  286.42 0863.42
2015 04 09 12 21 51 .74     -92    304    -12    318    319 343.1  -2.2  33970  286.35 0863.42
2015 04 09 12 21 52 .00    -107    301    -45    320    324 340.4  -8.0  33948  285.99 0863.42
2015 04 09 12 21 52 .25    -121    309    -38    332    335 338.6  -6.6  33976  286.46 0863.42
2015 04 09 12 21 52 .50    -148    292    -41    328    331 333.0  -7.2  33968  286.34 0863.42
2015 04 09 12 21 52 .75    -136    310    -45    339    343 336.3  -7.7  33964  286.27 0863.42
2015 04 09 12 21 53 .00    -123    297    -24    322    323 337.5  -4.4  33974  286.43 0863.42
2015 04 09 12 21 53 .25    -151    328    -46    362    365 335.3  -7.3  33970  286.37 0863.42
2015 04 09 12 21 53 .50    -137    295    -70    326    334 335.1 -12.2  33960  286.19 0863.42
2015 04 09 12 21 53 .75    -180    273    -63    328    335 326.6 -11.0  33932  285.72 0863.42
2015 04 09 12 21 54 .00    -184    244    -83    306    318 323.0 -15.2  33902  285.20 0863.42
2015 04 09 12 21 54 .25    -162    263    -62    309    316 328.4 -11.5  33912  285.39 0863.42
2015 04 09 12 21 54 .50    -146    263    -61    301    308 331.0 -11.5  33904  285.24 0863.42
2015 04 09 12 21 54 .75    -161    181    -80    243    255 318.5 -23.6  33920  285.51 0863.42
2015 04 09 12 21 55 .01    -177    184    -76    256    267 316.1 -21.5  33916  285.44 0863.42
2015 04 09 12 21 55 .26    -169    180    -67    248    258 316.8 -15.2  33928  285.66 0863.42
2015 04 09 12 21 55 .52    -190    174    -87    258    273 312.4 -18.7  33994  286.75 0863.42
2015 04 09 12 21 55 .77    -255    197    -49    323    327 307.7  -8.7  34006  286.95 0863.42
2015 04 09 12 21 56 .02    -252    189    -29    315    317 306.9  -5.4  33992  286.74 0863.42
2015 04 09 12 21 56 .27    -265    152    -66    306    314 299.8 -12.2  33992  286.74 0863.42
2015 04 09 12 21 56 .52    -164    138     -8    215    216 310.0  -2.2  33986  286.64 0863.42
2015 04 09 12 21 56 .77    -128    127    -16    181    182 314.9  -5.4  33984  286.59 0863.41
2015 04 09 12 21 57 .02    -123    173    -35    213    216 324.6  -9.3  34000  286.86 0863.41
2015 04 09 12 21 57 .27    -114    170    -32    205    208 326.2  -9.0  33974  286.44 0863.41
2015 04 09 12 21 57 .52    -177    140      8    227    228 308.4   2.1  33980  286.52 0863.41
2015 04 09 12 21 57 .77    -150    127     -5    197    198 310.2  -1.6  33962  286.24 0863.41
2015 04 09 12 21 58 .02    -138    109    -16    177    178 308.4  -5.2  33962  286.22 0863.41
2015 04 09 12 21 58 .27     -74     94    -24    120    123 321.7 -11.3  33960  286.19 0863.41
2015 04 09 12 21 58 .52     -27    106    -19    110    112 345.3 -10.3  33980  286.54 0863.41
2015 04 09 12 21 58 .77     -51    106     -1    118    119 334.1  -0.7  33986  286.62 0863.41
2015 04 09 12 21 59 .03     -33    118     14    123    124 344.0   6.9  34014  287.10 0863.41
2015 04 09 12 21 59 .27     -43     76     34     88     94 330.1  21.5  34036  287.47 0863.41
2015 04 09 12 21 59 .52     -44    131     61    139    151 341.3  25.2  33986  286.64 0863.41
2015 04 09 12 21 59 .78     -37    137     18    142    144 344.9   7.5  34038  287.52 0863.41
2015 04 09 12 22 00 .03     -54    137     23    148    150 338.2   8.9  34068  288.01 0863.41
2015 04 09 12 22 00 .28     -32    157     19    161    163 348.4   6.9  34096  288.50 0863.41
2015 04 09 12 22 00 .53     -40    132     32    139    143 343.1  13.2  34090  288.40 0863.41
2015 04 09 12 22 00 .78     -49    154     -5    162    163 342.2  -1.8  34048  287.67 0863.41
2015 04 09 12 22 01 .03     -73    158    -10    175    176 335.3  -3.3  34042  287.57 0863.41
2015 04 09 12 22 01 .28     -77    184    -14    200    201 337.1  -4.1  34036  287.47 0863.42
2015 04 09 12 22 01 .52     -65    219    -19    229    230 343.5  -4.9  33948  286.00 0863.42
2015 04 09 12 22 01 .78     -51    219    -28    226    228 346.7  -7.2  33940  285.87 0863.42
2015 04 09 12 22 02 .04     -47    187    -24    193    195 345.7  -7.3  33940  285.85 0863.42
2015 04 09 12 22 02 .29    -102    184    -41    211    216 331.0 -11.1  33950  286.03 0863.42
2015 04 09 12 22 02 .54     -95    165    -39    191    196 329.9 -11.6  33960  286.19 0863.42
2015 04 09 12 22 02 .79     -97    169    -35    195    199 330.1 -10.3  33966  286.30 0863.42
2015 04 09 12 22 03 .04     -76    205    -10    219    220 339.5  -2.8  33962  286.24 0863.41
2015 04 09 12 22 03 .29     -89    188    -27    209    211 334.6  -7.5  33962  286.22 0863.41
2015 04 09 12 22 03 .54     -66    173     -5    186    187 339.1  -1.8  33976  286.46 0863.41
2015 04 09 12 22 03 .79     -76    156    -52    174    182 333.9 -16.6  33982  286.56 0863.41
2015 04 09 12 22 04 .04     -72    182      9    196    197 338.4   2.9  33962  286.22 0863.41
2015 04 09 12 22 04 .29     -69    205     11    217    218 341.3   2.9  33940  285.85 0863.41
2015 04 09 12 22 04 .55     -70    214     18    226    227 341.7   4.6  33964  286.25 0863.41
2015 04 09 12 22 04 .80     -57    211     32    219    222 344.9   8.5  33944  285.93 0863.42
2015 04 09 12 22 05 .05     -58    198     18    207    208 343.7   5.2  33944  285.93 0863.42
2015 04 09 12 22 05 .30     -26    203     55    205    213 352.7  15.2  33976  286.46 0863.42
2015 04 09 12 22 05 .55     -17    180     43    181    187 354.4  13.5  33918  285.48 0863.41
2015 04 09 12 22 05 .80     -13    171     30    172    175 355.5   9.9  33926  285.61 0863.41
2015 04 09 12 22 06 .05     -35    149     15    154    155 346.6   5.7  33932  285.71 0863.41
2015 04 09 12 22 06 .30     -52    130     32    141    145 338.2  13.1  33914  285.43 0863.41
2015 04 09 12 22 06 .56     -51    158     34    167    171 342.0  11.6  33976  286.46 0863.41
2015 04 09 12 22 06 .80     -69     95     75    118    139 323.9  35.5  34008  287.00 0863.41
2015 04 09 12 22 07 .05     -72    121     48    141    150 329.3  18.9  33996  286.81 0863.41
2015 04 09 12 22 07 .30     -40    191     58    196    205 348.0  16.6  33960  286.19 0863.41
2015 04 09 12 22 07 .55     -34    164     62    168    179 348.2  21.3  33960  286.20 0863.41
2015 04 09 12 22 07 .80     -34    162     72    166    180 348.0  24.9  33936  285.80 0863.41
2015 04 09 12 22 08 .05     -43    130     66    138    152 341.5  27.2  33948  286.00 0863.41
2015 04 09 12 22 08 .30     -30    127     50    131    140 346.7  21.5  33956  286.14 0863.41
2015 04 09 12 22 08 .55     -26    152     53    155    164 350.2  18.9  33968  286.32 0863.41
2015 04 09 12 22 08 .80     -31    152     39    156    161 348.4  14.3  33960  286.19 0863.41
2015 04 09 12 22 09 .07     -42    168     45    174    180 346.0  14.5  33970  286.35 0863.41
2015 04 09 12 22 09 .31     -33    178      9    182    183 349.5   2.9  33954  286.08 0863.41
2015 04 09 12 22 09 .57     -41    195     -7    200    201 348.0  -2.2  33950  286.02 0863.41
2015 04 09 12 22 09 .82     -18    187     23    188    190 354.2   7.1  33954  286.08 0863.41
2015 04 09 12 22 10 .07     -13    164     15    165    166 355.1   5.2  33956  286.14 0863.41
2015 04 09 12 22 10 .32     -17    130     76    132    152 352.4  32.9  33954  286.08 0863.41
2015 04 09 12 22 10 .57     -53    183     81    191    207 343.7  24.6  33966  286.30 0863.41
2015 04 09 12 22 10 .82     -52    196     83    203    219 345.1  23.1  34006  286.96 0863.41
2015 04 09 12 22 11 .07     -42    195     98    200    222 347.7  28.0  33994  286.78 0863.41
2015 04 09 12 22 11 .32     -42     90     34    100    106 334.7  18.9  34038  287.52 0863.41
2015 04 09 12 22 11 .57     -88     63     19    109    111 305.5  10.1  34036  287.49 0863.41
2015 04 09 12 22 11 .82    -100    120    109    157    191 320.3  38.4  33974  286.42 0863.41
2015 04 09 12 22 12 .07     -83    151     81    173    191 331.3  27.1  33972  286.41 0863.42
2015 04 09 12 22 12 .32    -129    184    -32    225    228 325.0  -8.2  33972  286.39 0863.42
2015 04 09 12 22 12 .57    -144    144    -53    205    212 315.0 -14.7  33938  285.82 0863.42
2015 04 09 12 22 12 .83    -154    135    -18    205    206 311.3  -5.2  33948  286.00 0863.42
2015 04 09 12 22 13 .08    -140    161     -2    214    215 319.0  -0.7  33974  286.42 0863.42
2015 04 09 12 22 13 .33    -171    161    -30    236    238 313.2  -7.3  33946  285.96 0863.42
2015 04 09 12 22 13 .57    -118    174    -38    211    215 325.7 -10.3  33962  286.22 0863.42
2015 04 09 12 22 13 .83    -133    148      4    200    201 318.1   1.2  33930  285.70 0863.41
2015 04 09 12 22 14 .08    -123    106    -21    163    165 310.7  -7.5  33932  285.73 0863.41
2015 04 09 12 22 14 .33    -169    129     -7    213    214 307.3  -2.1  33942  285.88 0863.41
2015 04 09 12 22 14 .58     -71     97     64    121    136 323.5  29.8  33982  286.57 0863.41
2015 04 09 12 22 14 .83    -110    107     54    154    164 314.0  19.6  33980  286.52 0863.41
2015 04 09 12 22 15 .08    -119    108     48    161    169 312.2  16.8  33948  286.00 0863.41
2015 04 09 12 22 15 .33    -179    121    -41    217    222 304.2 -10.9  33920  285.51 0863.41
2015 04 09 12 22 15 .58    -152    145     -2    211    212 313.6  -0.7  33958  286.15 0863.41
2015 04 09 12 22 15 .84    -122    118     16    170    171 314.0   5.4  33968  286.32 0863.41
2015 04 09 12 22 16 .09    -152     98      3    182    183 302.9   1.0  33964  286.25 0863.41
2015 04 09 12 22 16 .34    -140    106    -17    176    177 307.1  -5.6  33916  285.44 0863.41
2015 04 09 12 22 16 .59    -157    124    -24    201    203 308.2  -6.9  33918  285.48 0863.41
2015 04 09 12 22 16 .84    -130    108      6    170    171 309.8   2.1  33924  285.58 0863.41
2015 04 09 12 22 17 .10    -131     95      3    163    164 306.0   1.2  33920  285.51 0863.41
2015 04 09 12 22 17 .35    -169    137    -20    218    220 309.1  -5.4  33940  285.87 0863.41
2015 04 09 12 22 17 .59    -160    100      9    189    190 302.0   2.8  33932  285.71 0863.41
2015 04 09 12 22 17 .85    -184     82    -24    202    204 294.0  -6.9  33928  285.65 0863.41
2015 04 09 12 22 18 .10    -142     90    -21    169    171 302.4  -7.3  33942  285.90 0863.41
2015 04 09 12 22 18 .35     -61     96    -29    114    118 327.5 -14.5  33950  286.03 0863.41
2015 04 09 12 22 18 .60    -126     80    -19    150    152 302.4  -7.3  33954  286.08 0863.41
2015 04 09 12 22 18 .85     -88     93    -39    129    135 316.7 -17.0  33978  286.51 0863.41
2015 04 09 12 22 19 .10     -42     86      4     97     98 333.7   2.9  33976  286.46 0863.41
2015 04 09 12 22 19 .35     -46    104     38    115    122 335.9  18.4  33968  286.32 0863.41
2015 04 09 12 22 19 .60     -94     87    101    129    163 312.7  42.0  33968  286.32 0863.41
2015 04 09 12 22 19 .85     -83     61     41    104    111 306.4  22.5  34002  286.91 0863.41
2015 04 09 12 22 20 .10     -91    136     58    164    173 326.2  20.0  33982  286.56 0863.41
2015 04 09 12 22 20 .35     -67    147     83    162    182 335.5  29.1  33964  286.27 0863.41
2015 04 09 12 22 20 .60    -136    136     51    193    200 315.1  15.0  33946  285.95 0863.41
2015 04 09 12 22 20 .85    -154    170      4    230    231 317.7   1.2  33956  286.12 0863.41
2015 04 09 12 22 21 .10    -199    199    -59    282    289 315.0 -11.9  33934  285.74 0863.41
2015 04 09 12 22 21 .35    -154    189    -62    245    253 320.8 -14.3  33930  285.69 0863.41
2015 04 09 12 22 21 .60    -169    196    -64    260    268 319.2 -13.9  33938  285.83 0863.41
2015 04 09 12 22 21 .85    -152    207    -78    257    268 323.7 -21.8  33936  285.77 0863.41
2015 04 09 12 22 22 .11    -130    161    -78    208    222 321.0 -25.9  33932  285.71 0863.41
2015 04 09 12 22 22 .35    -104    191    -67    218    228 331.3 -22.1  33930  285.68 0863.41
2015 04 09 12 22 22 .61     -90    183    -60    205    213 333.7 -21.5  33934  285.76 0863.41
2015 04 09 12 22 22 .87     -66    175    -52    188    196 339.3 -15.4  33946  285.97 0863.41
2015 04 09 12 22 23 .12    -102    113     -4    153    154 317.7  -1.8  33956  286.14 0863.41
2015 04 09 12 22 23 .37    -126     82     11    151    152 303.3   4.4  33936  285.80 0863.41
2015 04 09 12 22 23 .62     -87     74     31    115    120 310.4  15.2  33938  285.82 0863.41
2015 04 09 12 22 23 .87     -50    150    -19    159    161 341.3  -6.9  33948  286.00 0863.41
2015 04 09 12 22 24 .12     -48    134    -18    143    145 340.0  -7.3  33952  286.05 0863.41
2015 04 09 12 22 24 .37     -71     90    -29    115    119 321.7 -14.5  33956  286.14 0863.41
2015 04 09 12 22 24 .62     -33     86     52     93    106 338.6  31.4  34002  286.89 0863.41
2015 04 09 12 22 24 .87     -63     61      3     88     89 314.0   2.3  33980  286.54 0863.41
2015 04 09 12 22 25 .12     -76     86    -20    116    118 318.6  -9.8  33970  286.37 0863.41
2015 04 09 12 22 25 .37     -60     89      5    108    109 326.2   2.8  33964  286.25 0863.41
2015 04 09 12 22 25 .62     -68     93    -24    116    119 323.9 -11.9  33940  285.85 0863.41
2015 04 09 12 22 25 .87     -71     90    -35    115    121 321.7 -17.0  33942  285.90 0863.41
2015 04 09 12 22 26 .12     -40     85    -39     95    102 334.6 -27.5  33954  286.08 0863.41
2015 04 09 12 22 26 .38     -72    111    -38    133    139 327.0 -16.0  33954  286.08 0863.41
2015 04 09 12 22 26 .63      -3     99    -31    100    104 357.8 -22.8  33964  286.27 0863.41
2015 04 09 12 22 26 .88      32    107    -36    112    117  16.9 -23.3  33956  286.12 0863.41
2015 04 09 12 22 27 .12      15    140    -46    141    149   6.3 -18.1  33968  286.32 0863.41
2015 04 09 12 22 27 .37      27    204    -60    206    214   7.6 -21.5  33942  285.88 0863.41
2015 04 09 12 22 27 .63      37    172    -57    177    185  12.3 -23.6  33936  285.80 0863.41
2015 04 09 12 22 27 .88      29    181    -58    184    192   9.3 -23.0  33946  285.97 0863.41
2015 04 09 12 22 28 .13     104    164    -62    195    204  32.5 -22.8  33962  286.22 0863.41
2015 04 09 12 22 28 .38      96    146    -49    175    181  33.4 -20.2  33946  285.95 0863.40
2015 04 09 12 22 28 .63      74    125    -19    146    148  30.7  -7.7  33954  286.10 0863.40
2015 04 09 12 22 28 .88      22    108    -30    111    116  11.6 -15.4  33942  285.90 0863.40
2015 04 09 12 22 29 .13      11    102    -54    103    116   6.2 -34.2  33932  285.73 0863.40
2015 04 09 12 22 29 .38      -9    122    -42    123    131 355.6 -19.1  33932  285.71 0863.40
2015 04 09 12 22 29 .63      13    137    -60    138    150   5.8 -29.5  33944  285.93 0863.40
2015 04 09 12 22 29 .89      28    137    -45    140    147  11.6 -23.8  33970  286.37 0863.40
2015 04 09 12 22 30 .14      12    165    -49    166    174   4.5 -16.4  33976  286.46 0863.40
2015 04 09 12 22 30 .39      23    122    -44    125    133  10.7 -19.7  33970  286.37 0863.40
2015 04 09 12 22 30 .64      -6    131    -36    132    137 357.3 -15.5  33964  286.27 0863.40
2015 04 09 12 22 30 .90      -9    123    -41    124    131 355.6 -18.7  33964  286.27 0863.40
2015 04 09 12 22 31 .14     -69    161     -6    176    177 336.6  -2.2  33958  286.17 0863.40
2015 04 09 12 22 31 .40     -26    222     -1    224    225 353.1  -0.3  33968  286.32 0863.40
2015 04 09 12 22 31 .65      18    242    -62    243    251   4.5 -14.4  33994  286.77 0863.40
2015 04 09 12 22 31 .90      33    236    -71    239    250   8.0 -16.6  33974  286.42 0863.40
2015 04 09 12 22 32 .15      48    254    -71    259    269  10.7 -15.4  33994  286.75 0863.40
2015 04 09 12 22 32 .40      55    210    -28    218    220  14.7  -7.5  33988  286.67 0863.40
2015 04 09 12 22 32 .65      72    219    -54    231    238  18.3 -13.3  34004  286.92 0863.40
2015 04 09 12 22 32 .90      65    212    -48    222    228  17.2 -12.2  33986  286.64 0863.40
2015 04 09 12 22 33 .15      16    199     -4    200    201   4.9  -1.3  33974  286.42 0863.40
2015 04 09 12 22 33 .40       8    139     27    140    143   3.6  11.0  33982  286.56 0863.40
2015 04 09 12 22 33 .65     -22    129     35    131    136 350.2  15.3  33982  286.56 0863.40
2015 04 09 12 22 33 .90     -36    107     83    114    141 341.3  39.7  34006  286.96 0863.40
2015 04 09 12 22 34 .15     -24     50     50     56     75 334.6  46.9  34000  286.88 0863.40
2015 04 09 12 22 34 .40     -38     49     70     63     94 322.2  53.3  34006  286.96 0863.40
2015 04 09 12 22 34 .65     -22     77     39     81     89 344.0  27.3  33998  286.84 0863.40
2015 04 09 12 22 34 .90      11    152     28    153    156   4.4  10.6  33992  286.74 0863.40
2015 04 09 12 22 35 .16      -4    122     25    123    126 357.8  11.6  33990  286.71 0863.40
2015 04 09 12 22 35 .41      -7     98     25     99    103 355.6  14.3  34002  286.91 0863.40
2015 04 09 12 22 35 .66       0    112     20    113    115   0.5  10.1  34002  286.89 0863.40
2015 04 09 12 22 35 .91      27     91     45     95    105  16.5  27.2  34006  286.98 0863.40
2015 04 09 12 22 36 .16     -16     62     63     65     90 344.9  49.4  34020  287.20 0863.40
2015 04 09 12 22 36 .41     -26     78     55     83     99 341.5  36.5  34048  287.67 0863.40
2015 04 09 12 22 36 .66     -32     91     48     97    108 340.4  27.3  34052  287.76 0863.40
2015 04 09 12 22 36 .91     -41    123    -11    130    131 341.3  -5.2  34022  287.25 0863.40
2015 04 09 12 22 37 .17     -42    126     -1    134    135 341.3  -0.7  34018  287.16 0863.40
2015 04 09 12 22 37 .43     -44    110     -2    119    120 338.2  -1.2  34038  287.50 0863.40
2015 04 09 12 22 37 .67     -57    131      7    143    144 336.4   2.9  34058  287.86 0863.40
2015 04 09 12 22 37 .92     -49    167     14    175    176 343.5   4.6  34052  287.74 0863.40
2015 04 09 12 22 38 .17     -45    149     27    156    159 343.1  10.1  34056  287.81 0863.40
2015 04 09 12 22 38 .42      -9    128     35    129    134 355.6  15.3  34066  287.99 0863.40
2015 04 09 12 22 38 .67      -6    135     31    136    140 357.3  13.1  34060  287.89 0863.40
2015 04 09 12 22 38 .92      -2    136     28    137    140 359.0  11.6  34072  288.08 0863.40
2015 04 09 12 22 39 .17     -19    162     16    164    165 353.3   5.9  34072  288.08 0863.40
2015 04 09 12 22 39 .43     -29    143      4    147    148 348.4   1.8  34064  287.94 0863.40
2015 04 09 12 22 39 .68     -21    149     32    151    155 352.0  12.0  34080  288.23 0863.40
2015 04 09 12 22 39 .93     -23    149     49    151    159 351.1  18.1  34130  289.08 0863.40
2015 04 09 12 22 40 .17     -31    151     54    155    165 348.4  19.2  34140  289.23 0863.40
2015 04 09 12 22 40 .43     -24    124     64    127    142 348.9  28.7  34128  289.02 0863.40
2015 04 09 12 22 40 .68     -24    165     68    167    180 351.5  23.1  34190  290.09 0863.40
2015 04 09 12 22 40 .93      13    186    100    187    212   4.2  30.6  34238  290.89 0863.40
2015 04 09 12 22 41 .18      22    191     69    193    204   6.7  20.2  34166  289.67 0863.40
2015 04 09 12 22 41 .43      13    162     56    163    173   4.9  19.2  34178  289.87 0863.40
2015 04 09 12 22 41 .68       8    133     74    134    153   3.6  31.4  34212  290.45 0863.40
2015 04 09 12 22 41 .93     -12    180     75    181    195 356.0  23.8  34198  290.23 0863.40
2015 04 09 12 22 42 .19     -18    219     14    220    221 355.1   3.8  34230  290.77 0863.40
2015 04 09 12 22 42 .43     -17    230     40    231    235 355.6   9.9  34206  290.34 0863.40
2015 04 09 12 22 42 .68     -27    213     46    215    220 352.7  12.2  34056  287.81 0863.40
2015 04 09 12 22 42 .93      -6    219    -25    220    222 358.2  -6.7  33930  285.70 0863.40
2015 04 09 12 22 43 .19      -9    207    -26    208    210 357.5  -7.2  33922  285.56 0863.39
2015 04 09 12 22 43 .44     -30    230      3    233    234 352.4   0.8  33944  285.91 0863.39
2015 04 09 12 22 43 .69     -41    341     32    344    346 353.1   5.5  34006  286.96 0863.39
2015 04 09 12 22 43 .95     -41    330     10    333    334 352.8   1.8  34008  287.00 0863.39
2015 04 09 12 22 44 .20     -62    307      0    314    315 348.4   0.1  34034  287.44 0863.39
2015 04 09 12 22 44 .45     -45    322     14    326    327 352.0   2.5  34050  287.70 0863.39
2015 04 09 12 22 44 .69     -54    350     17    355    356 351.1   2.8  33942  285.90 0863.39
2015 04 09 12 22 44 .96     -54    320      8    325    326 350.3   1.5  33918  285.49 0863.39
2015 04 09 12 22 45 .20     -75    334     17    343    344 347.3   2.9  34012  287.07 0863.39
2015 04 09 12 22 45 .45     -76    322     33    332    334 346.6   5.8  34024  287.27 0863.39
2015 04 09 12 22 45 .70     -62    317     33    324    326 348.9   5.9  33968  286.31 0863.39
2015 04 09 12 22 45 .96     -74    273      7    283    284 344.8   1.6  34050  287.71 0863.39
2015 04 09 12 22 46 .20    -118    270    -21    295    296 336.4  -4.1  34116  288.81 0863.39
2015 04 09 12 22 46 .45    -167    225    -72    281    291 323.5 -14.4  34052  287.75 0863.39
2015 04 09 12 22 46 .70    -191    171     -5    257    258 311.8  -1.3  34070  288.04 0863.39
2015 04 09 12 22 46 .95    -131    278    -23    308    309 334.7  -4.4  34058  287.85 0863.39
2015 04 09 12 22 47 .20    -117    262    -31    288    290 335.9  -6.2  34044  287.61 0863.39
2015 04 09 12 22 47 .45    -121    257    -25    285    287 334.7  -5.2  34028  287.34 0863.39
2015 04 09 12 22 47 .71     -91    277     -1    292    293 341.7  -0.3  34034  287.43 0863.39
2015 04 09 12 22 47 .96     -98    245    -24    264    266 338.2  -5.2  34038  287.51 0863.39
2015 04 09 12 22 48 .21     -84    301     23    313    314 344.4   4.4  34052  287.75 0863.39
2015 04 09 12 22 48 .46    -103    317     17    334    335 341.9   3.0  33996  286.81 0863.39
2015 04 09 12 22 48 .70    -116    289     25    312    314 338.1   4.6  33976  286.47 0863.39
2015 04 09 12 22 48 .96    -111    362     15    379    380 343.0   2.3  33894  285.09 0863.39
2015 04 09 12 22 49 .20    -102    341      3    356    357 343.3   0.5  33886  284.96 0863.39
2015 04 09 12 22 49 .46    -115    316    -18    337    338 340.0  -3.1  33872  284.72 0863.39
2015 04 09 12 22 49 .71    -112    308    -27    328    330 340.0  -4.8  33872  284.71 0863.39
2015 04 09 12 22 49 .96    -108    311    -32    330    332 340.8  -5.6  33870  284.66 0863.39
2015 04 09 12 22 50 .21    -111    307    -34    327    329 340.0  -6.0  33868  284.63 0863.39
2015 04 09 12 22 50 .46    -112    302    -38    323    326 339.5  -6.7  33868  284.65 0863.39
2015 04 09 12 22 50 .72    -105    283    -43    303    307 339.5  -8.2  33868  284.63 0863.39
2015 04 09 12 22 50 .97    -101    277    -48    295    300 340.0  -9.3  33872  284.71 0863.39
2015 04 09 12 22 51 .22     -92    268    -45    284    288 341.1  -9.0  33870  284.68 0863.39
2015 04 09 12 22 51 .47    -101    253    -35    273    276 338.1  -7.3  33870  284.68 0863.39
2015 04 09 12 22 51 .72     -98    243    -48    263    268 338.1 -10.4  33870  284.68 0863.39
2015 04 09 12 22 51 .97    -100    239    -43    260    264 337.2  -9.4  33868  284.63 0863.39
2015 04 09 12 22 52 .22    -102    235    -37    257    260 336.4  -8.2  33870  284.68 0863.40
2015 04 09 12 22 52 .47    -100    230    -34    252    255 336.4  -7.7  33868  284.65 0863.40
2015 04 09 12 22 52 .73     -88    226    -13    243    244 338.6  -3.3  33874  284.75 0863.40
2015 04 09 12 22 52 .97     -73    222     -9    234    235 341.7  -2.2  33874  284.75 0863.40
2015 04 09 12 22 53 .23     -67    208      0    219    220 342.0   0.2  33914  285.43 0863.40
2015 04 09 12 22 53 .47     -73    219     -7    231    232 341.5  -1.8  33906  285.29 0863.40
2015 04 09 12 22 53 .72     -84    195    -25    213    215 336.6  -6.9  33886  284.96 0863.40
2015 04 09 12 22 53 .98     -74    202    -27    216    218 339.7  -7.3  33874  284.74 0863.40
2015 04 09 12 22 54 .23     -87    200    -20    219    221 336.4  -5.4  33876  284.77 0863.40
2015 04 09 12 22 54 .48     -93    203    -28    224    226 335.3  -7.2  33870  284.67 0863.40
2015 04 09 12 22 54 .73     -90    199    -23    219    221 335.5  -6.2  33868  284.64 0863.40
2015 04 09 12 22 54 .98     -80    205    -21    221    223 338.6  -5.6  33870  284.67 0863.40
2015 04 09 12 22 55 .23     -73    201    -21    215    217 340.0  -5.6  33870  284.67 0863.40
2015 04 09 12 22 55 .48     -69    202    -25    214    216 341.1  -6.9  33870  284.69 0863.40
2015 04 09 12 22 56 .23     -66    201     -8    212    213 341.7  -2.2  33870  284.69 0863.41
2015 04 09 12 22 56 .48     -70    196     -4    209    210 340.2  -1.3  33870  284.69 0863.41
2015 04 09 12 22 56 .73     -69    194    -14    206    207 340.4  -4.1  33872  284.72 0863.41
2015 04 09 12 22 56 .98     -52    189    -19    197    198 344.4  -5.6  33870  284.67 0863.41
2015 04 09 12 22 57 .24     -63    188     -7    199    200 341.3  -2.2  33874  284.74 0863.41
2015 04 09 12 22 57 .49     -53    190    -11    198    199 344.2  -3.3  33874  284.74 0863.41
2015 04 09 12 22 57 .75     -42    191      2    196    197 347.5   0.8  33916  285.46 0863.41
2015 04 09 12 22 57 .99     -53    190    -11    198    199 344.2  -3.3  33870  284.69 0863.40
2015 04 09 12 22 58 .25     -55    180     -6    189    190 343.1  -2.1  33872  284.72 0863.40
2015 04 09 12 22 58 .50     -54    181      1    189    190 343.3   0.5  33886  284.96 0863.40
2015 04 09 12 22 58 .75     -54    190     -7    198    199 344.0  -2.1  33870  284.67 0863.40
2015 04 09 12 22 59 .00     -52    194    -17    201    202 344.9  -5.1  33870  284.69 0863.40
2015 04 09 12 22 59 .25     -41    196    -15    201    202 348.0  -4.4  33888  284.99 0863.40
2015 04 09 12 22 59 .50     -43    185    -24    190    192 346.9  -7.2  33870  284.67 0863.40
2015 04 09 12 22 59 .75     -37    178    -32    182    185 348.2 -10.1  33870  284.69 0863.40
2015 04 09 12 23 00 .00     -42    163    -28    169    172 345.5  -9.6  33870  284.67 0863.40
2015 04 09 12 23 00 .25     -43    158     -3    164    165 344.6  -1.1  33914  285.43 0863.40
2015 04 09 12 23 00 .50     -46    153     -5    160    161 343.1  -2.1  33934  285.76 0863.40
2015 04 09 12 23 00 .75     -31    155      2    159    160 348.4   1.0  33970  286.37 0863.40
2015 04 09 12 23 01 .01     -13    149      9    150    151 354.7   3.8  33966  286.29 0863.40
2015 04 09 12 23 01 .25     -16    131     56    133    144 352.9  23.6  33990  286.69 0863.40
2015 04 09 12 23 01 .51     -24    137     38    140    146 349.8  15.2  33950  286.02 0863.40
2015 04 09 12 23 01 .75     -25    124     34    127    132 348.5  15.3  33980  286.52 0863.40
2015 04 09 12 23 02 .01      -1    123     24    124    127 359.5  11.1  33976  286.47 0863.40
2015 04 09 12 23 02 .25     -17    131     13    133    134 352.4   5.9  33964  286.25 0863.40
2015 04 09 12 23 02 .50     -35    115     -4    121    122 343.1  -2.2  33934  285.75 0863.40
2015 04 09 12 23 02 .75     -24    124     12    127    128 348.9   5.4  33930  285.68 0863.40
2015 04 09 12 23 03 .01     -55    138      2    149    150 338.2   0.8  33932  285.71 0863.40
2015 04 09 12 23 03 .26     -45    161     24    168    170 344.2   8.2  33892  285.04 0863.40
2015 04 09 12 23 03 .51     -50    164      0    172    173 343.1  -0.3  33878  284.82 0863.40
2015 04 09 12 23 03 .76     -38    157    -19    162    164 346.2  -6.9  33872  284.72 0863.40
2015 04 09 12 23 04 .01     -40    148    -19    154    156 344.9  -7.2  33876  284.77 0863.40
2015 04 09 12 23 04 .26     -44    150    -16    157    158 343.5  -6.0  33878  284.81 0863.40
2015 04 09 12 23 04 .52     -34    149    -19    153    155 347.1  -7.3  33876  284.79 0863.40
2015 04 09 12 23 04 .78     -26    151    -19    154    156 350.2  -7.2  33904  285.24 0863.40
2015 04 09 12 23 05 .02     -36    134     -5    139    140 344.8  -2.2  33898  285.14 0863.40
2015 04 09 12 23 05 .27     -39    141    -18    147    149 344.4  -7.2  33882  284.87 0863.40
2015 04 09 12 23 05 .52     -53    133    -18    144    146 338.2  -7.2  33882  284.87 0863.40
2015 04 09 12 23 05 .77     -53    133    -18    144    146 338.2  -7.2  33882  284.87 0863.40
2015 04 09 12 23 06 .02     -45    129    -17    137    139 340.4  -7.3  33884  284.92 0863.40
2015 04 09 12 23 06 .27     -57    121    -20    134    136 334.7  -8.8  33884  284.91 0863.40
2015 04 09 12 23 06 .52     -50    119    -16    130    132 337.3  -7.2  33880  284.84 0863.40
2015 04 09 12 23 06 .77     -52    109    -17    121    123 334.5  -8.2  33884  284.92 0863.40
2015 04 09 12 23 07 .03     -53    118    -17    130    132 335.9  -7.7  33882  284.87 0863.40
2015 04 09 12 23 07 .28     -48    134    -18    143    145 340.0  -7.3  33884  284.91 0863.40
2015 04 09 12 23 07 .53     -57    118    -25    132    135 334.1 -10.9  33886  284.94 0863.40
2015 04 09 12 23 07 .78     -59    135    -47    148    156 336.3 -17.6  33886  284.94 0863.40
2015 04 09 12 23 08 .03     -89    164    -12    187    188 331.5  -3.7  33896  285.11 0863.39
2015 04 09 12 23 08 .28     -71    128      1    147    148 331.1   0.7  33912  285.39 0863.39
2015 04 09 12 23 08 .53     -43    128      6    136    137 341.3   2.9  33906  285.28 0863.39
2015 04 09 12 23 08 .78     -31    124     12    128    129 345.7   5.4  33896  285.11 0863.39
2015 04 09 12 23 09 .03     -32     96      5    102    103 341.5   2.8  33896  285.11 0863.40
2015 04 09 12 23 09 .28     -65    122    -17    139    141 331.9  -7.2  33914  285.43 0863.40
2015 04 09 12 23 09 .53     -55    139    -13    150    151 338.2  -5.2  33944  285.93 0863.40
2015 04 09 12 23 09 .79     -64    127     20    143    145 333.3   8.0  33950  286.03 0863.40
2015 04 09 12 23 10 .03     -71    126     12    145    146 330.6   4.9  33952  286.05 0863.40
2015 04 09 12 23 10 .29     -66    141    -15    156    157 334.7  -5.6  33972  286.41 0863.40
2015 04 09 12 23 10 .53     -73    154     16    171    172 334.4   5.4  33974  286.44 0863.40
2015 04 09 12 23 10 .79     -47    171     -6    178    179 344.4  -2.2  33976  286.46 0863.40
2015 04 09 12 23 11 .04     -27    129     15    132    133 348.0   6.5  33988  286.66 0863.40
2015 04 09 12 23 11 .29     -41    133      9    140    141 342.6   3.8  33998  286.83 0863.40
2015 04 09 12 23 11 .55     -27     74     32     79     85 340.0  23.0  34012  287.08 0863.40
2015 04 09 12 23 11 .80     -14     99      7    101    102 351.5   4.4  33998  286.84 0863.40
2015 04 09 12 23 12 .05     -37    110     23    117    120 341.3  11.1  33998  286.83 0863.40
2015 04 09 12 23 12 .30     -60    153     -6    165    166 338.6  -2.1  33960  286.19 0863.40
2015 04 09 12 23 12 .55     -59    163    -11    174    175 340.0  -3.9  33968  286.32 0863.40
2015 04 09 12 23 12 .80     -69    187    -17    200    201 339.7  -4.9  33948  285.98 0863.40
2015 04 09 12 23 13 .05     -75    186     15    201    202 338.1   4.4  33968  286.32 0863.40
2015 04 09 12 23 13 .30     -57    219     40    227    231 345.3  10.1  33950  286.02 0863.40
2015 04 09 12 23 13 .55     -62    247      3    255    256 345.7   0.8  33896  285.12 0863.40
2015 04 09 12 23 13 .80     -62    247     17    255    256 345.7   3.9  33900  285.19 0863.40
2015 04 09 12 23 14 .06     -55    250     -5    257    258 347.5  -1.1  33880  284.83 0863.40
2015 04 09 12 23 14 .30     -47    236    -21    241    242 348.5  -5.2  33870  284.68 0863.40
2015 04 09 12 23 14 .55     -40    229    -22    233    235 350.0  -5.6  33874  284.75 0863.40
2015 04 09 12 23 14 .80     -39    215    -12    219    220 349.5  -3.2  33870  284.69 0863.40
2015 04 09 12 23 15 .05     -41    215    -12    219    220 349.1  -3.1  33874  284.74 0863.40
2015 04 09 12 23 15 .30     -41    215    -12    219    220 349.1  -3.1  33874  284.74 0863.40
2015 04 09 12 23 15 .55     -33    200    -15    203    204 350.4  -4.4  33872  284.72 0863.40
2015 04 09 12 23 15 .81     -33    200    -15    203    204 350.4  -4.4  33872  284.72 0863.40
2015 04 09 12 23 16 .05     -59    188     -9    198    199 342.6  -2.6  33872  284.72 0863.40
2015 04 09 12 23 16 .32     -31    191    -49    194    201 350.7 -14.3  33934  285.75 0863.40
2015 04 09 12 23 16 .56     -73    170    -21    186    188 336.6  -6.7  33982  286.57 0863.40
2015 04 09 12 23 16 .81     -77    159    -14    177    178 334.1  -4.6  33888  284.99 0863.40
2015 04 09 12 23 17 .06     -58    175     -9    185    186 341.5  -2.8  33934  285.76 0863.40
2015 04 09 12 23 17 .32     -36    179    -10    183    184 348.4  -3.1  33964  286.25 0863.40
2015 04 09 12 23 17 .56     -64    163    -15    176    177 338.4  -4.9  33932  285.73 0863.40
2015 04 09 12 23 17 .81     -57    179    -14    188    189 342.2  -4.4  33888  284.97 0863.40
2015 04 09 12 23 18 .07     -59    163    -11    174    175 340.0  -3.7  33942  285.90 0863.40
2015 04 09 12 23 18 .31     -60    154    -20    166    168 338.6  -6.9  33876  284.77 0863.40
2015 04 09 12 23 18 .58     -58    158    -23    169    171 339.7  -8.0  33878  284.82 0863.40
2015 04 09 12 23 18 .82     -55    137    -20    148    150 338.1  -7.7  33874  284.74 0863.40
2015 04 09 12 23 19 .07     -61    140    -25    153    156 336.3  -9.4  33870  284.69 0863.40
2015 04 09 12 23 19 .32     -48    142    -13    150    151 341.3  -5.2  33872  284.72 0863.40
2015 04 09 12 23 19 .57     -32    136    -18    140    142 346.6  -7.3  33876  284.77 0863.40
2015 04 09 12 23 19 .82     -43    128    -19    136    138 341.3  -8.2  33874  284.74 0863.40
2015 04 09 12 23 20 .07     -37    120     -8    126    127 342.6  -3.7  33876  284.77 0863.40
2015 04 09 12 23 20 .33     -31    130    -12    134    135 346.2  -5.2  33874  284.74 0863.40
2015 04 09 12 23 20 .58     -11    150     -5    151    152 355.5  -2.2  33898  285.14 0863.40
2015 04 09 12 23 20 .83      -2    142    -18    143    145 359.0  -7.2  33880  284.86 0863.40
2015 04 09 12 23 21 .08      -3    150    -21    151    153 358.6  -8.2  33882  284.87 0863.40
2015 04 09 12 23 21 .34      -2    149    -30    150    154 359.1 -11.3  33902  285.23 0863.40
2015 04 09 12 23 21 .58      12    119      8    120    121   5.8   3.8  33952  286.05 0863.40
2015 04 09 12 23 21 .84      15    115     34    117    122   7.6  16.3  33968  286.32 0863.40
2015 04 09 12 23 22 .08      11    139     22    140    142   4.9   9.0  34002  286.89 0863.40
2015 04 09 12 23 22 .34       6    135     39    136    142   2.6  16.3  34012  287.06 0863.40
2015 04 09 12 23 22 .59      27    136     49    139    148  11.5  19.4  34054  287.79 0863.40
2015 04 09 12 23 22 .83      35    133     55    138    148  15.1  23.0  34032  287.42 0863.40
2015 04 09 12 23 23 .09      18    128     57    130    141   8.0  25.1  34018  287.16 0863.40
2015 04 09 12 23 23 .34      39    131     46    137    145  16.9  18.9  34058  287.86 0863.40
2015 04 09 12 23 23 .58      45    133     71    141    157  18.7  29.1  34074  288.13 0863.40
2015 04 09 12 23 23 .84      20    177     63    179    190   6.5  19.4  34026  287.30 0863.40
2015 04 09 12 23 24 .08     -21    179     44    181    187 353.3  13.9  33982  286.56 0863.40
2015 04 09 12 23 24 .34       8    173     39    174    179   2.7  12.9  33938  285.82 0863.40
2015 04 09 12 23 24 .59      27    185     29    188    191   8.5   9.0  33916  285.46 0863.39
2015 04 09 12 23 24 .84      12    226     35    227    230   3.1   8.8  33948  286.00 0863.39
2015 04 09 12 23 25 .09      -4    243     -9    244    245 359.0  -2.2  33912  285.37 0863.39
2015 04 09 12 23 25 .34       5    200      0    201    202   1.6  -0.3  33898  285.14 0863.39
2015 04 09 12 23 25 .60       0    195    -15    196    197   0.0  -4.4  33910  285.36 0863.39
2015 04 09 12 23 25 .86      -3    254     -7    255    256 359.1  -1.6  33920  285.52 0863.39
2015 04 09 12 23 26 .11       0    243     13    244    245   0.0   3.1  33958  286.16 0863.39
2015 04 09 12 23 26 .35      33    266     63    269    277   7.1  13.2  33972  286.40 0863.40
2015 04 09 12 23 26 .60       7    255     21    256    258   1.8   4.9  33980  286.53 0863.40
2015 04 09 12 23 26 .85       6    240     13    241    242   1.6   3.1  33976  286.45 0863.40
2015 04 09 12 23 27 .11     -30    274    -25    276    278 353.7  -5.4  33960  286.20 0863.40
2015 04 09 12 23 27 .36     -43    277     -6    281    282 351.1  -1.3  34004  286.92 0863.40
2015 04 09 12 23 27 .61     -23    285     24    287    289 355.3   4.9  34050  287.71 0863.40
2015 04 09 12 23 27 .85     -33    279     44    282    286 353.1   9.0  34052  287.73 0863.40
2015 04 09 12 23 28 .10     -59    237     24    245    247 345.8   5.7  34050  287.71 0863.40
2015 04 09 12 23 28 .36     -94    284      1    300    301 341.7   0.2  33986  286.62 0863.40
2015 04 09 12 23 28 .60     -67    282    -45    290    294 346.6  -8.8  33968  286.33 0863.40
2015 04 09 12 23 28 .85     -74    268    -23    279    281 344.4  -4.9  33926  285.62 0863.40
2015 04 09 12 23 29 .11     -69    242     -9    252    253 344.0  -2.2  33918  285.49 0863.40
2015 04 09 12 23 29 .36     -52    257      7    263    264 348.4   1.6  33920  285.52 0863.40
2015 04 09 12 23 29 .61     -62    246     12    254    255 345.7   2.8  33920  285.52 0863.40
2015 04 09 12 23 29 .86     -50    236    -11    242    243 348.0  -2.6  33924  285.57 0863.39
2015 04 09 12 23 30 .11     -38    225    -12    229    230 350.2  -3.2  33924  285.58 0863.39
2015 04 09 12 23 30 .36     -37    265    -28    268    270 352.0  -6.1  33924  285.57 0863.39
2015 04 09 12 23 30 .61     -33    265     -2    268    269 352.9  -0.5  33922  285.54 0863.39
2015 04 09 12 23 30 .86     -24    262     -1    264    265 354.6  -0.3  33920  285.52 0863.39
2015 04 09 12 23 31 .12     -43    255     11    259    260 350.4   2.5  33904  285.25 0863.39
2015 04 09 12 23 31 .36     -21    256      2    258    259 355.1   0.5  33918  285.47 0863.39
2015 04 09 12 23 31 .62     -58    262     32    269    271 347.5   6.9  33898  285.15 0863.39
2015 04 09 12 23 31 .87     -63    250      0    259    260 345.7   0.0  33908  285.30 0863.40
2015 04 09 12 23 32 .11     -56    242     -9    249    250 346.9  -2.2  33910  285.34 0863.40
2015 04 09 12 23 32 .37     -51    243    -11    249    250 348.0  -2.6  33908  285.30 0863.40
2015 04 09 12 23 32 .62     -73    247    -36    258    261 343.5  -8.0  33888  284.97 0863.40
2015 04 09 12 23 32 .87     -59    238    -27    246    248 346.0  -6.5  33882  284.88 0863.40
2015 04 09 12 23 33 .13     -62    229    -31    238    241 344.8  -7.5  33898  285.15 0863.40
2015 04 09 12 23 33 .38     -19    217    -60    218    227 354.9 -15.5  33908  285.33 0863.40
2015 04 09 12 23 33 .63     -38    228    -42    232    236 350.4 -10.4  33902  285.20 0863.40
2015 04 09 12 23 33 .88     -35    216    -37    219    223 350.7  -9.6  33906  285.28 0863.40
2015 04 09 12 23 34 .13     -38    220    -28    224    226 350.2  -7.2  33898  285.14 0863.40
2015 04 09 12 23 34 .38      -9    215    -34    216    219 357.5  -9.0  33902  285.21 0863.40
2015 04 09 12 23 34 .64       0    225    -29    226    228 359.8  -7.5  33910  285.34 0863.40
2015 04 09 12 23 34 .88      -3    235    -12    236    237 359.1  -3.1  33924  285.59 0863.40
2015 04 09 12 23 35 .14     -29    233     11    235    236 352.9   2.9  33938  285.83 0863.40
2015 04 09 12 23 35 .39     -47    233     33    238    241 348.5   8.0  34000  286.87 0863.41
2015 04 09 12 23 35 .63     -42    209     58    214    222 348.4  15.3  34060  287.89 0863.41
2015 04 09 12 23 35 .88     -37    187      9    191    192 348.7   2.9  33948  286.00 0863.41
2015 04 09 12 23 36 .13      -8    185    -14    186    187 357.5  -4.6  33914  285.41 0863.41
2015 04 09 12 23 36 .39      -1    186    -51    187    195 359.5 -15.4  33898  285.16 0863.41
2015 04 09 12 23 36 .63       9    171    -41    172    177   3.1 -13.7  33902  285.21 0863.41
2015 04 09 12 23 36 .89       0    130    -41    131    138   0.0 -17.5  33896  285.11 0863.41
2015 04 09 12 23 37 .15       1    113    -30    114    119   1.0 -15.0  33936  285.80 0863.41
2015 04 09 12 23 37 .38      22    194    -20    196    198   6.7  -6.0  33916  285.46 0863.41
2015 04 09 12 23 37 .63      27    195    -38    198    202   8.1 -11.1  33890  285.02 0863.41
2015 04 09 12 23 37 .89      20    212    -43    214    219   5.6 -11.3  33918  285.48 0863.41
2015 04 09 12 23 38 .14      83    210    -12    226    227  21.6  -3.2  33996  286.79 0863.40
2015 04 09 12 23 38 .39      49    216    -50    222    228  12.9 -12.9  33942  285.88 0863.40
2015 04 09 12 23 38 .64     109    214    -72    241    252  27.0 -16.8  33956  286.13 0863.40
2015 04 09 12 23 38 .89     144    215    -52    260    266  33.8 -11.3  33932  285.72 0863.40
2015 04 09 12 23 39 .14      80    195     83    211    226  22.3  23.0  33954  286.10 0863.40
2015 04 09 12 23 39 .40      78    216     60    230    238  20.0  14.7  33958  286.15 0863.40
2015 04 09 12 23 39 .66      63    178     51    190    197  19.6  15.0  34004  286.94 0863.40
2015 04 09 12 23 39 .90      23    226     76    228    241   5.8  18.6  34010  287.02 0863.40
2015 04 09 12 23 40 .15      35    246     30    249    251   8.2   6.9  33972  286.38 0863.40
2015 04 09 12 23 40 .41     -39    241    -13    245    246 350.7  -3.2  33988  286.65 0863.40
2015 04 09 12 23 40 .65     -23    311     -6    312    313 355.6  -1.3  33974  286.43 0863.40
2015 04 09 12 23 40 .91     -47    288      4    292    293 350.7   0.8  33974  286.42 0863.40
2015 04 09 12 23 41 .15     -56    276    -34    282    285 348.5  -6.9  33904  285.25 0863.40
2015 04 09 12 23 41 .41     -39    241    -28    245    247 350.7  -6.7  33944  285.91 0863.40
2015 04 09 12 23 41 .66     -35    215     50    218    224 350.7  13.1  34000  286.86 0863.40
2015 04 09 12 23 41 .91     -62    246     49    254    259 345.8  11.0  33990  286.70 0863.40
2015 04 09 12 23 42 .16     -66    217     32    227    230 343.1   8.0  34032  287.42 0863.40
2015 04 09 12 23 42 .41     -37    213     42    217    222 350.0  11.0  34024  287.28 0863.40
2015 04 09 12 23 42 .66     -39    188     60    193    203 348.2  17.4  34008  287.01 0863.40
2015 04 09 12 23 42 .91     -71    234     61    245    253 343.1  14.2  33986  286.63 0863.40
2015 04 09 12 23 43 .16     -62    247     17    255    256 345.7   3.9  33970  286.35 0863.40
2015 04 09 12 23 43 .42     -49    184     49    191    198 344.9  14.5  34016  287.15 0863.40
2015 04 09 12 23 43 .67     -59    225    104    233    255 345.3  25.7  34090  288.39 0863.40
2015 04 09 12 23 43 .91     -56    241     34    248    251 346.9   8.0  33948  285.98 0863.40
2015 04 09 12 23 44 .16     -69    240    -13    250    251 344.0  -3.2  33926  285.61 0863.40
2015 04 09 12 23 44 .41     -70    207    -75    219    232 341.3 -19.1  33928  285.65 0863.40
2015 04 09 12 23 44 .66     -61    235    -30    243    245 345.3  -7.2  33928  285.64 0863.40
2015 04 09 12 23 44 .91     -69    206    -28    218    220 341.3  -7.3  33934  285.75 0863.40
2015 04 09 12 23 45 .16     -61    195    -36    205    209 342.6 -10.1  33934  285.76 0863.40
2015 04 09 12 23 45 .41     -65    197    -34    208    211 341.5  -9.3  33936  285.80 0863.39
2015 04 09 12 23 45 .67     -47    194    -18    200    201 346.2  -5.4  33942  285.88 0863.39
2015 04 09 12 23 45 .91     -46    201    -11    207    208 347.1  -3.3  33940  285.85 0863.39
2015 04 09 12 23 46 .17     -51    187    -32    194    197 344.6  -9.4  33936  285.80 0863.39
2015 04 09 12 23 46 .42     -60    181    -58    191    200 341.5 -17.0  33924  285.58 0863.39
2015 04 09 12 23 46 .67     -50    166    -62    174    185 343.1 -19.7  33910  285.34 0863.39
2015 04 09 12 23 46 .93     -37    170    -40    175    180 347.7 -12.9  33922  285.55 0863.39
2015 04 09 12 23 47 .18     -56    186    -38    195    199 343.1 -11.1  33950  286.02 0863.39
2015 04 09 12 23 47 .43     -71    206    -65    219    229 340.8 -16.6  33942  285.90 0863.39
2015 04 09 12 23 47 .68     -69    205    -64    217    226 341.3 -21.2  33932  285.71 0863.39
2015 04 09 12 23 47 .93     -60    205    -68    214    224 343.7 -23.0  33934  285.76 0863.39
2015 04 09 12 23 48 .18     -77    206    -38    221    225 339.5  -9.8  33926  285.63 0863.39
2015 04 09 12 23 48 .43     -63    206    -22    216    218 343.0  -6.0  33930  285.70 0863.39
2015 04 09 12 23 48 .69     -43    212    -32    217    220 348.4  -8.6  33934  285.76 0863.39
2015 04 09 12 23 48 .94     -24    182    -50    184    191 352.4 -15.2  33950  286.02 0863.39
2015 04 09 12 23 49 .18     -28    138    -28    141    144 348.5 -11.5  33938  285.82 0863.39
2015 04 09 12 23 49 .43     -64    194     10    205    206 341.5   2.8  33956  286.12 0863.39
2015 04 09 12 23 49 .69     -41    176     28    181    184 346.9   8.8  33960  286.19 0863.39
2015 04 09 12 23 49 .94     -50    149     42    158    164 341.3  15.0  33990  286.69 0863.39
2015 04 09 12 23 50 .19     -65    232     40    242    246 344.2   9.5  33998  286.82 0863.39
2015 04 09 12 23 50 .44     -57    262     52    269    275 347.6  11.1  34020  287.19 0863.39
2015 04 09 12 23 50 .70     -48    259     67    264    273 349.4  14.3  34036  287.48 0863.39
2015 04 09 12 23 50 .94       5    222     60    223    232   1.4  15.2  34022  287.25 0863.39
2015 04 09 12 23 51 .19      18    249     44    250    254   4.2  10.1  33994  286.77 0863.39
2015 04 09 12 23 51 .44     -62    260     63    268    276 346.4  13.2  33992  286.72 0863.39
2015 04 09 12 23 51 .69     -45    266     84    270    283 350.2  17.3  34014  287.11 0863.39
2015 04 09 12 23 51 .94     -27    267     61    269    276 354.2  12.9  34054  287.77 0863.39
2015 04 09 12 23 52 .19     -31    302     53    304    309 354.0  10.0  34066  287.99 0863.39
2015 04 09 12 23 52 .44     -23    305      6    307    308 355.5   1.2  33894  285.07 0863.39
2015 04 09 12 23 52 .69     -28    296     -6    298    299 354.6  -1.2  33890  285.00 0863.38
2015 04 09 12 23 52 .94     -21    277    -10    278    279 355.5  -2.2  33890  285.02 0863.38
2015 04 09 12 23 53 .20     -10    246    -57    247    254 357.5 -13.2  33898  285.15 0863.38
2015 04 09 12 23 53 .45       0    196    -51    197    204   0.0 -14.5  33894  285.09 0863.38
2015 04 09 12 23 53 .70       0    185    -51    186    194   0.0 -15.5  33892  285.06 0863.38
2015 04 09 12 23 53 .95      -5    214    -27    215    217 358.6  -7.3  33896  285.11 0863.38
2015 04 09 12 23 54 .21     -16    214     -4    215    216 355.6  -1.2  33900  285.19 0863.38
2015 04 09 12 23 54 .46      -5    201    -29    202    205 358.4  -8.2  33904  285.24 0863.38
2015 04 09 12 23 54 .71     -23    190    -49    192    199 352.9 -14.5  33898  285.16 0863.38
2015 04 09 12 23 54 .96     -35    198     -9    202    203 349.8  -2.6  33896  285.11 0863.38
2015 04 09 12 23 55 .21      -8    216    -12    217    218 357.8  -3.2  33916  285.46 0863.38
2015 04 09 12 23 55 .46      56    220    -44    228    233  14.3 -10.9  33958  286.17 0863.38
2015 04 09 12 23 55 .71      32    227    -46    230    235   8.2 -11.3  33986  286.62 0863.38
2015 04 09 12 23 55 .96      27    196    -54    198    206   8.0 -15.4  34034  287.43 0863.38
2015 04 09 12 23 56 .21      15    202    -19    203    204   4.5  -5.4  33986  286.62 0863.38
2015 04 09 12 23 56 .46      26    189      9    191    192   8.0   2.9  33964  286.27 0863.38
2015 04 09 12 23 56 .72      24    176      7    178    179   8.0   2.5  33982  286.57 0863.38
2015 04 09 12 23 56 .96      34    170     11    174    175  11.3   3.8  34022  287.25 0863.38
2015 04 09 12 23 57 .21      74    230     38    242    246  18.0   8.9  34050  287.70 0863.38
2015 04 09 12 23 57 .46      55    270    -53    276    282  11.6 -10.9  33932  285.72 0863.38
2015 04 09 12 23 57 .72      18    268    -13    269    270   4.0  -2.8  33970  286.36 0863.38
2015 04 09 12 23 57 .97       6    241     15    242    243   1.6   3.6  33994  286.77 0863.38
2015 04 09 12 23 58 .21     -49    344    -19    348    349 351.8  -3.2  34026  287.29 0863.38
2015 04 09 12 23 58 .47     -36    332    -35    335    337 353.7  -6.1  33964  286.27 0863.38
2015 04 09 12 23 58 .72     -26    309    -72    311    320 355.1 -13.1  33988  286.65 0863.38
2015 04 09 12 23 58 .97      34    238    -52    241    247   8.2 -12.2  33986  286.62 0863.38
2015 04 09 12 23 59 .22      73    241     63    252    260  16.9  14.2  34006  286.97 0863.38
2015 04 09 12 23 59 .47      34    188     92    192    212  10.5  27.3  33996  286.81 0863.38
2015 04 09 12 23 59 .72     -19    168     32    170    174 353.3  10.8  34006  286.96 0863.38
2015 04 09 12 23 59 .97     -17    256     60    257    264 356.2  13.2  33990  286.70 0863.38
2015 04 09 12 24 00 .23     -36    258     81    261    274 352.0  17.3  33996  286.80 0863.38
2015 04 09 12 24 00 .48     -69    317     54    325    330 347.6   9.5  34066  287.97 0863.38
2015 04 09 12 24 00 .74     -67    322     41    329    332 348.2   7.1  34086  288.32 0863.38
2015 04 09 12 24 00 .98     -48    261     92    266    282 349.4  19.2  34098  288.53 0863.38
2015 04 09 12 24 01 .23     -37    300     68    303    311 352.8  12.8  34058  287.83 0863.38
2015 04 09 12 24 01 .49    -107    294    -29    314    316 340.0  -5.3  34022  287.22 0863.38
2015 04 09 12 24 01 .73    -123    261    -59    289    296 334.7 -11.6  33914  285.40 0863.38
2015 04 09 12 24 01 .98     -81    252    -75    265    276 342.2 -15.8  33904  285.25 0863.38
2015 04 09 12 24 02 .24     -73    232    -59    244    252 342.4 -13.7  33930  285.67 0863.38
2015 04 09 12 24 02 .49     -18    237    -61    238    246 355.5 -14.4  33972  286.40 0863.38
2015 04 09 12 24 02 .74     -16    251      3    252    253 356.2   0.8  33988  286.67 0863.38
2015 04 09 12 24 02 .99     -52    256     61    262    269 348.4  13.1  33994  286.75 0863.38
2015 04 09 12 24 03 .24      -9    292     16    293    294 358.2   3.3  33994  286.75 0863.38
2015 04 09 12 24 03 .49     -76    357      4    366    367 347.9   0.7  34018  287.17 0863.38
2015 04 09 12 24 03 .75     -71    330     42    338    341 347.7   7.2  34050  287.71 0863.38
2015 04 09 12 24 03 .99    -169    364    -13    402    403 335.1  -1.9  34036  287.49 0863.38
2015 04 09 12 24 04 .24    -151    328    -61    362    368 335.3  -9.6  34012  287.07 0863.38
2015 04 09 12 24 04 .49    -119    272    -11    298    299 336.4  -2.2  34010  287.02 0863.38
2015 04 09 12 24 04 .74    -106    253    -10    275    276 337.3  -2.3  34034  287.43 0863.38
2015 04 09 12 24 04 .99     -85    248    -44    263    267 340.9  -9.6  34014  287.11 0863.38
2015 04 09 12 24 05 .25     -49    225      3    231    232 347.7   0.8  34046  287.65 0863.38
2015 04 09 12 24 05 .49    -176    289    -70    339    347 328.6 -11.8  34028  287.34 0863.38
2015 04 09 12 24 05 .74    -152    275    -60    315    321 331.1 -10.9  34026  287.29 0863.38
2015 04 09 12 24 05 .99    -127    255    -41    285    289 333.5  -8.3  34022  287.24 0863.38
2015 04 09 12 24 06 .24    -173    218    -45    279    283 321.5  -9.3  34014  287.11 0863.38
2015 04 09 12 24 06 .49     -73    249    -68    260    269 343.5 -14.7  33992  286.72 0863.38
2015 04 09 12 24 06 .74       0    182     -7    183    184   0.0  -2.2  33996  286.81 0863.38
2015 04 09 12 24 07 .00       3    216     59    217    225   1.0  15.3  33994  286.78 0863.38
2015 04 09 12 24 07 .26     -27    243     57    245    252 353.5  13.2  34002  286.89 0863.38
2015 04 09 12 24 07 .51     -31    226     71    229    240 352.0  17.3  34032  287.39 0863.38
2015 04 09 12 24 07 .75      -8    275     48    276    281 358.2  10.0  34068  288.02 0863.38
2015 04 09 12 24 08 .01     -28    261     26    263    265 353.8   5.7  34024  287.26 0863.38
2015 04 09 12 24 08 .26     -73    269     -1    279    280 344.8  -0.3  33998  286.82 0863.38
2015 04 09 12 24 08 .51    -103    237    -31    259    261 336.4  -6.9  34010  287.04 0863.38
2015 04 09 12 24 08 .76     -84    249      9    263    264 341.3   2.1  34018  287.17 0863.38
2015 04 09 12 24 09 .01     -74    223      5    236    237 341.5   1.2  34020  287.19 0863.38
2015 04 09 12 24 09 .26     -59    200     17    209    210 343.5   4.9  34024  287.27 0863.38
2015 04 09 12 24 09 .51     -43    138      0    145    146 342.6  -0.3  34028  287.35 0863.38
2015 04 09 12 24 09 .76     -40     85     33     95    101 334.6  19.4  34044  287.62 0863.38
2015 04 09 12 24 10 .01     -50    131     57    141    152 339.1  23.0  34058  287.86 0863.38
2015 04 09 12 24 10 .26     -53    124     76    135    154 336.8  31.4  34048  287.67 0863.38
2015 04 09 12 24 10 .51      26    188     67    190    202   8.0  19.4  34034  287.43 0863.38
2015 04 09 12 24 10 .76     -13    164     59    165    175 355.1  20.0  34044  287.62 0863.38
2015 04 09 12 24 11 .02      -9    168     54    169    178 356.9  17.7  34034  287.43 0863.38
2015 04 09 12 24 11 .27      -6    149     62    150    162 357.4  23.6  34072  288.08 0863.38
2015 04 09 12 24 11 .52     -13    134     68    135    151 354.2  28.2  34090  288.38 0863.38
2015 04 09 12 24 11 .76       6    144     39    145    151   2.6  15.2  34046  287.65 0863.38
2015 04 09 12 24 12 .02       5    152     53    153    163   2.2  19.2  34056  287.81 0863.38
2015 04 09 12 24 12 .27       0    149     50    150    159   0.0  18.4  34086  288.33 0863.38
2015 04 09 12 24 12 .51      14    197     31    198    201   4.2   9.0  34030  287.38 0863.38
2015 04 09 12 24 12 .77      15    196     23    197    199   4.5   6.9  34060  287.89 0863.38
2015 04 09 12 24 13 .02     -17    174     42    175    181 354.2  13.7  34038  287.50 0863.38
2015 04 09 12 24 13 .27     -27    164     79    167    184 350.4  27.2  34050  287.70 0863.38
2015 04 09 12 24 13 .52     -37    185     57    189    198 348.4  16.8  34126  288.99 0863.38
2015 04 09 12 24 13 .78      -4    194     57    195    204 358.6  16.3  34158  289.53 0863.38
2015 04 09 12 24 14 .02     -41    203     73    208    221 348.4  19.4  34178  289.89 0863.38
2015 04 09 12 24 14 .28     -46    214     82    220    234 347.7  21.3  34126  289.01 0863.38
2015 04 09 12 24 14 .54     -29    209     18    212    213 352.0   5.0  34040  287.55 0863.38
2015 04 09 12 24 14 .78     -13    212     47    213    219 356.4  12.6  34036  287.49 0863.38
2015 04 09 12 24 15 .04     -25    168    104    170    199 351.5  34.4  34102  288.58 0863.38
2015 04 09 12 24 15 .29     -58    143     91    155    179 337.7  33.1  34124  288.96 0863.38
2015 04 09 12 24 15 .53     -80    255     52    268    274 342.4  11.1  34158  289.53 0863.38
2015 04 09 12 24 15 .78     -45    301     -1    305    306 351.5  -0.3  33958  286.16 0863.38
2015 04 09 12 24 16 .04     -59    291     14    298    299 348.4   2.8  33960  286.18 0863.38
2015 04 09 12 24 16 .29     -18    289     45    290    294 356.4   9.0  33962  286.21 0863.38
2015 04 09 12 24 16 .53       0    245     38    246    249   0.2   8.8  33962  286.21 0863.38
2015 04 09 12 24 16 .79     -33    285     27    287    289 353.3   5.4  33950  286.03 0863.38
2015 04 09 12 24 17 .04     -87    269     22    283    284 342.0   4.6  33968  286.33 0863.38
2015 04 09 12 24 17 .29     -84    256    -54    270    276 341.7 -11.3  34012  287.06 0863.38
2015 04 09 12 24 17 .54    -174    235    -78    293    304 323.5 -15.0  33990  286.68 0863.38
2015 04 09 12 24 17 .79    -202    183    -65    273    281 312.2 -13.4  34006  286.95 0863.38
2015 04 09 12 24 18 .04    -177    171    -82    247    260 314.0 -23.8  34014  287.11 0863.38
2015 04 09 12 24 18 .29    -180    152    -56    236    243 310.2 -13.4  34004  286.92 0863.38
2015 04 09 12 24 18 .54    -113    130    -22    173    175 319.2  -7.3  33992  286.74 0863.38
2015 04 09 12 24 18 .79    -119    165    -43    204    209 324.0 -11.9  33980  286.54 0863.38
2015 04 09 12 24 19 .04    -114    206    -65    236    245 331.0 -15.4  33964  286.26 0863.38
2015 04 09 12 24 19 .30     -71    219    -38    231    235 342.0  -9.3  33976  286.45 0863.38
2015 04 09 12 24 19 .54     -76    208    -45    222    227 340.0 -11.6  33970  286.35 0863.38
2015 04 09 12 24 19 .79     -64    215    -37    225    229 343.3  -9.4  33970  286.37 0863.38
2015 04 09 12 24 20 .05     -35    216     18    219    220 350.7   4.9  33952  286.07 0863.38
2015 04 09 12 24 20 .30      16    237     22    238    240   4.0   5.4  33968  286.31 0863.38
2015 04 09 12 24 20 .54      16    237     22    238    240   4.0   5.4  33958  286.15 0863.38
2015 04 09 12 24 20 .79      10    230     17    231    232   2.6   4.2  33956  286.14 0863.38
2015 04 09 12 24 21 .06      16    237      6    238    239   4.0   1.6  33968  286.31 0863.38
2015 04 09 12 24 21 .31     -12    283     44    284    288 357.4   8.8  33968  286.33 0863.38
2015 04 09 12 24 21 .56      -1    293     46    294    298 359.8   8.9  33976  286.47 0863.38
2015 04 09 12 24 21 .81      -9    314     23    315    316 358.2   4.3  33976  286.45 0863.38
2015 04 09 12 24 22 .06     -19    314     35    315    317 356.4   6.4  34020  287.21 0863.38
2015 04 09 12 24 22 .31     -22    297     39    298    301 355.6   7.5  34046  287.63 0863.38
2015 04 09 12 24 22 .56     -55    289     80    295    306 349.1  15.3  34086  288.32 0863.38
2015 04 09 12 24 22 .81     -18    230     54    231    238 355.5  13.2  34004  286.94 0863.38
2015 04 09 12 24 23 .06     -59    261     63    268    276 347.1  13.2  34100  288.54 0863.38
2015 04 09 12 24 23 .31     -28    296    -40    298    301 354.6  -7.7  33932  285.71 0863.38
2015 04 09 12 24 23 .57      -8    264     -5    265    266 358.2  -1.1  33942  285.88 0863.38
2015 04 09 12 24 23 .82     -54    333     48    338    342 350.8   8.2  33986  286.64 0863.38
2015 04 09 12 24 24 .06     -62    379     25    385    386 350.7   3.7  34052  287.74 0863.38
2015 04 09 12 24 24 .31    -117    346     -1    366    367 341.2  -0.2  34026  287.32 0863.38
2015 04 09 12 24 24 .56     -98    356      0    370    371 344.5   0.0  34008  287.00 0863.38
2015 04 09 12 24 24 .82    -107    387      1    402    403 344.4   0.2  33968  286.33 0863.38
2015 04 09 12 24 25 .06    -101    398     -8    411    412 345.7  -1.2  33926  285.63 0863.38
2015 04 09 12 24 25 .31     -83    412     -9    421    422 348.5  -1.3  33900  285.19 0863.38
2015 04 09 12 24 25 .57     -95    402    -13    414    415 346.7  -1.9  33906  285.27 0863.38
2015 04 09 12 24 25 .82    -105    401    -16    415    416 345.3  -2.2  33890  285.00 0863.38
2015 04 09 12 24 26 .07    -109    400    -36    415    417 344.7  -5.1  33886  284.94 0863.38
2015 04 09 12 24 26 .32    -112    413    -16    429    430 344.8  -2.2  33926  285.63 0863.38
2015 04 09 12 24 26 .57    -107    407    -16    421    422 345.2  -2.3  33950  286.03 0863.38
2015 04 09 12 24 26 .82    -112    388     28    404    405 343.9   4.0  33968  286.32 0863.38
2015 04 09 12 24 27 .07    -109    383     -6    399    400 344.1  -0.9  33898  285.15 0863.38
2015 04 09 12 24 27 .32    -101    372    -20    386    387 344.8  -3.0  33882  284.88 0863.38
2015 04 09 12 24 27 .57    -107    364    -15    380    381 343.6  -2.3  33886  284.96 0863.38
2015 04 09 12 24 27 .82    -112    329    -23    348    349 341.1  -3.8  33886  284.93 0863.38
2015 04 09 12 24 28 .08    -111    316    -19    336    337 340.6  -3.3  33886  284.96 0863.38
2015 04 09 12 24 28 .34    -119    319    -19    341    342 339.5  -3.3  33890  285.01 0863.38
2015 04 09 12 24 28 .59    -154    366    -51    398    402 337.2  -7.4  33914  285.43 0863.38
2015 04 09 12 24 28 .83    -152    338    -42    371    374 335.7  -6.6  33912  285.38 0863.38
2015 04 09 12 24 29 .09    -124    380    -26    400    401 341.9  -3.8  33946  285.95 0863.38
2015 04 09 12 24 29 .34     -67    323      2    330    331 348.2   0.5  33958  286.17 0863.38
2015 04 09 12 24 29 .59     -42    303     14    307    308 352.0   2.8  33960  286.18 0863.38
2015 04 09 12 24 29 .84     -41    288     24    292    294 351.8   4.9  33974  286.42 0863.39
2015 04 09 12 24 30 .09     -36    235     83    238    253 351.1  19.2  34000  286.87 0863.39
2015 04 09 12 24 30 .34    -149    316    -19    350    351 334.8  -3.1  33952  286.04 0863.39
2015 04 09 12 24 30 .59    -150    341    -48    373    377 336.3  -7.3  33886  284.96 0863.39
2015 04 09 12 24 30 .84    -145    333    -47    364    368 336.4  -7.5  33882  284.88 0863.39
2015 04 09 12 24 31 .09    -106    332    -31    349    351 342.2  -5.2  33886  284.94 0863.39
2015 04 09 12 24 31 .34    -124    330     -7    353    354 339.3  -1.2  33884  284.91 0863.39
2015 04 09 12 24 31 .59     -94    364     -2    376    377 345.5  -0.4  33896  285.11 0863.38
2015 04 09 12 24 31 .84    -110    359     -7    376    377 343.0  -1.2  33888  284.98 0863.38
2015 04 09 12 24 32 .09    -121    323     -7    346    347 339.4  -1.3  33892  285.03 0863.38
2015 04 09 12 24 32 .34    -139    348    -20    375    376 338.2  -3.2  33890  285.01 0863.38
2015 04 09 12 24 32 .59    -124    338     -7    361    362 339.8  -1.3  33886  284.96 0863.39
2015 04 09 12 24 32 .84    -116    330     -5    350    351 340.6  -0.9  33892  285.04 0863.39
2015 04 09 12 24 33 .09    -130    332    -18    357    358 338.5  -3.0  33892  285.03 0863.39
2015 04 09 12 24 33 .35    -111    324    -13    343    344 341.1  -2.2  33894  285.09 0863.39
2015 04 09 12 24 33 .60    -124    330     -7    353    354 339.3  -1.2  33906  285.28 0863.39
2015 04 09 12 24 33 .85     -97    331      9    346    347 343.6   1.6  33920  285.53 0863.39
2015 04 09 12 24 34 .10     -89    332    -16    344    345 345.0  -2.8  33924  285.57 0863.39
2015 04 09 12 24 34 .35     -72    245     38    256    259 343.5   8.5  33954  286.08 0863.38
2015 04 09 12 24 34 .60     -97    288     -6    305    306 341.3  -1.3  33956  286.13 0863.38
2015 04 09 12 24 34 .85    -148    324    -43    357    360 335.4  -6.9  33978  286.51 0863.38
2015 04 09 12 24 35 .11    -122    278    -17    304    305 336.3  -3.3  34004  286.92 0863.38
2015 04 09 12 24 35 .35    -160    290    -44    332    335 331.1  -7.7  33908  285.33 0863.38
2015 04 09 12 24 35 .61    -157    270    -67    313    321 329.9 -12.2  33884  284.90 0863.38
2015 04 09 12 24 35 .87    -154    260    -49    303    308 329.3  -9.3  33908  285.30 0863.38
2015 04 09 12 24 36 .11    -137    277    -44    310    314 333.7  -8.2  33944  285.93 0863.38
2015 04 09 12 24 36 .36    -123    260    -13    288    289 334.7  -2.6  33970  286.36 0863.38
2015 04 09 12 24 36 .61    -101    245     -5    266    267 337.5  -1.3  33972  286.38 0863.38
2015 04 09 12 24 36 .86    -108    247    -24    270    272 336.3  -5.2  33948  285.99 0863.38
2015 04 09 12 24 37 .12    -117    260    -11    286    287 335.7  -2.2  33948  285.99 0863.38
2015 04 09 12 24 37 .37     -90    247    -24    264    266 340.0  -5.2  33946  285.96 0863.38
2015 04 09 12 24 37 .62    -101    251    -24    271    273 338.1  -5.1  33936  285.77 0863.38
2015 04 09 12 24 37 .87    -105    232    -18    255    256 335.7  -4.1  33946  285.94 0863.38
2015 04 09 12 24 38 .12     -84    255     -9    269    270 341.7  -2.1  33946  285.94 0863.38
2015 04 09 12 24 38 .37     -83    209    -25    226    228 338.2  -6.5  33908  285.33 0863.38
2015 04 09 12 24 38 .62     -71    235    -26    246    248 343.1  -6.1  33916  285.44 0863.38
2015 04 09 12 24 38 .87     -62    230    -17    239    240 344.9  -4.1  33892  285.05 0863.38
2015 04 09 12 24 39 .12     -53    239    -13    245    246 347.3  -3.1  33894  285.07 0863.38
2015 04 09 12 24 39 .37     -64    251    -11    260    261 345.7  -2.6  33892  285.05 0863.38
2015 04 09 12 24 39 .62     -64    260    -19    268    269 346.0  -4.1  33890  285.02 0863.38
2015 04 09 12 24 39 .87     -72    253     -1    264    265 344.0  -0.3  33898  285.15 0863.38
2015 04 09 12 24 40 .12     -74    266     -1    277    278 344.4  -0.3  33904  285.24 0863.38
2015 04 09 12 24 40 .37     -67    287    -30    295    297 346.7  -6.0  33892  285.03 0863.38
2015 04 09 12 24 40 .62     -54    290    -31    295    297 349.4  -6.1  33894  285.07 0863.38
2015 04 09 12 24 40 .87     -68    295    -47    303    307 346.9  -8.8  33900  285.19 0863.38
2015 04 09 12 24 41 .12     -96    257    -37    275    278 339.5  -7.7  33910  285.35 0863.38
2015 04 09 12 24 41 .37     -71    264    -26    274    276 344.8  -5.6  33892  285.05 0863.38
2015 04 09 12 24 41 .63     -82    234    -17    249    250 340.6  -4.1  33904  285.25 0863.38
2015 04 09 12 24 41 .88     -78    236     -9    249    250 341.5  -2.3  33914  285.42 0863.38
2015 04 09 12 24 42 .13     -78    235      0    248    249 341.5   0.2  33918  285.47 0863.38
2015 04 09 12 24 42 .39     -82    269     13    282    283 343.1   2.8  33922  285.56 0863.38
2015 04 09 12 24 42 .63     -63    309     -8    316    317 348.4  -1.6  33928  285.66 0863.38
2015 04 09 12 24 42 .89    -103    321      4    338    339 342.2   0.8  33914  285.43 0863.38
2015 04 09 12 24 43 .13     -97    327    -26    342    343 343.5  -4.4  33898  285.15 0863.38
2015 04 09 12 24 43 .39     -95    298    -29    313    315 342.2  -5.3  33894  285.08 0863.38
2015 04 09 12 24 43 .64    -103    295    -26    313    315 340.6  -4.8  33894  285.07 0863.38
2015 04 09 12 24 43 .89     -98    294    -14    311    312 341.5  -2.6  33896  285.10 0863.38
2015 04 09 12 24 44 .14     -87    303      6    316    317 344.0   1.2  33928  285.66 0863.38
2015 04 09 12 24 44 .39     -93    323     -2    337    338 343.9  -0.4  33912  285.38 0863.38
2015 04 09 12 24 44 .64     -82    304      4    315    316 344.9   0.8  33898  285.15 0863.38
2015 04 09 12 24 44 .89     -71    277     14    287    288 345.5   2.9  33912  285.37 0863.38
2015 04 09 12 24 45 .14     -96    292    -12    308    309 341.7  -2.2  33900  285.17 0863.38
2015 04 09 12 24 45 .39     -86    295    -22    308    309 343.7  -4.1  33894  285.07 0863.38
2015 04 09 12 24 45 .64     -93    299    -21    314    315 342.6  -3.9  33928  285.66 0863.38
2015 04 09 12 24 45 .90     -98    270     -8    288    289 339.9  -1.6  33922  285.56 0863.38
2015 04 09 12 24 46 .15    -105    274     -1    294    295 339.0  -0.3  33932  285.72 0863.38
2015 04 09 12 24 46 .39     -83    290     32    302    304 344.0   6.1  33938  285.81 0863.38
2015 04 09 12 24 46 .65     -82    304     -3    315    316 344.9  -0.6  33922  285.54 0863.38
2015 04 09 12 24 46 .90     -97    321    -30    336    338 343.1  -5.2  33918  285.50 0863.38
2015 04 09 12 24 47 .14    -129    295    -38    323    326 336.4  -6.7  33912  285.39 0863.38
2015 04 09 12 24 47 .40    -110    275     -6    297    298 338.1  -1.2  33954  286.09 0863.38
2015 04 09 12 24 47 .65    -133    171    -12    217    218 322.2  -3.3  33974  286.42 0863.38
2015 04 09 12 24 47 .90    -102    279    -26    298    300 339.9  -5.1  33928  285.66 0863.38
2015 04 09 12 24 48 .15     -86    260    -10    274    275 341.7  -2.2  33930  285.67 0863.38
2015 04 09 12 24 48 .40    -119    288    -27    312    314 337.5  -5.1  33932  285.71 0863.38
2015 04 09 12 24 48 .65    -126    291    -26    318    320 336.6  -4.8  33928  285.66 0863.38
2015 04 09 12 24 48 .93     -91    312    -26    326    328 343.7  -4.6  33944  285.91 0863.37
2015 04 09 12 24 49 .16    -115    264    -59    289    296 336.4 -11.6  33908  285.30 0863.37
2015 04 09 12 24 49 .41    -104    263    -35    283    286 338.4  -7.2  33908  285.32 0863.37
2015 04 09 12 24 49 .66    -100    302    -30    319    321 341.7  -5.5  33890  285.02 0863.37
2015 04 09 12 24 49 .91    -108    297    -23    317    318 340.0  -4.2  33892  285.05 0863.37
2015 04 09 12 24 50 .16    -105    290      6    309    310 340.0   1.2  33904  285.24 0863.37
2015 04 09 12 24 50 .41    -108    295    -11    315    316 339.9  -2.1  33902  285.20 0863.37
2015 04 09 12 24 50 .66    -102    339     -5    355    356 343.2  -0.9  33916  285.46 0863.37
2015 04 09 12 24 50 .92    -109    358     10    375    376 343.1   1.6  33908  285.30 0863.38
2015 04 09 12 24 51 .17     -99    344      5    359    360 343.9   0.8  33920  285.52 0863.38
2015 04 09 12 24 51 .41     -95    327      4    341    342 343.7   0.7  33908  285.31 0863.38
2015 04 09 12 24 51 .67     -94    330     -1    344    345 344.1  -0.3  33906  285.28 0863.38
2015 04 09 12 24 51 .92     -99    335     -8    350    351 343.5  -1.4  33914  285.40 0863.38
2015 04 09 12 24 52 .17    -102    316    -23    333    334 342.1  -4.0  33914  285.43 0863.38
2015 04 09 12 24 52 .42    -105    316    -13    334    335 341.5  -2.2  33912  285.38 0863.38
2015 04 09 12 24 52 .67    -111    340      9    358    359 341.9   1.5  33888  284.99 0863.37
2015 04 09 12 24 52 .92     -95    342      9    356    357 344.4   1.6  33886  284.93 0863.37
2015 04 09 12 24 53 .17     -94    327    -18    341    342 343.9  -3.1  33886  284.93 0863.37
2015 04 09 12 24 53 .42     -99    306     -7    322    323 342.1  -1.4  33884  284.90 0863.38
2015 04 09 12 24 53 .67     -84    312      5    324    325 344.8   0.9  33894  285.08 0863.38
2015 04 09 12 24 53 .92    -103    304    -20    322    323 341.3  -3.7  33892  285.05 0863.38
2015 04 09 12 24 54 .17     -91    276    -13    291    292 341.7  -2.6  33896  285.10 0863.38
2015 04 09 12 24 54 .43     -96    262    -13    280    281 339.9  -2.8  33894  285.07 0863.38
2015 04 09 12 24 54 .67    -115    240    -34    267    270 334.4  -7.3  33896  285.12 0863.38
2015 04 09 12 24 54 .92    -101    275    -11    294    295 339.7  -2.2  33902  285.20 0863.38
2015 04 09 12 24 55 .17     -60    297    -11    304    305 348.4  -2.2  33906  285.27 0863.38
2015 04 09 12 24 55 .42     -61    317    -12    323    324 349.1  -2.2  33904  285.25 0863.38
2015 04 09 12 24 55 .68     -33    311      3    313    314 353.8   0.7  33914  285.42 0863.38
2015 04 09 12 24 55 .94     -52    302     -1    307    308 350.2  -0.3  33920  285.52 0863.38
2015 04 09 12 24 56 .19     -51    306     -4    311    312 350.4  -0.9  33914  285.40 0863.38
2015 04 09 12 24 56 .44     -45    293     23    297    298 351.1   4.6  33916  285.44 0863.38
2015 04 09 12 24 56 .69     -67    286     -3    294    295 346.7  -0.7  33916  285.44 0863.38
2015 04 09 12 24 56 .94     -63    313     10    320    321 348.5   1.8  33910  285.35 0863.38
2015 04 09 12 24 57 .19     -70    312     15    320    321 347.3   2.8  33912  285.37 0863.38
2015 04 09 12 24 57 .44     -46    339      2    343    344 352.2   0.5  33904  285.26 0863.38
2015 04 09 12 24 57 .69     -73    299     16    308    309 346.2   3.1  33912  285.37 0863.38
2015 04 09 12 24 57 .94     -63    294     35    301    304 347.7   6.7  33936  285.79 0863.38
2015 04 09 12 24 58 .19     -55    309     24    315    316 349.8   4.4  33914  285.42 0863.38
2015 04 09 12 24 58 .45     -62    303     32    310    312 348.4   5.9  33940  285.86 0863.38
2015 04 09 12 24 58 .69     -77    316     29    326    328 346.2   5.2  33962  286.23 0863.38
2015 04 09 12 24 58 .94    -109    279    -49    300    305 338.6  -9.3  33890  285.02 0863.38
2015 04 09 12 24 59 .19    -141    272    -40    307    310 332.6  -7.5  33932  285.71 0863.38
2015 04 09 12 24 59 .44    -104    273    -48    293    297 339.1  -9.4  33882  284.88 0863.38
2015 04 09 12 24 59 .69     -98    260    -40    278    281 339.3  -8.2  33882  284.87 0863.38
2015 04 09 12 24 59 .95     -71    247    -18    258    259 343.9  -4.1  33888  284.97 0863.38
2015 04 09 12 25 00 .20     -78    231    -26    244    246 341.3  -6.1  33884  284.92 0863.38
2015 04 09 12 25 00 .45     -52    258     -1    264    265 348.5  -0.3  33892  285.05 0863.38
2015 04 09 12 25 00 .70     -44    284     -1    288    289 351.1  -0.3  33882  284.88 0863.38
2015 04 09 12 25 00 .95     -42    262    -24    266    268 350.9  -5.2  33890  285.02 0863.38
2015 04 09 12 25 01 .20     -27    253     -3    255    256 353.8  -0.7  33920  285.51 0863.38
2015 04 09 12 25 01 .45     -51    242     23    248    250 348.0   5.4  33938  285.81 0863.38
2015 04 09 12 25 01 .70     -61    226     -1    235    236 344.9  -0.3  33944  285.93 0863.37
2015 04 09 12 25 01 .95     -73    252      7    263    264 343.7   1.6  33954  286.09 0863.37
2015 04 09 12 25 02 .21     -75    226    -26    239    241 341.7  -6.2  33902  285.22 0863.37
2015 04 09 12 25 02 .45     -60    211    -28    220    222 344.0  -7.3  33896  285.11 0863.37
2015 04 09 12 25 02 .70     -44    232    -18    237    238 349.1  -4.6  33896  285.12 0863.37
2015 04 09 12 25 02 .96     -30    228    -12    231    232 352.4  -3.1  33900  285.19 0863.37
2015 04 09 12 25 03 .21     -34    253    -24    256    258 352.2  -5.4  33898  285.14 0863.37
2015 04 09 12 25 03 .46     -56    235    -46    242    247 346.6 -10.9  33896  285.10 0863.37
2015 04 09 12 25 03 .71     -53    229    -43    236    241 346.9 -10.5  33896  285.12 0863.37
2015 04 09 12 25 03 .97     -65    214    -25    224    226 343.1  -6.5  33896  285.11 0863.37
2015 04 09 12 25 04 .22     -48    239     -9    244    245 348.5  -2.2  33894  285.07 0863.37
2015 04 09 12 25 04 .47     -32    280      8    282    283 353.3   1.8  33914  285.42 0863.37
2015 04 09 12 25 04 .72     -32    294     14    296    297 353.7   2.8  33938  285.81 0863.37
2015 04 09 12 25 04 .97     -40    288     -2    291    292 352.0  -0.5  33932  285.71 0863.37
2015 04 09 12 25 05 .22     -33    265     27    268    270 352.9   5.9  33938  285.81 0863.37
2015 04 09 12 25 05 .47     -21    251    -18    252    253 355.1  -4.1  33902  285.20 0863.36
2015 04 09 12 25 05 .72     -30    280     -6    282    283 353.8  -1.3  33906  285.29 0863.36
2015 04 09 12 25 05 .97     -30    280    -12    282    283 353.8  -2.6  33902  285.20 0863.36
2015 04 09 12 25 06 .22     -47    275    -10    280    281 350.2  -2.2  33916  285.44 0863.36
2015 04 09 12 25 06 .47     -85    266     -5    280    281 342.2  -1.1  33904  285.25 0863.36
2015 04 09 12 25 06 .72     -73    271    -10    281    282 344.8  -2.2  33936  285.77 0863.36
2015 04 09 12 25 06 .97     -83    275    -11    288    289 343.1  -2.2  33938  285.83 0863.36
2015 04 09 12 25 07 .22     -59    261      4    268    269 347.1   1.0  33958  286.16 0863.36
2015 04 09 12 25 07 .48     -50    256     17    261    262 348.9   3.9  33954  286.08 0863.36
2015 04 09 12 25 07 .73     -40    260     27    264    266 351.1   6.0  34010  287.02 0863.36
2015 04 09 12 25 07 .97     -28    263     51    265    270 353.8  11.0  34094  288.46 0863.36
2015 04 09 12 25 08 .22     -48    238     43    244    248 348.4  10.0  34036  287.48 0863.36
2015 04 09 12 25 08 .47     -41    263     62    267    275 351.1  13.2  34050  287.71 0863.36
2015 04 09 12 25 08 .73     -42    261     57    265    272 350.7  12.2  34020  287.21 0863.36
2015 04 09 12 25 08 .97     -34    248     44    251    255 352.0  10.1  33918  285.49 0863.36
2015 04 09 12 25 09 .23     -36    238     25    241    243 351.3   6.1  33910  285.34 0863.36
2015 04 09 12 25 09 .48     -25    231     29    233    235 353.8   7.2  33912  285.39 0863.36
2015 04 09 12 25 09 .75     -45    241     52    246    252 349.3  12.0  33952  286.04 0863.36
2015 04 09 12 25 09 .99     -50    237      9    243    244 348.0   2.3  34022  287.24 0863.37
2015 04 09 12 25 10 .24    -109    230    -10    255    256 334.7  -2.3  34036  287.48 0863.37
2015 04 09 12 25 10 .49    -106    182    -19    211    212 329.7  -5.4  34004  286.93 0863.37
2015 04 09 12 25 10 .74     -74    224     -9    236    237 341.7  -2.2  33968  286.33 0863.37
2015 04 09 12 25 10 .99     -72    244     25    255    257 343.5   5.7  33956  286.13 0863.37
2015 04 09 12 25 11 .24     -84    208      6    225    226 338.1   1.6  33918  285.48 0863.37
2015 04 09 12 25 11 .49     -51    231     -1    237    238 347.3  -0.3  33898  285.14 0863.37
2015 04 09 12 25 11 .74     -58    246     -1    253    254 346.6  -0.3  33898  285.15 0863.37
2015 04 09 12 25 11 .99     -67    246      5    256    257 344.6   1.2  33898  285.15 0863.37
2015 04 09 12 25 12 .24     -77    234    -14    247    248 341.7  -3.3  33890  285.02 0863.37
2015 04 09 12 25 12 .49     -55    251      3    258    259 347.5   0.7  33894  285.07 0863.37
2015 04 09 12 25 12 .74     -58    254      0    261    262 347.1   0.2  33892  285.05 0863.37
2015 04 09 12 25 12 .99     -53    255      7    261    262 348.2   1.7  33890  285.00 0863.37
2015 04 09 12 25 13 .24     -80    246     -1    259    260 342.0  -0.3  33888  284.97 0863.37
2015 04 09 12 25 13 .50     -53    262    -21    268    269 348.5  -4.6  33884  284.90 0863.37
2015 04 09 12 25 13 .75     -72    263      5    273    274 344.6   1.2  33890  285.02 0863.37
2015 04 09 12 25 14 .00     -74    284    -23    294    295 345.3  -4.6  33886  284.95 0863.37
2015 04 09 12 25 14 .25     -92    267    -20    283    284 340.9  -4.1  33882  284.87 0863.37
2015 04 09 12 25 14 .50     -90    247    -17    263    264 340.0  -3.9  33882  284.88 0863.36
2015 04 09 12 25 14 .75     -94    219    -18    239    240 336.8  -4.4  33882  284.87 0863.36
2015 04 09 12 25 15 .00     -84    203    -47    220    226 337.5 -12.2  33884  284.92 0863.36
2015 04 09 12 25 15 .25    -110    215    -44    242    247 332.8 -10.4  33888  284.97 0863.36
2015 04 09 12 25 15 .50     -88    211    -45    229    234 337.3 -11.3  33882  284.89 0863.36
2015 04 09 12 25 15 .75     -69    225    -17    236    237 342.8  -4.1  33886  284.93 0863.36
2015 04 09 12 25 16 .00     -73    201    -11    215    216 340.0  -3.2  33886  284.96 0863.36
2015 04 09 12 25 16 .25     -76    228    -33    241    244 341.5  -8.0  33890  285.02 0863.37
2015 04 09 12 25 16 .50     -86    206    -28    224    226 337.3  -7.2  33892  285.04 0863.37
2015 04 09 12 25 16 .76     -70    191    -18    204    205 339.7  -5.2  33892  285.06 0863.37
2015 04 09 12 25 17 .01     -68    195    -24    207    209 340.6  -6.7  33890  285.01 0863.37
2015 04 09 12 25 17 .27     -58    198    -16    207    208 343.7  -4.6  33892  285.06 0863.37
2015 04 09 12 25 17 .51     -62    187    -19    198    199 341.5  -5.6  33894  285.07 0863.37
2015 04 09 12 25 17 .77     -56    165     -9    175    176 341.3  -3.1  33894  285.09 0863.37
2015 04 09 12 25 18 .01     -58    161     -5    172    173 340.0  -1.8  33894  285.09 0863.37
2015 04 09 12 25 18 .27     -44    181     -4    187    188 346.2  -1.3  33896  285.11 0863.37
2015 04 09 12 25 18 .52     -47    176     -5    183    184 344.9  -1.8  33898  285.14 0863.37
2015 04 09 12 25 18 .77     -68    162    -14    177    178 337.1  -4.6  33894  285.09 0863.37
2015 04 09 12 25 19 .02     -64    170    -10    182    183 339.3  -3.1  33894  285.09 0863.38
2015 04 09 12 25 19 .27     -81    171    -32    190    193 334.7  -9.8  33896  285.11 0863.38
2015 04 09 12 25 19 .52     -84    177    -40    197    201 334.5 -11.5  33890  285.02 0863.38
2015 04 09 12 25 19 .77     -65    139    -42    154    159 334.7 -20.2  33892  285.04 0863.38
2015 04 09 12 25 20 .02     -32    166    -30    170    173 348.9 -10.1  33902  285.21 0863.38
2015 04 09 12 25 20 .27     -44    174    -24    180    182 345.7  -7.7  33898  285.14 0863.38
2015 04 09 12 25 20 .52     -41    154    -12    160    161 344.8  -4.6  33896  285.13 0863.38
2015 04 09 12 25 20 .78     -37    137     -2    142    143 344.9  -1.2  33898  285.16 0863.38
2015 04 09 12 25 21 .02     -23    138    -23    141    143 350.2  -9.3  33898  285.14 0863.38
2015 04 09 12 25 21 .27     -59    146     -6    158    159 337.7  -2.2  33894  285.09 0863.38
2015 04 09 12 25 21 .52     -79    135    -29    157    160 329.7 -10.5  33898  285.14 0863.38
2015 04 09 12 25 21 .77     -76    155    -34    173    177 333.9 -11.3  33894  285.09 0863.38
2015 04 09 12 25 22 .03     -75    147    -36    166    170 332.8 -12.4  33894  285.09 0863.38
2015 04 09 12 25 22 .27     -72    142    -32    160    164 332.9 -11.3  33892  285.06 0863.38
2015 04 09 12 25 22 .53     -64    154    -32    167    171 337.3 -11.1  33912  285.38 0863.38
2015 04 09 12 25 22 .78     -69    150    -10    166    167 335.3  -3.7  33900  285.19 0863.38
2015 04 09 12 25 23 .03     -50    164      7    172    173 343.1   2.5  33912  285.38 0863.38
2015 04 09 12 25 23 .28     -43    157     20    163    165 344.6   7.2  33926  285.61 0863.38
2015 04 09 12 25 23 .53     -34    149      7    153    154 347.1   2.9  33924  285.58 0863.38
2015 04 09 12 25 23 .79     -26    170      8    172    173 351.3   2.9  33956  286.14 0863.38
2015 04 09 12 25 24 .04     -29    154      0    157    158 349.3   0.2  33978  286.51 0863.38
2015 04 09 12 25 24 .29     -20    142     -3    144    145 352.0  -1.3  33966  286.30 0863.38
2015 04 09 12 25 24 .54     -50    150    -20    159    161 341.3  -7.5  33952  286.05 0863.37
2015 04 09 12 25 24 .79     -50    139     -8    148    149 340.0  -3.1  33954  286.08 0863.37
2015 04 09 12 25 25 .05     -22    122     24    124    127 349.8  11.0  33972  286.41 0863.37
2015 04 09 12 25 25 .30     -47    151     25    159    162 342.6   9.0  33988  286.67 0863.37
2015 04 09 12 25 25 .54     -48    143      7    151    152 341.3   2.9  33990  286.69 0863.37
2015 04 09 12 25 25 .79     -36    142     15    147    148 345.7   5.9  33992  286.73 0863.37
2015 04 09 12 25 26 .04     -31    152     40    156    162 348.4  14.5  33996  286.81 0863.37
2015 04 09 12 25 26 .29     -35    139     39    144    150 345.7  15.2  33978  286.49 0863.37
2015 04 09 12 25 26 .55     -59    128     -3    142    143 335.1  -1.3  33966  286.29 0863.37
2015 04 09 12 25 26 .80     -61    140    -25    153    156 336.3  -9.4  33954  286.10 0863.37
2015 04 09 12 25 27 .07     -68    134      4    151    152 332.9   1.8  33990  286.69 0863.37
2015 04 09 12 25 27 .30     -90    122     39    152    158 323.5  14.5  34046  287.64 0863.37
2015 04 09 12 25 27 .55     -54    120     74    132    151 335.5  31.4  34050  287.70 0863.37
2015 04 09 12 25 27 .80    -128     26    -36    131    136 281.5 -15.4  34046  287.65 0863.37
2015 04 09 12 25 28 .05    -221     -2     -8    222    223 269.4  -2.2  34014  287.10 0863.37
2015 04 09 12 25 28 .30    -244      0    -48    245    250 270.0 -11.1  33954  286.09 0863.37
2015 04 09 12 25 28 .55    -246     49    -31    251    254 281.4  -7.2  33958  286.15 0863.37
2015 04 09 12 25 28 .81    -225     43    -59    230    238 281.0 -14.5  33954  286.08 0863.37
2015 04 09 12 25 29 .05    -197     24    -26    199    201 277.0  -7.5  33950  286.02 0863.37
2015 04 09 12 25 29 .30    -211     43    -59    216    225 281.5 -15.4  33948  286.00 0863.37
2015 04 09 12 25 29 .55    -226     34    -52    229    235 278.6 -12.9  33954  286.09 0863.37
2015 04 09 12 25 29 .80    -256     13    -76    257    268 273.0 -21.2  33948  285.98 0863.37
2015 04 09 12 25 30 .06    -206     24    -63    208    217 276.8 -21.7  33948  286.00 0863.37
2015 04 09 12 25 30 .30    -201     39    -60    205    214 281.2 -16.4  33964  286.25 0863.37
2015 04 09 12 25 30 .57    -173     51    -50    181    188 286.4 -15.5  33960  286.19 0863.37
2015 04 09 12 25 30 .82    -195     30    -27    198    200 279.0  -8.0  33962  286.22 0863.36
2015 04 09 12 25 31 .07    -161     12    -46    162    169 274.4 -16.0  33964  286.27 0863.36
2015 04 09 12 25 31 .32    -164    -29    -21    167    169 259.9  -7.3  33962  286.22 0863.36
2015 04 09 12 25 31 .57    -195    -10    -39    196    200 267.0 -11.3  33964  286.27 0863.36
2015 04 09 12 25 31 .82    -224     45    -45    229    234 281.4 -11.3  33998  286.83 0863.36
2015 04 09 12 25 32 .07    -215     47    -33    221    224 282.4  -8.6  33984  286.59 0863.36
2015 04 09 12 25 32 .32    -203     28     -4    205    206 277.9  -1.2  33984  286.61 0863.36
2015 04 09 12 25 32 .57    -185     41      0    190    191 282.6   0.2  33996  286.79 0863.36
2015 04 09 12 25 32 .83    -202     -5    -18    203    204 268.5  -5.2  33982  286.56 0863.36
2015 04 09 12 25 33 .07    -103      5     36    104    111 273.0  19.4  34020  287.20 0863.36
2015 04 09 12 25 33 .32    -109     44     10    118    119 292.2   5.0  34000  286.88 0863.36
2015 04 09 12 25 33 .57    -236     59    -54    244    251 284.1 -12.6  34004  286.92 0863.36
2015 04 09 12 25 33 .83    -164     32     11    168    169 281.2   3.8  34018  287.16 0863.36
2015 04 09 12 25 34 .08     -44     61      7     76     77 323.9   5.9  34028  287.35 0863.36
2015 04 09 12 25 34 .32      23      5     -9     24     25  76.7 -23.3  34030  287.38 0863.36
2015 04 09 12 25 34 .57     -15     32     50     36     61 334.6  60.5  34046  287.65 0863.37
2015 04 09 12 25 34 .83    -131      0    -31    132    136 269.6 -13.4  34052  287.74 0863.37
2015 04 09 12 25 35 .08     -23     80     22     84     87 344.0  14.7  34076  288.16 0863.37
2015 04 09 12 25 35 .33     -53     54     -1     76     77 315.8  -1.3  34090  288.40 0863.36
2015 04 09 12 25 35 .58     -83    124     28    150    153 326.2  10.6  34078  288.20 0863.36
2015 04 09 12 25 35 .83     -94    153    -48    180    187 328.4 -15.0  34058  287.84 0863.36
2015 04 09 12 25 36 .08    -108    122    -49    164    172 318.6 -16.6  34046  287.65 0863.36
2015 04 09 12 25 36 .33     -96     96    -21    137    139 315.0  -8.8  34030  287.38 0863.36
2015 04 09 12 25 36 .58     -97     40    -60    106    121 292.6 -36.3  34004  286.93 0863.36
2015 04 09 12 25 36 .84    -103     85    -19    134    136 309.5  -8.2  34034  287.43 0863.36
2015 04 09 12 25 37 .08    -107     84    -27    137    140 308.2 -11.3  34024  287.28 0863.36
2015 04 09 12 25 37 .33     -53     49     37     73     81 313.2  28.7  34028  287.35 0863.36
2015 04 09 12 25 37 .59     -84     77      5    115    116 312.7   2.9  33994  286.78 0863.36
2015 04 09 12 25 37 .84     -67    142    -18    158    160 334.6  -6.5  33984  286.61 0863.36
2015 04 09 12 25 38 .10     -92     92    -36    131    136 315.0 -15.5  33990  286.69 0863.37
2015 04 09 12 25 38 .34    -134    104      3    170    171 307.8   1.2  34000  286.88 0863.37
2015 04 09 12 25 38 .60    -110     92     -3    144    145 310.0  -1.3  34032  287.42 0863.37
2015 04 09 12 25 38 .84     -47    109     32    119    124 336.4  15.3  34026  287.32 0863.37
2015 04 09 12 25 39 .10     -93     68     10    116    117 306.4   5.0  34010  287.03 0863.37
2015 04 09 12 25 39 .35     -71     43     -5     84     85 301.5  -3.7  33994  286.76 0863.37
2015 04 09 12 25 39 .60     -87     32     -9     93     94 290.4  -5.6  34018  287.16 0863.37
2015 04 09 12 25 39 .85    -153     70    -34    169    173 294.8 -11.6  33984  286.61 0863.37
2015 04 09 12 25 40 .10    -137    113     -6    178    179 309.5  -2.2  33996  286.81 0863.38
2015 04 09 12 25 40 .35    -154    142      2    210    211 312.7   0.8  33976  286.46 0863.38
2015 04 09 12 25 40 .60    -217    126    -32    252    255 300.2  -7.3  33936  285.79 0863.38
2015 04 09 12 25 40 .85    -242     96    -81    261    274 291.7 -17.3  33940  285.86 0863.38
2015 04 09 12 25 41 .10    -254    145    -76    293    303 299.7 -14.7  33966  286.30 0863.38
2015 04 09 12 25 41 .35    -181    170    -17    249    250 313.3  -4.1  33960  286.20 0863.38
2015 04 09 12 25 41 .60    -188    116    -39    222    226 301.8 -10.1  33908  285.33 0863.38
2015 04 09 12 25 41 .85    -213    109    -50    240    246 297.1 -11.9  33950  286.03 0863.37
2015 04 09 12 25 42 .11    -196    147    -31    246    249 306.9  -7.3  33974  286.43 0863.37
2015 04 09 12 25 42 .36    -205    143    -41    251    255 304.9  -9.3  33982  286.55 0863.37
2015 04 09 12 25 42 .60    -182    131    -18    225    226 305.9  -4.6  33984  286.59 0863.37
2015 04 09 12 25 42 .85    -164    149      0    222    223 312.2   0.0  33990  286.69 0863.37
2015 04 09 12 25 43 .10    -178    131     -6    222    223 306.4  -1.8  33992  286.73 0863.37
2015 04 09 12 25 43 .35    -148    118    -10    190    191 308.4  -3.2  33974  286.42 0863.37
2015 04 09 12 25 43 .61    -152     93     -3    179    180 301.3  -1.3  33968  286.32 0863.37
2015 04 09 12 25 43 .85    -156     91    -28    181    184 300.2  -9.0  33960  286.20 0863.37
2015 04 09 12 25 44 .10    -162     71    -45    177    183 293.7 -14.5  33938  285.82 0863.37
2015 04 09 12 25 44 .36    -170     68    -48    184    191 292.0 -14.7  33942  285.90 0863.37
2015 04 09 12 25 44 .62    -199     83    -29    216    218 292.8  -7.7  33950  286.03 0863.37
2015 04 09 12 25 44 .87    -184     78    -47    200    206 293.1 -13.3  33962  286.22 0863.37
2015 04 09 12 25 45 .12    -173     47    -51    180    188 285.3 -16.0  33972  286.39 0863.37
2015 04 09 12 25 45 .37    -167     55     -2    177    178 288.4  -0.7  33982  286.56 0863.37
2015 04 09 12 25 45 .62    -163     32    -21    167    169 281.2  -7.3  33984  286.59 0863.37
2015 04 09 12 25 45 .87    -144     43    -19    151    153 286.9  -7.3  33986  286.64 0863.37
2015 04 09 12 25 46 .12    -161     55    -24    171    173 289.1  -8.0  33988  286.66 0863.37
2015 04 09 12 25 46 .37    -180      8    -16    181    182 272.8  -5.2  33988  286.66 0863.37
2015 04 09 12 25 46 .62    -178     62    -29    189    192 289.3  -8.8  33986  286.62 0863.37
2015 04 09 12 25 46 .88    -178     28    -12    181    182 279.2  -3.9  33994  286.76 0863.37
2015 04 09 12 25 47 .12    -149     36    -11    154    155 283.7  -4.1  34002  286.91 0863.37
2015 04 09 12 25 47 .37    -130     83     -7    155    156 302.5  -2.6  33996  286.79 0863.37
2015 04 09 12 25 47 .63    -251    109    -53    274    280 293.5 -11.1  33976  286.47 0863.37
2015 04 09 12 25 47 .87    -243     93    -62    261    269 291.1 -13.4  33940  285.84 0863.37
2015 04 09 12 25 48 .13    -220     95    -50    240    246 293.5 -11.9  33960  286.20 0863.37
2015 04 09 12 25 48 .38    -176    112    -28    209    211 302.4  -7.7  33982  286.57 0863.37
2015 04 09 12 25 48 .63    -141    125    -38    189    194 311.6 -11.6  33994  286.78 0863.37
2015 04 09 12 25 48 .88     -88     99     21    133    135 318.6   9.0  33996  286.81 0863.37
2015 04 09 12 25 49 .13    -107     88     12    139    140 309.6   5.0  34012  287.06 0863.37
2015 04 09 12 25 49 .38     -70    110     11    131    132 327.4   4.9  34034  287.43 0863.37
2015 04 09 12 25 49 .63    -169    122    -11    209    210 306.0  -3.1  33988  286.67 0863.37
2015 04 09 12 25 49 .88    -149    116    -20    190    192 308.0  -6.2  34000  286.88 0863.37
2015 04 09 12 25 50 .13    -165     95    -14    191    192 300.0  -4.4  34030  287.37 0863.37
2015 04 09 12 25 50 .38    -137     94    -30    167    170 304.6 -10.3  34044  287.62 0863.37
2015 04 09 12 25 50 .63    -131     92     -1    161    162 305.1  -0.5  34054  287.79 0863.37
2015 04 09 12 25 50 .88     -97     64     -4    117    118 303.3  -2.2  34050  287.70 0863.37
2015 04 09 12 25 51 .13    -109     35     -3    115    116 288.2  -1.8  34060  287.89 0863.37
2015 04 09 12 25 51 .38    -115     56     -9    129    130 296.2  -4.1  34036  287.49 0863.37
2015 04 09 12 25 51 .66    -103     40    -31    111    116 291.3 -15.5  34044  287.60 0863.37
2015 04 09 12 25 51 .89    -109     60    -24    125    128 298.9 -10.9  34004  286.94 0863.37
2015 04 09 12 25 52 .15    -124     28    -21    128    130 282.8  -9.4  34000  286.88 0863.37
2015 04 09 12 25 52 .39    -124     31     -7    128    129 284.2  -3.1  33992  286.74 0863.37
2015 04 09 12 25 52 .65    -137     12     -3    138    139 275.2  -1.3  34026  287.30 0863.37
2015 04 09 12 25 52 .90    -161     50    -16    169    170 287.3  -5.6  34000  286.86 0863.37
2015 04 09 12 25 53 .15    -100     43    -35    110    116 293.5 -17.6  33998  286.84 0863.37
2015 04 09 12 25 53 .40    -101     64    -38    120    125 302.4 -23.3  33998  286.83 0863.37
2015 04 09 12 25 53 .65     -73     77    -43    107    115 316.7 -27.4  34020  287.20 0863.37
2015 04 09 12 25 53 .90     -55     33     92     65    112 301.5  61.1  34062  287.91 0863.37
2015 04 09 12 25 54 .15     -82     17    -11     84     85 281.9  -7.7  34074  288.11 0863.37
2015 04 09 12 25 54 .40     -77    -15      1     79     80 258.5   1.2  34082  288.26 0863.37
2015 04 09 12 25 54 .65     -40     25     -1     48     49 302.4  -2.2  34078  288.18 0863.37
2015 04 09 12 25 54 .90      -3    -35     41     36     54 186.2  53.3  34070  288.04 0863.37
2015 04 09 12 25 55 .15    -217     80    -49    232    238 290.2 -11.9  33890  285.02 0863.37
2015 04 09 12 25 55 .40    -224     95    -22    244    246 293.1  -5.2  33902  285.20 0863.37
2015 04 09 12 25 55 .65    -213     65     -8    223    224 287.1  -2.2  33904  285.24 0863.37
2015 04 09 12 25 55 .90    -236     83    -19    251    252 289.5  -4.4  33894  285.07 0863.37
2015 04 09 12 25 56 .16    -209     60    -11    218    219 286.2  -3.1  33900  285.19 0863.37
2015 04 09 12 25 56 .41    -223     74    -26    235    237 288.4  -6.5  33898  285.15 0863.37
2015 04 09 12 25 56 .66    -214     71    -28    226    228 288.4  -7.2  33892  285.04 0863.37
2015 04 09 12 25 56 .91    -219    113    -26    247    249 297.3  -6.2  33886  284.93 0863.37
2015 04 09 12 25 57 .16    -259    110    -35    282    285 293.1  -7.2  33882  284.88 0863.37
2015 04 09 12 25 57 .41    -242    106    -31    265    267 293.6  -6.7  33888  284.97 0863.37
2015 04 09 12 25 57 .66    -232    114    -35    259    262 296.2  -7.7  33886  284.93 0863.37
2015 04 09 12 25 57 .91    -222    117    -38    252    255 297.9  -8.6  33886  284.93 0863.37
2015 04 09 12 25 58 .16    -215     98    -52    237    243 294.6 -12.4  33888  284.98 0863.37
2015 04 09 12 25 58 .42    -193     76    -34    208    211 291.7  -9.3  33890  285.01 0863.37
2015 04 09 12 25 58 .67    -167     62    -35    179    183 290.4 -11.1  33900  285.19 0863.37
2015 04 09 12 25 58 .92    -140    125    -50    188    195 311.8 -15.0  33924  285.58 0863.37
2015 04 09 12 25 59 .17    -200    136    -43    242    246 304.2 -10.1  33926  285.62 0863.36
2015 04 09 12 25 59 .42    -203    140    -64    247    256 304.6 -14.5  33910  285.35 0863.36
2015 04 09 12 25 59 .67    -218    133    -39    256    260 301.5  -8.8  33906  285.29 0863.36
2015 04 09 12 25 59 .92    -266    141    -38    302    305 298.0  -7.2  33906  285.29 0863.36
2015 04 09 12 26 00 .17    -279    137    -42    312    315 296.2  -7.7  33906  285.29 0863.36
2015 04 09 12 26 00 .42    -289    137    -42    320    323 295.4  -7.6  33896  285.10 0863.36
2015 04 09 12 26 00 .68    -288    116    -61    311    318 292.0 -11.1  33896  285.12 0863.36
2015 04 09 12 26 00 .93    -287     87    -35    301    304 286.9  -6.7  33898  285.15 0863.36
2015 04 09 12 26 01 .18    -241     45    -26    246    248 280.6  -6.1  33902  285.22 0863.36
2015 04 09 12 26 01 .43    -265     40    -24    269    271 278.6  -5.1  33910  285.35 0863.36
2015 04 09 12 26 01 .68    -214     41     -6    218    219 281.0  -1.8  33920  285.51 0863.36
2015 04 09 12 26 01 .93    -267     91    -40    283    286 288.8  -8.2  33918  285.49 0863.36
2015 04 09 12 26 02 .18    -166     61     23    177    179 290.2   7.5  33938  285.82 0863.36
2015 04 09 12 26 02 .43    -202     61    -19    212    214 286.9  -5.4  33928  285.65 0863.36
2015 04 09 12 26 02 .68    -169     49     -6    177    178 286.4  -2.2  33944  285.93 0863.36
2015 04 09 12 26 02 .93    -175     87    -17    196    197 296.6  -5.2  33998  286.84 0863.36
2015 04 09 12 26 03 .18    -223     82     -9    238    239 290.4  -2.3  33926  285.62 0863.36
2015 04 09 12 26 03 .43    -262     70    -44    272    276 285.1  -9.4  33900  285.19 0863.36
2015 04 09 12 26 03 .68    -260     86    -39    274    277 288.4  -8.3  33894  285.08 0863.36
2015 04 09 12 26 03 .93    -269     96    -43    286    290 289.7  -8.6  33896  285.10 0863.36
2015 04 09 12 26 04 .18    -274     92    -42    290    294 288.6  -8.3  33906  285.27 0863.36
2015 04 09 12 26 04 .43    -266     85    -40    280    283 287.7  -8.2  33898  285.14 0863.36
2015 04 09 12 26 04 .69    -230     85    -48    246    251 290.4 -11.1  33898  285.15 0863.36
2015 04 09 12 26 04 .94    -186     53    -22    194    196 285.9  -6.7  33918  285.48 0863.36
2015 04 09 12 26 05 .19    -160     44    -20    167    169 285.5  -6.9  33926  285.61 0863.36
2015 04 09 12 26 05 .45    -161     45    -25    168    170 285.7  -8.6  33952  286.05 0863.36
2015 04 09 12 26 05 .69    -156     63     -6    169    170 292.0  -2.2  33972  286.41 0863.36
2015 04 09 12 26 05 .95    -161     55    -17    171    172 288.8  -6.0  33936  285.80 0863.36
2015 04 09 12 26 06 .20    -202     71    -27    215    217 289.5  -7.2  33910  285.34 0863.36
2015 04 09 12 26 06 .45    -203     81    -28    219    221 292.0  -7.3  33896  285.11 0863.36
2015 04 09 12 26 06 .70    -234     89    -35    251    254 290.9  -8.0  33910  285.34 0863.36
2015 04 09 12 26 06 .95    -202     67    -27    213    215 288.4  -7.3  33928  285.65 0863.36
2015 04 09 12 26 07 .21    -196     94    -19    218    219 295.8  -5.2  33932  285.71 0863.36
2015 04 09 12 26 07 .45    -187     57    -25    196    198 287.1  -7.3  33960  286.20 0863.36
2015 04 09 12 26 07 .70    -203     87    -25    222    224 293.3  -6.5  33896  285.11 0863.36
2015 04 09 12 26 07 .95    -184    109    -27    215    217 300.7  -7.2  33890  285.02 0863.36
2015 04 09 12 26 08 .20    -180     94    -27    204    206 297.5  -7.7  33892  285.06 0863.36
2015 04 09 12 26 08 .45    -172     71    -24    187    189 292.6  -7.3  33918  285.50 0863.37
2015 04 09 12 26 08 .70    -163     65    -38    176    181 292.0 -12.4  33898  285.14 0863.37
2015 04 09 12 26 08 .96    -154     28    -28    157    160 280.6 -10.1  33912  285.39 0863.37
2015 04 09 12 26 09 .20    -144     75    -33    163    167 297.8 -11.6  33906  285.29 0863.37
2015 04 09 12 26 09 .45    -152     51    -18    161    163 288.6  -6.5  33916  285.44 0863.37
2015 04 09 12 26 09 .70    -162     70    -30    177    180 293.3  -9.8  33892  285.04 0863.37
2015 04 09 12 26 09 .96    -172     63    -31    184    187 290.2  -9.6  33892  285.06 0863.37
2015 04 09 12 26 10 .21    -175     62    -23    186    188 289.7  -7.3  33888  284.99 0863.37
2015 04 09 12 26 10 .46    -167     69    -26    181    183 292.4  -8.2  33892  285.06 0863.37
2015 04 09 12 26 10 .71    -162     45    -12    169    170 285.7  -4.1  33898  285.16 0863.37
2015 04 09 12 26 10 .96    -159     62    -18    171    173 291.5  -6.2  33896  285.13 0863.37
2015 04 09 12 26 11 .21    -167     58    -16    177    178 289.3  -5.4  33902  285.21 0863.37
2015 04 09 12 26 11 .46    -166     59    -23    177    179 289.5  -7.7  33892  285.04 0863.37
2015 04 09 12 26 11 .71    -157     52    -21    166    168 288.4  -7.3  33918  285.48 0863.37
2015 04 09 12 26 11 .96    -110     44     11    119    120 291.8   5.4  33950  286.02 0863.37
2015 04 09 12 26 12 .21     -80     28      4     85     86 289.5   2.9  33968  286.32 0863.37
2015 04 09 12 26 12 .47     -55     26     45     61     75 295.4  39.7  33984  286.61 0863.37
2015 04 09 12 26 12 .73    -115    -32    -28    120    124 254.5 -13.3  34006  286.98 0863.37
2015 04 09 12 26 12 .97     -76    -35     23     84     88 244.8  15.3  34020  287.20 0863.37
2015 04 09 12 26 13 .22     -26    -41     40     49     63 212.5  43.7  34044  287.62 0863.37
2015 04 09 12 26 13 .47      17    -33     39     38     54 152.8  49.1  34062  287.91 0863.37
2015 04 09 12 26 13 .72       8     -8     41     12     42 136.8  83.9  34066  287.98 0863.37
2015 04 09 12 26 13 .97     -35    -28     28     46     53 231.4  35.5  34064  287.94 0863.37
2015 04 09 12 26 14 .22    -147     32    -19    151    153 282.4  -7.3  33910  285.34 0863.37
2015 04 09 12 26 14 .48    -134     19    -17    136    138 278.4  -7.3  33938  285.82 0863.37
2015 04 09 12 26 14 .72    -139     -6     -7    140    141 267.4  -3.1  33908  285.31 0863.37
2015 04 09 12 26 14 .98    -122     28    -10    126    127 283.3  -4.6  33924  285.58 0863.37
2015 04 09 12 26 15 .22     -59     20      7     63     64 289.1   7.1  33930  285.70 0863.37
2015 04 09 12 26 15 .48    -144     32    -22    148    150 282.8  -8.8  33898  285.14 0863.37
2015 04 09 12 26 15 .73    -160     24    -17    162    163 278.8  -6.2  33896  285.13 0863.37
2015 04 09 12 26 15 .98    -168     49    -12    176    177 286.4  -4.1  33906  285.28 0863.37
2015 04 09 12 26 16 .23    -146     23    -18    148    150 279.2  -7.2  33902  285.23 0863.37
2015 04 09 12 26 16 .48    -138     65    -22    153    155 295.4  -8.2  33906  285.29 0863.37
2015 04 09 12 26 16 .73    -136     45     -5    144    145 288.4  -2.2  33912  285.39 0863.37
2015 04 09 12 26 16 .98    -111     75     -2    135    136 304.1  -1.2  33918  285.48 0863.37
2015 04 09 12 26 17 .23     -66     73     -5     99    100 317.7  -3.2  33928  285.66 0863.37
2015 04 09 12 26 17 .49    -157     72    -32    173    176 294.6 -10.5  33912  285.38 0863.38
2015 04 09 12 26 17 .73    -152     92    -16    178    179 301.1  -5.4  33924  285.58 0863.38
2015 04 09 12 26 17 .99    -152    118    -10    193    194 308.0  -3.1  33946  285.97 0863.38
2015 04 09 12 26 18 .24    -151     71    -15    168    169 295.3  -5.2  33966  286.29 0863.38
2015 04 09 12 26 18 .48    -149     90    -39    175    180 301.3 -12.6  33932  285.71 0863.38
2015 04 09 12 26 18 .74    -156     91    -28    181    184 300.2  -9.0  33938  285.82 0863.38
2015 04 09 12 26 18 .99    -186     79    -33    203    206 293.1  -9.3  33914  285.43 0863.38
2015 04 09 12 26 19 .25    -185     88    -25    205    207 295.5  -7.2  33924  285.60 0863.36
2015 04 09 12 26 19 .50    -189     75    -21    204    206 291.8  -6.0  33932  285.71 0863.36
2015 04 09 12 26 19 .75    -101     63     32    120    125 302.0  15.2  33944  285.92 0863.36
2015 04 09 12 26 20 .00    -196     79    -27    212    214 292.0  -7.3  33918  285.50 0863.36
2015 04 09 12 26 20 .25    -191     85    -58    210    218 294.0 -15.5  33904  285.26 0863.36
2015 04 09 12 26 20 .50    -179     91    -31    201    204 297.0  -9.0  33908  285.33 0863.36
2015 04 09 12 26 20 .75    -175     70    -17    189    190 292.0  -5.2  33924  285.58 0863.36
2015 04 09 12 26 21 .00    -138     91    -41    166    171 303.3 -13.9  33982  286.56 0863.36
2015 04 09 12 26 21 .25    -163     87    -30    186    189 298.2  -9.3  33984  286.61 0863.36
2015 04 09 12 26 21 .50    -185     44    -22    191    193 283.5  -6.7  33958  286.17 0863.36
2015 04 09 12 26 21 .75    -194     51    -25    201    203 284.8  -7.2  33938  285.83 0863.36
2015 04 09 12 26 22 .00    -127     37      6    133    134 286.4   2.8  33950  286.03 0863.36
2015 04 09 12 26 22 .26     -51     45      3     69     70 311.3   2.9  33964  286.27 0863.36
2015 04 09 12 26 22 .50    -170     13    -22    171    173 274.4  -7.5  33940  285.87 0863.36
2015 04 09 12 26 22 .75    -231      8    -17    232    233 272.1  -4.4  33928  285.65 0863.36
2015 04 09 12 26 23 .01    -221     30    -43    224    229 277.9 -10.9  33928  285.65 0863.36
2015 04 09 12 26 23 .26    -195     14     15    196    197 274.1   4.4  33936  285.80 0863.36
2015 04 09 12 26 23 .51    -224     45     -5    229    230 281.5  -1.3  33924  285.60 0863.36
2015 04 09 12 26 23 .76    -237     67    -45    247    252 285.9 -10.5  33918  285.47 0863.36
2015 04 09 12 26 24 .01    -217     64      2    227    228 286.6   0.7  33942  285.88 0863.36
2015 04 09 12 26 24 .26    -255    -10    -52    256    262 267.6 -11.5  33926  285.62 0863.36
2015 04 09 12 26 24 .51    -272     69    -30    281    283 284.4  -6.2  33924  285.59 0863.36
2015 04 09 12 26 24 .76    -245      0    -19    246    247 270.0  -4.6  33928  285.66 0863.36
2015 04 09 12 26 25 .01    -262     40    -38    266    269 278.8  -8.3  33918  285.49 0863.36
2015 04 09 12 26 25 .26    -235     32    -23    238    240 277.9  -5.6  33924  285.59 0863.36
2015 04 09 12 26 25 .51    -236     22    -16    238    239 275.5  -3.9  33936  285.77 0863.36
2015 04 09 12 26 25 .76    -254     27    -25    256    258 276.1  -5.6  33922  285.54 0863.36
2015 04 09 12 26 26 .01    -229     76    -23    242    244 288.4  -5.6  33924  285.59 0863.36
2015 04 09 12 26 26 .28    -254     27    -32    256    259 276.1  -7.2  33920  285.52 0863.36
2015 04 09 12 26 26 .52    -267     41    -21    271    272 278.8  -4.6  33920  285.52 0863.36
2015 04 09 12 26 26 .78    -200     14    -23    201    203 274.1  -6.7  33940  285.85 0863.36
2015 04 09 12 26 27 .02    -160     -1    -14    161    162 269.6  -5.2  33934  285.76 0863.36
2015 04 09 12 26 27 .28    -152     -3    -13    153    154 268.7  -5.2  33938  285.83 0863.36
2015 04 09 12 26 27 .53    -132     22     -6    134    135 279.6  -2.6  33954  286.10 0863.35
2015 04 09 12 26 27 .78    -241     35    -31    244    246 278.4  -7.3  33962  286.21 0863.35
2015 04 09 12 26 28 .03    -253     35    -60    256    263 277.9 -13.3  33950  286.03 0863.35
2015 04 09 12 26 28 .28    -267     29    -70    269    279 276.4 -14.7  33948  285.98 0863.35
2015 04 09 12 26 28 .53    -219     23    -52    221    228 276.1 -13.3  33936  285.78 0863.35
2015 04 09 12 26 28 .78    -210     31    -48    213    219 278.4 -12.9  33942  285.90 0863.35
2015 04 09 12 26 29 .03    -222     40    -57    226    234 280.4 -14.3  33948  285.98 0863.35
2015 04 09 12 26 29 .28    -229     49    -64    235    244 282.3 -15.4  33956  286.13 0863.35
2015 04 09 12 26 29 .53    -238     47    -48    243    248 281.4 -11.3  33924  285.59 0863.35
2015 04 09 12 26 29 .78    -209     39    -61    213    222 280.6 -16.0  33940  285.85 0863.35
2015 04 09 12 26 30 .03    -176     66    -48    189    196 290.6 -14.3  33946  285.95 0863.35
2015 04 09 12 26 30 .28    -201     59    -43    210    215 286.4 -11.6  33956  286.12 0863.35
2015 04 09 12 26 30 .53    -144     68    -47    160    166 295.3 -21.2  33960  286.20 0863.35
2015 04 09 12 26 30 .78    -144     52    -50    154    163 290.0 -18.1  33952  286.07 0863.35
2015 04 09 12 26 31 .03    -157     37    -28    162    165 283.3 -10.1  33956  286.14 0863.35
2015 04 09 12 26 31 .29    -131     57    -23    143    145 293.5  -9.3  33934  285.76 0863.35
2015 04 09 12 26 31 .54    -132     58    -25    145    148 294.0  -9.8  33934  285.75 0863.35
2015 04 09 12 26 31 .79    -125     42    -24    132    135 288.6 -10.3  33954  286.08 0863.35
2015 04 09 12 26 32 .04     -89     56    -21    106    109 302.0 -11.5  33966  286.29 0863.35
2015 04 09 12 26 32 .29    -111     92    -31    145    149 309.5 -12.4  33970  286.37 0863.35
2015 04 09 12 26 32 .54     -41    103     16    112    114 338.2   8.5  33984  286.61 0863.35
2015 04 09 12 26 32 .79     -15    110     21    112    115 351.9  11.0  34022  287.23 0863.35
2015 04 09 12 26 33 .05     -45    102     33    112    117 335.9  16.8  34018  287.18 0863.35
2015 04 09 12 26 33 .30     -81     69     13    107    108 310.4   7.1  34050  287.72 0863.35
2015 04 09 12 26 33 .55     -51    152     68    161    174 341.3  24.3  34108  288.69 0863.35
2015 04 09 12 26 33 .80     -25    233     38    235    239 353.7   9.3  34002  286.90 0863.34
2015 04 09 12 26 34 .05     -48    143    131    152    200 341.3  45.4  34184  289.99 0863.34
2015 04 09 12 26 34 .30     -62    110     44    127    135 330.6  19.4  34106  288.67 0863.34
2015 04 09 12 26 34 .55     -86    181     27    201    203 334.6   7.8  34024  287.28 0863.34
2015 04 09 12 26 34 .82     -98    205    -39    228    232 334.4  -9.8  34012  287.06 0863.34
2015 04 09 12 26 35 .05     -95    204    -28    226    228 335.1  -7.2  34006  286.98 0863.34
2015 04 09 12 26 35 .30    -112    186     19    218    219 329.0   5.2  34008  287.01 0863.34
2015 04 09 12 26 35 .56    -113    173     32    207    210 326.8   9.0  33992  286.73 0863.34
2015 04 09 12 26 35 .80     -77    189    -25    205    207 337.7  -7.2  33966  286.29 0863.34
2015 04 09 12 26 36 .06     -97    183    -26    208    210 332.1  -7.3  33940  285.85 0863.34
2015 04 09 12 26 36 .31    -129    130     -5    184    185 315.3  -1.8  33944  285.93 0863.34
2015 04 09 12 26 36 .56    -110    157     15    192    193 325.0   4.6  33986  286.64 0863.34
2015 04 09 12 26 36 .81    -114    168    -18    204    205 325.7  -5.2  34030  287.38 0863.34
2015 04 09 12 26 37 .05     -93    167    -14    192    193 331.0  -4.4  33984  286.61 0863.34
2015 04 09 12 26 37 .31    -169    138     14    219    220 309.1   3.8  33930  285.70 0863.34
2015 04 09 12 26 37 .56    -195    141     16    241    242 305.9   3.8  33918  285.47 0863.34
2015 04 09 12 26 37 .81    -216    156    -10    267    268 305.9  -2.2  33914  285.42 0863.34
2015 04 09 12 26 38 .06    -169    149     11    226    227 311.3   2.9  33940  285.85 0863.34
2015 04 09 12 26 38 .31    -170    152     21    229    231 311.8   5.4  33940  285.87 0863.34
2015 04 09 12 26 38 .56    -148    160     26    219    221 317.2   6.9  33956  286.12 0863.34
2015 04 09 12 26 38 .81    -122    140     41    186    191 318.8  12.6  33968  286.32 0863.34
2015 04 09 12 26 39 .06    -155    116      2    194    195 306.9   0.8  34000  286.88 0863.34
2015 04 09 12 26 39 .31    -170    112    -44    204    209 303.5 -12.4  34012  287.06 0863.34
2015 04 09 12 26 39 .57     -98     90      7    134    135 312.7   3.3  33992  286.73 0863.34
2015 04 09 12 26 39 .81    -314     25    -66    316    323 274.6 -11.9  33926  285.61 0863.34
2015 04 09 12 26 40 .08    -352     62    -66    358    365 280.0 -10.5  33934  285.75 0863.34
2015 04 09 12 26 40 .33    -338     54    -40    343    346 279.2  -6.7  33946  285.94 0863.34
2015 04 09 12 26 40 .58    -202     49    -18    208    209 283.7  -5.2  33952  286.07 0863.34
2015 04 09 12 26 40 .83    -269     -4     -9    270    271 269.0  -2.1  33920  285.52 0863.34
2015 04 09 12 26 41 .08    -261      7    -52    262    268 271.7 -11.3  33898  285.15 0863.34
2015 04 09 12 26 41 .33    -301      0    -39    302    305 270.0  -7.5  33898  285.14 0863.34
2015 04 09 12 26 41 .58    -334     32    -58    336    342 275.6  -9.8  33910  285.36 0863.34
2015 04 09 12 26 41 .83    -297    -12    -42    298    302 267.6  -8.0  33904  285.24 0863.34
2015 04 09 12 26 42 .08    -296     17    -43    297    301 273.3  -8.2  33902  285.20 0863.34
2015 04 09 12 26 42 .33    -268    -24    -26    270    272 264.8  -5.6  33906  285.29 0863.34
2015 04 09 12 26 42 .58    -290     40    -46    293    297 277.9  -9.0  33916  285.44 0863.34
2015 04 09 12 26 42 .83    -291     23    -39    292    295 274.6  -7.7  33932  285.71 0863.34
2015 04 09 12 26 43 .08    -257     31    -52    259    265 277.0 -11.5  33926  285.61 0863.34
2015 04 09 12 26 43 .33    -221     51    -28    227    229 283.0  -7.2  33926  285.61 0863.34
2015 04 09 12 26 43 .58    -223     45    -28    228    230 281.5  -7.2  33924  285.60 0863.34
2015 04 09 12 26 43 .83    -210     22    -36    212    216 276.1  -9.8  33930  285.68 0863.34
2015 04 09 12 26 44 .09    -228     46    -33    233    236 281.5  -8.3  33938  285.81 0863.34
2015 04 09 12 26 44 .33    -228     13    -44    229    234 273.3 -10.9  33946  285.97 0863.34
2015 04 09 12 26 44 .59    -160     53      7    169    170 288.4   2.5  33948  286.00 0863.34
2015 04 09 12 26 44 .84    -175     49    -10    182    183 285.7  -3.2  33938  285.82 0863.34
2015 04 09 12 26 45 .09    -181     51    -17    189    190 285.7  -5.2  33936  285.80 0863.34
2015 04 09 12 26 45 .34    -194     73    -54    208    216 290.8 -14.7  33934  285.75 0863.34
2015 04 09 12 26 45 .59    -185    -50    -76    192    206 254.7 -27.4  33930  285.70 0863.34
2015 04 09 12 26 45 .84    -118     91     14    150    151 307.8   5.4  33932  285.73 0863.34
2015 04 09 12 26 46 .09     -98    113     -6    150    151 319.0  -2.6  33946  285.95 0863.34
2015 04 09 12 26 46 .34    -128     80    -22    152    154 302.0  -8.2  33928  285.66 0863.34
2015 04 09 12 26 46 .59    -153     72    -25    170    172 295.2  -8.6  33934  285.75 0863.34
2015 04 09 12 26 46 .84    -109     56     -5    123    124 297.1  -2.6  33942  285.90 0863.34
2015 04 09 12 26 47 .10    -152     28    -23    155    157 280.6  -8.6  33934  285.76 0863.34
2015 04 09 12 26 47 .35    -150      2     11    151    152 270.8   4.4  33946  285.95 0863.34
2015 04 09 12 26 47 .61    -157    -16     -7    158    159 263.9  -2.6  33940  285.87 0863.34
2015 04 09 12 26 47 .85     -37     31     16     49     52 309.5  18.4  33972  286.41 0863.34
2015 04 09 12 26 48 .10    -113     11    -27    114    118 275.7 -13.4  33954  286.08 0863.34
2015 04 09 12 26 48 .35    -122     -3      0    123    124 268.3   0.2  33952  286.05 0863.34
2015 04 09 12 26 48 .61    -174     43    -33    180    184 283.9 -10.5  33938  285.82 0863.34
2015 04 09 12 26 48 .86     -79     22     27     83     88 285.5  17.9  33952  286.05 0863.34
2015 04 09 12 26 49 .11    -191     24    -42    193    198 277.2 -12.4  33930  285.70 0863.34
2015 04 09 12 26 49 .39    -175      5     -1    176    177 271.7  -0.5  33960  286.19 0863.34
2015 04 09 12 26 49 .61    -134      1     -2    135    136 270.8  -1.2  33962  286.22 0863.34
2015 04 09 12 26 49 .86    -141    -52      7    151    152 249.6   2.8  33958  286.17 0863.34
2015 04 09 12 26 50 .11    -195    -60    -31    205    208 252.9  -8.8  33958  286.15 0863.34
2015 04 09 12 26 50 .36    -211     12    -44    212    217 273.5 -11.9  33982  286.56 0863.34
2015 04 09 12 26 50 .61     -63     -7     33     64     72 263.0  28.2  34012  287.08 0863.34
2015 04 09 12 26 50 .86    -179    -55     -5    188    189 252.7  -1.6  34046  287.65 0863.34
2015 04 09 12 26 51 .11     -93   -113     64    147    160 219.6  24.9  34050  287.70 0863.34
2015 04 09 12 26 51 .36     -80     79     39    113    120 314.9  19.4  34068  288.03 0863.34
2015 04 09 12 26 51 .61    -170    -58     31    180    183 250.9   9.9  34106  288.67 0863.34
2015 04 09 12 26 51 .86    -185     14     -4    186    187 274.4  -1.3  34090  288.40 0863.34
2015 04 09 12 26 52 .12    -155    -16     17    156    158 263.9   6.5  34062  287.91 0863.34
2015 04 09 12 26 52 .36    -280      4    -36    281    284 270.9  -7.3  34094  288.46 0863.34
2015 04 09 12 26 52 .62    -222     52    -28    229    231 283.3  -7.2  34064  287.94 0863.34
2015 04 09 12 26 52 .86    -209    -29     18    212    213 261.9   4.9  34048  287.69 0863.34
2015 04 09 12 26 53 .12    -321    -24    -45    322    326 265.6  -8.0  33968  286.33 0863.34
2015 04 09 12 26 53 .37    -192   -122    -13    228    229 237.6  -3.3  34008  287.01 0863.34
2015 04 09 12 26 53 .62    -269    -13    -10    270    271 267.2  -2.2  33948  285.99 0863.34
2015 04 09 12 26 53 .87    -316    -49     -6    320    321 261.2  -1.2  33996  286.79 0863.34
2015 04 09 12 26 54 .13    -365    -37    -61    367    373 264.1  -9.5  33920  285.53 0863.34
2015 04 09 12 26 54 .38    -353    -26    -77    354    363 265.7 -12.3  33912  285.38 0863.34
2015 04 09 12 26 54 .63    -267      0    -33    268    271 270.0  -7.2  33924  285.57 0863.34
2015 04 09 12 26 54 .88    -254     19    -14    255    256 274.3  -3.1  33924  285.59 0863.34
2015 04 09 12 26 55 .13    -330    -16    -43    331    334 267.1  -7.5  33920  285.52 0863.34
2015 04 09 12 26 55 .38    -352     -9    -76    353    362 268.4 -12.2  33908  285.33 0863.34
2015 04 09 12 26 55 .63    -339    -29    -73    341    349 265.0 -12.2  33914  285.40 0863.34
2015 04 09 12 26 55 .88    -314    -53    -42    319    322 260.3  -7.6  33924  285.57 0863.34
2015 04 09 12 26 56 .13    -330     20    -72    331    339 273.5 -12.4  33892  285.03 0863.34
2015 04 09 12 26 56 .38    -249    -17    -33    250    253 266.1  -7.7  33922  285.56 0863.34
2015 04 09 12 26 56 .63    -240    -18     -6    241    242 265.7  -1.6  33928  285.66 0863.35
2015 04 09 12 26 56 .89    -249    -33    -62    252    260 262.3 -13.9  33914  285.42 0863.35
2015 04 09 12 26 57 .14    -112    -72      4    134    135 237.1   1.8  33932  285.71 0863.35
2015 04 09 12 26 57 .39    -179    -58      7    189    190 251.8   2.3  33948  285.98 0863.35
2015 04 09 12 26 57 .64    -119     -5    -21    120    122 267.4 -10.3  33946  285.97 0863.35
2015 04 09 12 26 57 .89     -54     34      3     65     66 302.4   2.8  33956  286.14 0863.35
2015 04 09 12 26 58 .14    -179    -13    -22    180    182 265.6  -7.2  33974  286.42 0863.35
2015 04 09 12 26 58 .39    -196    -68    -38    208    212 250.7 -10.5  33980  286.52 0863.35
2015 04 09 12 26 58 .64    -192      2    -31    193    196 270.6  -9.3  34004  286.93 0863.35
2015 04 09 12 26 58 .88    -216    -50    -53    222    229 256.8 -13.4  34010  287.03 0863.35
2015 04 09 12 26 59 .14    -256    -89    -59    272    279 250.7 -12.4  33908  285.32 0863.35
2015 04 09 12 26 59 .39    -286    -76    -48    297    302 255.0  -9.3  33934  285.74 0863.35
2015 04 09 12 26 59 .64    -190    -45      2    196    197 256.5   0.8  33956  286.14 0863.35
2015 04 09 12 26 59 .89    -191    -32    -33    194    197 260.3  -9.8  33962  286.24 0863.35
2015 04 09 12 27 00 .14    -260     -5     -7    261    262 268.7  -1.6  33944  285.91 0863.35
2015 04 09 12 27 00 .39    -259    -13    -66    260    269 267.0 -14.4  33946  285.94 0863.35
2015 04 09 12 27 00 .64    -229    -63    -25    238    240 254.5  -6.1  33950  286.03 0863.35
2015 04 09 12 27 00 .89    -248      7    -26    249    251 271.7  -6.0  33982  286.55 0863.35
2015 04 09 12 27 01 .15    -364     42    -78    367    376 276.6 -12.0  33994  286.78 0863.35
2015 04 09 12 27 01 .40    -336     27    -57    338    343 274.7  -9.6  33982  286.56 0863.35
2015 04 09 12 27 01 .65    -325    -18    -55    326    331 266.8  -9.6  33940  285.85 0863.35
2015 04 09 12 27 01 .90    -267    -50     -8    272    273 259.4  -1.8  33944  285.91 0863.35
2015 04 09 12 27 02 .16    -255     68    -38    264    267 285.0  -8.2  33940  285.86 0863.35
2015 04 09 12 27 02 .41    -316     47    -41    320    323 278.6  -7.4  33934  285.76 0863.35
2015 04 09 12 27 02 .66    -296    -69    -11    305    306 256.8  -2.1  33944  285.93 0863.35
2015 04 09 12 27 02 .91    -274    -64    -11    282    283 256.7  -2.2  33974  286.43 0863.35
2015 04 09 12 27 03 .16    -208     -9      8    209    210 267.5   2.3  33966  286.30 0863.35
2015 04 09 12 27 03 .41    -215    -14      7    216    217 266.3   2.1  33960  286.19 0863.35
2015 04 09 12 27 03 .66    -442      0    -93    443    453 270.0 -11.9  33938  285.83 0863.35
2015 04 09 12 27 03 .91    -459    -18   -101    460    472 267.7 -12.4  33916  285.45 0863.35
2015 04 09 12 27 04 .16    -432    -10   -102    433    445 268.6 -13.3  33880  284.85 0863.35
2015 04 09 12 27 04 .41    -405      6   -103    406    420 270.9 -14.3  33892  285.04 0863.35
2015 04 09 12 27 04 .66    -397    -22    -61    398    403 266.7  -8.7  33930  285.67 0863.35
2015 04 09 12 27 04 .91    -367    -36    -61    369    375 264.3  -9.4  33948  286.00 0863.35
2015 04 09 12 27 05 .16    -308    -29    -24    310    312 264.5  -4.5  33952  286.04 0863.35
2015 04 09 12 27 05 .41     -96   -102     22    141    143 223.2   9.0  33966  286.29 0863.35
2015 04 09 12 27 05 .66    -305     27    -36    307    310 275.2  -6.8  33964  286.25 0863.35
2015 04 09 12 27 05 .92    -374    -39    -41    377    380 263.9  -6.2  34004  286.93 0863.35
2015 04 09 12 27 06 .17    -341      6    -65    342    349 271.2 -10.9  34012  287.07 0863.35
2015 04 09 12 27 06 .42    -382     23    -68    383    390 273.5 -10.1  34026  287.29 0863.35
2015 04 09 12 27 06 .67    -398     80    -59    406    411 281.4  -8.3  34034  287.43 0863.35
2015 04 09 12 27 06 .92    -378     72    -41    385    388 280.9  -6.2  34044  287.61 0863.35
2015 04 09 12 27 07 .17    -128    -12      1    129    130 264.3   0.8  34060  287.89 0863.35
2015 04 09 12 27 07 .42     -72    106    -14    129    130 325.8  -6.2  34070  288.04 0863.35
2015 04 09 12 27 07 .67    -116    -38     -4    123    124 251.8  -2.2  34082  288.26 0863.34
2015 04 09 12 27 07 .93    -140     76     -5    160    161 298.6  -1.8  34062  287.92 0863.34
2015 04 09 12 27 08 .18    -215      1    -12    216    217 270.4  -3.2  34122  288.92 0863.34
2015 04 09 12 27 08 .43    -131    118    -15    177    178 312.2  -4.9  34134  289.13 0863.34
2015 04 09 12 27 08 .68    -209     31    -58    212    220 278.6 -15.4  34112  288.75 0863.34
2015 04 09 12 27 08 .93    -239    100     23    260    262 292.7   5.2  34020  287.19 0863.34
2015 04 09 12 27 09 .18    -378    114    -50    395    399 286.8  -7.3  33946  285.97 0863.34
2015 04 09 12 27 09 .43    -384    103    -60    398    403 285.1  -8.6  33932  285.73 0863.34
2015 04 09 12 27 09 .68    -342     95    -45    356    359 285.6  -7.2  33926  285.62 0863.34
2015 04 09 12 27 09 .93    -343    126    -46    366    369 290.3  -7.2  33930  285.67 0863.34
2015 04 09 12 27 10 .18    -380    114    -43    397    400 286.8  -6.2  33914  285.40 0863.34
2015 04 09 12 27 10 .44    -394     56    -72    399    406 278.1 -10.2  33916  285.44 0863.34
2015 04 09 12 27 10 .69    -394     51    -57    398    403 277.4  -8.2  33908  285.33 0863.34
2015 04 09 12 27 10 .94    -401     81    -60    410    415 281.5  -8.4  33912  285.37 0863.34
2015 04 09 12 27 11 .19    -403    113    -69    419    425 285.7  -9.4  33918  285.49 0863.34
2015 04 09 12 27 11 .44    -366    121    -70    386    393 288.4 -10.4  33924  285.60 0863.34
2015 04 09 12 27 11 .69    -285    117    -29    309    311 292.4  -5.5  33934  285.74 0863.34
2015 04 09 12 27 11 .94    -311    117    -38    333    336 290.7  -6.6  33948  285.99 0863.34
2015 04 09 12 27 12 .19    -310    104    -25    328    329 288.6  -4.4  33948  285.99 0863.35
2015 04 09 12 27 12 .44    -275    109     -9    296    297 291.7  -1.8  33964  286.25 0863.35
2015 04 09 12 27 12 .69    -286     93    -38    301    304 288.2  -7.2  33954  286.08 0863.35
2015 04 09 12 27 12 .94    -256    107    -18    278    279 292.8  -3.7  33964  286.26 0863.35
2015 04 09 12 27 13 .19    -298     77     -6    308    309 284.6  -1.3  33984  286.58 0863.35
2015 04 09 12 27 13 .44    -276     93    -16    292    293 288.6  -3.2  34020  287.19 0863.35
2015 04 09 12 27 13 .69    -189     65    -44    201    206 289.1 -12.6  34060  287.87 0863.35
2015 04 09 12 27 13 .94    -121    100      9    158    159 309.5   3.3  34034  287.45 0863.34
2015 04 09 12 27 14 .19    -277    100    -50    295    300 289.9  -9.8  34044  287.61 0863.34
2015 04 09 12 27 14 .44    -299     93     -6    314    315 287.3  -1.3  34004  286.94 0863.34
2015 04 09 12 27 14 .69    -296    114    -48    318    322 291.1  -8.6  33976  286.47 0863.34
2015 04 09 12 27 14 .95    -313    113    -42    334    337 290.0  -7.2  33984  286.59 0863.34
2015 04 09 12 27 15 .21    -267    126    -37    296    299 295.2  -7.2  33988  286.65 0863.34
2015 04 09 12 27 15 .46    -220    146    -52    265    271 303.5 -11.1  33998  286.82 0863.34
2015 04 09 12 27 15 .71    -224    155    -54    273    279 304.6 -11.3  33974  286.43 0863.34
2015 04 09 12 27 15 .96    -206    206    -38    292    295 315.1  -7.5  33972  286.38 0863.34
2015 04 09 12 27 16 .21    -250    153    -48    294    299 301.5  -9.4  33980  286.53 0863.34
2015 04 09 12 27 16 .46    -190    121    -67    226    236 302.5 -16.6  34020  287.21 0863.34
2015 04 09 12 27 16 .71    -217    113    -47    245    250 297.5 -10.9  33984  286.60 0863.34
2015 04 09 12 27 16 .96    -188     53    -33    196    199 285.9  -9.8  33960  286.19 0863.34
2015 04 09 12 27 17 .21    -204    186    -60    277    284 312.3 -12.4  33952  286.04 0863.34
2015 04 09 12 27 17 .46    -261    158    -39    306    309 301.3  -7.3  33944  285.91 0863.34
2015 04 09 12 27 17 .71    -309    134    -40    337    340 293.5  -6.8  33940  285.84 0863.35
2015 04 09 12 27 17 .96    -291    169    -58    337    343 300.1  -9.8  33902  285.20 0863.35
2015 04 09 12 27 18 .21    -282    160    -53    325    330 299.5  -9.3  33884  284.90 0863.35
2015 04 09 12 27 18 .46    -255    185    -49    316    320 306.0  -8.8  33890  285.00 0863.35
2015 04 09 12 27 18 .71    -264    185    -38    323    326 305.1  -6.8  33884  284.92 0863.35
2015 04 09 12 27 18 .97    -235    195    -38    306    309 309.6  -7.2  33888  284.97 0863.35
2015 04 09 12 27 19 .22    -254    161    -38    301    304 302.4  -7.3  33890  285.00 0863.35
2015 04 09 12 27 19 .47    -272    127    -47    301    305 295.1  -9.0  33888  284.98 0863.35
2015 04 09 12 27 19 .72    -281    122    -53    307    312 293.5  -9.9  33886  284.93 0863.35
2015 04 09 12 27 19 .97    -259    117    -47    285    289 294.4  -9.4  33898  285.15 0863.35
2015 04 09 12 27 20 .22    -274    102    -41    293    296 290.4  -8.0  33888  284.97 0863.35
2015 04 09 12 27 20 .47    -274    102    -41    293    296 290.4  -8.0  33900  285.19 0863.35
2015 04 09 12 27 20 .72    -245     95    -24    264    266 291.3  -5.4  33922  285.54 0863.35
2015 04 09 12 27 20 .97    -218    107    -35    244    247 296.2  -8.3  33980  286.52 0863.35
2015 04 09 12 27 21 .22     -83     44     15     95     97 298.0   9.0  33986  286.64 0863.35
2015 04 09 12 27 21 .47    -108     69     12    129    130 302.4   5.4  34002  286.91 0863.35
2015 04 09 12 27 21 .72    -247     82    -29    261    263 288.4  -6.5  33968  286.33 0863.35
2015 04 09 12 27 21 .98    -226    117    -21    255    257 297.5  -4.9  33976  286.45 0863.35
2015 04 09 12 27 22 .23    -229    104    -19    252    253 294.4  -4.4  33962  286.23 0863.35
2015 04 09 12 27 22 .48    -243    121    -44    272    276 296.6  -9.4  33950  286.03 0863.35
2015 04 09 12 27 22 .73    -264    119    -25    290    292 294.4  -5.1  33912  285.37 0863.35
2015 04 09 12 27 22 .98    -251    122    -40    280    283 296.0  -8.3  33906  285.29 0863.35
2015 04 09 12 27 23 .24    -240     99    -25    260    262 292.6  -5.6  33920  285.51 0863.35
2015 04 09 12 27 23 .48    -198     99    -25    222    224 296.6  -6.5  33926  285.63 0863.35
2015 04 09 12 27 23 .73    -251    107     -7    273    274 293.1  -1.6  33956  286.13 0863.35
2015 04 09 12 27 24 .01    -238    104    -28    261    263 293.7  -6.2  33996  286.79 0863.35
2015 04 09 12 27 24 .24    -240     33    -22    243    245 277.9  -5.2  33986  286.63 0863.35
2015 04 09 12 27 24 .49    -305     62    -39    312    315 281.5  -7.2  33914  285.42 0863.35
2015 04 09 12 27 24 .74    -288      7    -33    289    291 271.5  -6.7  33908  285.30 0863.35
2015 04 09 12 27 24 .99    -316     68    -24    324    325 282.2  -4.4  33926  285.62 0863.35
2015 04 09 12 27 25 .24    -281     72    -16    291    292 284.4  -3.2  33956  286.13 0863.35
2015 04 09 12 27 25 .49    -262     79    -33    274    276 286.8  -6.9  33952  286.04 0863.35
2015 04 09 12 27 25 .74    -234      0    -38    235    239 270.1  -9.3  33994  286.75 0863.36
2015 04 09 12 27 25 .99    -212     36    -24    216    218 279.7  -6.5  33962  286.22 0863.36
2015 04 09 12 27 26 .24    -247      3    -24    248    250 270.8  -5.6  33946  285.96 0863.36
2015 04 09 12 27 26 .49    -221    -59     35    229    232 254.9   8.9  33968  286.32 0863.36
2015 04 09 12 27 26 .74    -215     43     18    220    221 281.5   4.9  33992  286.73 0863.36
2015 04 09 12 27 26 .99    -309     13    -35    310    312 272.5  -6.5  33912  285.37 0863.36
2015 04 09 12 27 27 .24    -257     85    -34    271    274 288.4  -7.3  33934  285.76 0863.36
2015 04 09 12 27 27 .50    -245     25    -17    247    248 275.9  -4.1  33962  286.23 0863.36
2015 04 09 12 27 27 .74    -297     22    -37    298    301 274.4  -7.2  33940  285.86 0863.36
2015 04 09 12 27 28 .00    -229     48    -25    235    237 281.9  -6.2  33974  286.42 0863.36
2015 04 09 12 27 28 .25    -181     75     10    197    198 292.6   2.9  33974  286.44 0863.36
2015 04 09 12 27 28 .50    -296      4    -35    297    300 270.8  -6.9  33948  285.99 0863.35
2015 04 09 12 27 28 .76    -332     19    -66    333    340 273.3 -11.2  33898  285.16 0863.35
2015 04 09 12 27 29 .01    -320     55    -39    325    328 279.8  -6.9  33942  285.89 0863.35
2015 04 09 12 27 29 .26    -305      9    -38    306    309 271.7  -7.2  33916  285.45 0863.35
2015 04 09 12 27 29 .51    -253     35    -32    256    259 278.0  -7.2  33922  285.56 0863.35
2015 04 09 12 27 29 .76    -313     11    -60    314    320 272.1 -10.9  33892  285.05 0863.35
2015 04 09 12 27 30 .01    -307     52    -48    312    316 279.6  -8.8  33900  285.19 0863.35
2015 04 09 12 27 30 .26    -315     79    -35    325    327 284.2  -6.3  33896  285.10 0863.36
2015 04 09 12 27 30 .51    -330     49    -45    334    338 278.5  -7.7  33894  285.08 0863.36
2015 04 09 12 27 30 .76    -320     11    -76    321    330 272.0 -13.4  33888  284.97 0863.36
2015 04 09 12 27 31 .01    -340      5    -84    341    352 270.9 -13.9  33898  285.16 0863.36
2015 04 09 12 27 31 .26    -335      8    -58    336    342 271.4  -9.9  33898  285.16 0863.36
2015 04 09 12 27 31 .51    -307     29    -79    309    320 275.5 -14.4  33920  285.52 0863.36
2015 04 09 12 27 31 .76    -286     20    -37    287    290 274.1  -7.5  33918  285.47 0863.36
2015 04 09 12 27 32 .02    -145    -58     43    157    163 248.3  15.6  33948  286.00 0863.36
2015 04 09 12 27 32 .27    -284     18    -46    285    289 273.7  -9.3  33970  286.35 0863.36
2015 04 09 12 27 32 .51    -240     12    -18    241    242 273.0  -4.4  33990  286.70 0863.36
2015 04 09 12 27 32 .77    -271      8    -26    272    274 271.7  -5.6  33990  286.68 0863.36
2015 04 09 12 27 33 .02    -277    -22    -45    278    282 265.4  -9.3  33986  286.63 0863.36
2015 04 09 12 27 33 .27    -175     36     13    179    180 281.7   4.2  33994  286.78 0863.36
2015 04 09 12 27 33 .52    -243      7    -35    244    247 271.7  -8.2  33984  286.60 0863.36
2015 04 09 12 27 33 .77    -303     51    -24    308    310 279.6  -4.6  33970  286.36 0863.36
2015 04 09 12 27 34 .02    -208     15    -26    209    211 274.1  -7.2  34004  286.93 0863.36
2015 04 09 12 27 34 .27    -105    -34     52    111    122 251.8  26.6  34030  287.38 0863.36
2015 04 09 12 27 34 .52    -130     48     17    139    141 290.4   7.1  34012  287.06 0863.36
2015 04 09 12 27 34 .77    -285     46    -63    289    296 279.2 -12.4  34024  287.28 0863.36
2015 04 09 12 27 35 .02    -231    -74    -13    243    244 252.1  -3.3  34072  288.07 0863.35
2015 04 09 12 27 35 .27    -281    -52    -11    286    287 259.4  -2.2  34116  288.83 0863.35
2015 04 09 12 27 35 .52    -294     -4    -37    295    298 269.2  -7.3  34080  288.21 0863.35
2015 04 09 12 27 35 .79    -375     20    -40    376    379 273.2  -6.1  33942  285.89 0863.35
2015 04 09 12 27 36 .03    -271    -31     23    273    275 263.4   5.0  33938  285.83 0863.35
2015 04 09 12 27 36 .28    -318     23    -47    319    323 274.3  -8.4  33898  285.14 0863.35
2015 04 09 12 27 36 .54    -346     -9    -44    347    350 268.5  -7.4  33904  285.26 0863.35
2015 04 09 12 27 36 .79    -279     -8    -46    280    284 268.3  -9.4  33972  286.40 0863.35
2015 04 09 12 27 37 .04    -344     10    -60    345    351 271.7  -9.9  33902  285.21 0863.35
2015 04 09 12 27 37 .29    -335      8    -26    336    338 271.4  -4.6  33966  286.29 0863.35
2015 04 09 12 27 37 .54    -278     12    -46    279    283 272.6  -9.4  33948  285.98 0863.35
2015 04 09 12 27 37 .79    -261     16    -39    262    265 273.5  -8.6  34006  286.97 0863.35
2015 04 09 12 27 38 .04    -322     -1    -63    323    330 269.7 -11.1  33898  285.14 0863.35
2015 04 09 12 27 38 .29    -249     44     -1    253    254 280.1  -0.3  33934  285.76 0863.35
2015 04 09 12 27 38 .54    -311    -48    -41    315    318 261.2  -7.5  33924  285.59 0863.35
2015 04 09 12 27 38 .79    -343     29    -70    345    353 274.9 -11.6  33962  286.22 0863.35
2015 04 09 12 27 39 .04    -325    -16    -76    326    335 267.1 -13.1  33922  285.55 0863.35
2015 04 09 12 27 39 .29    -328      7    -57    329    335 271.4  -9.9  33948  285.99 0863.35
2015 04 09 12 27 39 .55    -339     -5    -39    340    343 269.1  -6.7  33964  286.26 0863.35
2015 04 09 12 27 39 .79    -370      7    -33    371    373 271.2  -5.1  34006  286.96 0863.35
2015 04 09 12 27 40 .04    -360    -12    -76    361    369 268.0 -11.9  33906  285.28 0863.35
2015 04 09 12 27 40 .29    -365      5    -67    366    373 270.9 -10.4  33902  285.23 0863.35
2015 04 09 12 27 40 .54    -372      0    -71    373    380 270.0 -10.9  33896  285.11 0863.35
2015 04 09 12 27 40 .80    -357    -27    -52    358    362 265.7  -8.4  33902  285.20 0863.35
2015 04 09 12 27 41 .04    -291    -49     -5    296    297 260.3  -1.1  33904  285.24 0863.35
2015 04 09 12 27 41 .29    -291    -23    -37    292    295 265.4  -7.3  33898  285.14 0863.35
2015 04 09 12 27 41 .54    -377    -28    -69    378    385 265.6 -10.4  33880  284.84 0863.35
2015 04 09 12 27 41 .80    -356    -17    -80    357    366 267.2 -12.7  33880  284.86 0863.35
2015 04 09 12 27 42 .05    -335    -53    -62    340    346 260.9 -10.4  33888  284.98 0863.35
2015 04 09 12 27 42 .30    -338     -8    -43    339    342 268.5  -7.3  33898  285.15 0863.35
2015 04 09 12 27 42 .55    -304    -42    -64    307    314 262.1 -11.8  33892  285.05 0863.35
2015 04 09 12 27 42 .81    -308    -41    -69    311    319 262.3 -12.6  33884  284.90 0863.35
2015 04 09 12 27 43 .06    -224    -63    -62    233    242 254.3 -15.0  33890  285.00 0863.35
2015 04 09 12 27 43 .31    -285      4    -47    286    290 270.8  -9.3  33890  285.02 0863.35
2015 04 09 12 27 43 .56    -211    -32    -31    214    217 261.2  -8.2  33922  285.56 0863.35
2015 04 09 12 27 43 .81    -324      2    -43    325    328 270.4  -7.7  33898  285.14 0863.35
2015 04 09 12 27 44 .06    -256    -44    -28    260    262 260.1  -6.2  33910  285.35 0863.35
2015 04 09 12 27 44 .31    -213    -13     -8    214    215 266.3  -2.2  33910  285.34 0863.35
2015 04 09 12 27 44 .56    -339      0    -44    340    343 270.0  -7.5  33884  284.91 0863.35
2015 04 09 12 27 44 .81    -295     -4    -43    296    300 269.2  -8.3  33912  285.37 0863.35
2015 04 09 12 27 45 .07    -243    -68    -41    253    257 254.3  -9.4  33940  285.84 0863.35
2015 04 09 12 27 45 .32    -323     -4    -30    324    326 269.2  -5.4  34018  287.16 0863.35
2015 04 09 12 27 45 .57    -318     24    -42    319    322 274.4  -7.6  34004  286.92 0863.35
2015 04 09 12 27 45 .81    -291     23     -9    292    293 274.6  -1.8  34044  287.61 0863.35
2015 04 09 12 27 46 .07    -243    -44    -42    248    252 259.6  -9.8  34036  287.48 0863.35
2015 04 09 12 27 46 .32    -226    -14     27    227    229 266.3   6.9  34054  287.79 0863.35
2015 04 09 12 27 46 .57    -196    -29     10    199    200 261.4   3.1  34064  287.94 0863.35
2015 04 09 12 27 46 .81    -320     -2    -38    321    324 269.6  -6.9  34054  287.78 0863.35
2015 04 09 12 27 47 .07    -324     -9    -34    325    327 268.4  -6.1  33930  285.67 0863.35
2015 04 09 12 27 47 .32    -357    -16    -80    358    367 267.4 -12.6  33890  285.01 0863.35
2015 04 09 12 27 47 .57    -390    -27    -60    391    396 266.0  -8.8  33892  285.03 0863.35
2015 04 09 12 27 47 .82    -351    -12    -71    352    360 268.0 -11.5  33902  285.20 0863.35
2015 04 09 12 27 48 .07    -340      4    -43    341    344 270.7  -7.2  33904  285.26 0863.35
2015 04 09 12 27 48 .33    -287    -30    -40    289    292 263.9  -8.0  33944  285.93 0863.35
2015 04 09 12 27 48 .57    -301    -22    -68    302    310 265.7 -12.7  33956  286.11 0863.35
2015 04 09 12 27 48 .82    -166    -40    -31    171    174 256.3 -10.5  33980  286.54 0863.35
2015 04 09 12 27 49 .07    -178     25     18    180    181 278.1   5.9  34018  287.16 0863.35
2015 04 09 12 27 49 .32    -179    -58    -25    189    191 251.8  -7.7  34030  287.38 0863.35
2015 04 09 12 27 49 .58    -242     -3     18    243    244 269.1   4.4  34038  287.51 0863.34
2015 04 09 12 27 49 .83    -160    -15    -14    161    162 264.3  -5.2  34016  287.15 0863.34
2015 04 09 12 27 50 .09    -290    -36    -26    293    295 262.8  -5.2  33922  285.54 0863.34
2015 04 09 12 27 50 .34    -317     25    -25    319    321 274.6  -4.6  33954  286.09 0863.34
2015 04 09 12 27 50 .59    -345    -12    -36    346    348 267.9  -6.0  33984  286.59 0863.34
2015 04 09 12 27 50 .84    -279    -21    -65    280    288 265.6 -13.2  33970  286.35 0863.34
2015 04 09 12 27 51 .09    -305      0    -53    306    311 270.0  -9.9  33924  285.57 0863.34
2015 04 09 12 27 51 .34    -284     24    -15    286    287 275.0  -3.1  33978  286.48 0863.34
2015 04 09 12 27 51 .59    -359     -2    -39    360    363 269.6  -6.3  33904  285.25 0863.34
2015 04 09 12 27 51 .84    -342     -4    -50    343    347 269.2  -8.4  33940  285.85 0863.34
2015 04 09 12 27 52 .09    -328    -20    -46    329    333 266.4  -8.1  33946  285.95 0863.34
2015 04 09 12 27 52 .34    -291     -4    -52    292    297 269.2 -10.3  34002  286.89 0863.34
2015 04 09 12 27 52 .59    -296     45    -32    300    302 278.8  -6.2  34028  287.34 0863.34
2015 04 09 12 27 52 .84    -198    -50      1    205    206 255.8   0.5  34030  287.37 0863.34
2015 04 09 12 27 53 .09    -355     16    -64    356    362 272.6 -10.3  33932  285.73 0863.34
2015 04 09 12 27 53 .34    -340     -2    -43    341    344 269.5  -7.2  33912  285.38 0863.34
2015 04 09 12 27 53 .60    -242    -31    -24    245    247 262.5  -5.6  33978  286.50 0863.34
2015 04 09 12 27 53 .85    -239    -40    -38    243    247 260.4  -9.0  33978  286.50 0863.34
2015 04 09 12 27 54 .10    -148    -25    -19    151    153 260.3  -7.2  34028  287.35 0863.34
2015 04 09 12 27 54 .34    -314     14    -30    315    317 272.6  -5.5  33926  285.62 0863.34
2015 04 09 12 27 54 .60    -311      9    -53    312    317 271.7  -9.8  33898  285.15 0863.34
2015 04 09 12 27 54 .85    -354     19    -69    355    362 273.2 -11.0  33892  285.03 0863.34
2015 04 09 12 27 55 .10    -371      6    -63    372    378 271.0  -9.7  33886  284.94 0863.34
2015 04 09 12 27 55 .35    -377     37    -62    379    385 275.7  -9.3  33880  284.86 0863.34
2015 04 09 12 27 55 .60    -374     39    -48    377    381 276.0  -7.3  33886  284.94 0863.34
2015 04 09 12 27 55 .85    -377     53    -53    381    385 278.0  -8.0  33880  284.83 0863.34
2015 04 09 12 27 56 .10    -343     39    -43    346    349 276.6  -7.2  33886  284.93 0863.34
2015 04 09 12 27 56 .35    -332      3    -18    333    334 270.6  -3.1  33892  285.03 0863.34
2015 04 09 12 27 56 .61    -358     29    -56    360    365 274.7  -8.9  33880  284.86 0863.34
2015 04 09 12 27 56 .86    -364     18    -46    365    368 272.9  -7.2  33882  284.88 0863.34
2015 04 09 12 27 57 .11    -366     16    -47    367    370 272.6  -7.3  33898  285.16 0863.34
2015 04 09 12 27 57 .36    -379     24    -54    380    384 273.6  -8.2  33886  284.93 0863.34
2015 04 09 12 27 57 .61    -374     18    -60    375    380 272.8  -9.1  33898  285.15 0863.34
2015 04 09 12 27 57 .86    -364     27    -60    365    370 274.3  -9.3  33888  284.99 0863.34
2015 04 09 12 27 58 .11    -348     42    -31    351    353 277.0  -5.1  33914  285.43 0863.34
2015 04 09 12 27 58 .36    -312     68    -19    320    321 282.3  -3.5  33902  285.20 0863.34
2015 04 09 12 27 58 .61    -269     -2    -39    270    273 269.4  -8.2  33902  285.22 0863.34
2015 04 09 12 27 58 .87    -318     59    -43    324    327 280.6  -7.6  33896  285.10 0863.34
2015 04 09 12 27 59 .12    -322     67    -35    330    332 281.9  -6.1  33912  285.38 0863.34
2015 04 09 12 27 59 .37    -338     20    -28    339    341 273.5  -4.8  33908  285.30 0863.34
2015 04 09 12 27 59 .62    -257    -58    -19    264    265 257.2  -4.1  33896  285.10 0863.34
2015 04 09 12 27 59 .87    -357     34    -52    359    363 275.5  -8.4  33886  284.94 0863.34
2015 04 09 12 28 00 .12    -325     24    -45    326    330 274.3  -8.0  33908  285.33 0863.34
2015 04 09 12 28 00 .37    -299     34    -43    301    305 276.6  -8.3  33890  285.02 0863.34
2015 04 09 12 28 00 .62    -350      3    -61    351    357 270.6  -9.9  33882  284.88 0863.34
2015 04 09 12 28 00 .87    -353     38    -65    356    362 276.3 -10.4  33880  284.86 0863.34
2015 04 09 12 28 01 .12    -336      8    -64    337    344 271.5 -10.8  33880  284.84 0863.34
2015 04 09 12 28 01 .37    -336     14    -71    337    345 272.5 -12.0  33876  284.78 0863.35
2015 04 09 12 28 01 .62    -332      3    -66    333    340 270.6 -11.2  33878  284.81 0863.35
2015 04 09 12 28 01 .87    -341     23    -58    342    347 273.9  -9.7  33880  284.83 0863.35
2015 04 09 12 28 02 .12    -334     11    -50    335    339 272.0  -8.6  33880  284.86 0863.35
2015 04 09 12 28 02 .37    -314     -8    -32    315    317 268.5  -5.9  33916  285.45 0863.35
2015 04 09 12 28 02 .62    -300      4    -59    301    307 270.8 -11.1  33884  284.90 0863.35
2015 04 09 12 28 02 .88    -290     31    -48    292    296 276.2  -9.3  33888  284.97 0863.35
2015 04 09 12 28 03 .12    -321    -16    -49    322    326 267.0  -8.8  33882  284.88 0863.35
2015 04 09 12 28 03 .38    -302     13    -28    303    305 272.6  -5.4  33900  285.17 0863.35
2015 04 09 12 28 03 .63    -240    -28      3    242    243 263.2   0.8  33934  285.74 0863.35
2015 04 09 12 28 03 .89    -268      4    -64    269    277 271.0 -13.4  33884  284.90 0863.35
2015 04 09 12 28 04 .14    -270     20    -44    271    275 274.4  -9.4  33894  285.07 0863.35
2015 04 09 12 28 04 .39    -294     13    -20    295    296 272.6  -3.9  33906  285.29 0863.35
2015 04 09 12 28 04 .64    -294    -22    -52    295    300 265.7 -10.1  33882  284.87 0863.35
2015 04 09 12 28 04 .89    -311     15    -63    312    319 272.8 -11.6  33880  284.85 0863.35
2015 04 09 12 28 05 .14    -319     -8    -57    320    326 268.4 -10.2  33878  284.82 0863.35
2015 04 09 12 28 05 .39    -320     -9    -69    321    329 268.3 -12.2  33876  284.78 0863.35
2015 04 09 12 28 05 .64    -321    -21    -59    322    328 266.2 -10.4  33880  284.83 0863.35
2015 04 09 12 28 05 .89    -266    -45    -31    270    272 260.4  -6.7  33906  285.29 0863.35
2015 04 09 12 28 06 .14    -276     -8    -55    277    283 268.3 -11.3  33880  284.85 0863.35
2015 04 09 12 28 06 .39    -280    -21    -57    281    287 265.6 -11.6  33880  284.83 0863.35
2015 04 09 12 28 06 .64    -260      0    -50    261    266 269.9 -10.9  33884  284.92 0863.35
2015 04 09 12 28 06 .89    -280    -16    -55    281    287 266.7 -11.1  33876  284.77 0863.35
2015 04 09 12 28 07 .14    -287    -49    -52    292    297 260.3 -10.1  33878  284.82 0863.35
2015 04 09 12 28 07 .40    -253    -19    -46    254    259 265.7 -10.3  33888  284.98 0863.35
2015 04 09 12 28 07 .65    -244    -12    -40    245    249 267.0  -9.3  33890  285.02 0863.35
2015 04 09 12 28 07 .90    -196     -8    -10    197    198 267.4  -3.1  33898  285.14 0863.35
2015 04 09 12 28 08 .15    -185    -26    -23    187    189 262.0  -7.2  33896  285.11 0863.35
2015 04 09 12 28 08 .40    -221     16     -8    222    223 274.4  -2.2  33894  285.09 0863.35
2015 04 09 12 28 08 .65    -221      3    -35    222    225 270.8  -9.0  33906  285.29 0863.35
2015 04 09 12 28 08 .90    -212     -1     29    213    215 269.6   7.8  33974  286.44 0863.35
2015 04 09 12 28 09 .15    -246    -12    -31    247    250 267.2  -7.3  34008  286.99 0863.35
2015 04 09 12 28 09 .39    -268    -39      1    271    272 261.6   0.2  34020  287.21 0863.35
2015 04 09 12 28 09 .65    -265     48    -58    270    277 280.4 -12.2  33912  285.37 0863.35
2015 04 09 12 28 09 .90    -321     34    -30    323    325 276.2  -5.4  33932  285.72 0863.35
2015 04 09 12 28 10 .15    -345     55    -36    350    352 279.1  -5.9  33968  286.32 0863.35
2015 04 09 12 28 10 .40    -322     63    -39    329    332 281.1  -6.9  33948  286.00 0863.35
2015 04 09 12 28 10 .66    -349     50    -58    353    358 278.3  -9.3  33930  285.67 0863.35
2015 04 09 12 28 10 .91    -331     50    -65    335    342 278.6 -11.1  33886  284.94 0863.35
2015 04 09 12 28 11 .16    -341     65    -59    348    354 280.9  -9.7  33876  284.79 0863.35
2015 04 09 12 28 11 .41    -337     74    -56    346    351 282.5  -9.3  33880  284.84 0863.35
2015 04 09 12 28 11 .66    -312     81    -67    323    330 284.6 -11.8  33882  284.87 0863.35
2015 04 09 12 28 11 .91    -321     69    -59    329    335 282.2 -10.2  33880  284.84 0863.35
2015 04 09 12 28 12 .17    -318     86    -47    330    334 285.2  -8.1  33888  284.98 0863.35
2015 04 09 12 28 12 .41    -297     87    -56    310    316 286.4 -10.3  33878  284.82 0863.35
2015 04 09 12 28 12 .67    -292     92    -48    307    311 287.5  -9.0  33886  284.95 0863.35
2015 04 09 12 28 12 .92    -302     82    -16    314    315 285.3  -3.0  33894  285.07 0863.35
2015 04 09 12 28 13 .17    -290     62    -44    297    301 282.2  -8.6  33884  284.92 0863.35
2015 04 09 12 28 13 .42    -292     92    -48    307    311 287.5  -9.0  33886  284.95 0863.35
2015 04 09 12 28 13 .68    -281     78    -36    292    295 285.7  -7.2  33884  284.92 0863.35
2015 04 09 12 28 13 .92    -289     96    -39    305    308 288.4  -7.3  33904  285.24 0863.35
2015 04 09 12 28 14 .17    -276     93    -37    292    295 288.6  -7.3  33890  285.02 0863.35
2015 04 09 12 28 14 .42    -275     60    -21    282    283 282.4  -4.4  33892  285.05 0863.35
2015 04 09 12 28 14 .67    -293     70    -58    302    308 283.5 -11.0  33890  285.00 0863.35
2015 04 09 12 28 14 .92    -278     56    -36    284    287 281.4  -7.3  33892  285.05 0863.36
2015 04 09 12 28 15 .17    -284     67    -48    292    296 283.3  -9.3  33922  285.54 0863.36
2015 04 09 12 28 15 .42    -233     69    -26    244    246 286.6  -6.1  33944  285.91 0863.36
2015 04 09 12 28 15 .67    -178     59     -5    188    189 288.6  -1.8  33942  285.88 0863.36
2015 04 09 12 28 15 .93    -215     55    -32    223    226 284.4  -8.2  33942  285.88 0863.36
2015 04 09 12 28 16 .17    -248     26    -33    250    253 276.1  -7.7  33890  285.02 0863.36
2015 04 09 12 28 16 .43    -226     64    -27    236    238 285.9  -6.7  33902  285.20 0863.36
2015 04 09 12 28 16 .69    -230     61    -21    239    240 285.0  -5.2  33898  285.15 0863.35
2015 04 09 12 28 16 .93    -237     72    -37    248    251 286.9  -8.6  33890  285.00 0863.35
2015 04 09 12 28 17 .18    -250     55    -32    257    260 282.4  -7.2  33896  285.12 0863.35
2015 04 09 12 28 17 .44    -244     64    -18    253    254 284.8  -4.1  33910  285.34 0863.35
2015 04 09 12 28 17 .69    -222     58    -21    230    232 284.6  -5.4  33910  285.34 0863.35
2015 04 09 12 28 17 .94    -214     19    -23    215    217 275.2  -6.2  33940  285.85 0863.35
2015 04 09 12 28 18 .19    -155     14     -3    156    157 275.2  -1.1  33994  286.78 0863.35
2015 04 09 12 28 18 .44     -54      4     21     55     58 274.4  22.0  33992  286.74 0863.35
2015 04 09 12 28 18 .69    -224     31    -22    227    229 278.0  -5.6  33910  285.36 0863.35
2015 04 09 12 28 18 .94    -255     31    -33    257    260 277.1  -7.5  33888  284.97 0863.35
2015 04 09 12 28 19 .19    -285     62    -48    292    296 282.4  -9.3  33884  284.90 0863.35
2015 04 09 12 28 19 .45    -260     36    -43    263    267 277.9  -9.3  33924  285.57 0863.35
2015 04 09 12 28 19 .69    -202     31    -26    205    207 278.8  -7.3  33962  286.22 0863.35
2015 04 09 12 28 19 .94    -159     68    -15    174    175 293.3  -5.2  33992  286.73 0863.35
2015 04 09 12 28 20 .20    -136     43    -45    143    151 287.7 -17.6  34008  287.01 0863.35
2015 04 09 12 28 20 .44    -209     36    -26    213    215 279.9  -7.2  34016  287.15 0863.35
2015 04 09 12 28 20 .69    -228     55    -25    235    237 283.7  -6.2  33944  285.93 0863.35
2015 04 09 12 28 20 .95    -229     60    -18    237    238 284.8  -4.4  33938  285.81 0863.35
2015 04 09 12 28 21 .19    -250     79    -35    263    266 287.7  -7.7  33884  284.90 0863.35
2015 04 09 12 28 21 .45    -256     74    -45    267    271 286.2  -9.6  33882  284.87 0863.35
2015 04 09 12 28 21 .70    -282     81    -46    294    298 286.2  -9.0  33878  284.82 0863.35
2015 04 09 12 28 21 .95    -263     57    -54    270    276 282.4 -11.3  33882  284.87 0863.35
2015 04 09 12 28 22 .20    -259     63    -52    267    273 283.7 -11.1  33880  284.83 0863.35
2015 04 09 12 28 22 .45    -257     55    -47    263    268 282.2 -10.1  33880  284.85 0863.35
2015 04 09 12 28 22 .70    -253     63    -42    261    265 284.1  -9.3  33880  284.85 0863.35
2015 04 09 12 28 22 .95    -244     53    -39    250    254 282.4  -9.0  33878  284.82 0863.35
2015 04 09 12 28 23 .20    -237     59    -38    245    249 284.1  -9.0  33882  284.87 0863.35
2015 04 09 12 28 23 .45    -224     41    -28    228    230 280.4  -7.2  33884  284.91 0863.35
2015 04 09 12 28 23 .70    -225     54    -41    232    236 283.7 -10.1  33880  284.83 0863.35
2015 04 09 12 28 23 .95    -228     46    -33    233    236 281.5  -8.3  33884  284.92 0863.35
2015 04 09 12 28 24 .20    -181     52    -10    189    190 286.2  -3.1  33890  285.02 0863.35
2015 04 09 12 28 24 .46    -209     55    -41    217    222 284.8 -10.9  33878  284.82 0863.35
2015 04 09 12 28 24 .71    -215     57    -28    223    225 285.0  -7.2  33882  284.87 0863.35
2015 04 09 12 28 24 .96    -192     43    -48    197    203 282.8 -13.7  33880  284.86 0863.36
2015 04 09 12 28 25 .21    -203     47    -30    209    212 283.3  -8.2  33882  284.87 0863.36
2015 04 09 12 28 25 .46    -215     58    -35    223    226 285.3  -9.0  33878  284.82 0863.36
2015 04 09 12 28 25 .71    -215     46    -45    220    225 282.2 -11.6  33878  284.82 0863.36
2015 04 09 12 28 25 .96    -199     44    -43    204    209 282.6 -11.9  33880  284.86 0863.36
2015 04 09 12 28 26 .21    -191     45    -40    197    201 283.3 -11.5  33876  284.77 0863.36
2015 04 09 12 28 26 .47    -192     48    -42    198    203 284.2 -12.2  33878  284.81 0863.36
2015 04 09 12 28 26 .72    -203     47    -30    209    212 283.3  -8.2  33882  284.87 0863.36
2015 04 09 12 28 26 .97    -199     31    -33    202    205 279.0  -9.3  33878  284.81 0863.36
2015 04 09 12 28 27 .22    -191     31    -24    194    196 279.2  -7.2  33890  285.01 0863.36
2015 04 09 12 28 27 .47    -172     31    -23    175    177 280.4  -7.7  33890  285.02 0863.36
2015 04 09 12 28 27 .72    -152     16     -8    153    154 276.2  -3.1  33904  285.26 0863.36
2015 04 09 12 28 27 .97    -141      5     -7    142    143 272.1  -3.2  33906  285.29 0863.36
2015 04 09 12 28 28 .23    -156     21    -10    158    159 278.0  -3.9  33904  285.26 0863.36
2015 04 09 12 28 28 .47    -138     56     -6    150    151 292.2  -2.6  33948  286.00 0863.36
2015 04 09 12 28 28 .72    -153     46    -23    160    162 286.8  -8.2  33948  285.98 0863.36
2015 04 09 12 28 28 .98    -152     16    -20    153    155 276.2  -7.5  33942  285.88 0863.36
2015 04 09 12 28 29 .22    -121      3    -17    122    124 271.7  -8.2  33944  285.92 0863.36
2015 04 09 12 28 29 .47    -111     17     -5    113    114 278.8  -2.6  33946  285.95 0863.36
2015 04 09 12 28 29 .72    -157     35    -29    161    164 282.8 -10.3  33942  285.88 0863.36
2015 04 09 12 28 29 .97    -163     19    -31    165    169 276.8 -10.9  33884  284.91 0863.36
2015 04 09 12 28 30 .22    -155     24    -40    157    163 278.8 -14.3  33878  284.82 0863.36
2015 04 09 12 28 30 .48    -169     28    -30    172    175 279.7 -10.1  33882  284.87 0863.36
2015 04 09 12 28 30 .73    -161     24    -29    163    166 278.8 -10.1  33882  284.87 0863.36
2015 04 09 12 28 30 .98    -164     45    -23    171    173 285.3  -7.7  33894  285.09 0863.36
2015 04 09 12 28 31 .23    -157     10    -10    158    159 273.9  -3.9  33904  285.26 0863.36
2015 04 09 12 28 31 .49    -167     40    -20    172    174 283.7  -6.9  33904  285.24 0863.36
2015 04 09 12 28 31 .74    -166     17     -6    167    168 275.9  -2.3  33908  285.31 0863.36
2015 04 09 12 28 31 .99    -164     45    -23    171    173 285.3  -7.7  33894  285.09 0863.36
2015 04 09 12 28 32 .24    -164     43    -31    170    173 284.8 -10.5  33880  284.84 0863.36
2015 04 09 12 28 32 .49    -164     39    -33    169    173 283.7 -11.3  33878  284.82 0863.36
2015 04 09 12 28 32 .74    -166     40    -26    171    174 283.7  -8.8  33882  284.89 0863.36
2015 04 09 12 28 32 .99    -156     48    -32    164    168 287.1 -11.1  33884  284.91 0863.36
2015 04 09 12 28 33 .24    -140     37    -36    145    150 285.0 -13.9  33880  284.84 0863.36
2015 04 09 12 28 33 .49    -149     35    -31    154    158 283.3 -11.3  33880  284.86 0863.36
2015 04 09 12 28 33 .74    -156     40    -38    162    167 284.4 -13.4  33878  284.82 0863.36
2015 04 09 12 28 33 .99    -161     44    -46    167    174 285.3 -15.5  33880  284.86 0863.36
2015 04 09 12 28 34 .24    -156     40    -38    162    167 284.4 -13.4  33878  284.82 0863.36
2015 04 09 12 28 34 .49    -160     30    -42    163    169 280.8 -14.5  33878  284.82 0863.36
2015 04 09 12 28 34 .74    -153     30    -36    157    162 281.4 -12.9  33880  284.86 0863.36
2015 04 09 12 28 35 .00    -159     14    -23    160    162 275.2  -8.2  33888  284.99 0863.36
2015 04 09 12 28 35 .25    -150     16    -19    151    153 276.2  -7.3  33902  285.23 0863.36
2015 04 09 12 28 35 .50    -142     27    -18    145    147 281.0  -7.3  33902  285.21 0863.36
2015 04 09 12 28 35 .75    -142      8    -23    143    145 273.5  -9.3  33910  285.36 0863.36
2015 04 09 12 28 36 .00    -156     11    -21    157    159 274.4  -7.7  33908  285.33 0863.36
2015 04 09 12 28 36 .25    -148     29    -12    151    152 281.4  -4.6  33918  285.48 0863.36
2015 04 09 12 28 36 .50    -149     24    -19    151    153 279.2  -7.3  33912  285.38 0863.36
2015 04 09 12 28 36 .75    -143     29    -14    146    147 281.5  -5.6  33916  285.44 0863.35
2015 04 09 12 28 37 .00    -123     27    -21    126    128 282.4  -9.8  33906  285.29 0863.35
2015 04 09 12 28 37 .26    -134     36    -17    139    141 285.1  -7.2  33914  285.41 0863.35
2015 04 09 12 28 37 .50    -103      0     -5    104    105 269.6  -3.1  33924  285.58 0863.35
2015 04 09 12 28 37 .76    -118     32    -15    123    125 285.5  -7.3  33930  285.68 0863.35
2015 04 09 12 28 38 .00     -64     25      7     69     70 291.7   5.9  33938  285.82 0863.35
2015 04 09 12 28 38 .26     -54     18     19     57     61 288.6  18.4  33948  285.98 0863.35
2015 04 09 12 28 38 .51     -96      0    -12     97     98 270.4  -7.3  33948  285.98 0863.35
2015 04 09 12 28 38 .77     -49    -16     -2     52     53 251.8  -3.1  33958  286.15 0863.35
2015 04 09 12 28 39 .01     -32    -29    -12     44     45 227.8 -20.7  33960  286.19 0863.35
2015 04 09 12 28 39 .27       2    -36     23     37     43 175.6  35.5  33966  286.29 0863.35
2015 04 09 12 28 39 .52     -29     -8     -4     31     32 253.2  -7.3  33978  286.51 0863.35
2015 04 09 12 28 39 .77       0      4     22      5     22 350.3  89.0  33998  286.84 0863.35
2015 04 09 12 28 40 .02     -18     18     33     26     42 315.0  57.5  34012  287.06 0863.35
2015 04 09 12 28 40 .27     -28     29     22     41     46 315.9  30.3  34030  287.37 0863.35
2015 04 09 12 28 40 .52     -10      7     22     13     25 306.0  64.7  34046  287.65 0863.35
2015 04 09 12 28 40 .76     -32      0     27     33     42 270.8  44.8  34054  287.77 0863.35
2015 04 09 12 28 41 .02     -98     27    -20    102    105 285.5 -11.5  33928  285.66 0863.35
2015 04 09 12 28 41 .27     -87     25    -25     91     94 286.4 -20.7  33890  285.02 0863.35
2015 04 09 12 28 41 .52     -92     29    -17     97     99 287.7 -10.3  33928  285.66 0863.35
2015 04 09 12 28 41 .77     -91     34    -24     98    101 290.8 -13.9  33952  286.05 0863.35
2015 04 09 12 28 42 .02     -66     43      4     80     81 303.3   3.3  33976  286.47 0863.35
2015 04 09 12 28 42 .27     -76      6     -1     77     78 275.2  -1.3  33966  286.29 0863.35
2015 04 09 12 28 42 .52     -89      6    -11     90     91 273.9  -7.3  33956  286.14 0863.35
2015 04 09 12 28 42 .78     -92      7    -11     93     94 274.8  -7.3  33964  286.25 0863.35
2015 04 09 12 28 43 .03     -78     -5      0     79     80 265.7  -0.7  33946  285.95 0863.35
2015 04 09 12 28 43 .27     -78    -13     -1     80     81 260.3  -1.3  33898  285.16 0863.35
2015 04 09 12 28 43 .52     -96     11    -20     97    100 277.0 -11.9  33882  284.87 0863.35
2015 04 09 12 28 43 .77    -102      7    -28    103    107 274.4 -15.5  33882  284.89 0863.35
2015 04 09 12 28 44 .03     -98      1    -16     99    101 270.8  -9.3  33890  285.02 0863.35
2015 04 09 12 28 44 .28     -91      4    -15     92     94 273.0  -9.8  33892  285.04 0863.35
2015 04 09 12 28 44 .53     -95      8    -12     96     97 274.8  -7.3  33888  284.99 0863.35
2015 04 09 12 28 44 .78    -100      7     -9    101    102 274.4  -5.6  33886  284.96 0863.35
2015 04 09 12 28 45 .03    -100      0     -9    101    102 270.0  -5.6  33884  284.91 0863.35
2015 04 09 12 28 45 .29    -101      4    -19    102    104 272.6 -10.9  33886  284.96 0863.35
2015 04 09 12 28 45 .54     -96     17    -12     98     99 280.1  -7.3  33890  285.02 0863.35
2015 04 09 12 28 45 .79     -86    -27      4     91     92 252.3   2.9  33906  285.28 0863.35
2015 04 09 12 28 46 .04     -94      1    -19     95     97 270.8 -11.3  33892  285.06 0863.35
2015 04 09 12 28 46 .29    -102     24     -3    105    106 283.7  -1.8  33906  285.28 0863.35
2015 04 09 12 28 46 .54    -122     37    -11    128    129 286.9  -5.1  33906  285.28 0863.35
2015 04 09 12 28 46 .79    -120     28    -16    124    126 283.3  -7.7  33888  284.99 0863.35
2015 04 09 12 28 47 .04    -102     24    -21    105    108 283.3 -11.3  33888  284.97 0863.35
2015 04 09 12 28 47 .29    -111     16    -23    113    116 278.4 -11.9  33886  284.96 0863.35
2015 04 09 12 28 47 .54    -105     12    -24    106    109 277.0 -12.9  33886  284.96 0863.34
2015 04 09 12 28 47 .79     -95      5    -21     96     99 273.5 -12.4  33884  284.92 0863.34
2015 04 09 12 28 48 .04    -100      5    -30    101    105 273.0 -21.7  33884  284.92 0863.34
2015 04 09 12 28 48 .29     -97     -1    -26     98    102 269.2 -15.0  33904  285.24 0863.34
2015 04 09 12 28 48 .55    -115      0    -20    116    118 269.6  -9.8  33914  285.43 0863.34
2015 04 09 12 28 48 .79    -112      0    -17    113    115 270.4  -8.8  33906  285.29 0863.34
2015 04 09 12 28 49 .05     -91      5    -24     92     96 273.5 -14.5  33896  285.11 0863.34
2015 04 09 12 28 49 .30     -92      7    -25     93     97 274.8 -15.5  33892  285.04 0863.34
2015 04 09 12 28 49 .55     -87     13    -11     89     90 278.8  -7.3  33904  285.24 0863.34
2015 04 09 12 28 49 .80     -89      0    -22     90     93 270.4 -13.9  33900  285.19 0863.34
2015 04 09 12 28 50 .05     -79      0    -28     80     86 270.0 -19.7  33908  285.31 0863.34
2015 04 09 12 28 50 .30     -66      1    -18     67     70 270.9 -15.5  33908  285.33 0863.34
2015 04 09 12 28 50 .56     -56      4    -12     57     59 274.4 -12.4  33910  285.36 0863.34
2015 04 09 12 28 50 .81     -41     22      8     47     48 298.0  10.1  33940  285.87 0863.34
2015 04 09 12 28 51 .05     -26     21     27     34     43 309.5  42.7  33968  286.34 0863.34
2015 04 09 12 28 51 .31     -26     29     33     40     51 318.6  43.7  33974  286.42 0863.34
2015 04 09 12 28 51 .55     -36      8     36     38     52 283.3  50.0  34004  286.94 0863.34
2015 04 09 12 28 51 .80      -8      1     29      9     30 281.5  80.7  34002  286.91 0863.34
2015 04 09 12 28 52 .06     -14      9     38     17     41 302.4  75.0  34002  286.91 0863.34
2015 04 09 12 28 52 .32      -5      1     34      6     34 288.4  90.0  34072  288.08 0863.34
2015 04 09 12 28 52 .56      -3      4     29      6     29 320.4  89.0  34074  288.13 0863.34
2015 04 09 12 28 52 .82      -7      0     32      8     33 265.6  84.9  34080  288.21 0863.34
2015 04 09 12 28 53 .06     -11      0     28     12     30 270.0  75.0  34080  288.21 0863.34
2015 04 09 12 28 53 .32      -7      0     32      8     33 265.6  84.9  34052  287.74 0863.34
2015 04 09 12 28 53 .56     -15    -32     16     36     39 205.5  25.1  33976  286.47 0863.34
2015 04 09 12 28 53 .82     -25    -25      0     36     37 225.1   0.8  33988  286.66 0863.34
2015 04 09 12 28 54 .07     -26      0    -12     27     29 269.2 -27.4  33994  286.78 0863.33
2015 04 09 12 28 54 .32     -25     -1    -12     26     28 267.4 -29.5  33960  286.19 0863.33
2015 04 09 12 28 54 .58      -8      9    -10     13     16 316.6 -44.1  33964  286.27 0863.33
2015 04 09 12 28 54 .82      -5     15      0     16     17 341.3   2.8  33998  286.83 0863.33
2015 04 09 12 28 55 .07      -7     21      6     23     24 341.7  15.3  33998  286.83 0863.33
2015 04 09 12 28 55 .32       0      9     19     10     21 355.5  70.8  34022  287.25 0863.33
2015 04 09 12 28 55 .58      -2      4     16      5     16 327.5  80.7  34022  287.23 0863.33
2015 04 09 12 28 55 .82       2      8     16      9     18  18.5  68.8  34022  287.23 0863.33
2015 04 09 12 28 56 .07      -9     18      9     21     22 332.8  23.0  33994  286.76 0863.33
2015 04 09 12 28 56 .32     -10     16     16     20     25 327.5  43.7  33984  286.59 0863.33
2015 04 09 12 28 56 .57     -24     33      0     41     42 323.9   0.8  33970  286.37 0863.33
2015 04 09 12 28 56 .83     -18     34     14     39     41 331.0  20.0  33992  286.73 0863.33
2015 04 09 12 28 57 .07     -26     29     21     40     45 318.6  30.3  33996  286.79 0863.33
2015 04 09 12 28 57 .32     -15     39     14     43     46 338.2  18.4  33988  286.66 0863.33
2015 04 09 12 28 57 .57     -29     32     -1     44     45 317.7  -2.2  33976  286.47 0863.34
2015 04 09 12 28 57 .83     -40     25     -1     48     49 301.5  -2.2  33952  286.05 0863.34
2015 04 09 12 28 58 .08     -27     37     -5     46     47 323.9  -7.3  33960  286.20 0863.34
2015 04 09 12 28 58 .33     -37     29    -15     48     51 308.6 -17.6  33926  285.61 0863.34
2015 04 09 12 28 58 .58     -42     20    -16     47     49 296.2 -23.6  33922  285.56 0863.34
2015 04 09 12 28 58 .83     -37     16    -23     41     47 294.4 -36.8  33920  285.53 0863.34
2015 04 09 12 28 59 .08     -37      0    -20     38     42 270.0 -34.7  33934  285.75 0863.34
2015 04 09 12 28 59 .34     -54      4    -25     55     60 274.4 -31.5  33910  285.34 0863.34
2015 04 09 12 28 59 .59     -36      6    -46     37     59 279.7 -60.8  33906  285.28 0863.33
2015 04 09 12 28 59 .84     -30      6    -42     31     52 281.5 -63.8  33920  285.51 0863.33
2015 04 09 12 29 00 .09     -49      5    -41     50     64 276.1 -48.1  33918  285.48 0863.33
2015 04 09 12 29 00 .34     -49     -8    -41     50     64 260.3 -48.1  33914  285.43 0863.33
2015 04 09 12 29 00 .59     -48     -7    -34     49     59 261.2 -43.0  33910  285.34 0863.33
2015 04 09 12 29 00 .84     -58    -18    -29     61     67 252.3 -31.6  33904  285.24 0863.33
2015 04 09 12 29 01 .10     -44    -23    -27     50     56 242.0 -34.7  33908  285.31 0863.33
2015 04 09 12 29 01 .34     -44    -24    -14     51     53 241.1 -15.4  33914  285.43 0863.33
2015 04 09 12 29 01 .59     -30     -9    -17     32     36 253.2 -33.7  33910  285.34 0863.33
2015 04 09 12 29 01 .85     -24    -14     -3     28     29 239.3  -7.3  33912  285.39 0863.33
2015 04 09 12 29 02 .10     -19    -18      7     27     28 226.7  15.3  33910  285.36 0863.33
2015 04 09 12 29 02 .35     -14    -19      4     24     25 216.1  11.1  33922  285.56 0863.33
2015 04 09 12 29 02 .60     -16      3     28     17     32 281.5  64.7  33952  286.05 0863.33
2015 04 09 12 29 02 .85      -9      8     29     13     31 313.3  73.1  33958  286.17 0863.33
2015 04 09 12 29 03 .10     -18      0     10     19     21 269.2  29.3  33968  286.34 0863.34
2015 04 09 12 29 03 .35     -11      5      7     13     14 295.3  35.5  33970  286.37 0863.34
2015 04 09 12 29 03 .60     -18    -13      7     23     25 234.0  17.3  33956  286.12 0863.34
2015 04 09 12 29 03 .85     -22    -21     -4     31     32 226.9  -7.3  33940  285.87 0863.34
2015 04 09 12 29 04 .10     -24    -12     -3     27     28 242.9  -7.3  33938  285.82 0863.34
2015 04 09 12 29 04 .35     -24    -12     -3     27     28 242.9  -7.3  33934  285.76 0863.34
2015 04 09 12 29 04 .60     -16     -6     -3     18     19 248.3 -11.3  33928  285.66 0863.34
2015 04 09 12 29 04 .85     -19     -3     -6     20     21 258.5 -17.6  33932  285.73 0863.33
2015 04 09 12 29 05 .10     -19    -18     -1     27     28 226.7  -2.2  33922  285.56 0863.33
2015 04 09 12 29 05 .35     -22    -21     -4     31     32 226.9  -7.3  33910  285.34 0863.33
2015 04 09 12 29 05 .60     -17    -12     -8     22     24 234.0 -19.7  33904  285.26 0863.33
2015 04 09 12 29 05 .85     -12    -16      0     21     22 217.8  -2.2  33898  285.14 0863.33
2015 04 09 12 29 06 .11      -8     -8      4     12     13 223.2  18.9  33900  285.19 0863.33
2015 04 09 12 29 06 .36      -7     -7      3     10     11 225.0  19.2  33906  285.29 0863.33
2015 04 09 12 29 06 .62      -4      0      4      5      6 258.5  43.7  33908  285.31 0863.33
2015 04 09 12 29 06 .87       0      1     -1      2      2 341.5 -23.6  33928  285.65 0863.32
2015 04 09 12 29 07 .12       0      8      0      9     10 355.5  -3.1  33930  285.68 0863.32
2015 04 09 12 29 07 .37      -1      7      0      8      9 350.3  -2.2  33924  285.58 0863.32
2015 04 09 12 29 07 .62       2      8     -3      9     10  15.1 -19.7  33940  285.87 0863.32
2015 04 09 12 29 07 .87       5      4     -8      7     10  46.7 -56.6  33924  285.60 0863.32
2015 04 09 12 29 08 .12       5      4     -8      7     10  46.7 -56.6  33932  285.71 0863.32
2015 04 09 12 29 08 .37       4      4      0      6      7  45.0  -7.3  33920  285.53 0863.32
2015 04 09 12 29 08 .62      11      3      0     12     13  71.8   2.9  33924  285.60 0863.32
2015 04 09 12 29 08 .87       7      8      0     11     12  43.2  -2.2  33924  285.60 0863.32
2015 04 09 12 29 09 .12       0      1      5      2      5 341.5  81.0  33928  285.66 0863.32
2015 04 09 12 29 09 .37      -2      5     -3      6      6 334.6 -31.6  33932  285.71 0863.32
2015 04 09 12 29 09 .62      -3      0      2      4      4 270.0  35.5  33932  285.73 0863.32
2015 04 09 12 29 09 .87     -12      1     -8     13     15 277.9 -39.9  33916  285.44 0863.32
2015 04 09 12 29 10 .12     -30      0     -8     31     33 269.2 -15.5  33906  285.29 0863.32
2015 04 09 12 29 10 .37     -27      2     -8     28     29 274.3 -23.8  33892  285.04 0863.32
2015 04 09 12 29 10 .62     -36      2     -4     37     38 274.3  -7.2  33888  284.97 0863.32
2015 04 09 12 29 10 .87     -39      1    -10     40     42 271.7 -14.5  33888  284.97 0863.32
2015 04 09 12 29 11 .13     -45      2     -7     46     47 272.6  -9.3  33892  285.06 0863.32
2015 04 09 12 29 11 .38     -39      1    -10     40     42 271.7 -14.5  33894  285.09 0863.32
2015 04 09 12 29 11 .63     -48      0    -14     49     50 269.2 -20.7  33898  285.16 0863.32
2015 04 09 12 29 11 .88     -42      2    -14     43     45 273.5 -23.8  33902  285.21 0863.32
2015 04 09 12 29 12 .13     -25     -1    -18     26     31 265.7 -42.0  33914  285.43 0863.32
2015 04 09 12 29 12 .38     -19    -10    -16     22     27 242.9 -44.1  33918  285.50 0863.32
2015 04 09 12 29 12 .63     -13     -4    -14     14     19 251.6 -54.5  33914  285.41 0863.32
2015 04 09 12 29 12 .88     -19     -3    -12     20     23 258.5 -37.9  33912  285.39 0863.32
2015 04 09 12 29 13 .14     -17     -7    -10     19     21 248.3 -33.7  33914  285.43 0863.32
2015 04 09 12 29 13 .39      -7      0     -8      8     11 270.0 -54.5  33938  285.82 0863.32
2015 04 09 12 29 13 .64      -2      0     -3      3      4 251.6 -54.5  33934  285.76 0863.32
2015 04 09 12 29 13 .89       0      0     -5      0      5   0.0 -90.0  33946  285.95 0863.32
2015 04 09 12 29 14 .14      -6      0     -1      7      8 265.6  -7.3  33946  285.95 0863.32
2015 04 09 12 29 14 .40      -4     -5     -6      7      9 223.4 -56.4  33948  286.00 0863.32
2015 04 09 12 29 14 .65       3      4    -14      6     15  39.6 -81.5  33938  285.83 0863.32
2015 04 09 12 29 14 .89       2      5     -7      6      9  25.4 -52.6  33922  285.55 0863.32
2015 04 09 12 29 15 .15      -2      4    -10      5     11 327.5 -77.3  33918  285.48 0863.32
2015 04 09 12 29 15 .40       0     10     -8     11     13 359.1 -44.1  33918  285.50 0863.32
2015 04 09 12 29 15 .65       0      2     -7      3      7 341.5 -85.6  33922  285.56 0863.32
2015 04 09 12 29 15 .89      -5      2    -12      6     13 295.3 -77.3  33918  285.50 0863.32
2015 04 09 12 29 16 .15      -3      4    -16      6     17 320.4 -85.6  33916  285.46 0863.32
2015 04 09 12 29 16 .40       0      5    -11      6     12 357.3 -73.2  33920  285.51 0863.32
2015 04 09 12 29 16 .65      -1     18    -14     19     23 355.6 -46.1  33930  285.68 0863.32
2015 04 09 12 29 16 .90       1     18     -9     19     21   4.5 -31.6  33926  285.63 0863.32
2015 04 09 12 29 17 .15       1      4     -5      5      7  11.6 -54.5  33930  285.70 0863.32
2015 04 09 12 29 17 .40       0      9     -1     10     11 359.1  -7.3  33948  286.00 0863.32
2015 04 09 12 29 17 .65       0      4      0      5      6 357.3  -2.2  33954  286.08 0863.32
2015 04 09 12 29 17 .91       6      6      2      9     10  46.9  15.3  33984  286.59 0863.32
2015 04 09 12 29 18 .16       4      4     12      7     13  45.0  68.8  34062  287.92 0863.32
2015 04 09 12 29 18 .40      -1      5      9      6     10 341.5  64.7  34058  287.84 0863.32
2015 04 09 12 29 18 .65       0      9     12     10     15 355.5  52.2  34056  287.81 0863.31
2015 04 09 12 29 18 .91      -4      1     14      5     14 288.4  81.0  34076  288.14 0863.31
2015 04 09 12 29 19 .15      -5     -4     14      7     15 230.5  72.9  34070  288.04 0863.31
2015 04 09 12 29 19 .41      -6      6     12      9     15 316.6  56.4  34058  287.86 0863.31
2015 04 09 12 29 19 .65       0      1      5      2      5 341.5  81.0  34026  287.32 0863.31
2015 04 09 12 29 19 .91      -2      5     10      6     11 334.6  64.7  34026  287.30 0863.31
2015 04 09 12 29 20 .17       3      8     14      9     16  25.4  64.7  34050  287.70 0863.31
2015 04 09 12 29 20 .42       0      2     12      3     12 341.5  89.0  34068  288.03 0863.31
2015 04 09 12 29 20 .67       4      4     19      7     20  45.0  79.2  34054  287.77 0863.31
2015 04 09 12 29 20 .92      11     16      4     20     21  36.1  13.2  33986  286.62 0863.31
2015 04 09 12 29 21 .17       8     12      0     15     16  32.6   2.9  33964  286.27 0863.31
2015 04 09 12 29 21 .42       1     13     -5     14     14   4.5 -23.6  33968  286.32 0863.31
2015 04 09 12 29 21 .67       4     12      0     13     14  18.5  -3.1  33968  286.32 0863.31
2015 04 09 12 29 21 .92       5     18    -12     19     22  18.3 -39.9  33932  285.71 0863.31
2015 04 09 12 29 22 .17       7     24    -12     26     28  16.9 -29.5  33916  285.44 0863.31
2015 04 09 12 29 22 .42       6     33     -5     34     35  11.6  -9.3  33918  285.48 0863.31
2015 04 09 12 29 22 .67      11     34    -15     36     39  18.5 -25.4  33910  285.36 0863.31
2015 04 09 12 29 22 .92      12     41    -14     43     45  16.9 -23.8  33912  285.38 0863.31
2015 04 09 12 29 23 .17       4     39     -2     40     41   6.2  -3.1  33908  285.31 0863.31
2015 04 09 12 29 23 .43       0     44     -2     45     46 359.1  -3.1  33912  285.38 0863.31
2015 04 09 12 29 23 .68      -9     49     -3     50     51 349.3  -4.1  33912  285.39 0863.31
2015 04 09 12 29 23 .92      -9     48    -12     49     51 349.3 -14.5  33914  285.43 0863.31
2015 04 09 12 29 24 .18     -14     48     -9     51     52 343.1 -10.3  33906  285.29 0863.31
2015 04 09 12 29 24 .42      -7     45     -1     46     47 350.2  -2.2  33908  285.33 0863.31
2015 04 09 12 29 24 .68     -17     40     -1     44     45 336.4  -2.2  33906  285.29 0863.31
2015 04 09 12 29 24 .93     -10     39    -10     41     43 344.9 -14.5  33910  285.36 0863.31
2015 04 09 12 29 25 .18      -4     41      0     42     43 353.8  -1.3  33916  285.44 0863.31
2015 04 09 12 29 25 .43      -3     39      1     40     41 355.5   1.8  33908  285.31 0863.31
2015 04 09 12 29 25 .68      -7     37     -2     38     39 348.4  -3.1  33912  285.38 0863.31
2015 04 09 12 29 25 .93     -15     32    -10     36     38 334.6 -15.5  33916  285.44 0863.31
2015 04 09 12 29 26 .18     -17     22    -10     28     29 322.2 -23.3  33908  285.33 0863.31
2015 04 09 12 29 26 .43     -11     32     -9     35     37 340.0 -15.5  33910  285.34 0863.31
2015 04 09 12 29 26 .68     -11     29     -7     32     33 338.2 -13.4  33908  285.33 0863.31
2015 04 09 12 29 26 .93     -19     30    -10     36     38 327.4 -15.5  33906  285.29 0863.31
2015 04 09 12 29 27 .19     -15     21     -3     27     28 323.9  -7.3  33906  285.29 0863.31
2015 04 09 12 29 27 .45     -13     21     -6     25     26 327.5 -13.4  33908  285.31 0863.31
2015 04 09 12 29 27 .69      -2     22     -3     23     24 353.8  -9.3  33914  285.41 0863.31
2015 04 09 12 29 27 .94       2     26     -3     27     28   4.4  -7.3  33912  285.39 0863.31
2015 04 09 12 29 28 .19       4     22     -7     23     24  11.6 -23.8  33910  285.34 0863.31
2015 04 09 12 29 28 .45       3     21     -8     22     23   9.8 -23.3  33910  285.34 0863.31
2015 04 09 12 29 28 .70      -1     17     -2     18     19 355.6  -7.2  33914  285.43 0863.31
2015 04 09 12 29 28 .95      -1     22    -11     23     25 357.3 -31.6  33918  285.50 0863.31
2015 04 09 12 29 29 .20       0     20     -6     21     23 357.3 -17.6  33918  285.48 0863.31
2015 04 09 12 29 29 .45       0     23      0     24     25 359.1  -2.2  33928  285.65 0863.31
2015 04 09 12 29 29 .70       2     26      1     27     28   4.5   2.9  33936  285.78 0863.31
2015 04 09 12 29 29 .95       1     17      0     18     19   4.5   2.9  33940  285.85 0863.31
2015 04 09 12 29 30 .20       1      7      1      8      9  11.6  11.1  33940  285.85 0863.31
2015 04 09 12 29 30 .45       5     10      8     12     14  25.4  39.7  33954  286.10 0863.31
2015 04 09 12 29 30 .70       4      5      4      7      8  39.6  27.2  33962  286.24 0863.31
2015 04 09 12 29 30 .95       0      5      7      6      9 357.3  48.2  33952  286.05 0863.31
2015 04 09 12 29 31 .21      -7      8      8     11     13 320.4  39.7  33974  286.42 0863.31
2015 04 09 12 29 31 .45     -12     11      5     17     18 313.3  18.9  33958  286.17 0863.30
2015 04 09 12 29 31 .70     -12     11      5     17     18 313.3  18.9  33948  286.00 0863.30
2015 04 09 12 29 31 .96     -12      8      5     15     16 302.4  19.4  33950  286.03 0863.30
2015 04 09 12 29 32 .21     -18      8      0     20     21 295.3   0.8  33956  286.14 0863.30
2015 04 09 12 29 32 .46     -16     12      1     21     22 306.0   4.9  33954  286.10 0863.30
2015 04 09 12 29 32 .70     -21     12      8     25     27 298.9  17.3  33954  286.10 0863.30
2015 04 09 12 29 32 .96     -32     20     -2     39     40 302.4  -3.1  33930  285.68 0863.30
2015 04 09 12 29 33 .21     -32     16     -4     36     37 297.1  -7.3  33954  286.10 0863.30
2015 04 09 12 29 33 .46     -22     22      6     32     33 314.9  11.1  33960  286.20 0863.30
2015 04 09 12 29 33 .71     -24     23      1     34     35 313.3   2.8  33970  286.37 0863.30
2015 04 09 12 29 33 .97      -5     24      8     25     27 346.6  17.3  33976  286.47 0863.30
2015 04 09 12 29 34 .22      -2     12     -3     13     14 348.4 -15.5  33978  286.51 0863.29
2015 04 09 12 29 34 .47       7      9     -5     12     13  36.1 -23.3  33980  286.54 0863.29
2015 04 09 12 29 34 .72     -14      4      1     15     16 288.6   6.9  33996  286.79 0863.29
2015 04 09 12 29 34 .97     -20     14     -8     25     26 306.0 -23.8  33988  286.66 0863.29
2015 04 09 12 29 35 .22     -44     37    -24     58     62 309.6 -27.5  33970  286.37 0863.29
2015 04 09 12 29 35 .48     -48     40    -21     63     67 309.5 -18.7  33962  286.24 0863.29
2015 04 09 12 29 35 .73     -56     46    -20     73     76 309.5 -15.5  33988  286.66 0863.29
2015 04 09 12 29 35 .98     -31     31     -1     44     45 315.0  -2.2  33986  286.62 0863.29
2015 04 09 12 29 36 .22     -45     62      9     77     78 323.9   6.9  33968  286.34 0863.29
2015 04 09 12 29 36 .47     -66     40    -19     78     81 301.5 -13.9  33912  285.38 0863.29
2015 04 09 12 29 36 .73     -66     31     -9     74     75 295.2  -7.3  33920  285.51 0863.29
2015 04 09 12 29 36 .97     -92     25      0     96     97 285.5  -0.3  33930  285.70 0863.29
2015 04 09 12 29 37 .23     -86     27     -8     91     92 287.3  -5.6  33924  285.58 0863.29
2015 04 09 12 29 37 .49     -84     24    -16     88     90 286.4 -10.3  33956  286.14 0863.29
2015 04 09 12 29 37 .73    -124     17      0    126    127 277.9   0.2  33972  286.41 0863.29
2015 04 09 12 29 37 .98    -125     21    -16    127    129 279.6  -7.3  33964  286.27 0863.29
2015 04 09 12 29 38 .23    -150      7    -19    151    153 273.0  -7.3  33946  285.95 0863.29
2015 04 09 12 29 38 .48    -126     25    -16    129    131 281.4  -7.3  33950  286.03 0863.29
2015 04 09 12 29 38 .73    -101     29      0    106    107 286.4  -0.3  33970  286.35 0863.29
2015 04 09 12 29 38 .98     -93     17      0     95     96 280.6  -0.3  33990  286.69 0863.29
2015 04 09 12 29 39 .23    -102      7    -11    103    104 274.4  -6.2  33990  286.69 0863.29
2015 04 09 12 29 39 .49    -116      4     -6    117    118 272.1  -3.1  33982  286.56 0863.30
2015 04 09 12 29 39 .74     -86    -11    -16     87     89 262.1 -10.9  34004  286.93 0863.30
2015 04 09 12 29 39 .99     -44      4     29     45     53 276.1  35.6  34024  287.28 0863.30
2015 04 09 12 29 40 .26     -42    -14      9     45     47 251.8  12.2  34006  286.98 0863.30
2015 04 09 12 29 40 .49      -8     -2     23      9     24 251.8  79.2  34050  287.72 0863.30
2015 04 09 12 29 40 .73     -65      5     -6     66     67 274.4  -5.2  34034  287.45 0863.30
2015 04 09 12 29 41 .00     -55     -8    -11     56     58 261.2 -11.5  34036  287.49 0863.30
2015 04 09 12 29 41 .25     -60     20      9     64     65 289.1   8.0  34024  287.28 0863.30
2015 04 09 12 29 41 .50     -70    -30    -18     77     80 246.5 -13.4  34018  287.16 0863.30
2015 04 09 12 29 41 .75     -24     16     29     30     41 304.2  50.0  34050  287.70 0863.30
2015 04 09 12 29 42 .00     -40     -8     -6     41     42 257.6  -9.3  34034  287.43 0863.30
2015 04 09 12 29 42 .25     -43    -65    -22     79     83 213.4 -15.5  34042  287.57 0863.30
2015 04 09 12 29 42 .50     -15    -45     53     48     71 199.2  52.2  34068  288.01 0863.30
2015 04 09 12 29 42 .75     -34    -36     41     50     64 223.2  43.7  34052  287.74 0863.30
2015 04 09 12 29 43 .00     -73     39     -7     84     85 298.4  -5.2  34018  287.16 0863.30
2015 04 09 12 29 43 .25     -32     21     38     39     54 304.2  51.1  34048  287.67 0863.30
2015 04 09 12 29 43 .50    -156      1     21    157    159 270.4   7.8  33984  286.59 0863.30
2015 04 09 12 29 43 .76    -166    -62      3    178    179 249.4   1.0  33972  286.41 0863.30
2015 04 09 12 29 44 .01    -251     67    -74    260    271 285.0 -16.0  33960  286.18 0863.30
2015 04 09 12 29 44 .25    -244     18    -88    245    260 274.4 -24.8  33980  286.53 0863.30
2015 04 09 12 29 44 .51    -162     67    -20    176    178 292.4  -6.5  33966  286.30 0863.30
2015 04 09 12 29 44 .76    -148     86    -61    172    183 300.2 -19.7  33972  286.41 0863.30
2015 04 09 12 29 45 .01    -142    133    -89    195    214 313.2 -30.8  33956  286.12 0863.30
2015 04 09 12 29 45 .26    -186     79    -33    203    206 293.1  -9.3  33952  286.07 0863.30
2015 04 09 12 29 45 .51    -157     91    -30    182    185 300.2  -9.3  33964  286.25 0863.30
2015 04 09 12 29 45 .76    -212    121    -59    245    253 299.7 -13.7  33950  286.03 0863.30
2015 04 09 12 29 46 .01    -140     66    -56    155    164 295.4 -24.6  33946  285.97 0863.29
2015 04 09 12 29 46 .26    -159     83    -14    180    181 297.8  -4.6  33970  286.35 0863.29
2015 04 09 12 29 46 .51    -232    100    -21    253    254 293.3  -4.9  33980  286.52 0863.29
2015 04 09 12 29 46 .76    -243     85    -28    258    260 289.3  -6.2  33980  286.53 0863.29
2015 04 09 12 29 47 .01    -260     57    -49    267    272 282.4 -10.5  33984  286.60 0863.29
2015 04 09 12 29 47 .26    -240     91    -52    257    263 290.9 -11.5  33992  286.74 0863.29
2015 04 09 12 29 47 .51    -210     36    -17    214    215 279.7  -4.6  33996  286.79 0863.29
2015 04 09 12 29 47 .77    -180     67    -24    193    195 290.4  -7.3  33986  286.62 0863.29
2015 04 09 12 29 48 .03    -188    114    -12    221    222 301.3  -3.2  33992  286.74 0863.29
2015 04 09 12 29 48 .28    -198    125    -16    235    236 302.4  -4.1  34012  287.06 0863.29
2015 04 09 12 29 48 .53    -160     90    -17    184    185 299.3  -5.4  34008  287.01 0863.29
2015 04 09 12 29 48 .78    -194    109    -17    223    224 299.3  -4.6  34018  287.16 0863.29
2015 04 09 12 29 49 .03    -204    143    -13    250    251 305.1  -3.1  34026  287.31 0863.29
2015 04 09 12 29 49 .28    -179     92    -25    202    204 297.1  -7.3  34020  287.20 0863.29
2015 04 09 12 29 49 .53    -113    116     19    163    165 315.7   6.9  34022  287.25 0863.29
2015 04 09 12 29 49 .78     -74     94     76    120    142 321.7  35.5  34030  287.37 0863.29
2015 04 09 12 29 50 .03     -52     98     13    112    113 331.9   7.1  34084  288.28 0863.29
2015 04 09 12 29 50 .28     -87    119     41    148    154 323.9  15.8  34102  288.58 0863.29
2015 04 09 12 29 50 .53     -87     90    -40    126    133 315.9 -17.6  34096  288.50 0863.29
2015 04 09 12 29 50 .78    -181     92    -11    204    205 296.9  -3.1  34118  288.86 0863.29
2015 04 09 12 29 51 .03    -228     56    -13    235    236 283.9  -3.3  34098  288.51 0863.29
2015 04 09 12 29 51 .28    -127     60     -3    141    142 295.4  -1.3  34116  288.82 0863.29
2015 04 09 12 29 51 .53    -134     44    -12    142    143 288.2  -5.2  34132  289.11 0863.29
2015 04 09 12 29 51 .78    -267     93     -6    283    284 289.3  -1.3  34002  286.90 0863.29
2015 04 09 12 29 52 .03    -221    150    -28    268    270 304.2  -6.0  34034  287.44 0863.29
2015 04 09 12 29 52 .29    -179     95    -23    203    205 298.0  -6.7  34050  287.70 0863.29
2015 04 09 12 29 52 .53    -251    114    -46    276    280 294.4  -9.6  33924  285.57 0863.29
2015 04 09 12 29 52 .78    -260    106    -50    281    286 292.2 -10.1  33882  284.87 0863.29
2015 04 09 12 29 53 .03    -254     98    -53    273    279 291.1 -11.1  33886  284.95 0863.29
2015 04 09 12 29 53 .29    -251     83    -47    265    270 288.4 -10.1  33914  285.42 0863.29
2015 04 09 12 29 53 .54    -236     90    -26    253    255 291.1  -6.0  33924  285.57 0863.29
2015 04 09 12 29 53 .79    -245     85    -18    260    261 289.3  -4.1  33956  286.13 0863.29
2015 04 09 12 29 54 .04    -224    106    -32    249    252 295.4  -7.3  33924  285.57 0863.29
2015 04 09 12 29 54 .29    -215     93    -55    235    242 293.5 -13.2  33904  285.24 0863.29
2015 04 09 12 29 54 .54    -179     91    -31    201    204 297.0  -9.0  33940  285.85 0863.29
2015 04 09 12 29 54 .79    -188     98    -20    213    215 297.5  -5.6  33948  285.98 0863.29
2015 04 09 12 29 55 .05    -210    113    -46    239    244 298.4 -10.9  33932  285.72 0863.30
2015 04 09 12 29 55 .30    -201     98    -36    224    228 296.0  -9.3  33934  285.76 0863.30
2015 04 09 12 29 55 .55    -205     64    -16    215    216 287.5  -4.4  33940  285.85 0863.30
2015 04 09 12 29 55 .80    -180     41    -14    185    186 283.0  -4.6  33954  286.08 0863.30
2015 04 09 12 29 56 .05    -183     46     -4    189    190 284.2  -1.3  33962  286.22 0863.30
2015 04 09 12 29 56 .30    -225     90    -25    243    245 292.0  -6.1  33918  285.49 0863.30
2015 04 09 12 29 56 .55    -203     76    -27    217    219 290.6  -7.3  33920  285.53 0863.30
2015 04 09 12 29 56 .80    -235     77    -33    248    251 288.2  -7.7  33910  285.34 0863.29
2015 04 09 12 29 57 .06    -224     81    -31    239    242 290.0  -7.5  33904  285.25 0863.29
2015 04 09 12 29 57 .31    -176     83      8    195    196 295.4   2.5  33926  285.61 0863.29
2015 04 09 12 29 57 .56    -107     51     10    119    120 295.4   4.9  33926  285.61 0863.29
2015 04 09 12 29 57 .81    -204     16    -36    205    209 274.6 -10.1  33908  285.33 0863.29
2015 04 09 12 29 58 .06    -201     52    -15    208    209 284.6  -4.1  33906  285.29 0863.29
2015 04 09 12 29 58 .31    -258     93    -46    275    279 290.0  -9.6  33902  285.20 0863.29
2015 04 09 12 29 58 .56    -250     82    -28    264    266 288.2  -6.2  33914  285.42 0863.30
2015 04 09 12 29 58 .81    -228     86    -33    244    247 290.8  -7.7  33916  285.44 0863.30
2015 04 09 12 29 59 .06    -223     78    -36    237    240 289.3  -8.8  33910  285.35 0863.30
2015 04 09 12 29 59 .31    -239     79    -41    252    256 288.4  -9.4  33902  285.20 0863.30
2015 04 09 12 29 59 .56    -258     81    -39    271    274 287.5  -8.3  33896  285.12 0863.30
2015 04 09 12 29 59 .81    -248     58    -33    255    258 283.3  -7.5  33902  285.22 0863.30
2015 04 09 12 30 00 .06    -235     76    -34    247    250 287.9  -8.0  33900  285.17 0863.30
2015 04 09 12 30 00 .31    -238     53    -11    244    245 282.6  -2.6  33904  285.25 0863.30
2015 04 09 12 30 00 .57    -223     73    -18    235    236 288.2  -4.6  33906  285.29 0863.30
2015 04 09 12 30 00 .81    -270    115    -30    294    296 293.1  -6.0  33894  285.07 0863.30
2015 04 09 12 30 01 .06    -287    109    -41    308    311 290.8  -7.7  33888  284.97 0863.30
2015 04 09 12 30 01 .31    -304    122    -44    328    331 291.9  -7.7  33886  284.96 0863.30
2015 04 09 12 30 01 .57    -280    112    -38    302    305 291.8  -7.3  33888  284.97 0863.30
2015 04 09 12 30 01 .83    -272     96    -28    289    291 289.5  -5.6  33892  285.05 0863.30
2015 04 09 12 30 02 .08    -274    102    -33    293    295 290.6  -6.5  33906  285.27 0863.30
2015 04 09 12 30 02 .33    -239     79    -22    252    254 288.4  -5.1  33914  285.40 0863.30
2015 04 09 12 30 02 .58    -247     99    -29    267    269 291.8  -6.2  33896  285.10 0863.30
2015 04 09 12 30 02 .83    -245     81    -30    259    261 288.4  -6.7  33896  285.12 0863.30
2015 04 09 12 30 03 .08    -243    115    -48    270    275 295.4 -10.1  33896  285.10 0863.29
2015 04 09 12 30 03 .33    -247    130    -50    280    285 297.8 -10.3  33892  285.03 0863.29
2015 04 09 12 30 03 .58    -259    101    -61    279    286 291.3 -12.4  33888  284.98 0863.29
2015 04 09 12 30 03 .83    -267     96    -49    284    289 289.9  -9.8  33886  284.95 0863.29
2015 04 09 12 30 04 .08    -247    110    -44    271    275 294.0  -9.4  33888  284.97 0863.29
2015 04 09 12 30 04 .33    -240    109    -48    264    269 294.6 -10.5  33888  284.97 0863.29
2015 04 09 12 30 04 .58    -233    105    -51    256    262 294.4 -11.3  33882  284.87 0863.29
2015 04 09 12 30 04 .83    -233    105    -51    256    262 294.4 -11.3  33882  284.87 0863.29
2015 04 09 12 30 05 .08    -235    119    -37    264    267 296.9  -8.0  33884  284.90 0863.30
2015 04 09 12 30 05 .33    -232    123    -43    263    267 297.9  -9.3  33884  284.90 0863.30
2015 04 09 12 30 05 .58    -209    130    -31    247    250 302.0  -7.3  33882  284.88 0863.30
2015 04 09 12 30 05 .83    -208    134    -35    248    251 302.9  -8.2  33882  284.88 0863.30
2015 04 09 12 30 06 .08    -214    129    -45    250    255 301.1 -10.4  33884  284.90 0863.30
2015 04 09 12 30 06 .34    -197     98    -25    221    223 296.6  -6.5  33890  285.01 0863.30
2015 04 09 12 30 06 .59    -159    136    -26    210    212 310.4  -7.2  33892  285.04 0863.30
2015 04 09 12 30 06 .84    -178    166    -30    244    246 313.1  -7.2  33896  285.12 0863.30
2015 04 09 12 30 07 .09    -156    162    -46    225    230 316.1 -11.6  33932  285.71 0863.30
2015 04 09 12 30 07 .34    -174    166    -39    241    245 313.6  -9.3  33962  286.23 0863.30
2015 04 09 12 30 07 .59    -254    129    -47    286    290 297.0  -9.3  33892  285.03 0863.30
2015 04 09 12 30 07 .84    -243    136    -45    279    283 299.3  -9.3  33890  285.02 0863.30
2015 04 09 12 30 08 .09    -236    117    -35    264    267 296.4  -7.7  33890  285.00 0863.30
2015 04 09 12 30 08 .34    -244    114    -49    270    275 295.1 -10.4  33884  284.92 0863.30
2015 04 09 12 30 08 .59    -251    118    -35    278    281 295.2  -7.3  33888  284.97 0863.30
2015 04 09 12 30 08 .85    -234    141    -45    274    278 301.1  -9.4  33884  284.92 0863.30
2015 04 09 12 30 09 .10    -239    149    -35    282    285 302.0  -7.2  33884  284.92 0863.30
2015 04 09 12 30 09 .35    -212    127    -28    248    250 300.9  -6.5  33892  285.05 0863.30
2015 04 09 12 30 09 .62    -210    165    -19    268    269 308.2  -4.1  33916  285.44 0863.30
2015 04 09 12 30 09 .85    -222    135    -36    260    263 301.3  -8.0  33888  284.98 0863.30
2015 04 09 12 30 10 .11    -203    155    -21    256    258 307.3  -4.9  33892  285.05 0863.30
2015 04 09 12 30 10 .35    -206    139    -35    249    252 304.0  -8.0  33884  284.92 0863.30
2015 04 09 12 30 10 .61    -224    138    -39    264    267 301.6  -8.6  33894  285.07 0863.30
2015 04 09 12 30 10 .85    -214    121    -53    246    252 299.5 -12.2  33896  285.10 0863.30
2015 04 09 12 30 11 .10    -208    116    -43    239    243 299.3 -10.3  33896  285.12 0863.30
2015 04 09 12 30 11 .35    -193    107    -52    221    228 299.1 -13.4  33894  285.09 0863.30
2015 04 09 12 30 11 .60    -181    105    -54    210    217 300.2 -14.5  33886  284.96 0863.30
2015 04 09 12 30 11 .86    -178    105    -40    207    211 300.7 -11.1  33884  284.92 0863.30
2015 04 09 12 30 12 .11    -193    117    -45    226    231 301.3 -11.3  33892  285.06 0863.30
2015 04 09 12 30 12 .36    -179    140    -27    228    230 308.0  -6.9  33898  285.14 0863.30
2015 04 09 12 30 12 .61    -159    132      5    207    208 309.8   1.6  33908  285.33 0863.30
2015 04 09 12 30 12 .86    -190    148    -21    242    243 308.0  -5.2  33904  285.25 0863.30
2015 04 09 12 30 13 .11    -182    129    -12    224    225 305.3  -3.2  33906  285.28 0863.30
2015 04 09 12 30 13 .36    -172    148    -10    228    229 310.7  -2.6  33908  285.33 0863.30
2015 04 09 12 30 13 .61    -188    156    -31    245    248 309.6  -7.3  33914  285.40 0863.30
2015 04 09 12 30 13 .86    -182    157    -11    241    242 310.9  -2.8  33918  285.47 0863.30
2015 04 09 12 30 14 .12    -199    164    -23    259    261 309.5  -5.2  33910  285.34 0863.30
2015 04 09 12 30 14 .36    -205    167    -40    265    269 309.3  -8.6  33894  285.07 0863.30
2015 04 09 12 30 14 .61    -199    163    -47    258    263 309.3 -10.4  33886  284.93 0863.30
2015 04 09 12 30 14 .87    -194    150    -54    246    252 307.7 -12.4  33896  285.10 0863.30
2015 04 09 12 30 15 .12    -132    144     -6    196    197 317.5  -1.8  33912  285.39 0863.30
2015 04 09 12 30 15 .37    -175    144    -42    227    231 309.5 -10.5  33906  285.29 0863.30
2015 04 09 12 30 15 .62    -132    140     -7    193    194 316.8  -2.2  33924  285.58 0863.30
2015 04 09 12 30 15 .88    -132    102     27    168    171 307.8   9.3  33918  285.48 0863.30
2015 04 09 12 30 16 .13    -161    145    -11    217    218 312.0  -3.1  33900  285.19 0863.30
2015 04 09 12 30 16 .38    -165    137    -16    215    216 309.6  -4.4  33900  285.19 0863.30
2015 04 09 12 30 16 .63    -117    133     -2    178    179 318.6  -0.7  33916  285.44 0863.30
2015 04 09 12 30 16 .88    -126    110      4    168    169 311.1   1.6  33918  285.50 0863.30
2015 04 09 12 30 17 .13    -137    112    -22    178    180 309.3  -7.2  33892  285.06 0863.30
2015 04 09 12 30 17 .38    -145    120    -10    189    190 309.5  -3.1  33910  285.34 0863.30
2015 04 09 12 30 17 .63    -139    130    -23    191    193 312.9  -6.9  33896  285.11 0863.30
2015 04 09 12 30 17 .88    -149    132    -26    200    202 311.6  -7.5  33890  285.01 0863.30
2015 04 09 12 30 18 .13    -158    128    -26    204    206 309.1  -7.3  33892  285.04 0863.30
2015 04 09 12 30 18 .38    -155    128    -36    202    206 309.5 -10.1  33888  284.97 0863.30
2015 04 09 12 30 18 .63    -160    141    -46    214    219 311.3 -12.2  33884  284.92 0863.30
2015 04 09 12 30 18 .88    -147    136    -48    201    207 312.9 -13.4  33886  284.96 0863.30
2015 04 09 12 30 19 .13    -160    141    -46    214    219 311.3 -12.2  33884  284.92 0863.30
2015 04 09 12 30 19 .39    -174    135    -40    221    225 307.8 -10.5  33898  285.14 0863.29
2015 04 09 12 30 19 .63    -173    127    -34    215    218 306.4  -9.0  33906  285.28 0863.29
2015 04 09 12 30 19 .89    -152    125    -32    197    200 309.5  -9.4  33892  285.06 0863.29
2015 04 09 12 30 20 .14    -130     99    -13    164    165 307.5  -4.9  33966  286.29 0863.29
2015 04 09 12 30 20 .39    -110    110      8    156    157 315.0   3.3  33998  286.83 0863.29
2015 04 09 12 30 20 .64     -81     85     61    118    132 316.3  29.3  33996  286.79 0863.29
2015 04 09 12 30 20 .89     -75    116     67    139    154 327.0  27.3  33970  286.35 0863.29
2015 04 09 12 30 21 .14    -129    113      8    172    173 311.3   2.9  33918  285.50 0863.29
2015 04 09 12 30 21 .39    -114     95     -9    149    150 309.6  -3.7  33930  285.70 0863.29
2015 04 09 12 30 21 .64    -107     84     -5    137    138 308.2  -2.2  33912  285.39 0863.29
2015 04 09 12 30 21 .89     -88    106      2    138    139 320.3   1.2  33930  285.68 0863.29
2015 04 09 12 30 22 .14     -90    123     21    153    155 323.9   8.0  33940  285.85 0863.29
2015 04 09 12 30 22 .39    -148    158    -31    217    220 317.0  -8.2  33928  285.66 0863.29
2015 04 09 12 30 22 .65     -85    133    -37    158    163 327.4 -13.4  33930  285.70 0863.29
2015 04 09 12 30 22 .90    -117    145    -43    187    193 321.3 -13.2  33920  285.53 0863.29
2015 04 09 12 30 23 .15    -128    154    -37    201    205 320.4 -10.5  33892  285.06 0863.29
2015 04 09 12 30 23 .40    -115    168    -48    204    210 325.5 -13.4  33884  284.91 0863.29
2015 04 09 12 30 23 .65    -103    146    -59    179    189 324.8 -18.3  33886  284.96 0863.29
2015 04 09 12 30 23 .90    -134    149    -46    201    207 318.1 -12.9  33894  285.09 0863.29
2015 04 09 12 30 24 .15    -117    145    -51    187    195 321.3 -15.4  33890  285.02 0863.29
2015 04 09 12 30 24 .41    -131    154    -53    203    210 319.7 -14.7  33892  285.04 0863.29
2015 04 09 12 30 24 .66    -123    149    -34    194    198 320.4 -10.1  33890  285.02 0863.29
2015 04 09 12 30 24 .91    -113    135    -34    177    181 319.9 -10.9  33892  285.06 0863.29
2015 04 09 12 30 25 .16    -132    126    -36    183    187 313.8 -11.3  33902  285.21 0863.29
2015 04 09 12 30 25 .41    -101    134    -23    169    171 323.0  -8.0  33912  285.39 0863.29
2015 04 09 12 30 25 .66    -109    116    -18    160    162 316.7  -6.7  33904  285.24 0863.29
2015 04 09 12 30 25 .91    -121    128    -40    177    182 316.8 -12.9  33888  284.97 0863.29
2015 04 09 12 30 26 .16    -116    119    -52    167    175 315.7 -17.3  33888  284.97 0863.29
2015 04 09 12 30 26 .41    -104    136    -28    172    175 322.4  -9.3  33890  285.02 0863.29
2015 04 09 12 30 26 .66    -121    128    -40    177    182 316.8 -12.9  33892  285.04 0863.29
2015 04 09 12 30 26 .92    -102    121    -18    159    161 319.9  -6.7  33922  285.55 0863.29
2015 04 09 12 30 27 .16    -125    137    -37    186    190 317.7 -11.5  33884  284.91 0863.29
2015 04 09 12 30 27 .41    -126    136    -45    186    192 317.2 -13.7  33888  284.97 0863.29
2015 04 09 12 30 27 .66    -119    158    -46    199    205 323.0 -13.2  33882  284.87 0863.29
2015 04 09 12 30 27 .92    -107    154    -40    188    193 325.3 -12.2  33894  285.07 0863.29
2015 04 09 12 30 28 .16    -106    166    -38    198    202 327.5 -10.9  33884  284.91 0863.29
2015 04 09 12 30 28 .42     -98    163    -45    191    197 329.0 -13.4  33882  284.87 0863.29
2015 04 09 12 30 28 .66    -103    155    -34    187    191 326.4 -10.5  33882  284.87 0863.29
2015 04 09 12 30 28 .92     -98    155    -46    184    190 327.5 -14.3  33882  284.89 0863.29
2015 04 09 12 30 29 .17    -102    154    -43    186    192 326.4 -13.2  33886  284.96 0863.29
2015 04 09 12 30 29 .42    -110    126    -34    168    172 318.8 -11.6  33916  285.44 0863.29
2015 04 09 12 30 29 .68     -88    138    -28    164    167 327.5  -9.8  33928  285.66 0863.29
2015 04 09 12 30 29 .93     -77    136    -20    157    159 330.6  -7.5  33904  285.24 0863.29
2015 04 09 12 30 30 .18     -67    140    -20    156    158 334.5  -7.3  33894  285.09 0863.29
2015 04 09 12 30 30 .43     -68    144    -16    160    161 334.5  -6.0  33910  285.34 0863.29
2015 04 09 12 30 30 .68     -72    142    -32    160    164 332.9 -11.3  33892  285.06 0863.29
2015 04 09 12 30 30 .93     -78    151    -38    171    176 332.6 -12.6  33892  285.06 0863.29
2015 04 09 12 30 31 .18     -75    154    -33    172    176 334.1 -11.1  33904  285.24 0863.29
2015 04 09 12 30 31 .44     -60    148    -26    160    163 337.7  -9.3  33908  285.33 0863.29
2015 04 09 12 30 31 .68     -64    135    -30    150    153 334.7 -11.3  33910  285.34 0863.29
2015 04 09 12 30 31 .94     -83    140    -29    163    166 329.2 -10.3  33932  285.73 0863.29
2015 04 09 12 30 32 .18     -72    150    -23    167    169 334.1  -8.0  33932  285.73 0863.29
2015 04 09 12 30 32 .43     -62    142    -13    156    157 336.4  -4.9  33916  285.46 0863.29
2015 04 09 12 30 32 .68     -69    136    -25    153    156 332.9  -9.4  33902  285.21 0863.29
2015 04 09 12 30 32 .94     -65    138    -30    153    157 334.7 -11.3  33898  285.16 0863.29
2015 04 09 12 30 33 .18     -65    153    -32    167    171 336.8 -11.1  33898  285.16 0863.29
2015 04 09 12 30 33 .44     -73    127    -32    147    151 330.1 -12.4  33896  285.11 0863.29
2015 04 09 12 30 33 .69     -71    151    -23    167    169 334.8  -8.0  33906  285.29 0863.29
2015 04 09 12 30 33 .94     -52    161     -9    170    171 342.2  -3.1  33912  285.39 0863.29
2015 04 09 12 30 34 .19     -42    153     -1    159    160 344.4  -0.5  33926  285.61 0863.29
2015 04 09 12 30 34 .44     -55    153      7    163    164 340.0   2.8  33918  285.48 0863.29
2015 04 09 12 30 34 .69     -48    157     -6    165    166 343.1  -2.3  33914  285.43 0863.29
2015 04 09 12 30 34 .94     -69    177      0    191    192 338.6  -0.3  33912  285.39 0863.28
2015 04 09 12 30 35 .19     -47    186      1    192    193 345.7   0.5  33918  285.48 0863.28
2015 04 09 12 30 35 .44     -41    203     34    208    211 348.4   9.5  33924  285.60 0863.28
2015 04 09 12 30 35 .70     -30    218     10    221    222 352.0   2.8  33914  285.43 0863.28
2015 04 09 12 30 35 .94     -24    237     24    239    241 354.0   5.9  33928  285.66 0863.28
2015 04 09 12 30 36 .19     -20    199     12    201    202 354.0   3.6  33936  285.78 0863.28
2015 04 09 12 30 36 .45     -24    194     53    196    204 352.7  15.3  33950  286.03 0863.28
2015 04 09 12 30 36 .71     -58    174     46    184    190 341.3  14.3  33958  286.17 0863.28
2015 04 09 12 30 36 .96     -78    123    -22    147    149 327.5  -8.8  33962  286.24 0863.28
2015 04 09 12 30 37 .21     -60    151     56    163    173 338.2  19.2  33990  286.71 0863.28
2015 04 09 12 30 37 .46     -87    184     31    204    207 334.6   8.8  34002  286.91 0863.28
2015 04 09 12 30 37 .71     -40    215     77    219    232 349.3  20.0  34010  287.03 0863.28
2015 04 09 12 30 37 .96     -91    225    -17    243    244 337.9  -4.1  34040  287.53 0863.28
2015 04 09 12 30 38 .21     -98    178    -26    204    206 331.3  -7.5  34088  288.35 0863.28
2015 04 09 12 30 38 .46    -153    120     78    195    210 308.2  23.0  34074  288.11 0863.29
2015 04 09 12 30 38 .71    -126    157     60    202    211 321.3  16.6  33968  286.34 0863.29
2015 04 09 12 30 38 .96    -144    172      8    225    226 319.9   2.1  33994  286.78 0863.29
2015 04 09 12 30 39 .21    -201    171    -48    265    270 310.4 -10.3  33942  285.88 0863.29
2015 04 09 12 30 39 .47     -58    176     10    186    187 341.5   3.1  34038  287.50 0863.29
2015 04 09 12 30 39 .72     -94    140     38    169    174 326.2  12.9  34064  287.96 0863.29
2015 04 09 12 30 39 .96    -154    135    171    206    267 311.3  43.8  34102  288.59 0863.29
2015 04 09 12 30 40 .21     -94    202     17    223    224 335.1   4.4  33960  286.20 0863.28
2015 04 09 12 30 40 .47    -124    182    -40    221    225 325.7 -10.5  33928  285.65 0863.28
2015 04 09 12 30 40 .72    -178    136     -8    225    226 307.3  -2.2  33930  285.70 0863.28
2015 04 09 12 30 40 .97     -95    145     60    174    185 326.6  19.2  33944  285.93 0863.28
2015 04 09 12 30 41 .22    -120    216    -17    248    249 331.0  -4.1  33926  285.62 0863.28
2015 04 09 12 30 41 .47     -95    237     13    256    257 338.2   2.9  33926  285.61 0863.28
2015 04 09 12 30 41 .72    -200    187    -19    275    276 313.1  -4.1  33938  285.83 0863.28
2015 04 09 12 30 41 .97    -128    155     32    202    205 320.4   9.0  33948  285.98 0863.28
2015 04 09 12 30 42 .22     -65    154     82    168    186 337.1  27.4  33950  286.02 0863.28
2015 04 09 12 30 42 .47    -133    241    -33    276    279 331.0  -6.9  33920  285.52 0863.28
2015 04 09 12 30 42 .72    -125    149     73    195    208 319.9  21.3  33940  285.87 0863.28
2015 04 09 12 30 42 .97    -159    126     63    203    213 308.4  17.3  33940  285.87 0863.27
2015 04 09 12 30 43 .22    -164    119     -2    203    204 306.0  -0.7  33934  285.76 0863.27
2015 04 09 12 30 43 .47     -98    260     23    279    281 339.3   4.9  33940  285.86 0863.27
2015 04 09 12 30 43 .73     -82    255     18    268    269 342.1   3.9  33934  285.74 0863.27
2015 04 09 12 30 43 .98    -126    285    -17    312    313 336.2  -3.3  33926  285.62 0863.27
2015 04 09 12 30 44 .23    -129    262    -37    293    296 333.7  -7.3  33934  285.76 0863.27
2015 04 09 12 30 44 .48    -121    237    -43    267    271 332.8  -9.3  33920  285.52 0863.27
2015 04 09 12 30 44 .74    -121    246    -45    275    279 333.7  -9.3  33930  285.67 0863.27
2015 04 09 12 30 44 .98    -129    289    -29    317    319 335.9  -5.4  33928  285.64 0863.28
2015 04 09 12 30 45 .24    -116    267    -16    292    293 336.4  -3.2  33926  285.61 0863.28
2015 04 09 12 30 45 .49     -93    262      4    279    280 340.4   1.0  33928  285.64 0863.28
2015 04 09 12 30 45 .73    -120    253    -20    281    282 334.5  -4.1  33928  285.66 0863.28
2015 04 09 12 30 45 .99    -116    235    -23    263    265 333.7  -5.1  33926  285.62 0863.28
2015 04 09 12 30 46 .24    -108    247    -10    270    271 336.3  -2.2  33924  285.57 0863.28
2015 04 09 12 30 46 .49     -95    227      4    247    248 337.2   1.0  33936  285.79 0863.28
2015 04 09 12 30 46 .74    -110    247     -8    271    272 335.9  -1.8  33992  286.74 0863.28
2015 04 09 12 30 46 .99     -88    195     -7    214    215 335.7  -2.1  33994  286.78 0863.28
2015 04 09 12 30 47 .24    -105    255    -10    276    277 337.5  -2.2  33918  285.49 0863.28
2015 04 09 12 30 47 .49    -116    247     -7    273    274 334.8  -1.6  33920  285.51 0863.28
2015 04 09 12 30 47 .74    -108    287      4    307    308 339.3   0.8  33924  285.57 0863.28
2015 04 09 12 30 47 .99    -103    282     -8    301    302 340.0  -1.6  33930  285.69 0863.28
2015 04 09 12 30 48 .24    -108    212     13    239    240 332.9   3.3  33932  285.71 0863.28
2015 04 09 12 30 48 .49     -95    201     -4    223    224 334.5  -1.3  33934  285.75 0863.28
2015 04 09 12 30 48 .74     -96    192    -27    215    217 333.3  -7.3  33924  285.58 0863.28
2015 04 09 12 30 48 .99    -176    111     -4    209    210 302.2  -1.1  33928  285.66 0863.28
2015 04 09 12 30 49 .24    -106    136      9    173    174 321.9   3.3  33934  285.75 0863.28
2015 04 09 12 30 49 .49     -78    138     -3    159    160 330.6  -1.3  33930  285.70 0863.28
2015 04 09 12 30 49 .75    -107    212    -11    238    239 333.3  -2.8  33920  285.52 0863.28
2015 04 09 12 30 50 .00     -97    208     11    230    231 334.8   2.9  33922  285.56 0863.28
2015 04 09 12 30 50 .25     -64    238      4    247    248 344.9   1.0  33924  285.59 0863.28
2015 04 09 12 30 50 .51     -56    154     47    164    171 340.0  16.0  33938  285.82 0863.28
2015 04 09 12 30 50 .76     -41    125    114    132    174 341.7  45.4  33940  285.85 0863.28
2015 04 09 12 30 51 .01     -41    114     28    122    126 340.0  13.2  33936  285.80 0863.28
2015 04 09 12 30 51 .26    -129    145    -12    195    196 318.3  -3.7  33930  285.68 0863.28
2015 04 09 12 30 51 .51    -166    190    -54    253    259 318.8 -12.2  33926  285.62 0863.28
2015 04 09 12 30 51 .76    -125    225    -14    258    259 331.0  -3.2  33918  285.49 0863.28
2015 04 09 12 30 52 .01     -79    179    -15    196    197 336.2  -4.6  33918  285.48 0863.28
2015 04 09 12 30 52 .26     -73    168      9    184    185 336.6   2.8  33914  285.41 0863.28
2015 04 09 12 30 52 .51     -62    185     16    196    197 341.5   4.9  33914  285.43 0863.28
2015 04 09 12 30 52 .76     -61    140     49    154    162 336.3  17.7  33926  285.61 0863.28
2015 04 09 12 30 53 .01     -42    106     35    115    121 338.2  17.3  33922  285.56 0863.27
2015 04 09 12 30 53 .26     -86     91      6    126    127 316.8   2.8  33932  285.71 0863.27
2015 04 09 12 30 53 .51     -67    102     42    123    131 326.6  18.9  33938  285.82 0863.27
2015 04 09 12 30 53 .76     -79    154    -23    174    176 332.8  -7.7  33910  285.34 0863.27
2015 04 09 12 30 54 .01    -110    117    -33    161    165 316.7 -11.6  33912  285.39 0863.27
2015 04 09 12 30 54 .27    -121    100    -26    158    161 309.5  -9.3  33924  285.58 0863.27
2015 04 09 12 30 54 .52     -65    115     32    133    137 330.6  13.7  33940  285.85 0863.27
2015 04 09 12 30 54 .77     -98     76      6    125    126 307.8   2.8  33938  285.82 0863.27
2015 04 09 12 30 55 .02     -78    122    -24    146    148 327.4  -9.3  33942  285.88 0863.27
2015 04 09 12 30 55 .27     -43    118    -16    126    128 340.0  -7.2  33934  285.75 0863.27
2015 04 09 12 30 55 .52     -71    119     22    139    141 329.3   9.0  33968  286.32 0863.27
2015 04 09 12 30 55 .77     -76    100    101    126    161 322.6  43.0  33992  286.74 0863.27
2015 04 09 12 30 56 .02     -85     28      6     90     91 288.4   3.8  33994  286.76 0863.27
2015 04 09 12 30 56 .27     -39     -4    -10     40     42 263.0 -14.5  34000  286.88 0863.27
2015 04 09 12 30 56 .52    -136     45    -30    144    148 288.6 -11.9  33956  286.12 0863.27
2015 04 09 12 30 56 .77     -57      8      2     58     59 278.8   2.9  33968  286.34 0863.26
2015 04 09 12 30 57 .02     -88     43     -4     99    100 296.2  -2.6  33968  286.32 0863.26
2015 04 09 12 30 57 .28     -67    -57    -24     88     92 229.6 -15.5  33964  286.27 0863.26
2015 04 09 12 30 57 .53     -46     -4     20     47     51 264.8  24.1  33960  286.20 0863.26
2015 04 09 12 30 57 .79    -112     53    -21    124    126 295.3  -9.8  33950  286.03 0863.27
2015 04 09 12 30 58 .03     -94     36      4    101    102 291.3   2.3  33954  286.10 0863.27
2015 04 09 12 30 58 .29    -112    -22    -14    115    116 258.5  -7.3  33942  285.90 0863.27
2015 04 09 12 30 58 .54     -52     36     -1     64     65 305.1  -1.3  33960  286.19 0863.27
2015 04 09 12 30 58 .79     -72     -7      3     73     74 263.9   2.9  33954  286.08 0863.27
2015 04 09 12 30 59 .03     -38    -69     56     80     97 209.0  38.0  33964  286.27 0863.27
2015 04 09 12 30 59 .29     -50    -64     51     82     96 218.3  35.5  33968  286.32 0863.27
2015 04 09 12 30 59 .54     -74   -147     31    165    168 206.7  10.8  33986  286.64 0863.27
2015 04 09 12 30 59 .78     -91   -147      8    174    175 211.9   2.9  33968  286.34 0863.27
2015 04 09 12 31 00 .04    -105   -166     36    197    201 212.5  10.3  34014  287.11 0863.27
2015 04 09 12 31 00 .30    -101   -171     63    199    209 210.7  17.7  33962  286.22 0863.27
2015 04 09 12 31 00 .54     -92   -154     78    180    196 211.0  25.1  34042  287.57 0863.27
2015 04 09 12 31 00 .79     -90   -164     67    188    200 208.7  19.6  33990  286.69 0863.27
2015 04 09 12 31 01 .05     -81   -158     82    178    195 207.2  26.4  34066  287.98 0863.27
2015 04 09 12 31 01 .29     -71   -109     79    131    152 213.0  34.4  34088  288.35 0863.27
2015 04 09 12 31 01 .54     -82    -81     67    116    133 225.1  33.4  34076  288.16 0863.27
2015 04 09 12 31 01 .80     -55    -89     47    105    115 211.6  26.2  34022  287.23 0863.27
2015 04 09 12 31 02 .04     -72    -56     44     92    101 232.2  27.2  34054  287.77 0863.27
2015 04 09 12 31 02 .29     -70    -80     48    107    117 221.0  25.7  34036  287.49 0863.27
2015 04 09 12 31 02 .54     -94   -100     56    138    148 223.2  23.1  33970  286.37 0863.27
2015 04 09 12 31 02 .80     -72   -131     38    150    155 209.0  14.5  33910  285.34 0863.27
2015 04 09 12 31 03 .05     -55   -130     37    142    147 203.2  14.7  33934  285.75 0863.27
2015 04 09 12 31 03 .30     -47   -115     49    125    134 202.3  22.0  33958  286.17 0863.27
2015 04 09 12 31 03 .54     -70    -94     90    118    148 216.5  41.6  33990  286.69 0863.27
2015 04 09 12 31 03 .80     -52   -110     62    122    136 205.4  29.2  33956  286.14 0863.27
2015 04 09 12 31 04 .05     -52    -77     68     94    116 214.3  39.7  34014  287.11 0863.27
2015 04 09 12 31 04 .30     -43    -58     85     73    112 216.1  55.4  34052  287.74 0863.27
2015 04 09 12 31 04 .56     -48    -50     52     70     87 224.2  40.7  34052  287.76 0863.27
2015 04 09 12 31 04 .81     -70    -51     81     87    118 234.0  48.0  34036  287.47 0863.27
2015 04 09 12 31 05 .06     -53    -56     47     78     91 223.3  34.0  34024  287.27 0863.27
2015 04 09 12 31 05 .31     -97    -22     -5    100    101 256.7  -3.1  34018  287.16 0863.27
2015 04 09 12 31 05 .56    -144    -12    -10    145    146 265.2  -4.1  33992  286.74 0863.27
2015 04 09 12 31 05 .81    -122    -12    -34    123    128 264.3 -15.5  33986  286.62 0863.28
2015 04 09 12 31 06 .06    -116     -2    -10    117    118 268.7  -5.1  33986  286.64 0863.28
2015 04 09 12 31 06 .31     -95      0      4     96     97 270.0   2.9  34002  286.89 0863.28
2015 04 09 12 31 06 .57    -120    -40     -4    127    128 251.4  -2.2  33990  286.69 0863.28
2015 04 09 12 31 06 .82    -121    -32    -16    126    128 254.9  -7.3  33978  286.51 0863.28
2015 04 09 12 31 07 .06    -109    -27    -40    113    121 255.8 -19.6  33964  286.27 0863.28
2015 04 09 12 31 07 .31    -104    -41    -37    112    117 248.3 -23.8  33970  286.37 0863.28
2015 04 09 12 31 07 .57     -76    -52    -33     93     99 235.4 -19.6  33992  286.73 0863.28
2015 04 09 12 31 07 .81     -66    -53    -29     85     90 231.4 -19.1  33996  286.79 0863.28
2015 04 09 12 31 08 .06     -51    -68    -30     86     91 217.0 -23.8  33994  286.78 0863.28
2015 04 09 12 31 08 .32     -47    -22     -6     53     54 244.7  -7.3  33974  286.42 0863.28
2015 04 09 12 31 08 .57     -73    -13     -9     75     76 259.4  -7.2  33964  286.27 0863.28
2015 04 09 12 31 08 .82     -52    -21      0     57     58 248.3   0.8  33986  286.64 0863.28
2015 04 09 12 31 09 .07     -37    -18     32     42     52 244.6  42.7  34000  286.88 0863.28
2015 04 09 12 31 09 .32     -15    -24     29     29     41 212.6  50.1  34012  287.06 0863.28
2015 04 09 12 31 09 .57     -46    -33      0     57     58 234.0   0.8  34006  286.96 0863.28
2015 04 09 12 31 09 .82     -41    -44     38     61     71 223.2  35.5  33992  286.74 0863.28
2015 04 09 12 31 10 .07     -24    -92     42     96    104 195.1  25.1  33990  286.69 0863.28
2015 04 09 12 31 10 .33     -18    -88     49     90    102 191.6  31.3  34026  287.32 0863.28
2015 04 09 12 31 10 .57     -31    -91     58     97    113 198.7  34.0  34058  287.84 0863.28
2015 04 09 12 31 10 .82     -62    -93     66    112    130 213.8  33.5  34022  287.25 0863.28
2015 04 09 12 31 11 .07     -67    -57      4     88     89 229.6   2.9  33976  286.47 0863.28
2015 04 09 12 31 11 .33     -59    -72     -2     94     95 219.6  -1.3  33958  286.17 0863.28
2015 04 09 12 31 11 .58     -54    -88     -4    104    105 211.6  -2.2  33960  286.19 0863.28
2015 04 09 12 31 11 .83     -57   -116      0    130    131 206.3   0.2  33964  286.25 0863.28
2015 04 09 12 31 12 .08     -19   -107      4    109    110 190.2   2.3  33946  285.95 0863.28
2015 04 09 12 31 12 .34     -31   -111     13    116    117 195.6   6.9  33948  286.00 0863.28
2015 04 09 12 31 12 .58     -35    -95     16    102    104 200.5   9.0  33956  286.14 0863.28
2015 04 09 12 31 12 .83     -39    -98     21    106    109 201.8  11.1  33956  286.12 0863.28
2015 04 09 12 31 13 .09     -46   -106     12    116    117 203.6   5.9  33956  286.12 0863.28
2015 04 09 12 31 13 .33     -50    -97    -38    110    117 207.2 -19.1  33918  285.48 0863.28
2015 04 09 12 31 13 .59     -35    -90    -19     97     99 201.4 -11.3  33912  285.38 0863.28
2015 04 09 12 31 13 .84     -25    -77    -20     82     85 198.3 -13.9  33912  285.38 0863.28
2015 04 09 12 31 14 .09     -27    -81    -26     86     89 198.5 -22.3  33906  285.29 0863.28
2015 04 09 12 31 14 .34     -26    -87    -33     92     98 196.9 -19.7  33898  285.14 0863.28
2015 04 09 12 31 14 .59     -15    -86    -29     88     93 190.2 -18.7  33896  285.11 0863.28
2015 04 09 12 31 14 .84     -26    -78    -24     83     87 198.3 -16.0  33892  285.06 0863.28
2015 04 09 12 31 15 .09     -21    -96    -28     99    102 192.5 -20.2  33896  285.11 0863.28
2015 04 09 12 31 15 .34     -32    -96    -30    102    106 198.7 -21.7  33900  285.19 0863.28
2015 04 09 12 31 15 .59     -32    -95    -14    101    103 198.7  -8.2  33926  285.63 0863.28
2015 04 09 12 31 15 .84     -18    -91    -33     93     99 191.5 -19.7  33898  285.14 0863.28
2015 04 09 12 31 16 .09     -10    -93    -26     94     98 186.7 -15.4  33896  285.11 0863.28
2015 04 09 12 31 16 .35     -11    -85    -16     86     88 187.6 -10.9  33904  285.24 0863.28
2015 04 09 12 31 16 .59     -11    -78      4     79     80 188.1   2.9  33928  285.65 0863.28
2015 04 09 12 31 16 .85      -9    -65    -13     66     68 188.1 -11.3  33918  285.48 0863.28
2015 04 09 12 31 17 .10      -8    -66     -8     67     68 187.1  -7.2  33916  285.44 0863.28
2015 04 09 12 31 17 .35     -25    -64     -8     69     70 201.8  -7.3  33926  285.63 0863.28
2015 04 09 12 31 17 .60     -26    -65     11     71     72 201.8   9.0  33950  286.02 0863.28
2015 04 09 12 31 17 .85     -21    -56     24     61     65 200.9  23.0  33956  286.12 0863.28
2015 04 09 12 31 18 .10     -23    -68     36     73     81 199.2  28.2  33960  286.19 0863.28
2015 04 09 12 31 18 .36     -46    -65     27     80     85 215.2  18.9  33978  286.51 0863.28
2015 04 09 12 31 18 .61     -52    -71     20     89     92 216.1  12.6  33964  286.27 0863.28
2015 04 09 12 31 18 .86     -45    -48     29     67     73 223.2  25.1  33996  286.79 0863.28
2015 04 09 12 31 19 .11     -45    -35     29     58     64 232.2  28.2  34008  287.01 0863.28
2015 04 09 12 31 19 .36     -57    -26     47     63     78 244.8  41.2  34014  287.11 0863.28
2015 04 09 12 31 19 .61     -33    -35     53     49     72 223.2  52.2  33994  286.78 0863.29
2015 04 09 12 31 19 .86     -33    -45     40     56     68 216.1  39.5  33984  286.61 0863.29
2015 04 09 12 31 20 .11     -28    -35     52     46     69 218.7  53.3  34002  286.89 0863.29
2015 04 09 12 31 20 .36     -42    -43     31     61     68 224.1  28.2  33982  286.56 0863.28
2015 04 09 12 31 20 .62     -35    -32     32     48     57 226.9  35.6  33982  286.56 0863.28
2015 04 09 12 31 20 .87     -24    -20     29     32     43 230.4  47.9  33992  286.74 0863.28
2015 04 09 12 31 21 .14      -8    -26     41     28     49 196.9  62.6  34004  286.93 0863.28
2015 04 09 12 31 21 .36       0    -31     48     32     57 179.1  64.6  34008  287.01 0863.28
2015 04 09 12 31 21 .62     -26    -40     34     48     58 213.4  38.6  33986  286.64 0863.28
2015 04 09 12 31 21 .86     -19    -32     30     38     48 210.7  42.7  33996  286.79 0863.28
2015 04 09 12 31 22 .12     -27    -33     34     43     54 219.6  42.7  34000  286.86 0863.28
2015 04 09 12 31 22 .37     -24    -36     16     44     46 214.3  20.0  34012  287.06 0863.28
2015 04 09 12 31 22 .61     -33    -35     34     49     59 223.2  38.6  33992  286.74 0863.28
2015 04 09 12 31 22 .87     -25    -40     34     48     58 211.6  38.6  33984  286.59 0863.28
2015 04 09 12 31 23 .12     -25    -37     29     45     53 214.3  35.6  34000  286.86 0863.28
2015 04 09 12 31 23 .37     -13    -28     32     32     45 205.5  50.1  33998  286.83 0863.28
2015 04 09 12 31 23 .62     -21    -25     25     33     41 219.7  41.7  34008  287.01 0863.28
2015 04 09 12 31 23 .87     -18    -10     23     21     31 241.1  52.2  34014  287.10 0863.28
2015 04 09 12 31 24 .12     -19    -28     20     34     39 214.3  33.5  34000  286.86 0863.28
2015 04 09 12 31 24 .38     -21    -20     14     30     33 226.7  27.1  34006  286.96 0863.28
2015 04 09 12 31 24 .62      -4     -3     21      6     21 230.5  84.9  34034  287.43 0863.28
2015 04 09 12 31 24 .87      -7    -23     31     25     39 198.5  56.4  34020  287.20 0863.28
2015 04 09 12 31 25 .12     -28    -44     24     53     58 212.5  26.2  33980  286.52 0863.28
2015 04 09 12 31 25 .39      -3    -35     33     36     48 186.2  49.0  33980  286.54 0863.28
2015 04 09 12 31 25 .63     -10    -35     36     37     51 196.9  50.0  33988  286.67 0863.28
2015 04 09 12 31 25 .89     -19    -31     25     37     44 212.5  36.5  33996  286.79 0863.28
2015 04 09 12 31 26 .13     -31    -28     14     42     45 227.8  19.4  34000  286.88 0863.28
2015 04 09 12 31 26 .38     -21    -63     17     67     70 198.5  14.3  33984  286.61 0863.28
2015 04 09 12 31 26 .64     -43    -59    -20     74     77 216.0 -15.4  33970  286.37 0863.28
2015 04 09 12 31 26 .89     -49    -54     -9     74     75 222.3  -7.3  33972  286.41 0863.28
2015 04 09 12 31 27 .14     -81    -51     -4     96     97 237.6  -2.6  33978  286.49 0863.28
2015 04 09 12 31 27 .39     -69    -38    -13     79     81 241.1  -9.3  33976  286.47 0863.28
2015 04 09 12 31 27 .64     -48    -48     -3     69     70 225.0  -3.1  33974  286.42 0863.28
2015 04 09 12 31 27 .89     -49    -59     -5     77     78 219.7  -4.1  33970  286.35 0863.28
2015 04 09 12 31 28 .14     -64    -39    -25     76     80 238.5 -23.3  33966  286.29 0863.28
2015 04 09 12 31 28 .39     -62    -57    -27     85     90 227.3 -17.6  33954  286.08 0863.28
2015 04 09 12 31 28 .64     -65    -60    -31     89     95 227.3 -19.1  33960  286.20 0863.28
2015 04 09 12 31 28 .89     -70    -51    -26     87     90 234.0 -21.2  33962  286.24 0863.28
2015 04 09 12 31 29 .15     -73    -60    -24     95     99 230.5 -14.5  33954  286.10 0863.28
2015 04 09 12 31 29 .39     -78    -65    -19    102    104 230.0 -10.9  33962  286.22 0863.28
2015 04 09 12 31 29 .64     -58    -57    -22     82     86 225.1 -15.5  33954  286.08 0863.28
2015 04 09 12 31 29 .89     -58    -48    -22     76     80 230.4 -16.0  33954  286.08 0863.28
2015 04 09 12 31 30 .15     -54    -49    -14     74     76 227.8 -11.3  33956  286.12 0863.28
2015 04 09 12 31 30 .39     -48    -58    -20     76     79 219.7 -15.4  33958  286.17 0863.27
2015 04 09 12 31 30 .64     -49    -48    -11     69     70 225.9  -9.3  33960  286.19 0863.27
2015 04 09 12 31 30 .90     -59    -49     -5     77     78 230.4  -4.1  33960  286.19 0863.27
2015 04 09 12 31 31 .15     -29    -61     -3     68     69 205.3  -3.1  33974  286.42 0863.27
2015 04 09 12 31 31 .40     -33   -101     31    107    112 198.3  16.3  33990  286.71 0863.27
2015 04 09 12 31 31 .65      22   -105     -2    108    109 168.0  -1.3  33986  286.64 0863.27
2015 04 09 12 31 31 .90      28    -98     18    102    104 164.0  10.1  34020  287.21 0863.27
2015 04 09 12 31 32 .19      44    -88     22     99    102 153.3  12.6  34036  287.47 0863.27
2015 04 09 12 31 32 .41      61    -73      9     96     97 140.4   5.9  34016  287.15 0863.27
2015 04 09 12 31 32 .66      50    -73      5     89     90 145.3   3.3  33994  286.78 0863.27
2015 04 09 12 31 32 .91      36    -72    -13     81     83 153.3  -9.3  33992  286.74 0863.27
2015 04 09 12 31 33 .16       5    -93    -27     94     98 176.9 -16.0  33956  286.14 0863.27
2015 04 09 12 31 33 .41       0    -53    -15     54     57 180.9 -15.5  33946  285.97 0863.27
2015 04 09 12 31 33 .67     -22    -65     26     69     73 199.2  20.0  33966  286.30 0863.27
2015 04 09 12 31 33 .91     -12    -71     53     73     90 189.8  39.7  33988  286.67 0863.27
2015 04 09 12 31 34 .16      -9    -60     30     61     67 188.9  27.3  33976  286.47 0863.27
2015 04 09 12 31 34 .42       0    -51     38     52     64 180.9  39.7  33996  286.79 0863.27
2015 04 09 12 31 34 .67       7    -44     41     45     60 170.2  47.9  34014  287.10 0863.27
2015 04 09 12 31 34 .92       4    -55     44     56     71 175.5  43.7  34008  287.00 0863.28
2015 04 09 12 31 35 .17     -12    -73     60     75     96 189.8  43.3  34006  286.96 0863.28
2015 04 09 12 31 35 .42     -30    -89     42     94    102 198.7  25.7  34012  287.06 0863.28
2015 04 09 12 31 35 .67     -12   -102     27    103    107 186.7  14.7  33994  286.78 0863.28
2015 04 09 12 31 35 .92      -7    -98     21     99    102 184.5  12.2  33990  286.71 0863.28
2015 04 09 12 31 36 .17       4   -112     22    113    116 177.8  11.1  34002  286.89 0863.28
2015 04 09 12 31 36 .42       6   -104     31    105    110 176.4  16.8  34000  286.88 0863.28
2015 04 09 12 31 36 .67       7    -95     14     96     98 175.5   8.5  33996  286.79 0863.28
2015 04 09 12 31 36 .92      -5   -106     25    107    110 182.7  13.2  33992  286.73 0863.28
2015 04 09 12 31 37 .17     -28   -106     41    110    117 195.1  21.0  34000  286.86 0863.28
2015 04 09 12 31 37 .42     -28   -106     21    110    113 195.1  11.1  33986  286.64 0863.28
2015 04 09 12 31 37 .67     -28   -140     13    143    144 191.6   5.4  33984  286.61 0863.28
2015 04 09 12 31 37 .92     -36   -152      5    157    158 193.4   2.1  33952  286.05 0863.28
2015 04 09 12 31 38 .18     -24   -140     12    143    144 189.8   4.9  33976  286.47 0863.28
2015 04 09 12 31 38 .42     -17   -138     16    140    142 187.1   6.9  33996  286.81 0863.28
2015 04 09 12 31 38 .67     -11   -146     12    147    148 184.4   4.9  33958  286.17 0863.28
2015 04 09 12 31 38 .92     -19   -146      7    148    149 187.6   2.9  33910  285.34 0863.28
2015 04 09 12 31 39 .19     -12   -125     -4    126    127 185.8  -2.2  33900  285.19 0863.28
2015 04 09 12 31 39 .43     -25   -119     -4    122    123 192.0  -2.2  33894  285.09 0863.28
2015 04 09 12 31 39 .69     -23   -135     -7    137    138 189.7  -3.1  33896  285.11 0863.28
2015 04 09 12 31 39 .94     -22   -116    -28    119    123 190.7 -13.4  33900  285.19 0863.28
2015 04 09 12 31 40 .19     -29   -103    -14    108    109 196.0  -7.7  33900  285.18 0863.28
2015 04 09 12 31 40 .44     -45   -129     38    137    143 199.2  15.8  33910  285.34 0863.28
2015 04 09 12 31 40 .69     -69   -125     47    144    152 209.0  18.1  33962  286.24 0863.28
2015 04 09 12 31 40 .94     -75   -149     44    167    173 206.7  15.0  33998  286.83 0863.28
2015 04 09 12 31 41 .19     -79   -165     70    183    195 205.6  22.0  34008  287.00 0863.28
2015 04 09 12 31 41 .44     -69   -187     35    200    204 200.3   9.9  33942  285.90 0863.28
2015 04 09 12 31 41 .69     -85   -173     39    194    199 206.3  11.6  33920  285.53 0863.28
2015 04 09 12 31 41 .94     -94   -175     21    199    201 208.3   6.1  33908  285.31 0863.28
2015 04 09 12 31 42 .19    -101   -180     20    207    209 209.4   5.7  33900  285.19 0863.28
2015 04 09 12 31 42 .45    -101   -180     28    207    209 209.4   7.8  33906  285.28 0863.28
2015 04 09 12 31 42 .70    -101   -180     20    207    209 209.4   5.7  33928  285.66 0863.28
2015 04 09 12 31 42 .94     -91   -144     11    171    172 212.5   3.8  33916  285.46 0863.28
2015 04 09 12 31 43 .20    -106   -154      9    188    189 214.5   2.9  33914  285.43 0863.28
2015 04 09 12 31 43 .45     -96   -169      0    195    196 209.6   0.2  33952  286.05 0863.28
2015 04 09 12 31 43 .70     -96   -134      2    165    166 215.6   1.0  33944  285.92 0863.28
2015 04 09 12 31 43 .95     -74   -157      0    174    175 205.5   0.0  33902  285.23 0863.28
2015 04 09 12 31 44 .20     -69   -148     -2    164    165 205.2  -0.7  33904  285.24 0863.28
2015 04 09 12 31 44 .45     -75   -136     -7    156    157 208.9  -2.6  33902  285.23 0863.28
2015 04 09 12 31 44 .70     -68   -121    -11    139    140 209.4  -4.6  33902  285.21 0863.28
2015 04 09 12 31 44 .95     -69   -127    -11    145    146 208.5  -4.6  33904  285.26 0863.28
2015 04 09 12 31 45 .21     -76   -119     -1    142    143 212.6  -0.7  33906  285.29 0863.28
2015 04 09 12 31 45 .46     -89   -123      7    153    154 216.0   2.9  33964  286.25 0863.28
2015 04 09 12 31 45 .70     -83   -124     28    150    153 213.8  10.6  33992  286.74 0863.28
2015 04 09 12 31 45 .95     -65   -131     31    147    151 206.3  12.2  33952  286.05 0863.28
2015 04 09 12 31 46 .21     -63   -104      1    122    123 211.2   0.7  33916  285.44 0863.28
2015 04 09 12 31 46 .46     -68   -107      6    128    129 212.6   2.9  33906  285.28 0863.28
2015 04 09 12 31 46 .72     -60   -117      7    132    133 207.2   3.3  33904  285.24 0863.28
2015 04 09 12 31 46 .97     -65   -107      3    126    127 211.2   1.8  33904  285.24 0863.28
2015 04 09 12 31 47 .21     -48   -111      6    122    123 203.6   2.9  33902  285.21 0863.28
2015 04 09 12 31 47 .47     -56   -101      0    116    117 209.0  -0.3  33910  285.34 0863.28
2015 04 09 12 31 47 .72     -46   -110    -10    120    121 202.7  -5.2  33918  285.48 0863.28
2015 04 09 12 31 47 .97     -62   -120      6    136    137 207.2   2.9  33930  285.70 0863.28
2015 04 09 12 31 48 .22     -65   -108     -7    127    128 211.2  -3.2  33932  285.71 0863.28
2015 04 09 12 31 48 .47     -66   -120      0    138    139 209.0   0.2  33926  285.63 0863.28
2015 04 09 12 31 48 .72     -84   -101     26    132    135 219.6  11.1  33930  285.68 0863.28
2015 04 09 12 31 48 .97     -86   -103     -2    135    136 219.6  -1.3  33920  285.53 0863.28
2015 04 09 12 31 49 .22    -113   -112     -5    160    161 225.1  -1.8  33918  285.48 0863.28
2015 04 09 12 31 49 .47    -117   -117    -13    166    167 225.0  -4.6  33918  285.48 0863.28
2015 04 09 12 31 49 .72     -85   -130     -8    156    157 213.4  -3.1  33922  285.56 0863.28
2015 04 09 12 31 49 .97     -95   -130    -13    162    163 216.1  -4.6  33918  285.48 0863.28
2015 04 09 12 31 50 .22     -87   -135    -12    161    162 213.0  -4.4  33936  285.80 0863.28
2015 04 09 12 31 50 .47    -102   -116    -11    155    156 221.4  -4.1  33924  285.58 0863.28
2015 04 09 12 31 50 .72    -120   -128    -22    176    178 223.0  -7.3  33914  285.43 0863.28
2015 04 09 12 31 50 .97    -114   -118    -17    165    166 223.9  -6.2  33912  285.38 0863.28
2015 04 09 12 31 51 .22    -114   -114    -19    162    164 225.0  -6.9  33910  285.34 0863.28
2015 04 09 12 31 51 .47    -120   -123    -18    173    175 224.3  -6.2  33914  285.43 0863.28
2015 04 09 12 31 51 .72    -112   -112    -24    159    161 225.0  -8.6  33912  285.39 0863.28
2015 04 09 12 31 51 .98     -99   -120     -4    156    157 219.7  -1.8  33918  285.48 0863.28
2015 04 09 12 31 52 .23     -99   -109    -19    148    150 222.3  -7.3  33914  285.43 0863.28
2015 04 09 12 31 52 .48    -114    -90    -24    146    148 231.8  -9.4  33914  285.41 0863.28
2015 04 09 12 31 52 .73    -111   -109    -36    156    161 225.6 -13.2  33914  285.43 0863.28
2015 04 09 12 31 52 .98    -108   -115    -50    159    167 223.2 -17.6  33924  285.60 0863.28
2015 04 09 12 31 53 .24    -103   -117    -26    157    160 221.4  -9.6  33918  285.48 0863.28
2015 04 09 12 31 53 .49    -112    -93    -22    146    148 230.4  -8.8  33914  285.43 0863.28
2015 04 09 12 31 53 .74    -121    -88    -12    150    151 234.1  -4.6  33914  285.43 0863.28
2015 04 09 12 31 53 .99     -99    -88    -16    133    135 228.6  -7.2  33918  285.48 0863.28
2015 04 09 12 31 54 .24     -98    -77    -20    126    128 231.8  -9.4  33920  285.53 0863.28
2015 04 09 12 31 54 .49     -93    -67    -36    115    121 234.0 -17.6  33918  285.48 0863.28
2015 04 09 12 31 54 .74    -102    -64    -19    121    123 237.6  -9.3  33920  285.53 0863.28
2015 04 09 12 31 54 .99    -113    -67    -41    132    139 239.4 -17.6  33926  285.63 0863.28
2015 04 09 12 31 55 .24    -133    -91    -18    162    164 235.4  -6.5  33926  285.63 0863.28
2015 04 09 12 31 55 .49    -144    -82    -24    166    168 240.2  -8.2  33944  285.93 0863.28
2015 04 09 12 31 55 .74    -169    -79    -39    187    192 244.7 -11.9  33944  285.93 0863.28
2015 04 09 12 31 55 .99    -169    -75    -26    185    187 246.0  -8.0  33930  285.70 0863.28
2015 04 09 12 31 56 .24    -167    -77    -23    184    186 245.2  -7.2  33934  285.75 0863.28
2015 04 09 12 31 56 .50    -147    -71    -14    164    165 244.2  -5.2  33934  285.76 0863.28
2015 04 09 12 31 56 .75    -145    -68    -32    161    165 244.8 -11.3  33932  285.73 0863.28
2015 04 09 12 31 57 .00    -144    -43    -23    151    153 253.1  -8.8  33938  285.83 0863.28
2015 04 09 12 31 57 .25    -136    -48    -25    145    148 250.5  -9.8  33936  285.80 0863.28
2015 04 09 12 31 57 .50    -158    -49    -29    166    169 252.7 -10.1  33950  286.03 0863.27
2015 04 09 12 31 57 .75    -159    -41    -33    165    169 255.6 -11.6  33950  286.03 0863.27
2015 04 09 12 31 58 .00    -152    -41    -31    158    162 254.9 -11.3  33946  285.95 0863.27
2015 04 09 12 31 58 .25    -149    -50    -26    158    161 251.4  -9.3  33946  285.95 0863.27
2015 04 09 12 31 58 .50    -135    -77    -32    156    160 240.2 -11.9  33934  285.75 0863.27
2015 04 09 12 31 58 .75    -117    -64    -43    134    141 241.1 -18.1  33938  285.82 0863.27
2015 04 09 12 31 59 .00    -127    -60    -46    141    148 244.7 -23.8  33928  285.65 0863.27
2015 04 09 12 31 59 .25    -122    -55    -45    134    141 245.6 -23.6  33924  285.60 0863.27
2015 04 09 12 31 59 .50    -118    -51    -43    129    135 246.5 -23.6  33922  285.56 0863.28
2015 04 09 12 31 59 .76    -118    -65    -28    135    138 241.1 -11.9  33932  285.73 0863.28
2015 04 09 12 32 00 .02    -113    -62    -31    130    134 241.1 -13.4  33940  285.85 0863.28
2015 04 09 12 32 00 .26    -147    -75    -33    166    170 242.9 -11.3  33956  286.14 0863.28
2015 04 09 12 32 00 .51    -142    -67    -33    158    162 244.7 -11.9  33956  286.14 0863.28
2015 04 09 12 32 00 .77    -149    -70    -43    165    171 244.7 -14.7  33952  286.05 0863.28
2015 04 09 12 32 01 .02    -138    -55    -42    149    155 248.2 -15.8  33984  286.59 0863.28
2015 04 09 12 32 01 .26    -149    -33    -19    153    155 257.2  -7.3  33970  286.35 0863.28
2015 04 09 12 32 01 .52    -119    -28    -20    123    125 256.7  -9.4  33978  286.49 0863.28
2015 04 09 12 32 01 .77     -60    -38     24     72     77 237.6  18.9  34012  287.06 0863.28
2015 04 09 12 32 02 .02     -82    -32    -16     89     91 248.3 -10.3  33982  286.56 0863.28
2015 04 09 12 32 02 .27     -87    -23    -27     91     95 254.9 -16.6  33972  286.39 0863.28
2015 04 09 12 32 02 .52    -113     -4    -17    114    116 267.9  -8.8  33984  286.61 0863.28
2015 04 09 12 32 02 .77     -57      4     -5     58     59 274.4  -5.2  33998  286.83 0863.28
2015 04 09 12 32 03 .02     -71     21    -10     75     76 286.8  -8.2  33996  286.79 0863.28
2015 04 09 12 32 03 .28     -90    -42    -22    100    103 244.7 -12.4  34000  286.88 0863.28
2015 04 09 12 32 03 .52     -43    -27     27     51     57 237.5  30.3  34014  287.10 0863.28
2015 04 09 12 32 03 .78     -56    -53      2     78     79 226.8   1.8  34006  286.98 0863.28
2015 04 09 12 32 04 .03     -47    -13     34     49     59 254.1  38.6  34036  287.49 0863.28
2015 04 09 12 32 04 .28     -49     49     19     70     73 315.0  15.2  34056  287.82 0863.28
2015 04 09 12 32 04 .53    -142    -38     14    148    149 254.9   5.4  34066  287.99 0863.28
2015 04 09 12 32 04 .78    -206     -2    -46    207    213 269.2 -12.6  34036  287.49 0863.28
2015 04 09 12 32 05 .03    -195    -26     -7    197    198 262.3  -2.2  34088  288.36 0863.28
2015 04 09 12 32 05 .28    -219     13    -36    220    224 273.5  -9.3  34048  287.67 0863.28
2015 04 09 12 32 05 .53     -91     14     38     93    100 278.8  23.1  34088  288.35 0863.28
2015 04 09 12 32 05 .78    -184    -40    -45    189    195 257.6 -13.4  34108  288.69 0863.28
2015 04 09 12 32 06 .03    -135    -10    -17    136    138 265.7  -7.3  34108  288.70 0863.28
2015 04 09 12 32 06 .28     -92    -12    -12     93     94 262.1  -7.7  34074  288.13 0863.28
2015 04 09 12 32 06 .53    -162     12     -6    163    164 274.4  -2.3  34044  287.60 0863.28
2015 04 09 12 32 06 .78    -165    -34    -40    169    174 258.3 -13.4  34020  287.21 0863.29
2015 04 09 12 32 07 .04    -163     -8    -25    164    166 267.0  -8.8  34042  287.59 0863.29
2015 04 09 12 32 07 .29    -124     58    -12    138    139 295.2  -5.2  34054  287.79 0863.29
2015 04 09 12 32 07 .54    -206    -22    -11    208    209 263.8  -3.1  34058  287.84 0863.29
2015 04 09 12 32 07 .79     -85    -47     16     98    100 241.1   9.5  34074  288.11 0863.29
2015 04 09 12 32 08 .05     -89     -4      4     90     91 267.0   2.9  34078  288.18 0863.29
2015 04 09 12 32 08 .29    -155    -31    -27    159    162 258.6  -9.6  34088  288.35 0863.29
2015 04 09 12 32 08 .55    -109    -42     15    117    118 248.7   7.5  34086  288.31 0863.28
2015 04 09 12 32 08 .80    -115    -13     32    116    121 263.4  15.8  34098  288.52 0863.28
2015 04 09 12 32 09 .05    -141    -10    -46    142    150 265.6 -17.9  34084  288.28 0863.28
2015 04 09 12 32 09 .30    -194     -1    -18    195    196 269.6  -5.4  34098  288.53 0863.28
2015 04 09 12 32 09 .55     -61      2     42     62     74 272.6  36.5  34110  288.74 0863.28
2015 04 09 12 32 09 .80     -27    -39     15     48     51 215.2  17.3  34120  288.89 0863.28
2015 04 09 12 32 10 .05     -43    -68     58     81     99 212.5  39.5  34142  289.28 0863.28
2015 04 09 12 32 10 .30     -44    -90     12    101    102 205.9   7.1  34160  289.57 0863.28
2015 04 09 12 32 10 .55     -22      8     16     24     28 290.0  35.6  34132  289.09 0863.28
2015 04 09 12 32 10 .80    -350    -86    -57    361    366 256.1  -9.1  34080  288.23 0863.28
2015 04 09 12 32 11 .05    -309    -37    -79    312    322 263.0 -14.3  33946  285.94 0863.28
2015 04 09 12 32 11 .31    -283    -59    -59    290    297 258.1 -11.6  34176  289.83 0863.28
2015 04 09 12 32 11 .55    -213     33     11    216    217 278.8   2.9  34092  288.42 0863.28
2015 04 09 12 32 11 .81    -279    -56    -82    285    297 258.5 -16.0  34078  288.17 0863.28
2015 04 09 12 32 12 .05    -294    -96    -54    310    315 251.8  -9.9  33994  286.75 0863.28
2015 04 09 12 32 12 .35    -280    -92    -39    295    298 251.8  -7.7  34026  287.29 0863.28
2015 04 09 12 32 12 .55    -285   -117    -48    309    313 247.6  -8.9  34028  287.34 0863.28
2015 04 09 12 32 12 .81    -206   -130    -50    244    250 237.8 -11.6  33960  286.18 0863.28
2015 04 09 12 32 13 .06    -262    -99    -40    281    284 249.2  -8.3  34066  287.99 0863.29
2015 04 09 12 32 13 .31    -144   -121     -5    189    190 229.8  -1.6  34118  288.87 0863.29
2015 04 09 12 32 13 .56     -58    -65     -1     88     89 221.9  -1.3  34124  288.97 0863.29
2015 04 09 12 32 13 .81     -92   -121     28    153    156 217.4  10.6  34070  288.06 0863.29
2015 04 09 12 32 14 .07    -187    -28    -52    190    198 261.4 -15.5  34030  287.38 0863.29
2015 04 09 12 32 14 .32    -106    -10    -13    107    108 264.3  -7.2  34078  288.20 0863.29
2015 04 09 12 32 14 .57    -177    -26    -21    179    181 261.6  -6.7  34088  288.36 0863.29
2015 04 09 12 32 14 .82    -302     43    -39    306    309 278.1  -7.4  34008  287.01 0863.29
2015 04 09 12 32 15 .07    -315     34    -46    317    321 276.2  -8.4  33972  286.40 0863.29
2015 04 09 12 32 15 .32    -322     31    -52    324    329 275.6  -9.1  33960  286.18 0863.29
2015 04 09 12 32 15 .57    -309      0    -61    310    317 269.9 -11.2  33956  286.13 0863.29
2015 04 09 12 32 15 .82    -268     35    -46    271    276 277.5  -9.8  33986  286.63 0863.29
2015 04 09 12 32 16 .07    -377     46    -35    380    382 277.1  -5.3  33954  286.09 0863.29
2015 04 09 12 32 16 .32    -393     84    -95    403    415 282.2 -13.3  33918  285.47 0863.29
2015 04 09 12 32 16 .57    -363     50    -98    367    380 277.9 -15.0  33910  285.36 0863.29
2015 04 09 12 32 16 .82    -351     52    -79    355    364 278.5 -12.7  33902  285.21 0863.29
2015 04 09 12 32 17 .07    -347     38    -54    350    355 276.3  -8.8  33902  285.21 0863.29
2015 04 09 12 32 17 .33    -290     57    -26    296    298 281.2  -5.2  33916  285.44 0863.29
2015 04 09 12 32 17 .58    -177     72     -3    192    193 292.2  -1.2  33946  285.95 0863.29
2015 04 09 12 32 17 .83    -373     95    -49    386    390 284.4  -7.3  33908  285.30 0863.29
2015 04 09 12 32 18 .08    -367     80    -76    376    384 282.4 -11.6  33906  285.28 0863.29
2015 04 09 12 32 18 .33    -393     95    -74    405    412 283.6 -10.4  33912  285.37 0863.29
2015 04 09 12 32 18 .58    -365     71    -40    373    376 281.1  -6.2  33942  285.89 0863.29
2015 04 09 12 32 18 .83    -346     98    -39    360    363 285.9  -6.3  33940  285.87 0863.29
2015 04 09 12 32 19 .08    -311     79    -50    321    325 284.3  -8.9  33964  286.25 0863.29
2015 04 09 12 32 19 .33    -405     85    -61    414    419 281.9  -8.4  33906  285.29 0863.29
2015 04 09 12 32 19 .58    -348     10    -78    349    358 271.7 -12.6  33908  285.31 0863.29
2015 04 09 12 32 19 .83    -322     19    -68    323    331 273.4 -11.9  33904  285.25 0863.29
2015 04 09 12 32 20 .08    -271     84    -46    284    288 287.3  -9.3  33928  285.66 0863.29
2015 04 09 12 32 20 .33    -243    -33    -16    246    247 262.1  -3.9  33956  286.11 0863.29
2015 04 09 12 32 20 .58    -313     13    -39    314    317 272.4  -7.2  33924  285.57 0863.29
2015 04 09 12 32 20 .83    -171     25     13    173    174 278.4   4.4  33944  285.92 0863.29
2015 04 09 12 32 21 .09    -251     24    -32    253    256 275.5  -7.2  33928  285.66 0863.29
2015 04 09 12 32 21 .35    -305     -4    -27    306    308 269.1  -5.2  33920  285.51 0863.29
2015 04 09 12 32 21 .60    -215     -9    -16    216    217 267.5  -4.4  33928  285.66 0863.29
2015 04 09 12 32 21 .85    -300      0    -28    301    303 270.0  -5.4  33914  285.42 0863.29
2015 04 09 12 32 22 .10    -343    -22    -63    344    350 266.3 -10.4  33916  285.46 0863.29
2015 04 09 12 32 22 .35    -365    -47    -64    369    375 262.5  -9.9  33920  285.52 0863.29
2015 04 09 12 32 22 .60    -262      7      8    263    264 271.7   1.8  33932  285.71 0863.29
2015 04 09 12 32 22 .85    -314    -77    -30    324    326 256.1  -5.4  33924  285.57 0863.29
2015 04 09 12 32 23 .10    -328    -17    -80    329    339 267.0 -13.7  33896  285.11 0863.29
2015 04 09 12 32 23 .35    -321     12    -49    322    326 272.3  -8.7  33918  285.47 0863.29
2015 04 09 12 32 23 .60    -335     -8    -68    336    344 268.5 -11.6  33914  285.43 0863.29
2015 04 09 12 32 23 .85    -320    -16    -69    321    329 267.0 -12.2  33950  286.01 0863.29
2015 04 09 12 32 24 .10    -325    -18    -35    326    328 266.7  -6.3  33930  285.67 0863.29
2015 04 09 12 32 24 .35    -261    -28    -33    263    266 263.8  -7.2  33936  285.79 0863.29
2015 04 09 12 32 24 .60    -223      5    -17    224    225 271.5  -4.4  33954  286.10 0863.29
2015 04 09 12 32 24 .85    -309     61    -34    316    318 281.2  -6.2  33994  286.75 0863.29
2015 04 09 12 32 25 .10    -215     31     -8    218    219 278.4  -2.2  34004  286.94 0863.29
2015 04 09 12 32 25 .36    -336     64    -32    343    345 280.8  -5.5  33970  286.36 0863.29
2015 04 09 12 32 25 .60    -279     31    -19    281    282 276.4  -3.9  33970  286.36 0863.29
2015 04 09 12 32 25 .86    -325     -1    -35    326    328 269.7  -6.3  33990  286.68 0863.29
2015 04 09 12 32 26 .11    -250     12     -1    251    252 272.8  -0.3  33988  286.65 0863.29
2015 04 09 12 32 26 .36    -348     -3    -31    349    351 269.5  -5.1  34000  286.86 0863.29
2015 04 09 12 32 26 .61    -335     46    -15    339    340 277.9  -2.6  33942  285.90 0863.29
2015 04 09 12 32 26 .86    -284    -24    -26    286    288 265.0  -5.2  33934  285.74 0863.29
2015 04 09 12 32 27 .11    -355     47    -45    359    362 277.6  -7.2  33910  285.35 0863.29
2015 04 09 12 32 27 .36    -384     14    -50    385    389 272.1  -7.5  33906  285.28 0863.29
2015 04 09 12 32 27 .61    -245    -33      3    248    249 262.3   0.7  33926  285.61 0863.29
2015 04 09 12 32 27 .87    -266    -17    -19    267    268 266.3  -4.1  33924  285.59 0863.29
2015 04 09 12 32 28 .12    -227     11     -6    228    229 273.0  -1.6  33942  285.90 0863.29
2015 04 09 12 32 28 .37    -194      5     -7    195    196 271.7  -2.2  33934  285.76 0863.29
2015 04 09 12 32 28 .62    -343      0    -69    344    351 270.0 -11.5  33892  285.06 0863.29
2015 04 09 12 32 28 .87    -334      8    -67    335    342 271.4 -11.3  33894  285.09 0863.29
2015 04 09 12 32 29 .12    -285     12    -79    286    297 272.5 -15.5  33906  285.27 0863.29
2015 04 09 12 32 29 .37    -315      0    -82    316    327 270.0 -14.6  33892  285.03 0863.29
2015 04 09 12 32 29 .62    -334     29    -67    336    343 275.0 -11.3  33886  284.93 0863.29
2015 04 09 12 32 29 .88    -324     12    -35    325    327 272.3  -6.3  33892  285.05 0863.29
2015 04 09 12 32 30 .12    -326     43    -39    329    332 277.6  -6.9  33890  285.01 0863.29
2015 04 09 12 32 30 .38    -330     49    -72    334    342 278.6 -12.3  33892  285.03 0863.29
2015 04 09 12 32 30 .63    -296     22    -51    297    302 274.4  -9.8  33896  285.12 0863.29
2015 04 09 12 32 30 .88    -237     57     -9    244    245 283.7  -2.2  33910  285.34 0863.29
2015 04 09 12 32 31 .13    -283     39    -62    286    293 277.9 -12.4  33886  284.93 0863.29
2015 04 09 12 32 31 .38    -291     35    -48    294    299 277.0  -9.3  33890  285.00 0863.29
2015 04 09 12 32 31 .63    -281     39    -62    284    291 278.0 -12.4  33888  284.98 0863.29
2015 04 09 12 32 31 .88    -291     34    -48    294    299 276.8  -9.4  33886  284.95 0863.29
2015 04 09 12 32 32 .13    -273     47    -40    278    281 279.9  -8.2  33888  284.97 0863.29
2015 04 09 12 32 32 .38    -258     64    -33    266    269 284.1  -7.2  33890  285.00 0863.29
2015 04 09 12 32 32 .63    -238     35    -25    241    243 278.4  -6.1  33894  285.07 0863.29
2015 04 09 12 32 32 .88    -248     38    -45    251    256 278.8 -10.3  33888  284.97 0863.29
2015 04 09 12 32 33 .13    -251     44    -40    255    259 280.1  -9.0  33890  285.02 0863.29
2015 04 09 12 32 33 .38    -267     71    -50    277    282 285.0 -10.4  33888  284.97 0863.29
2015 04 09 12 32 33 .63    -234     75    -63    246    255 287.8 -14.4  33886  284.93 0863.29
2015 04 09 12 32 33 .88    -236     67    -54    246    252 285.9 -12.4  33888  284.97 0863.29
2015 04 09 12 32 34 .13    -221     43    -54    226    233 281.2 -13.4  33886  284.96 0863.29
2015 04 09 12 32 34 .38    -200     67    -56    212    220 288.6 -15.0  33894  285.07 0863.29
2015 04 09 12 32 34 .63    -208     68    -51    219    226 288.2 -13.3  33890  285.02 0863.29
2015 04 09 12 32 34 .89    -175     82    -54    194    202 295.1 -15.5  33894  285.09 0863.29
2015 04 09 12 32 35 .15    -156     91     -2    181    182 300.2  -0.7  33900  285.19 0863.29
2015 04 09 12 32 35 .40    -134    112     -3    175    176 310.0  -1.3  33906  285.28 0863.29
2015 04 09 12 32 35 .65    -212    117    -35    243    246 298.9  -8.2  33912  285.39 0863.29
2015 04 09 12 32 35 .89    -200    122    -46    235    240 301.5 -11.1  33890  285.02 0863.29
2015 04 09 12 32 36 .15    -179    110    -44    211    216 301.5 -11.9  33892  285.06 0863.29
2015 04 09 12 32 36 .40    -169    138    -36    219    222 309.1  -9.3  33898  285.14 0863.29
2015 04 09 12 32 36 .65    -157    102    -39    188    193 302.9 -11.9  33898  285.14 0863.29
2015 04 09 12 32 36 .90    -164     59    -71    175    188 290.0 -27.5  33896  285.11 0863.29
2015 04 09 12 32 37 .15    -134     18    -48    136    145 278.0 -19.7  33900  285.18 0863.29
2015 04 09 12 32 37 .40    -124     25    -41    127    134 281.5 -18.1  33894  285.09 0863.29
2015 04 09 12 32 37 .65    -146     39    -35    152    157 285.1 -13.2  33892  285.06 0863.29
2015 04 09 12 32 37 .90    -133     58    -28    146    149 293.5 -10.9  33896  285.11 0863.29
2015 04 09 12 32 38 .16    -118     74     -7    140    141 302.0  -3.2  33916  285.46 0863.29
2015 04 09 12 32 38 .40     -52     55    -23     76     79 316.8 -21.7  33926  285.61 0863.29
2015 04 09 12 32 38 .65    -106      0    -34    107    113 270.0 -17.6  33914  285.43 0863.29
2015 04 09 12 32 38 .90    -160     42     -6    166    167 284.8  -2.3  33910  285.34 0863.29
2015 04 09 12 32 39 .16    -187     29    -14    190    191 279.0  -4.4  33904  285.24 0863.29
2015 04 09 12 32 39 .40    -197     15    -21    198    200 274.4  -6.2  33900  285.19 0863.29
2015 04 09 12 32 39 .66    -204     51    -41    211    216 284.2 -11.1  33904  285.24 0863.29
2015 04 09 12 32 39 .91    -171     66    -23    184    186 291.3  -7.3  33938  285.83 0863.29
2015 04 09 12 32 40 .16    -167     45     -3    174    175 285.3  -1.1  33930  285.68 0863.29
2015 04 09 12 32 40 .43    -128     87    -18    155    157 304.2  -6.9  33978  286.51 0863.29
2015 04 09 12 32 40 .66    -178     59    -20    188    190 288.4  -6.2  34004  286.93 0863.29
2015 04 09 12 32 40 .91    -202     56    -26    210    212 285.7  -7.2  33956  286.12 0863.29
2015 04 09 12 32 41 .16    -205    119    -24    238    240 300.2  -6.0  33940  285.86 0863.29
2015 04 09 12 32 41 .41    -179    114    -18    213    214 302.5  -5.1  33934  285.75 0863.29
2015 04 09 12 32 41 .66    -163     95    -28    189    192 300.2  -8.6  33956  286.14 0863.29
2015 04 09 12 32 41 .92    -159     87    -23    182    184 298.9  -7.5  33938  285.82 0863.29
2015 04 09 12 32 42 .17    -136     75    -32    156    160 298.8 -11.6  33964  286.27 0863.28
2015 04 09 12 32 42 .43    -143     85    -46    167    174 300.7 -15.5  34000  286.86 0863.28
2015 04 09 12 32 42 .67    -174    118    -34    211    214 304.2  -9.3  34006  286.96 0863.28
2015 04 09 12 32 42 .92    -200    106    -29    227    229 298.0  -7.3  33908  285.33 0863.28
2015 04 09 12 32 43 .17    -203    103    -38    228    232 297.0  -9.6  33902  285.23 0863.28
2015 04 09 12 32 43 .42    -230     91    -36    248    251 291.7  -8.3  33904  285.25 0863.28
2015 04 09 12 32 43 .68    -208     70    -27    220    222 288.6  -7.2  33912  285.39 0863.28
2015 04 09 12 32 43 .93    -218     99    -27    240    242 294.4  -6.5  33908  285.30 0863.28
2015 04 09 12 32 44 .18    -210     75    -38    224    228 289.7  -9.8  33926  285.63 0863.28
2015 04 09 12 32 44 .43    -145     52     -6    155    156 290.0  -2.2  33936  285.80 0863.28
2015 04 09 12 32 44 .68    -139     77    -42    160    166 299.1 -15.0  33924  285.60 0863.28
2015 04 09 12 32 44 .93    -113     34    -18    119    121 286.8  -8.8  33928  285.66 0863.28
2015 04 09 12 32 45 .18     -51     17    -19     54     58 288.6 -19.6  33962  286.22 0863.28
2015 04 09 12 32 45 .43    -115     30     22    119    122 284.6  10.6  33978  286.51 0863.28
2015 04 09 12 32 45 .68     -41     42      3     59     60 315.8   2.9  33982  286.56 0863.28
2015 04 09 12 32 45 .93    -205     40    -50    210    216 281.2 -13.4  33926  285.61 0863.28
2015 04 09 12 32 46 .18    -201     31    -25    204    206 278.8  -7.2  33928  285.66 0863.28
2015 04 09 12 32 46 .43    -185      0      9    186    187 269.9   2.9  33940  285.85 0863.28
2015 04 09 12 32 46 .69    -250     11    -14    251    252 272.6  -3.3  33968  286.33 0863.28
2015 04 09 12 32 46 .93    -114     38     42    121    129 288.6  19.4  33976  286.47 0863.28
2015 04 09 12 32 47 .19    -109     35     32    115    120 288.2  15.8  33988  286.66 0863.28
2015 04 09 12 32 47 .43     -31    -68      9     75     76 204.5   6.9  33994  286.78 0863.28
2015 04 09 12 32 47 .69    -160    -62    -20    172    174 248.7  -6.9  33982  286.56 0863.27
2015 04 09 12 32 47 .94    -175    -44    -19    181    183 255.8  -6.0  33962  286.22 0863.27
2015 04 09 12 32 48 .19     -69    -31     49     76     90 245.6  35.6  34016  287.15 0863.27
2015 04 09 12 32 48 .43    -103     21     31    106    111 281.9  16.3  34018  287.16 0863.27
2015 04 09 12 32 48 .70     -60     -4    -20     61     65 265.6 -18.7  33996  286.81 0863.27
2015 04 09 12 32 48 .95     -26     16     10     31     33 302.4  19.2  34022  287.23 0863.27
2015 04 09 12 32 49 .20     -94      7    -12     95     96 274.8  -7.3  34032  287.42 0863.27
2015 04 09 12 32 49 .45     -81    -15     34     83     89 259.4  23.0  34042  287.59 0863.27
2015 04 09 12 32 49 .70    -173     26    -23    176    178 278.8  -7.7  34050  287.72 0863.27
2015 04 09 12 32 49 .95    -150    -83     12    172    173 241.1   4.2  34058  287.84 0863.27
2015 04 09 12 32 50 .20    -192      1    -10    193    194 270.4  -3.1  34058  287.84 0863.27
2015 04 09 12 32 50 .45     -84      5     12     85     86 273.9   8.5  34074  288.11 0863.27
2015 04 09 12 32 50 .70    -159    -42    -22    165    167 255.2  -7.7  34072  288.08 0863.27
2015 04 09 12 32 50 .95    -251     26     -9    253    254 276.1  -2.2  34078  288.19 0863.27
2015 04 09 12 32 51 .20    -220     16    -12    221    222 274.4  -3.1  34070  288.06 0863.28
2015 04 09 12 32 51 .46    -254     -3    -30    255    257 269.1  -6.9  34020  287.19 0863.28
2015 04 09 12 32 51 .70    -222     52    -28    229    231 283.3  -7.2  34054  287.77 0863.28
2015 04 09 12 32 51 .96    -268     67    -40    277    280 284.2  -8.2  33966  286.28 0863.28
2015 04 09 12 32 52 .21    -250     94    -36    268    271 290.6  -7.7  33970  286.36 0863.28
2015 04 09 12 32 52 .46    -204     98    -29    227    229 295.8  -7.3  33988  286.66 0863.28
2015 04 09 12 32 52 .71    -185     58     23    195    197 287.5   6.9  34020  287.20 0863.28
2015 04 09 12 32 52 .96    -216     87    -26    233    235 292.0  -6.5  34032  287.41 0863.27
2015 04 09 12 32 53 .21     -86     55     47    103    113 302.4  26.6  34032  287.42 0863.27
2015 04 09 12 32 53 .46     -95      7    -25     96    100 274.4 -15.0  34040  287.55 0863.27
2015 04 09 12 32 53 .71     -10     -5     49     12     50 244.7  88.0  34048  287.67 0863.27
2015 04 09 12 32 53 .96     -83    -13      1     85     86 260.8   1.2  34066  287.99 0863.27
2015 04 09 12 32 54 .21    -169      0    -34    170    174 270.0 -11.3  34104  288.64 0863.27
2015 04 09 12 32 54 .46     -97     16    -31     99    104 279.7 -17.6  34090  288.38 0863.27
2015 04 09 12 32 54 .71     -61    -54     41     82     91 228.2  28.2  34104  288.64 0863.27
2015 04 09 12 32 54 .96    -214    -20    -43    216    221 264.5 -11.3  34102  288.58 0863.27
2015 04 09 12 32 55 .21    -270     20     -7    271    272 274.4  -1.6  34026  287.29 0863.27
2015 04 09 12 32 55 .46    -309      4    -20    310    311 270.9  -3.7  34016  287.12 0863.27
2015 04 09 12 32 55 .72    -261     12    -51    262    268 272.8 -11.1  34020  287.19 0863.27
2015 04 09 12 32 55 .97    -332     34    -31    334    336 276.0  -5.5  33982  286.56 0863.27
2015 04 09 12 32 56 .22    -235    -17     -1    236    237 265.7  -0.3  33960  286.18 0863.27
2015 04 09 12 32 56 .48    -324     39    -65    327    334 276.9 -11.3  33924  285.60 0863.27
2015 04 09 12 32 56 .73    -261     16    -12    262    263 273.5  -2.8  33942  285.89 0863.27
2015 04 09 12 32 56 .98    -277     11    -15    278    279 272.4  -3.1  33932  285.71 0863.27
2015 04 09 12 32 57 .23    -322     19    -30    323    325 273.5  -5.4  33914  285.40 0863.27
2015 04 09 12 32 57 .48    -331     39    -28    334    336 276.8  -4.8  33924  285.57 0863.27
2015 04 09 12 32 57 .73    -325      2    -27    326    328 270.5  -4.9  33950  286.03 0863.27
2015 04 09 12 32 57 .98    -281     12    -21    282    283 272.6  -4.4  33978  286.50 0863.27
2015 04 09 12 32 58 .23    -210     36    -18    214    215 279.9  -4.9  33970  286.37 0863.27
2015 04 09 12 32 58 .48    -220     49    -21    226    228 282.6  -5.4  33960  286.20 0863.28
2015 04 09 12 32 58 .73    -335      7    -32    336    338 271.3  -5.6  33916  285.46 0863.28
2015 04 09 12 32 58 .98    -288      0    -34    289    292 270.0  -6.9  33912  285.37 0863.28
2015 04 09 12 32 59 .23    -273      3    -29    274    276 270.8  -6.2  33920  285.51 0863.28
2015 04 09 12 32 59 .48    -350     40    -58    353    358 276.6  -9.5  33930  285.68 0863.28
2015 04 09 12 32 59 .73    -234     24    -30    236    238 275.9  -7.3  33930  285.67 0863.28
2015 04 09 12 32 59 .98    -316     46    -35    320    322 278.4  -6.3  33962  286.21 0863.28
2015 04 09 12 33 00 .24    -292     81    -55    304    310 285.5 -10.4  33972  286.40 0863.28
2015 04 09 12 33 00 .49    -215     22     -8    217    218 276.1  -2.2  34016  287.13 0863.28
2015 04 09 12 33 00 .73    -330     16    -15    331    332 272.8  -2.7  33948  285.99 0863.28
2015 04 09 12 33 00 .98    -297    -13    -11    298    299 267.4  -2.2  33956  286.11 0863.28
2015 04 09 12 33 01 .23    -301     28    -19    303    304 275.3  -3.7  33986  286.63 0863.28
2015 04 09 12 33 01 .48    -393     -8    -17    394    395 268.7  -2.6  33962  286.22 0863.28
2015 04 09 12 33 01 .74    -414     49    -68    417    423 276.8  -9.4  33906  285.29 0863.28
2015 04 09 12 33 01 .99    -392     28    -45    393    396 274.1  -6.6  33910  285.36 0863.28
2015 04 09 12 33 02 .24    -375     63    -62    381    387 279.6  -9.3  33908  285.33 0863.28
2015 04 09 12 33 02 .48    -376     85    -62    386    392 282.8  -9.1  33912  285.38 0863.28
2015 04 09 12 33 02 .75    -325     45    -18    329    330 278.0  -3.2  33914  285.41 0863.28
2015 04 09 12 33 03 .00    -365     62    -46    371    374 279.7  -7.2  33914  285.43 0863.28
2015 04 09 12 33 03 .25    -349     83    -16    359    360 283.5  -2.6  33942  285.90 0863.28
2015 04 09 12 33 03 .50    -337     67    -36    344    346 281.4  -6.1  33946  285.95 0863.28
2015 04 09 12 33 03 .75    -371      3    -44    372    375 270.5  -6.8  33940  285.87 0863.28
2015 04 09 12 33 04 .00    -312     63    -29    319    321 281.5  -5.4  33930  285.69 0863.28
2015 04 09 12 33 04 .25    -380     71    -66    387    393 280.7  -9.8  33918  285.48 0863.28
2015 04 09 12 33 04 .50    -389     39    -42    392    395 275.8  -6.2  33908  285.33 0863.28
2015 04 09 12 33 04 .75    -378     53    -20    382    383 278.1  -3.1  33908  285.30 0863.28
2015 04 09 12 33 05 .01    -410     69    -59    416    421 279.6  -8.1  33896  285.10 0863.28
2015 04 09 12 33 05 .25    -429     79    -52    437    441 280.5  -6.9  33888  284.99 0863.28
2015 04 09 12 33 05 .51    -416     63    -44    421    424 278.7  -6.1  33894  285.07 0863.28
2015 04 09 12 33 05 .76    -410     94    -54    421    425 283.0  -7.3  33894  285.09 0863.28
2015 04 09 12 33 06 .01    -396     99    -62    409    414 284.1  -8.7  33898  285.14 0863.28
2015 04 09 12 33 06 .26    -374     54    -42    378    381 278.3  -6.5  33896  285.11 0863.28
2015 04 09 12 33 06 .51    -360    120    -54    380    384 288.4  -8.2  33892  285.06 0863.28
2015 04 09 12 33 06 .76    -262     86    -25    276    278 288.2  -5.2  33906  285.29 0863.28
2015 04 09 12 33 07 .01    -310     83    -34    321    323 285.1  -6.2  33914  285.42 0863.28
2015 04 09 12 33 07 .26    -308     81    -15    319    320 284.8  -2.8  33904  285.24 0863.28
2015 04 09 12 33 07 .51    -351     92    -49    363    367 284.7  -7.7  33896  285.11 0863.28
2015 04 09 12 33 07 .76    -332     83    -39    343    346 284.1  -6.5  33904  285.25 0863.28
2015 04 09 12 33 08 .01    -324     87    -38    336    339 285.1  -6.6  33924  285.58 0863.28
2015 04 09 12 33 08 .26    -244     76    -37    256    259 287.3  -8.2  33930  285.67 0863.28
2015 04 09 12 33 08 .51    -162     55     -3    172    173 288.8  -1.1  33946  285.95 0863.28
2015 04 09 12 33 08 .76     -61     36     51     72     88 300.7  38.6  33956  286.12 0863.28
2015 04 09 12 33 09 .01    -295     74    -39    305    308 284.2  -7.3  33910  285.34 0863.28
2015 04 09 12 33 09 .26    -339     96    -45    353    356 285.8  -7.3  33900  285.18 0863.28
2015 04 09 12 33 09 .51    -337     96    -63    351    357 285.9 -10.2  33898  285.15 0863.28
2015 04 09 12 33 09 .78    -325     99    -53    340    345 287.1  -9.0  33906  285.28 0863.28
2015 04 09 12 33 10 .03    -313     23    -37    314    317 274.3  -6.9  33916  285.45 0863.28
2015 04 09 12 33 10 .28    -304     75    -64    314    321 283.9 -11.6  33912  285.37 0863.28
2015 04 09 12 33 10 .53    -274    114    -59    297    303 292.6 -11.3  33908  285.30 0863.28
2015 04 09 12 33 10 .78    -254     83    -53    268    274 288.2 -11.3  33920  285.52 0863.28
2015 04 09 12 33 11 .03    -299     75    -59    309    315 284.2 -10.8  33914  285.42 0863.28
2015 04 09 12 33 11 .28    -341     94    -77    354    363 285.4 -12.3  33894  285.09 0863.28
2015 04 09 12 33 11 .53    -335     59    -69    341    349 280.0 -11.6  33902  285.23 0863.28
2015 04 09 12 33 11 .78    -339     77    -66    348    355 282.9 -10.8  33908  285.33 0863.28
2015 04 09 12 33 12 .03    -331    109    -45    349    352 288.3  -7.4  33924  285.58 0863.28
2015 04 09 12 33 12 .28    -325     92    -53    338    343 285.8  -9.0  33912  285.38 0863.28
2015 04 09 12 33 12 .53    -297     98    -54    313    318 288.4  -9.9  33904  285.25 0863.28
2015 04 09 12 33 12 .78    -302     97    -60    318    324 287.8 -10.8  33894  285.07 0863.28
2015 04 09 12 33 13 .03    -321    103    -61    338    344 287.8 -10.2  33906  285.28 0863.28
2015 04 09 12 33 13 .28    -311    125    -64    336    343 292.0 -10.8  33908  285.31 0863.28
2015 04 09 12 33 13 .53    -291    103    -47    309    313 289.5  -8.8  33914  285.40 0863.28
2015 04 09 12 33 13 .78    -280    113    -56    302    308 292.0 -10.5  33910  285.34 0863.28
2015 04 09 12 33 14 .03    -287    104    -58    306    312 290.0 -10.9  33910  285.35 0863.28
2015 04 09 12 33 14 .28    -295    103    -61    313    320 289.3 -11.1  33932  285.71 0863.28
2015 04 09 12 33 14 .54    -300    105    -54    318    323 289.3  -9.8  33924  285.59 0863.28
2015 04 09 12 33 14 .78    -228     90    -53    246    252 291.5 -12.2  33934  285.74 0863.28
2015 04 09 12 33 15 .04    -285     92    -47    300    304 287.9  -9.0  33938  285.81 0863.28
2015 04 09 12 33 15 .29    -273     92    -57    289    295 288.6 -11.3  33914  285.42 0863.28
2015 04 09 12 33 15 .54    -247    114    -28    273    275 294.8  -6.0  33920  285.52 0863.28
2015 04 09 12 33 15 .79    -258     99    -31    277    279 291.1  -6.5  33916  285.44 0863.28
2015 04 09 12 33 16 .04    -244     97    -44    263    267 291.8  -9.6  33918  285.49 0863.28
2015 04 09 12 33 16 .29    -269     82    -52    282    287 287.1 -10.5  33924  285.57 0863.28
2015 04 09 12 33 16 .55    -237     67    -40    247    251 285.9  -9.3  33912  285.39 0863.28
2015 04 09 12 33 16 .80    -215     57    -57    223    231 285.1 -14.3  33914  285.41 0863.28
2015 04 09 12 33 17 .05    -186     62    -53    197    205 288.4 -15.2  33902  285.21 0863.28
2015 04 09 12 33 17 .30    -208     69    -44    220    225 288.4 -11.3  33920  285.53 0863.28
2015 04 09 12 33 17 .55    -185     90    -31    206    209 296.0  -8.6  33920  285.51 0863.27
2015 04 09 12 33 17 .81    -191    126     -4    230    231 303.5  -1.1  33932  285.73 0863.27
2015 04 09 12 33 18 .06    -221    106    -33    246    249 295.8  -7.7  33976  286.45 0863.27
2015 04 09 12 33 18 .30    -233    133    -19    269    270 299.7  -4.1  33966  286.28 0863.27
2015 04 09 12 33 18 .56    -219    103    -23    243    245 295.2  -5.6  34022  287.24 0863.27
2015 04 09 12 33 18 .80    -180     81    -21    198    200 294.2  -6.2  34036  287.49 0863.27
2015 04 09 12 33 19 .05    -159    103    -47    190    196 303.1 -13.9  34008  287.00 0863.27
2015 04 09 12 33 19 .31    -171     89    -31    193    196 297.5  -9.3  34008  287.01 0863.28
2015 04 09 12 33 19 .56     -76      5      3     77     78 274.3   2.8  34030  287.37 0863.28
2015 04 09 12 33 19 .81    -199     40    -33    204    207 281.5  -9.3  33964  286.27 0863.28
2015 04 09 12 33 20 .06    -142     24     -9    145    146 279.7  -3.7  33968  286.32 0863.28
2015 04 09 12 33 20 .31    -139      6     42    140    147 272.6  16.8  34002  286.91 0863.28
2015 04 09 12 33 20 .56    -298    -13    -55    299    305 267.5 -10.5  33928  285.66 0863.28
2015 04 09 12 33 20 .81    -240     10    -32    241    244 272.6  -7.7  33924  285.59 0863.28
2015 04 09 12 33 21 .06    -108    -20     13    110    111 259.4   6.9  33962  286.22 0863.28
2015 04 09 12 33 21 .31    -295     79    -23    306    307 285.1  -4.4  33936  285.79 0863.27
2015 04 09 12 33 21 .56    -246     32    -19    249    250 277.5  -4.4  33994  286.77 0863.27
2015 04 09 12 33 21 .81    -331     73    -79    340    350 282.5 -13.1  33902  285.20 0863.27
2015 04 09 12 33 22 .06    -301     48    -39    305    308 279.2  -7.3  33912  285.37 0863.27
2015 04 09 12 33 22 .31    -362     96    -60    375    380 284.9  -9.1  33892  285.06 0863.27
2015 04 09 12 33 22 .56    -342    110    -48    360    364 287.9  -7.7  33900  285.18 0863.27
2015 04 09 12 33 22 .81    -300    119    -22    323    324 291.7  -4.0  33992  286.72 0863.27
2015 04 09 12 33 23 .06    -253     52    -11    259    260 281.7  -2.6  33956  286.13 0863.27
2015 04 09 12 33 23 .32    -290     58    -63    296    303 281.4 -12.2  33906  285.27 0863.27
2015 04 09 12 33 23 .58    -263     49    -44    268    272 280.6  -9.4  33912  285.39 0863.27
2015 04 09 12 33 23 .83    -247     71    -46    258    263 286.0 -10.1  33906  285.29 0863.27
2015 04 09 12 33 24 .08    -271     96    -30    288    290 289.7  -6.0  33908  285.30 0863.28
2015 04 09 12 33 24 .33    -266     17    -10    267    268 273.7  -2.2  33918  285.49 0863.28
2015 04 09 12 33 24 .58    -260     73    -24    271    273 285.7  -5.2  33910  285.34 0863.28
2015 04 09 12 33 24 .83    -293     63    -38    300    303 282.3  -7.3  33924  285.57 0863.28
2015 04 09 12 33 25 .08    -245     80    -18    258    259 288.2  -4.1  33930  285.69 0863.28
2015 04 09 12 33 25 .33    -300    105    -46    318    322 289.3  -8.2  33938  285.81 0863.28
2015 04 09 12 33 25 .58    -357     50    -52    361    365 278.0  -8.2  33916  285.45 0863.28
2015 04 09 12 33 25 .84    -278     49    -48    283    288 280.1  -9.8  33926  285.62 0863.27
2015 04 09 12 33 26 .08    -235    -21    -18    236    237 264.8  -4.4  33956  286.11 0863.27
2015 04 09 12 33 26 .33     -94     44     20    104    107 295.2  11.1  33976  286.47 0863.27
2015 04 09 12 33 26 .58    -159     41     -6    165    166 284.6  -2.2  33994  286.78 0863.27
2015 04 09 12 33 26 .83    -204     76    -28    218    220 290.4  -7.3  33984  286.59 0863.27
2015 04 09 12 33 27 .09    -310    127    -44    336    339 292.3  -7.5  33980  286.54 0863.27
2015 04 09 12 33 27 .34    -178      4     21    179    181 271.5   6.9  34006  286.96 0863.27
2015 04 09 12 33 27 .59    -137     29     -4    141    142 281.9  -1.8  34014  287.10 0863.26
2015 04 09 12 33 27 .84     -93     51     12    107    108 298.9   6.5  34016  287.13 0863.26
2015 04 09 12 33 28 .08    -247     70    -49    257    262 285.9 -10.9  34006  286.95 0863.26
2015 04 09 12 33 28 .34    -245     95    -28    264    266 291.3  -6.1  34036  287.48 0863.26
2015 04 09 12 33 28 .59    -193    -26    -12    195    196 262.1  -3.7  34050  287.70 0863.26
2015 04 09 12 33 28 .84     -86    -24     15     90     92 254.1   9.5  34062  287.91 0863.26
2015 04 09 12 33 29 .09    -108     25      5    111    112 283.3   2.9  34076  288.14 0863.26
2015 04 09 12 33 29 .34    -278     89    -16    292    293 287.8  -3.2  33990  286.68 0863.26
2015 04 09 12 33 29 .59    -287      4    -11    288    289 270.8  -2.2  34014  287.09 0863.26
2015 04 09 12 33 29 .84    -386      0    -27    387    388 270.0  -4.1  34062  287.91 0863.26
2015 04 09 12 33 30 .09    -315     53    -31    320    322 279.7  -5.6  33998  286.82 0863.26
2015 04 09 12 33 30 .34    -433     61    -42    438    441 278.1  -5.6  33994  286.77 0863.26
2015 04 09 12 33 30 .60    -410     25    -90    411    421 273.6 -12.4  33902  285.22 0863.26
2015 04 09 12 33 30 .85    -420     54    -64    424    429 277.4  -8.7  33944  285.93 0863.26
2015 04 09 12 33 31 .11    -454     49    -72    457    463 276.2  -9.0  33892  285.05 0863.26
2015 04 09 12 33 31 .36    -424     34    -78    426    434 274.7 -10.4  33892  285.04 0863.26
2015 04 09 12 33 31 .61    -359     56    -74    364    372 279.0 -11.5  33926  285.62 0863.26
2015 04 09 12 33 31 .85    -388     78    -42    396    399 281.4  -6.1  33970  286.36 0863.26
2015 04 09 12 33 32 .11    -399     86    -32    409    411 282.2  -4.6  33908  285.32 0863.26
2015 04 09 12 33 32 .36    -420     27    -54    421    425 273.7  -7.3  33926  285.61 0863.26
2015 04 09 12 33 32 .60    -423     54    -20    427    428 277.4  -2.8  33942  285.90 0863.26
2015 04 09 12 33 32 .86    -402     39    -37    404    406 275.7  -5.4  33916  285.44 0863.26
2015 04 09 12 33 33 .11    -397     29    -21    399    400 274.3  -3.1  33908  285.33 0863.26
2015 04 09 12 33 33 .36    -354     12    -19    355    356 272.0  -3.2  33904  285.26 0863.26
2015 04 09 12 33 33 .61    -394    -30    -28    396    397 265.6  -4.1  33912  285.38 0863.26
2015 04 09 12 33 33 .86    -288      0    -34    289    292 270.0  -6.9  33908  285.32 0863.26
2015 04 09 12 33 34 .61    -434      4    -46    435    438 270.6  -6.1  33896  285.10 0863.26
2015 04 09 12 33 34 .86    -328     14     23    329    330 272.6   4.0  33908  285.31 0863.26
2015 04 09 12 33 35 .12    -406     34    -18    408    409 274.8  -2.6  33900  285.17 0863.26
2015 04 09 12 33 35 .36    -416     17    -79    417    425 272.4 -10.8  33900  285.19 0863.26
2015 04 09 12 33 35 .61    -446     34    -81    448    456 274.4 -10.3  33896  285.10 0863.26
2015 04 09 12 33 35 .87    -332    -22    -28    333    335 266.1  -4.8  33908  285.30 0863.26
2015 04 09 12 33 36 .12    -222     54    -37    229    233 283.7  -9.3  33948  285.98 0863.26
2015 04 09 12 33 36 .36    -438     66    -45    443    446 278.6  -5.9  33932  285.71 0863.26
2015 04 09 12 33 36 .62    -357      7    -24    358    359 271.3  -3.9  33930  285.67 0863.26
2015 04 09 12 33 36 .87    -478     50    -60    481    485 276.1  -7.2  33904  285.25 0863.26
2015 04 09 12 33 37 .12    -438     14    -29    439    440 271.9  -3.9  33910  285.34 0863.26
2015 04 09 12 33 37 .38    -357     16     10    358    359 272.7   1.6  33908  285.30 0863.26
2015 04 09 12 33 37 .63    -491     22    -99    492    502 272.6 -11.5  33884  284.91 0863.26
2015 04 09 12 33 37 .88    -499     32    -82    500    507 273.7  -9.3  33884  284.90 0863.26
2015 04 09 12 33 38 .13    -456     -7    -78    457    464 269.0  -9.7  33906  285.27 0863.26
2015 04 09 12 33 38 .38    -393    -26    -78    394    402 266.1 -11.3  33900  285.18 0863.26
2015 04 09 12 33 38 .63    -342    -26    -48    343    347 265.6  -8.1  33908  285.31 0863.26
2015 04 09 12 33 38 .88    -409      3    -43    410    413 270.5  -6.1  33894  285.09 0863.26
2015 04 09 12 33 39 .13    -349    -56    -71    354    362 260.8 -11.3  33900  285.18 0863.26
2015 04 09 12 33 39 .38    -350   -116    -64    369    375 251.6  -9.9  33892  285.04 0863.26
2015 04 09 12 33 39 .63    -307    -42    -21    310    311 262.1  -4.0  33888  284.97 0863.26
2015 04 09 12 33 39 .88    -446    -34   -130    448    467 265.5 -16.2  33886  284.95 0863.26
2015 04 09 12 33 40 .14    -452    -35   -109    454    467 265.5 -13.6  33886  284.94 0863.26
2015 04 09 12 33 40 .39    -504      0    -91    505    514 270.0 -10.3  33886  284.96 0863.26
2015 04 09 12 33 40 .63    -498     -7   -108    499    511 269.2 -12.3  33892  285.03 0863.26
2015 04 09 12 33 40 .89    -460     -2    -83    461    469 269.6 -10.2  33896  285.11 0863.26
2015 04 09 12 33 41 .14    -444     -2    -89    445    454 269.7 -11.3  33888  284.99 0863.26
2015 04 09 12 33 41 .39    -414      0    -84    415    424 270.0 -11.5  33892  285.05 0863.26
2015 04 09 12 33 41 .64    -365     15    -53    366    370 272.5  -8.4  33894  285.09 0863.26
2015 04 09 12 33 41 .89    -352     34    -61    354    360 275.6  -9.9  33894  285.09 0863.26
2015 04 09 12 33 42 .14    -445     -2    -93    446    456 269.7 -11.9  33892  285.05 0863.26
2015 04 09 12 33 42 .39    -457     -6    -79    458    465 269.2  -9.9  33886  284.94 0863.26
2015 04 09 12 33 42 .64    -403     -9    -58    404    409 268.6  -8.3  33896  285.10 0863.26
2015 04 09 12 33 42 .89    -409     15    -67    410    416 272.1  -9.4  33890  285.02 0863.26
2015 04 09 12 33 43 .14    -403     18    -74    404    411 272.6 -10.5  33902  285.21 0863.26
2015 04 09 12 33 43 .39    -412     45    -72    415    422 276.3  -9.9  33932  285.71 0863.26
2015 04 09 12 33 43 .64    -359     15    -62    360    366 272.5  -9.9  33940  285.84 0863.26
2015 04 09 12 33 43 .89    -320    -61    -41    326    329 259.2  -7.2  33924  285.57 0863.26
2015 04 09 12 33 44 .15    -280    -43    -51    284    289 261.2 -10.3  33916  285.44 0863.26
2015 04 09 12 33 44 .40    -184    -25     -4    186    187 262.1  -1.3  33930  285.68 0863.26
2015 04 09 12 33 44 .66    -278    -47    -77    283    294 260.3 -15.2  33932  285.71 0863.26
2015 04 09 12 33 44 .90    -146    -69    -11    162    163 244.8  -4.1  33958  286.15 0863.27
2015 04 09 12 33 45 .16    -290    -25    -23    292    293 265.0  -4.6  33952  286.04 0863.27
2015 04 09 12 33 45 .40    -295     22    -38    296    299 274.3  -7.3  33896  285.12 0863.27
2015 04 09 12 33 45 .66    -294    -40    -69    297    305 262.1 -13.2  33918  285.47 0863.27
2015 04 09 12 33 45 .91    -207    -15    -41    208    213 265.6 -11.3  33938  285.82 0863.27
2015 04 09 12 33 46 .16    -204    -24    -48    206    212 263.2 -13.2  33994  286.76 0863.27
2015 04 09 12 33 46 .41    -189    -36      1    193    194 259.0   0.5  33986  286.62 0863.27
2015 04 09 12 33 46 .66    -139    -16     10    140    141 263.4   4.4  33978  286.51 0863.27
2015 04 09 12 33 46 .91    -227   -129    -14    262    263 240.5  -3.1  33968  286.31 0863.27
2015 04 09 12 33 47 .16    -140     -7    -35    141    146 267.0 -13.9  33966  286.30 0863.27
2015 04 09 12 33 47 .41    -312    -40    -66    315    322 262.5 -11.9  33920  285.51 0863.27
2015 04 09 12 33 47 .66    -158    -21    -31    160    164 262.3 -11.1  33936  285.80 0863.27
2015 04 09 12 33 47 .91    -173     24    -31    175    178 277.9 -10.3  33932  285.73 0863.27
2015 04 09 12 33 48 .16    -292    -31    -48    294    299 263.8  -9.3  33920  285.52 0863.27
2015 04 09 12 33 48 .41    -319    -43    -75    322    331 262.2 -13.1  33908  285.32 0863.27
2015 04 09 12 33 48 .66    -297    -10    -47    298    302 267.9  -9.0  33900  285.17 0863.27
2015 04 09 12 33 48 .91    -367      3    -34    368    370 270.5  -5.3  33892  285.04 0863.27
2015 04 09 12 33 49 .17    -357    -28    -45    359    362 265.5  -7.2  33888  284.98 0863.27
2015 04 09 12 33 49 .42    -329      0    -21    330    331 270.0  -3.8  33894  285.09 0863.27
2015 04 09 12 33 49 .66    -381     27    -76    382    390 274.1 -11.3  33884  284.91 0863.27
2015 04 09 12 33 49 .92    -398     14    -72    399    406 272.1 -10.3  33888  284.97 0863.27
2015 04 09 12 33 50 .17    -363      3    -50    364    368 270.6  -7.9  33886  284.96 0863.27
2015 04 09 12 33 50 .42    -385      6    -49    386    390 270.9  -7.4  33886  284.94 0863.26
2015 04 09 12 33 50 .67    -346     35    -44    348    351 275.9  -7.4  33886  284.96 0863.26
2015 04 09 12 33 50 .92    -360     42    -51    363    367 276.8  -8.1  33888  284.98 0863.26
2015 04 09 12 33 51 .17    -373     44    -64    376    382 276.8  -9.8  33886  284.96 0863.26
2015 04 09 12 33 51 .43    -368     30    -60    370    376 274.7  -9.3  33886  284.94 0863.26
2015 04 09 12 33 51 .68    -383     45    -79    386    395 276.8 -11.6  33888  284.99 0863.26
2015 04 09 12 33 51 .93    -372     51    -67    376    382 277.8 -10.1  33896  285.11 0863.26
2015 04 09 12 33 52 .18    -313     63    -42    320    323 281.5  -7.6  33932  285.71 0863.26
2015 04 09 12 33 52 .44    -317     66    -25    324    326 281.9  -4.5  33944  285.91 0863.27
2015 04 09 12 33 52 .68    -285      4    -18    286    287 270.8  -3.7  33932  285.72 0863.27
2015 04 09 12 33 52 .93    -324     30    -64    326    333 275.4 -11.2  33890  285.01 0863.27
2015 04 09 12 33 53 .18    -332     47    -55    336    341 278.1  -9.3  33890  285.01 0863.27
2015 04 09 12 33 53 .44    -332     16    -54    333    338 272.8  -9.3  33898  285.16 0863.27
2015 04 09 12 33 53 .69    -302      6    -35    303    306 271.3  -6.7  33914  285.42 0863.27
2015 04 09 12 33 53 .94    -311     19    -74    312    321 273.5 -13.4  33886  284.95 0863.27
2015 04 09 12 33 54 .19    -314     42    -12    317    318 277.7  -2.3  33914  285.40 0863.27
2015 04 09 12 33 54 .44    -318     35    -58    320    326 276.4 -10.4  33898  285.14 0863.27
2015 04 09 12 33 54 .69    -298    -13    -37    299    302 267.4  -7.2  33900  285.17 0863.27
2015 04 09 12 33 54 .94    -323     23    -52    324    329 274.1  -9.1  33898  285.14 0863.27
2015 04 09 12 33 55 .19    -308     23    -60    309    315 274.3 -11.0  33898  285.15 0863.27
2015 04 09 12 33 55 .44    -308     42    -69    311    319 277.9 -12.5  33896  285.10 0863.27
2015 04 09 12 33 55 .69    -304     16    -47    305    309 273.0  -8.8  33896  285.12 0863.27
2015 04 09 12 33 55 .94    -314     34    -53    316    321 276.2  -9.6  33910  285.35 0863.27
2015 04 09 12 33 56 .19    -278     21    -45    279    283 274.4  -9.3  33916  285.44 0863.27
2015 04 09 12 33 56 .44    -213     77    -29    227    229 289.9  -7.3  33922  285.56 0863.27
2015 04 09 12 33 56 .69    -194     19     -7    195    196 275.7  -2.2  33938  285.82 0863.27
2015 04 09 12 33 56 .94    -276     74    -37    286    289 285.0  -7.5  33928  285.64 0863.28
2015 04 09 12 33 57 .19    -252     48    -23    257    259 280.8  -5.2  33926  285.62 0863.28
2015 04 09 12 33 57 .44    -306     42    -39    309    312 277.9  -7.2  33910  285.35 0863.28
2015 04 09 12 33 57 .70    -318     50    -37    322    325 279.0  -6.7  33898  285.14 0863.28
2015 04 09 12 33 57 .95    -338     55    -39    343    346 279.4  -6.6  33894  285.09 0863.28
2015 04 09 12 33 58 .21    -254     68    -10    264    265 285.1  -2.3  33922  285.56 0863.28
2015 04 09 12 33 58 .46    -337     63    -44    344    347 280.7  -7.4  33892  285.06 0863.28
2015 04 09 12 33 58 .71    -332     67    -31    339    341 281.5  -5.3  33892  285.06 0863.28
2015 04 09 12 33 58 .96    -342     35    -59    344    350 275.9  -9.8  33890  285.01 0863.28
2015 04 09 12 33 59 .21    -308     72    -58    317    323 283.2 -10.5  33902  285.20 0863.28
2015 04 09 12 33 59 .46    -332     47    -55    336    341 278.1  -9.3  33918  285.48 0863.28
2015 04 09 12 33 59 .71    -297     31    -37    299    302 276.1  -7.2  33940  285.86 0863.29
2015 04 09 12 33 59 .96    -279     27    -47    281    286 275.7  -9.6  33958  286.16 0863.29
2015 04 09 12 34 00 .21    -302    -13    -38    303    306 267.5  -7.3  33944  285.93 0863.29
2015 04 09 12 34 00 .46    -282     48    -63    287    294 279.7 -12.4  33930  285.69 0863.29
2015 04 09 12 34 00 .71    -279     64    -32    287    289 283.0  -6.5  33910  285.34 0863.29
2015 04 09 12 34 00 .96    -280     17    -30    281    283 273.5  -6.2  33904  285.24 0863.29
2015 04 09 12 34 01 .21    -250      0    -50    251    257 270.0 -11.3  33916  285.45 0863.29
2015 04 09 12 34 01 .46    -245     11    -35    246    249 272.6  -8.2  33930  285.67 0863.28
2015 04 09 12 34 01 .71    -253     39    -30    256    258 278.8  -6.9  33934  285.76 0863.28
2015 04 09 12 34 01 .97    -202     15    -33    203    206 274.4  -9.3  33950  286.02 0863.28
2015 04 09 12 34 02 .21     -62     22     26     67     71 290.0  22.0  33976  286.47 0863.28
2015 04 09 12 34 02 .47     -56      8     38     57     68 278.8  35.6  34000  286.86 0863.28
2015 04 09 12 34 02 .72     -95     19     26     97    101 281.4  15.2  34030  287.38 0863.28
2015 04 09 12 34 02 .96    -146     -8     21    147    149 266.5   8.5  33966  286.29 0863.28
2015 04 09 12 34 03 .22    -247    -17    -13    248    249 265.9  -3.2  33904  285.24 0863.28
2015 04 09 12 34 03 .47    -277      7    -65    278    286 271.5 -13.3  33884  284.92 0863.28
2015 04 09 12 34 03 .72    -276     -2    -55    277    283 269.4 -11.3  33888  284.97 0863.28
2015 04 09 12 34 03 .97    -261    -29    -25    263    265 263.6  -5.6  33888  284.97 0863.28
2015 04 09 12 34 04 .22    -292     -9    -48    293    297 268.1  -9.4  33890  285.00 0863.28
2015 04 09 12 34 04 .47    -258    -19    -18    259    260 265.6  -4.1  33894  285.08 0863.28
2015 04 09 12 34 04 .72    -246    -16    -68    247    257 266.1 -15.5  33888  284.97 0863.28
2015 04 09 12 34 04 .97    -263    -25    -55    265    271 264.5 -11.9  33888  284.97 0863.28
2015 04 09 12 34 05 .23    -248    -13    -45    249    254 267.0 -10.3  33894  285.07 0863.28
2015 04 09 12 34 05 .48    -257    -28    -47    259    264 263.8 -10.4  33890  285.00 0863.28
2015 04 09 12 34 05 .73    -217     -3    -74    218    231 269.2 -18.9  33890  285.02 0863.28
2015 04 09 12 34 05 .98    -213    -16    -76    214    228 265.6 -19.6  33892  285.04 0863.28
2015 04 09 12 34 06 .23    -222      3    -65    223    232 270.8 -21.2  33884  284.92 0863.28
2015 04 09 12 34 06 .48    -200    -14    -72    201    214 265.9 -19.7  33890  285.01 0863.28
2015 04 09 12 34 06 .73    -205    -15    -66    206    217 265.6 -17.9  33890  285.01 0863.28
2015 04 09 12 34 06 .98    -213    -20    -59    215    224 264.5 -15.5  33888  284.97 0863.28
2015 04 09 12 34 07 .23    -223    -31    -49    226    232 262.1 -12.4  33892  285.06 0863.28
2015 04 09 12 34 07 .49    -213    -20    -59    215    224 264.5 -15.5  33898  285.14 0863.28
2015 04 09 12 34 07 .74    -228    -19    -34    229    232 265.2  -8.6  33900  285.18 0863.28
2015 04 09 12 34 07 .99    -228    -13    -35    229    232 266.7  -8.8  33906  285.28 0863.28
2015 04 09 12 34 08 .24    -150     16     10    151    152 276.2   3.8  33924  285.58 0863.28
2015 04 09 12 34 08 .49    -119     46    -35    128    133 291.3 -15.5  33924  285.58 0863.28
2015 04 09 12 34 08 .74    -168    -20    -26    170    172 263.0  -8.8  33896  285.11 0863.28
2015 04 09 12 34 09 .00    -177      1    -42    178    184 270.4 -13.4  33912  285.38 0863.28
2015 04 09 12 34 09 .24    -156     -2     -4    157    158 269.2  -1.6  33938  285.83 0863.28
2015 04 09 12 34 09 .49    -179     20    -32    181    184 276.4 -10.1  33918  285.48 0863.29
2015 04 09 12 34 09 .74    -134     32    -42    138    144 283.7 -22.3  33898  285.14 0863.29
2015 04 09 12 34 09 .99    -157     40    -32    163    167 284.4 -11.1  33902  285.23 0863.29
2015 04 09 12 34 10 .24    -146     34    -34    150    154 283.3 -12.9  33890  285.02 0863.29
2015 04 09 12 34 10 .49    -150     24    -41    152    158 279.2 -15.2  33892  285.06 0863.29
2015 04 09 12 34 10 .74    -140     23    -39    142    148 279.6 -15.4  33898  285.14 0863.29
2015 04 09 12 34 11 .00    -109     13     12    110    111 277.0   6.5  33912  285.39 0863.29
2015 04 09 12 34 11 .24    -113     -8     -7    114    115 265.7  -3.7  33910  285.34 0863.29
2015 04 09 12 34 11 .49    -148     -4    -28    149    152 268.3 -10.9  33894  285.09 0863.28
2015 04 09 12 34 11 .75    -177    -13    -30    178    181 265.7  -9.6  33900  285.19 0863.28
2015 04 09 12 34 12 .00    -121    -12    -28    122    126 263.9 -12.9  33926  285.61 0863.28
2015 04 09 12 34 12 .26    -111    -29     -5    115    116 255.4  -2.6  33952  286.07 0863.28
2015 04 09 12 34 12 .51    -162      0    -44    163    169 270.0 -15.2  33976  286.46 0863.28
2015 04 09 12 34 12 .76    -152      0      3    153    154 269.6   1.2  34050  287.70 0863.28
2015 04 09 12 34 13 .01    -126    -13     -4    127    128 263.9  -2.2  34052  287.76 0863.28
2015 04 09 12 34 13 .26     -80      1     30     81     86 270.8  20.4  34052  287.76 0863.28
2015 04 09 12 34 13 .51    -114    -45      6    123    124 248.3   2.9  34046  287.64 0863.28
2015 04 09 12 34 13 .76    -128     12      6    129    130 275.7   2.9  34072  288.09 0863.28
2015 04 09 12 34 14 .01    -132    -12      8    133    134 264.8   3.8  34044  287.62 0863.28
2015 04 09 12 34 14 .26     -36     45     45     58     73 321.3  42.7  34044  287.62 0863.28
2015 04 09 12 34 14 .51     -34    -48     -3     59     60 215.2  -3.1  33984  286.59 0863.28
2015 04 09 12 34 14 .76    -152    -69    -48    168    175 245.4 -16.0  33934  285.75 0863.28
2015 04 09 12 34 15 .02     -87    -37    -19     95     97 246.5 -11.3  33940  285.85 0863.28
2015 04 09 12 34 15 .27    -152    -30     -6    156    157 258.6  -2.3  33950  286.02 0863.28
2015 04 09 12 34 15 .51    -151    -60    -23    163    165 248.3  -8.2  33948  285.98 0863.28
2015 04 09 12 34 15 .76    -158    -56    -37    168    173 250.3 -12.6  33952  286.07 0863.28
2015 04 09 12 34 16 .02    -149    -28    -29    152    155 259.0 -10.9  33954  286.08 0863.28
2015 04 09 12 34 16 .26    -165    -56    -27    175    178 251.2  -9.0  33962  286.22 0863.28
2015 04 09 12 34 16 .51    -155    -80    -48    175    182 242.5 -15.4  33942  285.90 0863.28
2015 04 09 12 34 16 .77    -133    -91    -33    162    166 235.4 -11.6  33906  285.28 0863.28
2015 04 09 12 34 17 .01    -140   -100    -25    173    175 234.5  -8.2  33908  285.33 0863.28
2015 04 09 12 34 17 .27    -141    -96    -40    171    176 235.6 -13.2  33900  285.19 0863.28
2015 04 09 12 34 17 .52    -153   -129    -14    201    202 229.8  -4.1  33902  285.21 0863.28
2015 04 09 12 34 17 .77    -152   -129      0    200    201 229.6   0.0  33936  285.80 0863.28
2015 04 09 12 34 18 .02    -150   -119     -5    192    193 231.4  -1.6  33892  285.06 0863.28
2015 04 09 12 34 18 .27    -150   -119     -5    192    193 231.4  -1.6  33892  285.06 0863.28
2015 04 09 12 34 18 .52    -147   -133    -11    199    200 227.8  -3.2  33888  284.99 0863.28
2015 04 09 12 34 18 .77    -134   -118     -9    179    180 228.7  -3.1  33890  285.02 0863.28
2015 04 09 12 34 19 .02    -133   -120     -3    180    181 228.0  -1.2  33894  285.09 0863.28
2015 04 09 12 34 19 .28    -128   -153    -11    200    201 219.9  -3.2  33900  285.19 0863.28
2015 04 09 12 34 19 .53    -121   -147     -4    191    192 219.6  -1.3  33902  285.21 0863.27
2015 04 09 12 34 19 .78     -99   -120     -8    156    157 219.7  -3.1  33898  285.14 0863.27
2015 04 09 12 34 20 .03     -54   -130    -11    141    142 202.7  -4.6  33902  285.21 0863.27
2015 04 09 12 34 20 .29     -68   -141     14    157    158 205.9   5.2  33898  285.14 0863.27
2015 04 09 12 34 20 .54     -93   -112     19    146    148 219.6   7.5  33906  285.29 0863.26
2015 04 09 12 34 20 .79     -42   -107     -6    116    117 201.4  -3.1  33910  285.36 0863.26
2015 04 09 12 34 21 .04     -53   -145      1    155    156 200.1   0.5  33912  285.38 0863.26
2015 04 09 12 34 21 .29     -31   -147     17    151    152 192.0   6.5  33908  285.33 0863.26
2015 04 09 12 34 21 .54     -33   -163    -12    167    168 191.6  -4.4  33914  285.43 0863.26
2015 04 09 12 34 21 .79     -61   -143    -27    156    159 203.2 -10.1  33918  285.48 0863.26
2015 04 09 12 34 22 .04     -83   -171    -29    191    194 205.9  -8.8  33914  285.43 0863.26
2015 04 09 12 34 22 .29     -11   -176    -23    177    179 183.6  -7.7  33914  285.41 0863.26
2015 04 09 12 34 22 .54     -54   -162    -53    171    180 198.5 -17.3  33914  285.41 0863.26
2015 04 09 12 34 22 .79     -36   -152    -48    157    164 193.4 -22.1  33910  285.34 0863.26
2015 04 09 12 34 23 .04     -49   -136    -60    145    156 200.1 -28.2  33910  285.34 0863.26
2015 04 09 12 34 23 .29     -27   -150    -51    153    162 190.2 -18.7  33914  285.41 0863.26
2015 04 09 12 34 23 .54     -52   -154    -54    163    172 198.7 -18.3  33912  285.38 0863.26
2015 04 09 12 34 23 .79     -57    -92    -34    109    114 211.6 -23.3  33910  285.34 0863.26
2015 04 09 12 34 24 .04     -51    -92    -37    106    112 209.0 -23.3  33908  285.31 0863.26
2015 04 09 12 34 24 .29     -53    -85    -30    101    106 212.1 -17.0  33910  285.36 0863.26
2015 04 09 12 34 24 .54     -42    -84    -28     95     99 206.7 -21.2  33908  285.31 0863.26
2015 04 09 12 34 24 .79     -36    -88    -28     96    100 202.3 -21.2  33908  285.33 0863.26
2015 04 09 12 34 25 .04     -42    -89      5     99    100 205.4   2.9  33920  285.51 0863.25
2015 04 09 12 34 25 .30     -34    -97     45    104    113 199.6  24.6  33916  285.44 0863.25
2015 04 09 12 34 25 .55     -40    -88     67     97    117 204.5  38.0  33928  285.66 0863.25
2015 04 09 12 34 25 .80     -38   -116     68    123    140 198.5  31.4  33936  285.80 0863.25
2015 04 09 12 34 26 .06     -44   -121     62    129    143 200.0  27.2  33938  285.82 0863.25
2015 04 09 12 34 26 .31     -37   -113     51    120    130 198.3  24.6  33934  285.75 0863.25
2015 04 09 12 34 26 .56     -55   -106     29    120    124 207.6  13.7  33944  285.93 0863.25
2015 04 09 12 34 26 .81     -83   -114     59    142    153 216.1  23.1  33940  285.85 0863.25
2015 04 09 12 34 27 .06     -39   -148     82    154    174 195.1  30.3  33980  286.54 0863.25
2015 04 09 12 34 27 .31     -78   -174     61    191    201 204.3  17.9  33942  285.88 0863.25
2015 04 09 12 34 27 .56     -78   -201     46    216    221 201.2  12.2  33928  285.66 0863.25
2015 04 09 12 34 27 .81     -66   -223     82    233    247 196.7  20.0  33956  286.13 0863.25
2015 04 09 12 34 28 .06     -98   -233     81    253    266 202.8  17.9  33932  285.71 0863.25
2015 04 09 12 34 28 .31     -53   -239    -78    246    259 192.7 -17.6  33918  285.49 0863.25
2015 04 09 12 34 28 .56       2   -151    -94    152    178 179.0 -39.4  33920  285.53 0863.24
2015 04 09 12 34 28 .82      -8    -55     39     56     68 188.9  38.6  33926  285.63 0863.24
2015 04 09 12 34 29 .06      -6    -70    -19     71     74 185.3 -15.5  33924  285.58 0863.24
2015 04 09 12 34 29 .32     -34    -80    -19     88     91 203.2 -12.4  33920  285.53 0863.24
2015 04 09 12 34 29 .57     -33   -123     10    128    129 195.2   4.9  33922  285.56 0863.24
2015 04 09 12 34 29 .82     -26   -171     46    174    181 188.9  15.0  33940  285.85 0863.24
2015 04 09 12 34 30 .07     -33   -218     64    221    231 188.7  16.3  33922  285.55 0863.24
2015 04 09 12 34 30 .32     -71   -233     32    244    247 196.9   7.5  33928  285.66 0863.24
2015 04 09 12 34 30 .57     -81   -184     56    202    210 203.8  15.6  33938  285.83 0863.24
2015 04 09 12 34 30 .82     -51   -223     60    229    237 193.1  14.7  33942  285.89 0863.24
2015 04 09 12 34 31 .07     -92   -201     59    222    230 204.7  15.0  33924  285.58 0863.24
2015 04 09 12 34 31 .32    -148   -165     89    223    240 221.9  23.0  33954  286.09 0863.24
2015 04 09 12 34 31 .57    -137   -149     74    203    216 222.5  20.9  33954  286.08 0863.24
2015 04 09 12 34 31 .82    -106   -190      1    218    219 209.2   0.5  33926  285.61 0863.24
2015 04 09 12 34 32 .08    -103   -187     22    214    216 208.9   5.9  33928  285.66 0863.24
2015 04 09 12 34 32 .32    -102   -186     82    213    228 208.7  22.0  33928  285.65 0863.24
2015 04 09 12 34 32 .57    -143   -185    -13    234    235 217.8  -3.2  33920  285.52 0863.24
2015 04 09 12 34 32 .82    -108   -191     36    220    224 209.6   9.3  33926  285.61 0863.24
2015 04 09 12 34 33 .08    -125   -207     37    242    245 211.2   8.8  33932  285.72 0863.24
2015 04 09 12 34 33 .34    -150   -229     42    274    278 213.2   8.8  33922  285.54 0863.24
2015 04 09 12 34 33 .59    -147   -184     11    236    237 218.7   2.8  33924  285.57 0863.24
2015 04 09 12 34 33 .84    -128   -156     -7    203    204 219.4  -2.2  33920  285.53 0863.24
2015 04 09 12 34 34 .09    -116   -147      0    188    189 218.1   0.0  33920  285.53 0863.24
2015 04 09 12 34 34 .34    -121   -132    -25    180    182 222.5  -8.0  33916  285.46 0863.24
2015 04 09 12 34 34 .59    -146   -146    -26    207    209 225.1  -7.2  33918  285.48 0863.24
2015 04 09 12 34 34 .84    -124   -135    -13    184    185 222.5  -4.1  33922  285.55 0863.25
2015 04 09 12 34 35 .09    -126   -148    -25    195    197 220.3  -7.3  33924  285.60 0863.25
2015 04 09 12 34 35 .34    -126   -109    -30    167    170 229.1 -10.3  33916  285.46 0863.25
2015 04 09 12 34 35 .59    -121   -120      1    171    172 225.3   0.5  33920  285.53 0863.25
2015 04 09 12 34 35 .84    -135   -111     -3    175    176 230.5  -1.3  33920  285.53 0863.25
2015 04 09 12 34 36 .09    -113   -105     -3    155    156 226.9  -1.3  33920  285.53 0863.25
2015 04 09 12 34 36 .34    -101   -137     22    171    173 216.3   7.5  33922  285.56 0863.25
2015 04 09 12 34 36 .59    -119   -144     -3    187    188 219.6  -1.1  33936  285.78 0863.25
2015 04 09 12 34 36 .85    -110   -138      0    177    178 218.7   0.0  33946  285.95 0863.24
2015 04 09 12 34 37 .09    -161   -126     29    205    208 231.8   8.2  33934  285.75 0863.24
2015 04 09 12 34 37 .34    -144   -125    -53    191    199 229.1 -15.5  33926  285.61 0863.24
2015 04 09 12 34 37 .59    -167    -91    -58    191    200 241.4 -17.0  33920  285.53 0863.24
2015 04 09 12 34 37 .85    -187    -62    -58    198    207 251.6 -16.4  33924  285.58 0863.24
2015 04 09 12 34 38 .10    -163    -43    -80    169    186 255.2 -31.5  33924  285.58 0863.24
2015 04 09 12 34 38 .35    -182    -46    -67    188    199 255.6 -24.8  33922  285.55 0863.24
2015 04 09 12 34 38 .60    -139    -55    -63    150    162 248.3 -28.2  33924  285.58 0863.24
2015 04 09 12 34 38 .85    -146   -104    -21    180    182 234.5  -6.9  33940  285.85 0863.24
2015 04 09 12 34 39 .10    -154   -124      7    198    199 231.1   2.1  33944  285.93 0863.24
2015 04 09 12 34 39 .35    -110   -119      8    163    164 222.8   3.1  33954  286.10 0863.24
2015 04 09 12 34 39 .60     -86   -104     56    136    147 219.6  23.1  33968  286.32 0863.24
2015 04 09 12 34 39 .85    -100    -70      0    123    124 234.9   0.2  33938  285.82 0863.24
2015 04 09 12 34 40 .11    -136    -77    -23    157    159 240.2  -8.6  33940  285.87 0863.24
2015 04 09 12 34 40 .36    -134    -27    -22    137    139 258.5  -9.3  33934  285.75 0863.24
2015 04 09 12 34 40 .61    -129    -49    -22    138    140 249.2  -9.3  33930  285.70 0863.24
2015 04 09 12 34 40 .86    -128    -34    -50    133    142 255.0 -25.4  33926  285.63 0863.24
2015 04 09 12 34 41 .11    -104    -16    -30    106    111 261.2 -16.0  33926  285.61 0863.24
2015 04 09 12 34 41 .36    -124    -12    -32    125    130 264.3 -14.5  33928  285.66 0863.24
2015 04 09 12 34 41 .61    -172    -16    -15    173    174 264.5  -5.2  33934  285.76 0863.24
2015 04 09 12 34 41 .87    -158    -16    -41    159    165 264.1 -14.7  33934  285.75 0863.24
2015 04 09 12 34 42 .11    -169      8    -20    170    172 273.0  -6.9  33944  285.93 0863.24
2015 04 09 12 34 42 .37    -169     20    -29    171    174 276.8  -9.8  33942  285.88 0863.24
2015 04 09 12 34 42 .62    -126    -13      0    127    128 263.9   0.2  33946  285.97 0863.24
2015 04 09 12 34 42 .87     -80    -33     24     87     91 247.4  15.3  33956  286.12 0863.24
2015 04 09 12 34 43 .12     -75    -15    -11     77     78 258.5  -8.2  33966  286.29 0863.24
2015 04 09 12 34 43 .37     -78     -6     26     79     84 265.6  18.4  33990  286.69 0863.24
2015 04 09 12 34 43 .62     -42     13     36     45     57 287.7  43.7  33984  286.61 0863.24
2015 04 09 12 34 43 .87    -103    -21    -22    106    109 258.5 -11.9  33956  286.14 0863.24
2015 04 09 12 34 44 .12     -83     -7     11     84     85 264.8   7.5  33982  286.56 0863.24
2015 04 09 12 34 44 .37     -30    -12     32     33     45 248.3  50.0  34000  286.86 0863.24
2015 04 09 12 34 44 .62    -203     22     -8    205    206 276.2  -2.2  33970  286.37 0863.24
2015 04 09 12 34 44 .87    -188     -4    -45    189    195 268.7 -13.4  33976  286.46 0863.24
2015 04 09 12 34 45 .12    -161     -9      0    162    163 266.5  -0.3  33982  286.56 0863.24
2015 04 09 12 34 45 .37    -206     28    -49    208    214 277.9 -13.3  33978  286.49 0863.24
2015 04 09 12 34 45 .62    -215     -9    -16    216    217 267.5  -4.4  33988  286.67 0863.24
2015 04 09 12 34 45 .87    -169    -50    -17    177    178 253.4  -5.6  33984  286.59 0863.24
2015 04 09 12 34 46 .13    -126    -86     13    153    154 235.8   4.9  34010  287.05 0863.24
2015 04 09 12 34 46 .37    -140    -62     -8    154    155 246.0  -3.2  34000  286.88 0863.24
2015 04 09 12 34 46 .63    -139    -51    -36    149    154 250.0 -13.7  34018  287.16 0863.24
2015 04 09 12 34 46 .89    -153    -16    -23    154    156 263.9  -8.8  34010  287.03 0863.24
2015 04 09 12 34 47 .14     -82    -95     17    126    128 221.0   8.0  34030  287.38 0863.24
2015 04 09 12 34 47 .39    -143     -2    -18    144    146 269.2  -7.2  34070  288.06 0863.24
2015 04 09 12 34 47 .64     -19     23     13     31     33 320.3  23.0  34074  288.11 0863.24
2015 04 09 12 34 47 .89    -298     20    -39    299    302 273.9  -7.5  34072  288.09 0863.24
2015 04 09 12 34 48 .14    -259     59    -74    266    276 283.0 -20.2  34006  286.95 0863.24
2015 04 09 12 34 48 .39    -280    -10    -35    281    284 267.9  -7.2  34048  287.66 0863.24
2015 04 09 12 34 48 .64    -260    -41      9    264    265 261.0   2.1  34034  287.44 0863.24
2015 04 09 12 34 48 .89    -339    -32    -75    341    350 264.5 -12.5  33908  285.33 0863.24
2015 04 09 12 34 49 .14    -308    -32    -76    310    320 263.9 -13.9  33918  285.49 0863.24
2015 04 09 12 34 49 .39    -247    -49    -41    252    256 258.6  -9.4  33942  285.89 0863.24
2015 04 09 12 34 49 .64    -165    -66     -8    178    179 248.0  -2.6  33958  286.17 0863.24
2015 04 09 12 34 49 .90    -250    -17    -27    251    253 266.1  -6.2  33952  286.04 0863.24
2015 04 09 12 34 50 .15    -395   -136    -64    419    424 250.9  -8.8  34012  287.08 0863.24
2015 04 09 12 34 50 .40    -452     51    -40    455    457 276.5  -5.1  33998  286.82 0863.24
2015 04 09 12 34 50 .65    -410    -21    -52    411    415 267.0  -7.3  33992  286.74 0863.24
2015 04 09 12 34 50 .90    -296   -228    -10    374    375 232.4  -1.6  34048  287.67 0863.24
2015 04 09 12 34 51 .14    -426   -225    -34    482    484 242.1  -4.1  33984  286.60 0863.24
2015 04 09 12 34 51 .40    -356   -206    -26    412    413 239.9  -3.7  34062  287.90 0863.24
2015 04 09 12 34 51 .64    -303   -218    -24    374    375 234.3  -3.7  34086  288.32 0863.24
2015 04 09 12 34 51 .89    -354   -141    -27    382    383 248.3  -4.1  34000  286.86 0863.24
2015 04 09 12 34 52 .15    -383   -181    -54    424    428 244.6  -7.3  33928  285.66 0863.25
2015 04 09 12 34 52 .40    -340   -159    -44    376    379 245.0  -6.8  33928  285.65 0863.25
2015 04 09 12 34 52 .65    -347   -165    -48    385    389 244.6  -7.2  33946  285.95 0863.25
2015 04 09 12 34 52 .90    -362   -134    -49    387    391 249.7  -7.2  33958  286.16 0863.25
2015 04 09 12 34 53 .15    -398   -145    -53    424    428 250.0  -7.2  33950  286.01 0863.25
2015 04 09 12 34 53 .41    -387   -166    -37    422    424 246.7  -5.1  33958  286.15 0863.25
2015 04 09 12 34 53 .65    -413   -169    -62    447    452 247.7  -8.0  33964  286.27 0863.25
2015 04 09 12 34 53 .91    -454   -203    -53    498    501 245.9  -6.1  33972  286.41 0863.25
2015 04 09 12 34 54 .16    -441   -251    -35    508    510 240.3  -4.0  33946  285.96 0863.25
2015 04 09 12 34 54 .41    -474   -302    -13    563    564 237.5  -1.4  33972  286.40 0863.25
2015 04 09 12 34 54 .70    -493   -219    -48    540    543 246.1  -5.1  33978  286.51 0863.25
2015 04 09 12 34 54 .92    -437   -171    -72    470    476 248.6  -8.8  33914  285.43 0863.25
2015 04 09 12 34 55 .17    -377   -174    -70    416    422 245.2  -9.6  33990  286.70 0863.25
2015 04 09 12 34 55 .42    -374    -70    -37    381    383 259.4  -5.6  34000  286.86 0863.25
2015 04 09 12 34 55 .67    -208   -124     29    243    245 239.3   6.9  33988  286.67 0863.24
2015 04 09 12 34 55 .92    -263    -74    -45    274    278 254.3  -9.3  33992  286.74 0863.24
2015 04 09 12 34 56 .17    -257    -69    -14    267    268 254.9  -3.2  33998  286.82 0863.24
2015 04 09 12 34 56 .42    -398    -54    -68    402    408 262.2  -9.6  33978  286.50 0863.24
2015 04 09 12 34 56 .67    -178    -69    -39    192    197 248.7 -11.6  34000  286.88 0863.24
2015 04 09 12 34 56 .92    -172    -57      3    182    183 251.4   1.0  34030  287.37 0863.24
2015 04 09 12 34 57 .17    -363      5    -19    364    365 270.8  -3.1  34100  288.54 0863.24
2015 04 09 12 34 57 .42    -466     17    -31    467    469 272.1  -3.8  34026  287.32 0863.24
2015 04 09 12 34 57 .67    -480     12    -54    481    485 271.5  -6.5  33966  286.28 0863.23
2015 04 09 12 34 57 .92    -435     93    -68    446    452 282.2  -8.7  33928  285.66 0863.23
2015 04 09 12 34 58 .17    -394     91    -51    405    409 283.0  -7.2  33926  285.63 0863.23
2015 04 09 12 34 58 .42    -390    -32    -31    392    394 265.2  -4.6  33914  285.43 0863.23
2015 04 09 12 34 58 .67    -302    -43    -47    306    310 261.9  -8.9  33910  285.34 0863.23
2015 04 09 12 34 58 .92    -369     32    -44    371    374 275.1  -6.8  33902  285.23 0863.23
2015 04 09 12 34 59 .18    -286     29      2    288    289 275.9   0.5  33918  285.49 0863.23
2015 04 09 12 34 59 .43    -506     70    -79    511    517 277.9  -8.8  33918  285.48 0863.23
2015 04 09 12 34 59 .68    -475     58    -86    479    487 277.0 -10.2  33892  285.03 0863.23
2015 04 09 12 34 59 .93    -452     62    -61    457    462 277.9  -7.7  33898  285.16 0863.23
2015 04 09 12 35 00 .18    -367     54    -47    372    375 278.5  -7.2  33914  285.43 0863.23
2015 04 09 12 35 00 .43    -298     53     20    303    304 280.1   3.9  33954  286.08 0863.23
2015 04 09 12 35 00 .68    -436    136    -91    457    467 287.4 -11.3  33998  286.84 0863.23
2015 04 09 12 35 00 .94    -427    132    -73    447    454 287.2  -9.3  33976  286.47 0863.23
2015 04 09 12 35 01 .19    -446    134    -72    466    472 286.8  -8.8  33908  285.33 0863.23
2015 04 09 12 35 01 .44    -431    137    -70    453    459 287.7  -8.8  33888  284.99 0863.23
2015 04 09 12 35 01 .69    -427    127    -65    446    451 286.6  -8.4  33900  285.17 0863.23
2015 04 09 12 35 01 .94    -420     84    -45    429    432 281.4  -6.1  33912  285.37 0863.23
2015 04 09 12 35 02 .19    -403     82    -52    412    416 281.5  -7.3  33918  285.49 0863.23
2015 04 09 12 35 02 .45    -388     34    -49    390    394 275.1  -7.2  33940  285.85 0863.23
2015 04 09 12 35 02 .69    -310     88    -11    323    324 285.9  -2.1  33968  286.33 0863.23
2015 04 09 12 35 02 .94    -308     -4    -24    309    311 269.1  -4.5  33940  285.84 0863.23
2015 04 09 12 35 03 .19    -446     99    -98    458    469 282.6 -12.2  33900  285.18 0863.23
2015 04 09 12 35 03 .44    -462     95    -67    472    477 281.7  -8.1  33894  285.08 0863.23
2015 04 09 12 35 03 .70    -448     91    -59    458    462 281.5  -7.4  33888  284.99 0863.23
2015 04 09 12 35 03 .95    -438     74    -63    445    450 279.6  -8.1  33884  284.92 0863.23
2015 04 09 12 35 04 .20    -433     12    -79    434    442 271.6 -10.4  33890  285.00 0863.23
2015 04 09 12 35 04 .45    -429     12    -76    430    437 271.6 -10.1  33890  285.00 0863.23
2015 04 09 12 35 04 .70    -432     36    -90    434    444 274.9 -11.8  33890  285.00 0863.23
2015 04 09 12 35 04 .95    -461     32    -90    463    472 274.0 -11.1  33886  284.96 0863.23
2015 04 09 12 35 05 .20    -407     34    -70    409    416 274.8  -9.8  33890  285.02 0863.23
2015 04 09 12 35 05 .45    -400     16    -58    401    406 272.4  -8.2  33888  284.97 0863.23
2015 04 09 12 35 05 .70    -342     47    -23    346    347 277.9  -3.9  33898  285.15 0863.23
2015 04 09 12 35 05 .95    -410      2    -70    411    417 270.4  -9.7  33886  284.95 0863.23
2015 04 09 12 35 06 .20    -381     -3    -49    382    386 269.4  -7.4  33894  285.09 0863.23
2015 04 09 12 35 06 .45    -380     43    -76    383    391 276.6 -11.3  33892  285.06 0863.23
2015 04 09 12 35 06 .70    -391     29    -50    393    397 274.3  -7.3  33892  285.06 0863.23
2015 04 09 12 35 06 .95    -369     75    -34    377    379 281.5  -5.2  33888  284.99 0863.23
2015 04 09 12 35 07 .20    -328    122    -68    351    358 290.4 -11.0  33902  285.23 0863.23
2015 04 09 12 35 07 .46    -379     58    -36    384    386 278.7  -5.5  33920  285.53 0863.23
2015 04 09 12 35 07 .70    -404     89    -59    414    419 282.5  -8.2  33940  285.85 0863.23
2015 04 09 12 35 07 .96    -359     72    -48    367    371 281.4  -7.5  33908  285.30 0863.23
2015 04 09 12 35 08 .22    -313     47    -29    317    319 278.6  -5.4  33926  285.62 0863.23
2015 04 09 12 35 08 .47    -247    -49    -13    252    253 258.8  -3.1  33918  285.49 0863.24
2015 04 09 12 35 08 .72    -323     82    -35    334    336 284.3  -6.1  33906  285.28 0863.24
2015 04 09 12 35 08 .97    -310     43    -23    313    314 277.9  -4.2  33904  285.25 0863.24
2015 04 09 12 35 09 .22    -331     36    -18    333    334 276.3  -3.1  33920  285.52 0863.24
2015 04 09 12 35 09 .47    -382     63    -58    388    393 279.5  -8.6  33908  285.30 0863.24
2015 04 09 12 35 09 .72    -375     30    -48    377    381 274.7  -7.3  33904  285.25 0863.24
2015 04 09 12 35 09 .97    -338      3    -43    339    342 270.6  -7.3  33898  285.15 0863.24
2015 04 09 12 35 10 .22    -318     23    -47    319    323 274.3  -8.4  33898  285.14 0863.24
2015 04 09 12 35 10 .47    -264     20    -28    265    267 274.4  -6.2  33912  285.37 0863.24
2015 04 09 12 35 10 .72    -299     22    -40    300    303 274.4  -7.7  33916  285.45 0863.24
2015 04 09 12 35 10 .97    -355     55    -50    360    364 278.8  -8.0  33902  285.23 0863.24
2015 04 09 12 35 11 .22    -289     96    -44    305    309 288.4  -8.4  33918  285.47 0863.24
2015 04 09 12 35 11 .47    -339     57    -49    344    348 279.7  -8.1  33916  285.46 0863.24
2015 04 09 12 35 11 .73    -349     72    -50    357    361 281.8  -8.0  33930  285.70 0863.24
2015 04 09 12 35 11 .97    -266     20    -19    267    268 274.4  -4.1  33938  285.83 0863.24
2015 04 09 12 35 12 .22    -295     59    -32    301    303 281.5  -6.2  33916  285.45 0863.24
2015 04 09 12 35 12 .47    -359     39    -37    362    364 276.3  -5.9  33900  285.18 0863.24
2015 04 09 12 35 12 .73    -326     66    -46    333    337 281.6  -7.9  33896  285.13 0863.24
2015 04 09 12 35 12 .98    -307     43    -42    311    314 278.0  -7.7  33898  285.14 0863.25
2015 04 09 12 35 13 .23    -290     57    -38    296    299 281.2  -7.3  33908  285.32 0863.25
2015 04 09 12 35 13 .48    -279     65    -51    287    292 283.2 -10.1  33928  285.64 0863.25
2015 04 09 12 35 13 .73    -294    -28      1    296    297 264.5   0.2  33932  285.71 0863.25
2015 04 09 12 35 13 .98    -155     36     19    160    162 283.3   6.9  33928  285.66 0863.25
2015 04 09 12 35 14 .23    -225      7    -28    226    228 271.9  -7.2  33924  285.60 0863.25
2015 04 09 12 35 14 .48    -212    -16    -32    213    216 265.6  -8.6  33954  286.08 0863.25
2015 04 09 12 35 14 .74    -220     44     -8    225    226 281.5  -2.2  33966  286.30 0863.24
2015 04 09 12 35 14 .99    -261     75    -43    272    276 286.0  -9.0  33936  285.79 0863.24
2015 04 09 12 35 15 .24    -304      4    -21    305    306 270.8  -4.1  33952  286.06 0863.24
2015 04 09 12 35 15 .49    -265     -2    -28    266    268 269.4  -6.2  33946  285.94 0863.24
2015 04 09 12 35 15 .74    -293     45    -47    297    301 278.8  -9.0  33926  285.62 0863.24
2015 04 09 12 35 15 .99    -315     13    -52    316    321 272.5  -9.3  33904  285.24 0863.24
2015 04 09 12 35 16 .24    -351     37    -60    354    360 276.1  -9.6  33892  285.04 0863.24
2015 04 09 12 35 16 .49    -309     35    -21    312    313 276.6  -4.0  33894  285.07 0863.24
2015 04 09 12 35 16 .75    -339     34    -56    341    346 275.8  -9.3  33896  285.11 0863.24
2015 04 09 12 35 17 .00    -340     47    -31    344    346 277.9  -5.2  33902  285.21 0863.24
2015 04 09 12 35 17 .25    -274    102    -26    293    295 290.6  -5.2  33920  285.51 0863.24
2015 04 09 12 35 17 .50    -367     78    -47    376    379 282.1  -7.2  33922  285.55 0863.24
2015 04 09 12 35 17 .75    -346     86    -56    357    362 284.1  -9.0  33928  285.65 0863.24
2015 04 09 12 35 18 .00    -345     58    -45    350    353 279.6  -7.4  33912  285.38 0863.24
2015 04 09 12 35 18 .25    -377     74    -70    385    392 281.2 -10.4  33906  285.28 0863.24
2015 04 09 12 35 18 .50    -392     74    -66    399    405 280.7  -9.4  33902  285.22 0863.25
2015 04 09 12 35 18 .75    -332     27    -13    334    335 274.7  -2.2  33966  286.29 0863.25
2015 04 09 12 35 19 .00    -357     85    -64    367    373 283.4  -9.9  33916  285.46 0863.25
2015 04 09 12 35 19 .25    -343     67    -53    350    355 281.1  -8.7  33910  285.35 0863.25
2015 04 09 12 35 19 .50    -341     67    -69    348    355 281.1 -11.2  33902  285.20 0863.25
2015 04 09 12 35 19 .75    -331     86    -48    343    347 284.6  -8.1  33916  285.45 0863.25
2015 04 09 12 35 20 .00    -327     85    -48    339    343 284.7  -8.1  33892  285.06 0863.25
2015 04 09 12 35 20 .25    -314     74    -53    323    328 283.3  -9.3  33898  285.14 0863.25
2015 04 09 12 35 20 .50    -321     67    -41    329    332 281.9  -7.2  33904  285.25 0863.25
2015 04 09 12 35 20 .75    -340     39    -44    343    346 276.6  -7.4  33900  285.18 0863.25
2015 04 09 12 35 21 .00    -338     51    -56    342    347 278.6  -9.3  33892  285.06 0863.25
2015 04 09 12 35 21 .26    -329     51    -51    333    337 278.8  -8.8  33898  285.15 0863.25
2015 04 09 12 35 21 .51    -270     63    -29    278    280 283.3  -6.0  33914  285.42 0863.25
2015 04 09 12 35 21 .77    -316     39    -34    319    321 277.1  -6.2  33920  285.52 0863.25
2015 04 09 12 35 22 .02    -372     61    -83    378    388 279.4 -12.4  33924  285.57 0863.25
2015 04 09 12 35 22 .27    -347     97    -67    361    368 285.7 -10.5  33926  285.63 0863.25
2015 04 09 12 35 22 .52    -295    122    -36    320    323 292.6  -6.5  33932  285.72 0863.25
2015 04 09 12 35 22 .77    -279    107    -16    300    301 291.1  -3.1  33924  285.57 0863.25
2015 04 09 12 35 23 .02    -329     20    -39    330    333 273.5  -6.9  33930  285.68 0863.24
2015 04 09 12 35 23 .27    -333     29    -75    335    344 275.1 -12.6  33940  285.85 0863.24
2015 04 09 12 35 23 .52    -349     71    -69    357    364 281.5 -11.0  33916  285.45 0863.24
2015 04 09 12 35 23 .77    -342     63    -69    348    355 280.6 -11.3  33892  285.04 0863.24
2015 04 09 12 35 24 .02    -345     70    -62    352    358 281.5 -10.1  33894  285.09 0863.24
2015 04 09 12 35 24 .27    -362     67    -58    369    374 280.5  -9.0  33892  285.04 0863.24
2015 04 09 12 35 24 .52    -362     85    -61    372    378 283.3  -9.3  33890  285.01 0863.24
2015 04 09 12 35 24 .77    -363     75    -44    371    374 281.8  -6.9  33898  285.15 0863.25
2015 04 09 12 35 25 .02    -357     77    -62    366    372 282.3  -9.7  33898  285.15 0863.25
2015 04 09 12 35 25 .27    -330     69    -43    338    341 281.9  -7.3  33898  285.15 0863.25
2015 04 09 12 35 25 .52    -314     67    -31    322    324 282.2  -5.6  33894  285.08 0863.25
2015 04 09 12 35 25 .78    -325     51    -45    330    334 279.0  -7.9  33892  285.03 0863.25
2015 04 09 12 35 26 .03    -290     58    -42    296    300 281.5  -8.2  33902  285.20 0863.25
2015 04 09 12 35 26 .28    -309     65    -61    316    322 281.9 -11.0  33892  285.03 0863.25
2015 04 09 12 35 26 .53    -317     74    -37    326    329 283.3  -6.6  33894  285.07 0863.25
2015 04 09 12 35 26 .78    -308     61    -28    315    317 281.2  -5.1  33910  285.34 0863.25
2015 04 09 12 35 27 .03    -311     63     -3    318    319 281.5  -0.7  33910  285.34 0863.25
2015 04 09 12 35 27 .28    -310     24    -41    312    315 274.6  -7.6  33916  285.45 0863.25
2015 04 09 12 35 27 .53    -288     44    -30    292    294 278.8  -6.0  33908  285.32 0863.25
2015 04 09 12 35 27 .78    -324     66    -54    331    336 281.6  -9.3  33896  285.11 0863.25
2015 04 09 12 35 28 .03    -307     61    -34    314    316 281.4  -6.3  33908  285.32 0863.25
2015 04 09 12 35 28 .28    -326     55    -57    331    336 279.6  -9.8  33894  285.08 0863.25
2015 04 09 12 35 28 .53    -348     77    -59    357    362 282.6  -9.5  33890  285.01 0863.25
2015 04 09 12 35 28 .79    -240     74      7    252    253 287.1   1.6  33902  285.20 0863.25
2015 04 09 12 35 29 .04    -288     23    -47    289    293 274.6  -9.3  33898  285.15 0863.25
2015 04 09 12 35 29 .29    -289      4    -37    290    293 270.8  -7.3  33900  285.19 0863.25
2015 04 09 12 35 29 .55    -370     75    -47    378    382 281.5  -7.2  33900  285.18 0863.25
2015 04 09 12 35 29 .79    -339     95    -31    353    355 285.7  -5.1  33902  285.21 0863.25
2015 04 09 12 35 30 .05    -362    114    -48    380    384 287.6  -7.2  33894  285.09 0863.25
2015 04 09 12 35 30 .30    -348     83    -16    358    359 283.4  -2.7  33898  285.16 0863.25
2015 04 09 12 35 30 .55    -401     86    -57    411    415 282.2  -7.9  33890  285.02 0863.25
2015 04 09 12 35 30 .80    -350    116    -43    369    372 288.4  -6.7  33892  285.04 0863.25
2015 04 09 12 35 31 .05    -374    106    -60    389    394 285.9  -8.9  33892  285.04 0863.25
2015 04 09 12 35 31 .30    -384    100    -53    397    401 284.7  -7.7  33894  285.09 0863.25
2015 04 09 12 35 31 .55    -343    107    -39    360    363 287.4  -6.2  33902  285.20 0863.25
2015 04 09 12 35 31 .80    -366     98    -57    379    384 285.1  -8.6  33912  285.38 0863.25
2015 04 09 12 35 32 .05    -349    102    -41    364    367 286.4  -6.5  33908  285.31 0863.25
2015 04 09 12 35 32 .30    -363    114    -60    381    386 287.5  -9.0  33902  285.20 0863.25
2015 04 09 12 35 32 .55    -350     90    -64    362    368 284.5 -10.1  33916  285.46 0863.25
2015 04 09 12 35 32 .80    -324     78    -38    334    337 283.6  -6.6  33922  285.55 0863.25
2015 04 09 12 35 33 .05    -361    120    -44    381    384 288.4  -6.7  33912  285.38 0863.25
2015 04 09 12 35 33 .30    -379     73    -77    387    395 281.0 -11.3  33896  285.11 0863.25
2015 04 09 12 35 33 .55    -345     84    -84    356    366 283.8 -13.3  33904  285.26 0863.25
2015 04 09 12 35 33 .81    -337     71    -40    345    348 281.9  -6.7  33936  285.78 0863.25
2015 04 09 12 35 34 .05    -276     72    -26    286    288 284.6  -5.2  33982  286.55 0863.25
2015 04 09 12 35 34 .30    -276     50    -25    281    283 280.4  -5.2  33954  286.08 0863.25
2015 04 09 12 35 34 .55    -371    131    -26    394    395 289.5  -3.9  33906  285.28 0863.25
2015 04 09 12 35 34 .81    -370     86    -44    380    383 283.2  -6.7  33904  285.25 0863.25
2015 04 09 12 35 35 .06    -354     79    -51    363    367 282.6  -8.0  33904  285.26 0863.25
2015 04 09 12 35 35 .31    -366     78    -39    375    378 282.2  -6.1  33904  285.25 0863.25
2015 04 09 12 35 35 .57    -384    127    -52    405    409 288.3  -7.3  33912  285.39 0863.25
2015 04 09 12 35 35 .82    -361     86    -33    372    374 283.4  -5.2  33916  285.46 0863.25
2015 04 09 12 35 36 .07    -373    111    -50    390    394 286.6  -7.3  33914  285.41 0863.25
2015 04 09 12 35 36 .32    -355     91    -40    367    370 284.5  -6.3  33914  285.43 0863.25
2015 04 09 12 35 36 .57    -359     88    -25    370    371 283.9  -4.0  33922  285.55 0863.25
2015 04 09 12 35 36 .82    -355    101    -20    370    371 285.9  -3.1  33940  285.85 0863.25
2015 04 09 12 35 37 .07    -356     92    -28    368    369 284.6  -4.4  33982  286.56 0863.25
2015 04 09 12 35 37 .32    -349     76    -47    358    362 282.3  -7.6  33974  286.43 0863.25
2015 04 09 12 35 37 .57    -358     88    -34    369    371 283.9  -5.3  33924  285.58 0863.25
2015 04 09 12 35 37 .82    -271    108    -42    292    296 291.8  -8.2  33994  286.77 0863.25
2015 04 09 12 35 38 .07    -221     19    -14    222    223 275.0  -3.7  33958  286.17 0863.25
2015 04 09 12 35 38 .34    -433    119    -49    450    453 285.4  -6.2  33922  285.56 0863.25
2015 04 09 12 35 38 .57    -405     77    -69    413    419 280.8  -9.6  33914  285.41 0863.25
2015 04 09 12 35 38 .82    -373    100    -37    387    389 285.1  -5.6  33910  285.36 0863.25
2015 04 09 12 35 39 .08    -425    100    -73    437    444 283.3  -9.5  33904  285.24 0863.25
2015 04 09 12 35 39 .33    -463     91    -73    473    479 281.2  -8.8  33932  285.72 0863.25
2015 04 09 12 35 39 .58    -372     82    -40    382    385 282.5  -6.0  33938  285.82 0863.25
2015 04 09 12 35 39 .83    -231     10      0    232    233 272.5   0.0  33952  286.05 0863.25
2015 04 09 12 35 40 .08    -362    124    -77    383    391 289.0 -11.5  33918  285.48 0863.25
2015 04 09 12 35 40 .33    -409    106    -43    423    426 284.6  -5.9  33910  285.34 0863.25
2015 04 09 12 35 40 .58    -421     97    -42    433    436 283.0  -5.6  33910  285.34 0863.25
2015 04 09 12 35 40 .83    -406    107    -65    420    426 284.8  -8.9  33906  285.27 0863.25
2015 04 09 12 35 41 .08    -425    118    -55    442    446 285.5  -7.2  33910  285.34 0863.25
2015 04 09 12 35 41 .33    -450    134    -69    470    476 286.6  -8.4  33902  285.20 0863.25
2015 04 09 12 35 41 .58    -438    138    -79    460    467 287.5  -9.8  33908  285.30 0863.25
2015 04 09 12 35 41 .83    -418    139    -80    441    449 288.5 -10.3  33900  285.19 0863.25
2015 04 09 12 35 42 .08    -396    143    -80    422    430 290.0 -10.8  33898  285.14 0863.25
2015 04 09 12 35 42 .33    -376    127    -67    398    404 288.7  -9.6  33900  285.18 0863.25
2015 04 09 12 35 42 .59    -373    121    -67    393    399 288.1  -9.7  33896  285.11 0863.25
2015 04 09 12 35 42 .84    -371    105    -74    386    394 285.9 -10.9  33902  285.20 0863.25
2015 04 09 12 35 43 .10    -361     90    -63    373    379 284.1  -9.6  33902  285.20 0863.25
2015 04 09 12 35 43 .35    -351    107    -57    368    373 287.0  -8.8  33912  285.38 0863.25
2015 04 09 12 35 43 .60    -308    105    -49    326    330 289.0  -8.7  33918  285.48 0863.25
2015 04 09 12 35 43 .85    -304     64    -45    311    315 281.9  -8.2  33916  285.44 0863.25
2015 04 09 12 35 44 .10    -252     59    -12    259    260 283.3  -2.8  33942  285.88 0863.25
2015 04 09 12 35 44 .35    -289     88    -27    303    305 286.9  -5.1  33926  285.61 0863.25
2015 04 09 12 35 44 .60    -315     80    -29    326    328 284.3  -5.1  33920  285.51 0863.25
2015 04 09 12 35 44 .85    -325    102    -18    341    342 287.4  -3.2  33906  285.28 0863.25
2015 04 09 12 35 45 .10    -352     92    -29    364    366 284.8  -4.6  33902  285.20 0863.25
2015 04 09 12 35 45 .35    -355     79    -15    364    365 282.6  -2.5  33900  285.18 0863.25
2015 04 09 12 35 45 .60    -380    100    -28    393    394 284.8  -4.1  33904  285.26 0863.25
2015 04 09 12 35 45 .85    -391    110    -34    407    409 285.8  -4.8  33902  285.22 0863.25
2015 04 09 12 35 46 .10    -385     96    -36    397    399 284.1  -5.3  33902  285.23 0863.25
2015 04 09 12 35 46 .35    -398    119    -45    416    419 286.6  -6.3  33898  285.16 0863.25
2015 04 09 12 35 46 .60    -418    112    -54    433    437 285.1  -7.2  33888  284.99 0863.25
2015 04 09 12 35 46 .86    -419    118    -56    436    440 285.8  -7.3  33892  285.05 0863.25
2015 04 09 12 35 47 .11    -395    119    -32    413    415 286.8  -4.5  33898  285.14 0863.25
2015 04 09 12 35 47 .36    -372    119    -36    391    393 287.8  -5.3  33902  285.23 0863.25
2015 04 09 12 35 47 .60    -365     86    -32    376    378 283.3  -4.9  33892  285.06 0863.25
2015 04 09 12 35 47 .86    -384    109    -46    400    403 285.9  -6.7  33892  285.04 0863.25
2015 04 09 12 35 48 .11    -366     58    -43    371    374 279.1  -6.7  33890  285.01 0863.25
2015 04 09 12 35 48 .36    -354     88    -38    365    368 284.1  -6.0  33908  285.30 0863.25
2015 04 09 12 35 48 .61    -362     91    -49    374    378 284.2  -7.6  33892  285.03 0863.25
2015 04 09 12 35 48 .86    -387    107    -48    402    405 285.5  -6.9  33888  284.97 0863.25
2015 04 09 12 35 49 .11    -349    112    -27    367    368 287.9  -4.2  33892  285.06 0863.25
2015 04 09 12 35 49 .36    -355    108    -26    372    373 287.0  -4.0  33890  285.01 0863.25
2015 04 09 12 35 49 .62    -404    105    -53    418    422 284.7  -7.3  33888  284.99 0863.25
2015 04 09 12 35 49 .87    -386     87    -36    396    398 282.8  -5.3  33894  285.08 0863.25
2015 04 09 12 35 50 .12    -358    129    -40    381    384 290.0  -6.1  33892  285.03 0863.25
2015 04 09 12 35 50 .37    -336     95    -24    350    351 285.9  -4.0  33892  285.06 0863.25
2015 04 09 12 35 50 .62    -334    111    -32    353    355 288.4  -5.3  33892  285.03 0863.25
2015 04 09 12 35 50 .87    -374    125    -50    395    399 288.6  -7.3  33894  285.09 0863.25
2015 04 09 12 35 51 .12    -395    106    -51    409    413 285.1  -7.2  33892  285.05 0863.24
2015 04 09 12 35 51 .38    -395    124    -43    415    418 287.4  -6.0  33888  284.97 0863.24
2015 04 09 12 35 51 .63    -357    112    -35    375    377 287.5  -5.5  33890  285.01 0863.24
2015 04 09 12 35 51 .88    -332    100    -30    347    349 286.8  -5.1  33892  285.06 0863.24
2015 04 09 12 35 52 .13    -347    100    -37    362    365 286.2  -6.0  33894  285.08 0863.24
2015 04 09 12 35 52 .38    -366    133    -45    390    393 290.1  -6.7  33886  284.96 0863.24
2015 04 09 12 35 52 .63    -347    120    -40    368    371 289.1  -6.3  33890  285.01 0863.24
2015 04 09 12 35 52 .88    -361    149    -50    391    395 292.5  -7.4  33888  284.99 0863.25
2015 04 09 12 35 53 .13    -362    140    -55    389    394 291.2  -8.1  33886  284.94 0863.25
2015 04 09 12 35 53 .38    -347    137    -49    374    378 291.6  -7.6  33886  284.96 0863.25
2015 04 09 12 35 53 .63    -311    113    -47    332    336 290.1  -8.1  33892  285.04 0863.25
2015 04 09 12 35 53 .88    -298    132    -50    327    331 294.0  -8.7  33892  285.06 0863.25
2015 04 09 12 35 54 .13    -275    127    -33    303    305 294.8  -6.2  33898  285.14 0863.25
2015 04 09 12 35 54 .38    -292    136    -56    323    328 295.0  -9.9  33888  284.97 0863.25
2015 04 09 12 35 54 .63    -292    128    -57    319    325 293.7 -10.1  33888  284.97 0863.24
2015 04 09 12 35 54 .88    -282    121    -54    308    313 293.3 -10.1  33886  284.95 0863.24
2015 04 09 12 35 55 .13    -285    129    -45    313    317 294.4  -8.2  33888  284.97 0863.24
2015 04 09 12 35 55 .38    -285    134    -49    316    320 295.2  -8.8  33890  285.00 0863.24
2015 04 09 12 35 55 .63    -267    140    -43    302    306 297.8  -8.2  33886  284.95 0863.24
2015 04 09 12 35 55 .88    -279    132    -51    309    314 295.4  -9.5  33888  284.97 0863.24
2015 04 09 12 35 56 .13    -269    128    -54    299    304 295.5 -10.3  33886  284.95 0863.24
2015 04 09 12 35 56 .39    -245    114    -44    271    275 295.1  -9.3  33890  285.00 0863.24
2015 04 09 12 35 56 .65    -253    133    -44    286    290 297.8  -8.8  33890  285.00 0863.24
2015 04 09 12 35 56 .90    -268    117    -44    293    297 293.6  -8.6  33890  285.00 0863.24
2015 04 09 12 35 57 .15    -258    111    -33    281    284 293.3  -6.9  33892  285.05 0863.24
2015 04 09 12 35 57 .40    -261     99    -36    280    283 290.8  -7.3  33890  285.02 0863.24
2015 04 09 12 35 57 .65    -268    117    -44    293    297 293.6  -8.6  33890  285.00 0863.24
2015 04 09 12 35 57 .90    -259     94    -33    276    279 290.0  -6.9  33892  285.05 0863.24
2015 04 09 12 35 58 .15    -253    110    -42    276    280 293.5  -8.8  33888  284.98 0863.24
2015 04 09 12 35 58 .40    -254    101    -50    274    279 291.8 -10.4  33890  285.02 0863.24
2015 04 09 12 35 58 .65    -252     84    -34    266    269 288.4  -7.3  33892  285.05 0863.24
2015 04 09 12 35 58 .90    -256     98    -45    275    279 291.1  -9.4  33888  284.97 0863.24
2015 04 09 12 35 59 .15    -248    103    -39    269    272 292.6  -8.3  33890  285.00 0863.24
2015 04 09 12 35 59 .40    -246    103    -38    267    270 292.7  -8.2  33890  285.02 0863.24
2015 04 09 12 35 59 .65    -264    124    -38    292    295 295.2  -7.5  33890  285.02 0863.24
2015 04 09 12 35 59 .90    -273    123    -43    300    304 294.2  -8.2  33886  284.93 0863.24
2015 04 09 12 36 00 .16    -254    106    -34    276    279 292.6  -7.2  33904  285.25 0863.24
2015 04 09 12 36 00 .40    -203     43    -26    208    210 282.2  -7.3  33926  285.63 0863.24
2015 04 09 12 36 00 .66    -240     82    -23    254    256 289.0  -5.4  33922  285.56 0863.24
2015 04 09 12 36 00 .91    -242     64    -33    251    254 285.0  -7.7  33924  285.59 0863.24
2015 04 09 12 36 01 .16    -281     90    -37    296    299 287.8  -7.2  33908  285.32 0863.25
2015 04 09 12 36 01 .41    -281     78    -36    292    295 285.7  -7.2  33906  285.29 0863.25
2015 04 09 12 36 01 .66    -287     86    -16    300    301 286.8  -3.1  33906  285.29 0863.25
2015 04 09 12 36 01 .91    -302    119    -27    325    327 291.5  -4.9  33898  285.14 0863.25
2015 04 09 12 36 02 .16    -288    131    -44    317    321 294.4  -8.0  33896  285.10 0863.25
2015 04 09 12 36 02 .41    -270    117    -42    295    299 293.5  -8.2  33908  285.32 0863.25
2015 04 09 12 36 02 .66    -245    116    -34    272    275 295.4  -7.2  33918  285.47 0863.25
2015 04 09 12 36 02 .91    -236    117    -35    264    267 296.4  -7.7  33908  285.32 0863.25
2015 04 09 12 36 03 .16    -233     75    -49    245    250 287.9 -11.3  33896  285.12 0863.25
2015 04 09 12 36 03 .42    -202    124    -85    238    253 301.5 -19.7  33892  285.05 0863.25
2015 04 09 12 36 03 .67    -184     87    -66    204    215 295.5 -17.9  33900  285.19 0863.25
2015 04 09 12 36 03 .92    -235     98    -34    255    258 292.8  -7.7  33904  285.24 0863.25
2015 04 09 12 36 04 .17    -230    113    -14    257    258 296.2  -3.2  33906  285.29 0863.25
2015 04 09 12 36 04 .42    -191     82    -41    208    213 293.3 -11.3  33906  285.29 0863.25
2015 04 09 12 36 04 .67    -203     73    -35    216    219 290.0  -9.3  33904  285.24 0863.24
2015 04 09 12 36 04 .93    -206     53    -33    213    216 284.6  -9.0  33908  285.33 0863.24
2015 04 09 12 36 05 .18    -227      9    -12    228    229 272.4  -3.2  33930  285.70 0863.24
2015 04 09 12 36 05 .43     -78     75     34    109    115 313.6  17.4  33956  286.12 0863.24
2015 04 09 12 36 05 .68     -19      8     21     21     29 293.5  50.1  33954  286.10 0863.24
2015 04 09 12 36 05 .94    -130    -26    -42    133    140 258.6 -17.6  33940  285.87 0863.24
2015 04 09 12 36 06 .18    -118     45     24    127    130 290.8  11.0  33946  285.95 0863.24
2015 04 09 12 36 06 .43    -262     44    -34    266    269 279.6  -7.3  33916  285.44 0863.25
2015 04 09 12 36 06 .68    -233     29    -41    235    239 277.2 -10.1  33910  285.35 0863.25
2015 04 09 12 36 06 .93    -198     54    -41    206    211 285.3 -11.3  33912  285.39 0863.25
2015 04 09 12 36 07 .18    -234     31    -64    237    246 277.7 -15.2  33894  285.08 0863.25
2015 04 09 12 36 07 .43    -214     22    -52    216    223 276.1 -13.7  33902  285.23 0863.25
2015 04 09 12 36 07 .68    -238     73    -22    250    252 287.1  -5.2  33920  285.52 0863.25
2015 04 09 12 36 07 .93    -214      0     -8    215    216 270.1  -2.2  33948  285.98 0863.25
2015 04 09 12 36 08 .18    -262     52    -47    268    273 281.4 -10.1  33920  285.51 0863.25
2015 04 09 12 36 08 .43    -248     61    -20    256    257 283.9  -4.6  33932  285.72 0863.25
2015 04 09 12 36 08 .68    -243     58    -36    250    253 283.5  -8.3  33936  285.77 0863.25
2015 04 09 12 36 08 .93    -249     79    -52    262    268 287.7 -11.3  33926  285.62 0863.25
2015 04 09 12 36 09 .19    -214     16    -33    215    218 274.4  -8.8  33940  285.85 0863.25
2015 04 09 12 36 09 .44    -204     75    -20    218    220 290.2  -5.4  33942  285.88 0863.25
2015 04 09 12 36 09 .69    -277     71    -47    287    291 284.4  -9.3  33938  285.81 0863.25
2015 04 09 12 36 09 .94    -304     60    -56    310    316 281.2 -10.4  33950  286.03 0863.25
2015 04 09 12 36 10 .19    -300     91    -24    314    316 286.9  -4.5  33962  286.21 0863.25
2015 04 09 12 36 10 .45    -298     42    -55    302    307 278.0 -10.4  33992  286.74 0863.25
2015 04 09 12 36 10 .70    -112     35     41    118    125 287.7  19.2  34022  287.23 0863.25
2015 04 09 12 36 10 .95    -206     17     10    207    208 275.0   2.8  33996  286.79 0863.24
2015 04 09 12 36 11 .20    -262     64    -24    270    272 283.9  -5.2  33940  285.86 0863.24
2015 04 09 12 36 11 .45    -205     97    -40    228    232 295.4 -10.1  33972  286.41 0863.24
2015 04 09 12 36 11 .70    -110     49     19    121    123 294.0   8.9  33976  286.46 0863.24
2015 04 09 12 36 11 .95       0     28     32     29     43 359.1  52.2  33968  286.34 0863.24
2015 04 09 12 36 12 .20    -217    -24    -28    219    221 263.6  -7.3  33950  286.02 0863.24
2015 04 09 12 36 12 .45    -231     48    -70    237    248 281.9 -16.4  33950  286.03 0863.24
2015 04 09 12 36 12 .70    -273     64    -47    281    285 283.2  -9.6  33958  286.16 0863.24
2015 04 09 12 36 12 .96    -333     99    -45    348    351 286.6  -7.5  33978  286.49 0863.25
2015 04 09 12 36 13 .20    -308    115    -43    329    332 290.5  -7.5  33994  286.75 0863.25
2015 04 09 12 36 13 .45    -253     67    -33    262    265 285.0  -7.3  34012  287.06 0863.25
2015 04 09 12 36 13 .71    -264    105    -57    285    291 291.7 -11.3  33994  286.77 0863.24
2015 04 09 12 36 13 .96    -274    105    -46    294    298 291.1  -9.0  34010  287.02 0863.24
2015 04 09 12 36 14 .21    -273     86    -41    287    291 287.5  -8.2  34000  286.87 0863.24
2015 04 09 12 36 14 .46    -265    121    -57    292    298 294.6 -11.1  34022  287.24 0863.24
2015 04 09 12 36 14 .70    -255    143    -57    293    299 299.3 -11.1  33900  285.19 0863.24
2015 04 09 12 36 14 .95    -268    122    -70    295    304 294.6 -13.4  33894  285.07 0863.24
2015 04 09 12 36 15 .21    -271    127    -66    300    308 295.2 -12.4  33898  285.14 0863.24
2015 04 09 12 36 15 .46    -274    125    -68    302    310 294.6 -12.7  33908  285.32 0863.24
2015 04 09 12 36 15 .71    -299    138    -54    330    335 294.8  -9.3  33952  286.05 0863.25
2015 04 09 12 36 15 .96    -324    158    -46    361    364 296.1  -7.4  34000  286.86 0863.25
2015 04 09 12 36 16 .21    -203    160    -11    259    260 308.4  -2.6  34006  286.95 0863.25
2015 04 09 12 36 16 .46    -145    110    -55    183    192 307.3 -16.8  34016  287.13 0863.25
2015 04 09 12 36 16 .71    -108    152    -61    187    197 324.6 -18.3  34004  286.93 0863.25
2015 04 09 12 36 16 .96    -258    190    -76    321    330 306.4 -13.4  33940  285.84 0863.25
2015 04 09 12 36 17 .21    -325    151    -23    359    360 295.0  -3.7  33962  286.24 0863.25
2015 04 09 12 36 17 .47    -354    185    -51    400    404 297.7  -7.3  33964  286.27 0863.25
2015 04 09 12 36 17 .72    -347    192    -51    397    401 299.0  -7.3  33952  286.05 0863.25
2015 04 09 12 36 17 .98    -355    171    -61    395    400 295.8  -8.8  33908  285.30 0863.25
2015 04 09 12 36 18 .23    -338    172    -66    380    386 297.0  -9.9  33900  285.18 0863.25
2015 04 09 12 36 18 .47    -317    160    -72    356    364 296.8 -11.6  33908  285.30 0863.25
2015 04 09 12 36 18 .72    -302    164    -69    344    351 298.5 -11.5  33890  285.01 0863.25
2015 04 09 12 36 18 .97    -282    167    -64    328    335 300.7 -11.1  33892  285.04 0863.25
2015 04 09 12 36 19 .23    -265    199    -40    332    335 306.9  -6.9  33980  286.54 0863.26
2015 04 09 12 36 19 .47    -241    194    -39    310    313 308.9  -7.2  33936  285.77 0863.26
2015 04 09 12 36 19 .73    -269    182    -29    325    327 304.1  -5.2  33902  285.22 0863.26
2015 04 09 12 36 19 .98    -277    194    -44    339    342 305.0  -7.5  33890  285.01 0863.26
2015 04 09 12 36 20 .23    -274    185    -51    331    336 304.1  -8.9  33892  285.04 0863.26
2015 04 09 12 36 20 .48    -271    185    -47    329    333 304.4  -8.2  33888  284.98 0863.26
2015 04 09 12 36 20 .73    -256    197    -45    324    328 307.6  -7.9  33890  285.00 0863.26
2015 04 09 12 36 20 .98    -258    189    -44    320    324 306.2  -7.9  33888  284.98 0863.26
2015 04 09 12 36 21 .23    -247    193    -17    314    315 308.0  -3.2  33892  285.05 0863.26
2015 04 09 12 36 21 .48    -254    173    -28    308    310 304.4  -5.2  33892  285.05 0863.26
2015 04 09 12 36 21 .73    -259    152    -60    301    307 300.4 -11.3  33892  285.05 0863.26
2015 04 09 12 36 21 .98    -266    181    -59    323    329 304.3 -10.5  33890  285.00 0863.25
2015 04 09 12 36 22 .23    -246    190    -33    312    314 307.7  -6.2  33892  285.05 0863.25
2015 04 09 12 36 22 .49    -249    192    -20    315    316 307.8  -3.7  33892  285.05 0863.25
2015 04 09 12 36 22 .74    -234    181    -13    296    297 307.7  -2.6  33892  285.05 0863.25
2015 04 09 12 36 22 .99    -225    159    -15    276    277 305.3  -3.2  33890  285.02 0863.25
2015 04 09 12 36 23 .24    -204    153    -14    256    257 306.9  -3.3  33892  285.03 0863.25
2015 04 09 12 36 23 .49    -220    154    -34    269    272 305.0  -7.3  33890  285.02 0863.25
2015 04 09 12 36 23 .74    -204    171    -47    267    272 310.0 -10.1  33890  285.02 0863.26
2015 04 09 12 36 23 .99    -236    156    -46    284    288 303.5  -9.4  33906  285.29 0863.26
2015 04 09 12 36 24 .24    -225    174    -85    285    298 307.8 -16.6  33908  285.30 0863.26
2015 04 09 12 36 24 .50    -231    127    -73    264    274 298.9 -15.5  33904  285.25 0863.26
2015 04 09 12 36 24 .75    -225    138    -47    264    269 301.5 -10.3  33908  285.30 0863.26
2015 04 09 12 36 25 .00    -224    114    -45    252    257 297.1 -10.3  33904  285.25 0863.26
2015 04 09 12 36 25 .25    -204    150    -32    254    257 306.2  -7.3  33902  285.20 0863.26
2015 04 09 12 36 25 .50    -220    134    -46    258    263 301.3 -10.3  33912  285.39 0863.26
2015 04 09 12 36 25 .75    -209    141    -28    253    255 304.1  -6.5  33904  285.24 0863.26
2015 04 09 12 36 26 .00    -187    135    -32    231    234 305.9  -8.0  33906  285.29 0863.26
2015 04 09 12 36 26 .25    -164    127     -1    208    209 307.8  -0.5  33910  285.34 0863.26
2015 04 09 12 36 26 .55    -156    129    -19    203    204 309.6  -5.6  33910  285.34 0863.26
2015 04 09 12 36 26 .75    -150     97    -49    179    186 302.9 -15.4  33918  285.48 0863.26
2015 04 09 12 36 27 .00    -161     84    -47    182    189 297.8 -14.5  33916  285.44 0863.26
2015 04 09 12 36 27 .26    -179     71    -69    193    206 291.7 -19.7  33920  285.53 0863.26
2015 04 09 12 36 27 .50    -164     68    -52    178    185 292.6 -21.5  33922  285.56 0863.26
2015 04 09 12 36 27 .76    -140     79      2    162    163 299.5   1.0  33930  285.70 0863.26
2015 04 09 12 36 28 .01    -112     66    -21    131    133 300.7  -9.3  33938  285.82 0863.26
2015 04 09 12 36 28 .26    -108    101    -25    149    152 313.1  -9.8  33926  285.63 0863.26
2015 04 09 12 36 28 .51     -94    142     -6    171    172 326.4  -2.2  33934  285.76 0863.26
2015 04 09 12 36 28 .76     -93    169    -46    193    199 331.1 -13.4  33900  285.19 0863.26
2015 04 09 12 36 29 .01     -62    167    -46    179    185 339.7 -14.5  33922  285.56 0863.26
2015 04 09 12 36 29 .26     -71    142    -31    160    164 333.3 -11.1  33930  285.70 0863.26
2015 04 09 12 36 29 .51     -95    150    -27    178    181 327.5  -8.8  33930  285.68 0863.26
2015 04 09 12 36 29 .76     -97    169    -43    196    201 330.1 -12.6  33930  285.70 0863.26
2015 04 09 12 36 30 .01     -72    181     -8    196    197 338.2  -2.6  33932  285.71 0863.26
2015 04 09 12 36 30 .26     -47    169      1    176    177 344.4   0.5  33936  285.80 0863.26
2015 04 09 12 36 30 .52     -32    188      9    191    192 350.2   2.8  33938  285.83 0863.26
2015 04 09 12 36 30 .77     -53    196     23    204    206 344.9   6.5  33964  286.25 0863.26
2015 04 09 12 36 31 .02     -65    208     25    219    221 342.6   6.7  33962  286.22 0863.26
2015 04 09 12 36 31 .29     -25    214     29    216    218 353.3   7.8  33936  285.80 0863.26
2015 04 09 12 36 31 .53     -92     92     65    131    146 315.1  27.8  33950  286.02 0863.26
2015 04 09 12 36 31 .78    -110     90     59    143    154 309.5  23.1  33956  286.14 0863.26
2015 04 09 12 36 32 .03    -107    100     17    147    149 313.1   6.9  33952  286.05 0863.26
2015 04 09 12 36 32 .28     -83    131     33    156    160 327.5  12.2  33962  286.24 0863.26
2015 04 09 12 36 32 .53     -80    168      1    187    188 334.5   0.5  33968  286.32 0863.26
2015 04 09 12 36 32 .78    -115    136      1    179    180 319.9   0.5  33958  286.17 0863.26
2015 04 09 12 36 33 .03    -180    122    -48    218    224 304.1 -12.6  33934  285.75 0863.26
2015 04 09 12 36 33 .28    -186    115    -36    219    222 301.8  -9.4  33932  285.73 0863.26
2015 04 09 12 36 33 .53    -176    119    -18    213    214 304.1  -4.9  33946  285.95 0863.26
2015 04 09 12 36 33 .78    -123    106    -54    163    172 310.7 -18.3  33920  285.53 0863.26
2015 04 09 12 36 34 .03    -127    127    -24    180    182 314.9  -7.7  33926  285.61 0863.26
2015 04 09 12 36 34 .28    -155    136      0    207    208 311.4  -0.3  33930  285.70 0863.26
2015 04 09 12 36 34 .53    -178    130    -20    221    222 306.2  -5.2  33928  285.66 0863.26
2015 04 09 12 36 34 .78    -164    127     -8    208    209 307.8  -2.3  33934  285.75 0863.26
2015 04 09 12 36 35 .03    -131    144    -35    196    200 317.7 -10.3  33932  285.71 0863.26
2015 04 09 12 36 35 .29    -100    173    -31    200    203 329.9  -8.8  33938  285.82 0863.26
2015 04 09 12 36 35 .53     -63    170     -8    182    183 339.5  -2.8  33944  285.93 0863.26
2015 04 09 12 36 35 .78     -54    125    -17    137    139 336.4  -7.3  33944  285.92 0863.26
2015 04 09 12 36 36 .04     -50    163     11    171    172 342.8   3.8  33944  285.93 0863.26
2015 04 09 12 36 36 .29     -37    178     10    182    183 348.2   3.3  33962  286.22 0863.26
2015 04 09 12 36 36 .54     -41    154     14    160    161 344.8   5.2  33956  286.14 0863.26
2015 04 09 12 36 36 .79     -25    164     18    166    168 351.3   6.5  33982  286.56 0863.26
2015 04 09 12 36 37 .04     -36    152     28    157    160 346.7  10.1  33984  286.59 0863.26
2015 04 09 12 36 37 .29     -32    156     61    160    171 348.4  21.7  33974  286.44 0863.26
2015 04 09 12 36 37 .54     -24    181     50    183    190 352.2  15.3  33954  286.08 0863.26
2015 04 09 12 36 37 .79     -34    179      8    183    184 349.3   2.8  33976  286.46 0863.26
2015 04 09 12 36 38 .04     -29    165     48    168    175 349.8  16.0  33962  286.24 0863.26
2015 04 09 12 36 38 .30     -46    152     83    159    179 343.1  29.8  33986  286.64 0863.26
2015 04 09 12 36 38 .55     -44    130     71    138    155 341.3  29.3  33960  286.20 0863.26
2015 04 09 12 36 38 .80     -58    103     32    119    124 330.6  15.3  33968  286.32 0863.26
2015 04 09 12 36 39 .05     -82     93    -11    125    126 318.6  -5.1  33984  286.59 0863.26
2015 04 09 12 36 39 .30    -105    109    -30    152    156 316.3 -11.3  33978  286.51 0863.26
2015 04 09 12 36 39 .56     -93     87    -11    128    129 313.1  -5.1  33976  286.47 0863.26
2015 04 09 12 36 39 .80     -72    117     12    138    139 328.4   5.0  33982  286.57 0863.26
2015 04 09 12 36 40 .06    -106    116    -22    158    160 317.7  -8.0  33970  286.37 0863.26
2015 04 09 12 36 40 .31    -100    100     12    142    143 315.0   4.9  33998  286.84 0863.26
2015 04 09 12 36 40 .56     -84    122     15    149    150 325.3   5.9  34002  286.89 0863.26
2015 04 09 12 36 40 .80    -113    129    -22    172    174 318.8  -7.3  33976  286.47 0863.26
2015 04 09 12 36 41 .06     -98    127    -19    161    163 322.2  -6.7  33978  286.51 0863.26
2015 04 09 12 36 41 .31    -106    161    -24    193    195 326.6  -7.2  33986  286.64 0863.26
2015 04 09 12 36 41 .55    -132    167    -30    214    217 321.7  -8.0  33966  286.30 0863.26
2015 04 09 12 36 41 .81    -142    172    -45    224    229 320.4 -11.5  33922  285.56 0863.26
2015 04 09 12 36 42 .06    -135    167    -46    216    221 321.0 -12.2  33904  285.24 0863.26
2015 04 09 12 36 42 .32    -136    163    -42    213    218 320.1 -11.3  33934  285.76 0863.26
2015 04 09 12 36 42 .56    -106    166    -39    198    202 327.5 -11.3  33958  286.17 0863.26
2015 04 09 12 36 42 .81    -109    172    -41    204    209 327.5 -11.3  33986  286.62 0863.25
2015 04 09 12 36 43 .06    -109    172    -41    204    209 327.5 -11.6  33956  286.14 0863.25
2015 04 09 12 36 43 .31    -142    151    -37    208    212 316.8 -10.3  33908  285.31 0863.25
2015 04 09 12 36 43 .56    -131    162    -42    209    214 321.0 -11.6  33902  285.21 0863.25
2015 04 09 12 36 43 .82    -152    158    -44    220    225 316.1 -11.5  33908  285.31 0863.25
2015 04 09 12 36 44 .06    -142    166    -43    219    224 319.5 -11.1  33914  285.41 0863.25
2015 04 09 12 36 44 .31    -136    175    -53    222    229 322.1 -13.4  33898  285.16 0863.25
2015 04 09 12 36 44 .56    -144    184    -56    234    241 321.9 -13.7  33892  285.05 0863.25
2015 04 09 12 36 44 .82    -141    179    -55    229    236 321.7 -13.7  33900  285.17 0863.25
2015 04 09 12 36 45 .07    -124    195    -53    232    238 327.4 -12.9  33932  285.72 0863.25
2015 04 09 12 36 45 .32    -144    191    -51    240    246 323.0 -12.2  33890  285.02 0863.25
2015 04 09 12 36 45 .57    -139    190    -54    236    243 323.7 -12.9  33892  285.05 0863.25
2015 04 09 12 36 45 .83    -154    170    -54    230    237 317.7 -13.4  33894  285.07 0863.25
2015 04 09 12 36 46 .08    -145    171    -53    225    232 319.7 -13.3  33888  284.97 0863.25
2015 04 09 12 36 46 .33    -117    171    -53    208    215 325.7 -14.5  33888  284.99 0863.25
2015 04 09 12 36 46 .58    -121    172    -66    211    222 324.8 -17.5  33890  285.01 0863.25
2015 04 09 12 36 46 .83    -108    176    -57    207    215 328.4 -15.4  33890  285.01 0863.25
2015 04 09 12 36 47 .08    -105    179    -70    208    220 329.5 -18.7  33888  284.99 0863.25
2015 04 09 12 36 47 .33     -96    169    -68    195    207 330.4 -19.4  33888  284.97 0863.25
2015 04 09 12 36 47 .58    -118    165    -52    203    210 324.4 -14.5  33892  285.04 0863.25
2015 04 09 12 36 47 .83    -139    152    -55    207    215 317.5 -15.0  33890  285.01 0863.25
2015 04 09 12 36 48 .08    -142    158    -58    213    221 317.9 -15.4  33894  285.09 0863.25
2015 04 09 12 36 48 .33    -140    161    -55    214    222 318.8 -14.5  33892  285.06 0863.25
2015 04 09 12 36 48 .58    -155    141    -50    210    216 312.4 -13.4  33896  285.11 0863.25
2015 04 09 12 36 48 .83    -131    146    -52    197    204 318.1 -15.0  33898  285.14 0863.25
2015 04 09 12 36 49 .08    -139    149    -52    204    211 317.0 -14.3  33904  285.24 0863.25
2015 04 09 12 36 49 .34    -144    159    -50    215    221 317.9 -13.3  33918  285.48 0863.25
2015 04 09 12 36 49 .58    -140    176    -62    225    234 321.5 -15.4  33920  285.53 0863.25
2015 04 09 12 36 49 .83    -133    172    -60    218    227 322.2 -15.4  33914  285.43 0863.25
2015 04 09 12 36 50 .08    -113    179    -55    212    220 327.7 -14.7  33906  285.28 0863.25
2015 04 09 12 36 50 .34    -102    184    -17    211    212 331.0  -4.9  33946  285.95 0863.25
2015 04 09 12 36 50 .58     -96    213     -9    234    235 335.7  -2.2  33944  285.93 0863.25
2015 04 09 12 36 50 .84     -94    180    -41    204    209 332.4 -11.3  33940  285.87 0863.25
2015 04 09 12 36 51 .09     -70    194    -23    207    209 340.0  -6.5  33956  286.12 0863.26
2015 04 09 12 36 51 .34     -61    181     20    192    194 341.3   6.1  33978  286.49 0863.26
2015 04 09 12 36 51 .59     -99    147    -31    178    181 326.2 -10.1  33956  286.14 0863.26
2015 04 09 12 36 51 .84     -86    142    -23    167    169 328.8  -8.0  33940  285.87 0863.26
2015 04 09 12 36 52 .10     -90    164    -44    188    194 331.1 -13.2  33934  285.75 0863.26
2015 04 09 12 36 52 .35     -95    172    -40    197    202 331.0 -11.6  33922  285.56 0863.26
2015 04 09 12 36 52 .61     -64    187    -16    198    199 341.1  -4.9  33964  286.27 0863.26
2015 04 09 12 36 52 .86     -82    198    -44    215    220 337.5 -11.6  33930  285.68 0863.26
2015 04 09 12 36 53 .10    -100    187    -36    213    217 331.7  -9.8  33908  285.31 0863.26
2015 04 09 12 36 53 .35     -87    184    -50    204    211 334.7 -13.9  33902  285.21 0863.26
2015 04 09 12 36 53 .61     -65    180    -40    192    197 340.2 -11.9  33916  285.44 0863.26
2015 04 09 12 36 53 .85     -59    167     15    178    179 340.4   4.9  33964  286.25 0863.26
2015 04 09 12 36 54 .10     -73    178    -10    193    194 337.7  -3.2  33904  285.26 0863.26
2015 04 09 12 36 54 .36     -51    186     -4    193    194 344.6  -1.3  33934  285.75 0863.26
2015 04 09 12 36 54 .61     -76    156     -6    174    175 333.9  -2.3  33918  285.50 0863.26
2015 04 09 12 36 54 .86     -59    170      9    181    182 340.8   2.9  33920  285.51 0863.26
2015 04 09 12 36 55 .11     -60    152      2    164    165 338.4   0.8  33914  285.43 0863.26
2015 04 09 12 36 55 .36     -79    169     -4    187    188 334.7  -1.3  33914  285.43 0863.26
2015 04 09 12 36 55 .61     -83    207     11    224    225 338.2   2.9  33948  285.98 0863.26
2015 04 09 12 36 55 .86     -79    144     27    165    168 331.3   9.5  33958  286.17 0863.26
2015 04 09 12 36 56 .11     -70    112      0    133    134 327.9   0.2  33954  286.08 0863.26
2015 04 09 12 36 56 .36    -247    121    -50    276    281 296.2 -10.4  33946  285.96 0863.26
2015 04 09 12 36 56 .61    -248    113    -50    273    278 294.6 -10.5  33944  285.91 0863.26
2015 04 09 12 36 56 .87    -273    120    -76    299    309 293.7 -14.3  33952  286.04 0863.26
2015 04 09 12 36 57 .11    -264    135    -21    297    298 297.1  -4.1  33932  285.72 0863.26
2015 04 09 12 36 57 .36    -266    140    -60    301    308 297.9 -11.3  33902  285.20 0863.25
2015 04 09 12 36 57 .62    -280    143    -48    315    319 297.1  -8.8  33940  285.84 0863.25
2015 04 09 12 36 57 .87    -284    153    -48    323    327 298.3  -8.6  33954  286.08 0863.25
2015 04 09 12 36 58 .12    -238    146    -40    280    283 301.5  -8.2  33956  286.13 0863.25
2015 04 09 12 36 58 .37    -219    125    -46    253    258 299.8 -10.3  33918  285.49 0863.25
2015 04 09 12 36 58 .62    -243    115    -45    269    273 295.3  -9.6  33918  285.49 0863.25
2015 04 09 12 36 58 .87    -228    125    -71    261    271 298.8 -15.4  33912  285.39 0863.25
2015 04 09 12 36 59 .13    -234     95    -85    253    267 292.2 -18.6  33916  285.44 0863.25
2015 04 09 12 36 59 .38    -249     83    -33    263    266 288.4  -7.3  33916  285.44 0863.25
2015 04 09 12 36 59 .63     -79    115     38    140    146 325.3  15.3  33926  285.61 0863.25
2015 04 09 12 36 59 .88    -120    144     26    188    190 320.3   8.0  33914  285.43 0863.25
2015 04 09 12 37 00 .13    -167    110    -26    201    203 303.3  -7.5  33904  285.26 0863.25
2015 04 09 12 37 00 .38    -164    127    -32    208    211 307.8  -8.8  33910  285.34 0863.25
2015 04 09 12 37 00 .63    -165    122    -42    206    211 306.6 -11.5  33912  285.39 0863.25
2015 04 09 12 37 00 .88    -159    141    -56    213    221 311.6 -14.7  33926  285.63 0863.25
2015 04 09 12 37 01 .13    -153    109    -59    189    199 305.5 -17.5  33914  285.43 0863.25
2015 04 09 12 37 01 .39    -168    119    -19    207    208 305.3  -5.4  33916  285.46 0863.25
2015 04 09 12 37 01 .64    -181    127    -21    222    224 305.1  -5.6  33922  285.56 0863.25
2015 04 09 12 37 01 .89    -181    114    -55    214    222 302.2 -14.5  33924  285.58 0863.25
2015 04 09 12 37 02 .14    -205     96    -76    227    240 295.2 -18.7  33912  285.37 0863.25
2015 04 09 12 37 02 .39    -201     85    -60    219    228 293.1 -15.5  33898  285.14 0863.25
2015 04 09 12 37 02 .64    -190     76    -65    205    216 291.8 -17.6  33922  285.56 0863.25
2015 04 09 12 37 02 .89    -204    112    -72    233    245 298.8 -17.3  33932  285.72 0863.25
2015 04 09 12 37 03 .14    -201    100    -62    225    234 296.6 -15.5  33934  285.76 0863.25
2015 04 09 12 37 03 .38    -193    102    -52    219    226 297.8 -13.4  33944  285.93 0863.25
2015 04 09 12 37 03 .64    -200    107    -45    228    233 298.2 -11.3  33936  285.80 0863.25
2015 04 09 12 37 03 .89    -191    125    -54    229    236 303.3 -13.4  33932  285.71 0863.24
2015 04 09 12 37 04 .14    -173    134    -64    220    230 307.8 -16.4  33930  285.70 0863.24
2015 04 09 12 37 04 .39    -204    119    -82    237    251 300.4 -19.1  33934  285.76 0863.24
2015 04 09 12 37 04 .64    -162    119    -69    202    213 306.4 -23.3  33934  285.76 0863.24
2015 04 09 12 37 04 .89    -174     82    -57    193    202 295.2 -16.4  33912  285.39 0863.24
2015 04 09 12 37 05 .15    -164     89    -55    187    195 298.6 -16.4  33942  285.88 0863.24
2015 04 09 12 37 05 .39    -165    115    -41    202    207 304.9 -11.5  33942  285.88 0863.24
2015 04 09 12 37 05 .64    -152    116    -24    192    194 307.3  -7.3  33932  285.71 0863.25
2015 04 09 12 37 05 .89    -129    113    -20    172    174 311.1  -6.9  33938  285.82 0863.25
2015 04 09 12 37 06 .15    -115     95    -41    150    156 309.6 -15.5  33942  285.90 0863.25
2015 04 09 12 37 06 .40    -104     78    -39    130    135 306.9 -21.8  33926  285.63 0863.25
2015 04 09 12 37 06 .65    -111     91    -18    144    146 309.5  -7.3  33928  285.66 0863.25
2015 04 09 12 37 06 .90    -122     56    -20    135    137 294.8  -8.8  33912  285.38 0863.25
2015 04 09 12 37 07 .15    -121     62    -19    137    139 297.1  -8.2  33902  285.21 0863.25
2015 04 09 12 37 07 .41    -120     52    -16    131    133 293.5  -7.3  33916  285.46 0863.25
2015 04 09 12 37 07 .65    -111     40    -24    119    122 289.9 -11.5  33912  285.38 0863.25
2015 04 09 12 37 07 .90    -110     52    -30    122    126 295.3 -13.9  33906  285.28 0863.25
2015 04 09 12 37 08 .15     -96     65    -39    117    124 304.2 -18.7  33904  285.24 0863.25
2015 04 09 12 37 08 .41     -98     58    -35    115    121 300.7 -17.0  33900  285.18 0863.25
2015 04 09 12 37 08 .66     -99     46    -37    110    117 295.2 -18.7  33898  285.14 0863.25
2015 04 09 12 37 08 .91     -98     43    -34    108    114 294.0 -17.6  33898  285.16 0863.25
2015 04 09 12 37 09 .16    -111     52    -22    123    125 295.2 -10.3  33900  285.19 0863.25
2015 04 09 12 37 09 .41    -115     56    -28    129    133 296.2 -12.4  33902  285.21 0863.25
2015 04 09 12 37 09 .66    -103     80    -31    131    135 307.7 -13.4  33898  285.16 0863.25
2015 04 09 12 37 09 .91     -91     57    -16    108    110 302.4  -8.8  33904  285.24 0863.25
2015 04 09 12 37 10 .16    -102     50    -27    114    118 296.2 -13.3  33910  285.34 0863.25
2015 04 09 12 37 10 .41     -91     50    -15    105    107 298.9  -8.2  33910  285.34 0863.25
2015 04 09 12 37 10 .67     -98     45    -13    108    109 294.8  -7.3  33914  285.41 0863.25
2015 04 09 12 37 10 .92     -86     32    -15     92     94 290.4  -9.8  33916  285.46 0863.25
2015 04 09 12 37 11 .17     -57     36      8     68     69 302.5   6.9  33938  285.82 0863.25
2015 04 09 12 37 11 .42     -75     48     -7     90     91 302.9  -4.6  33922  285.56 0863.25
2015 04 09 12 37 11 .66     -76     48    -12     91     92 302.4  -7.7  33924  285.58 0863.25
2015 04 09 12 37 11 .92     -72     47    -15     87     89 303.3  -9.8  33926  285.61 0863.25
2015 04 09 12 37 12 .17     -77     64     -2    101    102 309.6  -1.3  33926  285.63 0863.25
2015 04 09 12 37 12 .42     -48     48      7     69     70 314.9   5.9  33938  285.82 0863.25
2015 04 09 12 37 12 .67     -31     48     13     58     60 327.4  13.2  33942  285.88 0863.25
2015 04 09 12 37 12 .92     -59     32      3     68     69 298.8   2.9  33952  286.05 0863.25
2015 04 09 12 37 13 .18     -42     58     10     72     73 323.9   8.0  33954  286.10 0863.25
2015 04 09 12 37 13 .43     -67     61     -8     91     92 312.2  -5.6  33954  286.10 0863.25
2015 04 09 12 37 13 .68     -54     77    -10     95     96 324.8  -6.2  33968  286.32 0863.25
2015 04 09 12 37 13 .93     -33     73     -8     81     82 335.5  -6.2  33964  286.27 0863.25
2015 04 09 12 37 14 .18     -51     85    -20    100    102 328.8 -11.3  33968  286.32 0863.25
2015 04 09 12 37 14 .43     -41    104     -4    113    114 338.2  -2.2  33970  286.37 0863.25
2015 04 09 12 37 14 .68     -51     94    -20    108    110 331.5 -10.9  33970  286.37 0863.25
2015 04 09 12 37 14 .93     -40     94    -10    103    104 336.8  -5.6  33970  286.37 0863.25
2015 04 09 12 37 15 .19     -32     90     -9     96     97 340.0  -5.6  33980  286.54 0863.25
2015 04 09 12 37 15 .43      -8     94     15     95     97 354.7   9.0  33984  286.59 0863.25
2015 04 09 12 37 15 .68      -3     82     14     83     85 357.3  10.1  33986  286.64 0863.24
2015 04 09 12 37 15 .94       6     77     -8     78     79   4.5  -6.2  33984  286.59 0863.24
2015 04 09 12 37 16 .18      -1     78      1     79     80 359.1   1.2  33988  286.66 0863.24
2015 04 09 12 37 16 .44     -14     82     16     84     86 350.2  11.1  33988  286.66 0863.24
2015 04 09 12 37 16 .69     -20     93      3     96     97 347.5   1.8  33994  286.78 0863.24
2015 04 09 12 37 16 .94     -15     76     16     78     80 348.4  11.6  34006  286.96 0863.24
2015 04 09 12 37 17 .19     -17     52     15     55     58 341.3  15.3  34008  287.01 0863.24
2015 04 09 12 37 17 .44     -18     54     20     58     62 341.3  18.9  34018  287.16 0863.24
2015 04 09 12 37 17 .69     -19     56     34     60     68 341.3  32.4  34024  287.28 0863.24
2015 04 09 12 37 17 .94     -21     33     21     40     45 327.5  30.3  34034  287.43 0863.24
2015 04 09 12 37 18 .19     -21     38     15     44     47 330.1  19.2  34028  287.33 0863.24
2015 04 09 12 37 18 .44      -4     33     14     34     36 352.0  23.0  34010  287.05 0863.25
2015 04 09 12 37 18 .70     -21     21     32     31     44 315.0  49.1  34022  287.25 0863.25
2015 04 09 12 37 18 .94     -18     59     61     62     86 342.2  50.5  34064  287.96 0863.25
2015 04 09 12 37 19 .19     -25     63     74     68    100 338.2  52.2  34050  287.70 0863.25
2015 04 09 12 37 19 .44     -33     73     68     81    105 335.5  44.3  34054  287.77 0863.25
2015 04 09 12 37 19 .69     -24     50     24     56     60 334.5  24.1  34040  287.55 0863.25
2015 04 09 12 37 19 .95     -26     45     28     53     59 330.1  30.3  34048  287.67 0863.25
2015 04 09 12 37 20 .21       6     84     32     85     90   4.4  21.5  34096  288.48 0863.25
2015 04 09 12 37 20 .45     -19     55     39     59     70 340.8  35.6  34078  288.18 0863.25
2015 04 09 12 37 20 .70     -17     95     50     97    109 349.8  29.3  34082  288.26 0863.25
2015 04 09 12 37 20 .95     -24    120     48    123    132 348.4  22.0  34028  287.33 0863.25
2015 04 09 12 37 21 .22     -36    138     47    143    151 345.3  18.4  33984  286.61 0863.25
2015 04 09 12 37 21 .46      -7    157     42    158    164 357.3  15.0  34072  288.09 0863.25
2015 04 09 12 37 21 .71     -32     92     81     98    127 340.8  43.8  34118  288.86 0863.25
2015 04 09 12 37 21 .96     -27     83     80     88    118 341.5  47.5  34124  288.97 0863.25
2015 04 09 12 37 22 .21     -92     65     90    113    144 305.5  42.7  34044  287.62 0863.25
2015 04 09 12 37 22 .46     -78    107     49    133    141 323.9  21.0  34048  287.69 0863.25
2015 04 09 12 37 22 .71     -40    191     38    196    200 348.2  11.1  33956  286.14 0863.25
2015 04 09 12 37 22 .96     -46    177     31    183    186 345.3   9.9  33900  285.18 0863.25
2015 04 09 12 37 23 .21     -63    171     13    183    184 339.7   4.2  33916  285.46 0863.25
2015 04 09 12 37 23 .46     -59    178      9    188    189 341.5   2.8  33910  285.34 0863.25
2015 04 09 12 37 23 .71     -50    177     19    184    186 344.2   6.1  33910  285.34 0863.25
2015 04 09 12 37 23 .96     -58    155     19    166    168 339.3   6.7  33912  285.39 0863.25
2015 04 09 12 37 24 .21     -51    169     10    177    178 343.1   3.3  33914  285.43 0863.25
2015 04 09 12 37 24 .47     -57    166      3    176    177 340.8   1.2  33916  285.46 0863.25
2015 04 09 12 37 24 .71     -44    173     -5    179    180 345.7  -1.6  33912  285.38 0863.24
2015 04 09 12 37 24 .97     -41    172    -12    177    178 346.6  -4.1  33896  285.13 0863.24
2015 04 09 12 37 25 .22     -41    178    -14    183    184 346.9  -4.6  33894  285.09 0863.24
2015 04 09 12 37 25 .47     -46    168      0    175    176 344.6   0.0  33908  285.33 0863.24
2015 04 09 12 37 25 .72     -49    165     -1    173    174 343.5  -0.5  33900  285.19 0863.24
2015 04 09 12 37 25 .96     -36    161     -9    166    167 347.3  -3.1  33892  285.04 0863.24
2015 04 09 12 37 26 .22     -34    167     -6    171    172 348.2  -2.2  33892  285.06 0863.24
2015 04 09 12 37 26 .47     -45    164     -4    171    172 344.6  -1.6  33902  285.21 0863.24
2015 04 09 12 37 26 .72     -40    167    -25    172    174 346.4  -8.6  33902  285.21 0863.24
2015 04 09 12 37 26 .98     -50    149    -22    158    160 341.3  -8.0  33902  285.21 0863.24
2015 04 09 12 37 27 .23     -34    133    -38    138    144 345.3 -15.4  33914  285.43 0863.24
2015 04 09 12 37 27 .48     -26    151    -35    154    159 350.2 -12.9  33910  285.36 0863.24
2015 04 09 12 37 27 .73     -25    125    -25    128    131 348.4 -11.3  33910  285.36 0863.24
2015 04 09 12 37 27 .99     -22    129    -30    131    135 350.2 -12.9  33908  285.33 0863.24
2015 04 09 12 37 28 .23     -18    124    -25    126    129 351.5 -11.3  33908  285.33 0863.24
2015 04 09 12 37 28 .48     -24    113    -14    116    117 348.0  -7.2  33898  285.16 0863.24
2015 04 09 12 37 28 .73     -33    113     -4    118    119 343.5  -2.2  33894  285.07 0863.24
2015 04 09 12 37 28 .98     -29    125     -2    129    130 346.6  -1.2  33896  285.11 0863.24
2015 04 09 12 37 29 .23     -23    130      6    133    134 349.8   2.8  33894  285.09 0863.24
2015 04 09 12 37 29 .48     -31    116      4    121    122 344.9   2.3  33898  285.14 0863.24
2015 04 09 12 37 29 .74     -21    117      6    119    120 349.8   3.3  33892  285.06 0863.24
2015 04 09 12 37 29 .99     -15    112      5    114    115 352.0   2.9  33898  285.14 0863.24
2015 04 09 12 37 30 .24     -10    114      5    115    116 354.7   2.8  33896  285.11 0863.24
2015 04 09 12 37 30 .49     -10    114      5    115    116 354.7   2.8  33896  285.11 0863.24
2015 04 09 12 37 30 .74      -3    121      5    122    123 358.2   2.3  33896  285.11 0863.24
2015 04 09 12 37 30 .99       0    105     -2    106    107   0.5  -1.3  33900  285.19 0863.24
2015 04 09 12 37 31 .24      -4    122    -10    123    124 357.8  -5.1  33918  285.48 0863.24
2015 04 09 12 37 31 .49       5    118      0    119    120   2.7   0.2  33928  285.66 0863.24
2015 04 09 12 37 31 .74       7    125     32    126    131   3.6  14.3  33922  285.56 0863.24
2015 04 09 12 37 31 .99       1     94     22     95     98   1.0  13.2  33934  285.76 0863.24
2015 04 09 12 37 32 .25       2    102     35    103    109   1.4  18.9  33938  285.82 0863.24
2015 04 09 12 37 32 .49       0    115      1    116    117   0.0   0.8  33916  285.44 0863.24
2015 04 09 12 37 32 .74       2    128     -2    129    130   0.9  -1.3  33922  285.55 0863.24
2015 04 09 12 37 33 .00      -8    113     13    114    115 355.5   6.9  33936  285.80 0863.23
2015 04 09 12 37 33 .25      21    152     -3    154    155   8.1  -1.3  33922  285.56 0863.23
2015 04 09 12 37 33 .50      -2    170     34    171    175 359.1  11.4  33956  286.14 0863.23
2015 04 09 12 37 33 .78     -18    160     24    162    164 353.3   8.5  33950  286.03 0863.23
2015 04 09 12 37 34 .01     -32    177     22    181    183 349.5   7.2  33922  285.56 0863.23
2015 04 09 12 37 34 .26     -60    180     12    190    191 341.5   3.6  33922  285.56 0863.23
2015 04 09 12 37 34 .51     -74    167     -8    183    184 335.9  -2.8  33922  285.55 0863.23
2015 04 09 12 37 34 .76     -31    153    -51    157    166 348.4 -17.9  33918  285.50 0863.23
2015 04 09 12 37 35 .01     -23    159    -42    161    167 351.5 -14.7  33920  285.53 0863.23
2015 04 09 12 37 35 .26     -24    191    -17    193    194 352.7  -5.2  33930  285.70 0863.23
2015 04 09 12 37 35 .51     -25    221      0    223    224 353.5   0.2  33934  285.75 0863.23
2015 04 09 12 37 35 .76     -32    188      9    191    192 350.2   2.8  33942  285.88 0863.23
2015 04 09 12 37 36 .01     -10    182     26    183    185 356.6   8.2  33936  285.80 0863.23
2015 04 09 12 37 36 .26     -19    169     23    171    173 353.3   7.8  33948  285.98 0863.23
2015 04 09 12 37 36 .51     -49    172     29    180    183 344.0   9.3  33948  285.98 0863.23
2015 04 09 12 37 36 .77     -51    151     19    160    162 341.3   6.9  33956  286.14 0863.23
2015 04 09 12 37 37 .01     -28    163     -6    166    167 350.0  -2.2  33952  286.07 0863.23
2015 04 09 12 37 37 .27     -36    153     -7    158    159 346.6  -2.6  33960  286.19 0863.23
2015 04 09 12 37 37 .52     -33    128     18    133    135 345.3   8.0  33990  286.69 0863.23
2015 04 09 12 37 37 .77     -37    154      3    159    160 346.2   1.2  34016  287.13 0863.23
2015 04 09 12 37 38 .01     -61    156     21    168    170 338.4   7.2  33998  286.83 0863.23
2015 04 09 12 37 38 .26     -70    139    -21    156    158 333.3  -8.0  33930  285.70 0863.22
2015 04 09 12 37 38 .52     -60    150    -23    162    164 338.2  -8.2  33934  285.76 0863.22
2015 04 09 12 37 38 .77     -57    141     -8    153    154 338.1  -3.1  33932  285.71 0863.22
2015 04 09 12 37 39 .02     -39    156     24    161    163 345.7   8.5  33932  285.71 0863.22
2015 04 09 12 37 39 .28     -54    188     23    196    198 343.7   6.9  33990  286.71 0863.22
2015 04 09 12 37 39 .52     -26    196     31    198    201 352.2   8.9  34014  287.11 0863.22
2015 04 09 12 37 39 .77     -33    195     46    198    204 350.2  13.2  34064  287.96 0863.22
2015 04 09 12 37 40 .03     -26    183     22    185    187 351.8   6.9  33980  286.52 0863.22
2015 04 09 12 37 40 .27     -50    168     41    176    181 343.3  13.2  33980  286.52 0863.22
2015 04 09 12 37 40 .52     -50    159     41    167    173 342.4  13.9  33974  286.44 0863.22
2015 04 09 12 37 40 .78     -89    113    -18    145    147 321.7  -7.2  33950  286.03 0863.22
2015 04 09 12 37 41 .04     -85    186     -8    205    206 335.5  -2.2  33968  286.32 0863.22
2015 04 09 12 37 41 .28     -30    155     42    159    165 348.9  15.0  33978  286.49 0863.22
2015 04 09 12 37 41 .53     -60    231     17    239    240 345.3   4.2  33926  285.61 0863.22
2015 04 09 12 37 41 .78     -79    213     -7    228    229 339.5  -1.8  33904  285.24 0863.22
2015 04 09 12 37 42 .04     -85    223     -6    239    240 339.1  -1.6  33944  285.91 0863.22
2015 04 09 12 37 42 .29     -94    214    -13    235    236 336.2  -3.2  33902  285.22 0863.22
2015 04 09 12 37 42 .54     -89    222     -9    240    241 338.1  -2.2  33902  285.22 0863.22
2015 04 09 12 37 42 .78     -90    212     -2    231    232 337.1  -0.7  33904  285.24 0863.22
2015 04 09 12 37 43 .04     -72    219     -1    231    232 341.7  -0.5  33906  285.28 0863.22
2015 04 09 12 37 43 .29     -67    227      2    237    238 343.5   0.7  33930  285.67 0863.22
2015 04 09 12 37 43 .53     -66    219     -5    229    230 343.1  -1.3  33934  285.75 0863.22
2015 04 09 12 37 43 .79     -69    209     11    221    222 341.5   2.9  33922  285.56 0863.22
2015 04 09 12 37 44 .04     -64    213     11    223    224 343.3   2.9  33922  285.56 0863.22
2015 04 09 12 37 44 .29     -58    189     10    198    199 342.8   2.9  33928  285.65 0863.22
2015 04 09 12 37 44 .54     -43    198     18    203    204 347.7   5.2  33926  285.61 0863.22
2015 04 09 12 37 44 .79    -104    197      3    224    225 332.1   1.0  33912  285.38 0863.22
2015 04 09 12 37 45 .04     -93    243    -18    261    262 339.0  -4.1  33890  285.02 0863.22
2015 04 09 12 37 45 .29     -91    249    -13    266    267 339.9  -2.8  33888  284.98 0863.22
2015 04 09 12 37 45 .54     -99    246    -19    266    267 338.1  -4.1  33890  285.02 0863.22
2015 04 09 12 37 45 .79    -111    235    -33    261    264 334.6  -7.3  33892  285.05 0863.22
2015 04 09 12 37 46 .04    -117    237    -35    265    268 333.7  -7.7  33892  285.05 0863.22
2015 04 09 12 37 46 .30    -119    241    -40    269    273 333.7  -8.6  33894  285.07 0863.22
2015 04 09 12 37 46 .55    -105    199    -40    226    230 332.1 -10.1  33902  285.23 0863.22
2015 04 09 12 37 46 .80     -92    199     -8    220    221 335.3  -2.2  33912  285.38 0863.22
2015 04 09 12 37 47 .05     -74    204     11    218    219 340.0   2.9  33914  285.41 0863.22
2015 04 09 12 37 47 .30     -87    200     22    219    221 336.4   5.9  33916  285.46 0863.22
2015 04 09 12 37 47 .55     -76    197     -1    212    213 338.8  -0.5  33916  285.46 0863.22
2015 04 09 12 37 47 .81     -72    177      1    192    193 337.7   0.5  33936  285.80 0863.22
2015 04 09 12 37 48 .06     -61    149     13    162    163 337.7   4.6  33960  286.19 0863.22
2015 04 09 12 37 48 .31     -50    149      6    158    159 341.5   2.5  33958  286.17 0863.22
2015 04 09 12 37 48 .56     -51    186      5    193    194 344.6   1.6  33948  285.98 0863.22
2015 04 09 12 37 48 .81     -43    211     -8    216    217 348.4  -2.2  33968  286.32 0863.22
2015 04 09 12 37 49 .06     -15    186      5    187    188 355.1   1.6  33974  286.42 0863.22
2015 04 09 12 37 49 .32     -32    136     32    140    144 346.7  13.1  33998  286.84 0863.21
2015 04 09 12 37 49 .56     -52    154     70    163    177 341.3  24.6  34044  287.60 0863.21
2015 04 09 12 37 49 .81     -42    206      3    211    212 348.4   0.8  33912  285.39 0863.21
2015 04 09 12 37 50 .06     -49    214     19    220    221 347.1   5.0  33950  286.02 0863.21
2015 04 09 12 37 50 .32     -52    196     23    203    205 345.1   6.7  33922  285.56 0863.21
2015 04 09 12 37 50 .56     -63    165     13    177    178 339.1   4.2  33916  285.46 0863.21
2015 04 09 12 37 50 .82     -68    169    -14    183    184 337.9  -4.6  33910  285.34 0863.21
2015 04 09 12 37 51 .06     -90    176    -30    198    201 332.8  -8.8  33916  285.44 0863.21
2015 04 09 12 37 51 .32     -95    164    -32    190    193 329.9  -9.8  33918  285.48 0863.21
2015 04 09 12 37 51 .56     -70    174    -17    188    189 337.9  -5.2  33902  285.21 0863.21
2015 04 09 12 37 51 .82     -78    163    -23    181    183 334.4  -7.5  33904  285.24 0863.21
2015 04 09 12 37 52 .07     -89    154    -44    179    185 329.9 -13.9  33914  285.43 0863.21
2015 04 09 12 37 52 .32     -74    158    -15    175    176 334.7  -5.2  33914  285.41 0863.21
2015 04 09 12 37 52 .57     -65    153    -16    167    168 336.8  -5.6  33940  285.85 0863.21
2015 04 09 12 37 52 .83     -53    121     -7    133    134 336.4  -3.1  33956  286.12 0863.21
2015 04 09 12 37 53 .07     -25    133     50    136    144 349.3  20.9  33994  286.76 0863.21
2015 04 09 12 37 53 .33     -43    141     52    148    156 343.0  20.2  34034  287.43 0863.21
2015 04 09 12 37 53 .57     -30    169     63    172    183 349.8  20.7  34060  287.89 0863.21
2015 04 09 12 37 53 .83     -27    103     74    107    130 345.3  37.6  34062  287.91 0863.22
2015 04 09 12 37 54 .07     -37    112     72    118    138 341.7  34.4  34060  287.89 0863.22
2015 04 09 12 37 54 .32     -42     74     72     86    112 330.6  43.8  34050  287.72 0863.22
2015 04 09 12 37 54 .57     -38    131     42    137    144 343.5  17.3  34000  286.86 0863.22
2015 04 09 12 37 54 .83     -33    159     58    163    173 348.0  20.0  33920  285.51 0863.22
2015 04 09 12 37 55 .09     -29    143     63    147    159 348.4  24.6  33932  285.71 0863.22
2015 04 09 12 37 55 .33     -65    128     79    144    164 332.9  31.4  34012  287.06 0863.22
2015 04 09 12 37 55 .59     -41    135     47    142    150 343.1  18.4  33952  286.07 0863.21
2015 04 09 12 37 55 .84     -21    121     36    123    129 349.8  16.3  33966  286.30 0863.21
2015 04 09 12 37 56 .09     -44    139     28    147    150 342.2  11.0  33948  286.00 0863.21
2015 04 09 12 37 56 .34     -47    151     25    159    162 342.6   9.0  33962  286.24 0863.21
2015 04 09 12 37 56 .59     -45    129     17    137    139 340.4   7.1  33980  286.54 0863.21
2015 04 09 12 37 56 .84     -60    126    -23    140    142 334.6  -9.4  34006  286.98 0863.21
2015 04 09 12 37 57 .09     -64    118    -37    135    141 331.5 -15.5  33996  286.79 0863.21
2015 04 09 12 37 57 .34     -47    118     -5    128    129 338.1  -2.2  33996  286.79 0863.21
2015 04 09 12 37 57 .59     -56     94    -23    110    113 329.3 -11.9  33982  286.57 0863.21
2015 04 09 12 37 57 .85     -50    120    -22    131    133 337.3  -9.8  33954  286.08 0863.21
2015 04 09 12 37 58 .09     -53    134     -5    145    146 338.2  -2.2  33962  286.24 0863.21
2015 04 09 12 37 58 .34     -26    142      3    145    146 349.3   1.2  33946  285.95 0863.21
2015 04 09 12 37 58 .59     -34    174    -22    178    180 348.7  -7.2  33920  285.53 0863.21
2015 04 09 12 37 58 .84     -38    188    -18    192    193 348.4  -5.4  33918  285.48 0863.21
2015 04 09 12 37 59 .10     -51    187    -17    194    195 344.6  -5.2  33914  285.43 0863.21
2015 04 09 12 37 59 .35     -72    181    -25    196    198 338.2  -7.3  33922  285.56 0863.22
2015 04 09 12 37 59 .59     -59    154    -36    166    170 338.8 -12.4  33918  285.50 0863.22
2015 04 09 12 37 59 .84     -66    159    -26    173    175 337.3  -8.6  33914  285.43 0863.22
2015 04 09 12 38 00 .10     -66    167    -11    180    181 338.2  -3.7  33912  285.38 0863.22
2015 04 09 12 38 00 .35     -56    185      5    194    195 343.1   1.6  33922  285.55 0863.22
2015 04 09 12 38 00 .60     -37    187    -10    191    192 348.7  -3.1  33932  285.71 0863.22
2015 04 09 12 38 00 .85     -30    185    -17    188    189 350.7  -5.2  33930  285.70 0863.22
2015 04 09 12 38 01 .10     -19    185     -6    187    188 354.0  -2.1  33928  285.65 0863.22
2015 04 09 12 38 01 .35     -22    162     13    164    165 352.0   4.6  33928  285.66 0863.22
2015 04 09 12 38 01 .62       9    186     35    187    191   2.9  10.8  34030  287.38 0863.22
2015 04 09 12 38 01 .86      20    185     29    187    190   6.2   9.0  33998  286.83 0863.22
2015 04 09 12 38 02 .11      21    150     29    152    155   8.0  11.1  33944  285.93 0863.22
2015 04 09 12 38 02 .36      16    147     50    148    157   6.2  18.9  34010  287.03 0863.22
2015 04 09 12 38 02 .61      11    138     47    139    147   4.9  18.9  33960  286.19 0863.22
2015 04 09 12 38 02 .86      -8    141     47    142    150 356.4  18.4  33954  286.08 0863.22
2015 04 09 12 38 03 .12     -13    125     39    126    132 353.7  17.3  33942  285.90 0863.22
2015 04 09 12 38 03 .37       9    138     54    139    149   4.0  22.5  33946  285.97 0863.22
2015 04 09 12 38 03 .62     -21    103     72    106    128 348.4  37.6  33972  286.41 0863.22
2015 04 09 12 38 03 .87     -28    111     81    115    140 345.7  39.1  33990  286.71 0863.22
2015 04 09 12 38 04 .11     -29    108     72    112    133 344.9  35.6  33994  286.78 0863.22
2015 04 09 12 38 04 .37     -29     98     65    103    121 343.1  35.5  34006  286.96 0863.22
2015 04 09 12 38 04 .62     -15    100     52    102    114 351.5  29.3  33980  286.52 0863.22
2015 04 09 12 38 04 .87     -19     98     54    100    113 348.9  31.3  34022  287.25 0863.22
2015 04 09 12 38 05 .13     -32     92     25     98    102 340.8  14.7  33964  286.27 0863.22
2015 04 09 12 38 05 .37     -32     75     16     82     84 336.4  11.6  34006  286.98 0863.22
2015 04 09 12 38 05 .62     -81     59     10    101    102 305.9   5.9  33982  286.57 0863.22
2015 04 09 12 38 05 .87    -114     83    -19    142    144 306.0  -7.7  33970  286.37 0863.22
2015 04 09 12 38 06 .12     -77     93    -19    121    123 320.3  -9.3  33952  286.05 0863.22
2015 04 09 12 38 06 .37     -48    106    -33    117    122 335.5 -16.0  34006  286.98 0863.22
2015 04 09 12 38 06 .62     -49     91     -8    104    105 331.5  -4.6  34010  287.05 0863.22
2015 04 09 12 38 06 .87     -41     69     61     81    101 329.3  40.7  34002  286.91 0863.22
2015 04 09 12 38 07 .12     -54     81     10     98     99 326.2   5.9  34002  286.89 0863.22
2015 04 09 12 38 07 .37     -62    112    -11    129    130 331.0  -5.2  34038  287.50 0863.22
2015 04 09 12 38 07 .63    -113     76     11    137    138 304.1   5.0  33996  286.79 0863.22
2015 04 09 12 38 07 .88     -67     68     53     96    109 315.3  31.4  34020  287.21 0863.22
2015 04 09 12 38 08 .12     -56     64      2     86     87 319.0   1.8  34038  287.52 0863.22
2015 04 09 12 38 08 .38    -204     18    -48    205    211 275.2 -13.2  33946  285.95 0863.22
2015 04 09 12 38 08 .64    -226     49    -53    232    239 282.4 -12.9  33948  285.99 0863.22
2015 04 09 12 38 08 .89    -240     76    -31    252    255 287.7  -7.2  33942  285.89 0863.22
2015 04 09 12 38 09 .14    -234     34    -34    237    240 278.4  -8.3  33938  285.81 0863.22
2015 04 09 12 38 09 .39    -222     17    -46    223    228 274.6 -11.9  33950  286.03 0863.22
2015 04 09 12 38 09 .64    -221     24    -24    223    225 276.2  -6.2  33950  286.02 0863.22
2015 04 09 12 38 09 .89     -80    113     -3    139    140 324.8  -1.3  33984  286.59 0863.22
2015 04 09 12 38 10 .14     -71    112     63    133    147 327.4  27.2  33994  286.78 0863.22
2015 04 09 12 38 10 .39     -89    102     57    136    147 319.0  23.6  33998  286.84 0863.22
2015 04 09 12 38 10 .64     -63    100     25    119    122 327.5  12.2  34002  286.89 0863.22
2015 04 09 12 38 10 .89     -43    109     13    118    119 338.2   6.5  34008  287.01 0863.22
2015 04 09 12 38 11 .14     -66     79     41    104    111 319.9  22.5  34042  287.57 0863.22
2015 04 09 12 38 11 .39     -71     93     21    118    120 322.6  10.1  34038  287.52 0863.22
2015 04 09 12 38 11 .64     -76    107     61    132    145 324.4  26.6  34020  287.21 0863.22
2015 04 09 12 38 11 .90    -125    122     -7    175    176 314.2  -2.3  33978  286.49 0863.22
2015 04 09 12 38 12 .14    -118     99    -20    155    157 310.0  -7.3  33964  286.27 0863.22
2015 04 09 12 38 12 .40    -158     58    -29    169    172 290.4  -9.8  33966  286.29 0863.22
2015 04 09 12 38 12 .65    -198     52    -31    205    208 284.8  -8.8  33970  286.35 0863.22
2015 04 09 12 38 12 .90    -198     52    -31    205    208 284.8  -8.8  33970  286.35 0863.21
2015 04 09 12 38 13 .15    -173     71    -32    188    191 292.4  -9.8  33974  286.44 0863.21
2015 04 09 12 38 13 .40    -124     96    -30    158    161 307.8 -10.9  33982  286.56 0863.21
2015 04 09 12 38 13 .65    -126     89    -26    155    158 305.1  -9.6  33984  286.59 0863.21
2015 04 09 12 38 13 .90    -103    110    -13    151    152 316.8  -5.2  34014  287.11 0863.21
2015 04 09 12 38 14 .15    -118    115    -10    165    166 314.2  -3.7  33982  286.57 0863.21
2015 04 09 12 38 14 .40    -103    115    -11    155    156 318.1  -4.1  33990  286.69 0863.21
2015 04 09 12 38 14 .65     -69     97      8    120    121 324.4   3.8  33996  286.79 0863.22
2015 04 09 12 38 14 .90     -61     84     -4    105    106 323.9  -2.6  34040  287.54 0863.22
2015 04 09 12 38 15 .15     -60     33     41     69     80 298.8  33.5  34046  287.64 0863.22
2015 04 09 12 38 15 .40     -63    -30      3     70     71 244.6   2.9  34008  287.01 0863.22
2015 04 09 12 38 15 .66     -34     11     15     36     39 288.6  21.0  33996  286.81 0863.22
2015 04 09 12 38 15 .92    -160     57    -42    171    177 289.7 -13.9  34008  287.01 0863.22
2015 04 09 12 38 16 .17    -145    119    -44    188    194 309.3 -13.2  34062  287.92 0863.22
2015 04 09 12 38 16 .42    -146     92     13    173    174 302.4   4.6  34088  288.36 0863.22
2015 04 09 12 38 16 .67    -269     -2     -5    270    271 269.4  -1.3  34070  288.04 0863.21
2015 04 09 12 38 16 .92    -287     71    -59    296    302 283.9 -11.3  34086  288.31 0863.21
2015 04 09 12 38 17 .17    -280     75    -11    290    291 285.0  -2.2  34114  288.78 0863.21
2015 04 09 12 38 17 .42    -271    123    -60    298    305 294.4 -11.5  34102  288.58 0863.21
2015 04 09 12 38 17 .67    -178    137    -26    225    227 307.7  -6.7  34088  288.35 0863.21
2015 04 09 12 38 17 .92    -128    268     -3    298    299 334.4  -0.7  34028  287.34 0863.21
2015 04 09 12 38 18 .17    -141    280    -17    314    315 333.3  -3.2  34008  286.99 0863.21
2015 04 09 12 38 18 .42    -187    187    -44    265    269 315.0  -9.6  34032  287.41 0863.22
2015 04 09 12 38 18 .67    -213    145    -33    258    261 304.2  -7.3  34032  287.39 0863.22
2015 04 09 12 38 18 .93    -219    154    -92    268    284 305.1 -18.9  33980  286.53 0863.22
2015 04 09 12 38 19 .17    -200    159    -24    256    258 308.6  -5.4  34034  287.44 0863.22
2015 04 09 12 38 19 .42    -164    144     34    219    222 311.1   8.9  33930  285.70 0863.22
2015 04 09 12 38 19 .67     -83    151     61    173    183 331.3  20.0  33968  286.32 0863.22
2015 04 09 12 38 19 .92    -167    167    -53    237    243 315.0 -12.6  33946  285.94 0863.22
2015 04 09 12 38 20 .17    -172    146    -79    226    240 310.4 -19.4  33914  285.40 0863.22
2015 04 09 12 38 20 .43    -191    113    -62    222    231 300.7 -15.8  33930  285.68 0863.22
2015 04 09 12 38 20 .67    -223     90    -39    241    245 292.0  -9.3  33926  285.61 0863.22
2015 04 09 12 38 20 .93    -246    121    -50    275    280 296.2 -10.4  33900  285.17 0863.22
2015 04 09 12 38 21 .17    -226    126    -57    259    266 299.1 -12.4  33898  285.15 0863.21
2015 04 09 12 38 21 .42    -221    120    -70    252    262 298.6 -15.5  33890  285.02 0863.21
2015 04 09 12 38 21 .67    -211    121    -67    244    254 299.8 -15.5  33892  285.05 0863.21
2015 04 09 12 38 21 .93    -205    109    -59    233    241 298.0 -14.4  33894  285.07 0863.21
2015 04 09 12 38 22 .18    -167     89    -52    190    198 298.2 -15.5  33896  285.11 0863.21
2015 04 09 12 38 22 .43    -195     83    -38    212    216 293.1 -10.3  33890  285.01 0863.21
2015 04 09 12 38 22 .69    -190     89    -57    211    219 295.2 -15.2  33894  285.09 0863.21
2015 04 09 12 38 22 .94    -190     89    -57    211    219 295.2 -15.2  33894  285.09 0863.21
2015 04 09 12 38 23 .19    -169     84    -55    189    197 296.4 -16.4  33898  285.14 0863.21
2015 04 09 12 38 23 .45    -157     74    -49    174    181 295.4 -15.8  33918  285.50 0863.21
2015 04 09 12 38 23 .69    -153     79    -34    173    177 297.5 -11.3  33934  285.76 0863.21
2015 04 09 12 38 23 .94    -130    109    -22    171    173 310.0  -7.3  33936  285.80 0863.22
2015 04 09 12 38 24 .19    -118     86    -18    147    149 306.0  -7.2  33948  286.00 0863.22
2015 04 09 12 38 24 .44    -120     76      2    143    144 302.4   0.8  33954  286.10 0863.22
2015 04 09 12 38 24 .69    -134     48    -16    143    144 289.9  -6.7  33952  286.05 0863.22
2015 04 09 12 38 24 .95    -101     33     -2    107    108 288.2  -1.3  33962  286.24 0863.22
2015 04 09 12 38 25 .20     -99     29     -1    104    105 286.4  -0.7  33962  286.22 0863.22
2015 04 09 12 38 25 .45    -149    -11     -3    150    151 265.6  -1.2  33974  286.44 0863.22
2015 04 09 12 38 25 .70    -169     54    -46    178    184 287.7 -14.7  33978  286.51 0863.22
2015 04 09 12 38 25 .95    -128     48      1    137    138 290.8   0.7  33982  286.56 0863.22
2015 04 09 12 38 26 .20    -144     88    -11    169    170 301.5  -3.7  34008  287.00 0863.22
2015 04 09 12 38 26 .45    -166     43    -24    172    174 284.8  -8.0  34008  287.00 0863.22
2015 04 09 12 38 26 .70     -93     64     13    114    115 304.6   6.9  34014  287.10 0863.22
2015 04 09 12 38 26 .95    -167     28    -45    170    176 279.5 -15.0  33972  286.41 0863.22
2015 04 09 12 38 27 .20    -128     21     -2    130    131 279.6  -1.3  33980  286.54 0863.22
2015 04 09 12 38 27 .45    -167     12    -16    168    169 274.4  -5.6  33970  286.37 0863.21
2015 04 09 12 38 27 .70    -151     25     -3    154    155 279.7  -1.2  33964  286.25 0863.21
2015 04 09 12 38 27 .95    -158    -12     10    159    160 265.7   3.8  33984  286.61 0863.21
2015 04 09 12 38 28 .20    -187     39    -39    192    196 281.9 -11.5  33982  286.56 0863.21
2015 04 09 12 38 28 .45    -182     28    -17    185    186 278.8  -5.4  33974  286.42 0863.21
2015 04 09 12 38 28 .70    -162     55     -9    172    173 288.8  -3.3  33954  286.08 0863.21
2015 04 09 12 38 28 .96    -157     -1    -28    158    161 269.6 -10.3  33950  286.03 0863.21
2015 04 09 12 38 29 .20    -139     16    -12    140    141 276.6  -5.2  33950  286.03 0863.21
2015 04 09 12 38 29 .46    -181     76    -10    197    198 292.8  -3.1  33960  286.19 0863.21
2015 04 09 12 38 29 .72    -163    106      0    195    196 303.1   0.2  33952  286.07 0863.21
2015 04 09 12 38 29 .96    -132    103    -32    168    172 308.0 -10.9  33950  286.02 0863.21
2015 04 09 12 38 30 .22    -112     71    -24    133    136 302.5 -10.3  33948  286.00 0863.21
2015 04 09 12 38 30 .47    -112     65     -8    130    131 300.2  -3.7  33970  286.37 0863.21
2015 04 09 12 38 30 .72     -72     56     -3     92     93 307.8  -2.2  33994  286.78 0863.21
2015 04 09 12 38 30 .97    -129     42     -9    136    137 288.2  -4.1  33990  286.69 0863.21
2015 04 09 12 38 31 .22    -115     49    -10    125    126 293.1  -4.6  33996  286.79 0863.21
2015 04 09 12 38 31 .47    -141     41    -24    147    150 286.4  -9.4  33990  286.69 0863.21
2015 04 09 12 38 31 .72    -158      9    -11    159    160 273.5  -4.1  33986  286.64 0863.21
2015 04 09 12 38 31 .97    -121     32     -6    126    127 285.0  -3.1  33998  286.83 0863.21
2015 04 09 12 38 32 .22     -54     18     19     57     61 288.6  18.4  34010  287.05 0863.21
2015 04 09 12 38 32 .47     -57     58      4     82     83 315.5   3.3  34008  287.01 0863.21
2015 04 09 12 38 32 .72     -96     47    -13    107    108 296.2  -7.2  33998  286.83 0863.21
2015 04 09 12 38 32 .97     -76     24      4     80     81 288.2   3.3  34012  287.06 0863.21
2015 04 09 12 38 33 .22    -114      8    -31    115    120 274.3 -15.0  34006  286.98 0863.21
2015 04 09 12 38 33 .47    -155     21    -28    157    160 277.9 -10.1  33960  286.19 0863.21
2015 04 09 12 38 33 .72    -165     91    -17    189    190 298.9  -5.2  33956  286.12 0863.20
2015 04 09 12 38 33 .97    -180     72     -7    194    195 291.8  -2.2  33948  286.00 0863.20
2015 04 09 12 38 34 .23    -201    114    -22    232    234 299.5  -5.6  34004  286.94 0863.20
2015 04 09 12 38 34 .47    -203     96    -37    225    229 295.3  -9.4  33974  286.42 0863.20
2015 04 09 12 38 34 .73    -230     78    -38    244    248 288.8  -9.0  33900  285.19 0863.20
2015 04 09 12 38 34 .98    -230     63    -19    239    240 285.5  -4.6  33918  285.49 0863.20
2015 04 09 12 38 35 .23    -253     84    -40    267    271 288.4  -8.6  33946  285.96 0863.20
2015 04 09 12 38 35 .47    -245     62    -39    253    256 284.4  -8.8  33894  285.07 0863.20
2015 04 09 12 38 35 .73    -245     77    -34    257    260 287.5  -7.7  33902  285.20 0863.20
2015 04 09 12 38 35 .98    -207     48    -16    213    214 283.3  -4.4  33926  285.61 0863.20
2015 04 09 12 38 36 .23    -132     62    -16    147    148 295.3  -6.2  33948  286.00 0863.20
2015 04 09 12 38 36 .49    -139    107    -40    176    181 307.8 -12.9  33970  286.35 0863.20
2015 04 09 12 38 36 .74    -147    155    -43    214    219 316.6 -11.3  33982  286.56 0863.20
2015 04 09 12 38 36 .99     -81    128     37    152    157 327.4  13.9  33990  286.69 0863.20
2015 04 09 12 38 37 .24    -177    118    -30    213    216 303.7  -8.0  33986  286.62 0863.20
2015 04 09 12 38 37 .49    -147    146    -41    208    213 314.7 -11.3  33986  286.62 0863.20
2015 04 09 12 38 37 .74     -93    147    -10    175    176 327.5  -3.3  33992  286.73 0863.20
2015 04 09 12 38 37 .99    -112     92     -3    146    147 309.5  -1.3  33984  286.59 0863.20
2015 04 09 12 38 38 .25    -100     98     10    141    142 314.4   4.4  33988  286.67 0863.20
2015 04 09 12 38 38 .50    -100     85     11    132    133 310.4   4.9  33996  286.79 0863.20
2015 04 09 12 38 38 .75     -68     78     54    104    117 319.0  29.3  34010  287.05 0863.20
2015 04 09 12 38 39 .00     -53    111     42    124    132 334.5  18.9  34036  287.47 0863.20
2015 04 09 12 38 39 .25    -152    121    -30    195    198 308.4  -9.0  34014  287.10 0863.20
2015 04 09 12 38 39 .50    -121    142    104    187    213 319.5  31.4  34030  287.38 0863.20
2015 04 09 12 38 39 .75     -68    123     63    141    154 331.0  26.2  34006  286.98 0863.20
2015 04 09 12 38 40 .00    -129    123     82    179    196 313.6  26.2  34070  288.06 0863.20
2015 04 09 12 38 40 .25    -112    172    -14    206    207 326.8  -4.1  34020  287.20 0863.20
2015 04 09 12 38 40 .50     -62    178     35    189    193 340.6  10.6  34056  287.82 0863.20
2015 04 09 12 38 40 .75    -185    150     -9    239    240 309.1  -2.2  34000  286.87 0863.20
2015 04 09 12 38 41 .00    -177    183    -56    255    262 315.9 -12.4  33984  286.60 0863.20
2015 04 09 12 38 41 .25    -161    146    -33    218    221 312.2  -8.8  33902  285.23 0863.20
2015 04 09 12 38 41 .50    -146    128     -9    195    196 311.3  -2.8  33916  285.44 0863.20
2015 04 09 12 38 41 .75    -114    113      2    161    162 314.9   1.0  33934  285.75 0863.20
2015 04 09 12 38 42 .00    -132    134    -14    189    190 315.5  -4.4  33922  285.56 0863.20
2015 04 09 12 38 42 .25    -141    145    -31    203    206 315.7  -8.8  33906  285.29 0863.20
2015 04 09 12 38 42 .50    -148    160    -48    219    225 317.2 -12.4  33892  285.06 0863.20
2015 04 09 12 38 42 .75    -144    159    -50    215    221 317.9 -13.3  33890  285.01 0863.20
2015 04 09 12 38 43 .00    -136    145    -41    200    205 316.8 -11.6  33894  285.09 0863.20
2015 04 09 12 38 43 .26    -128    154    -46    201    207 320.4 -12.9  33898  285.14 0863.20
2015 04 09 12 38 43 .52    -114    159    -40    196    201 324.4 -11.6  33894  285.07 0863.20
2015 04 09 12 38 43 .77    -102    155    -44    186    192 326.6 -13.4  33896  285.11 0863.21
2015 04 09 12 38 44 .02    -110    150    -44    187    193 323.7 -13.4  33898  285.16 0863.21
2015 04 09 12 38 44 .27    -114    159    -40    196    201 324.4 -11.6  33894  285.07 0863.21
2015 04 09 12 38 44 .52    -103    172    -45    201    207 329.0 -12.6  33898  285.16 0863.21
2015 04 09 12 38 44 .77    -125    159    -35    203    207 321.9  -9.8  33912  285.39 0863.22
2015 04 09 12 38 45 .02     -98    159    -34    187    191 328.4 -10.5  33922  285.56 0863.22
2015 04 09 12 38 45 .27    -115    150    -41    190    195 322.6 -12.4  33906  285.29 0863.22
2015 04 09 12 38 45 .52    -109    159    -34    194    198 325.5 -10.1  33900  285.19 0863.22
2015 04 09 12 38 45 .77    -115    176    -42    211    216 326.8 -11.3  33894  285.09 0863.22
2015 04 09 12 38 46 .78     -95    200    -28    222    224 334.5  -7.3  33912  285.38 0863.22
2015 04 09 12 38 47 .03     -90    212     -2    231    232 337.1  -0.7  33932  285.71 0863.22
2015 04 09 12 38 47 .27    -103    195    -21    221    223 332.1  -5.6  33898  285.14 0863.22
2015 04 09 12 38 47 .52    -111    201    -46    230    235 331.1 -11.3  33890  285.02 0863.22
2015 04 09 12 38 47 .77     -95    190    -27    213    215 333.3  -7.3  33890  285.01 0863.22
2015 04 09 12 38 48 .02     -90    189    -30    210    213 334.4  -8.2  33888  284.99 0863.22
2015 04 09 12 38 48 .27     -95    184    -35    208    211 332.6  -9.6  33888  284.99 0863.21
2015 04 09 12 38 48 .53     -95    184    -35    208    211 332.6  -9.6  33888  284.99 0863.21
2015 04 09 12 38 48 .78     -98    196    -45    220    225 333.3 -11.6  33896  285.13 0863.21
2015 04 09 12 38 49 .03    -100    221    -31    243    245 335.7  -7.3  33920  285.52 0863.21
2015 04 09 12 38 49 .28     -98    207    -27    230    232 334.6  -6.9  33908  285.31 0863.21
2015 04 09 12 38 49 .53    -100    202    -34    226    229 333.7  -8.6  33926  285.63 0863.21
2015 04 09 12 38 49 .78    -122    198    -49    233    239 328.4 -11.9  33896  285.12 0863.21
2015 04 09 12 38 50 .03    -111    201    -46    230    235 331.0 -11.3  33910  285.34 0863.21
2015 04 09 12 38 50 .28    -112    202    -45    232    237 331.0 -11.1  33950  286.03 0863.21
2015 04 09 12 38 50 .54     -99    179    -29    205    208 331.1  -8.2  33948  285.98 0863.21
2015 04 09 12 38 50 .79    -125    159    -27    203    205 321.9  -7.7  33908  285.33 0863.21
2015 04 09 12 38 51 .05    -128    162    -31    207    210 321.7  -8.6  33916  285.44 0863.21
2015 04 09 12 38 51 .29    -103    176    -32    205    208 329.7  -9.0  33920  285.53 0863.21
2015 04 09 12 38 51 .54     -84    164    -29    185    188 332.8  -9.0  33894  285.09 0863.21
2015 04 09 12 38 51 .79     -89    171    -34    194    198 332.4 -10.1  33892  285.04 0863.21
2015 04 09 12 38 52 .05     -98    159    -44    187    193 328.4 -13.4  33890  285.01 0863.21
2015 04 09 12 38 52 .30     -95    154    -40    182    187 328.4 -12.6  33892  285.04 0863.21
2015 04 09 12 38 52 .55    -121    146    -39    191    196 320.3 -11.6  33898  285.14 0863.21
2015 04 09 12 38 52 .80    -116    138    -43    181    187 319.9 -13.4  33902  285.23 0863.21
2015 04 09 12 38 53 .05    -119    142    -45    186    192 319.9 -13.7  33890  285.02 0863.21
2015 04 09 12 38 53 .30    -129    140    -50    191    198 317.5 -14.7  33896  285.11 0863.21
2015 04 09 12 38 53 .55    -124    121    -36    174    178 314.2 -11.9  33902  285.21 0863.21
2015 04 09 12 38 53 .80    -121    117    -26    169    172 314.2  -9.0  33906  285.28 0863.21
2015 04 09 12 38 54 .05    -124    101    -15    161    162 309.1  -5.6  33908  285.33 0863.21
2015 04 09 12 38 54 .30    -117     99    -29    154    157 310.4 -10.9  33914  285.41 0863.21
2015 04 09 12 38 54 .55    -131    117    -37    177    181 311.8 -11.9  33896  285.11 0863.21
2015 04 09 12 38 54 .81    -135    107    -43    173    179 308.6 -13.9  33896  285.11 0863.21
2015 04 09 12 38 55 .05    -148    104    -32    181    184 305.1 -10.3  33914  285.43 0863.21
2015 04 09 12 38 55 .31    -140    116    -17    183    184 309.6  -5.4  33924  285.58 0863.21
2015 04 09 12 38 55 .56     -67    122    -15    140    141 331.1  -6.2  33924  285.58 0863.21
2015 04 09 12 38 55 .81     -79     77     17    111    113 314.0   9.0  33946  285.95 0863.21
2015 04 09 12 38 56 .06    -128     94      9    160    161 306.4   3.3  33944  285.93 0863.21
2015 04 09 12 38 56 .31     -86     71     20    112    114 309.6  10.1  33952  286.05 0863.21
2015 04 09 12 38 56 .56     -91    100      6    136    137 317.7   2.9  33954  286.10 0863.21
2015 04 09 12 38 56 .81    -101    107     -3    148    149 316.8  -1.2  33954  286.10 0863.21
2015 04 09 12 38 57 .06     -52     77     11     94     95 325.7   6.9  33962  286.24 0863.21
2015 04 09 12 38 57 .32     -68     79     33    105    111 319.0  17.3  33966  286.30 0863.21
2015 04 09 12 38 57 .57    -106    112    -22    155    157 316.7  -8.2  33954  286.08 0863.21
2015 04 09 12 38 57 .82     -95    108    -34    145    149 318.6 -13.3  33950  286.03 0863.21
2015 04 09 12 38 58 .07     -72    111    -38    133    139 327.0 -16.0  33954  286.08 0863.21
2015 04 09 12 38 58 .32     -52    144    -11    154    155 339.9  -4.1  33948  286.00 0863.22
2015 04 09 12 38 58 .57     -48    144    -26    152    155 341.5  -9.8  33944  285.92 0863.22
2015 04 09 12 38 58 .82     -60    137    -35    150    155 336.4 -13.4  33956  286.14 0863.22
2015 04 09 12 38 59 .07     -43    118    -45    126    134 340.0 -19.7  33954  286.10 0863.22
2015 04 09 12 38 59 .32     -59    104    -32    120    125 330.1 -15.0  33958  286.17 0863.22
2015 04 09 12 38 59 .58     -77    127    -29    149    152 328.8 -11.3  33970  286.35 0863.22
2015 04 09 12 38 59 .82     -90    154    -27    179    182 329.7  -8.6  33980  286.54 0863.22
2015 04 09 12 39 00 .08     -85    133    -37    158    163 327.4 -13.4  33996  286.79 0863.22
2015 04 09 12 39 00 .32     -78    127    -30    150    153 328.4 -11.3  34006  286.98 0863.22
2015 04 09 12 39 00 .58     -73    127    -32    147    151 330.1 -12.4  34014  287.11 0863.22
2015 04 09 12 39 00 .82     -79    135    -36    157    162 329.7 -13.2  33980  286.54 0863.22
2015 04 09 12 39 01 .07    -102    123    -34    160    164 320.4 -12.2  33962  286.24 0863.22
2015 04 09 12 39 01 .33     -77    111    -15    136    137 325.3  -6.7  33978  286.51 0863.22
2015 04 09 12 39 01 .58     -31    156     18    160    162 348.5   6.7  33978  286.51 0863.22
2015 04 09 12 39 01 .83     -33    163      8    167    168 348.4   2.9  34022  287.25 0863.22
2015 04 09 12 39 02 .08     -34    179      0    183    184 349.3   0.0  34014  287.11 0863.22
2015 04 09 12 39 02 .33     -67    188     29    200    203 340.4   8.5  33992  286.74 0863.22
2015 04 09 12 39 02 .58     -73    168      9    184    185 336.6   2.8  33904  285.24 0863.22
2015 04 09 12 39 02 .84     -73    177    -12    192    193 337.5  -3.7  33914  285.43 0863.22
2015 04 09 12 39 03 .08     -74    162    -20    179    181 335.3  -6.5  33900  285.19 0863.22
2015 04 09 12 39 03 .33     -64    171    -17    183    184 339.3  -5.4  33898  285.16 0863.22
2015 04 09 12 39 03 .58     -66    163    -16    176    177 337.9  -5.4  33896  285.11 0863.22
2015 04 09 12 39 03 .83     -62    158    -13    170    171 338.6  -4.6  33898  285.14 0863.22
2015 04 09 12 39 04 .08     -54    165     -6    174    175 341.7  -2.1  33894  285.09 0863.22
2015 04 09 12 39 04 .34     -54    165     -6    174    175 341.7  -2.1  33894  285.09 0863.22
2015 04 09 12 39 04 .59     -66    156     -6    170    171 337.1  -2.2  33894  285.09 0863.21
2015 04 09 12 39 04 .85     -58    162      1    173    174 340.2   0.5  33898  285.16 0863.21
2015 04 09 12 39 05 .09     -68    168     -1    182    183 337.9  -0.5  33900  285.19 0863.21
2015 04 09 12 39 05 .34     -51    169     -3    177    178 343.1  -1.1  33896  285.11 0863.21
2015 04 09 12 39 05 .59     -56    161     -6    171    172 340.8  -2.2  33896  285.11 0863.21
2015 04 09 12 39 05 .85     -68    157     -5    172    173 336.6  -1.8  33904  285.24 0863.21
2015 04 09 12 39 06 .10     -56    158     -9    168    169 340.2  -3.1  33904  285.24 0863.21
2015 04 09 12 39 06 .35     -61    165     -2    177    178 339.7  -0.7  33916  285.46 0863.21
2015 04 09 12 39 06 .60     -83    171    -24    191    193 334.1  -7.2  33950  286.02 0863.21
2015 04 09 12 39 06 .85     -66    181     -7    193    194 340.0  -2.1  33940  285.87 0863.21
2015 04 09 12 39 07 .10     -60    202     -7    211    212 343.3  -2.1  33938  285.82 0863.21
2015 04 09 12 39 07 .35     -65    195     -4    206    207 341.5  -1.3  33962  286.22 0863.22
2015 04 09 12 39 07 .60     -76    168    -14    185    186 335.5  -4.6  33954  286.08 0863.22
2015 04 09 12 39 07 .85     -72    175    -24    190    192 337.5  -7.3  33982  286.56 0863.22
2015 04 09 12 39 08 .10     -82    175    -12    194    195 334.8  -3.7  33946  285.95 0863.22
2015 04 09 12 39 08 .35     -84    181    -31    200    203 335.1  -8.8  33938  285.82 0863.22
2015 04 09 12 39 08 .61     -79    195    -32    211    214 337.9  -8.8  33926  285.63 0863.22
2015 04 09 12 39 08 .86     -49    182      6    189    190 344.9   2.1  33964  286.27 0863.22
2015 04 09 12 39 09 .10     -69    159     21    174    176 336.6   6.9  33964  286.27 0863.22
2015 04 09 12 39 09 .35     -90    190     -2    211    212 334.6  -0.7  33954  286.08 0863.22
2015 04 09 12 39 09 .60    -117    146    -44    188    194 321.3 -13.4  33946  285.95 0863.22
2015 04 09 12 39 09 .85     -93    104    -49    140    148 318.1 -23.8  33934  285.75 0863.22
2015 04 09 12 39 10 .11    -124     88    -53    153    161 305.5 -24.0  33932  285.73 0863.21
2015 04 09 12 39 10 .36     -63    134      1    149    150 334.7   0.7  33950  286.03 0863.21
2015 04 09 12 39 10 .61     -84    175    -25    195    197 334.4  -7.3  33936  285.78 0863.21
2015 04 09 12 39 10 .86     -68    151    -11    166    167 335.5  -3.9  33930  285.68 0863.21
2015 04 09 12 39 11 .12     -36    153     -3    158    159 346.6  -1.1  33962  286.22 0863.21
2015 04 09 12 39 11 .37     -52    161      4    170    171 342.0   1.6  33988  286.67 0863.21
2015 04 09 12 39 11 .62     -55    153     13    163    164 340.0   4.6  33998  286.83 0863.21
2015 04 09 12 39 11 .87     -81    159    -19    179    181 332.8  -6.2  33982  286.56 0863.22
2015 04 09 12 39 12 .13     -83    157    -37    178    182 331.9 -11.9  33974  286.44 0863.22
2015 04 09 12 39 12 .37     -79    162     -4    181    182 334.1  -1.3  33984  286.59 0863.22
2015 04 09 12 39 12 .62     -77    140    -10    160    161 331.1  -3.9  33984  286.59 0863.22
2015 04 09 12 39 12 .88     -67    168    -11    181    182 338.2  -3.7  33990  286.69 0863.22
2015 04 09 12 39 13 .12     -54    173      1    182    183 342.4   0.5  33968  286.32 0863.22
2015 04 09 12 39 13 .37     -55    160     21    170    172 341.1   7.2  33974  286.42 0863.22
2015 04 09 12 39 13 .63     -87    179      0    200    201 334.1   0.2  33970  286.37 0863.21
2015 04 09 12 39 13 .87     -77    160    -13    178    179 334.1  -4.4  33988  286.66 0863.21
2015 04 09 12 39 14 .13    -100    164    -29    193    196 328.6  -8.6  33948  285.98 0863.21
2015 04 09 12 39 14 .38    -151    144    -26    209    211 313.6  -7.3  33974  286.42 0863.21
2015 04 09 12 39 14 .63    -153    126    -17    199    200 309.3  -5.1  33926  285.63 0863.21
2015 04 09 12 39 14 .88    -180    148    -42    234    238 309.5 -10.3  33924  285.57 0863.21
2015 04 09 12 39 15 .13    -168    131    -27    214    216 308.0  -7.2  33928  285.66 0863.21
2015 04 09 12 39 15 .38    -157    137    -27    209    211 311.3  -7.5  33940  285.85 0863.21
2015 04 09 12 39 15 .63    -156    156    -49    221    227 315.0 -12.6  33896  285.11 0863.21
2015 04 09 12 39 15 .88    -150    149    -52    212    219 314.9 -13.9  33892  285.04 0863.21
2015 04 09 12 39 16 .13    -144    159    -50    215    221 317.9 -13.3  33890  285.01 0863.21
2015 04 09 12 39 16 .38    -156    156    -59    221    229 315.0 -15.0  33892  285.04 0863.21
2015 04 09 12 39 16 .63    -155    148    -50    215    221 313.6 -13.2  33890  285.01 0863.21
2015 04 09 12 39 16 .88    -150    149    -52    212    219 314.9 -13.9  33892  285.04 0863.21
2015 04 09 12 39 17 .13    -142    158    -58    213    221 317.9 -15.4  33890  285.02 0863.21
2015 04 09 12 39 17 .41    -128    154    -46    201    207 320.4 -12.9  33926  285.61 0863.21
2015 04 09 12 39 17 .63    -111    166    -53    200    208 326.2 -15.0  33912  285.39 0863.21
2015 04 09 12 39 17 .89    -136    116    -41    179    184 310.4 -13.2  33922  285.55 0863.21
2015 04 09 12 39 18 .14    -155    132    -33    204    207 310.4  -9.3  33928  285.65 0863.21
2015 04 09 12 39 18 .39    -132     95    -22    163    165 305.7  -8.0  33932  285.71 0863.21
2015 04 09 12 39 18 .64    -134    109    -42    173    179 309.1 -13.7  33924  285.58 0863.21
2015 04 09 12 39 18 .89    -122    109    -44    164    170 311.8 -15.2  33926  285.63 0863.21
2015 04 09 12 39 19 .15    -125    107    -39    165    170 310.7 -13.4  33910  285.34 0863.21
2015 04 09 12 39 19 .40    -111    104    -44    153    160 313.2 -16.0  33932  285.71 0863.21
2015 04 09 12 39 19 .65    -104    114    -34    155    159 317.7 -12.4  33976  286.46 0863.21
2015 04 09 12 39 19 .90     -87     72    -15    113    115 309.6  -7.7  33972  286.41 0863.20
2015 04 09 12 39 20 .15    -107    112    -39    156    161 316.3 -14.3  33916  285.44 0863.20
2015 04 09 12 39 20 .40    -100    137    -37    170    175 323.9 -12.4  33936  285.78 0863.20
2015 04 09 12 39 20 .65    -127    137    -53    187    195 317.2 -16.0  33920  285.53 0863.20
2015 04 09 12 39 20 .90    -126    136    -45    186    192 317.2 -13.7  33926  285.61 0863.20
2015 04 09 12 39 21 .15    -128    132    -49    185    192 315.9 -15.0  33928  285.65 0863.20
2015 04 09 12 39 21 .40    -142    106    -61    178    189 306.6 -19.1  33918  285.50 0863.20
2015 04 09 12 39 21 .66    -133    129    -64    186    196 314.2 -24.0  33924  285.60 0863.20
2015 04 09 12 39 21 .90    -128    118    -49    175    181 312.7 -20.2  33946  285.95 0863.21
2015 04 09 12 39 22 .16     -87    112    -39    142    148 322.2 -15.4  33962  286.24 0863.21
2015 04 09 12 39 22 .41     -48    126      1    135    136 339.1   0.8  33984  286.61 0863.21
2015 04 09 12 39 22 .65     -13    145     28    146    149 354.7  11.1  34022  287.25 0863.21
2015 04 09 12 39 22 .91     -15    109     38    111    118 351.9  18.9  34052  287.74 0863.21
2015 04 09 12 39 23 .16     -14     91     45     93    103 351.1  27.3  34036  287.47 0863.21
2015 04 09 12 39 23 .41     -42    102     49    111    121 337.7  25.2  34046  287.64 0863.21
2015 04 09 12 39 23 .65     -40    110     39    118    125 339.9  18.4  34002  286.89 0863.20
2015 04 09 12 39 23 .91      -1    138      0    139    140 359.5  -0.3  33990  286.71 0863.20
2015 04 09 12 39 24 .16     -31    155      9    159    160 348.4   3.3  33964  286.25 0863.20
2015 04 09 12 39 24 .42     -29    129      6    133    134 347.1   2.9  33964  286.25 0863.20
2015 04 09 12 39 24 .66     -43    130     -5    137    138 341.7  -2.2  33992  286.74 0863.20
2015 04 09 12 39 24 .91     -45    129      2    137    138 340.4   1.2  33980  286.52 0863.20
2015 04 09 12 39 25 .17     -47    144     -3    152    153 341.7  -1.3  33938  285.83 0863.20
2015 04 09 12 39 25 .42     -49    146      7    155    156 341.3   2.8  33940  285.87 0863.21
2015 04 09 12 39 25 .68     -44    166      9    172    173 345.1   3.1  33974  286.42 0863.21
2015 04 09 12 39 25 .92     -53    166      8    175    176 342.2   2.9  33970  286.35 0863.21
2015 04 09 12 39 26 .18     -33    162      9    166    167 348.4   3.3  33956  286.14 0863.21
2015 04 09 12 39 26 .44     -11    124     19    125    127 354.7   8.9  34004  286.94 0863.21
2015 04 09 12 39 26 .67     -25    129     20    132    134 348.9   9.0  33962  286.24 0863.21
2015 04 09 12 39 26 .92     -63    125    -12    141    142 333.3  -5.2  33944  285.92 0863.21
2015 04 09 12 39 27 .18     -50    113     -8    124    125 335.9  -3.7  33960  286.19 0863.21
2015 04 09 12 39 27 .42     -48    134     -5    143    144 340.0  -2.2  33990  286.69 0863.21
2015 04 09 12 39 27 .68     -68    134     -4    151    152 332.8  -1.8  34022  287.25 0863.21
2015 04 09 12 39 27 .93     -52    144     22    154    156 339.9   8.2  33986  286.64 0863.21
2015 04 09 12 39 28 .18     -27    123      0    126    127 347.5   0.2  33984  286.61 0863.21
2015 04 09 12 39 28 .43     -41    104      7    113    114 338.2   3.8  33990  286.69 0863.21
2015 04 09 12 39 28 .68     -46     82     -2     95     96 330.6  -1.8  34022  287.25 0863.21
2015 04 09 12 39 28 .93     -33     82     -9     89     90 338.2  -6.2  34034  287.43 0863.21
2015 04 09 12 39 29 .18     -72     72     27    103    107 314.9  14.7  34010  287.03 0863.21
2015 04 09 12 39 29 .43     -51     64     -5     83     84 321.3  -3.7  33978  286.49 0863.21
2015 04 09 12 39 29 .68     -54     70     17     89     91 322.6  11.0  33956  286.14 0863.21
2015 04 09 12 39 29 .93     -45     48     13     66     68 316.7  11.1  33962  286.24 0863.21
2015 04 09 12 39 30 .18     -93     77      1    121    122 309.6   0.8  33926  285.63 0863.21
2015 04 09 12 39 30 .44     -90     86      0    125    126 313.6   0.2  33926  285.61 0863.21
2015 04 09 12 39 30 .69     -89     68     14    113    114 307.3   7.5  33934  285.76 0863.21
2015 04 09 12 39 30 .94     -88     68      5    112    113 307.8   2.9  33934  285.75 0863.21
2015 04 09 12 39 31 .19     -99     83    -22    130    132 310.0  -9.8  33922  285.56 0863.21
2015 04 09 12 39 31 .43    -113    113    -37    160    165 315.0 -13.2  33920  285.53 0863.21
2015 04 09 12 39 31 .69    -117    110    -37    161    166 313.1 -12.9  33924  285.58 0863.21
2015 04 09 12 39 31 .93    -118    110    -28    162    165 313.1 -10.1  33918  285.50 0863.21
2015 04 09 12 39 32 .19    -113    113    -45    160    167 315.0 -15.8  33916  285.46 0863.21
2015 04 09 12 39 32 .45    -106    105    -47    150    158 314.9 -17.6  33912  285.38 0863.21
2015 04 09 12 39 32 .70     -92    103    -38    139    145 318.1 -15.5  33920  285.51 0863.20
2015 04 09 12 39 32 .95    -103    101    -52    145    155 314.4 -19.7  33906  285.28 0863.20
2015 04 09 12 39 33 .20    -105     99    -43    145    151 313.1 -21.7  33900  285.19 0863.20
2015 04 09 12 39 33 .45    -116     84    -41    144    149 305.9 -20.7  33900  285.18 0863.20
2015 04 09 12 39 33 .70    -112     92    -49    146    154 309.5 -23.6  33898  285.16 0863.20
2015 04 09 12 39 33 .95    -107     83    -45    136    143 307.8 -23.8  33898  285.16 0863.20
2015 04 09 12 39 34 .20    -112     83    -42    140    146 306.4 -21.7  33900  285.19 0863.20
2015 04 09 12 39 34 .45     -95     65    -41    116    123 304.2 -24.4  33902  285.21 0863.20
2015 04 09 12 39 34 .70     -87     64    -45    109    117 306.4 -28.0  33902  285.23 0863.21
2015 04 09 12 39 34 .96     -92     63    -42    112    119 304.6 -25.4  33910  285.34 0863.21
2015 04 09 12 39 35 .21     -83     60    -29    103    108 305.9 -16.0  33930  285.68 0863.21
2015 04 09 12 39 35 .46     -84     81    -28    117    121 314.0 -13.4  33954  286.08 0863.21
2015 04 09 12 39 35 .70     -78     60    -17     99    101 307.3  -9.8  33966  286.29 0863.21
2015 04 09 12 39 35 .95     -64     65    -22     92     95 315.3 -13.9  33954  286.08 0863.21
2015 04 09 12 39 36 .21     -74     50    -19     90     93 304.2 -12.4  33970  286.37 0863.21
2015 04 09 12 39 36 .45     -50     57     -1     77     78 318.6  -1.2  33968  286.32 0863.20
2015 04 09 12 39 36 .71     -23     48    -19     54     57 334.6 -23.3  33968  286.32 0863.20
2015 04 09 12 39 36 .96     -41     43    -27     60     65 315.8 -30.6  33982  286.57 0863.20
2015 04 09 12 39 37 .21     -63     44    -27     77     81 305.1 -24.4  33970  286.37 0863.20
2015 04 09 12 39 37 .46     -69     64    -27     95     98 313.1 -20.7  33964  286.27 0863.20
2015 04 09 12 39 37 .71     -74     64    -33     98    104 310.9 -19.1  33962  286.24 0863.20
2015 04 09 12 39 37 .96     -81     98    -39    128    134 320.4 -17.0  33956  286.14 0863.20
2015 04 09 12 39 38 .21     -94     87    -25    129    132 312.7 -11.3  33960  286.20 0863.20
2015 04 09 12 39 38 .46    -106     84    -17    136    138 308.6  -7.3  33960  286.19 0863.20
2015 04 09 12 39 38 .71     -81     93    -24    124    127 319.0 -11.3  33970  286.37 0863.20
2015 04 09 12 39 38 .96     -94     85    -25    127    130 312.2 -11.3  33970  286.37 0863.20
2015 04 09 12 39 39 .22     -79     68     -3    105    106 310.9  -1.8  33968  286.34 0863.20
2015 04 09 12 39 39 .48     -53     71     12     89     90 323.0   8.0  33982  286.56 0863.20
2015 04 09 12 39 39 .72     -69     49      1     85     86 305.5   1.2  33978  286.51 0863.20
2015 04 09 12 39 39 .97     -95     60    -22    113    116 302.4 -11.3  33956  286.14 0863.20
2015 04 09 12 39 40 .23     -91     77     -4    120    121 310.0  -2.2  33980  286.52 0863.20
2015 04 09 12 39 40 .48     -24     52      6     58     59 334.7   5.9  33998  286.84 0863.20
2015 04 09 12 39 40 .73     -43     76     14     88     90 330.6   9.5  34008  287.01 0863.20
2015 04 09 12 39 40 .98     -60     90    -10    109    110 326.2  -5.6  34012  287.06 0863.20
2015 04 09 12 39 41 .22     -62    118    -20    134    136 332.4  -8.8  33998  286.84 0863.20
2015 04 09 12 39 41 .48     -89    101    -31    135    139 318.6 -12.9  33982  286.57 0863.20
2015 04 09 12 39 41 .73     -75    115    -26    138    141 326.6 -10.9  33996  286.79 0863.20
2015 04 09 12 39 41 .98     -55    101    -14    116    117 331.5  -7.3  34010  287.03 0863.20
2015 04 09 12 39 42 .23     -90     59      1    108    109 303.3   0.8  33992  286.73 0863.20
2015 04 09 12 39 42 .48     -37     94     29    102    107 338.6  15.8  34028  287.33 0863.20
2015 04 09 12 39 42 .73     -59     65     46     88     99 317.7  30.3  34038  287.50 0863.20
2015 04 09 12 39 42 .98     -36     76     18     85     87 334.6  12.2  34022  287.23 0863.20
2015 04 09 12 39 43 .23    -107     92     17    142    144 310.9   6.9  33968  286.32 0863.20
2015 04 09 12 39 43 .49    -127     89     -8    156    157 305.1  -3.3  33944  285.93 0863.20
2015 04 09 12 39 43 .73    -107     88    -40    139    145 309.6 -16.0  33972  286.41 0863.20
2015 04 09 12 39 43 .98     -98     92    -31    135    139 313.1 -12.9  33960  286.20 0863.20
2015 04 09 12 39 44 .23     -92     56    -19    109    111 301.5 -10.3  33952  286.05 0863.20
2015 04 09 12 39 44 .49     -87     67    -26    111    115 307.8 -13.4  33952  286.07 0863.20
2015 04 09 12 39 44 .73    -125     91    -30    155    159 306.0 -11.1  33952  286.05 0863.20
2015 04 09 12 39 44 .99    -137     71    -47    155    161 297.5 -22.1  33912  285.39 0863.20
2015 04 09 12 39 45 .24    -142     64    -51    157    165 294.4 -23.6  33918  285.50 0863.20
2015 04 09 12 39 45 .49    -132     71    -49    151    158 298.4 -23.0  33930  285.70 0863.20
2015 04 09 12 39 45 .74    -114     49    -45    125    132 293.5 -24.8  33960  286.20 0863.20
2015 04 09 12 39 46 .01     -93     31    -29     99    103 288.6 -21.2  34036  287.47 0863.20
2015 04 09 12 39 46 .25     -87     12    -26     88     92 277.9 -16.6  34070  288.04 0863.20
2015 04 09 12 39 46 .50     -99     30    -13    104    105 286.8  -7.3  34008  287.01 0863.21
2015 04 09 12 39 46 .75     -74      1     -2     75     76 270.8  -2.2  34004  286.93 0863.21
2015 04 09 12 39 47 .00     -47     -1     -1     48     49 268.3  -2.2  34020  287.21 0863.21
2015 04 09 12 39 47 .25     -34    -44     27     56     62 217.8  27.2  34032  287.42 0863.21
2015 04 09 12 39 47 .50     -90    -43     -6    100    101 244.2  -3.7  34028  287.35 0863.20
2015 04 09 12 39 47 .76    -106    -56     -4    121    122 242.0  -2.2  34046  287.64 0863.20
2015 04 09 12 39 48 .00    -117    -48     -2    127    128 247.4  -1.3  34046  287.65 0863.20
2015 04 09 12 39 48 .25     -71    -28     10     77     78 248.3   7.5  34034  287.43 0863.20
2015 04 09 12 39 48 .50     -69    -57     60     90    108 230.5  36.5  34030  287.38 0863.20
2015 04 09 12 39 48 .76     -56    -53     45     78     90 226.9  32.9  34042  287.57 0863.20
2015 04 09 12 39 49 .01     -76    -31     -5     83     84 247.4  -3.7  34054  287.77 0863.20
2015 04 09 12 39 49 .26     -71    -69     46    100    110 226.0  27.1  34070  288.04 0863.21
2015 04 09 12 39 49 .51     -58    -80     34    100    106 216.1  18.9  34056  287.81 0863.21
2015 04 09 12 39 49 .76     -80    -49     55     95    109 238.5  32.9  34092  288.42 0863.21
2015 04 09 12 39 50 .01     -34    -21     60     41     72 237.6  62.6  34100  288.55 0863.21
2015 04 09 12 39 50 .26     -32     -4     48     33     58 262.1  63.6  34106  288.67 0863.21
2015 04 09 12 39 50 .51     -58     36     43     69     81 302.4  35.0  34094  288.45 0863.21
2015 04 09 12 39 50 .76     -63     -8     -2     64     65 262.1  -2.2  34078  288.18 0863.21
2015 04 09 12 39 51 .01    -123     33    -11    128    129 285.1  -5.2  34044  287.62 0863.21
2015 04 09 12 39 51 .26    -125      7    -14    126    127 273.5  -6.7  33978  286.51 0863.21
2015 04 09 12 39 51 .51    -122     32    -20    127    129 285.1  -9.3  33974  286.42 0863.21
2015 04 09 12 39 51 .76    -109     36    -22    116    119 288.6 -10.9  33960  286.19 0863.21
2015 04 09 12 39 52 .01    -118     31    -22    123    125 285.1 -10.3  33962  286.24 0863.20
2015 04 09 12 39 52 .26    -102     28    -21    106    109 285.5 -11.3  33954  286.10 0863.20
2015 04 09 12 39 52 .51     -91     21    -15     94     96 283.3  -9.3  33948  285.98 0863.20
2015 04 09 12 39 52 .76    -103     16    -21    105    108 278.8 -11.3  33944  285.93 0863.20
2015 04 09 12 39 53 .03     -99     25    -17    103    105 284.2  -9.3  33950  286.03 0863.20
2015 04 09 12 39 53 .28     -73     31     -9     80     81 293.5  -6.7  33970  286.37 0863.20
2015 04 09 12 39 53 .53     -40     36     14     54     56 312.2  15.3  33994  286.76 0863.20
2015 04 09 12 39 53 .78     -35     33      0     49     50 313.1   0.8  33986  286.64 0863.20
2015 04 09 12 39 54 .03     -32     24      6     40     41 306.9   9.0  33990  286.69 0863.20
2015 04 09 12 39 54 .28     -54     18      2     58     59 288.6   2.9  33990  286.71 0863.20
2015 04 09 12 39 54 .53     -18     20      2     28     29 318.6   4.9  34004  286.94 0863.20
2015 04 09 12 39 54 .78     -64     17     -3     67     68 285.1  -3.2  33994  286.78 0863.20
2015 04 09 12 39 55 .03     -56     46    -20     73     76 309.5 -15.5  34000  286.88 0863.20
2015 04 09 12 39 55 .28     -33     29     -1     45     46 311.3  -2.2  34014  287.11 0863.20
2015 04 09 12 39 55 .53     -29     12     10     32     34 293.5  17.3  34026  287.30 0863.20
2015 04 09 12 39 55 .78     -94    -16    -28     96    101 259.9 -16.6  33970  286.37 0863.20
2015 04 09 12 39 56 .03    -118    -24    -33    121    126 258.5 -15.4  33966  286.29 0863.20
2015 04 09 12 39 56 .28    -136    -24    -38    139    145 259.9 -15.5  33976  286.46 0863.20
2015 04 09 12 39 56 .53    -141    -11    -39    142    148 265.2 -15.4  33976  286.46 0863.20
2015 04 09 12 39 56 .79    -158    -37    -18    163    165 256.7  -6.5  34024  287.28 0863.20
2015 04 09 12 39 57 .04    -175    -57    -43    185    191 251.8 -13.2  34028  287.33 0863.20
2015 04 09 12 39 57 .28    -194    -50    -65    201    211 255.4 -23.6  34020  287.20 0863.20
2015 04 09 12 39 57 .54    -176    -58    -63    186    196 251.8 -23.3  34026  287.32 0863.21
2015 04 09 12 39 57 .79    -127    -92     41    157    163 234.0  14.7  34044  287.62 0863.21
2015 04 09 12 39 58 .04    -147   -112     -7    186    187 232.7  -2.2  34020  287.20 0863.21
2015 04 09 12 39 58 .28    -191   -121     -1    227    228 237.5  -0.5  33996  286.81 0863.21
2015 04 09 12 39 58 .54    -165   -113     -7    201    202 235.6  -2.2  33916  285.44 0863.21
2015 04 09 12 39 58 .79    -175    -95    -19    200    201 241.4  -5.6  33950  286.03 0863.21
2015 04 09 12 39 59 .04    -150    -96    -43    179    185 237.4 -13.7  33978  286.49 0863.21
2015 04 09 12 39 59 .29    -167   -107    -13    199    200 237.4  -3.9  33942  285.90 0863.20
2015 04 09 12 39 59 .54    -177   -105    -14    206    207 239.3  -3.9  33974  286.44 0863.20
2015 04 09 12 39 59 .79    -181    -95    -33    205    208 242.2  -9.4  33930  285.70 0863.20
2015 04 09 12 40 00 .06    -167    -74    -50    183    190 246.0 -15.5  33926  285.61 0863.20
2015 04 09 12 40 00 .31    -184    -71    -25    198    200 248.9  -7.2  33968  286.32 0863.20
2015 04 09 12 40 00 .55    -180    -55    -31    189    192 252.9  -9.3  33974  286.44 0863.20
2015 04 09 12 40 00 .81    -174    -48    -43    181    187 254.5 -13.4  33936  285.80 0863.20
2015 04 09 12 40 01 .05    -140    -59    -27    153    156 246.9 -10.1  34050  287.70 0863.20
2015 04 09 12 40 01 .30    -168    -71    -16    183    184 246.9  -5.2  34018  287.16 0863.20
2015 04 09 12 40 01 .56    -126    -70     -6    145    146 240.7  -2.6  34008  287.01 0863.20
2015 04 09 12 40 01 .81    -111   -123     36    167    171 222.1  12.2  34060  287.87 0863.20
2015 04 09 12 40 02 .06    -132   -137     55    191    199 223.9  16.3  34024  287.28 0863.21
2015 04 09 12 40 02 .31    -121   -138     39    184    189 221.2  12.0  33996  286.79 0863.21
2015 04 09 12 40 02 .56    -120   -139     35    184    188 220.8  10.8  33966  286.30 0863.21
2015 04 09 12 40 02 .81    -120   -131     10    178    179 222.5   3.3  33956  286.12 0863.21
2015 04 09 12 40 03 .06    -128   -127      3    181    182 225.4   1.0  33906  285.29 0863.21
2015 04 09 12 40 03 .30    -124   -124     -7    176    177 225.0  -2.3  33908  285.33 0863.21
2015 04 09 12 40 03 .56    -127   -125     -7    179    180 225.6  -2.2  33910  285.36 0863.21
2015 04 09 12 40 03 .81    -127   -113    -18    171    173 228.2  -6.2  33918  285.48 0863.20
2015 04 09 12 40 04 .06    -130   -109    -13    171    172 230.0  -4.6  33962  286.22 0863.20
2015 04 09 12 40 04 .31    -124   -112     17    168    169 227.8   5.9  34012  287.06 0863.20
2015 04 09 12 40 04 .56    -103   -116     36    156    161 221.4  13.2  33996  286.81 0863.20
2015 04 09 12 40 04 .81    -116   -116     24    165    167 225.0   8.5  34016  287.15 0863.20
2015 04 09 12 40 05 .07    -113   -105     19    155    157 226.9   7.2  34020  287.20 0863.20
2015 04 09 12 40 05 .31    -119   -119     36    169    173 225.0  12.2  34050  287.70 0863.20
2015 04 09 12 40 05 .57    -119   -121     33    171    175 224.5  11.1  34060  287.89 0863.20
2015 04 09 12 40 05 .81    -120   -116     40    168    173 226.0  13.7  34060  287.87 0863.20
2015 04 09 12 40 06 .07    -125   -132     28    182    185 223.4   8.8  34064  287.94 0863.20
2015 04 09 12 40 06 .32    -116   -109     15    160    161 226.8   5.7  34050  287.70 0863.20
2015 04 09 12 40 06 .56    -145    -92      1    172    173 237.5   0.5  33936  285.78 0863.20
2015 04 09 12 40 06 .83    -128   -106      2    167    168 230.2   1.0  33922  285.56 0863.20
2015 04 09 12 40 07 .08    -109    -90      2    142    143 230.5   0.8  33984  286.59 0863.20
2015 04 09 12 40 07 .32    -132    -78      0    154    155 239.3   0.2  33926  285.63 0863.20
2015 04 09 12 40 07 .58    -124    -78     -5    147    148 237.6  -2.2  33904  285.26 0863.20
2015 04 09 12 40 07 .83    -123    -73    -11    144    145 239.3  -4.6  33902  285.21 0863.20
2015 04 09 12 40 08 .08    -120    -78     -8    144    145 237.1  -3.2  33912  285.39 0863.20
2015 04 09 12 40 08 .33    -107   -100      4    147    148 226.8   1.8  33950  286.03 0863.20
2015 04 09 12 40 08 .58    -100    -94     -5    138    139 226.9  -2.2  33948  285.98 0863.20
2015 04 09 12 40 08 .83    -100    -92      1    137    138 227.3   0.8  33924  285.58 0863.20
2015 04 09 12 40 09 .08    -110   -110      6    156    157 225.1   2.3  33926  285.63 0863.20
2015 04 09 12 40 09 .33    -113   -105     -3    155    156 226.9  -1.3  33920  285.53 0863.20
2015 04 09 12 40 09 .58    -103    -78     -5    130    131 232.7  -2.2  33922  285.56 0863.20
2015 04 09 12 40 09 .83    -152    -72     -6    169    170 244.7  -2.2  33928  285.66 0863.20
2015 04 09 12 40 10 .08    -141    -94     -3    170    171 236.3  -1.1  33926  285.61 0863.20
2015 04 09 12 40 10 .34    -114   -100      2    153    154 228.7   0.8  33930  285.68 0863.20
2015 04 09 12 40 10 .58    -109   -109      7    155    156 225.1   2.8  33924  285.58 0863.20
2015 04 09 12 40 10 .84    -110    -97      7    147    148 228.7   2.9  33916  285.44 0863.20
2015 04 09 12 40 11 .09    -120   -111      2    164    165 227.3   0.8  33960  286.19 0863.20
2015 04 09 12 40 11 .33    -103   -116     36    156    161 221.4  13.2  33990  286.69 0863.20
2015 04 09 12 40 11 .59     -97    -99     13    139    140 224.5   5.4  33928  285.66 0863.20
2015 04 09 12 40 11 .84    -112    -93      7    146    147 230.4   2.8  33924  285.58 0863.20
2015 04 09 12 40 12 .09    -100    -92      7    137    138 227.3   3.3  33928  285.66 0863.20
2015 04 09 12 40 12 .34    -107   -114     18    157    159 223.2   6.7  33966  286.30 0863.20
2015 04 09 12 40 12 .59    -118   -131     31    177    180 222.1  10.1  34058  287.86 0863.20
2015 04 09 12 40 12 .84    -100   -110     34    150    154 222.3  12.9  34092  288.43 0863.20
2015 04 09 12 40 13 .09     -97   -116     49    152    160 219.7  18.1  34058  287.84 0863.20
2015 04 09 12 40 13 .35    -111   -111     49    157    165 225.0  17.3  34020  287.20 0863.20
2015 04 09 12 40 13 .59     -88   -113     76    144    162 217.8  30.3  34058  287.84 0863.20
2015 04 09 12 40 13 .85     -48   -109     80    120    144 203.6  36.5  34068  288.01 0863.20
2015 04 09 12 40 14 .11     -24    -96     86    100    131 194.3  45.4  34038  287.50 0863.20
2015 04 09 12 40 14 .36     -36    -65     91     75    117 209.0  56.3  34062  287.92 0863.20
2015 04 09 12 40 14 .61     -64    -63     92     90    128 225.4  50.1  34080  288.23 0863.20
2015 04 09 12 40 14 .85     -84    -97     81    129    152 221.0  35.5  34094  288.45 0863.19
2015 04 09 12 40 15 .10     -80   -125     96    149    177 212.6  35.7  33990  286.69 0863.19
2015 04 09 12 40 15 .35     -57    -85    111    103    151 213.8  52.2  34052  287.74 0863.19
2015 04 09 12 40 15 .61     -65   -102     90    122    151 212.6  39.7  34080  288.21 0863.19
2015 04 09 12 40 15 .86     -83   -105    115    135    177 218.3  44.8  34122  288.94 0863.19
2015 04 09 12 40 16 .11     -61   -125     73    140    157 205.9  29.5  33996  286.81 0863.19
2015 04 09 12 40 16 .35     -58   -126     65    139    153 204.9  27.1  33952  286.07 0863.19
2015 04 09 12 40 16 .61     -48   -118     74    128    147 202.3  32.9  33974  286.42 0863.19
2015 04 09 12 40 16 .86     -65   -105     65    124    140 211.6  29.8  33986  286.64 0863.19
2015 04 09 12 40 17 .11     -71   -101     57    124    136 215.2  26.6  33970  286.35 0863.19
2015 04 09 12 40 17 .36     -56   -102     71    117    136 209.0  34.4  33972  286.41 0863.19
2015 04 09 12 40 17 .61     -61   -101     66    119    136 211.2  31.4  33938  285.83 0863.19
2015 04 09 12 40 17 .86     -54    -97     66    112    130 209.0  33.5  33942  285.88 0863.19
2015 04 09 12 40 18 .11     -53    -80     66     97    117 213.8  37.0  33942  285.88 0863.19
2015 04 09 12 40 18 .36     -34   -108     60    114    128 197.4  29.8  33936  285.80 0863.19
2015 04 09 12 40 18 .61     -48   -118     66    128    144 202.3  29.3  33940  285.87 0863.19
2015 04 09 12 40 18 .86     -56   -102     64    117    133 209.0  31.4  33936  285.80 0863.19
2015 04 09 12 40 19 .12     -61   -109     60    126    139 209.4  27.3  33962  286.22 0863.19
2015 04 09 12 40 19 .36     -68   -130     59    147    158 207.6  23.0  33942  285.90 0863.19
2015 04 09 12 40 19 .61     -56   -119     57    132    143 205.4  24.6  33932  285.71 0863.19
2015 04 09 12 40 19 .87     -49   -118     61    128    141 202.7  27.2  33958  286.15 0863.19
2015 04 09 12 40 20 .11     -49   -110     79    121    144 204.1  35.6  33994  286.76 0863.19
2015 04 09 12 40 20 .37     -62   -116     67    132    148 208.1  28.7  33954  286.08 0863.18
2015 04 09 12 40 20 .62     -57   -106     74    121    141 208.1  34.4  33996  286.79 0863.18
2015 04 09 12 40 20 .87     -56    -97     66    113    130 209.9  33.4  34010  287.05 0863.18
2015 04 09 12 40 21 .13     -57    -88     67    106    125 213.0  35.5  33984  286.61 0863.18
2015 04 09 12 40 21 .38     -57    -85     65    103    121 213.8  35.5  33962  286.22 0863.18
2015 04 09 12 40 21 .63     -57   -117     71    131    149 205.9  31.3  33970  286.35 0863.18
2015 04 09 12 40 21 .88     -60   -129     69    143    158 204.9  27.8  33986  286.64 0863.18
2015 04 09 12 40 22 .14     -39   -124     68    131    147 197.4  29.3  33990  286.69 0863.18
2015 04 09 12 40 22 .38     -30   -121     49    125    134 194.3  22.0  33964  286.25 0863.18
2015 04 09 12 40 22 .63     -40   -121     47    128    136 198.5  20.9  33940  285.85 0863.18
2015 04 09 12 40 22 .89     -59   -124     48    138    147 205.5  19.4  33958  286.17 0863.19
2015 04 09 12 40 23 .14     -58   -125     33    138    143 204.9  13.7  33938  285.83 0863.19
2015 04 09 12 40 23 .39     -63   -122     26    138    141 207.6  11.0  33928  285.65 0863.19
2015 04 09 12 40 23 .63     -49   -123     26    133    136 201.8  11.1  33940  285.85 0863.19
2015 04 09 12 40 23 .88     -55   -131     21    143    145 202.7   8.5  33924  285.58 0863.19
2015 04 09 12 40 24 .13     -53   -125     26    137    140 203.2  11.0  33924  285.60 0863.19
2015 04 09 12 40 24 .39     -60   -131     17    145    147 204.5   6.9  33920  285.53 0863.19
2015 04 09 12 40 24 .63     -60   -141     15    154    155 203.2   5.9  33924  285.58 0863.19
2015 04 09 12 40 24 .89     -65   -137     23    152    154 205.5   8.8  33916  285.44 0863.19
2015 04 09 12 40 25 .14     -72   -134     18    153    155 208.1   6.9  33916  285.46 0863.19
2015 04 09 12 40 25 .39     -69   -135     34    152    156 207.2  12.9  33916  285.44 0863.19
2015 04 09 12 40 25 .64     -49   -137     40    146    152 200.0  15.6  33942  285.90 0863.19
2015 04 09 12 40 25 .89     -85   -127     26    153    156 213.8   9.9  33958  286.17 0863.19
2015 04 09 12 40 26 .14     -79   -130     26    153    156 211.2   9.9  33958  286.17 0863.19
2015 04 09 12 40 26 .39     -82   -122     19    148    150 213.8   7.5  33948  286.00 0863.19
2015 04 09 12 40 26 .64     -93   -128     30    159    162 216.1  10.8  33956  286.12 0863.19
2015 04 09 12 40 26 .90    -102   -123     24    161    163 219.6   8.5  33972  286.41 0863.19
2015 04 09 12 40 27 .14     -98   -119     26    155    158 219.7   9.5  33984  286.59 0863.19
2015 04 09 12 40 27 .40     -89   -140     43    167    173 212.5  14.5  33998  286.83 0863.19
2015 04 09 12 40 27 .66     -90   -131     44    160    167 214.5  15.6  34022  287.25 0863.19
2015 04 09 12 40 27 .90     -91   -151     55    177    186 211.2  17.3  34012  287.08 0863.19
2015 04 09 12 40 28 .15     -69   -149     65    165    177 204.9  22.8  33976  286.47 0863.19
2015 04 09 12 40 28 .41     -77   -145     65    165    177 207.9  22.8  33970  286.37 0863.18
2015 04 09 12 40 28 .65     -70   -162     67    177    189 203.4  21.7  33958  286.17 0863.18
2015 04 09 12 40 28 .91     -76   -149     66    168    180 207.2  22.8  34026  287.30 0863.18
2015 04 09 12 40 29 .16     -95   -124     62    157    168 217.4  22.5  34054  287.77 0863.18
2015 04 09 12 40 29 .41    -133   -113     28    175    178 229.6   9.3  34008  287.00 0863.18
2015 04 09 12 40 29 .66    -133   -135     10    190    191 224.5   3.3  33966  286.30 0863.18
2015 04 09 12 40 29 .91    -125   -117      7    172    173 226.7   2.3  33958  286.17 0863.18
2015 04 09 12 40 30 .16    -105   -119      5    159    160 221.4   2.1  33952  286.07 0863.18
2015 04 09 12 40 30 .42    -110   -117      8    161    162 223.2   3.1  33992  286.73 0863.18
2015 04 09 12 40 30 .67     -99    -93      6    137    138 226.9   2.9  33998  286.84 0863.18
2015 04 09 12 40 30 .91     -91    -83     -1    124    125 227.8  -0.7  33978  286.51 0863.18
2015 04 09 12 40 31 .16    -121    -78     -9    145    146 237.1  -3.7  33950  286.02 0863.18
2015 04 09 12 40 31 .42    -116    -97      6    152    153 230.0   2.3  34054  287.79 0863.18
2015 04 09 12 40 31 .66    -127    -92      1    158    159 234.1   0.5  33970  286.37 0863.18
2015 04 09 12 40 31 .91    -108   -108     10    154    155 225.0   3.8  34046  287.65 0863.18
2015 04 09 12 40 32 .16     -85   -125      0    152    153 214.2   0.2  34000  286.88 0863.17
2015 04 09 12 40 32 .41     -89   -125     -6    154    155 215.6  -2.2  33998  286.83 0863.17
2015 04 09 12 40 32 .67     -76    -96     14    123    124 218.3   6.9  33998  286.83 0863.17
2015 04 09 12 40 32 .91     -86   -103     11    135    136 219.6   4.9  33946  285.95 0863.17
2015 04 09 12 40 33 .17     -88   -114     17    145    147 217.8   6.9  33954  286.10 0863.17
2015 04 09 12 40 33 .41    -111   -113     18    159    161 224.7   6.5  33956  286.14 0863.17
2015 04 09 12 40 33 .67    -121    -95      4    155    156 231.8   1.8  33970  286.35 0863.17
2015 04 09 12 40 33 .92    -145    -86      2    169    170 239.3   0.8  33992  286.74 0863.17
2015 04 09 12 40 34 .17    -136    -87     -9    162    163 237.5  -3.3  34058  287.84 0863.17
2015 04 09 12 40 34 .42     -87    -91     25    127    130 223.7  11.1  34080  288.21 0863.17
2015 04 09 12 40 34 .68    -139    -75    -11    158    159 241.6  -4.1  33948  286.00 0863.17
2015 04 09 12 40 34 .93    -122    -80     -5    146    147 236.7  -2.2  33926  285.61 0863.17
2015 04 09 12 40 35 .18    -109    -90     -5    142    143 230.5  -2.2  33940  285.87 0863.17
2015 04 09 12 40 35 .43    -103    -89      0    137    138 229.1  -0.3  33944  285.92 0863.17
2015 04 09 12 40 35 .69    -110    -90     -5    143    144 230.9  -2.2  33964  286.25 0863.17
2015 04 09 12 40 35 .93    -115   -108     24    158    160 226.8   8.8  34004  286.94 0863.17
2015 04 09 12 40 36 .18    -147   -129     12    196    197 228.7   3.6  33926  285.61 0863.17
2015 04 09 12 40 36 .44    -139   -133      6    193    194 226.2   1.8  33946  285.97 0863.17
2015 04 09 12 40 36 .69    -136   -127      1    187    188 226.9   0.5  33990  286.71 0863.17
2015 04 09 12 40 36 .94    -142   -122      0    188    189 229.3   0.2  33964  286.25 0863.17
2015 04 09 12 40 37 .18    -141   -140     18    199    200 225.2   5.4  34022  287.23 0863.17
2015 04 09 12 40 37 .44    -137   -146     29    201    204 223.2   8.2  33992  286.73 0863.17
2015 04 09 12 40 37 .69    -134   -144     46    197    203 223.0  13.2  33994  286.78 0863.17
2015 04 09 12 40 37 .94    -142   -161     58    215    223 221.4  15.3  34000  286.86 0863.17
2015 04 09 12 40 38 .19    -126   -165     46    208    214 217.4  12.6  34030  287.37 0863.17
2015 04 09 12 40 38 .43     -97   -164     61    191    201 210.7  17.9  34048  287.69 0863.17
2015 04 09 12 40 38 .69     -97   -159     58    187    196 211.4  17.3  33946  285.97 0863.17
2015 04 09 12 40 38 .94    -109   -169     35    202    206 212.7   9.9  33900  285.18 0863.17
2015 04 09 12 40 39 .19    -107   -169     31    201    204 212.3   9.0  33900  285.19 0863.17
2015 04 09 12 40 39 .44    -105   -164     17    196    197 212.7   5.0  33900  285.19 0863.17
2015 04 09 12 40 39 .69    -103   -164      5    194    195 212.3   1.6  33900  285.19 0863.17
2015 04 09 12 40 39 .94    -104   -166      3    197    198 212.1   1.0  33902  285.21 0863.17
2015 04 09 12 40 40 .19     -87   -168     -5    190    191 207.4  -1.8  33902  285.21 0863.17
2015 04 09 12 40 40 .45     -83   -158    -15    179    180 207.9  -4.9  33900  285.19 0863.17
2015 04 09 12 40 40 .69     -81   -162    -13    182    183 206.7  -4.4  33902  285.21 0863.17
2015 04 09 12 40 40 .96     -77   -162    -15    180    181 205.4  -4.9  33904  285.24 0863.17
2015 04 09 12 40 41 .19     -82   -162    -27    182    185 207.0  -8.6  33902  285.21 0863.17
2015 04 09 12 40 41 .44     -78   -153    -22    172    174 207.0  -7.3  33902  285.21 0863.17
2015 04 09 12 40 41 .71     -90   -157    -27    182    185 209.9  -8.6  33904  285.26 0863.17
2015 04 09 12 40 41 .96     -73   -170    -19    186    188 203.4  -6.0  33940  285.85 0863.17
2015 04 09 12 40 42 .20     -81   -181     10    199    200 204.1   2.9  33936  285.80 0863.17
2015 04 09 12 40 42 .46     -73   -152     -4    169    170 205.6  -1.6  33914  285.43 0863.17
2015 04 09 12 40 42 .72     -66   -137     -6    153    154 205.9  -2.2  33928  285.66 0863.17
2015 04 09 12 40 42 .96     -68   -145    -21    161    163 205.3  -7.5  33904  285.24 0863.17
2015 04 09 12 40 43 .21     -67   -143      0    159    160 205.3   0.2  33928  285.65 0863.17
2015 04 09 12 40 43 .46     -54   -136    -13    147    148 201.8  -5.2  33914  285.43 0863.17
2015 04 09 12 40 43 .71     -53   -146    -20    156    158 200.1  -7.3  33908  285.31 0863.17
2015 04 09 12 40 43 .96     -53   -161     -6    170    171 198.5  -2.2  33916  285.44 0863.17
2015 04 09 12 40 44 .21     -65   -158      3    171    172 202.5   1.2  33922  285.56 0863.17
2015 04 09 12 40 44 .46     -71   -144      3    161    162 206.3   1.2  33926  285.61 0863.17
2015 04 09 12 40 44 .71     -69   -148      6    164    165 205.2   2.3  33928  285.65 0863.17
2015 04 09 12 40 44 .96     -65   -138    -16    153    154 205.3  -6.2  33922  285.55 0863.17
2015 04 09 12 40 45 .21     -54   -136    -18    147    149 201.8  -7.3  33918  285.50 0863.17
2015 04 09 12 40 45 .46     -70   -125    -45    144    152 209.4 -17.6  33914  285.41 0863.17
2015 04 09 12 40 45 .71     -72   -140    -50    158    166 207.2 -17.6  33896  285.11 0863.17
2015 04 09 12 40 45 .96     -58   -136    -47    148    156 203.2 -17.6  33894  285.09 0863.17
2015 04 09 12 40 46 .21     -58   -136    -47    148    156 203.2 -17.6  33894  285.09 0863.17
2015 04 09 12 40 46 .46     -46   -141    -46    149    155 198.3 -22.8  33896  285.11 0863.17
2015 04 09 12 40 46 .72     -39   -133    -49    139    148 196.5 -19.7  33900  285.18 0863.17
2015 04 09 12 40 46 .97     -46   -138    -40    146    152 198.5 -15.5  33900  285.19 0863.17
2015 04 09 12 40 47 .22     -41   -125    -36    132    137 198.3 -15.4  33902  285.21 0863.17
2015 04 09 12 40 47 .47     -42   -129     -8    136    137 198.3  -3.7  33926  285.61 0863.17
2015 04 09 12 40 47 .72     -71   -129     -3    148    149 209.0  -1.3  33930  285.68 0863.17
2015 04 09 12 40 47 .97     -51   -141     -3    150    151 200.0  -1.3  33924  285.60 0863.17
2015 04 09 12 40 48 .22     -59   -150     10    162    163 201.4   3.8  33912  285.38 0863.17
2015 04 09 12 40 48 .47     -61   -129     -7    144    145 205.5  -3.1  33912  285.38 0863.17
2015 04 09 12 40 48 .73     -67   -133    -24    150    153 206.7  -9.3  33904  285.24 0863.17
2015 04 09 12 40 48 .98     -53   -132    -23    143    145 201.8  -9.3  33900  285.18 0863.17
2015 04 09 12 40 49 .23     -63   -129    -20    144    146 206.3  -8.2  33902  285.23 0863.17
2015 04 09 12 40 49 .48     -63   -129    -20    144    146 206.3  -8.2  33902  285.23 0863.17
2015 04 09 12 40 49 .73     -59   -121    -17    135    137 206.3  -7.2  33902  285.21 0863.17
2015 04 09 12 40 49 .98     -57   -121    -17    134    136 205.3  -7.3  33902  285.23 0863.17
2015 04 09 12 40 50 .23     -61   -117    -17    133    135 207.6  -7.3  33900  285.19 0863.17
2015 04 09 12 40 50 .48     -51   -118    -24    129    132 203.6 -10.9  33900  285.19 0863.17
2015 04 09 12 40 50 .73     -50   -105    -28    117    121 205.3 -13.4  33896  285.13 0863.17
2015 04 09 12 40 50 .98     -64   -103    -28    122    126 211.6 -13.3  33894  285.07 0863.17
2015 04 09 12 40 51 .24     -54   -114    -25    127    130 205.3 -11.5  33902  285.21 0863.17
2015 04 09 12 40 51 .49     -44   -112     -2    121    122 201.8  -1.3  33902  285.23 0863.17
2015 04 09 12 40 51 .74     -51   -116     -2    127    128 203.7  -1.3  33904  285.26 0863.17
2015 04 09 12 40 51 .99     -48   -120     -5    130    131 201.9  -2.6  33902  285.21 0863.17
2015 04 09 12 40 52 .24     -50   -116    -10    127    128 203.2  -4.6  33904  285.26 0863.17
2015 04 09 12 40 52 .49     -44   -111     -6    120    121 201.8  -3.2  33906  285.29 0863.17
2015 04 09 12 40 52 .75     -41   -124     12    131    132 198.3   5.4  33948  285.98 0863.16
2015 04 09 12 40 52 .99     -49   -130     14    140    141 200.9   5.9  33950  286.02 0863.16
2015 04 09 12 40 53 .24     -15   -132     21    133    135 186.7   9.0  33974  286.42 0863.16
2015 04 09 12 40 53 .49     -26   -128     10    131    132 191.5   4.4  33954  286.08 0863.16
2015 04 09 12 40 53 .75     -14   -123      6    124    125 186.7   2.9  33968  286.32 0863.16
2015 04 09 12 40 54 .00     -33   -101     22    107    110 198.3  11.6  33978  286.49 0863.16
2015 04 09 12 40 54 .25     -44   -121     49    129    137 200.0  22.0  34022  287.25 0863.16
2015 04 09 12 40 54 .50     -41   -124     35    131    136 198.3  15.3  34086  288.33 0863.16
2015 04 09 12 40 54 .75     -34   -124     45    129    137 195.6  19.2  34076  288.16 0863.17
2015 04 09 12 40 54 .99     -36   -109     61    115    130 198.3  30.3  34078  288.18 0863.17
2015 04 09 12 40 55 .24     -29   -109     51    113    123 195.1  26.2  34036  287.49 0863.17
2015 04 09 12 40 55 .51     -25    -92     33     96    102 195.6  18.9  34024  287.28 0863.17
2015 04 09 12 40 55 .75     -31    -90     36     96    102 199.2  21.5  34028  287.35 0863.17
2015 04 09 12 40 56 .01     -25    -79     10     84     85 197.8   6.9  34058  287.84 0863.17
2015 04 09 12 40 56 .26     -35    -55     23     66     71 212.5  19.4  34086  288.31 0863.17
2015 04 09 12 40 56 .51     -33    -69     41     77     87 205.5  30.3  34076  288.14 0863.17
2015 04 09 12 40 56 .76     -21    -56     38     61     71 200.9  35.5  34080  288.23 0863.17
2015 04 09 12 40 57 .01     -23    -78     25     82     86 196.5  17.3  34052  287.74 0863.17
2015 04 09 12 40 57 .26     -31    -79     43     86     96 201.8  28.2  34064  287.96 0863.17
2015 04 09 12 40 57 .51     -10    -77     36     78     85 188.0  26.6  34048  287.67 0863.17
2015 04 09 12 40 57 .76     -21    -60     22     64     68 200.0  18.9  34054  287.77 0863.17
2015 04 09 12 40 58 .02     -31    -56     56     65     85 208.9  45.4  34038  287.50 0863.17
2015 04 09 12 40 58 .26     -29    -45     59     54     79 212.5  52.2  34048  287.69 0863.17
2015 04 09 12 40 58 .51     -15    -44     51     47     69 198.7  52.2  34008  287.01 0863.17
2015 04 09 12 40 58 .76     -26    -41     40     49     63 212.5  43.7  34000  286.88 0863.17
2015 04 09 12 40 59 .02     -16    -40     49     44     65 201.8  52.2  34004  286.93 0863.17
2015 04 09 12 40 59 .27     -31    -40     36     51     62 217.8  39.5  34016  287.15 0863.17
2015 04 09 12 40 59 .52     -25    -39     46     47     65 212.5  50.0  34024  287.28 0863.17
2015 04 09 12 40 59 .77     -14    -27     52     31     60 207.2  66.8  34040  287.54 0863.17
2015 04 09 12 41 00 .01       9    -41     36     43     56 167.5  43.8  34026  287.30 0863.17
2015 04 09 12 41 00 .27       9    -41     36     42     55 167.5  44.8  34052  287.74 0863.17
2015 04 09 12 41 00 .52       8    -24     36     26     44 161.7  60.5  34060  287.89 0863.17
2015 04 09 12 41 00 .77      -3    -40     36     41     54 185.3  46.9  34054  287.79 0863.17
2015 04 09 12 41 01 .02       5    -51     20     52     55 173.8  21.0  34020  287.21 0863.17
2015 04 09 12 41 01 .27      14    -56     -2     58     59 165.7  -2.2  34022  287.25 0863.17
2015 04 09 12 41 01 .52      -1    -50      2     51     52 181.8   2.9  34032  287.42 0863.17
2015 04 09 12 41 01 .77      -4    -55      7     56     57 184.4   8.0  34032  287.42 0863.17
2015 04 09 12 41 02 .02      -1    -59     18     60     63 181.8  17.3  34022  287.25 0863.17
2015 04 09 12 41 02 .27      25    -76     -3     81     82 161.7  -2.2  33942  285.90 0863.17
2015 04 09 12 41 02 .54      18    -88    -48     91    102 168.0 -34.2  33928  285.66 0863.17
2015 04 09 12 41 02 .78      13    -88    -52     89    103 171.5 -37.3  33946  285.97 0863.18
2015 04 09 12 41 03 .03      11    -76    -48     77     90 171.1 -39.9  33956  286.14 0863.18
2015 04 09 12 41 03 .30      11    -61    -34     63     71 169.3 -35.7  33966  286.30 0863.18
2015 04 09 12 41 03 .54       0    -47    -32     48     57 180.9 -40.0  33968  286.32 0863.18
2015 04 09 12 41 03 .79       4    -34     -1     35     36 172.0  -2.2  33990  286.71 0863.18
2015 04 09 12 41 04 .04      -1     -4     45      5     45 191.6  90.0  34020  287.20 0863.18
2015 04 09 12 41 04 .29      16    -13     49     21     53 129.5  76.1  34054  287.79 0863.18
2015 04 09 12 41 04 .53      35    -36     54     51     74 135.9  51.2  34020  287.20 0863.17
2015 04 09 12 41 04 .79      57    -47     37     74     82 129.5  28.2  34010  287.03 0863.17
2015 04 09 12 41 05 .03      31    -52     36     61     70 149.3  33.5  34000  286.88 0863.17
2015 04 09 12 41 05 .29      16    -60     35     63     72 164.9  31.4  33996  286.81 0863.17
2015 04 09 12 41 05 .54      19    -93     53     96    109 168.0  31.4  34000  286.88 0863.17
2015 04 09 12 41 05 .79       1    -99     49    100    111 179.1  27.3  33972  286.41 0863.17
2015 04 09 12 41 06 .05      16    -93     30     95    100 170.2  17.9  33962  286.22 0863.17
2015 04 09 12 41 06 .29      33    -81     38     88     95 157.7  25.1  33984  286.59 0863.17
2015 04 09 12 41 06 .54      46    -73     65     87    108 147.5  40.7  33964  286.27 0863.17
2015 04 09 12 41 06 .79      35    -78     40     86     94 155.5  27.1  33940  285.87 0863.17
2015 04 09 12 41 07 .04      51    -94     12    108    109 151.5   6.5  33912  285.39 0863.17
2015 04 09 12 41 07 .29      61    -97      7    115    116 147.9   3.8  33912  285.38 0863.17
2015 04 09 12 41 07 .54      63    -76     -3     99    100 140.4  -2.2  33910  285.34 0863.17
2015 04 09 12 41 07 .79      42    -80     -3     91     92 152.4  -2.2  33906  285.29 0863.17
2015 04 09 12 41 08 .05      65    -57     15     87     89 131.3  10.1  33914  285.43 0863.17
2015 04 09 12 41 08 .30      49    -78     10     93     94 147.5   6.5  33912  285.39 0863.17
2015 04 09 12 41 08 .54      42   -100     36    109    115 157.3  18.4  33914  285.43 0863.17
2015 04 09 12 41 08 .80      48    -86     40     99    106 150.6  23.0  33916  285.46 0863.17
2015 04 09 12 41 09 .05       8    -79     49     80     93 173.8  35.0  33928  285.66 0863.17
2015 04 09 12 41 09 .29      27    -82     54     87    102 161.3  35.0  33938  285.82 0863.17
2015 04 09 12 41 09 .56      47    -85     48     98    109 151.0  27.8  33924  285.58 0863.17
2015 04 09 12 41 09 .81      61    -96     29    114    118 147.5  14.7  33918  285.48 0863.17
2015 04 09 12 41 10 .06      34   -104     25    110    113 161.7  13.2  33918  285.50 0863.17
2015 04 09 12 41 10 .31      32    -95     30    101    106 161.3  16.8  33916  285.46 0863.17
2015 04 09 12 41 10 .56      28    -98     27    103    107 164.0  14.7  33918  285.50 0863.17
2015 04 09 12 41 10 .81       8    -95     22     96     99 174.7  13.2  33920  285.51 0863.17
2015 04 09 12 41 11 .06      14    -80     27     82     87 169.8  18.4  33922  285.56 0863.17
2015 04 09 12 41 11 .31      17    -73     25     76     81 166.6  18.4  33920  285.53 0863.17
2015 04 09 12 41 11 .56      28    -81     60     86    104 160.8  38.6  33930  285.70 0863.17
2015 04 09 12 41 11 .81      36    -70     47     79     91 152.8  34.0  33932  285.73 0863.17
2015 04 09 12 41 12 .06      19    -46     33     50     59 157.3  36.5  33924  285.58 0863.17
2015 04 09 12 41 12 .32      19    -31     31     37     48 147.5  45.8  33932  285.71 0863.17
2015 04 09 12 41 12 .56      36    -45     20     58     62 141.3  18.9  33930  285.68 0863.17
2015 04 09 12 41 12 .82      41    -57     40     71     81 143.9  31.9  33928  285.66 0863.17
2015 04 09 12 41 13 .06      40    -49     46     64     78 140.3  39.7  33934  285.75 0863.17
2015 04 09 12 41 13 .32      46    -49     52     68     85 136.8  41.2  33942  285.88 0863.17
2015 04 09 12 41 13 .57      61    -39     55     73     91 122.4  41.2  33958  286.17 0863.16
2015 04 09 12 41 13 .82      25    -75     60     80    100 161.7  40.7  34028  287.33 0863.16
2015 04 09 12 41 14 .07      31    -41     66     52     84 142.2  57.9  34042  287.59 0863.16
2015 04 09 12 41 14 .32      15    -15     54     22     58 135.0  78.2  34032  287.42 0863.16
2015 04 09 12 41 14 .58      -8      1     49      9     49 281.5  90.0  34076  288.14 0863.16
2015 04 09 12 41 14 .82      -5     -5     47      8     47 225.0  90.0  34078  288.18 0863.16
2015 04 09 12 41 15 .07      -4    -12     55     13     56 198.3  86.9  34104  288.64 0863.16
2015 04 09 12 41 15 .32     -14    -37     65     40     76 201.8  64.7  34078  288.18 0863.16
2015 04 09 12 41 15 .57     -19    -14     47     24     52 234.0  71.9  34072  288.08 0863.16
2015 04 09 12 41 15 .82     -15      5     49     16     51 288.6  80.7  34072  288.09 0863.16
2015 04 09 12 41 16 .07      -2      9     38     10     39 348.4  84.9  34064  287.96 0863.16
2015 04 09 12 41 16 .34     -10     16     36     20     41 327.5  68.8  34042  287.57 0863.16
2015 04 09 12 41 16 .58     -24     33     30     41     50 323.9  39.7  34036  287.49 0863.16
2015 04 09 12 41 16 .83     -30      0     29     31     42 269.2  49.0  34036  287.49 0863.16
2015 04 09 12 41 17 .08     -27    -17     41     33     52 237.6  56.4  34048  287.67 0863.16
2015 04 09 12 41 17 .34     -26    -31     40     41     57 219.6  51.1  34042  287.57 0863.17
2015 04 09 12 41 17 .59     -38      2     30     39     49 274.3  41.7  34046  287.64 0863.17
2015 04 09 12 41 17 .84     -32    -29     33     44     55 227.8  40.7  34050  287.70 0863.17
2015 04 09 12 41 18 .09     -31    -26     29     41     50 230.5  38.6  34050  287.70 0863.17
2015 04 09 12 41 18 .34     -45    -40     43     61     74 227.8  38.6  34046  287.65 0863.17
2015 04 09 12 41 18 .59     -64    -13      0     66     67 258.5   0.8  34012  287.06 0863.17
2015 04 09 12 41 18 .84     -39    -22     15     45     48 240.2  18.9  33986  286.64 0863.17
2015 04 09 12 41 19 .09     -20    -14     21     25     32 234.0  43.8  34002  286.89 0863.17
2015 04 09 12 41 19 .34     -22     -3     29     23     37 260.3  56.4  34002  286.91 0863.17
2015 04 09 12 41 19 .59     -23     -5    -10     24     26 256.7 -27.4  33980  286.54 0863.17
2015 04 09 12 41 19 .84     -12    -16     14     21     25 216.1  35.6  33968  286.34 0863.16
2015 04 09 12 41 20 .09     -28      0     18     29     34 270.8  35.5  33994  286.78 0863.16
2015 04 09 12 41 20 .34     -23      3     17     24     29 277.9  37.6  33996  286.79 0863.16
2015 04 09 12 41 20 .59      -6      6     17      9     19 316.6  68.8  33998  286.83 0863.16
2015 04 09 12 41 20 .84     -20      4      4     21     22 283.3  11.1  33966  286.29 0863.16
2015 04 09 12 41 21 .10     -10      6      8     13     15 302.4  35.5  33976  286.47 0863.16
2015 04 09 12 41 21 .35      -2     23     30     24     38 353.8  56.4  34066  287.98 0863.16
2015 04 09 12 41 21 .59     -21      5     32     22     38 285.1  62.6  34086  288.31 0863.16
2015 04 09 12 41 21 .85       4     -5     28      7     28 136.6  84.9  34082  288.25 0863.16
2015 04 09 12 41 22 .09      -1    -12     32     13     34 184.5  79.2  34086  288.31 0863.16
2015 04 09 12 41 22 .35      -2     -7     23      8     24 198.5  81.0  34092  288.42 0863.16
2015 04 09 12 41 22 .60      -2     -4     33      5     33 212.5  90.0  34062  287.92 0863.16
2015 04 09 12 41 22 .85      -9     -3     29     10     30 248.3  81.0  34050  287.70 0863.16
2015 04 09 12 41 23 .10     -14      1     32     15     35 274.4  72.9  34070  288.04 0863.16
2015 04 09 12 41 23 .36     -13     -4     32     14     34 251.4  73.1  34088  288.36 0863.16
2015 04 09 12 41 23 .61      -5      9     34     11     35 327.5  80.7  34072  288.08 0863.17
2015 04 09 12 41 23 .86      -7      0     38      8     38 270.0  89.0  34056  287.81 0863.17
2015 04 09 12 41 24 .11      -2      5     30      6     30 334.6  89.0  34050  287.70 0863.17
2015 04 09 12 41 24 .36      -4      3     21      6     21 309.5  84.9  34064  287.96 0863.17
2015 04 09 12 41 24 .61      -5      1     20      6     20 288.4  82.8  34058  287.86 0863.17
2015 04 09 12 41 24 .86      -7      4     18      9     20 302.4  70.8  34064  287.94 0863.17
2015 04 09 12 41 25 .11      -7      0     25      8     26 265.6  80.7  34056  287.81 0863.17
2015 04 09 12 41 25 .36      -9      5     19     11     21 302.4  66.8  34040  287.55 0863.16
2015 04 09 12 41 25 .61      -5      9      8     11     13 327.5  39.7  34028  287.33 0863.16
2015 04 09 12 41 25 .86      -8      6      0     11     12 306.0  -1.3  34006  286.98 0863.16
2015 04 09 12 41 26 .11      -1      7      0      8      9 350.3  -2.2  33992  286.74 0863.16
2015 04 09 12 41 26 .36      -4      8     14     10     17 331.0  60.5  33988  286.66 0863.16
2015 04 09 12 41 26 .62       2      1     23      3     23  57.6  90.0  33988  286.66 0863.16
2015 04 09 12 41 26 .86      -8     12     31     15     34 327.5  72.9  33966  286.29 0863.16
2015 04 09 12 41 27 .12       3     -3     30      5     30 136.6  90.0  33988  286.67 0863.16
2015 04 09 12 41 27 .37      -7      6     32     10     33 309.5  80.7  33998  286.83 0863.16
2015 04 09 12 41 27 .62     -12     11     41     17     44 313.3  77.1  33960  286.19 0863.16
2015 04 09 12 41 27 .87     -15     12     29     20     35 309.5  64.6  33968  286.32 0863.16
2015 04 09 12 41 28 .12       0      9     24     10     26 355.5  77.1  33962  286.22 0863.16
2015 04 09 12 41 28 .37      11    -20     18     23     29 151.0  43.7  33978  286.51 0863.16
2015 04 09 12 41 28 .62       1    -20     22     21     30 175.5  50.1  33978  286.51 0863.16
2015 04 09 12 41 28 .87       9    -28     13     30     32 161.3  25.1  33970  286.35 0863.16
2015 04 09 12 41 29 .12      11    -36     13     38     41 163.1  19.2  33954  286.10 0863.16
2015 04 09 12 41 29 .37       1    -43      8     44     45 178.2  11.1  33956  286.14 0863.16
2015 04 09 12 41 29 .62       4    -58      7     59     60 175.5   6.9  33948  286.00 0863.16
2015 04 09 12 41 29 .87       0    -58      3     59     60 180.0   2.9  33938  285.82 0863.15
2015 04 09 12 41 30 .13       5    -72      3     73     74 175.6   2.8  33934  285.76 0863.15
2015 04 09 12 41 30 .39     -24    -79     -3     83     84 197.4  -2.2  33934  285.76 0863.15
2015 04 09 12 41 30 .64     -39    -62     19     74     77 212.5  14.7  33946  285.95 0863.15
2015 04 09 12 41 30 .89     -20    -60     26     64     69 198.7  23.0  33960  286.19 0863.15
2015 04 09 12 41 31 .13     -18    -45     20     49     52 201.8  23.0  33958  286.17 0863.15
2015 04 09 12 41 31 .39     -32    -31      0     45     46 225.9   0.8  33942  285.90 0863.15
2015 04 09 12 41 31 .64     -30    -39    -13     50     52 217.8 -15.4  33942  285.90 0863.16
2015 04 09 12 41 31 .89     -31    -49    -24     59     63 212.6 -27.4  33920  285.53 0863.16
2015 04 09 12 41 32 .14     -26    -56    -19     63     65 205.3 -22.8  33914  285.43 0863.16
2015 04 09 12 41 32 .39     -44    -45    -21     64     68 224.1 -18.7  33918  285.50 0863.16
2015 04 09 12 41 32 .64     -51    -43      0     67     68 229.6  -0.3  33924  285.58 0863.16
2015 04 09 12 41 32 .89     -44    -47    -13     65     67 223.2 -11.5  33920  285.53 0863.16
2015 04 09 12 41 33 .14     -40    -48     -8     63     64 219.7  -7.2  33918  285.48 0863.16
2015 04 09 12 41 33 .39     -48    -49     -3     69     70 224.2  -3.1  33928  285.65 0863.16
2015 04 09 12 41 33 .64     -46    -44     -2     64     65 226.0  -2.2  33926  285.61 0863.16
2015 04 09 12 41 33 .89     -40    -35      2     54     55 228.7   2.9  33934  285.76 0863.16
2015 04 09 12 41 34 .14     -40    -35      2     54     55 228.7   2.9  33934  285.76 0863.16
2015 04 09 12 41 34 .40     -39    -32     -2     51     52 230.4  -2.2  33932  285.71 0863.16
2015 04 09 12 41 34 .64     -39    -32     -2     51     52 230.4  -2.2  33932  285.71 0863.16
2015 04 09 12 41 34 .90     -45    -37     -8     59     60 230.5  -8.2  33934  285.75 0863.16
2015 04 09 12 41 35 .14     -42    -43    -11     61     62 224.1 -10.3  33940  285.87 0863.16
2015 04 09 12 41 35 .40     -33    -53    -17     63     66 212.5 -15.4  33934  285.75 0863.16
2015 04 09 12 41 35 .65     -33    -53    -17     63     66 212.5 -15.4  33944  285.92 0863.16
2015 04 09 12 41 35 .89     -30    -39    -13     50     52 217.8 -15.4  33942  285.90 0863.16
2015 04 09 12 41 36 .15     -33    -45    -19     56     59 216.1 -23.6  33936  285.78 0863.16
2015 04 09 12 41 36 .40     -28    -44    -10     53     55 212.5 -11.3  33934  285.76 0863.16
2015 04 09 12 41 36 .65     -18    -51    -15     55     58 199.2 -15.5  33950  286.03 0863.16
2015 04 09 12 41 36 .90     -22    -47    -18     52     56 205.3 -19.7  33948  286.00 0863.16
2015 04 09 12 41 37 .15     -25    -30     -8     40     41 219.6 -11.3  33940  285.85 0863.16
2015 04 09 12 41 37 .42     -23    -30      4     38     39 217.8   5.9  33956  286.12 0863.16
2015 04 09 12 41 37 .66     -23    -19     23     31     38 230.4  41.7  33978  286.51 0863.16
2015 04 09 12 41 37 .91     -47    -22     14     53     55 244.7  15.3  33968  286.34 0863.16
2015 04 09 12 41 38 .16     -86    -25     -6     90     91 253.6  -4.1  33938  285.82 0863.16
2015 04 09 12 41 38 .41     -65    -13     -4     67     68 258.6  -4.1  33950  286.03 0863.16
2015 04 09 12 41 38 .67     -47    -51     13     70     72 223.2  11.0  33962  286.22 0863.16
2015 04 09 12 41 38 .92     -91    -75      7    118    119 230.5   3.8  33964  286.27 0863.15
2015 04 09 12 41 39 .16     -99    -97     -3    139    140 225.6  -1.3  33968  286.34 0863.15
2015 04 09 12 41 39 .42    -102   -101    -18    144    146 225.2  -7.3  33960  286.19 0863.15
2015 04 09 12 41 39 .67    -100    -68      3    122    123 235.8   1.8  33956  286.12 0863.15
2015 04 09 12 41 39 .92     -83    -65     -4    106    107 231.8  -2.2  33968  286.34 0863.15
2015 04 09 12 41 40 .17     -80    -74     -4    110    111 227.3  -2.2  33968  286.34 0863.15
2015 04 09 12 41 40 .42     -59    -72    -32     94    100 219.6 -18.7  33968  286.32 0863.15
2015 04 09 12 41 40 .67     -73    -38     -3     83     84 242.0  -2.6  33968  286.32 0863.15
2015 04 09 12 41 40 .92     -63    -30     -9     70     71 244.6  -7.3  33968  286.32 0863.15
2015 04 09 12 41 41 .17     -65    -33     -4     74     75 242.9  -3.1  33962  286.22 0863.15
2015 04 09 12 41 41 .42     -70    -28     -3     76     77 248.2  -2.2  33948  286.00 0863.15
2015 04 09 12 41 41 .67     -70    -28     -3     76     77 248.2  -2.2  33948  286.00 0863.15
2015 04 09 12 41 41 .92     -58    -30     -3     66     67 242.0  -3.1  33936  285.80 0863.15
2015 04 09 12 41 42 .17     -35    -36      8     51     52 224.2   9.0  33948  285.98 0863.15
2015 04 09 12 41 42 .42     -48    -26      7     55     56 241.1   8.0  33946  285.97 0863.15
2015 04 09 12 41 42 .67     -40    -16     14     44     47 248.3  18.4  33968  286.34 0863.16
2015 04 09 12 41 42 .93     -30     -8     16     32     35 254.9  27.3  33976  286.47 0863.16
2015 04 09 12 41 43 .17     -16    -16     16     23     28 225.0  37.6  33980  286.54 0863.16
2015 04 09 12 41 43 .43     -43    -30      2     53     54 234.9   2.9  33988  286.66 0863.16
2015 04 09 12 41 43 .68     -56    -31      3     65     66 241.2   2.8  33996  286.79 0863.16
2015 04 09 12 41 43 .92     -44    -33      1     56     57 233.1   1.8  33996  286.79 0863.16
2015 04 09 12 41 44 .19     -44    -44      3     63     64 225.0   2.9  33990  286.71 0863.16
2015 04 09 12 41 44 .44     -28    -43      2     52     53 212.6   2.9  33982  286.56 0863.16
2015 04 09 12 41 44 .69     -47    -50      3     69     70 223.3   2.9  33986  286.64 0863.16
2015 04 09 12 41 44 .94     -47    -36     13     60     62 232.2  12.2  33998  286.83 0863.16
2015 04 09 12 41 45 .19     -41    -40     11     58     60 225.9  11.1  33998  286.84 0863.16
2015 04 09 12 41 45 .44     -33    -43     21     55     58 217.0  22.0  34002  286.91 0863.16
2015 04 09 12 41 45 .69     -28    -37     32     47     56 217.8  36.5  33998  286.83 0863.16
2015 04 09 12 41 45 .94     -19    -28     27     34     43 214.3  42.7  34014  287.10 0863.16
2015 04 09 12 41 46 .19     -18    -45     26     49     55 202.7  30.3  34000  286.88 0863.16
2015 04 09 12 41 46 .45       0    -51     17     52     55 180.9  18.9  34014  287.10 0863.16
2015 04 09 12 41 46 .70     -39    -47     20     62     66 219.7  18.4  34020  287.21 0863.16
2015 04 09 12 41 46 .94     -48    -47     18     68     71 225.9  15.2  34038  287.52 0863.16
2015 04 09 12 41 47 .19     -40    -49     27     64     69 219.6  23.1  34020  287.20 0863.16
2015 04 09 12 41 47 .44     -42    -51     32     67     74 219.6  27.1  34018  287.18 0863.16
2015 04 09 12 41 47 .70     -40    -49     27     64     69 219.6  23.1  34020  287.20 0863.16
2015 04 09 12 41 47 .94     -45    -48     29     67     73 223.2  25.1  34024  287.28 0863.16
2015 04 09 12 41 48 .19     -32    -51     21     61     65 212.5  19.4  34020  287.21 0863.16
2015 04 09 12 41 48 .45     -40    -38      4     56     57 225.9   4.9  34024  287.27 0863.16
2015 04 09 12 41 48 .69     -42    -41     -1     59     60 226.0  -1.2  34002  286.91 0863.16
2015 04 09 12 41 48 .95     -32    -44      2     55     56 216.1   2.9  33990  286.69 0863.16
2015 04 09 12 41 49 .20     -30    -48      0     57     58 212.5   0.8  33990  286.69 0863.16
2015 04 09 12 41 49 .45     -41    -58      8     72     73 215.2   6.9  34008  287.01 0863.16
2015 04 09 12 41 49 .70     -23    -72     12     76     78 198.3   9.5  34010  287.05 0863.16
2015 04 09 12 41 49 .95     -41    -57     18     71     74 216.1  14.3  34028  287.35 0863.16
2015 04 09 12 41 50 .20     -32    -43      4     54     55 217.0   4.9  34028  287.33 0863.16
2015 04 09 12 41 50 .45     -42    -45      3     62     63 223.3   2.9  34032  287.40 0863.16
2015 04 09 12 41 50 .70     -41    -50     22     65     69 219.6  18.9  34036  287.49 0863.16
2015 04 09 12 41 50 .95     -57    -55     23     80     84 225.6  16.3  34044  287.62 0863.16
2015 04 09 12 41 51 .21     -86    -53    -10    102    103 238.5  -5.6  34022  287.23 0863.16
2015 04 09 12 41 51 .47     -65    -66     31     93     99 224.7  18.4  34038  287.52 0863.16
2015 04 09 12 41 51 .71     -91    -59     13    109    110 236.7   6.9  34012  287.06 0863.16
2015 04 09 12 41 51 .97     -97    -53     -5    111    112 241.2  -2.6  34018  287.16 0863.16
2015 04 09 12 41 52 .22    -109    -56    -11    123    124 242.5  -5.2  34024  287.28 0863.16
2015 04 09 12 41 52 .47    -103    -34    -21    109    112 251.4 -10.9  34030  287.38 0863.16
2015 04 09 12 41 52 .72     -98    -38     -5    106    107 248.7  -3.1  34030  287.38 0863.16
2015 04 09 12 41 52 .97    -109     12     -8    110    111 276.6  -4.6  34034  287.43 0863.16
2015 04 09 12 41 53 .22    -113      5    -27    114    118 272.6 -13.4  34022  287.25 0863.16
2015 04 09 12 41 53 .47     -58    -17     -4     61     62 253.2  -4.1  34044  287.62 0863.16
2015 04 09 12 41 53 .72      -1    -35     45     36     57 182.7  56.4  34054  287.79 0863.16
2015 04 09 12 41 53 .97     -32    -32     -2     46     47 225.1  -3.1  34052  287.76 0863.16
2015 04 09 12 41 54 .22     -51    -71     26     88     92 216.1  16.8  34052  287.74 0863.16
2015 04 09 12 41 54 .47    -121    -62      4    137    138 242.9   1.8  34034  287.45 0863.16
2015 04 09 12 41 54 .72    -120    -46    -11    129    130 248.7  -5.2  34030  287.38 0863.16
2015 04 09 12 41 54 .97    -113    -56     -7    127    128 243.8  -3.2  34038  287.52 0863.16
2015 04 09 12 41 55 .22    -106    -61     -6    123    124 239.8  -3.2  34036  287.47 0863.16
2015 04 09 12 41 55 .47     -82    -52      8     98     99 237.6   4.9  34040  287.54 0863.16
2015 04 09 12 41 55 .72    -106    -82      0    135    136 232.2   0.2  34026  287.30 0863.16
2015 04 09 12 41 55 .98     -91    -82      8    123    124 227.8   3.8  34034  287.43 0863.16
2015 04 09 12 41 56 .23     -86    -87     12    123    124 224.5   5.9  34044  287.60 0863.16
2015 04 09 12 41 56 .47     -90    -81      6    122    123 228.2   2.9  34044  287.60 0863.16
2015 04 09 12 41 56 .73     -90    -77     -3    119    120 229.6  -1.8  34032  287.40 0863.16
2015 04 09 12 41 56 .98     -88    -85     10    123    124 226.0   4.9  34048  287.67 0863.16
2015 04 09 12 41 57 .23     -92    -85      6    126    127 227.3   2.8  34050  287.72 0863.16
2015 04 09 12 41 57 .48     -99    -87     13    133    134 228.7   5.9  34084  288.30 0863.16
2015 04 09 12 41 57 .73     -72   -106     33    129    134 214.3  14.7  34138  289.19 0863.16
2015 04 09 12 41 57 .98     -91   -110     54    143    152 219.6  21.0  34108  288.69 0863.16
2015 04 09 12 41 58 .24     -92   -104     53    139    148 221.5  22.0  34086  288.33 0863.16
2015 04 09 12 41 58 .49     -78   -122     58    145    156 212.6  23.0  34076  288.16 0863.16
2015 04 09 12 41 58 .75     -69   -106     60    127    140 213.0  27.1  34098  288.52 0863.16
2015 04 09 12 41 58 .99     -41   -115     48    123    132 200.0  22.0  34116  288.82 0863.16
2015 04 09 12 41 59 .24     -36   -118     31    124    128 196.9  14.3  34104  288.64 0863.16
2015 04 09 12 41 59 .49     -38   -117      3    124    125 198.3   1.8  34108  288.69 0863.16
2015 04 09 12 41 59 .74     -32   -108     17    113    115 196.9   9.0  34102  288.60 0863.16
2015 04 09 12 41 59 .99     -19    -96     45     99    108 191.6  26.6  34110  288.74 0863.16
2015 04 09 12 42 00 .25     -33    -93     67     99    119 199.6  37.6  34118  288.86 0863.16
2015 04 09 12 42 00 .49     -60   -129     63    143    156 204.9  25.2  34120  288.91 0863.16
2015 04 09 12 42 00 .75     -81   -105     47    133    142 217.8  19.4  34048  287.67 0863.16
2015 04 09 12 42 01 .00     -98   -104     28    144    147 223.3  11.0  34062  287.92 0863.16
2015 04 09 12 42 01 .24     -94   -127     31    159    163 216.5  11.1  34062  287.92 0863.16
2015 04 09 12 42 01 .50     -83   -123     30    149    153 214.2  11.4  34060  287.89 0863.16
2015 04 09 12 42 01 .75     -85   -109     15    139    140 217.8   6.5  34068  288.01 0863.16
2015 04 09 12 42 02 .00     -79   -117     -3    142    143 214.2  -1.3  34062  287.91 0863.16
2015 04 09 12 42 02 .25     -86    -87     12    123    124 224.5   5.9  34096  288.50 0863.16
2015 04 09 12 42 02 .50    -117    -81     -7    143    144 235.4  -3.1  34056  287.81 0863.16
2015 04 09 12 42 02 .75    -126    -91     -8    156    157 234.1  -3.3  34048  287.67 0863.16
2015 04 09 12 42 03 .00    -119    -80     -7    144    145 235.8  -3.1  34058  287.86 0863.16
2015 04 09 12 42 03 .25    -108    -84     -7    138    139 232.2  -3.1  34058  287.86 0863.16
2015 04 09 12 42 03 .51    -114    -88      7    145    146 232.2   2.8  34078  288.18 0863.15
2015 04 09 12 42 03 .75    -107    -57     -2    122    123 242.0  -1.3  34126  289.01 0863.15
2015 04 09 12 42 04 .00    -122    -44    -16    130    132 250.0  -7.2  34122  288.92 0863.15
2015 04 09 12 42 04 .25    -101    -47    -20    112    114 245.2 -10.3  34100  288.55 0863.15
2015 04 09 12 42 04 .51    -120    -36    -21    126    128 253.1  -9.8  34086  288.31 0863.15
2015 04 09 12 42 04 .76    -126      9    -33    127    132 274.3 -14.5  34118  288.86 0863.15
2015 04 09 12 42 05 .00    -116    -15    -19    117    119 262.5  -9.3  34116  288.82 0863.15
2015 04 09 12 42 05 .27    -114     28    -28    118    122 284.2 -13.3  34134  289.13 0863.15
2015 04 09 12 42 05 .52     -70     52     14     88     90 306.9   9.5  34134  289.14 0863.15
2015 04 09 12 42 05 .76     -98     82      6    128    129 310.0   2.9  34124  288.97 0863.15
2015 04 09 12 42 06 .02    -158     79    -34    177    181 296.6 -11.1  34066  287.98 0863.15
2015 04 09 12 42 06 .27    -177     28    -19    180    182 279.0  -6.2  34046  287.65 0863.15
2015 04 09 12 42 06 .52    -122      0      6    123    124 270.0   2.8  34066  287.99 0863.15
2015 04 09 12 42 06 .77    -165    -19    -21    167    169 263.2  -7.3  34028  287.33 0863.15
2015 04 09 12 42 07 .02    -153      0     -3    154    155 269.6  -1.3  34042  287.57 0863.15
2015 04 09 12 42 07 .27    -154     -5    -32    155    159 267.9 -11.9  34038  287.50 0863.15
2015 04 09 12 42 07 .52    -162     -4    -17    163    164 268.3  -6.2  34028  287.33 0863.15
2015 04 09 12 42 07 .77    -168    -20    -15    170    171 263.0  -5.4  34042  287.57 0863.15
2015 04 09 12 42 08 .02    -138    -20    -12    140    141 261.6  -5.2  34038  287.52 0863.15
2015 04 09 12 42 08 .27    -143    -47    -19    151    153 251.8  -7.3  34022  287.25 0863.15
2015 04 09 12 42 08 .52    -121    -25    -16    124    126 258.1  -7.7  33998  286.83 0863.15
2015 04 09 12 42 08 .78    -125    -32    -21    130    132 255.4  -9.3  33988  286.66 0863.15
2015 04 09 12 42 09 .03     -83    -44      2     94     95 242.0   1.8  34004  286.93 0863.15
2015 04 09 12 42 09 .28     -93    -31     -2     99    100 251.4  -1.2  34008  287.01 0863.15
2015 04 09 12 42 09 .52    -100    -53    -10    114    115 242.0  -5.2  34002  286.89 0863.15
2015 04 09 12 42 09 .78    -107    -50    -15    119    120 244.7  -7.2  33990  286.69 0863.15
2015 04 09 12 42 10 .03     -63    -31     13     71     73 243.8  11.0  33990  286.71 0863.15
2015 04 09 12 42 10 .28    -110    -30    -14    115    116 254.9  -7.2  33960  286.19 0863.15
2015 04 09 12 42 10 .53    -114    -20    -36    116    122 259.9 -17.6  33966  286.29 0863.15
2015 04 09 12 42 10 .78    -102    -30      4    107    108 253.6   2.3  33978  286.49 0863.15
2015 04 09 12 42 11 .03     -54    -20      0     58     59 249.2   0.8  33982  286.57 0863.15
2015 04 09 12 42 11 .28     -62    -17    -10     65     66 254.1  -9.3  33984  286.61 0863.15
2015 04 09 12 42 11 .53     -60    -26      8     66     67 246.5   6.9  33984  286.61 0863.15
2015 04 09 12 42 11 .78     -76    -15      2     78     79 258.5   1.8  33994  286.76 0863.15
2015 04 09 12 42 12 .04     -48     -1     18     49     52 268.3  20.0  34006  286.98 0863.15
2015 04 09 12 42 12 .29     -16      6     24     18     30 291.7  58.5  34028  287.33 0863.15
2015 04 09 12 42 12 .55     -59     16      6     62     63 285.1   5.9  34018  287.16 0863.15
2015 04 09 12 42 12 .79       4    -16     31     17     35 164.9  66.8  34032  287.40 0863.15
2015 04 09 12 42 13 .05     -77    -44     -1     89     90 240.2  -0.7  34042  287.59 0863.15
2015 04 09 12 42 13 .30     -76    -73      1    106    107 226.0   0.8  34082  288.26 0863.15
2015 04 09 12 42 13 .55     -63    -62      8     89     90 225.4   5.4  34110  288.72 0863.15
2015 04 09 12 42 13 .80     -85    -70     -5    111    112 230.4  -2.6  34138  289.19 0863.15
2015 04 09 12 42 14 .05     -76    -95     31    123    127 218.7  14.3  34158  289.55 0863.15
2015 04 09 12 42 14 .30     -56    -52      3     77     78 226.9   2.8  34140  289.23 0863.15
2015 04 09 12 42 14 .55     -72    -77     38    106    112 222.8  20.0  34156  289.52 0863.15
2015 04 09 12 42 14 .80     -57    -68     92     89    128 220.1  50.7  34170  289.74 0863.15
2015 04 09 12 42 15 .05     -63    -47     55     79     96 233.1  38.0  34180  289.92 0863.15
2015 04 09 12 42 15 .30     -59    -59     28     84     89 225.0  18.4  34172  289.77 0863.15
2015 04 09 12 42 15 .55     -76    -81     14    112    113 223.3   7.5  34146  289.33 0863.15
2015 04 09 12 42 15 .80     -75    -81     43    111    119 222.8  22.0  34132  289.09 0863.15
2015 04 09 12 42 16 .05     -54    -91     48    106    116 210.7  26.6  34132  289.09 0863.15
2015 04 09 12 42 16 .31     -72    -54     10     91     92 233.1   6.5  34140  289.24 0863.15
2015 04 09 12 42 16 .55     -28    -57     62     64     89 206.3  50.0  34216  290.53 0863.15
2015 04 09 12 42 16 .81     -53    -53     36     75     83 225.0  27.2  34098  288.53 0863.15
2015 04 09 12 42 17 .06     -63    -58     58     87    104 227.3  36.5  34126  289.01 0863.15
2015 04 09 12 42 17 .31     -54    -50     68     74    100 226.9  47.9  34164  289.65 0863.15
2015 04 09 12 42 17 .56     -62    -51     52     81     96 230.5  35.6  34188  290.06 0863.15
2015 04 09 12 42 17 .81     -27    -57     48     64     80 205.3  40.7  34208  290.38 0863.15
2015 04 09 12 42 18 .05      -1    -24     50     25     55 184.5  71.9  34250  291.11 0863.15
2015 04 09 12 42 18 .30     -54    -50     24     74     79 226.9  18.4  34198  290.23 0863.15
2015 04 09 12 42 18 .55     -48    -71     54     86    101 214.3  35.5  34210  290.41 0863.15
2015 04 09 12 42 18 .80     -61    -58     50     85     98 226.4  32.9  34212  290.45 0863.15
2015 04 09 12 42 19 .06     -56    -66     41     87     96 220.1  27.2  34194  290.14 0863.15
2015 04 09 12 42 19 .32     -41    -56     48     70     84 216.0  37.6  34182  289.96 0863.15
2015 04 09 12 42 19 .57     -36    -52     44     64     77 215.2  37.6  34134  289.14 0863.15
2015 04 09 12 42 19 .82     -45    -48     36     67     76 223.2  31.3  34148  289.38 0863.15
2015 04 09 12 42 20 .07     -53    -61     28     82     87 221.0  19.4  34050  287.72 0863.15
2015 04 09 12 42 20 .32     -42    -67      2     80     81 212.5   1.8  33988  286.66 0863.15
2015 04 09 12 42 20 .57     -58    -88     13    106    107 213.8   7.5  33968  286.32 0863.15
2015 04 09 12 42 20 .82     -65    -81     20    105    108 218.7  11.1  33978  286.51 0863.16
2015 04 09 12 42 21 .07     -72    -95     20    120    122 217.0   9.5  33950  286.03 0863.16
2015 04 09 12 42 21 .33     -59    -97     13    114    115 211.6   6.9  33952  286.07 0863.16
2015 04 09 12 42 21 .57     -67    -93      5    115    116 216.0   2.8  33946  285.97 0863.16
2015 04 09 12 42 21 .82     -66    -91      5    113    114 216.0   2.8  33938  285.82 0863.16
2015 04 09 12 42 22 .08     -60   -101    -11    118    119 210.7  -5.6  33950  286.02 0863.16
2015 04 09 12 42 22 .32     -84   -108      6    137    138 217.9   2.9  33984  286.59 0863.16
2015 04 09 12 42 22 .58     -76    -89     14    118    119 220.5   7.1  34020  287.20 0863.15
2015 04 09 12 42 22 .83     -99   -135     40    168    173 216.3  13.7  34054  287.77 0863.15
2015 04 09 12 42 23 .08    -103    -97     38    142    148 226.9  15.2  34068  288.01 0863.15
2015 04 09 12 42 23 .33     -98    -86     41    131    138 228.7  17.4  34096  288.50 0863.15
2015 04 09 12 42 23 .58    -100    -88     43    134    141 228.6  17.9  34126  288.99 0863.15
2015 04 09 12 42 23 .83     -77    -56     47     96    106 234.0  27.8  34120  288.89 0863.15
2015 04 09 12 42 24 .08     -52    -38     -5     65     66 234.0  -5.2  34124  288.96 0863.15
2015 04 09 12 42 24 .33    -128     12     -7    129    130 275.7  -3.2  34080  288.21 0863.15
2015 04 09 12 42 24 .58     -93      6     17     94     96 273.9  10.6  34070  288.06 0863.16
2015 04 09 12 42 24 .83     -91      7     20     92     95 274.8  12.6  34096  288.50 0863.16
2015 04 09 12 42 25 .09    -124    -27    -40    127    134 257.6 -17.6  34030  287.38 0863.16
2015 04 09 12 42 25 .33    -129    -43    -27    137    140 251.4 -11.3  33980  286.52 0863.16
2015 04 09 12 42 25 .58    -137     -2    -38    138    144 269.1 -15.5  33992  286.74 0863.16
2015 04 09 12 42 25 .84    -114     24    -18    117    119 281.9  -8.8  34022  287.25 0863.16
2015 04 09 12 42 26 .09    -146      4    -13    147    148 271.7  -5.2  34020  287.20 0863.16
2015 04 09 12 42 26 .34    -172    -34    -22    176    178 258.8  -7.3  33990  286.69 0863.15
2015 04 09 12 42 26 .60    -143    -24     12    146    147 260.3   4.9  33996  286.79 0863.15
2015 04 09 12 42 26 .85    -180    -20    -42    182    187 263.4 -13.2  33984  286.59 0863.15
2015 04 09 12 42 27 .10    -183    -23    -37    185    189 262.8 -11.3  34018  287.16 0863.15
2015 04 09 12 42 27 .35    -166     49    -13    174    175 286.6  -4.4  34028  287.35 0863.15
2015 04 09 12 42 27 .60    -171     17    -11    172    173 275.7  -3.9  34014  287.11 0863.15
2015 04 09 12 42 27 .85    -168     -5    -25    169    171 268.3  -8.6  34034  287.43 0863.15
2015 04 09 12 42 28 .10    -165     17    -21    166    168 275.9  -7.3  34052  287.74 0863.15
2015 04 09 12 42 28 .35     -72      1     11     73     74 270.9   9.0  34064  287.96 0863.15
2015 04 09 12 42 28 .60    -128    -37     -6    134    135 253.6  -2.6  34068  288.03 0863.15
2015 04 09 12 42 28 .85    -151    -38    -21    156    158 255.8  -8.0  34062  287.92 0863.15
2015 04 09 12 42 29 .10    -143    -12    -18    144    146 265.2  -7.3  34070  288.04 0863.15
2015 04 09 12 42 29 .35    -122    -22     -6    125    126 259.4  -3.2  34086  288.31 0863.15
2015 04 09 12 42 29 .60    -116      0    -10    117    118 270.4  -5.1  34104  288.62 0863.15
2015 04 09 12 42 29 .85     -53    -17      5     56     57 251.4   5.9  34100  288.55 0863.15
2015 04 09 12 42 30 .11     -10    -33     34     35     48 198.3  51.1  34128  289.04 0863.15
2015 04 09 12 42 30 .35     -24    -20     43     32     53 230.4  59.4  34128  289.04 0863.15
2015 04 09 12 42 30 .60     -10     16     -3     19     20 327.5  -9.3  34124  288.96 0863.15
2015 04 09 12 42 30 .85     -10    -29     30     31     43 200.0  50.0  34124  288.97 0863.15
2015 04 09 12 42 31 .11     -39    -29     36     49     60 233.1  39.7  34128  289.02 0863.15
2015 04 09 12 42 31 .35     -54    -18     33     57     65 251.4  33.5  34132  289.09 0863.15
2015 04 09 12 42 31 .61     -66    -21     -6     70     71 251.8  -5.2  34102  288.58 0863.15
2015 04 09 12 42 31 .86    -118    -56     -5    131    132 244.6  -2.2  34086  288.33 0863.15
2015 04 09 12 42 32 .11    -120    -16    -33    122    127 262.1 -15.4  34066  287.99 0863.15
2015 04 09 12 42 32 .36     -83     44     22     95     98 298.0  13.2  34098  288.53 0863.15
2015 04 09 12 42 32 .61     -73    -24    -26     77     82 251.6 -19.1  34108  288.69 0863.15
2015 04 09 12 42 32 .87     -48    -23     -7     54     55 244.6  -7.3  34106  288.67 0863.15
2015 04 09 12 42 33 .12     -54    -18     27     57     63 251.4  27.2  34108  288.69 0863.15
2015 04 09 12 42 33 .37     -73      0     -4     74     75 270.0  -3.1  34088  288.35 0863.15
2015 04 09 12 42 33 .62    -104    -48     -5    115    116 245.2  -2.6  34116  288.82 0863.15
2015 04 09 12 42 33 .87     -60     -4     -7     61     62 265.6  -7.2  34118  288.87 0863.15
2015 04 09 12 42 34 .12     -85     13      0     86     87 278.8   0.2  34056  287.81 0863.15
2015 04 09 12 42 34 .37    -175    -13    -46    176    182 265.7 -14.7  33970  286.35 0863.15
2015 04 09 12 42 34 .63    -155    -11    -45    156    163 265.6 -16.0  33968  286.32 0863.15
2015 04 09 12 42 34 .88     -98    -35    -13    105    106 250.0  -7.2  33992  286.73 0863.15
2015 04 09 12 42 35 .13    -149      4    -30    150    154 271.7 -11.6  33964  286.27 0863.15
2015 04 09 12 42 35 .38    -170     13    -16    171    172 274.4  -5.6  33964  286.27 0863.15
2015 04 09 12 42 35 .62    -163     12    -39    164    169 274.4 -13.7  33950  286.03 0863.15
2015 04 09 12 42 35 .88    -165      4    -30    166    169 271.7 -10.5  33952  286.07 0863.15
2015 04 09 12 42 36 .13    -129     -9    -15    130    131 265.7  -6.7  33964  286.25 0863.15
2015 04 09 12 42 36 .38     -76    -35      0     84     85 244.8   0.2  34002  286.89 0863.14
2015 04 09 12 42 36 .63     -15     -1     29     16     33 265.7  68.8  34018  287.16 0863.14
2015 04 09 12 42 36 .88    -110    -34    -10    116    117 252.7  -5.2  34052  287.76 0863.14
2015 04 09 12 42 37 .13     -57    -19     25     61     65 251.8  23.0  34064  287.96 0863.14
2015 04 09 12 42 37 .38    -136    -36    -28    141    144 255.0 -11.3  34066  287.99 0863.14
2015 04 09 12 42 37 .63     -90      2     29     91     96 271.3  17.9  34074  288.11 0863.14
2015 04 09 12 42 37 .88    -114     38     21    121    123 288.6  10.1  34064  287.94 0863.14
2015 04 09 12 42 38 .13    -163     -4     -9    164    165 268.3  -3.1  34058  287.84 0863.14
2015 04 09 12 42 38 .38     -73    -69     47    101    111 226.9  27.1  34084  288.28 0863.14
2015 04 09 12 42 38 .64     -72      5     25     73     78 274.3  19.4  34084  288.28 0863.14
2015 04 09 12 42 38 .88     -72      1     32     73     79 270.9  24.6  34118  288.86 0863.14
2015 04 09 12 42 39 .14    -199    126    -57    236    243 302.4 -13.7  34096  288.48 0863.14
2015 04 09 12 42 39 .38    -120    106     -8    161    162 311.3  -3.1  34134  289.13 0863.14
2015 04 09 12 42 39 .64    -249    106    -34    271    274 293.1  -7.3  34004  286.92 0863.14
2015 04 09 12 42 39 .90    -241    139    -35    279    282 300.0  -7.3  33978  286.48 0863.14
2015 04 09 12 42 40 .15    -202    161    -28    259    261 308.6  -6.2  33998  286.84 0863.14
2015 04 09 12 42 40 .40    -191    134    -31    234    237 305.1  -7.7  33942  285.89 0863.14
2015 04 09 12 42 40 .65    -207    126    -45    243    248 301.3 -10.5  33960  286.18 0863.14
2015 04 09 12 42 40 .90    -203    138    -22    246    248 304.2  -5.2  33996  286.79 0863.14
2015 04 09 12 42 41 .15    -124    124     -6    176    177 315.0  -2.1  33994  286.78 0863.14
2015 04 09 12 42 41 .40    -161    114    -27    198    201 305.5  -8.0  33948  286.00 0863.14
2015 04 09 12 42 41 .65    -165     75    -32    182    185 294.6 -10.1  33960  286.20 0863.14
2015 04 09 12 42 41 .90    -172     35    -36    176    180 281.7 -11.6  34014  287.11 0863.14
2015 04 09 12 42 42 .15    -126     69     12    144    145 298.9   5.0  34002  286.89 0863.14
2015 04 09 12 42 42 .40    -130     83    -13    155    156 302.5  -4.9  34000  286.88 0863.14
2015 04 09 12 42 42 .66    -112     92    -24    146    148 309.5  -9.3  34004  286.93 0863.14
2015 04 09 12 42 42 .90     -85     98     -5    130    131 319.0  -2.2  34034  287.43 0863.14
2015 04 09 12 42 43 .15    -112     71    -24    133    136 302.5 -10.3  34034  287.43 0863.14
2015 04 09 12 42 43 .41     -92     63     -7    112    113 304.6  -3.7  34028  287.35 0863.14
2015 04 09 12 42 43 .66    -133     53    -24    144    147 291.7  -9.8  34080  288.23 0863.14
2015 04 09 12 42 43 .91     -80    -16    -22     82     85 258.1 -15.0  34080  288.23 0863.15
2015 04 09 12 42 44 .16      10     -3     52     11     53 108.4  89.0  34088  288.35 0863.15
2015 04 09 12 42 44 .41      -8      8     55     12     56 316.8  89.0  34072  288.09 0863.15
2015 04 09 12 42 44 .66    -135     74    -43    154    159 298.8 -20.4  34042  287.57 0863.15
2015 04 09 12 42 44 .91    -126     64    -33    142    146 297.1 -13.3  34018  287.18 0863.15
2015 04 09 12 42 45 .16    -102     17    -16    104    106 279.7  -8.8  34028  287.35 0863.15
2015 04 09 12 42 45 .41     -40     33     10     53     55 309.5  11.0  33992  286.74 0863.15
2015 04 09 12 42 45 .66     -51      0     17     52     55 269.2  18.9  33970  286.35 0863.14
2015 04 09 12 42 45 .91     -57    -26    -25     63     67 244.8 -27.4  34000  286.88 0863.14
2015 04 09 12 42 46 .16       2    -19     42     20     46 173.8  72.9  34002  286.91 0863.14
2015 04 09 12 42 46 .41     -82    -29     16     87     89 250.5  11.0  33998  286.84 0863.14
2015 04 09 12 42 46 .66     -56    -46     38     73     82 230.5  29.3  33992  286.74 0863.14
2015 04 09 12 42 46 .92     -58    -32     -2     67     68 241.2  -2.2  33992  286.74 0863.14
2015 04 09 12 42 47 .17     -44     -8     15     45     48 259.4  18.9  34014  287.11 0863.14
2015 04 09 12 42 47 .42    -104     80     -1    132    133 307.7  -0.7  33986  286.64 0863.14
2015 04 09 12 42 47 .68    -181     60    -24    191    193 288.4  -7.3  33982  286.57 0863.14
2015 04 09 12 42 47 .92    -152     29    -23    155    157 281.0  -8.6  33992  286.73 0863.14
2015 04 09 12 42 48 .17    -223     49    -45    229    234 282.6 -11.3  33966  286.30 0863.14
2015 04 09 12 42 48 .43    -221     83    -40    237    241 290.6  -9.8  33968  286.31 0863.14
2015 04 09 12 42 48 .67    -214     41     -6    218    219 281.0  -1.8  33944  285.92 0863.14
2015 04 09 12 42 48 .93    -233     50    -21    239    240 282.2  -5.2  33924  285.57 0863.14
2015 04 09 12 42 49 .18    -254     55    -42    260    264 282.3  -9.3  33904  285.25 0863.14
2015 04 09 12 42 49 .43    -269     41    -24    273    275 278.8  -5.2  33944  285.91 0863.14
2015 04 09 12 42 49 .68    -263     32    -17    266    267 277.1  -3.7  33958  286.15 0863.14
2015 04 09 12 42 49 .93    -312     39    -43    315    318 277.2  -7.9  33926  285.62 0863.14
2015 04 09 12 42 50 .19    -314     61    -33    320    322 281.0  -5.9  33932  285.71 0863.14
2015 04 09 12 42 50 .43    -327     35    -39    329    332 276.3  -6.9  33924  285.58 0863.14
2015 04 09 12 42 50 .68    -343     55    -41    348    351 279.2  -6.9  33932  285.72 0863.14
2015 04 09 12 42 50 .93    -341     63    -58    347    352 280.5  -9.5  33930  285.67 0863.14
2015 04 09 12 42 51 .18    -330     78    -62    340    346 283.4 -10.4  33916  285.46 0863.14
2015 04 09 12 42 51 .43    -209     62    -44    219    224 286.6 -11.5  33966  286.29 0863.14
2015 04 09 12 42 51 .68    -217     48    -18    223    224 282.6  -4.9  33956  286.12 0863.14
2015 04 09 12 42 51 .93    -219     79    -38    233    237 289.9  -9.4  33982  286.55 0863.15
2015 04 09 12 42 52 .19    -231     70    -21    242    243 286.9  -5.1  33936  285.77 0863.15
2015 04 09 12 42 52 .44    -263     73    -10    273    274 285.5  -2.2  33926  285.61 0863.15
2015 04 09 12 42 52 .69    -319     79    -46    329    333 283.9  -8.0  33916  285.46 0863.15
2015 04 09 12 42 52 .93    -214     57     -8    222    223 285.1  -2.2  33950  286.03 0863.15
2015 04 09 12 42 53 .19    -293     78    -33    304    306 285.1  -6.2  33920  285.51 0863.15
2015 04 09 12 42 53 .44    -309     55    -30    314    316 280.1  -5.6  33928  285.64 0863.15
2015 04 09 12 42 53 .70    -312     79    -48    323    327 284.3  -8.6  33918  285.47 0863.15
2015 04 09 12 42 53 .95    -284     54    -27    290    292 280.8  -5.4  33918  285.47 0863.14
2015 04 09 12 42 54 .20    -233     17    -22    234    236 274.3  -5.4  33934  285.74 0863.14
2015 04 09 12 42 54 .45    -189     43    -14    194    195 283.0  -4.1  33928  285.66 0863.14
2015 04 09 12 42 54 .70    -287     39    -47    290    294 277.9  -9.3  33920  285.52 0863.14
2015 04 09 12 42 54 .95    -327     80    -67    337    344 283.9 -11.3  33908  285.30 0863.14
2015 04 09 12 42 55 .20    -325     81    -46    335    339 284.1  -7.9  33918  285.50 0863.14
2015 04 09 12 42 55 .45    -325     63    -30    332    334 281.1  -5.2  33912  285.38 0863.14
2015 04 09 12 42 55 .70    -361     83    -48    371    375 283.0  -7.5  33898  285.16 0863.14
2015 04 09 12 42 55 .95    -348    105    -46    364    367 286.9  -7.3  33908  285.30 0863.14
2015 04 09 12 42 56 .21    -336    100    -36    351    353 286.7  -5.9  33924  285.60 0863.14
2015 04 09 12 42 56 .46    -300     85    -25    312    314 285.9  -4.6  33934  285.74 0863.14
2015 04 09 12 42 56 .70    -321     87    -31    333    335 285.2  -5.5  33910  285.35 0863.14
2015 04 09 12 42 56 .96    -322     96    -32    337    339 286.6  -5.5  33922  285.55 0863.14
2015 04 09 12 42 57 .21    -318     75    -30    327    329 283.3  -5.3  33912  285.37 0863.14
2015 04 09 12 42 57 .46    -318    104    -56    335    340 288.2  -9.5  33918  285.48 0863.14
2015 04 09 12 42 57 .71    -297     43    -38    301    304 278.4  -7.3  33922  285.54 0863.14
2015 04 09 12 42 57 .96    -292     45    -65    296    304 278.8 -12.4  33944  285.93 0863.14
2015 04 09 12 42 58 .21    -324     31    -51    326    331 275.5  -8.9  33936  285.77 0863.14
2015 04 09 12 42 58 .46    -318     87    -55    330    335 285.3  -9.5  33936  285.80 0863.14
2015 04 09 12 42 58 .71    -395     64    -42    401    404 279.2  -6.0  33936  285.79 0863.14
2015 04 09 12 42 58 .96    -391    118    -61    409    414 286.8  -8.6  33934  285.76 0863.14
2015 04 09 12 42 59 .21    -306    102    -30    323    325 288.6  -5.3  33986  286.63 0863.14
2015 04 09 12 42 59 .46    -291     20    -16    292    293 274.1  -3.1  34000  286.87 0863.14
2015 04 09 12 42 59 .71    -218      0    -12    219    220 270.0  -3.1  33948  285.98 0863.14
2015 04 09 12 42 59 .96    -274     31    -13    276    277 276.6  -2.8  33946  285.94 0863.14
2015 04 09 12 43 00 .21    -347     73    -58    355    360 281.9  -9.4  33920  285.52 0863.14
2015 04 09 12 43 00 .46    -336     91    -36    349    351 285.2  -5.9  33928  285.65 0863.14
2015 04 09 12 43 00 .72    -397     79    -38    405    407 281.4  -5.4  33914  285.41 0863.14
2015 04 09 12 43 00 .98    -362     91    -49    374    378 284.2  -7.6  33902  285.21 0863.14
2015 04 09 12 43 01 .23    -362     48    -40    366    369 277.6  -6.3  33902  285.23 0863.14
2015 04 09 12 43 01 .48    -359     65    -65    365    371 280.4 -10.2  33906  285.28 0863.14
2015 04 09 12 43 01 .73    -341     63    -51    347    351 280.6  -8.4  33908  285.33 0863.14
2015 04 09 12 43 01 .98    -342     54    -62    347    353 279.0 -10.2  33914  285.41 0863.14
2015 04 09 12 43 02 .23    -343     59    -66    349    356 279.8 -10.8  33914  285.43 0863.14
2015 04 09 12 43 02 .48    -324     46    -44    328    331 278.1  -7.7  33908  285.33 0863.14
2015 04 09 12 43 02 .73    -305     54    -37    310    313 280.1  -6.9  33908  285.30 0863.14
2015 04 09 12 43 02 .98    -343     67    -53    350    355 281.1  -8.7  33910  285.35 0863.14
2015 04 09 12 43 03 .23    -339     57    -49    344    348 279.7  -8.1  33910  285.35 0863.14
2015 04 09 12 43 03 .48    -349     74    -50    357    361 282.1  -8.0  33904  285.26 0863.14
2015 04 09 12 43 03 .73    -351    104    -47    367    370 286.5  -7.3  33898  285.16 0863.14
2015 04 09 12 43 03 .98    -350    106    -26    366    367 286.9  -4.1  33904  285.26 0863.14
2015 04 09 12 43 04 .23    -304     51    -36    309    312 279.6  -6.8  33918  285.49 0863.14
2015 04 09 12 43 04 .48    -275     23    -40    276    279 274.8  -8.3  33922  285.56 0863.14
2015 04 09 12 43 04 .73    -303     13    -43    304    308 272.5  -8.1  33914  285.42 0863.13
2015 04 09 12 43 04 .98    -285     95    -31    301    303 288.4  -6.0  33912  285.37 0863.13
2015 04 09 12 43 05 .23    -297      0    -27    298    300 269.9  -5.2  33918  285.49 0863.13
2015 04 09 12 43 05 .49    -339     68    -85    346    357 281.5 -13.9  33902  285.23 0863.13
2015 04 09 12 43 05 .74    -318     68    -29    326    328 282.1  -5.2  33908  285.30 0863.13
2015 04 09 12 43 05 .99    -317     67    -30    325    327 282.1  -5.4  33906  285.27 0863.13
2015 04 09 12 43 06 .24    -353     83    -48    363    367 283.3  -7.6  33908  285.30 0863.13
2015 04 09 12 43 06 .49    -348     91    -45    360    363 284.7  -7.2  33908  285.30 0863.13
2015 04 09 12 43 06 .74    -346     44    -45    349    352 277.4  -7.4  33908  285.33 0863.14
2015 04 09 12 43 06 .99    -332     48    -47    336    340 278.3  -8.1  33914  285.41 0863.14
2015 04 09 12 43 07 .24    -370     86    -49    380    384 283.2  -7.4  33906  285.28 0863.14
2015 04 09 12 43 07 .49    -349     80    -59    359    364 282.9  -9.3  33902  285.21 0863.14
2015 04 09 12 43 07 .75    -337     80    -26    347    348 283.4  -4.4  33912  285.38 0863.14
2015 04 09 12 43 08 .00    -353     68    -48    360    364 280.9  -7.6  33902  285.20 0863.14
2015 04 09 12 43 08 .25    -368     72    -49    376    380 281.1  -7.5  33900  285.18 0863.14
2015 04 09 12 43 08 .50    -380     95    -59    392    397 284.1  -8.6  33894  285.09 0863.13
2015 04 09 12 43 08 .75    -363    110    -55    380    385 286.9  -8.2  33904  285.26 0863.13
2015 04 09 12 43 09 .00    -240     73    -14    251    252 286.9  -3.3  33944  285.91 0863.13
2015 04 09 12 43 09 .25    -283     94    -17    299    300 288.4  -3.3  33956  286.11 0863.13
2015 04 09 12 43 09 .50    -286     43    -37    290    293 278.6  -7.3  33930  285.67 0863.13
2015 04 09 12 43 09 .76    -314     80    -42    325    328 284.3  -7.4  33932  285.71 0863.13
2015 04 09 12 43 10 .01    -237     63    -18    246    247 285.0  -4.4  33966  286.28 0863.13
2015 04 09 12 43 10 .26    -250     35    -20    253    254 278.0  -4.6  33986  286.62 0863.12
2015 04 09 12 43 10 .51    -315     56    -42    321    324 280.1  -7.5  33928  285.66 0863.12
2015 04 09 12 43 10 .76    -309     30    -52    311    316 275.7  -9.5  33920  285.51 0863.12
2015 04 09 12 43 11 .01    -309     46    -53    313    318 278.6  -9.6  33912  285.39 0863.12
2015 04 09 12 43 11 .26    -314     27    -33    316    318 275.0  -6.0  33906  285.29 0863.12
2015 04 09 12 43 11 .51    -275     16    -19    276    277 273.5  -4.1  33928  285.66 0863.12
2015 04 09 12 43 11 .76    -293     78    -58    304    310 285.1 -10.9  33906  285.27 0863.12
2015 04 09 12 43 12 .01    -236     45    -38    241    245 280.8  -9.0  33922  285.54 0863.12
2015 04 09 12 43 12 .26    -266     11    -33    267    270 272.5  -7.2  33926  285.62 0863.12
2015 04 09 12 43 12 .51    -333     74    -57    342    347 282.5  -9.6  33924  285.57 0863.12
2015 04 09 12 43 12 .76    -319     20    -29    320    322 273.7  -5.3  33912  285.37 0863.12
2015 04 09 12 43 13 .01    -351     71    -39    359    362 281.5  -6.3  33904  285.25 0863.12
2015 04 09 12 43 13 .26    -344     76    -24    353    354 282.5  -4.0  33914  285.43 0863.12
2015 04 09 12 43 13 .51    -320     71    -67    328    335 282.6 -11.6  33904  285.25 0863.12
2015 04 09 12 43 13 .77    -321     72    -64    330    337 282.8 -11.0  33926  285.62 0863.12
2015 04 09 12 43 14 .01    -354     85    -50    365    369 283.5  -7.9  33900  285.18 0863.12
2015 04 09 12 43 14 .27    -331     50    -35    335    337 278.6  -6.1  33898  285.16 0863.12
2015 04 09 12 43 14 .52    -335     82    -62    345    351 283.8 -10.2  33892  285.04 0863.12
2015 04 09 12 43 14 .78    -350     64    -37    356    359 280.4  -6.1  33898  285.15 0863.12
2015 04 09 12 43 15 .03    -336     47    -49    340    344 278.1  -8.2  33896  285.13 0863.12
2015 04 09 12 43 15 .28    -336     85    -54    347    352 284.3  -8.9  33898  285.15 0863.12
2015 04 09 12 43 15 .53    -323     50    -55    327    332 278.9  -9.6  33896  285.11 0863.12
2015 04 09 12 43 15 .78    -332     94    -48    346    350 285.9  -8.0  33916  285.45 0863.12
2015 04 09 12 43 16 .03    -342     54    -50    347    351 279.0  -8.2  33898  285.16 0863.12
2015 04 09 12 43 16 .28    -349     54    -54    354    359 278.8  -8.7  33894  285.09 0863.12
2015 04 09 12 43 16 .53    -354     91    -48    366    370 284.5  -7.5  33894  285.09 0863.12
2015 04 09 12 43 16 .78    -350     91    -35    362    364 284.7  -5.6  33896  285.11 0863.12
2015 04 09 12 43 17 .03    -312     68    -19    320    321 282.3  -3.5  33902  285.20 0863.12
2015 04 09 12 43 17 .28    -322     83    -42    333    336 284.5  -7.3  33904  285.25 0863.12
2015 04 09 12 43 17 .53    -324     58    -45    330    334 280.3  -7.9  33902  285.20 0863.12
2015 04 09 12 43 17 .79    -303     43    -36    307    310 278.1  -6.8  33904  285.24 0863.12
2015 04 09 12 43 18 .04    -342     82    -58    352    357 283.5  -9.5  33898  285.16 0863.12
2015 04 09 12 43 18 .28    -349     83    -49    359    363 283.4  -7.9  33896  285.13 0863.12
2015 04 09 12 43 18 .54    -347     78    -47    356    360 282.8  -7.6  33898  285.15 0863.12
2015 04 09 12 43 18 .79    -333     79    -41    343    346 283.4  -6.9  33902  285.23 0863.12
2015 04 09 12 43 19 .04    -337     94    -37    351    354 285.7  -6.1  33898  285.15 0863.12
2015 04 09 12 43 19 .29    -343    105    -45    359    362 287.1  -7.2  33898  285.15 0863.12
2015 04 09 12 43 19 .54    -314     92    -32    328    330 286.3  -5.6  33896  285.13 0863.12
2015 04 09 12 43 19 .79    -319     78    -39    329    332 283.8  -6.8  33896  285.11 0863.12
2015 04 09 12 43 20 .04    -308     28    -21    310    311 275.2  -3.9  33904  285.24 0863.12
2015 04 09 12 43 20 .29    -290     48    -45    294    298 279.5  -8.8  33898  285.14 0863.12
2015 04 09 12 43 20 .54    -312     43    -40    316    319 278.0  -7.2  33898  285.15 0863.12
2015 04 09 12 43 20 .79    -287     62    -16    294    295 282.3  -3.1  33902  285.22 0863.12
2015 04 09 12 43 21 .04    -315     79    -41    325    328 284.2  -7.3  33898  285.14 0863.12
2015 04 09 12 43 21 .29    -326     74    -40    335    338 282.9  -6.9  33898  285.16 0863.12
2015 04 09 12 43 21 .55    -324     75    -26    333    335 283.2  -4.6  33902  285.20 0863.12
2015 04 09 12 43 21 .80    -322     58    -42    328    331 280.3  -7.3  33902  285.20 0863.12
2015 04 09 12 43 22 .05    -339     86    -45    350    353 284.3  -7.4  33900  285.18 0863.12
2015 04 09 12 43 22 .31    -317     58    -38    323    326 280.4  -6.8  33900  285.19 0863.12
2015 04 09 12 43 22 .55    -305     54    -40    310    313 280.1  -7.4  33898  285.15 0863.12
2015 04 09 12 43 22 .80    -328     95    -48    342    346 286.3  -8.1  33900  285.18 0863.12
2015 04 09 12 43 23 .06    -330     79    -35    340    342 283.5  -6.0  33896  285.11 0863.12
2015 04 09 12 43 23 .31    -326     92    -55    339    344 285.8  -9.3  33896  285.11 0863.12
2015 04 09 12 43 23 .56    -330     69    -43    338    341 281.9  -7.3  33898  285.15 0863.12
2015 04 09 12 43 23 .81    -314     67    -31    322    324 282.2  -5.6  33894  285.08 0863.12
2015 04 09 12 43 24 .06    -312     58    -40    318    321 280.6  -7.3  33896  285.10 0863.12
2015 04 09 12 43 24 .31    -287     40    -25    290    292 278.0  -5.1  33900  285.17 0863.12
2015 04 09 12 43 24 .56    -331     91    -44    344    347 285.4  -7.4  33896  285.11 0863.12
2015 04 09 12 43 24 .81    -314     70    -41    322    325 282.7  -7.3  33900  285.19 0863.12
2015 04 09 12 43 25 .06    -254      7    -21    255    256 271.7  -4.9  33908  285.30 0863.12
2015 04 09 12 43 25 .31    -257     29    -35    259    262 276.6  -7.7  33906  285.29 0863.12
2015 04 09 12 43 25 .56    -253     23    -30    255    257 275.2  -6.9  33910  285.34 0863.12
2015 04 09 12 43 25 .81    -281     22    -24    282    284 274.6  -4.9  33910  285.35 0863.13
2015 04 09 12 43 26 .06    -283     48    -27    288    290 279.7  -5.4  33902  285.20 0863.13
2015 04 09 12 43 26 .31    -310     66    -40    318    321 282.2  -7.3  33906  285.29 0863.13
2015 04 09 12 43 26 .56    -311     68    -40    319    322 282.4  -7.2  33902  285.20 0863.13
2015 04 09 12 43 26 .81    -302     61    -41    309    312 281.5  -7.7  33904  285.24 0863.13
2015 04 09 12 43 27 .07    -322     75    -42    331    334 283.2  -7.3  33902  285.20 0863.13
2015 04 09 12 43 27 .32    -309     79    -43    320    323 284.4  -7.7  33896  285.10 0863.13
2015 04 09 12 43 27 .57    -319    104    -46    336    340 288.1  -7.9  33898  285.15 0863.12
2015 04 09 12 43 27 .82    -310     91    -55    324    329 286.4  -9.7  33896  285.10 0863.12
2015 04 09 12 43 28 .07    -315     77    -30    325    327 283.8  -5.4  33900  285.17 0863.12
2015 04 09 12 43 28 .32    -325     96    -31    340    342 286.5  -5.3  33908  285.33 0863.12
2015 04 09 12 43 28 .58    -328    104    -49    345    349 287.6  -8.2  33900  285.18 0863.12
2015 04 09 12 43 28 .83    -299    102    -21    317    318 289.0  -3.9  33906  285.29 0863.12
2015 04 09 12 43 29 .08    -302    112    -35    323    325 290.3  -6.2  33908  285.32 0863.12
2015 04 09 12 43 29 .33    -284     94    -11    300    301 288.4  -2.2  33912  285.39 0863.12
2015 04 09 12 43 29 .58    -269     86    -18    283    284 287.8  -3.7  33904  285.25 0863.12
2015 04 09 12 43 29 .83    -285     88    -16    299    300 287.3  -3.1  33904  285.25 0863.12
2015 04 09 12 43 30 .08    -284    103    -28    303    305 290.0  -5.4  33910  285.35 0863.12
2015 04 09 12 43 30 .33    -255    100    -10    275    276 291.5  -2.2  33932  285.71 0863.12
2015 04 09 12 43 30 .58    -291    126    -40    318    321 293.5  -7.2  33906  285.27 0863.12
2015 04 09 12 43 30 .83    -301    103    -22    319    320 289.0  -4.0  33916  285.44 0863.12
2015 04 09 12 43 31 .08    -312     72    -29    321    323 283.0  -5.3  33902  285.20 0863.12
2015 04 09 12 43 31 .33    -312    112    -43    332    335 289.8  -7.5  33910  285.36 0863.12
2015 04 09 12 43 31 .59    -288     99    -26    305    307 289.0  -4.9  33928  285.64 0863.12
2015 04 09 12 43 31 .83    -267     67     -8    276    277 284.2  -1.8  33928  285.66 0863.12
2015 04 09 12 43 32 .09    -284     63    -21    292    293 282.6  -4.1  33920  285.51 0863.12
2015 04 09 12 43 32 .34    -279     56    -15    285    286 281.4  -3.2  33938  285.83 0863.12
2015 04 09 12 43 32 .59    -283     66    -59    291    297 283.3 -11.5  33944  285.93 0863.12
2015 04 09 12 43 32 .84    -282     77    -26    293    295 285.3  -5.2  33940  285.86 0863.12
2015 04 09 12 43 33 .09    -325     63    -44    332    335 281.0  -7.7  33930  285.68 0863.12
2015 04 09 12 43 33 .34    -330     78    -43    340    343 283.4  -7.3  33932  285.72 0863.12
2015 04 09 12 43 33 .59    -276     88    -26    290    292 287.7  -5.2  33972  286.40 0863.12
2015 04 09 12 43 33 .84    -249     10    -44    250    254 272.4 -10.1  33960  286.20 0863.12
2015 04 09 12 43 34 .09    -291     78    -28    302    304 285.0  -5.4  33936  285.79 0863.12
2015 04 09 12 43 34 .34    -315    130    -45    341    344 292.4  -7.6  33940  285.87 0863.12
2015 04 09 12 43 34 .59    -334    111    -32    353    355 288.4  -5.3  33948  285.99 0863.12
2015 04 09 12 43 34 .84    -333    127    -34    357    359 291.0  -5.5  33962  286.21 0863.12
2015 04 09 12 43 35 .09    -331    101    -12    347    348 287.0  -2.1  33956  286.12 0863.12
2015 04 09 12 43 35 .35    -281     81    -11    293    294 286.2  -2.2  33990  286.70 0863.12
2015 04 09 12 43 35 .60    -312     97    -15    327    328 287.3  -2.7  33966  286.28 0863.12
2015 04 09 12 43 35 .86    -331     79    -37    341    344 283.5  -6.2  33980  286.54 0863.12
2015 04 09 12 43 36 .11    -307    103    -22    324    325 288.6  -3.9  33940  285.86 0863.12
2015 04 09 12 43 36 .36    -286     64     -1    294    295 282.6  -0.3  33942  285.89 0863.12
2015 04 09 12 43 36 .61    -292     88    -26    306    308 286.8  -4.9  33934  285.74 0863.12
2015 04 09 12 43 36 .86    -345     91    -45    357    360 284.9  -7.3  33928  285.65 0863.12
2015 04 09 12 43 37 .11    -324    104    -40    341    344 287.9  -6.7  33930  285.67 0863.12
2015 04 09 12 43 37 .36    -326    109    -39    345    348 288.6  -6.6  33920  285.52 0863.11
2015 04 09 12 43 37 .61    -310     75    -34    319    321 283.7  -6.3  33918  285.47 0863.11
2015 04 09 12 43 37 .86    -274     38    -33    277    280 278.0  -6.9  33936  285.79 0863.11
2015 04 09 12 43 38 .11    -267     76    -20    278    279 285.9  -4.1  33944  285.91 0863.11
2015 04 09 12 43 38 .36    -304     66    -43    312    315 282.4  -7.9  33924  285.59 0863.11
2015 04 09 12 43 38 .61    -255     47    -33    260    263 280.5  -7.3  33934  285.76 0863.11
2015 04 09 12 43 38 .86    -234     58    -62    242    250 283.9 -14.5  33936  285.79 0863.11
2015 04 09 12 43 39 .11    -329     73    -35    338    340 282.5  -6.0  33914  285.43 0863.11
2015 04 09 12 43 39 .36    -334    123    -15    357    358 290.3  -2.5  33918  285.48 0863.11
2015 04 09 12 43 39 .61    -317     99    -37    333    336 287.4  -6.5  33922  285.55 0863.11
2015 04 09 12 43 39 .86    -333     99    -31    348    350 286.6  -5.1  33918  285.48 0863.11
2015 04 09 12 43 40 .12    -316     87    -42    328    331 285.4  -7.4  33910  285.36 0863.11
2015 04 09 12 43 40 .36    -273     97    -13    290    291 289.7  -2.6  33920  285.52 0863.11
2015 04 09 12 43 40 .62    -323     92    -28    336    338 285.9  -4.9  33910  285.35 0863.11
2015 04 09 12 43 40 .87    -309     93    -10    323    324 286.8  -1.9  33912  285.39 0863.11
2015 04 09 12 43 41 .12    -295    104    -17    314    315 289.5  -3.1  33928  285.66 0863.11
2015 04 09 12 43 41 .37    -305     98    -12    321    322 287.8  -2.2  33912  285.39 0863.11
2015 04 09 12 43 41 .62    -310    103    -15    327    328 288.4  -2.7  33904  285.24 0863.11
2015 04 09 12 43 41 .87    -350     82    -20    360    361 283.3  -3.3  33910  285.35 0863.11
2015 04 09 12 43 42 .12    -332    122    -38    354    357 290.2  -6.2  33930  285.67 0863.11
2015 04 09 12 43 42 .37    -330    102    -18    346    347 287.2  -3.1  33914  285.40 0863.11
2015 04 09 12 43 42 .63    -335    134    -33    361    363 291.9  -5.3  33916  285.46 0863.11
2015 04 09 12 43 42 .88    -321    118    -32    343    345 290.2  -5.5  33926  285.62 0863.11
2015 04 09 12 43 43 .13    -318     97    -13    333    334 287.0  -2.3  33926  285.62 0863.11
2015 04 09 12 43 43 .38    -324    114    -43    344    347 289.4  -7.2  33916  285.45 0863.11
2015 04 09 12 43 43 .63    -293    111    -32    314    316 290.8  -5.9  33932  285.71 0863.11
2015 04 09 12 43 43 .89    -216     68     -4    227    228 287.5  -1.2  33954  286.08 0863.11
2015 04 09 12 43 44 .13    -146     43     13    153    154 286.4   4.9  34002  286.91 0863.11
2015 04 09 12 43 44 .39    -299    129    -45    326    330 293.4  -8.0  33928  285.66 0863.11
2015 04 09 12 43 44 .63    -327    127    -36    352    354 291.3  -5.9  33908  285.33 0863.11
2015 04 09 12 43 44 .88    -338    130    -42    363    366 291.1  -6.7  33900  285.18 0863.11
2015 04 09 12 43 45 .14    -366    128    -40    388    391 289.3  -5.9  33894  285.09 0863.11
2015 04 09 12 43 45 .39    -367    145    -43    395    398 291.7  -6.2  33894  285.08 0863.11
2015 04 09 12 43 45 .64    -367    145    -43    395    398 291.7  -6.2  33894  285.08 0863.11
2015 04 09 12 43 45 .89    -376    129    -51    398    402 289.0  -7.3  33890  285.01 0863.11
2015 04 09 12 43 46 .14    -359    119    -41    379    382 288.4  -6.3  33890  285.01 0863.11
2015 04 09 12 43 46 .39    -353    130    -48    377    381 290.2  -7.3  33892  285.04 0863.12
2015 04 09 12 43 46 .64    -348    137    -45    375    378 291.5  -6.9  33892  285.04 0863.12
2015 04 09 12 43 46 .89    -337    115    -34    357    359 289.0  -5.6  33896  285.11 0863.12
2015 04 09 12 43 47 .14    -360    102    -48    375    379 285.8  -7.3  33894  285.08 0863.12
2015 04 09 12 43 47 .39    -355    118    -50    375    379 288.4  -7.6  33900  285.18 0863.12
2015 04 09 12 43 47 .64    -323    105    -16    340    341 288.1  -2.8  33908  285.30 0863.12
2015 04 09 12 43 47 .89    -345     91    -38    357    360 284.9  -6.1  33914  285.40 0863.12
2015 04 09 12 43 48 .14    -354    123    -42    375    378 289.2  -6.5  33936  285.78 0863.12
2015 04 09 12 43 48 .39    -277    146    -14    314    315 297.8  -2.7  33940  285.84 0863.12
2015 04 09 12 43 48 .64    -334    117    -41    355    358 289.4  -6.7  33936  285.80 0863.12
2015 04 09 12 43 48 .89    -312    110    -37    331    334 289.5  -6.5  33940  285.87 0863.12
2015 04 09 12 43 49 .15    -187    114    -21    220    222 301.3  -5.6  33960  286.19 0863.12
2015 04 09 12 43 49 .40    -341     91    -46    354    357 285.0  -7.5  33930  285.67 0863.12
2015 04 09 12 43 49 .66    -309    112    -63    329    336 290.0 -10.9  33936  285.77 0863.12
2015 04 09 12 43 49 .91    -348    117    -41    368    371 288.7  -6.5  33930  285.70 0863.12
2015 04 09 12 43 50 .16    -332    133    -46    358    361 291.9  -7.5  33914  285.40 0863.12
2015 04 09 12 43 50 .41    -325    130    -40    351    354 291.8  -6.6  33906  285.28 0863.12
2015 04 09 12 43 50 .66    -306    110    -47    326    330 289.8  -8.2  33910  285.34 0863.12
2015 04 09 12 43 50 .91    -281    111    -16    303    304 291.7  -3.1  33934  285.76 0863.12
2015 04 09 12 43 51 .16    -292     64    -13    299    300 282.4  -2.6  33928  285.66 0863.12
2015 04 09 12 43 51 .41    -338    131    -30    363    365 291.2  -4.8  33978  286.51 0863.12
2015 04 09 12 43 51 .66    -329    101    -26    345    346 287.2  -4.4  33978  286.49 0863.12
2015 04 09 12 43 51 .91    -249    116     -7    275    276 295.1  -1.6  33994  286.77 0863.12
2015 04 09 12 43 52 .16    -283     94    -17    299    300 288.4  -3.3  33924  285.57 0863.12
2015 04 09 12 43 52 .41    -313    122    -32    337    339 291.4  -5.6  33908  285.30 0863.12
2015 04 09 12 43 52 .66    -319    125    -45    343    347 291.5  -7.6  33894  285.09 0863.12
2015 04 09 12 43 52 .91    -300    117    -50    323    327 291.3  -8.8  33896  285.10 0863.12
2015 04 09 12 43 53 .16    -306     97    -33    322    324 287.7  -5.9  33896  285.12 0863.12
2015 04 09 12 43 53 .42    -284    103    -16    303    304 289.9  -3.1  33902  285.20 0863.12
2015 04 09 12 43 53 .67    -281     95    -22    297    298 288.8  -4.4  33898  285.15 0863.12
2015 04 09 12 43 53 .92    -288    114    -35    311    314 291.7  -6.6  33894  285.07 0863.12
2015 04 09 12 43 54 .17    -272    102    -26    291    293 290.6  -5.2  33898  285.15 0863.12
2015 04 09 12 43 54 .42    -273     83    -24    286    288 286.9  -4.9  33902  285.20 0863.12
2015 04 09 12 43 54 .67    -253     76    -24    265    267 286.8  -5.4  33900  285.19 0863.12
2015 04 09 12 43 54 .92    -277     95    -16    293    294 289.0  -3.3  33898  285.15 0863.12
2015 04 09 12 43 55 .17    -291    116    -32    314    316 291.8  -5.9  33894  285.08 0863.12
2015 04 09 12 43 55 .42    -272    106    -21    292    293 291.3  -4.1  33902  285.20 0863.12
2015 04 09 12 43 55 .67    -283    123    -39    309    312 293.5  -7.2  33896  285.10 0863.12
2015 04 09 12 43 55 .92    -296    133    -43    325    328 294.3  -7.6  33894  285.07 0863.12
2015 04 09 12 43 56 .17    -280    122    -36    306    309 293.5  -6.7  33896  285.10 0863.12
2015 04 09 12 43 56 .43    -259    122    -36    287    290 295.2  -7.3  33900  285.19 0863.12
2015 04 09 12 43 56 .68    -278    118    -29    303    305 293.1  -5.6  33894  285.07 0863.12
2015 04 09 12 43 56 .93    -302    122    -45    326    330 292.1  -7.9  33896  285.10 0863.12
2015 04 09 12 43 57 .18    -280    122    -39    306    309 293.6  -7.3  33898  285.14 0863.12
2015 04 09 12 43 57 .43    -276    126    -39    304    307 294.6  -7.3  33896  285.10 0863.12
2015 04 09 12 43 57 .68    -300    134    -35    329    331 294.2  -6.2  33896  285.11 0863.12
2015 04 09 12 43 57 .93    -299    130    -31    327    329 293.5  -5.5  33896  285.12 0863.12
2015 04 09 12 43 58 .18    -281    114    -27    304    306 292.2  -5.1  33896  285.12 0863.12
2015 04 09 12 43 58 .44    -262    128    -27    292    294 296.2  -5.4  33896  285.10 0863.12
2015 04 09 12 43 58 .69    -257    151    -40    299    302 300.4  -7.7  33894  285.08 0863.12
2015 04 09 12 43 58 .94    -246    156    -42    292    296 302.4  -8.2  33894  285.08 0863.12
2015 04 09 12 43 59 .19    -247    157    -19    293    294 302.4  -3.9  33896  285.12 0863.12
2015 04 09 12 43 59 .44    -248    162    -37    297    300 303.1  -7.2  33896  285.12 0863.12
2015 04 09 12 43 59 .69    -275    152    -37    315    318 298.9  -6.7  33892  285.03 0863.12
2015 04 09 12 43 59 .94    -274    137    -44    307    311 296.6  -8.2  33896  285.10 0863.12
2015 04 09 12 44 00 .19    -252    149    -45    293    297 300.7  -8.8  33892  285.05 0863.12
2015 04 09 12 44 00 .44    -258    164    -48    307    311 302.5  -9.0  33898  285.15 0863.12
2015 04 09 12 44 00 .69    -237    147    -40    279    282 301.8  -8.2  33898  285.14 0863.12
2015 04 09 12 44 00 .94    -245    145    -46    285    289 300.7  -9.3  33904  285.24 0863.12
2015 04 09 12 44 01 .19    -268    124    -38    296    299 294.8  -7.3  33898  285.14 0863.12
2015 04 09 12 44 01 .44    -275    134    -47    307    311 296.0  -8.7  33894  285.08 0863.12
2015 04 09 12 44 01 .69    -256    130    -32    288    290 297.0  -6.5  33898  285.14 0863.12
2015 04 09 12 44 01 .94    -256    118    -41    283    286 294.8  -8.3  33894  285.08 0863.12
2015 04 09 12 44 02 .19    -266    128    -34    296    299 295.8  -6.7  33892  285.05 0863.12
2015 04 09 12 44 02 .45    -280    122    -39    306    309 293.6  -7.3  33896  285.12 0863.12
2015 04 09 12 44 02 .70    -270    137    -39    304    307 297.0  -7.3  33896  285.10 0863.12
2015 04 09 12 44 02 .95    -244    144    -30    284    286 300.7  -6.2  33900  285.17 0863.12
2015 04 09 12 44 03 .20    -222    105    -27    246    248 295.5  -6.5  33902  285.20 0863.12
2015 04 09 12 44 03 .46    -278    141    -40    312    315 297.0  -7.4  33892  285.05 0863.12
2015 04 09 12 44 03 .71    -279    137    -42    312    315 296.2  -7.7  33898  285.14 0863.12
2015 04 09 12 44 03 .96    -273    123    -37    300    303 294.2  -7.2  33898  285.14 0863.12
2015 04 09 12 44 04 .21    -294    123    -34    319    321 292.7  -6.3  33896  285.10 0863.12
2015 04 09 12 44 04 .46    -263    119    -37    289    292 294.4  -7.3  33894  285.08 0863.12
2015 04 09 12 44 04 .71    -254    132    -41    287    291 297.5  -8.3  33896  285.10 0863.12
2015 04 09 12 44 04 .96    -264    137    -49    298    303 297.5  -9.4  33896  285.10 0863.12
2015 04 09 12 44 05 .21    -288    136    -38    319    322 295.4  -6.9  33896  285.12 0863.12
2015 04 09 12 44 05 .46    -291    126    -46    318    322 293.5  -8.2  33894  285.08 0863.12
2015 04 09 12 44 05 .71    -293    106    -47    312    316 290.0  -8.7  33896  285.10 0863.12
2015 04 09 12 44 05 .96    -282    117    -44    306    310 292.6  -8.2  33896  285.10 0863.12
2015 04 09 12 44 06 .21    -274    119    -39    299    302 293.5  -7.5  33898  285.14 0863.12
2015 04 09 12 44 06 .46    -269    117    -48    294    299 293.5  -9.3  33896  285.10 0863.13
2015 04 09 12 44 06 .71    -292    108    -47    312    316 290.4  -8.6  33894  285.08 0863.13
2015 04 09 12 44 06 .97    -264    117    -31    289    291 294.0  -6.2  33894  285.07 0863.13
2015 04 09 12 44 07 .22    -279    117    -43    303    307 292.7  -8.2  33894  285.07 0863.13
2015 04 09 12 44 07 .46    -282    110    -51    303    308 291.3  -9.6  33894  285.08 0863.13
2015 04 09 12 44 07 .72    -269    114    -37    293    296 293.1  -7.3  33896  285.10 0863.13
2015 04 09 12 44 07 .97    -272    101    -48    291    295 290.4  -9.4  33896  285.10 0863.13
2015 04 09 12 44 08 .22    -277    100    -48    295    300 290.0  -9.3  33894  285.07 0863.12
2015 04 09 12 44 08 .47    -264    105    -48    285    290 291.7  -9.6  33896  285.10 0863.12
2015 04 09 12 44 08 .72    -267    101    -52    286    291 290.8 -10.4  33894  285.07 0863.12
2015 04 09 12 44 08 .97    -266     96    -46    283    287 290.0  -9.4  33892  285.05 0863.12
2015 04 09 12 44 09 .22    -256     98    -45    275    279 290.9  -9.3  33896  285.12 0863.12
2015 04 09 12 44 09 .47    -270     98    -37    288    291 289.9  -7.3  33896  285.10 0863.12
2015 04 09 12 44 09 .72    -260     87    -33    275    277 288.6  -6.9  33898  285.15 0863.12
2015 04 09 12 44 09 .97    -246     98    -34    266    269 291.8  -7.3  33898  285.14 0863.12
2015 04 09 12 44 10 .23    -240     79    -41    253    257 288.4  -9.4  33896  285.10 0863.13
2015 04 09 12 44 10 .48    -242     86    -28    258    260 289.7  -6.2  33898  285.15 0863.13
2015 04 09 12 44 10 .73    -258     90    -38    274    277 289.3  -8.0  33896  285.10 0863.13
2015 04 09 12 44 10 .99    -271     82    -36    284    287 286.9  -7.3  33896  285.10 0863.13
2015 04 09 12 44 11 .23    -245     65    -76    254    266 285.0 -16.6  33896  285.10 0863.13
2015 04 09 12 44 11 .48    -252    101    -64    272    280 291.8 -13.4  33896  285.12 0863.13
2015 04 09 12 44 11 .73    -255     82    -44    269    273 287.9  -9.4  33896  285.12 0863.13
2015 04 09 12 44 11 .99    -251     83    -47    265    270 288.4 -10.1  33896  285.10 0863.12
2015 04 09 12 44 12 .23    -261     75    -43    272    276 286.0  -9.0  33902  285.20 0863.12
2015 04 09 12 44 12 .49    -261     63    -45    269    273 283.7  -9.6  33918  285.49 0863.12
2015 04 09 12 44 12 .74    -214     77    -28    228    230 290.0  -7.2  33922  285.56 0863.12
2015 04 09 12 44 12 .99    -238     82    -23    252    254 289.1  -5.4  33922  285.56 0863.12
2015 04 09 12 44 13 .24    -239     43    -31    243    245 280.4  -7.3  33904  285.25 0863.12
2015 04 09 12 44 13 .49    -241     52    -45    247    252 282.3 -10.4  33900  285.17 0863.12
2015 04 09 12 44 13 .75    -204     79    -25    220    222 291.3  -6.5  33940  285.85 0863.13
2015 04 09 12 44 13 .99    -133     79     -3    155    156 300.7  -1.3  33980  286.52 0863.13
2015 04 09 12 44 14 .24    -115     25     11    118    119 282.4   5.4  33990  286.71 0863.13
2015 04 09 12 44 14 .49    -155     46     -9    162    163 286.8  -3.3  33954  286.08 0863.13
2015 04 09 12 44 14 .74    -188     37     -1    192    193 281.2  -0.5  33938  285.82 0863.13
2015 04 09 12 44 15 .00    -187     94    -26    210    212 296.9  -7.2  33920  285.51 0863.13
2015 04 09 12 44 15 .24    -220     73    -42    232    236 288.4 -10.4  33914  285.40 0863.13
2015 04 09 12 44 15 .49    -232     79    -31    246    249 289.0  -7.3  33902  285.20 0863.13
2015 04 09 12 44 15 .74    -231     82    -44    246    250 289.7 -10.3  33898  285.14 0863.13
2015 04 09 12 44 16 .00    -231     76    -22    244    246 288.2  -5.2  33904  285.25 0863.13
2015 04 09 12 44 16 .25    -232     65    -25    242    244 285.7  -6.1  33904  285.24 0863.13
2015 04 09 12 44 16 .50    -231     76    -22    244    246 288.2  -5.2  33908  285.30 0863.13
2015 04 09 12 44 16 .75    -229     73    -39    241    245 287.7  -9.3  33902  285.22 0863.13
2015 04 09 12 44 16 .99    -217     67    -41    228    232 287.3 -10.3  33898  285.14 0863.13
2015 04 09 12 44 17 .26    -203     47    -18    209    210 283.3  -5.2  33902  285.23 0863.13
2015 04 09 12 44 17 .51    -188     56    -17    197    198 286.6  -5.1  33946  285.97 0863.13
2015 04 09 12 44 17 .76    -172     56    -12    182    183 288.2  -3.9  33964  286.27 0863.13
2015 04 09 12 44 18 .01    -125     67     -7    143    144 298.4  -3.2  33986  286.62 0863.13
2015 04 09 12 44 18 .26    -138     55     -1    149    150 291.7  -0.7  33942  285.88 0863.13
2015 04 09 12 44 18 .51    -219     75    -13    232    233 289.1  -3.3  33908  285.33 0863.13
2015 04 09 12 44 18 .76    -201     90    -28    221    223 294.2  -7.3  33906  285.28 0863.13
2015 04 09 12 44 19 .01    -125     53     -3    136    137 293.1  -1.3  33930  285.68 0863.13
2015 04 09 12 44 19 .26    -225     73    -21    237    238 288.2  -5.2  33910  285.35 0863.13
2015 04 09 12 44 19 .51    -230    109    -32    255    258 295.4  -7.3  33902  285.20 0863.13
2015 04 09 12 44 19 .76    -229     86    -27    245    247 290.8  -6.5  33904  285.25 0863.13
2015 04 09 12 44 20 .01    -231     86    -31    247    250 290.4  -7.3  33898  285.15 0863.12
2015 04 09 12 44 20 .27    -230     83    -30    245    247 290.0  -7.2  33900  285.17 0863.12
2015 04 09 12 44 20 .51    -229     78    -27    243    245 288.8  -6.5  33898  285.15 0863.12
2015 04 09 12 44 20 .76    -237     98    -46    257    262 292.4 -10.3  33896  285.10 0863.12
2015 04 09 12 44 21 .01    -246     90    -43    263    267 290.2  -9.3  33896  285.10 0863.12
2015 04 09 12 44 21 .27    -247    105    -44    269    273 293.1  -9.3  33896  285.10 0863.12
2015 04 09 12 44 21 .52    -254    110    -43    277    281 293.5  -9.0  33898  285.15 0863.12
2015 04 09 12 44 21 .77    -246    101    -38    267    270 292.4  -8.2  33896  285.12 0863.12
2015 04 09 12 44 22 .02    -243    109    -47    267    272 294.2 -10.1  33898  285.15 0863.12
2015 04 09 12 44 22 .27    -226    116    -42    255    259 297.3  -9.4  33902  285.20 0863.12
2015 04 09 12 44 22 .52    -207    102    -38    231    235 296.2  -9.3  33918  285.47 0863.12
2015 04 09 12 44 22 .77    -213    101    -26    236    238 295.4  -6.5  33916  285.45 0863.12
2015 04 09 12 44 23 .02    -244    125    -33    275    277 297.1  -6.9  33898  285.15 0863.12
2015 04 09 12 44 23 .27    -251    118    -43    278    282 295.2  -8.8  33892  285.05 0863.12
2015 04 09 12 44 23 .52    -252    118    -50    279    284 295.2 -10.3  33896  285.12 0863.12
2015 04 09 12 44 23 .77    -245    109    -54    269    275 294.0 -11.3  33896  285.10 0863.12
2015 04 09 12 44 24 .02    -254    106    -55    276    282 292.6 -11.3  33896  285.10 0863.12
2015 04 09 12 44 24 .28    -228    101    -54    250    256 294.0 -12.4  33894  285.07 0863.12
2015 04 09 12 44 24 .54    -241     95    -34    260    263 291.5  -7.5  33896  285.12 0863.12
2015 04 09 12 44 24 .79    -235     81    -41    249    253 289.1  -9.4  33896  285.10 0863.12
2015 04 09 12 44 25 .04    -229     93    -40    248    252 292.2  -9.3  33900  285.19 0863.12
2015 04 09 12 44 25 .28    -217     94    -46    237    242 293.5 -11.1  33898  285.15 0863.12
2015 04 09 12 44 25 .54    -212     85    -41    229    233 291.8 -10.3  33898  285.14 0863.12
2015 04 09 12 44 25 .79    -216     78    -54    230    237 289.9 -13.4  33894  285.07 0863.12
2015 04 09 12 44 26 .04    -214     79    -32    229    232 290.4  -8.0  33896  285.11 0863.12
2015 04 09 12 44 26 .29    -223     77    -43    236    240 289.1 -10.5  33898  285.14 0863.12
2015 04 09 12 44 26 .54    -212     85    -41    229    233 291.8 -10.3  33898  285.14 0863.12
2015 04 09 12 44 26 .79    -202     78    -37    217    221 291.1  -9.8  33896  285.11 0863.12
2015 04 09 12 44 27 .04    -202     86    -44    220    225 293.1 -11.5  33898  285.14 0863.12
2015 04 09 12 44 27 .29    -197     93    -42    219    224 295.4 -10.9  33898  285.14 0863.12
2015 04 09 12 44 27 .54    -203     95    -28    225    227 295.2  -7.3  33898  285.14 0863.12
2015 04 09 12 44 27 .79    -216     94    -38    236    240 293.7  -9.3  33896  285.12 0863.12
2015 04 09 12 44 28 .04    -209     98    -31    232    235 295.2  -7.7  33908  285.30 0863.12
2015 04 09 12 44 28 .29    -226     82    -25    241    243 290.0  -6.1  33906  285.29 0863.12
2015 04 09 12 44 28 .55    -213     90    -30    232    234 293.1  -7.5  33914  285.40 0863.12
2015 04 09 12 44 28 .79    -193     91    -27    214    216 295.2  -7.2  33910  285.36 0863.12
2015 04 09 12 44 29 .04    -175    110    -24    208    210 302.2  -6.7  33912  285.38 0863.12
2015 04 09 12 44 29 .29    -191    109    -15    221    222 299.8  -4.1  33896  285.13 0863.12
2015 04 09 12 44 29 .54    -188     89    -26    209    211 295.5  -7.3  33898  285.16 0863.12
2015 04 09 12 44 29 .80    -181    100    -30    207    210 298.9  -8.2  33900  285.18 0863.12
2015 04 09 12 44 30 .05    -185    103    -26    212    214 299.1  -7.2  33898  285.14 0863.13
2015 04 09 12 44 30 .30    -201     76    -15    216    217 290.8  -4.1  33904  285.24 0863.13
2015 04 09 12 44 30 .55    -159     73    -26    176    179 294.8  -8.6  33948  286.00 0863.13
2015 04 09 12 44 30 .80    -175     60    -25    186    188 289.1  -7.7  33936  285.78 0863.13
2015 04 09 12 44 31 .05    -172     45     -8    178    179 284.8  -2.6  33924  285.58 0863.13
2015 04 09 12 44 31 .31    -185     60    -23    195    197 288.2  -6.9  33906  285.28 0863.13
2015 04 09 12 44 31 .56    -158     58    -15    169    170 290.4  -5.2  33916  285.44 0863.13
2015 04 09 12 44 31 .81    -166     34     -6    170    171 281.7  -2.2  33918  285.48 0863.13
2015 04 09 12 44 32 .07    -188     26    -14    190    191 278.1  -4.4  33926  285.61 0863.13
2015 04 09 12 44 32 .31    -169     56    -11    179    180 288.4  -3.7  33968  286.32 0863.13
2015 04 09 12 44 32 .56    -152     26    -13    155    156 279.7  -4.9  33968  286.34 0863.13
2015 04 09 12 44 32 .81    -147     22     14    149    150 278.8   5.4  33940  285.87 0863.13
2015 04 09 12 44 33 .07    -152     56     -6    163    164 290.2  -2.2  33948  286.00 0863.13
2015 04 09 12 44 33 .32    -168     50    -26    176    178 286.8  -8.6  33982  286.57 0863.13
2015 04 09 12 44 33 .56    -126     -2      1    127    128 268.7   0.8  34000  286.86 0863.13
2015 04 09 12 44 33 .81    -180     10    -15    181    182 273.3  -4.9  33906  285.29 0863.13
2015 04 09 12 44 34 .07    -190     47    -23    196    198 284.2  -6.7  33912  285.38 0863.13
2015 04 09 12 44 34 .32    -188     40    -17    193    194 282.2  -5.2  33914  285.43 0863.13
2015 04 09 12 44 34 .57    -163     31    -21    166    168 280.8  -7.2  33924  285.58 0863.12
2015 04 09 12 44 34 .82    -158     35    -21    162    164 282.6  -7.7  33930  285.68 0863.12
2015 04 09 12 44 35 .07    -175     16    -16    176    177 275.5  -5.2  33912  285.38 0863.12
2015 04 09 12 44 35 .32    -141     19    -28    143    146 278.0 -11.3  33922  285.56 0863.12
2015 04 09 12 44 35 .57    -150     10    -20    151    153 273.9  -7.7  33920  285.53 0863.12
2015 04 09 12 44 35 .82    -180      4    -30    181    184 271.5  -9.6  33924  285.58 0863.12
2015 04 09 12 44 36 .07    -163    -28    -21    166    168 260.1  -7.3  33914  285.43 0863.12
2015 04 09 12 44 36 .32    -181     25    -26    183    185 277.9  -8.2  33902  285.21 0863.12
2015 04 09 12 44 36 .57    -192     36    -32    196    199 280.6  -9.4  33906  285.28 0863.12
2015 04 09 12 44 36 .82    -198     25    -40    200    205 277.2 -11.5  33898  285.14 0863.12
2015 04 09 12 44 37 .08    -190      7    -31    191    194 272.4  -9.3  33900  285.19 0863.12
2015 04 09 12 44 37 .32    -182     15    -39    183    188 275.0 -12.2  33898  285.14 0863.12
2015 04 09 12 44 37 .58    -160    -15    -15    161    162 264.3  -5.4  33950  286.03 0863.12
2015 04 09 12 44 37 .83     -74    -34     41     82     91 244.8  28.2  33960  286.19 0863.12
2015 04 09 12 44 38 .09     -72     30    -15     79     81 292.6 -11.3  33966  286.29 0863.12
2015 04 09 12 44 38 .34      -3     22     22     23     31 350.2  50.0  33972  286.41 0863.12
2015 04 09 12 44 38 .59    -116     55    -16    129    131 295.3  -7.2  33936  285.78 0863.12
2015 04 09 12 44 38 .84    -114     52      7    126    127 294.4   3.3  33948  286.00 0863.12
2015 04 09 12 44 39 .09    -174     41      2    179    180 283.5   0.8  33928  285.66 0863.12
2015 04 09 12 44 39 .34    -160     21    -25    162    164 277.5  -8.8  33908  285.33 0863.12
2015 04 09 12 44 39 .59    -138    -10    -12    139    140 265.6  -5.2  33954  286.08 0863.12
2015 04 09 12 44 39 .84    -133    -17     -6    135    136 262.5  -2.6  33968  286.32 0863.12
2015 04 09 12 44 40 .09    -156    -23    -28    158    161 261.6 -10.3  33946  285.97 0863.12
2015 04 09 12 44 40 .34    -104    -57     14    119    120 241.2   7.1  33958  286.15 0863.12
2015 04 09 12 44 40 .59     -32    -27     74     43     85 229.6  67.2  33984  286.59 0863.12
2015 04 09 12 44 40 .84    -146     -4     -4    147    148 268.3  -1.8  33922  285.55 0863.13
2015 04 09 12 44 41 .10    -165      4    -32    166    170 271.5 -10.9  33984  286.61 0863.13
2015 04 09 12 44 41 .34    -139     48    -14    148    149 289.1  -5.6  34004  286.93 0863.13
2015 04 09 12 44 41 .59    -141     19    -16    143    144 277.9  -6.7  33974  286.42 0863.13
2015 04 09 12 44 41 .85    -105     33      5    111    112 287.7   2.9  34000  286.88 0863.13
2015 04 09 12 44 42 .09    -163     27    -38    166    171 279.7 -13.2  33944  285.92 0863.13
2015 04 09 12 44 42 .35    -196     39    -26    200    202 281.5  -7.5  33942  285.90 0863.13
2015 04 09 12 44 42 .60    -196     39    -25    200    202 281.5  -7.3  33964  286.27 0863.13
2015 04 09 12 44 42 .85    -207     20    -12    209    210 275.7  -3.3  33986  286.64 0863.12
2015 04 09 12 44 43 .10    -172      1      3    173    174 270.4   1.0  33990  286.69 0863.12
2015 04 09 12 44 43 .35    -104    -48     -4    115    116 245.2  -2.2  33998  286.84 0863.12
2015 04 09 12 44 43 .60    -126      1     -4    127    128 270.8  -2.2  33990  286.69 0863.12
2015 04 09 12 44 43 .85    -146     36     -1    151    152 284.2  -0.7  34006  286.98 0863.12
2015 04 09 12 44 44 .10    -135      0     -3    136    137 270.0  -1.3  33964  286.27 0863.12
2015 04 09 12 44 44 .35    -161     -4    -17    162    163 268.3  -6.2  33942  285.90 0863.12
2015 04 09 12 44 44 .60    -183     -2    -49    184    191 269.2 -15.0  33900  285.19 0863.13
2015 04 09 12 44 44 .85    -192      8    -42    193    198 272.6 -12.4  33906  285.28 0863.13
2015 04 09 12 44 45 .11    -178     14    -29    179    182 274.8  -9.3  34020  287.20 0863.13
2015 04 09 12 44 45 .36    -155     -9    -21    156    158 266.5  -7.7  33942  285.90 0863.13
2015 04 09 12 44 45 .61    -165     -1    -30    166    169 269.6 -10.5  33900  285.18 0863.13
2015 04 09 12 44 45 .86    -164      0    -21    165    167 270.1  -7.3  33902  285.21 0863.13
2015 04 09 12 44 46 .11    -171     12    -22    172    174 274.3  -7.3  33908  285.33 0863.13
2015 04 09 12 44 46 .37    -147     16    -18    148    150 276.2  -7.2  33958  286.17 0863.13
2015 04 09 12 44 46 .62    -123     29     -4    127    128 283.3  -2.2  33978  286.51 0863.13
2015 04 09 12 44 46 .87    -169     24    -20    171    173 278.1  -6.7  33966  286.30 0863.13
2015 04 09 12 44 47 .12    -140    -38      7    146    147 254.9   2.8  33986  286.64 0863.13
2015 04 09 12 44 47 .37     -78      1      6     79     80 270.9   4.9  33998  286.83 0863.13
2015 04 09 12 44 47 .62     -37     34     50     51     71 312.2  50.0  34010  287.03 0863.13
2015 04 09 12 44 47 .87    -146     48    -23    154    156 288.4  -8.6  34034  287.45 0863.13
2015 04 09 12 44 48 .12       0     -7     27      8     28 182.7  80.7  34022  287.25 0863.13
2015 04 09 12 44 48 .37     -32     16    -25     37     44 297.1 -40.9  34044  287.62 0863.13
2015 04 09 12 44 48 .62     -28    -13     45     32     55 244.6  61.5  34074  288.11 0863.13
2015 04 09 12 44 48 .87      12    -45     18     47     50 164.0  21.0  34080  288.21 0863.13
2015 04 09 12 44 49 .12      -8    -32     18     34     38 195.1  29.3  34082  288.26 0863.12
2015 04 09 12 44 49 .38    -171    -59    -28    181    184 250.9  -9.0  33972  286.39 0863.12
2015 04 09 12 44 49 .62    -185    -65     -9    197    198 250.7  -2.8  34080  288.23 0863.12
2015 04 09 12 44 49 .87     -75     -4     28     76     81 266.5  21.0  34084  288.30 0863.12
2015 04 09 12 44 50 .12    -152     11     -6    153    154 274.4  -2.2  34010  287.05 0863.12
2015 04 09 12 44 50 .37    -192      8    -31    193    196 272.4  -9.3  33920  285.51 0863.12
2015 04 09 12 44 50 .63    -174      3    -47    175    182 271.3 -15.0  33902  285.23 0863.12
2015 04 09 12 44 50 .88    -180     15    -34    181    185 274.8 -10.9  33916  285.46 0863.12
2015 04 09 12 44 51 .12    -192     16    -30    193    196 274.8  -9.0  33906  285.29 0863.12
2015 04 09 12 44 51 .38    -186      8    -24    187    189 272.6  -7.3  33906  285.29 0863.12
2015 04 09 12 44 51 .63    -185     20    -29    187    190 276.4  -8.8  33910  285.34 0863.12
2015 04 09 12 44 51 .88    -207     13    -34    208    211 273.7  -9.3  33900  285.18 0863.12
2015 04 09 12 44 52 .13    -200     13    -43    201    206 273.7 -12.2  33900  285.18 0863.12
2015 04 09 12 44 52 .39    -195      5    -39    196    200 271.5 -11.3  33906  285.28 0863.12
2015 04 09 12 44 52 .64    -195     14    -33    196    199 274.4  -9.8  33908  285.31 0863.12
2015 04 09 12 44 52 .89    -193     15    -34    194    198 274.6 -10.1  33904  285.26 0863.12
2015 04 09 12 44 53 .14    -189     13    -26    190    192 274.1  -8.0  33898  285.16 0863.12
2015 04 09 12 44 53 .40    -181     17    -24    182    184 275.5  -7.7  33958  286.15 0863.12
2015 04 09 12 44 53 .64    -137      0    -28    138    141 270.4 -11.5  33994  286.78 0863.13
2015 04 09 12 44 53 .89     -75     24     12     79     80 288.2   9.0  34016  287.15 0863.13
2015 04 09 12 44 54 .14    -177     16     -9    178    179 275.2  -3.1  33960  286.20 0863.13
2015 04 09 12 44 54 .40     -91     57     21    108    111 302.4  11.1  33984  286.61 0863.13
2015 04 09 12 44 54 .64    -124     25    -13    127    128 281.5  -6.2  33976  286.46 0863.13
2015 04 09 12 44 54 .90    -161    -24    -26    163    166 261.4  -9.3  33942  285.90 0863.13
2015 04 09 12 44 55 .14    -150    -16    -13    151    152 263.8  -5.1  33924  285.58 0863.13
2015 04 09 12 44 55 .40    -181     20    -44    183    189 276.6 -13.7  33900  285.19 0863.12
2015 04 09 12 44 55 .65    -200     27    -34    202    206 277.9  -9.8  33904  285.24 0863.12
2015 04 09 12 44 55 .90    -199     27    -30    201    204 277.9  -8.6  33900  285.19 0863.12
2015 04 09 12 44 56 .15    -174     29    -20    177    179 279.7  -6.5  33904  285.24 0863.12
2015 04 09 12 44 56 .40    -187     29    -14    190    191 279.0  -4.4  33904  285.24 0863.12
2015 04 09 12 44 56 .65    -193     31    -35    196    200 279.2 -10.1  33898  285.14 0863.12
2015 04 09 12 44 56 .89    -188     46    -37    194    198 283.9 -10.9  33892  285.06 0863.12
2015 04 09 12 44 57 .15    -197     43    -36    202    206 282.4 -10.3  33894  285.09 0863.12
2015 04 09 12 44 57 .40    -193     37    -32    197    200 281.0  -9.3  33896  285.11 0863.13
2015 04 09 12 44 57 .65    -188     28    -26    191    193 278.6  -8.0  33896  285.11 0863.13
2015 04 09 12 44 57 .90    -177     36    -32    181    184 281.5 -10.1  33898  285.16 0863.13
2015 04 09 12 44 58 .15    -189     38    -27    193    195 281.4  -8.0  33898  285.16 0863.13
2015 04 09 12 44 58 .41    -175     13    -20    176    178 274.3  -6.7  33900  285.19 0863.13
2015 04 09 12 44 58 .65    -183     27    -29    186    189 278.6  -9.0  33898  285.14 0863.13
2015 04 09 12 44 58 .91    -177     36    -32    181    184 281.5 -10.1  33898  285.16 0863.13
2015 04 09 12 44 59 .17    -167     15    -25    168    170 275.5  -8.6  33902  285.21 0863.13
2015 04 09 12 44 59 .41    -179     31    -35    182    186 280.1 -10.9  33898  285.14 0863.13
2015 04 09 12 44 59 .66    -173     20    -27    175    178 276.8  -8.8  33898  285.16 0863.13
2015 04 09 12 44 59 .92    -175     35    -25    179    181 281.5  -8.0  33906  285.28 0863.12
2015 04 09 12 45 00 .17    -162     30    -28    165    168 280.8  -9.8  33898  285.14 0863.12
2015 04 09 12 45 00 .42    -165     17    -13    166    167 275.9  -4.6  33906  285.29 0863.12
2015 04 09 12 45 00 .67    -141     24    -12    144    145 279.7  -5.1  33912  285.38 0863.12
2015 04 09 12 45 00 .92    -165     34    -31    169    172 281.9 -10.5  33896  285.11 0863.12
2015 04 09 12 45 01 .17    -178     45    -33    184    187 284.2 -10.3  33896  285.11 0863.12
2015 04 09 12 45 01 .42    -165     34    -31    169    172 281.9 -10.5  33896  285.11 0863.12
2015 04 09 12 45 01 .67    -151     30    -13    155    156 281.5  -4.9  33906  285.29 0863.12
2015 04 09 12 45 01 .92    -164     24    -15    166    167 278.4  -5.4  33900  285.19 0863.12
2015 04 09 12 45 02 .17    -165     34    -31    169    172 281.9 -10.5  33896  285.11 0863.12
2015 04 09 12 45 02 .42    -160     26    -25    163    166 279.5  -9.0  33896  285.11 0863.12
2015 04 09 12 45 02 .67    -169     34    -22    173    175 281.7  -7.3  33900  285.18 0863.12
2015 04 09 12 45 02 .92    -169     34    -29    173    176 281.5  -9.8  33898  285.14 0863.12
2015 04 09 12 45 03 .18    -156     27    -20    159    161 280.1  -7.3  33902  285.21 0863.12
2015 04 09 12 45 03 .42    -143      8    -10    144    145 273.5  -4.1  33906  285.28 0863.12
2015 04 09 12 45 03 .67    -146     12      0    147    148 274.8  -0.3  33910  285.34 0863.12
2015 04 09 12 45 03 .92    -161     35    -25    165    167 282.4  -8.8  33900  285.18 0863.12
2015 04 09 12 45 04 .17    -160     27    -25    163    166 279.9  -9.0  33898  285.16 0863.12
2015 04 09 12 45 04 .43    -153     21    -16    155    156 277.9  -6.0  33906  285.28 0863.12
2015 04 09 12 45 04 .68    -146     30    -16    150    151 281.9  -6.2  33902  285.21 0863.12
2015 04 09 12 45 04 .93    -152     31    -32    156    160 281.5 -11.9  33898  285.14 0863.12
2015 04 09 12 45 05 .18    -147     20    -24    149    152 277.9  -9.3  33898  285.16 0863.12
2015 04 09 12 45 05 .42    -159     24    -22    161    163 278.6  -8.0  33898  285.14 0863.13
2015 04 09 12 45 05 .68    -153     22    -26    155    158 278.4  -9.6  33896  285.11 0863.13
2015 04 09 12 45 05 .95    -155     21    -21    157    159 277.9  -7.7  33908  285.33 0863.13
2015 04 09 12 45 06 .19    -147     49    -22    156    158 288.6  -8.2  33944  285.92 0863.13
2015 04 09 12 45 06 .44    -146     25    -16    149    150 279.7  -6.2  33912  285.38 0863.13
2015 04 09 12 45 06 .69    -148     39    -27    154    157 285.1 -10.3  33898  285.14 0863.13
2015 04 09 12 45 06 .94    -141     36    -29    146    149 284.6 -11.3  33894  285.09 0863.13
2015 04 09 12 45 07 .19    -136     31    -18    140    142 283.2  -7.7  33902  285.21 0863.12
2015 04 09 12 45 07 .44    -144     24    -22    147    149 279.7  -8.8  33898  285.14 0863.12
2015 04 09 12 45 07 .69    -134     26    -27    137    140 281.0 -11.3  33898  285.14 0863.12
2015 04 09 12 45 07 .94    -134     28    -27    137    140 281.9 -11.3  33896  285.11 0863.12
2015 04 09 12 45 08 .19    -134     28    -27    137    140 281.9 -11.3  33896  285.11 0863.12
2015 04 09 12 45 08 .44    -126     17    -16    128    130 277.9  -7.3  33898  285.14 0863.12
2015 04 09 12 45 08 .70    -124     37    -16    130    132 286.8  -7.2  33898  285.16 0863.12
2015 04 09 12 45 08 .94    -124     29    -16    128    130 283.2  -7.2  33896  285.11 0863.12
2015 04 09 12 45 09 .19    -120     28    -16    124    126 283.3  -7.7  33894  285.09 0863.12
2015 04 09 12 45 09 .44    -116     29    -19    120    122 284.2  -9.3  33896  285.11 0863.12
2015 04 09 12 45 09 .69    -116     29    -19    120    122 284.2  -9.3  33896  285.11 0863.12
2015 04 09 12 45 09 .94    -118     24    -21    121    123 281.5 -10.3  33898  285.14 0863.12
2015 04 09 12 45 10 .20    -105     22    -28    108    112 281.9 -14.5  33898  285.14 0863.12
2015 04 09 12 45 10 .44    -105     28    -23    109    112 285.0 -11.9  33896  285.11 0863.12
2015 04 09 12 45 10 .70    -102     24    -21    105    108 283.3 -11.3  33898  285.14 0863.12
2015 04 09 12 45 10 .95    -102     24    -21    105    108 283.3 -11.3  33898  285.14 0863.12
2015 04 09 12 45 11 .20    -102     24    -21    105    108 283.3 -11.3  33898  285.14 0863.12
2015 04 09 12 45 11 .45    -105     19    -23    107    110 280.6 -12.4  33898  285.16 0863.12
2015 04 09 12 45 11 .70    -102     15    -21    104    107 278.8 -11.5  33898  285.14 0863.12
2015 04 09 12 45 11 .95    -108     16    -19    110    112 278.8  -9.8  33902  285.21 0863.12
2015 04 09 12 45 12 .20     -92     21    -10     95     96 283.3  -6.2  33898  285.16 0863.12
2015 04 09 12 45 12 .45     -89      8    -22     90     93 275.2 -13.9  33898  285.14 0863.12
2015 04 09 12 45 12 .71     -90     17    -13     92     93 281.0  -8.2  33926  285.63 0863.12
2015 04 09 12 45 12 .97     -85     17    -16     87     89 281.5 -10.9  33922  285.56 0863.12
2015 04 09 12 45 13 .22     -73     17     -9     75     76 283.3  -7.3  33958  286.15 0863.12
2015 04 09 12 45 13 .46     -86     28     -1     91     92 288.4  -0.7  33974  286.42 0863.12
2015 04 09 12 45 13 .72    -102     20    -13    105    106 281.5  -7.2  33970  286.35 0863.12
2015 04 09 12 45 13 .97     -44     24     -2     51     52 298.9  -2.2  33982  286.56 0863.12
2015 04 09 12 45 14 .22     -18     49     20     53     56 340.0  20.0  33998  286.84 0863.12
2015 04 09 12 45 14 .47     -34     37     52     51     72 317.7  49.1  34014  287.11 0863.13
2015 04 09 12 45 14 .72     -27      9    -14     29     32 288.4 -31.6  34002  286.89 0863.13
2015 04 09 12 45 14 .97     -30     18     -6     36     37 300.7  -9.3  33996  286.79 0863.13
2015 04 09 12 45 15 .22     -84     31    -11     90     91 290.8  -7.3  33932  285.71 0863.13
2015 04 09 12 45 15 .47     -71     -2    -25     72     77 268.3 -19.1  33928  285.66 0863.13
2015 04 09 12 45 15 .72     -65     -4    -23     66     69 266.5 -23.3  33910  285.36 0863.13
2015 04 09 12 45 15 .97     -73      5    -23     74     77 274.3 -23.8  33898  285.16 0863.13
2015 04 09 12 45 16 .22     -67      5    -25     68     72 274.4 -24.4  33900  285.19 0863.13
2015 04 09 12 45 16 .47     -69      7    -27     70     75 276.1 -25.4  33902  285.21 0863.12
2015 04 09 12 45 16 .72     -65     17    -36     68     76 285.1 -34.7  33902  285.21 0863.12
2015 04 09 12 45 16 .97     -52     13    -32     54     62 284.2 -37.9  33904  285.26 0863.12
2015 04 09 12 45 17 .22     -56      8    -27     57     63 278.8 -31.6  33908  285.31 0863.12
2015 04 09 12 45 17 .48     -59     23    -32     64     71 291.8 -31.7  33920  285.53 0863.12
2015 04 09 12 45 17 .72     -60     24    -14     65     67 291.7 -12.4  33956  286.14 0863.12
2015 04 09 12 45 17 .98     -47     36    -10     60     61 307.8 -10.3  33962  286.24 0863.12
2015 04 09 12 45 18 .22     -25     24     16     35     38 313.3  25.1  33968  286.32 0863.12
2015 04 09 12 45 18 .48     -27      2     18     28     33 274.3  35.6  33962  286.24 0863.12
2015 04 09 12 45 18 .73     -22     -3      9     23     24 260.3  21.0  33992  286.73 0863.12
2015 04 09 12 45 18 .98     -22     -3      2     23     24 260.3   4.9  33980  286.52 0863.12
2015 04 09 12 45 19 .23     -24    -22      5     33     34 226.7   9.0  33974  286.44 0863.12
2015 04 09 12 45 19 .48     -22    -17     11     29     31 232.2  21.0  33970  286.37 0863.12
2015 04 09 12 45 19 .73     -24    -20     16     32     35 230.4  27.3  33968  286.32 0863.12
2015 04 09 12 45 19 .99     -12    -36     16     38     41 198.5  24.1  33952  286.05 0863.12
2015 04 09 12 45 20 .24      -7     -8      5     11     12 219.6  27.2  33978  286.51 0863.12
2015 04 09 12 45 20 .49      -6     -7      5     10     11 223.2  27.2  33984  286.61 0863.12
2015 04 09 12 45 20 .74      -2      0     16      3     16 270.0  90.0  33998  286.84 0863.12
2015 04 09 12 45 20 .99     -15     12     23     20     30 309.5  56.3  34000  286.88 0863.12
2015 04 09 12 45 21 .25      -3     -8     29      9     30 205.4  80.7  34014  287.11 0863.12
2015 04 09 12 45 21 .49       6     -5     28      8     29 129.5  80.7  34034  287.45 0863.12
2015 04 09 12 45 21 .74      -4     -5     27      7     27 223.4  82.8  34038  287.52 0863.12
2015 04 09 12 45 21 .99      -5    -11     27     13     29 205.4  72.8  34008  287.00 0863.12
2015 04 09 12 45 22 .25     -14    -20     24     25     34 216.1  52.0  34012  287.06 0863.12
2015 04 09 12 45 22 .49     -22    -17     24     28     36 232.2  45.8  34002  286.91 0863.12
2015 04 09 12 45 22 .75     -16    -24     16     30     34 214.3  29.3  34002  286.91 0863.12
2015 04 09 12 45 22 .99     -24    -12     16     28     32 242.9  33.5  34014  287.11 0863.12
2015 04 09 12 45 23 .24     -38    -12     -4     40     41 251.8  -6.2  33968  286.34 0863.12
2015 04 09 12 45 23 .50     -42    -14    -14     45     47 251.4 -22.8  33940  285.85 0863.12
2015 04 09 12 45 24 .25     -46     -4    -25     47     53 264.8 -34.7  33900  285.18 0863.12
2015 04 09 12 45 24 .50     -61    -16    -10     64     65 254.9  -9.3  33904  285.24 0863.12
2015 04 09 12 45 24 .75     -47    -29     -1     56     57 238.5  -1.3  33912  285.39 0863.12
2015 04 09 12 45 25 .00     -54    -18    -10     57     58 251.6 -10.3  33906  285.28 0863.12
2015 04 09 12 45 25 .25     -58     -8    -18     59     62 262.1 -17.6  33904  285.26 0863.12
2015 04 09 12 45 25 .50     -54     -8    -19     55     59 261.2 -19.7  33910  285.34 0863.12
2015 04 09 12 45 25 .75     -52     -8    -19     53     56 261.2 -23.3  33918  285.48 0863.12
2015 04 09 12 45 26 .01     -50    -13    -23     52     56 254.9 -29.5  33926  285.63 0863.12
2015 04 09 12 45 26 .25     -43    -17    -13     47     49 248.3 -15.5  33924  285.58 0863.12
2015 04 09 12 45 26 .51     -68    -18    -25     71     75 255.0 -23.3  33934  285.76 0863.12
2015 04 09 12 45 26 .77     -67     -9    -20     68     72 262.1 -16.6  33942  285.88 0863.12
2015 04 09 12 45 27 .01     -60    -13    -19     62     64 257.6 -22.8  33934  285.75 0863.12
2015 04 09 12 45 27 .27     -65    -13    -23     67     70 258.5 -23.3  33926  285.63 0863.12
2015 04 09 12 45 27 .52     -73     -8    -24     74     77 263.0 -23.8  33936  285.80 0863.12
2015 04 09 12 45 27 .77     -73     -6    -19     74     77 264.8 -14.5  33942  285.90 0863.12
2015 04 09 12 45 28 .02     -77      5    -16     78     80 274.3 -11.9  33938  285.82 0863.12
2015 04 09 12 45 28 .27     -56      8    -20     57     60 278.8 -23.3  33940  285.87 0863.12
2015 04 09 12 45 28 .52     -51      4    -14     52     54 275.2 -15.5  33944  285.93 0863.12
2015 04 09 12 45 28 .77     -54     10     -8     55     56 280.6  -8.2  33940  285.87 0863.12
2015 04 09 12 45 29 .02     -49      5    -14     50     51 276.1 -20.7  33942  285.90 0863.12
2015 04 09 12 45 29 .27     -44      5    -16     45     47 277.0 -23.3  33944  285.93 0863.12
2015 04 09 12 45 29 .52     -49      5    -14     50     51 276.1 -20.7  33942  285.90 0863.12
2015 04 09 12 45 29 .77     -51      4    -14     52     54 275.2 -15.5  33944  285.93 0863.12
2015 04 09 12 45 30 .02     -45     10     -7     47     48 282.4  -9.3  33948  286.00 0863.12
2015 04 09 12 45 30 .27     -42     13     -4     45     46 287.7  -5.2  33944  285.93 0863.12
2015 04 09 12 45 30 .52     -39      2     -9     40     42 273.5 -13.4  33940  285.87 0863.12
2015 04 09 12 45 30 .77     -43      4     -4     44     45 276.1  -5.2  33934  285.76 0863.12
2015 04 09 12 45 31 .03     -45      2     -7     46     47 272.6  -9.3  33936  285.80 0863.12
2015 04 09 12 45 31 .28     -25      5     14     26     29 283.3  31.4  33978  286.51 0863.12
2015 04 09 12 45 31 .53     -15     12     23     20     30 309.5  56.3  33992  286.73 0863.12
2015 04 09 12 45 31 .78     -12     11     14     17     22 313.3  43.7  34004  286.93 0863.12
2015 04 09 12 45 32 .03     -21     19     10     29     31 313.3  18.9  33996  286.79 0863.12
2015 04 09 12 45 32 .28     -16     28      9     33     35 331.0  15.3  33990  286.71 0863.12
2015 04 09 12 45 32 .53     -13     28      7     32     33 334.6  13.2  33982  286.57 0863.12
2015 04 09 12 45 32 .78     -16     17      8     24     26 316.6  19.4  33984  286.59 0863.12
2015 04 09 12 45 33 .03     -17     17      8     25     27 314.9  17.3  33980  286.54 0863.12
2015 04 09 12 45 33 .28     -49     16     -5     52     53 288.2  -6.2  33964  286.25 0863.12
2015 04 09 12 45 33 .53     -54     18     -2     57     58 288.6  -2.2  33952  286.05 0863.12
2015 04 09 12 45 33 .79     -42     13     -5     45     46 287.7  -7.3  33926  285.61 0863.12
2015 04 09 12 45 34 .04     -40     25     -2     48     49 302.4  -3.1  33930  285.70 0863.12
2015 04 09 12 45 34 .29     -41     22    -13     47     49 298.0 -15.5  33924  285.58 0863.12
2015 04 09 12 45 34 .55     -37     29     -7     48     49 307.8  -9.3  33924  285.58 0863.12
2015 04 09 12 45 34 .79     -53     20     -2     57     58 290.8  -2.2  33940  285.87 0863.12
2015 04 09 12 45 35 .04     -58     23     -8     63     64 291.8  -7.3  33940  285.85 0863.12
2015 04 09 12 45 35 .29     -60     28    -11     67     68 295.3  -9.3  33932  285.71 0863.12
2015 04 09 12 45 35 .55     -56     28    -12     63     65 297.1 -11.3  33934  285.75 0863.12
2015 04 09 12 45 35 .79     -60     24     -8     65     66 292.6  -7.2  33930  285.70 0863.12
2015 04 09 12 45 36 .04     -54     24     -9     60     61 294.4  -9.3  33922  285.56 0863.11
2015 04 09 12 45 36 .30     -49     29    -16     58     61 300.7 -15.5  33926  285.61 0863.11
2015 04 09 12 45 36 .55     -61     28     -9     68     69 294.4  -8.2  33944  285.92 0863.11
2015 04 09 12 45 36 .80     -64     29    -15     71     73 294.4 -12.4  33918  285.50 0863.11
2015 04 09 12 45 37 .05     -61     27    -18     67     70 294.4 -15.5  33910  285.36 0863.11
2015 04 09 12 45 37 .30     -57     31    -15     66     68 298.8 -13.4  33934  285.76 0863.11
2015 04 09 12 45 37 .55     -51     28    -16     59     62 298.8 -15.4  33962  286.24 0863.11
2015 04 09 12 45 37 .81     -52     28     -7     60     61 298.9  -7.3  33968  286.32 0863.11
2015 04 09 12 45 38 .05     -40     33     -2     52     53 309.5  -2.2  33998  286.84 0863.11
2015 04 09 12 45 38 .30     -32     32     -6     46     47 315.0  -8.2  34002  286.89 0863.11
2015 04 09 12 45 38 .55     -18     33     -6     38     39 331.0 -10.3  34004  286.94 0863.11
2015 04 09 12 45 38 .80     -16     37      0     41     42 336.4   0.8  33996  286.79 0863.11
2015 04 09 12 45 39 .05     -20     32      5     39     40 327.5   8.0  34008  287.01 0863.11
2015 04 09 12 45 39 .30     -24     39      8     46     47 328.4  10.1  34010  287.03 0863.11
2015 04 09 12 45 39 .55     -12     36     14     39     41 341.5  20.0  34016  287.15 0863.11
2015 04 09 12 45 39 .81     -11     29     21     32     38 338.2  35.6  34026  287.32 0863.11
2015 04 09 12 45 40 .06     -11      6     21     13     24 298.9  64.7  34052  287.76 0863.11
2015 04 09 12 45 40 .30     -16     -7     30     18     35 244.7  64.7  34052  287.76 0863.11
2015 04 09 12 45 40 .56     -16    -10     21     19     28 237.6  50.1  34040  287.54 0863.11
2015 04 09 12 45 40 .82     -18     -4     20     19     27 254.9  48.2  34042  287.59 0863.11
2015 04 09 12 45 41 .07     -14      2     38     15     40 281.5  78.2  34024  287.28 0863.11
2015 04 09 12 45 41 .32     -21      1     35     22     41 274.4  64.7  34024  287.27 0863.11
2015 04 09 12 45 41 .57     -32     25     41     41     57 307.8  50.1  34020  287.20 0863.11
2015 04 09 12 45 41 .82     -12     11     41     17     44 313.3  77.1  34032  287.40 0863.11
2015 04 09 12 45 42 .07     -18      6     24     19     30 288.6  56.4  34040  287.55 0863.11
2015 04 09 12 45 42 .33     -18      6     10     19     21 288.4  29.3  34048  287.67 0863.11
2015 04 09 12 45 42 .57      -9    -19     24     22     32 205.4  50.1  34072  288.09 0863.11
2015 04 09 12 45 42 .82      -1    -12     25     13     28 184.5  70.8  34068  288.03 0863.11
2015 04 09 12 45 43 .07      -4     -3     14      6     15 230.5  77.1  34064  287.94 0863.11
2015 04 09 12 45 43 .32      -4      1     21      5     21 288.4  86.9  34064  287.96 0863.11
2015 04 09 12 45 43 .57      -4     -5     27      7     27 223.4  82.8  34070  288.04 0863.11
2015 04 09 12 45 43 .82      -1     -4     25      5     25 191.6  89.0  34072  288.08 0863.11
2015 04 09 12 45 44 .07      -8     -8     19     12     22 226.9  64.7  34078  288.20 0863.11
2015 04 09 12 45 44 .33      -6      6     19      9     21 316.6  72.9  34054  287.77 0863.11
2015 04 09 12 45 44 .58      -1     -4     25      5     25 191.6  89.0  34074  288.13 0863.11
2015 04 09 12 45 44 .82       0     -3     20      4     20 189.7  89.0  34078  288.20 0863.11
2015 04 09 12 45 45 .08       2     -4     16      5     16 147.5  80.7  34072  288.08 0863.11
2015 04 09 12 45 45 .33       1      0     16      2     16  71.6  90.0  34080  288.23 0863.11
2015 04 09 12 45 45 .58       2      1     17      3     17  57.6  90.0  34090  288.40 0863.11
2015 04 09 12 45 45 .83      -4     -5     20      7     21 223.4  81.0  34074  288.13 0863.11
2015 04 09 12 45 46 .08      -5    -12     14     14     19 201.8  50.1  34048  287.67 0863.11
2015 04 09 12 45 46 .33     -15    -23     15     28     31 212.5  29.3  34020  287.20 0863.11
2015 04 09 12 45 46 .58     -15    -21     18     26     31 216.1  37.6  34022  287.25 0863.11
2015 04 09 12 45 46 .83      -4    -27     14     28     31 189.8  27.3  34012  287.08 0863.11
2015 04 09 12 45 47 .09      -4    -34      6     35     36 188.0  11.0  34014  287.11 0863.11
2015 04 09 12 45 47 .34      -4    -28     14     29     32 189.8  27.2  34032  287.40 0863.11
2015 04 09 12 45 47 .59       0    -23     21     24     31 180.9  45.8  34026  287.32 0863.11
2015 04 09 12 45 47 .85       0    -27     11     28     30 180.9  21.0  34018  287.16 0863.11
2015 04 09 12 45 48 .10       2    -27      9     28     30 175.6  19.4  34032  287.42 0863.11
2015 04 09 12 45 48 .34       0    -32     14     33     35 180.9  23.0  34038  287.50 0863.11
2015 04 09 12 45 48 .60      -2    -33      8     34     35 184.5  13.2  34036  287.47 0863.11
2015 04 09 12 45 48 .84      -7    -31     11     32     34 193.4  19.2  34024  287.27 0863.11
2015 04 09 12 45 49 .10      -1    -35     17     36     39 182.7  26.2  34038  287.52 0863.11
2015 04 09 12 45 49 .34       7    -36     13     37     40 168.4  19.2  34042  287.57 0863.11
2015 04 09 12 45 49 .60      17    -42     12     46     48 158.2  15.3  34042  287.59 0863.11
2015 04 09 12 45 49 .85      12    -37     10     40     42 161.7  14.3  34050  287.72 0863.11
2015 04 09 12 45 50 .09      18    -40     18     44     47 155.5  23.0  34032  287.42 0863.11
2015 04 09 12 45 50 .35      24    -35     -1     43     44 145.7  -2.2  33996  286.81 0863.11
2015 04 09 12 45 50 .60      25    -35     -3     44     45 143.9  -4.1  33984  286.59 0863.11
2015 04 09 12 45 50 .85      29    -34     -5     46     47 139.5  -7.2  33988  286.66 0863.11
2015 04 09 12 45 51 .10      24    -54    -23     60     64 156.4 -25.4  34002  286.89 0863.11
2015 04 09 12 45 51 .35       9    -48    -30     49     57 169.3 -39.9  33994  286.78 0863.11
2015 04 09 12 45 51 .60       8    -57    -44     58     72 171.1 -46.1  33922  285.56 0863.11
2015 04 09 12 45 51 .85       4    -52    -39     53     65 174.7 -44.1  33920  285.51 0863.11
2015 04 09 12 45 52 .10       9    -64    -37     65     74 172.0 -36.8  33930  285.68 0863.11
2015 04 09 12 45 52 .35      -5    -74    -38     75     84 184.4 -33.1  33934  285.75 0863.11
2015 04 09 12 45 52 .61       2    -67    -43     68     80 178.2 -39.9  33962  286.24 0863.11
2015 04 09 12 45 52 .86      -1    -40    -43     41     59 182.7 -55.6  33976  286.46 0863.11
2015 04 09 12 45 53 .11     -20    -20    -19     29     34 225.0 -40.0  33980  286.54 0863.11
2015 04 09 12 45 53 .36     -15    -23     16     28     32 212.6  33.5  33976  286.47 0863.11
2015 04 09 12 45 53 .61      19     -3     20     20     28 101.5  50.1  33976  286.47 0863.11
2015 04 09 12 45 53 .86      18      6     18     19     26  71.6  50.0  34010  287.03 0863.11
2015 04 09 12 45 54 .11      23    -17     22     29     36 126.0  41.7  34000  286.88 0863.11
2015 04 09 12 45 54 .36      15     -9     14     18     22 122.4  43.7  34006  286.98 0863.11
2015 04 09 12 45 54 .62      22      0      8     23     25  90.0  18.9  33998  286.83 0863.11
2015 04 09 12 45 54 .87      13      5     14     15     20  68.3  47.9  34010  287.05 0863.11
2015 04 09 12 45 55 .12      20      1     14     21     25  85.6  35.6  34004  286.93 0863.11
2015 04 09 12 45 55 .37      24    -27     12     37     40 138.6  18.4  33996  286.79 0863.11
2015 04 09 12 45 55 .62      49    -20     18     54     58 112.6  18.9  34034  287.43 0863.11
2015 04 09 12 45 55 .87      52     -3     24     53     58  94.3  26.2  34044  287.60 0863.11
2015 04 09 12 45 56 .12      51    -31     -2     60     61 121.5  -2.2  34000  286.88 0863.11
2015 04 09 12 45 56 .37      32    -57      9     66     67 151.0   8.0  33986  286.64 0863.11
2015 04 09 12 45 56 .63      53    -51    -22     74     78 134.1 -17.0  34008  287.00 0863.11
2015 04 09 12 45 56 .87      48    -48    -20     69     73 134.9 -16.6  33992  286.73 0863.11
2015 04 09 12 45 57 .13      52    -56    -14     77     79 136.8 -10.9  33982  286.56 0863.11
2015 04 09 12 45 57 .38      43    -70    -25     83     87 148.4 -17.0  33978  286.51 0863.11
2015 04 09 12 45 57 .63      21    -67     -9     71     72 162.2  -7.3  33970  286.37 0863.11
2015 04 09 12 45 57 .88      37    -62    -13     73     75 149.3 -10.3  33998  286.84 0863.11
2015 04 09 12 45 58 .13      58    -56     -3     81     82 134.1  -2.2  34000  286.88 0863.11
2015 04 09 12 45 58 .38      42    -58    -25     72     76 143.9 -23.3  34020  287.20 0863.11
2015 04 09 12 45 58 .62      27    -58    -39     65     75 154.5 -39.9  33978  286.51 0863.10
2015 04 09 12 45 58 .88      30    -63    -30     70     76 154.6 -28.5  33972  286.41 0863.10
2015 04 09 12 45 59 .14      45    -62    -24     77     80 143.9 -22.3  34036  287.49 0863.10
2015 04 09 12 45 59 .38      43    -71    -18     84     87 148.8 -12.4  34030  287.37 0863.10
2015 04 09 12 45 59 .63      59    -72    -12     94     95 140.4  -7.3  34022  287.25 0863.10
2015 04 09 12 45 59 .88      70    -89     -4    114    115 141.7  -2.2  33994  286.78 0863.10
2015 04 09 12 46 00 .13      67    -84      0    108    109 141.3  -0.3  33968  286.34 0863.10
2015 04 09 12 46 00 .39      72    -85    -14    112    113 139.9  -7.3  33996  286.79 0863.10
2015 04 09 12 46 00 .63      36    -81    -25     89     93 155.9 -16.0  33962  286.24 0863.10
2015 04 09 12 46 00 .88      26    -78    -24     83     87 161.3 -16.6  33928  285.65 0863.10
2015 04 09 12 46 01 .13      29    -78    -23     84     87 159.5 -20.2  33908  285.31 0863.10
2015 04 09 12 46 01 .38      30    -70    -18     77     80 156.4 -13.4  33910  285.36 0863.10
2015 04 09 12 46 01 .64      28    -58    -13     65     67 153.7 -11.3  33908  285.33 0863.10
2015 04 09 12 46 01 .89      25    -53    -16     59     62 154.5 -15.4  33910  285.34 0863.10
2015 04 09 12 46 02 .15      20    -57    -16     61     64 160.0 -14.5  33912  285.39 0863.10
2015 04 09 12 46 02 .40      18    -49    -16     53     56 159.1 -16.6  33912  285.39 0863.11
2015 04 09 12 46 02 .64      18    -49    -15     53     55 160.0 -20.7  33912  285.38 0863.11
2015 04 09 12 46 02 .89      17    -52    -16     55     57 161.3 -21.7  33912  285.39 0863.11
2015 04 09 12 46 03 .14      16    -46    -16     49     51 160.8 -23.8  33912  285.39 0863.11
2015 04 09 12 46 03 .40      27    -48    -18     56     58 151.0 -23.8  33912  285.38 0863.11
2015 04 09 12 46 03 .65      25    -45    -21     52     56 151.0 -26.4  33910  285.34 0863.11
2015 04 09 12 46 03 .90      25    -37    -21     45     49 145.7 -31.6  33912  285.39 0863.11
2015 04 09 12 46 04 .15      25    -28    -21     38     43 138.6 -35.8  33916  285.44 0863.11
2015 04 09 12 46 04 .40      20    -37    -19     43     47 151.0 -29.5  33918  285.48 0863.11
2015 04 09 12 46 04 .65      15    -29    -24     33     40 152.8 -44.1  33914  285.41 0863.11
2015 04 09 12 46 04 .91      18    -29    -18     35     39 147.4 -31.7  33924  285.58 0863.11
2015 04 09 12 46 05 .16      20    -29    -12     36     37 145.7 -23.6  33932  285.71 0863.10
2015 04 09 12 46 05 .40      21    -27    -11     35     36 142.2 -23.8  33934  285.76 0863.10
2015 04 09 12 46 05 .65       8    -24    -10     26     27 161.7 -23.3  33920  285.53 0863.10
2015 04 09 12 46 05 .90       8    -24    -10     26     27 161.7 -23.3  33930  285.68 0863.10
2015 04 09 12 46 06 .16       9    -17     -9     20     21 151.0 -29.5  33924  285.58 0863.10
2015 04 09 12 46 06 .40       2    -18     -3     19     20 173.8  -9.3  33928  285.66 0863.10
2015 04 09 12 46 06 .66       7    -23      1     25     26 161.7   2.9  33934  285.75 0863.10
2015 04 09 12 46 06 .91       7    -27     -6     28     29 164.9 -13.4  33942  285.90 0863.10
2015 04 09 12 46 07 .16       5    -22     -1     23     24 166.6  -3.1  33952  286.05 0863.10
2015 04 09 12 46 07 .41       7    -23      1     25     26 161.7   2.9  33942  285.90 0863.10
2015 04 09 12 46 07 .66      13    -28     -2     32     33 154.5  -5.2  33944  285.92 0863.10
2015 04 09 12 46 07 .91       7    -32     -4     33     34 166.6  -7.3  33938  285.82 0863.10
2015 04 09 12 46 08 .16      11    -35     -1     37     38 161.3  -2.2  33932  285.73 0863.10
2015 04 09 12 46 08 .41      26    -31    -12     41     42 140.4 -20.7  33940  285.87 0863.10
2015 04 09 12 46 08 .67      27    -22     -7     36     37 129.6 -11.3  33948  286.00 0863.10
2015 04 09 12 46 08 .92      32    -16     -2     37     38 117.1  -3.1  33958  286.15 0863.10
2015 04 09 12 46 09 .17      35    -11    -12     37     38 108.2 -23.8  33956  286.14 0863.10
2015 04 09 12 46 09 .43      29      2     -9     30     31  85.7 -21.7  33964  286.27 0863.10
2015 04 09 12 46 09 .67      22    -17      1     29     30 127.8   2.9  33974  286.42 0863.10
2015 04 09 12 46 09 .92      22    -16      9     28     30 126.0  19.4  33978  286.51 0863.10
2015 04 09 12 46 10 .17      28    -13      1     32     33 115.2   2.9  33974  286.42 0863.10
2015 04 09 12 46 10 .42      32    -21     -4     39     40 124.2  -6.2  33966  286.29 0863.10
2015 04 09 12 46 10 .68      26     -8     -1     28     29 108.6  -2.2  33962  286.24 0863.10
2015 04 09 12 46 10 .92      27    -24      7     37     38 131.3  11.0  33960  286.20 0863.10
2015 04 09 12 46 11 .17      27    -24      7     37     38 131.3  11.0  33952  286.07 0863.10
2015 04 09 12 46 11 .43      20    -29     12     36     39 145.7  18.9  33948  285.98 0863.10
2015 04 09 12 46 11 .68      17    -18     25     25     35 136.6  50.1  33962  286.22 0863.10
2015 04 09 12 46 11 .93      16    -12     16     21     26 127.8  41.7  33990  286.69 0863.10
2015 04 09 12 46 12 .18      46     -1     18     47     50  91.7  21.0  33968  286.32 0863.10
2015 04 09 12 46 12 .43      46    -20     29     51     58 113.5  33.5  33958  286.17 0863.10
2015 04 09 12 46 12 .68      19    -31     18     37     41 147.5  27.2  33950  286.03 0863.10
2015 04 09 12 46 12 .93      24    -33     -9     42     44 143.9 -12.4  33938  285.82 0863.10
2015 04 09 12 46 13 .18      18    -28     -9     34     36 147.5 -15.5  33932  285.71 0863.10
2015 04 09 12 46 13 .43      17    -37     -9     41     43 155.5 -13.4  33934  285.76 0863.10
2015 04 09 12 46 13 .68      25    -24    -10     35     36 133.3 -21.7  33942  285.90 0863.10
2015 04 09 12 46 13 .93      13    -23     -1     27     28 151.0  -2.2  33944  285.92 0863.10
2015 04 09 12 46 14 .19      26    -31     -1     41     42 139.5  -2.2  33940  285.87 0863.10
2015 04 09 12 46 14 .44      34    -26     18     43     46 127.8  23.0  33956  286.14 0863.10
2015 04 09 12 46 14 .68      51    -12     10     53     55 103.3  11.1  33946  285.95 0863.10
2015 04 09 12 46 14 .93      45    -25      5     52     53 119.8   5.9  33942  285.90 0863.10
2015 04 09 12 46 15 .18      35    -34     -7     50     51 134.1  -8.2  33936  285.80 0863.10
2015 04 09 12 46 15 .45      27    -38     -7     47     48 144.8  -9.3  33940  285.85 0863.10
2015 04 09 12 46 15 .69      30    -27     -4     41     42 132.2  -6.2  33946  285.97 0863.10
2015 04 09 12 46 15 .95      27    -24     -4     37     38 131.3  -7.3  33946  285.95 0863.10
2015 04 09 12 46 16 .20      14    -28      0     32     33 152.8   0.8  33946  285.95 0863.10
2015 04 09 12 46 16 .45      19    -28      6     35     36 145.7  11.0  33936  285.80 0863.10
2015 04 09 12 46 16 .70      23    -21     -1     32     33 133.1  -2.2  33946  285.95 0863.10
2015 04 09 12 46 16 .95      23      0    -10     24     26  90.0 -27.4  33954  286.10 0863.10
2015 04 09 12 46 17 .20      32      0    -21     33     39  90.0 -39.9  33948  285.98 0863.10
2015 04 09 12 46 17 .45      36     -7     -4     37     38 101.5  -7.2  33944  285.93 0863.10
2015 04 09 12 46 17 .70      33    -21      8     40     41 122.5  12.2  33960  286.19 0863.09
2015 04 09 12 46 17 .95      37     -7     16     38     41 101.5  24.1  33958  286.17 0863.09
2015 04 09 12 46 18 .20      38     -2     18     39     42  94.4  26.2  33982  286.56 0863.09
2015 04 09 12 46 18 .45      43     -3     22     44     49  95.2  27.3  33978  286.51 0863.09
2015 04 09 12 46 18 .70      40      0     20     41     45  90.8  28.2  33968  286.32 0863.09
2015 04 09 12 46 18 .96      57     -4     29     58     64  94.3  28.2  33990  286.69 0863.09
2015 04 09 12 46 19 .21      52      1     38     53     65  88.3  39.5  33996  286.81 0863.09
2015 04 09 12 46 19 .45      61      4     52     62     80  85.6  44.8  34014  287.11 0863.09
2015 04 09 12 46 19 .71      82     -8     47     83     95  95.7  32.4  34014  287.11 0863.09
2015 04 09 12 46 19 .96      81     -3     52     82     97  92.6  35.5  34028  287.33 0863.09
2015 04 09 12 46 20 .21      88      0     79     89    119  90.0  46.4  34078  288.18 0863.09
2015 04 09 12 46 20 .46      87     28     50     92    104  71.8  31.4  34040  287.55 0863.09
2015 04 09 12 46 20 .71      67      9     45     68     81  82.1  36.5  34054  287.77 0863.09
2015 04 09 12 46 20 .96      85     11     51     86     99  82.5  33.5  34090  288.40 0863.09
2015 04 09 12 46 21 .21      88     32     58     94    110  70.0  35.5  34082  288.26 0863.09
2015 04 09 12 46 21 .46      65      6     56     66     86  83.9  45.4  34148  289.36 0863.08
2015 04 09 12 46 21 .71      53    -13     79     55     96 104.2  62.1  34122  288.94 0863.08
2015 04 09 12 46 21 .97      83     -7     61     84    103  95.2  39.5  34100  288.55 0863.08
2015 04 09 12 46 22 .22      74     -1     72     75    103  90.8  49.0  34116  288.84 0863.08
2015 04 09 12 46 22 .48      57    -12     70     59     91 102.4  55.8  34134  289.14 0863.08
2015 04 09 12 46 22 .73      76     10     74     77    106  82.1  49.0  34094  288.45 0863.08
2015 04 09 12 46 22 .97      96     -3     72     97    120  92.1  40.1  34096  288.48 0863.08
2015 04 09 12 46 23 .22     100      8     90    101    135  85.2  45.9  34092  288.43 0863.08
2015 04 09 12 46 23 .48      82     22     61     86    105  74.5  39.1  34020  287.21 0863.08
2015 04 09 12 46 23 .73      81      3     86     82    118  87.4  51.2  34044  287.62 0863.08
2015 04 09 12 46 23 .97      87    -17    106     89    138 101.5  55.8  34148  289.36 0863.08
2015 04 09 12 46 24 .23     124     -9     79    125    147  94.4  35.5  33960  286.20 0863.08
2015 04 09 12 46 24 .48     109    -10     78    110    134  95.7  38.6  33968  286.34 0863.08
2015 04 09 12 46 24 .73     118    -10     67    119    136  95.2  31.9  33966  286.30 0863.08
2015 04 09 12 46 24 .98      83    -16     66     85    107 101.0  42.2  34012  287.08 0863.08
2015 04 09 12 46 25 .23      72    -27     69     78    104 110.8  46.9  33968  286.34 0863.08
2015 04 09 12 46 25 .48      77    -25     74     82    110 108.2  46.9  33962  286.22 0863.08
2015 04 09 12 46 25 .73     106    -23     49    109    119 102.4  25.7  33950  286.02 0863.08
2015 04 09 12 46 25 .98     114     -3     56    115    127  91.7  27.3  33948  286.00 0863.07
2015 04 09 12 46 26 .23     109    -15     74    111    133  98.0  36.5  33990  286.69 0863.07
2015 04 09 12 46 26 .48      99    -19     56    101    115 101.4  31.4  33990  286.69 0863.07
2015 04 09 12 46 26 .73      89    -19     54     92    106 102.4  33.5  33994  286.78 0863.07
2015 04 09 12 46 26 .98      73    -25     63     78    100 109.1  43.3  33990  286.71 0863.07
2015 04 09 12 46 27 .23      61    -33     74     70    101 118.9  51.6  33992  286.74 0863.07
2015 04 09 12 46 27 .48      72    -51     74     89    115 125.5  43.8  33992  286.74 0863.07
2015 04 09 12 46 27 .74      96    -63     81    115    140 123.3  39.1  34006  286.98 0863.07
2015 04 09 12 46 27 .98     108    -28     84    112    140 105.0  40.7  33998  286.83 0863.07
2015 04 09 12 46 28 .23      97    -23     67    100    120 103.7  37.4  33994  286.78 0863.07
2015 04 09 12 46 28 .48      83    -41     82     93    123 116.6  45.9  33996  286.79 0863.07
2015 04 09 12 46 28 .74      96    -47     73    108    130 116.2  37.4  33984  286.59 0863.07
2015 04 09 12 46 28 .99      76    -37     69     85    109 116.2  43.7  33986  286.64 0863.07
2015 04 09 12 46 29 .24      91    -36     61     98    115 111.7  35.5  33986  286.64 0863.07
2015 04 09 12 46 29 .50      76    -37     56     85    101 116.2  36.5  33980  286.54 0863.07
2015 04 09 12 46 29 .75      82    -48     60     96    113 120.2  35.5  33986  286.64 0863.07
2015 04 09 12 46 30 .00      90    -41     59    100    116 114.8  34.0  33982  286.56 0863.07
2015 04 09 12 46 30 .25      89     -7     45     90    100  94.8  28.2  33966  286.30 0863.07
2015 04 09 12 46 30 .50      85    -13     49     86     98  98.8  31.9  33978  286.51 0863.07
2015 04 09 12 46 30 .76     105      0     43    106    114  90.4  23.0  33964  286.27 0863.07
2015 04 09 12 46 31 .00      97      7     60     98    114  85.7  35.5  34030  287.38 0863.07
2015 04 09 12 46 31 .25      65    -15     49     67     83 103.3  40.1  34010  287.03 0863.07
2015 04 09 12 46 31 .50     105    -62     43    123    131 120.7  19.2  33962  286.22 0863.07
2015 04 09 12 46 31 .75      83    -55     40    100    107 123.7  23.0  33954  286.08 0863.07
2015 04 09 12 46 32 .00      78     -1     29     79     84  90.8  20.4  33956  286.12 0863.07
2015 04 09 12 46 32 .26      87    -24     44     91    101 105.5  27.3  33960  286.19 0863.07
2015 04 09 12 46 32 .51      88    -31     37     94    101 109.5  23.0  33962  286.22 0863.07
2015 04 09 12 46 32 .76      67     -7      3     68     69  96.1   2.9  33948  286.00 0863.07
2015 04 09 12 46 33 .01      72    -16     17     74     77 103.3  13.2  33950  286.03 0863.07
2015 04 09 12 46 33 .26      84    -37     17     92     94 114.0  10.6  33950  286.03 0863.07
2015 04 09 12 46 33 .51      74    -38      6     84     85 117.1   4.4  33950  286.03 0863.07
2015 04 09 12 46 33 .76      76    -27     -3     81     82 110.0  -2.2  33954  286.08 0863.07
2015 04 09 12 46 34 .01      72    -31      4     79     80 113.5   2.9  33986  286.62 0863.07
2015 04 09 12 46 34 .26      88    -37     29     96    101 113.1  16.8  33990  286.69 0863.07
2015 04 09 12 46 34 .51      95    -42     13    105    106 114.0   7.1  33952  286.05 0863.07
2015 04 09 12 46 34 .77      87    -28      4     92     93 108.2   2.9  33954  286.10 0863.07
2015 04 09 12 46 35 .01      76    -25      0     81     82 108.6  -0.3  33962  286.22 0863.07
2015 04 09 12 46 35 .27      75    -37     29     84     90 116.2  19.4  33982  286.57 0863.07
2015 04 09 12 46 35 .52      88    -37     29     96    101 113.1  16.8  34002  286.91 0863.07
2015 04 09 12 46 35 .76     101    -14     58    103    118  98.0  31.4  33960  286.19 0863.07
2015 04 09 12 46 36 .01      89    -20     18     92     94 102.8  11.1  33950  286.02 0863.07
2015 04 09 12 46 36 .27      89    -24     30     93     98 105.1  18.4  33932  285.73 0863.07
2015 04 09 12 46 36 .52      90    -28     33     95    101 107.3  19.4  33938  285.82 0863.07
2015 04 09 12 46 36 .78      94     -3     39     95    102  92.1  23.1  33934  285.75 0863.07
2015 04 09 12 46 37 .02      94      0     34     95    100  90.4  20.0  33936  285.78 0863.07
2015 04 09 12 46 37 .28      84    -12     35     85     91  98.4  23.6  33946  285.97 0863.07
2015 04 09 12 46 37 .53      77    -32     22     84     87 112.6  14.7  33940  285.87 0863.07
2015 04 09 12 46 37 .78      77    -42     17     89     91 118.9  11.1  33944  285.92 0863.07
2015 04 09 12 46 38 .02      61    -22     32     65     72 110.0  27.3  33956  286.12 0863.07
2015 04 09 12 46 38 .29      45    -22     29     51     58 116.2  33.5  33974  286.42 0863.07
2015 04 09 12 46 38 .53      43    -33     33     55     64 127.8  35.5  33996  286.81 0863.07
2015 04 09 12 46 38 .78      55    -45     45     72     84 129.6  35.5  33962  286.24 0863.07
2015 04 09 12 46 39 .03      33    -52     42     62     74 147.5  36.5  33978  286.49 0863.07
2015 04 09 12 46 39 .28      24    -50     42     56     70 154.6  40.7  33984  286.59 0863.07
2015 04 09 12 46 39 .53      24    -73     23     78     82 161.3  16.3  33976  286.46 0863.06
2015 04 09 12 46 39 .79       6    -86     -6     87     88 175.5  -4.1  33992  286.73 0863.06
2015 04 09 12 46 40 .03      -4    -87     -1     88     89 182.7  -1.3  34006  286.96 0863.06
2015 04 09 12 46 40 .28     -11    -79      4     80     81 188.5   3.3  34020  287.21 0863.06
2015 04 09 12 46 40 .54       0    -63      4     64     65 180.9   3.8  34020  287.21 0863.07
2015 04 09 12 46 40 .79     -32    -88     15     94     96 200.0   9.5  34058  287.84 0863.07
2015 04 09 12 46 41 .04     -42    -92      2    102    103 204.5   1.2  34048  287.67 0863.07
2015 04 09 12 46 41 .28     -31   -113      3    118    119 195.6   1.8  34030  287.37 0863.07
2015 04 09 12 46 41 .54     -19   -108     11    110    111 190.2   5.9  34044  287.62 0863.07
2015 04 09 12 46 41 .79     -25   -105     29    108    113 193.4  15.3  34058  287.84 0863.07
2015 04 09 12 46 42 .04     -56   -110     34    124    129 207.2  15.3  34070  288.06 0863.07
2015 04 09 12 46 42 .29     -53    -86     18    102    104 211.6  10.1  34058  287.86 0863.07
2015 04 09 12 46 42 .54     -56    -89     22    106    109 212.1  12.2  34064  287.96 0863.07
2015 04 09 12 46 42 .79     -55    -64     41     85     94 221.0  27.3  34086  288.31 0863.07
2015 04 09 12 46 43 .04     -49    -69     48     85     97 215.6  32.4  34074  288.11 0863.07
2015 04 09 12 46 43 .30     -63    -73     29     97    102 220.5  16.8  34058  287.86 0863.07
2015 04 09 12 46 43 .55     -41    -74     34     85     91 209.4  22.5  34062  287.91 0863.07
2015 04 09 12 46 43 .81     -42    -60     38     74     83 215.2  29.3  34058  287.86 0863.07
2015 04 09 12 46 44 .05     -22    -41     45     47     65 208.1  49.0  34096  288.48 0863.07
2015 04 09 12 46 44 .31       4    -19     44     20     48 168.4  75.0  34098  288.53 0863.07
2015 04 09 12 46 44 .55       2    -35     36     36     50 175.5  50.1  34074  288.11 0863.07
2015 04 09 12 46 44 .81       0    -28     37     29     47 180.9  57.5  34092  288.42 0863.07
2015 04 09 12 46 45 .05      13    -34     34     37     50 158.2  46.9  34096  288.50 0863.06
2015 04 09 12 46 45 .31      24    -31     23     40     46 142.2  33.5  34088  288.36 0863.06
2015 04 09 12 46 45 .58       4    -24     18     25     30 170.2  39.7  34104  288.64 0863.06
2015 04 09 12 46 45 .81       9    -28     26     30     39 161.3  45.8  34112  288.75 0863.06
2015 04 09 12 46 46 .05      17    -12     30     22     37 126.0  60.5  34126  288.99 0863.06
2015 04 09 12 46 46 .31      16    -12     23     21     31 127.8  52.2  34130  289.06 0863.06
2015 04 09 12 46 46 .56      -8    -12     16     15     21 212.6  50.1  34154  289.46 0863.06
2015 04 09 12 46 46 .81      -4     -4     14      7     15 225.0  72.9  34158  289.55 0863.07
2015 04 09 12 46 47 .06     -10      5     20     12     23 295.3  66.8  34170  289.74 0863.07
2015 04 09 12 46 47 .31     -12     -8     21     15     25 234.0  60.5  34160  289.57 0863.07
2015 04 09 12 46 47 .56     -21    -20     24     30     38 226.9  43.7  34140  289.23 0863.07
2015 04 09 12 46 47 .81     -33    -27     28     43     51 230.5  35.6  34078  288.20 0863.07
2015 04 09 12 46 48 .06     -46    -34     16     58     61 234.0  15.3  34030  287.38 0863.07
2015 04 09 12 46 48 .32     -38    -28      8     48     49 233.1  10.1  33992  286.73 0863.07
2015 04 09 12 46 48 .57     -43    -27      5     52     53 237.6   5.9  34018  287.16 0863.07
2015 04 09 12 46 48 .82     -24     -4     23     25     33 260.3  50.0  34104  288.64 0863.07
2015 04 09 12 46 49 .07     -19      7     20     21     29 291.7  52.0  34116  288.82 0863.07
2015 04 09 12 46 49 .31     -28      2     19     29     34 274.3  35.6  34092  288.42 0863.07
2015 04 09 12 46 49 .57     -15     16     18     23     29 316.8  43.7  34098  288.53 0863.07
2015 04 09 12 46 49 .81     -18     26     20     32     37 325.7  35.5  34118  288.87 0863.07
2015 04 09 12 46 50 .07     -10     16     16     20     25 327.5  43.7  34118  288.87 0863.07
2015 04 09 12 46 50 .33     -20     12     25     24     34 302.4  48.2  34106  288.67 0863.07
2015 04 09 12 46 50 .58     -10      2     36     11     37 285.1  80.7  34120  288.91 0863.08
2015 04 09 12 46 50 .83     -10      1     30     11     31 277.9  81.2  34102  288.60 0863.08
2015 04 09 12 46 51 .08       7      2     20      8     21  71.4  77.1  34086  288.33 0863.08
2015 04 09 12 46 51 .32      22      0     29     23     37  90.8  56.4  34068  288.03 0863.08
2015 04 09 12 46 51 .58      20     -3     33     21     39  99.7  64.7  34034  287.43 0863.08
2015 04 09 12 46 51 .83      13      0     26     14     29  90.8  68.8  34044  287.62 0863.08
2015 04 09 12 46 52 .08       3     -3     28      5     28 135.0  90.0  34070  288.04 0863.08
2015 04 09 12 46 52 .33      -7    -36     41     37     55 191.5  53.3  34058  287.84 0863.07
2015 04 09 12 46 52 .58     -10    -52      0     54     55 191.6  -0.3  34036  287.49 0863.07
2015 04 09 12 46 52 .83     -15    -71      0     73     74 192.5  -0.3  33968  286.32 0863.07
2015 04 09 12 46 53 .08     -30    -63      1     70     71 205.4   0.8  33946  285.95 0863.07
2015 04 09 12 46 53 .33     -22    -67      6     71     72 198.3   4.9  33932  285.71 0863.07
2015 04 09 12 46 53 .58     -34    -62      3     72     73 209.0   2.8  33954  286.08 0863.07
2015 04 09 12 46 53 .84     -37    -67     13     77     79 209.0  10.1  33942  285.90 0863.07
2015 04 09 12 46 54 .09     -23    -71     19     75     78 198.3  14.7  33976  286.47 0863.07
2015 04 09 12 46 54 .34       2    -74      5     75     76 178.2   3.8  34016  287.15 0863.07
2015 04 09 12 46 54 .59      -7    -79     18     80     83 185.3  12.6  34032  287.40 0863.07
2015 04 09 12 46 54 .83       0    -83     -4     84     85 180.0  -3.1  34024  287.28 0863.07
2015 04 09 12 46 55 .09     -15    -75      3     77     78 191.5   2.8  33966  286.30 0863.07
2015 04 09 12 46 55 .35      12    -67      3     69     70 169.3   2.8  34000  286.88 0863.07
2015 04 09 12 46 55 .59     -16    -78     15     80     82 191.6  10.6  33952  286.07 0863.07
2015 04 09 12 46 55 .84      -4    -71      7     72     73 183.6   5.9  33976  286.46 0863.07
2015 04 09 12 46 56 .09     -12    -63     12     65     67 191.5  11.1  33940  285.87 0863.07
2015 04 09 12 46 56 .35     -15    -58     12     61     63 195.1  11.0  33948  286.00 0863.07
2015 04 09 12 46 56 .59     -14    -67      8     69     70 192.5   7.1  33984  286.59 0863.07
2015 04 09 12 46 56 .85     -24    -71      9     76     77 198.7   6.9  33980  286.54 0863.08
2015 04 09 12 46 57 .09     -35    -81      1     89     90 203.6   0.8  33944  285.92 0863.08
2015 04 09 12 46 57 .35     -17    -63    -13     66     68 195.1 -11.3  33918  285.48 0863.08
2015 04 09 12 46 57 .60     -33    -52     -9     62     63 212.6  -8.2  33926  285.63 0863.08
2015 04 09 12 46 57 .85     -31    -40     -4     51     52 217.8  -5.2  33918  285.50 0863.08
2015 04 09 12 46 58 .10     -31    -48    -20     58     62 212.5 -19.7  33910  285.34 0863.08
2015 04 09 12 46 58 .35     -29    -53    -18     61     64 209.0 -16.6  33904  285.26 0863.08
2015 04 09 12 46 58 .61     -27    -43    -11     51     53 212.5 -12.4  33920  285.51 0863.07
2015 04 09 12 46 58 .86     -21    -47     -2     52     53 204.5  -3.1  33924  285.58 0863.07
2015 04 09 12 46 59 .10     -35    -49    -11     61     62 216.1 -10.3  33916  285.44 0863.07
2015 04 09 12 46 59 .36     -41    -42    -13     59     61 224.2 -12.4  33904  285.26 0863.07
2015 04 09 12 46 59 .61     -39    -32     -2     51     52 230.5  -2.2  33912  285.39 0863.07
2015 04 09 12 46 59 .86     -33    -39     -2     52     53 220.5  -3.1  33920  285.53 0863.07
2015 04 09 12 47 00 .11     -40    -38     -2     56     57 225.9  -2.2  33926  285.61 0863.07
2015 04 09 12 47 00 .36     -36    -43      6     57     58 219.6   6.9  33916  285.44 0863.08
2015 04 09 12 47 00 .62     -41    -40     16     58     61 226.0  15.3  33918  285.48 0863.08
2015 04 09 12 47 00 .86     -48    -45      6     67     68 226.9   5.9  33938  285.82 0863.08
2015 04 09 12 47 01 .11     -53    -48     -2     72     73 227.8  -2.2  33928  285.66 0863.08
2015 04 09 12 47 01 .36     -48    -40     -3     63     64 230.5  -3.1  33920  285.53 0863.08
2015 04 09 12 47 01 .62     -44    -47      0     65     66 223.2   0.8  33920  285.53 0863.08
2015 04 09 12 47 01 .87     -50    -50     14     72     74 225.0  11.1  33948  286.00 0863.08
2015 04 09 12 47 02 .12     -52    -81      3     97     98 213.0   2.3  34008  287.01 0863.08
2015 04 09 12 47 02 .37     -44    -86     29     97    102 207.2  16.8  34052  287.76 0863.08
2015 04 09 12 47 02 .61     -56    -89     41    106    113 212.1  22.0  34048  287.67 0863.08
2015 04 09 12 47 02 .86     -30   -110     27    115    119 195.2  13.2  33976  286.47 0863.08
2015 04 09 12 47 03 .11     -33   -105     19    111    113 197.4  10.1  33934  285.75 0863.08
2015 04 09 12 47 03 .37     -35   -117     24    123    126 197.0  11.0  33934  285.75 0863.08
2015 04 09 12 47 03 .62     -32   -105     -7    110    111 196.9  -3.7  33938  285.82 0863.08
2015 04 09 12 47 03 .87     -15   -103     -8    105    106 188.5  -4.6  33938  285.82 0863.08
2015 04 09 12 47 04 .13     -53    -83     15     99    101 213.0   9.0  33938  285.82 0863.08
2015 04 09 12 47 04 .38     -59    -84    -37    104    111 215.2 -19.6  33930  285.68 0863.08
2015 04 09 12 47 04 .63     -54    -82    -27     99    103 213.4 -15.5  33934  285.75 0863.08
2015 04 09 12 47 04 .88     -61    -73    -28     96    100 220.1 -21.2  33930  285.70 0863.08
2015 04 09 12 47 05 .13     -55    -73    -17     92     94 217.0 -10.9  33948  285.98 0863.08
2015 04 09 12 47 05 .38     -41    -87     -3     97     98 205.3  -2.2  33944  285.93 0863.08
2015 04 09 12 47 05 .63     -37   -100      5    107    108 200.5   2.9  33942  285.88 0863.08
2015 04 09 12 47 05 .88     -20   -122     19    124    126 189.7   8.9  34014  287.11 0863.08
2015 04 09 12 47 06 .13     -14   -124     15    125    126 186.7   6.9  33944  285.93 0863.07
2015 04 09 12 47 06 .39      -8   -102      6    103    104 184.9   3.8  33964  286.27 0863.07
2015 04 09 12 47 06 .63     -15    -76     45     78     90 191.5  32.9  33984  286.61 0863.07
2015 04 09 12 47 06 .88     -21    -85     34     88     94 194.3  21.5  33966  286.30 0863.07
2015 04 09 12 47 07 .14     -27    -78     19     83     86 199.6  13.2  33940  285.85 0863.07
2015 04 09 12 47 07 .39      -7    -80      9     81     82 185.3   6.5  33942  285.90 0863.07
2015 04 09 12 47 07 .63      -6    -98      3     99    100 184.0   1.8  33942  285.90 0863.07
2015 04 09 12 47 07 .88     -12    -98     -3     99    100 187.1  -2.2  33942  285.88 0863.07
2015 04 09 12 47 08 .14     -15    -75     -9     77     78 191.5  -7.3  33944  285.92 0863.07
2015 04 09 12 47 08 .39     -25    -75     -1     80     81 198.7  -1.3  33948  286.00 0863.07
2015 04 09 12 47 08 .64     -32    -76     10     83     84 202.7   7.5  33934  285.76 0863.07
2015 04 09 12 47 08 .89     -44    -80     14     92     94 209.0   9.0  33936  285.80 0863.07
2015 04 09 12 47 09 .14     -41    -74     16     85     87 209.4  11.1  33950  286.03 0863.07
2015 04 09 12 47 09 .40     -48    -71     30     87     93 214.3  19.4  33952  286.05 0863.07
2015 04 09 12 47 09 .64     -58    -59     32     84     89 224.5  21.5  33956  286.12 0863.07
2015 04 09 12 47 09 .90     -68    -75     24    102    105 222.3  13.2  33962  286.22 0863.07
2015 04 09 12 47 10 .14     -67    -80     10    105    106 219.7   5.4  33960  286.19 0863.07
2015 04 09 12 47 10 .39     -66    -60      6     90     91 227.8   4.4  33962  286.24 0863.07
2015 04 09 12 47 10 .64     -63    -62      8     89     90 225.4   5.4  33948  286.00 0863.07
2015 04 09 12 47 10 .90     -56    -85      2    102    103 213.4   1.2  33966  286.29 0863.07
2015 04 09 12 47 11 .15     -66    -88      3    111    112 217.0   1.8  33992  286.74 0863.07
2015 04 09 12 47 11 .40     -58    -88      5    106    107 213.8   2.9  34004  286.93 0863.07
2015 04 09 12 47 11 .66     -57    -85    -13    103    104 213.8  -7.2  33998  286.83 0863.07
2015 04 09 12 47 11 .91     -60    -73    -12     95     96 219.6  -7.7  33986  286.64 0863.07
2015 04 09 12 47 12 .16     -52    -85     -2    100    101 211.6  -1.3  33992  286.74 0863.07
2015 04 09 12 47 12 .40     -84    -73     12    112    113 229.1   6.5  33968  286.34 0863.07
2015 04 09 12 47 12 .66     -87    -78     -4    118    119 228.2  -2.2  33982  286.56 0863.07
2015 04 09 12 47 12 .91     -72    -64     13     97     98 228.2   8.0  33996  286.81 0863.07
2015 04 09 12 47 13 .17     -54    -65     30     85     91 220.1  19.4  34014  287.10 0863.07
2015 04 09 12 47 13 .40     -48    -76     60     91    109 212.5  36.0  34040  287.55 0863.07
2015 04 09 12 47 13 .66     -52   -102     42    115    122 207.2  20.9  33990  286.69 0863.07
2015 04 09 12 47 13 .92     -48    -88     35    101    108 209.0  19.4  33998  286.83 0863.07
2015 04 09 12 47 14 .16     -41    -89     23     99    102 204.9  13.2  33964  286.27 0863.07
2015 04 09 12 47 14 .41     -54    -88     30    104    109 211.6  16.3  33950  286.02 0863.07
2015 04 09 12 47 14 .66     -66    -83     42    107    114 218.3  22.0  33956  286.12 0863.07
2015 04 09 12 47 14 .92     -70    -81     32    108    113 221.0  16.8  33960  286.19 0863.07
2015 04 09 12 47 15 .16     -54    -62     19     83     86 221.0  13.2  33966  286.30 0863.07
2015 04 09 12 47 15 .41     -60    -60     -3     85     86 225.0  -2.2  33966  286.29 0863.07
2015 04 09 12 47 15 .66     -51    -61     -5     80     81 219.7  -4.1  33962  286.24 0863.07
2015 04 09 12 47 15 .91     -56    -67      2     88     89 220.1   1.8  33960  286.19 0863.07
2015 04 09 12 47 16 .17     -63    -79     16    102    104 218.7   9.0  33970  286.35 0863.07
2015 04 09 12 47 16 .42     -58    -87     20    105    107 213.8  11.0  33988  286.66 0863.07
2015 04 09 12 47 16 .67     -71    -91     15    116    117 217.8   7.5  33976  286.46 0863.07
2015 04 09 12 47 16 .92     -63    -97      7    116    117 213.0   3.8  33986  286.64 0863.07
2015 04 09 12 47 17 .17     -34    -94     32    100    106 200.0  17.9  34054  287.79 0863.07
2015 04 09 12 47 17 .42     -56   -102     15    117    118 209.0   7.5  34038  287.52 0863.07
2015 04 09 12 47 17 .66     -35    -92     44     99    108 200.9  25.7  34048  287.67 0863.07
2015 04 09 12 47 17 .92     -60    -95      5    113    114 212.1   2.8  34000  286.88 0863.06
2015 04 09 12 47 18 .18     -40    -87      3     97     98 204.9   2.3  34008  287.01 0863.06
2015 04 09 12 47 18 .43     -54    -87     10    103    104 211.6   5.9  33994  286.76 0863.06
2015 04 09 12 47 18 .69     -58    -82     26    101    105 215.6  14.7  33998  286.83 0863.06
2015 04 09 12 47 18 .93     -53    -96     17    110    112 209.0   9.0  33998  286.84 0863.06
2015 04 09 12 47 19 .19     -62   -113     25    130    133 208.9  11.0  34004  286.93 0863.06
2015 04 09 12 47 19 .43     -41    -99     21    108    111 202.7  11.1  34012  287.06 0863.06
2015 04 09 12 47 19 .69     -22   -107     13    110    111 192.0   6.9  34006  286.96 0863.06
2015 04 09 12 47 19 .94     -23    -99     12    102    103 193.4   7.1  33992  286.74 0863.06
2015 04 09 12 47 20 .19       7    -92     34     93     99 175.5  20.4  34040  287.54 0863.06
2015 04 09 12 47 20 .44      -3    -80     28     81     86 182.2  19.4  34020  287.21 0863.06
2015 04 09 12 47 20 .69       4    -63     24     64     68 175.6  20.0  34042  287.59 0863.06
2015 04 09 12 47 20 .94      21    -69     34     73     80 163.1  26.6  34040  287.54 0863.06
2015 04 09 12 47 21 .19      32    -75     45     82     93 156.4  30.8  34068  288.01 0863.06
2015 04 09 12 47 21 .44       8    -55     63     56     84 171.1  53.3  34086  288.31 0863.06
2015 04 09 12 47 21 .69      13    -85     64     87    108 171.1  40.1  34086  288.31 0863.06
2015 04 09 12 47 21 .94     -16    -60     45     63     77 195.1  39.5  34080  288.21 0863.06
2015 04 09 12 47 22 .19      20    -45      7     50     51 156.4   8.0  34084  288.28 0863.06
2015 04 09 12 47 22 .44     -15    -31      8     35     36 205.5  13.2  34102  288.58 0863.05
2015 04 09 12 47 22 .69     -10      0     20     11     22 270.0  68.8  34106  288.67 0863.05
2015 04 09 12 47 22 .94       8      0     23      9     24  94.4  79.2  34098  288.53 0863.05
2015 04 09 12 47 23 .19       9     21     30     24     38  23.6  56.4  34084  288.30 0863.05
2015 04 09 12 47 23 .44      34     27     34     44     55  52.2  42.7  34086  288.33 0863.05
2015 04 09 12 47 23 .69      -3     39     23     40     46 355.6  33.5  34098  288.53 0863.05
2015 04 09 12 47 23 .95     -13     22     41     26     48 329.3  64.7  34126  289.01 0863.05
2015 04 09 12 47 24 .19     -21      5     32     22     38 285.1  62.6  34158  289.55 0863.06
2015 04 09 12 47 24 .45     -30     30     23     43     48 314.9  30.3  34124  288.96 0863.06
2015 04 09 12 47 24 .69     -14     42     39     45     59 341.5  45.8  34124  288.97 0863.06
2015 04 09 12 47 24 .96     -42     59     45     73     85 324.8  35.0  34098  288.53 0863.06
2015 04 09 12 47 25 .20     -32     66     48     74     88 333.7  36.0  34110  288.72 0863.06
2015 04 09 12 47 25 .46     -42     50     39     66     76 319.5  34.4  34106  288.67 0863.06
2015 04 09 12 47 25 .71     -39     42     43     58     72 317.7  39.7  34138  289.21 0863.06
2015 04 09 12 47 25 .95     -43     38     23     58     62 311.3  23.0  34124  288.96 0863.06
2015 04 09 12 47 26 .21     -33     61    -16     70     72 331.0 -13.4  34088  288.36 0863.06
2015 04 09 12 47 26 .46     -30     69      6     76     77 336.4   4.9  34102  288.58 0863.06
2015 04 09 12 47 26 .71     -28     57     39     64     74 333.7  35.5  34106  288.67 0863.06
2015 04 09 12 47 26 .96     -38     21      0     44     45 298.9  -0.3  34036  287.47 0863.06
2015 04 09 12 47 27 .21     -59     24    -15     64     66 292.6 -13.4  34000  286.88 0863.06
2015 04 09 12 47 27 .46     -77     12    -22     79     83 279.2 -16.0  33962  286.22 0863.06
2015 04 09 12 47 27 .71     -97      2      1     98     99 271.3   0.8  33968  286.34 0863.06
2015 04 09 12 47 27 .97     -49     16     -5     52     53 288.2  -6.2  33998  286.83 0863.06
2015 04 09 12 47 28 .21     -45     13    -10     48     50 286.8 -12.4  33992  286.73 0863.06
2015 04 09 12 47 28 .47     -41      1      3     42     43 271.7   4.9  34000  286.88 0863.06
2015 04 09 12 47 28 .71     -18     -6     14     20     24 251.4  39.7  34020  287.20 0863.05
2015 04 09 12 47 28 .96     -14     12      1     19     20 309.5   2.9  34030  287.38 0863.05
2015 04 09 12 47 29 .22      -4    -12      7     13     14 198.3  35.5  34002  286.91 0863.05
2015 04 09 12 47 29 .46     -22    -10     -3     25     26 244.7  -7.3  34038  287.50 0863.05
2015 04 09 12 47 29 .72     -51    -10     -6     53     54 258.6  -7.3  34006  286.96 0863.05
2015 04 09 12 47 29 .97     -42    -26    -18     50     53 237.6 -23.3  33964  286.27 0863.05
2015 04 09 12 47 30 .22     -11    -36     11     38     40 198.3  17.3  33990  286.69 0863.05
2015 04 09 12 47 30 .47     -43     19      8     48     49 294.4  10.1  33994  286.78 0863.05
2015 04 09 12 47 30 .72     -76     21    -19     79     82 285.5 -13.4  33964  286.25 0863.05
2015 04 09 12 47 30 .97     -83      4    -21     84     87 273.0 -14.5  33966  286.29 0863.05
2015 04 09 12 47 31 .22     -93      6    -14     94     96 273.9  -8.8  33962  286.24 0863.05
2015 04 09 12 47 31 .47     -97      5    -14     98    100 273.0  -8.2  33958  286.17 0863.05
2015 04 09 12 47 31 .72     -93      4     -9     94     95 273.0  -5.6  33946  285.95 0863.05
2015 04 09 12 47 31 .98     -95      7    -31     96    101 274.4 -18.1  33922  285.55 0863.05
2015 04 09 12 47 32 .23     -90     12    -23     91     94 277.9 -14.5  33924  285.58 0863.05
2015 04 09 12 47 32 .48    -125     12    -21    126    128 275.7  -9.8  33924  285.60 0863.05
2015 04 09 12 47 32 .73    -120     12    -10    121    122 276.1  -5.1  33924  285.58 0863.05
2015 04 09 12 47 32 .98    -128     -1    -27    129    132 269.2 -11.9  33928  285.66 0863.05
2015 04 09 12 47 33 .23    -116      0    -29    117    121 270.4 -13.9  33930  285.70 0863.05
2015 04 09 12 47 33 .48    -114      5    -37    115    120 272.6 -23.3  33926  285.63 0863.05
2015 04 09 12 47 33 .73    -100     12    -30    101    105 277.0 -21.7  33932  285.71 0863.05
2015 04 09 12 47 33 .99    -105     12    -24    106    109 277.0 -12.9  33930  285.70 0863.05
2015 04 09 12 47 34 .23     -98      7    -22     99    102 274.4 -12.9  33926  285.63 0863.05
2015 04 09 12 47 34 .49     -95      5    -21     96     99 273.5 -12.4  33928  285.66 0863.05
2015 04 09 12 47 34 .74    -105     -1    -23    106    109 269.2 -12.4  33926  285.63 0863.05
2015 04 09 12 47 34 .99    -115     -8    -20    116    118 265.7  -9.8  33932  285.73 0863.06
2015 04 09 12 47 35 .24    -108      1    -18    109    111 270.8  -9.8  33930  285.70 0863.06
2015 04 09 12 47 35 .49    -116      2    -22    117    120 271.3 -10.9  33934  285.76 0863.06
2015 04 09 12 47 35 .74    -120      0    -28    121    125 270.4 -13.3  33932  285.71 0863.06
2015 04 09 12 47 35 .99    -110      8    -31    111    116 274.4 -15.5  33936  285.78 0863.06
2015 04 09 12 47 36 .24     -99     20    -28    102    106 281.5 -15.4  33932  285.71 0863.06
2015 04 09 12 47 36 .49    -105      5    -23    106    109 273.0 -12.4  33934  285.75 0863.06
2015 04 09 12 47 36 .75     -98      7    -16     99    101 274.4  -9.3  33940  285.87 0863.05
2015 04 09 12 47 36 .99     -78      7     -5     79     80 275.2  -3.7  33944  285.93 0863.05
2015 04 09 12 47 37 .24     -71     -1    -10     72     73 269.2  -8.2  33986  286.64 0863.05
2015 04 09 12 47 37 .50     -32     20      1     38     39 302.5   2.9  34008  287.00 0863.05
2015 04 09 12 47 37 .75     -28     13      9     31     33 295.2  17.3  34026  287.30 0863.05
2015 04 09 12 47 37 .99     -61     12     -2     63     64 281.5  -2.2  34030  287.38 0863.05
2015 04 09 12 47 38 .24     -46     16     -1     49     50 289.1  -2.2  34012  287.08 0863.05
2015 04 09 12 47 38 .50     -57      7    -16     58     61 277.0 -15.4  33946  285.97 0863.05
2015 04 09 12 47 38 .75     -69      5    -14     70     72 274.4 -11.3  33942  285.90 0863.06
2015 04 09 12 47 39 .01     -84      4    -13     85     86 273.0  -8.8  33946  285.95 0863.06
2015 04 09 12 47 39 .26     -66     13     -8     68     69 281.5  -7.2  33992  286.74 0863.06
2015 04 09 12 47 39 .51     -53     20     -7     57     58 290.8  -7.3  34014  287.11 0863.06
2015 04 09 12 47 39 .76     -52     10     18     54     57 281.4  18.4  33982  286.57 0863.06
2015 04 09 12 47 40 .01     -67      9    -11     68     69 277.9  -9.3  33956  286.14 0863.06
2015 04 09 12 47 40 .26     -57      4      0     58     59 274.3  -0.3  34024  287.28 0863.06
2015 04 09 12 47 40 .51     -21      7      8     23     25 290.0  18.9  34066  287.99 0863.06
2015 04 09 12 47 40 .76     -48      0      2     49     50 269.2   2.9  34006  286.98 0863.06
2015 04 09 12 47 41 .02     -47     16     -6     50     51 289.1  -7.3  34002  286.89 0863.06
2015 04 09 12 47 41 .27     -22    -10      3     25     26 244.7   6.9  34054  287.77 0863.06
2015 04 09 12 47 41 .51     -21    -23     32     32     45 221.4  50.1  34026  287.30 0863.06
2015 04 09 12 47 41 .77     -10    -32     -1     34     35 198.3  -2.2  34036  287.47 0863.06
2015 04 09 12 47 42 .02      -7      6     12     10     15 309.5  52.2  34072  288.08 0863.06
2015 04 09 12 47 42 .26     -49      9     -5     50     51 280.6  -6.2  34038  287.52 0863.06
2015 04 09 12 47 42 .51     -79    -16    -28     81     86 258.5 -19.1  33946  285.95 0863.06
2015 04 09 12 47 42 .77     -90    -30    -26     95     99 251.4 -15.5  33948  285.98 0863.06
2015 04 09 12 47 43 .02     -85    -28    -27     90     93 251.8 -22.3  33948  286.00 0863.06
2015 04 09 12 47 43 .27     -78    -12    -26     79     84 261.2 -18.7  33944  285.92 0863.06
2015 04 09 12 47 43 .52     -86    -17    -25     88     92 258.6 -16.0  33940  285.87 0863.06
2015 04 09 12 47 43 .77     -91     -7    -27     92     95 265.6 -21.2  33942  285.90 0863.06
2015 04 09 12 47 44 .02     -89     -9    -18     90     92 263.9 -11.3  33942  285.90 0863.06
2015 04 09 12 47 44 .27     -79    -21    -26     82     87 254.9 -17.6  33944  285.93 0863.06
2015 04 09 12 47 44 .52     -79    -21    -26     82     87 254.9 -17.6  33946  285.97 0863.06
2015 04 09 12 47 44 .77     -79    -53    -15     96     98 235.8  -9.3  33944  285.92 0863.06
2015 04 09 12 47 45 .02     -65    -53    -12     85     86 230.9  -8.2  33930  285.68 0863.06
2015 04 09 12 47 45 .27     -85    -28    -27     90     93 251.8 -22.3  33934  285.75 0863.06
2015 04 09 12 47 45 .52     -81     -6    -32     82     88 265.6 -26.4  33936  285.80 0863.06
2015 04 09 12 47 45 .77     -42     -5    -48     43     64 263.0 -56.6  33944  285.92 0863.06
2015 04 09 12 47 46 .03     -50    -16    -48     53     71 251.8 -52.3  33950  286.03 0863.06
2015 04 09 12 47 46 .28     -52    -27    -54     59     79 242.0 -52.3  33954  286.10 0863.06
2015 04 09 12 47 46 .53     -40    -33    -52     53     74 230.5 -55.5  33950  286.02 0863.06
2015 04 09 12 47 46 .79     -21     -7    -48     23     53 250.0 -77.3  33956  286.14 0863.06
2015 04 09 12 47 47 .04     -20      0    -34     21     39 269.2 -70.1  33966  286.30 0863.06
2015 04 09 12 47 47 .29     -43      0    -36     44     56 270.0 -48.1  33946  285.95 0863.06
2015 04 09 12 47 47 .54     -66      0    -23     67     70 270.8 -23.3  33940  285.85 0863.06
2015 04 09 12 47 47 .79     -76    -13    -13     78     80 260.3  -9.8  33940  285.85 0863.06
2015 04 09 12 47 48 .04     -85      4    -12     86     87 273.0  -8.2  33942  285.90 0863.06
2015 04 09 12 47 48 .29     -86      0    -26     87     91 269.6 -17.0  33948  285.98 0863.06
2015 04 09 12 47 48 .54     -81      6    -32     82     88 274.3 -26.4  33948  286.00 0863.06
2015 04 09 12 47 48 .79     -72      5    -36     73     81 274.3 -32.6  33958  286.17 0863.06
2015 04 09 12 47 49 .04     -57     21    -12     61     63 290.8 -11.5  33960  286.20 0863.06
2015 04 09 12 47 49 .29     -59    -28      3     66     67 244.6   2.8  33954  286.08 0863.06
2015 04 09 12 47 49 .54     -64    -13     -6     66     67 258.5  -5.2  33960  286.19 0863.05
2015 04 09 12 47 49 .79     -70    -28     -4     76     77 248.3  -3.1  33958  286.15 0863.05
2015 04 09 12 47 50 .04     -75     -5     -9     76     77 265.6  -7.3  33956  286.14 0863.05
2015 04 09 12 47 50 .30     -80     -4    -23     81     84 266.5 -21.2  33958  286.17 0863.05
2015 04 09 12 47 50 .55     -73    -13    -15     75     77 259.4 -11.9  33984  286.61 0863.05
2015 04 09 12 47 50 .79     -70    -17    -12     73     74 255.8  -9.3  33992  286.74 0863.05
2015 04 09 12 47 51 .05     -54      0     -7     55     56 269.2  -7.2  33964  286.25 0863.05
2015 04 09 12 47 51 .29     -58     18     -1     61     62 287.7  -1.3  33958  286.17 0863.05
2015 04 09 12 47 51 .54     -49      5    -14     50     51 276.1 -20.7  33942  285.90 0863.05
2015 04 09 12 47 51 .80     -59      4    -18     60     62 274.3 -21.7  33952  286.05 0863.05
2015 04 09 12 47 52 .05     -40      4    -12     41     42 277.0 -20.7  33962  286.24 0863.05
2015 04 09 12 47 52 .30     -24     30      5     39     40 320.4   8.0  33998  286.84 0863.05
2015 04 09 12 47 52 .54     -37     20     -1     43     44 298.9  -2.2  33990  286.71 0863.05
2015 04 09 12 47 52 .81     -42     13     -4     45     46 287.7  -6.2  33968  286.34 0863.05
2015 04 09 12 47 53 .06     -44      8    -15     45     48 280.6 -18.7  33946  285.97 0863.05
2015 04 09 12 47 53 .31     -46      8    -13     47     49 280.6 -15.5  33946  285.97 0863.05
2015 04 09 12 47 53 .56     -45     10     -7     47     48 282.4  -9.3  33946  285.95 0863.05
2015 04 09 12 47 53 .82     -48      5     -9     49     50 276.1 -11.3  33946  285.97 0863.05
2015 04 09 12 47 54 .06     -56     13    -12     58     60 283.3 -12.4  33952  286.05 0863.05
2015 04 09 12 47 54 .31     -61     12    -10     63     64 281.5  -9.3  33956  286.14 0863.05
2015 04 09 12 47 54 .56     -60      8     -7     61     62 278.0  -7.2  33958  286.17 0863.05
2015 04 09 12 47 54 .81     -56     -6    -12     57     59 263.0 -12.4  33952  286.07 0863.05
2015 04 09 12 47 55 .07     -64     -3     -5     65     66 266.5  -5.2  33954  286.08 0863.05
2015 04 09 12 47 55 .32     -62     -2    -11     63     65 267.4 -10.3  33976  286.47 0863.05
2015 04 09 12 47 55 .57     -46      8     -1     47     48 280.6  -2.2  33998  286.83 0863.05
2015 04 09 12 47 55 .82     -40     -8     -1     41     42 257.6  -2.2  34008  287.00 0863.05
2015 04 09 12 47 56 .07     -18     -6      6     19     21 251.4  19.2  34008  287.01 0863.05
2015 04 09 12 47 56 .32     -23     -7      8     25     27 251.8  17.3  34014  287.11 0863.05
2015 04 09 12 47 56 .57     -23    -21     16     32     35 226.9  27.3  34014  287.11 0863.05
2015 04 09 12 47 56 .81     -43     -8      0     44     45 259.4   0.8  33996  286.79 0863.05
2015 04 09 12 47 57 .07     -32    -30      5     44     45 226.9   6.9  33996  286.81 0863.05
2015 04 09 12 47 57 .32     -20     -1     -1     21     22 265.6  -3.1  33998  286.84 0863.05
2015 04 09 12 47 57 .57     -22     -9     -1     25     26 246.5  -2.2  34012  287.06 0863.04
2015 04 09 12 47 57 .82     -20     -1      4     21     22 265.6  11.1  34014  287.10 0863.04
2015 04 09 12 47 58 .07     -21      0     12     22     25 267.4  33.5  34036  287.49 0863.04
2015 04 09 12 47 58 .32     -20      0     11     21     23 269.2  29.3  34050  287.70 0863.04
2015 04 09 12 47 58 .58     -11     -9     14     15     20 230.5  47.9  34070  288.04 0863.04
2015 04 09 12 47 58 .82     -10    -10     21     15     25 226.9  60.5  34072  288.08 0863.04
2015 04 09 12 47 59 .08     -12    -16     14     21     25 217.8  35.6  34074  288.11 0863.04
2015 04 09 12 47 59 .32      -9    -12     16     16     22 216.1  50.1  34084  288.28 0863.05
2015 04 09 12 47 59 .58      -4     -3     14      6     15 230.5  77.1  34110  288.74 0863.05
2015 04 09 12 47 59 .83      -1     -4     11      5     12 191.6  72.9  34110  288.72 0863.05
2015 04 09 12 48 00 .08     -15    -13     18     20     26 228.7  50.0  34080  288.21 0863.05
2015 04 09 12 48 00 .33     -20    -24      5     32     33 219.7   9.0  34042  287.57 0863.05
2015 04 09 12 48 00 .58     -33    -24     -2     42     43 234.0  -3.1  34018  287.16 0863.05
2015 04 09 12 48 00 .83     -37    -17     -9     41     42 244.6 -12.4  34006  286.98 0863.05
2015 04 09 12 48 01 .09     -44    -17     -6     48     49 249.2  -7.2  33984  286.61 0863.05
2015 04 09 12 48 01 .34     -83    -31     -3     89     90 249.2  -2.2  33990  286.71 0863.05
2015 04 09 12 48 01 .59     -62    -16    -23     65     70 254.9 -19.6  33982  286.57 0863.05
2015 04 09 12 48 01 .84     -88    -17    -27     90     95 258.5 -17.0  33988  286.67 0863.05
2015 04 09 12 48 02 .09     -87    -33    -21     94     97 249.2 -12.9  33988  286.66 0863.04
2015 04 09 12 48 02 .34     -96    -36     -6    103    104 249.2  -3.7  33990  286.71 0863.04
2015 04 09 12 48 02 .59     -85     -8     -6     86     87 264.3  -4.6  33994  286.76 0863.04
2015 04 09 12 48 02 .85     -89      4    -18     90     92 273.0 -11.3  33992  286.74 0863.04
2015 04 09 12 48 03 .09     -84      5    -14     85     87 273.5  -9.3  34012  287.06 0863.04
2015 04 09 12 48 03 .34    -105     -1    -12    106    107 269.2  -6.7  34004  286.93 0863.04
2015 04 09 12 48 03 .59     -90     20    -24     93     97 282.8 -14.5  33974  286.42 0863.04
2015 04 09 12 48 03 .85    -104      4    -13    105    106 272.6  -7.2  34014  287.10 0863.04
2015 04 09 12 48 04 .10    -126      0     -4    127    128 270.4  -2.2  34050  287.70 0863.04
2015 04 09 12 48 04 .35    -111    -37    -13    118    119 251.6  -6.7  34056  287.82 0863.04
2015 04 09 12 48 04 .60     -22    -40     51     46     68 209.0  52.2  34078  288.18 0863.04
2015 04 09 12 48 04 .85      11     -5     45     13     46 115.3  82.8  34082  288.26 0863.05
2015 04 09 12 48 05 .10      13      4     34     14     36  71.6  77.1  34072  288.08 0863.05
2015 04 09 12 48 05 .35       5    -16     45     17     48 161.3  80.2  34098  288.53 0863.05
2015 04 09 12 48 05 .60     -77    -26     24     82     86 251.4  16.8  34068  288.03 0863.05
2015 04 09 12 48 05 .85     -57    -97     40    113    119 210.3  20.0  34076  288.16 0863.05
2015 04 09 12 48 06 .10     -57    -85     52    103    115 213.8  28.2  34078  288.18 0863.05
2015 04 09 12 48 06 .35     -30    -23     57     38     68 232.2  64.6  34080  288.23 0863.05
2015 04 09 12 48 06 .60    -109      3     -4    110    111 271.7  -2.2  34038  287.52 0863.04
2015 04 09 12 48 06 .86     -98     -8     19     99    101 265.2  11.1  34072  288.08 0863.04
2015 04 09 12 48 07 .12     -40    -33     21     53     57 230.5  22.0  34078  288.18 0863.04
2015 04 09 12 48 07 .36     -49    -48      8     69     70 225.9   7.1  34088  288.35 0863.04
2015 04 09 12 48 07 .61     -68    -79     25    105    109 220.5  13.7  34076  288.16 0863.04
2015 04 09 12 48 07 .86     -73   -100     15    125    126 216.1   7.1  34012  287.08 0863.04
2015 04 09 12 48 08 .11     -94    -88     10    130    131 226.9   4.4  33992  286.73 0863.04
2015 04 09 12 48 08 .37     -97    -89      8    132    133 227.3   3.8  34012  287.08 0863.05
2015 04 09 12 48 08 .62     -94   -100      2    138    139 223.2   1.2  33972  286.41 0863.05
2015 04 09 12 48 08 .87     -94   -108      5    144    145 221.0   2.3  33962  286.24 0863.05
2015 04 09 12 48 09 .12     -87    -91     10    126    127 223.7   4.9  33954  286.08 0863.05
2015 04 09 12 48 09 .37     -78    -91     12    121    122 220.5   5.9  33962  286.22 0863.05
2015 04 09 12 48 09 .62     -75    -90     10    118    119 219.6   5.0  33966  286.30 0863.05
2015 04 09 12 48 09 .87     -66   -103     18    123    125 212.6   8.5  33968  286.32 0863.05
2015 04 09 12 48 10 .12     -71    -98     24    122    125 216.1  11.1  33948  285.98 0863.05
2015 04 09 12 48 10 .37     -72    -87     12    113    114 219.6   6.5  33956  286.12 0863.05
2015 04 09 12 48 10 .62     -72    -81      5    109    110 221.9   2.8  33954  286.08 0863.05
2015 04 09 12 48 10 .87     -85    -82      0    119    120 225.9  -0.3  33946  285.97 0863.05
2015 04 09 12 48 11 .12     -88    -99      2    133    134 221.4   1.2  33954  286.10 0863.05
2015 04 09 12 48 11 .37     -83    -83      1    118    119 225.0   0.7  33956  286.14 0863.05
2015 04 09 12 48 11 .62     -99    -82     -9    129    130 230.5  -4.1  33944  285.92 0863.05
2015 04 09 12 48 11 .87     -86   -103     11    135    136 219.6   4.9  33940  285.85 0863.05
2015 04 09 12 48 12 .12     -87   -121     24    150    153 215.6   9.3  33938  285.83 0863.05
2015 04 09 12 48 12 .37     -87   -107     24    139    142 219.2  10.1  33948  285.98 0863.05
2015 04 09 12 48 12 .62     -86   -103      5    135    136 219.6   2.3  33938  285.82 0863.05
2015 04 09 12 48 12 .89     -91   -103      7    138    139 221.4   2.9  33942  285.90 0863.05
2015 04 09 12 48 13 .13     -81    -81     -4    115    116 225.1  -2.2  33962  286.24 0863.05
2015 04 09 12 48 13 .38     -86    -98     25    131    134 221.4  11.0  33968  286.34 0863.05
2015 04 09 12 48 13 .64     -94   -100     40    138    144 223.2  16.3  33986  286.62 0863.05
2015 04 09 12 48 13 .89    -107   -107     52    152    161 225.0  19.2  34010  287.05 0863.05
2015 04 09 12 48 14 .14    -109    -87     11    140    141 231.4   4.9  34018  287.18 0863.05
2015 04 09 12 48 14 .39    -108   -115     26    158    161 223.2   9.5  34040  287.54 0863.05
2015 04 09 12 48 14 .64     -89   -101     46    135    143 221.4  18.9  34050  287.72 0863.05
2015 04 09 12 48 14 .89     -91   -110     48    144    153 219.6  18.6  34038  287.52 0863.05
2015 04 09 12 48 15 .14     -87    -90     24    126    129 224.1  11.1  34044  287.62 0863.05
2015 04 09 12 48 15 .39     -92   -106     34    141    146 221.0  13.7  34054  287.79 0863.05
2015 04 09 12 48 15 .64    -122   -111     31    166    169 227.8  10.8  33994  286.76 0863.05
2015 04 09 12 48 15 .90    -160   -147     26    218    220 227.6   6.9  33992  286.74 0863.05
2015 04 09 12 48 16 .14    -159   -152     18    221    222 226.2   4.9  33928  285.65 0863.05
2015 04 09 12 48 16 .40    -147   -161     31    219    222 222.3   8.2  33994  286.78 0863.05
2015 04 09 12 48 16 .64    -139   -177     40    226    230 218.1  10.1  33976  286.47 0863.04
2015 04 09 12 48 16 .90    -154   -149     26    215    217 225.8   7.1  33982  286.56 0863.04
2015 04 09 12 48 17 .14    -146   -183     38    235    239 218.5   9.3  33986  286.62 0863.04
2015 04 09 12 48 17 .40    -134   -184     27    229    231 216.1   6.9  33940  285.85 0863.04
2015 04 09 12 48 17 .65    -134   -154     31    205    208 221.2   8.8  33948  285.98 0863.04
2015 04 09 12 48 17 .90    -150   -149     33    212    215 225.1   9.0  34012  287.08 0863.04
2015 04 09 12 48 18 .15    -135   -139     60    194    204 224.1  17.3  34052  287.76 0863.04
2015 04 09 12 48 18 .40    -160   -153     35    222    225 226.4   9.0  34044  287.60 0863.04
2015 04 09 12 48 18 .65    -133   -152     47    203    209 221.2  13.1  34010  287.05 0863.04
2015 04 09 12 48 18 .91    -145   -158     74    215    228 222.5  19.2  34038  287.52 0863.04
2015 04 09 12 48 19 .15    -166   -159     54    230    237 226.2  13.2  34064  287.93 0863.04
2015 04 09 12 48 19 .40    -162   -158     58    227    235 225.8  14.3  34012  287.08 0863.04
2015 04 09 12 48 19 .65    -183   -170     21    250    251 227.1   4.9  33916  285.44 0863.04
2015 04 09 12 48 19 .91    -193   -160      9    251    252 230.4   2.1  33922  285.54 0863.04
2015 04 09 12 48 20 .15    -183   -183     37    259    262 225.0   8.2  33922  285.56 0863.03
2015 04 09 12 48 20 .41    -161   -170     37    235    238 223.3   9.0  33926  285.61 0863.03
2015 04 09 12 48 20 .66    -205   -199     49    286    291 225.8   9.9  33936  285.79 0863.03
2015 04 09 12 48 20 .91    -195   -189     32    272    274 226.0   6.9  33918  285.49 0863.03
2015 04 09 12 48 21 .17    -200   -192     33    278    281 226.2   6.9  33912  285.39 0863.03
2015 04 09 12 48 21 .42    -167   -172     46    240    245 224.1  11.0  33912  285.37 0863.03
2015 04 09 12 48 21 .67    -197   -185     28    271    273 226.8   6.0  33914  285.40 0863.03
2015 04 09 12 48 21 .92    -167   -167     37    237    240 225.1   9.0  33922  285.56 0863.03
2015 04 09 12 48 22 .17    -158   -158     34    224    227 225.0   8.8  33954  286.10 0863.03
2015 04 09 12 48 22 .42    -137   -182     89    228    244 217.0  22.1  33968  286.31 0863.03
2015 04 09 12 48 22 .67    -158   -173     72    235    246 222.5  17.1  33996  286.79 0863.03
2015 04 09 12 48 22 .92    -197   -179      8    267    268 227.8   1.8  33972  286.40 0863.03
2015 04 09 12 48 23 .17    -227   -133    -24    264    266 239.6  -5.2  33930  285.67 0863.03
2015 04 09 12 48 23 .42    -211   -116    -30    242    244 241.1  -7.2  33932  285.71 0863.03
2015 04 09 12 48 23 .67    -190   -103    -28    217    219 241.6  -7.5  33928  285.65 0863.03
2015 04 09 12 48 23 .92    -163   -215     62    270    278 217.2  12.9  33932  285.71 0863.03
2015 04 09 12 48 24 .17    -146   -137     19    201    202 226.9   5.4  33936  285.80 0863.03
2015 04 09 12 48 24 .42    -176   -153      3    234    235 228.9   0.8  33930  285.69 0863.03
2015 04 09 12 48 24 .67    -201   -126    -13    238    239 238.0  -3.1  33920  285.52 0863.03
2015 04 09 12 48 24 .93    -229   -177     -6    290    291 232.2  -1.3  33914  285.42 0863.03
2015 04 09 12 48 25 .17    -201   -204     61    287    294 224.5  12.2  33932  285.71 0863.03
2015 04 09 12 48 25 .43    -255    -77    -51    267    272 253.2 -10.9  33920  285.51 0863.03
2015 04 09 12 48 25 .68    -257    -35    -53    260    266 262.1 -11.6  33928  285.66 0863.02
2015 04 09 12 48 25 .93    -222    -52    -37    229    233 256.8  -9.3  33926  285.61 0863.02
2015 04 09 12 48 26 .18    -234    -64    -13    243    244 254.7  -3.2  33936  285.79 0863.02
2015 04 09 12 48 26 .43    -243    -73    -53    254    260 253.2 -11.9  33924  285.57 0863.02
2015 04 09 12 48 26 .68    -245    -86    -79    260    271 250.5 -21.8  33946  285.94 0863.02
2015 04 09 12 48 26 .93    -247   -127    -61    279    286 242.7 -12.4  33978  286.50 0863.02
2015 04 09 12 48 27 .18    -152   -184     12    239    240 219.6   2.9  33954  286.08 0863.02
2015 04 09 12 48 27 .43    -167   -217     -3    274    275 217.6  -0.7  33938  285.81 0863.02
2015 04 09 12 48 27 .69    -286   -146    -22    322    323 242.9  -4.0  33954  286.08 0863.02
2015 04 09 12 48 27 .94    -334   -156    -21    369    370 244.9  -3.3  33984  286.59 0863.02
2015 04 09 12 48 28 .19    -282   -128    -35    310    313 245.6  -6.5  33920  285.52 0863.02
2015 04 09 12 48 28 .45    -263   -102    -51    283    288 248.7 -10.3  33954  286.08 0863.02
2015 04 09 12 48 28 .69    -291    -87    -59    304    310 253.2 -11.1  33942  285.89 0863.02
2015 04 09 12 48 28 .94    -278    -93    -70    294    303 251.4 -13.4  33968  286.31 0863.02
2015 04 09 12 48 29 .19    -279    -92    -56    294    300 251.6 -10.9  33930  285.67 0863.02
2015 04 09 12 48 29 .44    -266    -96    -58    283    290 250.1 -11.6  33924  285.57 0863.02
2015 04 09 12 48 29 .70    -249   -114    -61    274    281 245.4 -12.6  33938  285.81 0863.02
2015 04 09 12 48 29 .94    -257   -120    -41    284    287 244.9  -8.3  33928  285.66 0863.02
2015 04 09 12 48 30 .19    -221   -116    -41    250    254 242.2  -9.3  33932  285.71 0863.02
2015 04 09 12 48 30 .45    -203   -146     -9    251    252 234.3  -2.2  33934  285.76 0863.02
2015 04 09 12 48 30 .70    -164   -164     -7    232    233 225.0  -1.8  33934  285.76 0863.02
2015 04 09 12 48 30 .95    -111   -196     26    226    228 209.6   6.7  33930  285.68 0863.02
2015 04 09 12 48 31 .20    -109   -174     13    206    207 212.1   3.8  33940  285.85 0863.02
2015 04 09 12 48 31 .45    -101   -154     36    185    189 213.2  11.1  33938  285.83 0863.02
2015 04 09 12 48 31 .70    -109   -164     54    197    205 213.6  15.3  33940  285.85 0863.02
2015 04 09 12 48 31 .95    -132   -160     46    208    214 219.6  12.6  33932  285.71 0863.02
2015 04 09 12 48 32 .20    -150   -146      7    210    211 225.8   2.1  33934  285.76 0863.02
2015 04 09 12 48 32 .45    -132   -140     30    193    196 223.4   9.0  33938  285.83 0863.02
2015 04 09 12 48 32 .70    -127   -146     38    194    198 221.2  11.1  33934  285.76 0863.02
2015 04 09 12 48 32 .95    -148   -142     37    206    210 226.2  10.3  33922  285.56 0863.02
2015 04 09 12 48 33 .20    -172   -162     18    237    238 226.9   4.4  33922  285.54 0863.02
2015 04 09 12 48 33 .45    -178   -168     29    246    248 226.7   6.9  33932  285.71 0863.02
2015 04 09 12 48 33 .70    -184   -183     36    260    263 225.2   8.0  33956  286.13 0863.02
2015 04 09 12 48 33 .95    -184   -166     34    248    251 228.0   8.0  33942  285.89 0863.02
2015 04 09 12 48 34 .20    -180   -186     31    260    262 224.1   6.9  33948  285.98 0863.02
2015 04 09 12 48 34 .47    -170   -175     21    245    246 224.1   5.0  34004  286.92 0863.02
2015 04 09 12 48 34 .72    -173   -176     73    248    259 224.5  16.4  33922  285.56 0863.02
2015 04 09 12 48 34 .96    -167   -167     22    237    239 225.0   5.4  33932  285.71 0863.02
2015 04 09 12 48 35 .22    -166   -170     33    238    241 224.3   8.0  33916  285.44 0863.02
2015 04 09 12 48 35 .47    -180   -163     33    244    247 227.8   7.8  33912  285.39 0863.02
2015 04 09 12 48 35 .72    -185   -188     33    265    268 224.5   7.1  33930  285.69 0863.02
2015 04 09 12 48 35 .97    -195   -180     24    266    268 227.3   5.2  33924  285.57 0863.02
2015 04 09 12 48 36 .22    -242   -109    -19    266    267 245.6  -4.1  33920  285.52 0863.02
2015 04 09 12 48 36 .47    -229   -109    -17    254    255 244.5  -3.9  33926  285.62 0863.02
2015 04 09 12 48 36 .72    -199   -144    -16    246    247 234.1  -3.7  33922  285.54 0863.02
2015 04 09 12 48 36 .97    -250   -133    -13    284    285 242.0  -2.8  33964  286.26 0863.02
2015 04 09 12 48 37 .22    -228   -125    -17    261    262 241.2  -3.7  33938  285.83 0863.02
2015 04 09 12 48 37 .47    -265    -91    -39    281    284 250.9  -8.0  33960  286.18 0863.02
2015 04 09 12 48 37 .72    -252   -109    -41    275    279 246.5  -8.6  33932  285.71 0863.02
2015 04 09 12 48 37 .98    -244   -111    -39    269    272 245.6  -8.3  33926  285.62 0863.02
2015 04 09 12 48 38 .23    -236   -112    -28    262    264 244.7  -6.2  33926  285.62 0863.02
2015 04 09 12 48 38 .47    -243    -98    -34    263    266 248.0  -7.5  33922  285.54 0863.02
2015 04 09 12 48 38 .72    -234    -86    -27    250    252 249.8  -6.2  33920  285.52 0863.02
2015 04 09 12 48 38 .97    -240    -99    -37    260    263 247.6  -8.2  33924  285.57 0863.02
2015 04 09 12 48 39 .23    -231    -85    -44    247    251 249.8 -10.1  33920  285.52 0863.02
2015 04 09 12 48 39 .48    -246    -67    -47    256    261 254.7 -10.5  33930  285.67 0863.02
2015 04 09 12 48 39 .73    -238    -82    -62    252    260 250.9 -13.9  33926  285.61 0863.02
2015 04 09 12 48 39 .98    -226    -94    -56    245    252 247.4 -12.9  33924  285.59 0863.02
2015 04 09 12 48 40 .23    -219   -101    -63    242    251 245.2 -14.7  33932  285.72 0863.02
2015 04 09 12 48 40 .48    -226   -106    -50    250    256 244.8 -11.5  33924  285.59 0863.02
2015 04 09 12 48 40 .73    -216    -97    -39    237    241 245.8  -9.3  33918  285.49 0863.02
2015 04 09 12 48 40 .98    -224    -96    -28    244    246 246.7  -6.7  33918  285.47 0863.02
2015 04 09 12 48 41 .23    -229    -81    -32    244    247 250.5  -7.5  33918  285.47 0863.02
2015 04 09 12 48 41 .49    -216    -86    -21    233    235 248.3  -5.4  33914  285.42 0863.02
2015 04 09 12 48 41 .74    -247    -62    -40    255    259 255.9  -9.0  33916  285.44 0863.02
2015 04 09 12 48 41 .99    -205    -61    -45    214    219 253.4 -11.9  33916  285.46 0863.02
2015 04 09 12 48 42 .24    -221    -87    -34    238    241 248.3  -8.3  33916  285.44 0863.02
2015 04 09 12 48 42 .49    -243    -88    -41    259    263 250.1  -9.0  33912  285.39 0863.02
2015 04 09 12 48 42 .74    -209   -125    -26    244    246 239.1  -6.2  33912  285.39 0863.02
2015 04 09 12 48 42 .99    -217   -106    -20    242    243 244.0  -4.9  33904  285.24 0863.02
2015 04 09 12 48 43 .24    -213    -98    -25    235    237 245.2  -6.2  33902  285.20 0863.02
2015 04 09 12 48 43 .50    -217   -102    -30    240    242 244.8  -7.2  33900  285.17 0863.02
2015 04 09 12 48 43 .75    -209   -102    -26    233    235 243.8  -6.5  33904  285.25 0863.02
2015 04 09 12 48 44 .00    -209   -102    -26    233    235 243.8  -6.5  33904  285.25 0863.02
2015 04 09 12 48 44 .25    -187   -112     -4    219    220 239.1  -1.2  33954  286.08 0863.02
2015 04 09 12 48 44 .50    -182   -113     -6    215    216 238.0  -1.6  33956  286.12 0863.02
2015 04 09 12 48 44 .75    -181   -138     -5    228    229 232.7  -1.3  33952  286.07 0863.02
2015 04 09 12 48 45 .00    -199   -108    -14    227    228 241.4  -3.7  33968  286.34 0863.02
2015 04 09 12 48 45 .25    -189   -120     -8    224    225 237.6  -2.2  33952  286.05 0863.02
2015 04 09 12 48 45 .50    -173   -132      2    218    219 232.7   0.7  33978  286.51 0863.02
2015 04 09 12 48 45 .75    -173   -157     13    234    235 227.8   3.3  33926  285.62 0863.02
2015 04 09 12 48 46 .00    -184   -166      4    249    250 228.0   1.0  33914  285.40 0863.02
2015 04 09 12 48 46 .25    -190   -141     -7    237    238 233.4  -1.8  33912  285.39 0863.02
2015 04 09 12 48 46 .50    -236   -116    -18    264    265 243.8  -3.9  33910  285.35 0863.02
2015 04 09 12 48 46 .76    -211   -116    -17    241    242 241.1  -4.1  33912  285.37 0863.02
2015 04 09 12 48 47 .01    -205   -135     -1    246    247 236.5  -0.3  33938  285.81 0863.02
2015 04 09 12 48 47 .25    -193   -140     -9    239    240 234.1  -2.2  33952  286.06 0863.02
2015 04 09 12 48 47 .51    -223   -142    -10    265    266 237.6  -2.2  33944  285.91 0863.02
2015 04 09 12 48 47 .76    -192   -167     -1    255    256 228.9  -0.3  33978  286.48 0863.02
2015 04 09 12 48 48 .01    -206   -140     -9    250    251 235.8  -2.3  33948  285.98 0863.02
2015 04 09 12 48 48 .25    -230   -130    -12    265    266 240.5  -2.8  33944  285.93 0863.02
2015 04 09 12 48 48 .51    -228   -108    -26    253    255 244.5  -6.1  33918  285.49 0863.02
2015 04 09 12 48 48 .77    -224    -81    -34    239    242 250.1  -8.3  33908  285.32 0863.02
2015 04 09 12 48 49 .02    -220    -68    -32    231    234 252.7  -8.0  33910  285.34 0863.02
2015 04 09 12 48 49 .27    -250    -73    -42    261    265 253.6  -9.3  33908  285.32 0863.02
2015 04 09 12 48 49 .52    -253    -61    -36    261    264 256.3  -8.0  33908  285.32 0863.02
2015 04 09 12 48 49 .77    -230    -60    -62    238    246 255.4 -14.7  33912  285.37 0863.02
2015 04 09 12 48 50 .02    -212    -67    -57    223    231 252.5 -14.4  33904  285.24 0863.02
2015 04 09 12 48 50 .27    -198    -71    -46    211    217 250.1 -12.4  33904  285.24 0863.01
2015 04 09 12 48 50 .52    -183    -56    -53    192    200 252.9 -15.5  33902  285.21 0863.01
2015 04 09 12 48 50 .77    -186    -61    -54    196    204 251.6 -15.5  33900  285.19 0863.01
2015 04 09 12 48 51 .02    -185    -61    -55    195    203 251.6 -15.8  33906  285.29 0863.01
2015 04 09 12 48 51 .27    -181    -57    -34    190    194 252.5 -10.1  33908  285.33 0863.01
2015 04 09 12 48 51 .52    -185    -82    -21    203    205 246.0  -6.0  33912  285.39 0863.01
2015 04 09 12 48 51 .77    -177    -69    -32    191    194 248.7  -9.6  33912  285.38 0863.01
2015 04 09 12 48 52 .02    -173    -75    -24    189    191 246.5  -7.3  33910  285.36 0863.01
2015 04 09 12 48 52 .27    -164    -78    -17    182    183 244.5  -5.6  33908  285.31 0863.01
2015 04 09 12 48 52 .52    -182    -74    -20    197    199 247.8  -6.0  33908  285.31 0863.01
2015 04 09 12 48 52 .77    -190    -74    -25    204    206 248.7  -7.2  33906  285.28 0863.01
2015 04 09 12 48 53 .03    -193    -84    -25    211    213 246.5  -6.9  33908  285.33 0863.01
2015 04 09 12 48 53 .28    -199    -94    -17    221    222 244.7  -4.6  33926  285.61 0863.01
2015 04 09 12 48 53 .53    -191    -78    -14    207    208 247.8  -3.9  33968  286.32 0863.01
2015 04 09 12 48 53 .78    -188    -70    -21    201    203 249.6  -6.2  33978  286.51 0863.01
2015 04 09 12 48 54 .03    -173    -75    -24    189    191 246.5  -7.3  33988  286.67 0863.01
2015 04 09 12 48 54 .28    -162    -65    -37    175    180 248.0 -12.2  33980  286.54 0863.01
2015 04 09 12 48 54 .53     -92    -92     -9    131    132 225.1  -4.1  33994  286.78 0863.01
2015 04 09 12 48 54 .78     -58    -62     15     86     88 223.2  10.1  34014  287.11 0863.02
2015 04 09 12 48 55 .03    -114     -5    -40    115    121 267.4 -23.8  34014  287.11 0863.02
2015 04 09 12 48 55 .28     -84   -100      6    131    132 220.1   2.9  34020  287.21 0863.02
2015 04 09 12 48 55 .55     -91    -91    -14    129    130 225.1  -6.2  34036  287.47 0863.02
2015 04 09 12 48 55 .80    -143    -68    -20    159    161 244.6  -7.5  34036  287.49 0863.02
2015 04 09 12 48 56 .04    -163    -12      4    164    165 265.6   1.6  33982  286.56 0863.02
2015 04 09 12 48 56 .30    -155    -83    -21    176    178 241.8  -6.9  33988  286.67 0863.02
2015 04 09 12 48 56 .54    -133   -107    -14    172    173 231.1  -4.9  33992  286.73 0863.02
2015 04 09 12 48 56 .80    -174    -69    -21    188    190 248.2  -6.5  33938  285.82 0863.02
2015 04 09 12 48 57 .05    -178    -19    -31    180    183 263.6  -9.8  33950  286.03 0863.02
2015 04 09 12 48 57 .30    -184    -15    -43    185    191 265.2 -13.2  33914  285.43 0863.02
2015 04 09 12 48 57 .55    -121    -12     -2    122    123 263.9  -1.3  33940  285.85 0863.02
2015 04 09 12 48 57 .80    -109    -60    -28    125    129 241.1 -12.9  33938  285.83 0863.02
2015 04 09 12 48 58 .05    -148      4    -38    149    154 271.7 -14.3  33916  285.46 0863.02
2015 04 09 12 48 58 .30    -142      2    -32    143    147 270.8 -12.9  33926  285.63 0863.02
2015 04 09 12 48 58 .55     -41      9     12     43     45 282.4  16.3  33940  285.85 0863.02
2015 04 09 12 48 58 .80    -159     -3    -43    160    166 268.7 -15.2  33912  285.39 0863.02
2015 04 09 12 48 59 .05     -97    -11      1     98     99 263.0   0.8  33932  285.71 0863.02
2015 04 09 12 48 59 .30    -129    -49    -32    138    142 249.2 -13.3  33920  285.53 0863.02
2015 04 09 12 48 59 .55    -160    -27    -44    163    169 260.1 -15.2  33910  285.36 0863.02
2015 04 09 12 48 59 .81    -127    -50     46    137    145 248.3  18.9  33946  285.95 0863.02
2015 04 09 12 49 00 .05    -209    -33    -38    212    216 261.0 -10.3  33908  285.33 0863.02
2015 04 09 12 49 00 .30    -200    -40    -42    205    210 258.6 -11.6  33902  285.23 0863.02
2015 04 09 12 49 00 .55    -208    -33    -45    211    216 261.0 -12.2  33904  285.24 0863.02
2015 04 09 12 49 00 .80    -212    -29    -49    214    220 262.1 -12.9  33902  285.23 0863.02
2015 04 09 12 49 01 .06    -203    -23    -41    205    210 263.4 -11.3  33904  285.24 0863.02
2015 04 09 12 49 01 .31    -208    -29    -34    211    214 262.0  -9.3  33908  285.31 0863.02
2015 04 09 12 49 01 .55    -195    -32    -38    198    202 260.5 -10.9  33906  285.28 0863.02
2015 04 09 12 49 01 .81    -195    -49    -25    202    204 255.8  -7.3  33914  285.41 0863.02
2015 04 09 12 49 02 .06    -189    -59    -30    199    202 252.5  -8.6  33910  285.34 0863.02
2015 04 09 12 49 02 .32    -199    -66    -38    210    214 251.6 -10.5  33906  285.28 0863.02
2015 04 09 12 49 02 .57    -192    -73    -43    206    211 249.2 -11.9  33908  285.31 0863.02
2015 04 09 12 49 02 .82    -187    -21    -10    189    190 263.4  -3.2  33910  285.36 0863.02
2015 04 09 12 49 03 .07    -174    -23    -25    176    178 262.3  -8.2  33904  285.26 0863.02
2015 04 09 12 49 03 .32    -189    -21    -37    191    195 263.4 -11.1  33906  285.28 0863.02
2015 04 09 12 49 03 .57    -183      0    -19    184    186 270.0  -6.0  33914  285.41 0863.02
2015 04 09 12 49 03 .82    -180     -9    -23    181    183 267.0  -7.3  33904  285.26 0863.02
2015 04 09 12 49 04 .07    -177    -13    -28    178    181 265.7  -9.0  33906  285.29 0863.02
2015 04 09 12 49 04 .32    -178     -9    -31    179    182 267.0 -10.1  33908  285.33 0863.02
2015 04 09 12 49 04 .58    -158     -3     -6    159    160 268.7  -2.2  33920  285.51 0863.02
2015 04 09 12 49 04 .83    -177     -1    -33    178    182 269.6 -10.5  33914  285.43 0863.02
2015 04 09 12 49 05 .08    -190     14    -31    191    194 274.4  -9.3  33910  285.34 0863.02
2015 04 09 12 49 05 .33    -197     31    -40    200    205 279.0 -11.5  33906  285.29 0863.02
2015 04 09 12 49 05 .58    -196      7    -27    197    199 272.1  -8.0  33912  285.38 0863.02
2015 04 09 12 49 05 .83    -164      8    -21    165    167 273.0  -7.3  33914  285.43 0863.02
2015 04 09 12 49 06 .08    -136     64     -1    151    152 295.2  -0.7  33928  285.66 0863.02
2015 04 09 12 49 06 .33    -182      0    -36    183    187 269.9 -11.3  33908  285.33 0863.02
2015 04 09 12 49 06 .58    -152    -60     19    164    166 248.2   6.7  33926  285.61 0863.02
2015 04 09 12 49 06 .83    -181    -27    -54    184    192 261.4 -16.4  33904  285.24 0863.02
2015 04 09 12 49 07 .08    -197     27    -51    199    206 277.9 -14.5  33904  285.24 0863.02
2015 04 09 12 49 07 .33    -188     13    -52    189    197 274.1 -15.5  33904  285.24 0863.02
2015 04 09 12 49 07 .58    -194     18    -46    195    201 275.5 -13.3  33904  285.24 0863.02
2015 04 09 12 49 07 .83    -178      0    -42    179    185 270.1 -13.4  33902  285.21 0863.02
2015 04 09 12 49 08 .08    -192     15    -42    193    198 274.6 -12.4  33902  285.23 0863.02
2015 04 09 12 49 08 .33    -192      4    -45    193    199 271.3 -13.3  33904  285.24 0863.02
2015 04 09 12 49 08 .58    -192     14    -52    193    201 274.3 -15.2  33904  285.26 0863.02
2015 04 09 12 49 08 .83    -192      4    -45    193    199 271.3 -13.3  33904  285.24 0863.02
2015 04 09 12 49 09 .08    -196     14    -37    197    201 274.3 -10.9  33902  285.23 0863.02
2015 04 09 12 49 09 .34    -193      4    -32    194    197 271.3  -9.4  33902  285.23 0863.02
2015 04 09 12 49 09 .60    -195    -13    -25    196    198 266.1  -7.5  33906  285.28 0863.02
2015 04 09 12 49 09 .85    -177     -8    -20    178    180 267.2  -6.7  33912  285.39 0863.02
2015 04 09 12 49 10 .10    -146      0     -6    147    148 269.6  -2.6  33920  285.53 0863.02
2015 04 09 12 49 10 .35    -169    -24     -9    171    172 261.9  -3.3  33922  285.56 0863.02
2015 04 09 12 49 10 .60    -110    -36     -1    116    117 251.8  -0.7  33926  285.63 0863.02
2015 04 09 12 49 10 .85    -171     12    -22    172    174 274.3  -7.3  33932  285.73 0863.02
2015 04 09 12 49 11 .10    -147     25     -3    150    151 279.7  -1.3  33948  286.00 0863.02
2015 04 09 12 49 11 .35    -151    -36    -14    156    157 256.3  -5.4  33948  285.98 0863.02
2015 04 09 12 49 11 .60     -56      0     11     57     59 270.0  11.0  33964  286.25 0863.02
2015 04 09 12 49 11 .85    -128      9    -10    129    130 274.3  -4.6  33954  286.10 0863.02
2015 04 09 12 49 12 .10     -52     67     20     86     89 322.2  13.2  33984  286.59 0863.02
2015 04 09 12 49 12 .36    -170    -16    -29    171    174 264.5  -9.8  33922  285.56 0863.02
2015 04 09 12 49 12 .60    -147    -12     24    148    151 265.2   9.5  33942  285.88 0863.02
2015 04 09 12 49 12 .86    -174     10    -45    175    181 273.3 -14.5  33912  285.39 0863.02
2015 04 09 12 49 13 .11    -165     40    -34    170    174 283.7 -11.3  33920  285.51 0863.02
2015 04 09 12 49 13 .35    -149     45     -6    156    157 286.8  -2.2  33912  285.39 0863.02
2015 04 09 12 49 13 .61    -197     27    -28    199    202 277.9  -8.2  33910  285.36 0863.02
2015 04 09 12 49 13 .86    -175     41     -8    180    181 283.3  -2.8  33916  285.46 0863.02
2015 04 09 12 49 14 .11    -161     24     -9    163    164 278.8  -3.3  33912  285.39 0863.02
2015 04 09 12 49 14 .36    -182     24    -25    184    186 277.7  -8.0  33918  285.48 0863.02
2015 04 09 12 49 14 .61    -128     29     11    132    133 282.8   5.0  33930  285.70 0863.02
2015 04 09 12 49 14 .86    -157     44    -21    164    166 285.9  -7.3  33920  285.53 0863.02
2015 04 09 12 49 15 .11    -132     43      0    139    140 288.2  -0.3  33926  285.61 0863.02
2015 04 09 12 49 15 .36    -182     65    -17    194    195 289.7  -5.2  33910  285.34 0863.02
2015 04 09 12 49 15 .61    -109     24      2    112    113 282.4   1.2  33928  285.66 0863.02
2015 04 09 12 49 15 .86     -32     20      1     38     39 302.5   2.9  33936  285.78 0863.02
2015 04 09 12 49 16 .11     -80     76     -4    111    112 313.6  -2.2  33932  285.71 0863.02
2015 04 09 12 49 16 .37    -134     48    -16    143    144 289.9  -6.7  33918  285.48 0863.02
2015 04 09 12 49 16 .62     -87    101    -31    134    138 319.0 -13.3  33930  285.70 0863.02
2015 04 09 12 49 16 .87    -119     82    -25    145    148 304.6  -9.8  33926  285.63 0863.02
2015 04 09 12 49 17 .13    -120    133    -37    180    184 317.9 -11.9  33934  285.75 0863.02
2015 04 09 12 49 17 .38    -147    129    -25    196    198 311.3  -7.3  33928  285.66 0863.02
2015 04 09 12 49 17 .63    -181    140    -18    229    230 307.7  -4.6  33920  285.53 0863.02
2015 04 09 12 49 17 .87    -172    132    -24    217    219 307.5  -6.5  33920  285.53 0863.02
2015 04 09 12 49 18 .13    -121    108    -33    163    167 311.8 -11.6  33932  285.71 0863.02
2015 04 09 12 49 18 .39    -138    111    -21    178    180 308.9  -6.9  33930  285.68 0863.02
2015 04 09 12 49 18 .63    -135    112     -8    176    177 309.8  -2.6  33928  285.65 0863.02
2015 04 09 12 49 18 .88    -177     86    -32    197    200 296.0  -9.3  33926  285.61 0863.02
2015 04 09 12 49 19 .13    -185    110    -33    216    219 300.9  -8.8  33920  285.53 0863.02
2015 04 09 12 49 19 .38    -159     99    -26    188    190 302.0  -8.0  33920  285.53 0863.02
2015 04 09 12 49 19 .63    -171     88    -24    193    195 297.3  -7.3  33944  285.92 0863.02
2015 04 09 12 49 19 .88    -176     83    -39    195    199 295.4 -11.3  33914  285.43 0863.02
2015 04 09 12 49 20 .13    -197     51    -28    204    207 284.6  -8.0  33918  285.50 0863.02
2015 04 09 12 49 20 .38    -183     50    -58    190    199 285.3 -17.0  33918  285.48 0863.02
2015 04 09 12 49 20 .63    -157     19    -41    159    165 277.0 -14.7  33918  285.48 0863.02
2015 04 09 12 49 20 .88    -173     51    -35    181    185 286.6 -11.1  33920  285.51 0863.02
2015 04 09 12 49 21 .13    -180     24    -35    182    186 277.7 -11.1  33920  285.51 0863.02
2015 04 09 12 49 21 .38    -130     26    -22    133    135 281.5  -9.4  33930  285.70 0863.02
2015 04 09 12 49 21 .63    -102     57     -4    117    118 299.3  -2.2  33934  285.75 0863.02
2015 04 09 12 49 21 .88    -115      0    -10    116    117 270.4  -5.2  33940  285.85 0863.02
2015 04 09 12 49 22 .13    -143      0    -30    144    148 270.4 -11.9  33920  285.53 0863.02
2015 04 09 12 49 22 .39    -155     31    -27    159    162 281.4  -9.6  33934  285.75 0863.02
2015 04 09 12 49 22 .64    -139     10    -38    140    146 274.4 -15.4  33924  285.60 0863.02
2015 04 09 12 49 22 .89    -122    -19    -20    124    126 260.8  -9.3  33932  285.73 0863.02
2015 04 09 12 49 23 .15     -47     14     31     50     58 286.8  35.5  33950  286.02 0863.02
2015 04 09 12 49 23 .40    -129     66    -41    145    151 297.1 -16.0  33924  285.60 0863.02
2015 04 09 12 49 23 .65     -95     40      2    104    105 293.1   1.2  33938  285.82 0863.02
2015 04 09 12 49 23 .90    -101     40    -15    109    111 291.7  -8.2  33934  285.76 0863.03
2015 04 09 12 49 24 .15     -87     40    -15     96     98 294.8  -9.3  33934  285.76 0863.03
2015 04 09 12 49 24 .40     -93     35     -2    100    101 290.8  -1.3  33932  285.71 0863.03
2015 04 09 12 49 24 .65    -105     57     -2    120    121 298.8  -1.3  33930  285.68 0863.03
2015 04 09 12 49 24 .90     -96     72      0    121    122 306.9   0.2  33928  285.66 0863.03
2015 04 09 12 49 25 .15     -80      0     12     81     83 270.0   9.0  33938  285.82 0863.03
2015 04 09 12 49 25 .40    -108     28     -4    112    113 285.0  -2.2  33926  285.61 0863.03
2015 04 09 12 49 25 .65    -101     26    -29    105    110 284.6 -15.5  33926  285.61 0863.03
2015 04 09 12 49 25 .90     -41     33     10     53     55 308.6  11.1  33936  285.80 0863.03
2015 04 09 12 49 26 .16     -45     21      1     50     51 295.4   1.8  33954  286.10 0863.03
2015 04 09 12 49 26 .40     -17     17      8     25     27 314.9  17.3  33960  286.20 0863.03
2015 04 09 12 49 26 .65     -17     31     16     36     39 331.0  25.1  33962  286.22 0863.03
2015 04 09 12 49 26 .90     -11     12     -6     17     18 316.8 -23.6  33978  286.49 0863.03
2015 04 09 12 49 27 .15      -8     29     -1     31     32 344.9  -2.2  33964  286.27 0863.03
2015 04 09 12 49 27 .41     -11     -8    -25     14     28 234.0 -73.2  33966  286.29 0863.03
2015 04 09 12 49 27 .66      -3     21    -23     22     31 352.0 -54.5  33974  286.42 0863.03
2015 04 09 12 49 27 .91     -33     40     -2     53     54 320.4  -2.2  33976  286.46 0863.03
2015 04 09 12 49 28 .16     -48     48     -5     69     70 314.9  -4.1  33956  286.14 0863.03
2015 04 09 12 49 28 .41     -56     52     -5     77     78 313.2  -4.1  33938  285.82 0863.03
2015 04 09 12 49 28 .66     -32     65      3     73     74 333.7   2.9  33940  285.85 0863.03
2015 04 09 12 49 28 .92     -81     64      6    104    105 308.2   3.8  33940  285.85 0863.03
2015 04 09 12 49 29 .16     -81     40    -11     91     92 296.2  -7.3  33922  285.55 0863.03
2015 04 09 12 49 29 .41    -107     21    -14    110    111 281.5  -7.7  33924  285.60 0863.03
2015 04 09 12 49 29 .66    -125    -16    -16    127    129 262.5  -7.3  33924  285.58 0863.03
2015 04 09 12 49 29 .91    -125    -15    -31    126    130 263.0 -13.9  33924  285.58 0863.03
2015 04 09 12 49 30 .17    -126     22    -45    129    137 280.1 -19.6  33920  285.53 0863.03
2015 04 09 12 49 30 .42    -140     50    -38    149    154 289.9 -14.5  33916  285.44 0863.03
2015 04 09 12 49 30 .67    -128     59    -19    142    144 294.8  -7.7  33914  285.43 0863.03
2015 04 09 12 49 30 .92    -103     80     -7    131    132 307.7  -3.1  33920  285.51 0863.03
2015 04 09 12 49 31 .17    -108     70    -20    129    131 302.9  -8.8  33920  285.53 0863.03
2015 04 09 12 49 31 .42    -105     57    -33    120    125 298.9 -15.5  33918  285.50 0863.03
2015 04 09 12 49 31 .67     -92     53    -35    107    113 300.2 -18.1  33920  285.53 0863.03
2015 04 09 12 49 31 .92     -78     55    -29     96    100 305.5 -21.7  33922  285.55 0863.02
2015 04 09 12 49 32 .17     -74     48    -32     89     94 303.3 -23.8  33920  285.53 0863.02
2015 04 09 12 49 32 .43     -77     25    -27     82     86 288.2 -23.8  33920  285.53 0863.02
2015 04 09 12 49 32 .68     -64     40    -23     76     79 302.4 -21.7  33920  285.53 0863.02
2015 04 09 12 49 32 .93     -65     42    -23     78     82 303.3 -16.6  33924  285.58 0863.02
2015 04 09 12 49 33 .18     -74     48    -25     89     92 303.3 -20.7  33918  285.50 0863.02
2015 04 09 12 49 33 .43     -85     54    -23    101    104 302.4 -12.9  33912  285.38 0863.02
2015 04 09 12 49 33 .68     -80     67     -9    105    106 310.0  -5.2  33918  285.48 0863.02
2015 04 09 12 49 33 .93     -76     60    -12     97     98 308.2  -7.3  33922  285.56 0863.03
2015 04 09 12 49 34 .18     -70     51    -12     87     88 306.4  -8.2  33918  285.48 0863.03
2015 04 09 12 49 34 .43     -69     43     -5     82     83 302.4  -4.1  33922  285.56 0863.03
2015 04 09 12 49 34 .68     -32     51     17     61     64 327.5  16.3  33938  285.82 0863.03
2015 04 09 12 49 34 .93     -30     60     14     68     70 333.7  12.2  33936  285.80 0863.03
2015 04 09 12 49 35 .19     -30     51      7     60     61 329.3   7.1  33944  285.92 0863.03
2015 04 09 12 49 35 .43     -44     56    -19     72     75 322.2 -15.4  33918  285.48 0863.03
2015 04 09 12 49 35 .68     -35     62     -9     72     73 330.1  -7.3  33918  285.50 0863.03
2015 04 09 12 49 35 .93     -42     49    -18     65     68 319.5 -15.5  33918  285.48 0863.03
2015 04 09 12 49 36 .18     -36     45    -20     58     61 321.3 -23.3  33922  285.56 0863.03
2015 04 09 12 49 36 .43     -31     46    -23     56     60 325.7 -27.5  33920  285.53 0863.03
2015 04 09 12 49 36 .68     -34     34    -17     49     53 315.0 -19.7  33922  285.55 0863.03
2015 04 09 12 49 36 .93     -36     36    -20     51     54 315.0 -25.4  33926  285.61 0863.03
2015 04 09 12 49 37 .19     -36     36    -20     51     54 315.0 -25.4  33926  285.61 0863.03
2015 04 09 12 49 37 .44     -28     40    -28     50     57 324.8 -36.8  33908  285.33 0863.03
2015 04 09 12 49 37 .70     -31     46    -30     56     63 325.7 -35.7  33906  285.29 0863.03
2015 04 09 12 49 37 .95     -40     37    -26     55     60 313.1 -31.6  33910  285.34 0863.03
2015 04 09 12 49 38 .20     -36     34    -31     50     58 313.1 -39.9  33910  285.34 0863.03
2015 04 09 12 49 38 .45     -37     40    -16     55     57 316.8 -21.7  33910  285.34 0863.03
2015 04 09 12 49 38 .70     -40     32    -18     52     56 308.6 -19.7  33912  285.38 0863.03
2015 04 09 12 49 38 .95     -37     37    -14     53     56 314.9 -15.5  33916  285.44 0863.03
2015 04 09 12 49 39 .20     -38     23    -10     45     47 301.5 -12.4  33912  285.39 0863.03
2015 04 09 12 49 39 .45     -42     26    -12     50     52 302.5 -13.4  33908  285.31 0863.03
2015 04 09 12 49 39 .70     -41     42     -9     59     60 315.8  -9.3  33910  285.34 0863.03
2015 04 09 12 49 39 .95     -40     44    -16     60     63 317.7 -15.4  33906  285.29 0863.03
2015 04 09 12 49 40 .20     -25     55    -16     61     64 335.5 -15.4  33906  285.29 0863.03
2015 04 09 12 49 40 .46     -46     53    -19     71     74 319.5 -15.5  33910  285.34 0863.03
2015 04 09 12 49 40 .70     -49     49    -21     70     74 314.9 -16.6  33906  285.29 0863.03
2015 04 09 12 49 40 .95     -57     55    -26     80     85 314.1 -18.1  33906  285.29 0863.03
2015 04 09 12 49 41 .21     -53     45    -23     70     74 310.4 -18.7  33908  285.33 0863.03
2015 04 09 12 49 41 .45     -53     45    -23     70     74 310.4 -18.7  33908  285.33 0863.03
2015 04 09 12 49 41 .70     -49     46    -21     68     71 313.1 -22.8  33906  285.29 0863.03
2015 04 09 12 49 41 .95     -45     45    -23     64     68 315.0 -23.3  33904  285.26 0863.03
2015 04 09 12 49 42 .20     -49     46    -21     68     71 313.1 -22.8  33906  285.29 0863.03
2015 04 09 12 49 42 .46     -50     41    -20     65     69 309.5 -17.6  33906  285.29 0863.03
2015 04 09 12 49 42 .71     -56     41    -21     70     73 306.0 -21.7  33906  285.29 0863.03
2015 04 09 12 49 42 .96     -48     36    -19     60     63 306.9 -17.6  33908  285.31 0863.03
2015 04 09 12 49 43 .21     -49     31    -21     59     63 302.5 -19.6  33906  285.29 0863.03
2015 04 09 12 49 43 .46     -53     40    -11     67     68 306.9  -9.3  33906  285.29 0863.03
2015 04 09 12 49 43 .71     -54     49     -9     74     75 312.2  -7.3  33912  285.39 0863.03
2015 04 09 12 49 43 .97     -45     45    -12     64     66 315.0 -11.3  33926  285.63 0863.03
2015 04 09 12 49 44 .22     -48     45     -3     67     68 313.1  -3.1  33930  285.68 0863.03
2015 04 09 12 49 44 .47     -47     32     -2     57     58 304.2  -2.2  33926  285.61 0863.03
2015 04 09 12 49 44 .73     -35     35    -10     50     51 315.0 -11.3  33916  285.46 0863.03
2015 04 09 12 49 44 .97     -31     28     -9     43     45 312.2 -12.4  33922  285.56 0863.03
2015 04 09 12 49 45 .23     -30     36     -5     48     49 320.4  -6.2  33934  285.76 0863.03
2015 04 09 12 49 45 .47     -24     33      0     41     42 323.9   0.8  33942  285.90 0863.03
2015 04 09 12 49 45 .72     -25     35     -7     44     45 324.8  -9.3  33924  285.58 0863.03
2015 04 09 12 49 45 .98     -33     35     -4     49     50 316.8  -5.2  33928  285.65 0863.03
2015 04 09 12 49 46 .23     -31     31      2     44     45 314.9   2.9  33942  285.88 0863.03
2015 04 09 12 49 46 .48     -24     29      4     38     39 320.4   6.9  33946  285.97 0863.03
2015 04 09 12 49 46 .73     -39     36      4     54     55 313.1   4.9  33936  285.80 0863.03
2015 04 09 12 49 46 .98     -58     48    -16     76     78 309.6 -11.9  33912  285.39 0863.03
2015 04 09 12 49 47 .23     -66     43     -9     80     81 303.3  -6.7  33914  285.43 0863.03
2015 04 09 12 49 47 .49     -80     44     -9     92     93 298.9  -5.6  33914  285.43 0863.03
2015 04 09 12 49 47 .73     -52     40      8     66     67 307.8   6.9  33932  285.71 0863.03
2015 04 09 12 49 47 .98     -53     45     -8     70     71 310.4  -7.2  33936  285.80 0863.03
2015 04 09 12 49 48 .23     -24     41     23     48     53 329.3  27.2  33956  286.14 0863.03
2015 04 09 12 49 48 .48     -36     35     17     51     54 314.1  18.9  33948  285.98 0863.03
2015 04 09 12 49 48 .73     -55     39     -3     68     69 306.0  -3.1  33932  285.73 0863.03
2015 04 09 12 49 48 .98     -27     56      3     63     64 333.7   2.8  33938  285.82 0863.03
2015 04 09 12 49 49 .24     -33     40      4     53     54 320.4   4.9  33940  285.85 0863.03
2015 04 09 12 49 49 .49     -41     43      9     60     61 315.8   9.0  33940  285.85 0863.03
2015 04 09 12 49 49 .73     -35     35     -1     50     51 315.0  -2.2  33942  285.90 0863.03
2015 04 09 12 49 49 .99     -34     52     -3     63     64 326.6  -3.1  33936  285.80 0863.03
2015 04 09 12 49 50 .24     -31     61     -5     69     70 332.8  -4.1  33934  285.76 0863.03
2015 04 09 12 49 50 .49     -32     67     -4     75     76 334.7  -3.2  33924  285.60 0863.03
2015 04 09 12 49 50 .74     -34     62     -3     71     72 331.0  -3.1  33920  285.53 0863.03
2015 04 09 12 49 51 .00     -32     65    -16     73     75 333.7 -12.4  33918  285.50 0863.03
2015 04 09 12 49 51 .25     -35     78    -11     86     87 335.9  -7.7  33906  285.29 0863.03
2015 04 09 12 49 51 .50     -50     60    -11     79     80 320.4  -8.2  33916  285.44 0863.03
2015 04 09 12 49 51 .75     -50     60    -18     79     82 320.4 -12.9  33912  285.38 0863.03
2015 04 09 12 49 52 .00     -63     48    -21     80     83 307.3 -15.0  33912  285.39 0863.03
2015 04 09 12 49 52 .25     -60     44    -20     75     78 306.0 -15.0  33908  285.33 0863.03
2015 04 09 12 49 52 .50     -57     54    -23     79     82 313.1 -21.2  33908  285.31 0863.03
2015 04 09 12 49 52 .75     -53     44    -32     70     76 309.6 -31.5  33904  285.26 0863.03
2015 04 09 12 49 53 .00     -65     47    -29     81     86 306.0 -24.4  33906  285.29 0863.03
2015 04 09 12 49 53 .25     -67     55    -26     87     91 309.5 -17.0  33906  285.29 0863.03
2015 04 09 12 49 53 .50     -83     68    -21    108    111 309.1 -11.3  33906  285.29 0863.03
2015 04 09 12 49 53 .76     -75     73    -31    105    110 314.4 -16.6  33910  285.34 0863.03
2015 04 09 12 49 54 .01     -72     77    -13    106    107 317.2  -7.3  33908  285.33 0863.03
2015 04 09 12 49 54 .26     -49     69    -18     85     88 324.4 -12.4  33918  285.48 0863.03
2015 04 09 12 49 54 .51     -64     49    -12     81     82 307.3  -8.8  33930  285.68 0863.03
2015 04 09 12 49 54 .75     -60     60    -19     86     89 315.0 -12.4  33908  285.31 0863.03
2015 04 09 12 49 55 .01     -59     67    -29     90     95 319.0 -18.1  33908  285.33 0863.03
2015 04 09 12 49 55 .26     -64     59    -24     88     92 312.7 -15.5  33904  285.26 0863.03
2015 04 09 12 49 55 .51     -66     47    -27     82     87 305.5 -18.7  33906  285.29 0863.03
2015 04 09 12 49 55 .76     -73     46    -25     87     90 302.5 -20.7  33906  285.29 0863.03
2015 04 09 12 49 56 .01     -64     51    -24     83     87 308.6 -16.6  33908  285.31 0863.03
2015 04 09 12 49 56 .26     -68     48    -10     84     85 305.5  -7.3  33910  285.34 0863.03
2015 04 09 12 49 56 .51     -62     52     -3     81     82 310.0  -2.2  33926  285.63 0863.03
2015 04 09 12 49 56 .77     -62     45     -4     77     78 305.9  -3.1  33926  285.63 0863.03
2015 04 09 12 49 57 .01     -60     49     -3     78     79 309.5  -2.2  33922  285.56 0863.03
2015 04 09 12 49 57 .27     -64     57    -12     86     87 311.8  -8.2  33918  285.48 0863.03
2015 04 09 12 49 57 .51     -45     48     -2     67     68 316.7  -2.2  33928  285.66 0863.03
2015 04 09 12 49 57 .76     -71     59     -6     93     94 309.6  -4.1  33916  285.44 0863.03
2015 04 09 12 49 58 .02     -68     66    -19     95     97 314.0 -11.3  33914  285.43 0863.03
2015 04 09 12 49 58 .28     -63     56    -22     85     88 311.8 -14.5  33906  285.29 0863.03
2015 04 09 12 49 58 .53     -60     60    -19     86     89 315.0 -12.4  33908  285.31 0863.03
2015 04 09 12 49 58 .78     -48     51      2     71     72 316.8   1.8  33938  285.82 0863.03
2015 04 09 12 49 59 .03     -64     65    -22     92     95 315.3 -13.9  33928  285.66 0863.03
2015 04 09 12 49 59 .27     -57     54    -23     79     82 313.1 -21.2  33908  285.31 0863.03
2015 04 09 12 49 59 .53     -49     60    -34     78     85 320.4 -29.5  33906  285.29 0863.03
2015 04 09 12 49 59 .78     -57     52    -36     78     85 312.2 -31.0  33904  285.26 0863.03
2015 04 09 12 50 00 .03     -60     57    -32     83     88 313.6 -25.9  33904  285.26 0863.03
2015 04 09 12 50 00 .28     -59     48    -32     77     83 309.5 -28.0  33904  285.26 0863.03
2015 04 09 12 50 00 .53     -57     50    -21     76     78 311.3 -20.2  33906  285.29 0863.03
2015 04 09 12 50 00 .78     -56     52    -21     77     80 313.1 -15.5  33912  285.39 0863.03
2015 04 09 12 50 01 .03     -53     53    -23     75     79 315.0 -17.6  33914  285.43 0863.03
2015 04 09 12 50 01 .28     -60     38    -25     72     76 302.5 -23.3  33910  285.34 0863.03
2015 04 09 12 50 01 .53     -51     42    -23     67     70 309.5 -23.3  33908  285.33 0863.03
2015 04 09 12 50 01 .78     -45     45    -23     64     68 315.0 -23.3  33908  285.33 0863.03
2015 04 09 12 50 02 .04     -40     45    -18     61     63 318.6 -21.7  33920  285.53 0863.03
2015 04 09 12 50 02 .29     -45     48    -17     67     70 316.8 -14.5  33932  285.71 0863.03
2015 04 09 12 50 02 .53     -58     46    -23     75     78 308.6 -23.8  33934  285.75 0863.03
2015 04 09 12 50 02 .78     -64     35    -14     74     76 298.9 -11.3  33926  285.61 0863.03
2015 04 09 12 50 03 .04     -82     39    -18     92     94 295.8 -11.3  33924  285.58 0863.03
2015 04 09 12 50 03 .29     -45     41     -2     62     63 312.2  -2.2  33944  285.93 0863.03
2015 04 09 12 50 03 .54     -20     35     12     41     43 330.1  16.3  33952  286.05 0863.03
2015 04 09 12 50 03 .83     -22     22     -7     32     33 314.9 -13.4  33952  286.05 0863.03
2015 04 09 12 50 04 .04     -53     31    -11     62     64 300.7 -10.3  33934  285.76 0863.04
2015 04 09 12 50 04 .29     -45     48     -2     67     68 316.7  -2.2  33950  286.03 0863.04
2015 04 09 12 50 04 .54     -34     45     -2     57     58 323.0  -2.2  33952  286.05 0863.04
2015 04 09 12 50 04 .79     -68     57    -25     90     94 310.0 -16.0  33928  285.66 0863.04
2015 04 09 12 50 05 .05     -63     53    -18     83     85 310.4 -12.4  33926  285.63 0863.04
2015 04 09 12 50 05 .30     -45     53     -6     70     71 319.5  -5.2  33944  285.92 0863.04
2015 04 09 12 50 05 .56     -69     52    -13     87     89 306.9  -8.8  33932  285.73 0863.04
2015 04 09 12 50 05 .80     -68     48     -4     84     85 305.5  -3.1  33918  285.48 0863.03
2015 04 09 12 50 06 .05     -98     43    -13    108    109 294.0  -7.3  33908  285.33 0863.03
2015 04 09 12 50 06 .31     -97     62    -26    116    120 302.4 -12.9  33914  285.43 0863.03
2015 04 09 12 50 06 .56     -97     53    -14    111    112 298.8  -7.3  33918  285.48 0863.03
2015 04 09 12 50 06 .81     -98     60    -14    115    116 301.5  -7.2  33914  285.43 0863.03
2015 04 09 12 50 07 .06     -83     36     -5     91     92 294.0  -3.7  33928  285.66 0863.03
2015 04 09 12 50 07 .31     -90     48    -13    103    104 298.4  -7.7  33926  285.63 0863.03
2015 04 09 12 50 07 .56     -92     58     -4    110    111 302.4  -2.2  33922  285.56 0863.03
2015 04 09 12 50 07 .81    -112     44    -21    121    123 291.7 -10.3  33918  285.50 0863.03
2015 04 09 12 50 08 .06    -102     52    -13    115    116 297.1  -6.7  33932  285.71 0863.03
2015 04 09 12 50 08 .31     -88     68     -4    112    113 307.8  -2.2  33936  285.80 0863.03
2015 04 09 12 50 08 .56     -85     80    -18    118    120 313.2  -8.8  33928  285.66 0863.03
2015 04 09 12 50 08 .81    -103     85    -14    134    135 309.6  -6.2  33938  285.82 0863.03
2015 04 09 12 50 09 .06     -85     49     -3     99    100 299.8  -2.2  33932  285.71 0863.03
2015 04 09 12 50 09 .31     -80     58     -3    100    101 306.0  -2.2  33930  285.68 0863.03
2015 04 09 12 50 09 .57     -82     54    -11     99    100 303.7  -6.7  33934  285.76 0863.03
2015 04 09 12 50 09 .81     -56     46     -5     73     74 309.5  -4.1  33984  286.59 0863.03
2015 04 09 12 50 10 .06     -40     67     12     79     81 329.3   9.0  33994  286.76 0863.03
2015 04 09 12 50 10 .32     -23     41     -5     48     49 330.1  -6.2  34006  286.98 0863.03
2015 04 09 12 50 10 .56     -17     24      0     30     31 323.9  -1.3  34014  287.10 0863.03
2015 04 09 12 50 10 .81     -60     49    -25     78     81 309.5 -22.8  34004  286.93 0863.03
2015 04 09 12 50 11 .07     -48     45     -9     66     67 313.2  -8.2  34004  286.93 0863.03
2015 04 09 12 50 11 .32     -19     14     -8     24     26 306.0 -19.7  34012  287.08 0863.02
2015 04 09 12 50 11 .56     -21     20    -15     30     33 313.3 -31.6  34008  287.01 0863.02
2015 04 09 12 50 11 .81     -23     41     -5     48     49 330.1  -6.2  34004  286.93 0863.02
2015 04 09 12 50 12 .08     -56     41    -21     70     73 306.0 -21.7  33942  285.88 0863.02
2015 04 09 12 50 12 .33     -66     31     -9     74     75 295.4  -7.3  33932  285.71 0863.02
2015 04 09 12 50 12 .58     -59     36     -3     70     71 301.5  -3.1  33932  285.73 0863.02
2015 04 09 12 50 12 .83     -53     51    -15     74     76 314.1 -11.5  33932  285.71 0863.02
2015 04 09 12 50 13 .08     -23     32      1     40     41 323.9   1.8  33952  286.05 0863.02
2015 04 09 12 50 13 .34     -36     39    -12     54     56 316.8 -12.4  33962  286.22 0863.02
2015 04 09 12 50 13 .59     -38     51     22     64     68 323.0  19.4  34050  287.70 0863.02
2015 04 09 12 50 13 .83     -42     14     15     45     48 288.6  19.2  34036  287.49 0863.02
2015 04 09 12 50 14 .08     -74      9     -2     75     76 277.0  -2.2  33944  285.93 0863.02
2015 04 09 12 50 14 .33     -79     12    -15     80     82 278.8 -10.9  33926  285.61 0863.02
2015 04 09 12 50 14 .58     -77     12    -22     79     83 279.2 -16.0  33926  285.63 0863.02
2015 04 09 12 50 14 .84     -87     23    -14     91     93 285.1  -8.8  33928  285.65 0863.02
2015 04 09 12 50 15 .08     -87     20    -11     90     91 283.3  -7.2  33928  285.66 0863.02
2015 04 09 12 50 15 .33     -87      8     -8     88     89 275.7  -5.6  33940  285.85 0863.02
2015 04 09 12 50 15 .59     -64     21      3     68     69 288.4   2.9  33958  286.17 0863.02
2015 04 09 12 50 15 .84     -57    -14     -3     59     60 255.8  -3.2  33954  286.10 0863.02
2015 04 09 12 50 16 .09     -54      8     -9     55     56 278.8 -10.3  33944  285.92 0863.02
2015 04 09 12 50 16 .34     -58     -9     -4     59     60 261.2  -4.1  33954  286.08 0863.02
2015 04 09 12 50 16 .59     -72    -14      3     74     75 258.6   2.9  33934  285.75 0863.02
2015 04 09 12 50 16 .84     -50    -11    -16     52     54 257.6 -23.8  33922  285.56 0863.02
2015 04 09 12 50 17 .08     -70    -15    -10     72     73 257.6  -8.2  33924  285.58 0863.02
2015 04 09 12 50 17 .34     -78    -12    -26     79     84 261.2 -18.7  33916  285.44 0863.02
2015 04 09 12 50 17 .59     -71     -6    -24     72     77 264.8 -18.7  33918  285.50 0863.02
2015 04 09 12 50 17 .84     -68      0    -19     69     72 269.2 -15.5  33918  285.50 0863.02
2015 04 09 12 50 18 .10     -75     -6    -23     76     80 264.8 -17.0  33918  285.48 0863.02
2015 04 09 12 50 18 .34     -93     -7    -17     94     96 265.2 -10.3  33938  285.82 0863.02
2015 04 09 12 50 18 .60     -77     -1    -16     78     80 269.1 -11.9  33948  285.98 0863.02
2015 04 09 12 50 18 .85     -87     12    -30     88     92 278.4 -23.3  33946  285.97 0863.02
2015 04 09 12 50 19 .10    -109     24    -14    112    113 282.8  -7.2  33942  285.88 0863.02
2015 04 09 12 50 19 .36    -117     29    -14    121    122 284.2  -6.7  33944  285.93 0863.02
2015 04 09 12 50 19 .60    -128      5     -7    129    130 272.6  -3.2  33950  286.03 0863.01
2015 04 09 12 50 19 .85    -101      0      5    102    103 270.0   2.8  33952  286.05 0863.01
2015 04 09 12 50 20 .11     -93    -20     -6     96     97 257.6  -4.1  33946  285.97 0863.01
2015 04 09 12 50 20 .36     -71    -22    -23     75     79 252.3 -17.6  33948  286.00 0863.01
2015 04 09 12 50 20 .61     -65      0     -8     66     67 269.2  -7.2  33968  286.32 0863.01
2015 04 09 12 50 20 .86     -76     -1    -24     77     81 269.1 -17.6  33940  285.85 0863.01
2015 04 09 12 50 21 .11     -91     -3    -13     92     93 267.9  -8.2  33958  286.17 0863.01
2015 04 09 12 50 21 .36     -76      5      3     77     78 274.3   2.8  33990  286.71 0863.02
2015 04 09 12 50 21 .61     -24     24     12     34     37 314.9  19.4  34006  286.96 0863.02
2015 04 09 12 50 21 .86     -37      0     49     38     62 270.8  58.5  34020  287.20 0863.02
2015 04 09 12 50 22 .11      -4     -3     33      6     33 230.5  89.1  34020  287.21 0863.02
2015 04 09 12 50 22 .36     -15     21      9     26     28 323.9  18.9  34014  287.10 0863.02
2015 04 09 12 50 22 .62     -29      5     36     30     46 279.7  55.4  34012  287.08 0863.02
2015 04 09 12 50 22 .86      -4      8     14     10     17 331.0  60.5  34026  287.30 0863.02
2015 04 09 12 50 23 .11     -12     -4      4     13     14 251.6  19.2  34016  287.15 0863.02
2015 04 09 12 50 23 .36     -61    -12    -25     63     67 258.5 -27.4  33978  286.51 0863.02
2015 04 09 12 50 23 .61     -17    -37    -18     41     44 205.5 -28.5  33974  286.42 0863.02
2015 04 09 12 50 23 .87      23      7     30     25     39  71.4  56.3  33986  286.64 0863.02
2015 04 09 12 50 24 .11      -6    -39      4     40     41 188.9   5.9  33978  286.51 0863.02
2015 04 09 12 50 24 .37      -4    -19      7     20     22 193.4  19.2  33984  286.59 0863.02
2015 04 09 12 50 24 .62       2    -43     42     44     60 176.4  49.0  34002  286.89 0863.02
2015 04 09 12 50 24 .86     -24      1      8     25     27 274.4  18.9  34004  286.93 0863.02
2015 04 09 12 50 25 .11     -99      5     -6    100    101 273.0  -3.7  33928  285.66 0863.02
2015 04 09 12 50 25 .37    -148    -11    -35    149    154 265.6 -13.2  33908  285.33 0863.02
2015 04 09 12 50 25 .62    -146     -8    -44    147    154 266.5 -16.6  33908  285.33 0863.02
2015 04 09 12 50 25 .88    -151    -16    -49    152    160 263.9 -18.1  33908  285.33 0863.02
2015 04 09 12 50 26 .13    -132    -18    -48    134    143 262.0 -19.7  33908  285.31 0863.02
2015 04 09 12 50 26 .38    -139    -23    -36    142    147 260.3 -14.5  33908  285.33 0863.02
2015 04 09 12 50 26 .63    -145    -24    -31    148    152 260.4 -11.9  33910  285.34 0863.02
2015 04 09 12 50 26 .88    -145    -20    -29    147    150 262.0 -11.5  33908  285.33 0863.02
2015 04 09 12 50 27 .13    -137    -16    -31    139    143 263.0 -12.9  33908  285.33 0863.02
2015 04 09 12 50 27 .38    -133    -25    -27    136    139 259.4 -11.3  33908  285.31 0863.02
2015 04 09 12 50 27 .64    -125     -5    -25    126    129 267.5 -11.3  33912  285.38 0863.02
2015 04 09 12 50 27 .88    -120    -24    -16    123    125 258.5  -7.7  33910  285.34 0863.02
2015 04 09 12 50 28 .14    -126    -42    -17    134    136 251.4  -7.2  33908  285.33 0863.02
2015 04 09 12 50 28 .39    -114    -44    -17    123    125 248.7  -8.2  33916  285.46 0863.02
2015 04 09 12 50 28 .63    -117     -1    -23    118    121 269.2 -11.3  33908  285.33 0863.01
2015 04 09 12 50 28 .89     -98    -16    -33    100    106 260.3 -18.7  33908  285.31 0863.01
2015 04 09 12 50 29 .14     -99    -46    -35    110    116 244.8 -17.6  33912  285.38 0863.01
2015 04 09 12 50 29 .39    -105    -23    -24    108    111 257.6 -12.9  33908  285.33 0863.01
2015 04 09 12 50 29 .64    -114    -21     -9    116    117 259.4  -4.6  33908  285.33 0863.01
2015 04 09 12 50 29 .89     -98    -26    -13    102    103 255.0  -7.7  33914  285.43 0863.01
2015 04 09 12 50 30 .14     -88     -5     -3     89     90 266.5  -2.2  33932  285.71 0863.01
2015 04 09 12 50 30 .39     -73     10     -2     74     75 277.9  -2.2  33928  285.66 0863.01
2015 04 09 12 50 30 .64     -68      9     -2     69     70 277.9  -2.2  33940  285.85 0863.01
2015 04 09 12 50 30 .89     -14     17     32     23     39 320.4  60.5  33992  286.73 0863.01
2015 04 09 12 50 31 .14     -29     30      2     43     44 315.9   2.9  33966  286.30 0863.01
2015 04 09 12 50 31 .39     -92      7    -11     93     94 274.8  -7.3  33950  286.02 0863.01
2015 04 09 12 50 31 .65     -27    -17     41     32     52 237.6  57.5  33972  286.41 0863.01
2015 04 09 12 50 31 .89     -99    -13    -16    100    102 262.5  -9.3  33916  285.44 0863.01
2015 04 09 12 50 32 .15    -102     27     -2    106    107 285.0  -1.3  33940  285.87 0863.01
2015 04 09 12 50 32 .39    -120     20    -16    122    124 279.7  -7.7  33922  285.55 0863.01
2015 04 09 12 50 32 .65     -54     18      2     57     58 288.6   2.8  33944  285.93 0863.01
2015 04 09 12 50 32 .91     -63      9     -5     64     65 278.8  -5.2  33940  285.87 0863.01
2015 04 09 12 50 33 .16    -104      6      1    105    106 273.5   0.8  33934  285.76 0863.01
2015 04 09 12 50 33 .41    -104    -35      1    110    111 251.4   0.8  33956  286.14 0863.01
2015 04 09 12 50 33 .66     -32      9     20     34     39 286.8  33.5  33990  286.69 0863.01
2015 04 09 12 50 33 .91     -34     -6     18     35     39 258.5  27.3  33998  286.83 0863.01
2015 04 09 12 50 34 .16     -91      0    -15     92     94 270.0  -9.8  33956  286.14 0863.01
2015 04 09 12 50 34 .41     -81    -51      2     97     98 237.6   1.2  33970  286.35 0863.01
2015 04 09 12 50 34 .66     -69     -4    -28     70     75 266.5 -27.4  33962  286.22 0863.01
2015 04 09 12 50 34 .91      -5    -43     40     44     59 187.1  47.9  33960  286.19 0863.01
2015 04 09 12 50 35 .16     -33     33     34     48     58 315.0  38.6  33996  286.79 0863.01
2015 04 09 12 50 35 .41     -81    -30      4     87     88 249.2   2.8  33990  286.69 0863.01
2015 04 09 12 50 35 .69    -112     -4    -24    113    116 267.9 -12.4  33984  286.59 0863.01
2015 04 09 12 50 35 .91     -37     14      7     40     41 290.8  10.1  33982  286.57 0863.01
2015 04 09 12 50 36 .16     -61     -4      6     62     63 265.6   5.9  33960  286.20 0863.01
2015 04 09 12 50 36 .41    -180     46    -10    186    187 284.4  -3.1  33920  285.53 0863.01
2015 04 09 12 50 36 .67    -189     53    -20    197    199 285.7  -6.0  33922  285.56 0863.01
2015 04 09 12 50 36 .92    -180     40     -7    185    186 282.6  -2.2  33920  285.53 0863.01
2015 04 09 12 50 37 .17    -178     44    -32    184    187 283.9 -10.1  33914  285.43 0863.01
2015 04 09 12 50 37 .42    -172     40    -23    177    179 283.3  -7.5  33920  285.51 0863.01
2015 04 09 12 50 37 .67    -137     10    -12    138    139 274.4  -5.1  33932  285.73 0863.01
2015 04 09 12 50 37 .92    -139      5    -17    140    142 272.1  -7.2  33930  285.70 0863.01
2015 04 09 12 50 38 .17    -122     48     -5    132    133 291.7  -2.2  33936  285.78 0863.01
2015 04 09 12 50 38 .42    -109     34     -4    115    116 287.7  -2.2  33940  285.85 0863.01
2015 04 09 12 50 38 .67     -65     17      8     68     69 285.1   6.9  33944  285.93 0863.01
2015 04 09 12 50 38 .92    -114     67      0    133    134 300.6   0.2  33926  285.61 0863.01
2015 04 09 12 50 39 .17    -185     87    -18    205    206 295.2  -5.2  33918  285.50 0863.01
2015 04 09 12 50 39 .42    -156     94    -39    183    188 301.1 -12.2  33932  285.71 0863.01
2015 04 09 12 50 39 .68    -161     93    -18    186    187 300.0  -5.6  33928  285.66 0863.01
2015 04 09 12 50 39 .93    -191    102    -23    217    219 298.2  -6.2  33908  285.33 0863.01
2015 04 09 12 50 40 .18    -190    124    -29    228    230 303.1  -7.3  33906  285.29 0863.01
2015 04 09 12 50 40 .43    -182    116    -57    216    224 302.5 -15.0  33906  285.29 0863.01
2015 04 09 12 50 40 .68    -168    106    -39    199    203 302.2 -11.3  33904  285.26 0863.01
2015 04 09 12 50 40 .93    -163    109    -32    197    200 303.7  -9.3  33906  285.29 0863.01
2015 04 09 12 50 41 .18    -145    111    -24    183    185 307.5  -7.5  33910  285.36 0863.01
2015 04 09 12 50 41 .43    -127    112    -33    170    174 311.6 -11.1  33906  285.29 0863.01
2015 04 09 12 50 41 .69    -148    107    -26    183    185 305.9  -8.2  33908  285.33 0863.01
2015 04 09 12 50 41 .94    -141    104    -12    176    177 306.6  -3.9  33912  285.38 0863.01
2015 04 09 12 50 42 .19    -130    134    -15    187    188 315.9  -4.9  33916  285.46 0863.01
2015 04 09 12 50 42 .44    -120    127    -24    176    178 316.6  -8.0  33906  285.29 0863.01
2015 04 09 12 50 42 .69    -119    143    -38    187    191 320.3 -11.5  33914  285.43 0863.01
2015 04 09 12 50 42 .94    -106    130    -22    169    171 320.8  -7.7  33910  285.34 0863.01
2015 04 09 12 50 43 .19    -119    158    -46    199    205 323.0 -13.2  33906  285.29 0863.01
2015 04 09 12 50 43 .44    -110    134    -34    174    178 320.6 -11.3  33912  285.39 0863.01
2015 04 09 12 50 43 .69    -125    117    -40    172    177 313.1 -13.2  33910  285.34 0863.01
2015 04 09 12 50 43 .94    -111    106    -29    154    157 313.6 -10.9  33910  285.36 0863.01
2015 04 09 12 50 44 .19     -87    101    -22    134    136 319.5  -9.4  33922  285.56 0863.01
2015 04 09 12 50 44 .44     -82    110    -17    138    140 323.5  -7.3  33922  285.56 0863.01
2015 04 09 12 50 44 .69     -72    141     -3    159    160 332.9  -1.3  33912  285.38 0863.00
2015 04 09 12 50 44 .94     -68    125     -3    143    144 331.5  -1.3  33910  285.34 0863.00
2015 04 09 12 50 45 .19     -55    115    -15    128    129 334.1  -6.7  33910  285.34 0863.00
2015 04 09 12 50 45 .44     -94     93    -31    133    137 314.8 -13.4  33910  285.34 0863.00
2015 04 09 12 50 45 .69    -102     75    -20    127    129 306.4  -9.3  33914  285.43 0863.00
2015 04 09 12 50 45 .95     -78     81    -22    113    116 316.3 -11.3  33914  285.41 0863.00
2015 04 09 12 50 46 .19     -81     73    -19    110    112 312.2 -10.3  33908  285.33 0863.00
2015 04 09 12 50 46 .45     -80     84    -15    117    119 316.3  -7.7  33910  285.34 0863.00
2015 04 09 12 50 46 .70     -79     77    -32    111    115 314.0 -20.7  33908  285.31 0863.00
2015 04 09 12 50 46 .95     -78     64    -37    102    108 309.5 -24.8  33908  285.31 0863.00
2015 04 09 12 50 47 .20     -69     57    -41     90     98 309.5 -30.6  33912  285.38 0863.00
2015 04 09 12 50 47 .46     -48     81    -51     95    107 329.3 -34.7  33910  285.34 0863.00
2015 04 09 12 50 47 .71     -48     80    -58     94    110 329.3 -39.9  33908  285.33 0863.00
2015 04 09 12 50 47 .96     -45     84    -56     96    111 331.9 -37.3  33906  285.29 0863.00
2015 04 09 12 50 48 .21     -40     85    -44     95    104 334.6 -31.0  33908  285.31 0863.00
2015 04 09 12 50 48 .46     -33     82    -38     89     96 338.2 -28.5  33910  285.34 0863.01
2015 04 09 12 50 48 .73     -40     85    -44     95    104 334.6 -31.0  33908  285.31 0863.01
2015 04 09 12 50 48 .96     -37     80    -42     89     98 335.1 -31.5  33910  285.34 0863.01
2015 04 09 12 50 49 .21     -39     94    -38    102    108 337.3 -25.4  33906  285.29 0863.01
2015 04 09 12 50 49 .46     -46     74    -32     88     93 328.4 -24.4  33908  285.33 0863.01
2015 04 09 12 50 49 .71     -32     97    -38    103    109 341.7 -24.8  33910  285.34 0863.01
2015 04 09 12 50 49 .96     -42     89    -40     99    106 334.7 -27.4  33908  285.33 0863.01
2015 04 09 12 50 50 .21     -43     82    -47     93    104 332.4 -33.7  33910  285.34 0863.01
2015 04 09 12 50 50 .47     -32     60    -49     69     84 331.9 -43.0  33912  285.38 0863.01
2015 04 09 12 50 50 .71     -36     52    -41     64     76 324.8 -39.9  33912  285.38 0863.01
2015 04 09 12 50 50 .97     -28     57    -33     64     72 333.7 -32.6  33910  285.34 0863.01
2015 04 09 12 50 51 .22     -32     49    -38     59     70 326.6 -40.0  33912  285.39 0863.01
2015 04 09 12 50 51 .47     -27     65    -27     71     75 337.3 -25.4  33908  285.33 0863.01
2015 04 09 12 50 51 .72     -23     68    -27     72     76 341.3 -24.4  33914  285.43 0863.01
2015 04 09 12 50 51 .97     -24     61    -24     66     70 338.2 -24.4  33912  285.39 0863.01
2015 04 09 12 50 52 .22     -25     63    -17     68     71 338.2 -14.5  33910  285.34 0863.01
2015 04 09 12 50 52 .47     -35     54    -10     65     66 326.6  -9.3  33910  285.34 0863.01
2015 04 09 12 50 52 .72     -30     55    -21     63     67 331.0 -18.7  33910  285.34 0863.01
2015 04 09 12 50 52 .97     -28     50    -18     58     61 330.1 -17.6  33912  285.38 0863.01
2015 04 09 12 50 53 .22     -17     61    -23     64     68 344.0 -23.3  33914  285.41 0863.01
2015 04 09 12 50 53 .47     -15     49    -34     52     62 343.1 -40.9  33916  285.44 0863.01
2015 04 09 12 50 53 .73     -20     24    -39     32     50 320.4 -60.8  33926  285.61 0863.01
2015 04 09 12 50 53 .98     -13     28    -38     32     49 334.7 -60.7  33928  285.66 0863.01
2015 04 09 12 50 54 .23      -8     25    -29     27     39 341.7 -55.6  33934  285.76 0863.01
2015 04 09 12 50 54 .49      -7     21    -41     23     47 341.5 -72.1  33948  286.00 0863.01
2015 04 09 12 50 54 .73      -7      4    -27      9     28 302.4 -85.4  33952  286.05 0863.01
2015 04 09 12 50 54 .98      -8    -12    -36     15     39 212.6 -83.6  33940  285.85 0863.01
2015 04 09 12 50 55 .23      -1     -4    -28      5     28 191.6 -90.0  33942  285.90 0863.01
2015 04 09 12 50 55 .49       1    -16    -25     17     30 175.6 -67.0  33950  286.03 0863.01
2015 04 09 12 50 55 .74     -24     -4    -24     25     34 258.5 -56.4  33952  286.05 0863.01
2015 04 09 12 50 55 .98     -16     12    -23     21     31 307.8 -56.6  33946  285.95 0863.01
2015 04 09 12 50 56 .24     -11     -1    -32     12     34 262.1 -85.6  33952  286.05 0863.01
2015 04 09 12 50 56 .49       0      0    -19      1     19  90.0 -90.0  33958  286.17 0863.01
2015 04 09 12 50 56 .74       0     -3    -15      4     15 189.7 -89.3  33958  286.17 0863.01
2015 04 09 12 50 56 .99       9      0    -10     10     14  90.8 -54.5  33954  286.10 0863.01
2015 04 09 12 50 57 .24       0      4      0      5      6 357.3  -2.2  33954  286.08 0863.01
2015 04 09 12 50 57 .49       4    -12    -11     13     17 161.7 -52.3  33952  286.07 0863.01
2015 04 09 12 50 57 .74      11      1     -8     12     14  82.1 -44.1  33950  286.03 0863.01
2015 04 09 12 50 57 .99      -7     20      5     22     23 340.0  13.2  33954  286.08 0863.01
2015 04 09 12 50 58 .24     -15     21      1     27     28 323.9   2.9  33936  285.78 0863.01
2015 04 09 12 50 58 .49     -29     20      1     36     37 304.2   2.9  33932  285.73 0863.01
2015 04 09 12 50 58 .74     -32     16     -1     36     37 297.1  -2.2  33916  285.44 0863.01
2015 04 09 12 50 58 .99     -32     16     -7     36     37 297.1 -11.3  33914  285.43 0863.01
2015 04 09 12 50 59 .25     -34     16    -12     38     40 295.3 -17.6  33920  285.53 0863.01
2015 04 09 12 50 59 .50     -42     16    -20     46     50 291.7 -30.6  33948  285.98 0863.01
2015 04 09 12 50 59 .74     -41     16     -9     45     46 291.7 -11.3  33928  285.66 0863.01
2015 04 09 12 51 00 .00     -42      5    -18     43     46 277.0 -27.4  33954  286.10 0863.01
2015 04 09 12 51 00 .24     -44      5    -23     45     50 277.0 -33.7  33936  285.80 0863.01
2015 04 09 12 51 00 .50     -44     16    -14     47     50 290.0 -16.6  33918  285.50 0863.01
2015 04 09 12 51 00 .76     -48      7    -24     49     54 278.8 -31.6  33922  285.55 0863.01
2015 04 09 12 51 01 .01     -52      7    -17     53     56 277.9 -18.7  33920  285.53 0863.01
2015 04 09 12 51 01 .26     -49      3    -34     50     60 274.4 -42.0  33938  285.82 0863.01
2015 04 09 12 51 01 .51     -46      7    -45     47     65 278.8 -53.4  33940  285.85 0863.01
2015 04 09 12 51 01 .76     -49      5    -21     50     54 276.1 -27.4  33938  285.82 0863.01
2015 04 09 12 51 02 .01     -44     -8    -16     45     47 259.4 -23.3  33946  285.97 0863.01
2015 04 09 12 51 02 .28     -30      0      1     31     32 269.2   2.8  33960  286.20 0863.01
2015 04 09 12 51 02 .51     -41     -3     -2     42     43 265.6  -3.1  33964  286.27 0863.01
2015 04 09 12 51 02 .76     -45    -12     -7     47     48 254.9  -9.3  33952  286.05 0863.01
2015 04 09 12 51 03 .02     -49      0    -21     50     54 269.2 -27.4  33934  285.76 0863.01
2015 04 09 12 51 03 .26     -48      0    -21     49     53 269.2 -28.5  33924  285.60 0863.01
2015 04 09 12 51 03 .51     -48      4    -22     49     53 275.2 -29.5  33922  285.55 0863.01
2015 04 09 12 51 03 .77     -49      3    -21     50     54 274.4 -27.4  33924  285.60 0863.01
2015 04 09 12 51 04 .02     -62    -16    -21     65     68 254.9 -23.8  33944  285.92 0863.01
2015 04 09 12 51 04 .26     -68    -32    -23     76     79 244.8 -21.7  33958  286.17 0863.01
2015 04 09 12 51 04 .51     -83    -22    -41     87     96 254.9 -31.6  33940  285.85 0863.01
2015 04 09 12 51 04 .77     -95    -18    -52     97    110 259.0 -35.2  33936  285.78 0863.01
2015 04 09 12 51 05 .01     -95    -13    -42     96    104 262.1 -29.5  33934  285.76 0863.01
2015 04 09 12 51 05 .27     -98    -12    -41     99    107 263.0 -27.5  33934  285.75 0863.01
2015 04 09 12 51 05 .52     -84      0    -41     85     94 270.4 -31.7  33920  285.53 0863.01
2015 04 09 12 51 05 .77     -78    -10    -42     79     89 262.1 -34.7  33924  285.60 0863.02
2015 04 09 12 51 06 .02     -60    -13    -38     62     72 257.6 -39.9  33938  285.82 0863.02
2015 04 09 12 51 06 .27     -63    -12    -31     65     72 258.5 -31.6  33936  285.78 0863.02
2015 04 09 12 51 06 .52     -60    -33    -23     69     73 241.1 -18.7  33932  285.73 0863.02
2015 04 09 12 51 06 .77     -67    -34    -21     76     78 242.9 -20.2  33928  285.66 0863.02
2015 04 09 12 51 07 .02     -46    -45    -25     65     69 226.0 -26.4  33928  285.65 0863.02
2015 04 09 12 51 07 .27     -40    -44    -22     60     63 222.3 -24.4  33926  285.63 0863.02
2015 04 09 12 51 07 .53     -48    -41    -22     64     67 229.6 -23.3  33926  285.61 0863.02
2015 04 09 12 51 07 .78     -51    -37    -13     64     66 234.0 -11.5  33934  285.75 0863.02
2015 04 09 12 51 08 .03     -55    -35    -18     66     69 237.6 -15.4  33932  285.71 0863.02
2015 04 09 12 51 08 .29     -52    -33    -11     62     64 237.5 -10.3  33938  285.82 0863.02
2015 04 09 12 51 08 .53     -47    -34    -17     59     61 234.0 -20.7  33934  285.76 0863.02
2015 04 09 12 51 08 .78     -49    -31    -19     59     61 237.6 -23.8  33932  285.73 0863.02
2015 04 09 12 51 09 .03     -52     -9    -19     53     56 259.4 -23.3  33926  285.63 0863.02
2015 04 09 12 51 09 .29     -47    -13    -19     49     52 254.1 -26.4  33926  285.63 0863.01
2015 04 09 12 51 09 .54     -52    -30    -17     61     63 240.2 -20.7  33928  285.66 0863.01
2015 04 09 12 51 09 .79     -42    -26    -25     50     55 237.6 -32.6  33926  285.61 0863.01
2015 04 09 12 51 10 .04     -33    -12    -32     36     48 250.0 -52.3  33930  285.68 0863.01
2015 04 09 12 51 10 .29     -27    -18    -25     33     41 235.8 -46.1  33928  285.66 0863.01
2015 04 09 12 51 10 .54     -33    -18    -23     38     44 241.1 -37.9  33926  285.63 0863.01
2015 04 09 12 51 10 .79     -27    -18    -25     33     41 235.8 -46.1  33938  285.82 0863.01
2015 04 09 12 51 11 .04     -21    -13    -24     25     34 237.6 -56.4  33934  285.76 0863.01
2015 04 09 12 51 11 .29     -21    -17    -28     28     39 230.5 -54.5  33930  285.70 0863.01
2015 04 09 12 51 11 .54     -21    -17    -21     28     35 230.5 -44.1  33922  285.55 0863.01
2015 04 09 12 51 11 .79     -20    -20    -25     29     38 225.0 -50.2  33918  285.50 0863.01
2015 04 09 12 51 12 .04     -12    -30    -18     33     37 201.8 -35.8  33916  285.46 0863.01
2015 04 09 12 51 12 .29     -14    -37    -21     40     45 201.8 -34.7  33916  285.44 0863.01
2015 04 09 12 51 12 .54     -10    -44    -30     46     54 193.4 -40.0  33916  285.44 0863.01
2015 04 09 12 51 12 .79      -3    -39    -23     40     46 184.5 -37.9  33918  285.48 0863.02
2015 04 09 12 51 13 .04      -3    -39    -23     40     46 184.5 -37.9  33918  285.48 0863.02
2015 04 09 12 51 13 .29      -3    -39    -23     40     46 184.5 -37.9  33918  285.48 0863.02
2015 04 09 12 51 13 .54       0    -43    -21     44     48 180.9 -30.6  33920  285.51 0863.02
2015 04 09 12 51 13 .80       4    -48    -21     49     53 174.7 -28.5  33920  285.51 0863.02
2015 04 09 12 51 14 .05       2    -51    -16     52     54 177.3 -23.8  33918  285.50 0863.02
2015 04 09 12 51 14 .30       8    -47    -13     48     50 169.3 -15.4  33916  285.46 0863.02
2015 04 09 12 51 14 .56       2    -43    -16     44     46 176.4 -24.4  33916  285.44 0863.02
2015 04 09 12 51 14 .81       1    -42    -12     43     45 178.2 -16.6  33920  285.53 0863.01
2015 04 09 12 51 15 .06      -3    -44    -11     45     47 184.5 -14.5  33918  285.48 0863.01
2015 04 09 12 51 15 .31       7    -51     -6     52     53 172.0  -7.3  33916  285.46 0863.01
2015 04 09 12 51 15 .56       1    -57     -5     58     59 178.2  -5.2  33916  285.44 0863.01
2015 04 09 12 51 15 .81     -13    -51      2     53     54 195.1   2.9  33932  285.71 0863.01
2015 04 09 12 51 16 .06      -1    -46      0     47     48 181.8   0.8  33920  285.53 0863.01
2015 04 09 12 51 16 .31       3    -48     -1     49     50 175.5  -2.2  33918  285.48 0863.01
2015 04 09 12 51 16 .57       5    -44     -1     45     46 172.9  -2.2  33918  285.50 0863.01
2015 04 09 12 51 16 .81       1    -41      0     42     43 177.3  -0.3  33936  285.80 0863.01
2015 04 09 12 51 17 .06       4    -47     -2     48     49 174.7  -3.1  33930  285.68 0863.01
2015 04 09 12 51 17 .31       1    -42     -3     43     44 178.2  -5.2  33922  285.55 0863.01
2015 04 09 12 51 17 .56      13    -49     -2     51     52 164.9  -2.2  33922  285.56 0863.01
2015 04 09 12 51 17 .82       7    -50    -15     51     54 172.0 -16.6  33926  285.61 0863.01
2015 04 09 12 51 18 .07       0    -56    -19     57     60 180.9 -23.6  33930  285.70 0863.01
2015 04 09 12 51 18 .31      -5    -51    -19     52     55 186.2 -23.3  33924  285.58 0863.01
2015 04 09 12 51 18 .57      -3    -40    -16     41     44 185.3 -25.4  33922  285.56 0863.01
2015 04 09 12 51 18 .82      -5    -43    -18     44     47 187.1 -27.4  33918  285.48 0863.01
2015 04 09 12 51 19 .07      -3    -47    -16     48     50 184.4 -23.6  33920  285.51 0863.01
2015 04 09 12 51 19 .32       2    -43    -16     44     46 176.4 -24.4  33916  285.44 0863.01
2015 04 09 12 51 19 .57       0    -44    -16     45     48 180.0 -19.7  33918  285.50 0863.01
2015 04 09 12 51 19 .82       4    -43    -14     44     47 173.8 -17.6  33916  285.44 0863.01
2015 04 09 12 51 20 .07      21    -52    -20     57     61 158.2 -19.6  33916  285.44 0863.01
2015 04 09 12 51 20 .32      34    -60    -25     70     74 150.1 -23.3  33922  285.56 0863.02
2015 04 09 12 51 20 .58      30    -35    -30     47     55 139.5 -39.9  33948  285.98 0863.02
2015 04 09 12 51 20 .83      24    -21     11     32     34 131.3  19.2  33984  286.59 0863.02
2015 04 09 12 51 21 .08      31    -31     11     45     47 135.0  14.3  34030  287.37 0863.02
2015 04 09 12 51 21 .33      62    -34      3     71     72 118.9   2.8  34016  287.15 0863.02
2015 04 09 12 51 21 .58      19    -35     14     41     44 151.0  19.2  33988  286.67 0863.02
2015 04 09 12 51 21 .84       3    -48      9     49     50 175.5  11.1  33986  286.62 0863.02
2015 04 09 12 51 22 .09       4    -39     11     40     42 173.8  16.3  33970  286.37 0863.02
2015 04 09 12 51 22 .34      -2    -43     19     44     47 183.6  24.1  33996  286.81 0863.02
2015 04 09 12 51 22 .59       7    -39     26     40     47 168.5  35.6  34048  287.67 0863.02
2015 04 09 12 51 22 .84       0    -43     25     44     50 180.9  32.4  34058  287.86 0863.02
2015 04 09 12 51 23 .08     -11    -35     36     37     51 198.7  50.0  34038  287.52 0863.01
2015 04 09 12 51 23 .34      -2    -31     36     32     48 184.5  52.2  34036  287.47 0863.01
2015 04 09 12 51 23 .59       0    -40     34     41     53 180.0  43.8  34050  287.70 0863.01
2015 04 09 12 51 23 .84       0    -60     25     61     65 180.9  23.0  34056  287.81 0863.01
2015 04 09 12 51 24 .09      -3    -40     29     41     50 185.3  38.6  34062  287.91 0863.01
2015 04 09 12 51 24 .34       0    -36     32     37     48 180.9  46.9  34060  287.89 0863.01
2015 04 09 12 51 24 .59       2    -28     23     29     37 175.5  43.7  34048  287.67 0863.01
2015 04 09 12 51 24 .85      19    -41      3     46     47 155.5   3.8  34060  287.87 0863.01
2015 04 09 12 51 25 .09      17    -44     -1     48     49 158.2  -1.3  34018  287.18 0863.01
2015 04 09 12 51 25 .34      26    -26    -14     37     39 135.0 -23.3  33936  285.78 0863.01
2015 04 09 12 51 25 .59      12    -35    -21     38     43 161.3 -35.8  33918  285.50 0863.01
2015 04 09 12 51 25 .84       1    -37    -24     38     44 177.3 -39.9  33918  285.50 0863.01
2015 04 09 12 51 26 .09       9    -41    -29     43     51 167.5 -42.0  33922  285.55 0863.01
2015 04 09 12 51 26 .34      14    -57    -25     59     64 165.7 -27.5  33916  285.44 0863.01
2015 04 09 12 51 26 .60      25    -57    -24     63     67 156.4 -25.4  33918  285.50 0863.01
2015 04 09 12 51 26 .84      17    -65    -34     68     76 164.8 -32.6  33918  285.50 0863.01
2015 04 09 12 51 27 .10      20    -61    -32     65     72 161.3 -31.7  33920  285.53 0863.01
2015 04 09 12 51 27 .35      20    -61    -32     65     72 161.3 -31.7  33920  285.53 0863.01
2015 04 09 12 51 27 .60      16    -59    -30     62     68 164.9 -31.6  33918  285.50 0863.01
2015 04 09 12 51 27 .85      16    -59    -37     62     72 164.9 -38.8  33924  285.58 0863.01
2015 04 09 12 51 28 .10       9    -52    -33     53     62 169.3 -39.9  33924  285.60 0863.01
2015 04 09 12 51 28 .36      18    -55    -35     59     68 161.5 -38.8  33926  285.61 0863.01
2015 04 09 12 51 28 .61      22    -53    -32     58     66 157.3 -35.8  33934  285.75 0863.00
2015 04 09 12 51 28 .86      13    -56    -19     58     62 166.6 -18.7  33962  286.24 0863.00
2015 04 09 12 51 29 .11       2    -43    -23     44     49 176.4 -33.7  33952  286.05 0863.00
2015 04 09 12 51 29 .36       9    -41    -30     42     51 167.5 -44.1  33962  286.24 0863.00
2015 04 09 12 51 29 .61      23    -48    -43     54     69 154.7 -48.1  33966  286.29 0863.00
2015 04 09 12 51 29 .86      12    -56    -25     58     63 167.5 -28.5  33960  286.19 0863.00
2015 04 09 12 51 30 .12      11    -53    -20     55     58 168.4 -23.3  33966  286.30 0863.00
2015 04 09 12 51 30 .37       9    -41    -17     42     45 167.5 -27.4  33960  286.19 0863.00
2015 04 09 12 51 30 .61      15    -45    -16     48     50 161.7 -23.6  33960  286.19 0863.00
2015 04 09 12 51 30 .87      37    -35    -10     52     54 133.1 -11.3  33956  286.14 0863.00
2015 04 09 12 51 31 .12      29    -60      6     67     68 153.7   5.9  33956  286.14 0863.00
2015 04 09 12 51 31 .37      20    -56     31     60     67 160.0  29.3  33958  286.15 0863.00
2015 04 09 12 51 31 .62      13    -48     27     50     56 164.0  30.3  33956  286.14 0863.00
2015 04 09 12 51 31 .87      26    -42     28     50     57 147.5  32.4  33966  286.29 0863.00
2015 04 09 12 51 32 .12      53    -18     24     57     61 109.1  23.1  33984  286.59 0863.00
2015 04 09 12 51 32 .37      51    -42      6     67     68 129.5   5.9  33972  286.41 0863.00
2015 04 09 12 51 32 .62      48    -37     12     61     63 127.8  11.1  33956  286.14 0863.00
2015 04 09 12 51 32 .87      37    -40     23     55     59 137.7  23.1  33948  285.98 0863.00
2015 04 09 12 51 33 .12      30    -70     15     77     79 156.4  11.1  33948  286.00 0863.00
2015 04 09 12 51 33 .38      34    -71     11     79     80 154.5   8.0  33970  286.35 0863.00
2015 04 09 12 51 33 .62      31    -71     23     78     82 156.4  16.3  33962  286.24 0863.00
2015 04 09 12 51 33 .88      37    -75     15     84     86 153.3  10.1  33980  286.52 0863.00
2015 04 09 12 51 34 .12      30    -70     14     77     79 156.4  10.6  33964  286.27 0863.00
2015 04 09 12 51 34 .37      22    -68     21     72     76 162.2  16.3  33962  286.22 0863.00
2015 04 09 12 51 34 .62      17    -68     25     71     76 165.7  19.4  33950  286.02 0863.00
2015 04 09 12 51 34 .88      31    -71     23     78     82 156.4  16.3  33938  285.82 0863.00
2015 04 09 12 51 35 .13      32    -69     22     77     81 154.7  15.8  33944  285.93 0863.00
2015 04 09 12 51 35 .39      42    -66     12     79     81 147.4   9.0  33954  286.08 0863.00
2015 04 09 12 51 35 .64      33    -65     17     74     77 152.8  13.2  33956  286.14 0863.01
2015 04 09 12 51 35 .89      37    -75     15     84     86 153.3  10.1  33948  286.00 0863.01
2015 04 09 12 51 36 .14      31    -52      7     61     62 149.3   6.9  33940  285.87 0863.01
2015 04 09 12 51 36 .39      34    -52     22     63     67 146.6  19.2  33924  285.58 0863.01
2015 04 09 12 51 36 .64      41    -41     20     59     63 135.0  19.2  33948  286.00 0863.01
2015 04 09 12 51 36 .90      41    -75     12     86     87 151.0   8.0  33994  286.78 0863.01
2015 04 09 12 51 37 .14      51    -61     28     80     85 140.4  19.4  33994  286.78 0863.01
2015 04 09 12 51 37 .39      40    -74     21     85     88 151.5  14.3  33986  286.62 0863.01
2015 04 09 12 51 37 .65      23    -80     -6     84     85 163.5  -4.6  33988  286.67 0863.01
2015 04 09 12 51 37 .89      23    -83     15     87     89 164.4  10.1  33984  286.59 0863.01
2015 04 09 12 51 38 .14      25    -85      7     89     90 163.5   4.9  33996  286.79 0863.01
2015 04 09 12 51 38 .40      26    -80      4     85     86 161.5   2.9  34002  286.89 0863.01
2015 04 09 12 51 38 .64      38    -60      1     72     73 147.4   0.8  34010  287.03 0863.01
2015 04 09 12 51 38 .89      45    -58      7     74     75 142.2   5.9  33960  286.19 0863.01
2015 04 09 12 51 39 .15      53    -68      1     87     88 142.2   1.2  33984  286.61 0863.01
2015 04 09 12 51 39 .40      59    -56     -3     82     83 133.6  -2.2  33992  286.74 0863.00
2015 04 09 12 51 39 .65      70    -52      3     88     89 126.4   2.3  33982  286.57 0863.00
2015 04 09 12 51 39 .90      63    -45    -16     78     80 126.0 -11.9  34004  286.93 0863.00
2015 04 09 12 51 40 .15      65    -38    -16     76     78 120.7 -11.9  33994  286.76 0863.00
2015 04 09 12 51 40 .40      50    -37     -8     63     64 126.9  -7.3  34000  286.86 0863.00
2015 04 09 12 51 40 .65      54    -38    -18     67     70 125.1 -15.5  33984  286.59 0863.00
2015 04 09 12 51 40 .90      51    -38    -19     64     66 126.9 -21.7  33954  286.10 0863.00
2015 04 09 12 51 41 .15      57    -55    -25     80     83 134.1 -22.8  33928  285.65 0863.00
2015 04 09 12 51 41 .40      49    -53    -25     73     77 136.8 -23.3  33922  285.55 0863.00
2015 04 09 12 51 41 .65      44    -53    -19     70     73 140.4 -15.4  33920  285.53 0863.00
2015 04 09 12 51 41 .90      49    -69    -21     85     88 144.8 -13.9  33918  285.50 0863.00
2015 04 09 12 51 42 .15      58    -70    -20     91     94 140.3 -12.4  33914  285.43 0863.00
2015 04 09 12 51 42 .41      61    -61    -10     87     88 134.9  -6.7  33918  285.48 0863.00
2015 04 09 12 51 42 .66      56    -66    -14     87     89 139.9  -9.3  33918  285.48 0863.00
2015 04 09 12 51 42 .92      64    -70    -22     96     99 137.7 -12.9  33916  285.44 0863.00
2015 04 09 12 51 43 .17      67    -58    -31     89     95 130.9 -19.1  33920  285.53 0863.00
2015 04 09 12 51 43 .41      61    -54    -29     82     88 131.8 -19.7  33920  285.53 0863.00
2015 04 09 12 51 43 .66      56    -54    -28     79     84 134.0 -19.7  33920  285.51 0863.00
2015 04 09 12 51 43 .91      61    -73    -18     96     98 140.4 -10.9  33912  285.39 0863.01
2015 04 09 12 51 44 .17      62    -70    -20     94     97 138.6 -12.4  33916  285.44 0863.01
2015 04 09 12 51 44 .42      61    -66    -16     91     93 137.2 -10.3  33916  285.44 0863.01
2015 04 09 12 51 44 .67      61    -66    -16     91     93 137.2 -10.3  33916  285.44 0863.01
2015 04 09 12 51 44 .92      49    -71    -14     87     89 145.3  -9.3  33914  285.43 0863.01
2015 04 09 12 51 45 .17      37    -72     -1     82     83 152.8  -1.3  33914  285.43 0863.01
2015 04 09 12 51 45 .42      45    -81     -4     93     94 151.0  -2.6  33914  285.43 0863.01
2015 04 09 12 51 45 .67      32    -84    -15     90     92 159.1  -9.8  33916  285.44 0863.00
2015 04 09 12 51 45 .92      32    -84    -15     90     92 159.1  -9.8  33916  285.44 0863.00
2015 04 09 12 51 46 .17      28    -83    -13     88     90 160.8  -8.8  33914  285.43 0863.00
2015 04 09 12 51 46 .42      32    -84    -15     90     92 159.1  -9.8  33916  285.44 0863.00
2015 04 09 12 51 46 .67      29    -88    -18     93     95 161.3 -11.3  33914  285.41 0863.00
2015 04 09 12 51 46 .92      24    -90    -20     94     97 164.9 -12.4  33914  285.43 0863.00
2015 04 09 12 51 47 .17      28    -86     -9     91     92 161.7  -6.2  33914  285.43 0863.00
2015 04 09 12 51 47 .42      29    -84     -8     89     90 160.8  -5.2  33912  285.39 0863.00
2015 04 09 12 51 47 .67      29    -84     -8     89     90 160.8  -5.2  33912  285.39 0863.00
2015 04 09 12 51 47 .92      32    -88     -4     94     95 159.5  -2.6  33914  285.43 0863.00
2015 04 09 12 51 48 .17      35    -83     -3     91     92 157.3  -2.2  33916  285.44 0863.00
2015 04 09 12 51 48 .42      29    -84     -1     89     90 160.8  -0.7  33914  285.43 0863.00
2015 04 09 12 51 48 .68      37    -88     -2     96     97 156.8  -1.3  33918  285.48 0863.00
2015 04 09 12 51 48 .93      26    -83      1     87     88 162.6   1.2  33916  285.44 0863.00
2015 04 09 12 51 49 .18      32    -88     -4     94     95 159.5  -2.6  33914  285.43 0863.00
2015 04 09 12 51 49 .44      32    -97     -5    103    104 161.7  -3.1  33914  285.43 0863.00
2015 04 09 12 51 49 .69      32    -97     -5    103    104 161.7  -3.1  33914  285.43 0863.00
2015 04 09 12 51 49 .94      37    -97     -2    104    105 159.1  -1.3  33914  285.43 0863.00
2015 04 09 12 51 50 .19      37   -101    -13    108    109 159.5  -7.2  33912  285.39 0863.00
2015 04 09 12 51 50 .44      32   -104    -13    110    111 162.6  -7.2  33912  285.39 0863.00
2015 04 09 12 51 50 .69      45    -86    -12     98     99 152.4  -7.3  33916  285.44 0863.00
2015 04 09 12 51 50 .94      42    -83     -7     94     95 153.3  -4.6  33916  285.44 0863.00
2015 04 09 12 51 51 .19      29    -95    -10    100    101 163.1  -6.2  33914  285.43 0863.00
2015 04 09 12 51 51 .44      22    -96     -2     99    100 167.1  -1.3  33914  285.43 0863.00
2015 04 09 12 51 51 .69      31    -92     -2     98     99 161.3  -1.3  33910  285.36 0863.00
2015 04 09 12 51 51 .94      34   -101     -4    107    108 161.3  -2.2  33916  285.44 0863.00
2015 04 09 12 51 52 .20      37   -109    -13    116    117 161.3  -6.7  33916  285.44 0863.00
2015 04 09 12 51 52 .45      30   -109     -2    114    115 164.4  -1.3  33920  285.53 0863.00
2015 04 09 12 51 52 .70      36   -105      5    112    113 160.8   2.9  33922  285.56 0863.00
2015 04 09 12 51 52 .95      36   -105      5    112    113 160.8   2.9  33922  285.56 0863.00
2015 04 09 12 51 53 .20      36   -110     11    116    117 161.7   5.4  33922  285.56 0863.00
2015 04 09 12 51 53 .44      41   -121      1    128    129 161.3   0.8  33914  285.43 0863.00
2015 04 09 12 51 53 .70      35   -126    -10    131    132 164.4  -4.6  33914  285.43 0863.00
2015 04 09 12 51 53 .95      41   -146    -24    152    154 164.0  -9.0  33916  285.44 0863.00
2015 04 09 12 51 54 .20      43   -142     -8    149    150 163.1  -3.1  33912  285.39 0863.00
2015 04 09 12 51 54 .45      40   -133      7    140    141 163.1   2.9  33918  285.48 0863.00
2015 04 09 12 51 54 .70      40   -133      7    140    141 163.1   2.9  33914  285.43 0863.00
2015 04 09 12 51 54 .95      36   -136     -7    141    142 164.8  -3.1  33918  285.50 0863.00
2015 04 09 12 51 55 .20      27   -120      2    124    125 167.1   1.2  33914  285.43 0863.00
2015 04 09 12 51 55 .45      18   -133      1    135    136 172.0   0.8  33918  285.50 0863.00
2015 04 09 12 51 55 .70      21   -126    -31    128    132 170.2 -13.9  33924  285.58 0862.99
2015 04 09 12 51 55 .96      17   -117    -28    119    123 171.5 -13.3  33928  285.66 0862.99
2015 04 09 12 51 56 .21      13   -112    -40    113    119 173.3 -24.4  33928  285.66 0862.99
2015 04 09 12 51 56 .47      28    -89    -52     94    107 162.6 -35.8  33938  285.83 0862.99
2015 04 09 12 51 56 .71      31   -102    -50    107    118 163.1 -31.0  33946  285.95 0862.99
2015 04 09 12 51 56 .97      27    -88    -32     93     98 162.6 -23.3  33942  285.90 0862.99
2015 04 09 12 51 57 .22      14    -81    -26     83     86 169.8 -22.8  33948  285.98 0862.99
2015 04 09 12 51 57 .47      21    -86    -26     89     92 165.7 -21.2  33950  286.03 0862.99
2015 04 09 12 51 57 .72      24    -91    -26     95     99 164.9 -15.5  33950  286.03 0862.99
2015 04 09 12 51 57 .97      24    -91    -26     95     99 164.9 -15.5  33950  286.03 0862.99
2015 04 09 12 51 58 .21      22    -87    -20     90     93 165.3 -12.9  33954  286.08 0862.99
2015 04 09 12 51 58 .47      22   -107    -38    110    117 168.4 -19.1  33932  285.71 0862.99
2015 04 09 12 51 58 .72       8   -106    -29    107    111 175.5 -15.4  33934  285.76 0862.99
2015 04 09 12 51 58 .97      -3    -95    -36     96    102 182.2 -25.9  33924  285.58 0862.99
2015 04 09 12 51 59 .22      -5    -88    -31     89     95 183.6 -19.7  33926  285.61 0862.99
2015 04 09 12 51 59 .47     -18    -92    -16     94     96 191.6  -9.8  33932  285.71 0862.99
2015 04 09 12 51 59 .72     -25    -76    -28     81     86 198.3 -19.1  33916  285.44 0862.99
2015 04 09 12 51 59 .97     -12    -72    -32     74     80 189.8 -29.5  33914  285.43 0862.99
2015 04 09 12 52 00 .22      -6    -79    -27     80     84 184.5 -23.6  33918  285.48 0862.99
2015 04 09 12 52 00 .47      -7    -70    -11     71     72 186.2  -9.3  33918  285.50 0862.99
2015 04 09 12 52 00 .72     -17    -63    -13     66     68 195.1 -11.3  33918  285.48 0862.99
2015 04 09 12 52 00 .98     -16    -65    -24     68     72 194.3 -23.3  33920  285.53 0862.99
2015 04 09 12 52 01 .23     -19    -68    -25     71     76 196.0 -19.7  33918  285.48 0862.99
2015 04 09 12 52 01 .47     -23    -72     -9     76     77 197.8  -7.3  33922  285.56 0862.99
2015 04 09 12 52 01 .73     -11    -78     -3     79     80 188.1  -2.2  33922  285.56 0862.99
2015 04 09 12 52 01 .97     -21    -71      3     75     76 196.9   2.8  33920  285.51 0862.99
2015 04 09 12 52 02 .23     -12    -71      3     73     74 189.8   2.9  33918  285.48 0862.99
2015 04 09 12 52 02 .48     -16    -79     -7     81     82 191.6  -5.2  33922  285.56 0862.99
2015 04 09 12 52 02 .73     -19    -83      4     86     87 193.4   2.9  33920  285.53 0862.99
2015 04 09 12 52 02 .98     -20    -75     -3     78     79 195.1  -2.2  33928  285.66 0862.98
2015 04 09 12 52 03 .24     -21    -80     -3     83     84 194.7  -2.6  33926  285.63 0862.98
2015 04 09 12 52 03 .49     -19   -107     25    109    112 190.2  13.2  33928  285.66 0862.98
2015 04 09 12 52 03 .74     -13   -112     22    113    116 187.1  11.1  33934  285.75 0862.98
2015 04 09 12 52 03 .99      -8   -114     21    115    117 184.5  10.6  33934  285.76 0862.98
2015 04 09 12 52 04 .24      -8    -98     21     99    102 184.9  12.2  33934  285.76 0862.98
2015 04 09 12 52 04 .49     -13   -107      7    108    109 187.1   3.8  33930  285.68 0862.98
2015 04 09 12 52 04 .74     -28   -108      5    112    113 194.7   2.9  33924  285.58 0862.98
2015 04 09 12 52 04 .99      -8   -133      6    134    135 183.6   2.9  33928  285.65 0862.98
2015 04 09 12 52 05 .24      -2   -142     -3    143    144 181.0  -1.3  33926  285.63 0862.98
2015 04 09 12 52 05 .50       2   -146      4    147    148 179.1   1.8  33928  285.66 0862.98
2015 04 09 12 52 05 .76      11   -143      2    144    145 175.5   0.8  34006  286.96 0862.98
2015 04 09 12 52 05 .99       2   -134     24    135    138 179.0  10.1  33980  286.52 0862.98
2015 04 09 12 52 06 .25     -14   -123      6    124    125 186.7   2.9  33940  285.85 0862.98
2015 04 09 12 52 06 .50     -23   -115     -2    118    119 191.6  -1.3  33942  285.90 0862.98
2015 04 09 12 52 06 .75     -11   -126      1    127    128 185.3   0.8  33946  285.95 0862.98
2015 04 09 12 52 07 .00     -14   -123      6    124    125 186.7   2.9  33940  285.85 0862.98
2015 04 09 12 52 07 .25     -12   -110      3    111    112 186.2   1.8  33946  285.95 0862.98
2015 04 09 12 52 07 .50     -15   -110      5    112    113 188.1   2.8  33934  285.76 0862.98
2015 04 09 12 52 07 .75     -22   -111      5    114    115 191.6   2.9  33946  285.95 0862.98
2015 04 09 12 52 08 .00     -29   -115     15    119    120 194.3   7.5  33944  285.93 0862.98
2015 04 09 12 52 08 .25     -25   -123     10    126    127 191.6   5.0  33930  285.68 0862.98
2015 04 09 12 52 08 .50     -15   -128     12    129    130 187.1   5.4  33940  285.85 0862.98
2015 04 09 12 52 08 .75      -1   -110      5    111    112 180.9   2.9  33940  285.87 0862.98
2015 04 09 12 52 09 .00      -1   -110      5    111    112 180.9   2.9  33940  285.87 0862.98
2015 04 09 12 52 09 .25     -10   -100     13    101    102 186.2   7.5  33938  285.83 0862.98
2015 04 09 12 52 09 .50     -16   -105     14    107    108 188.9   7.5  33926  285.63 0862.98
2015 04 09 12 52 09 .75     -18   -106     10    108    109 189.8   5.4  33934  285.76 0862.98
2015 04 09 12 52 10 .01     -20    -99     20    102    104 191.6  11.1  33930  285.68 0862.98
2015 04 09 12 52 10 .27     -30   -110     21    115    117 195.6  10.6  33938  285.82 0862.98
2015 04 09 12 52 10 .52     -14   -124     15    125    126 186.7   6.9  33944  285.93 0862.98
2015 04 09 12 52 10 .77     -33   -115     23    120    123 196.0  11.1  33950  286.03 0862.98
2015 04 09 12 52 11 .02       1   -114     -2    115    116 179.1  -1.3  33942  285.90 0862.98
2015 04 09 12 52 11 .27      -2   -118     -2    119    120 181.0  -1.3  33942  285.90 0862.98
2015 04 09 12 52 11 .52       1    -90      5     91     92 179.1   3.3  33954  286.08 0862.98
2015 04 09 12 52 11 .77     -30   -112     40    116    123 195.1  19.4  33948  285.98 0862.98
2015 04 09 12 52 12 .02     -22   -136     29    138    142 189.3  12.2  33956  286.14 0862.98
2015 04 09 12 52 12 .27     -24   -139     33    142    146 189.8  13.2  33954  286.08 0862.98
2015 04 09 12 52 12 .53     -23   -137     40    140    146 189.8  16.3  33958  286.17 0862.98
2015 04 09 12 52 12 .77     -26   -125     40    128    135 192.0  17.4  33980  286.54 0862.98
2015 04 09 12 52 13 .03     -20   -120     42    122    130 189.7  18.9  33966  286.30 0862.98
2015 04 09 12 52 13 .27     -27   -113     47    117    126 193.4  23.0  33998  286.84 0862.98
2015 04 09 12 52 13 .52     -16   -120     56    122    134 188.0  27.1  33980  286.54 0862.98
2015 04 09 12 52 13 .78      -8   -120     42    121    129 184.0  19.4  33958  286.17 0862.98
2015 04 09 12 52 14 .03     -11   -141     41    142    148 184.5  16.3  33970  286.35 0862.98
2015 04 09 12 52 14 .28     -18   -114     25    116    119 189.3  12.2  33964  286.25 0862.98
2015 04 09 12 52 14 .53     -10    -90     -8     91     92 186.7  -5.2  33956  286.14 0862.98
2015 04 09 12 52 14 .78     -38    -84      0     93     94 204.5  -0.3  33978  286.49 0862.98
2015 04 09 12 52 15 .04     -29    -81      0     87     88 200.0  -0.3  33984  286.59 0862.98
2015 04 09 12 52 15 .27     -21    -80      2     83     84 194.7   1.8  33960  286.19 0862.98
2015 04 09 12 52 15 .53     -34    -85      4     92     93 201.8   2.8  33952  286.07 0862.98
2015 04 09 12 52 15 .78     -21    -75     14     79     81 196.0  10.1  33944  285.92 0862.98
2015 04 09 12 52 16 .03     -15    -74     24     76     80 191.5  17.9  33940  285.85 0862.98
2015 04 09 12 52 16 .28     -22    -82     38     85     93 195.1  25.7  33956  286.12 0862.98
2015 04 09 12 52 16 .53     -19    -68     40     71     81 196.0  31.9  33956  286.14 0862.98
2015 04 09 12 52 16 .79     -17    -72     49     75     89 193.4  36.0  33998  286.83 0862.98
2015 04 09 12 52 17 .05     -19    -79     65     82    104 193.4  42.7  34056  287.82 0862.98
2015 04 09 12 52 17 .29     -36   -109     54    115    127 198.3  27.1  34024  287.27 0862.98
2015 04 09 12 52 17 .55     -32   -123     44    128    136 194.7  18.9  34036  287.49 0862.98
2015 04 09 12 52 17 .79     -36   -118     68    124    141 196.9  31.3  34082  288.26 0862.98
2015 04 09 12 52 18 .05     -54   -130     74    141    159 202.7  29.8  34062  287.92 0862.98
2015 04 09 12 52 18 .29     -58   -126     84    139    162 204.9  34.2  33990  286.71 0862.98
2015 04 09 12 52 18 .55     -37   -101     75    108    131 200.5  38.0  33972  286.39 0862.98
2015 04 09 12 52 18 .80     -38    -93     75    101    125 202.3  40.1  33972  286.39 0862.98
2015 04 09 12 52 19 .05     -45    -87     92     99    135 207.6  47.9  34070  288.06 0862.98
2015 04 09 12 52 19 .30     -48    -94     87    106    137 207.2  43.7  34094  288.47 0862.98
2015 04 09 12 52 19 .55     -21    -81    112     84    140 194.7  59.4  34112  288.75 0862.98
2015 04 09 12 52 19 .80      -8    -60     96     61    113 188.0  64.7  34154  289.48 0862.98
2015 04 09 12 52 20 .05      21    -13     68     25     72 122.4  80.2  34156  289.50 0862.98
2015 04 09 12 52 20 .30      44    -69     70     83    108 147.4  44.3  34080  288.23 0862.98
2015 04 09 12 52 20 .56      30    -29     70     43     82 134.0  65.7  34134  289.14 0862.98
2015 04 09 12 52 20 .80      30    -29     70     43     82 134.0  65.7  34160  289.57 0862.98
2015 04 09 12 52 21 .06      51    -73     43     90     99 145.3  27.2  34036  287.49 0862.98
2015 04 09 12 52 21 .30      29    -78     36     84     91 159.1  24.6  34022  287.25 0862.98
2015 04 09 12 52 21 .56      45    -53     49     70     85 139.5  38.0  34074  288.11 0862.98
2015 04 09 12 52 21 .81      -2     13     49     14     50 348.4  83.9  34140  289.23 0862.98
2015 04 09 12 52 22 .05      30     22     53     38     65  54.0  60.6  34156  289.52 0862.98
2015 04 09 12 52 22 .31      50      0     71     51     87  90.8  61.1  34170  289.74 0862.98
2015 04 09 12 52 22 .55      93     12     50     94    106  82.1  30.8  34174  289.82 0862.98
2015 04 09 12 52 22 .81      72     30     73     79    107  67.4  47.9  34154  289.48 0862.98
2015 04 09 12 52 23 .05      89     14     45     91    101  80.8  28.2  34156  289.50 0862.98
2015 04 09 12 52 23 .30      77      0    -13     78     80  90.0  -9.8  34050  287.70 0862.98
2015 04 09 12 52 23 .56      78     -4     -3     79     80  93.5  -2.2  34004  286.94 0862.98
2015 04 09 12 52 23 .82      73     31     53     80     95  66.5  36.0  34140  289.24 0862.98
2015 04 09 12 52 24 .06      86    -33     79     93    122 110.8  45.4  34060  287.87 0862.98
2015 04 09 12 52 24 .32      92    -75     57    119    131 129.1  27.3  34024  287.27 0862.98
2015 04 09 12 52 24 .57     148    -82     64    170    181 118.9  21.7  34066  287.98 0862.98
2015 04 09 12 52 24 .82     139   -117     64    182    194 130.0  19.4  34016  287.15 0862.98
2015 04 09 12 52 25 .07     152    -84     61    174    185 118.9  19.4  34062  287.91 0862.98
2015 04 09 12 52 25 .32     140   -119     62    185    196 130.4  18.6  34058  287.84 0862.98
2015 04 09 12 52 25 .57     105   -120     34    160    164 139.0  12.0  34052  287.76 0862.98
2015 04 09 12 52 25 .82      88   -114     57    145    155 142.2  22.5  34064  287.94 0862.98
2015 04 09 12 52 26 .08      71   -139     38    157    162 152.9  13.9  34062  287.92 0862.98
2015 04 09 12 52 26 .33      94   -164     57    190    199 150.1  16.8  34032  287.42 0862.98
2015 04 09 12 52 26 .58     100   -148     62    179    190 145.9  19.2  34098  288.53 0862.98
2015 04 09 12 52 26 .83     117   -125     83    172    190 137.0  27.3  34144  289.31 0862.98
2015 04 09 12 52 27 .08     135    -91     99    163    190 124.1  34.4  34218  290.57 0862.98
2015 04 09 12 52 27 .33      94    -63    105    114    154 123.7  47.9  34238  290.91 0862.98
2015 04 09 12 52 27 .57     107    -43     82    116    142 111.8  39.5  34192  290.13 0862.98
2015 04 09 12 52 27 .83     128    -73     40    148    154 119.8  15.3  34066  287.99 0862.98
2015 04 09 12 52 28 .09     157    -70     28    173    176 114.2   9.3  34066  287.99 0862.98
2015 04 09 12 52 28 .33     179    -45     39    185    190 104.2  12.0  34106  288.65 0862.98
2015 04 09 12 52 28 .58     173    -31     20    176    178 100.4   6.5  34074  288.11 0862.98
2015 04 09 12 52 28 .83     145    -60     20    158    160 112.6   7.2  34076  288.16 0862.98
2015 04 09 12 52 29 .08     138    -55    -14    149    150 111.7  -5.6  34064  287.94 0862.98
2015 04 09 12 52 29 .33     115    -81    -13    141    142 125.1  -5.6  34082  288.26 0862.98
2015 04 09 12 52 29 .62     149    -70    -40    165    170 115.4 -13.9  33956  286.14 0862.98
2015 04 09 12 52 29 .84     153    -78    -15    172    173 117.0  -5.2  33992  286.73 0862.98
2015 04 09 12 52 30 .08     127    -81     -9    151    152 122.5  -3.7  33968  286.32 0862.98
2015 04 09 12 52 30 .34     128   -104    -27    166    169 129.1  -9.3  33978  286.49 0862.98
2015 04 09 12 52 30 .59     142    -38      4    147    148 105.0   1.8  34146  289.33 0862.98
2015 04 09 12 52 30 .83      96    -37    -28    104    108 111.3 -15.5  34126  289.01 0862.98
2015 04 09 12 52 31 .10      91    -57     -1    108    109 122.4  -0.7  34116  288.82 0862.97
2015 04 09 12 52 31 .35      76    -16    -12     78     80 102.4  -9.3  34156  289.52 0862.97
2015 04 09 12 52 31 .60      83    -12     22     84     87  98.4  14.7  34172  289.77 0862.97
2015 04 09 12 52 31 .85      86     27     36     91     97  72.3  22.0  34216  290.52 0862.97
2015 04 09 12 52 32 .09      98     52    -28    111    115  62.0 -14.5  34016  287.15 0862.97
2015 04 09 12 52 32 .35      90     81    -16    122    124  47.8  -7.7  33992  286.73 0862.97
2015 04 09 12 52 32 .61     100    100    -35    142    147  45.1 -13.9  33986  286.64 0862.97
2015 04 09 12 52 32 .86     100     88    -48    134    143  48.7 -19.7  34026  287.30 0862.97
2015 04 09 12 52 33 .11      82    109    -41    137    143  37.0 -21.7  34194  290.16 0862.97
2015 04 09 12 52 33 .35      67    121    -27    139    142  29.0 -11.3  34146  289.33 0862.97
2015 04 09 12 52 33 .61      66    127    -40    144    150  27.6 -15.5  34108  288.70 0862.97
2015 04 09 12 52 33 .85       8     81     14     82     84   6.2  10.1  34134  289.14 0862.97
2015 04 09 12 52 34 .10      42    100    -37    109    116  22.7 -18.7  34034  287.45 0862.97
2015 04 09 12 52 34 .35      12     86    -53     87    101   8.5 -38.8  34118  288.87 0862.97
2015 04 09 12 52 34 .61       2     82    -30     83     88   1.8 -24.4  34136  289.18 0862.97
2015 04 09 12 52 34 .86       5     74    -34     75     82   4.4 -30.1  34102  288.58 0862.97
2015 04 09 12 52 35 .11      -6     78     -3     79     80 355.5  -2.2  34146  289.33 0862.97
2015 04 09 12 52 35 .36      12    126     20    127    129   5.8   9.0  34200  290.26 0862.97
2015 04 09 12 52 35 .61       2     74     23     75     79   1.8  17.3  34200  290.25 0862.97
2015 04 09 12 52 35 .85      15     80     28     82     87  10.7  18.9  34206  290.35 0862.97
2015 04 09 12 52 36 .10      19     63     19     66     69  16.9  16.3  34196  290.19 0862.97
2015 04 09 12 52 36 .35     -10     95     57     96    111 353.8  33.5  34166  289.69 0862.97
2015 04 09 12 52 36 .60     -28    110     21    114    116 345.3  10.6  34046  287.64 0862.97
2015 04 09 12 52 36 .86     -15     90      7     92     93 350.2   4.9  33974  286.42 0862.97
2015 04 09 12 52 37 .11     -28    119     24    123    126 346.7  11.1  33998  286.84 0862.97
2015 04 09 12 52 37 .36     -18    124     10    126    127 351.5   5.0  34022  287.25 0862.97
2015 04 09 12 52 37 .61      -8    116    -11    117    118 355.6  -5.6  34012  287.08 0862.97
2015 04 09 12 52 37 .86       9    117     14    118    119   4.4   6.9  34054  287.79 0862.97
2015 04 09 12 52 38 .12      25    113     36    116    122  12.9  17.4  34040  287.54 0862.97
2015 04 09 12 52 38 .37      15    115     41    117    125   7.6  19.4  34054  287.79 0862.97
2015 04 09 12 52 38 .62      50    106     26    118    121  25.3  12.6  34040  287.54 0862.97
2015 04 09 12 52 38 .87      48    104     22    115    118  24.9  11.1  34018  287.16 0862.97
2015 04 09 12 52 39 .12      57    104     10    119    120  29.0   5.0  33994  286.78 0862.97
2015 04 09 12 52 39 .37      64    100     -4    119    120  32.6  -2.2  33988  286.66 0862.97
2015 04 09 12 52 39 .63      62     98     25    117    120  32.5  12.2  34074  288.13 0862.97
2015 04 09 12 52 39 .87      49    115     43    126    134  23.2  18.9  34060  287.87 0862.97
2015 04 09 12 52 40 .13     102    109     38    150    155  43.2  14.3  34066  287.99 0862.97
2015 04 09 12 52 40 .38      65    112     45    130    138  30.3  19.4  34082  288.26 0862.97
2015 04 09 12 52 40 .63      47     51     51     70     86  42.3  39.7  34056  287.82 0862.97
2015 04 09 12 52 40 .88      58    122     26    136    139  25.4  11.0  33992  286.73 0862.97
2015 04 09 12 52 41 .14      45    105     17    115    117  23.2   8.5  34022  287.23 0862.98
2015 04 09 12 52 41 .38      52    110     36    122    128  25.3  16.8  34078  288.18 0862.98
2015 04 09 12 52 41 .63      37     99     36    106    113  20.9  18.9  34086  288.31 0862.98
2015 04 09 12 52 41 .88      85    110     22    140    142  37.8   9.0  33952  286.07 0862.98
2015 04 09 12 52 42 .14      90     96     15    132    133  43.2   6.9  33948  285.98 0862.98
2015 04 09 12 52 42 .38     104    104     23    148    150  45.0   8.9  33934  285.75 0862.98
2015 04 09 12 52 42 .63      94    110     42    145    152  40.5  16.3  33932  285.71 0862.98
2015 04 09 12 52 42 .88     136    120      3    182    183  48.4   1.2  33926  285.61 0862.98
2015 04 09 12 52 43 .13     115    111    -14    161    162  46.0  -5.2  33922  285.56 0862.98
2015 04 09 12 52 43 .38     121    102     -8    159    160  50.0  -3.1  33922  285.56 0862.98
2015 04 09 12 52 43 .63     122    101    -12    159    160  50.5  -4.6  33926  285.61 0862.98
2015 04 09 12 52 43 .88     118     93    -21    151    153  51.8  -8.2  33926  285.61 0862.98
2015 04 09 12 52 44 .13     115    110    -28    160    163  46.4 -10.1  33922  285.56 0862.98
2015 04 09 12 52 44 .38     117     97    -46    153    161  50.4 -17.0  33928  285.65 0862.98
2015 04 09 12 52 44 .64     119    103    -43    158    164  49.1 -15.5  33926  285.61 0862.98
2015 04 09 12 52 44 .90     119    101    -52    157    166  49.6 -18.3  33928  285.65 0862.98
2015 04 09 12 52 45 .15     113     93    -19    147    149  50.5  -7.7  33926  285.63 0862.98
2015 04 09 12 52 45 .40     109    102    -24    150    153  46.9  -9.4  33926  285.63 0862.98
2015 04 09 12 52 45 .65     121     98    -30    156    159  50.9 -10.9  33926  285.61 0862.98
2015 04 09 12 52 45 .90     111     97    -30    148    151  48.7 -11.5  33924  285.58 0862.98
2015 04 09 12 52 46 .15     100     97    -25    140    143  46.0 -10.3  33924  285.58 0862.98
2015 04 09 12 52 46 .40      85     96    -16    129    131  41.4  -7.2  33924  285.58 0862.98
2015 04 09 12 52 46 .65     104     79    -21    131    133  52.7  -9.4  33922  285.55 0862.98
2015 04 09 12 52 46 .90      99     82    -41    129    136  50.5 -17.6  33924  285.58 0862.98
2015 04 09 12 52 47 .15     103     86    -41    135    141  50.0 -21.7  33928  285.65 0862.98
2015 04 09 12 52 47 .40      86     83    -42    120    127  46.0 -23.8  33928  285.66 0862.98
2015 04 09 12 52 47 .65      74     82    -36    111    116  42.3 -23.8  33930  285.68 0862.98
2015 04 09 12 52 47 .90      71     66    -42     98    106  46.9 -28.5  33926  285.61 0862.98
2015 04 09 12 52 48 .15      83     70    -32    109    113  49.6 -21.2  33924  285.58 0862.98
2015 04 09 12 52 48 .40      88     48    -32    101    105  61.1 -23.3  33920  285.53 0862.98
2015 04 09 12 52 48 .65      76     45    -30     89     93  59.3 -23.6  33922  285.56 0862.98
2015 04 09 12 52 48 .90      78     53    -36     95    101  55.4 -25.9  33924  285.58 0862.98
2015 04 09 12 52 49 .15      65     54    -37     85     92  50.5 -29.5  33926  285.63 0862.98
2015 04 09 12 52 49 .41      70     36    -19     80     83  62.5 -13.4  33930  285.68 0862.98
2015 04 09 12 52 49 .66      76     29     -5     82     83  68.7  -4.1  33954  286.08 0862.98
2015 04 09 12 52 49 .91      86     22     17     89     91  75.4  11.0  33960  286.20 0862.98
2015 04 09 12 52 50 .16      83     22     24     87     91  74.9  15.3  33970  286.37 0862.98
2015 04 09 12 52 50 .41      84     29     12     89     90  70.9   8.0  33948  285.98 0862.97
2015 04 09 12 52 50 .66      81     32     31     88     94  68.3  19.4  33970  286.37 0862.97
2015 04 09 12 52 50 .91      93     27      2     97     98  73.6   1.2  33936  285.78 0862.97
2015 04 09 12 52 51 .17      83     40     -6     93     94  64.2  -4.1  33954  286.08 0862.97
2015 04 09 12 52 51 .41      90     44     20    101    104  63.8  11.6  33954  286.08 0862.97
2015 04 09 12 52 51 .67      98     39     21    106    109  68.3  11.1  33978  286.51 0862.97
2015 04 09 12 52 51 .94      94     41     16    103    105  66.5   9.0  34006  286.98 0862.97
2015 04 09 12 52 52 .18      92     48     -5    104    105  62.5  -3.1  33978  286.49 0862.97
2015 04 09 12 52 52 .42      72     44     16     85     87  58.5  11.1  34010  287.05 0862.97
2015 04 09 12 52 52 .68      79     22     21     83     86  74.5  14.3  34012  287.06 0862.97
2015 04 09 12 52 52 .93      40     13     33     43     54  72.3  41.7  34040  287.54 0862.97
2015 04 09 12 52 53 .17      25      9     39     27     47  68.3  62.6  34046  287.64 0862.97
2015 04 09 12 52 53 .43      64     30     30     71     77  64.8  23.1  34058  287.86 0862.97
2015 04 09 12 52 53 .67      76     44     22     89     92  59.8  14.3  34048  287.67 0862.97
2015 04 09 12 52 53 .93      91     58     13    108    109  57.5   6.9  34060  287.89 0862.97
2015 04 09 12 52 54 .18      77     49     26     92     96  57.6  16.3  34074  288.13 0862.97
2015 04 09 12 52 54 .43      89     42     27     99    103  64.7  15.3  34104  288.64 0862.97
2015 04 09 12 52 54 .68      85     25     14     89     91  73.2   9.5  34096  288.50 0862.97
2015 04 09 12 52 54 .93      65     13     36     67     76  78.5  31.3  34118  288.86 0862.97
2015 04 09 12 52 55 .18      74     16     26     76     81  77.6  18.9  34120  288.91 0862.97
2015 04 09 12 52 55 .43      69     30     41     76     86  66.5  30.8  34092  288.43 0862.97
2015 04 09 12 52 55 .68      73     24     43     77     88  71.8  31.4  34080  288.23 0862.97
2015 04 09 12 52 55 .94      65      5     36     66     75  85.6  31.4  34054  287.77 0862.97
2015 04 09 12 52 56 .18      71     19     36     74     82  75.0  27.8  34064  287.94 0862.97
2015 04 09 12 52 56 .43      69     15     61     71     93  77.6  45.4  34074  288.13 0862.97
2015 04 09 12 52 56 .69      85      1     36     86     93  89.2  24.1  34094  288.47 0862.97
2015 04 09 12 52 56 .93      81     27      9     86     87  71.4   6.5  34074  288.11 0862.97
2015 04 09 12 52 57 .19      89     44     32    100    106  63.8  17.9  34108  288.70 0862.97
2015 04 09 12 52 57 .43      87     17     20     89     92  78.6  12.6  33958  286.15 0862.97
2015 04 09 12 52 57 .69      92     32     11     98     99  70.5   6.5  33988  286.67 0862.97
2015 04 09 12 52 57 .93      63     34     14     72     74  61.1  11.1  33966  286.30 0862.97
2015 04 09 12 52 58 .19      72     46      2     86     87  57.6   1.8  33944  285.92 0862.97
2015 04 09 12 52 58 .43      86     40     -3     96     97  64.8  -2.2  33938  285.82 0862.96
2015 04 09 12 52 58 .69      99     53      7    113    114  61.6   3.8  33960  286.20 0862.96
2015 04 09 12 52 58 .95      95     44     10    105    106  65.2   5.4  34002  286.91 0862.96
2015 04 09 12 52 59 .20      90     32      4     96     97  70.5   2.8  34012  287.06 0862.96
2015 04 09 12 52 59 .46      90      9     12     91     92  83.9   8.0  34010  287.03 0862.96
2015 04 09 12 52 59 .70      91     14     14     93     95  81.2   8.5  34046  287.65 0862.96
2015 04 09 12 52 59 .95      90     12     22     91     94  82.1  13.7  34050  287.72 0862.96
2015 04 09 12 53 00 .20      75     42     12     87     88  60.7   8.0  34036  287.47 0862.96
2015 04 09 12 53 00 .45      77     36      0     86     87  64.7   0.2  34024  287.28 0862.96
2015 04 09 12 53 00 .70      76     36     15     85     87  64.7  10.1  34008  287.01 0862.96
2015 04 09 12 53 00 .95      68     31     27     75     79  65.6  20.4  33992  286.73 0862.96
2015 04 09 12 53 01 .20      78     30     30     84     89  68.7  20.0  33992  286.74 0862.96
2015 04 09 12 53 01 .46      89     12     45     90    100  82.1  28.2  34042  287.57 0862.96
2015 04 09 12 53 01 .71      93     24     38     97    104  75.4  22.0  34080  288.21 0862.96
2015 04 09 12 53 01 .96      92     31     50     98    110  71.4  28.7  34180  289.92 0862.96
2015 04 09 12 53 02 .21      74     40     11     85     86  61.6   8.0  34010  287.05 0862.96
2015 04 09 12 53 02 .45      83     39     34     92     98  64.8  21.5  34110  288.72 0862.96
2015 04 09 12 53 02 .70      81     37     -3     90     91  65.6  -2.2  33922  285.56 0862.96
2015 04 09 12 53 02 .96      69     32     -5     77     78  64.8  -4.1  33922  285.56 0862.96
2015 04 09 12 53 03 .21      67     37     -9     77     78  61.2  -7.3  33920  285.53 0862.96
2015 04 09 12 53 03 .46      75     24     -9     79     80  71.8  -6.7  33920  285.53 0862.96
2015 04 09 12 53 03 .71      85     37     -4     93     94  66.5  -2.6  33920  285.53 0862.96
2015 04 09 12 53 03 .96      66     36      3     76     77  61.1   2.9  33920  285.53 0862.96
2015 04 09 12 53 04 .21      66     49      2     83     84  53.6   1.8  33922  285.56 0862.96
2015 04 09 12 53 04 .47      70     41     -1     82     83  59.3  -1.3  33942  285.90 0862.96
2015 04 09 12 53 04 .71      68     53     -8     87     88  52.2  -5.6  33970  286.37 0862.96
2015 04 09 12 53 04 .97      77     49     -3     92     93  57.6  -2.2  34048  287.69 0862.96
2015 04 09 12 53 05 .21      76     49     11     91     92  57.1   7.5  34044  287.62 0862.96
2015 04 09 12 53 05 .46      68     68     17     97     99  45.1  10.1  34006  286.98 0862.96
2015 04 09 12 53 05 .73      61     50      4     80     81  50.5   3.3  33982  286.57 0862.96
2015 04 09 12 53 05 .97      69     41     24     81     85  58.9  16.8  34024  287.28 0862.96
2015 04 09 12 53 06 .23      75     42     33     87     93  60.7  21.5  34018  287.16 0862.96
2015 04 09 12 53 06 .47      62     31     34     70     77  62.9  27.3  34002  286.89 0862.96
2015 04 09 12 53 06 .74      68     29     14     75     77  66.5  11.0  33922  285.56 0862.97
2015 04 09 12 53 06 .98      62     24      3     67     68  68.2   2.9  33926  285.63 0862.97
2015 04 09 12 53 07 .23      67     26     17     73     75  68.3  13.2  33932  285.71 0862.97
2015 04 09 12 53 07 .48      65     21     23     69     73  71.6  18.4  33950  286.03 0862.97
2015 04 09 12 53 07 .72      57     15     21     60     64  74.9  19.2  33964  286.27 0862.97
2015 04 09 12 53 07 .98      52     25     11     58     60  63.8  11.0  33930  285.70 0862.97
2015 04 09 12 53 08 .23      46     21     10     51     52  64.6  11.1  33936  285.78 0862.97
2015 04 09 12 53 08 .48      31     21     11     38     40  55.8  16.3  33940  285.85 0862.97
2015 04 09 12 53 08 .73      46     25     14     53     55  61.1  15.3  33926  285.61 0862.97
2015 04 09 12 53 09 .02      46     24     21     53     57  62.0  22.0  33930  285.68 0862.97
2015 04 09 12 53 09 .23      38     16     18     42     45  66.5  24.1  33938  285.82 0862.97
2015 04 09 12 53 09 .72      34     16      6     38     39  64.6   9.0  33938  285.83 0862.97
2015 04 09 12 53 09 .73      23      7      3     25     26  71.8   6.9  33940  285.87 0862.97
2015 04 09 12 53 09 .98      28     13     14     32     34  64.6  27.1  33954  286.08 0862.97
2015 04 09 12 53 10 .23      24     -4     11     25     27  99.7  25.1  33968  286.32 0862.97
2015 04 09 12 53 10 .48      16    -17      4     24     25 136.6  11.1  33978  286.51 0862.97
2015 04 09 12 53 10 .74      18     -7     11     20     22 111.7  31.4  33984  286.59 0862.97
2015 04 09 12 53 10 .99      27    -14     25     31     39 117.1  43.7  34012  287.06 0862.97
2015 04 09 12 53 11 .23      35    -11     41     37     55 108.2  53.3  34102  288.58 0862.97
2015 04 09 12 53 11 .49      26     -3     32     27     41  97.9  55.4  34108  288.69 0862.97
2015 04 09 12 53 11 .73       0     -7     41      8     41 175.5  90.0  34108  288.69 0862.97
2015 04 09 12 53 11 .99       2    -35     36     36     50 175.6  50.1  34036  287.47 0862.97
2015 04 09 12 53 12 .24      19    -24     38     31     49 142.2  56.4  34068  288.03 0862.97
2015 04 09 12 53 12 .49      25    -21     46     33     56 129.6  61.5  34076  288.14 0862.97
2015 04 09 12 53 12 .75      40    -30     32     50     59 126.9  35.6  33994  286.76 0862.97
2015 04 09 12 53 13 .00      40    -44     25     60     65 137.7  23.0  33974  286.42 0862.97
2015 04 09 12 53 13 .25      39    -36     32     54     62 133.1  33.5  34016  287.15 0862.97
2015 04 09 12 53 13 .50      41    -44     32     61     68 136.8  29.3  34018  287.18 0862.97
2015 04 09 12 53 13 .76      22    -53     33     58     66 157.3  32.4  34020  287.21 0862.97
2015 04 09 12 53 14 .01      27    -49     47     57     73 151.0  43.8  34040  287.54 0862.97
2015 04 09 12 53 14 .25      17    -27     30     33     44 147.4  47.9  34062  287.92 0862.97
2015 04 09 12 53 14 .51      35    -44     34     57     66 141.3  34.4  34056  287.81 0862.97
2015 04 09 12 53 14 .75      21    -27     47     35     58 142.2  59.4  34096  288.50 0862.97
2015 04 09 12 53 15 .01      -4    -44     55     45     71 186.2  56.4  34114  288.79 0862.97
2015 04 09 12 53 15 .25      12    -21     46     25     52 151.0  69.8  34092  288.43 0862.97
2015 04 09 12 53 15 .50      28    -42     34     51     61 146.6  36.5  34078  288.18 0862.97
2015 04 09 12 53 15 .75      14    -58     27     60     65 165.7  26.2  34050  287.72 0862.97
2015 04 09 12 53 16 .01      21    -75      4     79     80 164.0   2.9  34040  287.54 0862.96
2015 04 09 12 53 16 .26       7    -67     19     68     71 173.8  16.3  34056  287.81 0862.96
2015 04 09 12 53 16 .51       8    -52     20     53     56 171.1  20.0  34058  287.86 0862.96
2015 04 09 12 53 16 .76       4    -32     32     33     45 172.0  50.0  34066  287.99 0862.96
2015 04 09 12 53 17 .01      13    -12     39     18     42 133.3  74.0  34104  288.62 0862.96
2015 04 09 12 53 17 .26       7    -21     48     23     53 161.5  72.9  34104  288.62 0862.96
2015 04 09 12 53 17 .51       0     -3     37      4     37 189.7  90.0  34122  288.94 0862.96
2015 04 09 12 53 17 .76      14     -1     54     15     56  94.3  83.9  34148  289.38 0862.96
2015 04 09 12 53 18 .01      24     26     80     36     87  43.2  74.5  34134  289.14 0862.96
2015 04 09 12 53 18 .26      22    -68     74     72    103 162.2  50.1  34112  288.77 0862.96
2015 04 09 12 53 18 .52      64    -74     57     99    114 139.0  32.9  34128  289.02 0862.96
2015 04 09 12 53 18 .76      68    -52     63     86    106 127.3  39.7  34164  289.65 0862.96
2015 04 09 12 53 19 .01      40    -36     59     55     80 132.2  52.2  34162  289.60 0862.96
2015 04 09 12 53 19 .26      28    -25     34     38     50 131.3  46.9  34132  289.09 0862.96
2015 04 09 12 53 19 .52      43    -26     47     51     69 121.5  47.9  34106  288.67 0862.96
2015 04 09 12 53 19 .78      22     -7     70     24     74 108.2  81.2  34170  289.74 0862.96
2015 04 09 12 53 20 .03     -13      1     46     14     48 277.9  80.7  34186  290.02 0862.96
2015 04 09 12 53 20 .27      16    -20     30     26     39 140.4  54.3  34134  289.14 0862.96
2015 04 09 12 53 20 .52      52    -38     28     65     70 126.0  25.1  34126  289.01 0862.96
2015 04 09 12 53 20 .78      54    -77     52     95    108 144.8  30.8  34094  288.45 0862.96
2015 04 09 12 53 21 .03      37   -111     35    118    124 161.3  16.8  34094  288.45 0862.96
2015 04 09 12 53 21 .28      58    -91     38    108    115 147.5  19.4  34028  287.33 0862.96
2015 04 09 12 53 21 .54      58    -91     38    108    115 147.5  19.4  34052  287.76 0862.96
2015 04 09 12 53 21 .78      94    -60     22    112    115 122.9  11.1  34078  288.18 0862.96
2015 04 09 12 53 22 .03      96    -63    -18    116    118 123.3  -8.8  34042  287.57 0862.96
2015 04 09 12 53 22 .29      76    -81      5    112    113 136.8   2.9  34062  287.91 0862.96
2015 04 09 12 53 22 .53      58    -73     41     94    102 141.7  24.6  34082  288.26 0862.96
2015 04 09 12 53 22 .78      92    -92     45    131    139 135.0  18.9  34032  287.42 0862.96
2015 04 09 12 53 23 .03      74    -81     45    110    118 137.7  23.1  33998  286.83 0862.96
2015 04 09 12 53 23 .29      82    -82     29    116    120 135.0  14.3  34034  287.43 0862.97
2015 04 09 12 53 23 .54      97    -91     26    134    137 133.1  11.1  34054  287.79 0862.97
2015 04 09 12 53 23 .79      86    -98     61    131    144 138.6  27.1  34050  287.70 0862.97
2015 04 09 12 53 24 .04      94    -83     62    126    140 131.3  27.8  34080  288.21 0862.97
2015 04 09 12 53 24 .29     126    -80     53    150    160 122.5  19.6  34028  287.35 0862.97
2015 04 09 12 53 24 .54     117    -74     51    139    148 122.4  21.0  34074  288.13 0862.97
2015 04 09 12 53 24 .78      96    -97     69    137    153 135.5  28.7  34074  288.13 0862.97
2015 04 09 12 53 25 .04     115    -83     51    143    151 125.9  20.0  34056  287.81 0862.97
2015 04 09 12 53 25 .29     127    -96     21    160    162 127.3   7.8  33970  286.37 0862.97
2015 04 09 12 53 25 .55      96    -95     21    136    138 134.8   9.0  34044  287.60 0862.97
2015 04 09 12 53 25 .79     108    -89     49    141    150 129.5  19.2  34100  288.55 0862.97
2015 04 09 12 53 26 .04     102   -123     49    160    168 140.4  17.3  33990  286.69 0862.96
2015 04 09 12 53 26 .29      79    -95     43    124    132 140.3  19.4  33976  286.46 0862.96
2015 04 09 12 53 26 .56      98   -102     33    142    146 136.3  13.1  33956  286.14 0862.96
2015 04 09 12 53 26 .80      80   -110     26    137    140 143.9  11.1  33974  286.44 0862.96
2015 04 09 12 53 27 .05      95    -83     27    127    130 130.9  12.2  33964  286.27 0862.96
2015 04 09 12 53 27 .30     112    -84     27    141    144 126.9  11.1  34006  286.96 0862.96
2015 04 09 12 53 27 .55      95    -83     26    127    130 131.3  11.6  33992  286.74 0862.96
2015 04 09 12 53 27 .81      82    -78     22    114    117 133.6  11.1  33990  286.69 0862.97
2015 04 09 12 53 28 .06      69    -58     34     91     97 130.0  20.4  34044  287.60 0862.97
2015 04 09 12 53 28 .31      74    -52     47     91    102 125.5  29.3  34052  287.76 0862.97
2015 04 09 12 53 28 .57      62    -65     24     90     94 136.3  15.3  33990  286.69 0862.97
2015 04 09 12 53 28 .81     107    -83     21    136    138 127.8   9.0  34002  286.89 0862.97
2015 04 09 12 53 29 .06      93    -79     33    123    128 130.4  15.3  34000  286.86 0862.97
2015 04 09 12 53 29 .31     105    -84     47    135    144 128.6  19.2  34026  287.30 0862.97
2015 04 09 12 53 29 .55     105    -82     38    134    140 128.2  15.8  34008  287.01 0862.97
2015 04 09 12 53 29 .81     110    -82     26    138    141 126.9  11.0  33984  286.61 0862.97
2015 04 09 12 53 30 .07     132    -84     19    157    159 122.4   6.9  34030  287.38 0862.97
2015 04 09 12 53 30 .31     118    -77      7    142    143 123.3   2.9  34042  287.57 0862.97
2015 04 09 12 53 30 .56     105    -93      2    141    142 131.8   0.8  33930  285.68 0862.97
2015 04 09 12 53 30 .81      94    -63      8    114    115 123.7   4.4  33950  286.03 0862.97
2015 04 09 12 53 31 .06      95    -76     12    122    123 128.6   5.9  33942  285.90 0862.97
2015 04 09 12 53 31 .31     100    -74     18    125    127 126.4   8.5  33964  286.27 0862.97
2015 04 09 12 53 31 .56     119    -98     -1    155    156 129.6  -0.5  33966  286.30 0862.97
2015 04 09 12 53 31 .81     119    -98      7    155    156 129.6   2.8  33962  286.22 0862.97
2015 04 09 12 53 32 .06     104    -80     27    132    135 127.8  11.6  33962  286.22 0862.97
2015 04 09 12 53 32 .31      97    -80     39    126    133 129.5  17.4  33958  286.15 0862.97
2015 04 09 12 53 32 .57      89    -95     35    131    136 136.8  15.3  33940  285.87 0862.97
2015 04 09 12 53 32 .81      86    -87     17    123    125 135.5   8.0  33936  285.80 0862.97
2015 04 09 12 53 33 .07      99    -82     17    129    131 129.6   7.5  33970  286.37 0862.97
2015 04 09 12 53 33 .31     121    -73     36    142    147 121.1  14.3  33970  286.35 0862.96
2015 04 09 12 53 33 .58     109    -85     12    139    140 127.7   5.0  33952  286.05 0862.96
2015 04 09 12 53 33 .83     116    -97      7    152    153 130.0   2.8  33952  286.05 0862.96
2015 04 09 12 53 34 .08     115    -90     27    147    150 128.2  10.6  33958  286.17 0862.96
2015 04 09 12 53 34 .33      92   -102     17    138    140 138.1   7.1  33958  286.17 0862.96
2015 04 09 12 53 34 .59     102   -107     52    148    157 136.3  19.4  34008  287.00 0862.96
2015 04 09 12 53 34 .83      72   -115     46    136    144 147.9  18.9  34092  288.43 0862.96
2015 04 09 12 53 35 .08      66   -140     56    156    165 154.6  20.2  34012  287.06 0862.96
2015 04 09 12 53 35 .33     134    -97     57    166    176 126.0  18.9  33990  286.69 0862.96
2015 04 09 12 53 35 .59     102   -123     30    161    164 140.3  10.6  33972  286.39 0862.96
2015 04 09 12 53 35 .83     103   -106     -6    149    150 135.9  -2.6  33992  286.74 0862.96
2015 04 09 12 53 36 .08      81   -110      0    137    138 143.5  -0.3  33986  286.62 0862.96
2015 04 09 12 53 36 .33      73   -138    -14    157    158 151.9  -5.2  33966  286.30 0862.96
2015 04 09 12 53 36 .58      83   -163     -7    184    185 153.0  -2.2  33960  286.19 0862.96
2015 04 09 12 53 36 .84      55   -163     -6    173    174 161.3  -2.2  33978  286.51 0862.96
2015 04 09 12 53 37 .09     128    -81      7    152    153 122.5   2.9  34022  287.23 0862.96
2015 04 09 12 53 37 .33     110    -91     12    143    144 129.6   4.9  34096  288.50 0862.96
2015 04 09 12 53 37 .59     107   -114     19    157    159 136.7   7.2  34038  287.52 0862.96
2015 04 09 12 53 37 .84     102   -154     -3    185    186 146.4  -1.2  33938  285.83 0862.96
2015 04 09 12 53 38 .09      81   -150     -6    171    172 151.5  -2.2  33934  285.75 0862.96
2015 04 09 12 53 38 .34      84   -134    -19    159    161 147.9  -6.9  33934  285.76 0862.96
2015 04 09 12 53 38 .59      70   -123    -23    142    144 150.1  -9.3  33934  285.76 0862.96
2015 04 09 12 53 38 .84      83   -122    -43    148    155 145.7 -16.4  33928  285.66 0862.96
2015 04 09 12 53 39 .09      75   -115    -38    138    144 147.0 -15.5  33926  285.61 0862.96
2015 04 09 12 53 39 .34      48   -122    -26    132    135 158.6 -11.3  33934  285.75 0862.96
2015 04 09 12 53 39 .59      50   -121    -36    132    137 157.3 -15.4  33940  285.85 0862.96
2015 04 09 12 53 39 .85      59   -115    -31    130    134 152.8 -13.4  34016  287.13 0862.96
2015 04 09 12 53 40 .09      68    -95    -24    117    120 144.4 -11.9  34042  287.59 0862.96
2015 04 09 12 53 40 .35      85    -73     -4    113    114 130.9  -2.2  34014  287.10 0862.96
2015 04 09 12 53 40 .61      94    -72     33    119    124 127.3  15.8  34056  287.81 0862.96
2015 04 09 12 53 40 .86      83    -71     37    110    117 130.4  18.9  34078  288.20 0862.96
2015 04 09 12 53 41 .10      70    -66     47     97    107 133.1  27.3  34062  287.91 0862.96
2015 04 09 12 53 41 .35      83    -66     41    107    114 128.6  21.5  34032  287.40 0862.96
2015 04 09 12 53 41 .60     101    -49     34    113    119 115.8  16.8  33990  286.69 0862.96
2015 04 09 12 53 41 .86      92    -47     35    104    110 117.1  18.9  33998  286.83 0862.96
2015 04 09 12 53 42 .11      87    -48     39    100    107 118.9  22.0  34000  286.86 0862.96
2015 04 09 12 53 42 .36      79    -50     25     94     98 122.5  15.2  34008  287.01 0862.96
2015 04 09 12 53 42 .61      67    -48     29     83     88 125.9  19.4  34006  286.98 0862.96
2015 04 09 12 53 42 .86      84    -31     33     90     95 110.8  20.4  34024  287.28 0862.96
2015 04 09 12 53 43 .11     104    -49     39    116    123 115.3  18.9  33984  286.59 0862.96
2015 04 09 12 53 43 .36      90    -46     22    102    105 117.1  12.2  33970  286.35 0862.96
2015 04 09 12 53 43 .61      73    -58     18     94     96 128.2  11.1  33980  286.54 0862.96
2015 04 09 12 53 43 .86      60    -57     27     83     88 133.6  17.9  33964  286.27 0862.96
2015 04 09 12 53 44 .11      57    -55     11     80     81 134.1   8.0  33966  286.29 0862.96
2015 04 09 12 53 44 .36      40    -33     -7     53     54 129.5  -8.2  33976  286.47 0862.96
2015 04 09 12 53 44 .61      26    -21    -15     34     37 129.6 -29.5  33974  286.42 0862.96
2015 04 09 12 53 44 .86       8    -43     -1     44     45 169.3  -2.2  33972  286.41 0862.96
2015 04 09 12 53 45 .11      27    -47     33     55     64 150.1  35.5  33964  286.27 0862.96
2015 04 09 12 53 45 .36      39    -36     25     54     59 133.1  26.2  33974  286.42 0862.96
2015 04 09 12 53 45 .62      71    -45     16     85     87 122.5  11.1  33982  286.56 0862.96
2015 04 09 12 53 45 .86      88    -42     19     98    100 115.4  11.1  33974  286.44 0862.96
2015 04 09 12 53 46 .11      89    -29     10     94     95 108.2   6.5  33972  286.39 0862.96
2015 04 09 12 53 46 .37      93    -41     29    102    107 114.0  15.8  33980  286.54 0862.96
2015 04 09 12 53 46 .62      98    -52     35    112    118 118.0  17.4  33982  286.56 0862.96
2015 04 09 12 53 46 .87      90    -48     29    103    108 118.0  15.8  33974  286.42 0862.96
2015 04 09 12 53 47 .12     106    -54     20    120    122 117.1   9.5  33978  286.51 0862.96
2015 04 09 12 53 47 .37      75    -69     11    103    104 132.7   6.5  33972  286.41 0862.96
2015 04 09 12 53 47 .63      60    -73     24     95     99 140.3  14.3  33974  286.42 0862.96
2015 04 09 12 53 47 .88      65    -79      5    103    104 140.8   2.9  33978  286.51 0862.96
2015 04 09 12 53 48 .13      49    -78     10     93     94 147.5   6.5  33972  286.41 0862.96
2015 04 09 12 53 48 .38      52    -82     21     98    101 147.5  12.2  33982  286.56 0862.96
2015 04 09 12 53 48 .63      58    -65     19     88     91 138.6  12.6  33974  286.42 0862.96
2015 04 09 12 53 48 .88      37    -68     24     78     82 151.0  17.3  33984  286.61 0862.97
2015 04 09 12 53 49 .13      60    -69     21     92     95 139.0  13.2  33976  286.46 0862.97
2015 04 09 12 53 49 .38      63    -68      9     93     94 137.2   5.9  33972  286.41 0862.97
2015 04 09 12 53 49 .64      70    -73     35    102    108 136.3  18.9  33964  286.25 0862.97
2015 04 09 12 53 49 .88      70    -82     54    108    120 139.5  28.7  33992  286.73 0862.97
2015 04 09 12 53 50 .13      28    -98     36    103    110 164.0  19.4  34074  288.13 0862.97
2015 04 09 12 53 50 .38      34    -51     33     62     70 146.6  30.3  33998  286.84 0862.97
2015 04 09 12 53 50 .63      51    -51     33     73     80 135.0  26.2  33970  286.37 0862.96
2015 04 09 12 53 50 .89      47    -64     38     80     88 143.9  27.2  33968  286.32 0862.96
2015 04 09 12 53 51 .14      42   -118     44    126    134 160.4  19.4  33998  286.83 0862.96
2015 04 09 12 53 51 .38      54   -102     22    116    119 151.9  11.1  33970  286.37 0862.96
2015 04 09 12 53 51 .64      71    -75      5    104    105 136.7   2.9  33954  286.08 0862.96
2015 04 09 12 53 51 .89      50    -70     19     87     90 144.4  12.6  33952  286.05 0862.96
2015 04 09 12 53 52 .14      51    -73     15     90     92 145.3   9.5  33952  286.05 0862.96
2015 04 09 12 53 52 .39      52    -75     21     92     95 145.3  13.2  33940  285.87 0862.96
2015 04 09 12 53 52 .64      34    -71     20     79     82 154.5  14.7  33946  285.95 0862.96
2015 04 09 12 53 52 .89      49    -59     13     77     79 140.4  10.1  33934  285.76 0862.96
2015 04 09 12 53 53 .14      57    -57     12     81     83 135.0   9.0  33928  285.66 0862.96
2015 04 09 12 53 53 .39      65    -66     14     93     95 135.3   8.5  33926  285.63 0862.96
2015 04 09 12 53 53 .64      69    -68      8     97     98 134.6   4.9  33930  285.68 0862.96
2015 04 09 12 53 53 .90      64    -64     -1     91     92 135.0  -0.7  33946  285.95 0862.96
2015 04 09 12 53 54 .14      60    -72      1     94     95 140.3   0.8  33932  285.71 0862.96
2015 04 09 12 53 54 .41      58    -59     -1     84     85 135.5  -0.7  33936  285.80 0862.95
2015 04 09 12 53 54 .65      47    -56      3     74     75 140.4   2.8  33934  285.76 0862.95
2015 04 09 12 53 54 .90      52    -53      3     75     76 135.8   2.8  33934  285.76 0862.95
2015 04 09 12 53 55 .16      51    -54     -1     75     76 136.8  -1.2  33948  286.00 0862.95
2015 04 09 12 53 55 .40      52    -53     -4     75     76 135.8  -3.1  33940  285.85 0862.95
2015 04 09 12 53 55 .66      44    -51     -6     68     69 139.5  -5.2  33938  285.82 0862.95
2015 04 09 12 53 55 .90      47    -56      3     74     75 140.4   2.8  33938  285.83 0862.95
2015 04 09 12 53 56 .16      35    -60     -2     70     71 149.3  -2.2  33944  285.93 0862.95
2015 04 09 12 53 56 .41      30    -60     -7     68     69 153.7  -6.2  33956  286.14 0862.95
2015 04 09 12 53 56 .66      23    -66     -1     70     71 160.8  -1.3  33964  286.27 0862.95
2015 04 09 12 53 56 .91      23    -57     -1     62     63 158.2  -1.3  33962  286.22 0862.95
2015 04 09 12 53 57 .16      20    -45     -1     50     51 155.5  -2.2  33960  286.19 0862.95
2015 04 09 12 53 57 .44      23    -30     -4     39     40 142.2  -6.2  33960  286.19 0862.95
2015 04 09 12 53 57 .66      28    -35    -11     45     47 141.3 -14.5  33968  286.32 0862.95
2015 04 09 12 53 57 .91      29    -47     -7     56     57 148.4  -7.3  33974  286.42 0862.95
2015 04 09 12 53 58 .16      27    -41     -7     50     51 146.6  -8.2  33970  286.37 0862.95
2015 04 09 12 53 58 .41      40    -36     -8     54     55 132.2  -9.3  33972  286.39 0862.95
2015 04 09 12 53 58 .66      36    -32      0     49     50 131.3   0.8  33968  286.32 0862.95
2015 04 09 12 53 58 .92      29    -34      0     46     47 139.5  -0.3  33968  286.32 0862.95
2015 04 09 12 53 59 .17      31    -39    -10     50     52 141.3 -11.3  33964  286.25 0862.95
2015 04 09 12 53 59 .42      19    -43    -14     48     51 155.5 -16.6  33968  286.34 0862.95
2015 04 09 12 53 59 .66      49    -35    -21     61     64 125.1 -23.3  33960  286.19 0862.94
2015 04 09 12 53 59 .92      64    -46     -3     80     81 126.0  -2.2  33940  285.87 0862.94
2015 04 09 12 54 00 .17      76    -47      6     90     91 122.0   3.8  33940  285.87 0862.94
2015 04 09 12 54 00 .42      74    -45     10     87     88 121.5   6.9  33938  285.82 0862.94
2015 04 09 12 54 00 .68      87    -58     -4    105    106 123.7  -2.2  33966  286.29 0862.94
2015 04 09 12 54 00 .92      80    -54     26     97    101 124.2  15.3  33982  286.56 0862.94
2015 04 09 12 54 01 .18      92    -43     38    102    108 115.2  21.0  34056  287.81 0862.94
2015 04 09 12 54 01 .43     113    -53     39    125    132 115.3  17.4  34074  288.13 0862.94
2015 04 09 12 54 01 .69     106    -48     49    117    126 114.4  23.6  34124  288.96 0862.94
2015 04 09 12 54 01 .93     112    -52     57    124    136 114.8  26.6  34132  289.09 0862.94
2015 04 09 12 54 02 .18      93    -93     45    132    140 135.0  18.9  34136  289.18 0862.94
2015 04 09 12 54 02 .44      68   -110     38    130    136 148.4  16.3  34148  289.38 0862.94
2015 04 09 12 54 02 .69      60   -105     38    122    128 150.1  17.4  34164  289.65 0862.94
2015 04 09 12 54 02 .93      62    -63     60     89    107 135.3  37.0  34100  288.55 0862.94
2015 04 09 12 54 03 .18      63    -96     53    115    126 146.6  26.6  34098  288.53 0862.94
2015 04 09 12 54 03 .44      61   -108     58    125    137 150.6  26.6  34142  289.28 0862.95
2015 04 09 12 54 03 .68      74   -106     58    130    142 144.8  25.2  34092  288.43 0862.95
2015 04 09 12 54 03 .94     105    -87     42    137    144 129.5  17.3  34092  288.42 0862.95
2015 04 09 12 54 04 .19      16   -119     21    121    123 172.0  10.1  34136  289.18 0862.95
2015 04 09 12 54 04 .44      19    -98     16    100    102 168.9   9.5  34132  289.11 0862.95
2015 04 09 12 54 04 .69      60    -90     16    109    111 146.2   8.5  34008  287.00 0862.95
2015 04 09 12 54 04 .94      56    -97     -4    113    114 150.1  -2.2  33954  286.08 0862.95
2015 04 09 12 54 05 .19      41    -88    -10     98     99 154.7  -6.2  33946  285.95 0862.94
2015 04 09 12 54 05 .44      38    -85     -4     94     95 155.5  -2.6  33940  285.85 0862.94
2015 04 09 12 54 05 .69      45    -88     -5    100    101 152.8  -3.1  33942  285.90 0862.94
2015 04 09 12 54 05 .94      32    -81     -4     88     89 158.2  -2.6  33942  285.90 0862.94
2015 04 09 12 54 06 .19      27    -75     12     80     82 160.0   9.0  33944  285.92 0862.94
2015 04 09 12 54 06 .44      36    -70     12     79     81 152.8   9.0  33940  285.87 0862.94
2015 04 09 12 54 06 .69      37    -80      5     89     90 155.1   3.3  33940  285.87 0862.94
2015 04 09 12 54 06 .95      36    -79     12     87     88 155.5   8.5  33950  286.03 0862.94
2015 04 09 12 54 07 .20      47    -73     38     88     95 147.0  25.1  34040  287.54 0862.94
2015 04 09 12 54 07 .44      52    -65     42     84     93 141.7  28.7  34062  287.91 0862.94
2015 04 09 12 54 07 .69      55    -86     45    103    112 147.5  25.1  34020  287.20 0862.94
2015 04 09 12 54 07 .94      63    -78     19    101    103 141.3  11.1  33974  286.42 0862.94
2015 04 09 12 54 08 .20      54    -94     15    109    111 150.1   8.0  33960  286.20 0862.94
2015 04 09 12 54 08 .45      60    -90     16    109    111 146.2   8.5  33960  286.19 0862.94
2015 04 09 12 54 08 .71      69    -77     16    104    106 138.1   9.0  33972  286.41 0862.94
2015 04 09 12 54 08 .96      60    -78     30     99    104 142.2  17.3  33962  286.22 0862.94
2015 04 09 12 54 09 .22      37    -81     42     90     99 155.1  27.1  34008  287.01 0862.94
2015 04 09 12 54 09 .46       6    -76     47     77     90 175.5  35.0  34046  287.65 0862.94
2015 04 09 12 54 09 .71       0    -63     41     64     76 180.0  35.5  34058  287.84 0862.94
2015 04 09 12 54 09 .96      23    -57     49     62     79 158.2  42.7  34042  287.57 0862.94
2015 04 09 12 54 10 .21       0    -76     43     77     88 180.0  31.4  34084  288.28 0862.94
2015 04 09 12 54 10 .46      42    -64     35     77     84 146.6  26.2  34052  287.74 0862.94
2015 04 09 12 54 10 .71      51    -74     42     91    100 145.3  26.6  34034  287.43 0862.94
2015 04 09 12 54 10 .97       6    -87     42     88     97 175.5  27.2  34036  287.49 0862.94
2015 04 09 12 54 11 .21       9    -41     56     43     70 167.5  58.5  34086  288.33 0862.94
2015 04 09 12 54 11 .47      -1    -29     46     30     54 182.7  64.6  34094  288.47 0862.94
2015 04 09 12 54 11 .71      -1    -31     61     32     68 182.6  70.8  34084  288.30 0862.94
2015 04 09 12 54 11 .97      -7    -48     72     49     87 188.9  63.2  34088  288.36 0862.94
2015 04 09 12 54 12 .22     -15    -44     78     47     91 198.7  66.2  34052  287.76 0862.94
2015 04 09 12 54 12 .47     -12    -72     81     74    109 189.8  52.2  34048  287.69 0862.94
2015 04 09 12 54 12 .71       0   -115      7    116    117 180.5   3.8  33996  286.81 0862.94
2015 04 09 12 54 12 .97       0   -154     -1    155    156 180.4  -0.5  33982  286.56 0862.94
2015 04 09 12 54 13 .22      15   -202     -5    203    204 175.6  -1.6  33926  285.63 0862.94
2015 04 09 12 54 13 .47      24   -136     12    139    140 169.8   5.0  33960  286.20 0862.94
2015 04 09 12 54 13 .72       6   -132      1    133    134 177.3   0.8  33974  286.42 0862.94
2015 04 09 12 54 13 .97      17   -114     13    116    117 171.1   6.9  34014  287.10 0862.94
2015 04 09 12 54 14 .22      -2   -126     20    127    129 181.0   9.0  33998  286.83 0862.94
2015 04 09 12 54 14 .47       2   -162     27    163    166 179.3   9.5  33994  286.76 0862.94
2015 04 09 12 54 14 .72      14   -155     -4    156    157 174.7  -1.8  33914  285.43 0862.94
2015 04 09 12 54 14 .98      43   -142     -3    149    150 163.0  -1.3  33992  286.74 0862.94
2015 04 09 12 54 15 .22      32   -150     25    154    157 168.0   9.3  33992  286.73 0862.94
2015 04 09 12 54 15 .48      51   -155      8    164    165 161.7   2.9  33990  286.71 0862.94
2015 04 09 12 54 15 .73      31   -168     -6    172    173 169.3  -2.2  33912  285.38 0862.94
2015 04 09 12 54 15 .99      30   -149     -3    152    153 168.5  -1.3  34006  286.96 0862.94
2015 04 09 12 54 16 .23     -11   -179     18    180    181 183.8   5.9  33970  286.35 0862.94
2015 04 09 12 54 16 .49      22   -160     26    162    165 172.0   9.3  33964  286.27 0862.94
2015 04 09 12 54 16 .73      51   -165     35    173    177 162.8  11.6  34016  287.13 0862.94
2015 04 09 12 54 16 .98      28   -161      1    164    165 170.0   0.5  33910  285.36 0862.94
2015 04 09 12 54 17 .24      20   -164     -6    166    167 172.9  -2.2  33910  285.34 0862.94
2015 04 09 12 54 17 .49      22   -172    -14    174    175 172.4  -4.9  33910  285.34 0862.94
2015 04 09 12 54 17 .74      11   -171    -15    172    173 176.2  -5.2  33910  285.34 0862.94
2015 04 09 12 54 17 .99      19   -179     -7    181    182 173.8  -2.2  33912  285.39 0862.94
2015 04 09 12 54 18 .24      21   -179      0    181    182 173.3   0.2  33934  285.75 0862.94
2015 04 09 12 54 18 .50      14   -171     -3    172    173 175.1  -1.1  33970  286.37 0862.94
2015 04 09 12 54 18 .75      27   -176      0    179    180 171.1   0.0  33998  286.84 0862.94
2015 04 09 12 54 18 .99       9   -176      2    177    178 176.9   0.8  34006  286.98 0862.94
2015 04 09 12 54 19 .24      58   -146      0    158    159 158.2  -0.3  33994  286.76 0862.94
2015 04 09 12 54 19 .50      13   -112      4    113    114 173.3   2.3  34012  287.06 0862.94
2015 04 09 12 54 19 .74      52   -120     24    132    135 156.4  10.6  34060  287.89 0862.94
2015 04 09 12 54 20 .00      29   -144     17    147    149 168.5   6.9  33988  286.67 0862.94
2015 04 09 12 54 20 .25      14   -171      4    172    173 175.1   1.6  33918  285.50 0862.94
2015 04 09 12 54 20 .50      32   -177     19    181    183 169.5   6.1  33970  286.37 0862.94
2015 04 09 12 54 20 .74      27   -186     14    189    190 171.5   4.4  33914  285.43 0862.94
2015 04 09 12 54 20 .99      32   -185      5    188    189 170.0   1.8  33912  285.38 0862.94
2015 04 09 12 54 21 .25      43   -173      2    179    180 166.0   0.8  33910  285.34 0862.94
2015 04 09 12 54 21 .49      36   -161     -3    166    167 167.3  -1.3  33912  285.38 0862.94
2015 04 09 12 54 21 .75      37   -192    -18    196    197 169.1  -5.4  33912  285.38 0862.94
2015 04 09 12 54 21 .99      61   -169     16    181    182 160.0   5.2  33984  286.59 0862.94
2015 04 09 12 54 22 .26      44   -166     -4    172    173 164.9  -1.6  33916  285.46 0862.94
2015 04 09 12 54 22 .51      38   -172     -2    177    178 167.3  -0.7  33910  285.34 0862.94
2015 04 09 12 54 22 .76      34   -165      0    169    170 168.2   0.2  33912  285.38 0862.94
2015 04 09 12 54 23 .01      31   -168     -6    172    173 169.3  -2.2  33912  285.38 0862.94
2015 04 09 12 54 23 .26      37   -174     -2    178    179 168.0  -0.7  33918  285.50 0862.94
2015 04 09 12 54 23 .52      29   -165      3    168    169 169.8   1.2  33940  285.87 0862.94
2015 04 09 12 54 23 .76      49   -157      2    165    166 162.4   1.0  33932  285.73 0862.94
2015 04 09 12 54 24 .02      23   -158     29    160    163 171.5  10.3  33956  286.14 0862.94
2015 04 09 12 54 24 .27      43   -161      8    167    168 164.9   2.9  33984  286.59 0862.94
2015 04 09 12 54 24 .52      22   -131     11    133    134 170.3   4.9  33986  286.62 0862.94
2015 04 09 12 54 24 .76      43   -109     14    118    119 158.2   7.1  33998  286.84 0862.94
2015 04 09 12 54 25 .01      28   -122     34    126    131 167.1  15.3  33998  286.84 0862.94
2015 04 09 12 54 25 .27      14   -181     -7    182    183 175.5  -2.2  33946  285.97 0862.94
2015 04 09 12 54 25 .52      60   -125     58    139    150 154.1  23.6  34014  287.10 0862.94
2015 04 09 12 54 25 .77      40   -109     44    117    125 160.0  21.0  34010  287.05 0862.94
2015 04 09 12 54 26 .01     -15   -142      8    143    144 186.2   3.3  33974  286.44 0862.94
2015 04 09 12 54 26 .27      14   -146      9    147    148 174.2   3.8  33946  285.95 0862.94
2015 04 09 12 54 26 .52     -12   -110     18    111    113 186.7   9.5  33958  286.15 0862.94
2015 04 09 12 54 26 .78     -15   -142     33    143    147 186.3  13.2  34014  287.10 0862.94
2015 04 09 12 54 27 .02       8   -127     12    128    129 176.0   5.4  34018  287.16 0862.94
2015 04 09 12 54 27 .27      41    -96     24    105    108 156.8  13.2  34028  287.33 0862.94
2015 04 09 12 54 27 .52      48   -103     46    114    122 154.7  23.0  34012  287.06 0862.94
2015 04 09 12 54 27 .77      -5   -122     18    123    125 182.7   8.5  33976  286.47 0862.94
2015 04 09 12 54 28 .02      24   -139      7    142    143 170.2   2.9  33966  286.30 0862.94
2015 04 09 12 54 28 .27       0   -149      7    150    151 180.0   2.9  33932  285.71 0862.94
2015 04 09 12 54 28 .53      20   -147      2    149    150 172.0   0.8  33924  285.60 0862.94
2015 04 09 12 54 28 .78      15   -169     -9    170    171 174.7  -3.1  33954  286.10 0862.94
2015 04 09 12 54 29 .02      20   -148      2    150    151 172.0   0.8  33984  286.59 0862.94
2015 04 09 12 54 29 .29      18   -128      0    130    131 172.0   0.2  34004  286.93 0862.94
2015 04 09 12 54 29 .54      61   -103     13    120    121 149.3   6.5  34014  287.11 0862.94
2015 04 09 12 54 29 .79      39    -93      0    101    102 157.3  -0.3  34022  287.25 0862.94
2015 04 09 12 54 30 .04      21   -102      4    105    106 168.4   2.3  34014  287.11 0862.94
2015 04 09 12 54 30 .28       6    -90     11     91     92 176.0   6.9  34000  286.88 0862.94
2015 04 09 12 54 30 .54       5   -122      2    123    124 177.3   1.2  33998  286.84 0862.94
2015 04 09 12 54 30 .79      32   -117     14    122    123 164.4   6.9  34000  286.88 0862.94
2015 04 09 12 54 31 .05      12    -96     19     97     99 172.4  11.1  34008  287.01 0862.94
2015 04 09 12 54 31 .29      -6   -106     10    107    108 183.6   5.4  34020  287.20 0862.94
2015 04 09 12 54 31 .54       0    -71     47     72     85 180.0  36.0  34038  287.50 0862.94
2015 04 09 12 54 31 .79       1    -67     49     68     83 179.1  39.7  34054  287.79 0862.94
2015 04 09 12 54 32 .04       0    -59     39     60     71 180.0  35.6  34062  287.91 0862.94
2015 04 09 12 54 32 .29       4    -88     38     89     96 177.3  24.1  34056  287.81 0862.94
2015 04 09 12 54 32 .54      30   -118     11    122    123 165.3   5.4  33970  286.37 0862.94
2015 04 09 12 54 32 .80      18   -115     15    117    118 170.7   7.5  34006  286.98 0862.94
2015 04 09 12 54 33 .04      26    -86     58     90    107 163.1  35.6  34070  288.04 0862.94
2015 04 09 12 54 33 .29       8    -87     56     88    104 174.2  35.5  34068  288.03 0862.94
2015 04 09 12 54 33 .55      -8   -108     42    109    116 184.5  21.5  34044  287.60 0862.94
2015 04 09 12 54 33 .80     -65   -144     55    158    168 204.3  19.4  33992  286.73 0862.94
2015 04 09 12 54 34 .05    -109   -182     57    213    221 210.8  15.2  33964  286.25 0862.94
2015 04 09 12 54 34 .30     -76   -162     56    180    189 205.3  17.4  33966  286.29 0862.93
2015 04 09 12 54 34 .54     -28   -125     71    129    147 192.9  31.3  33992  286.73 0862.93
2015 04 09 12 54 34 .80     -46   -129     63    138    151 199.6  26.6  33984  286.61 0862.93
2015 04 09 12 54 35 .05     -55   -165     83    175    193 198.5  27.2  34018  287.16 0862.93
2015 04 09 12 54 35 .30     -77   -172     58    189    198 204.1  17.1  34044  287.62 0862.93
2015 04 09 12 54 35 .55     -48   -172    -61    179    190 195.8 -18.9  33914  285.43 0862.93
2015 04 09 12 54 35 .80     -37   -173    -41    178    183 192.3 -13.2  33910  285.34 0862.93
2015 04 09 12 54 36 .05     -40   -185    -52    190    198 192.3 -15.5  33910  285.36 0862.93
2015 04 09 12 54 36 .31     -41   -177    -53    182    190 193.1 -16.4  33910  285.34 0862.93
2015 04 09 12 54 36 .56     -50   -168    -47    176    183 196.7 -15.2  33910  285.34 0862.93
2015 04 09 12 54 36 .81     -36   -158    -46    163    170 192.9 -15.8  33910  285.34 0862.93
2015 04 09 12 54 37 .06     -49   -161    -15    169    170 197.2  -5.2  33914  285.41 0862.93
2015 04 09 12 54 37 .32     -44   -148     -7    155    156 196.5  -2.6  33956  286.12 0862.93
2015 04 09 12 54 37 .56     -58   -175     32    185    188 198.5  10.1  33964  286.25 0862.93
2015 04 09 12 54 37 .81     -26   -184     -7    186    187 188.2  -2.2  33944  285.93 0862.93
2015 04 09 12 54 38 .06     -37   -165    -15    170    171 192.9  -5.4  33912  285.38 0862.93
2015 04 09 12 54 38 .32     -38   -156    -18    161    163 193.8  -6.5  33912  285.38 0862.93
2015 04 09 12 54 38 .57     -48   -142    -24    150    153 198.7  -9.3  33910  285.34 0862.93
2015 04 09 12 54 38 .81     -42   -147    -19    153    155 196.0  -7.3  33912  285.38 0862.93
2015 04 09 12 54 39 .07     -42   -147    -30    153    157 196.0 -11.3  33910  285.34 0862.93
2015 04 09 12 54 39 .32     -48   -147      1    155    156 198.3   0.5  33918  285.48 0862.93
2015 04 09 12 54 39 .58     -55   -154    -11    164    165 200.0  -3.9  33930  285.68 0862.93
2015 04 09 12 54 39 .82     -48   -124      1    134    135 201.4   0.8  33970  286.37 0862.93
2015 04 09 12 54 40 .07     -50   -139     18    148    150 200.0   7.1  33960  286.19 0862.93
2015 04 09 12 54 40 .32     -68   -152     15    167    168 204.1   5.4  33924  285.58 0862.93
2015 04 09 12 54 40 .57     -53   -163      8    172    173 198.0   2.9  33914  285.43 0862.93
2015 04 09 12 54 40 .82     -46   -153     -9    160    161 196.9  -3.3  33914  285.41 0862.93
2015 04 09 12 54 41 .07     -73   -161     17    177    178 204.5   5.7  33938  285.83 0862.93
2015 04 09 12 54 41 .32     -66   -165     10    178    179 201.8   3.3  33918  285.48 0862.93
2015 04 09 12 54 41 .57     -79   -171     16    189    190 204.7   4.9  33914  285.41 0862.93
2015 04 09 12 54 41 .82     -78   -161     33    179    183 205.9  10.6  33922  285.56 0862.93
2015 04 09 12 54 42 .07     -81   -144     15    166    167 209.4   5.4  33922  285.55 0862.93
2015 04 09 12 54 42 .32     -69   -149     -1    165    166 204.9  -0.5  33926  285.61 0862.93
2015 04 09 12 54 42 .57     -68   -153    -20    168    170 204.1  -6.9  33920  285.51 0862.93
2015 04 09 12 54 42 .83     -57   -144     -8    156    157 201.8  -3.1  33922  285.56 0862.93
2015 04 09 12 54 43 .09     -61   -134    -19    148    150 204.5  -7.3  33916  285.44 0862.93
2015 04 09 12 54 43 .34     -51   -130    -23    140    142 201.4  -9.3  33918  285.48 0862.93
2015 04 09 12 54 43 .59     -51   -130    -23    140    142 201.4  -9.3  33918  285.48 0862.93
2015 04 09 12 54 43 .84     -45   -120    -24    129    132 200.5 -10.9  33922  285.56 0862.93
2015 04 09 12 54 44 .09     -50   -122    -36    132    138 202.3 -15.5  33912  285.38 0862.93
2015 04 09 12 54 44 .34     -55   -114    -35    127    132 205.9 -15.5  33910  285.34 0862.93
2015 04 09 12 54 44 .59     -46   -111    -43    121    129 202.7 -19.7  33918  285.48 0862.93
2015 04 09 12 54 44 .84     -67    -89    -32    112    116 217.0 -21.2  33924  285.58 0862.93
2015 04 09 12 54 45 .10    -102   -102    -27    145    148 225.2 -10.9  33942  285.90 0862.93
2015 04 09 12 54 45 .34     -46   -110    -10    120    121 202.7  -5.2  33964  286.27 0862.93
2015 04 09 12 54 45 .59     -60   -125      1    139    140 205.9   0.8  33948  286.00 0862.93
2015 04 09 12 54 45 .84     -53   -149     -3    159    160 199.6  -1.3  33936  285.78 0862.93
2015 04 09 12 54 46 .10     -51   -160      6    169    170 197.8   2.1  33936  285.80 0862.93
2015 04 09 12 54 46 .35     -95   -144      8    173    174 213.4   2.8  33944  285.93 0862.93
2015 04 09 12 54 46 .59     -69   -143    -38    159    164 205.9 -13.7  33940  285.85 0862.93
2015 04 09 12 54 46 .84    -105   -119    -47    160    166 221.4 -21.2  33928  285.66 0862.93
2015 04 09 12 54 47 .10    -112   -129    -52    171    178 221.0 -21.7  33936  285.78 0862.93
2015 04 09 12 54 47 .35    -102   -129    -63    165    176 218.3 -26.7  33914  285.43 0862.93
2015 04 09 12 54 47 .60    -117   -102    -65    156    169 229.1 -28.2  33954  286.08 0862.93
2015 04 09 12 54 47 .84     -96    -96    -72    137    154 225.0 -34.2  33918  285.48 0862.93
2015 04 09 12 54 48 .10    -119    -71    -65    139    153 239.3 -31.5  34010  287.05 0862.93
2015 04 09 12 54 48 .35    -115    -67    -26    134    137 239.8 -11.3  33986  286.62 0862.93
2015 04 09 12 54 48 .60    -117    -81    -15    143    144 235.4  -6.2  33988  286.66 0862.93
2015 04 09 12 54 48 .85     -94    -94     16    134    136 225.0   7.1  33968  286.32 0862.93
2015 04 09 12 54 49 .10     -78    -83     34    115    121 223.2  16.8  33978  286.49 0862.93
2015 04 09 12 54 49 .35     -82    -73     67    110    128 228.2  34.4  33970  286.35 0862.93
2015 04 09 12 54 49 .60     -66    -64     66     93    114 226.0  38.6  33976  286.46 0862.92
2015 04 09 12 54 49 .85     -42    -65     75     78    108 213.4  49.0  33972  286.41 0862.92
2015 04 09 12 54 50 .11     -33    -69     86     77    115 205.5  53.3  33976  286.47 0862.92
2015 04 09 12 54 50 .37     -37    -99     83    106    134 200.5  41.7  33982  286.57 0862.92
2015 04 09 12 54 50 .61     -64   -114     58    131    143 209.4  25.1  34022  287.25 0862.92
2015 04 09 12 54 50 .86     -92   -122     78    153    171 217.0  28.7  34008  287.01 0862.92
2015 04 09 12 54 51 .12     -75   -109     53    133    143 214.7  23.0  33984  286.61 0862.92
2015 04 09 12 54 51 .36    -102   -140     49    174    181 216.3  15.8  33956  286.12 0862.92
2015 04 09 12 54 51 .62     -96   -150     34    179    183 212.7  11.0  33972  286.41 0862.92
2015 04 09 12 54 51 .87    -104   -142     20    177    179 216.3   6.7  33942  285.90 0862.92
2015 04 09 12 54 52 .12     -72   -121     29    142    146 210.8  11.6  33942  285.90 0862.92
2015 04 09 12 54 52 .39     -59   -126     17    140    142 204.9   7.1  33948  285.98 0862.92
2015 04 09 12 54 52 .62     -71   -133     41    151    157 208.1  15.3  33942  285.90 0862.92
2015 04 09 12 54 52 .87     -97   -152     14    181    182 212.5   4.6  33952  286.07 0862.92
2015 04 09 12 54 53 .12    -100   -147     29    178    181 214.3   9.5  33946  285.97 0862.92
2015 04 09 12 54 53 .37     -75   -127     18    148    150 210.7   7.1  33950  286.02 0862.93
2015 04 09 12 54 53 .62    -102   -109      2    150    151 223.2   0.8  33958  286.17 0862.93
2015 04 09 12 54 53 .87    -108   -108    -19    153    155 225.0  -7.2  33952  286.05 0862.93
2015 04 09 12 54 54 .12     -95   -146      0    175    176 213.2  -0.3  33942  285.90 0862.93
2015 04 09 12 54 54 .37    -111   -156     19    192    193 215.4   5.7  33928  285.65 0862.93
2015 04 09 12 54 54 .63     -93   -171     24    195    197 208.7   7.1  33958  286.17 0862.93
2015 04 09 12 54 54 .88    -114   -168     37    204    208 214.3  10.3  33950  286.03 0862.93
2015 04 09 12 54 55 .12    -126   -172     18    214    215 216.1   5.0  33928  285.65 0862.93
2015 04 09 12 54 55 .38    -107   -167     30    199    202 212.7   8.8  33930  285.70 0862.93
2015 04 09 12 54 55 .63     -80   -147     45    168    174 208.5  15.0  33942  285.90 0862.93
2015 04 09 12 54 55 .87     -83   -131     20    156    158 212.5   7.5  33936  285.80 0862.93
2015 04 09 12 54 56 .13     -56   -109      0    123    124 207.2   0.2  33940  285.87 0862.92
2015 04 09 12 54 56 .38     -70   -117     -1    137    138 210.8  -0.7  33934  285.76 0862.92
2015 04 09 12 54 56 .63     -45   -133    -28    141    144 198.7 -11.3  33930  285.70 0862.92
2015 04 09 12 54 56 .88     -70   -111    -17    132    134 212.1  -7.3  33942  285.88 0862.92
2015 04 09 12 54 57 .14     -70   -101    -14    123    124 214.7  -6.7  33940  285.87 0862.92
2015 04 09 12 54 57 .39     -63   -106    -54    124    135 210.8 -29.5  33934  285.75 0862.92
2015 04 09 12 54 57 .64     -82   -113    -46    140    147 216.0 -23.8  33920  285.53 0862.92
2015 04 09 12 54 57 .89     -76   -120    -39    143    149 212.5 -15.5  33928  285.65 0862.93
2015 04 09 12 54 58 .14     -67   -141    -41    157    163 205.3 -14.7  33922  285.56 0862.93
2015 04 09 12 54 58 .39     -56   -135    -29    147    150 202.7 -11.5  33926  285.61 0862.93
2015 04 09 12 54 58 .64     -59   -138    -41    151    157 203.2 -15.4  33922  285.56 0862.93
2015 04 09 12 54 58 .89     -53   -146    -11    156    157 200.1  -4.1  33924  285.58 0862.93
2015 04 09 12 54 59 .14     -60   -138    -34    151    155 203.6 -12.9  33926  285.63 0862.93
2015 04 09 12 54 59 .39     -33   -140    -40    144    149 193.4 -20.2  33926  285.61 0862.93
2015 04 09 12 54 59 .65     -50   -139    -47    148    156 200.0 -17.6  33922  285.56 0862.92
2015 04 09 12 54 59 .89     -58   -145    -40    157    163 201.9 -14.5  33922  285.56 0862.92
2015 04 09 12 55 00 .15     -54   -130    -50    142    151 202.7 -19.7  33922  285.56 0862.92
2015 04 09 12 55 00 .40     -57   -125    -22    138    140 204.5  -9.3  33918  285.48 0862.92
2015 04 09 12 55 00 .65     -62   -168     11    180    181 200.3   3.8  33926  285.61 0862.92
2015 04 09 12 55 00 .90     -50   -160     26    168    171 197.6   9.0  33936  285.78 0862.92
2015 04 09 12 55 01 .15     -55   -145     35    156    161 200.9  12.9  33942  285.90 0862.92
2015 04 09 12 55 01 .40     -70   -142     26    159    162 206.3   9.3  33942  285.90 0862.92
2015 04 09 12 55 01 .65     -71   -129      6    148    149 209.0   2.3  33938  285.83 0862.92
2015 04 09 12 55 01 .90     -30   -120      6    124    125 194.3   2.8  33928  285.66 0862.92
2015 04 09 12 55 02 .15     -36   -116      5    122    123 197.4   2.8  33918  285.50 0862.92
2015 04 09 12 55 02 .40     -30   -114     -4    119    120 195.1  -2.2  33916  285.46 0862.92
2015 04 09 12 55 02 .65     -29   -124     -5    128    129 193.4  -2.6  33914  285.43 0862.92
2015 04 09 12 55 02 .90      -8   -126    -14    127    128 184.0  -6.7  33916  285.46 0862.92
2015 04 09 12 55 03 .15      -8   -114    -14    115    116 184.5  -7.3  33914  285.43 0862.92
2015 04 09 12 55 03 .40      -8    -97    -14     98    100 184.9  -8.2  33914  285.43 0862.92
2015 04 09 12 55 03 .65      -7    -93    -27     94     98 184.5 -16.0  33916  285.44 0862.92
2015 04 09 12 55 03 .90     -12    -93    -25     94     98 187.6 -15.0  33918  285.48 0862.92
2015 04 09 12 55 04 .16      -5    -84    -25     85     88 184.0 -21.7  33916  285.44 0862.93
2015 04 09 12 55 04 .41      -5    -84    -25     85     88 184.0 -21.7  33916  285.44 0862.93
2015 04 09 12 55 04 .66      -4    -85    -22     86     89 182.7 -14.5  33916  285.46 0862.93
2015 04 09 12 55 04 .91       0    -84    -28     85     89 180.0 -23.8  33914  285.43 0862.93
2015 04 09 12 55 05 .16      -5    -75    -25     76     80 184.5 -23.3  33920  285.51 0862.93
2015 04 09 12 55 05 .42      -1    -75    -28     76     81 180.9 -25.4  33918  285.48 0862.93
2015 04 09 12 55 05 .66      -5    -75    -25     76     80 184.5 -23.3  33920  285.51 0862.93
2015 04 09 12 55 05 .92      -5    -83    -25     84     87 183.6 -21.7  33918  285.50 0862.93
2015 04 09 12 55 06 .16      -6    -79    -27     80     84 184.5 -23.6  33920  285.53 0862.93
2015 04 09 12 55 06 .42      -5    -74    -32     75     81 184.4 -28.5  33918  285.48 0862.93
2015 04 09 12 55 06 .67      -1    -67    -35     68     76 180.9 -33.7  33920  285.51 0862.93
2015 04 09 12 55 06 .92     -16    -79    -21     81     84 191.6 -15.0  33916  285.46 0862.93
2015 04 09 12 55 07 .17     -20    -75    -25     78     83 195.1 -18.1  33914  285.43 0862.93
2015 04 09 12 55 07 .42     -20    -75    -25     78     83 195.1 -18.1  33914  285.43 0862.93
2015 04 09 12 55 07 .67     -20    -75    -25     78     83 195.1 -18.1  33914  285.43 0862.93
2015 04 09 12 55 07 .92     -20    -75    -25     78     83 195.1 -18.1  33914  285.43 0862.93
2015 04 09 12 55 08 .17     -12    -71    -14     73     75 189.8 -11.5  33916  285.44 0862.93
2015 04 09 12 55 08 .42     -14    -71    -13     73     75 191.6 -10.3  33918  285.48 0862.93
2015 04 09 12 55 08 .67     -19    -67     -9     70     71 196.0  -7.3  33918  285.48 0862.93
2015 04 09 12 55 08 .92     -18    -59     -8     62     63 197.8  -7.3  33914  285.41 0862.93
2015 04 09 12 55 09 .17     -21    -63     -3     67     68 198.5  -3.1  33918  285.48 0862.93
2015 04 09 12 55 09 .43     -27    -52    -11     59     61 208.1 -11.3  33916  285.44 0862.93
2015 04 09 12 55 09 .67     -27    -52    -20     59     63 208.1 -18.7  33914  285.43 0862.93
2015 04 09 12 55 09 .92     -14    -44    -21     47     51 198.3 -30.6  33916  285.44 0862.93
2015 04 09 12 55 10 .18     -19    -40    -15     45     47 206.3 -23.6  33918  285.48 0862.93
2015 04 09 12 55 10 .43     -34    -40    -19     53     57 220.5 -19.7  33924  285.58 0862.93
2015 04 09 12 55 10 .68     -29    -40      0     50     51 216.1  -0.3  33930  285.68 0862.93
2015 04 09 12 55 10 .94     -17    -52      3     55     56 198.3   3.8  33930  285.68 0862.93
2015 04 09 12 55 11 .19     -29    -63      7     70     71 205.3   5.9  33922  285.55 0862.93
2015 04 09 12 55 11 .44     -32    -59     13     68     70 208.9  11.1  33928  285.66 0862.93
2015 04 09 12 55 11 .70     -10    -62     12     63     65 189.8  11.0  33932  285.71 0862.93
2015 04 09 12 55 11 .94     -28    -68      3     74     75 202.7   2.8  33944  285.92 0862.93
2015 04 09 12 55 12 .19     -28    -68      3     74     75 202.7   2.8  33944  285.92 0862.93
2015 04 09 12 55 12 .44     -12    -63     -2     65     66 191.5  -2.2  33940  285.87 0862.93
2015 04 09 12 55 12 .69     -18    -55     -4     59     60 198.7  -4.1  33938  285.82 0862.93
2015 04 09 12 55 12 .94     -17    -63    -13     66     68 195.2 -11.3  33926  285.63 0862.93
2015 04 09 12 55 13 .19     -17    -63    -23     66     71 195.2 -19.6  33916  285.44 0862.93
2015 04 09 12 55 13 .44     -14    -67    -19     69     72 192.5 -15.5  33918  285.48 0862.93
2015 04 09 12 55 13 .69     -12    -63    -17     65     68 191.5 -14.5  33920  285.51 0862.93
2015 04 09 12 55 13 .94      -8    -61    -11     62     64 188.0 -10.3  33916  285.44 0862.93
2015 04 09 12 55 14 .19     -13    -58     -3     60     61 193.4  -3.1  33918  285.48 0862.93
2015 04 09 12 55 14 .44     -14    -49    -10     51     53 196.0 -11.3  33918  285.50 0862.93
2015 04 09 12 55 14 .70     -17    -52    -15     55     58 198.3 -15.5  33920  285.51 0862.93
2015 04 09 12 55 14 .95     -18    -51     -7     55     56 199.2  -7.3  33926  285.63 0862.93
2015 04 09 12 55 15 .20     -22    -47    -10     53     55 205.3 -11.3  33932  285.71 0862.93
2015 04 09 12 55 15 .45     -22    -50     -9     55     56 203.6 -10.3  33940  285.87 0862.93
2015 04 09 12 55 15 .70     -24    -44    -14     51     53 209.0 -15.4  33930  285.68 0862.93
2015 04 09 12 55 15 .95     -15    -30      1     34     35 207.2   2.9  33940  285.85 0862.93
2015 04 09 12 55 16 .20     -20    -23      3     31     32 221.4   6.9  33950  286.03 0862.93
2015 04 09 12 55 16 .45     -18    -27      6     33     34 214.3  11.1  33948  286.00 0862.93
2015 04 09 12 55 16 .70     -16    -16      8     24     26 225.0  18.9  33946  285.97 0862.93
2015 04 09 12 55 16 .96     -16    -16      8     24     26 225.0  18.9  33946  285.97 0862.92
2015 04 09 12 55 17 .20     -24     -7     14     26     29 253.2  31.4  33968  286.34 0862.92
2015 04 09 12 55 17 .45     -25     -1     14     26     29 267.4  31.4  33956  286.14 0862.92
2015 04 09 12 55 17 .70     -26     -8     14     28     31 251.4  27.3  33988  286.66 0862.92
2015 04 09 12 55 17 .97     -25     -1     14     26     29 267.4  31.4  33982  286.56 0862.92
2015 04 09 12 55 18 .22     -18      2     27     19     33 277.9  60.5  34014  287.10 0862.92
2015 04 09 12 55 18 .47     -23     -4     23     24     33 260.3  52.0  34032  287.40 0862.92
2015 04 09 12 55 18 .72     -29      8     31     31     43 285.1  50.1  34056  287.82 0862.92
2015 04 09 12 55 18 .97     -22     17     30     29     41 307.8  50.1  34064  287.96 0862.92
2015 04 09 12 55 19 .22     -15     16     18     23     29 316.8  43.7  34070  288.04 0862.92
2015 04 09 12 55 19 .47     -41     16     12     45     47 291.7  15.3  34048  287.69 0862.92
2015 04 09 12 55 19 .72     -67    -13    -10     69     70 258.6  -8.2  33938  285.82 0862.92
2015 04 09 12 55 19 .97     -76    -25    -27     81     85 251.4 -23.6  33930  285.68 0862.92
2015 04 09 12 55 20 .22     -90    -51    -28    104    108 240.2 -15.5  33928  285.65 0862.92
2015 04 09 12 55 20 .47     -91    -46    -26    103    107 242.9 -14.5  33930  285.68 0862.92
2015 04 09 12 55 20 .72     -81    -51    -12     96     97 237.6  -7.3  33932  285.71 0862.93
2015 04 09 12 55 20 .97     -97    -41    -17    106    108 246.9  -9.3  33934  285.76 0862.93
2015 04 09 12 55 21 .22     -84    -35    -38     92     99 247.4 -27.5  33944  285.93 0862.93
2015 04 09 12 55 21 .47     -86    -47    -36     99    105 241.1 -24.4  33946  285.95 0862.93
2015 04 09 12 55 21 .73     -80    -49    -39     95    102 238.5 -27.5  33940  285.87 0862.93
2015 04 09 12 55 21 .97     -64    -54    -24     84     87 230.0 -21.2  33950  286.02 0862.93
2015 04 09 12 55 22 .23     -65    -60    -23     89     92 227.3 -14.5  33970  286.35 0862.93
2015 04 09 12 55 22 .47     -50    -53    -20     73     76 223.3 -15.5  33960  286.19 0862.93
2015 04 09 12 55 22 .72     -44    -48    -30     66     72 222.3 -31.5  33940  285.87 0862.93
2015 04 09 12 55 22 .97     -61    -46    -16     77     79 233.1 -11.9  33942  285.88 0862.93
2015 04 09 12 55 23 .22     -63    -35    -23     73     76 241.1 -23.8  33938  285.83 0862.93
2015 04 09 12 55 23 .48     -59    -37    -19     70     73 237.6 -15.4  33940  285.85 0862.93
2015 04 09 12 55 23 .73     -48    -50    -11     70     71 224.2  -9.3  33938  285.82 0862.93
2015 04 09 12 55 23 .98     -77    -28     -3     82     83 250.0  -2.2  33934  285.76 0862.93
2015 04 09 12 55 24 .23     -65    -21     -5     69     70 251.6  -4.1  33938  285.82 0862.93
2015 04 09 12 55 24 .48     -70    -38     -1     80     81 241.2  -1.3  33942  285.90 0862.93
2015 04 09 12 55 24 .74     -58    -56      7     82     83 226.0   5.4  33966  286.29 0862.93
2015 04 09 12 55 25 .00     -56   -100     34    115    121 209.4  16.8  33972  286.41 0862.93
2015 04 09 12 55 25 .24     -69    -57     33     90     95 230.5  20.4  34008  287.01 0862.93
2015 04 09 12 55 25 .50     -83    -79     27    115    119 226.4  13.2  33984  286.59 0862.93
2015 04 09 12 55 25 .74     -73    -92     38    118    125 218.3  17.9  33956  286.12 0862.93
2015 04 09 12 55 25 .99     -81   -112      8    139    140 216.1   3.3  33928  285.66 0862.93
2015 04 09 12 55 26 .24     -76   -111      6    135    136 214.3   2.9  33924  285.58 0862.93
2015 04 09 12 55 26 .49     -74   -100      2    125    126 216.5   1.2  33924  285.58 0862.93
2015 04 09 12 55 26 .75     -71    -96     -2    120    121 216.5  -1.3  33926  285.63 0862.93
2015 04 09 12 55 27 .00     -71    -96     -2    120    121 216.5  -1.3  33930  285.70 0862.93
2015 04 09 12 55 27 .26     -55    -87     -4    104    105 212.5  -2.2  33938  285.82 0862.93
2015 04 09 12 55 27 .50     -62    -98     10    117    118 212.5   4.9  33988  286.67 0862.93
2015 04 09 12 55 27 .74     -74   -116     16    138    140 212.6   6.9  33968  286.32 0862.93
2015 04 09 12 55 28 .00     -52   -103     18    116    118 206.7   8.9  33974  286.42 0862.93
2015 04 09 12 55 28 .25     -50    -91      5    105    106 209.0   2.9  33944  285.93 0862.93
2015 04 09 12 55 28 .51     -44    -93     28    103    107 205.3  15.3  33990  286.69 0862.93
2015 04 09 12 55 28 .75     -53    -86     19    102    104 211.6  11.0  33940  285.85 0862.93
2015 04 09 12 55 29 .00     -35    -89    -12     96     97 201.4  -7.2  33922  285.56 0862.93
2015 04 09 12 55 29 .25     -42    -86    -28     96    100 206.3 -21.2  33914  285.43 0862.93
2015 04 09 12 55 29 .50     -50    -79    -20     94     97 212.1 -12.4  33924  285.58 0862.93
2015 04 09 12 55 29 .75     -30    -72    -14     79     81 202.7 -10.3  33930  285.68 0862.93
2015 04 09 12 55 30 .00     -29    -74      5     80     81 201.9   3.8  33934  285.76 0862.93
2015 04 09 12 55 30 .26     -30    -90     10     96     97 198.7   6.5  33922  285.55 0862.93
2015 04 09 12 55 30 .50     -29    -88      4     93     94 198.7   2.9  33928  285.66 0862.93
2015 04 09 12 55 30 .75     -48    -75     -2     90     91 213.0  -1.8  33934  285.75 0862.93
2015 04 09 12 55 31 .01     -62    -95     22    114    117 213.0  11.0  33964  286.27 0862.93
2015 04 09 12 55 31 .25     -58    -82    -21    101    104 215.6 -11.9  33934  285.76 0862.93
2015 04 09 12 55 31 .51     -59    -72     -8     94     95 219.6  -5.2  33954  286.08 0862.93
2015 04 09 12 55 31 .77     -65    -65      0     92     93 225.0  -0.3  33962  286.24 0862.93
2015 04 09 12 55 32 .02     -65    -66    -11     93     94 224.7  -7.2  33952  286.07 0862.93
2015 04 09 12 55 32 .27     -61    -67     -8     91     92 222.3  -5.6  33964  286.27 0862.93
2015 04 09 12 55 32 .51     -56    -67     -4     88     89 219.6  -3.1  33948  286.00 0862.93
2015 04 09 12 55 32 .77     -56    -67      0     88     89 219.6   0.2  33946  285.97 0862.93
2015 04 09 12 55 33 .02     -58    -63      0     86     87 222.8   0.2  33940  285.85 0862.93
2015 04 09 12 55 33 .27     -49    -59     -5     77     78 219.7  -4.1  33934  285.76 0862.93
2015 04 09 12 55 33 .52     -39    -56    -16     69     71 215.2 -13.4  33932  285.71 0862.93
2015 04 09 12 55 33 .77     -40    -55     -8     69     70 216.0  -7.3  33930  285.70 0862.93
2015 04 09 12 55 34 .02     -56    -58     -3     81     82 224.1  -2.2  33926  285.63 0862.93
2015 04 09 12 55 34 .27     -51    -67     -1     85     86 217.4  -0.7  33926  285.63 0862.93
2015 04 09 12 55 34 .52     -51    -67     -1     85     86 217.0  -0.7  33940  285.85 0862.93
2015 04 09 12 55 34 .77     -50    -63     -3     81     82 218.3  -2.2  33936  285.80 0862.93
2015 04 09 12 55 35 .02     -36    -65     -9     75     76 209.0  -7.3  33938  285.82 0862.93
2015 04 09 12 55 35 .28     -41    -65     -9     78     79 212.5  -7.2  33942  285.90 0862.93
2015 04 09 12 55 35 .52     -51    -67      4     85     86 217.4   3.3  33938  285.82 0862.93
2015 04 09 12 55 35 .77     -51    -71     25     88     92 216.1  16.3  33942  285.88 0862.93
2015 04 09 12 55 36 .02     -53    -71     10     89     90 217.0   6.9  33940  285.87 0862.93
2015 04 09 12 55 36 .28     -71    -68      4     99    100 226.4   2.3  33940  285.85 0862.93
2015 04 09 12 55 36 .53     -66    -63      4     92     93 226.0   2.9  33940  285.85 0862.93
2015 04 09 12 55 36 .78     -65    -60     -6     89     90 227.3  -4.1  33932  285.71 0862.93
2015 04 09 12 55 37 .03     -71    -65    -12     97     98 227.8  -7.3  33930  285.68 0862.93
2015 04 09 12 55 37 .28     -67    -72     -3     99    100 223.2  -2.2  33938  285.82 0862.93
2015 04 09 12 55 37 .53     -78    -57     -3     97     98 233.6  -2.2  33940  285.85 0862.93
2015 04 09 12 55 37 .78     -60    -52     -3     80     81 228.7  -2.2  33960  286.19 0862.93
2015 04 09 12 55 38 .03     -57    -47    -12     75     77 230.4  -9.3  33942  285.90 0862.93
2015 04 09 12 55 38 .28     -53    -48      4     72     73 227.8   3.8  33966  286.30 0862.93
2015 04 09 12 55 38 .53     -47    -52     -2     71     72 222.3  -2.2  33942  285.88 0862.93
2015 04 09 12 55 38 .80     -47    -36      5     60     61 232.2   4.9  33964  286.27 0862.93
2015 04 09 12 55 39 .05     -48    -45      6     67     68 226.9   5.9  33972  286.41 0862.93
2015 04 09 12 55 39 .29     -41    -43      1     60     61 224.1   1.8  33966  286.30 0862.93
2015 04 09 12 55 39 .54     -47    -40      3     63     64 229.6   2.8  33972  286.41 0862.93
2015 04 09 12 55 39 .79     -28    -28     -1     41     42 225.0  -2.2  33956  286.12 0862.93
2015 04 09 12 55 40 .05     -42    -26     -1     50     51 237.5  -2.2  33954  286.08 0862.93
2015 04 09 12 55 40 .30     -31    -40      8     51     52 217.8   9.0  33962  286.24 0862.93
2015 04 09 12 55 40 .55     -31    -48      7     58     59 212.5   7.1  33976  286.46 0862.93
2015 04 09 12 55 40 .80     -15    -41      2     44     45 200.9   2.8  33968  286.32 0862.93
2015 04 09 12 55 41 .05     -16    -16      8     24     26 225.0  18.9  33978  286.51 0862.93
2015 04 09 12 55 41 .30     -24    -12      1     28     29 242.9   2.8  33974  286.42 0862.93
2015 04 09 12 55 41 .55     -30    -30     14     43     46 225.0  18.9  33968  286.32 0862.93
2015 04 09 12 55 41 .80     -40    -35      2     54     55 228.7   2.9  33956  286.12 0862.93
2015 04 09 12 55 42 .05     -28    -35    -10     45     47 218.7 -13.4  33944  285.93 0862.93
2015 04 09 12 55 42 .30     -22    -44      1     50     51 207.2   1.8  33940  285.85 0862.93
2015 04 09 12 55 42 .55     -17    -36     -1     40     41 205.5  -2.2  33944  285.93 0862.93
2015 04 09 12 55 42 .81     -24    -50     -2     56     57 206.3  -2.2  33976  286.46 0862.93
2015 04 09 12 55 43 .05     -32    -45      2     56     57 215.2   2.9  33964  286.25 0862.93
2015 04 09 12 55 43 .30     -31    -48      0     58     59 212.6  -0.3  33946  285.95 0862.93
2015 04 09 12 55 43 .55     -29    -51     -3     59     60 209.9  -3.1  33948  286.00 0862.93
2015 04 09 12 55 43 .80     -31    -48      0     58     59 212.5   0.8  33942  285.90 0862.93
2015 04 09 12 55 44 .05     -40    -48      3     63     64 219.6   2.9  33942  285.90 0862.93
2015 04 09 12 55 44 .30     -40    -31     -2     51     52 232.2  -2.2  33940  285.87 0862.93
2015 04 09 12 55 44 .55     -49    -16     -2     52     53 251.6  -3.1  33934  285.75 0862.93
2015 04 09 12 55 44 .80     -68    -23     -9     72     73 250.9  -7.3  33932  285.73 0862.93
2015 04 09 12 55 45 .06     -66    -34     -9     75     76 242.9  -7.3  33938  285.82 0862.93
2015 04 09 12 55 45 .31     -67    -45    -14     81     83 235.8  -9.8  33942  285.90 0862.93
2015 04 09 12 55 45 .56     -65    -53     -1     85     86 230.9  -0.7  33942  285.90 0862.93
2015 04 09 12 55 45 .82     -71    -45      4     85     86 237.6   2.9  33942  285.90 0862.93
2015 04 09 12 55 46 .07     -58    -41    -21     72     76 234.9 -16.6  33954  286.08 0862.93
2015 04 09 12 55 46 .32     -38    -52    -13     65     67 216.1 -11.5  33958  286.17 0862.93
2015 04 09 12 55 46 .57     -22    -41    -21     47     51 208.1 -30.6  33950  286.02 0862.93
2015 04 09 12 55 46 .82     -23    -45    -23     51     55 207.2 -30.6  33948  286.00 0862.93
2015 04 09 12 55 47 .07     -29    -40    -13     50     52 216.1 -14.5  33948  286.00 0862.93
2015 04 09 12 55 47 .32     -43    -63     -1     77     78 214.3  -1.2  33954  286.10 0862.93
2015 04 09 12 55 47 .57     -39    -55     -2     68     69 216.0  -2.2  33954  286.08 0862.93
2015 04 09 12 55 47 .82     -41    -65     -9     78     79 212.5  -7.2  33942  285.90 0862.93
2015 04 09 12 55 48 .08     -43    -68     -3     81     82 212.5  -2.2  33946  285.95 0862.93
2015 04 09 12 55 48 .33     -51    -67     -7     85     86 217.4  -5.2  33950  286.02 0862.93
2015 04 09 12 55 48 .58     -51    -67      0     85     86 217.0  -0.3  33974  286.42 0862.93
2015 04 09 12 55 48 .82     -50    -60     14     79     81 219.7  10.6  33984  286.59 0862.93
2015 04 09 12 55 49 .08     -43    -65      0     79     80 213.4  -0.3  33972  286.39 0862.93
2015 04 09 12 55 49 .34     -25    -54     21     60     64 205.4  19.4  33990  286.69 0862.93
2015 04 09 12 55 49 .58     -21    -48     32     53     61 204.5  34.4  34028  287.35 0862.93
2015 04 09 12 55 49 .82     -22    -41     24     47     52 208.1  28.2  33992  286.74 0862.93
2015 04 09 12 55 50 .08     -32    -50     21     60     64 212.6  19.4  33992  286.74 0862.93
2015 04 09 12 55 50 .33     -32    -34     14     47     50 223.2  16.3  33984  286.61 0862.93
2015 04 09 12 55 50 .58     -21    -38     12     44     46 209.0  15.3  33974  286.42 0862.93
2015 04 09 12 55 50 .83     -21    -40      3     46     47 208.1   3.8  33968  286.34 0862.92
2015 04 09 12 55 51 .08     -32    -43      4     54     55 217.0   4.9  33984  286.59 0862.92
2015 04 09 12 55 51 .34     -21    -46     11     51     53 204.5  12.2  33980  286.54 0862.92
2015 04 09 12 55 51 .59     -19    -23     10     30     32 219.6  19.4  34006  286.98 0862.92
2015 04 09 12 55 51 .83      -8    -20      9     22     23 203.6  21.0  34010  287.03 0862.92
2015 04 09 12 55 52 .08      -7    -15     18     17     24 205.4  48.2  34028  287.35 0862.92
2015 04 09 12 55 52 .34      -9    -12     23     16     28 216.1  62.6  34060  287.89 0862.92
2015 04 09 12 55 52 .58     -20    -14     21     25     32 234.0  43.8  34062  287.91 0862.92
2015 04 09 12 55 52 .84     -36     -3      1     37     38 263.9   2.8  34030  287.38 0862.92
2015 04 09 12 55 53 .10     -44    -22      2     50     51 242.9   2.9  34014  287.10 0862.92
2015 04 09 12 55 53 .34     -41     -9     14     43     46 257.6  18.9  33990  286.71 0862.92
2015 04 09 12 55 53 .60     -38    -12     -4     40     41 251.8  -6.2  33944  285.93 0862.92
2015 04 09 12 55 53 .85     -37    -17     -9     41     42 244.6 -12.4  33948  285.98 0862.92
2015 04 09 12 55 54 .09     -24    -14    -10     29     30 239.3 -23.6  33948  286.00 0862.92
2015 04 09 12 55 54 .35     -29    -14    -14     33     35 244.8 -27.4  33956  286.12 0862.92
2015 04 09 12 55 54 .60     -27    -18    -18     33     37 235.8 -35.8  33958  286.17 0862.92
2015 04 09 12 55 54 .85     -10    -32    -18     34     38 198.3 -33.7  33948  286.00 0862.92
2015 04 09 12 55 55 .10     -35    -41    -21     54     57 220.5 -25.4  33944  285.92 0862.92
2015 04 09 12 55 55 .35     -28    -35    -21     46     50 218.7 -31.5  33944  285.92 0862.92
2015 04 09 12 55 55 .60     -30    -23    -23     39     45 232.2 -38.8  33954  286.10 0862.92
2015 04 09 12 55 55 .85     -43    -36    -21     57     60 230.4 -25.4  33960  286.19 0862.92
2015 04 09 12 55 56 .10     -36    -50    -28     62     68 216.1 -30.6  33954  286.10 0862.92
2015 04 09 12 55 56 .35     -35    -56    -34     67     75 212.5 -32.6  33950  286.03 0862.92
2015 04 09 12 55 56 .60     -43    -53    -34     69     76 218.7 -31.7  33966  286.29 0862.92
2015 04 09 12 55 56 .85     -43    -48    -24     65     69 222.3 -24.4  33966  286.29 0862.92
2015 04 09 12 55 57 .10     -21    -58    -48     62     78 200.0 -46.6  33966  286.29 0862.92
2015 04 09 12 55 57 .36      -1    -67    -54     68     86 180.9 -47.1  33984  286.59 0862.92
2015 04 09 12 55 57 .60       0    -44    -48     45     65 180.0 -56.5  33988  286.66 0862.92
2015 04 09 12 55 57 .86      20    -46    -25     51     56 156.4 -31.7  33988  286.66 0862.92
2015 04 09 12 55 58 .11      30    -48    -11     57     59 147.4 -11.3  34004  286.93 0862.92
2015 04 09 12 55 58 .36      16    -59      7     62     63 164.9   6.9  33984  286.61 0862.92
2015 04 09 12 55 58 .60       1    -44     22     45     50 178.2  27.3  33982  286.56 0862.92
2015 04 09 12 55 58 .86       4    -40     17     41     44 173.8  23.0  33982  286.56 0862.93
2015 04 09 12 55 59 .11      10    -45     18     47     50 166.6  21.0  33978  286.51 0862.93
2015 04 09 12 55 59 .37       4    -39     11     40     42 173.8  16.3  33998  286.84 0862.93
2015 04 09 12 55 59 .62      -4    -20     27     21     34 193.4  56.4  34004  286.93 0862.93
2015 04 09 12 55 59 .87     -24    -25     14     35     37 223.4  21.0  34022  287.25 0862.93
2015 04 09 12 56 00 .12     -28    -28      3     41     42 225.0   4.9  34032  287.42 0862.93
2015 04 09 12 56 00 .37     -19    -14     13     24     27 234.0  31.4  34028  287.35 0862.93
2015 04 09 12 56 00 .62      -9    -12      9     16     18 216.1  31.4  34042  287.57 0862.93
2015 04 09 12 56 00 .87      -9    -12     16     16     22 216.1  50.1  34040  287.54 0862.93
2015 04 09 12 56 01 .13     -13     -8     20     16     25 237.5  56.4  34052  287.76 0862.93
2015 04 09 12 56 01 .37     -21      5     32     22     38 285.1  62.6  34060  287.89 0862.93
2015 04 09 12 56 01 .62     -42     16     19     46     49 291.7  23.0  34050  287.72 0862.93
2015 04 09 12 56 01 .88     -19     17      0     26     27 311.3   0.8  34040  287.55 0862.93
2015 04 09 12 56 02 .13     -10      0      0     11     12 269.2  -2.2  34054  287.77 0862.93
2015 04 09 12 56 02 .38     -25     21     21     33     39 309.6  35.5  34062  287.91 0862.93
2015 04 09 12 56 02 .63     -23      7      8     25     27 288.4  19.2  34080  288.21 0862.92
2015 04 09 12 56 02 .88      -6     10      0     13     14 327.5  -3.1  34072  288.08 0862.92
2015 04 09 12 56 03 .13     -22      1      2     23     24 272.6   4.9  34030  287.38 0862.92
2015 04 09 12 56 03 .38     -43      0    -15     44     47 270.8 -18.7  34022  287.25 0862.92
2015 04 09 12 56 03 .64     -33    -40     -3     52     53 219.6  -4.1  34054  287.77 0862.92
2015 04 09 12 56 03 .88      -9     -5     36     11     37 241.1  80.7  34086  288.31 0862.92
2015 04 09 12 56 04 .13     -14    -19     26     24     35 216.1  50.1  34100  288.55 0862.92
2015 04 09 12 56 04 .38     -40    -17     28     44     52 246.5  35.5  34088  288.36 0862.93
2015 04 09 12 56 04 .63     -41     -5     -2     42     43 263.0  -3.1  34034  287.43 0862.93
2015 04 09 12 56 04 .88     -38    -12      8     40     41 251.8  12.2  34026  287.30 0862.93
2015 04 09 12 56 05 .14     -57    -18     -3     60     61 251.8  -3.1  34022  287.23 0862.93
2015 04 09 12 56 05 .39     -61    -50     -3     80     81 230.5  -2.2  34064  287.96 0862.93
2015 04 09 12 56 05 .64     -75    -35     -1     83     84 244.8  -0.7  34090  288.40 0862.93
2015 04 09 12 56 05 .88     -48    -51     61     71     93 223.2  45.4  34094  288.45 0862.93
2015 04 09 12 56 06 .14     -41    -37     45     56     71 227.8  43.7  34114  288.79 0862.93
2015 04 09 12 56 06 .38     -13    -13     45     19     48 223.4  77.1  34120  288.91 0862.92
2015 04 09 12 56 06 .65       3    -12     23     13     26 164.9  66.8  34096  288.48 0862.92
2015 04 09 12 56 06 .89     -13     -8     20     16     25 237.5  56.4  34094  288.45 0862.92
2015 04 09 12 56 07 .15     -23    -26      9     35     37 221.4  15.3  34086  288.31 0862.92
2015 04 09 12 56 07 .40     -28    -37     45     47     65 217.0  49.0  34114  288.79 0862.92
2015 04 09 12 56 07 .65     -33    -45     34     56     65 216.1  35.5  34088  288.35 0862.92
2015 04 09 12 56 07 .90     -26    -26     31     37     48 225.0  45.8  34102  288.60 0862.92
2015 04 09 12 56 08 .14     -71      5    -28     72     77 274.4 -26.4  34056  287.81 0862.92
2015 04 09 12 56 08 .41     -41     16     -9     45     46 291.7 -11.3  34048  287.67 0862.92
2015 04 09 12 56 08 .66     -18    -45     27     49     55 202.7  32.4  34108  288.69 0862.92
2015 04 09 12 56 08 .90     -21      0     32     22     38 267.4  62.6  34162  289.60 0862.92
2015 04 09 12 56 09 .15     -36      8     36     38     52 283.3  50.0  34174  289.82 0862.92
2015 04 09 12 56 09 .40     -32     -6     -9     33     35 258.5 -15.5  34086  288.31 0862.92
2015 04 09 12 56 09 .66     -13    -27     10     31     33 205.5  18.9  34112  288.77 0862.92
2015 04 09 12 56 09 .90     -51    -12     -4     53     54 255.8  -5.2  34042  287.57 0862.92
2015 04 09 12 56 10 .16     -93    -30     -6     98     99 251.8  -3.7  33976  286.46 0862.92
2015 04 09 12 56 10 .40    -103    -85     -5    134    135 230.4  -2.2  33944  285.92 0862.92
2015 04 09 12 56 10 .67     -89    -84    -15    123    125 226.8  -7.3  33946  285.97 0862.92
2015 04 09 12 56 10 .91    -121    -69     -7    140    141 240.2  -3.2  33982  286.56 0862.92
2015 04 09 12 56 11 .16    -136    -49    -18    145    147 250.1  -7.3  33964  286.25 0862.92
2015 04 09 12 56 11 .41    -118    -56      6    131    132 244.6   2.9  33984  286.59 0862.92
2015 04 09 12 56 11 .66     -97    -70     -2    120    121 234.0  -1.3  33968  286.32 0862.92
2015 04 09 12 56 11 .91    -116    -69      1    136    137 239.3   0.8  33958  286.17 0862.92
2015 04 09 12 56 12 .16     -93    -76     -2    121    122 230.5  -1.3  33954  286.10 0862.92
2015 04 09 12 56 12 .42     -86    -59     -3    105    106 235.4  -1.8  33990  286.71 0862.92
2015 04 09 12 56 12 .66     -74    -69     17    102    104 226.8   9.5  34016  287.15 0862.92
2015 04 09 12 56 12 .91     -52    -94     24    108    111 209.0  12.6  34036  287.47 0862.92
2015 04 09 12 56 13 .16     -55   -105     31    119    124 207.6  14.7  34014  287.10 0862.92
2015 04 09 12 56 13 .42     -57   -108     21    123    125 208.1  10.1  33998  286.84 0862.92
2015 04 09 12 56 13 .67     -69    -87     53    112    123 218.3  27.1  34000  286.88 0862.92
2015 04 09 12 56 13 .92     -59    -88    -23    107    110 213.8 -12.4  33960  286.19 0862.92
2015 04 09 12 56 14 .17     -43    -76    -20     88     91 209.4 -12.9  33948  286.00 0862.92
2015 04 09 12 56 14 .43     -38    -85    -13     94     95 204.5  -8.2  33954  286.10 0862.92
2015 04 09 12 56 14 .68     -35    -90    -19     97     99 201.4 -11.3  33956  286.12 0862.92
2015 04 09 12 56 14 .92     -42    -91    -20    101    104 204.9 -11.3  33956  286.12 0862.92
2015 04 09 12 56 15 .18     -37    -93    -13    101    102 201.8  -7.7  33956  286.12 0862.92
2015 04 09 12 56 15 .43     -41    -80    -25     91     95 207.2 -15.5  33962  286.22 0862.93
2015 04 09 12 56 15 .68     -42    -75     -3     87     88 209.4  -2.6  33968  286.32 0862.93
2015 04 09 12 56 15 .93     -31    -81    -12     87     88 200.9  -8.2  33964  286.27 0862.93
2015 04 09 12 56 16 .18     -51    -76      0     92     93 213.8  -0.3  33964  286.27 0862.93
2015 04 09 12 56 16 .43     -51    -77     -1     93     94 213.4  -0.7  33958  286.17 0862.93
2015 04 09 12 56 16 .69     -43    -86    -12     97     98 206.7  -7.2  33972  286.39 0862.93
2015 04 09 12 56 16 .93     -44    -73     -7     86     87 211.2  -5.2  33984  286.61 0862.93
2015 04 09 12 56 17 .18     -60    -75     -3     97     98 218.7  -2.2  33960  286.19 0862.92
2015 04 09 12 56 17 .43     -55    -75      2     94     95 216.5   1.8  33970  286.35 0862.92
2015 04 09 12 56 17 .68     -69    -81     -4    107    108 220.5  -2.2  33978  286.51 0862.92
2015 04 09 12 56 17 .93     -59    -81     -5    101    102 216.1  -3.2  33978  286.51 0862.92
2015 04 09 12 56 18 .18     -60    -84     -4    104    105 215.6  -2.2  33978  286.51 0862.92
2015 04 09 12 56 18 .44     -53    -63     19     83     86 220.5  13.2  34004  286.94 0862.92
2015 04 09 12 56 18 .69     -72    -61      3     95     96 230.0   2.3  33984  286.61 0862.92
2015 04 09 12 56 18 .93     -67    -71     11     98     99 223.2   6.5  33966  286.30 0862.92
2015 04 09 12 56 19 .18     -77    -64      7    101    102 230.0   4.4  33948  286.00 0862.92
2015 04 09 12 56 19 .44     -84    -77     15    115    116 227.3   7.5  33960  286.19 0862.92
2015 04 09 12 56 19 .69    -104    -50     -2    116    117 244.2  -1.3  33970  286.37 0862.92
2015 04 09 12 56 19 .94    -104    -65     -5    123    124 238.0  -2.6  33970  286.37 0862.92
2015 04 09 12 56 20 .19    -107    -88      4    139    140 230.5   1.8  33968  286.34 0862.92
2015 04 09 12 56 20 .45    -112    -97     -4    149    150 229.1  -1.8  33962  286.24 0862.92
2015 04 09 12 56 20 .70    -100    -94      1    138    139 226.9   0.8  33974  286.42 0862.92
2015 04 09 12 56 20 .96     -82    -82     23    117    120 225.0  11.1  33996  286.79 0862.92
2015 04 09 12 56 21 .20    -101    -65     19    121    123 237.1   8.9  34016  287.13 0862.92
2015 04 09 12 56 21 .45    -102    -62    -10    120    121 238.9  -5.1  33970  286.37 0862.92
2015 04 09 12 56 21 .70    -129    -60    -18    143    145 244.8  -7.3  33962  286.24 0862.92
2015 04 09 12 56 21 .95    -130    -49     -7    140    141 249.2  -3.2  33972  286.41 0862.92
2015 04 09 12 56 22 .21    -114    -41    -15    122    123 250.1  -7.3  33968  286.32 0862.92
2015 04 09 12 56 22 .45     -90    -52     -8    105    106 239.8  -4.6  33988  286.66 0862.92
2015 04 09 12 56 22 .70    -108    -66     -4    127    128 238.5  -2.2  33986  286.62 0862.92
2015 04 09 12 56 22 .96    -102    -81      4    131    132 231.4   1.8  33986  286.62 0862.92
2015 04 09 12 56 23 .21    -100    -79      1    128    129 231.8   0.7  34014  287.10 0862.92
2015 04 09 12 56 23 .45     -98    -76     -3    125    126 232.2  -1.8  34014  287.10 0862.93
2015 04 09 12 56 23 .71     -82    -61     -6    103    104 233.1  -3.7  34000  286.88 0862.93
2015 04 09 12 56 23 .95    -108    -92      7    143    144 229.6   2.8  33956  286.14 0862.93
2015 04 09 12 56 24 .21    -112    -83     -5    140    141 233.6  -2.2  33944  285.92 0862.93
2015 04 09 12 56 24 .46    -113    -72     -9    135    136 237.5  -4.1  33940  285.87 0862.93
2015 04 09 12 56 24 .71    -108    -66    -11    127    128 238.5  -5.2  33942  285.90 0862.93
2015 04 09 12 56 24 .96    -105    -67    -16    125    127 237.6  -7.7  33944  285.92 0862.93
2015 04 09 12 56 25 .21    -108    -66    -11    127    128 238.5  -5.2  33942  285.90 0862.92
2015 04 09 12 56 25 .46    -108    -66    -11    127    128 238.5  -5.2  33942  285.90 0862.92
2015 04 09 12 56 25 .71    -103    -65     -6    122    123 237.6  -3.1  33940  285.85 0862.92
2015 04 09 12 56 25 .96     -99    -67     -4    120    121 235.8  -2.2  33940  285.87 0862.92
2015 04 09 12 56 26 .21    -106    -67     -2    126    127 237.5  -1.3  33940  285.85 0862.92
2015 04 09 12 56 26 .46    -118    -65    -22    135    137 241.1  -9.3  33940  285.85 0862.92
2015 04 09 12 56 26 .71    -115    -61    -17    131    133 242.0  -7.7  33940  285.87 0862.92
2015 04 09 12 56 26 .96    -118    -47    -11    128    129 248.3  -5.2  33942  285.90 0862.92
2015 04 09 12 56 27 .21    -118    -47    -11    128    129 248.3  -5.2  33942  285.90 0862.92
2015 04 09 12 56 27 .47    -124    -41    -11    131    132 251.6  -5.2  33940  285.85 0862.92
2015 04 09 12 56 27 .73    -119    -41    -13    126    127 250.9  -6.2  33940  285.87 0862.92
2015 04 09 12 56 27 .98    -121    -59     -2    135    136 243.8  -1.3  33940  285.85 0862.92
2015 04 09 12 56 28 .23    -133    -44     -6    141    142 251.8  -2.6  33946  285.95 0862.92
2015 04 09 12 56 28 .48    -112    -22    -36    115    121 258.5 -17.5  33940  285.85 0862.92
2015 04 09 12 56 28 .73    -104    -23    -30    107    112 257.2 -16.0  33944  285.93 0862.92
2015 04 09 12 56 28 .97     -95    -25    -28     99    104 255.0 -16.0  33940  285.85 0862.92
2015 04 09 12 56 29 .23     -89    -29    -10     94     95 251.4  -6.2  33942  285.90 0862.92
2015 04 09 12 56 29 .48     -87    -42     -9     97     98 243.8  -5.6  33936  285.80 0862.92
2015 04 09 12 56 29 .73     -77    -54     -9     95     96 234.9  -5.6  33936  285.80 0862.92
2015 04 09 12 56 29 .98     -87    -62    -13    108    109 234.5  -7.2  33948  285.98 0862.92
2015 04 09 12 56 30 .24    -112    -53    -15    125    127 244.6  -7.2  33962  286.22 0862.92
2015 04 09 12 56 30 .48    -114    -37    -24    121    124 251.8 -11.5  33964  286.27 0862.92
2015 04 09 12 56 30 .73    -110    -36    -19    116    118 251.6  -9.4  33962  286.22 0862.93
2015 04 09 12 56 30 .98    -114    -16    -27    116    120 262.0 -13.3  33956  286.14 0862.93
2015 04 09 12 56 31 .23    -103    -22    -32    106    111 257.6 -17.0  33954  286.08 0862.93
2015 04 09 12 56 31 .49    -126    -33    -16    131    133 255.0  -7.2  33958  286.17 0862.93
2015 04 09 12 56 31 .73    -136    -16    -38    138    144 263.0 -15.5  33954  286.08 0862.93
2015 04 09 12 56 31 .98    -129     -9    -37    130    135 265.7 -21.2  33948  286.00 0862.93
2015 04 09 12 56 32 .23    -125     -9    -45    126    133 265.6 -24.4  33946  285.95 0862.93
2015 04 09 12 56 32 .49    -110     -8    -52    111    122 265.6 -31.0  33944  285.93 0862.93
2015 04 09 12 56 32 .74    -108    -13    -56    109    122 263.0 -33.7  33946  285.97 0862.93
2015 04 09 12 56 32 .99     -94    -13    -56     95    110 262.1 -37.9  33950  286.03 0862.93
2015 04 09 12 56 33 .24     -85    -28    -47     90    101 251.8 -34.2  33950  286.03 0862.93
2015 04 09 12 56 33 .49     -79    -33    -41     86     95 247.4 -31.6  33952  286.05 0862.93
2015 04 09 12 56 33 .74     -84    -33    -25     91     94 248.3 -20.7  33950  286.03 0862.93
2015 04 09 12 56 33 .98     -87    -29    -15     92     94 251.4  -9.8  33948  285.98 0862.93
2015 04 09 12 56 34 .24     -98    -35    -13    105    106 250.0  -7.2  33944  285.92 0862.92
2015 04 09 12 56 34 .50    -100    -28    -11    105    106 254.1  -6.2  33946  285.95 0862.92
2015 04 09 12 56 34 .75     -94    -42    -20    104    106 245.6 -10.9  33946  285.95 0862.92
2015 04 09 12 56 35 .00     -96    -31    -10    102    103 251.8  -5.6  33946  285.95 0862.92
2015 04 09 12 56 35 .25     -90    -32    -12     96     97 250.5  -7.3  33946  285.97 0862.92
2015 04 09 12 56 35 .50     -69    -38    -21     79     82 241.1 -15.0  33954  286.08 0862.92
2015 04 09 12 56 35 .76     -63    -63     -4     90     91 225.0  -2.6  33958  286.17 0862.92
2015 04 09 12 56 36 .00     -87    -78     10    118    119 228.2   4.9  33954  286.08 0862.92
2015 04 09 12 56 36 .26     -96    -85     15    129    130 228.7   6.9  33960  286.19 0862.92
2015 04 09 12 56 36 .51    -121    -69     -3    140    141 240.2  -1.3  33962  286.22 0862.92
2015 04 09 12 56 36 .75    -106    -83      6    135    136 231.8   2.9  33980  286.54 0862.92
2015 04 09 12 56 37 .01    -112    -54     -2    125    126 244.2  -1.3  33974  286.42 0862.92
2015 04 09 12 56 37 .26    -121    -48    -14    131    132 248.2  -6.2  33956  286.14 0862.92
2015 04 09 12 56 37 .51    -120    -48    -21    130    132 248.2  -9.3  33974  286.44 0862.92
2015 04 09 12 56 37 .76     -84    -56     -5    101    102 236.3  -3.2  33994  286.78 0862.92
2015 04 09 12 56 38 .01     -85    -59     27    104    108 234.9  14.7  34032  287.40 0862.92
2015 04 09 12 56 38 .26    -107     12    -23    108    111 276.6 -12.4  34060  287.87 0862.92
2015 04 09 12 56 38 .51     -71    -33     12     79     81 244.6   9.0  34064  287.94 0862.92
2015 04 09 12 56 38 .76     -25     -8      7     27     28 251.6  15.3  34046  287.65 0862.93
2015 04 09 12 56 39 .01      -7    -17     11     19     21 201.8  33.5  34018  287.16 0862.93
2015 04 09 12 56 39 .27     -74    -47    -19     88     91 237.6 -12.4  34016  287.15 0862.93
2015 04 09 12 56 39 .51     -53     -1     -7     54     55 268.3  -7.3  34020  287.21 0862.93
2015 04 09 12 56 39 .77     -36     36     19     51     54 315.0  20.0  34058  287.84 0862.93
2015 04 09 12 56 40 .01      -8     -8     37     12     38 223.2  80.7  34102  288.60 0862.93
2015 04 09 12 56 40 .26     -22    -33     45     40     60 214.3  53.3  34130  289.06 0862.93
2015 04 09 12 56 40 .51     -42     -5     31     43     53 263.0  39.7  34110  288.74 0862.93
2015 04 09 12 56 40 .77     -42     20      1     47     48 296.2   1.8  34060  287.87 0862.93
2015 04 09 12 56 41 .02     -69    -14     -3     71     72 258.6  -3.1  34034  287.43 0862.93
2015 04 09 12 56 41 .28    -179     84    -40    198    202 295.2 -11.5  33972  286.41 0862.93
2015 04 09 12 56 41 .53    -173     81    -20    192    194 295.1  -6.0  33962  286.22 0862.93
2015 04 09 12 56 41 .78    -135     59      2    148    149 293.5   0.8  33974  286.42 0862.93
2015 04 09 12 56 42 .03    -128     42    -17    135    137 288.2  -7.2  33974  286.44 0862.93
2015 04 09 12 56 42 .28    -177     59    -21    187    189 288.4  -6.5  33962  286.24 0862.93
2015 04 09 12 56 42 .53    -165     40    -34    170    174 283.7 -11.3  33948  285.98 0862.93
2015 04 09 12 56 42 .78    -170     40    -39    175    180 283.3 -12.6  33948  285.98 0862.93
2015 04 09 12 56 43 .03    -163     34    -40    167    172 281.9 -13.7  33950  286.03 0862.93
2015 04 09 12 56 43 .28    -172     28    -49    175    182 279.2 -15.8  33962  286.24 0862.93
2015 04 09 12 56 43 .53    -172     21    -56    174    182 277.0 -23.3  33968  286.34 0862.93
2015 04 09 12 56 43 .78    -174     45    -61    180    190 284.6 -23.3  33948  285.98 0862.93
2015 04 09 12 56 44 .03    -159     44    -54    166    174 285.7 -23.8  33950  286.02 0862.93
2015 04 09 12 56 44 .28    -158     42    -52    164    172 285.0 -23.0  33950  286.03 0862.93
2015 04 09 12 56 44 .53    -154     28    -43    157    163 280.4 -15.4  33944  285.93 0862.93
2015 04 09 12 56 44 .78    -161     35    -25    165    167 282.4  -8.8  33940  285.85 0862.93
2015 04 09 12 56 45 .03    -158     27    -32    161    165 279.9 -11.3  33942  285.88 0862.93
2015 04 09 12 56 45 .29    -167     44    -37    173    178 284.8 -12.2  33946  285.95 0862.93
2015 04 09 12 56 45 .53    -164     35    -31    168    171 282.2 -10.5  33946  285.95 0862.93
2015 04 09 12 56 45 .78    -157     30    -39    160    165 281.0 -13.7  33948  285.98 0862.93
2015 04 09 12 56 46 .04    -145     24    -22    148    150 279.7  -8.8  33948  285.98 0862.93
2015 04 09 12 56 46 .29    -125     10    -21    126    128 274.8  -9.8  33940  285.87 0862.93
2015 04 09 12 56 46 .54    -121      9    -38    122    129 274.3 -17.6  33942  285.90 0862.93
2015 04 09 12 56 46 .79     -87      4    -36     88     95 273.0 -28.0  33944  285.93 0862.93
2015 04 09 12 56 47 .04     -92     24    -37     96    102 285.1 -26.4  33942  285.90 0862.93
2015 04 09 12 56 47 .29    -106     34    -15    112    114 288.2  -7.7  33940  285.87 0862.93
2015 04 09 12 56 47 .54     -78     32    -29     85     89 292.6 -23.3  33934  285.76 0862.93
2015 04 09 12 56 47 .79     -81     35    -52     89    103 293.5 -37.3  33938  285.82 0862.93
2015 04 09 12 56 48 .04     -77     41    -57     88    104 298.0 -40.0  33948  285.98 0862.93
2015 04 09 12 56 48 .30     -67     28    -51     73     89 292.6 -43.0  33950  286.03 0862.93
2015 04 09 12 56 48 .56     -53     13    -45     55     71 284.2 -48.1  33964  286.27 0862.93
2015 04 09 12 56 48 .80     -40      4    -32     41     52 277.0 -47.1  33964  286.27 0862.94
2015 04 09 12 56 49 .05     -47      8    -32     48     57 280.6 -40.0  33960  286.20 0862.94
2015 04 09 12 56 49 .30     -45     -3    -30     46     54 265.6 -40.0  33960  286.20 0862.94
2015 04 09 12 56 49 .56     -36      0    -10     37     39 270.8 -15.5  33960  286.20 0862.94
2015 04 09 12 56 49 .80     -27     -4     -2     28     29 260.3  -5.2  33960  286.20 0862.94
2015 04 09 12 56 50 .05     -22    -17     -1     29     30 232.2  -2.2  33958  286.15 0862.94
2015 04 09 12 56 50 .31     -24    -16      5     30     31 235.8  11.1  33958  286.17 0862.94
2015 04 09 12 56 50 .56     -11    -16      7     20     22 216.1  19.2  33968  286.32 0862.94
2015 04 09 12 56 50 .81      -1    -11      4     12     13 188.0  18.9  33988  286.66 0862.94
2015 04 09 12 56 51 .06       0      0     14      1     14  90.0  90.0  33994  286.78 0862.94
2015 04 09 12 56 51 .31       6    -20     14     22     26 161.5  35.5  33972  286.41 0862.94
2015 04 09 12 56 51 .56       7    -33     16     34     37 166.6  27.2  33960  286.20 0862.94
2015 04 09 12 56 51 .82       7    -33     23     34     41 166.6  37.6  33966  286.29 0862.94
2015 04 09 12 56 52 .06       2    -27     29     28     40 175.6  50.1  34028  287.33 0862.94
2015 04 09 12 56 52 .32       7     -2     42      8     42 108.4  90.0  34124  288.97 0862.94
2015 04 09 12 56 52 .56      15     -9     48     18     51 122.4  79.2  34144  289.30 0862.94
2015 04 09 12 56 52 .82      19     -7     46     21     50 111.7  73.1  34118  288.86 0862.94
2015 04 09 12 56 53 .07      -4    -12     41     13     43 198.3  80.7  34140  289.23 0862.94
2015 04 09 12 56 53 .31      -8    -12     55     15     57 212.5  83.9  34098  288.52 0862.93
2015 04 09 12 56 53 .57      -8    -20     43     22     48 203.6  70.8  34090  288.38 0862.93
2015 04 09 12 56 53 .82       0    -16     46     17     49 182.7  81.2  34108  288.70 0862.93
2015 04 09 12 56 54 .06      -4    -20     54     21     57 193.4  79.2  34130  289.06 0862.93
2015 04 09 12 56 54 .31     -20    -16     45     26     51 230.5  67.7  34060  287.89 0862.93
2015 04 09 12 56 54 .57      -9    -12     43     16     45 216.1  80.2  34078  288.20 0862.93
2015 04 09 12 56 54 .82      -1    -21     44     22     49 184.5  72.8  34098  288.52 0862.93
2015 04 09 12 56 55 .07     -15    -27     52     31     60 209.0  66.8  34090  288.40 0862.93
2015 04 09 12 56 55 .33     -40    -30     56     51     75 233.1  52.2  34080  288.23 0862.93
2015 04 09 12 56 55 .58     -38    -30     56     49     74 231.4  54.3  34102  288.60 0862.93
2015 04 09 12 56 55 .83     -40    -48     47     63     78 219.6  41.2  34100  288.55 0862.93
2015 04 09 12 56 56 .08     -47    -34     43     59     73 234.0  39.7  34064  287.96 0862.93
2015 04 09 12 56 56 .33     -40    -39     34     57     66 225.9  34.4  34056  287.81 0862.93
2015 04 09 12 56 56 .59     -43    -52     38     68     77 219.6  31.4  34002  286.91 0862.93
2015 04 09 12 56 56 .83     -41    -36     32     55     63 228.7  32.4  34016  287.15 0862.93
2015 04 09 12 56 57 .08     -47    -44     33     65     72 226.8  28.2  34018  287.16 0862.93
2015 04 09 12 56 57 .34     -43    -29     25     53     58 235.8  27.1  34052  287.76 0862.93
2015 04 09 12 56 57 .59     -40    -37     37     55     66 226.9  36.5  34076  288.14 0862.93
2015 04 09 12 56 57 .84     -32    -38     17     50     54 220.5  19.2  34094  288.47 0862.93
2015 04 09 12 56 58 .09     -43    -29     25     53     58 235.8  27.1  34094  288.45 0862.93
2015 04 09 12 56 58 .34     -30    -30     14     43     46 225.0  18.9  34110  288.72 0862.93
2015 04 09 12 56 58 .58     -26    -32     -1     42     43 219.6  -2.2  34098  288.53 0862.93
2015 04 09 12 56 58 .83     -60      4    -11     61     63 274.4 -10.3  34072  288.09 0862.93
2015 04 09 12 56 59 .08     -69     -5     -9     70     71 265.7  -7.3  33960  286.19 0862.93
2015 04 09 12 56 59 .34     -65     -4    -18     66     69 266.5 -15.5  33962  286.22 0862.93
2015 04 09 12 56 59 .59     -60      0    -18     61     63 270.0 -21.7  33964  286.27 0862.93
2015 04 09 12 56 59 .84     -76     -8    -10     77     78 263.9  -7.7  33982  286.56 0862.93
2015 04 09 12 57 00 .09     -71      5    -25     72     77 274.3 -19.1  33966  286.29 0862.93
2015 04 09 12 57 00 .34     -73     12    -18     75     78 279.7 -13.4  33968  286.32 0862.93
2015 04 09 12 57 00 .59     -70     35     -5     79     80 297.1  -4.1  33968  286.34 0862.93
2015 04 09 12 57 00 .84     -68     48     -3     84     85 305.5  -2.2  33980  286.54 0862.93
2015 04 09 12 57 01 .09     -75     45     -3     88     89 301.1  -2.2  33984  286.59 0862.93
2015 04 09 12 57 01 .34     -75     39    -23     85     89 298.0 -15.0  33976  286.46 0862.93
2015 04 09 12 57 01 .59     -74     36    -18     83     86 295.8 -12.4  33982  286.57 0862.92
2015 04 09 12 57 01 .84     -84     31    -11     90     91 290.8  -7.3  33984  286.61 0862.92
2015 04 09 12 57 02 .09     -82     39    -11     92     93 295.8  -7.3  33978  286.51 0862.92
2015 04 09 12 57 02 .35     -69     27    -20     75     78 291.7 -15.5  33988  286.66 0862.92
2015 04 09 12 57 02 .61     -98      0    -14     99    101 269.6  -8.2  33984  286.59 0862.92
2015 04 09 12 57 02 .85     -79    -21      0     82     83 254.5  -0.3  33980  286.52 0862.92
2015 04 09 12 57 03 .11     -65     -4      8     66     67 265.7   6.9  33978  286.51 0862.92
2015 04 09 12 57 03 .36     -53      8    -17     54     57 278.8 -17.6  33984  286.59 0862.92
2015 04 09 12 57 03 .61     -46     16     -8     49     50 289.1  -9.3  34002  286.89 0862.92
2015 04 09 12 57 03 .86       4     12     19     13     23  18.7  60.5  34034  287.45 0862.92
2015 04 09 12 57 04 .11     -11      0     20     12     23 269.2  66.8  34058  287.86 0862.92
2015 04 09 12 57 04 .36     -28     31     17     43     46 317.7  22.0  34070  288.04 0862.92
2015 04 09 12 57 04 .61    -118     48    -16    128    130 292.2  -7.3  33970  286.37 0862.92
2015 04 09 12 57 04 .86     -99     34    -36    105    112 289.1 -19.1  33960  286.20 0862.92
2015 04 09 12 57 05 .11     -93     47    -34    105    111 297.1 -18.1  33940  285.85 0862.92
2015 04 09 12 57 05 .36    -107     55    -34    121    126 297.1 -16.0  33946  285.95 0862.92
2015 04 09 12 57 05 .62    -109     51    -38    121    127 295.3 -17.5  33944  285.92 0862.92
2015 04 09 12 57 05 .86    -119     62    -44    135    143 297.5 -18.1  33962  286.24 0862.92
2015 04 09 12 57 06 .11    -125     54    -40    137    143 293.6 -16.6  33970  286.37 0862.92
2015 04 09 12 57 06 .36    -121     40    -36    128    132 288.4 -20.7  33970  286.37 0862.92
2015 04 09 12 57 06 .61    -124     29    -38    128    133 283.3 -21.7  33972  286.41 0862.92
2015 04 09 12 57 06 .87    -153     59    -45    165    171 291.3 -20.0  33976  286.47 0862.92
2015 04 09 12 57 07 .11    -136     59    -58    149    159 293.5 -26.4  33974  286.44 0862.92
2015 04 09 12 57 07 .37    -142     53    -56    152    161 290.8 -25.4  33978  286.51 0862.92
2015 04 09 12 57 07 .62    -120     50    -47    131    140 292.6 -19.7  33986  286.64 0862.92
2015 04 09 12 57 07 .87    -149     69    -45    165    171 294.8 -20.0  33992  286.74 0862.92
2015 04 09 12 57 08 .12    -122     77    -45    145    151 302.4 -22.8  33996  286.79 0862.92
2015 04 09 12 57 08 .37    -126     17    -74    128    147 277.9 -37.3  33984  286.61 0862.92
2015 04 09 12 57 08 .62    -134     12    -54    135    145 275.2 -27.4  33976  286.47 0862.92
2015 04 09 12 57 08 .87    -104     26    -57    108    122 284.2 -34.2  33980  286.52 0862.92
2015 04 09 12 57 09 .13    -103     42    -40    112    120 292.2 -19.7  33980  286.54 0862.92
2015 04 09 12 57 09 .38    -101     36    -43    108    116 289.5 -27.4  33982  286.56 0862.92
2015 04 09 12 57 09 .63    -102     44    -19    112    114 293.5  -9.8  33976  286.47 0862.92
2015 04 09 12 57 09 .88    -101     40    -14    109    110 291.7  -7.7  33976  286.46 0862.92
2015 04 09 12 57 10 .13    -110     20    -30    112    116 280.6 -15.0  33974  286.42 0862.92
2015 04 09 12 57 10 .38    -159     24    -22    161    163 278.6  -8.0  33976  286.46 0862.92
2015 04 09 12 57 10 .64    -132     24    -22    135    137 280.6  -9.4  33982  286.56 0862.92
2015 04 09 12 57 10 .89    -101     16     -2    103    104 279.2  -1.3  34004  286.93 0862.92
2015 04 09 12 57 11 .13     -90    -17     -3     92     93 259.0  -2.2  34008  287.01 0862.92
2015 04 09 12 57 11 .39    -100     -7     -5    101    102 265.6  -3.2  34000  286.88 0862.91
2015 04 09 12 57 11 .64     -43    -27     27     51     57 237.5  30.3  34010  287.05 0862.91
2015 04 09 12 57 11 .88    -101      3    -19    102    104 272.1 -10.9  33984  286.59 0862.91
2015 04 09 12 57 12 .14    -118     24    -21    121    123 281.5 -10.3  33988  286.66 0862.91
2015 04 09 12 57 12 .39    -119     47     -2    129    130 291.7  -1.2  34002  286.89 0862.92
2015 04 09 12 57 12 .64    -116     39    -38    123    129 288.6 -17.5  33988  286.67 0862.92
2015 04 09 12 57 12 .89    -139     36    -43    144    151 284.6 -16.6  33992  286.73 0862.92
2015 04 09 12 57 13 .14    -133     58    -40    146    152 293.6 -15.5  33990  286.69 0862.92
2015 04 09 12 57 13 .39    -132     53    -41    143    148 291.8 -20.7  33992  286.74 0862.92
2015 04 09 12 57 13 .64    -137     45    -45    145    151 288.4 -22.8  33992  286.74 0862.92
2015 04 09 12 57 13 .89    -110     80    -60    137    149 306.0 -29.6  34004  286.93 0862.92
2015 04 09 12 57 14 .14    -108     69    -52    129    139 302.4 -27.4  34000  286.88 0862.92
2015 04 09 12 57 14 .39    -112     52    -70    124    142 295.2 -35.8  34016  287.13 0862.92
2015 04 09 12 57 14 .65    -110     52    -78    122    144 295.3 -40.0  34018  287.18 0862.92
2015 04 09 12 57 14 .90     -84     53    -83    100    129 302.4 -48.2  34036  287.47 0862.92
2015 04 09 12 57 15 .15    -114     21    -90    116    146 280.6 -46.6  34012  287.06 0862.92
2015 04 09 12 57 15 .40     -68     65    -67     95    116 313.6 -43.0  34058  287.86 0862.92
2015 04 09 12 57 15 .64     -62     51    -49     81     94 309.5 -39.4  34050  287.72 0862.92
2015 04 09 12 57 15 .89     -63      4    -61     64     88 274.4 -53.8  34020  287.20 0862.92
2015 04 09 12 57 16 .16     -80     24    -57     84    101 287.3 -42.0  34006  286.98 0862.92
2015 04 09 12 57 16 .41    -107     22    -19    110    112 281.9  -9.8  33998  286.84 0862.92
2015 04 09 12 57 16 .66    -126      1    -25    127    130 270.8 -11.3  34006  286.96 0862.92
2015 04 09 12 57 16 .91    -133     25    -17    136    138 281.0  -7.2  34008  287.01 0862.92
2015 04 09 12 57 17 .16     -97     32    -48    103    113 288.6 -31.5  34006  286.98 0862.92
2015 04 09 12 57 17 .41     -99     17    -23    101    104 279.7 -12.9  34012  287.06 0862.92
2015 04 09 12 57 17 .66    -121      5    -16    122    124 272.6  -7.7  34026  287.30 0862.92
2015 04 09 12 57 17 .91    -103     -3    -21    104    107 268.3 -11.5  34022  287.23 0862.92
2015 04 09 12 57 18 .16     -98     25    -31    102    107 284.6 -17.0  34024  287.27 0862.92
2015 04 09 12 57 18 .41    -107     43    -18    116    118 292.2  -8.8  34022  287.25 0862.92
2015 04 09 12 57 18 .66    -113     45    -15    122    123 291.7  -7.2  34028  287.33 0862.92
2015 04 09 12 57 18 .92    -129     48     -3    138    139 290.4  -1.3  34036  287.47 0862.92
2015 04 09 12 57 19 .16    -147     25    -16    150    151 279.6  -6.2  34036  287.49 0862.92
2015 04 09 12 57 19 .41     -97     44    -21    107    110 294.8 -11.3  34028  287.35 0862.92
2015 04 09 12 57 19 .66     -78     64    -30    102    106 309.5 -21.7  34006  286.98 0862.92
2015 04 09 12 57 19 .91     -82     64    -41    105    112 308.2 -26.9  34000  286.86 0862.92
2015 04 09 12 57 20 .19     -52     46    -51     70     86 311.3 -44.1  34006  286.98 0862.92
2015 04 09 12 57 20 .42     -19     56     -7     60     61 341.3  -7.3  34024  287.28 0862.91
2015 04 09 12 57 20 .67     -22     64    -13     68     70 340.8 -11.3  34042  287.59 0862.91
2015 04 09 12 57 20 .91     -45     48    -18     67     70 316.7 -15.4  34028  287.35 0862.91
2015 04 09 12 57 21 .17     -42     50    -10     66     67 319.5  -9.3  34028  287.35 0862.91
2015 04 09 12 57 21 .42     -52     36     -1     64     65 305.1  -1.3  34032  287.40 0862.91
2015 04 09 12 57 21 .67     -60     35    -10     70     71 300.7  -8.2  34010  287.03 0862.91
2015 04 09 12 57 21 .92     -40     67     -3     79     80 329.3  -2.2  34054  287.79 0862.91
2015 04 09 12 57 22 .18     -38     83      6     92     93 335.5   3.8  34092  288.43 0862.91
2015 04 09 12 57 22 .42     -43     69     34     82     88 328.4  23.6  34140  289.24 0862.92
2015 04 09 12 57 22 .67     -32     82     25     89     93 338.6  15.8  34118  288.87 0862.92
2015 04 09 12 57 22 .92     -45    110      0    119    120 337.7  -0.3  34078  288.18 0862.92
2015 04 09 12 57 23 .18     -38    109     11    116    117 340.4   5.4  34080  288.21 0862.92
2015 04 09 12 57 23 .43     -56    130    -12    142    143 336.4  -5.2  34022  287.25 0862.92
2015 04 09 12 57 23 .68     -80    114     -2    140    141 324.8  -1.2  34020  287.21 0862.92
2015 04 09 12 57 23 .94     -64    146     -7    160    161 336.3  -2.6  34012  287.08 0862.92
2015 04 09 12 57 24 .19     -51    155     -3    164    165 341.5  -1.1  34050  287.70 0862.91
2015 04 09 12 57 24 .44     -66    167     17    180    181 338.2   5.4  34050  287.70 0862.91
2015 04 09 12 57 24 .69     -72    169    -17    184    185 336.8  -5.6  34050  287.70 0862.91
2015 04 09 12 57 24 .94     -70    194     19    207    208 340.2   5.4  34036  287.49 0862.91
2015 04 09 12 57 25 .19     -42    166      2    172    173 345.7   0.8  34044  287.60 0862.91
2015 04 09 12 57 25 .44     -26    152     61    155    166 350.3  22.8  34068  288.03 0862.91
2015 04 09 12 57 25 .69     -39    173     55    178    187 347.3  17.3  34042  287.57 0862.91
2015 04 09 12 57 25 .94     -91    239    -10    256    257 339.1  -2.2  33928  285.64 0862.91
2015 04 09 12 57 26 .19     -87    225     21    242    243 338.8   5.2  33958  286.15 0862.91
2015 04 09 12 57 26 .44     -94    227    -11    246    247 337.5  -2.6  33924  285.57 0862.91
2015 04 09 12 57 26 .69     -91    232     -9    250    251 338.4  -2.2  33920  285.51 0862.91
2015 04 09 12 57 26 .94     -98    228    -17    249    250 336.6  -3.9  33918  285.47 0862.92
2015 04 09 12 57 27 .19     -97    211     -9    233    234 335.3  -2.2  33922  285.54 0862.92
2015 04 09 12 57 27 .44     -91    207    -24    227    229 336.2  -6.2  33918  285.48 0862.92
2015 04 09 12 57 27 .70     -98    196    -39    220    224 333.5 -10.3  33920  285.53 0862.92
2015 04 09 12 57 27 .94     -85    208    -16    225    226 337.7  -4.1  33970  286.37 0862.92
2015 04 09 12 57 28 .19     -99    196    -23    220    222 333.0  -6.0  33988  286.66 0862.92
2015 04 09 12 57 28 .45     -84    236    -31    251    254 340.2  -7.2  33982  286.57 0862.92
2015 04 09 12 57 28 .69     -54    232    -21    239    240 346.7  -5.2  33976  286.47 0862.93
2015 04 09 12 57 28 .94     -57    170    -13    180    181 341.5  -4.4  33934  285.76 0862.93
2015 04 09 12 57 29 .19     -52    170     -3    178    179 342.8  -1.3  33924  285.58 0862.93
2015 04 09 12 57 29 .45     -43    157     20    163    165 344.6   7.2  33922  285.56 0862.93
2015 04 09 12 57 29 .70     -66    160     11    174    175 337.7   3.8  33926  285.63 0862.93
2015 04 09 12 57 29 .96     -62    185     15    196    197 341.5   4.4  33926  285.63 0862.93
2015 04 09 12 57 30 .21     -42    219      3    224    225 349.1   1.0  33920  285.53 0862.93
2015 04 09 12 57 30 .46     -62    203     12    213    214 343.1   3.3  33936  285.78 0862.93
2015 04 09 12 57 30 .71     -59    197     -4    206    207 343.1  -1.3  33960  286.20 0862.93
2015 04 09 12 57 30 .96     -88    195    -12    214    215 335.7  -3.3  33950  286.02 0862.93
2015 04 09 12 57 31 .21    -111    192    -28    222    224 329.9  -7.3  33936  285.80 0862.93
2015 04 09 12 57 31 .47    -106    150    -55    184    193 324.8 -16.6  33942  285.90 0862.93
2015 04 09 12 57 31 .71    -118    134    -47    179    186 318.6 -14.7  33936  285.78 0862.93
2015 04 09 12 57 31 .96    -102    145    -27    178    181 325.0  -8.8  33934  285.75 0862.93
2015 04 09 12 57 32 .21     -90    191    -29    212    215 334.7  -8.0  33950  286.03 0862.93
2015 04 09 12 57 32 .47    -103    186    -50    213    219 331.0 -13.4  33952  286.07 0862.93
2015 04 09 12 57 32 .72    -156    188    -49    245    250 320.4 -11.3  33976  286.47 0862.93
2015 04 09 12 57 32 .96    -149    192    -47    244    249 322.2 -10.9  33980  286.52 0862.93
2015 04 09 12 57 33 .22    -139    250    -36    287    290 331.0  -7.3  33974  286.42 0862.92
2015 04 09 12 57 33 .47    -168    172    -47    241    246 315.7 -11.1  33964  286.25 0862.92
2015 04 09 12 57 33 .72    -174    187    -70    256    266 317.0 -15.4  33980  286.52 0862.92
2015 04 09 12 57 33 .97    -163    170    -66    236    246 316.1 -15.8  33972  286.38 0862.92
2015 04 09 12 57 34 .22    -183    161    -77    244    257 311.3 -17.6  33922  285.54 0862.92
2015 04 09 12 57 34 .47    -148    145    -90    208    226 314.4 -29.5  33918  285.48 0862.92
2015 04 09 12 57 34 .72    -141    133    -76    194    208 313.3 -26.9  33914  285.43 0862.92
2015 04 09 12 57 34 .97    -150    136    -71    203    216 312.2 -19.4  33918  285.48 0862.92
2015 04 09 12 57 35 .23    -149    140    -55    205    213 313.3 -15.2  33926  285.63 0862.92
2015 04 09 12 57 35 .47    -150    134    -21    202    204 311.8  -6.0  33950  286.03 0862.92
2015 04 09 12 57 35 .72    -150    134    -58    202    211 311.8 -16.0  33928  285.65 0862.92
2015 04 09 12 57 35 .97    -121    120    -24    171    173 314.8  -8.0  33948  285.98 0862.92
2015 04 09 12 57 36 .22    -102     98    -33    142    146 314.0 -13.4  33950  286.03 0862.92
2015 04 09 12 57 36 .47    -100    100    -31    142    146 315.0 -12.4  33948  286.00 0862.92
2015 04 09 12 57 36 .72    -104     85    -20    135    137 309.5  -8.8  33954  286.10 0862.92
2015 04 09 12 57 36 .98     -93     93    -17    132    134 314.8  -7.3  33950  286.03 0862.92
2015 04 09 12 57 37 .23     -38    112     14    119    120 341.3   6.9  33964  286.27 0862.92
2015 04 09 12 57 37 .49     -39    119     47    126    134 341.5  20.9  33968  286.32 0862.92
2015 04 09 12 57 37 .73     -53    121     55    133    143 336.4  23.1  33944  285.93 0862.92
2015 04 09 12 57 37 .99     -32     76     36     83     90 336.8  25.1  33986  286.62 0862.92
2015 04 09 12 57 38 .23     -46    101     24    111    114 335.5  12.6  33958  286.17 0862.92
2015 04 09 12 57 38 .49     -39    112     23    119    122 340.4  11.0  33968  286.32 0862.92
2015 04 09 12 57 38 .73     -40    125      8    132    133 342.2   3.8  33948  285.98 0862.92
2015 04 09 12 57 38 .99     -56    129      7    141    142 336.4   2.9  33946  285.95 0862.92
2015 04 09 12 57 39 .24     -43    128      6    136    137 341.3   2.9  33946  285.95 0862.92
2015 04 09 12 57 39 .49     -77    127    -29    149    152 328.8 -11.3  33950  286.03 0862.92
2015 04 09 12 57 39 .74     -63    143    -44    157    164 336.3 -15.8  33944  285.93 0862.92
2015 04 09 12 57 39 .99     -76    183    -63    199    209 337.3 -17.6  33928  285.66 0862.92
2015 04 09 12 57 40 .24     -95    189    -66    212    223 333.3 -17.3  33930  285.68 0862.92
2015 04 09 12 57 40 .50    -120    159    -55    200    208 323.0 -15.5  33934  285.75 0862.92
2015 04 09 12 57 40 .75    -106    126    -21    165    167 319.9  -7.3  33952  286.07 0862.92
2015 04 09 12 57 41 .00     -40    131     25    138    141 343.1  10.6  33982  286.56 0862.92
2015 04 09 12 57 41 .24     -49    118     26    128    131 337.3  11.6  33962  286.22 0862.92
2015 04 09 12 57 41 .49     -40    102     31    110    115 338.2  15.8  33968  286.34 0862.91
2015 04 09 12 57 41 .74     -38    119     20    126    128 342.2   9.0  33956  286.14 0862.91
2015 04 09 12 57 42 .00      -9    119     37    120    126 355.5  17.3  33972  286.41 0862.91
2015 04 09 12 57 42 .25      -2    149     46    150    157 359.2  17.1  33978  286.51 0862.91
2015 04 09 12 57 42 .50     -62    188     68    199    211 341.7  18.9  33984  286.59 0862.91
2015 04 09 12 57 42 .75     -68    200     43    212    217 341.1  11.4  34028  287.35 0862.91
2015 04 09 12 57 43 .00     -59    207      2    216    217 344.0   0.7  34036  287.47 0862.91
2015 04 09 12 57 43 .25     -79    106     45    133    141 323.5  18.9  34066  287.98 0862.91
2015 04 09 12 57 43 .50     -60    154     37    166    171 338.6  12.6  34062  287.92 0862.91
2015 04 09 12 57 43 .75     -67    200      0    212    213 341.3   0.2  34104  288.62 0862.91
2015 04 09 12 57 44 .01     -38    151     11    156    157 345.7   4.4  34108  288.70 0862.91
2015 04 09 12 57 44 .26     -85    175     32    195    198 333.9   9.5  34076  288.16 0862.91
2015 04 09 12 57 44 .51    -120    151    -24    193    195 321.5  -7.2  34046  287.65 0862.91
2015 04 09 12 57 44 .76     -79    179     17    196    197 336.2   5.2  34032  287.42 0862.91
2015 04 09 12 57 45 .02    -103    197    -28    223    225 332.4  -7.3  34012  287.06 0862.91
2015 04 09 12 57 45 .27    -133    133      0    189    190 315.0  -0.3  34058  287.84 0862.91
2015 04 09 12 57 45 .52    -104    125     61    163    174 320.3  21.3  34094  288.45 0862.91
2015 04 09 12 57 45 .76     -80    130     53    153    163 328.4  19.2  34124  288.96 0862.91
2015 04 09 12 57 46 .02    -104    111     43    153    160 316.8  15.8  34078  288.20 0862.90
2015 04 09 12 57 46 .27     -73     93     -6    119    120 322.2  -3.1  34094  288.47 0862.90
2015 04 09 12 57 46 .52     -98    127    -27    161    164 322.1  -9.6  34090  288.40 0862.90
2015 04 09 12 57 46 .77    -263    121    -58    290    296 294.8 -11.3  33970  286.35 0862.90
2015 04 09 12 57 47 .02    -265    106    -49    286    291 291.8  -9.8  33964  286.26 0862.90
2015 04 09 12 57 47 .27    -275     92    -51    291    296 288.6 -10.1  33972  286.40 0862.90
2015 04 09 12 57 47 .52    -274    102    -48    293    297 290.6  -9.4  33968  286.31 0862.90
2015 04 09 12 57 47 .77    -258    132    -63    290    297 297.1 -12.4  33998  286.84 0862.90
2015 04 09 12 57 48 .02    -247    126    -33    278    281 297.1  -6.9  34000  286.85 0862.90
2015 04 09 12 57 48 .27    -198    143    -13    245    246 305.9  -3.1  33978  286.48 0862.90
2015 04 09 12 57 48 .52    -213    126    -31    248    251 300.7  -7.3  33960  286.18 0862.90
2015 04 09 12 57 48 .78    -210    109    -28    237    239 297.5  -6.9  33984  286.60 0862.90
2015 04 09 12 57 49 .03    -185    109    -43    215    220 300.6 -11.3  33990  286.71 0862.90
2015 04 09 12 57 49 .27    -172    116    -46    208    214 304.1 -12.6  34042  287.57 0862.90
2015 04 09 12 57 49 .52     -80    110     74    137    155 324.0  31.3  34088  288.36 0862.90
2015 04 09 12 57 49 .78     -57    103     32    118    123 331.0  15.3  34044  287.60 0862.89
2015 04 09 12 57 50 .03     -87    105      9    137    138 320.3   3.8  34092  288.42 0862.89
2015 04 09 12 57 50 .28    -172    142     35    224    227 309.5   9.0  34106  288.67 0862.89
2015 04 09 12 57 50 .53    -164    134     -6    212    213 309.3  -1.8  34124  288.96 0862.89
2015 04 09 12 57 50 .77    -173    172      0    245    246 314.8   0.0  34054  287.77 0862.89
2015 04 09 12 57 51 .04    -186    162    -29    247    249 311.1  -6.9  33928  285.66 0862.89
2015 04 09 12 57 51 .29    -178    145    -26    230    232 309.1  -6.5  33952  286.07 0862.89
2015 04 09 12 57 51 .54    -188    144     -9    238    239 307.5  -2.3  33952  286.04 0862.89
2015 04 09 12 57 51 .79    -170    143    -12    223    224 310.2  -3.2  33948  286.00 0862.89
2015 04 09 12 57 52 .04    -172    132    -24    217    219 307.5  -6.5  33924  285.60 0862.89
2015 04 09 12 57 52 .29    -117    140    -12    183    184 320.1  -3.9  33968  286.32 0862.89
2015 04 09 12 57 52 .54    -120    128     -3    176    177 316.8  -1.3  33964  286.27 0862.89
2015 04 09 12 57 52 .79    -154    133    -25    204    206 310.9  -7.2  33942  285.88 0862.89
2015 04 09 12 57 53 .04    -126    117    -18    173    174 312.9  -6.0  33946  285.95 0862.89
2015 04 09 12 57 53 .29    -108    136    -24    174    176 321.5  -8.0  33946  285.97 0862.89
2015 04 09 12 57 53 .54    -110    139    -22    178    180 321.5  -7.3  33938  285.82 0862.89
2015 04 09 12 57 53 .79    -104    147    -35    181    185 324.8 -11.1  33938  285.82 0862.89
2015 04 09 12 57 54 .04     -98    154    -23    183    185 327.5  -7.2  33956  286.12 0862.89
2015 04 09 12 57 54 .29     -88    130    -10    158    159 325.7  -3.7  33942  285.90 0862.89
2015 04 09 12 57 54 .55    -152    125    -10    197    198 309.5  -3.1  33944  285.92 0862.89
2015 04 09 12 57 54 .79    -155    118    -10    196    197 307.3  -3.2  33930  285.70 0862.89
2015 04 09 12 57 55 .05    -178    135    -38    224    228 307.3  -9.8  33918  285.48 0862.89
2015 04 09 12 57 55 .30    -172    118    -41    209    214 304.4 -11.1  33920  285.51 0862.89
2015 04 09 12 57 55 .55    -168    114    -37    204    208 304.2 -10.5  33918  285.48 0862.89
2015 04 09 12 57 55 .80    -157    124     -7    201    202 308.2  -2.2  33924  285.60 0862.89
2015 04 09 12 57 56 .05    -154    112    -25    191    193 306.0  -7.5  33920  285.53 0862.89
2015 04 09 12 57 56 .30    -136    100     -6    169    170 306.4  -2.2  33928  285.66 0862.89
2015 04 09 12 57 56 .55    -125    117      5    172    173 312.9   1.8  33928  285.66 0862.89
2015 04 09 12 57 56 .80    -120     92     -5    152    153 307.7  -2.2  33928  285.66 0862.90
2015 04 09 12 57 57 .05    -105     97      5    144    145 312.7   2.3  33940  285.87 0862.90
2015 04 09 12 57 57 .30    -108    108    -11    153    154 315.0  -4.1  33932  285.73 0862.90
2015 04 09 12 57 57 .55     -69    110      4    130    131 327.9   1.8  33942  285.90 0862.90
2015 04 09 12 57 57 .81     -81    110     -9    137    138 323.5  -4.1  33940  285.85 0862.90
2015 04 09 12 57 58 .06     -65    138     -3    153    154 334.6  -1.2  33942  285.90 0862.90
2015 04 09 12 57 58 .31     -87    119    -16    148    149 323.9  -6.2  33950  286.02 0862.90
2015 04 09 12 57 58 .57     -77    109      6    134    135 324.8   2.9  33948  286.00 0862.90
2015 04 09 12 57 58 .82     -75     90     23    118    121 320.4  11.0  33950  286.02 0862.91
2015 04 09 12 57 59 .07     -95     91     42    132    139 313.6  17.9  33946  285.95 0862.91
2015 04 09 12 57 59 .32     -82     83     15    117    118 315.3   7.5  33948  285.98 0862.91
2015 04 09 12 57 59 .57    -130     98      0    164    165 307.1  -0.3  33938  285.83 0862.91
2015 04 09 12 57 59 .82    -139    108     -3    177    178 307.8  -1.3  33926  285.63 0862.91
2015 04 09 12 58 00 .07    -141    111    -27    180    183 308.2  -8.6  33924  285.58 0862.91
2015 04 09 12 58 00 .32    -131     95    -31    162    166 306.0 -10.9  33924  285.60 0862.91
2015 04 09 12 58 00 .57    -115     95     -5    150    151 309.6  -2.2  33938  285.82 0862.91
2015 04 09 12 58 00 .82     -54     80      8     97     98 325.7   4.9  33956  286.12 0862.91
2015 04 09 12 58 01 .07    -111    104    -30    153    157 313.2 -11.3  33928  285.66 0862.91
2015 04 09 12 58 01 .32    -101     97    -17    141    143 314.0  -7.2  33936  285.78 0862.91
2015 04 09 12 58 01 .57     -85     86     -2    121    122 315.3  -1.3  33940  285.85 0862.91
2015 04 09 12 58 01 .82     -71    129    -14    148    149 331.1  -5.6  33948  285.98 0862.91
2015 04 09 12 58 02 .07     -66    139    -21    155    157 334.5  -7.7  33938  285.82 0862.91
2015 04 09 12 58 02 .32     -69     96     -4    119    120 324.0  -2.2  33946  285.95 0862.91
2015 04 09 12 58 02 .57     -80     76     20    111    113 313.6  10.6  33956  286.12 0862.91
2015 04 09 12 58 02 .82    -110     90    -12    143    144 309.1  -5.1  33936  285.80 0862.91
2015 04 09 12 58 03 .07     -94     85    -10    127    128 312.2  -4.6  33942  285.90 0862.91
2015 04 09 12 58 03 .32    -103     77      0    129    130 306.9   0.2  33940  285.87 0862.91
2015 04 09 12 58 03 .57    -107     68     -4    127    128 302.5  -2.2  33934  285.76 0862.91
2015 04 09 12 58 03 .82    -120     52    -25    131    134 293.5 -10.9  33926  285.63 0862.91
2015 04 09 12 58 04 .07     -99     85      5    131    132 310.9   2.3  33938  285.82 0862.90
2015 04 09 12 58 04 .32     -89     76    -21    118    120 310.4 -10.3  33926  285.63 0862.90
2015 04 09 12 58 04 .58     -89     76    -12    118    119 310.4  -6.2  33932  285.71 0862.90
2015 04 09 12 58 04 .84     -86     64     -9    108    109 306.4  -5.2  33932  285.73 0862.90
2015 04 09 12 58 05 .09     -75     80    -24    111    114 316.8 -12.4  33926  285.63 0862.90
2015 04 09 12 58 05 .33     -79     60    -23    100    103 307.3 -13.4  33926  285.63 0862.90
2015 04 09 12 58 05 .59     -67     61    -17     91     93 312.2 -10.9  33926  285.61 0862.90
2015 04 09 12 58 05 .84     -52     81    -22     97    100 327.5 -12.9  33926  285.61 0862.90
2015 04 09 12 58 06 .09     -76     61    -19     98    100 308.6 -11.3  33940  285.85 0862.90
2015 04 09 12 58 06 .34     -55     55     -3     79     80 315.0  -2.6  33936  285.80 0862.90
2015 04 09 12 58 06 .59     -56     53     -1     78     79 313.2  -1.3  33942  285.90 0862.90
2015 04 09 12 58 06 .84     -61     70    -28     93     98 319.0 -17.0  33938  285.83 0862.91
2015 04 09 12 58 07 .09     -82     64     -4    105    106 308.2  -2.2  33940  285.85 0862.91
2015 04 09 12 58 07 .34     -79     60    -23    100    103 307.3 -13.4  33926  285.63 0862.91
2015 04 09 12 58 07 .59     -69     43    -29     82     88 302.4 -19.7  33926  285.63 0862.91
2015 04 09 12 58 07 .84     -60     49    -25     78     81 309.6 -22.8  33926  285.61 0862.91
2015 04 09 12 58 08 .09     -67     44    -25     81     84 303.3 -22.8  33926  285.61 0862.91
2015 04 09 12 58 08 .34     -68     48    -34     84     90 305.5 -28.0  33928  285.66 0862.91
2015 04 09 12 58 08 .59     -86     28    -30     91     95 288.6 -23.8  33928  285.66 0862.91
2015 04 09 12 58 08 .85     -79     32    -30     86     91 292.2 -23.8  33926  285.61 0862.91
2015 04 09 12 58 09 .09     -76     28    -28     82     86 290.4 -23.3  33924  285.58 0862.91
2015 04 09 12 58 09 .34     -61     28    -28     68     73 295.2 -27.4  33926  285.63 0862.91
2015 04 09 12 58 09 .60     -58     20    -23     62     66 289.1 -24.4  33926  285.63 0862.91
2015 04 09 12 58 09 .84     -57     36    -23     68     71 302.5 -23.6  33926  285.63 0862.91
2015 04 09 12 58 10 .10     -58     27    -30     65     71 295.4 -31.5  33928  285.66 0862.91
2015 04 09 12 58 10 .35     -55     24    -27     61     66 293.5 -29.5  33930  285.68 0862.91
2015 04 09 12 58 10 .60     -53     19    -25     57     62 290.0 -29.5  33928  285.66 0862.91
2015 04 09 12 58 10 .85     -53     19    -25     57     62 290.0 -29.5  33928  285.66 0862.91
2015 04 09 12 58 11 .10     -50     23    -23     56     60 295.3 -27.5  33926  285.63 0862.91
2015 04 09 12 58 11 .35     -47     22    -15     52     54 295.2 -21.7  33926  285.63 0862.91
2015 04 09 12 58 11 .60     -56     28    -12     63     65 297.1 -11.3  33934  285.75 0862.91
2015 04 09 12 58 11 .86     -58     33     -8     67     68 299.8  -7.2  33930  285.68 0862.91
2015 04 09 12 58 12 .11     -58     33     -8     67     68 299.8  -7.2  33930  285.68 0862.91
2015 04 09 12 58 12 .36     -75     28    -10     81     82 290.4  -7.3  33928  285.66 0862.91
2015 04 09 12 58 12 .61     -87     13    -11     89     90 278.8  -7.3  33932  285.71 0862.91
2015 04 09 12 58 12 .86     -93     12     -9     94     95 277.9  -5.6  33932  285.73 0862.91
2015 04 09 12 58 13 .11     -76      6    -12     77     79 275.2  -9.3  33932  285.73 0862.91
2015 04 09 12 58 13 .37     -79     12    -15     80     82 278.8 -10.9  33930  285.70 0862.91
2015 04 09 12 58 13 .62     -85     13    -20     87     90 278.8 -13.4  33948  286.00 0862.91
2015 04 09 12 58 13 .87     -88     17     10     90     91 281.5   6.9  33972  286.41 0862.91
2015 04 09 12 58 14 .12     -97     26      0    101    102 285.1   0.2  33988  286.66 0862.91
2015 04 09 12 58 14 .37     -96    -11    -12     97     98 263.0  -7.3  33964  286.25 0862.91
2015 04 09 12 58 14 .62    -100    -16    -19    102    104 260.8 -10.9  33946  285.95 0862.91
2015 04 09 12 58 14 .87     -96    -25    -20    100    103 255.4 -11.5  33932  285.71 0862.91
2015 04 09 12 58 15 .12     -88     -6    -31     89     95 265.6 -19.6  33934  285.76 0862.91
2015 04 09 12 58 15 .37     -88     -8    -19     89     92 264.8 -12.4  33936  285.80 0862.91
2015 04 09 12 58 15 .62     -81    -21    -18     84     87 254.9 -12.4  33934  285.75 0862.91
2015 04 09 12 58 15 .87     -79    -34    -27     87     91 246.5 -22.8  33936  285.80 0862.91
2015 04 09 12 58 16 .12     -85    -28    -24     90     94 251.4 -15.0  33940  285.85 0862.91
2015 04 09 12 58 16 .37     -90    -43    -30    101    105 244.2 -21.7  33938  285.82 0862.91
2015 04 09 12 58 16 .62     -84    -39    -30     93     97 244.7 -23.8  33938  285.83 0862.91
2015 04 09 12 58 16 .87     -82    -45    -27     94     97 241.1 -21.2  33936  285.80 0862.91
2015 04 09 12 58 17 .12     -75    -39    -34     85     91 242.0 -26.9  33938  285.82 0862.91
2015 04 09 12 58 17 .37     -60    -20    -38     64     74 250.9 -39.9  33940  285.87 0862.91
2015 04 09 12 58 17 .62     -57    -19    -36     61     70 251.4 -37.9  33946  285.95 0862.91
2015 04 09 12 58 17 .87     -51    -22    -18     56     58 246.5 -23.8  33946  285.95 0862.91
2015 04 09 12 58 18 .13     -43    -17    -13     47     49 248.3 -15.5  33952  286.07 0862.91
2015 04 09 12 58 18 .38     -30    -18      1     36     37 239.3   2.8  33986  286.64 0862.91
2015 04 09 12 58 18 .63     -30     -8     11     32     34 254.9  19.4  34000  286.88 0862.91
2015 04 09 12 58 18 .88     -24    -12      9     27     29 242.9  19.4  33984  286.61 0862.91
2015 04 09 12 58 19 .14     -18      1      7     19     20 274.4  21.0  33984  286.59 0862.91
2015 04 09 12 58 19 .39     -30      0      9     31     33 269.2  17.3  33972  286.39 0862.91
2015 04 09 12 58 19 .64      -6     18      0     19     20 341.5  -2.2  33962  286.24 0862.90
2015 04 09 12 58 19 .89     -17     22     -8     29     31 322.2 -15.4  33952  286.05 0862.90
2015 04 09 12 58 20 .15     -20     12      0     24     25 302.4  -2.2  33958  286.15 0862.90
2015 04 09 12 58 20 .39     -26     16     10     31     33 302.4  19.2  33990  286.69 0862.90
2015 04 09 12 58 20 .65     -25      5     21     26     33 283.3  43.7  34012  287.06 0862.90
2015 04 09 12 58 20 .90     -21     13     25     25     35 302.4  50.1  34040  287.54 0862.90
2015 04 09 12 58 21 .15     -15     12     23     20     30 309.5  56.3  34054  287.79 0862.90
2015 04 09 12 58 21 .39     -11      5     21     13     24 295.3  64.7  34084  288.30 0862.90
2015 04 09 12 58 21 .64     -11      5     14     13     19 295.3  48.2  34054  287.77 0862.90
2015 04 09 12 58 21 .89      -4      0     14      5     14 281.5  81.0  34044  287.62 0862.90
2015 04 09 12 58 22 .15     -18      7     14     20     24 291.7  39.7  34054  287.77 0862.90
2015 04 09 12 58 22 .40     -17      0     23     18     29 270.0  56.4  34076  288.16 0862.90
2015 04 09 12 58 22 .65     -13    -13     18     19     26 223.4  50.0  34088  288.36 0862.90
2015 04 09 12 58 22 .90     -23      1     23     24     33 272.6  52.0  34088  288.36 0862.90
2015 04 09 12 58 23 .15     -32     -4     14     33     35 262.1  23.0  34080  288.21 0862.90
2015 04 09 12 58 23 .40     -21     -7      0     23     24 251.8  -2.2  34068  288.03 0862.90
2015 04 09 12 58 23 .65     -21     13     38     25     45 302.4  64.6  34086  288.33 0862.90
2015 04 09 12 58 23 .90     -32     13     36     35     50 293.5  49.1  34098  288.53 0862.90
2015 04 09 12 58 24 .15     -26      6     27     27     38 283.3  50.1  34110  288.74 0862.90
2015 04 09 12 58 24 .40      -7      0     39      8     39 265.6  90.0  34110  288.72 0862.90
2015 04 09 12 58 24 .65     -51     -3     10     52     53 265.6  11.0  34054  287.79 0862.90
2015 04 09 12 58 24 .91     -25    -40     -7     48     49 212.5  -8.2  34002  286.89 0862.90
2015 04 09 12 58 25 .16     -40      4    -12     41     42 277.0 -20.7  34016  287.15 0862.90
2015 04 09 12 58 25 .41     -13     17     18     22     28 322.2  45.8  34056  287.82 0862.90
2015 04 09 12 58 25 .66     -31     44      1     55     56 324.8   1.8  34074  288.11 0862.90
2015 04 09 12 58 25 .92     -35     33      0     49     50 313.1   0.8  34064  287.96 0862.89
2015 04 09 12 58 26 .16     -53     20      5     57     58 290.8   5.9  34046  287.64 0862.89
2015 04 09 12 58 26 .41    -107     29    -10    112    113 285.5  -5.6  33984  286.59 0862.89
2015 04 09 12 58 26 .67    -133     32    -16    137    138 283.7  -6.7  33952  286.07 0862.89
2015 04 09 12 58 26 .92    -163     53    -20    172    174 288.2  -6.9  33960  286.19 0862.89
2015 04 09 12 58 27 .17    -170     35    -16    174    175 281.7  -5.4  33968  286.32 0862.89
2015 04 09 12 58 27 .42    -166     63    -15    178    179 291.1  -4.9  33988  286.67 0862.89
2015 04 09 12 58 27 .67    -156     64     -6    169    170 292.4  -2.2  33984  286.61 0862.89
2015 04 09 12 58 27 .92    -157     75    -22    175    177 295.5  -7.3  33968  286.32 0862.89
2015 04 09 12 58 28 .17    -154     67    -23    168    170 293.5  -8.0  33990  286.71 0862.89
2015 04 09 12 58 28 .43    -119     62    -22    135    137 297.5  -9.4  34014  287.11 0862.89
2015 04 09 12 58 28 .67    -140     70     -1    157    158 296.6  -0.5  34036  287.49 0862.89
2015 04 09 12 58 28 .93    -170    129    -11    214    215 307.1  -3.2  33992  286.74 0862.89
2015 04 09 12 58 29 .17    -197    148     -9    247    248 306.9  -2.2  33990  286.68 0862.89
2015 04 09 12 58 29 .43    -181    140     11    230    231 307.7   2.8  33998  286.84 0862.90
2015 04 09 12 58 29 .68    -202    176    -13    269    270 311.1  -2.8  33968  286.31 0862.90
2015 04 09 12 58 29 .93    -206    149    -47    255    260 306.0 -10.5  33962  286.21 0862.90
2015 04 09 12 58 30 .18    -190    135    -54    234    241 305.3 -13.2  33966  286.28 0862.90
2015 04 09 12 58 30 .42    -191    113    -49    222    228 300.7 -12.6  33984  286.59 0862.90
2015 04 09 12 58 30 .68    -162    142    -12    216    217 311.1  -3.3  33984  286.59 0862.90
2015 04 09 12 58 30 .93    -142    142    -40    201    205 315.0 -11.3  33982  286.56 0862.90
2015 04 09 12 58 31 .18    -171    153    -61    230    239 311.8 -15.0  33968  286.33 0862.90
2015 04 09 12 58 31 .43    -133    159    -55    208    216 320.1 -15.0  33996  286.81 0862.90
2015 04 09 12 58 31 .68    -119    161    -38    201    205 323.5 -10.9  33990  286.69 0862.90
2015 04 09 12 58 31 .93    -137    213    -51    254    260 327.3 -11.5  34018  287.17 0862.90
2015 04 09 12 58 32 .18    -151    244    -74    287    297 328.3 -14.5  34028  287.34 0862.90
2015 04 09 12 58 32 .44    -105    206    -29    232    234 332.9  -7.2  34048  287.66 0862.90
2015 04 09 12 58 32 .69    -111    225    -31    252    255 333.7  -7.2  34050  287.71 0862.90
2015 04 09 12 58 32 .95    -126    212    -54    247    253 329.2 -12.4  34048  287.68 0862.90
2015 04 09 12 58 33 .19    -107    246    -29    269    271 336.4  -6.2  34036  287.48 0862.90
2015 04 09 12 58 33 .44     -67    248     36    257    260 344.8   8.0  34056  287.80 0862.90
2015 04 09 12 58 33 .70     -34    230     36    233    236 351.5   8.9  34040  287.55 0862.90
2015 04 09 12 58 33 .95     -52    231     37    237    240 347.1   8.9  34068  288.02 0862.90
2015 04 09 12 58 34 .20     -87    213      3    231    232 337.7   0.8  34096  288.50 0862.90
2015 04 09 12 58 34 .45     -90    196    -12    216    217 335.3  -3.2  34138  289.21 0862.90
2015 04 09 12 58 34 .70     -78    179      9    196    197 336.4   2.9  34138  289.21 0862.90
2015 04 09 12 58 34 .95     -74    197    -20    211    213 339.3  -5.6  34074  288.11 0862.90
2015 04 09 12 58 35 .20     -92    163     -5    188    189 330.6  -1.6  34088  288.36 0862.90
2015 04 09 12 58 35 .45    -177    155    -18    236    237 311.1  -4.4  34098  288.51 0862.90
2015 04 09 12 58 35 .70    -178    138    -28    226    228 307.7  -7.2  34100  288.57 0862.91
2015 04 09 12 58 35 .95    -125    126     34    178    182 315.1  11.0  34124  288.96 0862.91
2015 04 09 12 58 36 .20     -89    123      7    153    154 324.0   2.9  34136  289.18 0862.91
2015 04 09 12 58 36 .45    -125    105    -39    164    169 310.2 -13.4  34134  289.14 0862.91
2015 04 09 12 58 36 .70    -172     59    -30    183    186 289.1  -9.3  34066  287.99 0862.90
2015 04 09 12 58 36 .96    -183     75    -38    199    203 292.4 -10.9  34074  288.13 0862.90
2015 04 09 12 58 37 .20    -173     92    -30    196    199 298.0  -8.8  34108  288.69 0862.90
2015 04 09 12 58 37 .45    -163     84    -26    184    186 297.3  -8.2  34112  288.77 0862.90
2015 04 09 12 58 37 .70     -78     66     12    103    104 310.0   7.1  34096  288.50 0862.90
2015 04 09 12 58 37 .96    -161     75    -49    178    185 295.1 -15.5  34040  287.55 0862.90
2015 04 09 12 58 38 .20    -193     78    -25    209    211 292.2  -6.9  34032  287.40 0862.90
2015 04 09 12 58 38 .46    -234     59    -56    242    249 284.2 -13.2  34008  286.99 0862.91
2015 04 09 12 58 38 .71    -275    109    -22    296    297 291.7  -4.4  34008  287.01 0862.91
2015 04 09 12 58 38 .95    -243     81    -42    257    261 288.6  -9.4  33992  286.72 0862.91
2015 04 09 12 58 39 .21    -289    108    -78    309    319 290.6 -14.3  33978  286.50 0862.91
2015 04 09 12 58 39 .46    -266     81    -77    279    290 286.9 -15.4  33998  286.82 0862.91
2015 04 09 12 58 39 .72    -159     12     -7    160    161 274.4  -2.6  34016  287.13 0862.91
2015 04 09 12 58 39 .97    -118     74     11    140    141 302.0   4.9  34030  287.38 0862.91
2015 04 09 12 58 40 .22    -109     49    -10    120    121 294.4  -5.2  34034  287.45 0862.91
2015 04 09 12 58 40 .47    -211    102    -28    235    237 296.0  -6.9  34016  287.12 0862.91
2015 04 09 12 58 40 .72    -260    173    -29    313    315 303.7  -5.4  34054  287.78 0862.91
2015 04 09 12 58 40 .97    -314    242    -15    397    398 307.7  -2.3  34066  287.98 0862.91
2015 04 09 12 58 41 .22    -258    195      0    324    325 307.2   0.0  34102  288.59 0862.91
2015 04 09 12 58 41 .47    -146    222     33    267    270 326.6   7.1  34108  288.68 0862.91
2015 04 09 12 58 41 .72    -234    164      4    286    287 305.1   1.0  34050  287.70 0862.91
2015 04 09 12 58 41 .97    -244    190    -36    310    313 308.0  -6.7  33926  285.61 0862.91
2015 04 09 12 58 42 .22    -230    187    -80    297    308 309.1 -15.2  33914  285.40 0862.91
2015 04 09 12 58 42 .48    -226    192    -84    297    309 310.4 -15.8  33920  285.52 0862.91
2015 04 09 12 58 42 .73    -187    194    -96    270    287 316.1 -19.6  33932  285.71 0862.91
2015 04 09 12 58 42 .98    -165    206    -79    265    277 321.3 -16.6  33948  285.98 0862.92
2015 04 09 12 58 43 .23    -183    182    -52    259    265 314.8 -11.5  34010  287.02 0862.92
2015 04 09 12 58 43 .48    -170    206    -56    268    274 320.4 -11.9  33992  286.72 0862.92
2015 04 09 12 58 43 .72    -191    225    -59    296    302 319.7 -11.3  33938  285.81 0862.92
2015 04 09 12 58 43 .98    -176    199    -63    266    274 318.6 -13.4  33916  285.45 0862.92
2015 04 09 12 58 44 .23    -165    163    -38    233    237 314.7  -9.3  33952  286.06 0862.92
2015 04 09 12 58 44 .48    -143    184    -51    234    240 322.2 -12.4  33940  285.86 0862.92
2015 04 09 12 58 44 .73    -116    218    -59    248    255 331.9 -13.4  33938  285.83 0862.91
2015 04 09 12 58 44 .98    -127    214     10    250    251 329.3   2.3  34006  286.97 0862.91
2015 04 09 12 58 45 .23    -203    222    -59    302    308 317.6 -11.1  33932  285.71 0862.91
2015 04 09 12 58 45 .48    -191    191    -15    271    272 314.9  -3.2  33934  285.76 0862.91
2015 04 09 12 58 45 .73    -194    194    -33    275    277 314.9  -6.9  33936  285.77 0862.91
2015 04 09 12 58 45 .98    -172    173    -35    245    248 315.1  -8.2  33940  285.86 0862.91
2015 04 09 12 58 46 .23    -195    177    -17    264    265 312.3  -3.7  33930  285.67 0862.91
2015 04 09 12 58 46 .50    -213    185    -11    283    284 310.9  -2.2  33946  285.94 0862.91
2015 04 09 12 58 46 .74    -191    173     -9    258    259 312.2  -2.1  33936  285.77 0862.91
2015 04 09 12 58 46 .99    -200    182    -26    271    273 312.2  -5.6  33924  285.59 0862.91
2015 04 09 12 58 47 .25    -208    163    -28    265    267 308.2  -6.2  33916  285.45 0862.91
2015 04 09 12 58 47 .50    -192    173    -37    259    262 312.0  -8.2  33918  285.47 0862.91
2015 04 09 12 58 47 .75    -212    171    -24    273    275 308.9  -5.2  33918  285.49 0862.91
2015 04 09 12 58 48 .00    -206    159    -37    261    264 307.8  -8.3  33916  285.45 0862.91
2015 04 09 12 58 48 .25    -199    164    -56    259    266 309.5 -12.2  33916  285.44 0862.91
2015 04 09 12 58 48 .50    -190    148    -35    242    245 308.0  -8.3  33920  285.51 0862.91
2015 04 09 12 58 48 .75    -188    136    -26    233    235 305.9  -6.5  33920  285.52 0862.91
2015 04 09 12 58 49 .00    -194    131    -34    235    238 304.1  -8.3  33918  285.49 0862.91
2015 04 09 12 58 49 .25    -173    116    -34    209    212 304.0  -9.3  33916  285.44 0862.91
2015 04 09 12 58 49 .50    -159    110    -46    194    200 304.6 -13.4  33914  285.43 0862.91
2015 04 09 12 58 49 .75    -148    109    -45    185    191 306.4 -13.7  33920  285.51 0862.91
2015 04 09 12 58 50 .00    -141    111    -43    180    186 308.2 -13.7  33914  285.43 0862.91
2015 04 09 12 58 50 .25    -140     93    -43    169    175 303.7 -14.5  33914  285.43 0862.91
2015 04 09 12 58 50 .50    -146     90    -50    172    180 301.8 -16.4  33920  285.51 0862.91
2015 04 09 12 58 50 .75    -134     81    -47    157    165 301.1 -16.8  33918  285.48 0862.91
2015 04 09 12 58 51 .00    -123     74    -39    144    150 301.1 -15.4  33922  285.55 0862.91
2015 04 09 12 58 51 .25    -123     74    -39    144    150 301.1 -15.4  33922  285.55 0862.91
2015 04 09 12 58 51 .50    -118     75    -42    140    147 302.4 -16.6  33920  285.53 0862.91
2015 04 09 12 58 51 .75    -109     66    -38    128    134 301.1 -16.6  33922  285.56 0862.91
2015 04 09 12 58 52 .00    -112     62    -25    129    132 298.9 -11.3  33920  285.53 0862.91
2015 04 09 12 58 52 .25    -105     57    -33    120    125 298.9 -15.5  33922  285.56 0862.91
2015 04 09 12 58 52 .51    -110     58    -30    125    129 298.0 -13.9  33920  285.53 0862.91
2015 04 09 12 58 52 .75    -106     45    -35    116    122 293.1 -17.0  33920  285.53 0862.91
2015 04 09 12 58 53 .01    -101     50    -28    113    117 296.6 -13.9  33922  285.55 0862.92
2015 04 09 12 58 53 .25    -101     50    -28    113    117 296.6 -13.9  33922  285.55 0862.92
2015 04 09 12 58 53 .52     -99     44    -29    109    113 294.0 -15.0  33922  285.56 0862.92
2015 04 09 12 58 53 .77     -97     44    -21    107    110 294.8 -11.3  33922  285.56 0862.92
2015 04 09 12 58 54 .02     -97     39    -26    105    109 291.8 -13.9  33924  285.58 0862.92
2015 04 09 12 58 54 .27     -99     39    -16    107    109 291.8  -8.8  33918  285.50 0862.92
2015 04 09 12 58 54 .52     -88     43    -12     99    100 296.2  -7.3  33922  285.55 0862.92
2015 04 09 12 58 54 .77    -103     45    -14    113    114 293.5  -7.2  33926  285.61 0862.92
2015 04 09 12 58 55 .02     -90     35    -12     97     98 291.7  -7.3  33918  285.50 0862.92
2015 04 09 12 58 55 .27     -98     29    -13    103    104 286.4  -7.3  33920  285.53 0862.92
2015 04 09 12 58 55 .52     -89     29    -12     94     95 288.2  -7.3  33922  285.55 0862.92
2015 04 09 12 58 55 .77     -76     40     -1     87     88 298.0  -1.3  33936  285.80 0862.92
2015 04 09 12 58 56 .03     -75     36    -10     84     85 295.8  -7.3  33934  285.76 0862.92
2015 04 09 12 58 56 .27     -48     25      7     55     56 298.0   8.0  33944  285.93 0862.92
2015 04 09 12 58 56 .53     -61     16    -12     64     66 285.1 -11.3  33936  285.80 0862.92
2015 04 09 12 58 56 .78     -39     13      6     42     43 288.4   9.0  33976  286.47 0862.92
2015 04 09 12 58 57 .03     -19     15     32     25     40 309.5  58.5  34010  287.05 0862.92
2015 04 09 12 58 57 .28     -17      9     20     20     28 297.1  50.1  34018  287.16 0862.92
2015 04 09 12 58 57 .53     -14     -1      1     15     16 265.7   6.9  33998  286.84 0862.92
2015 04 09 12 58 57 .78     -25      8     -7     27     29 288.4 -15.5  33984  286.61 0862.92
2015 04 09 12 58 58 .03     -40     25     -2     48     49 302.4  -3.1  33968  286.32 0862.92
2015 04 09 12 58 58 .27     -26     28     -1     39     40 316.8  -2.2  33976  286.46 0862.92
2015 04 09 12 58 58 .53     -46     21     -2     51     52 295.2  -2.2  33934  285.75 0862.92
2015 04 09 12 58 58 .78     -69     16    -10     71     72 283.3  -8.2  33926  285.61 0862.92
2015 04 09 12 58 59 .03     -60     19    -17     64     67 288.2 -15.5  33928  285.65 0862.92
2015 04 09 12 58 59 .28     -68     18     -3     71     72 285.0  -3.1  33926  285.63 0862.91
2015 04 09 12 58 59 .53     -64     25      7     69     70 291.7   5.9  33956  286.14 0862.91
2015 04 09 12 58 59 .79     -63     25    -12     68     70 291.7 -10.3  33930  285.68 0862.91
2015 04 09 12 59 00 .03     -59     16     -2     62     63 285.1  -2.2  33946  285.97 0862.91
2015 04 09 12 59 00 .29     -78     25     -6     83     84 288.2  -4.1  33938  285.82 0862.91
2015 04 09 12 59 00 .54     -78     55     -6     96     97 305.5  -4.1  33950  286.03 0862.91
2015 04 09 12 59 00 .80     -81     21     -9     84     85 285.1  -6.2  33958  286.15 0862.91
2015 04 09 12 59 01 .04     -83     17      1     85     86 281.9   1.2  33956  286.14 0862.91
2015 04 09 12 59 01 .30     -91     47    -13    103    104 297.5  -7.3  33968  286.32 0862.91
2015 04 09 12 59 01 .55    -111     48    -25    122    125 293.5 -11.9  33940  285.85 0862.91
2015 04 09 12 59 01 .80    -116     59     -5    131    132 297.0  -2.2  33936  285.78 0862.91
2015 04 09 12 59 02 .05    -145     55    -23    156    158 290.8  -8.6  33934  285.76 0862.91
2015 04 09 12 59 02 .30    -153     72    -19    170    172 295.2  -6.5  33938  285.83 0862.91
2015 04 09 12 59 02 .55    -149     62    -28    162    165 292.8  -9.8  33938  285.83 0862.91
2015 04 09 12 59 02 .80    -163     45    -11    170    171 285.7  -3.9  33946  285.95 0862.91
2015 04 09 12 59 03 .05    -136     54    -19    147    149 291.7  -7.7  33952  286.05 0862.91
2015 04 09 12 59 03 .30    -138     76     -9    158    159 298.8  -3.3  33962  286.24 0862.91
2015 04 09 12 59 03 .55    -103    103     -6    146    147 314.9  -2.6  33956  286.12 0862.91
2015 04 09 12 59 03 .81    -108    101    -19    148    150 313.1  -7.3  33962  286.24 0862.91
2015 04 09 12 59 04 .05    -181    131    -34    224    227 306.0  -8.8  33978  286.49 0862.91
2015 04 09 12 59 04 .31    -190    131    -27    232    234 304.6  -6.7  33966  286.28 0862.91
2015 04 09 12 59 04 .55    -213    110    -32    240    243 297.3  -7.7  33934  285.76 0862.91
2015 04 09 12 59 04 .80    -216    104    -71    240    251 295.8 -16.6  33916  285.45 0862.91
2015 04 09 12 59 05 .05    -204     99    -71    227    237 296.0 -22.5  33918  285.49 0862.91
2015 04 09 12 59 05 .31    -176     40    -76    181    196 283.0 -28.5  33968  286.34 0862.91
2015 04 09 12 59 05 .55    -150     -4    -29    151    154 268.3 -11.1  33950  286.03 0862.91
2015 04 09 12 59 05 .81    -111    -22     16    114    116 258.6   8.0  33928  285.66 0862.91
2015 04 09 12 59 06 .06     -32    -23     50     40     64 234.0  56.4  33950  286.02 0862.91
2015 04 09 12 59 06 .31       0    -15     47     16     49 179.1  81.0  33974  286.42 0862.91
2015 04 09 12 59 06 .56       0      1     52      2     52 341.5  90.0  33996  286.79 0862.91
2015 04 09 12 59 06 .81     -25      9     44     27     51 291.7  64.7  33986  286.64 0862.91
2015 04 09 12 59 07 .06     -39    -22     49     46     67 240.2  52.1  33988  286.66 0862.91
2015 04 09 12 59 07 .31     -46    -34     42     58     71 234.0  39.7  33986  286.64 0862.91
2015 04 09 12 59 07 .57    -111     -8     -7    112    113 265.7  -3.7  33970  286.37 0862.91
2015 04 09 12 59 07 .82     -98     -1    -34     99    105 269.2 -19.1  33992  286.74 0862.91
2015 04 09 12 59 08 .07    -135     64    -25    150    153 295.4  -9.8  34008  287.00 0862.91
2015 04 09 12 59 08 .33     -92     96    -23    134    137 316.3  -9.8  34034  287.43 0862.91
2015 04 09 12 59 08 .58    -137     55    -29    148    151 292.2 -11.3  34042  287.57 0862.91
2015 04 09 12 59 08 .83     -95    130    -31    162    166 323.9 -11.1  34046  287.65 0862.91
2015 04 09 12 59 09 .07    -113     93    116    147    187 309.6  42.7  34042  287.57 0862.91
2015 04 09 12 59 09 .33     -97     22     34    100    106 282.8  18.9  34050  287.70 0862.92
2015 04 09 12 59 09 .58     -68     90     44    113    121 323.0  22.5  34048  287.69 0862.92
2015 04 09 12 59 09 .83     -56     87     -2    104    105 327.0  -1.3  34082  288.25 0862.92
2015 04 09 12 59 10 .08     -29     42     18     52     56 324.8  19.4  34102  288.60 0862.92
2015 04 09 12 59 10 .33    -130     88    -10    158    159 304.2  -3.7  34010  287.05 0862.92
2015 04 09 12 59 10 .58     -71    144     25    161    164 333.5   9.0  33976  286.46 0862.92
2015 04 09 12 59 10 .83    -103    143     40    177    182 324.4  12.9  33968  286.32 0862.92
2015 04 09 12 59 11 .08    -170    143      0    223    224 310.2   0.2  33962  286.22 0862.92
2015 04 09 12 59 11 .33    -206    130    -35    244    247 302.2  -8.2  33976  286.45 0862.92
2015 04 09 12 59 11 .58    -204    130    -57    243    250 302.5 -13.3  33942  285.89 0862.92
2015 04 09 12 59 11 .83    -175    144    -12    227    228 309.5  -3.1  33942  285.88 0862.92
2015 04 09 12 59 12 .08    -143    129      9    193    194 312.0   2.8  33954  286.08 0862.92
2015 04 09 12 59 12 .33    -178    108    -34    209    212 301.1  -9.3  33946  285.95 0862.92
2015 04 09 12 59 12 .58    -230    113    -37    257    260 296.2  -8.2  33930  285.67 0862.92
2015 04 09 12 59 12 .83    -240    142    -50    279    284 300.7 -10.3  33934  285.76 0862.92
2015 04 09 12 59 13 .08    -220    110    -44    247    252 296.6 -10.3  33922  285.56 0862.92
2015 04 09 12 59 13 .34    -227    129    -46    262    267 299.5 -10.1  33918  285.49 0862.92
2015 04 09 12 59 13 .58    -170    171     -1    242    243 315.1  -0.3  33932  285.71 0862.92
2015 04 09 12 59 13 .84    -212    139    -16    254    255 303.3  -3.7  33930  285.67 0862.91
2015 04 09 12 59 14 .09    -211    132    -17    249    250 302.0  -3.9  33926  285.62 0862.91
2015 04 09 12 59 14 .35    -189    111    -25    220    222 300.4  -6.7  33926  285.63 0862.91
2015 04 09 12 59 14 .60    -185    102    -33    212    215 298.9  -9.0  33924  285.60 0862.91
2015 04 09 12 59 14 .85    -159    113    -32    196    199 305.5  -9.3  33936  285.78 0862.91
2015 04 09 12 59 15 .10    -149     98     -6    179    180 303.5  -2.1  33934  285.76 0862.91
2015 04 09 12 59 15 .35    -152     85    -19    175    177 299.3  -6.5  33944  285.93 0862.91
2015 04 09 12 59 15 .60    -184    123    -29    222    224 303.7  -7.7  33934  285.76 0862.91
2015 04 09 12 59 15 .85    -172    116    -16    208    209 304.0  -4.6  33954  286.08 0862.91
2015 04 09 12 59 16 .10    -166    109    -65    199    210 303.3 -18.3  33938  285.82 0862.91
2015 04 09 12 59 16 .35    -140     93    -51    169    177 303.7 -16.8  33948  285.98 0862.91
2015 04 09 12 59 16 .60    -130     79    -39    153    158 301.1 -14.3  33954  286.08 0862.91
2015 04 09 12 59 16 .85    -128    104    -11    165    166 309.1  -3.9  33962  286.22 0862.91
2015 04 09 12 59 17 .11    -124     88     -6    153    154 305.5  -2.6  33984  286.59 0862.91
2015 04 09 12 59 17 .35    -154     72    -20    171    173 295.1  -6.9  34004  286.94 0862.91
2015 04 09 12 59 17 .60    -194     44    -33    199    202 282.8  -9.6  33968  286.32 0862.91
2015 04 09 12 59 17 .85    -150     79    -15    170    171 298.0  -5.2  33944  285.93 0862.91
2015 04 09 12 59 18 .11    -138     95    -14    168    169 304.6  -4.9  33942  285.88 0862.91
2015 04 09 12 59 18 .36    -112    100     -8    151    152 311.8  -3.1  33950  286.03 0862.91
2015 04 09 12 59 18 .61     -89     76     -5    118    119 310.4  -2.6  34000  286.86 0862.91
2015 04 09 12 59 18 .86     -48     45      9     66     67 313.2   8.0  34006  286.96 0862.91
2015 04 09 12 59 19 .11    -117     35    -20    123    125 286.9  -9.3  34000  286.86 0862.91
2015 04 09 12 59 19 .36    -132     63    -31    147    151 295.4 -11.9  33986  286.64 0862.91
2015 04 09 12 59 19 .61     -99     48    -15    111    113 295.8  -7.7  33988  286.66 0862.91
2015 04 09 12 59 19 .86    -135     21    -17    137    139 279.2  -7.3  34026  287.30 0862.91
2015 04 09 12 59 20 .11    -100     81    -17    129    131 309.1  -7.7  34038  287.52 0862.91
2015 04 09 12 59 20 .36    -158     67      9    172    173 293.1   3.1  34030  287.38 0862.91
2015 04 09 12 59 20 .62    -185    112    -35    217    220 301.1  -9.3  33986  286.64 0862.91
2015 04 09 12 59 20 .86    -162    133    -22    210    212 309.5  -6.0  33978  286.51 0862.91
2015 04 09 12 59 21 .11    -125    103    -81    162    181 309.5 -32.9  33962  286.24 0862.91
2015 04 09 12 59 21 .37    -116    178    -67    213    224 326.8 -17.5  33958  286.17 0862.91
2015 04 09 12 59 21 .62    -171    100    -81    199    214 300.4 -27.5  33958  286.17 0862.91
2015 04 09 12 59 21 .87    -156     72    -85    172    191 294.8 -32.2  33958  286.17 0862.91
2015 04 09 12 59 22 .12    -127    127    -90    180    201 314.9 -33.1  33958  286.17 0862.91
2015 04 09 12 59 22 .37    -140     90    -50    167    174 302.9 -21.7  33956  286.12 0862.91
2015 04 09 12 59 22 .63    -135     74    -54    154    164 298.8 -19.4  33960  286.19 0862.91
2015 04 09 12 59 22 .87    -115     95    -45    150    156 309.6 -21.5  33962  286.22 0862.91
2015 04 09 12 59 23 .13    -105     81     -7    133    134 307.8  -3.1  33966  286.30 0862.91
2015 04 09 12 59 23 .38     -54     94      5    109    110 330.1   2.8  33984  286.59 0862.91
2015 04 09 12 59 23 .63     -58    157     10    168    169 339.7   3.6  33990  286.69 0862.91
2015 04 09 12 59 23 .88    -102    215    -46    239    244 334.5 -10.9  34040  287.55 0862.91
2015 04 09 12 59 24 .13    -119    216     25    247    249 331.1   5.9  34024  287.26 0862.91
2015 04 09 12 59 24 .38     -95    204    -28    226    228 335.1  -7.2  34010  287.05 0862.91
2015 04 09 12 59 24 .63    -133    128     34    185    189 314.0  10.6  34048  287.67 0862.91
2015 04 09 12 59 24 .88    -181    199     -1    270    271 317.7  -0.3  34022  287.24 0862.90
2015 04 09 12 59 25 .13    -261    174    -34    314    316 303.7  -6.3  33946  285.94 0862.90
2015 04 09 12 59 25 .38    -247    162    -37    296    299 303.3  -7.2  33922  285.56 0862.90
2015 04 09 12 59 25 .63    -234    182    -34    297    300 308.0  -6.7  33924  285.57 0862.90
2015 04 09 12 59 25 .88    -229    166    -51    284    289 306.0 -10.3  33926  285.61 0862.90
2015 04 09 12 59 26 .13    -201    167    -67    262    271 309.6 -14.5  33926  285.61 0862.90
2015 04 09 12 59 26 .38    -193    167    -56    256    263 310.9 -12.4  33926  285.61 0862.90
2015 04 09 12 59 26 .64    -179    157    -44    239    244 311.3 -10.5  33932  285.71 0862.91
2015 04 09 12 59 26 .89    -194    150    -40    246    250 307.8  -9.3  33926  285.61 0862.91
2015 04 09 12 59 27 .14    -168    136     -8    217    218 308.9  -2.2  33932  285.71 0862.91
2015 04 09 12 59 27 .38    -178    148    -53    232    238 309.6 -12.9  33924  285.57 0862.91
2015 04 09 12 59 27 .64    -166    132    -65    213    223 308.6 -17.0  33918  285.48 0862.91
2015 04 09 12 59 27 .89    -150    106    -48    184    191 305.3 -14.7  33918  285.48 0862.91
2015 04 09 12 59 28 .14    -136     90    -39    164    169 303.5 -13.7  33916  285.44 0862.91
2015 04 09 12 59 28 .39    -122     81    -40    147    153 303.7 -15.4  33916  285.44 0862.91
2015 04 09 12 59 28 .65    -118     85    -46    146    154 306.0 -17.6  33914  285.43 0862.91
2015 04 09 12 59 28 .90     -98     97    -43    139    146 314.8 -17.5  33924  285.60 0862.91
2015 04 09 12 59 29 .16    -110     72    -41    132    138 303.3 -21.8  33980  286.54 0862.91
2015 04 09 12 59 29 .40     -89     95    -36    131    136 316.8 -15.4  34012  287.08 0862.91
2015 04 09 12 59 29 .65    -101     87    -26    134    137 310.9 -11.3  34028  287.33 0862.91
2015 04 09 12 59 29 .90    -102     68    -27    123    126 303.7 -12.4  34020  287.20 0862.91
2015 04 09 12 59 30 .15     -92     81    -22    123    126 311.3 -10.3  34026  287.32 0862.91
2015 04 09 12 59 30 .40     -90     65    -22    112    115 305.9 -11.3  34028  287.35 0862.91
2015 04 09 12 59 30 .65     -98     56    -16    114    116 299.8  -8.2  34022  287.25 0862.91
2015 04 09 12 59 30 .90     -96     63    -14    116    117 303.3  -7.2  34022  287.25 0862.91
2015 04 09 12 59 31 .16     -68     93      5    116    117 323.9   2.8  34034  287.43 0862.91
2015 04 09 12 59 31 .41     -45    120     25    129    132 339.5  11.0  34044  287.62 0862.91
2015 04 09 12 59 31 .66     -66    112      6    131    132 329.3   2.8  34016  287.15 0862.91
2015 04 09 12 59 31 .91     -49    130     -2    140    141 339.1  -1.2  34012  287.06 0862.91
2015 04 09 12 59 32 .16     -88    127    -16    155    156 325.3  -6.2  34034  287.43 0862.91
2015 04 09 12 59 32 .41     -84    162     -7    183    184 332.4  -2.2  34036  287.49 0862.91
2015 04 09 12 59 32 .66     -69    162     14    177    178 336.8   4.6  34036  287.47 0862.91
2015 04 09 12 59 32 .91     -78     81     29    113    117 315.9  14.7  34036  287.49 0862.91
2015 04 09 12 59 33 .16     -82     60     47    102    112 306.4  26.6  34024  287.28 0862.90
2015 04 09 12 59 33 .41     -63     95     78    115    138 326.2  37.6  34034  287.43 0862.90
2015 04 09 12 59 33 .66     -78    107     -7    133    134 323.9  -3.1  34044  287.60 0862.90
2015 04 09 12 59 33 .91     -56     89      9    106    107 327.9   4.9  34042  287.59 0862.90
2015 04 09 12 59 34 .16    -148     57    -15    159    160 291.3  -5.6  34014  287.11 0862.90
2015 04 09 12 59 34 .41    -173     69    -24    187    189 292.0  -7.3  34016  287.15 0862.90
2015 04 09 12 59 34 .66    -168     17      7    169    170 275.9   2.5  34014  287.11 0862.90
2015 04 09 12 59 34 .92    -134     20    -17    136    138 278.8  -7.3  34020  287.20 0862.90
2015 04 09 12 59 35 .18     -90    -23    -32     94    100 255.4 -18.7  34042  287.57 0862.90
2015 04 09 12 59 35 .43    -108     30     21    113    115 285.5  10.6  34058  287.86 0862.90
2015 04 09 12 59 35 .67     -31      6     56     32     64 281.4  67.7  34074  288.13 0862.90
2015 04 09 12 59 35 .93    -150     76     -6    169    170 297.1  -2.2  34054  287.79 0862.90
2015 04 09 12 59 36 .18    -198     53    -24    206    208 285.1  -6.7  34000  286.86 0862.90
2015 04 09 12 59 36 .43    -222     74     -4    235    236 288.6  -1.2  34004  286.94 0862.90
2015 04 09 12 59 36 .68    -206     75    -27    220    222 290.0  -7.2  34002  286.89 0862.91
2015 04 09 12 59 36 .93    -162     28     -6    165    166 280.1  -2.2  34052  287.74 0862.91
2015 04 09 12 59 37 .18    -112     39      9    119    120 289.5   4.4  34066  287.98 0862.91
2015 04 09 12 59 37 .43    -128      1     -5    129    130 270.8  -2.2  34052  287.76 0862.91
2015 04 09 12 59 37 .68    -217     44    -15    222    223 281.5  -3.9  33994  286.76 0862.91
2015 04 09 12 59 37 .93     -75     45     -3     88     89 301.1  -2.2  34042  287.59 0862.91
2015 04 09 12 59 38 .18     -87     33      4     94     95 290.8   2.9  34058  287.86 0862.91
2015 04 09 12 59 38 .43    -183     36     -4    187    188 281.2  -1.3  34016  287.13 0862.91
2015 04 09 12 59 38 .68    -226     41    -15    230    231 280.4  -3.7  34004  286.93 0862.91
2015 04 09 12 59 38 .93    -284     76    -46    294    298 285.0  -9.0  33950  286.03 0862.91
2015 04 09 12 59 39 .19    -257     75    -45    268    272 286.4  -9.6  33950  286.03 0862.91
2015 04 09 12 59 39 .43    -260     67    -51    269    274 284.6 -10.9  33944  285.91 0862.91
2015 04 09 12 59 39 .68    -239     59    -38    247    250 283.9  -8.8  33948  285.98 0862.91
2015 04 09 12 59 39 .93    -235     78    -38    248    251 288.6  -8.8  33970  286.35 0862.91
2015 04 09 12 59 40 .19    -245     81    -47    259    264 288.4 -10.3  33970  286.36 0862.91
2015 04 09 12 59 40 .43    -240     66    -45    250    255 285.5 -10.3  33948  285.98 0862.91
2015 04 09 12 59 40 .69    -237     59    -26    245    247 284.2  -6.2  33952  286.04 0862.91
2015 04 09 12 59 40 .94    -212     76    -38    226    230 289.7  -9.6  33950  286.02 0862.91
2015 04 09 12 59 41 .19    -233     79    -31    247    250 288.8  -7.3  33958  286.15 0862.90
2015 04 09 12 59 41 .44    -206     80    -16    222    223 291.3  -4.1  33976  286.46 0862.90
2015 04 09 12 59 41 .69    -195     56     -2    204    205 286.2  -0.7  33994  286.78 0862.90
2015 04 09 12 59 41 .94    -238     67    -46    248    253 285.9 -10.5  33970  286.36 0862.90
2015 04 09 12 59 42 .20    -209     83    -38    226    230 291.7  -9.6  33992  286.74 0862.90
2015 04 09 12 59 42 .45    -217    106    -21    242    244 296.2  -5.1  34002  286.90 0862.90
2015 04 09 12 59 42 .70    -216    114    -37    245    248 297.9  -8.6  34002  286.89 0862.90
2015 04 09 12 59 42 .95    -219     99    -67    241    251 294.4 -15.5  33954  286.09 0862.90
2015 04 09 12 59 43 .20    -253     90    -56    269    275 289.7 -11.9  33960  286.18 0862.90
2015 04 09 12 59 43 .45    -255     83    -49    269    274 288.2 -10.5  33962  286.23 0862.90
2015 04 09 12 59 43 .70    -242     68    -45    252    257 285.7 -10.1  33962  286.23 0862.90
2015 04 09 12 59 43 .95    -217     64    -38    227    231 286.4  -9.6  33972  286.39 0862.91
2015 04 09 12 59 44 .21    -220     73    -42    232    236 288.4 -10.4  33954  286.09 0862.91
2015 04 09 12 59 44 .46    -239     78    -56    252    259 288.2 -12.6  33958  286.16 0862.91
2015 04 09 12 59 44 .71    -224     77    -56    238    245 289.1 -13.4  33974  286.42 0862.91
2015 04 09 12 59 44 .95    -193     84    -50    211    217 293.5 -13.4  33978  286.51 0862.91
2015 04 09 12 59 45 .20    -191     78    -37    207    211 292.4 -10.3  33970  286.37 0862.91
2015 04 09 12 59 45 .46    -211    107    -46    237    242 297.0 -11.1  33976  286.47 0862.91
2015 04 09 12 59 45 .71    -220    106    -58    245    252 295.8 -13.4  33984  286.58 0862.91
2015 04 09 12 59 45 .96    -232    110    -38    257    260 295.4  -8.6  33982  286.55 0862.91
2015 04 09 12 59 46 .21    -214    109    -42    241    245 297.1 -10.1  33986  286.63 0862.91
2015 04 09 12 59 46 .46    -178    113     -8    211    212 302.4  -2.2  33996  286.79 0862.91
2015 04 09 12 59 46 .71    -206     86    -24    224    226 292.6  -6.2  33978  286.49 0862.91
2015 04 09 12 59 46 .96    -195     66    -34    207    210 288.8  -9.3  33996  286.81 0862.91
2015 04 09 12 59 47 .21    -176     76    -27    192    194 293.5  -8.0  34002  286.91 0862.91
2015 04 09 12 59 47 .46    -119    125      7    173    174 316.3   2.5  34012  287.06 0862.91
2015 04 09 12 59 47 .71    -139    105      0    175    176 307.1  -0.3  34016  287.15 0862.91
2015 04 09 12 59 47 .96    -134    121     -9    181    182 312.0  -3.1  34000  286.88 0862.91
2015 04 09 12 59 48 .22    -152    125    -10    198    199 309.5  -3.1  33984  286.61 0862.91
2015 04 09 12 59 48 .46    -138    113    -37    179    183 309.5 -11.9  34008  287.01 0862.91
2015 04 09 12 59 48 .72    -161    100    -12    190    191 301.8  -3.7  34014  287.11 0862.91
2015 04 09 12 59 48 .97    -138     89    -23    165    167 302.9  -8.0  34000  286.88 0862.91
2015 04 09 12 59 49 .23    -126     82    -16    151    152 303.3  -6.2  33998  286.84 0862.90
2015 04 09 12 59 49 .48    -144     78    -32    164    168 298.6 -11.1  33984  286.59 0862.90
2015 04 09 12 59 49 .73    -135     80    -14    158    159 300.7  -5.2  33998  286.83 0862.90
2015 04 09 12 59 49 .98    -135     63    -30    150    154 295.2 -11.3  34016  287.15 0862.90
2015 04 09 12 59 50 .23     -97     20      4    100    101 281.9   2.8  34026  287.32 0862.90
2015 04 09 12 59 50 .48    -131     18    -22    133    135 277.9  -9.4  34012  287.08 0862.90
2015 04 09 12 59 50 .73    -122    -37     12    128    129 253.1   5.4  34040  287.55 0862.90
2015 04 09 12 59 50 .98    -110     22    -30    113    117 281.4 -15.0  34012  287.06 0862.90
2015 04 09 12 59 51 .23     -31     64     14     72     74 333.7  11.0  34032  287.40 0862.90
2015 04 09 12 59 51 .48     -55     73      9     92     93 322.6   5.9  34024  287.28 0862.90
2015 04 09 12 59 51 .73     -93     52      5    107    108 299.3   2.8  34012  287.06 0862.90
2015 04 09 12 59 51 .98    -188     53      4    196    197 285.9   1.2  34002  286.91 0862.90
2015 04 09 12 59 52 .24    -191     51    -49    198    204 285.1 -13.9  33986  286.64 0862.90
2015 04 09 12 59 52 .49    -191      3    -45    192    198 271.0 -13.4  33990  286.69 0862.90
2015 04 09 12 59 52 .74    -181     13    -23    182    184 274.1  -7.3  34044  287.62 0862.90
2015 04 09 12 59 52 .99    -116     12     -4    117    118 276.1  -2.2  34054  287.77 0862.90
2015 04 09 12 59 53 .23    -142     10     -2    143    144 274.4  -1.2  34036  287.49 0862.90
2015 04 09 12 59 53 .48    -198     18    -36    199    203 275.5 -10.5  33984  286.59 0862.90
2015 04 09 12 59 53 .74    -175     66    -34    188    192 290.8 -10.5  33998  286.83 0862.91
2015 04 09 12 59 53 .99    -114     81     -9    141    142 305.5  -3.7  34030  287.38 0862.91
2015 04 09 12 59 54 .24    -143     84    -37    166    171 300.4 -12.6  34038  287.50 0862.91
2015 04 09 12 59 54 .49    -162     83    -24    183    185 297.1  -7.7  34024  287.27 0862.91
2015 04 09 12 59 54 .74    -237     90    -34    254    257 290.9  -7.7  33998  286.82 0862.91
2015 04 09 12 59 54 .99    -274    113    -60    297    303 292.4 -11.5  33928  285.64 0862.91
2015 04 09 12 59 55 .24    -302    105    -57    320    326 289.3 -10.2  33926  285.62 0862.91
2015 04 09 12 59 55 .50    -319    104    -62    336    342 288.1 -10.5  33962  286.24 0862.91
2015 04 09 12 59 55 .74    -268    137    -54    302    307 297.1 -10.3  33960  286.20 0862.91
2015 04 09 12 59 55 .99    -252    123    -87    281    295 296.0 -17.3  33920  285.51 0862.91
2015 04 09 12 59 56 .25    -225    115    -71    253    263 297.1 -15.8  33920  285.52 0862.91
2015 04 09 12 59 56 .50    -229    119    -88    259    274 297.5 -18.9  33924  285.57 0862.91
2015 04 09 12 59 56 .75    -199     88    -60    218    227 294.0 -15.4  33940  285.85 0862.91
2015 04 09 12 59 57 .00    -183     98    -37    208    212 298.4 -10.3  33952  286.07 0862.91
2015 04 09 12 59 57 .26    -160    103     -4    191    192 302.9  -1.3  33968  286.32 0862.91
2015 04 09 12 59 57 .50    -184    116    -31    218    221 302.4  -8.2  34006  286.98 0862.91
2015 04 09 12 59 57 .76    -166     98    -32    194    197 300.7  -9.6  34012  287.06 0862.91
2015 04 09 12 59 58 .01    -147    115    -24    187    189 308.0  -7.3  34038  287.50 0862.91
2015 04 09 12 59 58 .26    -170    132    -35    216    219 307.8  -9.3  34040  287.54 0862.91
2015 04 09 12 59 58 .51    -145    117    -14    187    188 308.9  -4.4  34076  288.16 0862.91
2015 04 09 12 59 58 .76    -146    150    -33    210    213 315.9  -9.0  34090  288.38 0862.91
2015 04 09 12 59 59 .01    -145    144    -39    205    209 314.8 -10.9  34046  287.65 0862.91
2015 04 09 12 59 59 .25    -204    145    -22    251    253 305.5  -5.2  34002  286.89 0862.91
2015 04 09 12 59 59 .51    -188    160    -74    248    259 310.4 -16.6  33912  285.37 0862.91
2015 04 09 12 59 59 .77    -197    162    -60    256    263 309.5 -13.3  34010  287.02 0862.91
2015 04 09 13 00 00 .01    -222    156    -64    272    280 305.0 -13.4  33998  286.82 0862.91
2015 04 09 13 00 00 .26    -186    114    -52    219    226 301.5 -13.4  34010  287.05 0862.91
2015 04 09 13 00 00 .51    -214    155    -58    265    272 306.0 -12.4  34000  286.87 0862.91
2015 04 09 13 00 00 .76    -203    119    -40    236    240 300.4  -9.6  33998  286.82 0862.91
2015 04 09 13 00 01 .01    -236    160    -97    286    303 304.2 -18.7  33962  286.21 0862.91
2015 04 09 13 00 01 .26    -229    119    -91    259    275 297.5 -19.4  34018  287.16 0862.91
2015 04 09 13 00 01 .52    -229     96    -88    249    265 292.7 -19.6  34002  286.89 0862.91
2015 04 09 13 00 01 .77    -220    106    -41    245    249 295.8  -9.6  34002  286.89 0862.91
2015 04 09 13 00 02 .02    -167     55     -2    177    178 288.4  -0.7  34012  287.08 0862.91
2015 04 09 13 00 02 .27    -104    114    -34    155    159 317.7 -12.4  34026  287.32 0862.91
2015 04 09 13 00 02 .52     -57    107     45    122    130 331.9  20.9  34036  287.47 0862.91
2015 04 09 13 00 02 .77     -55     78     -9     96     97 324.4  -5.6  34046  287.65 0862.91
2015 04 09 13 00 03 .03     -41     68     21     80     83 328.8  14.7  34056  287.81 0862.91
2015 04 09 13 00 03 .28     -53     78     34     95    100 325.7  20.0  34066  287.98 0862.91
2015 04 09 13 00 03 .53     -97      0     -3     98     99 270.4  -2.2  34056  287.81 0862.91
2015 04 09 13 00 03 .78     -68     56    -19     89     92 309.5 -12.4  33992  286.74 0862.91
2015 04 09 13 00 04 .03     -20     36     -2     42     43 330.1  -3.1  33990  286.69 0862.91
2015 04 09 13 00 04 .28     -68     78    -39    104    111 319.0 -25.9  34000  286.88 0862.91
2015 04 09 13 00 04 .53     -79     79    -31    112    117 314.9 -15.5  33986  286.64 0862.91
2015 04 09 13 00 04 .78    -106     89    -43    139    145 310.0 -22.8  33978  286.51 0862.91
2015 04 09 13 00 05 .03    -128     55    -10    140    141 293.5  -4.1  33958  286.17 0862.91
2015 04 09 13 00 05 .28    -119     -5    -15    120    121 267.4  -7.3  33964  286.27 0862.91
2015 04 09 13 00 05 .54     -39     54      3     67     68 323.9   2.9  33982  286.57 0862.91
2015 04 09 13 00 05 .79     -56     21     49     60     77 290.8  43.7  33996  286.79 0862.91
2015 04 09 13 00 06 .03     -21     24      1     33     34 318.6   2.9  33992  286.74 0862.91
2015 04 09 13 00 06 .29    -108     29     11    112    113 285.1   5.9  33972  286.41 0862.91
2015 04 09 13 00 06 .54    -169     74    -37    185    189 293.7 -11.5  33930  285.70 0862.90
2015 04 09 13 00 06 .79    -151     91     -9    177    178 301.3  -3.1  33954  286.08 0862.90
2015 04 09 13 00 07 .03    -141     84    -21    165    167 300.7  -7.3  33926  285.63 0862.90
2015 04 09 13 00 07 .29    -147     82    -19    169    171 299.3  -6.7  33946  285.97 0862.90
2015 04 09 13 00 07 .54    -137     83    -15    161    162 301.1  -5.6  33940  285.85 0862.90
2015 04 09 13 00 07 .79    -143     68    -28    159    162 295.4 -10.1  33948  285.98 0862.90
2015 04 09 13 00 08 .04    -140     61    -22    153    155 293.5  -8.2  33954  286.08 0862.90
2015 04 09 13 00 08 .29    -145     70    -32    162    166 296.0 -11.3  33952  286.05 0862.90
2015 04 09 13 00 08 .54    -137     46    -23    145    147 288.6  -9.3  33932  285.71 0862.90
2015 04 09 13 00 08 .79    -109     56     -4    123    124 297.1  -2.2  33952  286.07 0862.90
2015 04 09 13 00 09 .04    -109     64    -14    127    128 300.7  -6.7  33938  285.82 0862.90
2015 04 09 13 00 09 .29    -122     72    -19    142    144 300.7  -7.7  33930  285.70 0862.90
2015 04 09 13 00 09 .54    -114     77    -26    138    141 304.2 -10.9  33930  285.68 0862.90
2015 04 09 13 00 09 .79    -122     52    -31    133    137 293.1 -13.3  33932  285.73 0862.90
2015 04 09 13 00 10 .05    -106     47    -27    117    121 294.0 -12.9  33938  285.83 0862.90
2015 04 09 13 00 10 .30    -119     40     -6    126    127 288.6  -3.1  33938  285.82 0862.90
2015 04 09 13 00 10 .56    -118     39    -16    125    127 288.6  -7.3  33930  285.68 0862.90
2015 04 09 13 00 10 .81    -118     46    -21    127    129 291.7  -9.8  33926  285.61 0862.90
2015 04 09 13 00 11 .06    -134     53    -10    145    146 291.7  -4.1  33926  285.63 0862.90
2015 04 09 13 00 11 .31    -138     36    -23    143    145 284.6  -9.3  33914  285.41 0862.90
2015 04 09 13 00 11 .56    -126     44     -8    134    135 289.5  -3.7  33928  285.66 0862.90
2015 04 09 13 00 11 .81    -135     22     -9    137    138 279.6  -4.1  33926  285.63 0862.90
2015 04 09 13 00 12 .06    -121     20    -10    123    124 279.7  -5.1  33924  285.58 0862.90
2015 04 09 13 00 12 .31    -120     20    -11    122    123 279.7  -5.2  33930  285.68 0862.90
2015 04 09 13 00 12 .56     -85     27     -8     90     91 287.7  -5.6  33946  285.95 0862.90
2015 04 09 13 00 12 .81    -115      0    -10    116    117 270.4  -5.2  33942  285.90 0862.90
2015 04 09 13 00 13 .06    -114     16     -9    116    117 278.4  -4.6  33930  285.70 0862.90
2015 04 09 13 00 13 .31    -122     25    -12    125    126 281.9  -5.6  33930  285.70 0862.90
2015 04 09 13 00 13 .56     -92     21    -10     95     96 283.3  -6.2  33942  285.90 0862.90
2015 04 09 13 00 13 .81    -104     25    -13    108    109 283.7  -7.3  33936  285.80 0862.90
2015 04 09 13 00 14 .06     -67     22     13     71     73 288.2  11.0  33956  286.12 0862.90
2015 04 09 13 00 14 .32    -119      8    -21    120    122 274.3 -10.3  33932  285.71 0862.90
2015 04 09 13 00 14 .57     -30     16     46     35     57 298.9  58.5  33974  286.44 0862.90
2015 04 09 13 00 14 .81    -102    -23    -13    105    106 257.2  -7.2  33934  285.75 0862.90
2015 04 09 13 00 15 .07    -101     45    -19    111    113 294.0  -9.8  33936  285.78 0862.90
2015 04 09 13 00 15 .32    -126     28    -15    130    131 282.8  -6.7  33936  285.78 0862.90
2015 04 09 13 00 15 .57     -88     13     -3     90     91 278.8  -2.2  33946  285.95 0862.90
2015 04 09 13 00 15 .82    -102      7     11    103    104 274.4   6.5  33944  285.92 0862.90
2015 04 09 13 00 16 .07    -133     16    -22    134    136 277.0  -9.4  33956  286.14 0862.90
2015 04 09 13 00 16 .31    -126     23    -25    129    132 280.6 -11.3  33946  285.95 0862.90
2015 04 09 13 00 16 .57    -111     39      9    118    119 289.5   4.4  33952  286.05 0862.90
2015 04 09 13 00 16 .82     -62     45     -4     77     78 305.9  -3.1  33948  286.00 0862.90
2015 04 09 13 00 17 .08    -145     52    -15    155    156 289.9  -5.6  33928  285.66 0862.90
2015 04 09 13 00 17 .33    -124     48    -14    134    135 291.3  -6.2  33934  285.76 0862.90
2015 04 09 13 00 17 .58    -136     41    -13    143    144 286.8  -5.6  33938  285.82 0862.90
2015 04 09 13 00 17 .83    -135      9     -7    136    137 273.9  -3.1  33950  286.03 0862.90
2015 04 09 13 00 18 .08    -113     16    -23    115    118 278.4 -11.5  33954  286.10 0862.90
2015 04 09 13 00 18 .33    -107     21    -30    110    115 281.4 -15.4  33954  286.10 0862.90
2015 04 09 13 00 18 .59    -100     29    -28    105    109 286.4 -15.4  33956  286.14 0862.90
2015 04 09 13 00 18 .83     -92     24     -7     96     97 285.1  -4.6  33978  286.49 0862.90
2015 04 09 13 00 19 .08     -75     10      3     76     77 277.9   2.9  33976  286.47 0862.90
2015 04 09 13 00 19 .33     -71      5      0     72     73 274.4  -0.3  33948  286.00 0862.90
2015 04 09 13 00 19 .58     -70     14     -5     72     73 281.4  -4.1  33944  285.92 0862.90
2015 04 09 13 00 19 .84     -70     29     -6     76     77 292.6  -5.2  33950  286.03 0862.90
2015 04 09 13 00 20 .08     -67     41     -3     79     80 301.5  -2.2  33948  286.00 0862.89
2015 04 09 13 00 20 .34     -72     40     -2     83     84 298.9  -1.8  33950  286.03 0862.89
2015 04 09 13 00 20 .59     -96     52    -22    110    113 298.8 -11.3  33938  285.82 0862.89
2015 04 09 13 00 20 .84     -98     45     -5    108    109 294.8  -3.1  33940  285.87 0862.89
2015 04 09 13 00 21 .09     -96     61    -14    114    115 302.4  -7.3  33926  285.63 0862.89
2015 04 09 13 00 21 .34     -83     53    -12     99    100 302.4  -7.3  33936  285.78 0862.89
2015 04 09 13 00 21 .59     -91     44     -4    102    103 295.8  -2.2  33946  285.97 0862.89
2015 04 09 13 00 21 .84     -82     39    -18     92     94 295.8 -11.3  33952  286.05 0862.89
2015 04 09 13 00 22 .09    -107     43    -18    116    118 292.2  -8.8  33970  286.35 0862.89
2015 04 09 13 00 22 .34     -68     48     -3     84     85 305.5  -2.2  33960  286.20 0862.89
2015 04 09 13 00 22 .59     -60     28    -18     67     70 295.3 -15.4  33954  286.10 0862.89
2015 04 09 13 00 22 .84     -23     57     -5     62     63 338.1  -5.2  33976  286.46 0862.89
2015 04 09 13 00 23 .09     -31     30    -16     44     46 314.0 -24.4  33976  286.46 0862.89
2015 04 09 13 00 23 .34     -42      0    -14     43     45 270.8 -23.8  33976  286.47 0862.89
2015 04 09 13 00 23 .60      -7    -11      0     14     15 212.6   2.9  33976  286.47 0862.89
2015 04 09 13 00 23 .86      -2     -7     16      8     17 198.5  72.9  33998  286.84 0862.90
2015 04 09 13 00 24 .10     -21     20    -15     30     33 313.1 -31.6  34010  287.05 0862.90
2015 04 09 13 00 24 .36     -27    100    -15    104    106 344.8  -8.2  34022  287.23 0862.90
2015 04 09 13 00 24 .61     -72     77      5    106    107 316.7   2.9  34020  287.20 0862.90
2015 04 09 13 00 24 .86    -145    117      7    187    188 308.9   2.3  33998  286.84 0862.90
2015 04 09 13 00 25 .11    -133    104     -9    169    170 308.0  -3.1  33994  286.78 0862.90
2015 04 09 13 00 25 .36    -134     85    -10    159    160 302.4  -3.9  34006  286.96 0862.90
2015 04 09 13 00 25 .61    -139     83    -15    163    164 300.9  -5.6  34012  287.06 0862.91
2015 04 09 13 00 25 .86    -158    124     -2    202    203 308.2  -0.7  34020  287.20 0862.91
2015 04 09 13 00 26 .11     -99    113     22    151    153 319.0   8.5  34030  287.38 0862.91
2015 04 09 13 00 26 .36    -103    129      2    166    167 321.3   0.8  34030  287.38 0862.91
2015 04 09 13 00 26 .61    -153     91     -3    179    180 300.9  -1.3  34030  287.38 0862.91
2015 04 09 13 00 26 .86    -131     68     -8    148    149 297.5  -3.1  34024  287.28 0862.91
2015 04 09 13 00 27 .11    -120     76    -10    143    144 302.4  -4.1  33984  286.59 0862.91
2015 04 09 13 00 27 .37    -184     35    -29    188    191 281.0  -9.0  33986  286.62 0862.91
2015 04 09 13 00 27 .61    -175     62    -12    186    187 289.5  -3.9  33984  286.59 0862.91
2015 04 09 13 00 27 .86    -174     36     -2    178    179 281.9  -0.7  33982  286.56 0862.91
2015 04 09 13 00 28 .12    -178     87    -24    199    201 296.0  -6.9  33986  286.64 0862.91
2015 04 09 13 00 28 .37    -164     67    -11    178    179 292.4  -3.7  34000  286.86 0862.91
2015 04 09 13 00 28 .62    -133     86     -7    159    160 302.9  -2.8  34010  287.05 0862.91
2015 04 09 13 00 28 .87    -153    159    -12    221    222 316.1  -3.2  34008  287.01 0862.91
2015 04 09 13 00 29 .12    -205    190      5    280    281 312.9   1.2  34002  286.90 0862.91
2015 04 09 13 00 29 .37    -236    184    -49    300    305 308.0  -9.4  33996  286.79 0862.90
2015 04 09 13 00 29 .62    -265    183    -33    323    325 304.6  -5.9  33994  286.77 0862.90
2015 04 09 13 00 29 .87    -234     98    -56    254    261 292.7 -12.6  33990  286.68 0862.90
2015 04 09 13 00 30 .12    -240     96    -67    259    268 291.8 -14.7  33990  286.68 0862.90
2015 04 09 13 00 30 .37    -238     92    -83    256    269 291.1 -23.3  33980  286.52 0862.90
2015 04 09 13 00 30 .62    -222    140    -52    263    269 302.4 -11.3  33976  286.47 0862.90
2015 04 09 13 00 30 .88    -211    138    -32    253    256 303.3  -7.3  33984  286.58 0862.90
2015 04 09 13 00 31 .13    -221    118    -18    251    252 298.2  -4.1  34008  287.01 0862.90
2015 04 09 13 00 31 .38    -169    123    -19    210    211 306.0  -5.2  34028  287.33 0862.90
2015 04 09 13 00 31 .64    -186     80    -19    203    205 293.3  -5.6  34018  287.18 0862.90
2015 04 09 13 00 31 .89    -204      3    -26    205    207 270.9  -7.5  34018  287.18 0862.90
2015 04 09 13 00 32 .14    -211     84    -12    228    229 291.8  -3.1  34036  287.47 0862.90
2015 04 09 13 00 32 .38    -278     61    -36    285    288 282.4  -7.3  34044  287.61 0862.90
2015 04 09 13 00 32 .64     -87    136    -31    162    166 327.4 -10.9  34062  287.92 0862.90
2015 04 09 13 00 32 .89    -262     61    -15    270    271 283.2  -3.2  34022  287.24 0862.90
2015 04 09 13 00 33 .14    -295     69    -86    304    316 283.3 -15.8  34030  287.36 0862.90
2015 04 09 13 00 33 .39    -237    155    -20    284    285 303.3  -4.1  34054  287.78 0862.90
2015 04 09 13 00 33 .64    -211    157    -10    264    265 306.6  -2.3  34074  288.12 0862.90
2015 04 09 13 00 33 .89    -186    150    -17    240    241 308.9  -4.1  34090  288.37 0862.90
2015 04 09 13 00 34 .14    -114    114    -13    162    163 315.0  -4.6  34120  288.91 0862.90
2015 04 09 13 00 34 .39    -237     91    -27    255    257 291.1  -6.2  34062  287.90 0862.90
2015 04 09 13 00 34 .64    -203    112      2    232    233 298.9   0.7  34058  287.85 0862.90
2015 04 09 13 00 34 .89    -225    103    -35    248    251 294.6  -8.2  34052  287.75 0862.90
2015 04 09 13 00 35 .14    -232     41    -11    236    237 280.1  -2.8  34068  288.02 0862.90
2015 04 09 13 00 35 .39    -223     83    -27    239    241 290.4  -6.5  34046  287.65 0862.90
2015 04 09 13 00 35 .64    -274     82    -20    287    288 286.8  -4.1  34042  287.56 0862.90
2015 04 09 13 00 35 .89    -217    115      6    246    247 298.0   1.6  34040  287.53 0862.90
2015 04 09 13 00 36 .15    -160     79    -51    179    187 296.4 -16.0  34058  287.86 0862.90
2015 04 09 13 00 36 .39    -294    176    -59    343    349 300.9  -9.8  34002  286.90 0862.90
2015 04 09 13 00 36 .65    -284    198    -44    347    350 304.9  -7.3  33946  285.95 0862.90
2015 04 09 13 00 36 .90    -266    169    -28    316    318 302.4  -5.1  33946  285.96 0862.90
2015 04 09 13 00 37 .15    -264    155    -39    307    310 300.4  -7.3  33954  286.08 0862.90
2015 04 09 13 00 37 .40    -319    198    -44    376    379 301.8  -6.7  34018  287.18 0862.90
2015 04 09 13 00 37 .64    -335    162    -47    373    376 295.8  -7.2  34036  287.47 0862.90
2015 04 09 13 00 37 .90    -334    133    -64    360    366 291.7 -10.2  34030  287.37 0862.90
2015 04 09 13 00 38 .16    -394    158    -55    425    429 291.9  -7.5  33974  286.42 0862.90
2015 04 09 13 00 38 .41    -393    162    -83    426    435 292.5 -11.1  33920  285.51 0862.90
2015 04 09 13 00 38 .66    -372    164    -73    407    414 293.9 -10.3  33912  285.39 0862.90
2015 04 09 13 00 38 .91    -366    152    -65    397    403 292.6  -9.3  33914  285.40 0862.90
2015 04 09 13 00 39 .16    -338    132    -66    364    371 291.4 -10.4  33916  285.45 0862.90
2015 04 09 13 00 39 .41    -335    136    -48    362    366 292.2  -7.7  33924  285.58 0862.90
2015 04 09 13 00 39 .67    -338    126    -61    361    367 290.5  -9.7  33940  285.85 0862.90
2015 04 09 13 00 39 .92    -305    104    -40    323    326 289.0  -7.2  33988  286.65 0862.90
2015 04 09 13 00 40 .16    -326    118    -45    347    350 290.0  -7.5  33924  285.58 0862.90
2015 04 09 13 00 40 .41    -343    127    -70    366    373 290.4 -10.9  33914  285.41 0862.90
2015 04 09 13 00 40 .67    -360    120    -62    380    386 288.4  -9.3  33914  285.40 0862.90
2015 04 09 13 00 40 .92    -360    120    -68    380    387 288.4 -10.2  33918  285.48 0862.90
2015 04 09 13 00 41 .17    -343    126    -60    366    371 290.2  -9.3  33962  286.24 0862.90
2015 04 09 13 00 41 .42    -344    102    -73    359    367 286.5 -11.5  33968  286.34 0862.90
2015 04 09 13 00 41 .66    -323    139    -82    352    362 293.3 -13.1  33914  285.43 0862.90
2015 04 09 13 00 41 .92    -349    116    -76    368    376 288.4 -11.8  33936  285.80 0862.90
2015 04 09 13 00 42 .17    -344    116    -72    364    372 288.7 -11.2  33928  285.65 0862.90
2015 04 09 13 00 42 .42    -347    163    -92    384    395 295.2 -13.6  33918  285.50 0862.90
2015 04 09 13 00 42 .67    -325    147    -74    358    366 294.4 -11.8  33932  285.72 0862.90
2015 04 09 13 00 42 .92    -293    109    -75    313    322 290.4 -13.6  33930  285.69 0862.90
2015 04 09 13 00 43 .17    -323     93    -74    337    346 286.2 -12.5  33930  285.68 0862.90
2015 04 09 13 00 43 .42    -259     89    -29    275    277 289.1  -6.2  33968  286.33 0862.90
2015 04 09 13 00 43 .67    -282    102    -51    300    305 289.9  -9.8  33994  286.77 0862.90
2015 04 09 13 00 43 .92    -304    160    -73    344    352 297.9 -12.0  33970  286.36 0862.90
2015 04 09 13 00 44 .17    -327    103    -66    344    351 287.6 -11.0  33994  286.76 0862.90
2015 04 09 13 00 44 .42    -311     99    -63    327    334 287.7 -10.9  34000  286.88 0862.90
2015 04 09 13 00 44 .67    -330    104    -43    347    350 287.5  -7.2  33968  286.31 0862.90
2015 04 09 13 00 44 .94    -319     89    -59    332    338 285.7 -10.2  33976  286.46 0862.90
2015 04 09 13 00 45 .18    -311     87    -38    324    327 285.7  -6.8  33992  286.72 0862.90
2015 04 09 13 00 45 .44    -300     75    -32    310    312 284.2  -5.9  34010  287.02 0862.90
2015 04 09 13 00 45 .68    -286     62    -69    293    302 282.3 -13.3  33912  285.37 0862.90
2015 04 09 13 00 45 .93    -307     73    -77    316    326 283.5 -13.8  33920  285.51 0862.90
2015 04 09 13 00 46 .18    -300     65    -79    308    319 282.3 -14.5  33924  285.57 0862.90
2015 04 09 13 00 46 .44    -294     71    -96    303    318 283.7 -17.7  33950  286.03 0862.90
2015 04 09 13 00 46 .68    -305     90    -64    319    326 286.5 -11.3  33940  285.84 0862.90
2015 04 09 13 00 46 .94    -314     91    -66    327    334 286.2 -11.6  33924  285.57 0862.90
2015 04 09 13 00 47 .20    -297     76    -47    307    311 284.4  -8.8  33950  286.03 0862.90
2015 04 09 13 00 47 .44    -297     72    -16    306    307 283.7  -3.1  33994  286.77 0862.90
2015 04 09 13 00 47 .69    -304     66    -43    312    315 282.4  -7.9  33918  285.47 0862.90
2015 04 09 13 00 47 .95    -290     67    -37    298    301 283.2  -7.2  33950  286.01 0862.90
2015 04 09 13 00 48 .19    -251     51    -28    257    259 281.7  -6.2  33986  286.63 0862.91
2015 04 09 13 00 48 .44    -283     51    -53    288    293 280.4 -10.5  33920  285.52 0862.91
2015 04 09 13 00 48 .69    -314     86    -49    326    330 285.4  -8.7  33914  285.43 0862.91
2015 04 09 13 00 48 .94    -316    103    -63    333    340 288.2 -10.8  33916  285.45 0862.91
2015 04 09 13 00 49 .19    -324    114    -63    344    350 289.4 -10.4  33932  285.72 0862.91
2015 04 09 13 00 49 .45    -307     92    -29    321    323 286.8  -5.3  33970  286.36 0862.91
2015 04 09 13 00 49 .69    -281    101    -33    299    301 289.9  -6.5  33940  285.86 0862.91
2015 04 09 13 00 49 .95    -304     81    -43    315    318 285.1  -7.9  33924  285.57 0862.91
2015 04 09 13 00 50 .19    -293     87    -53    306    311 286.6  -9.9  33920  285.51 0862.91
2015 04 09 13 00 50 .45    -282     81    -42    294    298 286.0  -8.2  33924  285.57 0862.91
2015 04 09 13 00 50 .70    -263     84    -29    277    279 287.8  -6.0  33940  285.84 0862.91
2015 04 09 13 00 50 .95    -279     98    -27    296    298 289.5  -5.4  33936  285.79 0862.90
2015 04 09 13 00 51 .20    -252     86    -36    267    270 289.0  -7.7  33946  285.94 0862.90
2015 04 09 13 00 51 .45    -219     69    -12    230    231 287.5  -3.2  33956  286.12 0862.90
2015 04 09 13 00 51 .71    -221     39    -23    225    227 280.1  -6.0  33962  286.22 0862.90
2015 04 09 13 00 51 .96    -309     59    -41    315    318 280.8  -7.5  33938  285.81 0862.90
2015 04 09 13 00 52 .21    -312     99    -46    328    332 287.6  -8.1  33940  285.87 0862.90
2015 04 09 13 00 52 .46    -319     67    -30    327    329 281.9  -5.3  33940  285.84 0862.90
2015 04 09 13 00 52 .71    -300     40    -48    303    307 277.7  -9.1  33920  285.52 0862.91
2015 04 09 13 00 52 .96    -256    101    -35    276    279 291.7  -7.3  33940  285.86 0862.91
2015 04 09 13 00 53 .21    -261    114    -36    285    288 293.6  -7.3  33928  285.64 0862.91
2015 04 09 13 00 53 .46    -244    109    -40    268    272 294.2  -8.6  33934  285.76 0862.91
2015 04 09 13 00 53 .71    -289     17    -36    290    293 273.4  -7.2  33924  285.59 0862.91
2015 04 09 13 00 53 .96    -293     50    -76    298    308 279.7 -14.3  33914  285.40 0862.91
2015 04 09 13 00 54 .21    -292     57    -76    298    308 281.2 -14.3  33914  285.40 0862.91
2015 04 09 13 00 54 .46    -283     43    -74    287    297 278.8 -14.5  33914  285.42 0862.91
2015 04 09 13 00 54 .71    -274     42    -56    278    284 278.8 -11.5  33914  285.42 0862.92
2015 04 09 13 00 54 .97    -281     57    -67    287    295 281.5 -13.3  33918  285.47 0862.92
2015 04 09 13 00 55 .21    -259     61    -61    267    274 283.3 -12.9  33918  285.49 0862.92
2015 04 09 13 00 55 .47    -244     50    -55    250    257 281.7 -12.4  33914  285.40 0862.92
2015 04 09 13 00 55 .72    -237     51    -44    243    248 282.3 -10.4  33918  285.47 0862.92
2015 04 09 13 00 55 .97    -238     47    -48    243    248 281.4 -11.3  33916  285.44 0862.92
2015 04 09 13 00 56 .22    -213     39    -55    217    224 280.6 -14.3  33914  285.43 0862.92
2015 04 09 13 00 56 .47    -216     39    -38    220    224 280.4  -9.8  33914  285.43 0862.92
2015 04 09 13 00 56 .72    -214     48    -54    220    227 282.6 -13.9  33918  285.48 0862.92
2015 04 09 13 00 56 .97    -201     66    -50    212    218 288.4 -13.4  33916  285.46 0862.92
2015 04 09 13 00 57 .22    -178     56    -23    187    189 287.5  -7.2  33934  285.75 0862.92
2015 04 09 13 00 57 .47    -187     28    -17    190    191 278.6  -5.2  33936  285.78 0862.92
2015 04 09 13 00 57 .72    -146     34    -34    150    154 283.3 -12.9  33922  285.56 0862.92
2015 04 09 13 00 57 .97    -164      1    -22    165    167 270.6  -7.7  33926  285.63 0862.92
2015 04 09 13 00 58 .23    -174     13     -7    175    176 274.3  -2.3  33934  285.75 0862.92
2015 04 09 13 00 58 .47    -159     24    -44    161    168 278.6 -15.4  33920  285.51 0862.92
2015 04 09 13 00 58 .73    -169     24    -40    171    176 278.1 -13.2  33920  285.51 0862.92
2015 04 09 13 00 58 .99    -177     35    -40    181    186 281.2 -12.6  33922  285.56 0862.92
2015 04 09 13 00 59 .23    -174     31    -38    177    182 280.1 -12.2  33924  285.60 0862.92
2015 04 09 13 00 59 .48    -150     22    -40    152    158 278.4 -14.7  33914  285.43 0862.92
2015 04 09 13 00 59 .73    -140     23    -45    142    150 279.6 -17.6  33914  285.43 0862.92
2015 04 09 13 00 59 .98    -154     25    -47    157    163 279.2 -21.7  33916  285.44 0862.92
2015 04 09 13 01 00 .24    -140      8    -41    141    146 273.5 -21.2  33914  285.43 0862.91
2015 04 09 13 01 00 .49    -131      0    -44    132    140 269.6 -18.7  33914  285.43 0862.91
2015 04 09 13 01 00 .74    -137      0    -39    138    143 269.6 -20.2  33916  285.44 0862.91
2015 04 09 13 01 00 .99    -147    -31    -59    151    162 258.1 -26.7  33940  285.85 0862.91
2015 04 09 13 01 01 .24    -149    -59    -15    161    162 248.3  -5.4  33966  286.30 0862.91
2015 04 09 13 01 01 .49    -168     -5    -54    169    177 268.1 -22.8  33970  286.37 0862.91
2015 04 09 13 01 01 .74    -136     15    -27    137    140 276.6 -11.3  33962  286.24 0862.91
2015 04 09 13 01 01 .99     -90     30     25     95     99 288.4  15.2  33980  286.54 0862.91
2015 04 09 13 01 02 .24     -99    -47     -1    110    111 244.2  -0.7  34000  286.86 0862.91
2015 04 09 13 01 02 .49    -156    -29    -11    159    160 259.4  -4.1  33992  286.74 0862.91
2015 04 09 13 01 02 .75    -155     21     -7    157    158 277.9  -2.8  34016  287.15 0862.91
2015 04 09 13 01 02 .99     -73    -17      0     75     76 256.7  -0.3  34012  287.06 0862.91
2015 04 09 13 01 03 .24     -85    -49     13     99    100 240.2   8.0  33976  286.47 0862.91
2015 04 09 13 01 03 .50    -158    -20      1    160    161 262.5   0.5  33946  285.95 0862.91
2015 04 09 13 01 03 .75    -159    -12      9    160    161 265.6   3.3  33964  286.25 0862.91
2015 04 09 13 01 04 .00    -219     32     -4    222    223 278.4  -1.3  33966  286.29 0862.91
2015 04 09 13 01 04 .25    -243    -16    -44    244    249 266.1 -10.4  33928  285.66 0862.91
2015 04 09 13 01 04 .50    -277     -8    -55    278    284 268.3 -11.3  33934  285.76 0862.91
2015 04 09 13 01 04 .75    -283    -12    -62    284    291 267.4 -12.4  33956  286.11 0862.91
2015 04 09 13 01 05 .00    -241     -7    -53    242    248 268.1 -12.4  33988  286.67 0862.91
2015 04 09 13 01 05 .25    -157     63    -11    170    171 292.0  -3.9  33996  286.79 0862.91
2015 04 09 13 01 05 .50    -171    -21    -12    173    174 262.8  -4.1  34012  287.06 0862.91
2015 04 09 13 01 05 .76    -142    -17     -2    144    145 263.0  -1.2  34002  286.91 0862.91
2015 04 09 13 01 06 .01    -113     45     13    122    123 291.8   6.5  33998  286.84 0862.91
2015 04 09 13 01 06 .26    -225     13      0    226    227 273.5   0.0  33996  286.79 0862.91
2015 04 09 13 01 06 .51    -235      0    -25    236    238 270.1  -6.1  34010  287.02 0862.91
2015 04 09 13 01 06 .76    -218      1    -12    219    220 270.4  -3.1  33936  285.78 0862.91
2015 04 09 13 01 07 .02    -237     22    -37    239    242 275.5  -8.8  33990  286.68 0862.91
2015 04 09 13 01 07 .26    -162     41      3    168    169 284.4   1.2  34060  287.89 0862.91
2015 04 09 13 01 07 .52    -212     27    -38    214    218 277.5 -10.1  34008  287.01 0862.91
2015 04 09 13 01 07 .76    -177    -25    -11    179    180 261.9  -3.7  33970  286.37 0862.91
2015 04 09 13 01 08 .02    -108     41     22    116    119 290.8  11.0  33982  286.56 0862.91
2015 04 09 13 01 08 .27    -138     55     -1    149    150 291.7  -0.7  33972  286.41 0862.91
2015 04 09 13 01 08 .52    -265     71    -36    275    278 285.1  -7.5  33918  285.47 0862.91
2015 04 09 13 01 08 .77    -266     39    -56    269    275 278.4 -11.9  33914  285.42 0862.91
2015 04 09 13 01 09 .02    -245     29    -58    247    254 277.0 -13.4  33916  285.44 0862.91
2015 04 09 13 01 09 .27    -244     23    -54    246    252 275.5 -12.4  33916  285.44 0862.91
2015 04 09 13 01 09 .52    -234     23    -42    236    240 275.7 -10.3  33916  285.44 0862.91
2015 04 09 13 01 09 .77    -240     40    -49    244    249 279.6 -11.5  33918  285.49 0862.91
2015 04 09 13 01 10 .02    -248     23    -45    250    255 275.5 -10.3  33920  285.51 0862.91
2015 04 09 13 01 10 .27    -232      9    -38    233    237 272.4  -9.3  33918  285.49 0862.91
2015 04 09 13 01 10 .52    -227     13    -25    228    230 273.3  -6.5  33920  285.53 0862.91
2015 04 09 13 01 10 .77    -231      0    -17    232    233 270.0  -4.4  33924  285.60 0862.91
2015 04 09 13 01 11 .03    -175     13    -26    176    179 274.3  -8.6  33952  286.05 0862.91
2015 04 09 13 01 11 .27    -201     21     -7    203    204 276.1  -2.2  33960  286.19 0862.91
2015 04 09 13 01 11 .52    -182     28    -17    185    186 278.8  -5.4  33942  285.90 0862.91
2015 04 09 13 01 11 .78    -200     45    -14    206    207 282.8  -4.1  33928  285.66 0862.91
2015 04 09 13 01 12 .03    -129      0     14    130    131 270.0   6.5  33946  285.95 0862.91
2015 04 09 13 01 12 .28    -173    -50    -15    181    182 253.8  -4.9  33932  285.71 0862.91
2015 04 09 13 01 12 .54    -197    -36    -48    201    207 259.6 -13.4  33918  285.48 0862.91
2015 04 09 13 01 12 .79    -184    -35    -59    188    198 259.2 -17.6  33920  285.51 0862.91
2015 04 09 13 01 13 .04    -213     16    -33    214    217 274.4  -8.8  33924  285.60 0862.91
2015 04 09 13 01 13 .29    -181    -13      6    182    183 265.7   2.1  33936  285.80 0862.91
2015 04 09 13 01 13 .54    -245      0    -45    246    251 270.0 -10.5  33934  285.74 0862.91
2015 04 09 13 01 13 .79    -261     27    -43    263    267 276.1  -9.3  33924  285.57 0862.90
2015 04 09 13 01 14 .04    -241     30    -48    243    248 277.2 -11.3  33926  285.61 0862.90
2015 04 09 13 01 14 .29    -237     48    -35    242    245 281.5  -8.2  33926  285.62 0862.90
2015 04 09 13 01 14 .54    -211     23    -59    213    222 276.2 -15.5  33928  285.66 0862.90
2015 04 09 13 01 14 .79    -169     32    -13    173    174 280.8  -4.4  33934  285.75 0862.90
2015 04 09 13 01 15 .04    -132     22      6    134    135 279.7   2.9  33942  285.90 0862.90
2015 04 09 13 01 15 .29    -124     41      0    131    132 288.4   0.2  33940  285.87 0862.90
2015 04 09 13 01 15 .54    -188     17    -15    189    190 275.2  -4.6  33932  285.73 0862.90
2015 04 09 13 01 15 .80    -186     50    -15    193    194 285.3  -4.6  33942  285.88 0862.90
2015 04 09 13 01 16 .04    -198     40    -41    202    207 281.5 -11.5  33928  285.66 0862.90
2015 04 09 13 01 16 .30    -196     27    -38    198    202 277.9 -10.9  33936  285.80 0862.90
2015 04 09 13 01 16 .54    -198      5    -24    199    201 271.5  -6.9  33926  285.63 0862.90
2015 04 09 13 01 16 .80    -205     -3    -26    206    208 269.0  -7.2  33934  285.75 0862.90
2015 04 09 13 01 17 .05    -187      3    -34    188    192 271.0 -10.3  33922  285.56 0862.90
2015 04 09 13 01 17 .30    -214      9    -14    215    216 272.6  -3.7  33940  285.85 0862.90
2015 04 09 13 01 17 .55    -218     68    -28    229    231 287.3  -7.2  33940  285.85 0862.90
2015 04 09 13 01 17 .80    -242     18    -13    243    244 274.3  -3.2  33940  285.86 0862.90
2015 04 09 13 01 18 .05    -234     24    -25    236    238 275.9  -6.2  33948  285.98 0862.90
2015 04 09 13 01 18 .30    -250     19    -55    251    258 274.4 -12.4  33922  285.56 0862.90
2015 04 09 13 01 18 .55    -149    -17     14    150    151 263.4   5.4  33950  286.03 0862.90
2015 04 09 13 01 18 .80    -245     11    -31    246    248 272.6  -7.2  33928  285.64 0862.90
2015 04 09 13 01 19 .05    -250     13    -55    251    258 273.0 -12.4  33926  285.61 0862.90
2015 04 09 13 01 19 .30    -266     -4    -57    267    274 269.0 -12.2  33932  285.72 0862.90
2015 04 09 13 01 19 .56    -258     27    -57    260    267 276.1 -12.4  33926  285.62 0862.90
2015 04 09 13 01 19 .81    -223     38    -55    227    234 279.9 -13.7  33928  285.66 0862.90
2015 04 09 13 01 20 .07    -257     27    -18    259    260 276.1  -4.1  33936  285.79 0862.90
2015 04 09 13 01 20 .31    -220    -42     -8    224    225 259.2  -2.2  33944  285.93 0862.90
2015 04 09 13 01 20 .56    -222     34    -16    225    226 278.8  -4.1  33932  285.71 0862.90
2015 04 09 13 01 20 .81    -255     39    -52    259    265 278.8 -11.5  33920  285.51 0862.90
2015 04 09 13 01 21 .06    -260     27    -50    262    267 276.1 -10.9  33922  285.56 0862.90
2015 04 09 13 01 21 .32    -249     22    -69    251    261 275.2 -15.5  33930  285.67 0862.90
2015 04 09 13 01 21 .57    -295     22    -59    296    302 274.4 -11.3  33944  285.91 0862.90
2015 04 09 13 01 21 .82    -284     30    -66    286    294 276.1 -13.2  33940  285.86 0862.90
2015 04 09 13 01 22 .07    -257     37    -74    260    271 278.4 -16.0  33938  285.83 0862.90
2015 04 09 13 01 22 .32    -280     34    -59    283    290 277.1 -11.9  33956  286.13 0862.90
2015 04 09 13 01 22 .57    -270     48    -55    275    281 280.1 -11.5  33966  286.28 0862.90
2015 04 09 13 01 22 .82    -266     54    -57    272    278 281.5 -11.9  33914  285.42 0862.90
2015 04 09 13 01 23 .07    -247     49    -39    252    255 281.4  -8.8  33918  285.49 0862.90
2015 04 09 13 01 23 .32    -230     51    -36    236    239 282.6  -8.8  33918  285.47 0862.90
2015 04 09 13 01 23 .57    -231     46    -38    236    240 281.5  -9.3  33916  285.44 0862.90
2015 04 09 13 01 23 .82    -221     47    -37    227    231 282.2  -9.3  33920  285.51 0862.90
2015 04 09 13 01 24 .07    -217     45    -30    222    225 281.9  -7.7  33922  285.56 0862.90
2015 04 09 13 01 24 .32    -224     50    -38    230    234 282.8  -9.4  33918  285.48 0862.90
2015 04 09 13 01 24 .57    -224     50    -38    230    234 282.8  -9.4  33918  285.48 0862.89
2015 04 09 13 01 24 .82    -220     31    -44    223    228 278.0 -11.3  33914  285.43 0862.89
2015 04 09 13 01 25 .07    -213     26    -50    215    221 277.0 -13.3  33926  285.61 0862.89
2015 04 09 13 01 25 .33    -185     35    -50    189    196 280.8 -15.0  33962  286.24 0862.89
2015 04 09 13 01 25 .57    -204     18    -41    205    210 275.2 -11.3  33956  286.14 0862.89
2015 04 09 13 01 25 .82    -186      7    -32    187    190 272.4  -9.8  33974  286.42 0862.89
2015 04 09 13 01 26 .08    -181     24    -34    183    187 277.7 -10.5  33970  286.35 0862.89
2015 04 09 13 01 26 .33    -194     31    -23    197    199 279.2  -6.7  33998  286.84 0862.89
2015 04 09 13 01 26 .59    -211     20    -19    213    214 275.5  -5.2  34028  287.33 0862.89
2015 04 09 13 01 26 .84    -121    -40     16    128    130 251.4   7.1  34028  287.35 0862.89
2015 04 09 13 01 27 .09    -195    -35    -43    199    204 259.6 -12.4  34030  287.38 0862.89
2015 04 09 13 01 27 .34    -197     -5    -26    198    200 268.3  -7.5  33986  286.64 0862.89
2015 04 09 13 01 27 .59    -183     13    -17    184    185 274.3  -5.6  33980  286.54 0862.89
2015 04 09 13 01 27 .84    -116     -4     -4    117    118 267.9  -2.2  34010  287.03 0862.89
2015 04 09 13 01 28 .09    -188    -81    -16    205    206 246.7  -4.6  33982  286.56 0862.89
2015 04 09 13 01 28 .34    -204    -48    -35    210    213 256.7  -9.6  34010  287.03 0862.89
2015 04 09 13 01 28 .60    -211      0    -48    212    218 270.0 -12.9  34030  287.38 0862.89
2015 04 09 13 01 28 .85    -202      2     -7    203    204 270.6  -2.1  34052  287.74 0862.89
2015 04 09 13 01 29 .10    -198     21    -34    200    204 276.2  -9.8  33976  286.46 0862.89
2015 04 09 13 01 29 .34    -185     -4    -40    186    191 268.7 -12.4  33970  286.35 0862.89
2015 04 09 13 01 29 .60    -174      7    -24    175    177 272.6  -8.0  33950  286.03 0862.89
2015 04 09 13 01 29 .85    -157    -12    -10    158    159 265.6  -3.9  34006  286.96 0862.89
2015 04 09 13 01 30 .10    -153    -11    -15    154    155 265.6  -5.6  34032  287.42 0862.89
2015 04 09 13 01 30 .35    -136     27    -17    139    141 281.5  -7.2  34036  287.47 0862.89
2015 04 09 13 01 30 .60    -162    -18    -13    164    165 263.4  -4.9  34018  287.18 0862.89
2015 04 09 13 01 30 .85     -67      9     23     68     72 277.9  18.9  34044  287.62 0862.89
2015 04 09 13 01 31 .10    -133     12    -26    134    137 275.2 -11.3  34042  287.59 0862.89
2015 04 09 13 01 31 .35    -106    -51      5    118    119 244.2   2.8  34050  287.72 0862.89
2015 04 09 13 01 31 .60     -71    -14     19     73     76 258.6  15.2  34044  287.62 0862.89
2015 04 09 13 01 31 .85     -88     -4    -29     89     94 267.0 -18.1  34034  287.43 0862.89
2015 04 09 13 01 32 .10    -163     -1    -24    164    166 269.4  -8.6  34002  286.89 0862.89
2015 04 09 13 01 32 .36    -138      0     17    139    141 269.6   7.1  34012  287.06 0862.89
2015 04 09 13 01 32 .60     -90     12    -11     91     92 277.9  -7.2  34050  287.72 0862.89
2015 04 09 13 01 32 .85    -119    -23    -15    122    123 259.0  -7.3  34012  287.06 0862.89
2015 04 09 13 01 33 .10    -184    -13    -21    185    187 265.9  -6.5  33964  286.25 0862.89
2015 04 09 13 01 33 .35    -174    -20    -46    176    182 263.4 -14.7  33940  285.87 0862.89
2015 04 09 13 01 33 .61    -163      3    -39    164    169 271.3 -13.7  33938  285.83 0862.89
2015 04 09 13 01 33 .86    -162     -8    -26    163    166 267.0  -9.3  33946  285.95 0862.89
2015 04 09 13 01 34 .12    -118    -16    -34    120    124 262.0 -21.2  33956  286.14 0862.89
2015 04 09 13 01 34 .37     -44     -1     36     45     57 268.3  43.7  33982  286.56 0862.89
2015 04 09 13 01 34 .62     -86     12     -6     87     88 278.4  -4.1  33978  286.51 0862.89
2015 04 09 13 01 34 .87    -122    -24    -11    125    126 258.5  -5.2  33956  286.12 0862.89
2015 04 09 13 01 35 .12    -102     20    -13    105    106 281.4  -7.2  33948  285.98 0862.89
2015 04 09 13 01 35 .37    -107     -8    -16    108    110 265.7  -8.8  33964  286.25 0862.89
2015 04 09 13 01 35 .62     -86    -29    -34     91     97 250.9 -24.8  33964  286.25 0862.89
2015 04 09 13 01 35 .87    -114    -14     13    115    116 262.5   6.9  33958  286.17 0862.89
2015 04 09 13 01 36 .12    -112    -17    -14    114    115 261.2  -7.3  33946  285.95 0862.89
2015 04 09 13 01 36 .37     -95     -7     -8     96     97 265.6  -5.2  33948  285.98 0862.89
2015 04 09 13 01 36 .62     -73    -24    -20     78     81 251.4 -14.5  33946  285.95 0862.89
2015 04 09 13 01 36 .87     -32     -3     14     33     35 263.9  23.0  33950  286.02 0862.89
2015 04 09 13 01 37 .12    -105     -1    -36    106    113 269.2 -19.1  33934  285.76 0862.89
2015 04 09 13 01 37 .37     -25    -40    -19     48     51 211.6 -26.4  33946  285.95 0862.88
2015 04 09 13 01 37 .62      -7    -32     25     33     41 193.4  41.7  33952  286.05 0862.88
2015 04 09 13 01 37 .87    -125    -24    -21    128    130 259.0  -9.3  33922  285.55 0862.88
2015 04 09 13 01 38 .12    -138    -55    -25    149    152 248.2  -9.8  33918  285.48 0862.88
2015 04 09 13 01 38 .37    -134    -56    -29    146    149 247.4 -11.3  33916  285.46 0862.88
2015 04 09 13 01 38 .62    -119    -47    -28    129    133 248.3 -12.4  33918  285.50 0862.88
2015 04 09 13 01 38 .87    -107    -55    -25    121    124 242.9 -11.9  33920  285.53 0862.88
2015 04 09 13 01 39 .12    -108    -39    -26    116    119 250.0 -12.9  33918  285.48 0862.89
2015 04 09 13 01 39 .38    -119     -1    -41    120    126 269.1 -23.3  33918  285.48 0862.89
2015 04 09 13 01 39 .63     -95     13    -58     96    112 277.9 -38.8  33924  285.58 0862.89
2015 04 09 13 01 39 .88     -74      9    -46     75     87 277.0 -39.4  33924  285.58 0862.89
2015 04 09 13 01 40 .13     -72     -1    -43     73     84 269.1 -38.4  33922  285.55 0862.89
2015 04 09 13 01 40 .39     -69     -5    -48     70     84 265.6 -42.0  33922  285.56 0862.89
2015 04 09 13 01 40 .64     -60     -8    -42     61     74 262.1 -40.9  33928  285.65 0862.89
2015 04 09 13 01 40 .89     -51     -3    -43     52     67 265.6 -48.2  33926  285.61 0862.89
2015 04 09 13 01 41 .14     -53      0    -39     54     66 269.2 -43.9  33928  285.66 0862.89
2015 04 09 13 01 41 .39     -50     -4    -43     51     66 264.8 -49.2  33934  285.76 0862.89
2015 04 09 13 01 41 .64     -49    -16    -34     52     62 250.9 -40.9  33932  285.71 0862.89
2015 04 09 13 01 41 .89     -46    -12    -45     48     65 254.9 -52.4  33936  285.78 0862.89
2015 04 09 13 01 42 .16     -58    -18    -43     61     74 252.3 -43.0  33932  285.71 0862.89
2015 04 09 13 01 42 .39     -63    -18    -41     66     77 254.1 -39.9  33924  285.58 0862.89
2015 04 09 13 01 42 .64     -63    -18    -41     66     77 254.1 -39.9  33924  285.58 0862.89
2015 04 09 13 01 42 .89     -64    -21    -38     68     77 251.8 -35.8  33924  285.60 0862.89
2015 04 09 13 01 43 .14     -71    -28    -34     77     84 248.2 -29.0  33924  285.60 0862.89
2015 04 09 13 01 43 .39     -59    -31    -34     67     75 242.0 -32.6  33928  285.65 0862.89
2015 04 09 13 01 43 .65     -47    -13    -39     49     62 254.1 -48.1  33928  285.66 0862.88
2015 04 09 13 01 43 .89     -48    -23    -32     54     62 244.7 -37.9  33930  285.68 0862.88
2015 04 09 13 01 44 .14     -48    -26    -23     55     59 241.1 -27.5  33926  285.63 0862.88
2015 04 09 13 01 44 .39     -45    -13    -25     48     54 253.2 -32.6  33928  285.65 0862.88
2015 04 09 13 01 44 .64     -33    -18    -30     38     48 241.1 -47.1  33928  285.66 0862.88
2015 04 09 13 01 44 .90     -21    -32    -28     39     48 212.6 -43.0  33926  285.63 0862.88
2015 04 09 13 01 45 .15       0    -28    -21     29     35 180.9 -44.1  33928  285.65 0862.88
2015 04 09 13 01 45 .40       0    -28    -21     29     35 180.9 -44.1  33932  285.71 0862.89
2015 04 09 13 01 45 .65     -10    -29    -16     31     34 200.0 -33.7  33928  285.65 0862.89
2015 04 09 13 01 45 .90     -28    -35    -14     46     48 218.7 -23.8  33930  285.68 0862.89
2015 04 09 13 01 46 .15     -22    -26      1     35     36 219.7   2.8  33936  285.80 0862.89
2015 04 09 13 01 46 .40     -19    -19     13     27     29 225.0  27.3  33956  286.14 0862.89
2015 04 09 13 01 46 .65     -14    -26      2     30     31 209.0   4.9  33962  286.24 0862.89
2015 04 09 13 01 46 .91      -9    -27      1     29     30 198.7   2.8  33970  286.37 0862.89
2015 04 09 13 01 47 .15     -19    -18      7     27     28 226.7  15.3  33976  286.47 0862.89
2015 04 09 13 01 47 .42     -16    -16      8     24     26 225.0  18.9  33972  286.41 0862.88
2015 04 09 13 01 47 .66     -12    -16      7     21     23 217.8  19.4  33960  286.20 0862.88
2015 04 09 13 01 47 .91     -15    -13     11     20     22 228.7  31.4  33954  286.10 0862.88
2015 04 09 13 01 48 .17      -6     -7     10     10     14 219.6  50.1  33962  286.24 0862.88
2015 04 09 13 01 48 .43      -4     -3     14      6     15 230.5  77.1  34006  286.98 0862.88
2015 04 09 13 01 48 .66      -2      0     17      3     17 251.6  90.0  34044  287.60 0862.88
2015 04 09 13 01 48 .92       0     -3     18      4     18 189.7  84.9  34050  287.72 0862.88
2015 04 09 13 01 49 .17      -3     -4     19      6     19 219.6  80.7  34084  288.30 0862.88
2015 04 09 13 01 49 .42      -2      0     23      3     23 251.6  90.0  34058  287.84 0862.88
2015 04 09 13 01 49 .67      -4      8     21     10     23 331.0  75.0  34036  287.49 0862.88
2015 04 09 13 01 49 .92      -2      0     23      3     23 251.6  90.0  34086  288.31 0862.88
2015 04 09 13 01 50 .18       0     -3     25      4     25 189.7  90.0  34110  288.72 0862.88
2015 04 09 13 01 50 .42      -8      0     23      9     24 274.4  79.2  34098  288.53 0862.88
2015 04 09 13 01 50 .67      -7      2     21      8     22 288.6  79.2  34108  288.70 0862.88
2015 04 09 13 01 50 .92      -2      5     30      6     30 334.6  89.0  34128  289.04 0862.88
2015 04 09 13 01 51 .17      -7      4     32      9     33 302.4  82.8  34108  288.70 0862.88
2015 04 09 13 01 51 .43      -4     -5     20      7     21 223.4  81.0  34086  288.33 0862.88
2015 04 09 13 01 51 .68       4      5     25      7     25  39.6  82.8  34132  289.09 0862.88
2015 04 09 13 01 51 .92       5      4     32      7     32  46.7  89.0  34132  289.11 0862.88
2015 04 09 13 01 52 .18       0     -3     25      4     25 189.7  90.0  34132  289.09 0862.88
2015 04 09 13 01 52 .43      -4     -5     27      7     27 223.4  82.8  34148  289.38 0862.88
2015 04 09 13 01 52 .68     -13     -4     32     14     34 251.6  73.1  34142  289.28 0862.88
2015 04 09 13 01 52 .93      -7      0     25      8     26 265.6  80.7  34150  289.41 0862.88
2015 04 09 13 01 53 .18      -8      1     29      9     30 281.5  80.7  34142  289.26 0862.88
2015 04 09 13 01 53 .43      -8      2     23      9     24 288.4  79.2  34134  289.13 0862.88
2015 04 09 13 01 53 .68       5     -4     27      7     27 129.5  82.8  34146  289.33 0862.88
2015 04 09 13 01 53 .93      -5      1     27      6     27 288.4  89.0  34166  289.67 0862.88
2015 04 09 13 01 54 .18       0     11     32     12     34 357.3  81.2  34108  288.69 0862.88
2015 04 09 13 01 54 .44      -8     13     25     16     29 327.5  64.7  34128  289.04 0862.88
2015 04 09 13 01 54 .70      -9      1     16     10     18 281.5  64.7  34112  288.77 0862.88
2015 04 09 13 01 54 .95       5      0     13      6     14  90.0  77.1  34138  289.21 0862.88
2015 04 09 13 01 55 .19      -7     -8     19     11     21 219.6  66.8  34168  289.70 0862.88
2015 04 09 13 01 55 .44      -8     -8     25     12     27 223.2  72.9  34148  289.36 0862.88
2015 04 09 13 01 55 .69      -7     -2     18      8     19 251.4  77.1  34152  289.45 0862.88
2015 04 09 13 01 55 .94      -6      6     19      9     21 316.6  72.9  34126  289.01 0862.88
2015 04 09 13 01 56 .20      -4     -3     14      6     15 230.5  77.1  34114  288.80 0862.88
2015 04 09 13 01 56 .44       0      1     19      2     19 350.3  90.0  34130  289.06 0862.88
2015 04 09 13 01 56 .70     -14      9     25     17     30 302.4  62.6  34102  288.60 0862.88
2015 04 09 13 01 56 .94     -14     17     32     23     39 320.4  60.5  34126  289.01 0862.88
2015 04 09 13 01 57 .20     -21     13     32     25     40 302.5  58.5  34130  289.06 0862.88
2015 04 09 13 01 57 .45     -21     13     38     25     45 302.4  64.6  34128  289.04 0862.88
2015 04 09 13 01 57 .70     -26     21     41     34     53 309.5  56.3  34136  289.18 0862.88
2015 04 09 13 01 57 .95     -36     19     38     41     55 298.0  47.9  34138  289.21 0862.88
2015 04 09 13 01 58 .20     -32     21     30     39     49 304.2  41.7  34146  289.35 0862.88
2015 04 09 13 01 58 .45     -25      5     33     26     42 283.3  57.5  34154  289.46 0862.88
2015 04 09 13 01 58 .70     -25      5     33     26     42 283.3  57.5  34160  289.58 0862.88
2015 04 09 13 01 58 .95     -15     -1     29     16     33 265.7  68.8  34170  289.74 0862.88
2015 04 09 13 01 59 .20     -10      0     28     11     30 265.6  79.2  34178  289.87 0862.88
2015 04 09 13 01 59 .45       0      3     32      4     32 350.3  90.0  34164  289.65 0862.88
2015 04 09 13 01 59 .70     -13     -4     39     14     41 251.6  80.2  34148  289.36 0862.88
2015 04 09 13 01 59 .95     -30     14     16     34     37 295.2  27.2  34132  289.09 0862.88
2015 04 09 13 02 00 .20     -25     22     20     34     39 311.3  33.5  34128  289.04 0862.88
2015 04 09 13 02 00 .45     -22     17     23     29     37 307.8  43.7  34098  288.52 0862.88
2015 04 09 13 02 00 .70     -13      9     12     17     20 306.0  39.7  34068  288.03 0862.88
2015 04 09 13 02 00 .95     -29      4      1     30     31 277.9   2.9  34028  287.33 0862.88
2015 04 09 13 02 01 .21     -39     13     -7     42     43 288.4 -10.3  33974  286.42 0862.88
2015 04 09 13 02 01 .47     -29     12      1     32     33 293.5   2.9  34002  286.89 0862.88
2015 04 09 13 02 01 .72     -24      4     -1     25     26 281.5  -2.2  34006  286.98 0862.88
2015 04 09 13 02 01 .97     -18     -6      0     19     20 251.4  -2.2  34020  287.20 0862.88
2015 04 09 13 02 02 .22      -7      0      5      8      9 265.6  35.5  34020  287.20 0862.88
2015 04 09 13 02 02 .47      -7      4     12      9     15 302.4  56.4  34024  287.28 0862.88
2015 04 09 13 02 02 .72      -5     16     21     17     27 341.3  56.4  34038  287.50 0862.88
2015 04 09 13 02 02 .97     -18      8     28     21     35 295.3  60.5  34070  288.04 0862.88
2015 04 09 13 02 03 .22     -17      9     27     20     33 297.1  58.5  34082  288.26 0862.88
2015 04 09 13 02 03 .47     -22      4     25     23     33 281.5  50.1  34072  288.08 0862.88
2015 04 09 13 02 03 .72     -15     12     23     20     30 309.5  56.3  34064  287.94 0862.88
2015 04 09 13 02 03 .98     -13      1     24     14     27 277.9  64.7  34074  288.13 0862.88
2015 04 09 13 02 04 .22      -8      2     23      9     24 288.4  79.2  34096  288.48 0862.88
2015 04 09 13 02 04 .47      -4     -5     20      7     21 223.4  81.0  34080  288.23 0862.88
2015 04 09 13 02 04 .72     -21     -7     25     23     33 250.0  50.1  34004  286.94 0862.88
2015 04 09 13 02 04 .97      -7    -15     18     17     24 205.4  48.2  34014  287.10 0862.88
2015 04 09 13 02 05 .23      -9    -12      9     16     18 216.1  31.4  34028  287.35 0862.88
2015 04 09 13 02 05 .48     -16     -1      2     17     18 265.7   6.9  34040  287.54 0862.88
2015 04 09 13 02 05 .73       1     -4     11      5     12 168.4  72.9  34050  287.72 0862.88
2015 04 09 13 02 05 .98     -13      1     12     14     18 277.9  52.0  34050  287.70 0862.88
2015 04 09 13 02 06 .22     -13     12     14     18     22 313.3  43.7  34044  287.62 0862.89
2015 04 09 13 02 06 .48     -16     12     23     21     31 307.8  52.2  34042  287.57 0862.89
2015 04 09 13 02 06 .72     -21     21     12     30     32 315.0  23.0  34030  287.38 0862.89
2015 04 09 13 02 06 .98     -10     16     10     20     22 327.5  29.3  34026  287.30 0862.89
2015 04 09 13 02 07 .23     -14      9     18     17     24 302.4  48.2  34038  287.50 0862.89
2015 04 09 13 02 07 .48     -22     17     30     29     41 307.8  50.1  34036  287.49 0862.89
2015 04 09 13 02 07 .73     -30     14     23     34     41 295.2  37.6  34022  287.25 0862.89
2015 04 09 13 02 07 .98     -34     30     18     46     49 311.3  22.0  34026  287.30 0862.89
2015 04 09 13 02 08 .24     -41     41     25     59     64 315.0  23.1  34018  287.16 0862.89
2015 04 09 13 02 08 .50     -30     54     37     62     72 331.0  34.4  34044  287.62 0862.89
2015 04 09 13 02 08 .74     -47     56      3     74     75 320.3   2.9  34046  287.65 0862.89
2015 04 09 13 02 08 .99     -71     76     -1    105    106 316.8  -0.7  34034  287.43 0862.89
2015 04 09 13 02 09 .25     -35     61     11     71     72 330.1   9.0  34036  287.49 0862.89
2015 04 09 13 02 09 .50     -52     65     -6     84     85 321.7  -4.6  34026  287.30 0862.89
2015 04 09 13 02 09 .75     -82     64      1    105    106 308.2   0.8  34022  287.25 0862.89
2015 04 09 13 02 10 .00     -29     91     45     96    106 342.2  27.1  34034  287.45 0862.89
2015 04 09 13 02 10 .25     -62     95     52    114    125 326.6  26.2  34050  287.70 0862.89
2015 04 09 13 02 10 .50     -31     94     35     99    106 341.7  19.4  34044  287.60 0862.89
2015 04 09 13 02 10 .75     -87    101     49    134    142 319.5  20.9  34004  286.93 0862.89
2015 04 09 13 02 11 .00     -81     77     41    113    120 313.6  20.9  33994  286.78 0862.89
2015 04 09 13 02 11 .25    -146     72    -15    163    164 296.4  -5.6  33992  286.74 0862.89
2015 04 09 13 02 11 .50     -97     93     -2    135    136 313.6  -1.2  33980  286.52 0862.89
2015 04 09 13 02 11 .75     -47     78     28     92     97 328.8  16.8  33978  286.49 0862.89
2015 04 09 13 02 12 .00     -73    101     20    125    127 324.0   9.5  33976  286.46 0862.89
2015 04 09 13 02 12 .25     -61    121     10    136    137 333.3   4.4  33968  286.34 0862.89
2015 04 09 13 02 12 .50    -101    194    -49    219    225 332.4 -12.6  33958  286.17 0862.89
2015 04 09 13 02 12 .76     -93    243    -33    261    264 339.1  -7.3  33960  286.18 0862.89
2015 04 09 13 02 13 .00     -78    229    -59    243    251 341.1 -13.7  33948  285.99 0862.89
2015 04 09 13 02 13 .26     -58    216    -48    224    230 344.9 -12.2  33970  286.37 0862.89
2015 04 09 13 02 13 .51     -81    252    -28    265    267 342.1  -6.2  33998  286.84 0862.89
2015 04 09 13 02 13 .76     -70    199     10    211    212 340.6   2.9  33996  286.79 0862.89
2015 04 09 13 02 14 .01     -92    118    -14    150    151 322.2  -5.6  33994  286.76 0862.89
2015 04 09 13 02 14 .26     -85    101     11    133    134 319.9   4.9  34008  287.01 0862.89
2015 04 09 13 02 14 .51     -70     73     79    102    129 315.9  41.7  34008  287.01 0862.89
2015 04 09 13 02 14 .76     -86     98     58    131    143 318.6  25.1  34004  286.93 0862.89
2015 04 09 13 02 15 .01     -67    105     20    125    127 327.5   9.5  34016  287.15 0862.89
2015 04 09 13 02 15 .27     -79    124     33    148    152 327.4  12.6  34030  287.38 0862.89
2015 04 09 13 02 15 .52     -87    183     10    203    204 334.4   2.9  34008  287.01 0862.89
2015 04 09 13 02 15 .77    -102    210     14    234    235 334.1   3.6  33944  285.91 0862.89
2015 04 09 13 02 16 .02     -99    187      5    212    213 332.1   1.6  34028  287.33 0862.89
2015 04 09 13 02 16 .27    -110    151     51    187    194 323.9  15.3  34062  287.91 0862.89
2015 04 09 13 02 16 .52    -239     82    -55    253    260 289.0 -12.4  34022  287.24 0862.89
2015 04 09 13 02 16 .77     -86     81    -42    119    127 313.1 -19.7  34034  287.43 0862.89
2015 04 09 13 02 17 .03    -141     28    -15    144    145 281.4  -6.2  34012  287.06 0862.89
2015 04 09 13 02 17 .28    -152    -16    -24    153    155 263.9  -9.0  34028  287.35 0862.89
2015 04 09 13 02 17 .53     -93     31     13     99    100 288.6   8.0  34064  287.96 0862.89
2015 04 09 13 02 17 .78    -164    106    -43    196    201 302.9 -12.4  34068  288.01 0862.89
2015 04 09 13 02 18 .03    -146     88    -22    171    173 301.1  -7.5  34088  288.36 0862.89
2015 04 09 13 02 18 .28    -131     67     -5    148    149 297.1  -2.2  34090  288.40 0862.89
2015 04 09 13 02 18 .53    -143     47     29    151    154 288.2  11.0  34088  288.35 0862.89
2015 04 09 13 02 18 .78    -213    -43    -42    218    223 258.5 -11.1  34052  287.74 0862.89
2015 04 09 13 02 19 .03    -248      7    -52    249    255 271.7 -11.9  34024  287.28 0862.89
2015 04 09 13 02 19 .27    -261     31    -93    263    280 276.8 -19.6  33920  285.52 0862.89
2015 04 09 13 02 19 .53    -261     37    -73    264    273 278.1 -20.2  33920  285.51 0862.89
2015 04 09 13 02 19 .78    -239      3    -71    240    250 270.8 -21.5  33974  286.43 0862.89
2015 04 09 13 02 20 .03    -231     17    -45    232    237 274.3 -11.1  33980  286.52 0862.89
2015 04 09 13 02 20 .28    -138    -28     13    141    142 258.5   5.4  34004  286.94 0862.89
2015 04 09 13 02 20 .53    -221     24    -24    223    225 276.2  -6.2  34002  286.91 0862.89
2015 04 09 13 02 20 .78    -245    -37    -21    248    249 261.2  -4.9  34010  287.02 0862.89
2015 04 09 13 02 21 .03    -253     16    -23    254    256 273.7  -5.2  34016  287.12 0862.89
2015 04 09 13 02 21 .29    -243     -1     -5    244    245 269.6  -1.3  34032  287.39 0862.89
2015 04 09 13 02 21 .53    -252     51    -34    258    261 281.5  -7.7  34056  287.82 0862.89
2015 04 09 13 02 21 .78    -251     67    -28    260    262 285.1  -6.2  34006  286.95 0862.89
2015 04 09 13 02 22 .05    -223     36    -28    226    228 279.2  -7.2  34052  287.74 0862.89
2015 04 09 13 02 22 .29    -238     81     -9    252    253 288.8  -2.2  34044  287.60 0862.89
2015 04 09 13 02 22 .55    -211     29    -42    214    219 278.0 -11.1  33986  286.62 0862.89
2015 04 09 13 02 22 .79    -227     32    -41    230    234 278.0 -10.3  33966  286.30 0862.89
2015 04 09 13 02 23 .04    -244     37    -54    247    253 278.8 -12.4  33924  285.59 0862.89
2015 04 09 13 02 23 .30    -216     13    -57    217    225 273.5 -14.7  33932  285.73 0862.89
2015 04 09 13 02 23 .55    -178     38      2    183    184 282.2   0.8  33970  286.37 0862.89
2015 04 09 13 02 23 .80    -217     45    -30    222    225 281.9  -7.7  33926  285.61 0862.89
2015 04 09 13 02 24 .05    -245     62    -32    253    256 284.4  -7.3  33920  285.52 0862.89
2015 04 09 13 02 24 .30    -253     77    -38    265    268 287.1  -8.2  33934  285.74 0862.89
2015 04 09 13 02 24 .55    -252     81    -37    265    268 287.9  -8.0  33940  285.84 0862.89
2015 04 09 13 02 24 .80    -248     55    -24    255    257 282.6  -5.4  33948  285.98 0862.89
2015 04 09 13 02 25 .05    -251     63    -37    259    262 284.2  -8.2  33942  285.89 0862.89
2015 04 09 13 02 25 .30    -241     56    -34    248    251 283.3  -8.0  33944  285.91 0862.89
2015 04 09 13 02 25 .55    -236     76    -41    249    253 287.9  -9.3  33940  285.86 0862.89
2015 04 09 13 02 25 .80    -233     59    -13    241    242 284.4  -3.3  33940  285.86 0862.89
2015 04 09 13 02 26 .05    -211     70    -48    223    229 288.4 -12.2  33936  285.80 0862.89
2015 04 09 13 02 26 .31    -221     74    -16    234    235 288.6  -4.1  33952  286.04 0862.89
2015 04 09 13 02 26 .56    -220     64    -15    230    231 286.2  -3.9  33950  286.03 0862.89
2015 04 09 13 02 26 .81    -174     36     -6    178    179 281.9  -2.2  33958  286.17 0862.89
2015 04 09 13 02 27 .06    -157     49     -6    165    166 287.3  -2.2  33960  286.20 0862.89
2015 04 09 13 02 27 .31    -168     40    -20    173    175 283.7  -6.7  33956  286.14 0862.89
2015 04 09 13 02 27 .56    -210     23    -35    212    215 276.4  -9.4  33942  285.88 0862.89
2015 04 09 13 02 27 .81    -185     67    -30    197    200 290.0  -8.8  33948  285.98 0862.89
2015 04 09 13 02 28 .06    -177     81    -22    195    197 294.8  -6.7  33968  286.34 0862.89
2015 04 09 13 02 28 .31    -212     67    -37    223    227 287.5  -9.6  33942  285.90 0862.89
2015 04 09 13 02 28 .56    -211     83    -37    227    231 291.5  -9.4  33944  285.92 0862.89
2015 04 09 13 02 28 .81    -178     87     -1    199    200 296.2  -0.5  33950  286.03 0862.89
2015 04 09 13 02 29 .07    -190    103    -29    217    219 298.6  -7.7  33950  286.03 0862.89
2015 04 09 13 02 29 .32    -196     94    -21    218    220 295.8  -5.6  33956  286.14 0862.89
2015 04 09 13 02 29 .57    -198     65    -38    209    213 288.2 -10.5  33958  286.17 0862.89
2015 04 09 13 02 29 .82    -239     59    -31    247    250 284.1  -7.3  33954  286.09 0862.89
2015 04 09 13 02 30 .07    -253     51    -37    259    262 281.5  -8.2  33960  286.18 0862.89
2015 04 09 13 02 30 .32    -249     67    -42    258    262 285.1  -9.4  33962  286.21 0862.89
2015 04 09 13 02 30 .58    -241     63    -35    250    253 284.8  -8.0  33972  286.40 0862.89
2015 04 09 13 02 30 .83    -281     24    -33    283    285 275.0  -6.7  33966  286.30 0862.89
2015 04 09 13 02 31 .07    -253     35    -38    256    259 278.0  -8.6  33960  286.18 0862.89
2015 04 09 13 02 31 .33    -256     71    -28    266    268 285.7  -6.2  33962  286.21 0862.89
2015 04 09 13 02 31 .58    -231     42    -12    235    236 280.4  -3.1  33970  286.36 0862.89
2015 04 09 13 02 31 .83    -286     76    -32    297    299 285.0  -6.2  33968  286.33 0862.89
2015 04 09 13 02 32 .08    -281     84    -34    294    297 286.8  -6.7  33978  286.48 0862.89
2015 04 09 13 02 32 .33    -279     74    -30    289    291 285.0  -6.1  33984  286.60 0862.89
2015 04 09 13 02 32 .58    -172     24      2    174    175 278.1   0.8  33992  286.74 0862.89
2015 04 09 13 02 32 .83    -209      3    -26    210    212 270.9  -7.2  33982  286.57 0862.89
2015 04 09 13 02 33 .08    -170      2    -36    171    175 271.0 -11.9  33978  286.49 0862.89
2015 04 09 13 02 33 .33    -128     36     -7    134    135 285.9  -3.1  33988  286.66 0862.89
2015 04 09 13 02 33 .58    -219     19    -42    220    225 275.2 -10.9  33972  286.41 0862.89
2015 04 09 13 02 33 .83    -130     83      7    155    156 302.5   2.9  33986  286.64 0862.89
2015 04 09 13 02 34 .08    -197     15     -2    198    199 274.6  -0.7  33990  286.71 0862.89
2015 04 09 13 02 34 .33    -268      3    -39    269    272 270.8  -8.3  33988  286.67 0862.89
2015 04 09 13 02 34 .58    -255     75    -60    266    273 286.4 -12.9  33988  286.67 0862.89
2015 04 09 13 02 34 .84    -205     32     -6    208    209 279.0  -1.8  34002  286.91 0862.89
2015 04 09 13 02 35 .08    -245     43    -36    249    252 280.1  -8.3  34002  286.89 0862.89
2015 04 09 13 02 35 .34    -265     48    -58    270    277 280.4 -12.2  33976  286.47 0862.88
2015 04 09 13 02 35 .58    -235     47    -52    240    246 281.4 -12.4  33976  286.47 0862.88
2015 04 09 13 02 35 .84    -202     47    -44    208    213 283.3 -12.2  33966  286.30 0862.88
2015 04 09 13 02 36 .10    -192     64    -31    203    206 288.4  -8.8  33970  286.35 0862.89
2015 04 09 13 02 36 .35    -197     64    -26    208    210 288.2  -7.3  33976  286.47 0862.89
2015 04 09 13 02 36 .60    -160     16    -22    161    163 275.9  -8.0  33978  286.51 0862.89
2015 04 09 13 02 36 .85     -93     -1     18     94     96 269.2  11.1  34010  287.03 0862.89
2015 04 09 13 02 37 .10      -9     29     20     31     36 341.3  35.5  34034  287.45 0862.89
2015 04 09 13 02 37 .35    -144     43    -19    151    153 286.9  -7.3  34094  288.45 0862.89
2015 04 09 13 02 37 .60     -86    -53     -4    102    103 238.5  -2.2  34102  288.58 0862.89
2015 04 09 13 02 37 .85     -12    -66     41     68     79 190.7  34.0  34126  289.01 0862.89
2015 04 09 13 02 38 .10     -14    -20      3     25     26 216.1   6.9  34126  289.01 0862.89
2015 04 09 13 02 38 .35    -243     47    -54    248    254 281.0 -12.4  34022  287.24 0862.89
2015 04 09 13 02 38 .60    -253     27    -32    255    258 276.2  -7.3  34012  287.06 0862.89
2015 04 09 13 02 38 .86    -331     67    -39    338    341 281.5  -6.7  34008  287.00 0862.88
2015 04 09 13 02 39 .10    -342     41    -59    345    351 277.0  -9.8  33954  286.10 0862.88
2015 04 09 13 02 39 .36    -321     15    -65    322    329 272.8 -11.6  33964  286.25 0862.88
2015 04 09 13 02 39 .61    -242     18     -7    243    244 274.4  -1.8  33994  286.75 0862.88
2015 04 09 13 02 39 .86    -306     87    -48    319    323 285.9  -8.6  33972  286.40 0862.88
2015 04 09 13 02 40 .11    -289     92    -29    304    306 287.7  -5.6  33994  286.75 0862.88
2015 04 09 13 02 40 .36    -278     86    -52    292    297 287.3 -10.3  33970  286.36 0862.88
2015 04 09 13 02 40 .61    -257     85    -72    271    281 288.4 -15.0  33976  286.45 0862.88
2015 04 09 13 02 40 .86    -247     85    -39    262    265 289.1  -8.6  33992  286.72 0862.88
2015 04 09 13 02 41 .11    -225     72    -56    237    244 287.7 -13.4  33986  286.63 0862.88
2015 04 09 13 02 41 .36    -233     85    -68    249    259 290.2 -15.4  33984  286.58 0862.88
2015 04 09 13 02 41 .61    -222     93    -61    241    249 292.8 -14.4  33992  286.72 0862.88
2015 04 09 13 02 41 .86    -227     75    -52    240    246 288.4 -12.4  33984  286.58 0862.88
2015 04 09 13 02 42 .11    -185     98    -30    210    213 298.0  -8.2  33978  286.51 0862.88
2015 04 09 13 02 42 .36    -197     98    -39    221    225 296.4 -10.1  33986  286.64 0862.88
2015 04 09 13 02 42 .61    -188    122    -35    225    228 302.9  -9.0  33988  286.67 0862.88
2015 04 09 13 02 42 .86    -184    106    -52    213    220 300.0 -13.9  33952  286.05 0862.88
2015 04 09 13 02 43 .12    -183    117    -49    218    224 302.5 -12.9  33952  286.07 0862.88
2015 04 09 13 02 43 .37    -191    113    -48    222    228 300.6 -12.2  33964  286.27 0862.88
2015 04 09 13 02 43 .62    -169    122    -55    209    217 305.9 -14.7  33964  286.27 0862.88
2015 04 09 13 02 43 .88    -152    110    -52    188    196 306.0 -15.5  33962  286.22 0862.88
2015 04 09 13 02 44 .13    -150    106    -33    185    189 305.3 -10.3  33964  286.27 0862.88
2015 04 09 13 02 44 .38    -129     82    -35    153    158 302.5 -13.2  33964  286.27 0862.88
2015 04 09 13 02 44 .63    -118     66    -33    136    141 299.3 -13.9  33962  286.24 0862.88
2015 04 09 13 02 44 .88    -122     67    -23    140    142 298.8  -9.3  33966  286.29 0862.88
2015 04 09 13 02 45 .13    -150     88    -30    174    177 300.4  -9.8  33960  286.19 0862.88
2015 04 09 13 02 45 .38    -140     71    -19    158    160 297.1  -6.9  33966  286.30 0862.88
2015 04 09 13 02 45 .63    -136     87    -15    162    163 302.9  -5.4  33962  286.24 0862.88
2015 04 09 13 02 45 .88    -138     65    -18    153    155 295.4  -6.7  33964  286.27 0862.88
2015 04 09 13 02 46 .13    -126     72    -10    146    147 299.8  -4.1  33962  286.22 0862.88
2015 04 09 13 02 46 .38     -83    100     -5    131    132 320.4  -2.2  33978  286.51 0862.88
2015 04 09 13 02 46 .63     -60     67     25     91     95 318.1  15.3  33998  286.84 0862.88
2015 04 09 13 02 46 .89     -73     65     -9     99    100 311.8  -5.2  34004  286.94 0862.88
2015 04 09 13 02 47 .13     -47     64      3     80     81 323.9   2.3  34014  287.10 0862.88
2015 04 09 13 02 47 .38     -67     47      2     83     84 305.1   1.8  34016  287.15 0862.88
2015 04 09 13 02 47 .63     -89     -6    -26     90     93 266.1 -21.7  34006  286.98 0862.88
2015 04 09 13 02 47 .89     -54     12      0     56     57 282.4  -0.3  34032  287.40 0862.88
2015 04 09 13 02 48 .13    -164    -10    -19    165    167 266.5  -6.7  34076  288.16 0862.88
2015 04 09 13 02 48 .38    -195      3      8    196    197 271.0   2.3  34016  287.15 0862.88
2015 04 09 13 02 48 .64    -108     44     -4    117    118 292.2  -2.2  34010  287.03 0862.88
2015 04 09 13 02 48 .89    -111     64     16    129    131 299.8   7.1  34028  287.35 0862.87
2015 04 09 13 02 49 .14    -190     67    -34    202    206 289.5  -9.8  34022  287.25 0862.87
2015 04 09 13 02 49 .39    -163     12     -8    164    165 274.3  -2.8  34004  286.93 0862.87
2015 04 09 13 02 49 .64    -158     45    -15    165    166 285.9  -5.2  33982  286.56 0862.87
2015 04 09 13 02 49 .90    -170     54    -28    179    182 287.7  -9.0  33990  286.71 0862.87
2015 04 09 13 02 50 .15    -185     60    -32    195    198 287.9  -9.3  33982  286.56 0862.87
2015 04 09 13 02 50 .40    -160     49    -23    168    170 287.3  -8.0  33984  286.61 0862.87
2015 04 09 13 02 50 .65     -81     30     22     87     90 290.8  14.3  34014  287.10 0862.87
2015 04 09 13 02 50 .90     -78     17      8     81     82 282.8   5.9  34020  287.20 0862.87
2015 04 09 13 02 51 .15    -194      5     -7    195    196 271.5  -2.2  34000  286.88 0862.87
2015 04 09 13 02 51 .41    -171     19    -29    173    176 276.6  -9.8  34020  287.20 0862.87
2015 04 09 13 02 51 .65     -95     36     19    102    104 290.8  10.6  34062  287.91 0862.87
2015 04 09 13 02 51 .90    -166     72     -7    182    183 293.5  -2.2  34056  287.81 0862.87
2015 04 09 13 02 52 .16    -157     21     -3    159    160 277.9  -1.3  34010  287.05 0862.87
2015 04 09 13 02 52 .41    -166     51    -39    174    179 287.3 -12.9  34050  287.72 0862.88
2015 04 09 13 02 52 .65    -196      1     -7    197    198 270.4  -2.2  33986  286.64 0862.88
2015 04 09 13 02 52 .91    -179     48    -23    186    188 285.1  -7.2  33998  286.84 0862.88
2015 04 09 13 02 53 .16    -240     47    -43    245    249 281.2 -10.1  34014  287.11 0862.88
2015 04 09 13 02 53 .41    -203     41    -17    208    209 281.5  -4.9  34034  287.43 0862.88
2015 04 09 13 02 53 .66    -163     62     -9    175    176 291.1  -3.2  34042  287.59 0862.88
2015 04 09 13 02 53 .91    -191     31    -17    194    195 279.5  -5.2  34042  287.59 0862.88
2015 04 09 13 02 54 .16    -161     45      0    168    169 285.7  -0.3  34044  287.62 0862.88
2015 04 09 13 02 54 .41    -102     30     13    107    108 286.8   7.1  34052  287.76 0862.88
2015 04 09 13 02 54 .66    -197     80    -27    213    215 292.2  -7.3  34046  287.65 0862.88
2015 04 09 13 02 54 .91    -197     67    -18    209    210 288.8  -5.2  34012  287.06 0862.88
2015 04 09 13 02 55 .16    -129     48     -9    138    139 290.4  -4.1  34014  287.11 0862.88
2015 04 09 13 02 55 .41    -154     68      2    169    170 294.0   1.0  34006  286.98 0862.88
2015 04 09 13 02 55 .66    -233     79    -31    247    250 288.8  -7.3  33986  286.62 0862.88
2015 04 09 13 02 55 .91    -174     80      3    192    193 294.8   1.0  34000  286.88 0862.88
2015 04 09 13 02 56 .16    -223     93    -44    242    247 292.8 -10.4  33982  286.55 0862.88
2015 04 09 13 02 56 .41    -237    106    -63    260    268 294.2 -13.7  33974  286.43 0862.88
2015 04 09 13 02 56 .66    -222     97    -63    243    252 293.6 -14.5  33974  286.43 0862.88
2015 04 09 13 02 56 .92    -195     96    -69    218    229 296.4 -17.6  33978  286.49 0862.88
2015 04 09 13 02 57 .18    -192    101    -60    218    227 297.8 -15.4  33978  286.49 0862.88
2015 04 09 13 02 57 .43    -160     69    -62    175    186 293.3 -19.6  33976  286.46 0862.88
2015 04 09 13 02 57 .68    -181     51    -45    189    195 285.7 -13.4  33970  286.35 0862.88
2015 04 09 13 02 57 .93     -90     88     12    127    128 314.4   5.4  34002  286.89 0862.88
2015 04 09 13 02 58 .18    -113    111     -4    159    160 314.4  -1.6  34014  287.11 0862.88
2015 04 09 13 02 58 .43    -145     89    -22    171    173 301.5  -7.5  33978  286.51 0862.88
2015 04 09 13 02 58 .68    -143     42     -5    150    151 286.4  -2.2  33990  286.71 0862.88
2015 04 09 13 02 58 .93    -133     96    -16    165    166 306.0  -5.6  33996  286.79 0862.88
2015 04 09 13 02 59 .18    -139    110     -9    178    179 308.2  -3.1  34004  286.93 0862.88
2015 04 09 13 02 59 .43    -156     91    -28    181    184 300.2  -9.0  34000  286.88 0862.88
2015 04 09 13 02 59 .68     -88     65     -3    110    111 306.4  -1.8  34014  287.10 0862.88
2015 04 09 13 02 59 .93    -144      0    -23    145    147 270.0  -9.3  33998  286.83 0862.88
2015 04 09 13 03 00 .18    -129    -82     -8    153    154 237.5  -3.2  34010  287.05 0862.88
2015 04 09 13 03 00 .43    -147    -20    -17    149    151 262.1  -6.7  33980  286.54 0862.88
2015 04 09 13 03 00 .68     -70     16     -3     72     73 283.3  -3.1  34004  286.94 0862.88
2015 04 09 13 03 00 .93    -141     43    -35    148    153 286.9 -13.4  34006  286.96 0862.88
2015 04 09 13 03 01 .18    -177     18    -25    179    181 276.1  -8.2  34006  286.96 0862.88
2015 04 09 13 03 01 .43    -157     63    -11    170    171 292.0  -3.9  34008  287.01 0862.88
2015 04 09 13 03 01 .69    -142     33    -18    146    148 283.2  -7.3  34014  287.10 0862.88
2015 04 09 13 03 01 .94    -126     51     -2    137    138 292.2  -1.2  34012  287.06 0862.88
2015 04 09 13 03 02 .18    -117     67    -12    135    136 299.8  -5.2  34012  287.08 0862.88
2015 04 09 13 03 02 .44    -179     15    -31    180    183 274.8  -9.8  34026  287.30 0862.88
2015 04 09 13 03 02 .69    -157     21   -110    159    193 277.9 -42.2  34064  287.94 0862.88
2015 04 09 13 03 02 .94    -114     67    -43    133    139 300.7 -23.8  34064  287.94 0862.88
2015 04 09 13 03 03 .19     -55     62     61     84    103 318.6  39.5  34074  288.13 0862.88
2015 04 09 13 03 03 .44     -45     62     83     77    113 323.9  52.1  34072  288.08 0862.88
2015 04 09 13 03 03 .69     -33    -12     61     36     70 250.0  66.8  34078  288.18 0862.88
2015 04 09 13 03 03 .95     -31      6     63     32     70 281.4  71.9  34076  288.14 0862.88
2015 04 09 13 03 04 .20      33    -33     -2     47     48 135.0  -3.1  34080  288.23 0862.88
2015 04 09 13 03 04 .45     -13      8     32     16     35 302.4  72.8  34088  288.36 0862.88
2015 04 09 13 03 04 .70     -35    -25     45     44     62 234.0  50.1  34118  288.86 0862.88
2015 04 09 13 03 04 .95    -150    -59    -15    162    163 248.3  -5.4  34050  287.72 0862.88
2015 04 09 13 03 05 .20     -84    -17     29     86     91 258.1  18.9  34032  287.40 0862.88
2015 04 09 13 03 05 .45      38     47     49     61     78  38.7  43.7  34054  287.79 0862.88
2015 04 09 13 03 05 .71     -22     76    -19     80     83 344.0 -13.4  34018  287.16 0862.88
2015 04 09 13 03 05 .96    -212    138    -32    254    257 303.1  -7.2  34018  287.16 0862.88
2015 04 09 13 03 06 .20    -184     78    -88    200    218 293.1 -29.6  34016  287.13 0862.88
2015 04 09 13 03 06 .46    -229     79    -81    243    257 289.1 -18.6  34010  287.02 0862.88
2015 04 09 13 03 06 .71    -178    132    -20    223    224 306.6  -5.2  34020  287.20 0862.88
2015 04 09 13 03 06 .96    -189    149    -46    241    246 308.2 -10.9  34060  287.88 0862.88
2015 04 09 13 03 07 .21    -250    118    -61    277    284 295.4 -12.6  34038  287.51 0862.88
2015 04 09 13 03 07 .46    -244    111    -48    269    274 294.4 -10.3  33998  286.84 0862.88
2015 04 09 13 03 07 .71    -263    164    -43    311    314 302.0  -7.9  33966  286.30 0862.88
2015 04 09 13 03 07 .96    -261    166    -76    310    320 302.4 -13.9  33934  285.76 0862.88
2015 04 09 13 03 08 .21    -248    157    -60    294    301 302.4 -11.6  33926  285.61 0862.88
2015 04 09 13 03 08 .46    -248    157    -60    294    301 302.4 -11.6  33926  285.61 0862.88
2015 04 09 13 03 08 .71    -260    162    -52    307    312 302.0  -9.7  33932  285.71 0862.88
2015 04 09 13 03 08 .96    -255    161    -61    302    309 302.4 -11.5  33928  285.66 0862.88
2015 04 09 13 03 09 .21    -255    135    -69    289    298 298.0 -13.4  33934  285.74 0862.88
2015 04 09 13 03 09 .47    -260    132    -69    292    301 296.9 -13.4  33940  285.84 0862.88
2015 04 09 13 03 09 .71    -253    126    -57    283    289 296.6 -11.5  33928  285.64 0862.88
2015 04 09 13 03 09 .96    -231    122    -57    262    269 297.9 -12.4  33924  285.57 0862.88
2015 04 09 13 03 10 .22    -200    127    -63    238    247 302.4 -15.0  33948  285.99 0862.88
2015 04 09 13 03 10 .47    -209    113    -30    238    240 298.4  -7.2  33940  285.86 0862.88
2015 04 09 13 03 10 .73    -209    102    -36    233    236 296.0  -8.8  33948  285.99 0862.88
2015 04 09 13 03 10 .98    -179    114    -26    213    215 302.4  -7.2  33964  286.25 0862.88
2015 04 09 13 03 11 .23    -195    147    -42    245    249 307.1  -9.8  33974  286.42 0862.88
2015 04 09 13 03 11 .48    -173    136    -34    221    224 308.2  -8.8  33980  286.54 0862.88
2015 04 09 13 03 11 .73    -189    161     -7    249    250 310.4  -1.6  34000  286.87 0862.88
2015 04 09 13 03 11 .98    -281    122    -38    307    310 293.6  -7.2  34002  286.90 0862.88
2015 04 09 13 03 12 .23    -297     88    -44    310    314 286.6  -8.1  34028  287.33 0862.88
2015 04 09 13 03 12 .48    -211    126    -38    247    250 300.9  -8.8  34026  287.31 0862.88
2015 04 09 13 03 12 .73    -271    183    -44    328    331 304.1  -7.7  34026  287.29 0862.88
2015 04 09 13 03 12 .98    -291    165    -62    335    341 299.5 -10.5  33956  286.12 0862.88
2015 04 09 13 03 13 .23    -271    163    -87    317    329 301.0 -15.5  33978  286.50 0862.88
2015 04 09 13 03 13 .48    -263    200    -57    331    337 307.2  -9.9  34010  287.03 0862.88
2015 04 09 13 03 13 .74    -232    145    -65    274    282 302.0 -13.4  33998  286.82 0862.88
2015 04 09 13 03 13 .98    -213    162    -68    268    277 307.3 -14.4  34050  287.70 0862.88
2015 04 09 13 03 14 .24    -226    143    -34    268    271 302.2  -7.3  34000  286.87 0862.88
2015 04 09 13 03 14 .48    -221    171    -66    280    288 307.8 -13.4  33996  286.79 0862.88
2015 04 09 13 03 14 .73    -215    179    -75    280    290 309.8 -15.0  33938  285.81 0862.88
2015 04 09 13 03 14 .99    -187    172    -80    255    268 312.7 -17.6  33942  285.89 0862.88
2015 04 09 13 03 15 .24    -157    190    -84    247    262 320.4 -18.9  33932  285.71 0862.88
2015 04 09 13 03 15 .49    -142    189    -65    237    246 323.0 -15.4  33970  286.36 0862.88
2015 04 09 13 03 15 .74    -174    187    -61    256    264 317.0 -13.4  34000  286.87 0862.88
2015 04 09 13 03 15 .99    -148    218    -18    264    265 325.7  -3.9  34050  287.70 0862.88
2015 04 09 13 03 16 .24     -99    193      3    217    218 332.8   0.8  34048  287.69 0862.88
2015 04 09 13 03 16 .49    -160    147     -6    218    219 312.4  -1.8  34056  287.82 0862.88
2015 04 09 13 03 16 .74    -129    202     17    240    241 327.4   4.2  34066  287.99 0862.88
2015 04 09 13 03 16 .99    -213    161     13    268    269 307.1   2.9  34070  288.04 0862.88
2015 04 09 13 03 17 .24    -212    174     -7    275    276 309.5  -1.6  34088  288.36 0862.88
2015 04 09 13 03 17 .49    -259    191    -44    322    326 306.4  -7.9  34062  287.92 0862.88
2015 04 09 13 03 17 .75    -254    166    -39    304    307 303.3  -7.3  34060  287.87 0862.88
2015 04 09 13 03 18 .00    -209    132    -69    248    257 302.4 -20.0  34014  287.11 0862.88
2015 04 09 13 03 18 .25    -194    124    -59    231    239 302.5 -14.4  33934  285.76 0862.88
2015 04 09 13 03 18 .51    -187    135    -57    231    238 305.9 -13.9  33926  285.62 0862.88
2015 04 09 13 03 18 .76    -197    117    -48    230    236 300.7 -11.9  33944  285.91 0862.88
2015 04 09 13 03 19 .01    -180    110    -35    212    215 301.5  -9.4  33954  286.08 0862.88
2015 04 09 13 03 19 .25    -175    114    -42    209    214 303.1 -11.6  33936  285.80 0862.88
2015 04 09 13 03 19 .50    -171    109    -64    203    213 302.5 -17.6  33920  285.53 0862.88
2015 04 09 13 03 19 .75    -173    112    -67    207    218 302.9 -18.1  33922  285.56 0862.88
2015 04 09 13 03 20 .00    -168    107    -56    200    207 302.5 -20.4  33922  285.56 0862.88
2015 04 09 13 03 20 .26    -167    118    -67    205    216 305.3 -18.3  33926  285.61 0862.88
2015 04 09 13 03 20 .51    -160     87    -62    183    193 298.6 -23.3  33948  286.00 0862.88
2015 04 09 13 03 20 .76    -187    103    -33    214    217 298.9  -8.8  33996  286.81 0862.88
2015 04 09 13 03 21 .01    -154     79    -34    174    178 297.3 -11.1  34016  287.15 0862.88
2015 04 09 13 03 21 .26     -64     86     -4    108    109 323.5  -2.2  34056  287.81 0862.88
2015 04 09 13 03 21 .51     -49     69    -17     85     87 324.8 -11.9  34074  288.13 0862.88
2015 04 09 13 03 21 .76     -20     20      3     29     30 315.0   6.9  34098  288.53 0862.88
2015 04 09 13 03 22 .01     -74     48     34     89     95 303.3  21.0  34072  288.08 0862.88
2015 04 09 13 03 22 .26     -42     45     81     62    102 316.8  59.0  34036  287.47 0862.88
2015 04 09 13 03 22 .51     -25     45      6     52     53 330.1   6.9  34044  287.60 0862.88
2015 04 09 13 03 22 .76     -55     20     55     59     80 290.0  47.9  34060  287.87 0862.88
2015 04 09 13 03 23 .01      -7     21    -14     23     26 340.0 -39.9  34046  287.65 0862.88
2015 04 09 13 03 23 .26     -68     51    -30     86     92 306.9 -19.1  34014  287.11 0862.88
2015 04 09 13 03 23 .52     -94     21     -3     97     98 282.8  -2.2  34012  287.08 0862.88
2015 04 09 13 03 23 .77     -56      8     19     57     61 278.8  18.4  34022  287.25 0862.88
2015 04 09 13 03 24 .02     -15     -1     16     16     22 265.7  50.1  34028  287.33 0862.88
2015 04 09 13 03 24 .27     -23      0     -9     24     25 270.8 -23.3  34026  287.32 0862.88
2015 04 09 13 03 24 .52     -46    -13     14     48     51 254.1  16.3  34032  287.40 0862.88
2015 04 09 13 03 24 .78    -104     33    -14    110    111 287.7  -7.3  34002  286.91 0862.88
2015 04 09 13 03 25 .03    -111     52    -22    123    125 295.2 -10.3  33988  286.66 0862.88
2015 04 09 13 03 25 .29    -136     20    -29    138    142 278.4 -11.9  33970  286.37 0862.88
2015 04 09 13 03 25 .53    -120     28    -16    124    126 283.3  -7.7  33978  286.51 0862.88
2015 04 09 13 03 25 .81     -99      7     10    100    101 274.4   5.9  33996  286.81 0862.88
2015 04 09 13 03 26 .03    -120     40     -7    127    128 288.6  -3.2  33984  286.61 0862.88
2015 04 09 13 03 26 .29    -126     28    -15    130    131 282.8  -6.7  33992  286.74 0862.88
2015 04 09 13 03 26 .53     -81     44     -2     93     94 298.9  -1.8  34000  286.86 0862.88
2015 04 09 13 03 26 .79     -63     77    -20    100    103 320.4 -11.3  34028  287.33 0862.88
2015 04 09 13 03 27 .03    -113     56    -25    127    130 296.6 -11.5  34034  287.43 0862.88
2015 04 09 13 03 27 .28     -18     53     31     57     64 341.3  31.4  34042  287.59 0862.88
2015 04 09 13 03 27 .53     -28     64      3     70     71 336.4   2.8  34034  287.45 0862.88
2015 04 09 13 03 27 .79     -56     66    -26     87     91 319.9 -17.0  34024  287.28 0862.88
2015 04 09 13 03 28 .04     -20     91     61     94    112 347.5  35.6  34014  287.11 0862.88
2015 04 09 13 03 28 .29     -66     43     -1     80     81 303.3  -1.3  34022  287.23 0862.88
2015 04 09 13 03 28 .54     -97     81    -41    127    133 310.0 -23.8  34024  287.27 0862.88
2015 04 09 13 03 28 .79    -119     86    -31    148    152 306.0 -11.9  34020  287.21 0862.89
2015 04 09 13 03 29 .04    -149     98    -25    179    181 303.3  -8.2  34046  287.65 0862.89
2015 04 09 13 03 29 .29    -162     92    -21    187    189 299.8  -6.5  34032  287.42 0862.89
2015 04 09 13 03 29 .54    -179     68    -13    192    193 290.8  -3.9  34022  287.23 0862.89
2015 04 09 13 03 29 .79    -159     55    -41    169    174 289.1 -13.7  34006  286.98 0862.89
2015 04 09 13 03 30 .04    -157     62    -19    169    171 291.7  -6.5  34014  287.10 0862.89
2015 04 09 13 03 30 .29    -141     51    -21    150    152 290.0  -8.2  34020  287.20 0862.89
2015 04 09 13 03 30 .54    -109     64    -11    127    128 300.7  -5.2  34026  287.30 0862.88
2015 04 09 13 03 30 .79    -142    125    -24    190    192 311.3  -7.3  33996  286.81 0862.88
2015 04 09 13 03 31 .05    -162    106    -27    194    196 303.3  -8.0  33996  286.79 0862.88
2015 04 09 13 03 31 .29    -112     53     -2    124    125 295.3  -1.3  34014  287.11 0862.88
2015 04 09 13 03 31 .55    -112     22     -6    115    116 281.4  -3.2  34006  286.98 0862.88
2015 04 09 13 03 31 .81     -97     66    -37    118    124 304.2 -17.6  34000  286.88 0862.88
2015 04 09 13 03 32 .05     -67     57    -12     88     89 310.4  -8.2  33988  286.67 0862.88
2015 04 09 13 03 32 .31     -86     32    -15     92     94 290.4  -9.8  33982  286.56 0862.88
2015 04 09 13 03 32 .56    -104     22     -4    107    108 281.9  -2.2  34006  286.96 0862.88
2015 04 09 13 03 32 .80    -135     27    -17    138    140 281.5  -7.3  33978  286.51 0862.88
2015 04 09 13 03 33 .06     -77    101      1    128    129 322.6   0.7  33994  286.76 0862.88
2015 04 09 13 03 33 .31    -125     59    -22    139    141 295.4  -9.3  33978  286.51 0862.88
2015 04 09 13 03 33 .56    -148     44    -18    155    157 286.8  -6.9  34000  286.88 0862.88
2015 04 09 13 03 33 .81    -119     56    -21    132    134 295.4  -9.4  34000  286.88 0862.88
2015 04 09 13 03 34 .06    -128     36    -27    134    137 285.9 -11.5  33998  286.83 0862.88
2015 04 09 13 03 34 .31    -128     31    -36    132    138 283.7 -15.5  33988  286.66 0862.88
2015 04 09 13 03 34 .56    -141     75    -36    160    165 298.0 -12.9  33984  286.59 0862.88
2015 04 09 13 03 34 .81    -136     67    -45    152    158 296.2 -21.2  33974  286.42 0862.88
2015 04 09 13 03 35 .06    -123     63    -41    139    144 297.1 -21.7  33962  286.22 0862.88
2015 04 09 13 03 35 .31    -112     71    -40    133    140 302.4 -17.0  33960  286.20 0862.88
2015 04 09 13 03 35 .56     -92     51    -24    106    109 299.3 -12.9  34002  286.91 0862.88
2015 04 09 13 03 35 .81     -92     74     13    119    120 308.6   6.5  34018  287.16 0862.88
2015 04 09 13 03 36 .06    -144     43    -19    151    153 286.9  -7.3  33986  286.64 0862.88
2015 04 09 13 03 36 .32    -111     43    -28    120    124 291.3 -13.4  33980  286.52 0862.88
2015 04 09 13 03 36 .56    -111     51    -35    123    129 294.8 -16.0  33978  286.49 0862.88
2015 04 09 13 03 36 .82    -112     39    -47    119    127 289.5 -27.4  33962  286.24 0862.88
2015 04 09 13 03 37 .07    -127      2    -38    128    133 271.3 -21.7  34038  287.50 0862.88
2015 04 09 13 03 37 .32    -112     71    -42    133    140 302.4 -17.5  34052  287.76 0862.88
2015 04 09 13 03 37 .57     -58     79     56     99    113 323.5  31.9  34058  287.86 0862.88
2015 04 09 13 03 37 .82     -59     62     83     86    119 316.3  49.4  34062  287.91 0862.88
2015 04 09 13 03 38 .07     -36     79     46     87     98 335.5  29.8  34062  287.92 0862.88
2015 04 09 13 03 38 .32     -12     90     75     91    117 352.0  43.8  34122  288.94 0862.88
2015 04 09 13 03 38 .58      -4     89     48     90    102 356.9  30.8  34090  288.40 0862.88
2015 04 09 13 03 38 .83     -19     83     30     86     92 346.6  19.4  34064  287.94 0862.88
2015 04 09 13 03 39 .09      -8     62     18     63     66 352.0  16.3  34108  288.69 0862.88
2015 04 09 13 03 39 .33     -12     61     33     63     71 348.5  30.3  34138  289.19 0862.88
2015 04 09 13 03 39 .58     -29     61      0     68     69 334.6   0.8  34058  287.86 0862.88
2015 04 09 13 03 39 .83     -25     59     -8     65     66 337.3  -7.2  34046  287.65 0862.88
2015 04 09 13 03 40 .09     -48     51     -2     71     72 316.8  -2.2  34068  288.03 0862.88
2015 04 09 13 03 40 .34     -50     53     22     73     77 316.7  17.3  34138  289.21 0862.88
2015 04 09 13 03 40 .58     -65     60    -11     89     90 312.7  -7.2  34102  288.60 0862.88
2015 04 09 13 03 40 .84     -56     49     -4     75     76 311.3  -3.1  34138  289.19 0862.88
2015 04 09 13 03 41 .08     -41     33     10     53     55 308.6  11.1  34148  289.36 0862.88
2015 04 09 13 03 41 .33     -47     41     34     63     71 311.3  31.3  34132  289.09 0862.88
2015 04 09 13 03 41 .59     -60     24     88     65    109 292.6  60.5  34134  289.14 0862.89
2015 04 09 13 03 41 .84     -47     32     48     58     75 304.2  43.8  34156  289.52 0862.89
2015 04 09 13 03 42 .08     -75     48     82     90    121 302.9  47.5  34130  289.08 0862.89
2015 04 09 13 03 42 .34     -24     37     20     45     49 327.5  24.1  34116  288.84 0862.89
2015 04 09 13 03 42 .59     -18     17     34     26     42 313.1  58.5  34096  288.50 0862.89
2015 04 09 13 03 42 .84     -39     21     48     45     65 298.9  52.1  34066  287.98 0862.89
2015 04 09 13 03 43 .09      -7     37     18     38     42 348.4  27.2  34064  287.94 0862.89
2015 04 09 13 03 43 .34     -23     16     -3     29     30 304.2  -7.3  34060  287.89 0862.89
2015 04 09 13 03 43 .59       0     35      3     36     37 359.1   4.9  34064  287.94 0862.89
2015 04 09 13 03 43 .84      -2     13     23     14     26 348.4  64.7  34064  287.94 0862.89
2015 04 09 13 03 44 .09       2      8     -3      9     10  15.1 -19.7  34048  287.67 0862.89
2015 04 09 13 03 44 .34       6     38     18     39     42   9.8  26.2  34058  287.84 0862.89
2015 04 09 13 03 44 .59     -37     16     57     41     70 294.4  60.5  34056  287.81 0862.89
2015 04 09 13 03 44 .84      -5      8    -12     10     15 327.5 -56.6  34058  287.84 0862.89
2015 04 09 13 03 45 .10       0      0      5      1      5 315.0  89.0  34058  287.84 0862.89
2015 04 09 13 03 45 .34       2      1     30      3     30  57.6  90.0  34078  288.18 0862.90
2015 04 09 13 03 45 .60     -12      4     -5     13     13 288.2 -23.3  34058  287.86 0862.90
2015 04 09 13 03 45 .85      -8      9    -23     13     26 316.6 -71.2  34028  287.33 0862.90
2015 04 09 13 03 46 .10      -3     12    -10     13     16 344.9 -44.1  34024  287.27 0862.90
2015 04 09 13 03 46 .36       0      9     12     10     15 355.5  52.2  34024  287.28 0862.90
2015 04 09 13 03 46 .61      25     -5     11     26     28 101.5  21.0  34030  287.38 0862.90
2015 04 09 13 03 46 .86       8      0     16      9     18  94.4  68.8  34056  287.81 0862.90
2015 04 09 13 03 47 .11     -18      2     27     19     33 277.9  60.5  34088  288.36 0862.90
2015 04 09 13 03 47 .36     -33      1    -19     34     38 272.6 -35.8  34078  288.18 0862.90
2015 04 09 13 03 47 .61     -31     19    -11     37     39 302.5 -17.6  34056  287.81 0862.90
2015 04 09 13 03 47 .86     -24     24     43     34     54 315.0  57.5  34046  287.65 0862.90
2015 04 09 13 03 48 .11     -21     44     16     49     52 334.5  18.9  34078  288.20 0862.90
2015 04 09 13 03 48 .36     -23     25     30     35     46 316.8  45.8  34074  288.13 0862.90
2015 04 09 13 03 48 .61     -14     17     32     23     39 320.4  60.5  34070  288.06 0862.90
2015 04 09 13 03 48 .86      -7     -7     38     11     39 225.0  80.7  34062  287.91 0862.90
2015 04 09 13 03 49 .11     -25     -8      7     27     28 251.6  15.3  34050  287.70 0862.90
2015 04 09 13 03 49 .36     -22     17     43     29     51 307.8  62.6  34024  287.28 0862.90
2015 04 09 13 03 49 .61     -53     22     55     58     79 292.6  49.0  34032  287.40 0862.90
2015 04 09 13 03 49 .87     -31     31     49     44     65 315.0  52.2  34032  287.42 0862.90
2015 04 09 13 03 50 .11     -30     19     47     36     59 302.4  58.5  34036  287.49 0862.90
2015 04 09 13 03 50 .37     -22     17     42     29     51 307.8  62.6  34042  287.59 0862.90
2015 04 09 13 03 50 .62     -19     10     27     22     34 297.1  56.3  34048  287.67 0862.90
2015 04 09 13 03 50 .87     -21      0     19     22     29 267.4  47.9  34072  288.09 0862.90
2015 04 09 13 03 51 .11     -11     12     27     17     31 316.8  64.7  34066  287.99 0862.90
2015 04 09 13 03 51 .37     -17     22     36     28     45 322.2  58.5  34050  287.72 0862.90
2015 04 09 13 03 51 .62      -5      0     34      6     34 274.4  90.0  34080  288.23 0862.89
2015 04 09 13 03 51 .87       4      4     32      7     32  45.0  89.0  34082  288.26 0862.89
2015 04 09 13 03 52 .12     -27     29     33     40     51 316.6  43.7  34044  287.60 0862.89
2015 04 09 13 03 52 .37     -14     17     51     23     55 320.4  74.0  34034  287.43 0862.89
2015 04 09 13 03 52 .64     -17     18     47     25     53 316.6  69.8  34044  287.60 0862.89
2015 04 09 13 03 52 .88     -15      5     42     16     44 288.6  79.2  34082  288.25 0862.89
2015 04 09 13 03 53 .13       0      0     41      0     41   0.0 -90.0  34108  288.69 0862.89
2015 04 09 13 03 53 .38       0     -7     41      8     41 182.7  90.0  34110  288.74 0862.88
2015 04 09 13 03 53 .63      -4      1     41      5     41 288.4  90.0  34098  288.53 0862.88
2015 04 09 13 03 53 .88       2     -3     36      4     36 147.5  90.0  34120  288.91 0862.88
2015 04 09 13 03 54 .13       8      0     36      9     37  90.0  86.9  34118  288.86 0862.88
2015 04 09 13 03 54 .38       0      5     34      6     34 357.3  90.0  34144  289.31 0862.88
2015 04 09 13 03 54 .64      -5      9     27     11     29 327.5  79.2  34134  289.13 0862.88
2015 04 09 13 03 54 .88      -2      1     40      3     40 302.4  90.0  34150  289.41 0862.88
2015 04 09 13 03 55 .14      -2      0     37      3     37 251.6  90.0  34158  289.55 0862.88
2015 04 09 13 03 55 .39      -1     -4     38      5     38 198.5  90.0  34160  289.58 0862.88
2015 04 09 13 03 55 .64       4      0     59      5     59 101.5  90.0  34156  289.50 0862.88
2015 04 09 13 03 55 .89      24      7     63     26     68  73.2  77.1  34164  289.65 0862.88
2015 04 09 13 03 56 .14      48     -3     61     49     78  94.4  56.4  34144  289.31 0862.88
2015 04 09 13 03 56 .39      22    -14     41     27     49 122.4  63.6  34172  289.77 0862.88
2015 04 09 13 03 56 .64      -7     -7     45     11     46 225.0  85.9  34172  289.77 0862.88
2015 04 09 13 03 56 .89     -10    -10     49     15     51 223.2  81.8  34038  287.52 0862.88
2015 04 09 13 03 57 .14      -9    -12     43     16     45 216.1  80.2  34052  287.76 0862.88
2015 04 09 13 03 57 .39     -15    -13     38     20     42 228.7  69.8  34028  287.33 0862.88
2015 04 09 13 03 57 .64     -16    -16     42     24     48 225.0  66.8  34000  286.86 0862.88
2015 04 09 13 03 57 .90      -5    -16     37     17     40 198.7  74.0  34012  287.08 0862.88
2015 04 09 13 03 58 .14     -15    -24     29     29     41 212.6  50.1  34012  287.06 0862.88
2015 04 09 13 03 58 .39     -26    -41     33     49     59 212.5  37.6  33956  286.12 0862.88
2015 04 09 13 03 58 .65     -19    -40     31     45     54 206.3  37.6  33948  285.98 0862.88
2015 04 09 13 03 58 .90     -24    -44     42     51     66 209.0  43.7  33962  286.22 0862.88
2015 04 09 13 03 59 .14     -21    -33     39     40     55 212.6  51.1  33974  286.42 0862.88
2015 04 09 13 03 59 .39     -24    -27     22     37     43 221.4  33.5  33962  286.24 0862.88
2015 04 09 13 03 59 .66     -24    -14     28     29     40 239.3  50.0  33974  286.42 0862.88
2015 04 09 13 03 59 .90     -32    -27     20     43     47 229.6  26.2  33968  286.32 0862.88
2015 04 09 13 04 00 .17     -28    -28     17     40     43 225.0  23.0  33960  286.19 0862.88
2015 04 09 13 04 00 .41     -26    -31     27     41     49 219.6  36.5  33970  286.35 0862.88
2015 04 09 13 04 00 .66     -33    -33     18     47     50 225.1  21.0  33976  286.46 0862.89
2015 04 09 13 04 00 .91     -23    -35     16     43     45 213.4  20.0  34004  286.94 0862.89
2015 04 09 13 04 01 .16     -24    -24     -8     35     36 225.0 -13.4  34014  287.11 0862.89
2015 04 09 13 04 01 .41     -24     -8     -1     26     27 251.4  -2.2  34016  287.15 0862.89
2015 04 09 13 04 01 .67      -8    -12     21     15     25 212.5  60.5  34036  287.49 0862.89
2015 04 09 13 04 01 .91       0     -7     14      8     16 175.5  64.7  34048  287.67 0862.89
2015 04 09 13 04 02 .16      -4      0     21      5     21 281.5  86.9  34074  288.13 0862.89
2015 04 09 13 04 02 .41      -7      4     25      9     26 302.4  81.2  34072  288.08 0862.89
2015 04 09 13 04 02 .66     -14      9     18     17     24 302.4  48.2  34058  287.84 0862.89
2015 04 09 13 04 02 .91     -28     13     15     32     35 295.4  27.2  34054  287.77 0862.89
2015 04 09 13 04 03 .17     -17     -1     17     18     24 265.7  52.0  34074  288.11 0862.89
2015 04 09 13 04 03 .41     -26     -2      6     27     28 265.6  13.2  34078  288.18 0862.89
2015 04 09 13 04 03 .66     -26     -4     -1     27     28 260.3  -2.2  34052  287.76 0862.89
2015 04 09 13 04 03 .92     -16     -1      2     17     18 265.7   6.9  34052  287.76 0862.89
2015 04 09 13 04 04 .16     -22     -3      2     23     24 260.3   4.9  34052  287.76 0862.89
2015 04 09 13 04 04 .42     -23    -20      9     31     33 228.7  17.3  34042  287.57 0862.89
2015 04 09 13 04 04 .67     -20    -27     21     34     39 216.1  34.4  34036  287.49 0862.89
2015 04 09 13 04 04 .92     -10    -32     21     34     39 198.3  34.4  34030  287.38 0862.89
2015 04 09 13 04 05 .17     -38    -12     22     40     45 251.8  32.4  34038  287.52 0862.89
2015 04 09 13 04 05 .42     -36    -10    -14     38     40 253.2 -25.4  34034  287.43 0862.89
2015 04 09 13 04 05 .67     -22    -26      9     35     37 219.6  15.3  34028  287.35 0862.89
2015 04 09 13 04 05 .92     -27     -3      4     28     29 262.1   9.0  34020  287.20 0862.89
2015 04 09 13 04 06 .17     -34      0      1     35     36 270.9   2.9  34020  287.20 0862.89
2015 04 09 13 04 06 .43     -42     -9      2     44     45 257.6   2.8  34030  287.38 0862.89
2015 04 09 13 04 06 .68     -51    -20      7     55     56 248.3   8.0  34006  286.98 0862.89
2015 04 09 13 04 06 .93     -44    -33     -6     56     57 233.1  -6.2  34004  286.93 0862.89
2015 04 09 13 04 07 .19     -69    -34      3     77     78 243.8   2.9  34022  287.23 0862.89
2015 04 09 13 04 07 .44     -65    -13    -18     67     70 258.6 -15.5  33974  286.42 0862.89
2015 04 09 13 04 07 .69     -33    -35     20     49     52 223.2  23.0  34002  286.91 0862.89
2015 04 09 13 04 07 .94     -11    -36     23     38     44 196.9  33.5  34010  287.03 0862.89
2015 04 09 13 04 08 .19     -32     -5     -6     33     34 260.3 -11.3  34024  287.27 0862.89
2015 04 09 13 04 08 .44      -9     32      9     34     36 343.1  15.3  34036  287.47 0862.89
2015 04 09 13 04 08 .69       0     -3     32      4     32 184.5  90.0  34044  287.62 0862.89
2015 04 09 13 04 08 .94       0      0     33      1     33  90.0  90.0  34058  287.86 0862.88
2015 04 09 13 04 09 .19     -27    -18     41     33     52 235.8  56.4  34060  287.89 0862.88
2015 04 09 13 04 09 .44     -44     -4     26     45     51 263.9  32.4  34062  287.91 0862.88
2015 04 09 13 04 09 .69     -82    -66     -2    106    107 230.9  -1.3  34048  287.67 0862.88
2015 04 09 13 04 09 .95    -117    -81    -15    143    144 235.4  -6.2  34072  288.09 0862.88
2015 04 09 13 04 10 .19     -87    -86     17    123    125 225.6   8.0  34094  288.45 0862.88
2015 04 09 13 04 10 .44     -68    -83     29    108    113 219.6  15.3  34052  287.74 0862.88
2015 04 09 13 04 10 .69     -73    -58      4     94     95 231.4   2.9  34014  287.10 0862.89
2015 04 09 13 04 10 .94     -66    -79     41    104    111 220.1  22.5  34034  287.45 0862.89
2015 04 09 13 04 11 .19     -76    -55     -3     95     96 234.0  -2.2  33962  286.24 0862.89
2015 04 09 13 04 11 .44     -76    -74    -13    107    108 226.0  -7.2  33944  285.93 0862.89
2015 04 09 13 04 11 .70     -77    -85    -41    115    123 222.3 -19.7  33936  285.78 0862.89
2015 04 09 13 04 11 .95     -83    -67    -59    107    122 230.9 -35.8  33936  285.80 0862.89
2015 04 09 13 04 12 .19    -107    -68    -69    127    144 237.5 -35.7  33944  285.93 0862.89
2015 04 09 13 04 12 .45     -99    -57    -63    115    131 239.8 -35.7  33942  285.90 0862.89
2015 04 09 13 04 12 .70     -94    -89    -52    130    140 226.4 -27.4  33942  285.88 0862.89
2015 04 09 13 04 12 .95    -101    -71    -67    124    140 234.9 -35.7  33946  285.95 0862.89
2015 04 09 13 04 13 .20     -96    -63    -51    116    126 236.7 -29.5  33954  286.08 0862.89
2015 04 09 13 04 13 .46     -75    -63    -45     98    107 230.0 -31.0  33956  286.12 0862.89
2015 04 09 13 04 13 .71     -69    -47    -49     84     97 235.8 -37.9  33954  286.10 0862.89
2015 04 09 13 04 13 .96     -43    -77    -61     89    107 209.0 -42.0  33944  285.93 0862.89
2015 04 09 13 04 14 .21     -44    -69    -48     82     95 212.5 -38.4  33946  285.97 0862.88
2015 04 09 13 04 14 .46     -49    -46    -42     68     79 226.9 -39.4  33954  286.08 0862.88
2015 04 09 13 04 14 .71     -27    -49    -39     57     69 209.0 -42.0  33950  286.03 0862.88
2015 04 09 13 04 14 .96       0    -85    -24     86     90 180.4 -15.5  33946  285.95 0862.88
2015 04 09 13 04 15 .21      18    -88    -28     91     95 168.0 -22.8  33946  285.97 0862.88
2015 04 09 13 04 15 .46      15    -75    -13     77     79 168.4  -9.8  33946  285.95 0862.88
2015 04 09 13 04 15 .71       6    -72     -6     73     74 174.7  -5.2  33944  285.93 0862.88
2015 04 09 13 04 15 .96       0    -70     12     71     73 180.0  10.1  33944  285.92 0862.88
2015 04 09 13 04 16 .21      -4    -55     29     56     63 184.4  29.3  33946  285.95 0862.88
2015 04 09 13 04 16 .47      -7    -52     33     53     62 188.0  35.5  33958  286.17 0862.88
2015 04 09 13 04 16 .71     -16    -48     42     51     66 198.5  43.7  33962  286.22 0862.88
2015 04 09 13 04 16 .97     -12    -49     33     51     60 194.3  35.6  33964  286.27 0862.88
2015 04 09 13 04 17 .21     -10    -45     29     47     55 193.4  35.5  33958  286.15 0862.88
2015 04 09 13 04 17 .47      -1    -35     32     36     48 182.7  47.9  33970  286.35 0862.88
2015 04 09 13 04 17 .72      -3    -40     36     41     54 185.3  46.9  33966  286.30 0862.88
2015 04 09 13 04 17 .97     -11    -23     33     26     42 207.2  57.5  33970  286.37 0862.88
2015 04 09 13 04 18 .22     -15    -31     42     35     54 207.2  56.3  33962  286.22 0862.88
2015 04 09 13 04 18 .47     -23    -35     42     43     60 213.4  50.0  33964  286.27 0862.88
2015 04 09 13 04 18 .72     -23    -28     43     37     56 219.6  54.3  33964  286.27 0862.87
2015 04 09 13 04 18 .97     -17    -37     40     41     57 205.5  51.1  33962  286.24 0862.87
2015 04 09 13 04 19 .22     -26    -41     40     49     63 212.5  43.7  33962  286.24 0862.87
2015 04 09 13 04 19 .47     -31    -48     36     58     68 212.5  35.5  33970  286.35 0862.87
2015 04 09 13 04 19 .72     -12    -48     34     50     60 195.1  37.6  33968  286.32 0862.87
2015 04 09 13 04 19 .98     -27    -43     24     52     57 212.5  27.1  33970  286.37 0862.87
2015 04 09 13 04 20 .22     -46    -33      6     57     58 234.0   6.9  33970  286.35 0862.87
2015 04 09 13 04 20 .49     -61    -50     -3     80     81 230.5  -2.2  33990  286.69 0862.87
2015 04 09 13 04 20 .74    -106    -47     -4    116    117 246.0  -2.2  33994  286.78 0862.87
2015 04 09 13 04 20 .99    -123    -45     -2    132    133 250.0  -1.3  34002  286.91 0862.87
2015 04 09 13 04 21 .23    -107      0    -26    108    112 270.0 -13.9  34004  286.93 0862.87
2015 04 09 13 04 21 .49     -86     16    -16     88     90 281.0 -10.3  34000  286.88 0862.86
2015 04 09 13 04 21 .74     -58     33      3     67     68 299.8   2.9  34014  287.11 0862.86
2015 04 09 13 04 21 .99     -47     15      7     50     51 288.2   8.0  34014  287.11 0862.86
2015 04 09 13 04 22 .24     -34      0     12     35     38 270.9  19.4  34014  287.11 0862.86
2015 04 09 13 04 22 .49     -21     -8     12     23     25 248.3  29.3  34008  287.01 0862.86
2015 04 09 13 04 22 .74     -20     -4     27     21     34 256.7  56.4  34036  287.47 0862.86
2015 04 09 13 04 22 .99      -2     -7     16      8     17 198.5  72.9  34016  287.13 0862.86
2015 04 09 13 04 23 .24      10     13     23     17     28  36.1  58.5  34020  287.20 0862.86
2015 04 09 13 04 23 .49      26     25     12     37     40  46.7  18.4  34014  287.11 0862.86
2015 04 09 13 04 23 .74      21     22     32     31     44  43.2  49.1  34028  287.35 0862.86
2015 04 09 13 04 23 .99      33     17     28     38     47  62.9  40.7  34020  287.20 0862.86
2015 04 09 13 04 24 .24      43      9     29     45     53  77.6  35.6  34020  287.21 0862.86
2015 04 09 13 04 24 .50      41     -5     30     42     51  97.0  39.7  34030  287.37 0862.86
2015 04 09 13 04 24 .74      55      0     20     56     59  90.0  20.0  34022  287.23 0862.86
2015 04 09 13 04 24 .99      39      0     14     40     43  90.8  19.2  34026  287.30 0862.86
2015 04 09 13 04 25 .24      23      0     23     24     33  90.0  52.0  34032  287.42 0862.86
2015 04 09 13 04 25 .50       1      2     29      3     29  32.5  90.0  34046  287.65 0862.86
2015 04 09 13 04 25 .75      13    -12     32     18     36 133.3  66.8  34058  287.84 0862.86
2015 04 09 13 04 25 .99      26    -36     25     45     51 143.9  31.4  34028  287.33 0862.86
2015 04 09 13 04 26 .25      16    -37     16     41     44 156.4  21.0  34018  287.16 0862.86
2015 04 09 13 04 26 .49       8    -24     22     26     34 161.7  45.8  33988  286.66 0862.86
2015 04 09 13 04 26 .75     -10    -20     16     23     28 207.2  37.6  33984  286.59 0862.86
2015 04 09 13 04 27 .00     -24    -14     23     29     37 239.3  43.7  34010  287.05 0862.86
2015 04 09 13 04 27 .26     -14    -20     12     25     27 216.1  27.2  34014  287.11 0862.86
2015 04 09 13 04 27 .51     -12     -8      7     15     16 234.0  27.2  34018  287.16 0862.86
2015 04 09 13 04 27 .76      -1      0      2      2      3 251.6  50.1  34018  287.16 0862.86
2015 04 09 13 04 28 .02      13      4     27     14     30  71.6  70.8  34020  287.20 0862.86
2015 04 09 13 04 28 .26      18     -3     41     19     45 101.5  72.9  34020  287.20 0862.86
2015 04 09 13 04 28 .52      36     -8     29     38     47 103.3  41.7  34014  287.11 0862.86
2015 04 09 13 04 28 .76      49    -22     33     54     63 114.4  34.4  34012  287.06 0862.86
2015 04 09 13 04 29 .01      63     -8     30     64     70  97.9  27.2  34002  286.91 0862.86
2015 04 09 13 04 29 .26      50      0     42     51     66  90.8  43.7  34034  287.43 0862.86
2015 04 09 13 04 29 .51      48      1     20     49     52  88.3  23.0  34008  287.01 0862.86
2015 04 09 13 04 29 .77      46      0     31     47     56  90.0  35.6  34016  287.13 0862.87
2015 04 09 13 04 30 .01      49     10     27     51     57  78.5  30.3  34022  287.25 0862.87
2015 04 09 13 04 30 .27      50      0     29     51     58  90.0  33.5  34024  287.28 0862.87
2015 04 09 13 04 30 .51      37     12     29     39     48  71.8  40.7  34018  287.16 0862.87
2015 04 09 13 04 30 .77      43     16     16     47     50  69.2  19.2  34008  287.01 0862.87
2015 04 09 13 04 31 .02      25      8     18     27     32  71.8  35.6  34010  287.03 0862.87
2015 04 09 13 04 31 .26      13      5     14     15     20  68.3  47.9  34020  287.20 0862.87
2015 04 09 13 04 31 .52      23      0      1     24     25  90.0   2.8  34012  287.06 0862.87
2015 04 09 13 04 31 .77      30      0     -1     31     32  90.8  -3.1  34030  287.38 0862.87
2015 04 09 13 04 32 .02      40    -22    -11     46     48 118.9 -13.4  34022  287.25 0862.87
2015 04 09 13 04 32 .27      61    -30     -6     68     69 116.2  -5.2  34020  287.20 0862.87
2015 04 09 13 04 32 .52      58    -15    -10     61     62 105.1  -9.3  34022  287.25 0862.87
2015 04 09 13 04 32 .77      64    -17    -20     67     70 105.1 -16.6  34016  287.15 0862.87
2015 04 09 13 04 33 .02      48      1    -18     49     52  88.3 -24.4  34004  286.94 0862.87
2015 04 09 13 04 33 .27      32     -9    -14     34     36 106.8 -27.4  34014  287.11 0862.87
2015 04 09 13 04 33 .52      29     -3     -3     30     31  96.1  -7.3  34022  287.25 0862.87
2015 04 09 13 04 33 .77      29     16      1     34     35  61.1   2.9  34024  287.28 0862.87
2015 04 09 13 04 34 .03      18     29      3     35     36  32.6   4.9  34026  287.30 0862.87
2015 04 09 13 04 34 .31      20     -4      0     21     22 103.3  -2.2  34028  287.35 0862.87
2015 04 09 13 04 34 .54      29    -46    -17     55     57 147.4 -23.8  34032  287.40 0862.87
2015 04 09 13 04 34 .78      47    -16    -27     50     56 109.1 -34.7  34030  287.38 0862.87
2015 04 09 13 04 35 .04      59      4    -48     60     76  85.6 -48.1  34022  287.25 0862.87
2015 04 09 13 04 35 .28      53     50    -54     74     91  46.8 -44.5  33974  286.42 0862.87
2015 04 09 13 04 35 .54      36     57    -65     68     94  32.5 -53.8  33990  286.71 0862.87
2015 04 09 13 04 35 .79      26     42    -54     50     73  32.5 -56.5  34012  287.06 0862.87
2015 04 09 13 04 36 .04      46     29    -48     55     73  57.5 -50.2  34012  287.08 0862.87
2015 04 09 13 04 36 .29      55     58    -33     81     87  43.3 -27.4  33998  286.83 0862.87
2015 04 09 13 04 36 .54      54     66    -54     86    101  39.2 -39.9  33956  286.12 0862.87
2015 04 09 13 04 36 .79      67     70    -56     97    112  43.7 -36.8  33956  286.14 0862.87
2015 04 09 13 04 37 .04      50     59    -58     78     97  40.5 -45.1  33964  286.27 0862.87
2015 04 09 13 04 37 .29      44     67    -69     81    106  33.4 -49.2  33978  286.51 0862.87
2015 04 09 13 04 37 .55      53     72    -69     90    113  36.5 -46.1  33978  286.49 0862.87
2015 04 09 13 04 37 .79      69     74    -41    102    109  43.2 -27.4  34030  287.38 0862.87
2015 04 09 13 04 38 .04      63     59    -52     87    101  46.4 -37.9  34006  286.98 0862.87
2015 04 09 13 04 38 .30     123     36    -42    129    136  73.6 -18.1  34030  287.38 0862.87
2015 04 09 13 04 38 .54     144    -15    -19    145    147  96.2  -7.7  34030  287.38 0862.87
2015 04 09 13 04 38 .80     149     -2     13    150    151  90.9   5.0  34030  287.37 0862.87
2015 04 09 13 04 39 .05     133     -8     13    134    135  93.5   5.9  34028  287.33 0862.87
2015 04 09 13 04 39 .30     153      2     19    154    156  89.1   7.2  34030  287.37 0862.87
2015 04 09 13 04 39 .55     165      2     40    166    171  89.2  13.7  34036  287.49 0862.87
2015 04 09 13 04 39 .80     148      2     49    149    158  89.1  18.4  34048  287.69 0862.87
2015 04 09 13 04 40 .05     127     -3     45    128    136  91.7  19.4  34046  287.64 0862.87
2015 04 09 13 04 40 .30     103      7     72    104    126  85.7  37.6  34064  287.94 0862.87
2015 04 09 13 04 40 .55      71      3     89     72    114  87.4  56.4  34072  288.09 0862.87
2015 04 09 13 04 40 .80      97     22     74    100    124  76.7  40.1  34036  287.49 0862.87
2015 04 09 13 04 41 .05     101     32     92    106    140  72.3  45.8  34046  287.65 0862.87
2015 04 09 13 04 41 .32      96     45     67    107    126  64.8  35.5  34058  287.84 0862.87
2015 04 09 13 04 41 .56      95     67     58    117    130  54.9  27.8  34076  288.14 0862.87
2015 04 09 13 04 41 .82     146     74     40    164    169  63.1  13.9  34146  289.33 0862.87
2015 04 09 13 04 42 .06     156     91     29    181    184  59.6   9.3  34154  289.48 0862.87
2015 04 09 13 04 42 .32     179     69     46    192    198  68.9  13.7  34156  289.52 0862.86
2015 04 09 13 04 42 .56     161     86     35    183    187  61.8  11.0  34168  289.72 0862.86
2015 04 09 13 04 42 .81     119     54     35    131    136  65.6  15.3  34104  288.64 0862.86
2015 04 09 13 04 43 .07     125     91     21    155    157  54.0   7.8  34034  287.45 0862.86
2015 04 09 13 04 43 .32     123    104     28    162    165  49.6  10.1  34030  287.37 0862.86
2015 04 09 13 04 43 .56     122    107     54    163    172  48.7  18.4  34110  288.72 0862.86
2015 04 09 13 04 43 .81      99     91     45    135    143  47.3  18.4  34026  287.30 0862.86
2015 04 09 13 04 44 .08      70    100     24    123    126  35.2  11.0  34014  287.11 0862.86
2015 04 09 13 04 44 .32     111    116      7    161    162  43.7   2.8  34132  289.09 0862.86
2015 04 09 13 04 44 .57      76     47     58     90    107  58.5  35.6  34178  289.89 0862.86
2015 04 09 13 04 44 .82     112     22    101    115    153  78.5  45.9  34180  289.91 0862.86
2015 04 09 13 04 45 .07     126     39     54    132    142  72.7  23.1  34140  289.23 0862.86
2015 04 09 13 04 45 .33     105     87     32    137    141  50.4  13.1  33990  286.71 0862.86
2015 04 09 13 04 45 .57     100     97     35    140    145  45.6  14.3  33984  286.59 0862.86
2015 04 09 13 04 45 .83     121    165     46    205    211  36.3  12.6  34042  287.57 0862.86
2015 04 09 13 04 46 .07     137    164     43    214    219  39.9  11.6  34044  287.62 0862.86
2015 04 09 13 04 46 .33     126    160     40    204    208  38.3  11.1  34010  287.05 0862.86
2015 04 09 13 04 46 .57     119    143     64    187    198  39.7  18.9  34028  287.33 0862.86
2015 04 09 13 04 46 .83     136    136     57    193    202  45.1  16.6  34044  287.62 0862.86
2015 04 09 13 04 47 .08     170    103     79    199    214  58.7  22.8  34110  288.72 0862.86
2015 04 09 13 04 47 .32     148    130     73    197    210  48.7  21.0  34096  288.48 0862.86
2015 04 09 13 04 47 .57     132    170      3    216    217  37.9   1.0  33942  285.90 0862.86
2015 04 09 13 04 47 .83     113    160     -7    197    198  35.2  -2.2  33944  285.93 0862.86
2015 04 09 13 04 48 .07     131    155     28    204    207  40.3   8.0  33948  285.98 0862.86
2015 04 09 13 04 48 .34     149    136     10    202    203  47.6   2.9  33942  285.90 0862.86
2015 04 09 13 04 48 .59     136    136      2    193    194  45.0   0.8  33944  285.93 0862.86
2015 04 09 13 04 48 .84     130    128     -8    183    184  45.6  -2.6  33948  286.00 0862.86
2015 04 09 13 04 49 .09      89    188     10    209    210  25.3   2.8  34000  286.86 0862.86
2015 04 09 13 04 49 .34      83    203     44    220    225  22.3  11.4  34000  286.88 0862.86
2015 04 09 13 04 49 .59     122    183      9    221    222  33.8   2.5  34014  287.10 0862.86
2015 04 09 13 04 49 .84     141    162     18    216    217  41.0   4.9  34022  287.25 0862.86
2015 04 09 13 04 50 .09     128    155     23    202    204  39.7   6.7  34020  287.20 0862.86
2015 04 09 13 04 50 .34     144    116     34    185    189  51.1  10.6  34010  287.05 0862.86
2015 04 09 13 04 50 .60     135    127     48    186    193  46.7  14.5  34028  287.33 0862.86
2015 04 09 13 04 50 .85     136    127     39    187    192  46.9  12.0  34020  287.20 0862.86
2015 04 09 13 04 51 .10     112    164     40    199    204  34.3  11.6  34080  288.23 0862.86
2015 04 09 13 04 51 .34     126    154     18    200    201  39.2   5.2  33972  286.41 0862.86
2015 04 09 13 04 51 .60     150    164     14    223    224  42.5   3.6  34028  287.33 0862.86
2015 04 09 13 04 51 .85     172    182      0    251    252  43.4   0.0  33986  286.63 0862.86
2015 04 09 13 04 52 .10     108    179     34    210    213  31.0   9.3  34112  288.75 0862.86
2015 04 09 13 04 52 .34      83    168     61    188    198  26.5  18.1  34118  288.87 0862.87
2015 04 09 13 04 52 .59     105    177      5    206    207  30.7   1.6  33936  285.80 0862.87
2015 04 09 13 04 52 .85     129    187     14    228    229  34.5   3.6  33928  285.65 0862.87
2015 04 09 13 04 53 .10     128    188     22    228    230  34.3   5.7  33922  285.56 0862.87
2015 04 09 13 04 53 .35     123    187     11    225    226  33.4   2.8  33924  285.58 0862.87
2015 04 09 13 04 53 .61     120    186      3    222    223  33.0   1.0  33928  285.66 0862.87
2015 04 09 13 04 53 .85     113    186     20    218    220  31.4   5.4  33938  285.83 0862.87
2015 04 09 13 04 54 .10     122    175     14    214    215  35.0   3.8  33930  285.68 0862.86
2015 04 09 13 04 54 .35     115    162     24    199    201  35.4   6.9  33942  285.88 0862.86
2015 04 09 13 04 54 .60     123    174     18    214    215  35.4   4.9  33956  286.12 0862.86
2015 04 09 13 04 54 .85     126    173     34    215    218  36.1   9.0  33966  286.30 0862.86
2015 04 09 13 04 55 .12     125    164     34    207    210  37.2   9.3  33970  286.35 0862.86
2015 04 09 13 04 55 .37     125    154     35    199    203  39.2  10.1  33956  286.14 0862.86
2015 04 09 13 04 55 .62     129    130     50    184    191  44.8  15.3  34036  287.47 0862.86
2015 04 09 13 04 55 .86     128    128     64    182    193  45.1  19.4  34050  287.72 0862.86
2015 04 09 13 04 56 .12     133    171     11    217    218  37.9   3.1  33938  285.82 0862.86
2015 04 09 13 04 56 .37     132    167     18    214    215  38.3   4.9  33988  286.67 0862.86
2015 04 09 13 04 56 .62     108    152     66    187    199  35.4  19.4  34070  288.06 0862.86
2015 04 09 13 04 56 .87     123    157     47    200    206  38.1  13.2  34044  287.62 0862.87
2015 04 09 13 04 57 .12     132    153     49    203    209  40.8  13.7  33960  286.20 0862.87
2015 04 09 13 04 57 .37     136    162     10    212    213  40.1   2.8  33934  285.75 0862.87
2015 04 09 13 04 57 .62     143    182     11    232    233  38.3   2.8  33940  285.85 0862.87
2015 04 09 13 04 57 .87     143    171     30    224    227  39.9   7.8  33934  285.75 0862.87
2015 04 09 13 04 58 .12     133    177     26    222    224  37.0   6.9  33934  285.75 0862.87
2015 04 09 13 04 58 .37     142    195     43    242    246  36.1  10.1  33942  285.89 0862.87
2015 04 09 13 04 58 .62     153    192     38    246    250  38.5   8.9  33936  285.79 0862.87
2015 04 09 13 04 58 .87     158    214     20    267    268  36.5   4.4  33936  285.77 0862.87
2015 04 09 13 04 59 .12     159    215     30    268    270  36.5   6.5  33934  285.76 0862.87
2015 04 09 13 04 59 .37     145    224     22    268    270  33.0   4.9  33928  285.66 0862.87
2015 04 09 13 04 59 .62     140    224     10    265    266  32.1   2.3  33926  285.62 0862.87
2015 04 09 13 04 59 .87     155    235     24    282    284  33.4   5.0  33936  285.79 0862.87
2015 04 09 13 05 00 .12     148    238     16    281    282  31.9   3.3  33932  285.71 0862.87
2015 04 09 13 05 00 .38     148    234     15    277    278  32.3   3.3  33936  285.77 0862.87
2015 04 09 13 05 00 .62     152    221     15    269    270  34.5   3.3  33940  285.84 0862.86
2015 04 09 13 05 00 .88     126    221     25    255    257  29.6   5.7  33934  285.76 0862.86
2015 04 09 13 05 01 .13     121    216     12    248    249  29.4   2.9  33938  285.81 0862.86
2015 04 09 13 05 01 .38     142    211     12    255    256  34.1   2.9  33938  285.81 0862.86
2015 04 09 13 05 01 .63     142    231     32    272    274  31.6   6.9  33940  285.84 0862.86
2015 04 09 13 05 01 .88     134    227     31    264    266  30.5   6.9  33946  285.94 0862.86
2015 04 09 13 05 02 .14     125    212     24    247    249  30.7   5.7  33938  285.81 0862.86
2015 04 09 13 05 02 .39     123    220     37    253    256  29.2   8.5  33942  285.89 0862.87
2015 04 09 13 05 02 .64     114    215     38    244    248  27.9   9.0  33942  285.88 0862.87
2015 04 09 13 05 02 .89      98    196     31    220    223  26.5   8.2  33942  285.88 0862.87
2015 04 09 13 05 03 .14     120    213     19    245    246  29.4   4.6  33944  285.91 0862.87
2015 04 09 13 05 03 .39     135    223      7    261    262  31.2   1.7  33932  285.72 0862.87
2015 04 09 13 05 03 .64     133    208     -1    248    249  32.6  -0.3  33928  285.66 0862.87
2015 04 09 13 05 03 .89     125    196     11    233    234  32.6   2.8  33932  285.71 0862.87
2015 04 09 13 05 04 .14     151    210     20    259    260  35.8   4.6  33946  285.94 0862.87
2015 04 09 13 05 04 .39     140    181     11    230    231  37.8   2.9  33940  285.87 0862.87
2015 04 09 13 05 04 .64     137    194      0    238    239  35.4   0.2  33942  285.88 0862.87
2015 04 09 13 05 04 .89     139    197      3    242    243  35.2   0.8  33938  285.81 0862.87
2015 04 09 13 05 05 .14     149    198     -9    249    250  37.0  -2.1  33932  285.72 0862.86
2015 04 09 13 05 05 .40     151    187    -22    241    243  39.0  -5.4  33928  285.64 0862.86
2015 04 09 13 05 05 .65     172    161     -9    236    237  46.9  -2.2  33928  285.64 0862.86
2015 04 09 13 05 05 .90     161    171    -21    236    237  43.3  -5.2  33942  285.89 0862.86
2015 04 09 13 05 06 .15     136    158    -18    209    210  40.8  -5.1  33952  286.07 0862.86
2015 04 09 13 05 06 .39     136    151     -9    204    205  42.1  -2.8  33956  286.14 0862.86
2015 04 09 13 05 06 .65     123    152     -9    196    197  39.0  -2.8  33962  286.24 0862.86
2015 04 09 13 05 06 .90     129    137     -5    189    190  43.2  -1.6  33962  286.24 0862.86
2015 04 09 13 05 07 .15     108    141     -6    178    179  37.6  -2.2  33960  286.19 0862.86
2015 04 09 13 05 07 .40      96    152     -3    180    181  32.3  -1.3  33962  286.22 0862.86
2015 04 09 13 05 07 .65     133    160      5    209    210  39.7   1.6  33962  286.22 0862.86
2015 04 09 13 05 07 .90     149    164     12    222    223  42.3   3.1  33946  285.95 0862.86
2015 04 09 13 05 08 .16     156    160     -1    224    225  44.3  -0.5  33954  286.10 0862.86
2015 04 09 13 05 08 .41     173    162     10    238    239  46.9   2.5  33996  286.79 0862.86
2015 04 09 13 05 08 .66     185    153     21    241    242  50.4   5.2  34058  287.85 0862.86
2015 04 09 13 05 08 .91     184    161    -13    245    246  48.7  -3.2  34022  287.24 0862.86
2015 04 09 13 05 09 .17     165    162     54    232    239  45.6  13.2  34050  287.70 0862.86
2015 04 09 13 05 09 .41     167    163     33    234    237  45.6   8.2  34086  288.32 0862.86
2015 04 09 13 05 09 .67     165    176      3    242    243  43.2   0.8  33988  286.67 0862.86
2015 04 09 13 05 09 .92     151    151     33    214    217  45.0   8.8  34052  287.76 0862.86
2015 04 09 13 05 10 .17     128    208     11    245    246  31.6   2.8  33962  286.21 0862.86
2015 04 09 13 05 10 .42     117    197     24    230    232  30.7   6.1  33960  286.19 0862.86
2015 04 09 13 05 10 .67      94    228     33    247    250  22.5   7.8  33948  285.99 0862.86
2015 04 09 13 05 10 .92     121    229     19    260    261  27.9   4.4  33954  286.08 0862.86
2015 04 09 13 05 11 .18     117    210     24    241    243  29.2   5.9  33962  286.23 0862.86
2015 04 09 13 05 11 .43     102    190     26    216    218  28.3   6.9  33960  286.19 0862.86
2015 04 09 13 05 11 .67      89    188     40    209    213  25.3  11.0  33954  286.08 0862.85
2015 04 09 13 05 11 .92      87    184     25    204    206  25.5   7.2  33948  286.00 0862.85
2015 04 09 13 05 12 .17     105    214     37    239    242  26.3   8.8  33944  285.91 0862.85
2015 04 09 13 05 12 .42     113    232     12    259    260  26.1   2.8  33962  286.21 0862.85
2015 04 09 13 05 12 .67     112    237      3    263    264  25.2   0.8  33944  285.91 0862.85
2015 04 09 13 05 12 .92     121    223     -2    254    255  28.5  -0.5  33940  285.86 0862.85
2015 04 09 13 05 13 .17     126    206     -9    242    243  31.4  -2.2  33938  285.81 0862.85
2015 04 09 13 05 13 .43     122    186    -30    223    226  33.2  -7.7  33942  285.88 0862.85
2015 04 09 13 05 13 .68     115    206    -13    237    238  29.2  -3.1  33942  285.89 0862.85
2015 04 09 13 05 13 .93     106    197     -8    224    225  28.3  -2.2  33944  285.93 0862.85
2015 04 09 13 05 14 .18      89    165     20    188    190  28.3   6.1  33954  286.08 0862.85
2015 04 09 13 05 14 .43      95    149    -52    177    185  32.6 -16.6  33950  286.03 0862.85
2015 04 09 13 05 14 .68      86    137    -57    162    171  32.1 -24.4  33958  286.15 0862.85
2015 04 09 13 05 14 .93      96    153    -22    181    183  32.1  -7.2  33956  286.12 0862.85
2015 04 09 13 05 15 .18      69    148    -25    164    166  24.9  -8.8  33962  286.22 0862.86
2015 04 09 13 05 15 .43      50    150    -25    159    162  18.7  -9.0  33974  286.42 0862.86
2015 04 09 13 05 15 .68      43    178    -58    184    192  13.8 -23.0  33986  286.64 0862.86
2015 04 09 13 05 15 .94      67    111    -35    130    135  31.2 -15.4  34004  286.94 0862.86
2015 04 09 13 05 16 .19      55     75    -41     94    102  36.1 -29.0  34006  286.96 0862.86
2015 04 09 13 05 16 .44      36     98    -45    105    114  20.5 -28.5  33980  286.54 0862.86
2015 04 09 13 05 16 .69      61    131    -56    145    155  24.9 -25.9  33972  286.41 0862.86
2015 04 09 13 05 16 .94      41    140    -41    147    152  16.5 -20.2  34014  287.11 0862.86
2015 04 09 13 05 17 .19      47    119    -47    129    137  21.8 -25.4  33966  286.29 0862.86
2015 04 09 13 05 17 .45      20     99    -39    102    109  11.6 -25.9  33956  286.14 0862.86
2015 04 09 13 05 17 .69      28     79    -32     84     89  19.6 -25.9  33970  286.37 0862.86
2015 04 09 13 05 17 .94      30     88    -26     94     97  19.2 -20.7  34000  286.88 0862.86
2015 04 09 13 05 18 .19      12    103    -34    104    109   6.7 -23.8  33972  286.41 0862.86
2015 04 09 13 05 18 .44      15    105    -38    107    113   8.1 -23.8  33976  286.46 0862.86
2015 04 09 13 05 18 .69      25     97    -35    101    106  14.7 -23.3  33974  286.42 0862.86
2015 04 09 13 05 18 .94      29     87    -32     92     97  18.7 -23.3  33958  286.17 0862.86
2015 04 09 13 05 19 .20      51     79    -36     95    101  33.0 -25.9  33948  286.00 0862.86
2015 04 09 13 05 19 .45      51     62    -25     81     85  39.2 -17.6  33950  286.03 0862.86
2015 04 09 13 05 19 .70      40     66    -22     78     81  31.6 -20.7  33956  286.14 0862.86
2015 04 09 13 05 19 .95      27     69     -2     75     76  21.8  -2.2  33974  286.44 0862.86
2015 04 09 13 05 20 .19      23     74     -8     78     79  17.8  -6.2  33970  286.37 0862.86
2015 04 09 13 05 20 .45      31     55    -20     64     67  29.9 -23.8  33950  286.02 0862.86
2015 04 09 13 05 20 .70      30     59    -22     67     70  27.2 -23.8  33948  286.00 0862.86
2015 04 09 13 05 20 .95      28     60    -16     67     69  25.3 -13.4  33948  285.98 0862.86
2015 04 09 13 05 21 .21      24     62    -18     67     70  21.8 -15.4  33960  286.20 0862.86
2015 04 09 13 05 21 .45      18     69      3     72     73  15.1   2.8  33984  286.61 0862.86
2015 04 09 13 05 21 .71      12     84      9     85     86   8.5   6.5  34030  287.38 0862.86
2015 04 09 13 05 21 .96      25     96     23    100    103  14.7  13.2  34042  287.57 0862.86
2015 04 09 13 05 22 .20      18     88     25     90     94  12.0  15.8  34036  287.49 0862.86
2015 04 09 13 05 22 .46      23    101     36    104    111  12.9  19.4  34050  287.70 0862.86
2015 04 09 13 05 22 .70      46     76     31     90     96  31.2  19.2  34050  287.70 0862.86
2015 04 09 13 05 22 .97      55     86     35    103    109  32.5  18.9  34016  287.15 0862.86
2015 04 09 13 05 23 .22      50    106     26    118    121  25.3  12.6  34046  287.65 0862.86
2015 04 09 13 05 23 .48      42     86     41     97    105  26.3  24.1  34006  286.98 0862.85
2015 04 09 13 05 23 .72      56     94     60    110    125  31.2  31.4  34084  288.28 0862.85
2015 04 09 13 05 23 .97      61     84     63    105    122  36.0  33.5  34088  288.36 0862.85
2015 04 09 13 05 24 .23      51     93     67    107    126  28.9  35.5  34088  288.36 0862.85
2015 04 09 13 05 24 .47      71     65     69     97    119  47.8  39.1  34116  288.82 0862.85
2015 04 09 13 05 24 .72      60     75     69     97    119  38.7  39.1  34134  289.14 0862.85
2015 04 09 13 05 24 .97      57     88     61    106    122  33.0  32.4  34074  288.11 0862.85
2015 04 09 13 05 25 .22      50     75     48     91    102  33.8  29.8  34020  287.21 0862.85
2015 04 09 13 05 25 .47      40     64     57     76     95  32.5  40.7  34056  287.81 0862.85
2015 04 09 13 05 25 .73      19     95     58     98    113  11.6  34.0  34008  287.00 0862.85
2015 04 09 13 05 25 .97      11    102     38    103    109   6.2  20.4  34028  287.33 0862.85
2015 04 09 13 05 26 .23       7    103     20    104    107   4.4  11.1  34036  287.49 0862.85
2015 04 09 13 05 26 .48       0     96      2     97     98 359.5   1.2  34038  287.52 0862.85
2015 04 09 13 05 26 .73       0     91     20     92     95   0.0  12.2  34126  288.99 0862.85
2015 04 09 13 05 26 .97     -13     92     10     94     95 351.5   6.5  34120  288.89 0862.85
2015 04 09 13 05 27 .22     -11    106    -14    107    108 353.8  -7.7  34018  287.18 0862.85
2015 04 09 13 05 27 .48      -1     77    -18     78     81 359.1 -13.4  33952  286.07 0862.85
2015 04 09 13 05 27 .73      -3     74    -23     75     78 357.3 -23.8  33962  286.22 0862.85
2015 04 09 13 05 27 .98       6     76    -16     77     79   4.5 -11.9  34012  287.08 0862.85
2015 04 09 13 05 28 .24      34     97     -4    104    105  19.6  -2.2  33994  286.78 0862.85
2015 04 09 13 05 28 .48       8    112     35    113    119   4.5  17.3  34020  287.21 0862.85
2015 04 09 13 05 28 .73      13     86     25     88     92   8.9  16.3  34018  287.16 0862.85
2015 04 09 13 05 28 .98      20     71     25     74     79  16.0  18.9  34018  287.16 0862.85
2015 04 09 13 05 29 .23       8     62      7     63     64   8.1   6.9  34028  287.35 0862.85
2015 04 09 13 05 29 .48       5     64    -10     65     66   4.5  -9.3  34022  287.25 0862.85
2015 04 09 13 05 29 .73      22     66    -38     70     79  18.7 -35.2  33950  286.03 0862.85
2015 04 09 13 05 29 .99      23     70    -43     74     85  18.3 -37.3  33946  285.97 0862.85
2015 04 09 13 05 30 .24      27     82    -54     87    102  18.5 -39.4  33948  286.00 0862.85
2015 04 09 13 05 30 .49      27     91    -48     95    106  16.5 -33.1  33948  285.98 0862.85
2015 04 09 13 05 30 .75      28    103    -58    107    121  15.2 -35.2  33948  286.00 0862.86
2015 04 09 13 05 30 .99      19     95    -40     97    104  11.5 -27.4  33952  286.07 0862.86
2015 04 09 13 05 31 .24      15     88    -51     90    103   9.8 -35.8  33946  285.97 0862.86
2015 04 09 13 05 31 .50      11    102    -40    103    110   6.2 -26.9  33948  286.00 0862.86
2015 04 09 13 05 31 .75       7     99    -34    100    105   4.0 -23.3  33950  286.03 0862.86
2015 04 09 13 05 32 .00      -8     94    -29     95     99 354.7 -22.3  33950  286.03 0862.86
2015 04 09 13 05 32 .25       0     95      8     96     97 359.5   4.9  33968  286.32 0862.86
2015 04 09 13 05 32 .50      17    110     13    112    113   8.9   6.9  33964  286.27 0862.86
2015 04 09 13 05 32 .75      44    107     -1    116    117  22.3  -0.7  33958  286.15 0862.86
2015 04 09 13 05 33 .00      49    106    -10    117    118  24.9  -5.1  33946  285.95 0862.86
2015 04 09 13 05 33 .27      52     87    -19    102    104  30.7 -10.9  33942  285.90 0862.86
2015 04 09 13 05 33 .50      51     93    -13    107    108  28.9  -7.3  33942  285.90 0862.86
2015 04 09 13 05 33 .75      53     84     -5    100    101  32.6  -3.1  33942  285.90 0862.86
2015 04 09 13 05 34 .00      49     82     -3     96     97  31.2  -2.2  33944  285.93 0862.86
2015 04 09 13 05 34 .25      30     90      0     96     97  18.7  -0.3  33942  285.90 0862.86
2015 04 09 13 05 34 .51      32     96    -13    102    103  18.3  -7.3  33946  285.95 0862.86
2015 04 09 13 05 34 .75      32     94      1    100    101  18.7   0.8  33948  285.98 0862.86
2015 04 09 13 05 35 .00      46     86     -3     98     99  28.5  -2.2  33942  285.90 0862.86
2015 04 09 13 05 35 .25      39     90     -3     99    100  23.6  -2.2  33942  285.90 0862.86
2015 04 09 13 05 35 .51      33     87    -25     94     98  20.9 -15.0  33940  285.85 0862.86
2015 04 09 13 05 35 .76      44     92    -19    103    105  25.9 -10.9  33942  285.90 0862.86
2015 04 09 13 05 36 .00      51     93    -13    107    108  28.9  -7.3  33942  285.90 0862.86
2015 04 09 13 05 36 .25      49     90    -10    103    104  28.5  -5.6  33946  285.95 0862.86
2015 04 09 13 05 36 .51      41     83     -3     93     94  26.3  -2.2  33946  285.95 0862.86
2015 04 09 13 05 36 .76      42     80    -20     91     94  28.1 -12.9  33940  285.87 0862.86
2015 04 09 13 05 37 .02      51     79    -19     95     97  33.0 -11.3  33936  285.78 0862.86
2015 04 09 13 05 37 .27      58     73    -13     94     95  38.7  -8.2  33936  285.80 0862.86
2015 04 09 13 05 37 .53      70     68    -16     98    100  45.9  -9.8  33944  285.92 0862.86
2015 04 09 13 05 37 .77      77     70    -13    105    106  47.8  -7.3  33948  286.00 0862.86
2015 04 09 13 05 38 .02      59     92     -1    110    111  33.0  -0.7  33958  286.15 0862.86
2015 04 09 13 05 38 .27      49     82      4     96     97  31.2   2.9  33958  286.15 0862.86
2015 04 09 13 05 38 .52      68     83     -4    108    109  39.7  -2.2  33952  286.07 0862.86
2015 04 09 13 05 38 .78      71     96     -3    120    121  36.5  -1.8  33970  286.35 0862.86
2015 04 09 13 05 39 .02      77     89     16    118    120  41.0   8.0  34042  287.57 0862.86
2015 04 09 13 05 39 .27      75     91     31    119    124  39.6  14.7  34028  287.33 0862.86
2015 04 09 13 05 39 .52      68     88     22    112    115  37.4  11.1  34014  287.10 0862.86
2015 04 09 13 05 39 .77      70     85    -10    111    112  39.6  -5.6  33970  286.37 0862.86
2015 04 09 13 05 40 .03      74     89    -14    116    117  39.6  -7.3  33986  286.64 0862.86
2015 04 09 13 05 40 .27      66     97    -19    118    120  34.3  -9.3  33984  286.59 0862.86
2015 04 09 13 05 40 .53      59     98    -14    115    116  31.2  -7.3  33978  286.49 0862.86
2015 04 09 13 05 40 .77      68     93    -18    116    118  36.1  -8.8  33956  286.14 0862.86
2015 04 09 13 05 41 .03      87     89     -2    125    126  44.1  -1.2  33958  286.17 0862.86
2015 04 09 13 05 41 .28      87     89     -2    125    126  44.1  -1.2  33954  286.10 0862.86
2015 04 09 13 05 41 .53      85     83     -2    119    120  45.6  -1.2  33956  286.12 0862.86
2015 04 09 13 05 41 .78      87     71     -4    113    114  50.9  -2.2  33948  286.00 0862.86
2015 04 09 13 05 42 .03      79     85     -6    117    118  42.8  -3.1  33954  286.08 0862.86
2015 04 09 13 05 42 .28      84     70    -10    110    111  50.0  -5.2  33958  286.15 0862.86
2015 04 09 13 05 42 .53      83     82     -5    118    119  45.4  -2.6  33974  286.42 0862.86
2015 04 09 13 05 42 .78     107     95     -2    144    145  48.6  -1.2  33984  286.59 0862.86
2015 04 09 13 05 43 .03     102     95      0    140    141  46.9  -0.3  33982  286.56 0862.86
2015 04 09 13 05 43 .28      81     97     22    127    130  39.6  10.1  33982  286.56 0862.86
2015 04 09 13 05 43 .53      77    105     24    131    134  36.1  10.6  33992  286.74 0862.86
2015 04 09 13 05 43 .80      95     96     22    136    138  44.5   9.5  33996  286.81 0862.86
2015 04 09 13 05 44 .05     102    101     18    144    146  45.2   7.5  34026  287.32 0862.86
2015 04 09 13 05 44 .29     115     98     10    152    153  49.6   3.8  34028  287.33 0862.86
2015 04 09 13 05 44 .55     121    130     14    178    179  43.0   4.6  34054  287.79 0862.86
2015 04 09 13 05 44 .79      38    171     21    176    178  12.5   6.9  34016  287.15 0862.86
2015 04 09 13 05 45 .05     112    134    -19    175    177  39.9  -6.5  34020  287.20 0862.86
2015 04 09 13 05 45 .30     109    102     -8    150    151  46.8  -3.2  34026  287.30 0862.86
2015 04 09 13 05 45 .55     104     85     61    135    148  50.5  26.2  34040  287.55 0862.86
2015 04 09 13 05 45 .80     106    158     37    191    195  33.8  11.1  34046  287.65 0862.86
2015 04 09 13 05 46 .05      79    109     67    135    150  36.0  27.8  34060  287.89 0862.86
2015 04 09 13 05 46 .30     100    105     54    146    155  43.7  21.0  34054  287.77 0862.86
2015 04 09 13 05 46 .55     128    128     46    182    188  45.1  14.3  34064  287.94 0862.86
2015 04 09 13 05 46 .81      98    134     65    167    179  36.1  22.5  34072  288.08 0862.86
2015 04 09 13 05 47 .05     146    176     34    230    233  39.7   8.5  34046  287.64 0862.85
2015 04 09 13 05 47 .30     143    172    -19    224    225  39.7  -5.1  33936  285.80 0862.85
2015 04 09 13 05 47 .55     148    178    -21    232    234  39.6  -5.4  33934  285.74 0862.85
2015 04 09 13 05 47 .80     140    178    -28    227    229  38.3  -7.2  33928  285.66 0862.85
2015 04 09 13 05 48 .05     149    178    -32    233    236  39.9  -8.0  33930  285.67 0862.85
2015 04 09 13 05 48 .31     150    188     -8    241    242  38.5  -2.1  33940  285.84 0862.85
2015 04 09 13 05 48 .55     132    191     11    233    234  34.7   2.8  33966  286.28 0862.85
2015 04 09 13 05 48 .80     137    186    -24    232    234  36.3  -6.0  33940  285.86 0862.85
2015 04 09 13 05 49 .06     147    215    -33    261    264  34.5  -7.3  33932  285.71 0862.85
2015 04 09 13 05 49 .31     140    193    -34    239    242  36.1  -8.2  33938  285.81 0862.85
2015 04 09 13 05 49 .56     138    223    -28    263    265  31.7  -6.2  33936  285.77 0862.85
2015 04 09 13 05 49 .81     150    220      9    267    268  34.3   2.1  33950  286.01 0862.85
2015 04 09 13 05 50 .06     145    213    -11    258    259  34.3  -2.6  33930  285.67 0862.85
2015 04 09 13 05 50 .31     141    221    -10    263    264  32.5  -2.2  33924  285.59 0862.85
2015 04 09 13 05 50 .56     145    209     -9    255    256  34.7  -2.2  33928  285.64 0862.85
2015 04 09 13 05 50 .82     131    205    -11    244    245  32.5  -2.6  33926  285.62 0862.85
2015 04 09 13 05 51 .07     147    231     -6    275    276  32.5  -1.3  33950  286.03 0862.85
2015 04 09 13 05 51 .33     132    224      9    260    261  30.5   2.1  33988  286.65 0862.85
2015 04 09 13 05 51 .57     122    201     38    236    240  31.2   9.3  34008  286.99 0862.85
2015 04 09 13 05 51 .82     125    222      3    256    257  29.4   0.7  33928  285.66 0862.85
2015 04 09 13 05 52 .07     115    244     21    270    271  25.3   4.6  33930  285.67 0862.85
2015 04 09 13 05 52 .33     110    253     32    277    279  23.6   6.7  33930  285.69 0862.85
2015 04 09 13 05 52 .57     125    228     16    261    262  28.7   3.6  33930  285.67 0862.85
2015 04 09 13 05 52 .82     124    190      3    228    229  33.2   1.0  33928  285.65 0862.85
2015 04 09 13 05 53 .08      95    201      3    223    224  25.4   0.8  33926  285.61 0862.85
2015 04 09 13 05 53 .33      70    193    -29    206    209  20.0  -8.2  33926  285.63 0862.85
2015 04 09 13 05 53 .58      56    183    -11    192    193  17.2  -3.3  33930  285.68 0862.86
2015 04 09 13 05 53 .83      75    175    -32    191    194  23.4  -9.8  33926  285.61 0862.86
2015 04 09 13 05 54 .08      60    187    -17    197    198  17.8  -5.1  33928  285.65 0862.86
2015 04 09 13 05 54 .33      80    201    -28    217    219  21.8  -7.5  33926  285.61 0862.86
2015 04 09 13 05 54 .58      85    207    -40    224    228  22.3 -10.3  33926  285.61 0862.86
2015 04 09 13 05 54 .83      74    196    -29    210    213  20.7  -8.0  33926  285.61 0862.86
2015 04 09 13 05 55 .08      76    192     -8    207    208  21.8  -2.2  33924  285.60 0862.86
2015 04 09 13 05 55 .33      64    193     -4    204    205  18.5  -1.3  33924  285.60 0862.86
2015 04 09 13 05 55 .58      57    209      0    217    218  15.4   0.0  33928  285.65 0862.86
2015 04 09 13 05 55 .83      73    201     -8    215    216  20.1  -2.2  33930  285.70 0862.86
2015 04 09 13 05 56 .08      72    198     10    211    212  20.1   2.8  33946  285.97 0862.86
2015 04 09 13 05 56 .33      63    190      8    201    202  18.5   2.5  33944  285.93 0862.86
2015 04 09 13 05 56 .58      67    155      7    169    170  23.4   2.5  33946  285.95 0862.86
2015 04 09 13 05 56 .83      90    160     26    184    186  29.4   8.2  33940  285.85 0862.86
2015 04 09 13 05 57 .09      90    171     30    194    197  27.9   8.8  33922  285.56 0862.86
2015 04 09 13 05 57 .33      67    173     61    186    196  21.4  18.1  33934  285.75 0862.86
2015 04 09 13 05 57 .59      37    167     68    172    184  12.5  22.8  33928  285.65 0862.86
2015 04 09 13 05 57 .85      45    174     69    180    192  14.5  21.7  33936  285.80 0862.86
2015 04 09 13 05 58 .10      56    174     72    184    197  18.0  22.5  34000  286.88 0862.86
2015 04 09 13 05 58 .35      89    159     49    183    190  29.4  15.2  33970  286.37 0862.86
2015 04 09 13 05 58 .61      54    170     58    179    189  17.6  18.1  34018  287.18 0862.86
2015 04 09 13 05 58 .85      38    171     63    176    186  12.7  20.4  33938  285.82 0862.86
2015 04 09 13 05 59 .10      67    211     17    222    223  17.8   4.6  33932  285.71 0862.86
2015 04 09 13 05 59 .35      92    224     21    243    244  22.5   5.0  33926  285.62 0862.86
2015 04 09 13 05 59 .60     109    181      7    212    213  31.0   2.1  33946  285.95 0862.86
2015 04 09 13 05 59 .85     109    175     15    207    208  31.9   4.2  33936  285.80 0862.87
2015 04 09 13 06 00 .10     116    189      2    222    223  31.6   0.7  33944  285.93 0862.87
2015 04 09 13 06 00 .35     104    203     11    229    230  27.2   2.9  33928  285.66 0862.87
2015 04 09 13 06 00 .60      69    209     43    221    226  18.5  11.1  33928  285.66 0862.87
2015 04 09 13 06 00 .86      85    212     61    229    238  21.9  15.0  33964  286.25 0862.87
2015 04 09 13 06 01 .10     101    212     51    235    241  25.5  12.4  33982  286.55 0862.87
2015 04 09 13 06 01 .35     126    206     -9    242    243  31.6  -2.2  33928  285.64 0862.87
2015 04 09 13 06 01 .60     111    213     -2    241    242  27.6  -0.5  33924  285.57 0862.87
2015 04 09 13 06 01 .86     105    228     -9    252    253  24.7  -2.1  33928  285.64 0862.86
2015 04 09 13 06 02 .11      92    186    -22    208    210  26.5  -6.2  33972  286.41 0862.86
2015 04 09 13 06 02 .36     105    194    -28    221    223  28.5  -7.3  33942  285.90 0862.86
2015 04 09 13 06 02 .61     194    209    -34    286    289  42.8  -6.9  33978  286.48 0862.86
2015 04 09 13 06 02 .86     169    196    -93    260    277  40.8 -19.7  33934  285.76 0862.86
2015 04 09 13 06 03 .11     158    179    -46    239    244  41.4 -10.9  33962  286.21 0862.86
2015 04 09 13 06 03 .37     174    174    -41    247    251  45.1  -9.6  33990  286.68 0862.86
2015 04 09 13 06 03 .61     170    217    -24    276    278  38.1  -5.1  34018  287.16 0862.87
2015 04 09 13 06 03 .87     174    212     -1    275    276  39.4  -0.3  34018  287.17 0862.87
2015 04 09 13 06 04 .12     157    191    -16    248    249  39.4  -3.7  34098  288.51 0862.87
2015 04 09 13 06 04 .36     187    168     11    252    253  48.0   2.5  34068  288.02 0862.87
2015 04 09 13 06 04 .62     206    131     25    245    247  57.6   6.0  34042  287.58 0862.87
2015 04 09 13 06 04 .88     199    126     18    236    237  57.6   4.6  34028  287.34 0862.87
2015 04 09 13 06 05 .13     185    125     27    224    226  55.9   6.9  34030  287.38 0862.87
2015 04 09 13 06 05 .38     161    140    -11    214    215  48.9  -3.2  33984  286.59 0862.87
2015 04 09 13 06 05 .62     162     98     -1    190    191  58.9  -0.5  33986  286.62 0862.87
2015 04 09 13 06 05 .87     123     92     -6    154    155  53.1  -2.2  33968  286.32 0862.87
2015 04 09 13 06 06 .13     125    104    -31    163    167  50.2 -10.9  33934  285.75 0862.87
2015 04 09 13 06 06 .37     110    122    -33    165    169  41.9 -11.6  33934  285.76 0862.87
2015 04 09 13 06 06 .63     102    109    -40    150    156  43.2 -15.2  33934  285.75 0862.87
2015 04 09 13 06 06 .88      87    101    -27    134    137  41.0 -11.5  33938  285.82 0862.87
2015 04 09 13 06 07 .13      91     91    -35    129    134  45.0 -15.5  33934  285.76 0862.87
2015 04 09 13 06 07 .38      79     80    -42    113    120  44.7 -25.4  33932  285.71 0862.87
2015 04 09 13 06 07 .63     114     72    -42    135    142  57.6 -17.5  33934  285.75 0862.87
2015 04 09 13 06 07 .88     143     42     -5    150    151  73.6  -2.2  33938  285.83 0862.87
2015 04 09 13 06 08 .13     139     27     -3    142    143  79.0  -1.3  33940  285.85 0862.87
2015 04 09 13 06 08 .38     141     70    -50    158    166  63.4 -17.6  33928  285.66 0862.87
2015 04 09 13 06 08 .63     131     72    -43    150    157  61.2 -16.0  33928  285.66 0862.87
2015 04 09 13 06 08 .88     149     72     -6    166    167  64.0  -2.2  33934  285.75 0862.87
2015 04 09 13 06 09 .13     137    120    -56    183    191  48.7 -22.1  33934  285.76 0862.87
2015 04 09 13 06 09 .38     132     95    -51    163    172  54.3 -17.6  33936  285.80 0862.87
2015 04 09 13 06 09 .64      87     87      1    124    125  45.1   0.7  33934  285.76 0862.87
2015 04 09 13 06 09 .89     123     33     42    128    135  75.0  18.4  33974  286.42 0862.87
2015 04 09 13 06 10 .13     133     50     50    143    152  69.2  19.4  34036  287.49 0862.87
2015 04 09 13 06 10 .38     138     48     42    147    153  70.9  16.0  33986  286.64 0862.87
2015 04 09 13 06 10 .64     133     68      4    150    151  62.9   1.8  33954  286.08 0862.87
2015 04 09 13 06 10 .89     143     47     33    151    155  71.8  12.4  33986  286.64 0862.87
2015 04 09 13 06 11 .13     110     44    -26    119    122  68.2 -12.4  33942  285.90 0862.87
2015 04 09 13 06 11 .39      97     67    -37    118    124  55.4 -17.5  33940  285.85 0862.87
2015 04 09 13 06 11 .65     101     64    -42    120    127  57.5 -23.8  33942  285.88 0862.87
2015 04 09 13 06 11 .90      79     49    -27     94     97  58.0 -21.2  33936  285.78 0862.87
2015 04 09 13 06 12 .15      80     44    -25     92     96  61.1 -15.5  33930  285.68 0862.87
2015 04 09 13 06 12 .40      83     53      4     99    100  57.5   2.3  33936  285.80 0862.87
2015 04 09 13 06 12 .65     121     48      0    131    132  68.2   0.2  33938  285.82 0862.87
2015 04 09 13 06 12 .90      92     33    -11     99    100  70.0  -6.7  33938  285.82 0862.87
2015 04 09 13 06 13 .15      94     30      1     99    100  71.8   0.8  33938  285.82 0862.87
2015 04 09 13 06 13 .40      84     31      6     90     91  69.2   3.8  33938  285.82 0862.87
2015 04 09 13 06 13 .65      84     31      6     90     91  69.2   3.8  33938  285.82 0862.87
2015 04 09 13 06 13 .90     109     29      4    113    114  74.9   2.3  33936  285.80 0862.87
2015 04 09 13 06 14 .15     117     40     -4    124    125  70.9  -2.2  33938  285.82 0862.87
2015 04 09 13 06 14 .40     125     29     30    129    133  76.7  13.2  33948  285.98 0862.88
2015 04 09 13 06 14 .65     145     37     11    150    151  75.4   4.4  33940  285.85 0862.88
2015 04 09 13 06 14 .90     123     54     -4    135    136  66.4  -1.8  33934  285.76 0862.88
2015 04 09 13 06 15 .16     123     54     -4    135    136  66.4  -1.8  33934  285.76 0862.88
2015 04 09 13 06 15 .40     123     44     25    131    134  70.0  11.1  33934  285.76 0862.88
2015 04 09 13 06 15 .66     129     47      0    138    139  70.0   0.2  33934  285.76 0862.88
2015 04 09 13 06 15 .91     137     54      7    148    149  68.3   2.9  33932  285.71 0862.88
2015 04 09 13 06 16 .16     142     67     16    158    159  64.8   6.1  33936  285.80 0862.88
2015 04 09 13 06 16 .41     145     54     11    155    156  69.6   4.4  33942  285.90 0862.87
2015 04 09 13 06 16 .66     136     83     39    160    165  58.5  13.9  33970  286.37 0862.87
2015 04 09 13 06 16 .92     190     38     66    194    206  78.6  18.9  34002  286.91 0862.87
2015 04 09 13 06 17 .16     183     60     96    193    215  71.6  28.2  34036  287.49 0862.87
2015 04 09 13 06 17 .41     191     86     96    210    230  65.6  26.6  34016  287.13 0862.87
2015 04 09 13 06 17 .66     182    135    141    228    268  53.4  34.8  33982  286.55 0862.87
2015 04 09 13 06 17 .91     249    117    114    276    298  64.8  23.6  33970  286.35 0862.87
2015 04 09 13 06 18 .17     268    120    -25    294    296  65.8  -4.9  33956  286.11 0862.87
2015 04 09 13 06 18 .42     163    123    -65    205    216  52.9 -17.5  33952  286.07 0862.87
2015 04 09 13 06 18 .68     116     75    -38    139    145  57.1 -15.5  33948  285.98 0862.87
2015 04 09 13 06 18 .92     152     69    -51    167    174  65.6 -22.5  33950  286.03 0862.87
2015 04 09 13 06 19 .17     150     71    -47    167    174  64.5 -15.8  33924  285.60 0862.87
2015 04 09 13 06 19 .42     157     82    -49    178    185  62.2 -15.4  33928  285.65 0862.87
2015 04 09 13 06 19 .68     177     84    -35    197    201  64.6 -10.3  33926  285.61 0862.87
2015 04 09 13 06 19 .93     170     71    -51    185    193  67.2 -15.5  33928  285.66 0862.87
2015 04 09 13 06 20 .17     142     67    -54    158    166  64.6 -23.8  33928  285.65 0862.87
2015 04 09 13 06 20 .43     163     63    -31    176    179  68.7 -10.1  33926  285.61 0862.87
2015 04 09 13 06 20 .68     138     65    -46    153    160  64.8 -17.0  33924  285.58 0862.87
2015 04 09 13 06 20 .93     145     71    -45    162    169  63.8 -15.5  33926  285.61 0862.87
2015 04 09 13 06 21 .18     153     77    -59    172    183  63.4 -19.1  33924  285.58 0862.87
2015 04 09 13 06 21 .43     161    103    -53    192    200  57.5 -15.5  33924  285.58 0862.87
2015 04 09 13 06 21 .68     136     83    -34    160    164  58.5 -12.2  33928  285.66 0862.87
2015 04 09 13 06 21 .93     102     96    -54    141    150  46.9 -26.4  33930  285.70 0862.87
2015 04 09 13 06 22 .18      75    103    -54    128    138  36.1 -28.5  33930  285.68 0862.87
2015 04 09 13 06 22 .43     100     91    -41    136    142  47.8 -21.7  33928  285.65 0862.87
2015 04 09 13 06 22 .68      66    103    -56    123    135  32.5 -30.6  33926  285.61 0862.87
2015 04 09 13 06 22 .93      62    103    -81    121    145  31.2 -41.4  33930  285.70 0862.87
2015 04 09 13 06 23 .18      37    112    -56    118    130  18.3 -31.6  33928  285.66 0862.87
2015 04 09 13 06 23 .44      29    114    -32    118    123  14.3 -15.5  33928  285.66 0862.87
2015 04 09 13 06 23 .69      50     98    -58    111    125  27.2 -34.2  33926  285.63 0862.87
2015 04 09 13 06 23 .94      53     85    -62    101    118  32.1 -38.8  33930  285.68 0862.87
2015 04 09 13 06 24 .19      53     75    -61     92    110  35.2 -40.4  33932  285.71 0862.87
2015 04 09 13 06 24 .44      55     79    -58     97    113  34.7 -38.4  33930  285.68 0862.86
2015 04 09 13 06 24 .69      48     75    -65     90    111  32.6 -44.1  33932  285.71 0862.86
2015 04 09 13 06 24 .94      55     36    -72     66     97  56.7 -56.6  33936  285.80 0862.86
2015 04 09 13 06 25 .19      55     56    -45     79     90  44.2 -36.8  33930  285.68 0862.86
2015 04 09 13 06 25 .44      58     71    -32     92     97  39.2 -23.3  33930  285.68 0862.86
2015 04 09 13 06 25 .70      24     92    -34     96    103  15.1 -19.7  33926  285.63 0862.86
2015 04 09 13 06 25 .97      32     99    -31    105    109  18.3 -21.7  33926  285.63 0862.86
2015 04 09 13 06 26 .20      27     97     -3    101    102  15.6  -2.2  33924  285.58 0862.85
2015 04 09 13 06 26 .45      27    102     -9    106    107  15.2  -5.2  33926  285.63 0862.85
2015 04 09 13 06 26 .70      38     87     15     96     98  23.6   9.0  33926  285.63 0862.85
2015 04 09 13 06 26 .95     117     74     54    139    149  57.6  22.5  33926  285.61 0862.85
2015 04 09 13 06 27 .20     116     57     25    130    133  63.8  11.1  33926  285.61 0862.85
2015 04 09 13 06 27 .46     112     42     22    120    123  69.2  10.6  33932  285.71 0862.85
2015 04 09 13 06 27 .71     143     47     33    151    155  71.8  12.4  33984  286.59 0862.85
2015 04 09 13 06 27 .96     151     50     34    160    164  71.4  12.0  33972  286.41 0862.85
2015 04 09 13 06 28 .21     169     21     56    171    180  82.8  18.1  34046  287.65 0862.85
2015 04 09 13 06 28 .46     177     37     58    181    191  78.1  17.9  33990  286.71 0862.85
2015 04 09 13 06 28 .70     171     41     38    176    181  76.3  12.4  33978  286.51 0862.85
2015 04 09 13 06 28 .96     166     33     33    170    174  78.5  11.1  33978  286.51 0862.85
2015 04 09 13 06 29 .21     161     21     54    163    172  82.5  18.4  33970  286.35 0862.85
2015 04 09 13 06 29 .46     161     21     54    163    172  82.5  18.4  34000  286.88 0862.85
2015 04 09 13 06 29 .71     156     49     54    164    173  72.3  18.4  34020  287.20 0862.85
2015 04 09 13 06 29 .96     168     61     15    179    180  70.0   4.9  34014  287.11 0862.85
2015 04 09 13 06 30 .21     147     68     10    162    163  65.2   3.8  33980  286.54 0862.85
2015 04 09 13 06 30 .46     174     55      3    183    184  72.3   1.0  33934  285.76 0862.85
2015 04 09 13 06 30 .71     162     34     -6    166    167  77.8  -2.2  33936  285.80 0862.85
2015 04 09 13 06 30 .96     161     38    -24    166    168  76.7  -8.2  33924  285.60 0862.85
2015 04 09 13 06 31 .21     169     42    -40    175    180  76.1 -12.9  33926  285.61 0862.85
2015 04 09 13 06 31 .46     177     40    -30    182    185  77.0  -9.3  33922  285.56 0862.85
2015 04 09 13 06 31 .72     166     33     26    170    173  78.8   8.8  33934  285.75 0862.84
2015 04 09 13 06 31 .97     177     26     63    180    191  81.4  19.4  33980  286.52 0862.84
2015 04 09 13 06 32 .22     161     17     80    162    180  83.8  28.2  33962  286.24 0862.84
2015 04 09 13 06 32 .48     146     29     46    149    157  78.5  17.3  33942  285.90 0862.84
2015 04 09 13 06 32 .73     142     10     25    143    146  85.7  10.1  34006  286.98 0862.84
2015 04 09 13 06 32 .98     167      5      8    168    169  88.1   2.8  33948  286.00 0862.84
2015 04 09 13 06 33 .23     146     25    -19    149    151  80.3  -7.3  33978  286.51 0862.84
2015 04 09 13 06 33 .48     154     -3    -19    155    157  91.3  -7.2  33928  285.65 0862.85
2015 04 09 13 06 33 .73     171     -3    -21    172    174  91.3  -7.2  33922  285.56 0862.85
2015 04 09 13 06 33 .98     180    -16    -28    181    184  95.2  -8.8  33920  285.53 0862.85
2015 04 09 13 06 34 .23     192     -3    -30    193    196  91.0  -8.8  33922  285.56 0862.85
2015 04 09 13 06 34 .48     194    -14    -12    195    196  94.4  -3.7  33924  285.60 0862.85
2015 04 09 13 06 34 .73     210    -18    -11    211    212  95.0  -3.1  33922  285.56 0862.85
2015 04 09 13 06 34 .98     188    -13    -37    189    193  94.1 -11.3  33922  285.56 0862.85
2015 04 09 13 06 35 .23     172    -27    -25    175    177  99.0  -8.2  33924  285.58 0862.84
2015 04 09 13 06 35 .48     171    -47     -8    178    179 105.5  -2.6  33924  285.58 0862.84
2015 04 09 13 06 35 .73     214    -61     -8    223    224 105.9  -2.2  33922  285.56 0862.84
2015 04 09 13 06 35 .99     220    -69    -48    231    237 107.5 -11.9  33924  285.57 0862.84
2015 04 09 13 06 36 .23     209    -63    -12    219    220 106.9  -3.3  33924  285.58 0862.84
2015 04 09 13 06 36 .49     204    -66    -27    215    217 107.9  -7.2  33926  285.61 0862.84
2015 04 09 13 06 36 .74     182    -61    -50    193    200 108.6 -14.7  33924  285.60 0862.84
2015 04 09 13 06 36 .99     184    -62    -61    195    205 108.8 -17.6  33926  285.61 0862.84
2015 04 09 13 06 37 .25     194    -82    -58    211    219 113.1 -15.5  33926  285.61 0862.84
2015 04 09 13 06 37 .49     197    -52    -18    204    205 104.8  -5.1  33924  285.58 0862.84
2015 04 09 13 06 37 .74     198    -65    -24    209    211 108.2  -6.7  33924  285.58 0862.84
2015 04 09 13 06 37 .99     211    -42     32    216    219 101.2   8.5  33928  285.66 0862.84
2015 04 09 13 06 38 .24     197    -48     26    203    205 103.7   7.5  33932  285.71 0862.84
2015 04 09 13 06 38 .49     196    -68      2    208    209 109.3   0.8  33928  285.65 0862.84
2015 04 09 13 06 38 .74     208    -75     17    222    223 110.0   4.6  33926  285.63 0862.84
2015 04 09 13 06 38 .99     216    -97     17    237    238 114.2   4.2  33928  285.64 0862.84
2015 04 09 13 06 39 .24     232   -128     22    266    268 118.9   4.9  33934  285.76 0862.84
2015 04 09 13 06 39 .50     217   -145     13    262    263 123.7   2.9  33930  285.67 0862.84
2015 04 09 13 06 39 .76     222   -140     28    263    265 122.4   6.1  33972  286.40 0862.83
2015 04 09 13 06 40 .00     198   -138     48    242    247 124.9  11.4  34082  288.26 0862.83
2015 04 09 13 06 40 .25     172   -126     18    214    215 126.4   4.9  33970  286.35 0862.83
2015 04 09 13 06 40 .50     187   -127      0    227    228 124.2   0.2  33928  285.66 0862.83
2015 04 09 13 06 40 .75     189   -116    -16    222    223 121.5  -4.1  33928  285.65 0862.83
2015 04 09 13 06 41 .01     188   -124    -25    226    228 123.3  -6.5  33928  285.65 0862.83
2015 04 09 13 06 41 .26     190   -138    -34    235    238 126.0  -8.3  33928  285.64 0862.83
2015 04 09 13 06 41 .51     207   -148    -14    255    256 125.7  -3.1  33926  285.62 0862.83
2015 04 09 13 06 41 .76     211   -143     -5    256    257 124.2  -1.2  33926  285.62 0862.83
2015 04 09 13 06 42 .01     189   -146     -8    240    241 127.8  -2.1  33928  285.64 0862.83
2015 04 09 13 06 42 .26     201   -146      3    249    250 126.0   0.7  33928  285.66 0862.83
2015 04 09 13 06 42 .51     182   -131     12    225    226 125.9   3.1  33928  285.65 0862.83
2015 04 09 13 06 42 .76     191   -122      3    227    228 122.6   0.8  33928  285.65 0862.83
2015 04 09 13 06 43 .01     198   -128     10    236    237 122.9   2.5  33930  285.67 0862.83
2015 04 09 13 06 43 .26     184   -135      0    229    230 126.2   0.2  33944  285.93 0862.83
2015 04 09 13 06 43 .51     196   -151     15    248    249 127.8   3.6  33966  286.30 0862.83
2015 04 09 13 06 43 .76     172   -171     -4    243    244 134.8  -1.1  33960  286.20 0862.83
2015 04 09 13 06 44 .02     201   -143    -22    248    250 125.5  -5.1  33942  285.88 0862.83
2015 04 09 13 06 44 .26     160   -159    -14    226    227 134.8  -3.7  33956  286.12 0862.83
2015 04 09 13 06 44 .51     166   -157    -17    229    230 133.3  -4.4  33954  286.08 0862.83
2015 04 09 13 06 44 .76     178   -157    -39    238    242 131.4  -9.4  33956  286.13 0862.83
2015 04 09 13 06 45 .02     251   -167     47    302    306 123.7   8.9  33950  286.03 0862.83
2015 04 09 13 06 45 .27     168   -122     93    208    227 126.0  25.7  33954  286.08 0862.82
2015 04 09 13 06 45 .52     174   -111     82    207    222 122.5  23.0  33964  286.27 0862.82
2015 04 09 13 06 45 .77     154   -117     82    194    210 127.3  24.3  33992  286.74 0862.82
2015 04 09 13 06 46 .02     167   -149     63    225    234 131.8  15.8  33992  286.73 0862.82
2015 04 09 13 06 46 .27     186   -135     82    231    245 126.0  20.0  34022  287.24 0862.82
2015 04 09 13 06 46 .53     188   -140     65    235    244 126.6  15.6  33932  285.71 0862.82
2015 04 09 13 06 46 .78     171   -169     30    241    243 134.7   7.2  33926  285.62 0862.82
2015 04 09 13 06 47 .03     183   -171     -1    251    252 133.1  -0.3  33924  285.59 0862.82
2015 04 09 13 06 47 .29     190   -198     10    275    276 136.1   2.1  33932  285.71 0862.82
2015 04 09 13 06 47 .53     183   -181     13    258    259 134.7   2.9  33962  286.23 0862.82
2015 04 09 13 06 47 .78     182   -182     10    258    259 135.0   2.3  33936  285.79 0862.82
2015 04 09 13 06 48 .03     164   -188     -9    250    251 138.8  -2.1  33926  285.61 0862.82
2015 04 09 13 06 48 .28     178   -194      8    264    265 137.6   1.8  33926  285.61 0862.82
2015 04 09 13 06 48 .53     179   -216      8    281    282 140.3   1.7  33926  285.62 0862.82
2015 04 09 13 06 48 .78     154   -201     40    254    258 142.6   9.0  33980  286.53 0862.82
2015 04 09 13 06 49 .03     176   -193      8    262    263 137.7   1.8  33924  285.59 0862.82
2015 04 09 13 06 49 .28     155   -177     -9    236    237 138.8  -2.2  33924  285.57 0862.82
2015 04 09 13 06 49 .54     154   -168     18    229    230 137.5   4.6  33920  285.53 0862.82
2015 04 09 13 06 49 .78     158   -178      3    239    240 138.5   0.8  33926  285.61 0862.82
2015 04 09 13 06 50 .04     156   -178     13    237    238 138.8   3.1  33924  285.59 0862.82
2015 04 09 13 06 50 .29     186   -184     30    263    265 134.7   6.7  33942  285.89 0862.82
2015 04 09 13 06 50 .54     211   -175     23    275    277 129.6   5.0  33932  285.72 0862.82
2015 04 09 13 06 50 .79     207   -195     13    285    286 133.2   2.8  33930  285.67 0862.82
2015 04 09 13 06 51 .04     188   -188      9    266    267 135.0   2.1  33926  285.62 0862.82
2015 04 09 13 06 51 .29     193   -202      7    280    281 136.3   1.6  33926  285.61 0862.82
2015 04 09 13 06 51 .54     190   -203     24    279    281 137.0   5.0  33930  285.67 0862.82
2015 04 09 13 06 51 .79     185   -206    -10    277    278 138.1  -2.1  33928  285.66 0862.82
2015 04 09 13 06 52 .04     190   -198     -3    275    276 136.1  -0.7  33932  285.71 0862.82
2015 04 09 13 06 52 .29     184   -202     -5    274    275 137.7  -1.2  33926  285.61 0862.82
2015 04 09 13 06 52 .54     203   -203     14    288    289 135.0   2.9  33924  285.59 0862.81
2015 04 09 13 06 52 .80     214   -228    -15    313    314 136.8  -2.8  33924  285.57 0862.81
2015 04 09 13 06 53 .05     207   -206      9    293    294 134.9   1.8  33924  285.57 0862.81
2015 04 09 13 06 53 .30     205   -218      5    300    301 136.7   1.0  33922  285.54 0862.81
2015 04 09 13 06 53 .55     200   -218      0    297    298 137.5   0.0  33926  285.61 0862.81
2015 04 09 13 06 53 .81     200   -213      4    293    294 136.8   0.8  33922  285.56 0862.81
2015 04 09 13 06 54 .06     195   -221     20    295    296 138.6   3.9  33950  286.03 0862.81
2015 04 09 13 06 54 .30     177   -215      3    279    280 140.6   0.8  33924  285.57 0862.81
2015 04 09 13 06 54 .56     180   -216     14    282    283 140.3   2.9  33928  285.66 0862.81
2015 04 09 13 06 54 .81     203   -214     30    296    298 136.6   6.0  33922  285.56 0862.81
2015 04 09 13 06 55 .06     219   -223     17    313    314 135.5   3.3  33924  285.57 0862.81
2015 04 09 13 06 55 .31     187   -258     20    319    320 144.0   3.7  33922  285.56 0862.81
2015 04 09 13 06 55 .56     139   -245    -46    283    287 150.4  -9.4  33924  285.57 0862.81
2015 04 09 13 06 55 .81     171   -248      5    302    303 145.5   1.0  33922  285.54 0862.81
2015 04 09 13 06 56 .06     201   -231      4    307    308 139.0   0.8  33922  285.56 0862.81
2015 04 09 13 06 56 .31     206   -211     -1    295    296 135.7  -0.3  33930  285.67 0862.80
2015 04 09 13 06 56 .56     219   -219     85    310    322 135.0  15.4  33972  286.38 0862.80
2015 04 09 13 06 56 .81     221   -235     -4    323    324 136.8  -0.7  33930  285.69 0862.80
2015 04 09 13 06 57 .06     218   -247      2    330    331 138.6   0.4  33924  285.58 0862.80
2015 04 09 13 06 57 .31     207   -234     33    313    315 138.5   6.1  33920  285.52 0862.80
2015 04 09 13 06 57 .56     216   -263     16    341    342 140.6   2.8  33924  285.58 0862.80
2015 04 09 13 06 57 .82     214   -281     18    354    355 142.8   3.0  33924  285.57 0862.80
2015 04 09 13 06 58 .06     230   -283     31    365    367 140.9   5.0  33924  285.57 0862.80
2015 04 09 13 06 58 .32     240   -287     38    375    377 140.1   5.8  33926  285.62 0862.80
2015 04 09 13 06 58 .57     251   -254     33    358    360 135.4   5.4  33926  285.62 0862.80
2015 04 09 13 06 58 .82     248   -235     13    342    343 133.5   2.3  33930  285.67 0862.80
2015 04 09 13 06 59 .07     195   -251     31    319    321 142.1   5.7  33956  286.13 0862.80
2015 04 09 13 06 59 .32     203   -223     37    302    305 137.7   7.1  33980  286.52 0862.80
2015 04 09 13 06 59 .57     193   -249     97    316    331 142.2  17.2  34016  287.14 0862.80
2015 04 09 13 06 59 .82     254   -295    110    390    406 139.4  15.8  33990  286.69 0862.80
2015 04 09 13 07 00 .07     297   -331     61    445    450 138.1   7.9  33926  285.63 0862.80
2015 04 09 13 07 00 .33     312   -327     26    453    454 136.3   3.3  33932  285.71 0862.80
2015 04 09 13 07 00 .58     302   -320     -9    441    442 136.7  -1.3  33934  285.74 0862.80
2015 04 09 13 07 00 .83     279   -305    -18    414    415 137.5  -2.5  33930  285.69 0862.80
2015 04 09 13 07 01 .08     299   -337     35    451    453 138.5   4.5  33926  285.63 0862.80
2015 04 09 13 07 01 .33     309   -290     56    425    429 133.2   7.6  33930  285.69 0862.80
2015 04 09 13 07 01 .58     276   -287      0    399    400 136.1   0.0  33926  285.63 0862.80
2015 04 09 13 07 01 .83     256   -311    -31    403    405 140.5  -4.5  33924  285.58 0862.80
2015 04 09 13 07 02 .08     261   -315    -13    410    411 140.4  -1.9  33924  285.58 0862.80
2015 04 09 13 07 02 .33     252   -313     -4    402    403 141.2  -0.7  33924  285.58 0862.80
2015 04 09 13 07 02 .59     277   -308    -15    415    416 138.1  -2.1  33924  285.58 0862.79
2015 04 09 13 07 02 .84     255   -285    -25    383    384 138.2  -3.8  33922  285.55 0862.79
2015 04 09 13 07 03 .09     280   -273    -28    392    393 134.3  -4.1  33920  285.53 0862.79
2015 04 09 13 07 03 .34     275   -261    -39    380    382 133.5  -5.9  33924  285.58 0862.79
2015 04 09 13 07 03 .59     265   -248    -26    364    365 133.1  -4.2  33926  285.63 0862.79
2015 04 09 13 07 03 .84     268   -234     36    356    358 131.1   5.9  33958  286.17 0862.79
2015 04 09 13 07 04 .09     271   -205    -14    341    342 127.1  -2.5  33930  285.67 0862.79
2015 04 09 13 07 04 .34     278   -226     31    359    361 129.1   5.0  33924  285.60 0862.79
2015 04 09 13 07 04 .59     227   -192     14    298    299 130.2   2.8  33924  285.57 0862.79
2015 04 09 13 07 04 .84     282   -223    -13    360    361 128.3  -2.1  33930  285.67 0862.79
2015 04 09 13 07 05 .09     309   -262     22    406    407 130.3   3.1  33928  285.66 0862.79
2015 04 09 13 07 05 .34     288   -245     13    379    380 130.4   2.1  33932  285.72 0862.79
2015 04 09 13 07 05 .60     333   -226      7    403    404 124.2   1.0  33940  285.85 0862.79
2015 04 09 13 07 05 .84     330   -223     12    399    400 124.0   1.8  33942  285.89 0862.79
2015 04 09 13 07 06 .09     315   -171     38    359    362 118.5   6.1  33952  286.04 0862.78
2015 04 09 13 07 06 .34     260   -161    -11    306    307 121.8  -2.2  33930  285.67 0862.78
2015 04 09 13 07 06 .60     243   -175    -27    300    302 125.7  -5.2  33926  285.61 0862.78
2015 04 09 13 07 06 .85     231   -134    -10    268    269 120.2  -2.2  33932  285.72 0862.78
2015 04 09 13 07 07 .10     244   -182    -56    305    311 126.8 -10.4  33928  285.64 0862.78
2015 04 09 13 07 07 .36     235   -215    -38    319    322 132.4  -6.9  33966  286.30 0862.78
2015 04 09 13 07 07 .61     255   -178     -2    312    313 124.9  -0.4  33940  285.86 0862.78
2015 04 09 13 07 07 .86     247   -139     29    284    286 119.5   6.0  33952  286.04 0862.78
2015 04 09 13 07 08 .11     193   -154     19    248    249 128.6   4.4  33942  285.89 0862.78
2015 04 09 13 07 08 .36     200   -227     61    303    310 138.6  11.4  33994  286.77 0862.78
2015 04 09 13 07 08 .61     187   -226     75    294    304 140.3  14.3  34020  287.19 0862.78
2015 04 09 13 07 08 .86     212   -253     62    331    337 140.1  10.7  33960  286.19 0862.77
2015 04 09 13 07 09 .11     292   -148    127    328    351 117.0  22.3  33968  286.31 0862.77
2015 04 09 13 07 09 .36     363   -144    113    391    408 111.7  16.1  33994  286.78 0862.77
2015 04 09 13 07 09 .61     308   -157    107    346    363 117.1  17.3  34006  286.95 0862.77
2015 04 09 13 07 09 .86     277    -57     50    283    288 101.7  10.1  33998  286.84 0862.78
2015 04 09 13 07 10 .11     246    -42     88    250    266  99.7  19.4  34034  287.44 0862.78
2015 04 09 13 07 10 .36     228    -99     83    249    263 113.5  18.4  34020  287.21 0862.78
2015 04 09 13 07 10 .62     268    -45     79    272    284  99.7  16.3  34136  289.17 0862.78
2015 04 09 13 07 10 .86     374    -55     95    379    391  98.5  14.2  33978  286.49 0862.78
2015 04 09 13 07 11 .12     421    -12     74    422    429  91.7  10.0  33942  285.88 0862.78
2015 04 09 13 07 11 .37     310      6     62    311    318  88.7  11.3  33930  285.69 0862.78
2015 04 09 13 07 11 .62     248      5      7    249    250  88.7   1.7  33926  285.62 0862.77
2015 04 09 13 07 11 .87     275     -3    -10    276    277  90.8  -2.2  33926  285.61 0862.77
2015 04 09 13 07 12 .12     279    -16    -30    280    282  93.4  -6.2  33924  285.59 0862.77
2015 04 09 13 07 12 .37     254    -18    -18    255    256  94.1  -4.1  33924  285.57 0862.77
2015 04 09 13 07 12 .62     253      0     -5    254    255  90.0  -1.2  33926  285.62 0862.77
2015 04 09 13 07 12 .87     251    -15     25    252    254  93.5   5.7  33926  285.62 0862.77
2015 04 09 13 07 13 .12     259      3     51    260    266  89.2  11.1  33928  285.66 0862.77
2015 04 09 13 07 13 .37     318      5     37    319    322  89.0   6.7  33926  285.62 0862.77
2015 04 09 13 07 13 .62     309    -18     79    310    321  93.4  14.4  33928  285.66 0862.77
2015 04 09 13 07 13 .87     305      0     72    306    315  90.0  13.3  33930  285.69 0862.77
2015 04 09 13 07 14 .12     301    -25     70    303    312  94.8  13.1  33928  285.66 0862.77
2015 04 09 13 07 14 .38     326    -11     43    327    330  92.0   7.6  33930  285.67 0862.77
2015 04 09 13 07 14 .63     331     -7     16    332    333  91.3   2.9  33926  285.63 0862.77
2015 04 09 13 07 14 .88     321    -14     15    322    323  92.6   2.8  33924  285.59 0862.77
2015 04 09 13 07 15 .13     331     -7     16    332    333  91.3   2.9  33926  285.63 0862.77
2015 04 09 13 07 15 .38     317     -6     10    318    319  91.3   1.9  33926  285.61 0862.77
2015 04 09 13 07 15 .63     315      0     33    316    318  90.0   6.0  33928  285.64 0862.77
2015 04 09 13 07 15 .88     302      4     34    303    305  89.1   6.5  33928  285.64 0862.77
2015 04 09 13 07 16 .13     299      4     31    300    302  89.2   5.9  33928  285.66 0862.77
2015 04 09 13 07 16 .39     297    -20     53    298    303  93.9  10.1  33940  285.84 0862.77
2015 04 09 13 07 16 .64     302      4     50    303    308  89.2   9.5  33942  285.88 0862.77
2015 04 09 13 07 16 .89     294    -31     23    296    297  96.1   4.6  33930  285.67 0862.77
2015 04 09 13 07 17 .14     286     -4     51    287    292  90.9  10.1  33930  285.67 0862.77
2015 04 09 13 07 17 .39     292    -13     25    293    295  92.6   4.9  33930  285.67 0862.77
2015 04 09 13 07 17 .64     276    -10     34    277    280  92.1   7.1  33932  285.72 0862.77
2015 04 09 13 07 17 .89     262    -33     92    265    281  97.2  19.2  33956  286.13 0862.77
2015 04 09 13 07 18 .14     264    -30     72    266    276  96.6  15.3  33946  285.94 0862.77
2015 04 09 13 07 18 .39     317    -24     43    318    321  94.4   7.8  33942  285.89 0862.77
2015 04 09 13 07 18 .64     338    -39     41    341    344  96.6   6.9  33946  285.95 0862.77
2015 04 09 13 07 18 .89     299    -22     37    300    303  94.3   7.1  33952  286.04 0862.77
2015 04 09 13 07 19 .15     328    -49     30    332    334  98.6   5.2  33994  286.78 0862.77
2015 04 09 13 07 19 .40     322    -53     59    327    333  99.5  10.2  34026  287.29 0862.77
2015 04 09 13 07 19 .65     327    -57     64    333    340 100.0  11.0  34014  287.10 0862.77
2015 04 09 13 07 19 .90     285    -66     68    293    301 103.2  13.2  34002  286.89 0862.78
2015 04 09 13 07 20 .14     278    -86     68    292    300 107.3  13.2  34028  287.33 0862.78
2015 04 09 13 07 20 .40     291    -58     57    297    303 101.4  11.0  33972  286.40 0862.78
2015 04 09 13 07 20 .64     263    -57     79    270    282 102.3  16.4  34030  287.38 0862.78
2015 04 09 13 07 20 .90     300    -46     48    304    308  98.8   9.0  33946  285.96 0862.78
2015 04 09 13 07 21 .16     275    -29     61    277    284  96.2  12.6  33932  285.71 0862.78
2015 04 09 13 07 21 .41     286    -12     58    287    293  92.5  11.4  33934  285.74 0862.78
2015 04 09 13 07 21 .66     296    -20     54    297    302  93.9  10.3  33934  285.74 0862.77
2015 04 09 13 07 21 .92     313    -44     47    317    321  98.0   8.5  33954  286.09 0862.77
2015 04 09 13 07 22 .16     282    -33     50    284    289  96.8  10.0  33968  286.31 0862.77
2015 04 09 13 07 22 .41     278    -11     75    279    290  92.4  15.2  33942  285.88 0862.77
2015 04 09 13 07 22 .66     273      7     69    274    283  88.5  14.3  33946  285.94 0862.77
2015 04 09 13 07 22 .91     273     -6     95    274    291  91.3  19.2  33942  285.88 0862.77
2015 04 09 13 07 23 .16     315      0     67    316    324  90.0  12.0  33948  285.99 0862.77
2015 04 09 13 07 23 .41     343    -10     55    344    349  91.8   9.2  33942  285.90 0862.78
2015 04 09 13 07 23 .66     312    -14     29    313    315  92.6   5.3  33940  285.84 0862.78
2015 04 09 13 07 23 .92     349    -26     -3    350    351  94.4  -0.6  33934  285.75 0862.78
2015 04 09 13 07 24 .16     338    -39      7    341    342  96.7   1.2  33940  285.85 0862.78
2015 04 09 13 07 24 .42     345    -15     21    346    347  92.5   3.6  33942  285.89 0862.78
2015 04 09 13 07 24 .67     306     -6     38    307    310  91.3   7.1  33958  286.16 0862.78
2015 04 09 13 07 24 .92     319    -62     53    326    331 101.1   9.2  34064  287.93 0862.78
2015 04 09 13 07 25 .16     302    -58     28    308    310 101.0   5.2  33940  285.84 0862.78
2015 04 09 13 07 25 .41     298    -59     53    304    309 101.2  10.0  33946  285.94 0862.77
2015 04 09 13 07 25 .67     298    -65     38    306    309 102.3   7.2  33936  285.77 0862.77
2015 04 09 13 07 25 .92     300    -87     20    313    314 106.2   3.7  33934  285.76 0862.77
2015 04 09 13 07 26 .17     310   -100     29    326    328 107.9   5.2  33934  285.74 0862.77
2015 04 09 13 07 26 .42     294    -70     37    303    306 103.5   7.1  33936  285.79 0862.77
2015 04 09 13 07 26 .67     280    -66     40    288    291 103.3   8.0  33932  285.71 0862.77
2015 04 09 13 07 26 .92     297    -87     35    310    313 106.4   6.6  33936  285.77 0862.77
2015 04 09 13 07 27 .17     307    -92     34    321    323 106.8   6.1  33932  285.71 0862.77
2015 04 09 13 07 27 .42     337    -98     17    352    353 106.3   2.8  33936  285.78 0862.77
2015 04 09 13 07 27 .67     302   -132      2    330    331 113.6   0.4  33936  285.80 0862.77
2015 04 09 13 07 27 .92     294    -97      5    310    311 108.4   1.0  33928  285.66 0862.77
2015 04 09 13 07 28 .19     301    -87     11    314    315 106.2   2.1  33930  285.69 0862.77
2015 04 09 13 07 28 .44     318   -120     17    341    342 110.7   3.0  33932  285.72 0862.77
2015 04 09 13 07 28 .68     323   -120     -6    345    346 110.4  -1.2  33936  285.77 0862.77
2015 04 09 13 07 28 .94     305   -144      6    338    339 115.4   1.1  33932  285.73 0862.77
2015 04 09 13 07 29 .19     282   -139      5    315    316 116.2   1.0  33938  285.81 0862.77
2015 04 09 13 07 29 .44     299   -133     26    328    330 114.0   4.6  33948  286.00 0862.77
2015 04 09 13 07 29 .69     276   -136     20    308    309 116.2   3.8  33940  285.86 0862.77
2015 04 09 13 07 29 .94     282   -139     12    315    316 116.2   2.3  33942  285.89 0862.78
2015 04 09 13 07 30 .19     273   -155      6    315    316 119.7   1.1  33948  285.99 0862.78
2015 04 09 13 07 30 .44     267   -126      8    296    297 115.2   1.6  33946  285.94 0862.78
2015 04 09 13 07 30 .69     266   -141     37    302    305 117.9   7.1  33942  285.89 0862.78
2015 04 09 13 07 30 .94     227   -154     32    275    277 124.1   6.7  33964  286.25 0862.78
2015 04 09 13 07 31 .19     213   -128     24    249    251 121.1   5.7  33954  286.09 0862.78
2015 04 09 13 07 31 .45     261   -133     25    294    296 117.1   5.0  33982  286.55 0862.78
2015 04 09 13 07 31 .69     250   -127     36    281    284 117.1   7.5  33996  286.80 0862.78
2015 04 09 13 07 31 .94     267   -142     31    303    305 118.0   5.9  33976  286.45 0862.78
2015 04 09 13 07 32 .19     258   -149     35    298    301 120.0   6.9  33970  286.36 0862.78
2015 04 09 13 07 32 .44     249   -118     -3    276    277 115.3  -0.7  33960  286.18 0862.78
2015 04 09 13 07 32 .70     235   -139    -15    274    275 120.7  -3.1  33968  286.31 0862.78
2015 04 09 13 07 32 .95     245   -137     24    282    284 119.3   5.0  33968  286.31 0862.78
2015 04 09 13 07 33 .20     219   -160     43    272    276 126.2   9.0  33982  286.55 0862.78
2015 04 09 13 07 33 .45     200   -176      7    267    268 131.3   1.6  33998  286.82 0862.78
2015 04 09 13 07 33 .69     178   -146     27    231    233 129.3   6.9  33988  286.66 0862.78
2015 04 09 13 07 33 .95     174   -111     24    207    209 122.5   6.7  33986  286.64 0862.78
2015 04 09 13 07 34 .20     148   -103     14    181    182 124.9   4.6  33976  286.47 0862.78
2015 04 09 13 07 34 .45     181    -87     -7    202    203 115.8  -2.2  33988  286.67 0862.78
2015 04 09 13 07 34 .70     178    -31     14    181    182 100.1   4.6  33974  286.44 0862.78
2015 04 09 13 07 34 .95     168    -39     20    173    175 103.3   6.9  33980  286.54 0862.78
2015 04 09 13 07 35 .21     153    -66     -4    167    168 113.5  -1.6  33980  286.54 0862.78
2015 04 09 13 07 35 .46     135    -84      3    160    161 122.0   1.2  33992  286.73 0862.78
2015 04 09 13 07 35 .72     125    -92     17    156    158 126.4   6.5  34012  287.08 0862.78
2015 04 09 13 07 35 .97     134    -85    -18    159    161 122.4  -6.5  34018  287.16 0862.78
2015 04 09 13 07 36 .21     141    -75     23    160    162 118.0   8.5  34018  287.18 0862.78
2015 04 09 13 07 36 .47     158    -50      7    166    167 107.7   2.5  34062  287.92 0862.78
2015 04 09 13 07 36 .71     178    -26     40    180    185  98.4  12.6  34030  287.38 0862.78
2015 04 09 13 07 36 .96     187      6     65    188    200  88.1  19.2  34014  287.10 0862.78
2015 04 09 13 07 37 .22     221    -43     78    226    240 101.2  19.2  34062  287.92 0862.78
2015 04 09 13 07 37 .46     241   -123     53    271    277 117.1  11.1  34098  288.53 0862.78
2015 04 09 13 07 37 .72     229   -153     45    276    280 123.7   9.3  34144  289.29 0862.78
2015 04 09 13 07 37 .97     207   -146     95    254    271 125.1  21.0  34180  289.90 0862.78
2015 04 09 13 07 38 .22     234   -119     51    263    269 117.1  11.1  34098  288.51 0862.78
2015 04 09 13 07 38 .48     274    -94     59    290    297 109.1  11.6  34182  289.95 0862.78
2015 04 09 13 07 38 .71     249    -62     45    257    262 104.1  10.1  34160  289.58 0862.78
2015 04 09 13 07 38 .97     234    -43     55    238    245 100.5  13.1  34176  289.85 0862.78
2015 04 09 13 07 39 .22     267    -24     50    269    274  95.3  10.6  34078  288.17 0862.78
2015 04 09 13 07 39 .47     198    -91     41    219    223 114.8  10.6  34110  288.72 0862.78
2015 04 09 13 07 39 .72     163    -74     60    180    190 114.4  18.6  34128  289.02 0862.78
2015 04 09 13 07 39 .97     141    -77     78    161    178 118.9  27.4  34134  289.14 0862.78
2015 04 09 13 07 40 .22     114   -154     69    192    204 143.5  20.4  34144  289.30 0862.78
2015 04 09 13 07 40 .47     198   -125     24    235    237 122.4   5.9  34126  289.00 0862.78
2015 04 09 13 07 40 .72     244   -232     73    337    345 133.6  12.3  33960  286.19 0862.78
2015 04 09 13 07 40 .98     300   -213     51    368    372 125.4   8.0  33978  286.49 0862.78
2015 04 09 13 07 41 .23     238   -193     43    307    311 129.1   8.0  34062  287.90 0862.78
2015 04 09 13 07 41 .48     246   -174    105    302    320 125.3  19.2  34152  289.42 0862.78
2015 04 09 13 07 41 .72     254    -74     93    265    281 106.4  19.4  34136  289.17 0862.78
2015 04 09 13 07 41 .99     143   -147    100    206    228 135.9  27.4  34128  289.04 0862.78
2015 04 09 13 07 42 .24      86   -180    109    200    227 154.5  31.3  34162  289.62 0862.78
2015 04 09 13 07 42 .49      16   -162    -32    163    167 174.2 -11.3  34118  288.87 0862.78
2015 04 09 13 07 42 .74      22   -202      0    204    205 173.8   0.2  34174  289.82 0862.78
2015 04 09 13 07 42 .98     159   -300     71    340    348 152.1  11.8  34162  289.59 0862.78
2015 04 09 13 07 43 .24      96   -315     18    330    331 163.0   3.3  34182  289.93 0862.78
2015 04 09 13 07 43 .49      16   -255     -1    256    257 176.4  -0.3  34192  290.10 0862.78
2015 04 09 13 07 43 .74     -17   -166     59    167    177 186.0  20.2  34218  290.57 0862.78
2015 04 09 13 07 43 .99      64   -168     48    180    187 159.1  15.0  34222  290.62 0862.78
2015 04 09 13 07 44 .24     112   -217    115    245    270 152.6  27.1  34212  290.44 0862.78
2015 04 09 13 07 44 .49     109   -283    101    304    321 159.0  18.4  34102  288.59 0862.77
2015 04 09 13 07 44 .75     228   -311     60    386    391 143.8   8.9  34068  288.00 0862.77
2015 04 09 13 07 44 .99     172   -377     43    415    418 155.5   6.0  34044  287.60 0862.77
2015 04 09 13 07 45 .25     237   -242     63    339    345 135.6  10.6  34060  287.88 0862.77
2015 04 09 13 07 45 .50      64   -360     78    366    375 169.8  12.2  34104  288.62 0862.77
2015 04 09 13 07 45 .74     107   -284    108    304    322 159.3  20.3  34144  289.29 0862.77
2015 04 09 13 07 46 .00     308   -392     65    499    504 141.9   7.4  33990  286.71 0862.77
2015 04 09 13 07 46 .24     268   -461     88    534    542 149.8   9.4  33938  285.83 0862.77
2015 04 09 13 07 46 .50     295   -422     74    516    522 145.0   8.2  33934  285.76 0862.77
2015 04 09 13 07 46 .75     362   -452     72    580    585 141.3   7.1  33932  285.71 0862.77
2015 04 09 13 07 47 .00     274   -511    117    580    592 151.8  11.4  33926  285.61 0862.77
2015 04 09 13 07 47 .25     325   -492     58    590    593 146.5   5.7  33926  285.61 0862.77
2015 04 09 13 07 47 .50     338   -514     50    616    619 146.6   4.7  33926  285.63 0862.77
2015 04 09 13 07 47 .75     280   -547    108    615    625 152.8  10.0  33930  285.70 0862.77
2015 04 09 13 07 48 .00     320   -493    -23    588    589 147.0  -2.3  33924  285.57 0862.77
2015 04 09 13 07 48 .25     275   -426      1    508    509 147.1   0.2  33922  285.54 0862.77
2015 04 09 13 07 48 .50     288   -415    -26    506    507 145.2  -3.0  33922  285.54 0862.77
2015 04 09 13 07 48 .75     273   -431    -40    511    513 147.6  -4.6  33924  285.60 0862.77
2015 04 09 13 07 49 .01     261   -393     14    472    473 146.4   1.7  33928  285.64 0862.77
2015 04 09 13 07 49 .26     265   -436     25    511    512 148.7   2.9  33924  285.60 0862.77
2015 04 09 13 07 49 .51     240   -400     59    467    471 149.0   7.2  33928  285.65 0862.77
2015 04 09 13 07 49 .77     254   -430     50    500    503 149.4   5.8  33940  285.84 0862.77
2015 04 09 13 07 50 .02     288   -409     73    501    507 144.9   8.3  33936  285.80 0862.77
2015 04 09 13 07 50 .26     255   -364    122    445    462 145.0  15.4  33950  286.03 0862.77
2015 04 09 13 07 50 .52     258   -411     86    486    494 147.9  10.1  33934  285.75 0862.77
2015 04 09 13 07 50 .77     287   -414     26    504    505 145.3   3.0  33928  285.65 0862.76
2015 04 09 13 07 51 .02     277   -433     47    515    518 147.4   5.3  33930  285.70 0862.76
2015 04 09 13 07 51 .27     197   -451     75    493    499 156.4   8.7  34004  286.92 0862.76
2015 04 09 13 07 51 .52     280   -391     85    482    490 144.4  10.0  33964  286.26 0862.76
2015 04 09 13 07 51 .77     293   -418     58    511    515 144.9   6.5  33968  286.31 0862.75
2015 04 09 13 07 52 .02     303   -412     16    512    513 143.6   1.8  33944  285.92 0862.75
2015 04 09 13 07 52 .27     186   -431    160    470    497 156.6  18.8  34032  287.41 0862.75
2015 04 09 13 07 52 .52     219   -384     94    443    453 150.3  12.0  33990  286.70 0862.75
2015 04 09 13 07 52 .77     224   -453      7    506    507 153.7   0.8  33930  285.70 0862.75
2015 04 09 13 07 53 .02     226   -426     10    483    484 152.0   1.2  33942  285.89 0862.75
2015 04 09 13 07 53 .27     252   -429     15    498    499 149.6   1.8  33970  286.36 0862.75
2015 04 09 13 07 53 .52     256   -452     17    520    521 150.5   1.9  33944  285.93 0862.74
2015 04 09 13 07 53 .77     250   -487     23    548    549 152.8   2.5  33942  285.88 0862.74
2015 04 09 13 07 54 .03     224   -465     28    517    518 154.3   3.1  33940  285.84 0862.74
2015 04 09 13 07 54 .28     260   -450     14    520    521 150.0   1.6  33952  286.07 0862.74
2015 04 09 13 07 54 .53     267   -449    -20    523    524 149.2  -2.2  33974  286.44 0862.74
2015 04 09 13 07 54 .78     231   -367     32    434    436 147.8   4.2  33976  286.47 0862.74
2015 04 09 13 07 55 .03     308   -386     -1    494    495 141.4  -0.2  33972  286.41 0862.74
2015 04 09 13 07 55 .28     259   -441     26    512    513 149.5   3.0  33982  286.56 0862.75
2015 04 09 13 07 55 .53     253   -445     74    513    519 150.4   8.2  33988  286.66 0862.75
2015 04 09 13 07 55 .77     287   -436     48    523    526 146.6   5.3  33968  286.34 0862.75
2015 04 09 13 07 56 .04     303   -510     79    594    600 149.3   7.6  33938  285.81 0862.75
2015 04 09 13 07 56 .29     260   -446      1    517    518 149.7   0.2  33928  285.65 0862.75
2015 04 09 13 07 56 .54     317   -428      0    533    534 143.5   0.0  33972  286.40 0862.75
2015 04 09 13 07 56 .79     259   -408    -52    484    487 147.5  -6.2  33942  285.89 0862.75
2015 04 09 13 07 57 .04     277   -327      6    429    430 139.7   0.8  33990  286.70 0862.75
2015 04 09 13 07 57 .29     292   -408     33    502    504 144.4   3.8  34012  287.07 0862.75
2015 04 09 13 07 57 .54     367   -356     76    512    518 134.1   8.5  34026  287.29 0862.75
2015 04 09 13 07 57 .79     362   -410     97    548    557 138.6  10.1  33984  286.59 0862.75
2015 04 09 13 07 58 .04     305   -372     96    482    492 140.6  11.3  33960  286.19 0862.75
2015 04 09 13 07 58 .29     314   -397     34    507    509 141.7   3.9  33946  285.94 0862.75
2015 04 09 13 07 58 .54     299   -395     49    496    499 142.8   5.7  33950  286.02 0862.75
2015 04 09 13 07 58 .79     293   -383     27    483    484 142.6   3.3  33924  285.60 0862.75
2015 04 09 13 07 59 .04     258   -374     28    455    456 145.4   3.6  33924  285.58 0862.75
2015 04 09 13 07 59 .29     249   -382     14    457    458 146.9   1.8  33924  285.58 0862.75
2015 04 09 13 07 59 .55     256   -375    -21    455    456 145.7  -2.7  33924  285.59 0862.75
2015 04 09 13 07 59 .80     218   -406     12    461    462 151.8   1.6  33922  285.56 0862.75
2015 04 09 13 08 00 .05     228   -384     39    447    449 149.3   5.1  33926  285.63 0862.75
2015 04 09 13 08 00 .30     321   -417     72    527    532 142.4   7.8  33926  285.63 0862.75
2015 04 09 13 08 00 .55     310   -393     18    501    502 141.7   2.1  33924  285.60 0862.75
2015 04 09 13 08 00 .80     263   -395      0    475    476 146.3   0.0  33926  285.62 0862.75
2015 04 09 13 08 01 .05     246   -437     28    502    503 150.6   3.3  33924  285.57 0862.75
2015 04 09 13 08 01 .30     242   -440     44    503    506 151.2   5.1  33924  285.57 0862.75
2015 04 09 13 08 01 .55     232   -434     51    493    496 151.9   6.0  33926  285.62 0862.75
2015 04 09 13 08 01 .80     233   -421     38    482    484 151.0   4.6  33924  285.60 0862.75
2015 04 09 13 08 02 .05     263   -394     66    474    479 146.3   8.0  33930  285.69 0862.75
2015 04 09 13 08 02 .30     293   -376     73    477    483 142.1   8.8  33926  285.62 0862.75
2015 04 09 13 08 02 .55     229   -381    161    445    473 149.0  20.8  33952  286.06 0862.75
2015 04 09 13 08 02 .80     312   -368    134    483    502 139.7  15.6  33978  286.50 0862.75
2015 04 09 13 08 03 .06     326   -240    149    406    432 126.4  21.0  34008  287.01 0862.75
2015 04 09 13 08 03 .32     316   -269    121    416    434 130.4  16.3  33978  286.49 0862.75
2015 04 09 13 08 03 .57     407   -246    143    476    498 121.2  16.8  34016  287.15 0862.74
2015 04 09 13 08 03 .81     289   -285    126    407    427 134.6  17.3  34032  287.40 0862.74
2015 04 09 13 08 04 .06     473   -265    192    543    575 119.3  20.2  34012  287.06 0862.74
2015 04 09 13 08 04 .32     510   -283    219    584    623 119.0  21.6  33934  285.74 0862.74
2015 04 09 13 08 04 .57     588   -239    255    635    684 112.2  23.1  33938  285.81 0862.74
2015 04 09 13 08 04 .82     444   -316   -146    546    566 125.5 -15.0  33932  285.73 0862.74
2015 04 09 13 08 05 .07     399   -158    -41    430    433 111.7  -5.5  33926  285.63 0862.74
2015 04 09 13 08 05 .32     381   -257     22    460    461 124.1   2.8  33928  285.66 0862.74
2015 04 09 13 08 05 .57     416   -232     59    477    481 119.2   7.1  33930  285.70 0862.74
2015 04 09 13 08 05 .82     425   -199    -26    470    471 115.1  -3.3  33950  286.02 0862.74
2015 04 09 13 08 06 .09     395   -224     92    455    465 119.5  11.5  33976  286.45 0862.74
2015 04 09 13 08 06 .32     378   -232     -4    444    445 121.6  -0.6  33932  285.73 0862.74
2015 04 09 13 08 06 .57     395   -218     -9    452    453 118.9  -1.3  33930  285.69 0862.74
2015 04 09 13 08 06 .82     385   -200     24    435    436 117.5   3.3  33930  285.68 0862.74
2015 04 09 13 08 07 .07     387   -197     -9    435    436 117.0  -1.3  33932  285.73 0862.74
2015 04 09 13 08 07 .33     291   -127      4    318    319 113.7   0.9  33932  285.71 0862.73
2015 04 09 13 08 07 .58     373   -135     70    397    404 110.0  10.1  34004  286.93 0862.73
2015 04 09 13 08 07 .82     329   -181    136    376    400 118.8  19.9  33978  286.51 0862.73
2015 04 09 13 08 08 .08     228   -225     80    321    331 134.7  14.2  33952  286.06 0862.73
2015 04 09 13 08 08 .33     279   -176    101    330    346 122.2  17.0  33964  286.27 0862.73
2015 04 09 13 08 08 .58     259   -100    116    278    301 111.3  24.1  34020  287.21 0862.73
2015 04 09 13 08 08 .83     240   -129    134    273    304 118.4  27.8  33992  286.74 0862.73
2015 04 09 13 08 09 .08     238    -92    152    256    297 111.3  33.5  33998  286.84 0862.73
2015 04 09 13 08 09 .32     270   -107    132    291    319 111.7  26.0  33978  286.48 0862.73
2015 04 09 13 08 09 .58     263   -123    105    291    309 115.2  20.7  34054  287.78 0862.73
2015 04 09 13 08 09 .84     181   -175     54    253    259 134.0  12.2  34020  287.19 0862.73
2015 04 09 13 08 10 .09     183   -109    116    214    243 120.9  31.0  34072  288.07 0862.74
2015 04 09 13 08 10 .34     158    -91    114    183    215 120.0  35.2  34068  288.03 0862.74
2015 04 09 13 08 10 .59     168   -141     89    220    237 130.0  23.1  34058  287.84 0862.74
2015 04 09 13 08 10 .84     178   -183     57    256    263 135.7  12.6  34034  287.43 0862.74
2015 04 09 13 08 11 .09     167   -149     72    225    237 131.8  17.9  34002  286.91 0862.74
2015 04 09 13 08 11 .34     209   -228     98    310    326 137.5  17.5  33974  286.42 0862.74
2015 04 09 13 08 11 .59     168   -203    101    264    282 140.4  22.0  33978  286.48 0862.74
2015 04 09 13 08 11 .85     189   -183     65    264    272 134.0  13.9  33992  286.72 0862.74
2015 04 09 13 08 12 .10     361   -219     49    423    426 121.3   6.7  33994  286.77 0862.74
2015 04 09 13 08 12 .34     368   -189     61    414    419 117.2   8.5  33968  286.32 0862.74
2015 04 09 13 08 12 .60     340   -181     64    386    392 118.0   9.4  33970  286.36 0862.74
2015 04 09 13 08 12 .85     291   -163     52    334    339 119.3   8.9  33974  286.44 0862.74
2015 04 09 13 08 13 .10     285   -268    137    392    416 133.2  19.3  34108  288.68 0862.74
2015 04 09 13 08 13 .35     286   -264    131    390    412 132.7  18.6  34054  287.79 0862.74
2015 04 09 13 08 13 .60     392   -332    110    514    526 130.3  12.1  33926  285.61 0862.74
2015 04 09 13 08 13 .85     412   -310     77    516    522 127.0   8.5  33924  285.58 0862.74
2015 04 09 13 08 14 .10     421   -289     52    512    515 124.5   5.9  33924  285.60 0862.74
2015 04 09 13 08 14 .35     412   -288     56    503    507 125.0   6.4  33926  285.62 0862.74
2015 04 09 13 08 14 .60     379   -311     64    491    496 129.4   7.4  33922  285.55 0862.75
2015 04 09 13 08 14 .85     396   -312     39    505    507 128.2   4.5  33924  285.57 0862.75
2015 04 09 13 08 15 .10     384   -308     37    493    495 128.8   4.3  33926  285.62 0862.75
2015 04 09 13 08 15 .35     382   -277     19    472    473 126.0   2.3  33924  285.59 0862.75
2015 04 09 13 08 15 .60     356   -245     -1    433    434 124.6  -0.3  33928  285.66 0862.75
2015 04 09 13 08 15 .85     356   -245     -9    433    434 124.6  -1.3  33924  285.58 0862.75
2015 04 09 13 08 16 .10     339   -241      8    417    418 125.4   1.2  33924  285.59 0862.75
2015 04 09 13 08 16 .35     342   -252      1    425    426 126.4   0.2  33926  285.61 0862.75
2015 04 09 13 08 16 .61     340   -277     18    439    440 129.2   2.4  33926  285.61 0862.75
2015 04 09 13 08 16 .86     323   -300     18    441    442 132.9   2.4  33932  285.71 0862.75
2015 04 09 13 08 17 .12     316   -305     -4    440    441 134.0  -0.6  33926  285.61 0862.75
2015 04 09 13 08 17 .37     307   -296     -5    427    428 134.0  -0.7  33926  285.63 0862.75
2015 04 09 13 08 17 .62     315   -312     33    444    446 134.8   4.3  33948  285.98 0862.75
2015 04 09 13 08 17 .87     246   -299     93    388    400 140.6  13.6  33952  286.07 0862.75
2015 04 09 13 08 18 .12     303   -249    125    393    413 129.5  17.7  34004  286.92 0862.75
2015 04 09 13 08 18 .37     375   -199     75    425    432 118.0  10.1  33954  286.08 0862.75
2015 04 09 13 08 18 .62     359   -171     37    398    400 115.5   5.3  33948  285.99 0862.75
2015 04 09 13 08 18 .87     331   -174     72    375    382 117.8  11.0  33958  286.17 0862.75
2015 04 09 13 08 19 .12     363   -166     68    400    406 114.6   9.7  33968  286.32 0862.75
2015 04 09 13 08 19 .37     363   -150     69    393    400 112.5  10.0  33962  286.21 0862.75
2015 04 09 13 08 19 .63     348   -172     76    389    397 116.4  11.1  33952  286.07 0862.75
2015 04 09 13 08 19 .88     371   -150     62    401    406 112.0   8.9  33948  286.00 0862.75
2015 04 09 13 08 20 .12     349   -179     56    393    398 117.1   8.1  33994  286.75 0862.75
2015 04 09 13 08 20 .38     372   -173     58    411    416 115.0   8.1  33960  286.20 0862.75
2015 04 09 13 08 20 .63     414   -196     58    459    463 115.4   7.2  33958  286.17 0862.75
2015 04 09 13 08 20 .88     345   -209    -33    404    406 121.3  -4.8  33938  285.81 0862.74
2015 04 09 13 08 21 .13     345   -200     53    399    403 120.1   7.6  33954  286.09 0862.74
2015 04 09 13 08 21 .38     362   -205     29    417    419 119.5   4.0  33948  285.98 0862.74
2015 04 09 13 08 21 .63     276   -168     32    324    326 121.3   5.8  33962  286.21 0862.74
2015 04 09 13 08 21 .88     242   -169     22    296    297 125.0   4.4  33946  285.96 0862.74
2015 04 09 13 08 22 .13     234   -199     38    308    311 130.4   7.1  33936  285.79 0862.74
2015 04 09 13 08 22 .38     300   -215     21    370    371 125.6   3.3  33936  285.77 0862.74
2015 04 09 13 08 22 .63     332   -165     70    371    378 116.5  10.7  33948  285.99 0862.74
2015 04 09 13 08 22 .88     301   -128     95    328    342 113.1  16.1  33984  286.58 0862.75
2015 04 09 13 08 23 .13     248   -139     67    285    293 119.3  13.2  33950  286.01 0862.75
2015 04 09 13 08 23 .38     246    -97    104    265    284 111.7  22.5  33934  285.76 0862.75
2015 04 09 13 08 23 .63     270    -28     90    272    287  96.1  18.4  33960  286.18 0862.75
2015 04 09 13 08 23 .89     277    -63    107    285    304 102.8  21.5  33974  286.42 0862.75
2015 04 09 13 08 24 .15     268    -74     69    279    288 105.5  13.9  33976  286.47 0862.75
2015 04 09 13 08 24 .39     273    -29     54    275    281  96.2  11.1  33954  286.09 0862.75
2015 04 09 13 08 24 .64     312    -98     33    328    330 107.5   5.9  33954  286.10 0862.74
2015 04 09 13 08 24 .90     330    -92     22    343    344 105.6   3.7  33980  286.53 0862.74
2015 04 09 13 08 25 .15     311    -72     34    320    322 103.0   6.1  33978  286.50 0862.74
2015 04 09 13 08 25 .40     277   -152     32    317    319 118.8   5.9  34012  287.06 0862.74
2015 04 09 13 08 25 .65     246   -134     44    281    285 118.6   8.9  33996  286.80 0862.74
2015 04 09 13 08 25 .90     236   -117     52    264    270 116.4  11.1  34008  287.01 0862.74
2015 04 09 13 08 26 .15     263    -53     62    269    277 101.5  13.1  34142  289.27 0862.74
2015 04 09 13 08 26 .40     298    -90     12    312    313 106.9   2.2  33934  285.74 0862.75
2015 04 09 13 08 26 .64     335   -143     57    365    370 113.1   8.9  34022  287.23 0862.75
2015 04 09 13 08 26 .90     310   -121     39    333    336 111.4   6.8  33932  285.72 0862.75
2015 04 09 13 08 27 .15     309   -141     52    340    344 114.6   8.8  33946  285.95 0862.75
2015 04 09 13 08 27 .40     310   -158     52    349    353 117.1   8.5  33934  285.75 0862.75
2015 04 09 13 08 27 .65     311   -167     44    354    357 118.2   7.1  33938  285.82 0862.75
2015 04 09 13 08 27 .90     304   -138     29    334    336 114.4   5.1  33952  286.04 0862.75
2015 04 09 13 08 28 .15     328   -138     37    356    358 112.8   6.0  33948  285.99 0862.75
2015 04 09 13 08 28 .40     354   -159     19    389    390 114.2   2.9  33934  285.75 0862.75
2015 04 09 13 08 28 .65     336   -138     26    364    365 112.3   4.2  33934  285.75 0862.75
2015 04 09 13 08 28 .90     334   -124     29    357    359 110.5   4.7  33940  285.84 0862.75
2015 04 09 13 08 29 .15     337   -144     22    367    368 113.2   3.5  33936  285.77 0862.75
2015 04 09 13 08 29 .40     329   -161     51    367    371 116.1   7.9  33940  285.85 0862.75
2015 04 09 13 08 29 .66     349   -152     25    381    382 113.5   3.8  33962  286.21 0862.75
2015 04 09 13 08 29 .91     359   -128      3    382    383 109.7   0.5  33972  286.41 0862.75
2015 04 09 13 08 30 .16     375    -82     12    385    386 102.4   1.8  33958  286.17 0862.75
2015 04 09 13 08 30 .40     326    -91     17    339    340 105.7   2.9  33936  285.80 0862.75
2015 04 09 13 08 30 .67     310   -103     29    327    329 108.4   5.2  33934  285.76 0862.75
2015 04 09 13 08 30 .92     298    -91     24    312    314 107.1   4.5  33934  285.76 0862.75
2015 04 09 13 08 31 .17     296   -107     43    315    318 110.0   7.9  33932  285.72 0862.75
2015 04 09 13 08 31 .42     293   -155     72    332    340 117.9  12.4  33946  285.95 0862.75
2015 04 09 13 08 31 .67     355   -182     58    400    405 117.2   8.3  33980  286.52 0862.75
2015 04 09 13 08 31 .92     353   -216     39    415    417 121.5   5.4  33950  286.03 0862.75
2015 04 09 13 08 32 .17     355   -190     56    403    407 118.2   7.9  33966  286.30 0862.75
2015 04 09 13 08 32 .42     374   -206     53    428    432 118.9   7.1  33942  285.90 0862.75
2015 04 09 13 08 32 .67     366   -210     36    423    425 119.9   4.9  33940  285.85 0862.75
2015 04 09 13 08 32 .92     349   -215     33    411    413 121.7   4.7  33956  286.13 0862.75
2015 04 09 13 08 33 .17     350   -220     29    414    415 122.2   4.0  33954  286.08 0862.75
2015 04 09 13 08 33 .43     395   -234     47    460    463 120.6   5.9  33998  286.82 0862.75
2015 04 09 13 08 33 .67     372   -258     35    453    455 124.8   4.5  33962  286.22 0862.76
2015 04 09 13 08 33 .92     373   -252     29    451    452 124.1   3.7  33950  286.01 0862.76
2015 04 09 13 08 34 .17     362   -275      3    455    456 127.2   0.5  33926  285.63 0862.76
2015 04 09 13 08 34 .43     343   -258     31    430    432 127.0   4.2  33934  285.74 0862.76
2015 04 09 13 08 34 .67     344   -246     23    424    425 125.6   3.1  33934  285.74 0862.76
2015 04 09 13 08 34 .93     332   -258      5    421    422 127.9   0.7  33926  285.63 0862.76
2015 04 09 13 08 35 .18     305   -200    -20    366    367 123.3  -3.1  33946  285.94 0862.76
2015 04 09 13 08 35 .43     305   -215     -9    374    375 125.2  -1.4  33942  285.90 0862.76
2015 04 09 13 08 35 .68     290   -203      9    354    355 125.0   1.6  33946  285.95 0862.76
2015 04 09 13 08 35 .93     293   -186     37    348    351 122.4   6.1  33994  286.75 0862.76
2015 04 09 13 08 36 .18     291   -163     38    334    337 119.3   6.5  33980  286.54 0862.76
2015 04 09 13 08 36 .43     319   -182     60    368    374 119.8   9.3  34034  287.45 0862.76
2015 04 09 13 08 36 .68     294   -217     70    366    373 126.5  10.8  34074  288.13 0862.76
2015 04 09 13 08 36 .94     321   -196      8    377    378 121.4   1.2  34010  287.03 0862.76
2015 04 09 13 08 37 .18     364   -229     36    431    433 122.2   4.9  33968  286.32 0862.76
2015 04 09 13 08 37 .43     310   -250     -4    399    400 128.9  -0.7  33936  285.80 0862.76
2015 04 09 13 08 37 .70     300   -214     16    369    370 125.6   2.5  33940  285.85 0862.76
2015 04 09 13 08 37 .95     312   -203      4    373    374 123.0   0.7  33962  286.22 0862.76
2015 04 09 13 08 38 .19     343   -182     23    389    390 118.0   3.5  33966  286.29 0862.76
2015 04 09 13 08 38 .45     367   -163     47    402    405 114.0   6.8  33992  286.74 0862.76
2015 04 09 13 08 38 .69     346   -134     60    372    377 111.2   9.2  34002  286.91 0862.76
2015 04 09 13 08 38 .95     304   -124    114    329    349 112.2  19.2  34028  287.34 0862.76
2015 04 09 13 08 39 .20     226   -169    111    283    303 126.9  22.8  34080  288.22 0862.76
2015 04 09 13 08 39 .45     239   -175    104    297    315 126.2  19.4  34108  288.68 0862.76
2015 04 09 13 08 39 .70     269   -224     50    351    355 129.8   8.1  33966  286.29 0862.76
2015 04 09 13 08 39 .95     251   -190     68    315    323 127.1  12.3  33982  286.55 0862.76
2015 04 09 13 08 40 .20     257   -199     71    325    333 127.8  12.4  34004  286.93 0862.76
2015 04 09 13 08 40 .45     282   -160     84    325    336 119.5  14.6  34018  287.17 0862.76
2015 04 09 13 08 40 .71     271   -223    109    352    369 129.5  17.2  34068  288.03 0862.76
2015 04 09 13 08 40 .95     284   -284     94    402    413 135.0  13.3  34002  286.91 0862.76
2015 04 09 13 08 41 .20     311   -310     63    440    445 134.9   8.2  33954  286.08 0862.76
2015 04 09 13 08 41 .46     295   -311     67    429    435 136.5   8.9  33980  286.54 0862.76
2015 04 09 13 08 41 .70     253   -298     84    392    402 139.7  12.2  34044  287.62 0862.76
2015 04 09 13 08 41 .95     259   -283     57    384    389 137.6   8.5  33924  285.58 0862.75
2015 04 09 13 08 42 .20     217   -302     20    373    374 144.3   3.1  33928  285.65 0862.75
2015 04 09 13 08 42 .45     230   -292     -4    372    373 141.7  -0.7  33926  285.62 0862.75
2015 04 09 13 08 42 .70     252   -299    -21    392    393 139.9  -3.2  33926  285.62 0862.75
2015 04 09 13 08 42 .95     246   -297    -27    386    387 140.4  -4.0  33926  285.62 0862.75
2015 04 09 13 08 43 .21     270   -286    -19    394    395 136.7  -2.8  33934  285.75 0862.75
2015 04 09 13 08 43 .46     258   -267     24    372    373 135.9   3.8  33934  285.75 0862.75
2015 04 09 13 08 43 .71     269   -268     69    380    387 134.9  10.3  33962  286.22 0862.75
2015 04 09 13 08 43 .95     302   -301     62    427    432 134.9   8.3  33942  285.90 0862.75
2015 04 09 13 08 44 .21     273   -317     48    419    422 139.2   6.6  33924  285.58 0862.75
2015 04 09 13 08 44 .47     253   -287     40    383    386 138.6   6.1  33934  285.75 0862.75
2015 04 09 13 08 44 .73     270   -248     37    367    369 132.6   5.9  33954  286.09 0862.75
2015 04 09 13 08 44 .97     255   -259     52    364    368 135.5   8.2  33968  286.32 0862.75
2015 04 09 13 08 45 .22     249   -274     20    371    372 137.8   3.1  33926  285.62 0862.75
2015 04 09 13 08 45 .47     255   -268     15    371    372 136.5   2.4  33928  285.65 0862.75
2015 04 09 13 08 45 .72     253   -277      5    376    377 137.6   0.9  33926  285.62 0862.75
2015 04 09 13 08 45 .97     264   -280      4    386    387 136.7   0.7  33924  285.60 0862.75
2015 04 09 13 08 46 .22     272   -281     24    392    393 135.9   3.6  33924  285.60 0862.75
2015 04 09 13 08 46 .47     265   -277     18    384    385 136.3   2.8  33926  285.63 0862.75
2015 04 09 13 08 46 .72     250   -263    -10    364    365 136.5  -1.6  33926  285.63 0862.75
2015 04 09 13 08 46 .97     229   -260      5    347    348 138.6   0.9  33926  285.63 0862.75
2015 04 09 13 08 47 .22     212   -253    -10    331    332 140.0  -1.9  33930  285.67 0862.76
2015 04 09 13 08 47 .47     237   -271      4    361    362 138.9   0.7  33926  285.63 0862.76
2015 04 09 13 08 47 .73     242   -261     31    357    359 137.2   5.1  33928  285.65 0862.76
2015 04 09 13 08 47 .97     238   -290     28    376    377 140.6   4.3  33930  285.67 0862.76
2015 04 09 13 08 48 .23     220   -299     39    372    375 143.6   6.0  33952  286.04 0862.76
2015 04 09 13 08 48 .47     197   -284     60    346    352 145.2   9.9  33956  286.12 0862.76
2015 04 09 13 08 48 .73     195   -268     35    332    334 143.9   6.1  33930  285.70 0862.76
2015 04 09 13 08 48 .98     201   -258      8    328    329 142.1   1.5  33926  285.62 0862.76
2015 04 09 13 08 49 .23     189   -259    -14    321    322 143.9  -2.6  33926  285.62 0862.76
2015 04 09 13 08 49 .48     194   -254      0    320    321 142.6   0.0  33928  285.66 0862.76
2015 04 09 13 08 49 .73     196   -258     -6    325    326 142.8  -1.1  33928  285.66 0862.76
2015 04 09 13 08 49 .99     226   -212     24    311    313 133.2   4.6  33944  285.93 0862.76
2015 04 09 13 08 50 .24     223   -238      6    327    328 136.8   1.1  33934  285.74 0862.76
2015 04 09 13 08 50 .48     209   -207     15    295    296 134.8   2.9  33934  285.76 0862.76
2015 04 09 13 08 50 .73     230   -214     15    315    316 132.9   2.8  33932  285.71 0862.76
2015 04 09 13 08 50 .98     229   -215     28    315    317 133.2   5.1  33934  285.74 0862.76
2015 04 09 13 08 51 .24     207   -270     54    341    346 142.6   9.0  33986  286.63 0862.76
2015 04 09 13 08 51 .48     217   -273     71    349    357 141.5  11.5  33954  286.10 0862.76
2015 04 09 13 08 51 .74     204   -257     53    329    334 141.5   9.2  33936  285.77 0862.76
2015 04 09 13 08 51 .99     187   -276     34    334    336 145.9   5.9  33930  285.67 0862.76
2015 04 09 13 08 52 .24     159   -277     35    320    323 150.1   6.4  33928  285.66 0862.76
2015 04 09 13 08 52 .50     165   -271     27    318    320 148.6   4.9  33930  285.67 0862.76
2015 04 09 13 08 52 .75     176   -304     20    352    353 150.0   3.3  33930  285.70 0862.76
2015 04 09 13 08 53 .00     182   -299     28    351    353 148.6   4.7  33930  285.67 0862.76
2015 04 09 13 08 53 .25     168   -292     30    338    340 150.1   5.1  33930  285.67 0862.76
2015 04 09 13 08 53 .50     171   -288     17    336    337 149.3   2.9  33926  285.63 0862.76
2015 04 09 13 08 53 .75     160   -289     30    331    333 151.0   5.2  33932  285.72 0862.77
2015 04 09 13 08 54 .00     138   -264     35    298    301 152.4   6.9  33932  285.71 0862.77
2015 04 09 13 08 54 .25     162   -263     23    310    311 148.4   4.4  33930  285.69 0862.77
2015 04 09 13 08 54 .50     155   -262     15    305    306 149.3   2.9  33926  285.62 0862.77
2015 04 09 13 08 54 .75     169   -275     15    323    324 148.4   2.8  33928  285.66 0862.77
2015 04 09 13 08 55 .00     153   -247     27    291    293 148.3   5.4  33930  285.67 0862.77
2015 04 09 13 08 55 .25     142   -230     24    271    273 148.3   5.2  33928  285.66 0862.77
2015 04 09 13 08 55 .50     138   -240     29    277    279 150.1   6.0  33930  285.67 0862.77
2015 04 09 13 08 55 .75     133   -259     40    292    295 152.8   7.8  33942  285.89 0862.77
2015 04 09 13 08 56 .00     145   -253     35    292    295 150.1   6.9  33928  285.66 0862.77
2015 04 09 13 08 56 .26     142   -272     -8    308    309 152.4  -1.6  33932  285.71 0862.77
2015 04 09 13 08 56 .51     111   -282     -6    304    305 158.4  -1.3  33978  286.48 0862.78
2015 04 09 13 08 56 .75      70   -255     27    265    267 164.6   6.0  33976  286.45 0862.78
2015 04 09 13 08 57 .01     103   -256    -10    277    278 158.1  -2.2  33930  285.67 0862.78
2015 04 09 13 08 57 .26     106   -242    -41    265    269 156.3  -8.8  33932  285.71 0862.78
2015 04 09 13 08 57 .51     111   -241    -24    266    268 155.3  -5.2  33940  285.84 0862.78
2015 04 09 13 08 57 .76     106   -255     -1    277    278 157.3  -0.3  33930  285.69 0862.78
2015 04 09 13 08 58 .01     129   -272      5    302    303 154.6   1.0  33928  285.66 0862.78
2015 04 09 13 08 58 .26     141   -275     15    310    311 152.8   2.8  33930  285.69 0862.77
2015 04 09 13 08 58 .52     159   -268     35    312    315 149.2   6.5  33938  285.81 0862.77
2015 04 09 13 08 58 .77     123   -259     44    287    291 154.5   8.9  33946  285.94 0862.77
2015 04 09 13 08 59 .02     187   -240     59    305    311 142.2  11.0  33958  286.15 0862.77
2015 04 09 13 08 59 .27     148   -240    107    283    302 148.3  21.7  33986  286.63 0862.77
2015 04 09 13 08 59 .52     195   -257     43    323    326 142.8   7.6  33940  285.84 0862.77
2015 04 09 13 08 59 .77     177   -260     33    315    317 145.7   6.1  33932  285.72 0862.77
2015 04 09 13 09 00 .02     184   -250     19    311    312 143.7   3.6  33934  285.76 0862.77
2015 04 09 13 09 00 .27     181   -305    -42    355    358 149.3  -6.8  33936  285.80 0862.77
2015 04 09 13 09 00 .52     168   -289    -35    335    337 149.9  -6.1  33936  285.77 0862.77
2015 04 09 13 09 00 .78     168   -263    -24    313    315 147.5  -4.5  33936  285.79 0862.77
2015 04 09 13 09 01 .02     163   -257    -31    305    307 147.5  -6.0  33958  286.16 0862.77
2015 04 09 13 09 01 .28     145   -292    -42    327    330 153.5  -7.3  33958  286.16 0862.77
2015 04 09 13 09 01 .53     111   -276    -26    298    300 158.1  -5.1  33952  286.04 0862.77
2015 04 09 13 09 01 .78     111   -256    -25    280    282 156.6  -5.2  33954  286.09 0862.77
2015 04 09 13 09 02 .03     104   -246     15    268    269 157.1   3.3  33954  286.08 0862.77
2015 04 09 13 09 02 .28     100   -275     14    293    294 159.9   2.8  33952  286.06 0862.77
2015 04 09 13 09 02 .53     124   -249     -6    279    280 153.5  -1.3  33952  286.04 0862.77
2015 04 09 13 09 02 .78     106   -262     14    283    284 157.9   2.9  33952  286.04 0862.77
2015 04 09 13 09 03 .03      86   -284      3    297    298 163.1   0.7  33948  285.99 0862.77
2015 04 09 13 09 03 .28     108   -264     29    286    288 157.7   5.9  33960  286.20 0862.77
2015 04 09 13 09 03 .53      90   -267     25    282    284 161.3   5.2  33978  286.50 0862.77
2015 04 09 13 09 03 .78     132   -265     30    297    299 153.5   5.9  33946  285.96 0862.77
2015 04 09 13 09 04 .03     159   -277      0    320    321 150.1   0.0  33948  285.98 0862.77
2015 04 09 13 09 04 .28     130   -284     17    313    314 155.3   3.1  33954  286.08 0862.77
2015 04 09 13 09 04 .53     130   -276     19    306    307 154.7   3.6  33956  286.13 0862.77
2015 04 09 13 09 04 .78     161   -252     44    300    304 147.5   8.5  33968  286.31 0862.77
2015 04 09 13 09 05 .04     180   -232     36    294    297 142.1   7.1  33972  286.40 0862.77
2015 04 09 13 09 05 .29     179   -226     43    289    293 141.7   8.5  33994  286.77 0862.77
2015 04 09 13 09 05 .55     133   -235     28    271    273 150.4   6.1  33976  286.47 0862.77
2015 04 09 13 09 05 .80     169   -204     13    266    267 140.3   2.8  33990  286.70 0862.77
2015 04 09 13 09 06 .05     149   -233     48    277    282 147.4   9.9  33984  286.60 0862.77
2015 04 09 13 09 06 .29     164   -201     52    260    266 140.8  11.4  33970  286.35 0862.77
2015 04 09 13 09 06 .55     157   -206     51    260    266 142.6  11.1  33970  286.36 0862.77
2015 04 09 13 09 06 .80     189   -207      3    281    282 137.5   0.7  33976  286.47 0862.77
2015 04 09 13 09 07 .05     183   -220     11    287    288 140.3   2.3  33972  286.40 0862.77
2015 04 09 13 09 07 .30     165   -219     -1    275    276 143.0  -0.3  33964  286.26 0862.77
2015 04 09 13 09 07 .55     160   -222     -3    275    276 144.2  -0.7  33954  286.08 0862.77
2015 04 09 13 09 07 .80     118   -226     30    256    258 152.4   6.9  33968  286.33 0862.77
2015 04 09 13 09 08 .05     158   -240     43    288    292 146.6   8.5  33972  286.40 0862.77
2015 04 09 13 09 08 .30     169   -235     14    290    291 144.2   2.8  33950  286.03 0862.77
2015 04 09 13 09 08 .56     153   -225     23    273    275 145.7   5.0  33976  286.47 0862.77
2015 04 09 13 09 08 .80     119   -188     40    223    227 147.5  10.3  33978  286.49 0862.77
2015 04 09 13 09 09 .05     100   -194     71    219    231 152.6  17.9  33992  286.73 0862.77
2015 04 09 13 09 09 .30     124   -194     62    231    240 147.5  15.2  33968  286.33 0862.77
2015 04 09 13 09 09 .56     186   -175     68    256    265 133.1  15.0  33990  286.68 0862.77
2015 04 09 13 09 09 .81     182   -182     70    258    268 135.0  15.3  33990  286.70 0862.77
2015 04 09 13 09 10 .06     187   -179     94    260    277 133.8  19.9  34008  286.99 0862.77
2015 04 09 13 09 10 .30     257    -72     44    267    271 105.7   9.5  34034  287.43 0862.77
2015 04 09 13 09 10 .56     228    -52     20    234    235 103.0   5.0  33968  286.31 0862.77
2015 04 09 13 09 10 .81     200    -31      9    203    204  99.0   2.8  33936  285.80 0862.77
2015 04 09 13 09 11 .06     205    -25     10    207    208  97.2   2.9  34026  287.30 0862.77
2015 04 09 13 09 11 .31     212    -15     10    213    214  94.3   2.9  33972  286.41 0862.77
2015 04 09 13 09 11 .56     199    -13     22    200    202  93.9   6.5  34020  287.20 0862.77
2015 04 09 13 09 11 .82     213     16     74    214    227  85.7  19.2  34144  289.30 0862.77
2015 04 09 13 09 12 .06     152    -20    106    154    186  97.5  37.8  34192  290.11 0862.77
2015 04 09 13 09 12 .31     182    -28     23    185    187  98.8   7.2  33994  286.76 0862.77
2015 04 09 13 09 12 .57     233    -32     20    236    237  97.9   5.0  33964  286.26 0862.77
2015 04 09 13 09 12 .82     238      6     25    239    241  88.5   6.1  33970  286.36 0862.78
2015 04 09 13 09 13 .07     266      0     10    267    268  90.0   2.3  33956  286.11 0862.78
2015 04 09 13 09 13 .33     223    -31     19    226    227  98.0   4.9  33986  286.64 0862.78
2015 04 09 13 09 13 .58     164    -54     21    173    175 108.4   7.2  33992  286.73 0862.78
2015 04 09 13 09 13 .82     186    -49      7    193    194 105.0   2.3  34018  287.18 0862.78
2015 04 09 13 09 14 .08     167    -12     10    168    169  94.4   3.6  34008  287.01 0862.78
2015 04 09 13 09 14 .32     209    -18     10    210    211  95.2   2.8  33996  286.81 0862.78
2015 04 09 13 09 14 .58     172    -74     29    188    191 113.3   9.0  34084  288.30 0862.78
2015 04 09 13 09 14 .82     174    -91     37    197    201 117.8  10.8  34076  288.16 0862.78
2015 04 09 13 09 15 .08     238    -67     -9    248    249 105.9  -2.1  33982  286.55 0862.78
2015 04 09 13 09 15 .33     212    -56     17    220    221 105.0   4.6  33978  286.49 0862.78
2015 04 09 13 09 15 .58     215    -69     -8    226    227 107.9  -2.2  33970  286.35 0862.78
2015 04 09 13 09 15 .83     251    -81     -3    264    265 107.9  -0.7  34022  287.24 0862.78
2015 04 09 13 09 16 .08     263    -31     41    265    269  96.8   8.9  34014  287.11 0862.78
2015 04 09 13 09 16 .34     224     -3     -4    225    226  90.8  -1.3  34012  287.06 0862.78
2015 04 09 13 09 16 .58     205    -41     -8    210    211 101.5  -2.2  34026  287.30 0862.78
2015 04 09 13 09 16 .84     204    -76    -14    219    220 110.6  -3.7  34010  287.03 0862.78
2015 04 09 13 09 17 .08     192    -46     22    198    200 103.7   6.5  33994  286.78 0862.78
2015 04 09 13 09 17 .34     209    -72     19    222    223 109.1   5.0  34036  287.47 0862.79
2015 04 09 13 09 17 .58     262    -63     42    270    274 103.5   8.9  34044  287.61 0862.79
2015 04 09 13 09 17 .83     247    -25     18    249    250  95.9   4.2  34050  287.70 0862.79
2015 04 09 13 09 18 .08     294    -12     21    295    296  92.5   4.2  34050  287.71 0862.79
2015 04 09 13 09 18 .34     293     -4     29    294    296  90.8   5.7  34060  287.87 0862.79
2015 04 09 13 09 18 .59     281    -26     34    283    286  95.3   6.9  34040  287.53 0862.79
2015 04 09 13 09 18 .84     238    -55     33    245    248 103.2   7.8  34044  287.61 0862.79
2015 04 09 13 09 19 .09     280    -85     14    293    294 106.9   2.8  34052  287.75 0862.79
2015 04 09 13 09 19 .34     306   -117      4    328    329 111.1   0.7  33970  286.36 0862.79
2015 04 09 13 09 19 .60     289   -114     -7    311    312 111.5  -1.4  33964  286.26 0862.79
2015 04 09 13 09 19 .84     290    -88    -11    304    305 106.9  -2.2  33968  286.31 0862.79
2015 04 09 13 09 20 .11     290    -99    -27    307    309 109.0  -5.2  34002  286.90 0862.79
2015 04 09 13 09 20 .35     227   -139     44    267    271 121.5   9.5  34158  289.54 0862.79
2015 04 09 13 09 20 .60     243    -77    -14    256    257 107.7  -3.3  34010  287.02 0862.79
2015 04 09 13 09 20 .85     263    -52     13    269    270 101.2   2.9  34002  286.89 0862.79
2015 04 09 13 09 21 .10     245    -89     16    261    262 110.0   3.6  34000  286.87 0862.79
2015 04 09 13 09 21 .36     276    -84     14    289    290 106.9   2.9  34022  287.24 0862.79
2015 04 09 13 09 21 .60     320    -85     73    332    341 104.9  12.5  34064  287.94 0862.79
2015 04 09 13 09 21 .86     309     18     56    310    316  86.6  10.3  34102  288.58 0862.78
2015 04 09 13 09 22 .10     318     11     58    319    325  87.9  10.4  34056  287.82 0862.78
2015 04 09 13 09 22 .36     332     49     77    336    345  81.5  12.9  33936  285.80 0862.78
2015 04 09 13 09 22 .61     301     42     73    305    314  82.0  13.6  34034  287.43 0862.78
2015 04 09 13 09 22 .86     228    -44     87    233    248 101.0  21.3  34048  287.66 0862.78
2015 04 09 13 09 23 .11     251   -121     44    279    283 115.8   9.0  33970  286.36 0862.78
2015 04 09 13 09 23 .35     260    -94     59    277    284 110.0  12.1  33970  286.36 0862.78
2015 04 09 13 09 23 .62     262    -61     63    270    278 103.3  13.1  34010  287.02 0862.78
2015 04 09 13 09 23 .85     237    -18     78    238    251  94.6  18.1  34104  288.63 0862.78
2015 04 09 13 09 24 .11     219     32     53    222    229  81.6  13.5  34050  287.70 0862.78
2015 04 09 13 09 24 .37     253     18     44    254    258  85.9  10.0  34072  288.09 0862.78
2015 04 09 13 09 24 .61     233     17    101    234    254  85.6  24.9  34152  289.42 0862.78
2015 04 09 13 09 24 .86     240     20    108    241    264  85.0  26.2  34178  289.88 0862.78
2015 04 09 13 09 25 .11     251      9     89    252    268  87.9  19.6  34080  288.21 0862.78
2015 04 09 13 09 25 .36     239     59     89    247    262  76.1  20.7  34020  287.21 0862.78
2015 04 09 13 09 25 .62     228     86     92    244    260  69.2  21.7  34030  287.36 0862.78
2015 04 09 13 09 25 .86     223    128     95    258    274  60.2  21.0  34108  288.68 0862.78
2015 04 09 13 09 26 .12     174    118    106    211    236  55.8  28.5  34104  288.62 0862.78
2015 04 09 13 09 26 .37     166    119    128    205    241  54.5  35.2  34132  289.11 0862.78
2015 04 09 13 09 26 .63     178    113     98    212    233  57.5  27.1  33982  286.57 0862.78
2015 04 09 13 09 26 .88     179     84    107    198    225  64.8  30.8  34136  289.16 0862.78
2015 04 09 13 09 27 .12     195     65     75    206    219  71.6  20.9  34122  288.94 0862.78
2015 04 09 13 09 27 .37     192     69     23    205    207  70.3   6.5  33978  286.51 0862.78
2015 04 09 13 09 27 .62     175    110     32    207    210  57.8   9.0  33954  286.08 0862.78
2015 04 09 13 09 27 .88     175    123     39    214    218  54.9  10.3  33972  286.41 0862.78
2015 04 09 13 09 28 .13     181    118     61    217    226  56.9  15.8  33986  286.64 0862.78
2015 04 09 13 09 28 .38     181    106     41    210    215  59.6  11.1  34012  287.06 0862.78
2015 04 09 13 09 28 .63     169     84     12    189    190  63.4   3.6  33994  286.78 0862.78
2015 04 09 13 09 28 .88     195     51      4    202    203  75.2   1.2  33994  286.76 0862.78
2015 04 09 13 09 29 .13     197     27     10    199    200  82.1   2.9  33996  286.79 0862.78
2015 04 09 13 09 29 .38     197     15     28    198    201  85.4   8.2  33984  286.59 0862.78
2015 04 09 13 09 29 .64     181      0     27    182    185  90.0   8.5  33998  286.83 0862.78
2015 04 09 13 09 29 .88     193     -3     30    194    197  90.9   9.0  34008  287.00 0862.78
2015 04 09 13 09 30 .13     195    -27     38    197    201  97.9  11.1  33994  286.76 0862.78
2015 04 09 13 09 30 .38     161    -22     39    163    168  97.9  13.5  33998  286.83 0862.78
2015 04 09 13 09 30 .64     137    -19     57    139    150  97.9  23.1  34064  287.94 0862.78
2015 04 09 13 09 30 .88     137    -19     49    139    148  98.0  19.4  33996  286.81 0862.78
2015 04 09 13 09 31 .14     150    -26     57    153    163 100.1  21.3  34016  287.15 0862.78
2015 04 09 13 09 31 .39     163    -31     63    167    178 101.0  21.7  34080  288.21 0862.78
2015 04 09 13 09 31 .64     189      0     65    190    201  90.0  18.9  34076  288.16 0862.78
2015 04 09 13 09 31 .89     149    -30     63    152    164 101.5  23.6  34136  289.18 0862.78
2015 04 09 13 09 32 .14     175    -12     80    176    193  94.1  26.4  34090  288.38 0862.78
2015 04 09 13 09 32 .39     155    -14     55    156    166  95.5  19.4  34104  288.62 0862.78
2015 04 09 13 09 32 .63      91     -6     98     92    134  93.9  51.6  34106  288.65 0862.78
2015 04 09 13 09 32 .88     116     14     92    117    148  83.0  42.2  34090  288.40 0862.78
2015 04 09 13 09 33 .14     142     26     90    145    170  79.4  35.0  34060  287.89 0862.78
2015 04 09 13 09 33 .40     126     22     81    128    151  79.9  35.5  33998  286.83 0862.78
2015 04 09 13 09 33 .66     109      9     78    110    134  84.8  38.6  34006  286.96 0862.78
2015 04 09 13 09 33 .90      99    -11     76    100    125  96.6  41.2  34090  288.38 0862.78
2015 04 09 13 09 34 .15     129      9     49    130    138  85.6  21.5  34102  288.58 0862.78
2015 04 09 13 09 34 .40     155      6     55    156    166  87.6  19.4  34132  289.09 0862.78
2015 04 09 13 09 34 .65     196    -12     38    197    201  93.5  11.0  33956  286.14 0862.78
2015 04 09 13 09 34 .90     203    -19     19    204    205  95.5   5.4  33950  286.02 0862.78
2015 04 09 13 09 35 .15     199    -17     22    200    202  95.0   6.5  33950  286.03 0862.78
2015 04 09 13 09 35 .40     209      0     34    210    213  90.0   9.3  33952  286.07 0862.78
2015 04 09 13 09 35 .66     207    -11     24    208    210  93.3   6.7  33956  286.12 0862.78
2015 04 09 13 09 35 .91     234      7     28    235    237  88.3   6.9  33978  286.50 0862.78
2015 04 09 13 09 36 .15     239     -3     37    240    243  90.8   8.8  33952  286.04 0862.78
2015 04 09 13 09 36 .40     231     10     33    232    235  87.4   8.2  33948  285.98 0862.78
2015 04 09 13 09 36 .66     224      0     27    225    227  90.0   6.9  33944  285.93 0862.78
2015 04 09 13 09 36 .91     227    -10     -1    228    229  92.6  -0.5  33946  285.97 0862.78
2015 04 09 13 09 37 .15     227    -17     11    228    229  94.4   2.9  33946  285.95 0862.78
2015 04 09 13 09 37 .41     220    -16     22    221    223  94.3   5.7  33948  285.98 0862.78
2015 04 09 13 09 37 .65     209    -16     26    210    212  94.4   7.2  33948  285.98 0862.78
2015 04 09 13 09 37 .91     212     -8     25    213    215  92.4   6.9  33942  285.90 0862.78
2015 04 09 13 09 38 .16     213    -18     13    214    215  95.0   3.6  33946  285.97 0862.78
2015 04 09 13 09 38 .41     206     -6     13    207    208  91.7   3.6  33942  285.90 0862.78
2015 04 09 13 09 38 .66     199      0     24    200    202  90.0   6.9  33942  285.90 0862.78
2015 04 09 13 09 38 .91     192      0     16    193    194  90.0   4.9  33942  285.90 0862.78
2015 04 09 13 09 39 .16     202     -7      9    203    204  92.1   2.8  33946  285.95 0862.78
2015 04 09 13 09 39 .41     210      0     10    211    212  90.0   2.9  33956  286.14 0862.78
2015 04 09 13 09 39 .67     203     13    -11    204    205  86.3  -3.1  33956  286.14 0862.78
2015 04 09 13 09 39 .91     209    -25     38    211    215  97.0  10.3  33976  286.46 0862.78
2015 04 09 13 09 40 .18     235     15    -37    236    239  86.3  -9.0  33982  286.55 0862.79
2015 04 09 13 09 40 .43     239     20    -21    240    241  85.0  -5.2  33986  286.63 0862.79
2015 04 09 13 09 40 .68     194     50    -24    201    203  75.4  -6.9  34002  286.91 0862.79
2015 04 09 13 09 40 .93     162     46    -17    169    170  74.1  -6.0  33992  286.74 0862.79
2015 04 09 13 09 41 .18     123     53      9    135    136  66.5   3.8  33998  286.83 0862.79
2015 04 09 13 09 41 .43     169      3     39    170    175  88.7  12.9  34044  287.62 0862.79
2015 04 09 13 09 41 .67     157     12     13    158    159  85.6   4.9  34042  287.57 0862.79
2015 04 09 13 09 41 .93     157     37     42    162    168  76.7  14.7  34056  287.82 0862.79
2015 04 09 13 09 42 .18     144     47     32    152    156  71.8  12.2  34078  288.20 0862.79
2015 04 09 13 09 42 .43     161    102      3    191    192  57.6   1.0  34066  287.99 0862.79
2015 04 09 13 09 42 .68     135    156    -13    207    208  41.0  -3.7  34020  287.21 0862.79
2015 04 09 13 09 42 .93     180    125    -21    220    222  55.1  -5.6  34070  288.06 0862.79
2015 04 09 13 09 43 .18     199     94     -8    221    222  64.8  -2.2  34084  288.30 0862.79
2015 04 09 13 09 43 .44     195     77     12    210    211  68.5   3.3  34110  288.72 0862.79
2015 04 09 13 09 43 .68     200     98     40    224    228  63.8  10.3  34080  288.23 0862.79
2015 04 09 13 09 43 .93     184     94     29    207    210  62.9   8.0  34080  288.21 0862.79
2015 04 09 13 09 44 .18     181     83     24    200    202  65.4   6.9  34030  287.38 0862.79
2015 04 09 13 09 44 .43     190     73      5    204    205  68.9   1.6  34002  286.91 0862.79
2015 04 09 13 09 44 .69     181     49      3    188    189  74.9   1.0  33970  286.35 0862.79
2015 04 09 13 09 44 .94     189     54     10    197    198  73.8   2.9  33990  286.69 0862.79
2015 04 09 13 09 45 .19     177     64     10    189    190  70.0   3.1  34000  286.86 0862.79
2015 04 09 13 09 45 .43     153     79    -23    173    175  62.5  -7.7  33994  286.78 0862.79
2015 04 09 13 09 45 .69     148     70      4    164    165  64.7   1.6  34022  287.25 0862.79
2015 04 09 13 09 45 .94     151     85     59    174    185  60.5  18.9  34056  287.81 0862.79
2015 04 09 13 09 46 .19     154     94     61    181    192  58.7  18.6  33994  286.78 0862.79
2015 04 09 13 09 46 .44     138     70     60    155    166  62.9  22.0  34016  287.13 0862.79
2015 04 09 13 09 46 .69     108     49     58    119    132  65.2  27.3  34054  287.77 0862.79
2015 04 09 13 09 46 .94      75     42     62     87    106  60.7  39.1  34084  288.30 0862.79
2015 04 09 13 09 47 .20     128     43     37    136    141  71.4  15.3  34008  287.01 0862.79
2015 04 09 13 09 47 .45      97     22     -3    100    101  77.2  -2.2  34014  287.10 0862.79
2015 04 09 13 09 47 .71     117     39      0    124    125  71.6  -0.3  34040  287.54 0862.79
2015 04 09 13 09 47 .95     134     53      7    145    146  68.2   2.8  34080  288.21 0862.79
2015 04 09 13 09 48 .20     115     45     31    124    128  68.3  14.3  34066  287.99 0862.79
2015 04 09 13 09 48 .46     129     49     40    139    145  69.2  16.3  34164  289.65 0862.79
2015 04 09 13 09 48 .71     121     38     64    127    142  72.3  28.7  34206  290.36 0862.79
2015 04 09 13 09 48 .95     122     21     71    124    142  79.9  32.4  34210  290.43 0862.79
2015 04 09 13 09 49 .20     116     30     79    120    143  75.4  36.0  34078  288.18 0862.79
2015 04 09 13 09 49 .48     109     26     78    113    137  76.3  38.0  33996  286.81 0862.79
2015 04 09 13 09 49 .71     146     29     65    149    162  78.5  24.9  34040  287.54 0862.79
2015 04 09 13 09 49 .95     127     35     69    132    148  74.5  29.3  34042  287.59 0862.79
2015 04 09 13 09 50 .20     114     16     11    116    117  81.6   5.4  33974  286.44 0862.80
2015 04 09 13 09 50 .46     100     31      8    105    106  72.7   4.9  33962  286.22 0862.80
2015 04 09 13 09 50 .71      86     32      4     92     93  69.6   2.9  33966  286.30 0862.80
2015 04 09 13 09 50 .96      71     33     23     79     83  64.8  16.3  33998  286.83 0862.80
2015 04 09 13 09 51 .22      79     22     21     83     86  74.5  14.3  33996  286.79 0862.80
2015 04 09 13 09 51 .45      79     12     20     81     84  80.8  14.3  33966  286.30 0862.80
2015 04 09 13 09 51 .72      78      6     42     79     89  85.6  30.3  33964  286.27 0862.80
2015 04 09 13 09 51 .96     104    -10     36    105    112  95.7  18.9  33956  286.12 0862.80
2015 04 09 13 09 52 .22     103     14     38    104    110  82.1  21.0  33974  286.44 0862.80
2015 04 09 13 09 52 .46      97     -7     46     98    108  94.4  27.1  34050  287.70 0862.80
2015 04 09 13 09 52 .72     109    -24     54    112    124 102.4  27.8  34008  287.00 0862.80
2015 04 09 13 09 52 .97     104    -41     45    112    120 111.7  23.0  34020  287.20 0862.79
2015 04 09 13 09 53 .21      94    -27     58     99    114 106.4  33.5  34048  287.69 0862.79
2015 04 09 13 09 53 .46      74    -24     72     78    106 108.4  47.9  34064  287.94 0862.79
2015 04 09 13 09 53 .72      80    -20     58     83    101 104.2  38.6  34082  288.26 0862.79
2015 04 09 13 09 53 .96      83    -15     74     85    112 100.6  45.4  34112  288.77 0862.79
2015 04 09 13 09 54 .23      97     -7     81     98    127  94.4  43.8  34174  289.82 0862.79
2015 04 09 13 09 54 .48      78     17     80     81    113  77.2  50.5  34112  288.77 0862.79
2015 04 09 13 09 54 .73      89      7     31     90     96  85.2  18.9  34014  287.10 0862.79
2015 04 09 13 09 54 .98     102      7     11    103    104  85.6   6.5  34066  287.99 0862.79
2015 04 09 13 09 55 .23     126      9     12    127    128  85.6   5.4  34008  287.01 0862.79
2015 04 09 13 09 55 .48     142      0     44    143    150  90.0  17.3  34074  288.13 0862.79
2015 04 09 13 09 55 .73     113    -53     39    125    132 115.2  17.4  34048  287.69 0862.79
2015 04 09 13 09 55 .98     137    -36     27    142    145 105.1  11.0  34054  287.77 0862.79
2015 04 09 13 09 56 .23     144     21     13    146    147  81.6   5.4  34060  287.89 0862.79
2015 04 09 13 09 56 .48     153     54     16    163    164  70.5   5.9  34072  288.08 0862.79
2015 04 09 13 09 56 .74     153     41     -3    159    160  74.9  -1.3  33986  286.64 0862.79
2015 04 09 13 09 56 .98     157     29      0    160    161  79.4  -0.3  33992  286.73 0862.79
2015 04 09 13 09 57 .24     141     24     46    144    152  80.3  17.9  34012  287.06 0862.79
2015 04 09 13 09 57 .49     162     14     39    163    168  84.8  13.7  34050  287.72 0862.79
2015 04 09 13 09 57 .74     175      0     25    176    178  90.0   8.2  34056  287.81 0862.79
2015 04 09 13 09 57 .98     168    -23     21    170    172  97.9   7.2  34028  287.33 0862.79
2015 04 09 13 09 58 .24     138     -7     49    139    148  93.0  19.4  34062  287.92 0862.79
2015 04 09 13 09 58 .49     140     25     12    143    144  79.9   4.9  34050  287.70 0862.79
2015 04 09 13 09 58 .74     170     34     -5    174    175  78.5  -1.8  34066  287.98 0862.79
2015 04 09 13 09 58 .99     142     56    -19    153    155  68.2  -7.2  34050  287.70 0862.79
2015 04 09 13 09 59 .24     175     34     35    179    183  78.8  11.1  34056  287.81 0862.79
2015 04 09 13 09 59 .50     209     13      9    210    211  86.3   2.5  34070  288.06 0862.79
2015 04 09 13 09 59 .74     136     45     32    144    148  71.4  12.6  34102  288.60 0862.79
2015 04 09 13 09 59 .99     167     10     79    168    185  86.3  27.1  34116  288.82 0862.79
2015 04 09 13 10 00 .24     128     17     40    130    137  82.1  17.3  34090  288.38 0862.79
2015 04 09 13 10 00 .49     132     17     39    134    140  82.5  16.3  34100  288.55 0862.79
2015 04 09 13 10 00 .74     108     41     31    116    121  69.2  15.3  34114  288.79 0862.79
2015 04 09 13 10 00 .99     104    111     39    153    158  43.2  14.3  34056  287.82 0862.79
2015 04 09 13 10 01 .25     111     90    -18    144    146  50.9  -7.2  34002  286.91 0862.79
2015 04 09 13 10 01 .50     126     77     -8    148    149  58.5  -3.1  33940  285.85 0862.79
2015 04 09 13 10 01 .76     134     68      4    151    152  62.9   1.8  33964  286.25 0862.79
2015 04 09 13 10 02 .01     143     72     24    161    163  63.4   8.5  33970  286.35 0862.79
2015 04 09 13 10 02 .26     161     46     10    168    169  73.8   3.6  33992  286.74 0862.79
2015 04 09 13 10 02 .50     162    110     -9    196    197  55.8  -2.8  33972  286.41 0862.79
2015 04 09 13 10 02 .76     155    126    -24    201    203  50.9  -6.9  33968  286.34 0862.79
2015 04 09 13 10 03 .00     162     89      5    185    186  61.2   1.8  33968  286.32 0862.79
2015 04 09 13 10 03 .26     162     81     -8    182    183  63.4  -2.6  33942  285.90 0862.79
2015 04 09 13 10 03 .51     184    101     -8    210    211  61.2  -2.3  33986  286.64 0862.79
2015 04 09 13 10 03 .76     167    130     11    212    213  52.0   3.1  33998  286.83 0862.79
2015 04 09 13 10 04 .01     146    142     34    204    207  45.8   9.5  33998  286.83 0862.79
2015 04 09 13 10 04 .26     135    111     18    176    178  50.5   6.1  33976  286.46 0862.79
2015 04 09 13 10 04 .51     127    104     23    165    167  50.5   8.2  33964  286.25 0862.79
2015 04 09 13 10 04 .76     153    120      8    195    196  52.0   2.5  33954  286.08 0862.79
2015 04 09 13 10 05 .02     144     92     37    172    176  57.4  12.2  33974  286.44 0862.79
2015 04 09 13 10 05 .26     134     99     48    167    174  53.6  16.3  34008  287.01 0862.79
2015 04 09 13 10 05 .52     133    108     56    172    182  50.9  18.1  33964  286.25 0862.78
2015 04 09 13 10 05 .77     127     93     55    158    168  53.6  19.4  33976  286.46 0862.78
2015 04 09 13 10 06 .01     113     83     57    141    152  53.6  23.0  34018  287.16 0862.78
2015 04 09 13 10 06 .27     100     74     83    125    150  53.6  36.5  33980  286.54 0862.78
2015 04 09 13 10 06 .51     140     48     56    149    159  70.9  21.5  33964  286.27 0862.78
2015 04 09 13 10 06 .76     190     51     20    197    199  75.0   5.9  33976  286.47 0862.78
2015 04 09 13 10 07 .02     142     94     30    171    174  56.5  10.1  33956  286.14 0862.78
2015 04 09 13 10 07 .27     143     61     29    156    159  66.9  10.6  33964  286.25 0862.78
2015 04 09 13 10 07 .52     160     73     35    177    181  65.4  11.4  33970  286.37 0862.78
2015 04 09 13 10 07 .76     167     80     36    186    190  64.2  11.0  33966  286.30 0862.78
2015 04 09 13 10 08 .03     155     72     33    172    176  64.9  10.8  33964  286.27 0862.78
2015 04 09 13 10 08 .28     154     86     31    177    180  60.7  10.1  33966  286.29 0862.78
2015 04 09 13 10 08 .53     151     86     31    175    178  60.2  10.3  33962  286.22 0862.78
2015 04 09 13 10 08 .78     135     86     33    161    165  57.6  11.6  33958  286.15 0862.78
2015 04 09 13 10 09 .03     150    111     25    187    189  53.4   7.8  33950  286.02 0862.78
2015 04 09 13 10 09 .28     155    109     21    190    192  54.7   6.5  33958  286.15 0862.78
2015 04 09 13 10 09 .54     148    101     18    180    181  55.6   5.9  33976  286.46 0862.78
2015 04 09 13 10 09 .78     150    102     24    182    184  55.8   7.8  34000  286.86 0862.78
2015 04 09 13 10 10 .03     127     93     16    158    159  53.6   5.9  33990  286.69 0862.78
2015 04 09 13 10 10 .28     126     64      5    142    143  62.9   2.3  33988  286.67 0862.78
2015 04 09 13 10 10 .53      99     63     23    118    121  57.6  11.1  33976  286.47 0862.78
2015 04 09 13 10 10 .79     116     57     33    130    135  63.8  14.3  34002  286.91 0862.78
2015 04 09 13 10 11 .03     116     46     15    125    126  68.3   6.9  34020  287.20 0862.78
2015 04 09 13 10 11 .29     112     36     -4    118    119  71.8  -2.2  33994  286.78 0862.78
2015 04 09 13 10 11 .54     131     41      9    138    139  72.3   3.8  34000  286.88 0862.78
2015 04 09 13 10 11 .79     149     -6     33    150    154  92.6  12.4  34052  287.74 0862.79
2015 04 09 13 10 12 .04     170     38      7    175    176  77.4   2.3  34014  287.11 0862.79
2015 04 09 13 10 12 .28     184     26    -10    186    187  81.9  -3.1  34004  286.93 0862.79
2015 04 09 13 10 12 .55     162     12    -26    163    166  85.7  -9.3  34014  287.11 0862.79
2015 04 09 13 10 12 .79     163     13      5    164    165  85.2   1.8  34026  287.30 0862.79
2015 04 09 13 10 13 .04     165     34    -15    169    170  78.3  -5.2  34006  286.98 0862.79
2015 04 09 13 10 13 .29     133     43     34    140    145  71.8  13.7  34010  287.05 0862.79
2015 04 09 13 10 13 .54      95     45      5    106    107  64.8   2.8  34008  287.01 0862.79
2015 04 09 13 10 13 .79     102     21      1    105    106  78.1   0.8  34010  287.03 0862.78
2015 04 09 13 10 14 .04     101     45     -4    111    112  66.0  -2.2  34014  287.11 0862.78
2015 04 09 13 10 14 .29     131     57    -10    143    144  66.5  -4.1  34012  287.06 0862.78
2015 04 09 13 10 14 .54     108     59    -34    124    129  61.1 -15.4  33984  286.61 0862.78
2015 04 09 13 10 14 .80     150     72     -6    167    168  64.2  -2.2  33990  286.69 0862.78
2015 04 09 13 10 15 .06     143     32     -5    147    148  77.2  -2.2  33998  286.84 0862.78
2015 04 09 13 10 15 .30     106     83     54    135    145  51.8  23.0  34000  286.88 0862.78
2015 04 09 13 10 15 .56     158     88     15    182    183  60.9   4.9  34002  286.91 0862.78
2015 04 09 13 10 15 .81     137     90     30    165    168  56.7  10.6  33988  286.67 0862.78
2015 04 09 13 10 16 .05     133     98     39    166    171  53.6  13.5  33982  286.57 0862.78
2015 04 09 13 10 16 .31     117     85     39    145    151  54.0  15.2  33998  286.84 0862.78
2015 04 09 13 10 16 .55     112     36     48    118    127  71.8  23.1  34020  287.21 0862.78
2015 04 09 13 10 16 .81     100     33     36    106    113  71.4  18.9  34014  287.11 0862.78
2015 04 09 13 10 17 .06     100     62     32    118    123  58.0  15.3  33994  286.78 0862.78
2015 04 09 13 10 17 .31      95     52     12    109    110  61.1   6.5  33982  286.57 0862.79
2015 04 09 13 10 17 .56     100     36      6    107    108  70.0   3.3  33964  286.27 0862.79
2015 04 09 13 10 17 .81     129     39      6    135    136  73.2   2.9  33970  286.37 0862.79
2015 04 09 13 10 18 .06     140     33      7    144    145  76.7   2.8  33966  286.30 0862.79
2015 04 09 13 10 18 .32     127      9     -2    128    129  85.6  -1.3  33974  286.44 0862.79
2015 04 09 13 10 18 .56     123      5     10    124    125  87.4   4.9  34004  286.94 0862.79
2015 04 09 13 10 18 .81     132     38      6    138    139  73.6   2.8  34000  286.86 0862.79
2015 04 09 13 10 19 .07     161     50      0    169    170  72.7   0.0  34016  287.13 0862.79
2015 04 09 13 10 19 .32     171     60     11    182    183  70.7   3.6  34076  288.16 0862.79
2015 04 09 13 10 19 .56     134     89     24    162    164  56.3   8.5  34082  288.26 0862.79
2015 04 09 13 10 19 .81     135     74     21    155    157  61.2   8.0  34066  287.98 0862.79
2015 04 09 13 10 20 .07     148     72     21    165    167  63.8   7.5  34078  288.18 0862.79
2015 04 09 13 10 20 .32     164     65     13    177    178  68.3   4.4  34044  287.62 0862.79
2015 04 09 13 10 20 .56     146     72     23    164    166  63.6   8.0  34076  288.16 0862.79
2015 04 09 13 10 20 .82     140     57      6    152    153  67.8   2.3  34020  287.20 0862.79
2015 04 09 13 10 21 .07     131     65     17    147    149  63.4   6.9  34000  286.86 0862.78
2015 04 09 13 10 21 .32     148     89     21    174    176  58.9   7.1  34002  286.91 0862.78
2015 04 09 13 10 21 .57     141     33     47    145    153  76.7  17.9  34050  287.70 0862.78
2015 04 09 13 10 21 .82     148     -2     -3    149    150  90.8  -1.3  34056  287.81 0862.78
2015 04 09 13 10 22 .08     118     -8     -2    119    120  94.3  -1.2  34058  287.86 0862.78
2015 04 09 13 10 22 .33     125    -27     -2    129    130 102.4  -1.2  34062  287.91 0862.78
2015 04 09 13 10 22 .58     129     -7     15    130    131  93.5   6.9  34066  287.99 0862.78
2015 04 09 13 10 22 .83     105      6     13    106    107  86.5   7.5  34066  287.98 0862.79
2015 04 09 13 10 23 .08     118     34     -4    123    124  73.6  -2.2  34064  287.94 0862.79
2015 04 09 13 10 23 .33     150     41      6    156    157  74.5   2.5  34066  287.98 0862.79
2015 04 09 13 10 23 .59     136     35     14    141    142  75.4   5.9  34064  287.94 0862.79
2015 04 09 13 10 23 .83     112     57     13    126    127  62.9   5.9  34068  288.03 0862.79
2015 04 09 13 10 24 .08      78     79     52    112    123  44.5  26.6  34062  287.91 0862.79
2015 04 09 13 10 24 .33      64     81     34    104    110  38.3  18.4  34044  287.62 0862.79
2015 04 09 13 10 24 .59      55     92     45    108    117  30.7  23.1  34042  287.57 0862.79
2015 04 09 13 10 24 .84      76     72     52    105    117  46.4  27.8  34056  287.81 0862.79
2015 04 09 13 10 25 .08     100     54     59    114    128  61.6  29.2  34036  287.47 0862.79
2015 04 09 13 10 25 .33      98     71     60    122    135  54.0  27.8  34022  287.23 0862.79
2015 04 09 13 10 25 .59      61     92     41    111    118  33.4  21.0  34044  287.60 0862.79
2015 04 09 13 10 25 .84      60     75     37     97    103  38.7  21.5  34038  287.50 0862.79
2015 04 09 13 10 26 .09      76     15     54     78     94  78.5  37.6  34054  287.79 0862.79
2015 04 09 13 10 26 .34     109     -9     46    110    119  95.2  23.6  34016  287.15 0862.78
2015 04 09 13 10 26 .59     118    -60     47    133    141 117.0  20.4  34028  287.33 0862.78
2015 04 09 13 10 26 .84     120    -49     58    130    142 112.6  25.2  34032  287.42 0862.78
2015 04 09 13 10 27 .09      96    -63     41    116    123 123.3  20.0  34036  287.47 0862.78
2015 04 09 13 10 27 .34      78    -63     19    101    103 128.6  11.0  34034  287.43 0862.78
2015 04 09 13 10 27 .59      71    -72     12    102    103 135.5   6.9  34036  287.47 0862.78
2015 04 09 13 10 27 .84      68    -76      6    103    104 138.1   3.8  34034  287.43 0862.78
2015 04 09 13 10 28 .10      31    -85    -17     91     93 159.5 -10.9  34064  287.96 0862.78
2015 04 09 13 10 28 .34      29    -77    -27     83     88 159.1 -18.1  34088  288.36 0862.78
2015 04 09 13 10 28 .60      33    -61     -8     70     71 151.0  -7.2  34068  288.03 0862.78
2015 04 09 13 10 28 .84      25    -61      9     67     68 157.3   8.0  34068  288.03 0862.78
2015 04 09 13 10 29 .11      40    -45     10     61     62 138.6  10.1  34062  287.92 0862.78
2015 04 09 13 10 29 .36       6    -63     31     64     71 173.8  27.3  34064  287.96 0862.78
2015 04 09 13 10 29 .60     -14    -67      8     69     70 192.5   7.1  34074  288.13 0862.78
2015 04 09 13 10 29 .86       1    -95    -31     96    102 179.1 -18.1  34046  287.64 0862.78
2015 04 09 13 10 30 .11      11    -96    -35     97    104 172.9 -19.7  34046  287.65 0862.78
2015 04 09 13 10 30 .36      13    -82    -32     84     89 170.7 -25.9  34036  287.49 0862.78
2015 04 09 13 10 30 .61       9    -90    -26     91     95 173.8 -16.0  34032  287.42 0862.78
2015 04 09 13 10 30 .87      47    -74      0     88     89 147.5   0.2  34064  287.94 0862.77
2015 04 09 13 10 31 .11      63    -44     39     77     86 125.1  29.3  34122  288.94 0862.77
2015 04 09 13 10 31 .36      37    -58     49     69     84 147.5  38.6  34098  288.53 0862.77
2015 04 09 13 10 31 .62      26    -31     48     41     63 140.4  55.4  34118  288.86 0862.77
2015 04 09 13 10 31 .86      24    -21     45     33     55 131.3  60.5  34180  289.92 0862.77
2015 04 09 13 10 32 .11      16    -20     30     26     39 140.4  54.3  34180  289.91 0862.77
2015 04 09 13 10 32 .36      28    -50     27     58     63 150.1  26.2  34146  289.33 0862.77
2015 04 09 13 10 32 .61      50    -41      8     66     67 129.5   6.9  34150  289.40 0862.77
2015 04 09 13 10 32 .86      54    -46     -3     72     73 130.4  -3.1  34132  289.09 0862.78
2015 04 09 13 10 33 .12      63    -34     10     72     73 118.8   8.0  34160  289.58 0862.78
2015 04 09 13 10 33 .36     108    -51      1    120    121 115.4   0.7  34186  290.02 0862.78
2015 04 09 13 10 33 .62     108    -92      6    142    143 130.4   2.8  34160  289.58 0862.78
2015 04 09 13 10 33 .87      52   -114     -2    126    127 155.5  -1.3  34154  289.46 0862.78
2015 04 09 13 10 34 .12      47    -65     -3     81     82 144.0  -2.2  34186  290.01 0862.78
2015 04 09 13 10 34 .37      23   -114     43    117    124 168.4  20.9  34176  289.85 0862.78
2015 04 09 13 10 34 .61      64    -98     57    118    131 146.6  27.3  34122  288.92 0862.78
2015 04 09 13 10 34 .88      87   -118     51    147    156 143.5  19.4  34148  289.36 0862.78
2015 04 09 13 10 35 .13      80   -145     56    166    176 151.1  18.6  34176  289.84 0862.78
2015 04 09 13 10 35 .37      39   -132     90    138    164 163.5  36.0  34228  290.74 0862.78
2015 04 09 13 10 35 .62      55   -117     87    130    156 154.5  36.5  34134  289.14 0862.78
2015 04 09 13 10 35 .88     126    -63     66    142    156 116.6  26.6  34082  288.26 0862.78
2015 04 09 13 10 36 .13     164    -95     37    190    194 120.2  11.1  33954  286.10 0862.78
2015 04 09 13 10 36 .38     127   -100      8    162    163 128.2   2.9  33948  285.98 0862.78
2015 04 09 13 10 36 .63     123    -95    -10    156    157 127.8  -3.9  33946  285.95 0862.78
2015 04 09 13 10 36 .89     128   -110     -5    170    171 130.7  -1.8  33948  286.00 0862.78
2015 04 09 13 10 37 .14     122   -170      0    210    211 144.2   0.2  33970  286.35 0862.78
2015 04 09 13 10 37 .39     130   -190    -21    231    233 145.5  -5.4  33978  286.51 0862.78
2015 04 09 13 10 37 .63     157   -202    -11    257    258 142.1  -2.6  33994  286.77 0862.78
2015 04 09 13 10 37 .89     166   -136     -4    215    216 129.3  -1.3  33982  286.56 0862.78
2015 04 09 13 10 38 .14     143   -156     29    212    214 137.5   7.8  33996  286.79 0862.78
2015 04 09 13 10 38 .40     156   -168     34    230    233 137.0   8.5  34028  287.33 0862.78
2015 04 09 13 10 38 .64     158   -146     48    216    222 132.7  12.6  34066  287.99 0862.78
2015 04 09 13 10 38 .89     137   -137     63    194    205 135.0  18.1  34050  287.70 0862.78
2015 04 09 13 10 39 .14      94   -144     70    173    186 146.8  23.1  34040  287.55 0862.78
2015 04 09 13 10 39 .40     172   -180     68    249    259 136.3  15.3  34092  288.41 0862.78
2015 04 09 13 10 39 .64     122   -203     75    238    250 149.0  17.7  34052  287.75 0862.78
2015 04 09 13 10 39 .89     127   -211     55    247    254 149.0  12.6  34056  287.82 0862.78
2015 04 09 13 10 40 .15     173   -173     27    246    248 135.0   6.5  34070  288.04 0862.78
2015 04 09 13 10 40 .40     193   -200     57    279    285 136.1  11.6  34122  288.92 0862.78
2015 04 09 13 10 40 .64     155   -190     85    246    261 140.8  19.2  34140  289.24 0862.78
2015 04 09 13 10 40 .89     174   -175     31    248    250 135.2   7.2  33992  286.74 0862.78
2015 04 09 13 10 41 .14     156   -170     11    231    232 137.5   2.9  33950  286.02 0862.78
2015 04 09 13 10 41 .39     161   -182     -4    244    245 138.5  -1.1  33938  285.81 0862.78
2015 04 09 13 10 41 .64     157   -167     -7    230    231 136.7  -1.8  33936  285.80 0862.78
2015 04 09 13 10 41 .90     150   -169     11    227    228 138.3   2.8  33936  285.78 0862.78
2015 04 09 13 10 42 .15     153   -158     18    221    222 135.9   4.9  33936  285.80 0862.78
2015 04 09 13 10 42 .40     173   -155     -9    233    234 131.8  -2.2  33944  285.93 0862.78
2015 04 09 13 10 42 .65     175   -187      2    257    258 137.0   0.5  33944  285.91 0862.78
2015 04 09 13 10 42 .91     155   -169      7    230    231 137.5   1.8  33938  285.83 0862.78
2015 04 09 13 10 43 .16     170   -170     -4    241    242 135.0  -1.1  33938  285.83 0862.78
2015 04 09 13 10 43 .41     189   -177    -14    260    261 133.2  -3.1  33946  285.94 0862.78
2015 04 09 13 10 43 .66     182   -161     34    244    247 131.4   8.0  34000  286.87 0862.78
2015 04 09 13 10 43 .91     192   -134     41    235    239 124.9  10.1  34042  287.58 0862.78
2015 04 09 13 10 44 .16     158   -139     10    211    212 131.4   2.9  33972  286.41 0862.78
2015 04 09 13 10 44 .41     178   -136    -22    225    227 127.5  -5.6  33942  285.88 0862.78
2015 04 09 13 10 44 .66     193   -150    -17    245    246 127.8  -4.1  33940  285.84 0862.78
2015 04 09 13 10 44 .91     183   -130    -12    225    226 125.5  -3.2  33940  285.85 0862.78
2015 04 09 13 10 45 .16     176   -112      0    209    210 122.4  -0.3  33946  285.95 0862.78
2015 04 09 13 10 45 .41     175   -115      4    210    211 123.3   1.2  33946  285.95 0862.79
2015 04 09 13 10 45 .66     169   -130     -4    214    215 127.5  -1.2  33942  285.88 0862.79
2015 04 09 13 10 45 .91     157   -131      8    205    206 130.0   2.5  33938  285.83 0862.79
2015 04 09 13 10 46 .17     156   -147     14    215    216 133.2   3.8  33936  285.80 0862.79
2015 04 09 13 10 46 .42     146   -133     27    198    200 132.4   8.0  33938  285.82 0862.79
2015 04 09 13 10 46 .67     191    -72     32    205    208 110.6   9.0  33966  286.30 0862.79
2015 04 09 13 10 46 .91     202    -67     50    213    219 108.4  13.2  33946  285.97 0862.79
2015 04 09 13 10 47 .17     180    -62     23    191    193 109.1   6.9  33944  285.93 0862.79
2015 04 09 13 10 47 .42     162    -70     54    177    186 113.3  17.1  33944  285.92 0862.79
2015 04 09 13 10 47 .67     137    -77     29    158    161 119.3  10.6  33948  285.98 0862.79
2015 04 09 13 10 47 .92     140    -88     34    166    170 122.0  11.6  33948  285.98 0862.79
2015 04 09 13 10 48 .17     157    -83     31    178    181 118.0   9.9  33948  286.00 0862.79
2015 04 09 13 10 48 .42     154    -65     38    168    173 112.8  12.9  33956  286.14 0862.79
2015 04 09 13 10 48 .67     151    -93      6    178    179 121.8   2.1  33948  286.00 0862.79
2015 04 09 13 10 48 .92     140    -72     23    158    160 117.5   8.5  33950  286.03 0862.79
2015 04 09 13 10 49 .17     135    -81     18    158    160 121.1   6.7  33950  286.03 0862.79
2015 04 09 13 10 49 .42     134    -79      8    156    157 120.7   3.3  33954  286.08 0862.79
2015 04 09 13 10 49 .67     117    -59     16    132    134 117.0   7.1  33952  286.05 0862.79
2015 04 09 13 10 49 .93     115    -73     16    137    139 122.4   6.9  33960  286.19 0862.80
2015 04 09 13 10 50 .18     111    -76     20    135    137 124.6   8.5  33962  286.24 0862.80
2015 04 09 13 10 50 .43     126    -54     23    138    140 113.1   9.5  33962  286.22 0862.80
2015 04 09 13 10 50 .69     177    -56     44    186    192 107.5  13.5  33980  286.54 0862.80
2015 04 09 13 10 50 .94     170    -62     50    182    189 110.2  15.6  33986  286.64 0862.80
2015 04 09 13 10 51 .18     149    -76     60    168    178 117.1  20.4  34002  286.89 0862.80
2015 04 09 13 10 51 .45     147   -123     60    192    202 130.0  17.3  34036  287.47 0862.80
2015 04 09 13 10 51 .68     140    -83     56    163    173 120.6  19.2  34026  287.32 0862.80
2015 04 09 13 10 51 .94     160    -87     26    183    185 118.6   8.2  33948  286.00 0862.80
2015 04 09 13 10 52 .19     153    -86     20    176    178 119.5   6.7  33942  285.90 0862.80
2015 04 09 13 10 52 .44     158    -96     24    185    187 121.3   7.5  33942  285.90 0862.80
2015 04 09 13 10 52 .69     153    -93     35    180    184 121.3  11.1  33964  286.27 0862.80
2015 04 09 13 10 52 .94     142   -106     28    178    181 126.9   9.0  33950  286.03 0862.80
2015 04 09 13 10 53 .19     137    -90     40    164    169 123.3  13.9  33974  286.42 0862.80
2015 04 09 13 10 53 .44     134    -68      7    151    152 117.1   2.9  33956  286.14 0862.80
2015 04 09 13 10 53 .69     137    -63      1    151    152 114.8   0.7  33946  285.95 0862.80
2015 04 09 13 10 53 .95     136    -89      3    163    164 123.3   1.2  33960  286.19 0862.80
2015 04 09 13 10 54 .19     169    -89      0    192    193 117.8   0.2  33956  286.12 0862.80
2015 04 09 13 10 54 .44     153    -94     11    180    181 121.8   3.8  33964  286.25 0862.80
2015 04 09 13 10 54 .70     140    -81    -20    162    164 120.2  -7.2  33950  286.03 0862.80
2015 04 09 13 10 54 .95     134    -52    -27    144    147 111.3 -10.9  33970  286.37 0862.80
2015 04 09 13 10 55 .20     153    -60     13    165    166 111.7   4.6  33970  286.35 0862.80
2015 04 09 13 10 55 .45     136   -132     36    190    194 134.2  11.0  34004  286.93 0862.79
2015 04 09 13 10 55 .70     167   -104     43    197    202 122.0  12.4  34016  287.15 0862.79
2015 04 09 13 10 55 .95     170    -95     19    196    197 119.3   5.7  34008  287.01 0862.79
2015 04 09 13 10 56 .20     160    -76     38    178    183 115.3  12.2  34022  287.25 0862.79
2015 04 09 13 10 56 .45     141    -61     37    154    159 113.5  13.7  33996  286.79 0862.79
2015 04 09 13 10 56 .71     132    -89     14    160    161 124.2   5.2  33988  286.67 0862.79
2015 04 09 13 10 56 .96     139    -76     13    159    160 118.9   4.9  33978  286.51 0862.79
2015 04 09 13 10 57 .22     140    -77     20    160    162 118.9   7.2  34010  287.03 0862.80
2015 04 09 13 10 57 .46     131    -90     30    160    163 124.6  10.8  34036  287.47 0862.80
2015 04 09 13 10 57 .71     124    -79     29    148    151 122.4  11.1  34020  287.20 0862.80
2015 04 09 13 10 57 .96     120    -66     27    138    141 118.8  11.1  34012  287.06 0862.80
2015 04 09 13 10 58 .21     116    -73     30    138    142 122.4  12.6  34026  287.30 0862.80
2015 04 09 13 10 58 .46     106    -77     24    132    135 125.9  10.6  34014  287.11 0862.80
2015 04 09 13 10 58 .72     134    -68      7    151    152 117.0   2.9  33992  286.73 0862.80
2015 04 09 13 10 58 .97      63    -77     47    100    110 140.4  27.1  34056  287.81 0862.80
2015 04 09 13 10 59 .22      92    -99     32    136    140 137.2  13.2  34082  288.26 0862.80
2015 04 09 13 10 59 .46      91   -119      7    150    151 142.6   2.9  33998  286.83 0862.80
2015 04 09 13 10 59 .72      85   -124    -14    151    152 145.7  -5.6  33992  286.73 0862.80
2015 04 09 13 10 59 .96      66   -127     66    144    158 152.4  26.2  34036  287.49 0862.80
2015 04 09 13 11 00 .21      80   -128     32    152    156 147.9  12.2  34090  288.40 0862.80
2015 04 09 13 11 00 .46      59   -121     36    135    140 153.7  15.2  33954  286.08 0862.80
2015 04 09 13 11 00 .72      84    -95     40    127    134 138.6  17.4  33996  286.79 0862.80
2015 04 09 13 11 00 .97      69   -107     47    128    136 147.0  20.9  34002  286.89 0862.80
2015 04 09 13 11 01 .22      88   -105     -2    138    139 139.9  -1.2  33968  286.34 0862.80
2015 04 09 13 11 01 .48      91    -92     10    130    131 135.5   4.4  33960  286.19 0862.80
2015 04 09 13 11 01 .72      87   -112     47    142    150 142.2  18.4  33970  286.37 0862.80
2015 04 09 13 11 01 .98      55   -116     29    129    133 154.7  12.6  33968  286.32 0862.80
2015 04 09 13 11 02 .22      53   -112     33    124    129 154.7  15.2  33972  286.39 0862.80
2015 04 09 13 11 02 .48      69   -137     20    154    156 153.3   7.5  33970  286.37 0862.80
2015 04 09 13 11 02 .72      67   -112     23    131    134 148.8  10.1  33990  286.69 0862.80
2015 04 09 13 11 02 .98      72   -112     11    134    135 147.4   5.0  33990  286.69 0862.80
2015 04 09 13 11 03 .23      89    -89      6    127    128 135.0   2.9  34030  287.38 0862.80
2015 04 09 13 11 03 .47      82    -99     29    129    133 140.4  12.6  34028  287.33 0862.80
2015 04 09 13 11 03 .74      75   -115     21    138    140 146.6   9.0  34014  287.11 0862.80
2015 04 09 13 11 03 .99      75   -107     23    131    134 144.8  10.1  34000  286.86 0862.80
2015 04 09 13 11 04 .24      93    -77     35    122    128 129.6  16.3  34044  287.60 0862.80
2015 04 09 13 11 04 .49      85    -84     23    120    123 134.6  11.1  34020  287.21 0862.81
2015 04 09 13 11 04 .74      81    -80     -7    114    115 134.6  -3.7  33948  285.98 0862.81
2015 04 09 13 11 04 .99     102    -88    -20    135    137 130.9  -8.8  33968  286.32 0862.81
2015 04 09 13 11 05 .24      82   -102     23    132    135 141.3  10.1  33986  286.62 0862.81
2015 04 09 13 11 05 .49      91    -91     30    129    133 135.0  13.2  33998  286.83 0862.81
2015 04 09 13 11 05 .74      77   -100     39    127    133 142.2  17.3  33984  286.59 0862.81
2015 04 09 13 11 05 .99      70    -86     33    111    116 140.8  16.8  33992  286.73 0862.81
2015 04 09 13 11 06 .24      83    -82     14    117    118 134.6   6.9  34000  286.86 0862.81
2015 04 09 13 11 06 .50      98    -71      7    122    123 126.0   3.3  34030  287.38 0862.81
2015 04 09 13 11 06 .74     102    -88     21    135    137 130.9   9.0  34044  287.62 0862.81
2015 04 09 13 11 07 .00     102    -88     21    135    137 130.9   9.0  34054  287.79 0862.81
2015 04 09 13 11 07 .24      97    -71     15    121    122 126.4   7.1  33994  286.76 0862.81
2015 04 09 13 11 07 .49      95    -83     34    127    132 131.3  15.3  33984  286.61 0862.81
2015 04 09 13 11 07 .75      98    -82     45    129    137 130.0  19.4  33978  286.51 0862.81
2015 04 09 13 11 07 .99      59    -87     29    106    110 145.7  15.3  33986  286.64 0862.81
2015 04 09 13 11 08 .24      63    -85     20    107    109 143.5  11.0  33986  286.64 0862.82
2015 04 09 13 11 08 .49      74    -89      0    116    117 140.3  -0.3  33956  286.14 0862.82
2015 04 09 13 11 08 .74      78    -83    -12    114    115 136.8  -6.2  33950  286.02 0862.82
2015 04 09 13 11 09 .00      86    -81      0    119    120 133.1   0.2  33956  286.14 0862.82
2015 04 09 13 11 09 .25      84    -82      2    118    119 134.0   1.2  33968  286.32 0862.82
2015 04 09 13 11 09 .49      82    -84      7    118    119 135.9   3.8  33964  286.27 0862.82
2015 04 09 13 11 09 .75      80    -84      0    117    118 136.3   0.2  33960  286.19 0862.82
2015 04 09 13 11 10 .01      85    -78    -14    116    117 132.7  -7.3  33982  286.57 0862.82
2015 04 09 13 11 10 .25      75    -74     34    106    112 134.9  17.9  34034  287.45 0862.82
2015 04 09 13 11 10 .50      46    -64     39     80     89 144.0  27.3  34050  287.70 0862.82
2015 04 09 13 11 10 .76      57    -57     34     81     87 135.0  23.6  34040  287.54 0862.82
2015 04 09 13 11 11 .01      66    -50     -6     84     85 127.3  -4.6  34000  286.88 0862.82
2015 04 09 13 11 11 .26      63    -35      3     73     74 118.9   2.8  34026  287.30 0862.82
2015 04 09 13 11 11 .51      53    -33      0     63     64 122.4  -0.3  34024  287.28 0862.82
2015 04 09 13 11 11 .77      49    -40    -13     64     66 129.5 -11.5  34024  287.27 0862.82
2015 04 09 13 11 12 .02      60    -39     21     72     76 123.3  16.3  34046  287.64 0862.82
2015 04 09 13 11 12 .26      77    -33      8     84     85 113.5   5.9  34034  287.43 0862.82
2015 04 09 13 11 12 .51      83    -42      4     94     95 117.1   2.9  34016  287.15 0862.82
2015 04 09 13 11 12 .77      89    -71      5    114    115 128.6   2.9  33994  286.76 0862.81
2015 04 09 13 11 13 .02      65    -65     22     93     96 135.0  13.7  34000  286.88 0862.81
2015 04 09 13 11 13 .27      50    -41     22     66     70 129.5  18.9  34004  286.93 0862.81
2015 04 09 13 11 13 .52      62    -63     33     89     94 135.3  20.4  34028  287.33 0862.81
2015 04 09 13 11 13 .77      51    -61     20     80     83 140.4  14.3  34040  287.54 0862.81
2015 04 09 13 11 14 .02      48    -45     27     67     72 133.1  23.0  34042  287.57 0862.81
2015 04 09 13 11 14 .27      53    -46     18     71     74 131.3  14.3  34028  287.35 0862.81
2015 04 09 13 11 14 .52      75    -74     22    106    109 134.9  12.2  34018  287.16 0862.81
2015 04 09 13 11 14 .77      72    -70     20    101    104 134.0  11.6  34016  287.15 0862.81
2015 04 09 13 11 15 .02      63    -63     12     90     91 135.3   8.0  34004  286.93 0862.81
2015 04 09 13 11 15 .27      70    -66     12     97     98 133.1   7.1  33994  286.78 0862.81
2015 04 09 13 11 15 .52      60    -63      8     88     89 136.3   5.4  34000  286.86 0862.81
2015 04 09 13 11 15 .78      60    -59     25     85     89 134.4  16.8  34030  287.38 0862.81
2015 04 09 13 11 16 .02      48    -67     25     83     87 143.9  17.3  34030  287.38 0862.81
2015 04 09 13 11 16 .28      60    -58     31     84     89 134.0  20.4  34036  287.47 0862.81
2015 04 09 13 11 16 .53      49    -59     22     77     81 140.4  15.8  33992  286.74 0862.81
2015 04 09 13 11 16 .78      52    -65     15     84     86 141.3  10.1  33990  286.69 0862.81
2015 04 09 13 11 17 .02      44    -60      0     75     76 144.0  -0.3  33996  286.79 0862.81
2015 04 09 13 11 17 .27      49    -50      3     71     72 135.9   2.9  33986  286.64 0862.81
2015 04 09 13 11 17 .54      52    -44      2     69     70 130.4   1.8  33978  286.51 0862.81
2015 04 09 13 11 17 .78      54    -50     -2     74     75 133.1  -2.2  33972  286.41 0862.81
2015 04 09 13 11 18 .04      54    -49     -9     73     74 132.2  -7.2  33968  286.32 0862.81
2015 04 09 13 11 18 .29      54    -37     -3     66     67 125.1  -3.1  33970  286.37 0862.81
2015 04 09 13 11 18 .53      56    -25     -8     62     63 114.4  -7.3  33974  286.42 0862.81
2015 04 09 13 11 18 .79      56    -30    -10     64     65 118.9  -9.3  33976  286.46 0862.81
2015 04 09 13 11 19 .04      40    -28    -18     50     54 125.1 -19.7  33990  286.69 0862.81
2015 04 09 13 11 19 .29      28    -25    -12     38     39 131.3 -22.8  33990  286.71 0862.81
2015 04 09 13 11 19 .54      38    -25    -12     46     48 124.2 -15.5  33976  286.47 0862.81
2015 04 09 13 11 19 .79      35    -26    -14     44     46 126.9 -23.8  33968  286.32 0862.81
2015 04 09 13 11 20 .04      32    -20    -11     38     40 122.5 -16.6  33964  286.27 0862.81
2015 04 09 13 11 20 .29      29    -29    -16     42     44 134.9 -25.4  33970  286.35 0862.81
2015 04 09 13 11 20 .54      38    -26     -4     47     48 124.2  -5.2  33962  286.24 0862.81
2015 04 09 13 11 20 .79      47    -30    -17     56     58 122.4 -23.8  33956  286.14 0862.81
2015 04 09 13 11 21 .04      47    -33    -21     58     61 125.1 -24.4  33954  286.08 0862.81
2015 04 09 13 11 21 .29      45    -37    -17     59     61 129.5 -20.7  33960  286.19 0862.81
2015 04 09 13 11 21 .54      31    -37    -17     49     53 140.4 -19.7  33964  286.27 0862.81
2015 04 09 13 11 21 .79      25    -28    -14     38     40 138.6 -25.4  33964  286.27 0862.80
2015 04 09 13 11 22 .04      37    -22    -12     44     45 120.7 -20.7  33956  286.14 0862.80
2015 04 09 13 11 22 .29      37    -22    -12     44     45 120.7 -20.7  33956  286.14 0862.80
2015 04 09 13 11 22 .54      42    -15    -18     45     48 110.8 -25.4  33948  286.00 0862.80
2015 04 09 13 11 22 .80      35    -11    -25     37     44 108.2 -40.9  33954  286.08 0862.80
2015 04 09 13 11 23 .05      39    -13    -27     42     49 108.4 -39.9  33958  286.15 0862.80
2015 04 09 13 11 23 .30      34    -12    -32     37     48 110.0 -51.3  33958  286.15 0862.80
2015 04 09 13 11 23 .55      32    -20    -24     39     45 122.5 -39.9  33962  286.22 0862.81
2015 04 09 13 11 23 .80      16    -28    -30     33     44 149.3 -52.3  33966  286.29 0862.81
2015 04 09 13 11 24 .05      15    -23    -32     28     42 147.5 -57.7  33964  286.25 0862.81
2015 04 09 13 11 24 .30      12    -11    -27     17     31 133.3 -69.1  33980  286.52 0862.81
2015 04 09 13 11 24 .56       6    -11    -25     13     28 151.0 -75.2  33982  286.56 0862.81
2015 04 09 13 11 24 .81       1    -12    -24     13     27 172.0 -73.2  33978  286.49 0862.81
2015 04 09 13 11 25 .06      12    -11    -27     17     31 133.3 -69.1  33980  286.52 0862.81
2015 04 09 13 11 25 .31       5    -12    -25     14     28 158.2 -73.2  33984  286.61 0862.81
2015 04 09 13 11 25 .56       0    -16    -19     17     25 182.7 -56.6  33986  286.64 0862.81
2015 04 09 13 11 25 .81      -1    -12    -14     13     19 184.5 -52.6  33990  286.69 0862.81
2015 04 09 13 11 26 .06       0     -7    -12      8     14 175.5 -64.9  34004  286.93 0862.81
2015 04 09 13 11 26 .31       1      8     -9      9     12  11.6 -54.5  34002  286.89 0862.81
2015 04 09 13 11 26 .56       4     12    -14     13     19  18.3 -52.6  34004  286.94 0862.81
2015 04 09 13 11 26 .82       0      4    -19      5     19 350.3 -85.1  34012  287.06 0862.81
2015 04 09 13 11 27 .08       0      7    -21      8     22 355.5 -83.6  34014  287.10 0862.81
2015 04 09 13 11 27 .32      -1     13    -12     14     18 353.8 -56.4  34022  287.25 0862.81
2015 04 09 13 11 27 .57       5      8    -11     10     14  32.5 -52.6  34026  287.30 0862.81
2015 04 09 13 11 27 .81       0      8    -14      9     16 357.3 -69.1  34018  287.16 0862.81
2015 04 09 13 11 28 .07      -2      4    -10      5     11 327.5 -77.3  34014  287.11 0862.81
2015 04 09 13 11 28 .31     -15     -1    -16     16     22 265.7 -54.5  33994  286.78 0862.81
2015 04 09 13 11 28 .57     -24      0    -10     25     26 270.8 -25.4  33982  286.57 0862.81
2015 04 09 13 11 28 .82     -13      1    -14     14     19 277.9 -54.5  33976  286.47 0862.81
2015 04 09 13 11 29 .07     -16     12    -10     21     23 307.8 -29.5  33986  286.64 0862.81
2015 04 09 13 11 29 .32     -14      9     -8     17     18 302.4 -27.4  33982  286.56 0862.81
2015 04 09 13 11 29 .57     -11     12     -6     17     18 316.8 -23.6  33974  286.42 0862.81
2015 04 09 13 11 29 .82      -2     12     -3     13     14 348.4 -15.5  33976  286.46 0862.81
2015 04 09 13 11 30 .10     -13     23     -7     27     29 331.0 -15.5  33972  286.41 0862.81
2015 04 09 13 11 30 .32     -19     12     -1     23     24 302.4  -3.1  33970  286.37 0862.81
2015 04 09 13 11 30 .57     -16     21     -3     27     28 322.2  -7.3  33966  286.29 0862.81
2015 04 09 13 11 30 .83     -10     16    -10     20     22 327.5 -33.7  33968  286.32 0862.81
2015 04 09 13 11 31 .07      -1     27    -14     28     31 357.3 -31.7  33980  286.54 0862.81
2015 04 09 13 11 31 .33      -1     31    -18     32     36 357.3 -37.9  33980  286.54 0862.81
2015 04 09 13 11 31 .58       4     31    -14     32     34   8.0 -31.5  33970  286.37 0862.81
2015 04 09 13 11 31 .84       4     38    -10     39     41   6.2 -14.5  33968  286.34 0862.80
2015 04 09 13 11 32 .09      -5     24     -1     25     26 346.6  -2.2  33972  286.41 0862.80
2015 04 09 13 11 32 .34       8     24     -1     26     27  18.7  -2.2  33966  286.29 0862.80
2015 04 09 13 11 32 .59       6     21      0     22     23  16.9  -2.2  33968  286.32 0862.80
2015 04 09 13 11 32 .84       0     17      0     18     19 357.3  -2.2  33968  286.32 0862.80
2015 04 09 13 11 33 .09       4     20     -1     21     22  13.4  -3.1  33968  286.32 0862.80
2015 04 09 13 11 33 .34       7     21      8     23     25  20.0  18.9  33966  286.29 0862.80
2015 04 09 13 11 33 .59       3     21      6     22     23   8.0  15.3  33972  286.39 0862.80
2015 04 09 13 11 33 .85       2     26      1     27     28   4.5   2.9  33970  286.37 0862.80
2015 04 09 13 11 34 .09       2     26      1     27     28   4.5   2.9  33970  286.37 0862.80
2015 04 09 13 11 34 .34      -2     20      1     21     22 352.0   4.9  33974  286.42 0862.80
2015 04 09 13 11 34 .59       0     18      0     19     20   0.9  -1.3  33978  286.51 0862.80
2015 04 09 13 11 34 .84      -1     17     -2     18     19 355.6  -7.2  33980  286.54 0862.80
2015 04 09 13 11 35 .10       4     20     -1     21     22  13.4  -3.1  33980  286.52 0862.80
2015 04 09 13 11 35 .35      -1     17     -2     18     19 355.6  -7.2  33976  286.47 0862.79
2015 04 09 13 11 35 .60       6     16      0     18     19  21.8   2.8  33970  286.35 0862.79
2015 04 09 13 11 35 .84      15      9      2     18     19  57.5   6.9  33970  286.37 0862.79
2015 04 09 13 11 36 .10      16      5      6     17     19  71.4  19.4  33984  286.61 0862.79
2015 04 09 13 11 36 .35      11      0      4     12     13  89.2  18.9  33994  286.76 0862.79
2015 04 09 13 11 36 .60       8      0      9      9     12  94.4  50.1  33990  286.71 0862.79
2015 04 09 13 11 36 .85       8     -1      9      9     12 101.5  50.1  33992  286.73 0862.79
2015 04 09 13 11 37 .11       3     -2     12      4     12 122.4  81.0  34020  287.21 0862.79
2015 04 09 13 11 37 .35      -2      4     16      5     16 327.5  80.7  34046  287.65 0862.79
2015 04 09 13 11 37 .60       0      0     12      1     12 315.0  90.0  34036  287.49 0862.79
2015 04 09 13 11 37 .85      -4     12     11     13     17 341.7  47.9  34022  287.23 0862.79
2015 04 09 13 11 38 .10      -2      4      9      5     10 327.5  68.8  34004  286.93 0862.79
2015 04 09 13 11 38 .35      -2     14      9     15     17 352.0  35.5  33998  286.83 0862.79
2015 04 09 13 11 38 .61       0     12      7     13     14   0.9  35.5  33998  286.84 0862.79
2015 04 09 13 11 38 .86       1     13      8     14     16   4.5  35.5  33998  286.84 0862.79
2015 04 09 13 11 39 .12       0     14      8     15     17 357.3  31.4  34006  286.96 0862.79
2015 04 09 13 11 39 .36      -3     11      1     12     13 341.3   6.9  34008  287.01 0862.79
2015 04 09 13 11 39 .61       0      5      7      6      9   4.5  48.2  33996  286.81 0862.79
2015 04 09 13 11 39 .87       2      7      2      8      9  18.5  19.2  33996  286.79 0862.79
2015 04 09 13 11 40 .11       0      8      0      9     10 355.5  -3.1  33996  286.79 0862.79
2015 04 09 13 11 40 .37      -3     11      1     12     13 341.3   6.9  33996  286.79 0862.79
2015 04 09 13 11 40 .62       1     12      0     13     14   4.5  -1.3  33994  286.76 0862.79
2015 04 09 13 11 40 .87      -9      0      9     10     13 270.8  52.0  33996  286.81 0862.79
2015 04 09 13 11 41 .12      -5     -4      7      7      9 230.5  50.1  34004  286.94 0862.79
2015 04 09 13 11 41 .37       4     -7      5      9     10 147.5  31.4  34006  286.98 0862.79
2015 04 09 13 11 41 .62      13     -4      0     14     15 108.4   2.9  34004  286.94 0862.79
2015 04 09 13 11 41 .88      28      9      9     30     32  71.4  17.3  33988  286.67 0862.78
2015 04 09 13 11 42 .12      40     13     -1     43     44  71.4  -2.2  33992  286.73 0862.78
2015 04 09 13 11 42 .37      39     25     12     47     49  57.5  14.3  33998  286.84 0862.78
2015 04 09 13 11 42 .63      31     41      1     52     53  37.8   1.8  34006  286.96 0862.78
2015 04 09 13 11 42 .88      23     30      1     38     39  37.8   2.9  34022  287.23 0862.78
2015 04 09 13 11 43 .12      21     32      5     39     40  32.6   8.0  34026  287.32 0862.78
2015 04 09 13 11 43 .38      26     34     18     43     46  37.8  23.0  34032  287.42 0862.78
2015 04 09 13 11 43 .62      22     34     21     41     46  32.5  29.3  34036  287.49 0862.78
2015 04 09 13 11 43 .88      26     28     28     39     48  43.2  38.6  34050  287.70 0862.78
2015 04 09 13 11 44 .12      25     33     25     42     48  37.8  34.4  34048  287.69 0862.78
2015 04 09 13 11 44 .38      21     26     34     34     48  39.6  50.1  34056  287.81 0862.78
2015 04 09 13 11 44 .63      14     30     41     34     53  25.4  56.3  34098  288.53 0862.78
2015 04 09 13 11 44 .88      11     34     45     36     57  18.5  56.4  34096  288.48 0862.78
2015 04 09 13 11 45 .12       0     35     44     36     56 359.1  56.4  34086  288.33 0862.78
2015 04 09 13 11 45 .39       2     36     30     37     47   4.5  43.7  34026  287.32 0862.78
2015 04 09 13 11 45 .64      -3     39     30     40     50 355.6  41.7  34028  287.33 0862.78
2015 04 09 13 11 45 .90      -9     50     36     51     62 349.3  39.5  34116  288.84 0862.78
2015 04 09 13 11 46 .14       0     53     46     54     70 359.1  43.8  34126  289.01 0862.78
2015 04 09 13 11 46 .40       7     43     48     44     65   9.8  52.2  34156  289.52 0862.78
2015 04 09 13 11 46 .64       4     40     45     41     60   6.2  52.2  34178  289.87 0862.78
2015 04 09 13 11 46 .89     -14     17     45     23     50 320.4  70.8  34162  289.60 0862.78
2015 04 09 13 11 47 .14      -2     28     47     29     55 355.5  64.7  34160  289.58 0862.78
2015 04 09 13 11 47 .40      -1     31     41     32     52 357.3  57.5  34200  290.25 0862.78
2015 04 09 13 11 47 .65      -8     25     36     27     45 341.7  59.4  34222  290.64 0862.78
2015 04 09 13 11 47 .89     -18     17     34     26     42 313.1  58.5  34214  290.48 0862.78
2015 04 09 13 11 48 .14       2      1     30      3     30  57.6  90.0  34216  290.53 0862.79
2015 04 09 13 11 48 .40      -2      5     30      6     30 334.6  89.0  34200  290.26 0862.79
2015 04 09 13 11 48 .65      -1      0     36      2     36 251.6  90.0  34200  290.26 0862.79
2015 04 09 13 11 48 .90       2     18     30     19     35   8.0  64.7  34132  289.09 0862.79
2015 04 09 13 11 49 .15       2      9     37     10     38  15.1  82.8  34140  289.23 0862.79
2015 04 09 13 11 49 .39      21      3     27     22     34  82.1  56.3  34124  288.96 0862.79
2015 04 09 13 11 49 .65      30     26     29     40     49  48.7  39.7  34104  288.62 0862.79
2015 04 09 13 11 49 .90      30     19     23     36     42  57.6  35.5  34094  288.47 0862.79
2015 04 09 13 11 50 .15       1      8     29      9     30  11.6  80.7  34122  288.92 0862.79
2015 04 09 13 11 50 .40      -1     -4     25      5     25 191.6  89.0  34134  289.14 0862.79
2015 04 09 13 11 50 .65       2      1     30      3     30  57.6  90.0  34128  289.04 0862.79
2015 04 09 13 11 50 .91       2      1     30      3     30  57.6  90.0  34134  289.14 0862.78
2015 04 09 13 11 51 .15       1      4     28      5     28  11.6  90.0  34156  289.50 0862.78
2015 04 09 13 11 51 .40       2      9     23     10     25  15.1  77.1  34136  289.18 0862.78
2015 04 09 13 11 51 .65       1      2     29      3     29  32.5  90.0  34122  288.92 0862.78
2015 04 09 13 11 51 .91      -5      1     27      6     27 288.4  89.0  34142  289.28 0862.78
2015 04 09 13 11 52 .15       0      1     32      2     32 341.5  90.0  34130  289.06 0862.78
2015 04 09 13 11 52 .42      -1      8     25      9     26 350.3  81.2  34128  289.04 0862.78
2015 04 09 13 11 52 .67      -7      0     25      8     26 265.6  80.7  34122  288.92 0862.78
2015 04 09 13 11 52 .91      -6      0     19      7     20 270.0  79.2  34126  289.01 0862.78
2015 04 09 13 11 53 .17      -9      9     23     14     26 315.0  64.7  34088  288.36 0862.78
2015 04 09 13 11 53 .42      -7      0     25      8     26 270.0  80.7  34116  288.82 0862.78
2015 04 09 13 11 53 .67      -6     18     34     19     38 341.5  68.8  34110  288.72 0862.78
2015 04 09 13 11 53 .92     -29     32     59     44     73 317.7  59.4  34086  288.31 0862.78
2015 04 09 13 11 54 .17     -25     38     48     46     66 326.6  50.1  34086  288.33 0862.78
2015 04 09 13 11 54 .42     -16     37     57     41     70 336.4  60.5  34110  288.72 0862.78
2015 04 09 13 11 54 .67     -17     55     49     58     75 342.2  43.8  33998  286.83 0862.78
2015 04 09 13 11 54 .92     -10     41     43     43     60 345.7  50.1  34006  286.96 0862.78
2015 04 09 13 11 55 .17     -18     41     34     45     56 336.4  40.7  34008  287.01 0862.78
2015 04 09 13 11 55 .42     -18     41     27     45     52 336.4  34.4  34004  286.93 0862.78
2015 04 09 13 11 55 .67     -24     50     29     56     63 334.5  29.3  33992  286.74 0862.78
2015 04 09 13 11 55 .93     -24     71     28     76     81 340.8  21.0  34006  286.98 0862.78
2015 04 09 13 11 56 .18     -23     78     47     82     94 343.1  32.9  34066  287.99 0862.78
2015 04 09 13 11 56 .43      -9     76     49     77     91 352.9  35.5  34130  289.08 0862.78
2015 04 09 13 11 56 .67      14     73     61     75     96  11.5  43.7  34160  289.58 0862.78
2015 04 09 13 11 56 .92       5     75     52     76     92   4.4  37.6  34134  289.14 0862.78
2015 04 09 13 11 57 .18     -15     74     45     76     88 348.5  33.5  34050  287.72 0862.78
2015 04 09 13 11 57 .43      -9     77     56     78     96 352.9  39.1  34062  287.92 0862.78
2015 04 09 13 11 57 .68     -26     87     54     92    106 343.1  33.5  34064  287.96 0862.78
2015 04 09 13 11 57 .92     -24     82     50     86     99 343.5  32.9  34048  287.67 0862.78
2015 04 09 13 11 58 .18     -31     62     50     70     86 333.7  39.1  34060  287.89 0862.78
2015 04 09 13 11 58 .42     -34     62     56     71     90 331.1  42.7  34076  288.16 0862.78
2015 04 09 13 11 58 .68     -26     78     54     83     99 341.5  36.0  34006  286.98 0862.78
2015 04 09 13 11 58 .93     -31     70     57     77     95 335.5  40.1  34014  287.11 0862.78
2015 04 09 13 11 59 .18     -34     54     32     65     72 327.5  27.3  34016  287.15 0862.78
2015 04 09 13 11 59 .44     -19     55     20     59     63 340.8  18.9  34026  287.32 0862.78
2015 04 09 13 11 59 .69     -61     21      3     65     66 289.1   2.9  34040  287.55 0862.78
2015 04 09 13 11 59 .95     -57     41    -18     71     74 306.0 -14.5  34036  287.49 0862.78
2015 04 09 13 12 00 .19     -65     36      3     75     76 298.9   2.9  34084  288.28 0862.78
2015 04 09 13 12 00 .45     -58     40     13     71     73 305.1  11.0  34066  287.99 0862.78
2015 04 09 13 12 00 .70     -27     83     39     88     96 341.5  25.7  34186  290.01 0862.78
2015 04 09 13 12 00 .94     -45     88     43     99    107 332.8  25.1  34148  289.36 0862.78
2015 04 09 13 12 01 .19     -49     53     32     73     79 316.8  24.6  34130  289.06 0862.78
2015 04 09 13 12 01 .45     -46     26     34     53     62 299.8  35.5  34136  289.16 0862.78
2015 04 09 13 12 01 .69     -40      4     14     41     44 277.0  19.2  34112  288.75 0862.78
2015 04 09 13 12 01 .94     -55     23    -10     60     61 293.5 -10.3  34050  287.72 0862.78
2015 04 09 13 12 02 .21     -41      5     34     42     54 277.9  43.7  34062  287.91 0862.78
2015 04 09 13 12 02 .45     -24      0     46     25     52 270.0  69.8  34124  288.96 0862.78
2015 04 09 13 12 02 .70      12    -29     25     32     40 156.4  41.7  34094  288.45 0862.79
2015 04 09 13 12 02 .95      25    -35      2     44     45 143.9   3.8  34064  287.94 0862.79
2015 04 09 13 12 03 .20      29    -32     21     44     48 137.7  26.2  34066  287.98 0862.79
2015 04 09 13 12 03 .46      18    -17     32     26     41 133.1  56.4  34082  288.26 0862.79
2015 04 09 13 12 03 .70       0      0     48      1     48  90.0  90.0  34126  288.99 0862.79
2015 04 09 13 12 03 .95      -2     -7     50      8     50 198.5  90.0  34158  289.55 0862.79
2015 04 09 13 12 04 .21     -28    -44     65     53     83 212.6  56.4  34148  289.36 0862.79
2015 04 09 13 12 04 .45     -33    -35     68     49     83 223.2  60.5  34164  289.65 0862.79
2015 04 09 13 12 04 .70       0    -47     74     48     88 180.9  64.1  34132  289.09 0862.79
2015 04 09 13 12 04 .96      -9    -35     64     37     73 195.1  67.7  34130  289.08 0862.79
2015 04 09 13 12 05 .21     -26    -56     48     63     79 205.3  41.2  34150  289.41 0862.79
2015 04 09 13 12 05 .45      12    -85     52     86    100 171.5  34.4  34096  288.50 0862.78
2015 04 09 13 12 05 .70     -17    -82     63     84    105 192.0  40.1  34086  288.31 0862.78
2015 04 09 13 12 05 .96     -15    -76     51     78     93 191.5  36.0  34090  288.40 0862.78
2015 04 09 13 12 06 .22     -42    -90     47    100    110 204.9  27.1  34112  288.77 0862.78
2015 04 09 13 12 06 .47     -29   -126     65    130    145 193.3  28.7  34154  289.46 0862.78
2015 04 09 13 12 06 .72     -57   -120     92    133    161 205.5  38.0  34186  290.01 0862.78
2015 04 09 13 12 06 .97     -34   -129     66    134    149 195.1  27.8  34154  289.46 0862.78
2015 04 09 13 12 07 .23     -24   -142     56    145    155 189.8  21.5  34154  289.46 0862.78
2015 04 09 13 12 07 .47     -36    -84     92     92    130 203.2  50.1  34192  290.11 0862.78
2015 04 09 13 12 07 .72     -36    -82     72     90    115 203.6  43.7  34168  289.72 0862.78
2015 04 09 13 12 07 .97     -30    -75     57     81     99 201.9  39.1  34136  289.16 0862.78
2015 04 09 13 12 08 .22     -24    -64     66     69     95 200.9  49.0  34134  289.14 0862.78
2015 04 09 13 12 08 .48     -22    -50     79     55     96 203.6  62.1  34214  290.50 0862.78
2015 04 09 13 12 08 .72      -8    -32     45     34     56 195.1  59.4  34186  290.02 0862.78
2015 04 09 13 12 08 .97      38      2     72     39     81  85.7  69.3  34118  288.86 0862.78
2015 04 09 13 12 09 .22      46      4     45     47     65  84.8  49.0  34080  288.21 0862.78
2015 04 09 13 12 09 .48      51     -7     36     52     63  98.8  38.6  34096  288.48 0862.78
2015 04 09 13 12 09 .72      53    -13     38     55     66 104.2  37.6  34138  289.21 0862.78
2015 04 09 13 12 09 .97      71      0     48     72     86  90.0  36.5  34094  288.45 0862.78
2015 04 09 13 12 10 .22      49      9     48     50     69  79.4  50.0  34080  288.23 0862.78
2015 04 09 13 12 10 .47      34     27     48     44     65  51.4  52.2  34056  287.81 0862.78
2015 04 09 13 12 10 .73      65     14     36     67     76  77.6  31.3  34060  287.87 0862.78
2015 04 09 13 12 10 .98      56     33     22     66     70  59.3  18.9  34016  287.15 0862.78
2015 04 09 13 12 11 .23      35     26     27     44     51  53.1  35.5  34016  287.15 0862.78
2015 04 09 13 12 11 .48       6     77     27     78     83   4.5  19.4  34034  287.45 0862.78
2015 04 09 13 12 11 .73      20    100     19    103    105  11.6  10.6  34018  287.16 0862.78
2015 04 09 13 12 11 .98      45     91     14    102    104  26.3   8.0  34022  287.23 0862.78
2015 04 09 13 12 12 .23      40     55     13     69     71  36.1  11.1  34028  287.35 0862.78
2015 04 09 13 12 12 .49      28     70     14     76     78  21.8  11.0  34044  287.62 0862.78
2015 04 09 13 12 12 .73      15     70     22     72     76  12.5  17.3  34050  287.70 0862.78
2015 04 09 13 12 12 .98      15     74      7     76     77  11.6   5.9  34050  287.72 0862.78
2015 04 09 13 12 13 .25      28     72     13     78     80  21.8   9.5  34080  288.21 0862.78
2015 04 09 13 12 13 .49      16     72     39     74     83  12.5  29.8  34080  288.23 0862.78
2015 04 09 13 12 13 .74      15     80     41     82     91  10.7  28.2  34092  288.43 0862.78
2015 04 09 13 12 13 .99      26     83     39     88     96  17.8  25.7  34068  288.03 0862.78
2015 04 09 13 12 14 .25       9     74     50     75     90   7.1  36.5  34086  288.31 0862.78
2015 04 09 13 12 14 .50       3     79     43     80     90   2.7  30.3  34116  288.82 0862.78
2015 04 09 13 12 14 .75     -17     78     63     80    101 347.5  42.7  34108  288.69 0862.78
2015 04 09 13 12 14 .99      10     69     52     70     87   8.9  40.7  34094  288.45 0862.78
2015 04 09 13 12 15 .25      -9     74     22     75     79 352.9  16.8  34066  287.99 0862.78
2015 04 09 13 12 15 .50     -15    128     45    129    137 352.9  19.4  34090  288.40 0862.78
2015 04 09 13 12 15 .75     -17    114     35    116    122 351.1  16.8  34072  288.08 0862.78
2015 04 09 13 12 16 .00      -2     92      0     93     94 358.2  -0.3  34058  287.86 0862.78
2015 04 09 13 12 16 .25     -16    116      0    118    119 352.0  -0.3  34038  287.50 0862.78
2015 04 09 13 12 16 .50     -55    122    -29    135    139 335.5 -12.4  34028  287.35 0862.78
2015 04 09 13 12 16 .75     -39    117    -16    124    126 341.3  -7.7  34032  287.40 0862.78
2015 04 09 13 12 17 .00     -29    110    -38    114    121 344.8 -18.7  34036  287.47 0862.78
2015 04 09 13 12 17 .26     -61    112    -31    128    132 331.5 -13.9  34052  287.76 0862.78
2015 04 09 13 12 17 .51     -40     94    -10    103    104 336.8  -5.6  34052  287.76 0862.78
2015 04 09 13 12 17 .75     -34     86    -11     93     94 338.2  -7.3  34048  287.67 0862.78
2015 04 09 13 12 18 .00     -19     97    -24     99    102 348.9 -13.9  34046  287.65 0862.78
2015 04 09 13 12 18 .26       0     83    -16     84     86   0.5 -10.9  34034  287.45 0862.78
2015 04 09 13 12 18 .50       0     92    -39     93    100 359.6 -28.5  34038  287.52 0862.78
2015 04 09 13 12 18 .76      31    102    -17    107    109  16.9  -9.3  34034  287.43 0862.78
2015 04 09 13 12 19 .00      36    103     -7    110    111  19.6  -3.7  34032  287.40 0862.78
2015 04 09 13 12 19 .25      37    112     -7    118    119  18.3  -3.7  34038  287.52 0862.78
2015 04 09 13 12 19 .51      52    103     -7    116    117  26.7  -3.7  34038  287.52 0862.78
2015 04 09 13 12 19 .76      55     90     -4    106    107  31.6  -2.2  34040  287.55 0862.78
2015 04 09 13 12 20 .01      55     90     -4    106    107  31.6  -2.2  34040  287.55 0862.78
2015 04 09 13 12 20 .27      48     77    -11     91     92  32.1  -7.2  34038  287.52 0862.78
2015 04 09 13 12 20 .52      48     87    -48    100    110  29.0 -31.7  34042  287.57 0862.78
2015 04 09 13 12 20 .77      45     92    -28    103    107  26.3 -15.4  34038  287.52 0862.78
2015 04 09 13 12 21 .02      78    114    -38    139    145  34.2 -15.4  34038  287.52 0862.78
2015 04 09 13 12 21 .28      69    123    -12    142    143  29.4  -5.2  34052  287.74 0862.78
2015 04 09 13 12 21 .52      67    142    -15    158    159  25.3  -5.6  34050  287.70 0862.78
2015 04 09 13 12 21 .77      94    129    -15    160    161  36.1  -5.6  34044  287.60 0862.79
2015 04 09 13 12 22 .03      95    122     -3    155    156  37.9  -1.3  34052  287.76 0862.79
2015 04 09 13 12 22 .27      95    120     -3    154    155  38.3  -1.3  34046  287.65 0862.79
2015 04 09 13 12 22 .53     104    135    -14    171    172  37.6  -4.9  34044  287.62 0862.79
2015 04 09 13 12 22 .78      76    147     23    166    168  27.6   8.0  34056  287.81 0862.79
2015 04 09 13 12 23 .02      70    136    -11    154    155  27.2  -4.1  34030  287.38 0862.79
2015 04 09 13 12 23 .28      81    128     -8    152    153  32.5  -3.2  34022  287.25 0862.79
2015 04 09 13 12 23 .52      79    118    -23    143    145  33.8  -9.3  34028  287.35 0862.79
2015 04 09 13 12 23 .78      68    108    -30    128    132  32.1 -13.4  34034  287.45 0862.79
2015 04 09 13 12 24 .03      72     98    -21    122    124  36.5  -9.8  34052  287.74 0862.79
2015 04 09 13 12 24 .28      71     86     -3    112    113  39.6  -1.8  34052  287.74 0862.79
2015 04 09 13 12 24 .53      69     73      3    101    102  43.2   1.8  34048  287.67 0862.79
2015 04 09 13 12 24 .78      69     83      8    109    110  39.6   4.4  34040  287.55 0862.79
2015 04 09 13 12 25 .03      78     97     15    125    126  38.7   6.9  34032  287.42 0862.79
2015 04 09 13 12 25 .28      80    100     25    129    132  38.7  11.1  34044  287.62 0862.79
2015 04 09 13 12 25 .54      68    106     29    127    131  32.6  13.2  34072  288.08 0862.79
2015 04 09 13 12 25 .78      23    136     48    138    147   9.7  19.4  34064  287.96 0862.79
2015 04 09 13 12 26 .03     -19    161     40    163    168 353.3  13.9  34086  288.31 0862.79
2015 04 09 13 12 26 .28     -20    142     28    144    147 352.0  11.0  34086  288.31 0862.79
2015 04 09 13 12 26 .53     -24    157     20    159    161 351.1   7.2  34158  289.55 0862.79
2015 04 09 13 12 26 .79     -14    173     22    174    176 355.1   7.2  34118  288.87 0862.79
2015 04 09 13 12 27 .04     -18    132     26    134    137 352.0  11.0  34150  289.40 0862.79
2015 04 09 13 12 27 .30     -13    146     23    147    149 354.7   9.0  34140  289.24 0862.79
2015 04 09 13 12 27 .54     -56    124    -13    137    138 335.5  -5.6  34172  289.77 0862.79
2015 04 09 13 12 27 .80     -35    138     -3    143    144 345.7  -1.3  34110  288.74 0862.79
2015 04 09 13 12 28 .05     -41    133     -3    140    141 342.6  -1.3  34120  288.91 0862.79
2015 04 09 13 12 28 .30     -43    134     -5    141    142 342.2  -2.2  34126  289.01 0862.80
2015 04 09 13 12 28 .55     -36    127     59    133    145 344.0  25.2  34130  289.06 0862.80
2015 04 09 13 12 28 .80     -31    126     -2    130    131 346.2  -1.2  34126  288.99 0862.80
2015 04 09 13 12 29 .05     -50    103    -14    115    116 334.1  -7.2  34116  288.84 0862.80
2015 04 09 13 12 29 .30     -65    127      7    143    144 332.9   2.9  34100  288.55 0862.80
2015 04 09 13 12 29 .55     -72    141     18    159    161 332.9   6.7  34102  288.58 0862.80
2015 04 09 13 12 29 .80     -71    142    -15    160    161 333.3  -5.6  34014  287.11 0862.80
2015 04 09 13 12 30 .05     -53    134     -5    145    146 338.2  -2.2  34012  287.08 0862.80
2015 04 09 13 12 30 .31     -24    118     10    121    122 348.4   4.9  34032  287.40 0862.80
2015 04 09 13 12 30 .56     -20     97     40    100    107 348.4  23.0  34076  288.14 0862.80
2015 04 09 13 12 30 .80     -43    111     50    120    130 338.6  24.1  34146  289.33 0862.80
2015 04 09 13 12 31 .06       3    162     57    163    173   1.4  19.4  34258  291.25 0862.79
2015 04 09 13 12 31 .30     -49    163     81    171    189 343.3  27.2  34218  290.57 0862.79
2015 04 09 13 12 31 .56       3    243     10    244    245   0.9   2.5  34140  289.22 0862.79
2015 04 09 13 12 31 .81     -33    258     91    261    277 352.7  19.2  34232  290.78 0862.79
2015 04 09 13 12 32 .06     -64    238    109    247    269 344.8  25.3  34084  288.27 0862.79
2015 04 09 13 12 32 .31     -25    246     65    248    257 354.0  14.7  34068  288.00 0862.79
2015 04 09 13 12 32 .56     -72    265     91    275    290 344.8  18.4  34040  287.53 0862.79
2015 04 09 13 12 32 .81      40    286     39    289    292   8.1   7.8  34012  287.07 0862.79
2015 04 09 13 12 33 .06       2    173    -40    174    179   0.9 -13.2  34020  287.20 0862.79
2015 04 09 13 12 33 .31      -4    165    -58    166    175 358.6 -24.0  34030  287.38 0862.79
2015 04 09 13 12 33 .56    -112    194    -45    225    230 329.9 -11.5  34024  287.28 0862.79
2015 04 09 13 12 33 .81      56     91    -61    108    124  31.6 -36.3  34022  287.25 0862.79
2015 04 09 13 12 34 .07     -75    118    -42    141    147 327.5 -21.7  34032  287.40 0862.79
2015 04 09 13 12 34 .33    -111     69    -43    131    137 302.0 -23.8  34028  287.35 0862.79
2015 04 09 13 12 34 .57    -202    137    -18    245    246 304.1  -4.4  34034  287.44 0862.80
2015 04 09 13 12 34 .83     -87     98     15    132    133 318.6   6.9  34044  287.60 0862.80
2015 04 09 13 12 35 .07     -80    171    -56    189    197 334.8 -21.2  34006  286.98 0862.80
2015 04 09 13 12 35 .32     -90    174    -27    196    198 332.6  -8.0  34012  287.08 0862.80
2015 04 09 13 12 35 .58     -51    168    -22    176    178 343.1  -7.3  33984  286.59 0862.80
2015 04 09 13 12 35 .83     -94    104    -25    141    144 317.7 -10.3  34022  287.23 0862.80
2015 04 09 13 12 36 .08    -134    113    -96    176    200 310.0 -35.4  33998  286.83 0862.80
2015 04 09 13 12 36 .33    -113    101    -90    152    176 311.8 -37.5  33980  286.54 0862.80
2015 04 09 13 12 36 .58    -108    101    -92    149    175 313.1 -39.4  33944  285.93 0862.80
2015 04 09 13 12 36 .83     -83    113   -127    141    189 323.5 -51.3  33946  285.97 0862.80
2015 04 09 13 12 37 .08     -43    118    -96    126    158 340.0 -45.6  33964  286.25 0862.80
2015 04 09 13 12 37 .33     -36     66    -76     76    107 331.0 -54.5  33980  286.54 0862.80
2015 04 09 13 12 37 .58      12     58    -61     60     85  11.6 -54.1  33996  286.81 0862.80
2015 04 09 13 12 37 .83      35    108    -22    114    117  18.3 -11.3  34038  287.52 0862.80
2015 04 09 13 12 38 .08      42    125     -5    133    134  18.7  -2.2  34034  287.43 0862.80
2015 04 09 13 12 38 .33      13    110      2    111    112   7.1   1.2  34020  287.20 0862.80
2015 04 09 13 12 38 .58      26     78     16     83     85  18.7  11.1  34012  287.06 0862.80
2015 04 09 13 12 38 .83      -2     94     43     95    104 358.2  26.2  34008  287.01 0862.80
2015 04 09 13 12 39 .09     -26     85     48     90    102 342.6  30.8  34024  287.28 0862.80
2015 04 09 13 12 39 .33      -4     89     47     90    101 357.3  29.8  34012  287.06 0862.80
2015 04 09 13 12 39 .59      -2    101     57    102    116 358.6  31.4  34018  287.16 0862.80
2015 04 09 13 12 39 .84      -2    128     63    129    143 359.0  27.8  34038  287.50 0862.80
2015 04 09 13 12 40 .09      -7    144     86    145    168 356.9  33.5  34046  287.64 0862.80
2015 04 09 13 12 40 .33      -6    158     61    159    170 357.8  22.0  34034  287.43 0862.80
2015 04 09 13 12 40 .59     -15    141     47    142    150 353.8  18.4  34026  287.30 0862.80
2015 04 09 13 12 40 .84     -18    141     27    143    146 352.4  11.0  34028  287.35 0862.80
2015 04 09 13 12 41 .10     -12    161     16    162    163 355.6   5.9  34024  287.27 0862.80
2015 04 09 13 12 41 .35      -4    128      6    129    130 358.2   2.9  34024  287.28 0862.80
2015 04 09 13 12 41 .60       0    112     28    113    117   0.5  14.3  34020  287.20 0862.80
2015 04 09 13 12 41 .85      -9    120     28    121    125 355.5  13.2  34024  287.27 0862.80
2015 04 09 13 12 42 .10     -45    136     25    144    147 341.7  10.1  34022  287.25 0862.80
2015 04 09 13 12 42 .35     -37    109    -19    116    118 341.3  -9.3  34018  287.16 0862.80
2015 04 09 13 12 42 .60      -8    126    -11    127    128 356.0  -5.2  34016  287.13 0862.80
2015 04 09 13 12 42 .85      -8    116    -13    117    118 355.6  -6.7  34016  287.13 0862.80
2015 04 09 13 12 43 .10     -16    112      5    114    115 351.9   2.9  34016  287.15 0862.80
2015 04 09 13 12 43 .36     -23    106     -2    109    110 347.5  -1.2  34028  287.33 0862.80
2015 04 09 13 12 43 .60     -31    124     37    128    134 345.7  16.3  34044  287.60 0862.80
2015 04 09 13 12 43 .86     -33    129     26    134    137 345.7  11.0  34076  288.16 0862.80
2015 04 09 13 12 44 .10     -30    131     35    135    140 346.7  14.7  34076  288.14 0862.80
2015 04 09 13 12 44 .36     -40    142     17    148    150 344.0   6.9  34074  288.13 0862.80
2015 04 09 13 12 44 .61     -31    152     40    156    162 348.4  14.5  34096  288.48 0862.80
2015 04 09 13 12 44 .86     -26    213      8    215    216 352.9   2.3  34042  287.57 0862.80
2015 04 09 13 12 45 .11       0    138     38    139    145   0.0  15.3  34106  288.65 0862.80
2015 04 09 13 12 45 .36     -63    150     41    163    169 337.1  14.3  34128  289.04 0862.80
2015 04 09 13 12 45 .61     -48    204     13    210    211 346.7   3.8  34112  288.77 0862.79
2015 04 09 13 12 45 .86     -48    238     57    244    251 348.4  13.2  34144  289.31 0862.79
2015 04 09 13 12 46 .11     -32    260     20    263    264 352.9   4.4  34128  289.03 0862.79
2015 04 09 13 12 46 .35     -56    252      3    259    260 347.5   0.8  34040  287.55 0862.79
2015 04 09 13 12 46 .62     -14    213    -11    214    215 356.2  -3.2  34056  287.81 0862.79
2015 04 09 13 12 46 .86      -4    249     30    250    252 359.0   6.9  34120  288.90 0862.79
2015 04 09 13 12 47 .11      -7    198     21    199    201 357.8   6.1  34150  289.41 0862.79
2015 04 09 13 12 47 .36     -32    157    -19    161    163 348.4  -6.7  34146  289.33 0862.80
2015 04 09 13 12 47 .62     -89    131    -19    159    161 325.7  -6.9  34080  288.21 0862.80
2015 04 09 13 12 47 .87     -72    112    -40    134    140 327.4 -16.6  34098  288.53 0862.80
2015 04 09 13 12 48 .13     -54    113     23    126    129 334.5  10.6  34148  289.36 0862.80
2015 04 09 13 12 48 .37     -29    117     28    121    125 345.7  13.2  34126  288.99 0862.80
2015 04 09 13 12 48 .63     -37    148     10    153    154 345.7   3.8  34154  289.46 0862.80
2015 04 09 13 12 48 .87     -53    131     51    142    150 338.1  20.0  34132  289.11 0862.80
2015 04 09 13 12 49 .12    -126    108    -32    167    171 310.7 -10.9  34028  287.33 0862.79
2015 04 09 13 12 49 .37     -68    143    -58    159    169 334.6 -25.1  34002  286.91 0862.79
2015 04 09 13 12 49 .63     -59    148    -56    160    169 338.2 -24.0  33976  286.46 0862.79
2015 04 09 13 12 49 .87     -54    134    -52    145    154 338.1 -24.4  33972  286.41 0862.79
2015 04 09 13 12 50 .13     -25    126    -52    129    139 348.4 -27.4  33978  286.51 0862.79
2015 04 09 13 12 50 .38     -18    115    -38    117    123 350.7 -23.3  33978  286.51 0862.79
2015 04 09 13 12 50 .63     -10    123    -41    124    131 355.1 -18.7  33984  286.59 0862.79
2015 04 09 13 12 50 .88     -15    111    -31    113    118 351.9 -15.5  33974  286.42 0862.79
2015 04 09 13 12 51 .13     -30    110    -14    115    116 344.8  -7.3  33970  286.37 0862.79
2015 04 09 13 12 51 .38     -23     98    -13    101    102 346.6  -7.7  33978  286.49 0862.79
2015 04 09 13 12 51 .63     -14     95    -22     97    100 351.1 -12.9  33980  286.52 0862.79
2015 04 09 13 12 51 .88     -14     90    -11     92     93 351.1  -7.3  33978  286.51 0862.79
2015 04 09 13 12 52 .13     -18     89    -10     91     92 348.4  -6.7  33986  286.64 0862.79
2015 04 09 13 12 52 .38     -32     96     -4    102    103 341.5  -2.2  33990  286.71 0862.79
2015 04 09 13 12 52 .63     -16    103     -1    105    106 351.1  -0.7  33990  286.69 0862.79
2015 04 09 13 12 52 .88     -19     97     -3     99    100 348.9  -2.2  33992  286.73 0862.79
2015 04 09 13 12 53 .13     -22    100     -4    103    104 347.5  -2.2  33994  286.78 0862.79
2015 04 09 13 12 53 .39     -33    122      1    127    128 344.9   0.8  33996  286.79 0862.79
2015 04 09 13 12 53 .64     -37    125     -5    131    132 343.5  -2.2  34006  286.96 0862.79
2015 04 09 13 12 53 .89     -40    133     -3    140    141 343.1  -1.3  34026  287.30 0862.79
2015 04 09 13 12 54 .14     -44    158     -3    165    166 344.4  -1.3  34072  288.08 0862.79
2015 04 09 13 12 54 .39     -36    154     20    159    161 346.6   7.2  34088  288.36 0862.79
2015 04 09 13 12 54 .64     -35    198     51    202    209 349.8  14.3  34164  289.63 0862.79
2015 04 09 13 12 54 .89       1    167     61    168    178   0.5  20.7  34154  289.46 0862.79
2015 04 09 13 12 55 .15     -12    157     83    158    178 355.6  30.1  34164  289.63 0862.79
2015 04 09 13 12 55 .40       4    151     86    152    174   1.8  32.4  34074  288.11 0862.79
2015 04 09 13 12 55 .65      -3    145     83    146    167 358.6  32.1  34056  287.81 0862.79
2015 04 09 13 12 55 .91     -29    108     99    112    149 344.9  45.8  34096  288.48 0862.79
2015 04 09 13 12 56 .15     -58     99     59    115    129 329.7  29.3  34164  289.65 0862.79
2015 04 09 13 12 56 .40     -92     96    -26    134    137 316.3 -11.3  34062  287.92 0862.79
2015 04 09 13 12 56 .66     -92     59     -3    110    111 302.5  -1.8  34058  287.84 0862.79
2015 04 09 13 12 56 .91     -68     72      0    100    101 316.8  -0.3  34090  288.38 0862.79
2015 04 09 13 12 57 .15     -33     76     -3     84     85 336.4  -2.2  34102  288.60 0862.78
2015 04 09 13 12 57 .41     -33     72    -15     80     82 335.5 -10.9  34096  288.48 0862.78
2015 04 09 13 12 57 .66     -42     76     19     87     90 331.0  12.6  34112  288.75 0862.78
2015 04 09 13 12 57 .91     -31     74      5     81     82 337.3   3.8  34142  289.26 0862.78
2015 04 09 13 12 58 .16     -37     83     -2     91     92 335.9  -1.3  34132  289.09 0862.78
2015 04 09 13 12 58 .40     -34     91      0     98     99 339.5  -0.3  34042  287.59 0862.78
2015 04 09 13 12 58 .65     -87     93    -31    128    132 316.8 -13.9  34036  287.49 0862.78
2015 04 09 13 12 58 .91     -62     99    -18    117    119 327.9  -8.8  34032  287.42 0862.78
2015 04 09 13 12 59 .16     -50    113    -16    124    126 335.9  -7.3  34024  287.28 0862.78
2015 04 09 13 12 59 .41     -65    127    -38    143    149 332.9 -15.0  34036  287.49 0862.78
2015 04 09 13 12 59 .66     -83    131    -33    156    160 327.5 -12.2  34036  287.49 0862.78
2015 04 09 13 12 59 .91     -77    141    -35    161    165 331.1 -12.4  34038  287.52 0862.78
2015 04 09 13 13 00 .16     -95    144    -34    173    177 326.4 -11.3  34038  287.52 0862.78
2015 04 09 13 13 00 .41     -98     98    -28    140    143 315.0 -11.5  34044  287.62 0862.78
2015 04 09 13 13 00 .66     -98    132    -37    165    170 323.5 -12.6  34036  287.49 0862.78
2015 04 09 13 13 00 .91     -81    141    -32    163    167 330.1 -11.1  34040  287.54 0862.78
2015 04 09 13 13 01 .16     -74    144    -24    162    164 332.8  -8.6  34030  287.37 0862.78
2015 04 09 13 13 01 .41     -59    147     -5    159    160 338.1  -2.1  34028  287.35 0862.78
2015 04 09 13 13 01 .68     -35    143     14    148    149 346.2   5.4  34032  287.42 0862.78
2015 04 09 13 13 01 .92     -45    134      6    142    143 341.3   2.8  34028  287.35 0862.79
2015 04 09 13 13 02 .17     -28    140     13    143    144 348.4   5.4  34032  287.42 0862.79
2015 04 09 13 13 02 .42     -23    130     11    133    134 349.8   5.0  34024  287.27 0862.79
2015 04 09 13 13 02 .67     -21    145    -13    147    148 351.5  -5.2  34022  287.25 0862.79
2015 04 09 13 13 02 .93     -20    146      7    148    149 352.0   2.8  34028  287.33 0862.79
2015 04 09 13 13 03 .18     -32    157     -3    161    162 348.5  -1.3  34028  287.33 0862.79
2015 04 09 13 13 03 .43     -23    157    -15    159    160 351.5  -5.6  34020  287.21 0862.79
2015 04 09 13 13 03 .68     -25    135      1    138    139 349.3   0.8  34026  287.32 0862.79
2015 04 09 13 13 03 .93     -45    142      6    150    151 342.2   2.3  34026  287.30 0862.79
2015 04 09 13 13 04 .18     -36    153     -3    158    159 346.6  -1.1  34024  287.27 0862.79
2015 04 09 13 13 04 .43     -41    147     -6    153    154 344.4  -2.2  34024  287.27 0862.79
2015 04 09 13 13 04 .68     -39    158    -11    163    164 346.0  -4.1  34026  287.32 0862.79
2015 04 09 13 13 04 .93     -34    143    -13    147    148 346.6  -5.2  34026  287.30 0862.79
2015 04 09 13 13 05 .18     -45    129    -17    137    139 340.8  -7.3  34026  287.30 0862.79
2015 04 09 13 13 05 .43     -28    139    -12    142    143 348.4  -5.1  34028  287.35 0862.78
2015 04 09 13 13 05 .68     -55    139    -30    150    154 338.2 -11.3  34028  287.35 0862.78
2015 04 09 13 13 05 .93     -55    156    -30    166    169 340.4 -10.3  34030  287.37 0862.78
2015 04 09 13 13 06 .19     -59    148    -52    160    169 338.1 -17.9  34052  287.74 0862.78
2015 04 09 13 13 06 .44     -73    136    -56    155    164 331.5 -24.6  34056  287.82 0862.78
2015 04 09 13 13 06 .68     -98    128    -44    162    168 322.6 -15.2  34050  287.70 0862.78
2015 04 09 13 13 06 .94    -103    106    -25    148    151 315.9  -9.8  34046  287.65 0862.78
2015 04 09 13 13 07 .19    -111    134    -35    175    179 320.4 -11.3  34066  287.99 0862.78
2015 04 09 13 13 07 .44     -86    159    -23    182    184 331.5  -7.5  34070  288.04 0862.78
2015 04 09 13 13 07 .69     -76    139     -5    159    160 331.1  -2.1  34070  288.04 0862.78
2015 04 09 13 13 07 .94     -39    159    -11    164    165 346.2  -4.1  34066  287.98 0862.78
2015 04 09 13 13 08 .19     -44    132     21    140    142 341.5   8.9  34068  288.01 0862.78
2015 04 09 13 13 08 .44     -26    130     23    133    136 348.4  10.1  34078  288.18 0862.78
2015 04 09 13 13 08 .69     -16    139      6    140    141 353.3   2.8  34060  287.89 0862.78
2015 04 09 13 13 08 .95     -34    135      0    140    141 345.7  -0.3  34060  287.89 0862.78
2015 04 09 13 13 09 .20     -45    150     11    157    158 343.1   4.2  34066  287.98 0862.78
2015 04 09 13 13 09 .45     -57    168     -8    178    179 341.3  -2.8  34066  287.99 0862.78
2015 04 09 13 13 09 .71     -48    148    -27    156    159 341.7  -9.8  34058  287.86 0862.78
2015 04 09 13 13 09 .95     -43    128    -40    136    142 341.3 -16.6  34076  288.16 0862.78
2015 04 09 13 13 10 .21     -78     73    -30    108    113 313.1 -15.5  34122  288.92 0862.78
2015 04 09 13 13 10 .46     -80     60     27    101    105 306.9  15.3  34136  289.18 0862.78
2015 04 09 13 13 10 .71     -48     48     61     69     92 315.0  46.4  34148  289.36 0862.78
2015 04 09 13 13 10 .95     -52     66     49     85     98 321.7  32.9  34186  290.02 0862.78
2015 04 09 13 13 11 .20     -55     88     16    105    107 327.9   9.0  34148  289.38 0862.78
2015 04 09 13 13 11 .45     -38    100     -4    108    109 339.1  -2.2  34102  288.58 0862.78
2015 04 09 13 13 11 .71     -53    103      2    116    117 332.8   1.2  34122  288.94 0862.78
2015 04 09 13 13 11 .96     -38     59     30     71     77 327.4  23.1  34142  289.26 0862.78
2015 04 09 13 13 12 .22     -56     31    -22     65     68 298.8 -23.6  34154  289.46 0862.78
2015 04 09 13 13 12 .46     -61     28     -2     68     69 294.4  -2.2  34166  289.69 0862.78
2015 04 09 13 13 12 .71    -103     65    -15    123    125 302.4  -7.3  34148  289.36 0862.78
2015 04 09 13 13 12 .96    -113     56    -16    127    129 296.6  -7.3  34094  288.47 0862.78
2015 04 09 13 13 13 .21    -130     67    -29    147    150 297.5 -11.3  34120  288.91 0862.78
2015 04 09 13 13 13 .46    -175     32    -23    178    180 280.6  -7.5  34118  288.86 0862.78
2015 04 09 13 13 13 .71    -204     65    -38    215    219 287.7 -10.1  34074  288.13 0862.78
2015 04 09 13 13 13 .96    -159    124     -7    203    204 308.0  -2.2  34096  288.50 0862.78
2015 04 09 13 13 14 .22    -165    105    -54    196    204 302.4 -15.5  34122  288.92 0862.78
2015 04 09 13 13 14 .46    -177    104    -39    206    210 300.4 -10.9  34090  288.40 0862.79
2015 04 09 13 13 14 .72    -178     83     -7    197    198 295.2  -2.2  34076  288.16 0862.79
2015 04 09 13 13 14 .97    -173     95    -32    198    201 298.9  -9.4  34096  288.50 0862.79
2015 04 09 13 13 15 .22    -167    195    -18    257    258 319.4  -4.1  34106  288.66 0862.79
2015 04 09 13 13 15 .47    -109     61    -37    125    131 299.3 -16.6  34106  288.67 0862.79
2015 04 09 13 13 15 .72    -160    138    -41    212    217 310.7 -11.1  34082  288.25 0862.79
2015 04 09 13 13 15 .98    -100     45     13    110    111 294.4   7.1  34086  288.33 0862.79
2015 04 09 13 13 16 .23     -61    -21     -1     65     66 250.9  -1.3  34088  288.36 0862.78
2015 04 09 13 13 16 .48    -250    203    -42    323    326 309.1  -7.5  34044  287.61 0862.78
2015 04 09 13 13 16 .73    -376    198    -45    425    428 297.8  -6.1  34042  287.57 0862.78
2015 04 09 13 13 16 .98    -374    148    -88    403    413 291.7 -12.4  34044  287.62 0862.78
2015 04 09 13 13 17 .23    -355     65    -84    362    372 280.5 -13.2  34054  287.79 0862.78
2015 04 09 13 13 17 .48    -371    119    -67    390    396 287.8  -9.9  34028  287.34 0862.78
2015 04 09 13 13 17 .73    -359    137    -63    385    391 291.0  -9.3  34028  287.34 0862.78
2015 04 09 13 13 17 .98    -308    138    -35    338    340 294.2  -6.1  34040  287.54 0862.78
2015 04 09 13 13 18 .23    -323    130    -72    349    357 292.0 -11.8  34044  287.62 0862.78
2015 04 09 13 13 18 .48    -283    -21    -32    284    286 265.6  -6.5  34082  288.24 0862.78
2015 04 09 13 13 18 .74     -89    -25     90     93    129 254.1  49.4  34070  288.04 0862.78
2015 04 09 13 13 18 .98    -114    125    -23    170    172 317.7  -8.0  34060  287.89 0862.78
2015 04 09 13 13 19 .23    -241     80    -50    255    260 288.4 -11.1  34048  287.66 0862.78
2015 04 09 13 13 19 .49    -269     58    -39    276    279 282.3  -8.2  34028  287.34 0862.78
2015 04 09 13 13 19 .74    -216      9     -8    217    218 272.4  -2.1  34038  287.52 0862.78
2015 04 09 13 13 19 .99    -242      0    -62    243    251 270.1 -14.5  34040  287.53 0862.78
2015 04 09 13 13 20 .24    -174     45    -34    180    184 284.8 -10.9  34056  287.82 0862.78
2015 04 09 13 13 20 .49    -181     17    -65    182    194 275.5 -19.7  34054  287.79 0862.78
2015 04 09 13 13 20 .74    -279     26    -56    281    287 275.5 -11.3  34042  287.56 0862.78
2015 04 09 13 13 20 .99    -299     85    -26    311    313 285.9  -4.9  34038  287.50 0862.78
2015 04 09 13 13 21 .24    -342     96   -116    356    375 285.7 -18.0  33980  286.54 0862.78
2015 04 09 13 13 21 .49    -333     92   -123    346    368 285.5 -19.6  33994  286.76 0862.78
2015 04 09 13 13 21 .74    -313    104    -91    330    343 288.4 -15.5  33990  286.69 0862.78
2015 04 09 13 13 21 .99    -289    126    -70    316    324 293.5 -12.6  34002  286.90 0862.78
2015 04 09 13 13 22 .24    -269     83    -40    282    285 287.3  -8.2  34004  286.92 0862.78
2015 04 09 13 13 22 .49    -315     82    -66    326    333 284.6 -11.6  34022  287.25 0862.78
2015 04 09 13 13 22 .76    -275     72    -41    285    288 284.8  -8.2  34028  287.34 0862.78
2015 04 09 13 13 23 .01    -254     95    -36    272    275 290.6  -7.7  34054  287.78 0862.78
2015 04 09 13 13 23 .25    -210    114    -31    240    243 298.6  -7.5  34064  287.95 0862.78
2015 04 09 13 13 23 .51    -176     44    -35    182    186 284.2 -10.9  34048  287.67 0862.78
2015 04 09 13 13 23 .75    -176     13    -48    177    184 274.3 -15.4  34060  287.87 0862.78
2015 04 09 13 13 24 .01    -151    -38    -28    156    159 255.8 -10.5  34042  287.57 0862.78
2015 04 09 13 13 24 .26    -267     40    -29    271    273 278.6  -6.2  34010  287.02 0862.78
2015 04 09 13 13 24 .51    -180    102     -4    207    208 299.5  -1.1  34016  287.13 0862.77
2015 04 09 13 13 24 .76    -137     -7     62    138    151 267.0  26.2  34064  287.96 0862.77
2015 04 09 13 13 25 .01    -226   -112    -19    253    254 243.6  -4.4  34062  287.92 0862.77
2015 04 09 13 13 25 .26    -117    -23      3    120    121 258.6   1.8  34104  288.62 0862.77
2015 04 09 13 13 25 .51    -142     -5      7    143    144 267.9   2.9  34112  288.77 0862.77
2015 04 09 13 13 25 .76     -99      7     10    100    101 274.4   5.9  34100  288.55 0862.77
2015 04 09 13 13 26 .01    -240     99    -47    260    265 292.4 -10.4  34084  288.27 0862.77
2015 04 09 13 13 26 .26    -140   -125     72    189    202 228.2  21.7  34080  288.21 0862.77
2015 04 09 13 13 26 .51     -64    -63     85     90    123 225.4  48.5  34074  288.11 0862.77
2015 04 09 13 13 26 .77     -56    -20     18     60     63 250.0  17.3  34076  288.16 0862.77
2015 04 09 13 13 27 .01     -30     -9     29     32     43 253.2  47.9  34110  288.72 0862.77
2015 04 09 13 13 27 .26     -39   -114     53    121    132 199.2  25.1  34044  287.62 0862.77
2015 04 09 13 13 27 .52    -271     59     -1    278    279 282.4  -0.3  34012  287.07 0862.77
2015 04 09 13 13 27 .77    -368    137    -72    393    400 290.5 -10.4  34010  287.02 0862.77
2015 04 09 13 13 28 .02    -200     38     40    204    208 281.0  11.1  34038  287.50 0862.77
2015 04 09 13 13 28 .27    -366    166    -54    402    406 294.4  -7.7  34078  288.17 0862.77
2015 04 09 13 13 28 .52    -309    169    -44    353    356 298.8  -7.2  34064  287.94 0862.77
2015 04 09 13 13 28 .77    -231    146    -18    274    275 302.2  -3.9  34062  287.92 0862.77
2015 04 09 13 13 29 .02    -268    201    -17    335    336 306.9  -3.0  34048  287.67 0862.77
2015 04 09 13 13 29 .27    -232    140    -36    272    275 301.1  -7.7  34080  288.22 0862.77
2015 04 09 13 13 29 .52    -296    143    -34    329    331 295.9  -5.9  34070  288.05 0862.77
2015 04 09 13 13 29 .78    -268    201    -42    335    338 306.9  -7.2  34068  288.03 0862.76
2015 04 09 13 13 30 .03    -205    179    -20    273    274 311.1  -4.4  34072  288.09 0862.76
2015 04 09 13 13 30 .28    -195    180    -57    266    273 312.7 -12.2  34066  287.99 0862.76
2015 04 09 13 13 30 .53    -169    140    -43    220    225 309.8 -11.1  34066  287.99 0862.76
2015 04 09 13 13 30 .78    -154     71    -42    170    176 294.8 -13.9  34066  287.98 0862.76
2015 04 09 13 13 31 .03     -78     85    -13    116    117 317.7  -6.7  34086  288.31 0862.76
2015 04 09 13 13 31 .29     -87    112    -31    142    146 322.1 -12.4  34100  288.55 0862.76
2015 04 09 13 13 31 .54    -122    193    114    229    255 327.7  28.2  34176  289.83 0862.76
2015 04 09 13 13 31 .79     -72    245     18    256    257 343.5   4.2  34152  289.42 0862.76
2015 04 09 13 13 32 .04     -63    189     11    200    201 341.5   3.3  34170  289.75 0862.76
2015 04 09 13 13 32 .29     -85    181     -7    201    202 334.7  -2.2  34192  290.11 0862.76
2015 04 09 13 13 32 .54    -129    148     73    197    210 319.0  21.0  34194  290.14 0862.76
2015 04 09 13 13 32 .78     -84    302      0    314    315 344.4   0.1  34094  288.46 0862.76
2015 04 09 13 13 33 .04     -60    297    -29    304    306 348.4  -5.6  34094  288.46 0862.76
2015 04 09 13 13 33 .29     -88    275    -36    289    292 342.2  -7.2  34104  288.63 0862.76
2015 04 09 13 13 33 .54    -149    249    -63    291    298 329.2 -12.4  34102  288.58 0862.76
2015 04 09 13 13 33 .79    -110    273     -2    295    296 338.1  -0.5  34110  288.73 0862.76
2015 04 09 13 13 34 .04     -96    282    -16    299    300 341.1  -3.2  34152  289.42 0862.76
2015 04 09 13 13 34 .29    -133    311      5    339    340 336.8   0.9  34156  289.52 0862.76
2015 04 09 13 13 34 .54     -86    338     51    349    353 345.7   8.3  34086  288.32 0862.76
2015 04 09 13 13 34 .79    -140    332    -48    361    365 337.1  -7.7  33936  285.80 0862.76
2015 04 09 13 13 35 .05    -108    331     13    349    350 341.9   2.2  34028  287.34 0862.76
2015 04 09 13 13 35 .29    -105    305    -25    323    325 340.9  -4.6  33984  286.60 0862.76
2015 04 09 13 13 35 .54    -100    309    -34    325    327 342.0  -6.0  33930  285.67 0862.76
2015 04 09 13 13 35 .79    -108    332    -15    350    351 341.9  -2.6  33930  285.70 0862.76
2015 04 09 13 13 36 .04     -95    365    -40    378    381 345.4  -6.1  33942  285.89 0862.76
2015 04 09 13 13 36 .30     -95    369    -75    382    390 345.5 -11.1  33940  285.87 0862.76
2015 04 09 13 13 36 .55     -59    334    -65    340    347 349.9 -10.8  33948  285.99 0862.76
2015 04 09 13 13 36 .81     -72    296    -38    305    308 346.2  -7.2  33954  286.08 0862.76
2015 04 09 13 13 37 .06     -63    312     40    319    322 348.5   7.2  33960  286.20 0862.77
2015 04 09 13 13 37 .30     -43    306     40    310    313 352.0   7.4  33936  285.79 0862.77
2015 04 09 13 13 37 .56     -31    309     53    311    316 354.2   9.7  33950  286.03 0862.77
2015 04 09 13 13 37 .81      -4    327     27    328    330 359.3   4.9  33948  285.99 0862.77
2015 04 09 13 13 38 .06       9    289     45    290    294   1.8   9.0  33964  286.26 0862.77
2015 04 09 13 13 38 .31       5    297     64    298    305   1.1  12.2  33978  286.50 0862.77
2015 04 09 13 13 38 .56       7    305     26    306    308   1.4   5.0  33968  286.33 0862.77
2015 04 09 13 13 38 .81     -18    397     25    398    399 357.4   3.7  33984  286.59 0862.77
2015 04 09 13 13 39 .06       6    337     17    338    339   1.2   3.0  33984  286.59 0862.77
2015 04 09 13 13 39 .31     -45    417     20    420    421 353.8   2.8  33998  286.84 0862.77
2015 04 09 13 13 39 .56     -31    455     19    457    458 356.0   2.4  34008  287.01 0862.77
2015 04 09 13 13 39 .81     -87    429      2    438    439 348.5   0.4  34008  287.01 0862.78
2015 04 09 13 13 40 .06     -55    431     16    435    436 352.7   2.1  34012  287.08 0862.78
2015 04 09 13 13 40 .32    -122    407    -16    425    426 343.3  -2.3  34014  287.09 0862.78
2015 04 09 13 13 40 .56     -38    376     19    378    379 354.2   2.9  34020  287.20 0862.78
2015 04 09 13 13 40 .82     -72    266     75    276    287 344.9  15.3  34020  287.21 0862.78
2015 04 09 13 13 41 .07     -58    263     45    270    274 347.5   9.5  34020  287.21 0862.78
2015 04 09 13 13 41 .32     -75    398     78    406    414 349.3  11.0  34058  287.84 0862.78
2015 04 09 13 13 41 .57     -59    411     43    416    419 351.8   5.9  34022  287.24 0862.79
2015 04 09 13 13 41 .82     -38    388    -21    390    391 354.3  -3.1  34022  287.22 0862.79
2015 04 09 13 13 42 .07     -70    342    -44    350    353 348.3  -7.3  34022  287.22 0862.79
2015 04 09 13 13 42 .32     -95    338    -41    352    355 344.2  -6.7  34026  287.29 0862.79
2015 04 09 13 13 42 .57     -72    340     19    348    349 348.0   3.2  34026  287.30 0862.79
2015 04 09 13 13 42 .82     -85    359     49    370    374 346.6   7.6  34026  287.30 0862.79
2015 04 09 13 13 43 .07     -79    364     66    373    379 347.7  10.1  34036  287.47 0862.79
2015 04 09 13 13 43 .32     -89    324     42    337    340 344.6   7.1  34054  287.79 0862.79
2015 04 09 13 13 43 .57    -128    383    -14    405    406 341.4  -2.1  34060  287.89 0862.78
2015 04 09 13 13 43 .83     -83    432    -26    440    441 349.1  -3.5  34058  287.84 0862.78
2015 04 09 13 13 44 .08     -88    401     -1    411    412 347.5  -0.2  34060  287.89 0862.78
2015 04 09 13 13 44 .34     -39    380    -14    383    384 354.0  -2.2  34066  287.98 0862.78
2015 04 09 13 13 44 .58     -59    356     73    361    369 350.6  11.5  34088  288.35 0862.78
2015 04 09 13 13 44 .83     -81    446     43    454    457 349.7   5.5  34068  288.01 0862.78
2015 04 09 13 13 45 .09     -84    367     59    377    382 347.1   9.0  34092  288.42 0862.78
2015 04 09 13 13 45 .33     -75    373     69    381    388 348.5  10.4  34048  287.69 0862.79
2015 04 09 13 13 45 .58    -142    420    -25    444    445 341.3  -3.3  34014  287.11 0862.79
2015 04 09 13 13 45 .83    -121    428    -17    445    446 344.2  -2.2  34010  287.04 0862.79
2015 04 09 13 13 46 .09    -124    407    -16    426    427 343.1  -2.2  34006  286.96 0862.79
2015 04 09 13 13 46 .34    -148    387    -53    415    419 339.0  -7.4  34050  287.72 0862.79
2015 04 09 13 13 46 .59    -152    442    -33    468    470 341.0  -4.1  34070  288.05 0862.79
2015 04 09 13 13 46 .84    -162    371    -51    405    409 336.4  -7.2  34092  288.43 0862.79
2015 04 09 13 13 47 .09    -197    385    -54    433    437 332.8  -7.2  34102  288.60 0862.79
2015 04 09 13 13 47 .34    -162    388    -23    421    422 337.3  -3.1  34108  288.68 0862.79
2015 04 09 13 13 47 .59    -137    358    -26    384    385 339.1  -4.0  34130  289.06 0862.79
2015 04 09 13 13 47 .84    -162    339    -48    376    380 334.4  -7.4  34130  289.08 0862.79
2015 04 09 13 13 48 .09    -157    330    -28    366    367 334.5  -4.4  34092  288.42 0862.78
2015 04 09 13 13 48 .34    -182    343    -57    389    394 332.1  -8.4  34032  287.39 0862.78
2015 04 09 13 13 48 .60    -193    317    -71    372    379 328.6 -10.8  34022  287.23 0862.78
2015 04 09 13 13 48 .84    -142    339    -47    368    372 337.2  -7.3  34032  287.39 0862.78
2015 04 09 13 13 49 .10    -117    344    -49    364    368 341.1  -7.7  34048  287.67 0862.78
2015 04 09 13 13 49 .34    -150    350    -45    381    384 336.8  -6.8  34090  288.37 0862.78
2015 04 09 13 13 49 .60    -118    332    -13    353    354 340.3  -2.2  34118  288.86 0862.78
2015 04 09 13 13 49 .84    -134    317    -16    345    346 337.1  -2.7  34104  288.62 0862.78
2015 04 09 13 13 50 .10    -114    300    -43    322    325 339.1  -7.7  34068  288.02 0862.78
2015 04 09 13 13 50 .34    -122    258    -41    286    290 334.7  -8.2  34026  287.29 0862.78
2015 04 09 13 13 50 .61    -154    280    -77    320    330 331.1 -13.6  34046  287.65 0862.78
2015 04 09 13 13 50 .85    -171    267   -102    318    333 327.4 -22.9  34082  288.24 0862.78
2015 04 09 13 13 51 .11    -114    177     10    211    212 327.3   2.9  34086  288.33 0862.78
2015 04 09 13 13 51 .36    -125    126     34    178    182 315.1  11.0  34088  288.36 0862.78
2015 04 09 13 13 51 .61    -157    152    -12    219    220 314.2  -3.1  34088  288.36 0862.78
2015 04 09 13 13 51 .86     -96    173     -9    198    199 331.0  -2.8  34098  288.52 0862.78
2015 04 09 13 13 52 .11     -88    187    -34    207    210 334.7  -9.3  34110  288.72 0862.78
2015 04 09 13 13 52 .36     -68    177     37    190    194 338.8  11.1  34104  288.62 0862.78
2015 04 09 13 13 52 .61     -74    168    -17    184    185 336.2  -5.4  34094  288.45 0862.78
2015 04 09 13 13 52 .87     -47    185    -15    191    192 345.7  -4.6  34096  288.50 0862.78
2015 04 09 13 13 53 .11     -19    152      8    154    155 352.9   3.3  34118  288.86 0862.78
2015 04 09 13 13 53 .36     -33    177     56    181    190 349.3  17.3  34112  288.75 0862.78
2015 04 09 13 13 53 .61     -26    170     33    172    176 351.3  11.0  34104  288.62 0862.78
2015 04 09 13 13 53 .87     -26    171     25    173    175 351.3   8.2  34114  288.80 0862.78
2015 04 09 13 13 54 .12     -61    243     29    251    253 345.7   6.7  34168  289.70 0862.78
2015 04 09 13 13 54 .37     -16    213     26    214    216 355.5   7.1  34180  289.91 0862.78
2015 04 09 13 13 54 .61     -25    271     28    273    275 354.7   6.0  34200  290.24 0862.78
2015 04 09 13 13 54 .87     -22    292     41    293    296 355.5   8.0  34182  289.95 0862.78
2015 04 09 13 13 55 .12      55    276     55    282    288  11.3  11.1  34206  290.34 0862.78
2015 04 09 13 13 55 .36       3    188     51    189    196   1.1  15.2  34160  289.57 0862.78
2015 04 09 13 13 55 .62     -21    254     83    255    269 355.1  18.1  34164  289.63 0862.78
2015 04 09 13 13 55 .87     -45    201     76    207    220 347.3  20.9  34124  288.96 0862.78
2015 04 09 13 13 56 .12     -46    176     47    182    189 345.3  14.7  34074  288.13 0862.78
2015 04 09 13 13 56 .38     -42    218     81    223    237 348.9  21.0  34194  290.16 0862.78
2015 04 09 13 13 56 .62     -26    228     44    230    235 353.3  10.8  34106  288.65 0862.78
2015 04 09 13 13 56 .87     -31    171    119    174    210 349.5  37.6  34264  291.33 0862.78
2015 04 09 13 13 57 .13     -44    134    102    142    174 341.7  39.1  34294  291.86 0862.78
2015 04 09 13 13 57 .37     -43    191    107    196    223 347.3  31.3  34154  289.48 0862.78
2015 04 09 13 13 57 .64     -65    196     54    207    214 341.7  14.7  34166  289.67 0862.78
2015 04 09 13 13 57 .89     -67    204     33    215    218 341.7   8.9  34282  291.66 0862.78
2015 04 09 13 13 58 .13     -48    155     52    163    172 342.8  17.7  34226  290.70 0862.78
2015 04 09 13 13 58 .38     -40    110     39    118    125 339.9  18.4  34208  290.38 0862.78
2015 04 09 13 13 58 .64     -63    156     11    169    170 337.9   3.8  34184  289.99 0862.78
2015 04 09 13 13 58 .89     -77    189     -4    205    206 337.7  -1.3  34172  289.79 0862.78
2015 04 09 13 13 59 .14     -63    129      1    144    145 333.7   0.7  34216  290.52 0862.78
2015 04 09 13 13 59 .38     -85    179      3    199    200 334.5   1.0  34214  290.48 0862.78
2015 04 09 13 13 59 .64     -68    164    -24    178    180 337.5  -7.7  34198  290.23 0862.78
2015 04 09 13 13 59 .89     -49    189     50    196    203 345.5  14.5  34218  290.55 0862.78
2015 04 09 13 14 00 .14     -67    279     56    287    293 346.4  11.1  34076  288.14 0862.78
2015 04 09 13 14 00 .39     -74    257    -29    268    270 344.0  -6.2  34078  288.17 0862.78
2015 04 09 13 14 00 .64     -64    229     17    238    239 344.2   4.2  34102  288.59 0862.78
2015 04 09 13 14 00 .89     -67    193    -20    205    207 340.8  -5.6  34104  288.64 0862.78
2015 04 09 13 14 01 .14    -108    220    -11    246    247 333.9  -2.6  34074  288.12 0862.78
2015 04 09 13 14 01 .39     -90    272      3    287    288 341.7   0.7  34016  287.14 0862.78
2015 04 09 13 14 01 .64     -52    318      5    323    324 350.7   1.0  34000  286.87 0862.78
2015 04 09 13 14 01 .89     -62    308     12    315    316 348.5   2.3  33992  286.72 0862.78
2015 04 09 13 14 02 .15     -62    294     -6    301    302 348.0  -1.3  33992  286.74 0862.78
2015 04 09 13 14 02 .40     -23    270     11    272    273 355.1   2.5  34054  287.78 0862.78
2015 04 09 13 14 02 .64     -34    276     13    279    280 352.9   2.8  34126  288.98 0862.78
2015 04 09 13 14 02 .89     -54    266     -1    272    273 348.4  -0.3  34098  288.51 0862.78
2015 04 09 13 14 03 .15    -113    271    -26    294    296 337.3  -5.1  34032  287.41 0862.78
2015 04 09 13 14 03 .40    -110    274    -31    296    298 338.1  -6.1  34026  287.29 0862.78
2015 04 09 13 14 03 .65    -123    259    -22    287    288 334.5  -4.6  34028  287.33 0862.78
2015 04 09 13 14 03 .90    -131    277    -20    307    308 334.7  -3.7  34026  287.29 0862.78
2015 04 09 13 14 04 .15     -96    239    -22    258    260 338.1  -4.9  34014  287.11 0862.78
2015 04 09 13 14 04 .40    -101    257    -35    277    280 338.4  -7.3  34016  287.14 0862.78
2015 04 09 13 14 04 .66     -77    262     34    274    277 343.5   7.1  34028  287.34 0862.78
2015 04 09 13 14 04 .92     -82    323    -16    334    335 345.7  -2.8  34052  287.74 0862.78
2015 04 09 13 14 05 .16     -63    235     87    244    259 344.8  20.2  34154  289.46 0862.78
2015 04 09 13 14 05 .41     -67    262     58    271    278 345.5  12.2  34156  289.49 0862.78
2015 04 09 13 14 05 .66     -75    265     13    276    277 344.2   2.8  33962  286.23 0862.78
2015 04 09 13 14 05 .91     -83    266     11    279    280 342.6   2.3  33974  286.42 0862.78
2015 04 09 13 14 06 .16     -85    246     -5    261    262 340.9  -1.3  33970  286.35 0862.78
2015 04 09 13 14 06 .41    -105    275    -11    295    296 339.0  -2.3  33980  286.52 0862.78
2015 04 09 13 14 06 .66     -87    259     -2    274    275 341.3  -0.5  33976  286.45 0862.78
2015 04 09 13 14 06 .92    -115    253    -15    279    280 335.5  -3.2  34078  288.17 0862.78
2015 04 09 13 14 07 .16     -98    220      3    242    243 335.9   0.8  34130  289.07 0862.78
2015 04 09 13 14 07 .41    -231    178    -16    292    293 307.7  -3.1  34064  287.95 0862.78
2015 04 09 13 14 07 .67    -179    168    -31    246    248 313.1  -7.2  34070  288.04 0862.78
2015 04 09 13 14 07 .92    -141    221    -52    263    269 327.5 -11.3  34084  288.29 0862.78
2015 04 09 13 14 08 .17    -103    229    -23    252    254 335.7  -5.4  34100  288.54 0862.78
2015 04 09 13 14 08 .42    -113    212    -53    241    247 331.9 -12.6  34040  287.53 0862.78
2015 04 09 13 14 08 .67    -135    151      0    203    204 318.3  -0.3  34048  287.67 0862.78
2015 04 09 13 14 08 .92    -101    133     11    168    169 322.8   3.8  34028  287.33 0862.78
2015 04 09 13 14 09 .17    -153    146      4    212    213 313.6   1.2  34022  287.23 0862.78
2015 04 09 13 14 09 .42    -235    177      3    295    296 307.1   0.7  33986  286.62 0862.78
2015 04 09 13 14 09 .67    -267    177    -34    321    323 303.5  -6.1  33964  286.26 0862.78
2015 04 09 13 14 09 .92    -245    183    -27    307    309 306.8  -5.2  33964  286.25 0862.78
2015 04 09 13 14 10 .17    -171    142    -29    223    225 309.6  -7.5  33972  286.39 0862.78
2015 04 09 13 14 10 .42    -184    163    -13    246    247 311.6  -3.1  33990  286.70 0862.78
2015 04 09 13 14 10 .69    -190    162    -18    250    251 310.4  -4.1  33988  286.65 0862.78
2015 04 09 13 14 10 .93    -133    125     39    183    188 313.1  12.0  33998  286.83 0862.78
2015 04 09 13 14 11 .18    -180    146      4    232    233 309.1   1.0  33998  286.84 0862.78
2015 04 09 13 14 11 .43    -171    129     15    215    216 307.1   4.2  34022  287.23 0862.78
2015 04 09 13 14 11 .69    -211    148    -36    258    261 305.1  -8.0  34040  287.55 0862.78
2015 04 09 13 14 11 .94    -184    135     -8    229    230 306.2  -2.1  34032  287.42 0862.78
2015 04 09 13 14 12 .19    -116     90     54    147    156 307.8  20.9  34038  287.52 0862.78
2015 04 09 13 14 12 .44    -128    100      3    163    164 308.2   1.2  34044  287.62 0862.78
2015 04 09 13 14 12 .68    -147    157    -39    216    220 317.0 -10.3  34012  287.06 0862.78
2015 04 09 13 14 12 .94    -141    145    -66    203    213 315.7 -23.6  33990  286.69 0862.78
2015 04 09 13 14 13 .19    -139    129    -60    190    199 312.9 -22.5  34004  286.93 0862.78
2015 04 09 13 14 13 .44    -129    148   -136    197    239 319.0 -42.4  34008  287.00 0862.78
2015 04 09 13 14 13 .69     -83    237    -40    252    256 340.6  -9.0  34010  287.04 0862.78
2015 04 09 13 14 13 .94     -68    230    -81    240    253 343.5 -23.3  34010  287.04 0862.78
2015 04 09 13 14 14 .19      19    248    -87    249    263   4.5 -24.3  34040  287.53 0862.78
2015 04 09 13 14 14 .44      -7    282    -81    283    295 358.4 -16.0  34042  287.56 0862.78
2015 04 09 13 14 14 .69      16    213    -48    214    220   4.5 -12.6  34058  287.86 0862.78
2015 04 09 13 14 14 .94      45    150     -8    157    158  16.9  -3.1  34050  287.72 0862.78
2015 04 09 13 14 15 .20      44    165     -1    171    172  15.1  -0.5  34116  288.82 0862.78
2015 04 09 13 14 15 .44      37    156     29    161    164  13.4  10.3  34172  289.79 0862.78
2015 04 09 13 14 15 .69      -6    112    -15    113    115 356.9  -7.7  34164  289.65 0862.78
2015 04 09 13 14 15 .94     -47    108     54    118    129 336.4  26.6  34178  289.87 0862.78
2015 04 09 13 14 16 .19     -65     99      6    119    120 326.6   2.9  34142  289.28 0862.78
2015 04 09 13 14 16 .44     -51     92     50    106    117 331.0  27.1  34126  289.01 0862.78
2015 04 09 13 14 16 .70     -31    168     60    172    183 349.3  19.4  34128  289.04 0862.78
2015 04 09 13 14 16 .95     -46    171    107    178    207 344.9  33.7  34160  289.57 0862.78
2015 04 09 13 14 17 .20      23    136     89    138    164   9.7  35.7  34166  289.69 0862.77
2015 04 09 13 14 17 .45     -22    112     80    115    140 348.9  38.0  34168  289.72 0862.77
2015 04 09 13 14 17 .70     -43    113     35    122    128 339.1  16.3  34200  290.25 0862.77
2015 04 09 13 14 17 .95     -78    142      7    163    164 331.1   2.8  34196  290.18 0862.77
2015 04 09 13 14 18 .20    -104     67    -74    124    144 302.9 -38.4  34090  288.38 0862.77
2015 04 09 13 14 18 .45    -126     42    -48    134    142 288.6 -24.8  34090  288.38 0862.77
2015 04 09 13 14 18 .71     -84     31    -81     90    121 290.4 -51.3  34036  287.49 0862.77
2015 04 09 13 14 18 .96     -53     53    -59     76     96 315.0 -46.6  34100  288.55 0862.77
2015 04 09 13 14 19 .21     -47     65    -59     81    100 324.0 -44.1  34068  288.03 0862.77
2015 04 09 13 14 19 .46     -82     64    -48    105    115 308.2 -31.0  34060  287.89 0862.77
2015 04 09 13 14 19 .72     -68     86    -17    110    112 321.7  -8.8  34094  288.47 0862.77
2015 04 09 13 14 19 .96     -74     90    -11    117    118 320.4  -5.6  34098  288.52 0862.78
2015 04 09 13 14 20 .22     -82     93    -42    125    133 318.6 -18.7  34072  288.08 0862.78
2015 04 09 13 14 20 .47     -82     97     -1    128    129 319.9  -0.7  34070  288.06 0862.78
2015 04 09 13 14 20 .72     -63    171     -4    183    184 339.7  -1.3  34080  288.23 0862.78
2015 04 09 13 14 20 .97     -55    139    -30    150    154 338.2 -11.3  34092  288.43 0862.78
2015 04 09 13 14 21 .22     -77    117    -44    141    148 326.6 -17.5  34086  288.33 0862.78
2015 04 09 13 14 21 .47     -67    172    -10    185    186 338.6  -3.1  34106  288.65 0862.78
2015 04 09 13 14 21 .72     -56    238     -9    245    246 346.6  -2.2  34108  288.68 0862.77
2015 04 09 13 14 21 .98     -73    241     -5    252    253 343.1  -1.3  34130  289.05 0862.77
2015 04 09 13 14 22 .21     -69    234    -13    245    246 343.5  -3.2  34148  289.37 0862.77
2015 04 09 13 14 22 .47     -74    248     24    259    261 343.3   5.4  34156  289.49 0862.77
2015 04 09 13 14 22 .72     -60    271     -2    278    279 347.5  -0.5  34178  289.86 0862.77
2015 04 09 13 14 22 .97     -66    210     42    221    225 342.6  10.8  34144  289.31 0862.77
2015 04 09 13 14 23 .22     -61    227     29    236    238 344.9   7.2  34154  289.47 0862.77
2015 04 09 13 14 23 .47     -62    235     29    244    246 345.1   6.9  34142  289.27 0862.77
2015 04 09 13 14 23 .72    -109    232    -43    257    261 334.7  -9.6  34040  287.53 0862.77
2015 04 09 13 14 23 .97     -70    261    -18    271    272 344.9  -3.9  34046  287.63 0862.77
2015 04 09 13 14 24 .22     -83    274    -15    287    288 343.1  -3.1  34054  287.77 0862.77
2015 04 09 13 14 24 .47     -97    244     -5    263    264 338.2  -1.2  34048  287.68 0862.77
2015 04 09 13 14 24 .73    -109    214    -35    241    244 333.0  -8.3  34058  287.83 0862.77
2015 04 09 13 14 24 .97     -66    205    -41    216    221 342.0 -10.9  34054  287.77 0862.77
2015 04 09 13 14 25 .23     -97    204    -53    226    233 334.5 -13.3  34066  287.99 0862.77
2015 04 09 13 14 25 .49    -101    215    -47    238    243 334.8 -11.3  34056  287.80 0862.77
2015 04 09 13 14 25 .74    -113    207    -56    237    244 331.3 -13.4  34120  288.90 0862.77
2015 04 09 13 14 25 .99    -104    187    -35    215    218 331.0  -9.3  34134  289.14 0862.77
2015 04 09 13 14 26 .24    -144    168    -12    222    223 319.5  -3.1  34140  289.23 0862.77
2015 04 09 13 14 26 .49     -93    228     -6    247    248 337.7  -1.6  34152  289.42 0862.77
2015 04 09 13 14 26 .74     -74    172    -44    188    194 336.8 -13.4  34170  289.74 0862.77
2015 04 09 13 14 26 .99     -88    139    -40    165    170 327.5 -13.9  34142  289.28 0862.77
2015 04 09 13 14 27 .24     -83     86     48    120    129 315.9  23.0  34156  289.52 0862.77
2015 04 09 13 14 27 .49     -91     75     23    119    122 309.5  11.0  34214  290.48 0862.77
2015 04 09 13 14 27 .75     -72     87     14    114    115 320.3   7.1  34224  290.65 0862.77
2015 04 09 13 14 27 .99     -60    105     10    122    123 330.1   4.9  34196  290.19 0862.77
2015 04 09 13 14 28 .24     -82    109     11    137    138 323.0   4.9  34126  289.01 0862.77
2015 04 09 13 14 28 .50     -70    194     20    207    209 340.2   5.7  34116  288.84 0862.77
2015 04 09 13 14 28 .75    -127    173    -31    215    218 323.7  -8.2  34112  288.75 0862.77
2015 04 09 13 14 28 .99    -167     92    -32    191    194 298.9  -9.8  34050  287.70 0862.77
2015 04 09 13 14 29 .25    -194    152    -47    247    252 308.0 -10.9  34024  287.26 0862.77
2015 04 09 13 14 29 .50    -176    126    -50    217    223 305.7 -13.2  34034  287.45 0862.77
2015 04 09 13 14 29 .75    -123    111      1    166    167 312.0   0.5  34042  287.59 0862.77
2015 04 09 13 14 30 .00     -80    130     61    153    164 328.4  22.5  34054  287.77 0862.77
2015 04 09 13 14 30 .25    -102    123     46    160    167 320.4  16.0  34064  287.94 0862.77
2015 04 09 13 14 30 .50    -158    124      5    202    203 308.2   1.6  34050  287.70 0862.77
2015 04 09 13 14 30 .75    -182    141     -5    231    232 307.8  -1.3  34052  287.76 0862.78
2015 04 09 13 14 31 .00    -230    190    -19    299    300 309.5  -3.7  34046  287.65 0862.78
2015 04 09 13 14 31 .25    -202    144    -74    249    260 305.5 -16.6  34042  287.58 0862.78
2015 04 09 13 14 31 .50    -226    131    -47    262    267 300.0 -10.3  34046  287.63 0862.78
2015 04 09 13 14 31 .75    -188    166    -18    252    253 311.4  -4.1  34050  287.70 0862.78
2015 04 09 13 14 32 .00    -123    148    -32    193    196 320.4  -9.6  34056  287.81 0862.78
2015 04 09 13 14 32 .25    -223    156    -36    273    276 305.1  -7.7  34048  287.68 0862.78
2015 04 09 13 14 32 .51    -200    124    -61    236    244 301.8 -14.5  34050  287.71 0862.78
2015 04 09 13 14 32 .76    -202    111    -34    231    234 298.9  -8.6  34054  287.77 0862.78
2015 04 09 13 14 33 .02    -153     73     21    170    172 295.5   7.2  34058  287.86 0862.78
2015 04 09 13 14 33 .26     -71     91    -28    116    120 321.7 -13.9  34066  287.99 0862.78
2015 04 09 13 14 33 .52     -69    136     -1    153    154 332.8  -0.7  34070  288.06 0862.78
2015 04 09 13 14 33 .77    -154    175    -38    234    238 318.6  -9.3  34084  288.27 0862.78
2015 04 09 13 14 34 .02    -208    132    -35    247    250 302.4  -8.2  34070  288.04 0862.78
2015 04 09 13 14 34 .27    -148    159      3    218    219 317.0   1.0  34088  288.35 0862.78
2015 04 09 13 14 34 .52     -96    134     17    165    166 324.4   5.9  34088  288.35 0862.78
2015 04 09 13 14 34 .77     -91    110     23    143    145 320.4   9.5  34110  288.72 0862.78
2015 04 09 13 14 35 .02     -76    125     54    147    156 328.8  20.9  34130  289.08 0862.78
2015 04 09 13 14 35 .27     -84    146     20    169    171 329.9   6.9  34126  288.99 0862.78
2015 04 09 13 14 35 .52    -102    144    -24    177    179 324.6  -8.0  34114  288.79 0862.78
2015 04 09 13 14 35 .77     -95    122    -43    155    160 322.2 -20.2  34098  288.53 0862.78
2015 04 09 13 14 36 .02    -108    101    -35    149    154 313.1 -13.3  34102  288.58 0862.78
2015 04 09 13 14 36 .27    -107     89     -7    140    141 309.6  -3.2  34104  288.64 0862.78
2015 04 09 13 14 36 .52     -65     65    -30     92     97 315.0 -18.1  34100  288.55 0862.78
2015 04 09 13 14 36 .77     -84     48    -25     97    101 299.8 -14.5  34112  288.77 0862.78
2015 04 09 13 14 37 .02     -74     57    -16     94     96 307.8  -9.8  34130  289.08 0862.78
2015 04 09 13 14 37 .27     -32     67     54     75     92 334.5  39.7  34140  289.23 0862.78
2015 04 09 13 14 37 .53      -5     98     41     99    107 356.9  23.1  34136  289.18 0862.78
2015 04 09 13 14 37 .77     -25     70     41     75     85 340.0  31.4  34142  289.28 0862.78
2015 04 09 13 14 38 .03     -23     59     70     64     94 338.2  52.7  34164  289.63 0862.78
2015 04 09 13 14 38 .27     -40     63     48     75     89 327.5  35.5  34172  289.79 0862.78
2015 04 09 13 14 38 .52      -7     37      4     38     39 348.4   5.9  34178  289.87 0862.78
2015 04 09 13 14 38 .78     -34    144     86    149    172 346.6  32.7  34162  289.60 0862.77
2015 04 09 13 14 39 .03    -108    134      0    173    174 321.0   0.2  34190  290.08 0862.77
2015 04 09 13 14 39 .29     -39    211     -7    215    216 349.3  -2.1  34188  290.04 0862.77
2015 04 09 13 14 39 .54     -30    161     20    164    166 349.3   7.2  34172  289.77 0862.77
2015 04 09 13 14 39 .79    -126    116    -16    172    173 312.4  -5.4  34184  289.97 0862.77
2015 04 09 13 14 40 .04     -73    120     40    141    147 328.8  15.8  34188  290.04 0862.77
2015 04 09 13 14 40 .29    -108    108     32    154    158 315.0  12.0  34156  289.52 0862.77
2015 04 09 13 14 40 .54    -147    118      0    189    190 308.9  -0.3  34136  289.16 0862.78
2015 04 09 13 14 40 .79    -145    132     36    197    201 312.4  10.3  34134  289.14 0862.78
2015 04 09 13 14 41 .04    -204    153    -34    255    258 306.9  -7.7  34120  288.90 0862.78
2015 04 09 13 14 41 .30    -190    137     -7    235    236 305.9  -1.8  34148  289.37 0862.78
2015 04 09 13 14 41 .54    -140     86      6    165    166 301.8   2.1  34184  289.99 0862.78
2015 04 09 13 14 41 .79     -97     92    -18    134    136 313.6  -7.7  34162  289.62 0862.78
2015 04 09 13 14 42 .05    -132    130    -10    186    187 314.4  -3.1  34130  289.08 0862.78
2015 04 09 13 14 42 .30    -191    162    -51    251    257 310.4 -11.5  34120  288.90 0862.78
2015 04 09 13 14 42 .54    -256    136    -52    290    295 298.0 -10.3  34080  288.21 0862.77
2015 04 09 13 14 42 .80    -180    149      4    234    235 309.6   1.2  34080  288.22 0862.77
2015 04 09 13 14 43 .05    -285    183    -22    339    340 302.8  -3.8  34070  288.05 0862.77
2015 04 09 13 14 43 .30    -246    222     -7    332    333 312.1  -1.3  34072  288.08 0862.77
2015 04 09 13 14 43 .55    -280    174    -34    330    332 301.9  -5.9  34068  288.01 0862.77
2015 04 09 13 14 43 .80    -298    142    -44    331    334 295.5  -7.6  34122  288.94 0862.77
2015 04 09 13 14 44 .05    -243    190    -40    309    312 308.0  -7.5  34122  288.92 0862.77
2015 04 09 13 14 44 .30    -189    195    -36    272    275 315.9  -7.7  34132  289.09 0862.77
2015 04 09 13 14 44 .55     -65    187     54    199    207 340.8  15.3  34146  289.33 0862.77
2015 04 09 13 14 44 .80    -302    238    -35    385    387 308.3  -5.3  34102  288.60 0862.77
2015 04 09 13 14 45 .05    -295    241    -87    382    392 309.2 -12.9  34104  288.64 0862.77
2015 04 09 13 14 45 .30    -284    234    -73    368    376 309.5 -11.3  34096  288.50 0862.77
2015 04 09 13 14 45 .56    -267    272   -130    382    404 315.6 -18.9  34042  287.59 0862.77
2015 04 09 13 14 45 .80    -250    313    -83    401    410 321.4 -11.8  34134  289.12 0862.77
2015 04 09 13 14 46 .06    -215    282    -60    355    361 322.6  -9.7  34132  289.11 0862.77
2015 04 09 13 14 46 .31    -176    258     -7    313    314 325.7  -1.4  34116  288.81 0862.77
2015 04 09 13 14 46 .57    -166    288     -9    333    334 330.0  -1.7  34092  288.42 0862.77
2015 04 09 13 14 46 .81    -344    249     -9    425    426 305.9  -1.3  33956  286.11 0862.76
2015 04 09 13 14 47 .07    -378    248    -40    453    455 303.3  -5.1  33934  285.76 0862.76
2015 04 09 13 14 47 .32    -361    237    -54    433    437 303.3  -7.2  33936  285.79 0862.76
2015 04 09 13 14 47 .57    -326    230    -62    400    405 305.2  -8.9  33938  285.81 0862.76
2015 04 09 13 14 47 .82    -314    246   -110    400    415 308.1 -15.4  33934  285.74 0862.76
2015 04 09 13 14 48 .07    -282    241   -111    372    389 310.6 -16.7  33936  285.78 0862.76
2015 04 09 13 14 48 .32    -351    190   -126    400    420 298.4 -17.5  34004  286.92 0862.76
2015 04 09 13 14 48 .57    -390    199   -139    439    461 297.1 -17.6  34000  286.86 0862.76
2015 04 09 13 14 48 .82    -305    216   -114    374    390 305.3 -21.9  33974  286.44 0862.76
2015 04 09 13 14 49 .07    -278    146   -112    315    335 297.7 -19.7  34000  286.85 0862.76
2015 04 09 13 14 49 .32    -229    170    -96    286    302 306.6 -18.7  33998  286.84 0862.76
2015 04 09 13 14 49 .57    -190    170    -34    256    259 311.8  -7.7  34022  287.24 0862.76
2015 04 09 13 14 49 .82    -180    206    -60    274    281 318.8 -12.4  34026  287.31 0862.76
2015 04 09 13 14 50 .07    -256    152    -70    298    307 300.7 -13.3  34008  287.01 0862.76
2015 04 09 13 14 50 .32    -206    111    -24    235    237 298.4  -6.0  34012  287.07 0862.76
2015 04 09 13 14 50 .58    -227    147     -5    271    272 303.1  -1.1  34008  287.01 0862.77
2015 04 09 13 14 50 .83     -97    136     58    168    178 324.4  19.2  34012  287.06 0862.77
2015 04 09 13 14 51 .08    -273    153    -47    314    318 299.3  -8.6  34016  287.12 0862.77
2015 04 09 13 14 51 .32    -324    153    -64    359    365 295.3 -10.2  33962  286.21 0862.77
2015 04 09 13 14 51 .58    -322    164    -60    362    367 297.0  -9.5  33936  285.80 0862.77
2015 04 09 13 14 51 .83    -319    182    -49    368    372 299.8  -7.6  33954  286.09 0862.77
2015 04 09 13 14 52 .08    -319    192    -67    373    380 301.1 -10.2  33936  285.80 0862.77
2015 04 09 13 14 52 .33    -307    182    -61    357    363 300.7  -9.7  33940  285.85 0862.77
2015 04 09 13 14 52 .58    -310    210    -48    375    379 304.1  -7.4  33952  286.05 0862.77
2015 04 09 13 14 52 .83    -300    203    -33    363    365 304.1  -5.3  33962  286.21 0862.77
2015 04 09 13 14 53 .08    -323    190    -54    375    379 300.5  -8.2  33964  286.26 0862.77
2015 04 09 13 14 53 .34    -261    192    -74    325    334 306.3 -12.9  33990  286.68 0862.77
2015 04 09 13 14 53 .59    -236    175    -70    295    304 306.6 -13.4  33984  286.58 0862.77
2015 04 09 13 14 53 .84    -196    222    -60    297    304 318.6 -11.6  33982  286.55 0862.77
2015 04 09 13 14 54 .09    -261    252   -100    363    377 314.0 -15.5  33970  286.36 0862.77
2015 04 09 13 14 54 .34    -269    292   -117    398    415 317.4 -16.4  34012  287.08 0862.77
2015 04 09 13 14 54 .60    -183    292    -72    345    353 327.9 -11.9  34018  287.18 0862.77
2015 04 09 13 14 54 .85    -227    291    -63    370    376 322.0  -9.8  34032  287.42 0862.77
2015 04 09 13 14 55 .09    -179    303    -68    352    359 329.4 -11.0  34036  287.49 0862.77
2015 04 09 13 14 55 .34    -145    274    -61    311    318 332.1 -11.2  34000  286.85 0862.77
2015 04 09 13 14 55 .60    -166    231    -67    285    293 324.2 -13.4  34006  286.97 0862.77
2015 04 09 13 14 55 .85    -124    193    -37    230    234 327.3  -9.3  34016  287.15 0862.77
2015 04 09 13 14 56 .10     -80    200      0    216    217 338.2   0.0  34034  287.43 0862.77
2015 04 09 13 14 56 .35    -143    130     68    194    206 312.4  19.4  34058  287.86 0862.77
2015 04 09 13 14 56 .60    -146    167    -17    223    224 318.8  -4.4  34054  287.77 0862.77
2015 04 09 13 14 56 .85    -200    169    -14    263    264 310.2  -3.1  34050  287.71 0862.77
2015 04 09 13 14 57 .10    -120    164     70    204    216 323.7  18.9  34064  287.94 0862.77
2015 04 09 13 14 57 .35    -302    199    -43    362    365 303.4  -6.9  33990  286.68 0862.77
2015 04 09 13 14 57 .60    -239    189     -6    305    306 308.4  -1.3  33988  286.65 0862.77
2015 04 09 13 14 57 .85    -126    181     26    221    223 325.0   6.7  33992  286.74 0862.77
2015 04 09 13 14 58 .10    -151    179     54    235    242 319.7  12.9  34004  286.92 0862.77
2015 04 09 13 14 58 .35     -99    220     -3    242    243 335.7  -0.7  34040  287.55 0862.77
2015 04 09 13 14 58 .60    -245    213    -27    326    328 311.0  -4.8  34048  287.66 0862.77
2015 04 09 13 14 58 .85    -264    188    -43    325    328 305.5  -7.7  33978  286.48 0862.77
2015 04 09 13 14 59 .11    -211    147     -5    258    259 305.0  -1.3  33994  286.75 0862.77
2015 04 09 13 14 59 .35     -79    193     10    209    210 337.7   2.9  34008  287.01 0862.77
2015 04 09 13 14 59 .61    -130    299      4    327    328 336.4   0.7  33978  286.48 0862.77
2015 04 09 13 14 59 .86    -156    280    -49    321    325 330.8  -8.8  34018  287.16 0862.77
2015 04 09 13 15 00 .12    -204    191     17    280    281 313.1   3.6  34076  288.14 0862.77
2015 04 09 13 15 00 .37    -288    203    -49    353    357 305.2  -7.9  34052  287.74 0862.77
2015 04 09 13 15 00 .61    -306    237    -16    388    389 307.7  -2.5  33996  286.80 0862.77
2015 04 09 13 15 00 .87    -279    197    -65    342    349 305.3 -10.9  33942  285.89 0862.77
2015 04 09 13 15 01 .12    -269    206    -77    340    349 307.5 -12.9  33940  285.85 0862.77
2015 04 09 13 15 01 .37    -260    213    -56    337    342 309.3  -9.5  33940  285.85 0862.77
2015 04 09 13 15 01 .62    -230    178    -20    291    292 307.7  -4.1  33970  286.35 0862.77
2015 04 09 13 15 01 .87    -228    189    -27    297    299 309.6  -5.2  33964  286.25 0862.77
2015 04 09 13 15 02 .12    -184    244    -66    306    314 323.0 -12.2  33964  286.26 0862.77
2015 04 09 13 15 02 .37    -159    209    -43    263    267 322.8  -9.3  33990  286.68 0862.77
2015 04 09 13 15 02 .62    -166    171    -23    239    241 315.9  -5.6  33974  286.43 0862.77
2015 04 09 13 15 02 .87    -136    210    -58    251    258 327.0 -13.2  33966  286.30 0862.77
2015 04 09 13 15 03 .12    -110    242    -14    266    267 335.5  -3.1  33974  286.42 0862.78
2015 04 09 13 15 03 .38    -111    253    -35    277    280 336.2  -7.2  33990  286.68 0862.78
2015 04 09 13 15 03 .62    -125    299     16    325    326 337.3   2.9  33984  286.60 0862.78
2015 04 09 13 15 03 .88    -106    266     29    287    289 338.2   5.9  33986  286.63 0862.78
2015 04 09 13 15 04 .13    -126    209    -13    245    246 329.0  -3.1  34034  287.44 0862.78
2015 04 09 13 15 04 .38     -96    223     -9    244    245 336.6  -2.2  34058  287.83 0862.78
2015 04 09 13 15 04 .63    -181    177      9    254    255 314.4   2.1  34044  287.60 0862.78
2015 04 09 13 15 04 .88    -168    237    -63    291    298 324.6 -12.4  34014  287.09 0862.78
2015 04 09 13 15 05 .13    -149    270    -39    309    312 331.1  -7.3  33996  286.79 0862.78
2015 04 09 13 15 05 .38    -116    348     24    367    368 341.5   3.8  33998  286.83 0862.78
2015 04 09 13 15 05 .63    -161    339    -27    376    377 334.5  -4.2  33994  286.78 0862.78
2015 04 09 13 15 05 .88    -197    332    -90    387    398 329.3 -13.1  33942  285.90 0862.78
2015 04 09 13 15 06 .13    -185    329    -75    378    386 330.6 -11.3  33942  285.89 0862.78
2015 04 09 13 15 06 .38    -190    305    -80    360    369 328.0 -12.6  33932  285.72 0862.78
2015 04 09 13 15 06 .63    -161    312    -71    352    360 332.7 -11.5  33930  285.70 0862.78
2015 04 09 13 15 06 .88    -168    292    -71    338    346 330.1 -12.0  33936  285.80 0862.78
2015 04 09 13 15 07 .14    -165    295    -69    339    347 330.7 -11.6  33936  285.77 0862.78
2015 04 09 13 15 07 .39    -191    291    -76    349    358 326.7 -12.3  33938  285.82 0862.78
2015 04 09 13 15 07 .64    -196    274    -57    337    342 324.4  -9.7  33946  285.95 0862.79
2015 04 09 13 15 07 .89    -217    294    -73    366    374 323.5 -11.3  33936  285.80 0862.79
2015 04 09 13 15 08 .15    -211    299    -80    366    375 324.8 -12.4  33936  285.77 0862.79
2015 04 09 13 15 08 .40    -228    316    -87    390    400 324.2 -12.7  33932  285.73 0862.79
2015 04 09 13 15 08 .64    -213    342    -90    403    413 328.1 -12.6  33934  285.76 0862.79
2015 04 09 13 15 08 .90    -216    311    -79    379    388 325.2 -11.9  33948  285.99 0862.79
2015 04 09 13 15 09 .15    -221    333    -93    400    411 326.4 -13.2  33936  285.78 0862.79
2015 04 09 13 15 09 .40    -225    315    -90    388    399 324.4 -13.1  33934  285.75 0862.79
2015 04 09 13 15 09 .65    -215    323    -85    389    399 326.4 -12.4  33942  285.89 0862.79
2015 04 09 13 15 09 .90    -215    324    -87    390    400 326.4 -12.6  33936  285.78 0862.79
2015 04 09 13 15 10 .15    -229    295    -83    374    384 322.2 -12.5  33936  285.78 0862.79
2015 04 09 13 15 10 .40    -229    282    -86    364    375 320.9 -13.4  33936  285.77 0862.79
2015 04 09 13 15 10 .65    -209    271    -78    343    352 322.4 -12.9  33940  285.85 0862.79
2015 04 09 13 15 10 .90    -198    278    -75    342    351 324.6 -12.4  33942  285.89 0862.79
2015 04 09 13 15 11 .15    -184    288    -68    343    350 327.4 -11.3  33956  286.12 0862.79
2015 04 09 13 15 11 .40    -179    293    -68    344    351 328.6 -11.2  33968  286.32 0862.79
2015 04 09 13 15 11 .65    -143    273    -65    309    316 332.4 -11.9  33980  286.53 0862.79
2015 04 09 13 15 11 .90    -168    209    -38    269    272 321.2  -8.2  33992  286.74 0862.79
2015 04 09 13 15 12 .15    -152    175    -21    233    234 319.0  -5.2  33998  286.84 0862.79
2015 04 09 13 15 12 .40    -114    256     -6    281    282 335.9  -1.3  34004  286.92 0862.79
2015 04 09 13 15 12 .65    -126    287    -34    314    316 336.3  -6.3  33996  286.79 0862.79
2015 04 09 13 15 12 .91     -99    264     -6    283    284 339.3  -1.3  34006  286.97 0862.79
2015 04 09 13 15 13 .15    -112    285    -12    307    308 338.4  -2.2  33998  286.82 0862.79
2015 04 09 13 15 13 .41    -127    290    -45    317    321 336.3  -8.1  33946  285.94 0862.79
2015 04 09 13 15 13 .66    -142    310    -43    342    345 335.4  -7.2  33962  286.24 0862.79
2015 04 09 13 15 13 .91    -120    317    -23    340    341 339.2  -3.9  33972  286.39 0862.79
2015 04 09 13 15 14 .17     -99    306     23    322    323 342.0   4.2  33986  286.63 0862.79
2015 04 09 13 15 14 .42     -82    346      1    356    357 346.6   0.2  33980  286.54 0862.79
2015 04 09 13 15 14 .67     -95    337     17    351    352 344.2   2.9  33990  286.71 0862.79
2015 04 09 13 15 14 .92    -106    301     -9    320    321 340.6  -1.7  33954  286.08 0862.79
2015 04 09 13 15 15 .17    -105    318     -6    335    336 341.7  -1.2  33952  286.07 0862.79
2015 04 09 13 15 15 .42     -94    311      9    326    327 343.1   1.7  33962  286.21 0862.79
2015 04 09 13 15 15 .67     -97    302     11    318    319 342.2   2.1  33970  286.35 0862.79
2015 04 09 13 15 15 .92     -80    284     -1    296    297 344.2  -0.3  33976  286.47 0862.79
2015 04 09 13 15 16 .17     -65    194     33    205    208 341.3   9.3  34012  287.08 0862.79
2015 04 09 13 15 16 .42     -82    246     36    260    263 341.5   8.0  34014  287.11 0862.79
2015 04 09 13 15 16 .67     -91    251      0    268    269 340.0   0.0  33974  286.42 0862.79
2015 04 09 13 15 16 .93     -73    271      8    281    282 344.8   1.7  33972  286.40 0862.79
2015 04 09 13 15 17 .17     -73    271     55    281    287 344.8  11.1  33982  286.55 0862.79
2015 04 09 13 15 17 .42     -63    286     46    293    297 347.5   9.0  33978  286.50 0862.79
2015 04 09 13 15 17 .67     -97    300     -6    316    317 342.0  -1.2  33976  286.47 0862.79
2015 04 09 13 15 17 .93     -79    298     37    309    312 345.1   6.9  33970  286.35 0862.79
2015 04 09 13 15 18 .18     -86    295     -6    308    309 343.7  -1.3  33978  286.50 0862.79
2015 04 09 13 15 18 .43     -67    303     27    311    313 347.5   5.1  34012  287.07 0862.79
2015 04 09 13 15 18 .68     -72    311     29    320    322 346.9   5.3  33992  286.74 0862.79
2015 04 09 13 15 18 .93     -72    306     47    315    319 346.7   8.5  34032  287.39 0862.79
2015 04 09 13 15 19 .18     -93    278     14    294    295 341.5   2.9  34004  286.92 0862.79
2015 04 09 13 15 19 .43     -77    241     36    254    257 342.2   8.2  34002  286.89 0862.79
2015 04 09 13 15 19 .68     -54    266     73    272    282 348.4  15.0  34030  287.38 0862.79
2015 04 09 13 15 19 .93     -67    262     74    271    281 345.5  15.3  34050  287.70 0862.79
2015 04 09 13 15 20 .18     -93    275      8    291    292 341.3   1.6  33998  286.82 0862.79
2015 04 09 13 15 20 .43     -81    268    -29    281    283 343.1  -6.0  33958  286.15 0862.80
2015 04 09 13 15 20 .68    -102    279    -16    298    299 340.0  -3.1  33958  286.16 0862.80
2015 04 09 13 15 20 .95     -82    281      4    293    294 343.7   0.8  33980  286.52 0862.80
2015 04 09 13 15 21 .19     -73    255     -1    266    267 344.0  -0.3  33986  286.63 0862.80
2015 04 09 13 15 21 .44     -97    239     -8    258    259 337.9  -1.8  33970  286.35 0862.80
2015 04 09 13 15 21 .70    -111    253    -35    277    280 336.3  -7.2  33968  286.31 0862.80
2015 04 09 13 15 21 .94    -104    257    -18    278    279 337.9  -3.7  33970  286.36 0862.80
2015 04 09 13 15 22 .20    -108    237    -18    261    262 335.5  -4.1  33984  286.60 0862.79
2015 04 09 13 15 22 .45    -112    210    -21    239    240 331.9  -5.1  33982  286.57 0862.79
2015 04 09 13 15 22 .70    -106    175    -52    205    212 328.8 -14.3  33998  286.83 0862.79
2015 04 09 13 15 22 .95    -102    220     -9    243    244 335.1  -2.2  34034  287.44 0862.79
2015 04 09 13 15 23 .20     -93    213    -32    233    236 336.3  -8.0  34034  287.44 0862.79
2015 04 09 13 15 23 .45     -86    192    -26    211    213 335.7  -7.2  34000  286.88 0862.79
2015 04 09 13 15 23 .70     -72    192    -18    206    207 339.3  -5.2  33992  286.74 0862.79
2015 04 09 13 15 23 .95     -75    153     44    171    177 333.7  14.7  34132  289.09 0862.79
2015 04 09 13 15 24 .20    -102    123     34    160    164 320.4  12.2  34124  288.97 0862.79
2015 04 09 13 15 24 .45     -76    116     -4    139    140 326.6  -1.8  34054  287.79 0862.79
2015 04 09 13 15 24 .70     -45     54     21     71     75 320.4  16.3  34044  287.60 0862.79
2015 04 09 13 15 24 .96     -59     14     43     61     74 283.3  38.6  34078  288.18 0862.79
2015 04 09 13 15 25 .20     -52    -68     15     86     88 217.4  10.1  34094  288.45 0862.79
2015 04 09 13 15 25 .45     -36    -37     49     52     71 224.2  48.0  34098  288.52 0862.79
2015 04 09 13 15 25 .70     -82    -12    -18     83     86 261.2 -12.4  34072  288.08 0862.79
2015 04 09 13 15 25 .96     -22     -7     65     24     69 251.8  80.2  34078  288.18 0862.79
2015 04 09 13 15 26 .21     -73     31     -3     80     81 293.5  -2.2  34108  288.69 0862.79
2015 04 09 13 15 26 .45    -118     81      7    144    145 304.6   2.8  34120  288.91 0862.79
2015 04 09 13 15 26 .71    -145     92    -37    172    176 302.5 -12.2  34104  288.62 0862.79
2015 04 09 13 15 26 .96     -92     94    -27    132    135 315.5 -11.9  34136  289.18 0862.79
2015 04 09 13 15 27 .21    -107     51    -26    119    122 295.8 -12.4  34170  289.74 0862.79
2015 04 09 13 15 27 .46     -56     60    -46     83     94 317.2 -36.3  34112  288.77 0862.79
2015 04 09 13 15 27 .71     -76     40     -4     87     88 298.0  -3.1  34092  288.43 0862.79
2015 04 09 13 15 27 .97    -186     61    -30    196    199 288.2  -8.8  34012  287.08 0862.79
2015 04 09 13 15 28 .22    -228     45    -24    233    235 281.4  -6.0  33990  286.70 0862.79
2015 04 09 13 15 28 .47    -220    -13    -29    221    223 266.5  -7.7  34010  287.05 0862.79
2015 04 09 13 15 28 .72    -142     79      1    163    164 299.3   0.5  34014  287.11 0862.79
2015 04 09 13 15 28 .97    -175     13    -15    176    177 274.3  -4.9  34012  287.08 0862.79
2015 04 09 13 15 29 .22    -196      7    -16    197    198 272.1  -4.9  34020  287.20 0862.79
2015 04 09 13 15 29 .47     -76    -72     32    105    110 226.4  17.3  34050  287.72 0862.79
2015 04 09 13 15 29 .72       0      5     42      6     42 357.3  90.0  34066  287.99 0862.79
2015 04 09 13 15 29 .98    -176     62    -18    187    188 289.7  -5.6  34062  287.91 0862.79
2015 04 09 13 15 30 .23    -218      3      4    219    220 270.9   1.2  34062  287.92 0862.79
2015 04 09 13 15 30 .48    -217     61      3    226    227 285.9   1.0  34090  288.40 0862.79
2015 04 09 13 15 30 .73    -283     76    -39    293    296 285.1  -7.7  34016  287.12 0862.79
2015 04 09 13 15 30 .98    -315    103    -12    332    333 288.1  -2.2  34064  287.94 0862.79
2015 04 09 13 15 31 .22    -218    134    -36    257    260 301.6  -8.0  34104  288.63 0862.79
2015 04 09 13 15 31 .48    -206    170    -19    268    269 309.6  -4.1  34070  288.04 0862.79
2015 04 09 13 15 31 .73    -340    170   -121    381    399 296.6 -22.8  34060  287.89 0862.79
2015 04 09 13 15 31 .98    -280    305    -83    415    424 317.5 -11.3  34062  287.90 0862.79
2015 04 09 13 15 32 .23    -218    264    -24    343    344 320.4  -4.1  34080  288.23 0862.79
2015 04 09 13 15 32 .48    -246    156     35    292    295 302.4   6.9  34078  288.17 0862.79
2015 04 09 13 15 32 .73    -221    140     17    262    263 302.4   3.9  34090  288.39 0862.79
2015 04 09 13 15 32 .98    -159    113    -33    196    199 305.5  -9.8  34096  288.48 0862.79
2015 04 09 13 15 33 .23    -279     93    -46    295    299 288.4  -9.0  34070  288.05 0862.79
2015 04 09 13 15 33 .48    -276     36    -30    279    281 277.5  -6.2  34092  288.41 0862.79
2015 04 09 13 15 33 .73    -282    133    -53    313    318 295.3  -9.6  34022  287.24 0862.79
2015 04 09 13 15 33 .98    -315    126    -66    340    347 291.8 -11.1  34040  287.54 0862.79
2015 04 09 13 15 34 .24    -315    144    -75    347    356 294.6 -12.3  34048  287.66 0862.79
2015 04 09 13 15 34 .48    -279    125    -90    306    319 294.2 -16.4  34002  286.90 0862.79
2015 04 09 13 15 34 .74    -259    142    -69    296    304 298.9 -13.2  33992  286.72 0862.79
2015 04 09 13 15 34 .99    -233    137    -59    271    278 300.4 -12.4  33996  286.79 0862.79
2015 04 09 13 15 35 .25    -190    136    -41    234    238 305.7 -10.1  33998  286.84 0862.79
2015 04 09 13 15 35 .50    -198    138    -63    242    251 304.9 -14.7  33996  286.79 0862.79
2015 04 09 13 15 35 .75    -255    210    -65    331    338 309.4 -11.1  34026  287.30 0862.78
2015 04 09 13 15 36 .00    -247    197    -55    317    322 308.6  -9.9  34028  287.33 0862.78
2015 04 09 13 15 36 .25    -194    180    -65    265    274 312.9 -13.9  34034  287.43 0862.78
2015 04 09 13 15 36 .50    -218     94    -62    238    246 293.5 -14.7  34030  287.38 0862.78
2015 04 09 13 15 36 .75    -254    110    -56    278    284 293.5 -11.6  34030  287.38 0862.78
2015 04 09 13 15 37 .00    -229    139    -30    269    271 301.3  -6.5  34032  287.39 0862.78
2015 04 09 13 15 37 .25    -281    141    -61    315    321 296.6 -11.0  34006  286.95 0862.78
2015 04 09 13 15 37 .50    -270    149    -44    309    313 298.9  -8.1  34020  287.21 0862.78
2015 04 09 13 15 37 .75    -330    166    -38    370    372 296.8  -5.9  34028  287.34 0862.78
2015 04 09 13 15 38 .00    -274    174    -49    325    329 302.5  -8.6  34018  287.16 0862.78
2015 04 09 13 15 38 .25    -246    178    -55    304    310 306.0 -10.4  34012  287.06 0862.78
2015 04 09 13 15 38 .51    -189    161    -41    249    253 310.4  -9.4  34020  287.21 0862.78
2015 04 09 13 15 38 .76     -94    117     27    151    154 321.3  10.1  34062  287.91 0862.78
2015 04 09 13 15 39 .01    -134     15    -15    135    136 276.6  -6.7  34072  288.08 0862.78
2015 04 09 13 15 39 .26     -79     43    -15     91     93 298.9  -9.3  34066  287.99 0862.78
2015 04 09 13 15 39 .51       5     30     18     31     35   9.8  35.5  34072  288.09 0862.78
2015 04 09 13 15 39 .76       4    -24     11     25     27 170.2  25.1  34074  288.13 0862.78
2015 04 09 13 15 40 .01    -113    -16    -37    115    120 261.6 -23.3  34056  287.82 0862.78
2015 04 09 13 15 40 .26    -105     -4    -21    106    109 267.4 -11.5  34054  287.77 0862.78
2015 04 09 13 15 40 .51    -103     47      5    114    115 294.4   2.8  34056  287.81 0862.78
2015 04 09 13 15 40 .76    -132    -35    -32    137    141 254.9 -13.3  34052  287.76 0862.78
2015 04 09 13 15 41 .01     -13    -37      4     40     41 200.0   5.9  34064  287.94 0862.78
2015 04 09 13 15 41 .26    -192    -41    -25    197    199 257.8  -7.5  34090  288.40 0862.78
2015 04 09 13 15 41 .51    -165     45      2    172    173 285.5   0.8  34096  288.50 0862.78
2015 04 09 13 15 41 .76     -99      0     19    100    102 269.6  11.1  34100  288.55 0862.78
2015 04 09 13 15 42 .02     -86     40     48     96    107 295.2  27.8  34116  288.82 0862.78
2015 04 09 13 15 42 .27    -136      5      1    137    138 272.5   0.7  34120  288.89 0862.78
2015 04 09 13 15 42 .52    -133      0    -39    134    139 270.4 -21.2  34156  289.50 0862.78
2015 04 09 13 15 42 .77    -124      4    -10    125    126 272.1  -4.6  34080  288.23 0862.78
2015 04 09 13 15 43 .02    -223     -9    -27    224    226 267.6  -6.9  34028  287.35 0862.78
2015 04 09 13 15 43 .27    -195     -2      8    196    197 269.4   2.5  34050  287.72 0862.78
2015 04 09 13 15 43 .53    -132    -57     29    145    149 246.5  11.6  34048  287.67 0862.78
2015 04 09 13 15 43 .78    -135     30     26    139    142 282.8  10.6  34042  287.59 0862.78
2015 04 09 13 15 44 .03    -111    -30      0    116    117 254.9  -0.3  34042  287.57 0862.78
2015 04 09 13 15 44 .28     -23    -18     26     30     39 232.2  45.8  34036  287.49 0862.78
2015 04 09 13 15 44 .53     -24      1     56     25     61 274.4  75.0  34056  287.82 0862.78
2015 04 09 13 15 44 .78    -110     -8     11    111    112 265.6   5.9  34048  287.67 0862.78
2015 04 09 13 15 45 .03      -4    -12     -5     13     13 198.3 -23.3  34048  287.69 0862.78
2015 04 09 13 15 45 .28     -24     41    -13     48     50 329.3 -15.5  34050  287.70 0862.78
2015 04 09 13 15 45 .55    -157     95    -50    184    191 301.3 -15.2  34044  287.60 0862.78
2015 04 09 13 15 45 .78    -182     63     -7    193    194 289.3  -2.2  34040  287.54 0862.78
2015 04 09 13 15 46 .03     -90     75    -28    118    122 310.0 -13.3  34032  287.42 0862.78
2015 04 09 13 15 46 .28    -116     38     51    123    133 288.2  23.6  34032  287.40 0862.78
2015 04 09 13 15 46 .53    -111      0    -14    112    113 270.0  -7.2  34014  287.10 0862.78
2015 04 09 13 15 46 .78     -47     10     94     49    106 282.4  70.4  34042  287.57 0862.78
2015 04 09 13 15 47 .04    -182    107    -59    212    221 300.4 -15.5  34054  287.79 0862.78
2015 04 09 13 15 47 .28     -60     73     -2     95     96 320.4  -1.8  34070  288.06 0862.78
2015 04 09 13 15 47 .54    -176    129    -56    219    227 306.4 -14.5  34068  288.03 0862.78
2015 04 09 13 15 47 .79    -201    167    -39    262    265 309.6  -8.6  34078  288.19 0862.78
2015 04 09 13 15 48 .04    -112    162     12    198    199 325.3   3.6  34080  288.21 0862.78
2015 04 09 13 15 48 .29     -92    174    -35    197    201 332.1 -10.1  34130  289.06 0862.78
2015 04 09 13 15 48 .54    -279    233    -14    364    365 309.9  -2.2  34090  288.38 0862.78
2015 04 09 13 15 48 .80    -329    198    -28    385    387 301.0  -4.2  34084  288.27 0862.78
2015 04 09 13 15 49 .05    -316    174    -45    361    364 298.9  -7.2  34060  287.89 0862.78
2015 04 09 13 15 49 .30    -297    208    -33    363    365 305.0  -5.3  34070  288.06 0862.78
2015 04 09 13 15 49 .55    -236    150    -25    280    282 302.5  -5.2  34060  287.88 0862.78
2015 04 09 13 15 49 .80    -230     80    -34    244    247 289.3  -8.0  34070  288.04 0862.78
2015 04 09 13 15 50 .05    -265    162    -59    311    317 301.5 -10.8  34060  287.88 0862.78
2015 04 09 13 15 50 .30    -232    209    -19    313    314 312.0  -3.5  34068  288.00 0862.78
2015 04 09 13 15 50 .56    -297    184    -38    350    353 301.8  -6.2  34104  288.64 0862.78
2015 04 09 13 15 50 .80    -247    122    -93    276    292 296.4 -18.7  34060  287.88 0862.78
2015 04 09 13 15 51 .05    -241    125    -52    272    278 297.5 -10.9  34070  288.04 0862.77
2015 04 09 13 15 51 .30    -183    175    -51    254    260 313.8 -11.3  34056  287.82 0862.77
2015 04 09 13 15 51 .55    -242    180    -16    302    303 306.6  -3.2  34024  287.28 0862.77
2015 04 09 13 15 51 .81    -207    151    -47    257    262 306.2 -10.5  34042  287.58 0862.77
2015 04 09 13 15 52 .05    -214    141    -16    257    258 303.3  -3.7  34036  287.48 0862.77
2015 04 09 13 15 52 .31    -215    143    -52    259    265 303.7 -11.3  34056  287.82 0862.77
2015 04 09 13 15 52 .56    -225    163    -20    279    280 306.0  -4.1  34066  287.99 0862.77
2015 04 09 13 15 52 .81    -216    151    -28    264    266 305.0  -6.2  34068  288.00 0862.77
2015 04 09 13 15 53 .06    -202    164    -12    261    262 309.1  -2.8  34070  288.05 0862.77
2015 04 09 13 15 53 .31    -169    140    -27    220    222 309.6  -7.2  34058  287.84 0862.77
2015 04 09 13 15 53 .56     -72     99     24    123    126 324.0  11.0  34074  288.11 0862.77
2015 04 09 13 15 53 .81     -86    118     11    147    148 323.9   4.4  34074  288.13 0862.77
2015 04 09 13 15 54 .06    -145    125     -7    192    193 310.9  -2.2  34066  287.98 0862.77
2015 04 09 13 15 54 .31    -143    113     16    183    184 308.4   5.2  34072  288.08 0862.77
2015 04 09 13 15 54 .56    -149    116    -12    190    191 308.0  -3.7  34066  287.98 0862.77
2015 04 09 13 15 54 .81    -143    113     16    183    184 308.4   5.2  34072  288.08 0862.78
2015 04 09 13 15 55 .06    -143    142     17    202    203 314.8   5.0  34082  288.26 0862.78
2015 04 09 13 15 55 .31     -93    135     17    165    166 325.5   6.1  34080  288.23 0862.78
2015 04 09 13 15 55 .57    -194    166    -37    256    259 310.7  -8.2  34078  288.17 0862.78
2015 04 09 13 15 55 .82    -170    159      2    233    234 313.1   0.7  34102  288.59 0862.78
2015 04 09 13 15 56 .08    -177    128    -27    219    221 306.0  -7.2  34104  288.64 0862.78
2015 04 09 13 15 56 .33     -96    116     24    151    154 320.4   9.3  34118  288.86 0862.78
2015 04 09 13 15 56 .58    -122    145     86    190    208 319.9  26.2  34136  289.16 0862.78
2015 04 09 13 15 56 .82     -88    232     45    249    254 339.1  10.3  34066  287.99 0862.78
2015 04 09 13 15 57 .08     -96    276      1    293    294 340.8   0.2  34042  287.56 0862.78
2015 04 09 13 15 57 .33    -123    214    -27    248    250 330.1  -6.2  34062  287.90 0862.78
2015 04 09 13 15 57 .58    -199    180    -10    269    270 312.2  -2.2  34066  287.97 0862.78
2015 04 09 13 15 57 .83    -169    158    -73    232    244 313.1 -17.6  34074  288.12 0862.78
2015 04 09 13 15 58 .08    -197    173    -83    263    276 311.3 -17.6  34052  287.73 0862.78
2015 04 09 13 15 58 .32    -230    161    -95    281    297 305.0 -18.7  34022  287.24 0862.78
2015 04 09 13 15 58 .58    -146    275    -86    312    324 332.0 -15.4  34004  286.92 0862.78
2015 04 09 13 15 58 .83    -112    269    -58    292    298 337.3 -11.3  34008  286.99 0862.78
2015 04 09 13 15 59 .08    -199    172    -73    264    275 310.9 -15.5  34010  287.04 0862.78
2015 04 09 13 15 59 .33    -181    161    -63    243    252 311.8 -14.7  34018  287.16 0862.78
2015 04 09 13 15 59 .58    -159    133    -24    208    210 310.0  -6.7  34018  287.16 0862.78
2015 04 09 13 15 59 .83    -195    183    -14    268    269 313.2  -3.2  34022  287.24 0862.78
2015 04 09 13 16 00 .09    -165    157    -21    229    231 313.6  -5.4  34036  287.47 0862.79
2015 04 09 13 16 00 .33    -184    127     -8    224    225 304.6  -2.1  34076  288.16 0862.79
2015 04 09 13 16 00 .58     -73    120     57    141    152 328.4  23.0  34078  288.18 0862.79
2015 04 09 13 16 00 .84    -148    149     18    211    212 315.2   5.0  34068  288.03 0862.79
2015 04 09 13 16 01 .08    -152    272    -61    312    319 330.8 -11.1  33996  286.79 0862.79
2015 04 09 13 16 01 .33    -147    297    -56    332    337 333.7  -9.6  33986  286.64 0862.79
2015 04 09 13 16 01 .59    -132    330    -50    356    360 338.1  -8.1  33984  286.58 0862.79
2015 04 09 13 16 01 .84    -161    297    -66    339    346 331.5 -11.1  33982  286.56 0862.79
2015 04 09 13 16 02 .09    -163    251    -60    300    306 327.0 -11.3  33984  286.60 0862.79
2015 04 09 13 16 02 .34     -84    254     22    268    270 341.7   4.9  33984  286.60 0862.79
2015 04 09 13 16 02 .59     -73    272    -13    282    283 344.9  -2.8  33984  286.58 0862.79
2015 04 09 13 16 02 .85     -95    314     -3    329    330 343.1  -0.6  33974  286.44 0862.79
2015 04 09 13 16 03 .10     -95    317      5    331    332 343.3   1.0  33990  286.68 0862.79
2015 04 09 13 16 03 .35    -121    326    -15    348    349 339.6  -2.5  33996  286.81 0862.79
2015 04 09 13 16 03 .60    -142    278    -67    313    321 332.9 -12.2  33996  286.80 0862.79
2015 04 09 13 16 03 .85    -172    207    -34    270    273 320.3  -7.3  34000  286.87 0862.79
2015 04 09 13 16 04 .10    -145    261    -51    299    304 331.0  -9.8  33984  286.60 0862.79
2015 04 09 13 16 04 .35    -129    278    -34    307    309 335.1  -6.5  33984  286.58 0862.79
2015 04 09 13 16 04 .60    -122    256    -51    284    289 334.5 -10.3  33968  286.33 0862.79
2015 04 09 13 16 04 .86    -170    256    -73    308    317 326.4 -13.4  33970  286.35 0862.79
2015 04 09 13 16 05 .11    -157    218    -69    269    278 324.2 -14.4  33976  286.45 0862.79
2015 04 09 13 16 05 .35    -139    181    -64    229    238 322.6 -15.8  33978  286.50 0862.79
2015 04 09 13 16 05 .61     -69    188    -46    201    207 339.7 -12.9  33976  286.46 0862.79
2015 04 09 13 16 05 .86     -69    203    -30    215    218 341.1  -8.0  33994  286.78 0862.79
2015 04 09 13 16 06 .11     -49    182     20    189    191 344.9   6.1  34006  286.96 0862.79
2015 04 09 13 16 06 .36     -74    210     21    223    225 340.6   5.4  33994  286.78 0862.79
2015 04 09 13 16 06 .61     -66    199     15    210    211 341.5   4.2  34006  286.96 0862.79
2015 04 09 13 16 06 .86    -101    208    -27    232    234 334.1  -6.9  34002  286.89 0862.79
2015 04 09 13 16 07 .11    -113    237    -33    263    266 334.5  -7.2  33992  286.74 0862.79
2015 04 09 13 16 07 .36    -136    327    -45    355    358 337.4  -7.4  33980  286.54 0862.79
2015 04 09 13 16 07 .61    -187    293    -69    348    355 327.4 -11.3  33946  285.94 0862.79
2015 04 09 13 16 07 .86    -214    282    -71    355    363 322.8 -11.3  33948  285.99 0862.79
2015 04 09 13 16 08 .12    -224    322    -93    393    404 325.2 -13.4  33954  286.10 0862.79
2015 04 09 13 16 08 .36    -238    312    -87    393    403 322.7 -12.5  33992  286.73 0862.79
2015 04 09 13 16 08 .61    -242    313    -86    396    406 322.3 -12.3  33970  286.35 0862.79
2015 04 09 13 16 08 .86    -250    239    -66    346    353 313.7 -10.8  33972  286.41 0862.79
2015 04 09 13 16 09 .11    -312    226     -4    386    387 305.9  -0.7  33996  286.80 0862.79
2015 04 09 13 16 09 .37    -312    214    -72    379    386 304.5 -10.8  33994  286.78 0862.79
2015 04 09 13 16 09 .61    -318    203    -57    378    383 302.5  -8.7  33984  286.59 0862.79
2015 04 09 13 16 09 .88    -290    233    -59    373    378 308.8  -9.1  33994  286.78 0862.79
2015 04 09 13 16 10 .13    -306    214    -20    374    375 305.0  -3.2  33990  286.69 0862.79
2015 04 09 13 16 10 .38    -335    198    -59    390    395 300.7  -8.6  33956  286.14 0862.79
2015 04 09 13 16 10 .63    -306    209    -31    371    373 304.4  -4.8  33996  286.81 0862.79
2015 04 09 13 16 10 .88    -303    199    -29    363    365 303.4  -4.6  33998  286.83 0862.79
2015 04 09 13 16 11 .13    -308    167    -53    351    356 298.5  -8.7  34034  287.45 0862.79
2015 04 09 13 16 11 .38    -288    170    -38    335    338 300.5  -6.6  34022  287.25 0862.79
2015 04 09 13 16 11 .63    -298    178    -48    348    352 300.9  -8.0  34010  287.03 0862.79
2015 04 09 13 16 11 .88    -290    181    -48    343    347 302.0  -8.1  34002  286.90 0862.79
2015 04 09 13 16 12 .13    -273    173    -35    324    326 302.4  -6.2  33996  286.79 0862.79
2015 04 09 13 16 12 .39    -277    158    -54    320    325 299.8  -9.7  33946  285.96 0862.79
2015 04 09 13 16 12 .63    -258    158    -59    303    309 301.5 -11.1  33984  286.60 0862.79
2015 04 09 13 16 12 .88    -223    149    -54    269    275 303.7 -11.3  33990  286.68 0862.79
2015 04 09 13 16 13 .13    -216    123    -31    249    251 299.7  -7.2  34000  286.87 0862.79
2015 04 09 13 16 13 .39    -181    170     -3    249    250 313.2  -0.7  34014  287.11 0862.79
2015 04 09 13 16 13 .63    -230    145    -60    273    280 302.2 -12.4  33952  286.04 0862.79
2015 04 09 13 16 13 .89    -238    131    -81    272    284 298.9 -16.6  33944  285.93 0862.79
2015 04 09 13 16 14 .14    -250    127    -46    281    285 296.9  -9.3  33966  286.30 0862.79
2015 04 09 13 16 14 .38    -199    126    -42    236    240 302.4 -10.1  33970  286.36 0862.79
2015 04 09 13 16 14 .63    -213    141    -42    256    260 303.5  -9.3  33962  286.21 0862.79
2015 04 09 13 16 14 .89    -179    130    -42    222    227 306.0 -10.9  33972  286.41 0862.79
2015 04 09 13 16 15 .14    -152    121     -1    195    196 308.4  -0.5  33994  286.76 0862.79
2015 04 09 13 16 15 .39     -94    111    -18    146    148 319.9  -7.3  33994  286.78 0862.79
2015 04 09 13 16 15 .64     -90    184    -15    205    206 333.9  -4.4  34028  287.35 0862.79
2015 04 09 13 16 15 .89     -94    238    -18    257    258 338.4  -4.1  34054  287.77 0862.79
2015 04 09 13 16 16 .14     -85    241      0    256    257 340.6   0.0  34028  287.33 0862.79
2015 04 09 13 16 16 .39     -67    212    -10    223    224 342.4  -2.8  34030  287.37 0862.79
2015 04 09 13 16 16 .65     -77    214     11    228    229 340.2   2.9  34052  287.74 0862.79
2015 04 09 13 16 16 .91    -104    230    -42    253    257 335.5  -9.6  34018  287.17 0862.79
2015 04 09 13 16 17 .15     -88    221    -30    239    241 338.2  -7.2  34038  287.50 0862.79
2015 04 09 13 16 17 .41     -94    234    -18    253    254 338.2  -4.1  34064  287.95 0862.79
2015 04 09 13 16 17 .65    -100    229    -16    250    251 336.4  -3.7  34030  287.36 0862.79
2015 04 09 13 16 17 .90    -100    221    -40    243    247 335.7  -9.3  34028  287.34 0862.79
2015 04 09 13 16 18 .15    -103    235     -9    257    258 336.3  -2.1  34014  287.11 0862.79
2015 04 09 13 16 18 .40    -115    253    -31    279    281 335.5  -6.5  33982  286.57 0862.79
2015 04 09 13 16 18 .66    -108    238    -28    262    264 335.5  -6.2  34006  286.95 0862.79
2015 04 09 13 16 18 .90     -96    208    -37    230    234 335.3  -9.3  34016  287.15 0862.79
2015 04 09 13 16 19 .16     -95    212    -19    233    234 335.9  -4.9  34020  287.19 0862.79
2015 04 09 13 16 19 .40     -98    196    -39    220    224 333.5 -10.3  34018  287.18 0862.79
2015 04 09 13 16 19 .66    -109    194    -28    223    225 330.6  -7.3  34006  286.98 0862.79
2015 04 09 13 16 19 .91    -118    182    -36    218    221 327.0  -9.4  34000  286.88 0862.79
2015 04 09 13 16 20 .16    -141    142    -41    201    206 315.1 -11.5  33988  286.67 0862.79
2015 04 09 13 16 20 .41    -144    124    -28    191    194 310.7  -8.6  33994  286.78 0862.79
2015 04 09 13 16 20 .66     -96    117      3    152    153 320.4   1.2  34008  287.01 0862.79
2015 04 09 13 16 20 .91    -102    105    -35    147    152 315.9 -13.4  33994  286.78 0862.79
2015 04 09 13 16 21 .16    -110    139    -48    178    185 321.7 -15.2  33986  286.64 0862.80
2015 04 09 13 16 21 .41     -78    142    -21    163    165 331.1  -7.3  33982  286.57 0862.80
2015 04 09 13 16 21 .66     -27    163      0    166    167 350.4  -0.3  33984  286.61 0862.80
2015 04 09 13 16 21 .91     -62    158     -1    170    171 338.6  -0.5  33972  286.41 0862.80
2015 04 09 13 16 22 .16     -71    206    -12    219    220 340.8  -3.1  33972  286.41 0862.80
2015 04 09 13 16 22 .41     -44    215     25    220    222 348.4   6.7  33974  286.44 0862.80
2015 04 09 13 16 22 .66     -54    199     15    207    208 344.9   4.2  33984  286.59 0862.80
2015 04 09 13 16 22 .92     -55    185     12    194    195 343.5   3.8  33990  286.71 0862.80
2015 04 09 13 16 23 .17     -60    153     -6    165    166 338.6  -2.1  33994  286.78 0862.80
2015 04 09 13 16 23 .42     -74    137    -33    156    160 331.5 -12.2  34012  287.06 0862.80
2015 04 09 13 16 23 .68     -63    151      7    164    165 337.3   2.5  34022  287.23 0862.80
2015 04 09 13 16 23 .93     -73    152    -16    169    170 334.4  -5.6  34012  287.06 0862.80
2015 04 09 13 16 24 .18     -90    247     -5    264    265 340.0  -1.2  34036  287.48 0862.80
2015 04 09 13 16 24 .43    -110    233    -22    258    260 334.6  -4.9  34064  287.95 0862.80
2015 04 09 13 16 24 .68    -120    186    -45    222    227 327.0 -11.5  34058  287.84 0862.80
2015 04 09 13 16 24 .93    -153    154    -33    218    221 315.1  -8.8  34046  287.64 0862.80
2015 04 09 13 16 25 .18    -145    177    -18    229    230 320.6  -4.6  34040  287.55 0862.80
2015 04 09 13 16 25 .43    -154    148    -16    214    215 313.8  -4.4  34036  287.47 0862.80
2015 04 09 13 16 25 .68    -155    190    -21    246    248 320.8  -5.1  34036  287.48 0862.80
2015 04 09 13 16 25 .94    -189    161    -74    249    260 310.4 -16.6  34024  287.28 0862.80
2015 04 09 13 16 26 .18    -176    192    -56    261    268 317.5 -12.2  34020  287.19 0862.80
2015 04 09 13 16 26 .43    -166    191    -35    254    257 319.0  -8.0  34024  287.28 0862.80
2015 04 09 13 16 26 .68    -116    202    -51    234    240 330.1 -12.4  34026  287.29 0862.80
2015 04 09 13 16 26 .94     -92    232     -9    250    251 338.2  -2.2  34044  287.61 0862.80
2015 04 09 13 16 27 .18     -81    252      8    265    266 342.2   1.8  34036  287.46 0862.80
2015 04 09 13 16 27 .44    -107    236    -66    260    269 335.5 -14.4  33992  286.74 0862.80
2015 04 09 13 16 27 .68    -121    219    -65    251    260 331.0 -14.5  33954  286.09 0862.80
2015 04 09 13 16 27 .93    -105    217    -47    242    247 334.1 -11.1  33926  285.62 0862.80
2015 04 09 13 16 28 .19    -113    221    -55    249    256 332.8 -12.6  33938  285.81 0862.80
2015 04 09 13 16 28 .44    -112    209    -52    238    244 331.9 -12.4  33964  286.26 0862.80
2015 04 09 13 16 28 .68    -132    207    -62    246    254 327.4 -14.3  33968  286.33 0862.80
2015 04 09 13 16 28 .94    -125    197    -50    234    240 327.7 -12.2  33976  286.45 0862.80
2015 04 09 13 16 29 .19    -116    176    -40    212    216 326.6 -10.9  33970  286.35 0862.80
2015 04 09 13 16 29 .44    -118    148    -10    190    191 321.3  -3.3  33996  286.79 0862.80
2015 04 09 13 16 29 .69    -136    163     -4    213    214 320.1  -1.2  34012  287.06 0862.80
2015 04 09 13 16 29 .94    -154    133     -4    204    205 310.9  -1.3  34012  287.06 0862.80
2015 04 09 13 16 30 .19    -150    127     24    197    199 310.2   7.1  34016  287.15 0862.80
2015 04 09 13 16 30 .44     -98     96     40    138    144 314.4  16.3  34020  287.20 0862.80
2015 04 09 13 16 30 .70    -182    100    -37    208    212 298.8 -10.3  34008  287.01 0862.80
2015 04 09 13 16 30 .95    -216    137    -46    256    261 302.4 -10.3  34006  286.97 0862.80
2015 04 09 13 16 31 .21    -232    100    -22    253    255 293.5  -5.1  34014  287.11 0862.80
2015 04 09 13 16 31 .45    -196    120    -36    230    233 301.5  -9.0  34014  287.10 0862.80
2015 04 09 13 16 31 .70    -263    152    -47    304    308 300.0  -8.8  33996  286.80 0862.80
2015 04 09 13 16 31 .95    -265    115    -63    289    296 293.5 -12.4  33976  286.47 0862.80
2015 04 09 13 16 32 .21    -202     90    -28    222    224 294.0  -7.3  33984  286.59 0862.80
2015 04 09 13 16 32 .46    -181    162    -31    244    246 311.8  -7.3  34002  286.90 0862.80
2015 04 09 13 16 32 .71    -196    132      2    237    238 304.1   0.5  34002  286.89 0862.80
2015 04 09 13 16 32 .96    -187    182     -5    262    263 314.2  -1.1  34008  287.01 0862.80
2015 04 09 13 16 33 .21    -193    175    -31    261    263 312.2  -6.9  33994  286.77 0862.80
2015 04 09 13 16 33 .46    -231    157    -65    280    288 304.2 -13.2  33970  286.36 0862.80
2015 04 09 13 16 33 .72    -174    179    -53    250    256 315.9 -12.2  34006  286.95 0862.81
2015 04 09 13 16 33 .96    -209    196    -41    287    291 313.1  -8.2  34020  287.19 0862.81
2015 04 09 13 16 34 .21    -200    169    -53    262    268 310.2 -11.5  34024  287.26 0862.81
2015 04 09 13 16 34 .47    -153    159    -28    221    223 316.1  -7.3  34024  287.27 0862.81
2015 04 09 13 16 34 .71    -125    131     14    182    183 316.3   4.6  34026  287.32 0862.81
2015 04 09 13 16 34 .96    -145    109      7    182    183 306.9   2.3  34018  287.16 0862.81
2015 04 09 13 16 35 .21    -127    110    -16    169    170 310.9  -5.6  34040  287.54 0862.81
2015 04 09 13 16 35 .46    -122    121    -16    172    173 314.8  -5.6  34024  287.28 0862.81
2015 04 09 13 16 35 .71    -145    109    -14    182    183 306.9  -4.6  34014  287.10 0862.80
2015 04 09 13 16 35 .96    -130    137    -35    190    194 316.6 -10.5  34002  286.89 0862.80
2015 04 09 13 16 36 .21    -133    120    -48    180    187 312.2 -15.2  33950  286.02 0862.80
2015 04 09 13 16 36 .47    -118    130    -60    176    187 317.7 -18.9  33950  286.02 0862.80
2015 04 09 13 16 36 .71    -119    114    -47    165    172 313.8 -16.0  33948  286.00 0862.80
2015 04 09 13 16 36 .97    -102     98    -50    142    151 314.0 -19.6  33958  286.17 0862.80
2015 04 09 13 16 37 .22    -123    106    -29    163    166 310.7 -10.3  33972  286.41 0862.80
2015 04 09 13 16 37 .48     -81    104     11    132    133 322.2   5.0  33998  286.84 0862.80
2015 04 09 13 16 37 .73     -45    164     44    171    177 344.6  14.5  34036  287.47 0862.80
2015 04 09 13 16 37 .99     -31    224     27    227    229 352.0   6.9  34088  288.35 0862.80
2015 04 09 13 16 38 .22     -29    142     28    146    149 348.4  11.1  34056  287.81 0862.80
2015 04 09 13 16 38 .48     -32    120     24    125    128 344.9  11.1  34020  287.20 0862.81
2015 04 09 13 16 38 .73     -79    155      4    175    176 332.8   1.6  33976  286.46 0862.81
2015 04 09 13 16 38 .98    -133    132    -38    188    192 314.9 -11.6  33972  286.39 0862.81
2015 04 09 13 16 39 .23    -112    110     12    158    159 314.4   4.4  33990  286.69 0862.81
2015 04 09 13 16 39 .48    -145     81     -3    167    168 299.1  -1.3  33986  286.64 0862.81
2015 04 09 13 16 39 .73    -135     69    -44    152    159 297.1 -16.4  33988  286.66 0862.81
2015 04 09 13 16 39 .98    -171     92    -54    195    202 298.2 -20.0  33970  286.37 0862.81
2015 04 09 13 16 40 .23    -168    107    -56    200    207 302.5 -20.4  33978  286.51 0862.81
2015 04 09 13 16 40 .49    -162     94    -45    188    194 300.0 -13.7  34000  286.88 0862.81
2015 04 09 13 16 40 .73    -179    113    -35    212    215 302.4  -9.4  33984  286.61 0862.81
2015 04 09 13 16 40 .99    -143     98    -22    174    176 304.6  -7.3  33986  286.64 0862.81
2015 04 09 13 16 41 .24    -101    118    -16    156    157 319.5  -6.2  34002  286.89 0862.81
2015 04 09 13 16 41 .49    -125    125      1    177    178 315.0   0.5  34008  287.01 0862.81
2015 04 09 13 16 41 .74    -213    160    -21    267    268 306.9  -4.6  33992  286.74 0862.81
2015 04 09 13 16 41 .99    -237    180     -6    298    299 307.3  -1.3  33992  286.72 0862.81
2015 04 09 13 16 42 .24    -245    125    -46    276    280 297.1  -9.6  33984  286.58 0862.81
2015 04 09 13 16 42 .49    -206    122    -34    240    243 300.7  -8.2  34000  286.87 0862.81
2015 04 09 13 16 42 .74    -211    169    -14    271    272 308.6  -3.1  34000  286.87 0862.81
2015 04 09 13 16 42 .99    -219    173    -10    280    281 308.2  -2.1  34002  286.89 0862.81
2015 04 09 13 16 43 .24    -172    191    -57    258    265 318.1 -12.6  34018  287.16 0862.81
2015 04 09 13 16 43 .49    -210    150    -36    259    262 305.5  -8.0  33990  286.68 0862.81
2015 04 09 13 16 43 .74    -155    142    -11    211    212 312.4  -3.1  34014  287.10 0862.81
2015 04 09 13 16 43 .99     -86    117     12    146    147 323.9   4.9  34020  287.21 0862.81
2015 04 09 13 16 44 .25     -73    179    -44    194    200 337.7 -12.9  33980  286.52 0862.81
2015 04 09 13 16 44 .51    -200    131    -17    240    241 303.3  -4.1  34008  287.01 0862.81
2015 04 09 13 16 44 .75    -162    162    -29    230    232 314.9  -7.2  33992  286.73 0862.81
2015 04 09 13 16 45 .01    -122    190    -58    227    235 327.3 -14.5  33966  286.29 0862.81
2015 04 09 13 16 45 .26    -117    229    -52    258    264 332.8 -11.6  33974  286.42 0862.81
2015 04 09 13 16 45 .51    -151    237    -36    282    285 327.5  -7.3  33968  286.33 0862.81
2015 04 09 13 16 45 .76    -202    214    -26    295    297 316.7  -5.1  33972  286.40 0862.81
2015 04 09 13 16 46 .01    -214    263    -66    340    347 320.9 -11.1  33974  286.43 0862.81
2015 04 09 13 16 46 .26    -228    253    -75    341    350 318.0 -12.5  34004  286.93 0862.81
2015 04 09 13 16 46 .51    -256    243    -72    354    362 313.5 -11.5  34012  287.07 0862.81
2015 04 09 13 16 46 .76    -230    242    -64    334    341 316.5 -10.9  33994  286.78 0862.80
2015 04 09 13 16 47 .01    -236    207    -45    315    319 311.3  -8.2  33986  286.63 0862.80
2015 04 09 13 16 47 .26    -164    163     11    232    233 314.9   2.9  34004  286.93 0862.80
2015 04 09 13 16 47 .51    -149    137     20    203    205 312.7   5.7  34024  287.28 0862.80
2015 04 09 13 16 47 .76    -191    112    -17    222    223 300.4  -4.4  34032  287.40 0862.80
2015 04 09 13 16 48 .01    -213    126    -58    248    255 300.6 -13.2  34030  287.38 0862.80
2015 04 09 13 16 48 .26    -207    105    -78    233    246 297.0 -18.6  34020  287.21 0862.80
2015 04 09 13 16 48 .51    -229    108    -80    254    266 295.2 -22.8  33952  286.06 0862.80
2015 04 09 13 16 48 .76    -243    134    -89    278    291 298.9 -23.0  33932  285.71 0862.80
2015 04 09 13 16 49 .02    -235    167    -94    289    303 305.3 -23.6  33972  286.40 0862.80
2015 04 09 13 16 49 .27    -205    195   -101    283    301 313.6 -19.7  33998  286.82 0862.80
2015 04 09 13 16 49 .52    -243    175    -43    300    304 305.9  -8.2  34018  287.17 0862.80
2015 04 09 13 16 49 .77    -206    139     -9    249    250 304.1  -2.2  34046  287.63 0862.80
2015 04 09 13 16 50 .02    -153    134      0    204    205 311.3   0.2  34040  287.54 0862.80
2015 04 09 13 16 50 .27    -216     67    -45    227    232 287.3 -11.3  33996  286.81 0862.81
2015 04 09 13 16 50 .52    -202     60    -87    211    228 286.8 -27.8  33976  286.46 0862.81
2015 04 09 13 16 50 .77    -231     64    -77    240    253 285.7 -17.9  33974  286.42 0862.81
2015 04 09 13 16 51 .02    -183     60    -53    193    201 288.4 -15.5  33978  286.51 0862.81
2015 04 09 13 16 51 .27    -210    119    -15    242    243 299.7  -3.7  34052  287.73 0862.81
2015 04 09 13 16 51 .53    -165     88     -1    188    189 298.2  -0.5  34024  287.27 0862.81
2015 04 09 13 16 51 .78    -148     68     -5    164    165 294.8  -1.8  34042  287.57 0862.81
2015 04 09 13 16 52 .03     -77    122     67    145    159 327.9  26.6  34094  288.47 0862.81
2015 04 09 13 16 52 .28     -42     93     42    103    111 335.5  23.1  34094  288.47 0862.81
2015 04 09 13 16 52 .53     -88    121    117    150    190 323.9  42.2  34086  288.31 0862.81
2015 04 09 13 16 52 .79    -121     91    123    152    195 306.9  43.3  34084  288.30 0862.81
2015 04 09 13 16 53 .04    -128     97    -19    161    163 307.1  -6.9  34086  288.31 0862.81
2015 04 09 13 16 53 .28    -130     96    -34    162    166 306.4 -11.9  34076  288.16 0862.81
2015 04 09 13 16 53 .54     -91     86    -27    126    130 313.2 -12.4  34054  287.77 0862.81
2015 04 09 13 16 53 .78     -55    106     59    120    133 332.4  27.8  34048  287.69 0862.81
2015 04 09 13 16 54 .04     -92    127     42    157    163 324.0  15.3  34024  287.27 0862.81
2015 04 09 13 16 54 .29    -101    111     32    151    155 317.7  12.2  34012  287.06 0862.81
2015 04 09 13 16 54 .54    -118    123     30    171    174 316.3  10.1  33992  286.73 0862.81
2015 04 09 13 16 54 .79    -160    116     -1    198    199 306.0  -0.5  34020  287.20 0862.81
2015 04 09 13 16 55 .04    -206    142     -2    251    252 304.6  -0.5  33958  286.16 0862.81
2015 04 09 13 16 55 .29    -194    150    -17    246    247 307.8  -4.1  33936  285.79 0862.81
2015 04 09 13 16 55 .54    -188    153    -20    243    244 309.1  -4.9  33934  285.76 0862.81
2015 04 09 13 16 55 .79    -175    144    -20    227    228 309.5  -5.1  33934  285.75 0862.81
2015 04 09 13 16 56 .04    -181    140    -33    229    232 307.8  -8.2  33934  285.75 0862.81
2015 04 09 13 16 56 .29    -175    144    -20    227    228 309.5  -5.1  33934  285.75 0862.81
2015 04 09 13 16 56 .54    -168    128    -19    212    214 307.3  -5.4  33934  285.76 0862.80
2015 04 09 13 16 56 .79    -178    136    -29    225    227 307.3  -7.5  33934  285.76 0862.80
2015 04 09 13 16 57 .04    -162    133    -22    210    212 309.5  -6.0  33940  285.87 0862.80
2015 04 09 13 16 57 .29    -166    114    -18    202    203 304.6  -5.2  33942  285.90 0862.80
2015 04 09 13 16 57 .54    -178    118    -24    214    216 303.7  -6.5  33942  285.90 0862.80
2015 04 09 13 16 57 .79    -175    105    -20    205    207 301.1  -5.6  33944  285.93 0862.80
2015 04 09 13 16 58 .05    -184    123    -29    222    224 303.7  -7.5  33950  286.03 0862.80
2015 04 09 13 16 58 .31    -181    115    -17    215    216 302.5  -4.6  33956  286.12 0862.80
2015 04 09 13 16 58 .56    -178    138    -16    226    227 307.7  -4.1  33966  286.30 0862.80
2015 04 09 13 16 58 .81    -204    127    -25    241    243 301.8  -6.0  33970  286.35 0862.80
2015 04 09 13 16 59 .06    -185    133     -8    228    229 305.7  -2.2  33974  286.44 0862.80
2015 04 09 13 16 59 .31    -112    154      7    191    192 324.0   2.3  33996  286.79 0862.80
2015 04 09 13 16 59 .56    -177    139    -20    226    227 308.2  -5.2  33988  286.67 0862.81
2015 04 09 13 16 59 .81    -159    140    -30    213    216 311.4  -8.0  33988  286.67 0862.81
2015 04 09 13 17 00 .06    -190    169    -51    255    261 311.6 -11.3  34000  286.87 0862.81
2015 04 09 13 17 00 .31    -184    167    -49    249    254 312.3 -11.3  34004  286.92 0862.81
2015 04 09 13 17 00 .56    -184    138    -62    231    240 306.9 -15.2  34008  287.01 0862.81
2015 04 09 13 17 00 .81    -185    116    -66    219    228 302.2 -21.7  33990  286.69 0862.81
2015 04 09 13 17 01 .06    -153    153    -64    217    227 314.9 -16.4  33992  286.73 0862.81
2015 04 09 13 17 01 .31    -138    145    -62    201    210 316.6 -22.3  33984  286.59 0862.80
2015 04 09 13 17 01 .56    -136    163    -66    213    224 320.1 -17.3  33990  286.69 0862.80
2015 04 09 13 17 01 .81    -152    139    -62    207    217 312.4 -16.8  33992  286.73 0862.80
2015 04 09 13 17 02 .07    -123    173    -58    213    221 324.6 -15.4  33994  286.78 0862.80
2015 04 09 13 17 02 .31    -139    115    -65    181    193 309.6 -19.7  33990  286.69 0862.80
2015 04 09 13 17 02 .57    -150    129    -49    198    204 310.7 -13.9  33996  286.79 0862.80
2015 04 09 13 17 02 .82    -198    122    -46    233    238 301.8 -11.3  33996  286.79 0862.80
2015 04 09 13 17 03 .07    -179    131    -72    222    233 306.2 -23.8  33990  286.69 0862.80
2015 04 09 13 17 03 .32    -129    117    -22    175    177 312.2  -7.3  33994  286.76 0862.80
2015 04 09 13 17 03 .57     -67     44     34     81     87 303.3  23.6  34006  286.96 0862.80
2015 04 09 13 17 03 .82    -140     10     -5    141    142 274.3  -2.2  33998  286.84 0862.80
2015 04 09 13 17 04 .07     -87     48     -2    100    101 298.9  -1.3  34006  286.98 0862.81
2015 04 09 13 17 04 .32     -67     22    -19     71     74 288.2 -15.4  34020  287.21 0862.81
2015 04 09 13 17 04 .57     -77     -7     31     78     83 264.8  22.0  34004  286.93 0862.81
2015 04 09 13 17 04 .82    -116     16    -30    118    122 277.9 -14.5  34028  287.33 0862.81
2015 04 09 13 17 05 .07      33     37     38     50     62  41.4  41.7  34048  287.69 0862.81
2015 04 09 13 17 05 .33     -33     29     -1     45     46 311.3  -2.2  34052  287.76 0862.81
2015 04 09 13 17 05 .58    -150      0    -29    151    154 270.0 -11.1  34066  287.99 0862.81
2015 04 09 13 17 05 .83     -83    -12    -23     84     88 261.6 -15.4  34072  288.08 0862.80
2015 04 09 13 17 06 .09    -141    -22    -28    143    146 260.8 -11.3  34076  288.14 0862.80
2015 04 09 13 17 06 .34      -7     37     18     38     42 348.4  27.2  34098  288.53 0862.80
2015 04 09 13 17 06 .59     -31     83    -31     89     95 339.5 -19.7  34110  288.74 0862.80
2015 04 09 13 17 06 .83     -87      0    -29     88     93 270.0 -18.7  34072  288.08 0862.80
2015 04 09 13 17 07 .09     -89     48    -29    102    107 298.4 -16.0  34052  287.74 0862.80
2015 04 09 13 17 07 .34    -119     65     -7    136    137 298.9  -3.1  34060  287.89 0862.80
2015 04 09 13 17 07 .59     -51    -37     28     64     69 234.0  26.2  34076  288.14 0862.80
2015 04 09 13 17 07 .84    -141    -28    -26    144    147 258.5 -10.3  34046  287.64 0862.80
2015 04 09 13 17 08 .09    -105    -76     -7    130    131 234.0  -3.2  34054  287.79 0862.80
2015 04 09 13 17 08 .34    -195     -8    -25    196    198 267.4  -7.3  34026  287.30 0862.80
2015 04 09 13 17 08 .59    -233    -19    -25    234    236 265.2  -6.2  34032  287.41 0862.80
2015 04 09 13 17 08 .84    -226     13    -18    227    228 273.5  -4.6  34034  287.43 0862.80
2015 04 09 13 17 09 .09    -260      3    -57    261    268 270.8 -12.4  34028  287.33 0862.80
2015 04 09 13 17 09 .34    -241     12    -78    242    255 273.0 -17.9  34038  287.50 0862.80
2015 04 09 13 17 09 .59    -233     17    -64    234    243 274.3 -15.5  34014  287.11 0862.80
2015 04 09 13 17 09 .84    -232      0    -38    233    237 270.0  -9.3  34004  286.92 0862.80
2015 04 09 13 17 10 .09    -200     15    -41    201    206 274.4 -11.5  34016  287.15 0862.80
2015 04 09 13 17 10 .34    -217     16    -65    218    228 274.4 -16.6  34020  287.20 0862.80
2015 04 09 13 17 10 .59    -219     12    -42    220    225 273.3 -10.9  34004  286.94 0862.80
2015 04 09 13 17 10 .84    -192    -16    -46    193    199 265.0 -13.4  33992  286.74 0862.80
2015 04 09 13 17 11 .10    -232    -29    -47    234    239 262.8 -11.5  33986  286.62 0862.80
2015 04 09 13 17 11 .35    -197     22    -54    199    207 276.6 -15.4  34022  287.25 0862.80
2015 04 09 13 17 11 .60    -173     43    -49    179    186 283.9 -15.5  34026  287.30 0862.80
2015 04 09 13 17 11 .85    -190     30    -38    193    197 279.2 -11.3  34018  287.18 0862.80
2015 04 09 13 17 12 .10    -195     14    -35    196    200 274.4 -10.1  33972  286.41 0862.80
2015 04 09 13 17 12 .35    -198     53    -35    206    210 285.1  -9.8  33974  286.42 0862.80
2015 04 09 13 17 12 .61    -213      7    -20    214    216 272.1  -5.6  33962  286.24 0862.80
2015 04 09 13 17 12 .86    -198     23    -47    200    206 276.8 -13.4  33950  286.02 0862.80
2015 04 09 13 17 13 .11    -185     14    -39    186    191 274.4 -11.9  33966  286.29 0862.80
2015 04 09 13 17 13 .36    -168      4    -58    169    179 271.5 -19.1  33962  286.24 0862.80
2015 04 09 13 17 13 .61    -171     19    -50    173    180 276.6 -21.0  33970  286.37 0862.80
2015 04 09 13 17 13 .86    -152     23    -41    154    160 278.8 -15.0  33964  286.27 0862.80
2015 04 09 13 17 14 .11    -167     19    -44    169    175 276.6 -14.7  33936  285.78 0862.80
2015 04 09 13 17 14 .36    -162     14    -49    163    171 275.2 -16.8  33936  285.78 0862.80
2015 04 09 13 17 14 .61    -153     15    -53    154    164 275.7 -19.1  33940  285.87 0862.80
2015 04 09 13 17 14 .86    -141     41    -24    147    150 286.4  -9.4  33940  285.85 0862.80
2015 04 09 13 17 15 .11    -145     29     -5    148    149 281.5  -2.2  33952  286.07 0862.80
2015 04 09 13 17 15 .36    -144     29    -13    147    148 281.5  -5.2  33948  285.98 0862.80
2015 04 09 13 17 15 .61    -157     -2    -20    158    160 269.2  -7.5  33946  285.95 0862.80
2015 04 09 13 17 15 .87    -152      9    -33    153    157 273.5 -12.4  33950  286.03 0862.80
2015 04 09 13 17 16 .12    -129     32      2    134    135 284.2   1.2  33958  286.17 0862.80
2015 04 09 13 17 16 .37    -148    -11     -8    149    150 265.6  -3.2  33950  286.03 0862.80
2015 04 09 13 17 16 .61    -157    -36    -38    162    167 257.0 -13.4  33942  285.88 0862.80
2015 04 09 13 17 16 .87    -154    -31    -29    158    161 258.6 -10.5  33942  285.88 0862.80
2015 04 09 13 17 17 .12    -157     -2    -35    158    162 269.2 -12.6  33978  286.49 0862.80
2015 04 09 13 17 17 .37    -157    -32     -3    161    162 258.5  -1.3  33998  286.84 0862.80
2015 04 09 13 17 17 .62    -160    -24    -34    162    166 261.2 -11.9  34004  286.94 0862.80
2015 04 09 13 17 17 .87    -151    -24    -12    153    154 260.8  -4.6  33996  286.79 0862.80
2015 04 09 13 17 18 .12    -104    -47    -18    115    117 245.6  -9.3  34014  287.11 0862.80
2015 04 09 13 17 18 .37     -57    -69     38     90     97 219.6  24.1  34028  287.33 0862.80
2015 04 09 13 17 18 .62     -75      1      3     76     77 270.8   2.9  34026  287.32 0862.80
2015 04 09 13 17 18 .87    -120    -12    -15    121    122 263.9  -7.3  34020  287.21 0862.80
2015 04 09 13 17 19 .13     -88    -26    -29     92     96 253.2 -23.3  34006  286.98 0862.80
2015 04 09 13 17 19 .38     -49    -45     13     67     69 227.8  11.1  34028  287.33 0862.80
2015 04 09 13 17 19 .63    -139     10    -12    140    141 274.3  -5.2  34012  287.08 0862.80
2015 04 09 13 17 19 .89     -93    -11    -26     94     98 263.0 -15.5  34008  287.00 0862.80
2015 04 09 13 17 20 .13     -82    -19      4     85     86 256.7   2.8  34020  287.21 0862.80
2015 04 09 13 17 20 .39     -90    -42    -22    100    103 244.7 -12.4  33982  286.57 0862.80
2015 04 09 13 17 20 .64     -97    -12    -12     98     99 262.5  -7.3  33972  286.41 0862.80
2015 04 09 13 17 20 .88    -108     -8    -10    109    110 265.7  -5.6  33946  285.95 0862.80
2015 04 09 13 17 21 .13    -110    -22    -23    113    116 258.5 -11.5  33938  285.82 0862.80
2015 04 09 13 17 21 .39    -112    -20    -25    114    117 259.4 -12.4  33936  285.80 0862.80
2015 04 09 13 17 21 .63    -119    -20    -28    121    125 260.3 -13.3  33938  285.82 0862.80
2015 04 09 13 17 21 .89    -121    -20    -20    123    125 260.3  -9.3  33940  285.85 0862.80
2015 04 09 13 17 22 .14    -119    -20    -28    121    125 260.3 -13.3  33940  285.87 0862.80
2015 04 09 13 17 22 .39    -122    -13    -20    123    125 263.9  -9.3  33940  285.85 0862.80
2015 04 09 13 17 22 .64    -126    -17    -16    128    130 262.1  -7.2  33942  285.90 0862.80
2015 04 09 13 17 22 .89    -133    -25    -27    136    139 259.4 -11.3  33950  286.02 0862.80
2015 04 09 13 17 23 .14    -113    -28    -25    117    120 255.8 -12.4  33964  286.27 0862.80
2015 04 09 13 17 23 .39    -117    -23    -13    120    121 258.5  -6.2  33976  286.46 0862.80
2015 04 09 13 17 23 .64    -137    -36    -15    142    143 255.0  -6.2  33956  286.14 0862.80
2015 04 09 13 17 23 .89    -141    -41    -18    147    149 253.6  -7.2  33980  286.54 0862.80
2015 04 09 13 17 24 .15    -139    -32    -23    143    145 256.7  -9.3  34010  287.05 0862.80
2015 04 09 13 17 24 .39    -134    -17    -27    136    139 262.5 -11.3  34008  287.00 0862.80
2015 04 09 13 17 24 .65    -106    -21    -14    109    110 258.6  -7.3  34002  286.91 0862.80
2015 04 09 13 17 24 .89     -60     16     -8     63     64 285.1  -7.2  34008  287.01 0862.80
2015 04 09 13 17 25 .15     -32      0     -9     33     35 270.9 -15.5  34006  286.98 0862.80
2015 04 09 13 17 25 .40     -32      0     34     33     47 270.8  49.1  34030  287.38 0862.80
2015 04 09 13 17 25 .65     -85     20      5     88     89 283.3   3.8  34000  286.88 0862.80
2015 04 09 13 17 25 .90    -137     23    -26    139    142 279.7 -10.9  33988  286.66 0862.80
2015 04 09 13 17 26 .16    -137     10    -20    138    140 274.3  -8.2  33984  286.59 0862.80
2015 04 09 13 17 26 .41    -140     17    -24    142    145 277.0  -9.8  33990  286.69 0862.80
2015 04 09 13 17 26 .66    -143      2    -28    144    147 270.9 -11.3  33998  286.83 0862.79
2015 04 09 13 17 26 .91    -125    -45    -20    133    135 250.1  -8.8  34008  287.01 0862.79
2015 04 09 13 17 27 .16    -133    -48    -18    142    144 250.0  -7.3  34020  287.21 0862.79
2015 04 09 13 17 27 .42    -140    -28    -34    143    147 258.5 -13.4  34048  287.69 0862.79
2015 04 09 13 17 27 .66    -124    -21    -20    126    128 260.3  -9.3  34084  288.28 0862.79
2015 04 09 13 17 27 .91    -144     12    -18    145    147 274.8  -7.3  33990  286.69 0862.79
2015 04 09 13 17 28 .16    -142     -2    -28    143    146 269.2 -11.3  33976  286.46 0862.79
2015 04 09 13 17 28 .41    -151     45    -31    158    162 286.8 -11.3  33968  286.32 0862.79
2015 04 09 13 17 28 .66    -135     31    -27    139    142 283.3 -11.3  33962  286.24 0862.79
2015 04 09 13 17 28 .92    -123     19    -29    125    129 278.8 -13.4  33976  286.47 0862.79
2015 04 09 13 17 29 .16    -128     17    -16    130    132 277.9  -7.3  33978  286.51 0862.79
2015 04 09 13 17 29 .42    -118     24    -21    121    123 281.5 -10.3  33978  286.51 0862.79
2015 04 09 13 17 29 .67    -114     21    -27    116    120 280.6 -13.3  33984  286.61 0862.79
2015 04 09 13 17 29 .91    -126     16    -24    128    131 277.5 -10.9  33968  286.32 0862.79
2015 04 09 13 17 30 .17    -131     17    -22    133    135 277.5  -9.4  33970  286.35 0862.79
2015 04 09 13 17 30 .42    -116     17     -4    118    119 278.4  -2.2  33976  286.46 0862.79
2015 04 09 13 17 30 .67    -110      2    -14    111    112 271.3  -7.2  33982  286.56 0862.79
2015 04 09 13 17 30 .92    -113      6    -14    114    115 273.5  -7.2  33984  286.59 0862.79
2015 04 09 13 17 31 .17    -144      4    -18    145    147 271.7  -7.3  33984  286.59 0862.79
2015 04 09 13 17 31 .42    -121     18    -19    123    125 278.8  -8.8  33986  286.62 0862.79
2015 04 09 13 17 31 .67    -136      9    -36    137    142 273.9 -15.0  33964  286.25 0862.79
2015 04 09 13 17 31 .92    -147     34    -32    152    156 283.3 -12.2  33972  286.39 0862.79
2015 04 09 13 17 32 .17    -166     47    -34    173    177 285.9 -11.3  33978  286.51 0862.79
2015 04 09 13 17 32 .43    -151     50    -27    160    163 288.6  -9.8  33982  286.57 0862.79
2015 04 09 13 17 32 .67    -129     20    -19    131    133 278.8  -8.2  33998  286.84 0862.79
2015 04 09 13 17 32 .93    -138     49     -5    147    148 289.5  -2.2  33992  286.74 0862.79
2015 04 09 13 17 33 .18    -166     55    -22    175    177 288.4  -7.3  34006  286.96 0862.79
2015 04 09 13 17 33 .43    -178     48    -37    185    189 285.1 -11.5  34012  287.06 0862.79
2015 04 09 13 17 33 .69    -176     50    -23    184    186 285.9  -7.2  34018  287.16 0862.79
2015 04 09 13 17 33 .93    -178     41    -28    183    186 283.0  -8.8  34000  286.88 0862.79
2015 04 09 13 17 34 .19    -151     50    -27    160    163 288.6  -9.8  34010  287.05 0862.79
2015 04 09 13 17 34 .44    -143     76    -21    162    164 298.0  -7.5  34036  287.49 0862.79
2015 04 09 13 17 34 .69    -169     63    -27    181    184 290.4  -8.6  34030  287.38 0862.79
2015 04 09 13 17 34 .94    -167     59    -23    178    180 289.5  -7.5  34036  287.47 0862.79
2015 04 09 13 17 35 .19    -157     63    -20    170    172 292.0  -6.7  34038  287.52 0862.79
2015 04 09 13 17 35 .44    -161     58    -34    172    176 290.0 -11.3  34034  287.45 0862.79
2015 04 09 13 17 35 .69    -208     60    -42    217    222 286.2 -11.1  34022  287.25 0862.79
2015 04 09 13 17 35 .94    -205     68    -41    217    222 288.4 -10.9  34032  287.40 0862.79
2015 04 09 13 17 36 .19    -189     82    -34    207    210 293.6  -9.4  34016  287.15 0862.79
2015 04 09 13 17 36 .44    -184     80    -26    201    203 293.5  -7.5  34024  287.28 0862.79
2015 04 09 13 17 36 .69    -165     82    -41    185    190 296.4 -12.6  34022  287.25 0862.79
2015 04 09 13 17 36 .94    -138     81    -54    161    171 300.4 -18.7  34022  287.23 0862.79
2015 04 09 13 17 37 .20    -167     62    -35    179    183 290.4 -11.1  34022  287.25 0862.79
2015 04 09 13 17 37 .44    -164     53    -11    173    174 288.2  -3.9  34030  287.38 0862.79
2015 04 09 13 17 37 .69    -171    100    -14    199    200 300.4  -4.1  34026  287.30 0862.79
2015 04 09 13 17 37 .95    -167    105    -27    198    200 302.2  -8.0  34024  287.28 0862.79
2015 04 09 13 17 38 .20    -152    120    -54    194    202 308.4 -15.5  34024  287.28 0862.79
2015 04 09 13 17 38 .45    -154     93    -62    181    191 301.1 -23.3  34026  287.32 0862.79
2015 04 09 13 17 38 .70    -145     84    -48    168    174 300.2 -21.2  34026  287.30 0862.79
2015 04 09 13 17 38 .95    -144     56    -46    155    162 291.3 -16.8  34030  287.38 0862.79
2015 04 09 13 17 39 .20    -146     66    -49    161    169 294.2 -17.0  34022  287.25 0862.79
2015 04 09 13 17 39 .45    -148     51    -46    157    163 289.1 -21.2  34026  287.30 0862.79
2015 04 09 13 17 39 .70    -151     45    -59    158    168 286.8 -25.7  34030  287.38 0862.79
2015 04 09 13 17 39 .95    -176     74    -42    191    196 292.8 -12.4  34040  287.54 0862.79
2015 04 09 13 17 40 .21    -186     87    -26    206    208 295.2  -7.3  34042  287.57 0862.79
2015 04 09 13 17 40 .46    -164     55    -55    174    182 288.6 -22.8  34038  287.52 0862.79
2015 04 09 13 17 40 .71    -140     46    -33    148    152 288.2 -12.9  34034  287.45 0862.79
2015 04 09 13 17 40 .96    -148     58    -25    160    163 291.5  -9.0  34030  287.38 0862.79
2015 04 09 13 17 41 .21    -151     67    -40    166    171 294.0 -13.7  34044  287.62 0862.79
2015 04 09 13 17 41 .46    -153     61    -50    165    173 292.0 -17.0  34048  287.67 0862.79
2015 04 09 13 17 41 .71    -147     80    -63    168    179 298.6 -25.9  34054  287.77 0862.79
2015 04 09 13 17 41 .96    -133     87    -18    160    162 303.3  -6.5  34052  287.76 0862.79
2015 04 09 13 17 42 .22    -134     54     -8    145    146 292.2  -3.2  34048  287.67 0862.79
2015 04 09 13 17 42 .47    -128      8    -16    129    131 273.9  -7.3  34054  287.79 0862.79
2015 04 09 13 17 42 .71    -112     30    -14    116    117 285.0  -7.2  34050  287.70 0862.79
2015 04 09 13 17 42 .97    -126      0     -4    127    128 270.4  -2.2  34074  288.13 0862.79
2015 04 09 13 17 43 .22     -90    -67     -1    113    114 233.6  -0.7  34068  288.01 0862.79
2015 04 09 13 17 43 .47    -137     -1    -31    138    142 269.2 -12.9  34068  288.03 0862.79
2015 04 09 13 17 43 .72    -103      7    -36    104    111 274.3 -19.1  34078  288.20 0862.79
2015 04 09 13 17 43 .97     -68    -46     23     83     87 235.8  15.8  34076  288.16 0862.79
2015 04 09 13 17 44 .22    -128     -5    -16    129    131 267.4  -7.3  34054  287.77 0862.79
2015 04 09 13 17 44 .47     -68     13     13     70     72 281.4  11.1  34072  288.09 0862.79
2015 04 09 13 17 44 .72     -84     36     -6     92     93 293.1  -4.1  34076  288.14 0862.79
2015 04 09 13 17 44 .97     -95     30      4    100    101 287.7   2.3  34090  288.40 0862.79
2015 04 09 13 17 45 .22     -83    -13      8     85     86 260.8   5.4  34096  288.50 0862.79
2015 04 09 13 17 45 .47    -111    -22    -14    114    115 258.5  -7.2  34088  288.36 0862.79
2015 04 09 13 17 45 .72    -164    -41    -11    170    171 255.8  -3.9  34068  288.03 0862.78
2015 04 09 13 17 45 .98    -183     -8    -36    184    188 267.2 -11.3  34100  288.55 0862.78
2015 04 09 13 17 46 .23    -171     15    -39    172    177 275.2 -12.9  34096  288.48 0862.78
2015 04 09 13 17 46 .48    -165      8    -41    166    172 272.8 -13.9  34118  288.87 0862.78
2015 04 09 13 17 46 .72    -141     28    -18    144    146 281.5  -7.2  34116  288.82 0862.78
2015 04 09 13 17 46 .99    -131     16    -30    132    136 277.0 -12.9  34038  287.50 0862.78
2015 04 09 13 17 47 .24      -6     43     34     44     55 352.0  42.7  34078  288.18 0862.78
2015 04 09 13 17 47 .49     -21     21      4     30     31 315.0   9.0  34086  288.31 0862.78
2015 04 09 13 17 47 .74     -58     48    -16     76     78 309.6 -11.9  34060  287.89 0862.78
2015 04 09 13 17 47 .99     -71     21    -10     75     76 286.8  -8.2  34062  287.91 0862.78
2015 04 09 13 17 48 .24      -2    -14      1     15     16 188.0   6.9  34058  287.86 0862.78
2015 04 09 13 17 48 .49     -13      9    -14     17     22 306.0 -48.1  34066  287.98 0862.78
2015 04 09 13 17 48 .74     -56     41     11     70     71 306.0   9.0  34062  287.92 0862.78
2015 04 09 13 17 48 .99    -101    -27     -8    105    106 254.9  -4.6  34044  287.60 0862.78
2015 04 09 13 17 49 .24    -106      3    -37    107    114 272.1 -19.1  34032  287.42 0862.78
2015 04 09 13 17 49 .49    -104     21    -61    107    123 281.5 -37.3  34016  287.15 0862.78
2015 04 09 13 17 49 .74     -88     32    -58     94    110 290.4 -39.9  33990  286.69 0862.78
2015 04 09 13 17 49 .99    -128     21    -49    130    138 279.6 -25.9  33984  286.59 0862.78
2015 04 09 13 17 50 .24    -137     36    -58    142    153 285.1 -27.5  33990  286.69 0862.78
2015 04 09 13 17 50 .49    -125     41    -32    132    137 288.2 -13.9  34000  286.88 0862.78
2015 04 09 13 17 50 .74    -129     36    -20    135    137 285.9  -8.8  33998  286.84 0862.78
2015 04 09 13 17 51 .00    -127     26    -42    130    137 281.9 -18.1  33998  286.83 0862.78
2015 04 09 13 17 51 .25    -147      3    -52    148    157 271.3 -19.4  34026  287.30 0862.78
2015 04 09 13 17 51 .49    -152      5    -45    153    159 272.1 -21.5  34028  287.33 0862.78
2015 04 09 13 17 51 .75    -117     -9    -40    118    125 265.6 -18.7  34028  287.33 0862.78
2015 04 09 13 17 52 .00    -118     -1    -32    119    124 269.2 -15.4  34020  287.20 0862.78
2015 04 09 13 17 52 .25     -82     17     -4     84     85 281.9  -3.1  34028  287.33 0862.78
2015 04 09 13 17 52 .50     -57     55    -11     80     81 314.1  -8.2  34030  287.37 0862.78
2015 04 09 13 17 52 .75    -119     44     -5    128    129 290.4  -2.2  34020  287.21 0862.78
2015 04 09 13 17 53 .00    -138     76    -24    158    160 298.9  -8.8  34020  287.20 0862.78
2015 04 09 13 17 53 .25    -102     55    -22    117    120 298.4 -10.9  34022  287.25 0862.78
2015 04 09 13 17 53 .50     -60     44    -19     75     78 306.0 -14.5  34024  287.28 0862.78
2015 04 09 13 17 53 .75     -91     86    -14    126    127 313.2  -6.7  34036  287.47 0862.78
2015 04 09 13 17 54 .02    -117     67    -12    135    136 299.8  -5.2  34042  287.57 0862.79
2015 04 09 13 17 54 .26    -105    101    -18    146    148 314.0  -7.3  34064  287.96 0862.79
2015 04 09 13 17 54 .52    -108    101     -5    149    150 313.1  -2.2  34082  288.26 0862.79
2015 04 09 13 17 54 .76     -60    107      5    123    124 330.6   2.3  34082  288.25 0862.79
2015 04 09 13 17 55 .02     -52    119      4    131    132 336.3   1.8  34058  287.84 0862.79
2015 04 09 13 17 55 .27     -47    125     24    134    137 339.1  10.1  34068  288.03 0862.79
2015 04 09 13 17 55 .52     -65    138     10    153    154 334.6   3.8  34090  288.40 0862.79
2015 04 09 13 17 55 .77     -59    125     -7    139    140 334.6  -3.1  34102  288.58 0862.78
2015 04 09 13 17 56 .02     -34    127     15    132    133 344.9   6.9  34104  288.64 0862.78
2015 04 09 13 17 56 .27     -49    135      7    144    145 339.9   2.9  34100  288.55 0862.78
2015 04 09 13 17 56 .52     -51    113      6    125    126 335.5   2.9  34094  288.47 0862.78
2015 04 09 13 17 56 .77    -147    118      7    189    190 308.9   2.3  34062  287.91 0862.78
2015 04 09 13 17 57 .02    -143    116    -45    185    191 309.1 -13.9  33954  286.08 0862.78
2015 04 09 13 17 57 .27    -155    119    -45    196    202 307.5 -12.9  33962  286.22 0862.78
2015 04 09 13 17 57 .52    -126    126    -40    179    184 315.1 -12.6  33938  285.82 0862.78
2015 04 09 13 17 57 .77    -107    121    -56    162    172 318.6 -19.1  33944  285.93 0862.78
2015 04 09 13 17 58 .03     -97    110    -49    147    156 318.5 -18.7  33960  286.19 0862.78
2015 04 09 13 17 58 .27     -95    115    -47    150    158 320.4 -17.6  33968  286.32 0862.78
2015 04 09 13 17 58 .52     -85    106    -40    137    142 321.3 -21.2  33970  286.37 0862.78
2015 04 09 13 17 58 .77     -85     90    -54    124    135 316.7 -29.5  33962  286.22 0862.78
2015 04 09 13 17 59 .02     -68     76    -51    103    114 318.1 -32.2  33960  286.19 0862.78
2015 04 09 13 17 59 .27     -58     73    -41     94    102 321.7 -29.0  33962  286.22 0862.78
2015 04 09 13 17 59 .52     -68     70    -31     98    102 315.9 -22.8  33954  286.10 0862.78
2015 04 09 13 17 59 .77     -51     69    -26     87     90 323.5 -21.2  33946  285.95 0862.78
2015 04 09 13 18 00 .02     -49     78    -27     93     96 327.5 -21.7  33940  285.85 0862.78
2015 04 09 13 18 00 .27     -58     78    -29     98    102 323.0 -21.2  33944  285.92 0862.78
2015 04 09 13 18 00 .53     -52     74    -22     91     94 324.8 -13.9  33944  285.92 0862.78
2015 04 09 13 18 00 .77     -37     74    -23     83     86 333.3 -20.7  33942  285.90 0862.78
2015 04 09 13 18 01 .03     -35     77    -18     85     88 335.5 -12.4  33940  285.85 0862.78
2015 04 09 13 18 01 .29     -27     81    -19     86     89 341.3 -12.9  33946  285.95 0862.78
2015 04 09 13 18 01 .54     -24     81    -21     85     88 343.5 -13.9  33948  285.98 0862.78
2015 04 09 13 18 01 .79     -18     73    -15     76     78 345.7 -11.3  33956  286.14 0862.78
2015 04 09 13 18 02 .04     -19     73    -15     76     78 344.8 -11.5  33960  286.19 0862.77
2015 04 09 13 18 02 .29     -15     76    -12     78     80 348.4  -9.3  33958  286.15 0862.77
2015 04 09 13 18 02 .54     -22     76     -3     80     81 344.0  -2.2  33962  286.22 0862.77
2015 04 09 13 18 02 .79     -22     83     -3     87     88 344.9  -2.2  33958  286.17 0862.77
2015 04 09 13 18 03 .04     -25     80     -6     84     85 342.6  -4.6  33956  286.14 0862.77
2015 04 09 13 18 03 .29     -25     84     -3     88     89 343.1  -2.2  33956  286.14 0862.77
2015 04 09 13 18 03 .54     -22     76     -3     80     81 344.0  -2.2  33962  286.22 0862.77
2015 04 09 13 18 03 .79     -28     80      1     85     86 340.4   1.2  33950  286.03 0862.77
2015 04 09 13 18 04 .05     -34     93      1    100    101 340.0   0.8  33954  286.08 0862.77
2015 04 09 13 18 04 .29     -25     84      4     88     89 343.5   2.9  33954  286.10 0862.77
2015 04 09 13 18 04 .54     -27     80      1     85     86 341.3   1.2  33956  286.14 0862.77
2015 04 09 13 18 04 .79     -34     76      2     84     85 335.5   1.8  33956  286.14 0862.77
2015 04 09 13 18 05 .04     -30     69     -4     76     77 336.4  -3.2  33954  286.08 0862.77
2015 04 09 13 18 05 .29     -27     64     -2     70     71 337.3  -2.2  33956  286.12 0862.77
2015 04 09 13 18 05 .54     -24     62     -1     67     68 338.2  -1.3  33954  286.08 0862.77
2015 04 09 13 18 05 .80     -23     58      0     63     64 338.2   0.8  33956  286.12 0862.77
2015 04 09 13 18 06 .04     -27     57     -2     64     65 334.6  -2.2  33956  286.12 0862.77
2015 04 09 13 18 06 .29     -30     53     -5     62     63 330.1  -5.2  33954  286.08 0862.77
2015 04 09 13 18 06 .56     -16     45     -5     48     49 340.0  -6.2  33956  286.14 0862.77
2015 04 09 13 18 06 .80     -35     33     -6     49     50 313.1  -7.3  33984  286.61 0862.77
2015 04 09 13 18 07 .05     -19     30      1     36     37 327.4   2.9  33984  286.61 0862.77
2015 04 09 13 18 07 .30     -24     24     12     34     37 314.9  19.4  33992  286.74 0862.77
2015 04 09 13 18 07 .55     -11     17     24     21     31 325.7  54.3  33996  286.81 0862.77
2015 04 09 13 18 07 .80      -7     22     25     24     34 341.7  48.2  34012  287.06 0862.77
2015 04 09 13 18 08 .06     -11      5     14     13     19 295.3  48.2  34020  287.20 0862.77
2015 04 09 13 18 08 .31     -16      5     16     17     23 288.2  50.0  34012  287.06 0862.77
2015 04 09 13 18 08 .56     -15      8     19     18     26 298.9  50.1  34006  286.98 0862.77
2015 04 09 13 18 08 .82      -1     13     22     14     26 353.8  64.7  34024  287.27 0862.77
2015 04 09 13 18 09 .06      -8     12     25     15     29 327.5  64.7  34006  286.96 0862.77
2015 04 09 13 18 09 .31      -7     11     24     14     27 327.5  64.7  33990  286.69 0862.77
2015 04 09 13 18 09 .57      -8      8     23     12     25 315.0  70.8  33988  286.66 0862.77
2015 04 09 13 18 09 .82     -25      5     20     26     32 281.5  43.7  33990  286.69 0862.77
2015 04 09 13 18 10 .07     -25      5     21     26     33 283.3  43.7  33980  286.52 0862.77
2015 04 09 13 18 10 .32     -30     13     16     33     36 293.5  27.2  34000  286.86 0862.76
2015 04 09 13 18 10 .57     -29     21     10     37     39 306.0  15.3  34006  286.98 0862.76
2015 04 09 13 18 10 .82     -27     17      5     32     33 302.4   9.0  33984  286.61 0862.76
2015 04 09 13 18 11 .07     -26     16     -1     31     32 302.5  -3.1  33996  286.79 0862.76
2015 04 09 13 18 11 .32     -20     20     -1     29     30 315.0  -3.1  33990  286.69 0862.76
2015 04 09 13 18 11 .57     -21     21     10     31     33 315.0  19.2  33996  286.79 0862.76
2015 04 09 13 18 11 .82     -26     16      2     31     32 302.4   4.9  33994  286.78 0862.76
2015 04 09 13 18 12 .07     -40     33      2     53     54 309.5   2.9  33972  286.41 0862.77
2015 04 09 13 18 12 .32     -40     33     -2     53     54 309.5  -2.2  33974  286.42 0862.77
2015 04 09 13 18 12 .58     -36     16     -4     40     41 294.4  -6.2  33976  286.46 0862.77
2015 04 09 13 18 12 .82     -24     24      8     34     35 315.0  13.2  33990  286.71 0862.77
2015 04 09 13 18 13 .08     -24     22      1     33     34 313.3   2.9  33984  286.59 0862.77
2015 04 09 13 18 13 .33     -17     18      8     25     27 316.8  19.4  34000  286.86 0862.77
2015 04 09 13 18 13 .58     -24     16     16     30     34 304.2  29.3  34020  287.21 0862.77
2015 04 09 13 18 13 .83     -34      5     25     35     43 279.7  39.7  34056  287.81 0862.77
2015 04 09 13 18 14 .08     -37     24     43     45     62 303.3  49.0  34116  288.82 0862.77
2015 04 09 13 18 14 .32     -49      5     59     50     77 276.1  56.3  34130  289.08 0862.77
2015 04 09 13 18 14 .58     -36     10     -4     38     39 286.8  -7.3  34114  288.79 0862.77
2015 04 09 13 18 14 .84     -39     13     -6     42     43 288.4  -9.3  34112  288.77 0862.76
2015 04 09 13 18 15 .09     -23     33     -4     41     42 324.8  -6.2  34110  288.74 0862.76
2015 04 09 13 18 15 .34     -16     36      1     40     41 336.4   1.8  34110  288.72 0862.76
2015 04 09 13 18 15 .59     -45     48    -14     67     69 316.7 -12.4  34072  288.09 0862.76
2015 04 09 13 18 15 .84     -71     23      7     75     76 288.6   5.9  34064  287.94 0862.76
2015 04 09 13 18 16 .10     -62     29     18     69     72 295.2  15.2  34064  287.94 0862.76
2015 04 09 13 18 16 .35     -84     40    -11     94     95 295.3  -7.2  34082  288.25 0862.76
2015 04 09 13 18 16 .60     -75    -21      6     79     80 254.1   4.4  34092  288.43 0862.76
2015 04 09 13 18 16 .84     -61    -21     -8     65     66 250.9  -7.2  34080  288.23 0862.76
2015 04 09 13 18 17 .09     -66     -7     -2     67     68 263.9  -2.2  34086  288.31 0862.76
2015 04 09 13 18 17 .35     -54     18     -3     58     59 288.6  -3.1  34078  288.18 0862.76
2015 04 09 13 18 17 .60     -49     16     16     52     55 288.2  17.3  34084  288.30 0862.76
2015 04 09 13 18 17 .85     -50     16     -4     53     54 288.4  -5.2  34042  287.57 0862.76
2015 04 09 13 18 18 .10     -31     28      2     43     44 312.2   2.9  34072  288.08 0862.76
2015 04 09 13 18 18 .35     -28     32     11     43     45 318.6  15.3  34106  288.67 0862.76
2015 04 09 13 18 18 .59     -71     13    -19     73     76 280.6 -15.0  34072  288.09 0862.76
2015 04 09 13 18 18 .85    -161     41    -16    167    168 284.4  -5.6  34022  287.23 0862.76
2015 04 09 13 18 19 .10    -145     12    -13    146    147 274.8  -5.2  34064  287.94 0862.76
2015 04 09 13 18 19 .35     -50    -64     51     82     96 218.3  35.5  34086  288.33 0862.76
2015 04 09 13 18 19 .60    -161    -29    -36    164    169 259.6 -12.6  34056  287.81 0862.76
2015 04 09 13 18 19 .85    -225     -6    -43    226    231 268.3 -10.9  34036  287.49 0862.76
2015 04 09 13 18 20 .10    -207     20    -12    209    210 275.7  -3.3  34058  287.86 0862.76
2015 04 09 13 18 20 .38    -212    -57    -27    220    222 254.9  -7.2  34072  288.09 0862.76
2015 04 09 13 18 20 .60    -197    -48    -18    203    204 256.3  -5.2  34078  288.18 0862.76
2015 04 09 13 18 20 .85    -176    -14    -25    177    179 265.2  -8.2  34090  288.38 0862.76
2015 04 09 13 18 21 .11    -168     50      8    176    177 286.6   2.8  34076  288.16 0862.76
2015 04 09 13 18 21 .36    -315     23    -49    316    320 274.3  -8.9  34018  287.16 0862.76
2015 04 09 13 18 21 .61    -368     15    -67    369    376 272.4 -10.3  34012  287.07 0862.76
2015 04 09 13 18 21 .87    -258    -52    -34    264    267 258.5  -7.5  34016  287.14 0862.76
2015 04 09 13 18 22 .12    -252     41     17    256    257 279.2   3.8  34032  287.41 0862.76
2015 04 09 13 18 22 .37    -229     83    -13    244    245 289.9  -3.1  34024  287.28 0862.76
2015 04 09 13 18 22 .62    -156     59    -21    167    169 290.8  -7.5  34044  287.62 0862.76
2015 04 09 13 18 22 .87     -61     84     74    104    127 323.9  39.5  34082  288.25 0862.76
2015 04 09 13 18 23 .12    -179    208     54    275    281 319.2  11.1  34042  287.58 0862.77
2015 04 09 13 18 23 .37    -392    279    -52    482    485 305.5  -6.3  34028  287.34 0862.77
2015 04 09 13 18 23 .62    -333    241    -29    412    413 305.9  -4.1  34030  287.38 0862.77
2015 04 09 13 18 23 .87    -333    233    -51    407    411 305.1  -7.2  34028  287.35 0862.77
2015 04 09 13 18 24 .12    -328    192    -56    381    386 300.4  -8.4  34024  287.27 0862.77
2015 04 09 13 18 24 .37    -299    256   -118    394    412 310.6 -16.7  34008  287.01 0862.77
2015 04 09 13 18 24 .62    -261    184   -115    320    341 305.3 -19.8  34000  286.88 0862.77
2015 04 09 13 18 24 .88    -211    174    -82    274    286 309.5 -21.7  34006  286.95 0862.77
2015 04 09 13 18 25 .13    -232     68    -44    242    246 286.4 -10.4  34056  287.82 0862.77
2015 04 09 13 18 25 .37    -232     46    -35    237    240 281.4  -8.6  34052  287.73 0862.77
2015 04 09 13 18 25 .63    -207    -23    -26    209    211 263.6  -7.2  34062  287.92 0862.77
2015 04 09 13 18 25 .88    -133    -44    -13    141    142 251.4  -5.6  34072  288.09 0862.76
2015 04 09 13 18 26 .13     -32    -64     70     72    100 207.2  49.4  34096  288.50 0862.76
2015 04 09 13 18 26 .38    -136     22    -53    138    147 279.2 -26.4  34086  288.33 0862.76
2015 04 09 13 18 26 .63    -172     -4    -18    173    175 268.5  -6.2  34094  288.47 0862.76
2015 04 09 13 18 26 .88    -225     72    -39    237    241 287.7  -9.3  34094  288.44 0862.76
2015 04 09 13 18 27 .13     -99     98    -12    140    141 314.9  -5.2  34078  288.20 0862.76
2015 04 09 13 18 27 .38     -68      5      3     69     70 274.3   2.9  34078  288.18 0862.76
2015 04 09 13 18 27 .63    -258    -98    -56    276    282 249.2 -11.5  34050  287.71 0862.76
2015 04 09 13 18 27 .88    -228     69    -25    239    241 286.8  -6.0  34038  287.50 0862.76
2015 04 09 13 18 28 .13    -204     34    -48    207    213 279.7 -13.2  34050  287.70 0862.76
2015 04 09 13 18 28 .38    -173     32      8    176    177 280.6   2.9  34066  287.99 0862.76
2015 04 09 13 18 28 .63    -234     78    -22    247    249 288.4  -5.1  34064  287.95 0862.76
2015 04 09 13 18 28 .89    -158     85     13    180    181 298.2   4.4  34080  288.21 0862.76
2015 04 09 13 18 29 .15    -290     98    -39    307    310 288.8  -7.3  34062  287.90 0862.76
2015 04 09 13 18 29 .40    -123    217    -41    250    254 330.4  -9.4  34096  288.48 0862.75
2015 04 09 13 18 29 .65    -184    184     -5    261    262 314.9  -1.3  34116  288.83 0862.75
2015 04 09 13 18 29 .89    -189    203     18    278    279 317.0   3.9  34116  288.81 0862.75
2015 04 09 13 18 30 .15    -210    203      1    293    294 314.0   0.2  34080  288.21 0862.75
2015 04 09 13 18 30 .40     -84     84     28    120    124 315.0  13.2  34112  288.77 0862.75
2015 04 09 13 18 30 .65    -233     33    -42    236    240 278.1 -10.3  34058  287.85 0862.75
2015 04 09 13 18 30 .90    -272    140    -56    307    313 297.3 -10.5  34024  287.26 0862.75
2015 04 09 13 18 31 .15    -279    106    -65    299    307 290.8 -12.4  34036  287.48 0862.76
2015 04 09 13 18 31 .40    -234     56     15    241    242 283.7   3.6  34014  287.11 0862.76
2015 04 09 13 18 31 .65    -292     99    -29    309    311 288.8  -5.4  34006  286.95 0862.76
2015 04 09 13 18 31 .90    -281    111    -85    303    315 291.7 -15.8  34004  286.94 0862.76
2015 04 09 13 18 32 .15    -318    117    -47    340    344 290.3  -8.0  34046  287.64 0862.76
2015 04 09 13 18 32 .40    -273     83    -47    286    290 287.1  -9.3  34054  287.78 0862.76
2015 04 09 13 18 32 .65    -253     67    -10    262    263 285.0  -2.2  34024  287.26 0862.76
2015 04 09 13 18 32 .90    -220     74    -24    233    235 288.6  -6.1  34038  287.50 0862.76
2015 04 09 13 18 33 .15    -165     54      1    174    175 288.2   0.5  34052  287.76 0862.75
2015 04 09 13 18 33 .40    -216    120    -19    248    249 299.1  -4.6  34044  287.61 0862.75
2015 04 09 13 18 33 .66    -268    186    -66    327    334 304.8 -11.5  34048  287.66 0862.75
2015 04 09 13 18 33 .91    -302    245    -50    390    394 309.1  -7.3  34050  287.72 0862.75
2015 04 09 13 18 34 .15    -236    215    -80    320    330 312.3 -14.1  34044  287.61 0862.75
2015 04 09 13 18 34 .41    -231    192    -91    301    315 309.6 -17.0  34028  287.33 0862.75
2015 04 09 13 18 34 .66    -217     87    -80    235    249 292.0 -18.9  34022  287.22 0862.75
2015 04 09 13 18 34 .91    -231     31    -54    234    241 277.7 -13.2  34050  287.71 0862.75
2015 04 09 13 18 35 .16    -109     49      2    120    121 294.4   1.2  34068  288.01 0862.75
2015 04 09 13 18 35 .41     -75     80     -8    111    112 316.8  -4.6  34056  287.81 0862.75
2015 04 09 13 18 35 .67    -172    103    -55    201    209 300.9 -15.5  34048  287.69 0862.75
2015 04 09 13 18 35 .92    -100     98     -9    141    142 314.4  -3.7  34062  287.92 0862.75
2015 04 09 13 18 36 .17     -83    176     -6    195    196 334.5  -1.8  34054  287.77 0862.75
2015 04 09 13 18 36 .42     -65    145     47    160    167 335.7  16.6  34058  287.86 0862.75
2015 04 09 13 18 36 .67    -121    153      9    196    197 321.7   2.9  34058  287.86 0862.75
2015 04 09 13 18 36 .93    -163    191     -3    252    253 319.5  -0.7  34118  288.85 0862.75
2015 04 09 13 18 37 .17    -111    197     11    227    228 330.6   2.9  34162  289.60 0862.75
2015 04 09 13 18 37 .42    -156    179     27    238    240 319.0   6.5  34134  289.14 0862.75
2015 04 09 13 18 37 .67    -196    222    -27    297    299 318.5  -5.2  34092  288.43 0862.75
2015 04 09 13 18 37 .92    -168    280    -59    327    333 329.0 -10.3  33968  286.31 0862.75
2015 04 09 13 18 38 .17    -174    294    -79    342    352 329.4 -13.1  33932  285.73 0862.75
2015 04 09 13 18 38 .43    -192    266    -75    329    338 324.2 -12.9  33942  285.89 0862.75
2015 04 09 13 18 38 .67    -211    245    -75    324    333 319.2 -13.2  33946  285.94 0862.75
2015 04 09 13 18 38 .92    -192    254    -76    319    328 322.8 -13.4  33936  285.79 0862.75
2015 04 09 13 18 39 .17    -199    240    -76    312    322 320.3 -13.8  33934  285.74 0862.75
2015 04 09 13 18 39 .43    -192    241    -73    309    318 321.5 -13.4  33938  285.81 0862.75
2015 04 09 13 18 39 .68    -192    250    -81    316    327 322.4 -14.5  33940  285.84 0862.75
2015 04 09 13 18 39 .93    -190    262    -80    324    334 324.0 -13.9  33942  285.89 0862.75
2015 04 09 13 18 40 .18    -176    242    -82    300    312 323.9 -15.4  33940  285.84 0862.75
2015 04 09 13 18 40 .43    -164    249    -65    299    307 326.6 -12.4  33940  285.84 0862.75
2015 04 09 13 18 40 .68    -159    250    -60    297    303 327.5 -11.5  33942  285.89 0862.75
2015 04 09 13 18 40 .93    -142    256    -65    293    301 331.0 -12.6  33940  285.84 0862.75
2015 04 09 13 18 41 .18    -155    220    -55    270    276 324.8 -11.6  33940  285.86 0862.75
2015 04 09 13 18 41 .43    -125    250    -61    280    287 333.3 -12.4  33940  285.86 0862.75
2015 04 09 13 18 41 .68    -133    294    -24    323    324 335.7  -4.4  33968  286.31 0862.75
2015 04 09 13 18 41 .93    -127    312    -14    337    338 337.8  -2.5  33962  286.22 0862.75
2015 04 09 13 18 42 .18    -128    302    -30    329    331 337.1  -5.4  33942  285.90 0862.75
2015 04 09 13 18 42 .43    -158    287    -50    328    332 331.1  -8.8  33940  285.85 0862.75
2015 04 09 13 18 42 .69    -161    271    -71    316    324 329.3 -12.7  33950  286.01 0862.75
2015 04 09 13 18 42 .94    -136    286    -54    317    322 334.5  -9.7  33944  285.93 0862.75
2015 04 09 13 18 43 .19    -124    273    -38    301    304 335.5  -7.3  33942  285.89 0862.75
2015 04 09 13 18 43 .44    -122    247    -50    276    281 333.7 -10.4  33944  285.93 0862.75
2015 04 09 13 18 43 .70    -144    251    -52    290    295 330.2 -10.3  33950  286.03 0862.75
2015 04 09 13 18 43 .95    -154    242    -70    287    296 327.5 -13.7  33952  286.04 0862.75
2015 04 09 13 18 44 .20    -166    261    -68    310    318 327.5 -12.4  33948  285.98 0862.75
2015 04 09 13 18 44 .45    -171    269    -74    320    329 327.5 -13.2  33942  285.88 0862.75
2015 04 09 13 18 44 .70    -173    262    -74    315    324 326.6 -13.3  33940  285.86 0862.75
2015 04 09 13 18 44 .95    -171    267    -69    318    326 327.3 -12.4  33944  285.93 0862.76
2015 04 09 13 18 45 .20    -159    290    -65    331    338 331.3 -11.2  33968  286.32 0862.76
2015 04 09 13 18 45 .45    -161    290    -80    332    342 331.0 -13.6  33970  286.36 0862.76
2015 04 09 13 18 45 .70    -153    277    -71    317    325 331.0 -12.7  33980  286.53 0862.76
2015 04 09 13 18 45 .95    -150    251    -58    293    299 329.2 -11.3  33984  286.60 0862.76
2015 04 09 13 18 46 .20    -145    240    -72    281    291 328.8 -14.5  33970  286.35 0862.76
2015 04 09 13 18 46 .45    -135    243    -99    279    297 331.0 -19.6  33962  286.21 0862.76
2015 04 09 13 18 46 .71    -136    210    -89    251    267 327.0 -19.6  33956  286.13 0862.77
2015 04 09 13 18 46 .95    -134    197    -74    239    250 325.7 -22.3  33954  286.08 0862.77
2015 04 09 13 18 47 .20    -168    187    -66    252    261 318.1 -14.7  33956  286.11 0862.77
2015 04 09 13 18 47 .46    -147    146    -74    208    221 314.7 -19.7  33982  286.57 0862.77
2015 04 09 13 18 47 .71    -205    164    -53    263    269 308.7 -11.5  34008  286.99 0862.77
2015 04 09 13 18 47 .96    -197    143    -45    244    249 306.0 -10.5  34014  287.09 0862.77
2015 04 09 13 18 48 .21    -186    141    -38    234    238 307.1  -9.4  34034  287.44 0862.77
2015 04 09 13 18 48 .46    -196    134    -75    238    250 304.4 -17.6  34014  287.09 0862.76
2015 04 09 13 18 48 .71    -187    141     -9    235    236 307.1  -2.2  34070  288.04 0862.76
2015 04 09 13 18 48 .96    -188    141    -23    235    237 306.9  -5.6  34040  287.55 0862.76
2015 04 09 13 18 49 .21    -121    146     -8    190    191 320.4  -2.6  34038  287.52 0862.76
2015 04 09 13 18 49 .46     -89    164      0    187    188 331.3   0.0  34036  287.49 0862.76
2015 04 09 13 18 49 .72    -161    188    -45    248    253 319.5 -10.4  34038  287.50 0862.76
2015 04 09 13 18 49 .97    -191    169    -27    256    258 311.6  -6.2  33970  286.36 0862.76
2015 04 09 13 18 50 .22    -144    139      9    201    202 314.0   2.8  34004  286.93 0862.76
2015 04 09 13 18 50 .47    -195    165    -14    256    257 310.2  -3.1  33960  286.20 0862.76
2015 04 09 13 18 50 .74    -194    161    -18    253    254 309.8  -4.1  33964  286.26 0862.76
2015 04 09 13 18 50 .98    -190    169     -5    255    256 311.8  -1.3  34006  286.97 0862.76
2015 04 09 13 18 51 .23    -188    150     42    241    245 308.7   9.9  34012  287.07 0862.76
2015 04 09 13 18 51 .48    -168    157     24    231    233 313.1   6.1  34020  287.21 0862.76
2015 04 09 13 18 51 .73    -127    150     10    197    198 319.7   3.1  34046  287.65 0862.76
2015 04 09 13 18 51 .98    -169    169     -2    240    241 315.1  -0.7  34050  287.70 0862.76
2015 04 09 13 18 52 .23    -173    127      0    215    216 306.4   0.2  34014  287.11 0862.76
2015 04 09 13 18 52 .48    -181    151    -30    236    238 309.8  -7.5  33964  286.26 0862.76
2015 04 09 13 18 52 .73    -179    168    -44    246    250 313.2 -10.3  33972  286.40 0862.76
2015 04 09 13 18 52 .98    -146    176    -33    229    232 320.4  -8.2  33986  286.64 0862.76
2015 04 09 13 18 53 .23    -185    245    -66    308    316 323.0 -12.2  33990  286.68 0862.76
2015 04 09 13 18 53 .48    -153    256    -70    299    308 329.2 -13.2  34004  286.92 0862.76
2015 04 09 13 18 53 .73    -186    177    -52    257    263 313.6 -11.6  33980  286.52 0862.76
2015 04 09 13 18 53 .98    -202    143    -50    248    253 305.3 -11.5  33978  286.50 0862.76
2015 04 09 13 18 54 .23    -172    110    -25    205    207 302.5  -7.2  33976  286.46 0862.76
2015 04 09 13 18 54 .48    -136    117      0    180    181 310.9   0.2  33992  286.74 0862.76
2015 04 09 13 18 54 .74    -148    138    -11    203    204 313.1  -3.1  34016  287.15 0862.76
2015 04 09 13 18 54 .98    -118    118      6    168    169 314.9   2.3  34022  287.23 0862.76
2015 04 09 13 18 55 .23     -79    123     -3    147    148 327.4  -1.3  34014  287.11 0862.76
2015 04 09 13 18 55 .49    -184    103      0    211    212 299.3   0.0  34024  287.28 0862.76
2015 04 09 13 18 55 .73    -183    118      8    219    220 302.9   2.1  34042  287.57 0862.76
2015 04 09 13 18 55 .98    -111    128     36    170    174 319.0  12.2  34036  287.49 0862.76
2015 04 09 13 18 56 .23    -209    107     -7    235    236 297.1  -1.8  34020  287.19 0862.76
2015 04 09 13 18 56 .48    -304    184    -41    356    359 301.3  -6.6  34002  286.90 0862.76
2015 04 09 13 18 56 .75    -310    191    -23    365    366 301.7  -3.7  33972  286.41 0862.77
2015 04 09 13 18 57 .00    -253    155    -40    297    300 301.5  -7.7  33988  286.65 0862.77
2015 04 09 13 18 57 .25    -176    122    -36    215    219 304.9  -9.6  34016  287.15 0862.77
2015 04 09 13 18 57 .50    -197    152    -59    249    256 307.7 -13.4  33998  286.82 0862.77
2015 04 09 13 18 57 .75    -176    169    -84    245    260 313.8 -18.9  34012  287.07 0862.77
2015 04 09 13 18 58 .00    -179    151    -79    235    249 310.2 -18.6  34002  286.90 0862.77
2015 04 09 13 18 58 .25    -237    178    -70    297    306 306.9 -13.3  33996  286.79 0862.77
2015 04 09 13 18 58 .50    -225    215    -92    312    326 313.8 -16.5  34002  286.89 0862.76
2015 04 09 13 18 58 .75    -116    151     37    191    195 322.4  11.1  34012  287.06 0862.76
2015 04 09 13 18 59 .01    -242    150    -43    285    289 301.8  -8.6  34034  287.43 0862.76
2015 04 09 13 18 59 .25    -344     90    -69    356    363 284.7 -11.1  34016  287.15 0862.76
2015 04 09 13 18 59 .50    -281    111    -43    303    307 291.7  -8.2  34020  287.21 0862.76
2015 04 09 13 18 59 .75    -122    146     19    191    192 320.1   5.7  34034  287.45 0862.76
2015 04 09 13 19 00 .00    -158    161     13    226    227 315.5   3.3  34072  288.08 0862.76
2015 04 09 13 19 00 .25    -172    171     -1    243    244 314.9  -0.3  34076  288.14 0862.76
2015 04 09 13 19 00 .51    -216    200    -11    295    296 312.9  -2.2  34070  288.04 0862.76
2015 04 09 13 19 00 .76    -203    162    -34    261    264 308.6  -7.5  34048  287.66 0862.76
2015 04 09 13 19 01 .01    -170    187     18    253    254 317.7   4.2  34066  287.99 0862.76
2015 04 09 13 19 01 .26    -104    207    -20    232    233 333.3  -5.1  34054  287.78 0862.76
2015 04 09 13 19 01 .51    -107    214    -18    240    241 333.3  -4.4  34050  287.71 0862.76
2015 04 09 13 19 01 .76     -63    236     32    245    248 344.9   7.5  34062  287.90 0862.76
2015 04 09 13 19 02 .01     -99    237    -25    257    259 337.3  -5.6  34058  287.83 0862.76
2015 04 09 13 19 02 .26     -93    243      9    261    262 339.1   2.1  34078  288.19 0862.75
2015 04 09 13 19 02 .51     -98    161     -6    189    190 328.6  -2.1  34112  288.75 0862.75
2015 04 09 13 19 02 .76    -116    138     53    181    189 319.9  16.3  34118  288.87 0862.75
2015 04 09 13 19 03 .01    -163    154     -4    225    226 313.2  -1.3  34100  288.57 0862.75
2015 04 09 13 19 03 .26    -170    196    -10    260    261 319.0  -2.2  34054  287.77 0862.75
2015 04 09 13 19 03 .52    -156    205    -16    258    259 322.8  -3.7  34024  287.26 0862.75
2015 04 09 13 19 03 .77    -214    194    -32    290    292 312.2  -6.5  33976  286.45 0862.75
2015 04 09 13 19 04 .03    -227    225    -45    320    324 314.8  -8.0  33970  286.36 0862.75
2015 04 09 13 19 04 .27    -211    207    -37    296    299 314.4  -7.2  33976  286.45 0862.75
2015 04 09 13 19 04 .52    -250    208    -41    326    329 309.8  -7.3  33950  286.03 0862.75
2015 04 09 13 19 04 .78    -229    179    -16    291    292 308.0  -3.3  33976  286.47 0862.75
2015 04 09 13 19 05 .03    -185    172      7    253    254 312.9   1.7  34008  287.01 0862.75
2015 04 09 13 19 05 .28    -156    174     -9    234    235 318.1  -2.3  34018  287.16 0862.75
2015 04 09 13 19 05 .53    -208    190    -46    282    286 312.4  -9.3  33960  286.18 0862.75
2015 04 09 13 19 05 .78    -187    172    -32    255    258 312.7  -7.3  33962  286.21 0862.76
2015 04 09 13 19 06 .03    -135    177     17    223    224 322.6   4.6  33966  286.30 0862.76
2015 04 09 13 19 06 .28    -140    151     -4    207    208 317.2  -1.1  33956  286.14 0862.76
2015 04 09 13 19 06 .53    -113    197    -39    228    232 330.1  -9.8  33962  286.22 0862.76
2015 04 09 13 19 06 .78     -74    222     20    235    236 341.5   4.9  33962  286.23 0862.76
2015 04 09 13 19 07 .03    -140    189    -17    236    237 323.5  -4.1  33964  286.26 0862.76
2015 04 09 13 19 07 .28    -152    183    -30    239    241 320.3  -7.2  33962  286.23 0862.76
2015 04 09 13 19 07 .53    -165    196    -51    257    263 319.9 -11.3  33968  286.33 0862.76
2015 04 09 13 19 07 .78    -121    202    -56    236    243 329.0 -13.4  33966  286.28 0862.75
2015 04 09 13 19 08 .03    -197    175    -28    264    266 311.6  -6.2  33968  286.31 0862.75
2015 04 09 13 19 08 .28    -188    201    -54    276    282 317.0 -11.1  33958  286.15 0862.75
2015 04 09 13 19 08 .53    -189    207    -57    281    287 317.5 -11.5  33956  286.13 0862.75
2015 04 09 13 19 08 .79    -182    186    -18    261    262 315.7  -4.1  33964  286.26 0862.75
2015 04 09 13 19 09 .04    -182    194    -24    267    269 316.8  -5.2  33968  286.33 0862.75
2015 04 09 13 19 09 .28    -150    275    -49    314    318 331.3  -9.0  33956  286.11 0862.75
2015 04 09 13 19 09 .54    -137    270    -50    303    308 333.0  -9.4  33954  286.08 0862.75
2015 04 09 13 19 09 .79    -113    259      4    283    284 336.4   0.8  33956  286.13 0862.75
2015 04 09 13 19 10 .04    -129    280    -21    309    310 335.3  -3.9  33962  286.23 0862.75
2015 04 09 13 19 10 .29    -159    291    -52    332    337 331.3  -9.0  33970  286.36 0862.75
2015 04 09 13 19 10 .55    -217    248    -51    330    334 318.8  -8.8  33968  286.34 0862.75
2015 04 09 13 19 10 .80    -207    274    -68    344    351 323.0 -11.2  33968  286.34 0862.75
2015 04 09 13 19 11 .05    -228    226    -63    322    329 314.8 -11.1  33976  286.45 0862.75
2015 04 09 13 19 11 .30    -244    259    -79    357    366 316.7 -12.6  33982  286.56 0862.76
2015 04 09 13 19 11 .55    -225    257    -71    342    350 318.8 -11.8  33996  286.80 0862.76
2015 04 09 13 19 11 .80    -187    218    -11    288    289 319.5  -2.2  34000  286.85 0862.76
2015 04 09 13 19 12 .05    -198    197     33    280    283 314.8   6.9  34014  287.09 0862.76
2015 04 09 13 19 12 .30    -174    180     49    251    256 315.9  11.1  34022  287.24 0862.76
2015 04 09 13 19 12 .55    -213    212      4    301    302 314.8   0.8  34038  287.50 0862.76
2015 04 09 13 19 12 .80    -289    202    -94    353    366 305.0 -15.0  34006  286.96 0862.76
2015 04 09 13 19 13 .06    -304    209    -94    370    382 304.5 -14.3  34022  287.23 0862.76
2015 04 09 13 19 13 .30    -272    223    -71    352    360 309.3 -11.5  34026  287.30 0862.76
2015 04 09 13 19 13 .55    -257    205    -37    329    332 308.6  -6.5  34036  287.49 0862.76
2015 04 09 13 19 13 .81    -297    211    -49    365    369 305.5  -7.7  34044  287.61 0862.76
2015 04 09 13 19 14 .05    -272    255   -103    374    388 313.1 -15.4  34028  287.34 0862.76
2015 04 09 13 19 14 .31    -278    228   -113    360    377 309.3 -22.5  34026  287.29 0862.76
2015 04 09 13 19 14 .56    -271    177   -102    324    340 303.2 -17.6  34018  287.18 0862.76
2015 04 09 13 19 14 .81    -282    174    -44    332    335 301.8  -7.6  34022  287.22 0862.76
2015 04 09 13 19 15 .06    -165    189     12    252    253 318.8   2.9  34034  287.44 0862.76
2015 04 09 13 19 15 .31    -200    159    -10    256    257 308.4  -2.2  34028  287.34 0862.76
2015 04 09 13 19 15 .56    -263    165    -36    311    314 302.2  -6.7  34034  287.44 0862.76
2015 04 09 13 19 15 .81    -249    126    -61    280    287 296.9 -12.4  34038  287.51 0862.76
2015 04 09 13 19 16 .06    -246    172    -32    301    303 304.9  -6.2  34038  287.51 0862.76
2015 04 09 13 19 16 .31    -194    131    -42    235    239 304.1 -10.3  34042  287.58 0862.76
2015 04 09 13 19 16 .56    -221    199    -11    298    299 312.0  -2.1  34034  287.43 0862.76
2015 04 09 13 19 16 .81    -263    171    -37    314    317 303.1  -6.8  34028  287.34 0862.76
2015 04 09 13 19 17 .06    -239    176    -16    298    299 306.4  -3.1  34042  287.56 0862.76
2015 04 09 13 19 17 .31    -266    169    -57    316    322 302.4 -10.4  34030  287.36 0862.76
2015 04 09 13 19 17 .57    -321    135    -40    349    352 292.8  -6.6  34022  287.23 0862.76
2015 04 09 13 19 17 .83    -289    131    -38    318    321 294.4  -6.8  34022  287.24 0862.75
2015 04 09 13 19 18 .07    -266    125    -54    294    299 295.2 -10.5  34022  287.22 0862.75
2015 04 09 13 19 18 .33    -256     94    -50    273    278 290.2 -10.4  34030  287.36 0862.75
2015 04 09 13 19 18 .57    -238    103    -23    260    262 293.5  -5.2  34030  287.38 0862.75
2015 04 09 13 19 18 .83    -225    123    -47    257    262 298.6 -10.5  34024  287.26 0862.75
2015 04 09 13 19 19 .08    -229    140    -34    269    272 301.5  -7.3  34036  287.48 0862.75
2015 04 09 13 19 19 .33    -197    124    -39    234    238 302.2  -9.6  34028  287.34 0862.75
2015 04 09 13 19 19 .58    -178    124    -19    218    219 304.9  -5.2  34036  287.47 0862.75
2015 04 09 13 19 19 .83    -179    157    -28    239    241 311.3  -6.9  34042  287.56 0862.75
2015 04 09 13 19 20 .08    -160    170    -46    234    239 316.8 -11.3  34048  287.66 0862.75
2015 04 09 13 19 20 .33    -230    159    -20    280    281 304.6  -4.1  34038  287.51 0862.75
2015 04 09 13 19 20 .58    -245    177    -33    303    305 306.0  -6.2  34040  287.53 0862.75
2015 04 09 13 19 20 .83    -232    155    -10    280    281 303.7  -2.1  34046  287.63 0862.75
2015 04 09 13 19 21 .08    -146    204    -23    252    254 324.4  -5.4  34036  287.48 0862.75
2015 04 09 13 19 21 .34    -194    173    -71    261    271 311.8 -15.2  34032  287.41 0862.76
2015 04 09 13 19 21 .58    -196    174     -7    263    264 311.6  -1.6  34054  287.77 0862.76
2015 04 09 13 19 21 .84    -240    168    -16    293    294 305.0  -3.1  34070  288.04 0862.76
2015 04 09 13 19 22 .08    -150    213    -18    261    262 324.8  -4.1  34064  287.93 0862.76
2015 04 09 13 19 22 .33    -139    218    -46    259    264 327.4 -10.1  34026  287.29 0862.76
2015 04 09 13 19 22 .58    -172    201    -58    265    272 319.5 -12.4  33986  286.63 0862.76
2015 04 09 13 19 22 .84     -99    209    -36    232    235 334.7  -8.8  33990  286.68 0862.76
2015 04 09 13 19 23 .09    -129    162    -11    208    209 321.5  -3.3  33996  286.81 0862.76
2015 04 09 13 19 23 .34     -92    167     47    191    197 331.0  13.9  34020  287.20 0862.76
2015 04 09 13 19 23 .59     -95    167      9    193    194 330.4   2.9  34034  287.45 0862.76
2015 04 09 13 19 23 .84    -130    130    115    185    217 315.0  35.2  34034  287.45 0862.76
2015 04 09 13 19 24 .09    -142     76     13    162    163 298.2   4.6  34038  287.52 0862.76
2015 04 09 13 19 24 .35    -165    130    -44    211    216 308.2 -11.9  34086  288.31 0862.76
2015 04 09 13 19 24 .60    -244    180    -50    304    309 306.4  -9.3  34074  288.10 0862.76
2015 04 09 13 19 24 .85    -257    169    -14    308    309 303.3  -2.6  34052  287.75 0862.76
2015 04 09 13 19 25 .10    -323    153    -71    358    366 295.3 -11.3  34026  287.29 0862.76
2015 04 09 13 19 25 .35    -312    153    -57    348    353 296.2  -9.3  34026  287.29 0862.76
2015 04 09 13 19 25 .60    -311    161    -47    351    355 297.4  -7.7  33978  286.51 0862.76
2015 04 09 13 19 25 .85    -302    158    -69    341    349 297.7 -11.6  33952  286.05 0862.76
2015 04 09 13 19 26 .10    -260    133    -95    293    309 297.1 -18.1  33954  286.09 0862.76
2015 04 09 13 19 26 .36    -253    126    -84    283    295 296.6 -21.5  33958  286.15 0862.76
2015 04 09 13 19 26 .60    -301    141    -88    333    345 295.2 -14.8  34006  286.96 0862.76
2015 04 09 13 19 26 .86    -232    101    -69    254    264 293.5 -15.2  34012  287.06 0862.76
2015 04 09 13 19 27 .10    -244    144    -36    284    287 300.7  -7.3  34020  287.21 0862.76
2015 04 09 13 19 27 .35    -239    175     12    297    298 306.2   2.5  33994  286.75 0862.76
2015 04 09 13 19 27 .61    -282    167    -45    328    332 300.7  -7.9  33984  286.59 0862.76
2015 04 09 13 19 27 .86    -263    142    -47    300    304 298.4  -9.0  33960  286.18 0862.76
2015 04 09 13 19 28 .11    -231    107    -71    255    264 294.8 -20.2  33978  286.50 0862.76
2015 04 09 13 19 28 .36    -231    141    -91    271    285 301.5 -23.3  33998  286.84 0862.76
2015 04 09 13 19 28 .61    -228    165    -40    282    285 305.9  -8.3  34020  287.19 0862.76
2015 04 09 13 19 28 .86    -244    183    -38    305    308 306.9  -7.2  34000  286.87 0862.76
2015 04 09 13 19 29 .11    -222    194    -81    296    308 311.1 -15.4  34006  286.95 0862.76
2015 04 09 13 19 29 .36    -293     96    -57    309    315 288.2 -10.5  34022  287.24 0862.76
2015 04 09 13 19 29 .61    -188    122     12    225    226 303.1   3.1  34006  286.98 0862.76
2015 04 09 13 19 29 .87    -180    181    -14    256    257 315.1  -3.1  34006  286.97 0862.76
2015 04 09 13 19 30 .11    -142    194    -32    241    244 323.9  -7.7  34032  287.41 0862.76
2015 04 09 13 19 30 .36    -114    181    -16    215    216 327.7  -4.4  34042  287.59 0862.76
2015 04 09 13 19 30 .62    -150    165     12    224    225 317.7   3.3  34018  287.18 0862.77
2015 04 09 13 19 30 .86    -210    147    -12    257    258 305.1  -2.8  33992  286.74 0862.77
2015 04 09 13 19 31 .12    -201    176    -17    268    269 311.1  -3.7  34036  287.48 0862.77
2015 04 09 13 19 31 .37    -173    162    -13    238    239 313.1  -3.2  34024  287.28 0862.77
2015 04 09 13 19 31 .63    -223    162    -35    276    279 306.0  -7.3  34028  287.34 0862.77
2015 04 09 13 19 31 .88    -211    164    -14    268    269 307.8  -3.1  34040  287.53 0862.77
2015 04 09 13 19 32 .13    -222    141    -77    264    276 302.4 -16.4  34114  288.80 0862.77
2015 04 09 13 19 32 .38    -240    109    -65    264    272 294.6 -13.9  34104  288.63 0862.77
2015 04 09 13 19 32 .63    -205    115    -84    236    251 299.3 -19.7  34000  286.85 0862.77
2015 04 09 13 19 32 .88    -191    146    -68    241    250 307.5 -20.7  33958  286.15 0862.77
2015 04 09 13 19 33 .13    -171    124    -60    212    220 305.9 -20.4  33948  285.98 0862.77
2015 04 09 13 19 33 .38    -162    119    -69    202    213 306.4 -23.3  33934  285.76 0862.77
2015 04 09 13 19 33 .63    -161    119    -76    201    214 306.4 -25.7  33930  285.70 0862.77
2015 04 09 13 19 33 .88    -161    111    -76    196    210 304.6 -26.7  33934  285.75 0862.77
2015 04 09 13 19 34 .13    -159    108    -60    193    202 304.4 -22.1  33932  285.71 0862.76
2015 04 09 13 19 34 .38    -135    109    -57    174    183 308.9 -23.6  33934  285.75 0862.76
2015 04 09 13 19 34 .63    -125    114    -66    170    182 312.4 -26.7  33934  285.75 0862.76
2015 04 09 13 19 34 .88    -107    106    -62    151    163 314.8 -27.8  33930  285.68 0862.76
2015 04 09 13 19 35 .13    -105    107    -47    151    158 315.5 -22.3  33932  285.71 0862.76
2015 04 09 13 19 35 .38     -83    113    -53    141    150 323.5 -25.9  33930  285.68 0862.76
2015 04 09 13 19 35 .63     -72    119    -39    140    146 328.8 -15.5  33930  285.70 0862.76
2015 04 09 13 19 35 .88     -65    127    -45    143    151 332.9 -17.6  33932  285.71 0862.76
2015 04 09 13 19 36 .13     -54    126    -43    138    145 336.8 -17.5  33930  285.68 0862.76
2015 04 09 13 19 36 .38     -65    118    -37    135    141 331.1 -15.5  33936  285.80 0862.76
2015 04 09 13 19 36 .64     -45    113    -43    122    130 338.2 -19.6  33964  286.27 0862.76
2015 04 09 13 19 36 .89     -58    110    -15    125    127 331.9  -7.2  33992  286.74 0862.76
2015 04 09 13 19 37 .14     -38     67     21     78     81 330.1  15.3  34002  286.89 0862.76
2015 04 09 13 19 37 .39     -25     70     25     75     80 340.0  18.4  34000  286.86 0862.76
2015 04 09 13 19 37 .64     -49     60      1     78     79 320.4   0.8  34006  286.98 0862.76
2015 04 09 13 19 37 .89     -26     73     -3     78     79 340.0  -2.2  34008  287.01 0862.76
2015 04 09 13 19 38 .14     -41     78     30     89     95 332.4  18.9  34004  286.93 0862.76
2015 04 09 13 19 38 .40     -57     74     40     94    102 322.6  24.1  34006  286.96 0862.76
2015 04 09 13 19 38 .65     -47     65     -8     81     82 324.0  -6.2  34000  286.86 0862.77
2015 04 09 13 19 38 .91     -58     77     13     97     98 323.0   8.0  34018  287.18 0862.77
2015 04 09 13 19 39 .15     -72     73     52    103    115 315.5  28.2  34024  287.28 0862.77
2015 04 09 13 19 39 .40     -39     64     55     76     93 328.4  39.1  34028  287.35 0862.77
2015 04 09 13 19 39 .66     -68     41     45     80     91 301.5  31.9  34044  287.62 0862.77
2015 04 09 13 19 39 .90     -30     70     29     77     82 336.4  21.5  34072  288.08 0862.77
2015 04 09 13 19 40 .15     -67     63     74     93    118 313.1  42.2  34078  288.18 0862.77
2015 04 09 13 19 40 .41     -29     88     56     93    108 341.7  34.4  34094  288.45 0862.76
2015 04 09 13 19 40 .65     -47     75     81     89    120 327.5  47.5  34104  288.64 0862.76
2015 04 09 13 19 40 .91     -66     45      5     81     82 304.6   3.8  34106  288.65 0862.76
2015 04 09 13 19 41 .16     -51     42     44     67     80 309.5  36.5  34110  288.72 0862.76
2015 04 09 13 19 41 .41     -65     66     51     94    106 315.5  31.3  34104  288.62 0862.76
2015 04 09 13 19 41 .66     -30     63     37     70     79 334.5  30.3  34130  289.06 0862.76
2015 04 09 13 19 41 .91     -55     50     45     75     87 312.2  34.4  34136  289.18 0862.76
2015 04 09 13 19 42 .16     -84     53    -30    100    104 302.4 -22.3  34132  289.11 0862.76
2015 04 09 13 19 42 .41     -83     44     -1     95     96 298.0  -0.7  34134  289.14 0862.76
2015 04 09 13 19 42 .66    -107     85    -27    137    140 308.6 -11.3  34132  289.09 0862.76
2015 04 09 13 19 42 .91    -190     98    -27    214    216 297.3  -7.3  34106  288.67 0862.76
2015 04 09 13 19 43 .16    -161     58    -34    172    176 290.0 -11.3  34118  288.86 0862.76
2015 04 09 13 19 43 .42    -162     59    -42    173    179 290.0 -13.7  34086  288.33 0862.76
2015 04 09 13 19 43 .66    -186     81      0    203    204 293.5   0.0  34090  288.40 0862.76
2015 04 09 13 19 43 .91    -178     87    -60    199    207 296.0 -21.7  33950  286.03 0862.76
2015 04 09 13 19 44 .16    -213     80    -68    228    238 290.8 -16.6  34018  287.16 0862.76
2015 04 09 13 19 44 .41    -211     65    -67    221    230 287.3 -22.1  33974  286.42 0862.76
2015 04 09 13 19 44 .67    -161     53    -60    170    181 288.2 -19.6  34016  287.13 0862.76
2015 04 09 13 19 44 .92    -192    104    -23    219    221 298.6  -6.2  34014  287.11 0862.76
2015 04 09 13 19 45 .17    -156    143    -19    212    213 312.4  -5.2  34028  287.33 0862.76
2015 04 09 13 19 45 .43    -237     48    -36    242    245 281.5  -8.6  33970  286.36 0862.76
2015 04 09 13 19 45 .68    -212     76    -29    226    228 289.7  -7.3  33966  286.30 0862.76
2015 04 09 13 19 45 .93    -235     45    -34    240    243 280.8  -8.2  33944  285.91 0862.76
2015 04 09 13 19 46 .18    -203     41    -28    208    210 281.4  -7.7  33934  285.76 0862.76
2015 04 09 13 19 46 .43    -213     56    -27    221    223 284.8  -7.2  33944  285.92 0862.76
2015 04 09 13 19 46 .68    -252     76    -38    264    267 286.8  -8.3  33934  285.76 0862.76
2015 04 09 13 19 46 .93    -254     58    -39    261    264 283.0  -8.6  33934  285.76 0862.76
2015 04 09 13 19 47 .18    -198     74     -9    212    213 290.6  -2.6  33956  286.14 0862.76
2015 04 09 13 19 47 .43    -255     47    -33    260    263 280.5  -7.3  33938  285.81 0862.76
2015 04 09 13 19 47 .68    -253     47    -42    258    262 280.6  -9.3  33936  285.79 0862.76
2015 04 09 13 19 47 .93    -228     46    -55    233    240 281.5 -13.3  33948  285.98 0862.76
2015 04 09 13 19 48 .19    -258     55    -20    264    265 282.2  -4.4  33960  286.18 0862.76
2015 04 09 13 19 48 .43    -281     89    -31    295    297 287.7  -6.1  33978  286.50 0862.76
2015 04 09 13 19 48 .68    -250     86    -53    265    271 289.1 -11.3  33984  286.58 0862.76
2015 04 09 13 19 48 .93    -262     84    -51    276    281 287.9 -10.5  33984  286.60 0862.76
2015 04 09 13 19 49 .18    -292     78    -74    303    312 285.1 -13.8  33974  286.43 0862.76
2015 04 09 13 19 49 .44    -292     77   -105    302    319 284.8 -24.3  33990  286.68 0862.76
2015 04 09 13 19 49 .69    -251     82   -105    265    285 288.2 -27.4  34018  287.17 0862.76
2015 04 09 13 19 49 .94    -220     73    -95    232    250 288.4 -28.0  34020  287.21 0862.76
2015 04 09 13 19 50 .19    -222     45    -79    227    240 281.5 -24.3  34002  286.89 0862.76
2015 04 09 13 19 50 .44    -205     62    -67    215    226 286.9 -17.3  34030  287.37 0862.76
2015 04 09 13 19 50 .69    -210     46    -57    216    224 282.4 -15.0  34014  287.10 0862.76
2015 04 09 13 19 50 .94    -214      3    -43    215    220 271.0 -11.5  33974  286.44 0862.76
2015 04 09 13 19 51 .19    -196     44    -37    202    206 282.8 -10.5  34006  286.96 0862.76
2015 04 09 13 19 51 .44    -199     82    -37    216    220 292.6  -9.8  34030  287.38 0862.76
2015 04 09 13 19 51 .69    -224     75    -36    237    240 288.6  -8.8  34040  287.53 0862.76
2015 04 09 13 19 51 .94    -229     74    -20    241    242 287.9  -4.9  34038  287.51 0862.76
2015 04 09 13 19 52 .20    -194    123    -32    230    233 302.4  -8.0  34040  287.55 0862.76
2015 04 09 13 19 52 .45    -219    121    -50    251    257 298.9 -11.3  34032  287.39 0862.76
2015 04 09 13 19 52 .70    -181     92    -18    204    205 297.0  -5.2  34030  287.38 0862.76
2015 04 09 13 19 52 .96    -167    164    -16    235    236 314.4  -4.1  34024  287.26 0862.76
2015 04 09 13 19 53 .21    -197    148    -11    247    248 307.1  -2.6  34020  287.21 0862.76
2015 04 09 13 19 53 .46    -209    126    -22    245    247 301.1  -5.2  34014  287.11 0862.76
2015 04 09 13 19 53 .71    -198    126    -20    235    236 302.5  -5.1  34012  287.06 0862.76
2015 04 09 13 19 53 .96    -191    122    -20    227    228 302.6  -5.2  33986  286.62 0862.76
2015 04 09 13 19 54 .21    -243    110    -29    267    269 294.4  -6.2  33986  286.63 0862.76
2015 04 09 13 19 54 .46    -240    112    -51    265    270 295.1 -10.9  33990  286.70 0862.76
2015 04 09 13 19 54 .71    -231    127    -47    264    269 298.8 -10.3  34006  286.95 0862.76
2015 04 09 13 19 54 .96    -233    165    -31    286    288 305.3  -6.2  34006  286.97 0862.76
2015 04 09 13 19 55 .21    -195    165    -27    256    258 310.2  -6.2  34014  287.11 0862.76
2015 04 09 13 19 55 .46    -188    167     -3    252    253 311.6  -0.7  34020  287.21 0862.76
2015 04 09 13 19 55 .71    -174    136    -10    222    223 308.0  -2.8  34022  287.25 0862.76
2015 04 09 13 19 55 .96    -145    132     14    197    198 312.4   4.2  34026  287.30 0862.76
2015 04 09 13 19 56 .21    -128    155    -39    202    206 320.3 -11.1  34022  287.23 0862.76
2015 04 09 13 19 56 .46    -154    134     -5    205    206 310.9  -1.6  34030  287.38 0862.76
2015 04 09 13 19 56 .71    -113    139    -13    180    181 320.8  -4.4  34028  287.35 0862.76
2015 04 09 13 19 56 .96    -104    164    -53    195    203 327.5 -15.4  34016  287.15 0862.76
2015 04 09 13 19 57 .21    -116    159    -50    198    205 323.9 -14.3  34012  287.06 0862.76
2015 04 09 13 19 57 .47    -101    156    -45    187    193 327.0 -13.7  34010  287.03 0862.76
2015 04 09 13 19 57 .72     -78    142     -6    163    164 331.1  -2.2  34030  287.38 0862.76
2015 04 09 13 19 57 .96     -66    117     49    135    143 330.6  20.9  34038  287.52 0862.76
2015 04 09 13 19 58 .22     -43     83     38     94    101 332.4  23.0  34046  287.65 0862.76
2015 04 09 13 19 58 .47     -92     41    -29    101    105 294.0 -21.2  34058  287.84 0862.76
2015 04 09 13 19 58 .72    -103     68     24    124    127 303.7  11.1  34056  287.81 0862.76
2015 04 09 13 19 58 .97     -57     91    -12    108    109 327.9  -6.7  34060  287.89 0862.76
2015 04 09 13 19 59 .23    -163    123    -53    205    212 307.1 -14.7  34038  287.52 0862.76
2015 04 09 13 19 59 .48    -143     71    -11    160    161 296.6  -4.1  34042  287.59 0862.76
2015 04 09 13 19 59 .73    -152     41    -12    158    159 285.1  -4.6  34038  287.52 0862.76
2015 04 09 13 19 59 .98     -97     64    -38    117    124 303.7 -18.1  34044  287.62 0862.76
2015 04 09 13 20 00 .23     -71     53    -30     89     93 306.9 -23.6  34054  287.77 0862.76
2015 04 09 13 20 00 .48    -120     99    -21    156    158 309.6  -7.7  34058  287.86 0862.76
2015 04 09 13 20 00 .73    -116    100    -38    154    159 310.9 -13.9  34050  287.72 0862.76
2015 04 09 13 20 00 .98    -169     58    -16    179    180 289.1  -5.4  34038  287.50 0862.76
2015 04 09 13 20 01 .23    -171    116    -30    207    210 304.2  -8.2  34032  287.42 0862.77
2015 04 09 13 20 01 .48    -189    133    -51    232    238 305.1 -12.6  34034  287.43 0862.77
2015 04 09 13 20 01 .73    -170    106    -46    201    207 302.0 -12.9  34032  287.42 0862.77
2015 04 09 13 20 01 .99    -189    133    -51    232    238 305.1 -12.6  34036  287.48 0862.77
2015 04 09 13 20 02 .24    -202    134    -34    243    246 303.7  -8.0  34054  287.77 0862.77
2015 04 09 13 20 02 .49    -200    114    -39    231    235 299.8  -9.6  34046  287.65 0862.77
2015 04 09 13 20 02 .73    -216    114    -59    245    253 297.9 -13.7  34044  287.60 0862.77
2015 04 09 13 20 02 .99    -198    125    -49    235    241 302.4 -11.9  34044  287.61 0862.77
2015 04 09 13 20 03 .24    -167    104    -43    198    203 302.0 -12.4  34052  287.76 0862.77
2015 04 09 13 20 03 .49    -175     82    -34    194    198 295.2 -10.1  34042  287.57 0862.77
2015 04 09 13 20 03 .74    -159     83    -23    180    182 297.8  -7.3  34046  287.65 0862.77
2015 04 09 13 20 03 .99    -145     79    -24    166    168 298.6  -8.2  34048  287.69 0862.77
2015 04 09 13 20 04 .24    -123    102    -18    160    162 309.6  -6.7  34090  288.40 0862.77
2015 04 09 13 20 04 .49     -95     33    -16    101    103 289.5  -9.3  34070  288.04 0862.77
2015 04 09 13 20 04 .74     -41     34     32     54     62 309.5  33.5  34104  288.64 0862.77
2015 04 09 13 20 04 .99     -83     73     -4    111    112 311.3  -2.2  34062  287.91 0862.77
2015 04 09 13 20 05 .24     -82    129    -35    154    159 327.4 -12.9  34036  287.47 0862.77
2015 04 09 13 20 05 .49     -49    110    -36    121    127 335.9 -16.6  33990  286.69 0862.77
2015 04 09 13 20 05 .75     -76    116    -49    139    148 326.6 -19.7  34000  286.88 0862.77
2015 04 09 13 20 05 .99     -61     81    -38    102    108 323.0 -25.4  33978  286.51 0862.77
2015 04 09 13 20 06 .26     -82     56    -12    100    101 304.2  -7.2  34016  287.15 0862.77
2015 04 09 13 20 06 .51     -57     67     21     89     92 319.5  13.7  34032  287.40 0862.77
2015 04 09 13 20 06 .76    -108     89    -23    140    142 309.5  -9.3  34028  287.35 0862.77
2015 04 09 13 20 07 .00    -112    145    -52    184    192 322.4 -15.8  34008  287.00 0862.77
2015 04 09 13 20 07 .26    -121    114    -24    167    169 313.3  -8.2  34038  287.52 0862.77
2015 04 09 13 20 07 .51    -150     63    -37    163    168 292.8 -12.9  34050  287.70 0862.77
2015 04 09 13 20 07 .76    -180     54    -12    188    189 286.8  -3.7  34056  287.81 0862.77
2015 04 09 13 20 08 .01    -156     27     -3    159    160 280.1  -1.3  34066  287.98 0862.77
2015 04 09 13 20 08 .26    -127     60    -15    141    142 295.4  -6.2  34068  288.03 0862.77
2015 04 09 13 20 08 .51     -50     53     46     74     87 316.8  35.5  34082  288.26 0862.77
2015 04 09 13 20 08 .76     -52     57     -6     78     79 317.7  -4.6  34070  288.06 0862.77
2015 04 09 13 20 09 .01    -114      8    -47    115    124 274.4 -27.4  34048  287.67 0862.77
2015 04 09 13 20 09 .26    -145     52     -6    155    156 289.9  -2.2  34036  287.49 0862.77
2015 04 09 13 20 09 .51    -193     57    -24    202    204 286.6  -6.9  34028  287.33 0862.77
2015 04 09 13 20 09 .76    -114     72     -5    135    136 302.4  -2.2  34038  287.52 0862.77
2015 04 09 13 20 10 .01     -51     65    -42     83     93 321.7 -32.6  34054  287.77 0862.77
2015 04 09 13 20 10 .26    -148     92    -19    175    177 301.8  -6.5  34038  287.52 0862.77
2015 04 09 13 20 10 .52    -168     95    -18    194    195 299.5  -5.6  34022  287.25 0862.77
2015 04 09 13 20 10 .77    -185     83    -23    203    205 294.2  -6.7  34024  287.28 0862.77
2015 04 09 13 20 11 .02    -173     58    -23    183    185 288.8  -7.2  34028  287.33 0862.77
2015 04 09 13 20 11 .27    -195     27    -25    197    199 278.0  -7.3  34026  287.32 0862.77
2015 04 09 13 20 11 .52    -185     65    -31    197    200 289.5  -9.0  34024  287.27 0862.77
2015 04 09 13 20 11 .77    -224     94    -36    244    247 292.8  -8.6  34018  287.16 0862.77
2015 04 09 13 20 12 .02    -189     67    -21    201    203 289.5  -6.2  33998  286.83 0862.77
2015 04 09 13 20 12 .27    -191     90    -42    212    217 295.2 -11.3  33988  286.67 0862.76
2015 04 09 13 20 12 .52    -194    104    -36    221    225 298.2  -9.3  34010  287.05 0862.76
2015 04 09 13 20 12 .77    -217     66    -16    227    228 286.9  -4.1  34012  287.06 0862.76
2015 04 09 13 20 13 .02    -235     93    -33    253    256 291.7  -7.5  34010  287.02 0862.76
2015 04 09 13 20 13 .28    -210     96    -38    231    235 294.6  -9.3  34012  287.06 0862.76
2015 04 09 13 20 13 .53    -194     74    -26    208    210 291.1  -7.2  34006  286.98 0862.76
2015 04 09 13 20 13 .78    -214     65    -12    224    225 286.9  -3.2  33996  286.79 0862.76
2015 04 09 13 20 14 .04    -195     92    -18    216    217 295.2  -4.9  34008  287.01 0862.76
2015 04 09 13 20 14 .28    -228     82    -31    243    245 290.0  -7.3  33992  286.74 0862.76
2015 04 09 13 20 14 .53    -216     78    -33    230    233 290.0  -8.3  34012  287.06 0862.76
2015 04 09 13 20 14 .79    -222    115    -54    251    257 297.5 -12.2  34030  287.38 0862.76
2015 04 09 13 20 15 .04    -255    135    -30    289    291 298.0  -6.0  33998  286.84 0862.76
2015 04 09 13 20 15 .29    -247     85    -47    262    267 289.1 -10.3  34000  286.85 0862.76
2015 04 09 13 20 15 .53    -244    116    -46    271    276 295.4  -9.8  33990  286.68 0862.76
2015 04 09 13 20 15 .78    -236    111    -37    261    264 295.2  -8.2  33984  286.58 0862.76
2015 04 09 13 20 16 .03    -242    105    -53    264    270 293.5 -11.5  33976  286.47 0862.76
2015 04 09 13 20 16 .29    -245     94    -47    263    268 291.1 -10.3  33974  286.42 0862.76
2015 04 09 13 20 16 .54    -250    103    -44    271    275 292.4  -9.4  33950  286.03 0862.76
2015 04 09 13 20 16 .79    -237    103    -37    259    262 293.5  -8.2  33952  286.04 0862.75
2015 04 09 13 20 17 .04    -231    117    -32    260    263 296.9  -7.2  33964  286.26 0862.75
2015 04 09 13 20 17 .29    -230    122    -37    261    264 298.0  -8.2  33958  286.16 0862.75
2015 04 09 13 20 17 .54    -213    131    -37    251    254 301.5  -8.6  33948  285.99 0862.75
2015 04 09 13 20 17 .79    -201    152    -13    253    254 307.1  -3.1  33952  286.04 0862.75
2015 04 09 13 20 18 .04    -220     84    -60    236    244 291.1 -14.4  33956  286.13 0862.75
2015 04 09 13 20 18 .29    -219    104    -57    243    250 295.5 -13.3  33976  286.47 0862.75
2015 04 09 13 20 18 .54    -213    101    -58    236    244 295.4 -13.9  33984  286.58 0862.75
2015 04 09 13 20 18 .79    -222     87    -44    239    244 291.5 -10.5  33970  286.35 0862.75
2015 04 09 13 20 19 .04    -197     98    -40    221    225 296.6 -10.5  33962  286.22 0862.75
2015 04 09 13 20 19 .30    -202    107    -44    229    234 298.0 -10.9  33952  286.07 0862.75
2015 04 09 13 20 19 .55    -188     89    -34    209    212 295.4  -9.4  33958  286.15 0862.75
2015 04 09 13 20 19 .80    -175     71    -32    189    192 292.2  -9.6  33958  286.17 0862.75
2015 04 09 13 20 20 .06    -189     75    -33    204    207 291.8  -9.4  33964  286.25 0862.75
2015 04 09 13 20 20 .31    -205     63    -37    215    219 287.3  -9.8  33962  286.22 0862.75
2015 04 09 13 20 20 .56    -177     74    -27    193    195 292.8  -8.0  33962  286.22 0862.75
2015 04 09 13 20 20 .81    -182     77    -26    198    200 293.1  -7.5  33958  286.17 0862.75
2015 04 09 13 20 21 .06    -182     75    -54    197    205 292.4 -15.5  33956  286.12 0862.75
2015 04 09 13 20 21 .31    -184     71    -55    198    206 291.3 -15.5  33954  286.08 0862.75
2015 04 09 13 20 21 .56    -182     63    -54    193    200 289.1 -20.2  33964  286.27 0862.75
2015 04 09 13 20 21 .81    -182     59    -65    192    203 287.9 -18.7  33966  286.30 0862.75
2015 04 09 13 20 22 .06    -171     54    -61    180    191 287.5 -18.7  33964  286.25 0862.75
2015 04 09 13 20 22 .31    -164     61    -57    176    186 290.4 -17.9  33946  285.95 0862.76
2015 04 09 13 20 22 .56    -173     46    -51    180    188 285.0 -16.0  33952  286.05 0862.76
2015 04 09 13 20 22 .81    -154     33    -56    158    168 282.4 -19.7  33956  286.12 0862.76
2015 04 09 13 20 23 .06    -155     27    -49    158    166 279.9 -17.3  33954  286.08 0862.76
2015 04 09 13 20 23 .32    -158     22    -52    160    169 278.1 -17.9  33946  285.95 0862.76
2015 04 09 13 20 23 .56    -149     21    -48    151    159 278.4 -17.6  33950  286.03 0862.76
2015 04 09 13 20 23 .81    -142     38    -29    147    150 285.0 -11.3  33956  286.14 0862.76
2015 04 09 13 20 24 .07    -130     15    -37    131    137 277.0 -16.0  33954  286.08 0862.76
2015 04 09 13 20 24 .32    -137      7    -34    138    143 273.0 -13.9  33952  286.05 0862.76
2015 04 09 13 20 24 .57    -128     -7    -27    129    132 266.5 -11.9  33968  286.34 0862.76
2015 04 09 13 20 24 .81    -124      5    -29    125    129 272.5 -13.4  33964  286.27 0862.76
2015 04 09 13 20 25 .07    -132    -35    -22    137    139 254.9  -9.3  33960  286.19 0862.76
2015 04 09 13 20 25 .32    -144    -29    -29    147    150 258.5 -11.5  33964  286.27 0862.76
2015 04 09 13 20 25 .57    -143    -28    -29    146    149 258.6 -11.5  33958  286.17 0862.76
2015 04 09 13 20 25 .82    -126      9    -25    127    130 274.3 -11.3  33968  286.32 0862.76
2015 04 09 13 20 26 .07    -144      2    -18    145    147 270.9  -7.3  33970  286.37 0862.76
2015 04 09 13 20 26 .32    -131    -11    -29    132    136 264.8 -12.4  33964  286.25 0862.76
2015 04 09 13 20 26 .57    -111    -29      1    115    116 255.4   0.8  33962  286.24 0862.76
2015 04 09 13 20 26 .82     -36    -43     15     57     60 219.7  15.3  33986  286.64 0862.76
2015 04 09 13 20 27 .08     -23      8     30     25     39 290.0  56.3  33990  286.69 0862.76
2015 04 09 13 20 27 .33     -33    -19      8     39     40 239.3  12.2  34006  286.98 0862.76
2015 04 09 13 20 27 .58    -109     43    -10    118    119 291.7  -5.1  34002  286.91 0862.76
2015 04 09 13 20 27 .84    -143    -24     -8    146    147 260.3  -3.1  33994  286.76 0862.76
2015 04 09 13 20 28 .09    -150     40    -14    156    157 285.1  -5.4  34008  287.00 0862.76
2015 04 09 13 20 28 .34     -93      4     -9     94     95 273.0  -5.6  34028  287.33 0862.76
2015 04 09 13 20 28 .59    -120     -5    -15    121    122 267.4  -7.2  34040  287.55 0862.76
2015 04 09 13 20 28 .84     -63     20     10     67     68 288.2   9.0  34052  287.76 0862.76
2015 04 09 13 20 29 .09     -92     -1    -34     93     99 269.2 -24.8  34060  287.89 0862.76
2015 04 09 13 20 29 .34     -50     32     -5     60     61 303.3  -5.2  34060  287.89 0862.76
2015 04 09 13 20 29 .59     -54    -18    -19     58     61 251.4 -23.8  34088  288.35 0862.75
2015 04 09 13 20 29 .84     -66    -16     13     69     71 255.8  11.0  34082  288.26 0862.75
2015 04 09 13 20 30 .09    -141      0     -5    142    143 270.0  -2.2  34050  287.70 0862.75
2015 04 09 13 20 30 .34    -158     36    -22    163    165 282.8  -7.7  34034  287.43 0862.75
2015 04 09 13 20 30 .59    -150     40    -28    156    159 285.1 -10.3  34028  287.35 0862.75
2015 04 09 13 20 30 .84    -134     62      2    148    149 294.8   0.8  34030  287.38 0862.75
2015 04 09 13 20 31 .09    -102     48     -9    113    114 295.2  -4.6  34036  287.49 0862.75
2015 04 09 13 20 31 .34    -209     69    -27    221    223 288.4  -7.2  34052  287.74 0862.75
2015 04 09 13 20 31 .59    -245     62    -32    253    256 284.4  -7.3  33962  286.21 0862.75
2015 04 09 13 20 31 .84    -199     53    -24    207    209 285.0  -6.7  33984  286.59 0862.75
2015 04 09 13 20 32 .10    -158     63    -11    171    172 291.7  -3.9  33980  286.52 0862.75
2015 04 09 13 20 32 .35    -154     16      0    155    156 276.1  -0.3  33994  286.78 0862.75
2015 04 09 13 20 32 .59    -191    -16    -39    192    197 265.2 -11.6  33972  286.41 0862.75
2015 04 09 13 20 32 .85    -129     -1     12    130    131 269.2   5.4  33980  286.52 0862.75
2015 04 09 13 20 33 .10    -171     29      3    174    175 279.9   1.2  33984  286.61 0862.75
2015 04 09 13 20 33 .35    -262     53    -53    268    274 281.5 -11.3  33998  286.84 0862.75
2015 04 09 13 20 33 .60    -250     67    -64    259    267 285.0 -13.9  33984  286.58 0862.75
2015 04 09 13 20 33 .85    -242     81    -33    256    259 288.6  -7.5  33990  286.70 0862.75
2015 04 09 13 20 34 .11    -244     76    -46    256    261 287.3 -10.3  34000  286.87 0862.75
2015 04 09 13 20 34 .36    -243     67    -36    253    256 285.5  -8.2  33980  286.53 0862.75
2015 04 09 13 20 34 .61    -245     94    -47    263    268 291.1 -10.3  33964  286.26 0862.75
2015 04 09 13 20 34 .86    -243     89    -52    259    265 290.2 -11.5  33958  286.16 0862.75
2015 04 09 13 20 35 .11    -209     83    -57    226    234 291.8 -14.3  33964  286.25 0862.76
2015 04 09 13 20 35 .36    -206     84    -58    223    231 292.2 -14.7  33946  285.95 0862.76
2015 04 09 13 20 35 .61    -215     75    -51    228    234 289.3 -12.6  33938  285.83 0862.76
2015 04 09 13 20 35 .86    -215     75    -51    228    234 289.3 -12.6  33938  285.83 0862.76
2015 04 09 13 20 36 .11    -221     73    -51    233    239 288.4 -12.4  33936  285.77 0862.76
2015 04 09 13 20 36 .36    -215     68    -43    226    231 287.5 -10.9  33936  285.80 0862.76
2015 04 09 13 20 36 .61    -215     73    -44    228    233 288.8 -11.1  33934  285.75 0862.76
2015 04 09 13 20 36 .86    -213     71    -40    225    229 288.4 -10.3  33936  285.78 0862.76
2015 04 09 13 20 37 .12    -192     50    -61    199    209 284.8 -17.0  33948  285.98 0862.76
2015 04 09 13 20 37 .36    -180     43    -45    186    192 283.7 -13.7  33942  285.88 0862.76
2015 04 09 13 20 37 .62    -206     44    -33    211    214 282.2  -9.0  33944  285.92 0862.76
2015 04 09 13 20 37 .86    -220     49    -41    226    230 282.8 -10.5  33966  286.29 0862.76
2015 04 09 13 20 38 .12    -231     46    -38    236    240 281.5  -9.3  33946  285.96 0862.76
2015 04 09 13 20 38 .37    -216     44    -28    221    223 281.5  -7.3  33958  286.17 0862.76
2015 04 09 13 20 38 .62    -194     27    -32    196    199 278.1  -9.4  33984  286.59 0862.76
2015 04 09 13 20 38 .87    -162     16     -9    163    164 275.9  -3.3  33984  286.61 0862.76
2015 04 09 13 20 39 .12    -214     40    -33    218    221 280.8  -8.8  33936  285.80 0862.76
2015 04 09 13 20 39 .37    -201     54    -44    209    214 285.1 -11.9  33934  285.76 0862.76
2015 04 09 13 20 39 .62    -217     63    -45    226    231 286.2 -11.3  33934  285.76 0862.76
2015 04 09 13 20 39 .87    -210     64    -36    220    223 287.1  -9.3  33936  285.78 0862.76
2015 04 09 13 20 40 .12    -207     60    -33    216    219 286.4  -8.8  33934  285.75 0862.76
2015 04 09 13 20 40 .37    -207     60    -33    216    219 286.4  -8.8  33934  285.75 0862.76
2015 04 09 13 20 40 .62    -204     68    -42    216    221 288.6 -11.1  33932  285.71 0862.76
2015 04 09 13 20 40 .88    -202     68    -45    214    219 288.8 -11.9  33936  285.78 0862.76
2015 04 09 13 20 41 .13    -197     62    -41    207    212 287.7 -11.3  33936  285.78 0862.76
2015 04 09 13 20 41 .38    -185     56    -39    194    199 287.1 -11.6  33934  285.76 0862.76
2015 04 09 13 20 41 .63    -185     56    -39    194    199 287.1 -11.6  33934  285.76 0862.76
2015 04 09 13 20 41 .88    -181     61    -35    192    196 288.8 -10.5  33934  285.76 0862.76
2015 04 09 13 20 42 .13    -184     60    -38    194    198 288.2 -11.3  33936  285.80 0862.76
2015 04 09 13 20 42 .39    -192     64    -31    203    206 288.4  -8.8  33934  285.76 0862.76
2015 04 09 13 20 42 .63    -167     55    -35    176    180 288.4 -11.3  33934  285.76 0862.76
2015 04 09 13 20 42 .89    -163     54    -36    172    176 288.4 -11.9  33936  285.80 0862.76
2015 04 09 13 20 43 .13    -154     57    -37    165    170 290.4 -12.6  33936  285.80 0862.77
2015 04 09 13 20 43 .39    -143     62    -38    156    161 293.5 -13.9  33934  285.76 0862.77
2015 04 09 13 20 43 .64    -141     57    -36    153    158 292.2 -13.4  33936  285.80 0862.77
2015 04 09 13 20 43 .89    -149     54    -28    159    162 290.0 -10.1  33934  285.76 0862.77
2015 04 09 13 20 44 .14    -141     50    -36    150    155 289.5 -13.7  33936  285.80 0862.77
2015 04 09 13 20 44 .39    -141     50    -36    150    155 289.5 -13.7  33936  285.80 0862.77
2015 04 09 13 20 44 .64    -143     52    -21    153    155 290.0  -8.0  33936  285.80 0862.77
2015 04 09 13 20 44 .89    -143     47    -25    151    154 288.2  -9.4  33936  285.80 0862.77
2015 04 09 13 20 45 .14    -143     47    -25    151    154 288.2  -9.4  33936  285.80 0862.77
2015 04 09 13 20 45 .39    -131     57    -23    143    145 293.5  -9.3  33934  285.76 0862.77
2015 04 09 13 20 45 .64    -137     48    -29    146    149 289.5 -11.3  33934  285.76 0862.77
2015 04 09 13 20 45 .89    -131     57    -23    143    145 293.5  -9.3  33934  285.76 0862.77
2015 04 09 13 20 46 .15    -129     52    -28    140    143 291.8 -11.5  33938  285.82 0862.77
2015 04 09 13 20 46 .41    -129     52    -18    140    142 291.8  -7.7  33936  285.80 0862.77
2015 04 09 13 20 46 .64    -132     52    -27    143    146 291.7 -10.9  33936  285.80 0862.77
2015 04 09 13 20 46 .90    -129     42    -27    136    139 288.2 -11.5  33938  285.82 0862.77
2015 04 09 13 20 47 .14    -137     48    -29    146    149 289.5 -11.3  33934  285.76 0862.77
2015 04 09 13 20 47 .39    -137     48    -29    146    149 289.5 -11.3  33934  285.76 0862.77
2015 04 09 13 20 47 .65    -136     45    -30    144    148 288.6 -11.9  33936  285.80 0862.77
2015 04 09 13 20 47 .90    -136     41    -19    143    145 286.8  -7.7  33936  285.80 0862.77
2015 04 09 13 20 48 .16    -132     52    -27    143    146 291.7 -10.9  33936  285.80 0862.77
2015 04 09 13 20 48 .41    -133     44    -33    141    145 288.4 -13.4  33938  285.82 0862.77
2015 04 09 13 20 48 .66    -132     42    -22    139    141 287.7  -9.3  33934  285.76 0862.77
2015 04 09 13 20 48 .91    -141     32    -25    145    148 282.8  -9.8  33936  285.80 0862.77
2015 04 09 13 20 49 .16    -139     19    -23    141    143 277.9  -9.3  33938  285.82 0862.77
2015 04 09 13 20 49 .41    -141     24    -26    144    147 279.7 -10.3  33940  285.85 0862.77
2015 04 09 13 20 49 .66    -145     29    -30    148    151 281.5 -11.5  33940  285.85 0862.77
2015 04 09 13 20 49 .91    -145     29    -30    148    151 281.5 -11.5  33940  285.85 0862.77
2015 04 09 13 20 50 .16    -147     20    -25    149    152 278.0  -9.8  33940  285.85 0862.77
2015 04 09 13 20 50 .41    -142     20    -28    144    147 278.0 -11.3  33940  285.87 0862.77
2015 04 09 13 20 50 .67    -135     10    -27    136    139 274.3 -11.3  33940  285.87 0862.77
2015 04 09 13 20 50 .91    -140     17    -24    142    145 277.0  -9.8  33942  285.90 0862.77
2015 04 09 13 20 51 .16    -134     12    -17    135    137 275.2  -7.3  33938  285.82 0862.77
2015 04 09 13 20 51 .42    -140     17    -24    142    145 277.0  -9.8  33942  285.90 0862.77
2015 04 09 13 20 51 .67    -132     12    -26    133    136 275.2 -11.3  33938  285.83 0862.77
2015 04 09 13 20 51 .92    -122      4    -10    123    124 272.1  -5.1  33958  286.15 0862.77
2015 04 09 13 20 52 .17    -121      5    -17    122    124 272.5  -8.2  33940  285.87 0862.77
2015 04 09 13 20 52 .42    -111     22    -14    114    115 281.4  -7.3  33946  285.95 0862.77
2015 04 09 13 20 52 .67    -123     28    -31    127    131 282.8 -13.9  33946  285.95 0862.77
2015 04 09 13 20 52 .92    -131     31    -22    135    137 283.7  -9.4  33950  286.03 0862.77
2015 04 09 13 20 53 .17    -129     21    -19    131    133 279.6  -8.2  33952  286.07 0862.77
2015 04 09 13 20 53 .42    -128     32    -17    132    134 284.2  -7.3  33944  285.93 0862.77
2015 04 09 13 20 53 .68    -124     21    -21    126    128 279.7  -9.8  33956  286.14 0862.77
2015 04 09 13 20 53 .92    -118      5    -32    119    124 272.5 -15.4  33966  286.30 0862.77
2015 04 09 13 20 54 .17    -112      5    -33    113    118 272.6 -16.6  33974  286.42 0862.76
2015 04 09 13 20 54 .43    -100      6     -2    101    102 273.5  -1.3  33986  286.64 0862.76
2015 04 09 13 20 54 .67    -109     35    -10    115    116 288.2  -5.2  33990  286.69 0862.76
2015 04 09 13 20 54 .94     -99     29     -6    104    105 286.4  -3.7  33960  286.19 0862.76
2015 04 09 13 20 55 .18    -125     10    -21    126    128 274.8  -9.8  33940  285.87 0862.76
2015 04 09 13 20 55 .44    -114      8    -31    115    120 274.4 -15.0  33940  285.85 0862.76
2015 04 09 13 20 55 .68    -112      0    -27    113    117 269.6 -13.4  33938  285.82 0862.76
2015 04 09 13 20 55 .93    -106      1    -28    107    111 270.8 -15.0  33940  285.87 0862.76
2015 04 09 13 20 56 .18    -101      3    -28    102    106 271.7 -15.4  33938  285.82 0862.77
2015 04 09 13 20 56 .43    -106      7    -28    107    111 274.3 -15.0  33940  285.87 0862.77
2015 04 09 13 20 56 .70     -99     20    -20    101    104 281.5 -11.5  34006  286.98 0862.77
2015 04 09 13 20 56 .93    -112     26    -41    116    124 283.3 -19.7  33972  286.41 0862.77
2015 04 09 13 20 57 .20    -101     49    -32    113    117 295.8 -20.7  33968  286.32 0862.77
2015 04 09 13 20 57 .44    -102     34    -32    108    112 288.6 -21.7  34046  287.64 0862.77
2015 04 09 13 20 57 .69    -113     40    -34    120    124 289.5 -21.2  34064  287.94 0862.77
2015 04 09 13 20 57 .94    -106     28    -24    110    113 285.1 -12.4  34066  287.98 0862.77
2015 04 09 13 20 58 .19    -105     26    -14    109    110 284.2  -7.3  34046  287.65 0862.77
2015 04 09 13 20 58 .44     -97     48      8    109    110 296.6   4.4  34036  287.49 0862.77
2015 04 09 13 20 58 .69     -81     48    -19     95     97 300.7 -11.3  33970  286.37 0862.77
2015 04 09 13 20 58 .94     -66     43    -15     79     81 303.3 -10.9  33956  286.14 0862.77
2015 04 09 13 20 59 .19     -64     40     -6     76     77 302.4  -5.2  33950  286.03 0862.77
2015 04 09 13 20 59 .45     -66     28     -9     72     73 293.5  -7.3  33974  286.42 0862.77
2015 04 09 13 20 59 .69    -117     32     -4    122    123 285.5  -2.2  33962  286.24 0862.77
2015 04 09 13 20 59 .95     -94     40    -19    103    105 293.1 -10.9  33946  285.95 0862.77
2015 04 09 13 21 00 .19     -83     39    -32     92     98 295.3 -19.6  33944  285.93 0862.77
2015 04 09 13 21 00 .45     -79     28    -23     84     88 289.5 -15.5  33946  285.95 0862.77
2015 04 09 13 21 00 .70     -88      1    -29     89     94 271.3 -18.1  33942  285.90 0862.76
2015 04 09 13 21 00 .95     -89    -13    -21     90     93 261.6 -13.4  33950  286.03 0862.76
2015 04 09 13 21 01 .20     -95      1    -31     96    102 270.8 -18.1  33944  285.92 0862.76
2015 04 09 13 21 01 .45    -100      4    -36    101    107 272.6 -23.8  33946  285.95 0862.76
2015 04 09 13 21 01 .70     -92      4    -34     93     99 273.0 -24.8  33950  286.02 0862.76
2015 04 09 13 21 01 .96     -89      8    -32     90     95 275.7 -23.8  33948  286.00 0862.76
2015 04 09 13 21 02 .21     -94      0    -36     95    101 270.0 -25.9  33948  286.00 0862.76
2015 04 09 13 21 02 .46     -92     -1    -41     93    101 269.2 -29.5  33952  286.05 0862.76
2015 04 09 13 21 02 .71     -72     -1    -37     73     81 269.2 -33.1  33952  286.05 0862.76
2015 04 09 13 21 02 .96     -77     -7    -41     78     88 264.8 -34.2  33952  286.05 0862.76
2015 04 09 13 21 03 .21     -72    -10    -37     73     81 262.1 -33.1  33952  286.05 0862.76
2015 04 09 13 21 03 .46     -63    -18    -41     66     77 254.1 -39.9  33948  286.00 0862.76
2015 04 09 13 21 03 .71     -62    -16    -28     65     70 254.9 -29.5  33952  286.05 0862.76
2015 04 09 13 21 03 .96     -73    -17    -23     76     79 256.7 -21.7  33954  286.10 0862.76
2015 04 09 13 21 04 .21     -67     -5    -11     68     69 265.7  -9.3  33960  286.19 0862.76
2015 04 09 13 21 04 .46     -55     -8    -11     56     58 261.2 -11.5  33962  286.22 0862.76
2015 04 09 13 21 04 .71     -47    -12    -13     49     51 254.9 -15.4  33958  286.17 0862.76
2015 04 09 13 21 04 .96     -48    -26    -16     55     57 241.1 -21.7  33950  286.03 0862.76
2015 04 09 13 21 05 .21     -54    -18    -18     57     59 251.4 -22.8  33948  286.00 0862.76
2015 04 09 13 21 05 .47     -50    -16    -21     53     57 251.6 -26.4  33950  286.03 0862.76
2015 04 09 13 21 05 .72     -45    -15    -23     48     53 250.9 -31.6  33952  286.05 0862.76
2015 04 09 13 21 05 .97     -50    -16    -21     53     57 251.6 -26.4  33954  286.08 0862.76
2015 04 09 13 21 06 .22     -40     -7    -12     41     42 259.4 -20.7  33960  286.19 0862.77
2015 04 09 13 21 06 .47     -37    -17     -1     41     42 244.7  -2.2  33962  286.22 0862.77
2015 04 09 13 21 06 .72     -28    -18    -12     34     36 237.5 -23.3  33954  286.08 0862.77
2015 04 09 13 21 06 .97     -25     -8     -6     27     28 251.4 -13.4  33954  286.10 0862.77
2015 04 09 13 21 07 .22     -40      5    -12     41     42 277.9 -20.7  33966  286.29 0862.77
2015 04 09 13 21 07 .47     -24     12     -1     28     29 297.1  -2.2  33982  286.57 0862.77
2015 04 09 13 21 07 .72     -36     16     -4     40     41 294.4  -6.2  33968  286.34 0862.77
2015 04 09 13 21 07 .97     -32     29     -3     44     45 312.2  -4.1  33980  286.52 0862.77
2015 04 09 13 21 08 .22     -25     26      1     37     38 316.6   2.9  33978  286.51 0862.77
2015 04 09 13 21 08 .47     -24     24     -9     35     37 314.9 -15.5  33956  286.14 0862.77
2015 04 09 13 21 08 .74     -33     29    -10     44     46 311.3 -13.4  33956  286.14 0862.76
2015 04 09 13 21 08 .99     -29     45    -12     54     56 327.4 -12.4  33964  286.25 0862.76
2015 04 09 13 21 09 .24     -45     37      2     59     60 309.6   2.8  33968  286.32 0862.76
2015 04 09 13 21 09 .49     -45     42      5     62     63 313.2   4.9  33968  286.32 0862.76
2015 04 09 13 21 09 .74     -43     35    -11     56     58 309.6 -11.3  33960  286.20 0862.76
2015 04 09 13 21 09 .99     -56     28    -12     63     65 297.1 -11.3  33962  286.22 0862.76
2015 04 09 13 21 10 .24     -55     50    -27     75     79 312.2 -24.8  33948  286.00 0862.76
2015 04 09 13 21 10 .49     -58     41    -32     72     78 305.1 -29.5  33946  285.95 0862.76
2015 04 09 13 21 10 .74     -72     40    -32     83     88 299.3 -25.9  33946  285.95 0862.76
2015 04 09 13 21 10 .99     -66     36    -25     76     80 298.9 -23.3  33954  286.08 0862.76
2015 04 09 13 21 11 .24     -70     34    -30     79     84 296.2 -25.4  33950  286.03 0862.76
2015 04 09 13 21 11 .49     -70     33    -40     78     87 295.2 -33.7  33964  286.25 0862.75
2015 04 09 13 21 11 .74     -52     35    -45     64     78 304.2 -43.0  33962  286.22 0862.75
2015 04 09 13 21 11 .99     -55     39    -47     68     82 305.9 -42.4  33956  286.14 0862.75
2015 04 09 13 21 12 .24     -58     28    -43     65     77 296.2 -40.0  33956  286.14 0862.75
2015 04 09 13 21 12 .50     -62     24    -50     67     83 291.7 -45.1  33958  286.17 0862.75
2015 04 09 13 21 12 .74     -21     37    -55     43     69 330.1 -61.9  33980  286.52 0862.75
2015 04 09 13 21 12 .99      -9     41    -43     43     60 347.5 -54.5  33982  286.56 0862.75
2015 04 09 13 21 13 .25      15     80    -58     82    100  10.7 -43.5  33970  286.37 0862.75
2015 04 09 13 21 13 .50      -1     48    -69     49     84 358.2 -65.9  33976  286.46 0862.75
2015 04 09 13 21 13 .75       0     39    -51     40     64 359.1 -62.9  33978  286.51 0862.75
2015 04 09 13 21 14 .00      -5     25    -39     26     46 348.4 -68.0  33982  286.56 0862.75
2015 04 09 13 21 14 .25       0     30    -32     31     44 359.1 -53.5  33996  286.79 0862.75
2015 04 09 13 21 14 .50       7     24    -25     26     36  16.9 -56.4  33994  286.78 0862.75
2015 04 09 13 21 14 .75       2     35    -29     36     46   4.4 -47.1  33998  286.83 0862.75
2015 04 09 13 21 15 .00       0     33    -18     34     38   0.9 -33.7  33996  286.79 0862.75
2015 04 09 13 21 15 .25       2     34     -4     35     36   4.4  -7.2  33984  286.61 0862.76
2015 04 09 13 21 15 .50      -1     30     -1     31     32 357.3  -2.2  33988  286.66 0862.76
2015 04 09 13 21 15 .76      -2     34      5     35     36 355.5   9.0  33986  286.64 0862.76
2015 04 09 13 21 16 .01       0     34     12     35     38   0.9  18.9  33984  286.61 0862.76
2015 04 09 13 21 16 .26      -1     48      9     49     50 358.2  11.0  33984  286.61 0862.76
2015 04 09 13 21 16 .51      -4     52     27     53     59 355.5  29.3  33990  286.71 0862.76
2015 04 09 13 21 16 .76       8     69     27     70     75   7.1  21.0  33984  286.61 0862.76
2015 04 09 13 21 17 .02      61     79     39    100    107  37.8  22.0  33986  286.64 0862.76
2015 04 09 13 21 17 .26      35     67     60     76     96  28.1  42.7  34002  286.89 0862.76
2015 04 09 13 21 17 .52     -14     58     78     60     98 345.7  57.9  34002  286.91 0862.76
2015 04 09 13 21 17 .77     -32     49     67     59     89 326.6  53.7  34034  287.45 0862.76
2015 04 09 13 21 18 .01     -41     45     68     61     91 317.7  53.7  34032  287.40 0862.75
2015 04 09 13 21 18 .27      -6     29     58     30     65 348.4  69.8  34054  287.77 0862.75
2015 04 09 13 21 18 .52     -20     24     54     32     62 320.4  66.8  34054  287.77 0862.75
2015 04 09 13 21 18 .77     -24     34     50     42     65 324.8  56.3  34048  287.67 0862.75
2015 04 09 13 21 19 .02     -21     29     58     37     68 323.9  64.7  34066  287.99 0862.75
2015 04 09 13 21 19 .27      -8     25     56     27     62 341.7  72.9  34078  288.18 0862.75
2015 04 09 13 21 19 .52      -9     50     56     51     75 349.3  52.2  34050  287.70 0862.75
2015 04 09 13 21 19 .77      -6     48     66     49     82 352.0  59.4  34084  288.28 0862.76
2015 04 09 13 21 20 .02     -14     42     59     45     74 340.8  58.5  34056  287.82 0862.76
2015 04 09 13 21 20 .27     -15     49     45     52     68 342.2  44.8  34008  287.00 0862.76
2015 04 09 13 21 20 .53     -27     43     53     52     74 327.5  49.1  34024  287.27 0862.76
2015 04 09 13 21 20 .78     -38     74     37     84     91 332.4  25.1  34102  288.58 0862.76
2015 04 09 13 21 21 .03     -56     63      9     85     86 318.1   6.5  34132  289.09 0862.76
2015 04 09 13 21 21 .28     -22     77     32     81     87 344.0  22.0  34128  289.02 0862.76
2015 04 09 13 21 21 .52    -107     68    -16    127    129 302.4  -7.3  33988  286.66 0862.76
2015 04 09 13 21 21 .78     -97     96     -6    137    138 314.9  -2.6  34014  287.11 0862.76
2015 04 09 13 21 22 .03     -49     86     46    100    110 330.1  27.1  34036  287.47 0862.76
2015 04 09 13 21 22 .28     -31     64     57     72     91 333.7  42.7  34070  288.06 0862.76
2015 04 09 13 21 22 .53     -61     96    -35    114    119 327.4 -21.8  34048  287.69 0862.76
2015 04 09 13 21 22 .79    -129     76    -30    150    153 300.7 -11.3  33970  286.35 0862.76
2015 04 09 13 21 23 .04    -104     82     -2    133    134 308.2  -1.2  33970  286.37 0862.76
2015 04 09 13 21 23 .29    -121     93    -11    153    154 307.7  -4.1  33964  286.25 0862.76
2015 04 09 13 21 23 .54    -131     85    -31    157    161 302.9 -11.1  33958  286.17 0862.76
2015 04 09 13 21 23 .79    -138    105    -60    174    184 307.5 -23.8  33948  285.98 0862.76
2015 04 09 13 21 24 .04    -156     72    -58    172    181 294.8 -23.3  33946  285.95 0862.76
2015 04 09 13 21 24 .29    -153     92    -83    179    197 301.1 -31.0  33954  286.08 0862.76
2015 04 09 13 21 24 .54    -132     67    -53    149    158 297.1 -24.8  33948  286.00 0862.76
2015 04 09 13 21 24 .79    -166     78    -34    184    188 295.3 -10.5  33950  286.03 0862.76
2015 04 09 13 21 25 .04    -172     86    -39    193    198 296.6 -11.6  33950  286.03 0862.76
2015 04 09 13 21 25 .29    -141     69    -54    158    168 296.2 -19.1  33940  285.87 0862.76
2015 04 09 13 21 25 .54    -146     53    -60    156    167 289.9 -26.4  33948  285.98 0862.76
2015 04 09 13 21 25 .79    -142     37    -43    147    153 284.6 -21.7  33946  285.97 0862.76
2015 04 09 13 21 26 .04    -132     51    -48    142    149 291.3 -23.3  33944  285.93 0862.76
2015 04 09 13 21 26 .29    -136     50    -45    146    152 290.4 -22.3  33942  285.90 0862.76
2015 04 09 13 21 26 .55    -136     45    -49    144    153 288.4 -18.7  33942  285.88 0862.76
2015 04 09 13 21 26 .79    -139     45    -41    147    152 288.2 -20.2  33940  285.85 0862.76
2015 04 09 13 21 27 .04    -129     40    -39    136    141 287.3 -20.2  33938  285.82 0862.76
2015 04 09 13 21 27 .30    -122     41    -41    129    136 288.6 -17.6  33936  285.80 0862.76
2015 04 09 13 21 27 .55    -119     56    -36    132    137 295.2 -15.4  33940  285.85 0862.76
2015 04 09 13 21 27 .80    -108     51    -38    120    126 295.2 -17.6  33940  285.87 0862.76
2015 04 09 13 21 28 .05    -106     47    -34    116    122 294.0 -16.6  33940  285.85 0862.76
2015 04 09 13 21 28 .30    -113     34    -42    119    127 286.9 -19.7  33938  285.82 0862.76
2015 04 09 13 21 28 .55    -113     34    -42    119    127 286.9 -19.7  33938  285.82 0862.76
2015 04 09 13 21 28 .80    -111     32    -41    116    123 286.4 -24.4  33940  285.85 0862.76
2015 04 09 13 21 29 .05    -117     31    -39    122    128 285.1 -23.3  33942  285.88 0862.76
2015 04 09 13 21 29 .30    -113     44    -36    122    127 291.3 -21.7  33942  285.90 0862.76
2015 04 09 13 21 29 .56    -105     57    -49    120    129 298.4 -27.4  33946  285.95 0862.76
2015 04 09 13 21 29 .81     -92     73    -55    118    130 308.6 -31.5  33944  285.93 0862.76
2015 04 09 13 21 30 .06     -88     64    -51    109    120 306.0 -31.5  33938  285.82 0862.76
2015 04 09 13 21 30 .31     -81     44    -45     93    103 298.9 -31.7  33936  285.80 0862.76
2015 04 09 13 21 30 .56     -87     53    -34    103    108 301.5 -23.8  33938  285.82 0862.76
2015 04 09 13 21 30 .82     -92     59    -38    110    116 302.5 -23.3  33938  285.82 0862.76
2015 04 09 13 21 31 .07     -97     51    -36    110    115 298.0 -23.8  33942  285.90 0862.76
2015 04 09 13 21 31 .32     -98     54    -40    113    120 298.9 -19.6  33946  285.95 0862.76
2015 04 09 13 21 31 .56     -92     49    -36    105    111 298.4 -23.3  33948  286.00 0862.76
2015 04 09 13 21 31 .82     -92     41    -36    101    107 294.0 -23.8  33946  285.95 0862.76
2015 04 09 13 21 32 .07     -85     37    -29     93     97 293.5 -23.3  33948  285.98 0862.76
2015 04 09 13 21 32 .32     -82     22    -25     85     88 285.1 -21.7  33944  285.93 0862.76
2015 04 09 13 21 32 .57     -70      8    -34     71     78 277.0 -31.6  33944  285.93 0862.76
2015 04 09 13 21 32 .82     -73     -1    -23     74     77 269.1 -23.8  33942  285.90 0862.76
2015 04 09 13 21 33 .07     -71      8    -22     72     76 277.0 -17.6  33946  285.95 0862.76
2015 04 09 13 21 33 .32     -63     12    -41     65     76 281.5 -39.9  33942  285.90 0862.76
2015 04 09 13 21 33 .57     -54     20    -45     58     73 290.8 -47.1  33948  286.00 0862.76
2015 04 09 13 21 33 .82     -60     13    -62     62     87 282.4 -54.5  33952  286.05 0862.76
2015 04 09 13 21 34 .07     -54      5    -45     55     71 276.1 -48.1  33948  286.00 0862.76
2015 04 09 13 21 34 .32     -53     17    -42     56     70 288.6 -45.1  33950  286.02 0862.77
2015 04 09 13 21 34 .57     -41      9    -34     43     54 282.4 -47.1  33950  286.03 0862.77
2015 04 09 13 21 34 .83     -34     13    -27     37     45 291.7 -44.1  33952  286.05 0862.77
2015 04 09 13 21 35 .08     -24     16    -36     30     46 304.2 -59.8  33968  286.32 0862.77
2015 04 09 13 21 35 .32     -27     17    -33     33     46 302.4 -54.5  33976  286.46 0862.77
2015 04 09 13 21 35 .58     -10     25    -30     27     40 338.2 -57.7  33978  286.51 0862.77
2015 04 09 13 21 35 .82      -9     25    -30     27     40 340.0 -57.7  33972  286.39 0862.77
2015 04 09 13 21 36 .07      -4     33    -32     34     46 352.0 -54.4  33968  286.32 0862.76
2015 04 09 13 21 36 .33       0     33    -32     34     46   0.9 -54.4  33958  286.15 0862.76
2015 04 09 13 21 36 .59     -13     66     -8     68     69 348.4  -7.3  33950  286.03 0862.76
2015 04 09 13 21 36 .84     -19     56     -7     60     61 341.3  -7.3  33948  286.00 0862.76
2015 04 09 13 21 37 .09      -4     56    -22     57     61 355.5 -26.4  33952  286.05 0862.76
2015 04 09 13 21 37 .34     -15     45    -16     48     50 340.8 -23.6  33950  286.03 0862.76
2015 04 09 13 21 37 .59     -26     42    -14     50     51 327.5 -20.7  33948  286.00 0862.76
2015 04 09 13 21 37 .84     -60     33    -38     69     78 298.8 -35.2  33950  286.03 0862.76
2015 04 09 13 21 38 .09     -72     20    -43     75     86 285.9 -37.3  33940  285.87 0862.76
2015 04 09 13 21 38 .34     -71     16    -54     73     90 283.3 -44.5  33956  286.12 0862.76
2015 04 09 13 21 38 .59     -68     13    -52     70     87 281.4 -45.1  33956  286.14 0862.76
2015 04 09 13 21 38 .84     -61      8    -52     62     80 278.0 -49.2  33956  286.14 0862.76
2015 04 09 13 21 39 .09     -59     -1    -57     60     82 268.3 -53.4  33966  286.30 0862.76
2015 04 09 13 21 39 .34     -62     20    -67     66     94 288.4 -54.1  33952  286.05 0862.76
2015 04 09 13 21 39 .59     -54     24    -67     60     89 294.4 -58.1  33954  286.10 0862.76
2015 04 09 13 21 39 .85     -65     16    -63     68     92 284.2 -52.3  33952  286.05 0862.76
2015 04 09 13 21 40 .10     -50     16    -57     53     77 288.2 -56.5  33954  286.08 0862.76
2015 04 09 13 21 40 .35     -43     21    -63     48     79 296.2 -63.4  33968  286.32 0862.76
2015 04 09 13 21 40 .60     -38     21    -65     44     78 298.9 -68.0  33976  286.46 0862.76
2015 04 09 13 21 40 .85     -50     32    -69     60     91 302.5 -59.2  33976  286.46 0862.76
2015 04 09 13 21 41 .10     -59     14    -69     61     92 283.3 -58.1  33972  286.41 0862.76
2015 04 09 13 21 41 .35     -51     17    -56     54     77 288.4 -53.5  33972  286.41 0862.76
2015 04 09 13 21 41 .60     -58     25    -52     64     82 293.5 -48.1  33970  286.35 0862.76
2015 04 09 13 21 41 .85     -52     41    -49     67     83 307.8 -44.5  33970  286.35 0862.76
2015 04 09 13 21 42 .10     -49     46    -55     68     87 313.1 -47.7  33964  286.27 0862.76
2015 04 09 13 21 42 .35     -47     32    -58     58     82 304.2 -54.5  33970  286.37 0862.76
2015 04 09 13 21 42 .60     -49     46    -55     68     87 313.1 -47.7  33964  286.27 0862.76
2015 04 09 13 21 42 .85     -44     53    -49     69     84 320.4 -43.0  33958  286.17 0862.76
2015 04 09 13 21 43 .11     -34     62    -54     71     89 331.0 -45.6  33962  286.22 0862.76
2015 04 09 13 21 43 .36     -21     67    -34     71     78 342.2 -31.6  33956  286.14 0862.76
2015 04 09 13 21 43 .61     -31     54    -30     63     69 330.1 -31.6  33956  286.14 0862.76
2015 04 09 13 21 43 .86     -17     64    -24     67     72 344.8 -19.6  33954  286.10 0862.76
2015 04 09 13 21 44 .12     -19     56    -32     60     68 341.3 -35.7  33954  286.10 0862.76
2015 04 09 13 21 44 .36     -24     41    -30     48     56 329.3 -39.9  33960  286.19 0862.75
2015 04 09 13 21 44 .61     -26     49    -22     56     60 331.9 -27.4  33954  286.10 0862.75
2015 04 09 13 21 44 .87     -16     46    -13     49     51 340.0 -15.4  33952  286.05 0862.75
2015 04 09 13 21 45 .12     -22     52    -21     57     60 337.3 -25.4  33956  286.14 0862.75
2015 04 09 13 21 45 .37     -15     53    -31     56     64 344.0 -35.8  33982  286.57 0862.75
2015 04 09 13 21 45 .62      -8     53    -34     54     63 351.1 -39.9  33992  286.73 0862.75
2015 04 09 13 21 45 .87      -3     74    -30     75     80 357.3 -27.4  33984  286.61 0862.75
2015 04 09 13 21 46 .12      -9     76    -36     77     85 352.9 -31.0  33980  286.54 0862.75
2015 04 09 13 21 46 .37       3     70    -37     71     80   2.7 -34.2  33976  286.47 0862.75
2015 04 09 13 21 46 .62       6     82    -34     83     89   4.4 -27.4  33966  286.29 0862.75
2015 04 09 13 21 46 .87       6     83    -34     84     90   4.4 -28.0  33976  286.46 0862.75
2015 04 09 13 21 47 .12     -11     88    -25     89     92 352.4 -20.7  33970  286.35 0862.75
2015 04 09 13 21 47 .37     -26     93    -25     97    101 344.4 -14.5  33968  286.32 0862.75
2015 04 09 13 21 47 .62     -27     65    -20     71     73 337.3 -20.7  33970  286.35 0862.75
2015 04 09 13 21 47 .88     -20     61    -18     65     68 341.7 -15.5  33970  286.37 0862.75
2015 04 09 13 21 48 .13      -5     76    -16     77     79 355.6 -11.9  33970  286.35 0862.75
2015 04 09 13 21 48 .38      -6     82    -60     83    102 355.5 -44.1  33976  286.46 0862.75
2015 04 09 13 21 48 .62      -9     67    -63     68     92 352.0 -52.3  33958  286.17 0862.75
2015 04 09 13 21 48 .88      -9     29    -60     31     67 341.3 -75.2  33968  286.34 0862.75
2015 04 09 13 21 49 .13     -15     32    -48     36     60 334.7 -63.8  33972  286.41 0862.75
2015 04 09 13 21 49 .38     -12     28    -52     31     60 336.4 -71.2  33966  286.29 0862.75
2015 04 09 13 21 49 .63       4     18    -42     19     46  15.1 -79.4  33974  286.44 0862.75
2015 04 09 13 21 49 .88      10     30    -37     32     48  18.7 -57.7  33978  286.49 0862.75
2015 04 09 13 21 50 .13       7      8    -39     11     40  39.6 -88.3  33978  286.51 0862.75
2015 04 09 13 21 50 .38       2     17    -37     18     41   8.0 -77.3  33976  286.47 0862.75
2015 04 09 13 21 50 .64       4     12    -34     13     36  18.7 -85.6  33976  286.46 0862.76
2015 04 09 13 21 50 .89      -1     13    -38     14     40 353.8 -83.6  33978  286.51 0862.76
2015 04 09 13 21 51 .14      11     25    -34     28     44  23.6 -59.8  33972  286.41 0862.76
2015 04 09 13 21 51 .39      11     25    -34     28     44  23.6 -59.8  33972  286.41 0862.76
2015 04 09 13 21 51 .64       9     29    -36     31     47  18.7 -58.7  33970  286.37 0862.76
2015 04 09 13 21 51 .89      12     20    -38     24     44  32.5 -69.1  33968  286.34 0862.76
2015 04 09 13 21 52 .15      12     24    -34     27     43  27.2 -61.9  33970  286.35 0862.76
2015 04 09 13 21 52 .39       9     29    -36     31     47  18.7 -58.7  33968  286.32 0862.76
2015 04 09 13 21 52 .64      15     33    -43     37     56  25.5 -58.7  33962  286.24 0862.76
2015 04 09 13 21 52 .89      30     34    -36     46     58  42.3 -48.1  33968  286.32 0862.76
2015 04 09 13 21 53 .14      21     33    -32     40     51  32.5 -48.1  33968  286.32 0862.76
2015 04 09 13 21 53 .40      26     42    -28     50     57  32.5 -36.8  33958  286.17 0862.76
2015 04 09 13 21 53 .65      26     34    -34     43     54  37.8 -47.1  33956  286.14 0862.76
2015 04 09 13 21 53 .90      22     34    -25     41     48  32.5 -39.9  33960  286.19 0862.76
2015 04 09 13 21 54 .15      19     30    -34     36     49  32.5 -54.4  33960  286.19 0862.76
2015 04 09 13 21 54 .40      19     30    -34     36     49  32.5 -54.4  33956  286.14 0862.76
2015 04 09 13 21 54 .65      19     37    -41     42     58  28.1 -56.4  33958  286.17 0862.76
2015 04 09 13 21 54 .90      15     33    -50     37     62  25.5 -64.9  33964  286.25 0862.76
2015 04 09 13 21 55 .15      20     32    -45     39     59  32.5 -58.7  33958  286.15 0862.76
2015 04 09 13 21 55 .40      19     21    -41     29     50  41.4 -65.9  33958  286.15 0862.76
2015 04 09 13 21 55 .65      20     17    -38     27     46  48.7 -65.9  33962  286.24 0862.76
2015 04 09 13 21 55 .90      30     26    -43     40     58  48.7 -55.6  33962  286.24 0862.76
2015 04 09 13 21 56 .16      26     24    -41     36     54  46.7 -57.7  33960  286.20 0862.76
2015 04 09 13 21 56 .40      24     16    -41     30     50  55.8 -64.9  33960  286.20 0862.76
2015 04 09 13 21 56 .65      25     17    -41     31     51  55.8 -62.9  33956  286.12 0862.76
2015 04 09 13 21 56 .90      25      9    -41     27     49  68.3 -68.0  33958  286.17 0862.76
2015 04 09 13 21 57 .15      34      2    -39     35     52  85.7 -57.7  33956  286.14 0862.76
2015 04 09 13 21 57 .42      34     -4    -39     35     52  97.9 -57.7  33950  286.02 0862.76
2015 04 09 13 21 57 .67      32     -7    -41     33     52 103.3 -60.8  33958  286.15 0862.76
2015 04 09 13 21 57 .91      32     -9    -34     34     48 106.8 -54.5  33950  286.02 0862.76
2015 04 09 13 21 58 .17      41    -20    -34     46     57 116.2 -45.1  33944  285.93 0862.76
2015 04 09 13 21 58 .42      39    -26    -29     48     56 124.2 -39.9  33954  286.08 0862.76
2015 04 09 13 21 58 .67      39    -26    -24     48     53 124.2 -31.7  33952  286.05 0862.76
2015 04 09 13 21 58 .92      35    -28    -25     46     52 128.6 -34.7  33950  286.03 0862.76
2015 04 09 13 21 59 .17      43    -26    -25     51     56 121.5 -31.7  33954  286.08 0862.76
2015 04 09 13 21 59 .42      51    -17    -30     54     61 108.4 -35.8  33962  286.24 0862.76
2015 04 09 13 21 59 .67      50    -21    -25     55     60 112.6 -31.5  33962  286.24 0862.76
2015 04 09 13 21 59 .92      61    -12    -19     63     65 101.5 -22.8  33964  286.27 0862.76
2015 04 09 13 22 00 .17      69     -7    -25     70     74  96.1 -23.3  33956  286.14 0862.76
2015 04 09 13 22 00 .42      69    -16    -25     71     75 103.3 -23.3  33954  286.08 0862.76
2015 04 09 13 22 00 .67      73     -8    -21     74     76  97.0 -20.7  33954  286.08 0862.76
2015 04 09 13 22 00 .92      72     -4    -14     73     75  93.5 -11.3  33956  286.12 0862.76
2015 04 09 13 22 01 .17      77      4     -9     78     79  86.5  -7.2  33960  286.20 0862.76
2015 04 09 13 22 01 .42      88     12    -28     89     94  81.6 -17.6  33944  285.93 0862.76
2015 04 09 13 22 01 .67      92      6    -30     93     97  86.1 -23.8  33944  285.92 0862.76
2015 04 09 13 22 01 .92      96     12    -34     97    104  82.5 -19.6  33944  285.93 0862.76
2015 04 09 13 22 02 .18      93      2    -34     94     99  88.7 -24.8  33946  285.97 0862.76
2015 04 09 13 22 02 .43      87      6    -27     88     93  85.7 -17.0  33948  285.98 0862.76
2015 04 09 13 22 02 .67      94    -13    -28     95    100  97.9 -16.6  33950  286.03 0862.76
2015 04 09 13 22 02 .93      97      0    -17     98    100  90.0 -10.3  33954  286.08 0862.76
2015 04 09 13 22 03 .18      98     -6    -30     99    103  93.5 -21.7  33950  286.03 0862.76
2015 04 09 13 22 03 .43      95     21    -26     98    102  77.2 -15.0  33952  286.07 0862.75
2015 04 09 13 22 03 .68     107     35    -19    113    115  71.8  -9.8  33956  286.12 0862.75
2015 04 09 13 22 03 .93     124     13     -4    125    126  83.8  -2.2  33950  286.03 0862.75
2015 04 09 13 22 04 .18     111     35    -23    117    120  72.3 -11.3  33944  285.92 0862.75
2015 04 09 13 22 04 .44     110     29    -34    114    120  74.9 -16.6  33938  285.83 0862.75
2015 04 09 13 22 04 .69     104     27    -24    108    111  75.4 -12.9  33936  285.80 0862.75
2015 04 09 13 22 04 .95     109     25    -34    112    117  76.7 -21.8  33948  285.98 0862.75
2015 04 09 13 22 05 .19      91     38    -12     99    100  67.4  -7.3  33974  286.42 0862.75
2015 04 09 13 22 05 .44     108     40      8    116    117  69.6   4.4  33974  286.44 0862.75
2015 04 09 13 22 05 .70     116     42    -26    124    127  70.1 -11.9  33948  286.00 0862.75
2015 04 09 13 22 05 .95     105     40    -29    113    117  69.2 -14.5  33950  286.03 0862.75
2015 04 09 13 22 06 .20      81     49    -29     95    100  58.9 -17.0  33962  286.22 0862.75
2015 04 09 13 22 06 .45     101     69     -4    123    124  55.8  -2.2  34006  286.96 0862.75
2015 04 09 13 22 06 .70      97     60    -12    115    116  58.0  -6.2  33974  286.44 0862.75
2015 04 09 13 22 06 .95      91     41      0    101    102  65.6   0.2  33984  286.61 0862.75
2015 04 09 13 22 07 .20      90     52    -22    105    108  59.8 -11.9  33976  286.46 0862.75
2015 04 09 13 22 07 .45      77     39    -28     87     92  62.9 -18.1  33960  286.19 0862.75
2015 04 09 13 22 07 .70      50     36    -12     62     64  54.0 -11.5  33980  286.54 0862.75
2015 04 09 13 22 07 .95      74     33    -16     82     84  66.0 -11.3  33990  286.71 0862.75
2015 04 09 13 22 08 .20      92     30      4     97     98  71.8   2.9  33972  286.41 0862.75
2015 04 09 13 22 08 .45     104      9     48    105    115  84.8  26.6  33970  286.37 0862.75
2015 04 09 13 22 08 .70      94     -3     44     95    104  92.1  26.6  33982  286.56 0862.75
2015 04 09 13 22 08 .95      84      5     40     85     93  86.1  27.1  33970  286.35 0862.75
2015 04 09 13 22 09 .21      86     13     32     88     93  81.2  20.0  33990  286.71 0862.75
2015 04 09 13 22 09 .46     131     19     19    133    135  81.6   8.5  34000  286.86 0862.75
2015 04 09 13 22 09 .70     108     12     25    109    112  83.4  13.2  34004  286.93 0862.74
2015 04 09 13 22 09 .95      85      9      5     86     87  83.4   3.8  33984  286.61 0862.74
2015 04 09 13 22 10 .21      67      3    -11     68     69  87.4  -9.3  33966  286.30 0862.74
2015 04 09 13 22 10 .46      81     11     45     82     93  82.1  30.8  33994  286.78 0862.74
2015 04 09 13 22 10 .71     110    -23     67    113    131 101.9  33.5  33994  286.78 0862.74
2015 04 09 13 22 10 .96      88    -31     44     94    103 109.5  27.1  33992  286.73 0862.74
2015 04 09 13 22 11 .21      96    -23     41     99    107 103.7  23.1  34006  286.98 0862.74
2015 04 09 13 22 11 .46      93     -4     39     94    101  92.6  23.1  33998  286.84 0862.74
2015 04 09 13 22 11 .71      84     -3     50     85     98  92.6  32.9  33992  286.73 0862.74
2015 04 09 13 22 11 .97      77    -26     43     82     92 108.6  29.3  33984  286.59 0862.74
2015 04 09 13 22 12 .22      72    -27     49     78     92 110.8  35.5  34014  287.10 0862.74
2015 04 09 13 22 12 .47      87    -15     39     89     97 100.1  25.1  34014  287.11 0862.74
2015 04 09 13 22 12 .72      93    -25     56     97    112 105.1  32.4  34042  287.59 0862.74
2015 04 09 13 22 12 .97      94    -30     63     99    117 108.2  35.5  34026  287.30 0862.74
2015 04 09 13 22 13 .22     106    -33     69    112    131 107.3  35.0  34016  287.13 0862.74
2015 04 09 13 22 13 .47      88    -36     63     96    114 112.6  35.6  34010  287.05 0862.74
2015 04 09 13 22 13 .72      84    -37     51     93    106 114.0  31.4  33968  286.32 0862.74
2015 04 09 13 22 13 .98      85    -37     45     93    103 113.5  27.3  33972  286.41 0862.74
2015 04 09 13 22 14 .22      76    -37     49     85     98 116.2  32.9  33978  286.51 0862.74
2015 04 09 13 22 14 .47      74    -55     49     93    105 126.4  30.3  33976  286.46 0862.74
2015 04 09 13 22 14 .73      63    -53     47     83     95 130.4  32.4  33970  286.37 0862.74
2015 04 09 13 22 14 .98      48    -45     46     66     80 133.2  38.6  33978  286.49 0862.74
2015 04 09 13 22 15 .23      50    -41     42     66     78 129.5  35.5  33972  286.39 0862.74
2015 04 09 13 22 15 .48      52    -55     42     76     86 136.8  31.9  33978  286.49 0862.74
2015 04 09 13 22 15 .73      53    -53     51     76     91 135.0  37.0  33978  286.49 0862.74
2015 04 09 13 22 15 .98      50    -69     40     86     94 144.4  27.1  33966  286.29 0862.74
2015 04 09 13 22 16 .23      34    -72     38     80     88 154.7  27.2  33954  286.10 0862.74
2015 04 09 13 22 16 .48      46    -81     44     94    103 150.1  27.1  33962  286.24 0862.74
2015 04 09 13 22 16 .73      49    -78     47     93    104 147.5  29.3  33978  286.49 0862.74
2015 04 09 13 22 16 .99      47    -57     52     75     91 140.4  38.0  33992  286.74 0862.74
2015 04 09 13 22 17 .23      63    -44     58     77     96 125.1  40.7  33998  286.83 0862.74
2015 04 09 13 22 17 .48      54    -69     38     88     95 142.2  25.1  33974  286.42 0862.74
2015 04 09 13 22 17 .73      42    -73     33     85     91 150.1  22.0  33970  286.37 0862.74
2015 04 09 13 22 17 .98      15    -77     36     79     86 168.5  25.7  33966  286.30 0862.74
2015 04 09 13 22 18 .25      12    -89     47     90    101 172.0  29.8  33974  286.42 0862.74
2015 04 09 13 22 18 .50      31    -74     52     81     96 157.3  35.6  34018  287.16 0862.74
2015 04 09 13 22 18 .75      23    -82     42     86     95 164.0  27.8  34018  287.18 0862.74
2015 04 09 13 22 19 .00      31    -65     38     73     82 154.5  29.3  33976  286.47 0862.74
2015 04 09 13 22 19 .24       0    -84     57     85    102 180.0  37.0  34048  287.67 0862.74
2015 04 09 13 22 19 .50     -33    -60     40     69     79 209.0  32.9  34050  287.72 0862.74
2015 04 09 13 22 19 .76     -74    -72     23    104    107 226.0  12.6  34072  288.08 0862.74
2015 04 09 13 22 20 .00     -74   -102     37    127    133 216.1  16.3  34074  288.13 0862.74
2015 04 09 13 22 20 .25     -55   -115     54    128    138 205.5  24.1  34074  288.11 0862.74
2015 04 09 13 22 20 .50     -91   -103     59    138    150 221.4  24.6  34080  288.23 0862.74
2015 04 09 13 22 20 .75     -77   -106     65    132    147 216.1  27.3  34072  288.08 0862.74
2015 04 09 13 22 21 .00     -48   -102     67    113    131 205.3  33.5  34076  288.16 0862.74
2015 04 09 13 22 21 .25     -69   -106     60    127    140 213.0  27.1  33984  286.59 0862.74
2015 04 09 13 22 21 .51     -52   -120     49    131    139 203.6  21.0  34036  287.47 0862.74
2015 04 09 13 22 21 .75     -60   -109     54    125    136 209.0  25.1  34016  287.15 0862.74
2015 04 09 13 22 22 .00     -60   -109     47    125    133 209.0  21.0  33976  286.47 0862.74
2015 04 09 13 22 22 .25     -75    -97     56    123    135 217.8  26.2  34008  287.01 0862.74
2015 04 09 13 22 22 .51     -74   -130     56    150    160 209.9  21.3  33996  286.79 0862.74
2015 04 09 13 22 22 .75     -67   -134     75    151    168 206.7  28.2  33998  286.83 0862.74
2015 04 09 13 22 23 .00    -105   -147     65    181    192 215.6  20.2  34000  286.86 0862.74
2015 04 09 13 22 23 .26     -73   -114     76    136    155 212.6  31.4  34064  287.96 0862.74
2015 04 09 13 22 23 .50     -84   -108     71    137    154 217.9  29.3  34022  287.25 0862.74
2015 04 09 13 22 23 .76     -82   -129     67    154    167 212.6  24.9  33970  286.35 0862.74
2015 04 09 13 22 24 .01     -82   -121     53    147    156 214.3  20.4  33956  286.14 0862.74
2015 04 09 13 22 24 .26     -77   -127     49    149    158 211.2  18.4  33948  285.98 0862.75
2015 04 09 13 22 24 .51     -69   -128     43    146    153 208.5  16.6  33942  285.88 0862.75
2015 04 09 13 22 24 .76     -65   -125     30    142    146 207.6  12.2  33940  285.85 0862.75
2015 04 09 13 22 25 .01     -80   -126     30    150    154 212.5  11.6  33952  286.07 0862.75
2015 04 09 13 22 25 .27     -80   -118     30    143    147 214.3  12.2  33968  286.32 0862.75
2015 04 09 13 22 25 .53     -86   -103     27    135    138 219.7  11.6  33974  286.42 0862.75
2015 04 09 13 22 25 .77     -84    -90     31    124    128 223.2  14.3  34000  286.86 0862.75
2015 04 09 13 22 26 .02     -66    -97     24    118    121 214.3  11.6  33976  286.47 0862.75
2015 04 09 13 22 26 .27     -73   -114     25    136    139 212.6  10.6  33960  286.19 0862.74
2015 04 09 13 22 26 .53     -92   -120     33    152    156 217.4  12.4  33976  286.46 0862.74
2015 04 09 13 22 26 .77     -85   -114     11    143    144 216.5   4.4  33944  285.93 0862.74
2015 04 09 13 22 27 .02     -78   -108     -2    134    135 216.1  -1.3  33948  286.00 0862.74
2015 04 09 13 22 27 .27     -74   -117      2    139    140 212.6   1.2  33942  285.90 0862.74
2015 04 09 13 22 27 .52     -79   -120      8    144    145 213.4   3.3  33944  285.93 0862.74
2015 04 09 13 22 27 .78     -77   -127     12    149    150 211.2   4.9  33944  285.93 0862.74
2015 04 09 13 22 28 .04     -64   -120     13    137    138 208.1   5.4  33972  286.41 0862.74
2015 04 09 13 22 28 .28     -55   -123     36    135    140 204.1  15.3  33976  286.47 0862.74
2015 04 09 13 22 28 .53     -59   -122     49    136    144 205.9  20.0  34016  287.13 0862.74
2015 04 09 13 22 28 .77     -62   -129     12    144    145 205.9   5.0  33962  286.24 0862.74
2015 04 09 13 22 29 .03     -67   -129      7    146    147 207.6   2.9  33954  286.08 0862.74
2015 04 09 13 22 29 .28     -69   -125      7    143    144 209.0   2.8  33954  286.10 0862.74
2015 04 09 13 22 29 .53     -73   -120      6    141    142 211.6   2.8  33944  285.93 0862.74
2015 04 09 13 22 29 .78     -72   -128     11    147    148 209.4   4.4  33942  285.90 0862.74
2015 04 09 13 22 30 .03     -72   -118     16    139    141 211.6   6.9  33944  285.93 0862.74
2015 04 09 13 22 30 .28     -70   -124     12    143    144 209.4   5.0  33942  285.88 0862.74
2015 04 09 13 22 30 .53     -73   -115     16    137    139 212.5   6.9  33946  285.95 0862.74
2015 04 09 13 22 30 .79     -86   -136     19    162    164 212.3   6.9  33964  286.25 0862.74
2015 04 09 13 22 31 .04     -91   -134      8    162    163 214.2   3.1  33990  286.71 0862.74
2015 04 09 13 22 31 .28    -110   -118     22    162    164 222.8   8.0  33992  286.73 0862.74
2015 04 09 13 22 31 .54     -96   -138     35    169    173 214.7  12.0  33992  286.74 0862.74
2015 04 09 13 22 31 .78     -97   -132     47    164    171 216.3  16.3  34000  286.88 0862.74
2015 04 09 13 22 32 .04     -99   -113     31    151    155 221.4  11.6  33996  286.81 0862.74
2015 04 09 13 22 32 .30     -98   -104     21    144    146 223.2   8.5  33992  286.74 0862.74
2015 04 09 13 22 32 .56     -84   -116      7    144    145 216.1   2.8  34006  286.96 0862.74
2015 04 09 13 22 32 .80     -82   -121      2    147    148 214.3   0.8  34024  287.27 0862.74
2015 04 09 13 22 33 .06     -81   -119     51    145    154 214.3  19.6  34014  287.11 0862.74
2015 04 09 13 22 33 .30     -75   -124     44    146    153 211.2  16.8  34014  287.10 0862.74
2015 04 09 13 22 33 .55     -73   -135     53    154    164 208.5  19.2  34026  287.32 0862.74
2015 04 09 13 22 33 .80     -74   -117     43    139    146 212.6  17.3  34022  287.25 0862.74
2015 04 09 13 22 34 .05     -98   -118     34    154    158 219.7  12.6  33964  286.25 0862.74
2015 04 09 13 22 34 .30     -94   -133     39    163    168 215.2  13.5  33960  286.19 0862.74
2015 04 09 13 22 34 .56     -95   -137     29    167    170 214.7  10.1  33966  286.29 0862.74
2015 04 09 13 22 34 .80     -92   -137     26    166    169 213.8   9.0  33974  286.42 0862.74
2015 04 09 13 22 35 .05     -87   -124      7    152    153 215.2   2.9  33948  285.98 0862.74
2015 04 09 13 22 35 .31    -109   -149     36    185    189 216.1  11.1  34016  287.15 0862.75
2015 04 09 13 22 35 .55     -90   -143     55    170    179 212.3  18.1  34018  287.16 0862.75
2015 04 09 13 22 35 .81     -95   -149     32    178    181 212.6  10.3  33974  286.42 0862.75
2015 04 09 13 22 36 .06     -86   -134     64    160    172 212.6  22.8  34030  287.38 0862.75
2015 04 09 13 22 36 .31     -95   -130     55    162    172 216.3  18.9  33980  286.54 0862.75
2015 04 09 13 22 36 .56    -104   -144     62    178    189 216.0  19.2  34052  287.74 0862.75
2015 04 09 13 22 36 .80    -103   -106     47    149    157 224.1  17.7  33992  286.73 0862.75
2015 04 09 13 22 37 .06     -98   -130     20    163    165 217.0   7.2  33942  285.90 0862.75
2015 04 09 13 22 37 .31     -91   -129     13    158    159 215.2   4.9  33942  285.88 0862.75
2015 04 09 13 22 37 .56     -89   -132      8    160    161 213.8   3.1  33956  286.14 0862.75
2015 04 09 13 22 37 .81     -82   -123      1    149    150 213.8   0.7  33944  285.92 0862.74
2015 04 09 13 22 38 .06     -84   -116     -7    144    145 216.1  -3.1  33942  285.90 0862.74
2015 04 09 13 22 38 .32     -77   -126    -18    148    150 211.6  -7.2  33956  286.14 0862.74
2015 04 09 13 22 38 .57     -77   -105     -5    131    132 216.1  -2.2  33988  286.67 0862.74
2015 04 09 13 22 38 .81     -89   -123      1    153    154 216.0   0.7  33990  286.69 0862.74
2015 04 09 13 22 39 .08     -82   -120      0    146    147 214.3  -0.3  33990  286.69 0862.74
2015 04 09 13 22 39 .32     -83   -130      1    155    156 212.6   0.5  34002  286.91 0862.74
2015 04 09 13 22 39 .57     -79   -124     -3    148    149 212.6  -1.2  33970  286.37 0862.73
2015 04 09 13 22 39 .83     -85   -134     26    160    163 212.5   9.5  33992  286.74 0862.73
2015 04 09 13 22 40 .08     -99   -133     33    167    171 216.7  11.4  34010  287.05 0862.73
2015 04 09 13 22 40 .33     -97   -132     47    164    171 216.3  16.3  34008  287.00 0862.73
2015 04 09 13 22 40 .57     -98   -131     36    164    168 216.7  12.4  34012  287.06 0862.73
2015 04 09 13 22 40 .82     -89   -118     49    149    158 217.0  18.4  34004  286.93 0862.73
2015 04 09 13 22 41 .08     -72   -108     35    131    136 213.8  15.2  34006  286.98 0862.73
2015 04 09 13 22 41 .33     -93    -74     10    120    121 231.4   4.9  34040  287.54 0862.73
2015 04 09 13 22 41 .58     -95   -109     56    145    155 221.0  21.5  34040  287.55 0862.73
2015 04 09 13 22 41 .83     -91    -86     67    126    142 226.4  30.3  34110  288.74 0862.73
2015 04 09 13 22 42 .08     -68    -61     70     92    115 227.8  41.2  34122  288.92 0862.73
2015 04 09 13 22 42 .33     -84    -89     67    123    140 223.2  31.3  34110  288.74 0862.73
2015 04 09 13 22 42 .58     -90    -77     -3    119    120 229.6  -1.8  34060  287.87 0862.73
2015 04 09 13 22 42 .83    -106    -82      0    135    136 232.2   0.2  34026  287.30 0862.73
2015 04 09 13 22 43 .08    -109    -96     -5    146    147 228.6  -2.2  34010  287.05 0862.73
2015 04 09 13 22 43 .34    -110    -90      4    143    144 230.5   1.8  33992  286.74 0862.73
2015 04 09 13 22 43 .58    -104    -87      0    136    137 230.0   0.2  34006  286.98 0862.73
2015 04 09 13 22 43 .83     -95   -127     56    159    169 216.7  19.4  34038  287.52 0862.73
2015 04 09 13 22 44 .09     -84    -92     43    125    133 222.3  18.9  34022  287.23 0862.73
2015 04 09 13 22 44 .34     -81    -82     21    116    118 224.5  10.6  34034  287.45 0862.73
2015 04 09 13 22 44 .59     -72    -67     19     99    101 226.9  11.0  34030  287.38 0862.73
2015 04 09 13 22 44 .83     -89   -101     46    135    143 221.4  18.9  34028  287.35 0862.73
2015 04 09 13 22 45 .08     -80    -95     39    125    132 220.1  17.4  34018  287.16 0862.73
2015 04 09 13 22 45 .34     -95   -113      7    148    149 220.1   2.9  33980  286.52 0862.73
2015 04 09 13 22 45 .59     -99   -107     -1    147    148 222.8  -0.7  34028  287.35 0862.73
2015 04 09 13 22 45 .84     -65   -106     29    125    129 211.6  13.1  34088  288.35 0862.73
2015 04 09 13 22 46 .10     -74   -102     37    127    133 216.1  16.3  34078  288.18 0862.73
2015 04 09 13 22 46 .34     -91   -104     51    139    148 221.4  21.0  34062  287.91 0862.73
2015 04 09 13 22 46 .60     -99   -109      0    148    149 222.3  -0.3  33960  286.19 0862.73
2015 04 09 13 22 46 .85     -76   -111     -6    135    136 214.3  -2.6  33950  286.02 0862.73
2015 04 09 13 22 47 .11     -53   -106     28    119    123 206.7  13.2  34058  287.86 0862.73
2015 04 09 13 22 47 .35     -79    -95     24    124    127 219.6  11.0  34024  287.27 0862.73
2015 04 09 13 22 47 .60     -80   -100      6    129    130 218.7   2.9  33952  286.07 0862.73
2015 04 09 13 22 47 .85     -76   -112     -1    136    137 214.2  -0.7  33954  286.08 0862.74
2015 04 09 13 22 48 .10     -86   -103     -7    135    136 219.6  -3.2  33948  285.98 0862.74
2015 04 09 13 22 48 .36     -81   -112     -5    139    140 216.0  -2.2  33950  286.03 0862.74
2015 04 09 13 22 48 .61     -80   -114     -5    140    141 215.2  -2.2  33960  286.19 0862.74
2015 04 09 13 22 48 .86     -74   -124      7    145    146 210.8   2.9  33954  286.08 0862.74
2015 04 09 13 22 49 .11     -70   -117     -6    137    138 211.2  -2.6  33970  286.37 0862.74
2015 04 09 13 22 49 .35     -56   -118     -5    131    132 205.4  -2.2  33970  286.37 0862.74
2015 04 09 13 22 49 .61     -58   -109      6    124    125 208.1   2.9  33986  286.64 0862.74
2015 04 09 13 22 49 .86     -58   -125     21    138    140 204.9   9.0  33998  286.84 0862.74
2015 04 09 13 22 50 .12     -51   -129     35    139    144 201.8  14.3  34004  286.93 0862.74
2015 04 09 13 22 50 .36     -30   -120     20    124    126 194.3   9.5  34000  286.88 0862.74
2015 04 09 13 22 50 .61     -45   -113     20    122    124 201.8   9.5  34026  287.30 0862.74
2015 04 09 13 22 50 .86     -65   -101     -2    121    122 212.6  -1.2  33990  286.69 0862.74
2015 04 09 13 22 51 .11     -43   -109    -13    118    119 201.4  -6.7  33994  286.78 0862.74
2015 04 09 13 22 51 .36     -50   -125      1    135    136 201.8   0.8  33976  286.47 0862.73
2015 04 09 13 22 51 .61     -89   -132     23    160    162 213.8   8.2  33966  286.29 0862.73
2015 04 09 13 22 51 .86     -80   -126     30    150    154 212.5  11.6  33964  286.27 0862.73
2015 04 09 13 22 52 .11     -84   -125      7    151    152 213.8   2.8  33972  286.39 0862.73
2015 04 09 13 22 52 .36     -86   -121      4    149    150 215.6   1.8  33970  286.35 0862.73
2015 04 09 13 22 52 .61     -82   -120      0    146    147 214.3  -0.3  33964  286.27 0862.73
2015 04 09 13 22 52 .87     -75   -120     -3    142    143 212.1  -1.3  33968  286.32 0862.73
2015 04 09 13 22 53 .13     -74   -109    -12    132    133 214.3  -5.2  33978  286.49 0862.73
2015 04 09 13 22 53 .38     -84   -122     -8    149    150 214.7  -3.2  33962  286.24 0862.73
2015 04 09 13 22 53 .62     -93   -113    -14    147    148 219.6  -5.6  33970  286.35 0862.73
2015 04 09 13 22 53 .88     -85   -118     -6    146    147 216.0  -2.6  33964  286.27 0862.73
2015 04 09 13 22 54 .13     -86   -119     -8    148    149 216.0  -3.2  33958  286.15 0862.73
2015 04 09 13 22 54 .38     -93   -110     -3    145    146 220.1  -1.3  33958  286.17 0862.73
2015 04 09 13 22 54 .62     -84   -116     -5    144    145 216.1  -2.2  33944  285.93 0862.73
2015 04 09 13 22 54 .88     -83   -124      0    150    151 213.8  -0.3  33944  285.92 0862.73
2015 04 09 13 22 55 .13     -88   -115     -5    146    147 217.4  -2.2  33944  285.92 0862.73
2015 04 09 13 22 55 .38     -82   -120    -13    146    147 214.2  -5.1  33956  286.12 0862.73
2015 04 09 13 22 55 .63     -84   -109    -13    138    139 217.8  -5.6  33954  286.08 0862.73
2015 04 09 13 22 55 .88     -74   -109    -12    132    133 214.3  -5.2  33950  286.02 0862.73
2015 04 09 13 22 56 .13     -65   -109     -2    127    128 210.8  -1.3  33958  286.17 0862.73
2015 04 09 13 22 56 .39     -63   -113      0    130    131 209.4   0.2  33950  286.03 0862.73
2015 04 09 13 22 56 .63     -47   -101    -32    112    117 204.9 -16.0  33948  285.98 0862.73
2015 04 09 13 22 56 .88     -43    -93    -28    103    107 204.9 -15.4  33944  285.93 0862.73
2015 04 09 13 22 57 .13     -45    -97    -29    107    112 204.9 -15.5  33940  285.85 0862.73
2015 04 09 13 22 57 .38     -43    -93    -28    103    107 204.9 -15.4  33940  285.87 0862.73
2015 04 09 13 22 57 .64     -50    -96    -37    109    116 207.6 -19.1  33936  285.80 0862.73
2015 04 09 13 22 57 .88     -43    -89    -30     99    103 205.9 -21.7  33938  285.82 0862.73
2015 04 09 13 22 58 .14     -50    -90    -28    104    108 209.0 -15.5  33944  285.92 0862.73
2015 04 09 13 22 58 .38     -42    -86    -20     96     99 206.3 -11.9  33946  285.95 0862.73
2015 04 09 13 22 58 .64     -40    -81     -8     91     92 206.3  -5.6  33948  286.00 0862.74
2015 04 09 13 22 58 .89     -50    -87    -20    101    104 209.9 -11.3  33946  285.95 0862.74
2015 04 09 13 22 59 .13     -55    -83    -18    100    102 213.4 -10.3  33944  285.93 0862.74
2015 04 09 13 22 59 .39     -55    -83    -18    100    102 213.4 -10.3  33944  285.93 0862.74
2015 04 09 13 22 59 .64     -62    -85    -18    106    108 216.0  -9.8  33938  285.83 0862.74
2015 04 09 13 22 59 .89     -56    -88    -11    105    106 212.5  -6.2  33946  285.95 0862.74
2015 04 09 13 23 00 .15     -54    -84     -5    101    102 213.0  -3.1  33942  285.90 0862.74
2015 04 09 13 23 00 .40     -44    -82     -8     94     95 208.5  -5.2  33954  286.08 0862.74
2015 04 09 13 23 00 .65     -33    -72    -13     80     82 204.5  -9.3  33948  285.98 0862.73
2015 04 09 13 23 00 .90     -36    -82    -20     90     93 203.6 -12.9  33940  285.85 0862.73
2015 04 09 13 23 01 .15     -45    -82    -30     94     98 209.0 -23.3  33934  285.76 0862.73
2015 04 09 13 23 01 .40     -38    -85    -32     94    100 204.5 -19.1  33936  285.80 0862.73
2015 04 09 13 23 01 .65     -46    -90    -24    102    105 207.2 -13.4  33942  285.88 0862.73
2015 04 09 13 23 01 .90     -36    -88    -20     96     99 202.3 -11.9  33942  285.90 0862.73
2015 04 09 13 23 02 .15     -24    -83    -14     87     89 196.5  -9.3  33946  285.95 0862.73
2015 04 09 13 23 02 .41     -28    -85    -11     90     91 198.3  -7.3  33950  286.03 0862.74
2015 04 09 13 23 02 .65     -47    -84     -3     97     98 209.4  -2.2  33948  285.98 0862.74
2015 04 09 13 23 02 .91     -40    -87     -3     97     98 204.9  -2.2  33950  286.03 0862.74
2015 04 09 13 23 03 .16     -46    -80      4     93     94 209.9   2.9  33956  286.14 0862.74
2015 04 09 13 23 03 .41     -35    -81      1     89     90 203.6   0.8  33950  286.03 0862.74
2015 04 09 13 23 03 .66     -35    -89      0     96     97 201.4   0.2  33962  286.24 0862.74
2015 04 09 13 23 03 .91     -25   -105      9    109    110 193.8   4.9  33964  286.25 0862.74
2015 04 09 13 23 04 .16     -19    -99      4    101    102 191.1   2.3  33974  286.42 0862.74
2015 04 09 13 23 04 .41     -30    -89    -13     94     95 198.7  -8.2  33978  286.49 0862.74
2015 04 09 13 23 04 .67     -21   -103     -5    106    107 191.6  -3.1  33992  286.74 0862.74
2015 04 09 13 23 04 .91     -28   -107      6    111    112 195.1   3.3  34002  286.91 0862.74
2015 04 09 13 23 05 .16     -34   -103     14    109    110 198.3   7.5  34010  287.05 0862.74
2015 04 09 13 23 05 .42     -31    -94     34    100    106 198.3  18.9  34000  286.86 0862.74
2015 04 09 13 23 05 .66     -22    -87      8     90     91 194.3   5.4  34020  287.21 0862.74
2015 04 09 13 23 05 .91     -37    -76      0     85     86 206.3  -0.3  33970  286.37 0862.74
2015 04 09 13 23 06 .16     -26    -95     -3     99    100 195.6  -2.2  33938  285.82 0862.74
2015 04 09 13 23 06 .41     -32    -95     -2    101    102 198.7  -1.2  33940  285.85 0862.74
2015 04 09 13 23 06 .66     -29    -88     -6     93     94 198.7  -4.1  33948  285.98 0862.74
2015 04 09 13 23 06 .92     -23    -90      5     94     95 194.7   3.3  33940  285.87 0862.74
2015 04 09 13 23 07 .17     -26    -87      4     91     92 196.9   2.9  33940  285.85 0862.74
2015 04 09 13 23 07 .43     -26    -87      4     91     92 196.9   2.9  33940  285.85 0862.74
2015 04 09 13 23 07 .67     -21    -80     -3     83     84 194.7  -2.6  33948  286.00 0862.74
2015 04 09 13 23 07 .93     -30    -80    -23     86     90 200.5 -15.4  33942  285.88 0862.74
2015 04 09 13 23 08 .18     -24    -92    -30     96    100 195.1 -22.8  33938  285.83 0862.74
2015 04 09 13 23 08 .43     -19    -91    -33     94    100 192.0 -19.7  33940  285.87 0862.74
2015 04 09 13 23 08 .68     -19    -98    -26    100    104 191.1 -14.5  33940  285.85 0862.74
2015 04 09 13 23 08 .93     -16    -99    -27    101    105 189.3 -15.4  33940  285.87 0862.74
2015 04 09 13 23 09 .18     -33   -100    -35    106    112 198.5 -18.7  33940  285.87 0862.74
2015 04 09 13 23 09 .44     -29   -101    -29    106    110 196.0 -15.4  33970  286.35 0862.74
2015 04 09 13 23 09 .69     -27   -100    -37    104    111 195.6 -19.6  33964  286.27 0862.74
2015 04 09 13 23 09 .93     -28    -96    -27    101    105 196.5 -15.0  33998  286.84 0862.74
2015 04 09 13 23 10 .19     -24    -92    -22     96     99 195.1 -13.4  33998  286.83 0862.74
2015 04 09 13 23 10 .43     -27    -81      4     86     87 198.3   2.9  34008  287.01 0862.74
2015 04 09 13 23 10 .68     -14    -72     -8     74     75 191.6  -6.2  34006  286.98 0862.74
2015 04 09 13 23 10 .93     -53    -80     -3     97     98 213.4  -2.2  34016  287.15 0862.74
2015 04 09 13 23 11 .18     -34    -71      9     79     80 205.5   6.5  34030  287.38 0862.74
2015 04 09 13 23 11 .43      -2    -87     -2     88     89 181.8  -1.8  34008  287.01 0862.74
2015 04 09 13 23 11 .69     -20    -92      9     95     96 192.5   5.9  34010  287.03 0862.74
2015 04 09 13 23 11 .94     -34    -88     17     95     97 201.4  10.1  34032  287.42 0862.74
2015 04 09 13 23 12 .19     -38    -77      6     86     87 206.3   4.4  34042  287.57 0862.74
2015 04 09 13 23 12 .44     -35    -71     16     80     82 206.3  11.6  34058  287.84 0862.73
2015 04 09 13 23 12 .69     -29    -79     21     85     88 200.0  14.3  34058  287.84 0862.73
2015 04 09 13 23 12 .94     -35    -71     16     80     82 206.3  11.6  34058  287.84 0862.73
2015 04 09 13 23 13 .20     -23    -80     29     84     90 196.5  19.4  34060  287.87 0862.73
2015 04 09 13 23 13 .44      -5    -74     20     75     78 184.5  15.3  34052  287.76 0862.73
2015 04 09 13 23 13 .70     -21    -63     18     67     70 198.5  15.3  34080  288.21 0862.73
2015 04 09 13 23 13 .95     -16    -51     18     54     58 198.3  18.9  34068  288.03 0862.73
2015 04 09 13 23 14 .21     -35    -56     31     67     73 212.5  27.1  34074  288.11 0862.73
2015 04 09 13 23 14 .45     -31    -49     30     59     66 212.5  29.3  34086  288.33 0862.73
2015 04 09 13 23 14 .71     -34    -53     17     64     67 212.5  15.3  34060  287.89 0862.73
2015 04 09 13 23 14 .96     -39    -55     19     68     71 216.0  16.3  34068  288.03 0862.73
2015 04 09 13 23 15 .21     -31    -49     37     59     69 212.5  35.5  34104  288.64 0862.73
2015 04 09 13 23 15 .45     -27    -45     44     53     68 211.6  43.8  34140  289.24 0862.73
2015 04 09 13 23 15 .70     -26    -64     41     70     81 201.9  32.9  34108  288.69 0862.73
2015 04 09 13 23 15 .95     -17    -57     56     60     82 196.9  48.5  34096  288.50 0862.73
2015 04 09 13 23 16 .20     -27    -54     44     61     75 206.3  39.5  34090  288.38 0862.73
2015 04 09 13 23 16 .46     -20    -60     33     64     72 198.7  28.2  34078  288.20 0862.73
2015 04 09 13 23 16 .71     -23    -58     25     63     67 201.8  23.0  34078  288.18 0862.73
2015 04 09 13 23 16 .96     -26    -40     34     48     58 213.4  38.6  34094  288.45 0862.73
2015 04 09 13 23 17 .21     -23    -45     23     51     55 207.2  26.2  34088  288.36 0862.73
2015 04 09 13 23 17 .46     -31    -49     29     59     65 212.5  28.2  34084  288.28 0862.73
2015 04 09 13 23 17 .71     -38    -57     27     69     74 214.3  22.0  34082  288.26 0862.73
2015 04 09 13 23 17 .96     -32    -50     21     60     64 212.5  19.2  34084  288.28 0862.73
2015 04 09 13 23 18 .22     -32    -38     17     50     54 220.5  19.2  34094  288.47 0862.73
2015 04 09 13 23 18 .46     -25    -51     27     57     63 206.3  27.2  34112  288.75 0862.73
2015 04 09 13 23 18 .71     -21    -58     25     62     66 200.0  23.0  34106  288.67 0862.73
2015 04 09 13 23 18 .96     -28    -37     32     47     56 217.8  36.5  34110  288.74 0862.73
2015 04 09 13 23 19 .21     -21    -33     32     40     51 212.6  43.7  34120  288.91 0862.73
2015 04 09 13 23 19 .46     -26    -31     20     41     45 219.6  28.2  34110  288.72 0862.73
2015 04 09 13 23 19 .71     -24    -24     11     34     37 225.1  18.9  34102  288.58 0862.73
2015 04 09 13 23 19 .96     -15    -23      1     28     29 212.6   2.8  34094  288.45 0862.73
2015 04 09 13 23 20 .22     -11    -24     -6     27     28 205.4 -13.4  34062  287.92 0862.73
2015 04 09 13 23 20 .46     -15    -44    -14     47     49 198.7 -22.8  34028  287.33 0862.73
2015 04 09 13 23 20 .72       0    -63    -19     64     66 180.0 -21.7  34036  287.49 0862.73
2015 04 09 13 23 20 .98       7    -59    -16     60     63 172.9 -15.4  34028  287.35 0862.73
2015 04 09 13 23 21 .22       5    -59    -19     60     62 174.7 -22.8  33980  286.54 0862.73
2015 04 09 13 23 21 .48       7    -48    -15     49     51 171.1 -22.8  33968  286.34 0862.73
2015 04 09 13 23 21 .72      16    -46    -16     49     51 160.8 -23.8  33962  286.24 0862.73
2015 04 09 13 23 21 .97      15    -45    -16     48     50 161.7 -23.6  33956  286.14 0862.73
2015 04 09 13 23 22 .23       8    -55    -14     56     58 171.1 -14.5  33952  286.07 0862.73
2015 04 09 13 23 22 .48      12    -58    -12     60     62 167.5 -11.3  33960  286.19 0862.73
2015 04 09 13 23 22 .73      25    -56     -1     62     63 155.5  -1.3  33972  286.39 0862.73
2015 04 09 13 23 22 .98      19    -63    -10     66     67 163.1  -9.3  33948  285.98 0862.73
2015 04 09 13 23 23 .23       5    -69    -18     70     73 175.5 -14.5  33948  285.98 0862.73
2015 04 09 13 23 23 .48       0    -67    -22     68     71 180.0 -23.8  33964  286.25 0862.73
2015 04 09 13 23 23 .73       1    -69    -25     70     75 179.1 -19.6  33958  286.17 0862.73
2015 04 09 13 23 23 .98       5    -73    -21     74     76 175.6 -20.7  33946  285.97 0862.73
2015 04 09 13 23 24 .24       4    -78    -20     79     82 176.4 -14.5  33970  286.37 0862.73
2015 04 09 13 23 24 .49      -1    -70    -15     71     73 180.9 -12.4  33970  286.35 0862.73
2015 04 09 13 23 24 .74      -2    -62    -12     63     65 182.7 -11.3  34008  287.00 0862.73
2015 04 09 13 23 24 .99       0    -55     -2     56     57 180.9  -2.2  34034  287.45 0862.73
2015 04 09 13 23 25 .23      -1    -62      7     63     64 181.8   6.9  34038  287.52 0862.72
2015 04 09 13 23 25 .48      12    -63    -18     65     68 169.3 -15.5  33964  286.25 0862.72
2015 04 09 13 23 25 .74       4    -63    -10     64     65 175.5  -9.3  33988  286.67 0862.72
2015 04 09 13 23 26 .00       7    -55    -16     56     58 172.0 -22.8  33988  286.66 0862.72
2015 04 09 13 23 26 .24      12    -44     -2     46     47 164.0  -3.1  34030  287.38 0862.72
2015 04 09 13 23 26 .49       8    -48      1     49     50 170.2   1.8  34044  287.60 0862.72
2015 04 09 13 23 26 .74       5    -49      9     50     51 173.8  11.1  34046  287.65 0862.72
2015 04 09 13 23 26 .99      17    -53     15     56     59 161.7  15.3  34044  287.60 0862.72
2015 04 09 13 23 27 .24       6    -69     33     70     77 174.7  27.1  34052  287.76 0862.72
2015 04 09 13 23 27 .51      27    -58     27     65     70 154.5  24.1  34006  286.98 0862.72
2015 04 09 13 23 27 .74      35    -43      4     56     57 141.3   4.9  33998  286.84 0862.72
2015 04 09 13 23 28 .00      34    -59      3     69     70 150.1   2.9  33956  286.12 0862.72
2015 04 09 13 23 28 .25      34    -74      9     82     83 155.5   6.5  33958  286.17 0862.72
2015 04 09 13 23 28 .50      26    -69      8     74     75 159.1   6.9  33954  286.10 0862.72
2015 04 09 13 23 28 .75      41    -64      3     77     78 147.4   2.9  33962  286.22 0862.72
2015 04 09 13 23 29 .01      36    -55      6     67     68 146.6   5.9  33960  286.19 0862.72
2015 04 09 13 23 29 .26      17    -80      9     82     83 168.0   6.5  34012  287.06 0862.72
2015 04 09 13 23 29 .51      10    -99     34    100    106 173.8  18.9  34034  287.45 0862.72
2015 04 09 13 23 29 .76      10    -99      8    100    101 174.2   4.9  33986  286.62 0862.72
2015 04 09 13 23 30 .00      16    -92     14     94     96 169.8   8.5  33992  286.74 0862.72
2015 04 09 13 23 30 .26      25   -103      5    107    108 166.2   2.8  33952  286.05 0862.72
2015 04 09 13 23 30 .51      20    -90     22     93     96 167.1  13.7  34018  287.18 0862.72
2015 04 09 13 23 30 .76       6    -73     42     74     85 174.7  32.4  34034  287.43 0862.72
2015 04 09 13 23 31 .01      15    -85     42     87     96 169.8  27.3  34018  287.16 0862.72
2015 04 09 13 23 31 .26       0    -79     27     80     85 180.0  18.9  33998  286.83 0862.72
2015 04 09 13 23 31 .51      19    -56      9     60     61 161.3   9.0  33970  286.37 0862.72
2015 04 09 13 23 31 .77       8    -56      0     57     58 171.1   0.8  33996  286.79 0862.72
2015 04 09 13 23 32 .01      15    -75     -1     77     78 168.4  -1.2  33958  286.17 0862.72
2015 04 09 13 23 32 .26      16    -65    -13     68     70 165.7 -11.3  33970  286.37 0862.72
2015 04 09 13 23 32 .52      42    -68    -28     81     85 148.4 -23.3  33990  286.69 0862.72
2015 04 09 13 23 32 .77      50    -41     -1     66     67 129.5  -1.2  34024  287.28 0862.72
2015 04 09 13 23 33 .01      31    -62     15     70     72 152.8  12.2  34030  287.38 0862.72
2015 04 09 13 23 33 .27      15    -45     29     48     56 161.7  35.5  34050  287.70 0862.72
2015 04 09 13 23 33 .52      19    -32     18     38     42 149.3  27.2  34070  288.04 0862.72
2015 04 09 13 23 33 .76      40    -54     38     68     77 143.9  31.4  34078  288.20 0862.72
2015 04 09 13 23 34 .02      36    -52     40     64     75 145.7  35.5  34042  287.57 0862.72
2015 04 09 13 23 34 .26      28    -42     27     51     57 146.6  30.3  34048  287.67 0862.72
2015 04 09 13 23 34 .52      17    -29     23     34     41 149.3  37.6  34048  287.67 0862.72
2015 04 09 13 23 34 .78      12    -16      0     21     22 142.2  -2.2  34038  287.52 0862.72
2015 04 09 13 23 35 .03      12    -21    -14     25     28 151.0 -35.8  34028  287.33 0862.72
2015 04 09 13 23 35 .28      15    -32    -32     36     48 154.7 -52.3  33992  286.74 0862.72
2015 04 09 13 23 35 .53      -1    -29    -27     30     40 182.7 -51.3  34002  286.89 0862.72
2015 04 09 13 23 35 .78      -1    -12    -21     13     24 184.5 -69.1  34010  287.05 0862.72
2015 04 09 13 23 36 .03       7    -27    -25     29     38 164.9 -50.2  33984  286.61 0862.72
2015 04 09 13 23 36 .28      17    -29    -30     34     45 149.3 -51.3  33950  286.03 0862.72
2015 04 09 13 23 36 .53      22    -44    -19     50     53 153.7 -24.4  33946  285.95 0862.72
2015 04 09 13 23 36 .78      23    -40    -16     47     49 150.1 -23.6  33950  286.03 0862.72
2015 04 09 13 23 37 .04      28    -32    -18     43     46 138.6 -27.4  33954  286.10 0862.72
2015 04 09 13 23 37 .28      28    -25    -19     38     42 131.3 -32.6  33954  286.10 0862.72
2015 04 09 13 23 37 .53      24    -24    -16     34     37 135.0 -31.6  33950  286.03 0862.72
2015 04 09 13 23 37 .78      16    -36    -24     40     46 156.4 -38.8  33946  285.95 0862.72
2015 04 09 13 23 38 .04      18    -42    -28     46     53 156.4 -39.9  33948  286.00 0862.72
2015 04 09 13 23 38 .28      19    -31    -28     37     46 147.5 -45.1  33946  285.95 0862.72
2015 04 09 13 23 38 .53      26    -42    -32     50     59 147.4 -40.0  33950  286.02 0862.72
2015 04 09 13 23 38 .79      19    -35    -32     41     52 151.0 -47.1  33946  285.95 0862.72
2015 04 09 13 23 39 .04      26    -42    -32     50     59 147.4 -40.0  33950  286.02 0862.72
2015 04 09 13 23 39 .29      21    -37    -32     43     53 150.1 -45.1  33952  286.05 0862.72
2015 04 09 13 23 39 .54      18    -42    -28     46     53 156.4 -39.9  33948  286.00 0862.72
2015 04 09 13 23 39 .79      26    -36    -28     45     53 143.9 -39.9  33948  286.00 0862.72
2015 04 09 13 23 40 .04      24    -24    -30     34     45 135.0 -51.3  33960  286.19 0862.72
2015 04 09 13 23 40 .29      20    -21    -32     30     43 136.6 -54.5  33958  286.17 0862.72
2015 04 09 13 23 40 .55      20    -20    -26     29     38 135.0 -52.3  33968  286.34 0862.72
2015 04 09 13 23 40 .79      23    -17    -24     29     37 126.0 -48.2  33964  286.25 0862.72
2015 04 09 13 23 41 .04      23     -8    -30     25     39 110.0 -60.7  33960  286.19 0862.72
2015 04 09 13 23 41 .29      21    -13    -25     25     35 122.4 -54.5  33960  286.19 0862.72
2015 04 09 13 23 41 .55      26     -8    -25     28     37 108.6 -52.3  33960  286.19 0862.72
2015 04 09 13 23 41 .80      21     -5    -32     22     38 103.3 -67.0  33974  286.42 0862.72
2015 04 09 13 23 42 .06      17    -18    -28     25     37 136.6 -56.6  33974  286.42 0862.72
2015 04 09 13 23 42 .30      22     -8    -29     24     37 110.0 -60.7  33966  286.29 0862.73
2015 04 09 13 23 42 .56      21    -13    -25     25     35 122.4 -54.5  33976  286.46 0862.73
2015 04 09 13 23 42 .80      14     -4    -24     15     28 108.4 -69.1  33974  286.42 0862.73
2015 04 09 13 23 43 .05      29      1    -30     30     42  87.4 -54.5  33962  286.24 0862.73
2015 04 09 13 23 43 .31      27      5    -26     28     38  78.5 -56.4  33968  286.34 0862.73
2015 04 09 13 23 43 .55      27      4    -25     28     37  80.3 -52.3  33966  286.29 0862.73
2015 04 09 13 23 43 .81      36      3    -23     37     43  83.9 -39.9  33954  286.10 0862.73
2015 04 09 13 23 44 .06      38      9    -27     40     48  76.7 -40.9  33958  286.15 0862.72
2015 04 09 13 23 44 .31      38      9    -20     40     44  76.7 -33.7  33956  286.14 0862.72
2015 04 09 13 23 44 .56      37     12    -16     39     42  71.8 -27.4  33950  286.03 0862.72
2015 04 09 13 23 44 .81      44      4    -21     45     49  83.9 -31.6  33950  286.02 0862.72
2015 04 09 13 23 45 .06      37     12    -30     39     49  71.8 -46.1  33952  286.07 0862.72
2015 04 09 13 23 45 .31      40     13    -25     43     49  72.3 -37.9  33950  286.02 0862.72
2015 04 09 13 23 45 .56      40      8    -21     41     46  77.6 -33.7  33948  285.98 0862.72
2015 04 09 13 23 45 .81      37      4    -23     38     44  83.9 -37.9  33948  286.00 0862.72
2015 04 09 13 23 46 .06      36      3    -23     37     43  83.9 -39.9  33952  286.05 0862.72
2015 04 09 13 23 46 .31      34      6    -19     35     39  78.5 -35.8  33952  286.05 0862.72
2015 04 09 13 23 46 .56      35     16    -12     39     40  64.6 -21.7  33950  286.03 0862.72
2015 04 09 13 23 46 .82      34     19    -11     40     42  60.2 -15.5  33952  286.05 0862.73
2015 04 09 13 23 47 .06      41     14    -19     44     47  71.4 -28.5  33948  286.00 0862.73
2015 04 09 13 23 47 .31      37     12    -16     39     42  71.8 -27.4  33950  286.03 0862.73
2015 04 09 13 23 47 .56      30      9    -16     32     35  73.2 -31.7  33948  285.98 0862.73
2015 04 09 13 23 47 .82      34     11    -12     36     37  71.4 -23.6  33944  285.93 0862.73
2015 04 09 13 23 48 .07      29      8    -16     31     34  74.9 -33.7  33950  286.03 0862.73
2015 04 09 13 23 48 .32      33     10    -12     35     37  73.2 -23.6  33948  285.98 0862.73
2015 04 09 13 23 48 .57      33     10    -12     35     37  73.2 -23.6  33948  285.98 0862.72
2015 04 09 13 23 48 .83      33     10    -12     35     37  73.2 -23.6  33950  286.03 0862.72
2015 04 09 13 23 49 .08      27     12    -12     30     32  64.6 -27.4  33954  286.08 0862.72
2015 04 09 13 23 49 .33      35     16    -19     39     43  64.6 -31.6  33952  286.05 0862.72
2015 04 09 13 23 49 .58      27     12    -19     30     35  64.6 -39.9  33952  286.05 0862.72
2015 04 09 13 23 49 .83      32     20    -21     39     44  57.5 -35.8  33954  286.08 0862.72
2015 04 09 13 23 50 .08      32     20    -28     38     47  57.5 -45.1  33952  286.05 0862.72
2015 04 09 13 23 50 .33      34     27    -25     44     50  51.4 -36.8  33960  286.19 0862.72
2015 04 09 13 23 50 .58      25     17    -28     31     41  55.8 -51.3  33964  286.27 0862.72
2015 04 09 13 23 50 .83      23     13    -23     27     35  59.3 -48.2  33960  286.20 0862.72
2015 04 09 13 23 51 .09      25     17    -21     31     37  55.8 -40.0  33960  286.19 0862.72
2015 04 09 13 23 51 .33      13     14    -19     20     27  43.4 -56.4  33962  286.22 0862.72
2015 04 09 13 23 51 .58      16     16    -16     24     28  45.0 -40.0  33960  286.19 0862.72
2015 04 09 13 23 51 .84      22     14    -10     27     28  57.6 -23.3  33960  286.20 0862.72
2015 04 09 13 23 52 .08      17     14     -8     23     24  50.5 -23.6  33960  286.19 0862.72
2015 04 09 13 23 52 .34      16     26    -10     31     32  32.5 -23.8  33958  286.17 0862.72
2015 04 09 13 23 52 .59      23     23    -16     33     36  45.1 -31.6  33966  286.29 0862.72
2015 04 09 13 23 52 .84      18     13    -21     23     31  54.0 -52.3  33976  286.46 0862.72
2015 04 09 13 23 53 .09      19     10    -19     22     29  62.9 -52.3  33970  286.37 0862.72
2015 04 09 13 23 53 .34      20     17    -18     27     32  48.7 -40.0  33974  286.42 0862.72
2015 04 09 13 23 53 .59      24     15    -16     29     33  57.5 -35.8  33966  286.29 0862.72
2015 04 09 13 23 53 .84      29     25     -5     39     40  48.7  -8.2  33966  286.29 0862.72
2015 04 09 13 23 54 .09      30     26     -4     40     41  48.7  -6.2  33960  286.19 0862.72
2015 04 09 13 23 54 .34      34     20     -4     40     41  58.5  -6.2  33960  286.19 0862.72
2015 04 09 13 23 54 .60      30     29    -10     42     44  46.0 -13.4  33962  286.24 0862.72
2015 04 09 13 23 54 .84      32     30     -3     44     45  46.9  -4.1  33960  286.20 0862.72
2015 04 09 13 23 55 .09      27     28     -1     40     41  44.1  -2.2  33960  286.19 0862.72
2015 04 09 13 23 55 .34      24     29      0     38     39  39.6   0.8  33958  286.15 0862.72
2015 04 09 13 23 55 .60      27     28      6     40     41  44.1   9.0  33952  286.05 0862.72
2015 04 09 13 23 55 .86      33     33     15     48     51  45.1  17.3  33954  286.08 0862.72
2015 04 09 13 23 56 .10      28     38     20     48     52  37.0  24.1  33954  286.10 0862.72
2015 04 09 13 23 56 .36      24     38     15     46     49  32.5  18.9  33962  286.22 0862.72
2015 04 09 13 23 56 .61      26     34     18     43     46  37.8  23.0  33960  286.19 0862.72
2015 04 09 13 23 56 .86      27     43     10     51     53  32.5  11.1  33968  286.32 0862.72
2015 04 09 13 23 57 .12      18     38     11     43     45  25.4  15.3  33964  286.27 0862.72
2015 04 09 13 23 57 .36      25     40      3     48     49  31.6   3.8  33948  285.98 0862.72
2015 04 09 13 23 57 .61      25     40      3     48     49  31.6   3.8  33950  286.03 0862.72
2015 04 09 13 23 57 .86      30     33      0     45     46  42.3   0.8  33954  286.10 0862.71
2015 04 09 13 23 58 .11      24     30      8     39     40  39.6  12.2  33956  286.14 0862.71
2015 04 09 13 23 58 .36      18     29     12     35     38  32.5  19.4  33952  286.05 0862.71
2015 04 09 13 23 58 .61      24     30      8     39     40  39.6  12.2  33960  286.19 0862.71
2015 04 09 13 23 58 .86      33     26     15     43     46  51.4  19.4  33968  286.34 0862.71
2015 04 09 13 23 59 .11      36     22     16     43     45  58.5  20.0  33970  286.37 0862.71
2015 04 09 13 23 59 .36      34     25      5     43     44  53.1   6.9  33968  286.32 0862.71
2015 04 09 13 23 59 .61      25     24     -1     35     36  46.7  -3.1  33968  286.32 0862.71
2015 04 09 13 23 59 .86      25     32     -1     41     42  37.8  -2.2  33970  286.37 0862.71
2015 04 09 13 24 00 .11      31     31     -5     44     45  45.0  -7.2  33972  286.41 0862.71
2015 04 09 13 24 00 .37      46     29      2     55     56  57.6   2.9  33966  286.29 0862.71
2015 04 09 13 24 00 .62      46     24     -2     53     54  62.0  -2.2  33968  286.34 0862.71
2015 04 09 13 24 00 .87      46     24     -7     53     54  62.0  -8.2  33974  286.42 0862.71
2015 04 09 13 24 01 .12      43     16    -13     47     49  69.2 -15.5  33974  286.42 0862.71
2015 04 09 13 24 01 .36      32     16     -4     37     38  62.9  -7.3  33974  286.42 0862.71
2015 04 09 13 24 01 .62      29     14     -9     33     35  64.8 -15.5  33972  286.41 0862.71
2015 04 09 13 24 01 .87      39      0    -14     40     43  90.8 -19.7  33962  286.24 0862.71
2015 04 09 13 24 02 .12      32      2    -18     33     37  85.7 -35.8  33964  286.25 0862.71
2015 04 09 13 24 02 .37      37      8     -9     39     41  76.7 -13.4  33968  286.34 0862.71
2015 04 09 13 24 02 .63      31     21     -2     38     39  55.8  -3.1  33974  286.42 0862.71
2015 04 09 13 24 02 .88      29     20     -1     36     37  55.8  -2.2  33970  286.37 0862.71
2015 04 09 13 24 03 .13      28     16      1     33     34  59.3   2.8  33968  286.32 0862.72
2015 04 09 13 24 03 .38      29      8      1     31     32  73.2   2.9  33964  286.27 0862.72
2015 04 09 13 24 03 .63      35     21     -4     42     43  58.5  -6.2  33956  286.14 0862.72
2015 04 09 13 24 03 .89      35     29      2     46     47  49.6   2.8  33954  286.10 0862.72
2015 04 09 13 24 04 .13      44     28      2     53     54  57.5   2.8  33950  286.03 0862.72
2015 04 09 13 24 04 .38      38     31      2     50     51  50.4   2.8  33948  285.98 0862.72
2015 04 09 13 24 04 .64      36     34      2     50     51  46.9   2.9  33946  285.97 0862.72
2015 04 09 13 24 04 .89      31     30     12     44     46  46.0  16.3  33958  286.15 0862.72
2015 04 09 13 24 05 .14      29     29     14     42     45  45.0  19.2  33966  286.30 0862.72
2015 04 09 13 24 05 .38      32     30     18     45     48  46.9  21.0  33966  286.30 0862.72
2015 04 09 13 24 05 .64      27     26     25     38     45  46.7  35.6  33974  286.44 0862.72
2015 04 09 13 24 05 .89      29     39     21     49     53  37.0  24.1  33968  286.32 0862.72
2015 04 09 13 24 06 .14      24     38     23     46     51  32.5  27.3  33960  286.19 0862.72
2015 04 09 13 24 06 .39      19     30     18     36     40  32.5  29.3  33962  286.24 0862.72
2015 04 09 13 24 06 .64      29     29     14     42     45  45.0  19.2  33956  286.14 0862.72
2015 04 09 13 24 06 .89      29     29     14     42     45  45.0  19.2  33960  286.19 0862.72
2015 04 09 13 24 07 .14      35     25     14     44     47  54.0  18.4  33960  286.19 0862.72
2015 04 09 13 24 07 .39      34     35      5     49     50  44.2   5.9  33960  286.20 0862.72
2015 04 09 13 24 07 .64      35     42     -2     55     56  39.7  -2.2  33962  286.24 0862.73
2015 04 09 13 24 07 .89      16     42      8     45     46  20.9  10.1  33954  286.08 0862.73
2015 04 09 13 24 08 .14      33     38     10     51     52  41.4  11.1  33952  286.05 0862.73
2015 04 09 13 24 08 .39      23     30     15     38     40  37.8  22.0  33948  286.00 0862.73
2015 04 09 13 24 08 .64      30     29     10     43     45  46.0  13.2  33948  286.00 0862.73
2015 04 09 13 24 08 .89      30     29     10     43     45  46.0  13.2  33948  286.00 0862.73
2015 04 09 13 24 09 .15      30     29     10     43     45  46.0  13.2  33948  286.00 0862.73
2015 04 09 13 24 09 .40      40     25     16     48     51  58.5  19.4  33946  285.95 0862.73
2015 04 09 13 24 09 .66      38     24     18     46     49  57.5  22.0  33948  285.98 0862.72
2015 04 09 13 24 09 .91      40     25     16     48     51  58.5  19.4  33948  286.00 0862.72
2015 04 09 13 24 10 .16      40     29     12     50     52  54.0  14.3  33948  285.98 0862.72
2015 04 09 13 24 10 .41      34     34     13     49     51  45.0  15.3  33948  285.98 0862.72
2015 04 09 13 24 10 .66      30     29     10     43     45  46.0  13.2  33948  286.00 0862.72
2015 04 09 13 24 10 .91      30     29     10     43     45  46.0  13.2  33948  286.00 0862.72
2015 04 09 13 24 11 .16      34     38     17     52     55  41.4  18.9  33948  285.98 0862.72
2015 04 09 13 24 11 .41      30     34     15     46     49  41.4  18.9  33946  285.95 0862.71
2015 04 09 13 24 11 .66      34     38     17     52     55  41.4  18.9  33948  285.98 0862.71
2015 04 09 13 24 11 .91      34     41     14     54     56  39.6  15.3  33944  285.93 0862.71
2015 04 09 13 24 12 .16      33     38     10     51     52  41.4  11.1  33942  285.90 0862.71
2015 04 09 13 24 12 .41      38     46     16     60     63  39.6  15.3  33942  285.90 0862.71
2015 04 09 13 24 12 .66      41     41     11     58     60  45.0  11.0  33946  285.95 0862.71
2015 04 09 13 24 12 .91      41     41     11     58     60  45.0  11.0  33946  285.95 0862.71
2015 04 09 13 24 13 .16      30     41      8     51     52  36.1   9.0  33944  285.92 0862.72
2015 04 09 13 24 13 .41      28     35      5     46     47  38.7   6.9  33946  285.95 0862.72
2015 04 09 13 24 13 .66      20     32      6     38     39  32.5  10.1  33946  285.95 0862.72
2015 04 09 13 24 13 .92      25     33     11     42     44  37.0  15.3  33946  285.95 0862.72
2015 04 09 13 24 14 .17      29     45     14     54     56  32.5  15.3  33948  285.98 0862.72
2015 04 09 13 24 14 .42      30     41      8     51     52  36.1   9.0  33944  285.92 0862.72
2015 04 09 13 24 14 .67      33     38     10     51     52  41.4  11.1  33942  285.90 0862.72
2015 04 09 13 24 14 .92      33     38     10     51     52  41.4  11.1  33942  285.90 0862.71
2015 04 09 13 24 15 .17      33     38     10     51     52  41.4  11.1  33942  285.90 0862.71
2015 04 09 13 24 15 .42      33     38     10     51     52  41.4  11.1  33942  285.90 0862.71
2015 04 09 13 24 15 .67      30     32      8     45     46  43.2  10.1  33948  285.98 0862.71
2015 04 09 13 24 15 .92      30     34     15     46     49  41.4  18.9  33946  285.95 0862.71
2015 04 09 13 24 16 .17      25     25     12     36     39  45.0  19.4  33946  285.95 0862.71
2015 04 09 13 24 16 .42      33     17     14     38     40  62.9  21.0  33948  285.98 0862.71
2015 04 09 13 24 16 .68      32     11     18     35     39  70.0  27.3  33954  286.08 0862.71
2015 04 09 13 24 16 .93      38     10     18     40     43  74.9  25.1  33956  286.14 0862.71
2015 04 09 13 24 17 .18      36     11     22     38     43  71.8  32.4  33960  286.19 0862.71
2015 04 09 13 24 17 .43      42      5     26     43     50  83.0  34.4  33966  286.29 0862.71
2015 04 09 13 24 17 .68      37     10     32     39     50  74.9  43.7  33962  286.24 0862.72
2015 04 09 13 24 17 .93      38      9     31     40     50  76.7  42.7  33970  286.35 0862.72
2015 04 09 13 24 18 .18      36      3     36     37     51  83.9  50.0  33970  286.35 0862.72
2015 04 09 13 24 18 .45      33      2     33     34     47  85.6  51.1  33976  286.47 0862.72
2015 04 09 13 24 18 .69      32      0     38     33     50  90.0  55.4  33990  286.69 0862.72
2015 04 09 13 24 18 .94      36     -2     36     37     51  94.3  50.0  33964  286.25 0862.72
2015 04 09 13 24 19 .20      47     -6     32     48     57  97.9  35.6  33982  286.56 0862.72
2015 04 09 13 24 19 .45      50     14     23     52     56  74.1  25.1  33998  286.83 0862.72
2015 04 09 13 24 19 .69       7     -3     47      8     47 115.3  90.0  34018  287.16 0862.72
2015 04 09 13 24 19 .94      49    -22     41     54     67 114.4  40.7  33992  286.73 0862.72
2015 04 09 13 24 20 .19      53    -33     21     63     67 122.4  18.9  34004  286.93 0862.72
2015 04 09 13 24 20 .44      30      0     32     31     44  90.8  49.1  33996  286.81 0862.72
2015 04 09 13 24 20 .70      25      9     38     27     46  70.0  61.5  34020  287.21 0862.72
2015 04 09 13 24 20 .95      18      6     32     19     37  71.6  64.7  34026  287.30 0862.72
2015 04 09 13 24 21 .20       6      1     28      7     28  78.5  84.9  34070  288.06 0862.72
2015 04 09 13 24 21 .45     -11      5     14     13     19 295.3  48.2  34086  288.31 0862.72
2015 04 09 13 24 21 .70      -7     -7     11     11     15 225.0  50.1  34078  288.18 0862.72
2015 04 09 13 24 21 .94      -7    -24     12     26     28 196.9  25.1  34062  287.91 0862.72
2015 04 09 13 24 22 .19     -14    -35     10     38     40 201.8  15.3  34012  287.06 0862.71
2015 04 09 13 24 22 .45      -2    -34     -9     35     37 184.4 -15.4  33994  286.76 0862.71
2015 04 09 13 24 22 .70      10    -52     -9     54     55 168.4 -10.3  33992  286.73 0862.71
2015 04 09 13 24 22 .95      24    -41      1     48     49 149.3   1.8  33984  286.59 0862.71
2015 04 09 13 24 23 .20      37    -35    -10     52     54 133.1 -11.3  33992  286.73 0862.71
2015 04 09 13 24 23 .46      50    -62    -20     80     83 141.3 -14.5  33982  286.57 0862.71
2015 04 09 13 24 23 .71      51    -66    -18     84     87 142.2 -12.4  33964  286.25 0862.71
2015 04 09 13 24 23 .97      53    -49    -24     73     76 133.1 -23.8  33984  286.61 0862.70
2015 04 09 13 24 24 .21      59    -55    -23     81     84 133.1 -21.2  33984  286.59 0862.70
2015 04 09 13 24 24 .46      57    -66    -13     88     90 139.0  -8.8  33974  286.42 0862.70
2015 04 09 13 24 24 .72      89    -63    -14    110    111 125.5  -7.3  33970  286.37 0862.70
2015 04 09 13 24 24 .96     108    -68      6    128    129 122.4   2.9  33986  286.64 0862.70
2015 04 09 13 24 25 .22     128    -68    -18    146    148 118.0  -7.2  34002  286.89 0862.70
2015 04 09 13 24 25 .47     109    -85     -3    139    140 127.7  -1.3  34044  287.60 0862.70
2015 04 09 13 24 25 .71     104    -67      2    125    126 122.9   1.2  34046  287.64 0862.70
2015 04 09 13 24 25 .97      74    -54     -2     92     93 126.4  -1.3  34050  287.70 0862.70
2015 04 09 13 24 26 .22      54    -37     -3     66     67 125.1  -3.1  34056  287.81 0862.70
2015 04 09 13 24 26 .46      49    -38      6     63     64 127.8   5.9  34068  288.03 0862.70
2015 04 09 13 24 26 .72      41    -43     14     60     62 135.8  13.2  34040  287.55 0862.71
2015 04 09 13 24 26 .96      36     -7    -10     37     38 101.5 -21.7  34012  287.06 0862.71
2015 04 09 13 24 27 .22      39      1     -8     40     41  87.4 -12.4  33984  286.61 0862.71
2015 04 09 13 24 27 .47      27     -4      8     28     30  99.7  17.3  34004  286.93 0862.71
2015 04 09 13 24 27 .72      35     -7     10     36     38 101.5  15.3  34000  286.86 0862.71
2015 04 09 13 24 27 .97      35    -28     -1     45     46 128.6  -2.2  34000  286.88 0862.71
2015 04 09 13 24 28 .22      66    -29     10     73     74 113.5   8.0  33998  286.84 0862.71
2015 04 09 13 24 28 .47      67    -38      4     78     79 119.8   3.3  33986  286.64 0862.71
2015 04 09 13 24 28 .72      69    -43      6     82     83 122.4   4.4  33974  286.44 0862.71
2015 04 09 13 24 28 .97      76    -48      0     90     91 122.4  -0.3  33968  286.32 0862.71
2015 04 09 13 24 29 .22      71    -45      9     85     86 122.5   6.5  33970  286.37 0862.71
2015 04 09 13 24 29 .47      71    -57      4     92     93 128.6   2.8  33958  286.17 0862.71
2015 04 09 13 24 29 .72      77    -58      2     97     98 127.3   1.2  33956  286.14 0862.71
2015 04 09 13 24 29 .98      74    -58     -4     95     96 128.2  -2.6  33948  286.00 0862.71
2015 04 09 13 24 30 .23      70    -51     -3     87     88 126.0  -2.2  33956  286.14 0862.71
2015 04 09 13 24 30 .48      72    -50     -2     88     89 125.1  -1.8  33962  286.24 0862.70
2015 04 09 13 24 30 .73      77    -47     -5     91     92 121.5  -3.7  33962  286.24 0862.70
2015 04 09 13 24 30 .99      70    -45    -19     84     87 122.5 -12.9  33964  286.27 0862.70
2015 04 09 13 24 31 .24      61    -39     -6     73     74 122.4  -5.2  33962  286.24 0862.70
2015 04 09 13 24 31 .49      50    -41     -5     65     66 129.5  -5.2  33960  286.19 0862.70
2015 04 09 13 24 31 .74      54    -37    -10     66     67 125.1  -9.3  33966  286.29 0862.70
2015 04 09 13 24 31 .99      48    -37     -7     61     62 127.8  -7.2  33968  286.32 0862.70
2015 04 09 13 24 32 .24      43    -36    -12     57     59 129.5 -12.4  33962  286.22 0862.70
2015 04 09 13 24 32 .49      45    -29    -12     54     56 123.3 -12.4  33968  286.32 0862.70
2015 04 09 13 24 32 .74      42    -26    -13     50     52 121.5 -15.5  33966  286.29 0862.70
2015 04 09 13 24 32 .99      46    -30    -23     56     60 123.3 -27.5  33974  286.44 0862.70
2015 04 09 13 24 33 .24      37    -32    -17     50     52 131.3 -23.6  33978  286.51 0862.70
2015 04 09 13 24 33 .49      40    -30    -21     51     55 126.9 -28.5  33976  286.46 0862.70
2015 04 09 13 24 33 .74      40    -33    -14     53     55 129.5 -15.4  33970  286.35 0862.70
2015 04 09 13 24 33 .99      48    -33    -17     59     62 125.1 -16.6  33964  286.27 0862.71
2015 04 09 13 24 34 .24      46    -29     -6     55     56 122.4  -6.2  33964  286.25 0862.71
2015 04 09 13 24 34 .49      52    -30     -7     61     62 119.8  -7.2  33962  286.22 0862.71
2015 04 09 13 24 34 .75      49    -25     -9     56     57 117.1  -9.3  33962  286.24 0862.71
2015 04 09 13 24 34 .99      47    -25    -18     54     58 118.0 -18.7  33968  286.32 0862.71
2015 04 09 13 24 35 .25      42    -26    -13     50     52 121.5 -15.5  33966  286.29 0862.71
2015 04 09 13 24 35 .49      19     -3    -12     20     23 101.5 -37.9  33960  286.19 0862.71
2015 04 09 13 24 35 .75       2    -35    -23     36     42 175.5 -39.9  33960  286.20 0862.71
2015 04 09 13 24 36 .00       0    -32    -25     33     41 180.9 -46.1  33954  286.08 0862.71
2015 04 09 13 24 36 .25       0    -32    -32     33     45 180.9 -54.4  33952  286.05 0862.71
2015 04 09 13 24 36 .50       4    -40    -41     41     57 173.8 -54.5  33964  286.27 0862.71
2015 04 09 13 24 36 .75      15    -45    -44     48     65 160.8 -52.3  33960  286.19 0862.71
2015 04 09 13 24 37 .00      30    -44    -36     54     64 145.7 -40.9  33958  286.15 0862.71
2015 04 09 13 24 37 .25      26    -36    -41     45     60 143.9 -52.3  33958  286.15 0862.71
2015 04 09 13 24 37 .51      22    -35    -39     42     57 148.4 -53.4  33956  286.14 0862.71
2015 04 09 13 24 37 .76      16    -36    -36     40     53 156.4 -52.3  33954  286.10 0862.71
2015 04 09 13 24 38 .02      20    -36    -39     42     57 150.1 -53.4  33962  286.24 0862.71
2015 04 09 13 24 38 .26      15    -21    -43     26     50 143.9 -70.1  33976  286.46 0862.71
2015 04 09 13 24 38 .51      16    -36    -36     40     53 156.4 -52.3  33964  286.27 0862.70
2015 04 09 13 24 38 .76      15    -23    -38     28     47 147.5 -63.8  33966  286.29 0862.70
2015 04 09 13 24 39 .01      16    -28    -36     33     48 149.3 -55.6  33968  286.32 0862.70
2015 04 09 13 24 39 .26      13    -32    -38     35     51 158.2 -56.6  33968  286.34 0862.70
2015 04 09 13 24 39 .51       4    -32    -41     33     52 172.0 -60.8  33968  286.32 0862.70
2015 04 09 13 24 39 .77       2    -35    -36     36     50 175.6 -54.5  33962  286.22 0862.70
2015 04 09 13 24 40 .02      -2    -40    -37     41     55 183.6 -51.3  33958  286.17 0862.70
2015 04 09 13 24 40 .27       0    -47    -32     48     57 180.9 -40.0  33962  286.22 0862.70
2015 04 09 13 24 40 .52      -3    -47    -37     48     60 184.5 -46.1  33964  286.27 0862.70
2015 04 09 13 24 40 .77       7    -44    -39     45     59 170.2 -50.2  33962  286.24 0862.70
2015 04 09 13 24 41 .02       4    -40    -41     41     57 173.8 -54.5  33960  286.20 0862.70
2015 04 09 13 24 41 .27       2    -35    -36     36     50 175.6 -54.5  33960  286.20 0862.71
2015 04 09 13 24 41 .53       9    -32    -36     34     49 163.1 -54.5  33962  286.22 0862.71
2015 04 09 13 24 41 .77      21    -37    -25     43     49 150.1 -37.9  33978  286.51 0862.71
2015 04 09 13 24 42 .02      16    -36    -16     40     43 156.4 -26.4  33978  286.51 0862.71
2015 04 09 13 24 42 .27       9    -41    -16     43     45 167.5 -24.4  33976  286.46 0862.71
2015 04 09 13 24 42 .52      11    -33    -16     35     38 161.3 -29.5  33978  286.51 0862.71
2015 04 09 13 24 42 .77       8    -38    -13     39     42 167.5 -18.7  33974  286.42 0862.71
2015 04 09 13 24 43 .02      16    -36     -4     40     41 155.5  -6.2  33966  286.30 0862.71
2015 04 09 13 24 43 .28      10    -40     -4     42     43 165.7  -6.2  33966  286.30 0862.71
2015 04 09 13 24 43 .52      15    -35    -12     39     41 156.4 -17.6  33970  286.37 0862.71
2015 04 09 13 24 43 .77      28    -42    -19     51     54 146.6 -24.4  33964  286.27 0862.71
2015 04 09 13 24 44 .03      24    -36    -22     44     49 145.7 -31.7  33954  286.08 0862.71
2015 04 09 13 24 44 .29      33    -41    -22     53     57 141.3 -27.4  33956  286.14 0862.71
2015 04 09 13 24 44 .54      37    -34    -24     51     56 133.1 -31.5  33958  286.15 0862.71
2015 04 09 13 24 44 .79      40    -21     -2     46     47 118.0  -3.1  33970  286.37 0862.71
2015 04 09 13 24 45 .04      29    -34      8     46     47 139.5  10.1  33972  286.41 0862.71
2015 04 09 13 24 45 .29      20    -32     -2     38     39 147.5  -3.1  33964  286.27 0862.71
2015 04 09 13 24 45 .54      23    -32     -4     40     41 143.9  -6.2  33966  286.29 0862.71
2015 04 09 13 24 45 .79      10    -33    -17     35     38 163.1 -31.6  33960  286.19 0862.71
2015 04 09 13 24 46 .04       8    -39    -14     40     43 167.5 -19.7  33958  286.17 0862.71
2015 04 09 13 24 46 .29      16    -36    -23     40     46 156.4 -37.9  33954  286.10 0862.71
2015 04 09 13 24 46 .54       5    -31    -21     32     38 170.2 -40.0  33956  286.14 0862.71
2015 04 09 13 24 46 .79       2    -35    -16     36     39 175.6 -29.5  33950  286.03 0862.71
2015 04 09 13 24 47 .04       0    -32    -18     33     37 180.9 -35.8  33952  286.07 0862.71
2015 04 09 13 24 47 .29       5    -31    -27     32     41 170.2 -49.2  33958  286.17 0862.71
2015 04 09 13 24 47 .54       1    -24    -26     25     36 175.5 -52.6  33960  286.20 0862.71
2015 04 09 13 24 47 .80       9    -28    -25     30     39 161.3 -48.2  33966  286.29 0862.71
2015 04 09 13 24 48 .05       8    -20    -25     22     33 158.2 -58.7  33972  286.39 0862.71
2015 04 09 13 24 48 .30       5    -25    -21     26     33 168.4 -48.1  33990  286.71 0862.71
2015 04 09 13 24 48 .55       1    -12    -16     13     20 172.0 -60.8  34000  286.88 0862.71
2015 04 09 13 24 48 .80       7    -11    -12     14     18 147.5 -56.4  33994  286.78 0862.71
2015 04 09 13 24 49 .04       1    -16    -12     17     20 175.6 -44.1  33984  286.61 0862.71
2015 04 09 13 24 49 .30       0    -16    -12     17     20 182.7 -44.1  33984  286.61 0862.71
2015 04 09 13 24 49 .55      -4    -12    -12     13     17 198.3 -56.4  33988  286.66 0862.71
2015 04 09 13 24 49 .80      -4    -12    -12     13     17 198.3 -56.4  34000  286.88 0862.71
2015 04 09 13 24 50 .05      -9    -12    -10     16     18 216.1 -39.9  34008  287.01 0862.71
2015 04 09 13 24 50 .30      -9    -12    -10     16     18 216.1 -39.9  33996  286.81 0862.71
2015 04 09 13 24 50 .55     -16     -6     -3     18     19 248.3 -11.3  33984  286.61 0862.71
2015 04 09 13 24 50 .80     -12     -4      0     13     14 251.4  -3.1  33984  286.59 0862.71
2015 04 09 13 24 51 .05     -12     -4      0     13     14 251.4  -3.1  33978  286.49 0862.71
2015 04 09 13 24 51 .31     -20      0     -1     21     22 267.4  -3.1  33964  286.27 0862.71
2015 04 09 13 24 51 .56     -27      2     -2     28     29 274.4  -5.2  33962  286.22 0862.71
2015 04 09 13 24 51 .82     -24      4     -1     25     26 281.5  -2.2  33950  286.03 0862.71
2015 04 09 13 24 52 .06     -32      6      0     33     34 281.4  -1.2  33952  286.05 0862.71
2015 04 09 13 24 52 .32     -27      6      0     28     29 283.3   0.8  33972  286.39 0862.71
2015 04 09 13 24 52 .56     -36      8      1     37     38 283.3   2.8  33980  286.54 0862.71
2015 04 09 13 24 52 .82     -32     20      3     39     40 302.4   4.9  33984  286.61 0862.71
2015 04 09 13 24 53 .07     -41     16      2     45     46 291.7   2.9  33956  286.14 0862.71
2015 04 09 13 24 53 .32     -44     24      7     51     52 298.9   8.0  33952  286.05 0862.71
2015 04 09 13 24 53 .57     -55     33     10     65     66 301.5   9.0  33960  286.20 0862.71
2015 04 09 13 24 53 .82     -33     36     17     50     53 317.7  18.9  34004  286.93 0862.70
2015 04 09 13 24 54 .07     -51     10     23     53     57 281.5  25.1  34010  287.03 0862.70
2015 04 09 13 24 54 .32     -54      0     27     55     61 270.0  27.3  34030  287.37 0862.70
2015 04 09 13 24 54 .57     -35      0     18     36     40 270.9  29.3  34022  287.25 0862.70
2015 04 09 13 24 54 .83     -32     -4     21     33     39 262.1  35.5  34036  287.49 0862.70
2015 04 09 13 24 55 .08     -11      1     31     12     33 277.9  81.2  34106  288.65 0862.70
2015 04 09 13 24 55 .32      -6      0     39      7     39 265.6  90.0  34134  289.14 0862.70
2015 04 09 13 24 55 .57      -1    -12     44     13     45 184.5  82.8  34048  287.67 0862.70
2015 04 09 13 24 55 .83       1    -20     36     21     41 175.5  67.7  34064  287.94 0862.70
2015 04 09 13 24 56 .07       1    -19     37     20     42 175.5  69.8  34054  287.77 0862.70
2015 04 09 13 24 56 .33     -13    -13     45     19     48 223.4  77.1  34120  288.91 0862.70
2015 04 09 13 24 56 .57      -2    -31     43     32     53 184.5  59.4  34080  288.23 0862.70
2015 04 09 13 24 56 .82       9    -43     32     45     55 167.5  38.6  34062  287.92 0862.70
2015 04 09 13 24 57 .08       2    -35     29     36     46 175.6  42.7  34012  287.06 0862.70
2015 04 09 13 24 57 .32      32    -36     23     49     54 138.6  27.1  33976  286.46 0862.70
2015 04 09 13 24 57 .58      41    -29     17     51     54 125.1  18.9  33978  286.51 0862.70
2015 04 09 13 24 57 .83      46    -29     23     55     59 122.4  23.1  33978  286.51 0862.70
2015 04 09 13 24 58 .12      41    -22     25     47     53 118.0  30.3  34008  287.01 0862.70
2015 04 09 13 24 58 .34      54    -17     33     57     65 107.7  33.5  34008  287.01 0862.70
2015 04 09 13 24 58 .59      52    -13     58     54     79 104.2  51.6  34058  287.84 0862.70
2015 04 09 13 24 58 .84      53    -13     58     55     79 104.2  51.2  34072  288.09 0862.70
2015 04 09 13 24 59 .09      57    -26     48     63     79 115.2  41.2  34110  288.72 0862.70
2015 04 09 13 24 59 .35      51    -54     25     75     80 136.7  18.9  34098  288.53 0862.70
2015 04 09 13 24 59 .59      37    -50     30     63     69 143.0  27.2  34126  288.99 0862.70
2015 04 09 13 24 59 .84      30    -37     29     48     56 141.3  35.5  34126  288.99 0862.70
2015 04 09 13 25 00 .09      17    -33     39     38     54 152.8  49.1  34116  288.82 0862.70
2015 04 09 13 25 00 .34       4    -32     38     33     50 172.0  55.4  34078  288.18 0862.70
2015 04 09 13 25 00 .59      -4    -51     47     52     70 184.5  46.9  34034  287.43 0862.70
2015 04 09 13 25 00 .85      -5    -43     40     44     59 187.1  47.9  34028  287.35 0862.70
2015 04 09 13 25 01 .09       0    -44     44     45     62 180.0  50.0  34026  287.30 0862.70
2015 04 09 13 25 01 .35       8    -57     36     58     68 171.1  35.5  34058  287.84 0862.70
2015 04 09 13 25 01 .60       8    -52     40     53     66 171.1  40.7  34072  288.09 0862.70
2015 04 09 13 25 01 .85      15    -50     54     53     75 163.1  49.1  34110  288.74 0862.70
2015 04 09 13 25 02 .10      -9    -60     49     61     78 188.9  43.7  34114  288.80 0862.70
2015 04 09 13 25 02 .36     -27    -65     68     71     98 202.7  49.4  34146  289.33 0862.70
2015 04 09 13 25 02 .60     -43    -77     65     89    110 209.4  39.7  34052  287.76 0862.70
2015 04 09 13 25 02 .85     -38    -64     52     75     91 210.7  38.0  34042  287.59 0862.70
2015 04 09 13 25 03 .11     -38    -59     49     71     86 212.5  38.0  34032  287.40 0862.70
2015 04 09 13 25 03 .35     -31    -55     49     64     80 209.0  41.2  34044  287.62 0862.70
2015 04 09 13 25 03 .60     -31    -41     42     52     66 217.8  43.7  34072  288.08 0862.70
2015 04 09 13 25 03 .85     -30    -42     48     52     70 216.1  47.9  34050  287.72 0862.70
2015 04 09 13 25 04 .11     -31    -49     56     59     81 212.6  48.5  34046  287.65 0862.70
2015 04 09 13 25 04 .35     -28    -35     59     46     74 218.7  57.5  34066  287.99 0862.70
2015 04 09 13 25 04 .61     -16    -41     63     45     77 201.8  60.6  34064  287.96 0862.70
2015 04 09 13 25 04 .86       0    -47     60     48     76 180.9  56.4  34100  288.55 0862.70
2015 04 09 13 25 05 .12      -9    -60     64     61     88 188.9  50.7  34174  289.82 0862.70
2015 04 09 13 25 05 .36      11    -53     52     55     75 167.5  48.0  34180  289.91 0862.70
2015 04 09 13 25 05 .61      24    -36     45     44     62 145.7  50.1  34146  289.33 0862.70
2015 04 09 13 25 05 .87      17    -42     47     46     65 158.2  50.1  34120  288.89 0862.70
2015 04 09 13 25 06 .12      -4    -56     49     57     75 184.4  44.8  34162  289.60 0862.70
2015 04 09 13 25 06 .37       3    -34     38     35     51 173.8  52.2  34182  289.94 0862.70
2015 04 09 13 25 06 .61       9    -17     29     20     35 151.0  64.6  34136  289.18 0862.70
2015 04 09 13 25 06 .88      24    -62     32     67     74 158.2  27.1  34130  289.06 0862.70
2015 04 09 13 25 07 .12      28    -35     40     45     60 141.3  46.9  34218  290.55 0862.70
2015 04 09 13 25 07 .37      34    -46     55     58     79 143.0  49.0  34216  290.52 0862.70
2015 04 09 13 25 07 .62       0      4     41      5     41 350.3  90.0  34218  290.55 0862.70
2015 04 09 13 25 07 .87     -16    -48     70     51     86 198.5  60.5  34118  288.87 0862.70
2015 04 09 13 25 08 .12     -41    -56     13     70     72 216.1  11.0  34114  288.79 0862.70
2015 04 09 13 25 08 .38      18    -66     31     69     75 164.8  27.1  34126  289.01 0862.70
2015 04 09 13 25 08 .62      16    -84     49     86     98 168.9  31.9  34110  288.74 0862.70
2015 04 09 13 25 08 .88      17    -90     58     92    108 168.9  35.5  34120  288.91 0862.70
2015 04 09 13 25 09 .12      30    -98     82    103    131 162.6  43.3  34104  288.64 0862.70
2015 04 09 13 25 09 .37      50   -105    -15    117    118 154.5  -7.3  34020  287.21 0862.70
2015 04 09 13 25 09 .62      34    -84    -15     91     93 157.7  -9.8  33998  286.83 0862.70
2015 04 09 13 25 09 .87      46    -80    -18     93     95 149.7 -11.3  33968  286.32 0862.70
2015 04 09 13 25 10 .13      32    -80      8     87     88 158.2   5.4  33970  286.37 0862.70
2015 04 09 13 25 10 .38      47    -81    -12     94     95 149.7  -7.3  33982  286.56 0862.70
2015 04 09 13 25 10 .63      52    -81    -19     97     99 147.5 -11.3  33968  286.32 0862.70
2015 04 09 13 25 10 .88      68    -67    -19     96     98 134.6 -11.3  33974  286.42 0862.70
2015 04 09 13 25 11 .14      70    -77    -27    105    109 137.7 -14.5  33990  286.71 0862.70
2015 04 09 13 25 11 .38      63   -114    -26    131    134 151.0 -11.3  33996  286.81 0862.70
2015 04 09 13 25 11 .64      42   -117    -34    125    130 159.9 -15.5  33968  286.32 0862.70
2015 04 09 13 25 11 .88      63    -96    -35    116    122 146.6 -17.0  34006  286.96 0862.70
2015 04 09 13 25 12 .14      47   -100    -35    111    117 154.5 -17.6  33994  286.76 0862.70
2015 04 09 13 25 12 .39      32   -103    -20    108    111 162.6 -10.9  33964  286.27 0862.70
2015 04 09 13 25 12 .65      34   -125    -11    130    131 164.4  -5.2  33978  286.49 0862.70
2015 04 09 13 25 12 .89      44   -122    -14    130    131 159.9  -6.2  33956  286.14 0862.70
2015 04 09 13 25 13 .14      42   -117     -9    125    126 159.9  -4.1  33950  286.02 0862.70
2015 04 09 13 25 13 .39      46   -130     -1    139    140 160.4  -0.7  33948  285.98 0862.70
2015 04 09 13 25 14 .15      59   -108     -8    124    125 151.5  -4.1  33960  286.19 0862.70
2015 04 09 13 25 14 .40      50   -106     -7    118    119 154.5  -3.7  33966  286.30 0862.70
2015 04 09 13 25 14 .65      56    -96    -12    112    113 149.7  -6.2  33984  286.59 0862.70
2015 04 09 13 25 14 .90      68    -94      0    117    118 143.9  -0.3  33998  286.83 0862.70
2015 04 09 13 25 15 .15      76    -81     15    112    114 136.7   8.0  33992  286.73 0862.70
2015 04 09 13 25 15 .40      74    -94     29    121    125 141.7  13.7  33992  286.74 0862.70
2015 04 09 13 25 15 .65      78   -125     40    148    154 147.9  15.2  33990  286.69 0862.70
2015 04 09 13 25 15 .90      93   -144     22    172    174 147.0   7.5  33960  286.19 0862.70
2015 04 09 13 25 16 .16     100   -157     32    187    190 147.4   9.9  33986  286.64 0862.70
2015 04 09 13 25 16 .41      95   -176     25    201    203 151.5   7.1  34006  286.96 0862.70
2015 04 09 13 25 16 .66      70   -164     -7    179    180 156.8  -2.2  34074  288.11 0862.70
2015 04 09 13 25 16 .90      51   -152    -24    161    163 161.3  -8.8  34082  288.26 0862.69
2015 04 09 13 25 17 .15      11   -135    -18    136    138 175.1  -7.7  34042  287.57 0862.69
2015 04 09 13 25 17 .41     -10   -130     11    131    132 184.5   5.0  34040  287.54 0862.69
2015 04 09 13 25 17 .66     -10   -122     10    123    124 184.9   5.0  34036  287.49 0862.69
2015 04 09 13 25 17 .90      39   -112     42    119    127 160.8  19.4  34062  287.91 0862.69
2015 04 09 13 25 18 .16      45   -105     37    115    121 156.8  17.9  34036  287.47 0862.69
2015 04 09 13 25 18 .41      26    -77     44     82     93 161.3  30.3  34052  287.74 0862.69
2015 04 09 13 25 18 .66      18    -96     -5     98     99 168.9  -3.1  34056  287.81 0862.70
2015 04 09 13 25 18 .91       0    -90     22     91     94 179.5  13.7  34064  287.94 0862.70
2015 04 09 13 25 19 .16      57   -142     30    154    157 158.1  11.1  34006  286.96 0862.70
2015 04 09 13 25 19 .43      63   -154     15    167    168 157.7   5.4  33962  286.22 0862.70
2015 04 09 13 25 19 .67      55   -167     -3    176    177 161.7  -1.3  33950  286.03 0862.70
2015 04 09 13 25 19 .92      50   -165      0    173    174 163.1   0.2  33946  285.95 0862.70
2015 04 09 13 25 20 .17      53   -159     12    168    169 161.3   4.2  33972  286.41 0862.70
2015 04 09 13 25 20 .42      55   -163      8    173    174 161.3   2.9  33966  286.30 0862.70
2015 04 09 13 25 20 .67      53   -173     -8    182    183 162.8  -2.6  33946  285.95 0862.70
2015 04 09 13 25 20 .93      57   -174      3    184    185 161.7   1.0  33988  286.67 0862.70
2015 04 09 13 25 21 .17      58   -195      7    204    205 163.5   2.1  33972  286.41 0862.70
2015 04 09 13 25 21 .42      31   -169     11    172    173 169.5   3.8  33938  285.82 0862.70
2015 04 09 13 25 21 .67      39   -170     -9    175    176 167.1  -3.1  33944  285.93 0862.70
2015 04 09 13 25 21 .92      58   -163    -14    174    175 160.2  -4.9  33944  285.93 0862.70
2015 04 09 13 25 22 .17      48   -157    -11    165    166 163.1  -4.1  33942  285.90 0862.70
2015 04 09 13 25 22 .42      59   -154    -15    166    167 158.8  -5.4  33948  285.98 0862.70
2015 04 09 13 25 22 .68      61   -156    -26    168    171 158.6  -9.0  33946  285.95 0862.70
2015 04 09 13 25 22 .92      57   -150    -17    161    162 159.1  -6.2  33946  285.95 0862.70
2015 04 09 13 25 23 .18      62   -159    -13    171    172 158.6  -4.4  33946  285.95 0862.69
2015 04 09 13 25 23 .42      57   -150    -17    161    162 159.1  -6.2  33946  285.95 0862.69
2015 04 09 13 25 23 .68      47   -144    -19    152    154 161.7  -7.2  33950  286.02 0862.69
2015 04 09 13 25 23 .93      51   -147     -8    156    157 160.8  -3.3  33962  286.24 0862.69
2015 04 09 13 25 24 .18      43   -159     -5    165    166 164.6  -1.8  33974  286.44 0862.69
2015 04 09 13 25 24 .43      52   -162     -5    171    172 162.2  -1.8  34014  287.11 0862.69
2015 04 09 13 25 24 .68      58   -174     -5    184    185 161.3  -1.6  33974  286.42 0862.69
2015 04 09 13 25 24 .93      48   -154     -2    162    163 162.6  -0.7  33972  286.41 0862.69
2015 04 09 13 25 25 .18      44   -150     -4    157    158 163.5  -1.6  33984  286.59 0862.69
2015 04 09 13 25 25 .44      40   -161     -6    166    167 166.0  -2.2  33956  286.12 0862.69
2015 04 09 13 25 25 .69      22   -158     14    160    161 171.9   5.2  34050  287.72 0862.69
2015 04 09 13 25 25 .93      31   -119     38    124    130 165.3  17.3  34068  288.01 0862.69
2015 04 09 13 25 26 .20      32   -138      7    142    143 166.7   2.9  33998  286.84 0862.69
2015 04 09 13 25 26 .44      46   -138     -6    146    147 161.5  -2.6  33976  286.47 0862.69
2015 04 09 13 25 26 .70      20   -141     -5    143    144 171.9  -2.2  34004  286.93 0862.69
2015 04 09 13 25 26 .94      57   -131      2    143    144 156.4   0.8  33986  286.64 0862.69
2015 04 09 13 25 27 .21      48   -137     24    146    149 160.4   9.5  33992  286.73 0862.69
2015 04 09 13 25 27 .44      52   -131     18    142    144 158.2   7.5  33966  286.30 0862.69
2015 04 09 13 25 27 .71      60   -130      0    144    145 155.1   0.2  33944  285.92 0862.69
2015 04 09 13 25 27 .95      66   -148     19    163    165 155.9   6.7  33964  286.25 0862.69
2015 04 09 13 25 28 .20      77   -140     21    160    162 151.1   7.5  33948  286.00 0862.69
2015 04 09 13 25 28 .45      58   -144     10    156    157 158.1   3.8  33942  285.90 0862.69
2015 04 09 13 25 28 .70      60   -150      8    162    163 158.1   2.9  33946  285.97 0862.69
2015 04 09 13 25 28 .95      69   -146      2    162    163 154.6   0.8  33948  286.00 0862.69
2015 04 09 13 25 29 .20      70   -154     -6    170    171 155.7  -2.2  33950  286.03 0862.69
2015 04 09 13 25 29 .45      71   -156      8    172    173 155.5   2.8  33964  286.25 0862.69
2015 04 09 13 25 29 .71      73   -151      2    168    169 154.1   0.8  33956  286.14 0862.69
2015 04 09 13 25 29 .95      62   -142      0    156    157 156.3  -0.3  33964  286.27 0862.69
2015 04 09 13 25 30 .21      73   -151     -6    168    169 154.1  -2.1  33990  286.69 0862.69
2015 04 09 13 25 30 .45      45   -162     -1    169    170 164.4  -0.5  33972  286.39 0862.69
2015 04 09 13 25 30 .70      41   -176    -21    181    183 166.9  -6.7  33948  285.98 0862.69
2015 04 09 13 25 30 .96      69   -112     31    132    136 148.4  13.2  34020  287.20 0862.69
2015 04 09 13 25 31 .21      64   -127      8    143    144 153.3   3.3  34026  287.30 0862.68
2015 04 09 13 25 31 .46      62   -112     30    129    133 151.1  13.1  34050  287.70 0862.68
2015 04 09 13 25 31 .71      13   -137     32    138    142 174.2  13.2  34050  287.70 0862.68
2015 04 09 13 25 31 .97      64   -137     24    152    154 154.7   9.0  34036  287.47 0862.68
2015 04 09 13 25 32 .21      81   -158     34    178    182 152.8  11.0  34022  287.25 0862.68
2015 04 09 13 25 32 .46      69   -151     65    167    179 155.5  22.5  34044  287.60 0862.68
2015 04 09 13 25 32 .71     101   -132     40    167    172 142.6  13.7  34032  287.42 0862.68
2015 04 09 13 25 32 .98     108   -154      9    189    190 145.0   2.9  33984  286.59 0862.68
2015 04 09 13 25 33 .22     120   -160     15    201    202 143.0   4.4  34034  287.43 0862.68
2015 04 09 13 25 33 .47     141   -143     71    201    213 135.5  20.0  34108  288.70 0862.68
2015 04 09 13 25 33 .72     122   -147     69    192    204 140.4  20.4  34066  287.98 0862.68
2015 04 09 13 25 33 .98     136   -136     37    193    197 135.0  11.1  33978  286.51 0862.68
2015 04 09 13 25 34 .23     134   -153     59    204    213 138.8  16.3  34026  287.30 0862.68
2015 04 09 13 25 34 .48     109   -131     83    171    190 140.1  27.4  34110  288.72 0862.68
2015 04 09 13 25 34 .72      94   -138     69    168    181 145.7  23.4  34044  287.60 0862.68
2015 04 09 13 25 34 .98     114   -163     62    200    210 145.0  17.3  33984  286.61 0862.68
2015 04 09 13 25 35 .22     106   -183     27    212    214 149.9   7.5  34026  287.30 0862.68
2015 04 09 13 25 35 .47      65   -162     -9    175    176 158.2  -3.1  34004  286.93 0862.68
2015 04 09 13 25 35 .72      74   -156    -19    173    175 154.4  -6.5  33956  286.14 0862.68
2015 04 09 13 25 35 .97      64   -135    -23    150    152 154.7  -8.8  33950  286.03 0862.68
2015 04 09 13 25 36 .23      80   -148    -21    169    171 151.5  -7.3  33942  285.90 0862.68
2015 04 09 13 25 36 .48      91   -149    -11    175    176 148.6  -3.9  33942  285.90 0862.68
2015 04 09 13 25 36 .73      91   -149    -11    175    176 148.6  -3.9  33942  285.90 0862.68
2015 04 09 13 25 36 .98      92   -145     -9    173    174 147.5  -3.3  33944  285.93 0862.68
2015 04 09 13 25 37 .23      73   -144    -21    162    164 153.0  -7.7  33948  286.00 0862.68
2015 04 09 13 25 37 .48      83   -145    -21    168    170 150.1  -7.2  33954  286.08 0862.68
2015 04 09 13 25 37 .73      74   -134    -30    154    157 151.1 -11.1  33950  286.03 0862.68
2015 04 09 13 25 37 .98      64   -127    -18    143    145 153.3  -7.2  33948  286.00 0862.68
2015 04 09 13 25 38 .23      67   -126    -13    143    144 151.9  -5.6  33948  285.98 0862.68
2015 04 09 13 25 38 .48      77   -128    -19    150    152 148.8  -7.2  33944  285.93 0862.68
2015 04 09 13 25 38 .73     106   -130     -5    168    169 140.8  -1.8  33948  286.00 0862.68
2015 04 09 13 36 36 .69      81     76     16    112    114  46.9   8.5  34004  286.93 0862.54
2015 04 09 13 36 36 .94      88     77     30    118    122  48.7  14.3  34040  287.55 0862.54
2015 04 09 13 36 37 .18      76     78     17    110    112  44.1   9.0  34010  287.05 0862.54
2015 04 09 13 36 37 .43      71     87     -4    113    114  39.2  -2.2  34000  286.88 0862.54
2015 04 09 13 36 37 .69      62     74     -3     97     98  40.1  -2.2  34010  287.05 0862.54
2015 04 09 13 36 37 .94      73     66      5     99    100  47.8   2.9  34032  287.40 0862.54
2015 04 09 13 36 38 .19      53     71     23     89     93  37.0  14.7  34034  287.45 0862.54
2015 04 09 13 36 38 .44      56     59     45     82     93  43.2  30.8  34096  288.48 0862.54
2015 04 09 13 36 38 .76      73     69     43    101    109  46.9  24.6  34122  288.92 0862.54
2015 04 09 13 36 38 .94      73     74     21    105    108  44.5  11.6  33984  286.61 0862.54
2015 04 09 13 36 39 .19      78     68     28    104    108  48.7  15.3  33978  286.51 0862.54
2015 04 09 13 36 39 .44      73     67     14    100    102  47.3   8.0  33980  286.52 0862.54
2015 04 09 13 36 39 .69      70     59     13     92     94  50.0   8.5  33974  286.42 0862.54
2015 04 09 13 36 39 .94      67     60     17     91     93  48.2  11.0  33976  286.46 0862.54
2015 04 09 13 36 40 .19      64     60     29     88     93  46.9  18.4  34042  287.57 0862.54
2015 04 09 13 36 40 .44      48     68     29     84     90  35.2  19.2  34018  287.18 0862.54
2015 04 09 13 36 40 .71      34     76     54     84     99  24.1  35.6  34102  288.58 0862.54
2015 04 09 13 36 40 .96      14     72     48     74     88  11.6  36.0  34074  288.13 0862.54
2015 04 09 13 36 41 .20      16     74     62     76     98  12.5  43.7  34156  289.52 0862.54
2015 04 09 13 36 41 .45      18     56     58     59     82  18.3  50.0  34124  288.96 0862.54
2015 04 09 13 36 41 .70      40     75     46     86     97  28.1  30.3  34048  287.67 0862.54
2015 04 09 13 36 41 .96      79     95     36    124    130  39.7  16.3  34024  287.28 0862.54
2015 04 09 13 36 42 .21      54     98     46    113    122  28.9  23.0  34006  286.98 0862.54
2015 04 09 13 36 42 .46      67     97     22    119    122  34.7  10.6  33994  286.78 0862.54
2015 04 09 13 36 42 .71      96    104     18    142    144  42.8   7.5  33990  286.71 0862.54
2015 04 09 13 36 42 .96      82    105     11    134    135  37.9   5.0  33996  286.79 0862.54
2015 04 09 13 36 43 .21      54    109      9    122    123  26.3   4.4  33982  286.57 0862.54
2015 04 09 13 36 43 .46      46    102      7    113    114  24.5   3.8  33986  286.64 0862.54
2015 04 09 13 36 43 .71      73     92     -1    118    119  38.7  -0.7  34006  286.96 0862.54
2015 04 09 13 36 43 .96      57     78     -3     97     98  36.1  -2.2  34000  286.88 0862.54
2015 04 09 13 36 44 .21      54     75      8     93     94  35.6   5.4  34002  286.91 0862.54
2015 04 09 13 36 44 .47      57     88      5    105    106  33.0   2.8  34018  287.16 0862.54
2015 04 09 13 36 44 .72      37     99     36    106    113  20.9  18.9  34026  287.30 0862.53
2015 04 09 13 36 44 .97      32     97     35    103    109  18.3  18.9  34070  288.06 0862.53
2015 04 09 13 36 45 .22      32     97     35    103    109  18.3  18.9  34038  287.52 0862.53
2015 04 09 13 36 45 .47       9    125     22    126    129   4.4  10.1  34136  289.16 0862.53
2015 04 09 13 36 45 .72      14    192     37    193    197   4.4  11.1  34102  288.60 0862.53
2015 04 09 13 36 45 .97      22    191     56    193    202   6.7  16.3  34120  288.91 0862.53
2015 04 09 13 36 46 .22     -14    156     73    157    173 354.7  26.6  34158  289.55 0862.53
2015 04 09 13 36 46 .47      21    154     74    156    172   8.0  27.2  34164  289.63 0862.53
2015 04 09 13 36 46 .72      -9    137     59    138    150 356.0  24.6  34108  288.69 0862.53
2015 04 09 13 36 46 .97     -29    145     63    148    160 348.5  24.3  34160  289.57 0862.53
2015 04 09 13 36 47 .25     -34    170     66    174    186 348.4  22.0  34094  288.45 0862.53
2015 04 09 13 36 47 .47     -39    193     48    197    203 348.5  13.9  33978  286.51 0862.53
2015 04 09 13 36 47 .79     -15    202     33    203    206 355.5   9.3  33972  286.41 0862.53
2015 04 09 13 36 47 .98      -7    203     12    204    205 357.8   3.6  33972  286.41 0862.53
2015 04 09 13 36 48 .23     -14    188     22    189    191 355.5   6.7  33970  286.37 0862.54
2015 04 09 13 36 48 .48     -38    187     17    191    192 348.4   5.2  33966  286.29 0862.54
2015 04 09 13 36 48 .73     -32    187     22    190    192 350.2   6.9  33962  286.24 0862.54
2015 04 09 13 36 48 .98     -34    179      8    183    184 349.3   2.8  33966  286.29 0862.54
2015 04 09 13 36 49 .23     -33    178     16    182    183 349.3   5.2  33962  286.22 0862.54
2015 04 09 13 36 49 .48     -38    187      9    191    192 348.4   2.9  33962  286.22 0862.54
2015 04 09 13 36 49 .73     -38    187      9    191    192 348.4   2.9  33962  286.22 0862.54
2015 04 09 13 36 49 .98     -37    178     18    182    183 348.2   5.9  33962  286.24 0862.54
2015 04 09 13 36 50 .23     -37    178     18    182    183 348.2   5.9  33962  286.24 0862.54
2015 04 09 13 36 50 .49     -38    187     26    191    193 348.4   7.8  33960  286.20 0862.54
2015 04 09 13 36 50 .74     -33    178     33    182    185 349.3  10.3  33962  286.22 0862.54
2015 04 09 13 36 50 .99     -41    176     52    181    189 346.6  16.0  33968  286.32 0862.54
2015 04 09 13 36 51 .24     -42    178     49    184    191 346.6  15.0  33970  286.35 0862.54
2015 04 09 13 36 51 .49     -37    152     26    157    160 346.2   9.5  33970  286.37 0862.54
2015 04 09 13 36 51 .74     -44    133      6    141    142 341.5   2.8  33998  286.83 0862.54
2015 04 09 13 36 51 .99     -42    106     40    115    122 338.1  19.4  34024  287.27 0862.54
2015 04 09 13 36 52 .24     -44     93     33    104    110 334.5  17.9  34020  287.21 0862.54
2015 04 09 13 36 52 .49     -62    166     -1    178    179 339.5  -0.5  34016  287.15 0862.54
2015 04 09 13 36 52 .74     -49    150     39    158    163 341.7  13.9  34006  286.98 0862.54
2015 04 09 13 36 53 .00     -30    142     28    146    149 348.0  11.1  33996  286.79 0862.54
2015 04 09 13 36 53 .24     -43    118     11    126    127 340.0   5.4  34002  286.91 0862.54
2015 04 09 13 36 53 .49     -57    143     -8    155    156 338.1  -3.1  33988  286.67 0862.54
2015 04 09 13 36 53 .75     -60    182      9    192    193 341.5   2.9  33978  286.49 0862.53
2015 04 09 13 36 54 .00     -72    150      3    167    168 334.4   1.2  33994  286.76 0862.53
2015 04 09 13 36 54 .25     -58    175     -4    185    186 341.5  -1.3  33996  286.81 0862.53
2015 04 09 13 36 54 .50     -68    179      0    192    193 339.1  -0.3  33976  286.46 0862.53
2015 04 09 13 36 54 .76     -70    190     -3    203    204 339.5  -1.1  33968  286.32 0862.53
2015 04 09 13 36 55 .01     -68    174      1    187    188 338.6   0.5  33964  286.27 0862.53
2015 04 09 13 36 55 .26     -62    186    -12    197    198 341.5  -3.7  33958  286.17 0862.53
2015 04 09 13 36 55 .51     -66    182     -6    194    195 340.0  -1.8  33964  286.25 0862.52
2015 04 09 13 36 55 .76     -73    178    -10    193    194 337.7  -3.2  33964  286.27 0862.52
2015 04 09 13 36 56 .01     -78    182    -22    199    201 336.8  -6.5  33958  286.15 0862.52
2015 04 09 13 36 56 .26     -79    187    -26    204    206 337.1  -7.3  33960  286.19 0862.52
2015 04 09 13 36 56 .51     -86    172    -27    193    195 333.5  -8.0  33968  286.34 0862.52
2015 04 09 13 36 56 .76     -93    169    -29    193    196 331.1  -8.6  33960  286.19 0862.52
2015 04 09 13 36 57 .01    -121    149    -38    193    197 321.0 -11.3  33964  286.27 0862.52
2015 04 09 13 36 57 .26    -105    132    -44    169    175 321.5 -14.7  33974  286.44 0862.52
2015 04 09 13 36 57 .51    -104    110    -36    152    157 316.7 -13.4  33970  286.37 0862.53
2015 04 09 13 36 57 .76    -100    119    -41    156    162 319.9 -14.7  33966  286.30 0862.53
2015 04 09 13 36 58 .01     -71    130    -29    149    152 331.1 -11.3  33966  286.30 0862.53
2015 04 09 13 36 58 .26     -66    150    -19    165    167 336.2  -6.9  33966  286.30 0862.53
2015 04 09 13 36 58 .52     -64    149    -21    163    165 336.8  -7.3  33974  286.42 0862.53
2015 04 09 13 36 58 .76     -52    154    -17    163    164 341.3  -6.2  33980  286.54 0862.53
2015 04 09 13 36 59 .02     -55    130    -20    142    144 336.8  -8.2  33976  286.47 0862.53
2015 04 09 13 36 59 .27     -48    127    -27    137    140 339.1 -11.5  33982  286.57 0862.53
2015 04 09 13 36 59 .51     -44    134    -23    142    144 341.5  -9.3  33982  286.56 0862.53
2015 04 09 13 36 59 .77     -40    143    -28    149    152 344.4 -10.9  33978  286.49 0862.53
2015 04 09 13 37 00 .02     -50    131    -31    141    145 339.1 -12.4  33980  286.54 0862.53
2015 04 09 13 37 00 .26     -52    129    -23    140    142 338.2  -9.4  33966  286.29 0862.53
2015 04 09 13 37 00 .52     -55    119    -35    132    137 335.1 -15.0  33968  286.34 0862.53
2015 04 09 13 37 00 .77     -46    113    -34    123    128 337.7 -15.5  33968  286.34 0862.53
2015 04 09 13 37 01 .02     -38    113    -24    120    123 341.3 -11.3  33972  286.41 0862.52
2015 04 09 13 37 01 .27     -48     98    -23    110    113 334.1 -11.9  33986  286.62 0862.52
2015 04 09 13 37 01 .53     -71     90    -18    115    117 321.7  -9.3  33968  286.32 0862.52
2015 04 09 13 37 01 .78     -64     86    -28    108    112 323.5 -15.0  33966  286.30 0862.52
2015 04 09 13 37 02 .04     -68     93    -24    116    119 323.9 -11.9  33970  286.37 0862.52
2015 04 09 13 37 02 .28     -48     98    -17    110    112 334.1  -8.8  34000  286.88 0862.52
2015 04 09 13 37 02 .54     -47     90     -8    102    103 332.4  -4.6  34002  286.91 0862.52
2015 04 09 13 37 02 .79     -66     61     -3     90     91 312.7  -2.2  33998  286.83 0862.52
2015 04 09 13 37 03 .04     -38     73     -6     83     84 332.4  -4.1  34004  286.93 0862.52
2015 04 09 13 37 03 .29     -42     98    -13    107    108 336.8  -7.2  34016  287.15 0862.52
2015 04 09 13 37 03 .53     -28     85    -12     90     91 341.3  -7.7  34006  286.96 0862.52
2015 04 09 13 37 03 .79     -42     90    -11    100    101 334.6  -6.7  34000  286.88 0862.53
2015 04 09 13 37 04 .04     -43     74    -11     86     87 329.7  -7.3  34000  286.88 0862.53
2015 04 09 13 37 04 .29     -46     64    -16     80     82 324.0 -11.9  33998  286.83 0862.53
2015 04 09 13 37 04 .54     -50     68    -10     85     86 323.5  -7.3  34000  286.88 0862.53
2015 04 09 13 37 04 .79     -51     65    -21     83     86 321.7 -14.5  34004  286.93 0862.53
2015 04 09 13 37 05 .04     -62     60    -19     87     90 314.0 -12.4  33992  286.74 0862.53
2015 04 09 13 37 05 .29     -64     49    -12     81     82 307.3  -8.8  33990  286.69 0862.53
2015 04 09 13 37 05 .54     -78     25     -6     83     84 288.2  -4.1  33988  286.66 0862.52
2015 04 09 13 37 05 .81     -37     36     25     52     57 314.1  27.2  34014  287.11 0862.52
2015 04 09 13 37 06 .04     -60     28    -18     67     70 295.3 -15.4  33992  286.74 0862.52
2015 04 09 13 37 06 .29     -49     31    -12     59     61 302.5 -11.5  34008  287.01 0862.52
2015 04 09 13 37 06 .55     -40     45    -18     61     63 318.6 -21.7  34012  287.06 0862.52
2015 04 09 13 37 06 .80     -17     25     -5     31     32 325.7  -9.3  34056  287.81 0862.52
2015 04 09 13 37 07 .04     -56      0    -20     57     60 270.0 -23.3  34026  287.30 0862.52
2015 04 09 13 37 07 .30     -20     24    -19     32     37 320.4 -39.9  34046  287.64 0862.52
2015 04 09 13 37 07 .55       2     36     30     37     47   4.5  43.7  34040  287.54 0862.52
2015 04 09 13 37 07 .80     -11     12     34     17     38 316.8  72.8  34064  287.96 0862.52
2015 04 09 13 37 08 .05       0     18    -15     19     24 357.3 -48.1  34062  287.92 0862.52
2015 04 09 13 37 08 .30     -45     -2    -23     46     51 267.4 -31.7  34028  287.33 0862.52
2015 04 09 13 37 08 .56     -16     17     -6     24     25 316.6 -15.5  34046  287.65 0862.52
2015 04 09 13 37 08 .81      -6      6     24      9     25 316.6  81.2  34062  287.91 0862.52
2015 04 09 13 37 09 .06     -12     11      0     17     18 313.3  -2.2  34076  288.14 0862.52
2015 04 09 13 37 09 .31      -9     20     -7     23     25 334.6 -17.6  34074  288.13 0862.52
2015 04 09 13 37 09 .56       8     12      0     15     16  32.6   2.9  34068  288.03 0862.52
2015 04 09 13 37 09 .81     -29     47      2     56     57 328.4   2.9  34038  287.52 0862.52
2015 04 09 13 37 10 .06     -59     49      3     77     78 309.6   2.9  34012  287.06 0862.52
2015 04 09 13 37 10 .31     -55     39     -9     68     69 306.0  -8.2  34004  286.93 0862.52
2015 04 09 13 37 10 .57     -58     41    -24     72     75 305.1 -23.6  34010  287.03 0862.52
2015 04 09 13 37 10 .81     -12     45     28     47     54 344.0  34.4  34028  287.35 0862.52
2015 04 09 13 37 11 .07     -16     22     23     28     36 323.9  43.7  34048  287.67 0862.52
2015 04 09 13 37 11 .31     -36      8      8     37     39 283.3  13.2  34060  287.89 0862.52
2015 04 09 13 37 11 .57     -18     41     54     45     70 336.4  56.3  34048  287.69 0862.52
2015 04 09 13 37 11 .81     -31     46     69     56     88 325.7  56.4  34052  287.76 0862.52
2015 04 09 13 37 12 .07     -24      0     23     25     33 270.8  50.0  34076  288.16 0862.52
2015 04 09 13 37 12 .31     -33     29      4     45     46 311.3   5.9  34060  287.89 0862.52
2015 04 09 13 37 12 .57     -14     17     12     23     25 320.4  29.3  34050  287.70 0862.52
2015 04 09 13 37 12 .82     -21     29     39     37     53 323.9  50.1  34062  287.91 0862.52
2015 04 09 13 37 13 .07     -28     33     51     44     67 319.5  54.3  34028  287.33 0862.52
2015 04 09 13 37 13 .32     -34     41     54     54     76 320.4  50.1  34032  287.40 0862.52
2015 04 09 13 37 13 .57     -30     30     49     43     65 314.9  53.3  34028  287.35 0862.52
2015 04 09 13 37 13 .82     -36     36     51     51     72 315.0  50.1  34034  287.43 0862.51
2015 04 09 13 37 14 .07     -28     13     24     32     40 295.2  40.7  34054  287.77 0862.51
2015 04 09 13 37 14 .32     -20     20      3     29     30 315.0   6.9  34032  287.40 0862.51
2015 04 09 13 37 14 .57     -21     29     26     37     45 323.9  37.6  34030  287.38 0862.51
2015 04 09 13 37 14 .82     -41     33     10     53     55 308.6  11.1  34040  287.54 0862.51
2015 04 09 13 37 15 .07     -34     20     18     40     43 301.5  25.1  34044  287.62 0862.51
2015 04 09 13 37 15 .32     -24     16     36     30     46 304.2  55.4  34050  287.72 0862.51
2015 04 09 13 37 15 .58     -21     29     39     37     53 323.9  50.1  34048  287.69 0862.51
2015 04 09 13 37 15 .84     -20     24     34     32     46 320.4  50.1  34058  287.86 0862.51
2015 04 09 13 37 16 .09     -19      1     28     20     34 274.3  62.6  34076  288.16 0862.51
2015 04 09 13 37 16 .33     -16     12     23     21     31 307.8  52.2  34080  288.21 0862.51
2015 04 09 13 37 16 .58     -33     33     41     48     63 315.0  44.8  34060  287.89 0862.51
2015 04 09 13 37 16 .84     -15     45     57     48     74 340.8  56.3  34082  288.25 0862.51
2015 04 09 13 37 17 .09     -16     46     57     49     75 340.0  55.4  34062  287.91 0862.51
2015 04 09 13 37 17 .34     -23     30     52     38     64 322.2  60.5  34062  287.91 0862.51
2015 04 09 13 37 17 .59      -5     34     41     35     53 350.2  54.3  34056  287.82 0862.51
2015 04 09 13 37 17 .84       1     27     24     28     36   2.7  45.8  34060  287.87 0862.51
2015 04 09 13 37 18 .09      -8     26     43     28     51 341.7  64.6  34056  287.81 0862.51
2015 04 09 13 37 18 .34      -1     31     34     32     46 357.3  50.1  34046  287.65 0862.51
2015 04 09 13 37 18 .60     -24     33     36     42     55 323.9  44.8  34066  287.99 0862.51
2015 04 09 13 37 18 .83      -2     30     36     31     47 355.5  54.3  34064  287.94 0862.51
2015 04 09 13 37 19 .09      22     43     21     49     53  27.2  24.1  34002  286.89 0862.51
2015 04 09 13 37 19 .35      18     56     11     59     61  18.3  11.0  33986  286.64 0862.51
2015 04 09 13 37 19 .60       8     50      7     51     52   9.8   8.0  33990  286.69 0862.51
2015 04 09 13 37 19 .84      16     50     17     53     56  18.5  18.4  34014  287.11 0862.51
2015 04 09 13 37 20 .09      18     38     11     43     45  25.4  15.3  33986  286.62 0862.52
2015 04 09 13 37 20 .34      26     41      2     49     50  32.5   2.9  33978  286.51 0862.52
2015 04 09 13 37 20 .60      35     49      5     61     62  35.2   4.9  33974  286.42 0862.52
2015 04 09 13 37 20 .85      33     45      2     56     57  36.1   2.9  33982  286.56 0862.52
2015 04 09 13 37 21 .10      44     60     36     75     83  36.1  27.2  34076  288.16 0862.52
2015 04 09 13 37 21 .34      32     69     37     77     85  25.3  27.8  34038  287.50 0862.52
2015 04 09 13 37 21 .60      38     70      6     80     81  28.9   4.9  34000  286.88 0862.52
2015 04 09 13 37 21 .85      51     68     12     86     87  37.0   8.0  34016  287.15 0862.52
2015 04 09 13 37 22 .10      41     61     32     74     80  34.3  25.1  34054  287.77 0862.52
2015 04 09 13 37 22 .36      35     74     34     83     89  25.4  23.0  34062  287.91 0862.52
2015 04 09 13 37 22 .61      49     78      6     93     94  32.5   3.8  33990  286.71 0862.52
2015 04 09 13 37 22 .86      31     94     13     99    100  18.3   8.0  34066  287.98 0862.52
2015 04 09 13 37 23 .11      42     85     17     95     97  26.3  10.6  34028  287.35 0862.52
2015 04 09 13 37 23 .36      30     58     -1     66     67  27.2  -1.2  33976  286.47 0862.52
2015 04 09 13 37 23 .61      32     54    -10     63     64  30.7  -9.3  33978  286.51 0862.52
2015 04 09 13 37 23 .86      31     48    -16     58     61  33.4 -15.4  33976  286.46 0862.52
2015 04 09 13 37 24 .12      43     32    -16     54     56  53.1 -22.8  34044  287.62 0862.52
2015 04 09 13 37 24 .36      44     32     -6     55     56  54.0  -6.2  34042  287.57 0862.52
2015 04 09 13 37 24 .61      26     27      6     38     39  43.2  10.1  34046  287.64 0862.52
2015 04 09 13 37 24 .87      28     38     16     48     51  37.0  18.4  34044  287.62 0862.52
2015 04 09 13 37 25 .11      32     41     10     53     54  37.8  11.0  34048  287.69 0862.52
2015 04 09 13 37 25 .36      33     45     -3     56     57  36.1  -3.1  34044  287.60 0862.52
2015 04 09 13 37 25 .61      25     45      1     52     53  29.0   1.8  34024  287.27 0862.52
2015 04 09 13 37 25 .87      13     67     10     69     70  11.5   9.0  34018  287.16 0862.52
2015 04 09 13 37 26 .11      37     78     -4     87     88  25.4  -3.1  33982  286.56 0862.52
2015 04 09 13 37 26 .37      49     82     -3     96     97  31.2  -2.2  33976  286.46 0862.52
2015 04 09 13 37 26 .62      38     85      0     94     95  24.5   0.2  33978  286.49 0862.52
2015 04 09 13 37 26 .87      38     85     -7     94     95  24.1  -4.6  33976  286.46 0862.52
2015 04 09 13 37 27 .12      37     70     -1     80     81  28.1  -1.3  33976  286.47 0862.52
2015 04 09 13 37 27 .37      26     59     -3     65     66  23.6  -3.1  33978  286.49 0862.52
2015 04 09 13 37 27 .62      27     26    -21     38     43  46.7 -35.8  33978  286.51 0862.52
2015 04 09 13 37 27 .87      22     42    -51     48     70  28.1 -56.5  33988  286.66 0862.52
2015 04 09 13 37 28 .12      34     37    -54     51     74  42.3 -55.6  33984  286.59 0862.52
2015 04 09 13 37 28 .37      49     52    -67     72     98  43.2 -52.3  33980  286.54 0862.52
2015 04 09 13 37 28 .62      59     56    -54     82     98  46.9 -40.9  33976  286.47 0862.52
2015 04 09 13 37 28 .87      56     46    -45     73     85  50.5 -39.4  33976  286.47 0862.52
2015 04 09 13 37 29 .12      52     41    -34     67     75  52.2 -32.6  33978  286.51 0862.52
2015 04 09 13 37 29 .38      49     30    -30     58     65  58.5 -34.7  33976  286.46 0862.52
2015 04 09 13 37 29 .63      52     10    -21     54     57  78.6 -25.4  33976  286.46 0862.52
2015 04 09 13 37 29 .89      46     21    -27     51     57  64.6 -34.7  33978  286.49 0862.52
2015 04 09 13 37 30 .13      31     26    -37     41     55  50.4 -51.3  33984  286.59 0862.52
2015 04 09 13 37 30 .39      41     25    -30     49     57  58.5 -39.9  33982  286.56 0862.52
2015 04 09 13 37 30 .63      36     20    -24     42     48  60.2 -37.9  33984  286.59 0862.52
2015 04 09 13 37 30 .89      40     25    -21     48     52  57.5 -29.5  33978  286.51 0862.52
